<?xml version="1.0" encoding="UTF-8"?>
<gpx version="1.1" creator="https://www.youtrack.es" xsi:schemaLocation="http://www.topografix.com/GPX/1/1 http://www.topografix.com/GPX/1/1/gpx.xsd http://www.garmin.com/xmlschemas/GpxExtensions/v3 http://www.garmin.com/xmlschemas/GpxExtensionsv3.xsd http://www.garmin.com/xmlschemas/TrackPointExtension/v1 http://www.garmin.com/xmlschemas/TrackPointExtensionv1.xsd" xmlns:gpxtpx="http://www.garmin.com/xmlschemas/TrackPointExtension/v1" xmlns:gpxx="http://www.garmin.com/xmlschemas/GpxExtensions/v3" xmlns:xsi="http://www.w3.org/2001/XMLSchema-instance">
  <metadata>
    <link href="https://www.youtrack.es">
      <text>YouTrack.es</text>
    </link>
    <time>2026-05-07T20:38:18Z</time>
  </metadata>
  <trk>
    <src>https://www.youtrack.es</src>
    <link href="https://www.youtrack.es/ruta/36502-gr-20--fixed-">
      <text>YouTrack.es</text>
    </link>
    <trkseg>
      <trkpt lat="42.510425" lon="8.85097">
        <ele>239.6</ele>
        <time>2022-09-08T05:49:48Z</time>
      </trkpt>
      <trkpt lat="42.510475" lon="8.850938">
        <ele>239.4</ele>
        <time>2022-09-08T05:49:51Z</time>
      </trkpt>
      <trkpt lat="42.510532" lon="8.850967">
        <ele>239.4</ele>
        <time>2022-09-08T05:49:55Z</time>
      </trkpt>
      <trkpt lat="42.510598" lon="8.851057">
        <ele>239.8</ele>
        <time>2022-09-08T05:50:01Z</time>
      </trkpt>
      <trkpt lat="42.510615" lon="8.851097">
        <ele>240.0</ele>
        <time>2022-09-08T05:50:03Z</time>
      </trkpt>
      <trkpt lat="42.510533" lon="8.851157">
        <ele>241.2</ele>
        <time>2022-09-08T05:50:12Z</time>
      </trkpt>
      <trkpt lat="42.510522" lon="8.851323">
        <ele>242.4</ele>
        <time>2022-09-08T05:50:26Z</time>
      </trkpt>
      <trkpt lat="42.510497" lon="8.851345">
        <ele>242.8</ele>
        <time>2022-09-08T05:50:29Z</time>
      </trkpt>
      <trkpt lat="42.510443" lon="8.851345">
        <ele>243.6</ele>
        <time>2022-09-08T05:50:35Z</time>
      </trkpt>
      <trkpt lat="42.510327" lon="8.851337">
        <ele>244.0</ele>
        <time>2022-09-08T05:50:51Z</time>
      </trkpt>
      <trkpt lat="42.510318" lon="8.851342">
        <ele>243.6</ele>
        <time>2022-09-08T05:50:53Z</time>
      </trkpt>
      <trkpt lat="42.510255" lon="8.851235">
        <ele>243.2</ele>
        <time>2022-09-08T05:51:04Z</time>
      </trkpt>
      <trkpt lat="42.5102" lon="8.851058">
        <ele>242.4</ele>
        <time>2022-09-08T05:51:17Z</time>
      </trkpt>
      <trkpt lat="42.510215" lon="8.8507">
        <ele>243.0</ele>
        <time>2022-09-08T05:51:37Z</time>
      </trkpt>
      <trkpt lat="42.510222" lon="8.850605">
        <ele>243.0</ele>
        <time>2022-09-08T05:51:43Z</time>
      </trkpt>
      <trkpt lat="42.510215" lon="8.850482">
        <ele>243.2</ele>
        <time>2022-09-08T05:51:51Z</time>
      </trkpt>
      <trkpt lat="42.510212" lon="8.850465">
        <ele>243.2</ele>
        <time>2022-09-08T05:51:52Z</time>
      </trkpt>
      <trkpt lat="42.510165" lon="8.850435">
        <ele>243.6</ele>
        <time>2022-09-08T05:51:57Z</time>
      </trkpt>
      <trkpt lat="42.510088" lon="8.85044">
        <ele>244.0</ele>
        <time>2022-09-08T05:52:04Z</time>
      </trkpt>
      <trkpt lat="42.509875" lon="8.850535">
        <ele>245.8</ele>
        <time>2022-09-08T05:52:25Z</time>
      </trkpt>
      <trkpt lat="42.509805" lon="8.850618">
        <ele>246.6</ele>
        <time>2022-09-08T05:52:33Z</time>
      </trkpt>
      <trkpt lat="42.509603" lon="8.850807">
        <ele>247.4</ele>
        <time>2022-09-08T05:52:51Z</time>
      </trkpt>
      <trkpt lat="42.509452" lon="8.850882">
        <ele>248.6</ele>
        <time>2022-09-08T05:53:03Z</time>
      </trkpt>
      <trkpt lat="42.509358" lon="8.850912">
        <ele>249.4</ele>
        <time>2022-09-08T05:53:10Z</time>
      </trkpt>
      <trkpt lat="42.509025" lon="8.851287">
        <ele>253.6</ele>
        <time>2022-09-08T05:53:50Z</time>
      </trkpt>
      <trkpt lat="42.50894" lon="8.851403">
        <ele>254.8</ele>
        <time>2022-09-08T05:54:02Z</time>
      </trkpt>
      <trkpt lat="42.508763" lon="8.851607">
        <ele>257.0</ele>
        <time>2022-09-08T05:54:21Z</time>
      </trkpt>
      <trkpt lat="42.50866" lon="8.851702">
        <ele>258.4</ele>
        <time>2022-09-08T05:54:31Z</time>
      </trkpt>
      <trkpt lat="42.508482" lon="8.851845">
        <ele>260.8</ele>
        <time>2022-09-08T05:54:49Z</time>
      </trkpt>
      <trkpt lat="42.508277" lon="8.851975">
        <ele>263.4</ele>
        <time>2022-09-08T05:55:09Z</time>
      </trkpt>
      <trkpt lat="42.508267" lon="8.851982">
        <ele>263.6</ele>
        <time>2022-09-08T05:55:11Z</time>
      </trkpt>
      <trkpt lat="42.508168" lon="8.852068">
        <ele>264.8</ele>
        <time>2022-09-08T05:55:21Z</time>
      </trkpt>
      <trkpt lat="42.50803" lon="8.852192">
        <ele>266.4</ele>
        <time>2022-09-08T05:55:36Z</time>
      </trkpt>
      <trkpt lat="42.507933" lon="8.852275">
        <ele>267.4</ele>
        <time>2022-09-08T05:55:46Z</time>
      </trkpt>
      <trkpt lat="42.507897" lon="8.852307">
        <ele>268.0</ele>
        <time>2022-09-08T05:55:50Z</time>
      </trkpt>
      <trkpt lat="42.507738" lon="8.852522">
        <ele>269.6</ele>
        <time>2022-09-08T05:56:11Z</time>
      </trkpt>
      <trkpt lat="42.5076" lon="8.852697">
        <ele>271.6</ele>
        <time>2022-09-08T05:56:27Z</time>
      </trkpt>
      <trkpt lat="42.507553" lon="8.852725">
        <ele>272.0</ele>
        <time>2022-09-08T05:56:31Z</time>
      </trkpt>
      <trkpt lat="42.507432" lon="8.852847">
        <ele>273.8</ele>
        <time>2022-09-08T05:56:46Z</time>
      </trkpt>
      <trkpt lat="42.507373" lon="8.852875">
        <ele>274.4</ele>
        <time>2022-09-08T05:56:52Z</time>
      </trkpt>
      <trkpt lat="42.507323" lon="8.852895">
        <ele>275.2</ele>
        <time>2022-09-08T05:56:58Z</time>
      </trkpt>
      <trkpt lat="42.507287" lon="8.852982">
        <ele>276.0</ele>
        <time>2022-09-08T05:57:06Z</time>
      </trkpt>
      <trkpt lat="42.50726" lon="8.853027">
        <ele>276.6</ele>
        <time>2022-09-08T05:57:11Z</time>
      </trkpt>
      <trkpt lat="42.507245" lon="8.853038">
        <ele>277.0</ele>
        <time>2022-09-08T05:57:13Z</time>
      </trkpt>
      <trkpt lat="42.507187" lon="8.852983">
        <ele>279.0</ele>
        <time>2022-09-08T05:57:57Z</time>
      </trkpt>
      <trkpt lat="42.507177" lon="8.853082">
        <ele>279.6</ele>
        <time>2022-09-08T05:58:09Z</time>
      </trkpt>
      <trkpt lat="42.50701" lon="8.853537">
        <ele>281.2</ele>
        <time>2022-09-08T05:58:20Z</time>
      </trkpt>
      <trkpt lat="42.50686" lon="8.853733">
        <ele>282.6</ele>
        <time>2022-09-08T05:58:30Z</time>
      </trkpt>
      <trkpt lat="42.506803" lon="8.853817">
        <ele>282.8</ele>
        <time>2022-09-08T05:58:32Z</time>
      </trkpt>
      <trkpt lat="42.506617" lon="8.853977">
        <ele>285.0</ele>
        <time>2022-09-08T05:58:45Z</time>
      </trkpt>
      <trkpt lat="42.50657" lon="8.854027">
        <ele>286.2</ele>
        <time>2022-09-08T05:58:50Z</time>
      </trkpt>
      <trkpt lat="42.506552" lon="8.85408">
        <ele>286.8</ele>
        <time>2022-09-08T05:58:54Z</time>
      </trkpt>
      <trkpt lat="42.506655" lon="8.853973">
        <ele>288.2</ele>
        <time>2022-09-08T05:59:46Z</time>
      </trkpt>
      <trkpt lat="42.506705" lon="8.85392">
        <ele>292.4</ele>
        <time>2022-09-08T06:00:13Z</time>
      </trkpt>
      <trkpt lat="42.506598" lon="8.854123">
        <ele>294.4</ele>
        <time>2022-09-08T06:00:27Z</time>
      </trkpt>
      <trkpt lat="42.506512" lon="8.854383">
        <ele>296.2</ele>
        <time>2022-09-08T06:00:39Z</time>
      </trkpt>
      <trkpt lat="42.506433" lon="8.854543">
        <ele>297.2</ele>
        <time>2022-09-08T06:00:45Z</time>
      </trkpt>
      <trkpt lat="42.50639" lon="8.85473">
        <ele>298.2</ele>
        <time>2022-09-08T06:00:51Z</time>
      </trkpt>
      <trkpt lat="42.506392" lon="8.854782">
        <ele>298.6</ele>
        <time>2022-09-08T06:00:54Z</time>
      </trkpt>
      <trkpt lat="42.506455" lon="8.854925">
        <ele>299.8</ele>
        <time>2022-09-08T06:01:04Z</time>
      </trkpt>
      <trkpt lat="42.506438" lon="8.855037">
        <ele>301.2</ele>
        <time>2022-09-08T06:01:12Z</time>
      </trkpt>
      <trkpt lat="42.506402" lon="8.85516">
        <ele>302.2</ele>
        <time>2022-09-08T06:01:20Z</time>
      </trkpt>
      <trkpt lat="42.506347" lon="8.855228">
        <ele>303.4</ele>
        <time>2022-09-08T06:01:26Z</time>
      </trkpt>
      <trkpt lat="42.50631" lon="8.855277">
        <ele>304.0</ele>
        <time>2022-09-08T06:01:30Z</time>
      </trkpt>
      <trkpt lat="42.506255" lon="8.85535">
        <ele>304.8</ele>
        <time>2022-09-08T06:01:38Z</time>
      </trkpt>
      <trkpt lat="42.506228" lon="8.855403">
        <ele>305.4</ele>
        <time>2022-09-08T06:01:43Z</time>
      </trkpt>
      <trkpt lat="42.506215" lon="8.855507">
        <ele>305.6</ele>
        <time>2022-09-08T06:01:51Z</time>
      </trkpt>
      <trkpt lat="42.506205" lon="8.855568">
        <ele>306.4</ele>
        <time>2022-09-08T06:01:56Z</time>
      </trkpt>
      <trkpt lat="42.506175" lon="8.855593">
        <ele>307.0</ele>
        <time>2022-09-08T06:02:07Z</time>
      </trkpt>
      <trkpt lat="42.506167" lon="8.855592">
        <ele>307.0</ele>
        <time>2022-09-08T06:02:11Z</time>
      </trkpt>
      <trkpt lat="42.506117" lon="8.85581">
        <ele>307.8</ele>
        <time>2022-09-08T06:02:30Z</time>
      </trkpt>
      <trkpt lat="42.506083" lon="8.855915">
        <ele>308.6</ele>
        <time>2022-09-08T06:02:36Z</time>
      </trkpt>
      <trkpt lat="42.506038" lon="8.856017">
        <ele>308.8</ele>
        <time>2022-09-08T06:02:43Z</time>
      </trkpt>
      <trkpt lat="42.506025" lon="8.85612">
        <ele>309.0</ele>
        <time>2022-09-08T06:02:50Z</time>
      </trkpt>
      <trkpt lat="42.506027" lon="8.856167">
        <ele>309.6</ele>
        <time>2022-09-08T06:02:53Z</time>
      </trkpt>
      <trkpt lat="42.505957" lon="8.856222">
        <ele>310.2</ele>
        <time>2022-09-08T06:03:03Z</time>
      </trkpt>
      <trkpt lat="42.505842" lon="8.856315">
        <ele>310.4</ele>
        <time>2022-09-08T06:03:13Z</time>
      </trkpt>
      <trkpt lat="42.505722" lon="8.856358">
        <ele>312.2</ele>
        <time>2022-09-08T06:03:40Z</time>
      </trkpt>
      <trkpt lat="42.505615" lon="8.856383">
        <ele>310.6</ele>
        <time>2022-09-08T06:04:12Z</time>
      </trkpt>
      <trkpt lat="42.505582" lon="8.856345">
        <ele>313.4</ele>
        <time>2022-09-08T06:05:10Z</time>
      </trkpt>
      <trkpt lat="42.505557" lon="8.856325">
        <ele>323.2</ele>
        <time>2022-09-08T06:06:32Z</time>
      </trkpt>
      <trkpt lat="42.505553" lon="8.856327">
        <ele>323.4</ele>
        <time>2022-09-08T06:06:33Z</time>
      </trkpt>
      <trkpt lat="42.505572" lon="8.856373">
        <ele>324.2</ele>
        <time>2022-09-08T06:06:40Z</time>
      </trkpt>
      <trkpt lat="42.505535" lon="8.856438">
        <ele>325.4</ele>
        <time>2022-09-08T06:06:47Z</time>
      </trkpt>
      <trkpt lat="42.505525" lon="8.856508">
        <ele>326.4</ele>
        <time>2022-09-08T06:06:53Z</time>
      </trkpt>
      <trkpt lat="42.50548" lon="8.856802">
        <ele>337.0</ele>
        <time>2022-09-08T06:07:52Z</time>
      </trkpt>
      <trkpt lat="42.505475" lon="8.856818">
        <ele>337.4</ele>
        <time>2022-09-08T06:07:54Z</time>
      </trkpt>
      <trkpt lat="42.505402" lon="8.85681">
        <ele>338.6</ele>
        <time>2022-09-08T06:08:05Z</time>
      </trkpt>
      <trkpt lat="42.50536" lon="8.856782">
        <ele>339.4</ele>
        <time>2022-09-08T06:08:11Z</time>
      </trkpt>
      <trkpt lat="42.505322" lon="8.856783">
        <ele>339.8</ele>
        <time>2022-09-08T06:08:16Z</time>
      </trkpt>
      <trkpt lat="42.505202" lon="8.856815">
        <ele>341.0</ele>
        <time>2022-09-08T06:08:37Z</time>
      </trkpt>
      <trkpt lat="42.505197" lon="8.856817">
        <ele>341.0</ele>
        <time>2022-09-08T06:08:38Z</time>
      </trkpt>
      <trkpt lat="42.505167" lon="8.856902">
        <ele>341.6</ele>
        <time>2022-09-08T06:08:47Z</time>
      </trkpt>
      <trkpt lat="42.505033" lon="8.85697">
        <ele>343.4</ele>
        <time>2022-09-08T06:09:07Z</time>
      </trkpt>
      <trkpt lat="42.504987" lon="8.856967">
        <ele>344.2</ele>
        <time>2022-09-08T06:09:11Z</time>
      </trkpt>
      <trkpt lat="42.50498" lon="8.856988">
        <ele>344.6</ele>
        <time>2022-09-08T06:09:14Z</time>
      </trkpt>
      <trkpt lat="42.504943" lon="8.85706">
        <ele>345.2</ele>
        <time>2022-09-08T06:09:20Z</time>
      </trkpt>
      <trkpt lat="42.504815" lon="8.8572">
        <ele>347.2</ele>
        <time>2022-09-08T06:09:36Z</time>
      </trkpt>
      <trkpt lat="42.504637" lon="8.857267">
        <ele>346.6</ele>
        <time>2022-09-08T06:10:14Z</time>
      </trkpt>
      <trkpt lat="42.504643" lon="8.85726">
        <ele>346.6</ele>
        <time>2022-09-08T06:10:15Z</time>
      </trkpt>
      <trkpt lat="42.504667" lon="8.857243">
        <ele>346.6</ele>
        <time>2022-09-08T06:10:20Z</time>
      </trkpt>
      <trkpt lat="42.504857" lon="8.857115">
        <ele>346.6</ele>
        <time>2022-09-08T06:10:32Z</time>
      </trkpt>
      <trkpt lat="42.50494" lon="8.857087">
        <ele>346.6</ele>
        <time>2022-09-08T06:10:36Z</time>
      </trkpt>
      <trkpt lat="42.505125" lon="8.85699">
        <ele>346.6</ele>
        <time>2022-09-08T06:10:46Z</time>
      </trkpt>
      <trkpt lat="42.505188" lon="8.856942">
        <ele>346.6</ele>
        <time>2022-09-08T06:10:50Z</time>
      </trkpt>
      <trkpt lat="42.505203" lon="8.856928">
        <ele>346.6</ele>
        <time>2022-09-08T06:10:52Z</time>
      </trkpt>
      <trkpt lat="42.50516" lon="8.857018">
        <ele>346.6</ele>
        <time>2022-09-08T06:10:59Z</time>
      </trkpt>
      <trkpt lat="42.504993" lon="8.857203">
        <ele>346.0</ele>
        <time>2022-09-08T06:11:58Z</time>
      </trkpt>
      <trkpt lat="42.504543" lon="8.857552">
        <ele>346.6</ele>
        <time>2022-09-08T06:15:04Z</time>
      </trkpt>
      <trkpt lat="42.504503" lon="8.857477">
        <ele>346.6</ele>
        <time>2022-09-08T06:15:22Z</time>
      </trkpt>
      <trkpt lat="42.504442" lon="8.857378">
        <ele>345.4</ele>
        <time>2022-09-08T06:15:51Z</time>
      </trkpt>
      <trkpt lat="42.50444" lon="8.857378">
        <ele>345.4</ele>
        <time>2022-09-08T06:15:52Z</time>
      </trkpt>
      <trkpt lat="42.504583" lon="8.857293">
        <ele>345.6</ele>
        <time>2022-09-08T06:16:00Z</time>
      </trkpt>
      <trkpt lat="42.504702" lon="8.857245">
        <ele>345.8</ele>
        <time>2022-09-08T06:16:06Z</time>
      </trkpt>
      <trkpt lat="42.504895" lon="8.857132">
        <ele>345.8</ele>
        <time>2022-09-08T06:16:15Z</time>
      </trkpt>
      <trkpt lat="42.50496" lon="8.857088">
        <ele>345.8</ele>
        <time>2022-09-08T06:16:19Z</time>
      </trkpt>
      <trkpt lat="42.505022" lon="8.857033">
        <ele>345.8</ele>
        <time>2022-09-08T06:16:22Z</time>
      </trkpt>
      <trkpt lat="42.50507" lon="8.85695">
        <ele>345.8</ele>
        <time>2022-09-08T06:16:26Z</time>
      </trkpt>
      <trkpt lat="42.50508" lon="8.85693">
        <ele>345.8</ele>
        <time>2022-09-08T06:16:27Z</time>
      </trkpt>
      <trkpt lat="42.505033" lon="8.857002">
        <ele>345.8</ele>
        <time>2022-09-08T06:16:31Z</time>
      </trkpt>
      <trkpt lat="42.50494" lon="8.857027">
        <ele>346.4</ele>
        <time>2022-09-08T06:16:37Z</time>
      </trkpt>
      <trkpt lat="42.504828" lon="8.857107">
        <ele>347.4</ele>
        <time>2022-09-08T06:16:44Z</time>
      </trkpt>
      <trkpt lat="42.504713" lon="8.857205">
        <ele>347.8</ele>
        <time>2022-09-08T06:16:51Z</time>
      </trkpt>
      <trkpt lat="42.504485" lon="8.857438">
        <ele>350.0</ele>
        <time>2022-09-08T06:17:09Z</time>
      </trkpt>
      <trkpt lat="42.504447" lon="8.85754">
        <ele>351.4</ele>
        <time>2022-09-08T06:17:21Z</time>
      </trkpt>
      <trkpt lat="42.50441" lon="8.85759">
        <ele>352.6</ele>
        <time>2022-09-08T06:17:28Z</time>
      </trkpt>
      <trkpt lat="42.504348" lon="8.857587">
        <ele>353.2</ele>
        <time>2022-09-08T06:17:34Z</time>
      </trkpt>
      <trkpt lat="42.504308" lon="8.857592">
        <ele>354.2</ele>
        <time>2022-09-08T06:17:38Z</time>
      </trkpt>
      <trkpt lat="42.504285" lon="8.857617">
        <ele>355.4</ele>
        <time>2022-09-08T06:17:42Z</time>
      </trkpt>
      <trkpt lat="42.50429" lon="8.857653">
        <ele>355.8</ele>
        <time>2022-09-08T06:17:46Z</time>
      </trkpt>
      <trkpt lat="42.504318" lon="8.857727">
        <ele>357.4</ele>
        <time>2022-09-08T06:17:55Z</time>
      </trkpt>
      <trkpt lat="42.50432" lon="8.857782">
        <ele>358.2</ele>
        <time>2022-09-08T06:18:00Z</time>
      </trkpt>
      <trkpt lat="42.50431" lon="8.857837">
        <ele>358.6</ele>
        <time>2022-09-08T06:18:05Z</time>
      </trkpt>
      <trkpt lat="42.504272" lon="8.857917">
        <ele>360.0</ele>
        <time>2022-09-08T06:18:14Z</time>
      </trkpt>
      <trkpt lat="42.504258" lon="8.858035">
        <ele>361.8</ele>
        <time>2022-09-08T06:18:26Z</time>
      </trkpt>
      <trkpt lat="42.50425" lon="8.858185">
        <ele>364.2</ele>
        <time>2022-09-08T06:18:43Z</time>
      </trkpt>
      <trkpt lat="42.503875" lon="8.857977">
        <ele>365.2</ele>
        <time>2022-09-08T06:18:50Z</time>
      </trkpt>
      <trkpt lat="42.50381" lon="8.857853">
        <ele>366.4</ele>
        <time>2022-09-08T06:19:00Z</time>
      </trkpt>
      <trkpt lat="42.503785" lon="8.857998">
        <ele>368.4</ele>
        <time>2022-09-08T06:19:10Z</time>
      </trkpt>
      <trkpt lat="42.50376" lon="8.858037">
        <ele>368.4</ele>
        <time>2022-09-08T06:19:10Z</time>
      </trkpt>
      <trkpt lat="42.503753" lon="8.858062">
        <ele>368.8</ele>
        <time>2022-09-08T06:19:12Z</time>
      </trkpt>
      <trkpt lat="42.503748" lon="8.85811">
        <ele>369.6</ele>
        <time>2022-09-08T06:19:16Z</time>
      </trkpt>
      <trkpt lat="42.50373" lon="8.858138">
        <ele>370.2</ele>
        <time>2022-09-08T06:19:19Z</time>
      </trkpt>
      <trkpt lat="42.503713" lon="8.858108">
        <ele>370.4</ele>
        <time>2022-09-08T06:19:22Z</time>
      </trkpt>
      <trkpt lat="42.503697" lon="8.858052">
        <ele>371.6</ele>
        <time>2022-09-08T06:19:27Z</time>
      </trkpt>
      <trkpt lat="42.503683" lon="8.857987">
        <ele>372.6</ele>
        <time>2022-09-08T06:19:34Z</time>
      </trkpt>
      <trkpt lat="42.503662" lon="8.857997">
        <ele>373.2</ele>
        <time>2022-09-08T06:19:38Z</time>
      </trkpt>
      <trkpt lat="42.503625" lon="8.858037">
        <ele>374.2</ele>
        <time>2022-09-08T06:19:46Z</time>
      </trkpt>
      <trkpt lat="42.5036" lon="8.858027">
        <ele>374.8</ele>
        <time>2022-09-08T06:19:51Z</time>
      </trkpt>
      <trkpt lat="42.503595" lon="8.857992">
        <ele>375.4</ele>
        <time>2022-09-08T06:19:56Z</time>
      </trkpt>
      <trkpt lat="42.503593" lon="8.85794">
        <ele>377.2</ele>
        <time>2022-09-08T06:20:04Z</time>
      </trkpt>
      <trkpt lat="42.503575" lon="8.857885">
        <ele>378.6</ele>
        <time>2022-09-08T06:20:14Z</time>
      </trkpt>
      <trkpt lat="42.503567" lon="8.857875">
        <ele>379.0</ele>
        <time>2022-09-08T06:20:16Z</time>
      </trkpt>
      <trkpt lat="42.503505" lon="8.857902">
        <ele>380.0</ele>
        <time>2022-09-08T06:20:25Z</time>
      </trkpt>
      <trkpt lat="42.503475" lon="8.857842">
        <ele>381.2</ele>
        <time>2022-09-08T06:20:33Z</time>
      </trkpt>
      <trkpt lat="42.503448" lon="8.857758">
        <ele>383.0</ele>
        <time>2022-09-08T06:20:45Z</time>
      </trkpt>
      <trkpt lat="42.503422" lon="8.857698">
        <ele>384.0</ele>
        <time>2022-09-08T06:20:55Z</time>
      </trkpt>
      <trkpt lat="42.503407" lon="8.857645">
        <ele>385.0</ele>
        <time>2022-09-08T06:21:03Z</time>
      </trkpt>
      <trkpt lat="42.503385" lon="8.857677">
        <ele>386.0</ele>
        <time>2022-09-08T06:21:10Z</time>
      </trkpt>
      <trkpt lat="42.503383" lon="8.857685">
        <ele>386.4</ele>
        <time>2022-09-08T06:21:11Z</time>
      </trkpt>
      <trkpt lat="42.503355" lon="8.857675">
        <ele>387.6</ele>
        <time>2022-09-08T06:21:19Z</time>
      </trkpt>
      <trkpt lat="42.503328" lon="8.857627">
        <ele>388.4</ele>
        <time>2022-09-08T06:21:25Z</time>
      </trkpt>
      <trkpt lat="42.503298" lon="8.8576">
        <ele>389.0</ele>
        <time>2022-09-08T06:21:30Z</time>
      </trkpt>
      <trkpt lat="42.503275" lon="8.857548">
        <ele>389.2</ele>
        <time>2022-09-08T06:21:37Z</time>
      </trkpt>
      <trkpt lat="42.503255" lon="8.85752">
        <ele>389.2</ele>
        <time>2022-09-08T06:21:42Z</time>
      </trkpt>
      <trkpt lat="42.503232" lon="8.857503">
        <ele>389.0</ele>
        <time>2022-09-08T06:21:46Z</time>
      </trkpt>
      <trkpt lat="42.503178" lon="8.857395">
        <ele>388.4</ele>
        <time>2022-09-08T06:22:07Z</time>
      </trkpt>
      <trkpt lat="42.503178" lon="8.857335">
        <ele>388.4</ele>
        <time>2022-09-08T06:22:14Z</time>
      </trkpt>
      <trkpt lat="42.503157" lon="8.857277">
        <ele>388.4</ele>
        <time>2022-09-08T06:22:19Z</time>
      </trkpt>
      <trkpt lat="42.503157" lon="8.857263">
        <ele>388.4</ele>
        <time>2022-09-08T06:22:20Z</time>
      </trkpt>
      <trkpt lat="42.503172" lon="8.857177">
        <ele>390.4</ele>
        <time>2022-09-08T06:22:51Z</time>
      </trkpt>
      <trkpt lat="42.503177" lon="8.857188">
        <ele>392.2</ele>
        <time>2022-09-08T06:23:02Z</time>
      </trkpt>
      <trkpt lat="42.50317" lon="8.857195">
        <ele>394.8</ele>
        <time>2022-09-08T06:23:15Z</time>
      </trkpt>
      <trkpt lat="42.50317" lon="8.857193">
        <ele>394.8</ele>
        <time>2022-09-08T06:23:16Z</time>
      </trkpt>
      <trkpt lat="42.503152" lon="8.857028">
        <ele>397.0</ele>
        <time>2022-09-08T06:23:32Z</time>
      </trkpt>
      <trkpt lat="42.503147" lon="8.856953">
        <ele>397.6</ele>
        <time>2022-09-08T06:23:38Z</time>
      </trkpt>
      <trkpt lat="42.503133" lon="8.856807">
        <ele>399.0</ele>
        <time>2022-09-08T06:23:48Z</time>
      </trkpt>
      <trkpt lat="42.503132" lon="8.856707">
        <ele>400.4</ele>
        <time>2022-09-08T06:23:55Z</time>
      </trkpt>
      <trkpt lat="42.503127" lon="8.85657">
        <ele>402.6</ele>
        <time>2022-09-08T06:24:11Z</time>
      </trkpt>
      <trkpt lat="42.503098" lon="8.856497">
        <ele>404.0</ele>
        <time>2022-09-08T06:24:20Z</time>
      </trkpt>
      <trkpt lat="42.503107" lon="8.856437">
        <ele>405.4</ele>
        <time>2022-09-08T06:24:28Z</time>
      </trkpt>
      <trkpt lat="42.503127" lon="8.856365">
        <ele>406.8</ele>
        <time>2022-09-08T06:24:35Z</time>
      </trkpt>
      <trkpt lat="42.50313" lon="8.85634">
        <ele>406.8</ele>
        <time>2022-09-08T06:24:37Z</time>
      </trkpt>
      <trkpt lat="42.503072" lon="8.85624">
        <ele>408.2</ele>
        <time>2022-09-08T06:24:47Z</time>
      </trkpt>
      <trkpt lat="42.503033" lon="8.856072">
        <ele>410.6</ele>
        <time>2022-09-08T06:25:01Z</time>
      </trkpt>
      <trkpt lat="42.503007" lon="8.85603">
        <ele>411.4</ele>
        <time>2022-09-08T06:25:07Z</time>
      </trkpt>
      <trkpt lat="42.502973" lon="8.85597">
        <ele>412.2</ele>
        <time>2022-09-08T06:25:16Z</time>
      </trkpt>
      <trkpt lat="42.502957" lon="8.855902">
        <ele>413.8</ele>
        <time>2022-09-08T06:25:26Z</time>
      </trkpt>
      <trkpt lat="42.502953" lon="8.855898">
        <ele>413.8</ele>
        <time>2022-09-08T06:25:27Z</time>
      </trkpt>
      <trkpt lat="42.502958" lon="8.855847">
        <ele>415.0</ele>
        <time>2022-09-08T06:25:35Z</time>
      </trkpt>
      <trkpt lat="42.50294" lon="8.855745">
        <ele>419.0</ele>
        <time>2022-09-08T06:25:59Z</time>
      </trkpt>
      <trkpt lat="42.502948" lon="8.855673">
        <ele>420.0</ele>
        <time>2022-09-08T06:26:08Z</time>
      </trkpt>
      <trkpt lat="42.502943" lon="8.855645">
        <ele>420.4</ele>
        <time>2022-09-08T06:26:11Z</time>
      </trkpt>
      <trkpt lat="42.50288" lon="8.855582">
        <ele>421.2</ele>
        <time>2022-09-08T06:26:18Z</time>
      </trkpt>
      <trkpt lat="42.502848" lon="8.855545">
        <ele>421.8</ele>
        <time>2022-09-08T06:26:22Z</time>
      </trkpt>
      <trkpt lat="42.50285" lon="8.85551">
        <ele>422.2</ele>
        <time>2022-09-08T06:26:25Z</time>
      </trkpt>
      <trkpt lat="42.502883" lon="8.855397">
        <ele>424.6</ele>
        <time>2022-09-08T06:26:39Z</time>
      </trkpt>
      <trkpt lat="42.502843" lon="8.85529">
        <ele>426.0</ele>
        <time>2022-09-08T06:26:51Z</time>
      </trkpt>
      <trkpt lat="42.502838" lon="8.85528">
        <ele>426.2</ele>
        <time>2022-09-08T06:26:52Z</time>
      </trkpt>
      <trkpt lat="42.502802" lon="8.855278">
        <ele>426.6</ele>
        <time>2022-09-08T06:26:55Z</time>
      </trkpt>
      <trkpt lat="42.502623" lon="8.855217">
        <ele>428.6</ele>
        <time>2022-09-08T06:27:11Z</time>
      </trkpt>
      <trkpt lat="42.502487" lon="8.855183">
        <ele>430.6</ele>
        <time>2022-09-08T06:27:29Z</time>
      </trkpt>
      <trkpt lat="42.502435" lon="8.855083">
        <ele>432.0</ele>
        <time>2022-09-08T06:27:40Z</time>
      </trkpt>
      <trkpt lat="42.50237" lon="8.854977">
        <ele>432.8</ele>
        <time>2022-09-08T06:27:49Z</time>
      </trkpt>
      <trkpt lat="42.50233" lon="8.854857">
        <ele>433.6</ele>
        <time>2022-09-08T06:27:58Z</time>
      </trkpt>
      <trkpt lat="42.502253" lon="8.854695">
        <ele>434.8</ele>
        <time>2022-09-08T06:28:15Z</time>
      </trkpt>
      <trkpt lat="42.502237" lon="8.854653">
        <ele>435.2</ele>
        <time>2022-09-08T06:28:19Z</time>
      </trkpt>
      <trkpt lat="42.502173" lon="8.854575">
        <ele>436.8</ele>
        <time>2022-09-08T06:28:30Z</time>
      </trkpt>
      <trkpt lat="42.502165" lon="8.854568">
        <ele>436.8</ele>
        <time>2022-09-08T06:28:31Z</time>
      </trkpt>
      <trkpt lat="42.502105" lon="8.854572">
        <ele>438.0</ele>
        <time>2022-09-08T06:28:38Z</time>
      </trkpt>
      <trkpt lat="42.502055" lon="8.854527">
        <ele>438.6</ele>
        <time>2022-09-08T06:28:45Z</time>
      </trkpt>
      <trkpt lat="42.502002" lon="8.854467">
        <ele>440.0</ele>
        <time>2022-09-08T06:28:53Z</time>
      </trkpt>
      <trkpt lat="42.501908" lon="8.854387">
        <ele>440.8</ele>
        <time>2022-09-08T06:29:04Z</time>
      </trkpt>
      <trkpt lat="42.501863" lon="8.85436">
        <ele>441.4</ele>
        <time>2022-09-08T06:29:09Z</time>
      </trkpt>
      <trkpt lat="42.501855" lon="8.854352">
        <ele>441.4</ele>
        <time>2022-09-08T06:29:10Z</time>
      </trkpt>
      <trkpt lat="42.501837" lon="8.854257">
        <ele>442.6</ele>
        <time>2022-09-08T06:29:19Z</time>
      </trkpt>
      <trkpt lat="42.50182" lon="8.854193">
        <ele>443.6</ele>
        <time>2022-09-08T06:29:25Z</time>
      </trkpt>
      <trkpt lat="42.501815" lon="8.854143">
        <ele>444.0</ele>
        <time>2022-09-08T06:29:30Z</time>
      </trkpt>
      <trkpt lat="42.501785" lon="8.854075">
        <ele>444.8</ele>
        <time>2022-09-08T06:29:38Z</time>
      </trkpt>
      <trkpt lat="42.501703" lon="8.85393">
        <ele>446.8</ele>
        <time>2022-09-08T06:29:53Z</time>
      </trkpt>
      <trkpt lat="42.50169" lon="8.853868">
        <ele>447.8</ele>
        <time>2022-09-08T06:29:59Z</time>
      </trkpt>
      <trkpt lat="42.501677" lon="8.853785">
        <ele>449.2</ele>
        <time>2022-09-08T06:30:06Z</time>
      </trkpt>
      <trkpt lat="42.501662" lon="8.8537">
        <ele>449.8</ele>
        <time>2022-09-08T06:30:14Z</time>
      </trkpt>
      <trkpt lat="42.501655" lon="8.853603">
        <ele>451.0</ele>
        <time>2022-09-08T06:30:23Z</time>
      </trkpt>
      <trkpt lat="42.501605" lon="8.853523">
        <ele>454.0</ele>
        <time>2022-09-08T06:30:40Z</time>
      </trkpt>
      <trkpt lat="42.501552" lon="8.853505">
        <ele>455.6</ele>
        <time>2022-09-08T06:30:52Z</time>
      </trkpt>
      <trkpt lat="42.501493" lon="8.85347">
        <ele>457.0</ele>
        <time>2022-09-08T06:31:03Z</time>
      </trkpt>
      <trkpt lat="42.501398" lon="8.853423">
        <ele>457.8</ele>
        <time>2022-09-08T06:31:13Z</time>
      </trkpt>
      <trkpt lat="42.501178" lon="8.853383">
        <ele>460.8</ele>
        <time>2022-09-08T06:31:36Z</time>
      </trkpt>
      <trkpt lat="42.501125" lon="8.85337">
        <ele>461.4</ele>
        <time>2022-09-08T06:31:42Z</time>
      </trkpt>
      <trkpt lat="42.500962" lon="8.853088">
        <ele>467.4</ele>
        <time>2022-09-08T06:32:22Z</time>
      </trkpt>
      <trkpt lat="42.500892" lon="8.853113">
        <ele>468.0</ele>
        <time>2022-09-08T06:32:30Z</time>
      </trkpt>
      <trkpt lat="42.500767" lon="8.853132">
        <ele>469.6</ele>
        <time>2022-09-08T06:32:42Z</time>
      </trkpt>
      <trkpt lat="42.500595" lon="8.853048">
        <ele>471.4</ele>
        <time>2022-09-08T06:32:58Z</time>
      </trkpt>
      <trkpt lat="42.500565" lon="8.853003">
        <ele>472.0</ele>
        <time>2022-09-08T06:33:01Z</time>
      </trkpt>
      <trkpt lat="42.500553" lon="8.852978">
        <ele>472.4</ele>
        <time>2022-09-08T06:33:04Z</time>
      </trkpt>
      <trkpt lat="42.500427" lon="8.852905">
        <ele>474.0</ele>
        <time>2022-09-08T06:33:16Z</time>
      </trkpt>
      <trkpt lat="42.500347" lon="8.852812">
        <ele>475.6</ele>
        <time>2022-09-08T06:33:28Z</time>
      </trkpt>
      <trkpt lat="42.500327" lon="8.852802">
        <ele>476.0</ele>
        <time>2022-09-08T06:33:31Z</time>
      </trkpt>
      <trkpt lat="42.500293" lon="8.8528">
        <ele>476.8</ele>
        <time>2022-09-08T06:33:38Z</time>
      </trkpt>
      <trkpt lat="42.500273" lon="8.852792">
        <ele>477.4</ele>
        <time>2022-09-08T06:33:45Z</time>
      </trkpt>
      <trkpt lat="42.500153" lon="8.852822">
        <ele>479.2</ele>
        <time>2022-09-08T06:34:06Z</time>
      </trkpt>
      <trkpt lat="42.500133" lon="8.85283">
        <ele>479.4</ele>
        <time>2022-09-08T06:34:09Z</time>
      </trkpt>
      <trkpt lat="42.500078" lon="8.852792">
        <ele>480.2</ele>
        <time>2022-09-08T06:34:17Z</time>
      </trkpt>
      <trkpt lat="42.499893" lon="8.852557">
        <ele>482.4</ele>
        <time>2022-09-08T06:34:36Z</time>
      </trkpt>
      <trkpt lat="42.499852" lon="8.852522">
        <ele>483.0</ele>
        <time>2022-09-08T06:34:40Z</time>
      </trkpt>
      <trkpt lat="42.499808" lon="8.852503">
        <ele>483.4</ele>
        <time>2022-09-08T06:34:43Z</time>
      </trkpt>
      <trkpt lat="42.499705" lon="8.852587">
        <ele>484.2</ele>
        <time>2022-09-08T06:34:52Z</time>
      </trkpt>
      <trkpt lat="42.499547" lon="8.85272">
        <ele>485.8</ele>
        <time>2022-09-08T06:35:13Z</time>
      </trkpt>
      <trkpt lat="42.499527" lon="8.852738">
        <ele>486.4</ele>
        <time>2022-09-08T06:35:17Z</time>
      </trkpt>
      <trkpt lat="42.499525" lon="8.852755">
        <ele>486.6</ele>
        <time>2022-09-08T06:35:20Z</time>
      </trkpt>
      <trkpt lat="42.499548" lon="8.852865">
        <ele>487.4</ele>
        <time>2022-09-08T06:35:35Z</time>
      </trkpt>
      <trkpt lat="42.499507" lon="8.852928">
        <ele>490.0</ele>
        <time>2022-09-08T06:35:51Z</time>
      </trkpt>
      <trkpt lat="42.499462" lon="8.852968">
        <ele>493.4</ele>
        <time>2022-09-08T06:36:11Z</time>
      </trkpt>
      <trkpt lat="42.499457" lon="8.85297">
        <ele>493.6</ele>
        <time>2022-09-08T06:36:13Z</time>
      </trkpt>
      <trkpt lat="42.499423" lon="8.85293">
        <ele>495.8</ele>
        <time>2022-09-08T06:36:28Z</time>
      </trkpt>
      <trkpt lat="42.499373" lon="8.852913">
        <ele>496.6</ele>
        <time>2022-09-08T06:36:33Z</time>
      </trkpt>
      <trkpt lat="42.499197" lon="8.852835">
        <ele>498.6</ele>
        <time>2022-09-08T06:36:47Z</time>
      </trkpt>
      <trkpt lat="42.499133" lon="8.852822">
        <ele>499.4</ele>
        <time>2022-09-08T06:36:53Z</time>
      </trkpt>
      <trkpt lat="42.499105" lon="8.85278">
        <ele>500.0</ele>
        <time>2022-09-08T06:36:57Z</time>
      </trkpt>
      <trkpt lat="42.499105" lon="8.852667">
        <ele>501.2</ele>
        <time>2022-09-08T06:37:06Z</time>
      </trkpt>
      <trkpt lat="42.499073" lon="8.852578">
        <ele>501.6</ele>
        <time>2022-09-08T06:37:14Z</time>
      </trkpt>
      <trkpt lat="42.49904" lon="8.852543">
        <ele>502.2</ele>
        <time>2022-09-08T06:37:19Z</time>
      </trkpt>
      <trkpt lat="42.499002" lon="8.852555">
        <ele>503.0</ele>
        <time>2022-09-08T06:37:23Z</time>
      </trkpt>
      <trkpt lat="42.498993" lon="8.852587">
        <ele>503.2</ele>
        <time>2022-09-08T06:37:26Z</time>
      </trkpt>
      <trkpt lat="42.498992" lon="8.852663">
        <ele>504.2</ele>
        <time>2022-09-08T06:37:34Z</time>
      </trkpt>
      <trkpt lat="42.498968" lon="8.852708">
        <ele>505.2</ele>
        <time>2022-09-08T06:37:41Z</time>
      </trkpt>
      <trkpt lat="42.498922" lon="8.85274">
        <ele>506.2</ele>
        <time>2022-09-08T06:37:51Z</time>
      </trkpt>
      <trkpt lat="42.498912" lon="8.852752">
        <ele>507.0</ele>
        <time>2022-09-08T06:37:54Z</time>
      </trkpt>
      <trkpt lat="42.49881" lon="8.8527">
        <ele>508.6</ele>
        <time>2022-09-08T06:38:06Z</time>
      </trkpt>
      <trkpt lat="42.498713" lon="8.852633">
        <ele>509.6</ele>
        <time>2022-09-08T06:38:16Z</time>
      </trkpt>
      <trkpt lat="42.498658" lon="8.852578">
        <ele>511.0</ele>
        <time>2022-09-08T06:38:22Z</time>
      </trkpt>
      <trkpt lat="42.498572" lon="8.852562">
        <ele>511.6</ele>
        <time>2022-09-08T06:38:29Z</time>
      </trkpt>
      <trkpt lat="42.498517" lon="8.852555">
        <ele>511.8</ele>
        <time>2022-09-08T06:38:33Z</time>
      </trkpt>
      <trkpt lat="42.498402" lon="8.852473">
        <ele>513.0</ele>
        <time>2022-09-08T06:38:46Z</time>
      </trkpt>
      <trkpt lat="42.498298" lon="8.852408">
        <ele>513.8</ele>
        <time>2022-09-08T06:39:00Z</time>
      </trkpt>
      <trkpt lat="42.49825" lon="8.852355">
        <ele>514.2</ele>
        <time>2022-09-08T06:39:06Z</time>
      </trkpt>
      <trkpt lat="42.498322" lon="8.852292">
        <ele>514.4</ele>
        <time>2022-09-08T06:39:13Z</time>
      </trkpt>
      <trkpt lat="42.498297" lon="8.852268">
        <ele>514.4</ele>
        <time>2022-09-08T06:39:17Z</time>
      </trkpt>
      <trkpt lat="42.498245" lon="8.852283">
        <ele>514.4</ele>
        <time>2022-09-08T06:39:22Z</time>
      </trkpt>
      <trkpt lat="42.49812" lon="8.852337">
        <ele>516.0</ele>
        <time>2022-09-08T06:39:35Z</time>
      </trkpt>
      <trkpt lat="42.498108" lon="8.85234">
        <ele>516.0</ele>
        <time>2022-09-08T06:39:36Z</time>
      </trkpt>
      <trkpt lat="42.497795" lon="8.852138">
        <ele>521.0</ele>
        <time>2022-09-08T06:40:12Z</time>
      </trkpt>
      <trkpt lat="42.497783" lon="8.852133">
        <ele>521.0</ele>
        <time>2022-09-08T06:40:13Z</time>
      </trkpt>
      <trkpt lat="42.497705" lon="8.852117">
        <ele>521.8</ele>
        <time>2022-09-08T06:40:21Z</time>
      </trkpt>
      <trkpt lat="42.497498" lon="8.8521">
        <ele>524.2</ele>
        <time>2022-09-08T06:40:42Z</time>
      </trkpt>
      <trkpt lat="42.497372" lon="8.85209">
        <ele>525.0</ele>
        <time>2022-09-08T06:40:53Z</time>
      </trkpt>
      <trkpt lat="42.497312" lon="8.852073">
        <ele>525.6</ele>
        <time>2022-09-08T06:40:59Z</time>
      </trkpt>
      <trkpt lat="42.497247" lon="8.852045">
        <ele>526.0</ele>
        <time>2022-09-08T06:41:05Z</time>
      </trkpt>
      <trkpt lat="42.497178" lon="8.852023">
        <ele>526.6</ele>
        <time>2022-09-08T06:41:11Z</time>
      </trkpt>
      <trkpt lat="42.49709" lon="8.851968">
        <ele>527.2</ele>
        <time>2022-09-08T06:41:20Z</time>
      </trkpt>
      <trkpt lat="42.497045" lon="8.851932">
        <ele>527.8</ele>
        <time>2022-09-08T06:41:24Z</time>
      </trkpt>
      <trkpt lat="42.496995" lon="8.851895">
        <ele>528.4</ele>
        <time>2022-09-08T06:41:29Z</time>
      </trkpt>
      <trkpt lat="42.496943" lon="8.851865">
        <ele>528.6</ele>
        <time>2022-09-08T06:41:34Z</time>
      </trkpt>
      <trkpt lat="42.496855" lon="8.851793">
        <ele>529.8</ele>
        <time>2022-09-08T06:41:44Z</time>
      </trkpt>
      <trkpt lat="42.496708" lon="8.85165">
        <ele>531.2</ele>
        <time>2022-09-08T06:42:03Z</time>
      </trkpt>
      <trkpt lat="42.496562" lon="8.851497">
        <ele>532.4</ele>
        <time>2022-09-08T06:42:20Z</time>
      </trkpt>
      <trkpt lat="42.496523" lon="8.851418">
        <ele>533.2</ele>
        <time>2022-09-08T06:42:27Z</time>
      </trkpt>
      <trkpt lat="42.496438" lon="8.851287">
        <ele>534.4</ele>
        <time>2022-09-08T06:42:40Z</time>
      </trkpt>
      <trkpt lat="42.496428" lon="8.851265">
        <ele>534.8</ele>
        <time>2022-09-08T06:42:42Z</time>
      </trkpt>
      <trkpt lat="42.496378" lon="8.851147">
        <ele>535.8</ele>
        <time>2022-09-08T06:42:52Z</time>
      </trkpt>
      <trkpt lat="42.496312" lon="8.850975">
        <ele>536.6</ele>
        <time>2022-09-08T06:43:04Z</time>
      </trkpt>
      <trkpt lat="42.496267" lon="8.850782">
        <ele>538.4</ele>
        <time>2022-09-08T06:43:17Z</time>
      </trkpt>
      <trkpt lat="42.496238" lon="8.850697">
        <ele>539.0</ele>
        <time>2022-09-08T06:43:23Z</time>
      </trkpt>
      <trkpt lat="42.496257" lon="8.850567">
        <ele>540.4</ele>
        <time>2022-09-08T06:43:34Z</time>
      </trkpt>
      <trkpt lat="42.4963" lon="8.850345">
        <ele>544.4</ele>
        <time>2022-09-08T06:44:00Z</time>
      </trkpt>
      <trkpt lat="42.4963" lon="8.850312">
        <ele>545.0</ele>
        <time>2022-09-08T06:44:04Z</time>
      </trkpt>
      <trkpt lat="42.496272" lon="8.850195">
        <ele>546.8</ele>
        <time>2022-09-08T06:44:15Z</time>
      </trkpt>
      <trkpt lat="42.49625" lon="8.850098">
        <ele>547.8</ele>
        <time>2022-09-08T06:44:24Z</time>
      </trkpt>
      <trkpt lat="42.496222" lon="8.849917">
        <ele>550.4</ele>
        <time>2022-09-08T06:44:41Z</time>
      </trkpt>
      <trkpt lat="42.496248" lon="8.849703">
        <ele>553.4</ele>
        <time>2022-09-08T06:44:59Z</time>
      </trkpt>
      <trkpt lat="42.496247" lon="8.849638">
        <ele>553.8</ele>
        <time>2022-09-08T06:45:03Z</time>
      </trkpt>
      <trkpt lat="42.496227" lon="8.84961">
        <ele>554.4</ele>
        <time>2022-09-08T06:45:07Z</time>
      </trkpt>
      <trkpt lat="42.496203" lon="8.849608">
        <ele>554.6</ele>
        <time>2022-09-08T06:45:10Z</time>
      </trkpt>
      <trkpt lat="42.496188" lon="8.849635">
        <ele>555.2</ele>
        <time>2022-09-08T06:45:13Z</time>
      </trkpt>
      <trkpt lat="42.49618" lon="8.849753">
        <ele>557.0</ele>
        <time>2022-09-08T06:45:23Z</time>
      </trkpt>
      <trkpt lat="42.49613" lon="8.84992">
        <ele>559.6</ele>
        <time>2022-09-08T06:45:36Z</time>
      </trkpt>
      <trkpt lat="42.496127" lon="8.849933">
        <ele>560.0</ele>
        <time>2022-09-08T06:45:37Z</time>
      </trkpt>
      <trkpt lat="42.496062" lon="8.849973">
        <ele>561.2</ele>
        <time>2022-09-08T06:45:44Z</time>
      </trkpt>
      <trkpt lat="42.49601" lon="8.849967">
        <ele>562.4</ele>
        <time>2022-09-08T06:45:51Z</time>
      </trkpt>
      <trkpt lat="42.495965" lon="8.849925">
        <ele>563.6</ele>
        <time>2022-09-08T06:46:03Z</time>
      </trkpt>
      <trkpt lat="42.495945" lon="8.849935">
        <ele>564.2</ele>
        <time>2022-09-08T06:46:08Z</time>
      </trkpt>
      <trkpt lat="42.49579" lon="8.850052">
        <ele>566.6</ele>
        <time>2022-09-08T06:46:30Z</time>
      </trkpt>
      <trkpt lat="42.495735" lon="8.850068">
        <ele>568.2</ele>
        <time>2022-09-08T06:46:40Z</time>
      </trkpt>
      <trkpt lat="42.49569" lon="8.850087">
        <ele>569.2</ele>
        <time>2022-09-08T06:46:47Z</time>
      </trkpt>
      <trkpt lat="42.495547" lon="8.850175">
        <ele>572.8</ele>
        <time>2022-09-08T06:47:08Z</time>
      </trkpt>
      <trkpt lat="42.495467" lon="8.850188">
        <ele>574.2</ele>
        <time>2022-09-08T06:47:19Z</time>
      </trkpt>
      <trkpt lat="42.495403" lon="8.850233">
        <ele>575.4</ele>
        <time>2022-09-08T06:47:26Z</time>
      </trkpt>
      <trkpt lat="42.495355" lon="8.850295">
        <ele>576.6</ele>
        <time>2022-09-08T06:47:33Z</time>
      </trkpt>
      <trkpt lat="42.495313" lon="8.850358">
        <ele>577.4</ele>
        <time>2022-09-08T06:47:39Z</time>
      </trkpt>
      <trkpt lat="42.495218" lon="8.850443">
        <ele>579.4</ele>
        <time>2022-09-08T06:47:52Z</time>
      </trkpt>
      <trkpt lat="42.495153" lon="8.850505">
        <ele>580.4</ele>
        <time>2022-09-08T06:47:59Z</time>
      </trkpt>
      <trkpt lat="42.49506" lon="8.850505">
        <ele>582.0</ele>
        <time>2022-09-08T06:48:10Z</time>
      </trkpt>
      <trkpt lat="42.494987" lon="8.85058">
        <ele>583.4</ele>
        <time>2022-09-08T06:48:20Z</time>
      </trkpt>
      <trkpt lat="42.494917" lon="8.850625">
        <ele>584.6</ele>
        <time>2022-09-08T06:48:28Z</time>
      </trkpt>
      <trkpt lat="42.494848" lon="8.850737">
        <ele>586.2</ele>
        <time>2022-09-08T06:48:38Z</time>
      </trkpt>
      <trkpt lat="42.494818" lon="8.850735">
        <ele>586.8</ele>
        <time>2022-09-08T06:48:41Z</time>
      </trkpt>
      <trkpt lat="42.494777" lon="8.850745">
        <ele>587.2</ele>
        <time>2022-09-08T06:48:45Z</time>
      </trkpt>
      <trkpt lat="42.494763" lon="8.8507">
        <ele>587.6</ele>
        <time>2022-09-08T06:48:49Z</time>
      </trkpt>
      <trkpt lat="42.494763" lon="8.850602">
        <ele>588.8</ele>
        <time>2022-09-08T06:48:57Z</time>
      </trkpt>
      <trkpt lat="42.494828" lon="8.850495">
        <ele>589.6</ele>
        <time>2022-09-08T06:49:05Z</time>
      </trkpt>
      <trkpt lat="42.494998" lon="8.850293">
        <ele>591.8</ele>
        <time>2022-09-08T06:49:18Z</time>
      </trkpt>
      <trkpt lat="42.494993" lon="8.850275">
        <ele>591.8</ele>
        <time>2022-09-08T06:49:19Z</time>
      </trkpt>
      <trkpt lat="42.494968" lon="8.850195">
        <ele>592.2</ele>
        <time>2022-09-08T06:49:23Z</time>
      </trkpt>
      <trkpt lat="42.494958" lon="8.850178">
        <ele>592.4</ele>
        <time>2022-09-08T06:49:24Z</time>
      </trkpt>
      <trkpt lat="42.494943" lon="8.85017">
        <ele>592.6</ele>
        <time>2022-09-08T06:49:26Z</time>
      </trkpt>
      <trkpt lat="42.494918" lon="8.85018">
        <ele>592.6</ele>
        <time>2022-09-08T06:49:28Z</time>
      </trkpt>
      <trkpt lat="42.494842" lon="8.850252">
        <ele>593.8</ele>
        <time>2022-09-08T06:49:36Z</time>
      </trkpt>
      <trkpt lat="42.494797" lon="8.850285">
        <ele>594.6</ele>
        <time>2022-09-08T06:49:41Z</time>
      </trkpt>
      <trkpt lat="42.494785" lon="8.850302">
        <ele>595.2</ele>
        <time>2022-09-08T06:49:43Z</time>
      </trkpt>
      <trkpt lat="42.494743" lon="8.850272">
        <ele>596.2</ele>
        <time>2022-09-08T06:49:50Z</time>
      </trkpt>
      <trkpt lat="42.494727" lon="8.850253">
        <ele>596.4</ele>
        <time>2022-09-08T06:49:53Z</time>
      </trkpt>
      <trkpt lat="42.494735" lon="8.8502">
        <ele>597.0</ele>
        <time>2022-09-08T06:49:57Z</time>
      </trkpt>
      <trkpt lat="42.494753" lon="8.850093">
        <ele>598.0</ele>
        <time>2022-09-08T06:50:04Z</time>
      </trkpt>
      <trkpt lat="42.494745" lon="8.850012">
        <ele>598.6</ele>
        <time>2022-09-08T06:50:09Z</time>
      </trkpt>
      <trkpt lat="42.494733" lon="8.849988">
        <ele>598.6</ele>
        <time>2022-09-08T06:50:11Z</time>
      </trkpt>
      <trkpt lat="42.494717" lon="8.84998">
        <ele>599.0</ele>
        <time>2022-09-08T06:50:13Z</time>
      </trkpt>
      <trkpt lat="42.49469" lon="8.85001">
        <ele>599.6</ele>
        <time>2022-09-08T06:50:17Z</time>
      </trkpt>
      <trkpt lat="42.49465" lon="8.850097">
        <ele>600.4</ele>
        <time>2022-09-08T06:50:26Z</time>
      </trkpt>
      <trkpt lat="42.49462" lon="8.85013">
        <ele>601.0</ele>
        <time>2022-09-08T06:50:31Z</time>
      </trkpt>
      <trkpt lat="42.49462" lon="8.850182">
        <ele>601.8</ele>
        <time>2022-09-08T06:50:36Z</time>
      </trkpt>
      <trkpt lat="42.494635" lon="8.850275">
        <ele>603.6</ele>
        <time>2022-09-08T06:50:44Z</time>
      </trkpt>
      <trkpt lat="42.494623" lon="8.850265">
        <ele>603.8</ele>
        <time>2022-09-08T06:50:48Z</time>
      </trkpt>
      <trkpt lat="42.494612" lon="8.850143">
        <ele>605.0</ele>
        <time>2022-09-08T06:50:56Z</time>
      </trkpt>
      <trkpt lat="42.494623" lon="8.850065">
        <ele>605.4</ele>
        <time>2022-09-08T06:51:00Z</time>
      </trkpt>
      <trkpt lat="42.49463" lon="8.850043">
        <ele>605.6</ele>
        <time>2022-09-08T06:51:02Z</time>
      </trkpt>
      <trkpt lat="42.494672" lon="8.849982">
        <ele>606.4</ele>
        <time>2022-09-08T06:51:10Z</time>
      </trkpt>
      <trkpt lat="42.494677" lon="8.849942">
        <ele>606.6</ele>
        <time>2022-09-08T06:51:13Z</time>
      </trkpt>
      <trkpt lat="42.49465" lon="8.849827">
        <ele>607.2</ele>
        <time>2022-09-08T06:51:23Z</time>
      </trkpt>
      <trkpt lat="42.494627" lon="8.849777">
        <ele>608.4</ele>
        <time>2022-09-08T06:51:29Z</time>
      </trkpt>
      <trkpt lat="42.49461" lon="8.849757">
        <ele>608.8</ele>
        <time>2022-09-08T06:51:33Z</time>
      </trkpt>
      <trkpt lat="42.494577" lon="8.849645">
        <ele>611.2</ele>
        <time>2022-09-08T06:51:44Z</time>
      </trkpt>
      <trkpt lat="42.494517" lon="8.849655">
        <ele>612.8</ele>
        <time>2022-09-08T06:51:53Z</time>
      </trkpt>
      <trkpt lat="42.49444" lon="8.849677">
        <ele>615.6</ele>
        <time>2022-09-08T06:52:09Z</time>
      </trkpt>
      <trkpt lat="42.494413" lon="8.849745">
        <ele>616.4</ele>
        <time>2022-09-08T06:52:18Z</time>
      </trkpt>
      <trkpt lat="42.494395" lon="8.849808">
        <ele>617.8</ele>
        <time>2022-09-08T06:52:39Z</time>
      </trkpt>
      <trkpt lat="42.494318" lon="8.849892">
        <ele>619.6</ele>
        <time>2022-09-08T06:52:54Z</time>
      </trkpt>
      <trkpt lat="42.494323" lon="8.8499">
        <ele>619.8</ele>
        <time>2022-09-08T06:52:55Z</time>
      </trkpt>
      <trkpt lat="42.494327" lon="8.849925">
        <ele>620.4</ele>
        <time>2022-09-08T06:53:00Z</time>
      </trkpt>
      <trkpt lat="42.494277" lon="8.849988">
        <ele>620.2</ele>
        <time>2022-09-08T06:53:14Z</time>
      </trkpt>
      <trkpt lat="42.494213" lon="8.850047">
        <ele>620.6</ele>
        <time>2022-09-08T06:53:20Z</time>
      </trkpt>
      <trkpt lat="42.494077" lon="8.850072">
        <ele>619.8</ele>
        <time>2022-09-08T06:53:31Z</time>
      </trkpt>
      <trkpt lat="42.49405" lon="8.850062">
        <ele>619.6</ele>
        <time>2022-09-08T06:53:33Z</time>
      </trkpt>
      <trkpt lat="42.493943" lon="8.85014">
        <ele>619.4</ele>
        <time>2022-09-08T06:53:42Z</time>
      </trkpt>
      <trkpt lat="42.493872" lon="8.850207">
        <ele>619.0</ele>
        <time>2022-09-08T06:53:48Z</time>
      </trkpt>
      <trkpt lat="42.493808" lon="8.850435">
        <ele>617.4</ele>
        <time>2022-09-08T06:54:02Z</time>
      </trkpt>
      <trkpt lat="42.49378" lon="8.850485">
        <ele>616.8</ele>
        <time>2022-09-08T06:54:05Z</time>
      </trkpt>
      <trkpt lat="42.493718" lon="8.850538">
        <ele>615.2</ele>
        <time>2022-09-08T06:54:13Z</time>
      </trkpt>
      <trkpt lat="42.493625" lon="8.850717">
        <ele>612.6</ele>
        <time>2022-09-08T06:54:33Z</time>
      </trkpt>
      <trkpt lat="42.493572" lon="8.850742">
        <ele>611.6</ele>
        <time>2022-09-08T06:54:40Z</time>
      </trkpt>
      <trkpt lat="42.493467" lon="8.850688">
        <ele>609.6</ele>
        <time>2022-09-08T06:54:51Z</time>
      </trkpt>
      <trkpt lat="42.493277" lon="8.850678">
        <ele>606.6</ele>
        <time>2022-09-08T06:55:06Z</time>
      </trkpt>
      <trkpt lat="42.49316" lon="8.850753">
        <ele>604.8</ele>
        <time>2022-09-08T06:55:16Z</time>
      </trkpt>
      <trkpt lat="42.493063" lon="8.850842">
        <ele>602.8</ele>
        <time>2022-09-08T06:55:26Z</time>
      </trkpt>
      <trkpt lat="42.493003" lon="8.850877">
        <ele>602.0</ele>
        <time>2022-09-08T06:55:32Z</time>
      </trkpt>
      <trkpt lat="42.492948" lon="8.850893">
        <ele>600.4</ele>
        <time>2022-09-08T06:55:39Z</time>
      </trkpt>
      <trkpt lat="42.492882" lon="8.850947">
        <ele>599.0</ele>
        <time>2022-09-08T06:55:48Z</time>
      </trkpt>
      <trkpt lat="42.492858" lon="8.850928">
        <ele>598.6</ele>
        <time>2022-09-08T06:55:51Z</time>
      </trkpt>
      <trkpt lat="42.49285" lon="8.850918">
        <ele>598.6</ele>
        <time>2022-09-08T06:55:52Z</time>
      </trkpt>
      <trkpt lat="42.492805" lon="8.850815">
        <ele>595.8</ele>
        <time>2022-09-08T06:56:00Z</time>
      </trkpt>
      <trkpt lat="42.492775" lon="8.850818">
        <ele>595.0</ele>
        <time>2022-09-08T06:56:04Z</time>
      </trkpt>
      <trkpt lat="42.49267" lon="8.850902">
        <ele>592.0</ele>
        <time>2022-09-08T06:56:16Z</time>
      </trkpt>
      <trkpt lat="42.49266" lon="8.850925">
        <ele>591.6</ele>
        <time>2022-09-08T06:56:18Z</time>
      </trkpt>
      <trkpt lat="42.492615" lon="8.85106">
        <ele>590.4</ele>
        <time>2022-09-08T06:56:28Z</time>
      </trkpt>
      <trkpt lat="42.492543" lon="8.85114">
        <ele>590.2</ele>
        <time>2022-09-08T06:56:38Z</time>
      </trkpt>
      <trkpt lat="42.4925" lon="8.851295">
        <ele>587.4</ele>
        <time>2022-09-08T06:56:53Z</time>
      </trkpt>
      <trkpt lat="42.49247" lon="8.851458">
        <ele>587.2</ele>
        <time>2022-09-08T06:57:01Z</time>
      </trkpt>
      <trkpt lat="42.492467" lon="8.851603">
        <ele>587.8</ele>
        <time>2022-09-08T06:57:10Z</time>
      </trkpt>
      <trkpt lat="42.492492" lon="8.851665">
        <ele>588.2</ele>
        <time>2022-09-08T06:57:15Z</time>
      </trkpt>
      <trkpt lat="42.492527" lon="8.851713">
        <ele>589.0</ele>
        <time>2022-09-08T06:57:20Z</time>
      </trkpt>
      <trkpt lat="42.4926" lon="8.851797">
        <ele>593.2</ele>
        <time>2022-09-08T06:57:47Z</time>
      </trkpt>
      <trkpt lat="42.492605" lon="8.851807">
        <ele>593.4</ele>
        <time>2022-09-08T06:57:48Z</time>
      </trkpt>
      <trkpt lat="42.492798" lon="8.852162">
        <ele>595.2</ele>
        <time>2022-09-08T06:58:11Z</time>
      </trkpt>
      <trkpt lat="42.492878" lon="8.852393">
        <ele>595.2</ele>
        <time>2022-09-08T06:58:23Z</time>
      </trkpt>
      <trkpt lat="42.492813" lon="8.852922">
        <ele>595.0</ele>
        <time>2022-09-08T06:59:02Z</time>
      </trkpt>
      <trkpt lat="42.492948" lon="8.853182">
        <ele>596.2</ele>
        <time>2022-09-08T06:59:24Z</time>
      </trkpt>
      <trkpt lat="42.49303" lon="8.85344">
        <ele>597.2</ele>
        <time>2022-09-08T06:59:40Z</time>
      </trkpt>
      <trkpt lat="42.49305" lon="8.853527">
        <ele>597.4</ele>
        <time>2022-09-08T06:59:46Z</time>
      </trkpt>
      <trkpt lat="42.493058" lon="8.853693">
        <ele>598.0</ele>
        <time>2022-09-08T06:59:56Z</time>
      </trkpt>
      <trkpt lat="42.493048" lon="8.853795">
        <ele>598.4</ele>
        <time>2022-09-08T07:00:02Z</time>
      </trkpt>
      <trkpt lat="42.493043" lon="8.8539">
        <ele>599.0</ele>
        <time>2022-09-08T07:00:09Z</time>
      </trkpt>
      <trkpt lat="42.493047" lon="8.854102">
        <ele>599.8</ele>
        <time>2022-09-08T07:00:22Z</time>
      </trkpt>
      <trkpt lat="42.49302" lon="8.854187">
        <ele>600.2</ele>
        <time>2022-09-08T07:00:27Z</time>
      </trkpt>
      <trkpt lat="42.492945" lon="8.854427">
        <ele>601.0</ele>
        <time>2022-09-08T07:00:43Z</time>
      </trkpt>
      <trkpt lat="42.49291" lon="8.854517">
        <ele>601.4</ele>
        <time>2022-09-08T07:00:50Z</time>
      </trkpt>
      <trkpt lat="42.492883" lon="8.854622">
        <ele>602.0</ele>
        <time>2022-09-08T07:01:01Z</time>
      </trkpt>
      <trkpt lat="42.492867" lon="8.854698">
        <ele>603.0</ele>
        <time>2022-09-08T07:01:09Z</time>
      </trkpt>
      <trkpt lat="42.492858" lon="8.854738">
        <ele>603.4</ele>
        <time>2022-09-08T07:01:13Z</time>
      </trkpt>
      <trkpt lat="42.492833" lon="8.854748">
        <ele>603.6</ele>
        <time>2022-09-08T07:01:16Z</time>
      </trkpt>
      <trkpt lat="42.49282" lon="8.854833">
        <ele>604.4</ele>
        <time>2022-09-08T07:01:22Z</time>
      </trkpt>
      <trkpt lat="42.492753" lon="8.85512">
        <ele>604.6</ele>
        <time>2022-09-08T07:01:38Z</time>
      </trkpt>
      <trkpt lat="42.492703" lon="8.85532">
        <ele>604.4</ele>
        <time>2022-09-08T07:01:49Z</time>
      </trkpt>
      <trkpt lat="42.492717" lon="8.855412">
        <ele>604.4</ele>
        <time>2022-09-08T07:01:55Z</time>
      </trkpt>
      <trkpt lat="42.492757" lon="8.855503">
        <ele>605.2</ele>
        <time>2022-09-08T07:02:03Z</time>
      </trkpt>
      <trkpt lat="42.492767" lon="8.855562">
        <ele>605.6</ele>
        <time>2022-09-08T07:02:08Z</time>
      </trkpt>
      <trkpt lat="42.492725" lon="8.855595">
        <ele>606.0</ele>
        <time>2022-09-08T07:02:15Z</time>
      </trkpt>
      <trkpt lat="42.492705" lon="8.855643">
        <ele>606.6</ele>
        <time>2022-09-08T07:02:19Z</time>
      </trkpt>
      <trkpt lat="42.492695" lon="8.855713">
        <ele>607.0</ele>
        <time>2022-09-08T07:02:24Z</time>
      </trkpt>
      <trkpt lat="42.492518" lon="8.85591">
        <ele>608.8</ele>
        <time>2022-09-08T07:02:45Z</time>
      </trkpt>
      <trkpt lat="42.492497" lon="8.85594">
        <ele>609.2</ele>
        <time>2022-09-08T07:02:48Z</time>
      </trkpt>
      <trkpt lat="42.492435" lon="8.856077">
        <ele>611.0</ele>
        <time>2022-09-08T07:03:02Z</time>
      </trkpt>
      <trkpt lat="42.492398" lon="8.856137">
        <ele>611.8</ele>
        <time>2022-09-08T07:03:08Z</time>
      </trkpt>
      <trkpt lat="42.492382" lon="8.856197">
        <ele>612.6</ele>
        <time>2022-09-08T07:03:14Z</time>
      </trkpt>
      <trkpt lat="42.492362" lon="8.85627">
        <ele>613.6</ele>
        <time>2022-09-08T07:03:23Z</time>
      </trkpt>
      <trkpt lat="42.49235" lon="8.856313">
        <ele>614.0</ele>
        <time>2022-09-08T07:03:29Z</time>
      </trkpt>
      <trkpt lat="42.492272" lon="8.856453">
        <ele>616.0</ele>
        <time>2022-09-08T07:03:44Z</time>
      </trkpt>
      <trkpt lat="42.492215" lon="8.856547">
        <ele>616.8</ele>
        <time>2022-09-08T07:03:53Z</time>
      </trkpt>
      <trkpt lat="42.492165" lon="8.85662">
        <ele>617.8</ele>
        <time>2022-09-08T07:04:01Z</time>
      </trkpt>
      <trkpt lat="42.492117" lon="8.85668">
        <ele>618.2</ele>
        <time>2022-09-08T07:04:06Z</time>
      </trkpt>
      <trkpt lat="42.492093" lon="8.856747">
        <ele>618.6</ele>
        <time>2022-09-08T07:04:09Z</time>
      </trkpt>
      <trkpt lat="42.492115" lon="8.856968">
        <ele>620.2</ele>
        <time>2022-09-08T07:04:23Z</time>
      </trkpt>
      <trkpt lat="42.492097" lon="8.857105">
        <ele>621.0</ele>
        <time>2022-09-08T07:04:31Z</time>
      </trkpt>
      <trkpt lat="42.492053" lon="8.857223">
        <ele>622.0</ele>
        <time>2022-09-08T07:04:39Z</time>
      </trkpt>
      <trkpt lat="42.492035" lon="8.857323">
        <ele>623.0</ele>
        <time>2022-09-08T07:04:45Z</time>
      </trkpt>
      <trkpt lat="42.492012" lon="8.857358">
        <ele>623.2</ele>
        <time>2022-09-08T07:04:47Z</time>
      </trkpt>
      <trkpt lat="42.491978" lon="8.857385">
        <ele>623.8</ele>
        <time>2022-09-08T07:04:50Z</time>
      </trkpt>
      <trkpt lat="42.491945" lon="8.857442">
        <ele>624.4</ele>
        <time>2022-09-08T07:04:55Z</time>
      </trkpt>
      <trkpt lat="42.49193" lon="8.857508">
        <ele>625.6</ele>
        <time>2022-09-08T07:05:02Z</time>
      </trkpt>
      <trkpt lat="42.491895" lon="8.857562">
        <ele>626.8</ele>
        <time>2022-09-08T07:05:10Z</time>
      </trkpt>
      <trkpt lat="42.491832" lon="8.857593">
        <ele>629.2</ele>
        <time>2022-09-08T07:05:23Z</time>
      </trkpt>
      <trkpt lat="42.491812" lon="8.857643">
        <ele>632.6</ele>
        <time>2022-09-08T07:05:47Z</time>
      </trkpt>
      <trkpt lat="42.491807" lon="8.857645">
        <ele>632.8</ele>
        <time>2022-09-08T07:05:48Z</time>
      </trkpt>
      <trkpt lat="42.491777" lon="8.857673">
        <ele>633.6</ele>
        <time>2022-09-08T07:05:55Z</time>
      </trkpt>
      <trkpt lat="42.491752" lon="8.857713">
        <ele>634.8</ele>
        <time>2022-09-08T07:06:02Z</time>
      </trkpt>
      <trkpt lat="42.491742" lon="8.85776">
        <ele>635.6</ele>
        <time>2022-09-08T07:06:09Z</time>
      </trkpt>
      <trkpt lat="42.491737" lon="8.857783">
        <ele>636.2</ele>
        <time>2022-09-08T07:06:14Z</time>
      </trkpt>
      <trkpt lat="42.491712" lon="8.857808">
        <ele>637.2</ele>
        <time>2022-09-08T07:06:21Z</time>
      </trkpt>
      <trkpt lat="42.49167" lon="8.857875">
        <ele>638.0</ele>
        <time>2022-09-08T07:06:28Z</time>
      </trkpt>
      <trkpt lat="42.491643" lon="8.857955">
        <ele>639.2</ele>
        <time>2022-09-08T07:06:35Z</time>
      </trkpt>
      <trkpt lat="42.49161" lon="8.858065">
        <ele>641.0</ele>
        <time>2022-09-08T07:06:45Z</time>
      </trkpt>
      <trkpt lat="42.491572" lon="8.858107">
        <ele>642.2</ele>
        <time>2022-09-08T07:06:52Z</time>
      </trkpt>
      <trkpt lat="42.49152" lon="8.858142">
        <ele>643.8</ele>
        <time>2022-09-08T07:07:01Z</time>
      </trkpt>
      <trkpt lat="42.491445" lon="8.858233">
        <ele>645.4</ele>
        <time>2022-09-08T07:07:11Z</time>
      </trkpt>
      <trkpt lat="42.4913" lon="8.858363">
        <ele>647.6</ele>
        <time>2022-09-08T07:07:28Z</time>
      </trkpt>
      <trkpt lat="42.491232" lon="8.85839">
        <ele>649.0</ele>
        <time>2022-09-08T07:07:37Z</time>
      </trkpt>
      <trkpt lat="42.49118" lon="8.858375">
        <ele>650.6</ele>
        <time>2022-09-08T07:07:48Z</time>
      </trkpt>
      <trkpt lat="42.491155" lon="8.858398">
        <ele>651.6</ele>
        <time>2022-09-08T07:07:55Z</time>
      </trkpt>
      <trkpt lat="42.491103" lon="8.85838">
        <ele>652.6</ele>
        <time>2022-09-08T07:08:06Z</time>
      </trkpt>
      <trkpt lat="42.491097" lon="8.858377">
        <ele>653.0</ele>
        <time>2022-09-08T07:08:07Z</time>
      </trkpt>
      <trkpt lat="42.491052" lon="8.858388">
        <ele>654.2</ele>
        <time>2022-09-08T07:08:14Z</time>
      </trkpt>
      <trkpt lat="42.491025" lon="8.858375">
        <ele>655.4</ele>
        <time>2022-09-08T07:08:19Z</time>
      </trkpt>
      <trkpt lat="42.490972" lon="8.85832">
        <ele>657.2</ele>
        <time>2022-09-08T07:08:31Z</time>
      </trkpt>
      <trkpt lat="42.490953" lon="8.858347">
        <ele>658.0</ele>
        <time>2022-09-08T07:08:36Z</time>
      </trkpt>
      <trkpt lat="42.490933" lon="8.858385">
        <ele>659.8</ele>
        <time>2022-09-08T07:08:43Z</time>
      </trkpt>
      <trkpt lat="42.490892" lon="8.85841">
        <ele>661.6</ele>
        <time>2022-09-08T07:08:54Z</time>
      </trkpt>
      <trkpt lat="42.490845" lon="8.858468">
        <ele>665.0</ele>
        <time>2022-09-08T07:09:09Z</time>
      </trkpt>
      <trkpt lat="42.490837" lon="8.85847">
        <ele>665.0</ele>
        <time>2022-09-08T07:09:10Z</time>
      </trkpt>
      <trkpt lat="42.490788" lon="8.858463">
        <ele>666.4</ele>
        <time>2022-09-08T07:09:16Z</time>
      </trkpt>
      <trkpt lat="42.49073" lon="8.858457">
        <ele>667.4</ele>
        <time>2022-09-08T07:09:22Z</time>
      </trkpt>
      <trkpt lat="42.490658" lon="8.858483">
        <ele>668.6</ele>
        <time>2022-09-08T07:09:30Z</time>
      </trkpt>
      <trkpt lat="42.490588" lon="8.858527">
        <ele>670.2</ele>
        <time>2022-09-08T07:09:40Z</time>
      </trkpt>
      <trkpt lat="42.490568" lon="8.85854">
        <ele>670.4</ele>
        <time>2022-09-08T07:09:43Z</time>
      </trkpt>
      <trkpt lat="42.490535" lon="8.858598">
        <ele>670.6</ele>
        <time>2022-09-08T07:09:48Z</time>
      </trkpt>
      <trkpt lat="42.490502" lon="8.858665">
        <ele>670.6</ele>
        <time>2022-09-08T07:09:53Z</time>
      </trkpt>
      <trkpt lat="42.490407" lon="8.858817">
        <ele>671.6</ele>
        <time>2022-09-08T07:10:04Z</time>
      </trkpt>
      <trkpt lat="42.490388" lon="8.858903">
        <ele>672.6</ele>
        <time>2022-09-08T07:10:10Z</time>
      </trkpt>
      <trkpt lat="42.490383" lon="8.85897">
        <ele>672.6</ele>
        <time>2022-09-08T07:10:14Z</time>
      </trkpt>
      <trkpt lat="42.490215" lon="8.859103">
        <ele>671.6</ele>
        <time>2022-09-08T07:10:31Z</time>
      </trkpt>
      <trkpt lat="42.490135" lon="8.859127">
        <ele>671.4</ele>
        <time>2022-09-08T07:10:41Z</time>
      </trkpt>
      <trkpt lat="42.490063" lon="8.859142">
        <ele>671.6</ele>
        <time>2022-09-08T07:10:49Z</time>
      </trkpt>
      <trkpt lat="42.490007" lon="8.859163">
        <ele>671.6</ele>
        <time>2022-09-08T07:10:54Z</time>
      </trkpt>
      <trkpt lat="42.48998" lon="8.859223">
        <ele>671.6</ele>
        <time>2022-09-08T07:10:58Z</time>
      </trkpt>
      <trkpt lat="42.489903" lon="8.859332">
        <ele>672.2</ele>
        <time>2022-09-08T07:11:07Z</time>
      </trkpt>
      <trkpt lat="42.489815" lon="8.859417">
        <ele>672.4</ele>
        <time>2022-09-08T07:11:16Z</time>
      </trkpt>
      <trkpt lat="42.489717" lon="8.85947">
        <ele>672.6</ele>
        <time>2022-09-08T07:11:24Z</time>
      </trkpt>
      <trkpt lat="42.4896" lon="8.859513">
        <ele>672.6</ele>
        <time>2022-09-08T07:11:35Z</time>
      </trkpt>
      <trkpt lat="42.489543" lon="8.859515">
        <ele>672.8</ele>
        <time>2022-09-08T07:11:39Z</time>
      </trkpt>
      <trkpt lat="42.489422" lon="8.859468">
        <ele>672.4</ele>
        <time>2022-09-08T07:11:51Z</time>
      </trkpt>
      <trkpt lat="42.489177" lon="8.859447">
        <ele>672.4</ele>
        <time>2022-09-08T07:12:11Z</time>
      </trkpt>
      <trkpt lat="42.489112" lon="8.85943">
        <ele>672.4</ele>
        <time>2022-09-08T07:12:17Z</time>
      </trkpt>
      <trkpt lat="42.489078" lon="8.859432">
        <ele>672.4</ele>
        <time>2022-09-08T07:12:21Z</time>
      </trkpt>
      <trkpt lat="42.488898" lon="8.85941">
        <ele>673.4</ele>
        <time>2022-09-08T07:12:35Z</time>
      </trkpt>
      <trkpt lat="42.488822" lon="8.859432">
        <ele>672.8</ele>
        <time>2022-09-08T07:12:43Z</time>
      </trkpt>
      <trkpt lat="42.488695" lon="8.859487">
        <ele>672.2</ele>
        <time>2022-09-08T07:12:59Z</time>
      </trkpt>
      <trkpt lat="42.488657" lon="8.859495">
        <ele>672.2</ele>
        <time>2022-09-08T07:13:03Z</time>
      </trkpt>
      <trkpt lat="42.488523" lon="8.859522">
        <ele>672.8</ele>
        <time>2022-09-08T07:13:15Z</time>
      </trkpt>
      <trkpt lat="42.488372" lon="8.859502">
        <ele>673.2</ele>
        <time>2022-09-08T07:13:26Z</time>
      </trkpt>
      <trkpt lat="42.488232" lon="8.859535">
        <ele>673.2</ele>
        <time>2022-09-08T07:13:36Z</time>
      </trkpt>
      <trkpt lat="42.488102" lon="8.859572">
        <ele>673.4</ele>
        <time>2022-09-08T07:13:47Z</time>
      </trkpt>
      <trkpt lat="42.488013" lon="8.859648">
        <ele>673.0</ele>
        <time>2022-09-08T07:13:56Z</time>
      </trkpt>
      <trkpt lat="42.487755" lon="8.85992">
        <ele>672.2</ele>
        <time>2022-09-08T07:14:29Z</time>
      </trkpt>
      <trkpt lat="42.487727" lon="8.859975">
        <ele>672.2</ele>
        <time>2022-09-08T07:14:34Z</time>
      </trkpt>
      <trkpt lat="42.487598" lon="8.860088">
        <ele>671.4</ele>
        <time>2022-09-08T07:14:48Z</time>
      </trkpt>
      <trkpt lat="42.487548" lon="8.860137">
        <ele>671.2</ele>
        <time>2022-09-08T07:14:53Z</time>
      </trkpt>
      <trkpt lat="42.487495" lon="8.86018">
        <ele>671.2</ele>
        <time>2022-09-08T07:14:59Z</time>
      </trkpt>
      <trkpt lat="42.487442" lon="8.860197">
        <ele>672.0</ele>
        <time>2022-09-08T07:15:08Z</time>
      </trkpt>
      <trkpt lat="42.48744" lon="8.86019">
        <ele>672.0</ele>
        <time>2022-09-08T07:15:09Z</time>
      </trkpt>
      <trkpt lat="42.487387" lon="8.860108">
        <ele>671.8</ele>
        <time>2022-09-08T07:15:20Z</time>
      </trkpt>
      <trkpt lat="42.487343" lon="8.860085">
        <ele>671.0</ele>
        <time>2022-09-08T07:15:25Z</time>
      </trkpt>
      <trkpt lat="42.487295" lon="8.86009">
        <ele>670.4</ele>
        <time>2022-09-08T07:15:30Z</time>
      </trkpt>
      <trkpt lat="42.487243" lon="8.860095">
        <ele>669.8</ele>
        <time>2022-09-08T07:15:35Z</time>
      </trkpt>
      <trkpt lat="42.487103" lon="8.86005">
        <ele>670.4</ele>
        <time>2022-09-08T07:15:49Z</time>
      </trkpt>
      <trkpt lat="42.487065" lon="8.860103">
        <ele>671.8</ele>
        <time>2022-09-08T07:15:56Z</time>
      </trkpt>
      <trkpt lat="42.48692" lon="8.860345">
        <ele>673.4</ele>
        <time>2022-09-08T07:16:17Z</time>
      </trkpt>
      <trkpt lat="42.486808" lon="8.860473">
        <ele>674.4</ele>
        <time>2022-09-08T07:16:31Z</time>
      </trkpt>
      <trkpt lat="42.486808" lon="8.860523">
        <ele>674.6</ele>
        <time>2022-09-08T07:16:38Z</time>
      </trkpt>
      <trkpt lat="42.486813" lon="8.86058">
        <ele>675.0</ele>
        <time>2022-09-08T07:16:43Z</time>
      </trkpt>
      <trkpt lat="42.486795" lon="8.860663">
        <ele>675.6</ele>
        <time>2022-09-08T07:16:49Z</time>
      </trkpt>
      <trkpt lat="42.486833" lon="8.860722">
        <ele>676.6</ele>
        <time>2022-09-08T07:16:55Z</time>
      </trkpt>
      <trkpt lat="42.486843" lon="8.860743">
        <ele>676.8</ele>
        <time>2022-09-08T07:16:57Z</time>
      </trkpt>
      <trkpt lat="42.486833" lon="8.860852">
        <ele>677.8</ele>
        <time>2022-09-08T07:17:04Z</time>
      </trkpt>
      <trkpt lat="42.48683" lon="8.860868">
        <ele>677.8</ele>
        <time>2022-09-08T07:17:05Z</time>
      </trkpt>
      <trkpt lat="42.486718" lon="8.860958">
        <ele>679.0</ele>
        <time>2022-09-08T07:17:16Z</time>
      </trkpt>
      <trkpt lat="42.486635" lon="8.861015">
        <ele>680.0</ele>
        <time>2022-09-08T07:17:25Z</time>
      </trkpt>
      <trkpt lat="42.486567" lon="8.861023">
        <ele>681.2</ele>
        <time>2022-09-08T07:17:32Z</time>
      </trkpt>
      <trkpt lat="42.486505" lon="8.861083">
        <ele>683.2</ele>
        <time>2022-09-08T07:17:43Z</time>
      </trkpt>
      <trkpt lat="42.486397" lon="8.861262">
        <ele>682.6</ele>
        <time>2022-09-08T07:18:01Z</time>
      </trkpt>
      <trkpt lat="42.486398" lon="8.861278">
        <ele>682.8</ele>
        <time>2022-09-08T07:18:02Z</time>
      </trkpt>
      <trkpt lat="42.486395" lon="8.861387">
        <ele>683.2</ele>
        <time>2022-09-08T07:18:09Z</time>
      </trkpt>
      <trkpt lat="42.486375" lon="8.86148">
        <ele>683.8</ele>
        <time>2022-09-08T07:18:15Z</time>
      </trkpt>
      <trkpt lat="42.486298" lon="8.861663">
        <ele>684.8</ele>
        <time>2022-09-08T07:18:29Z</time>
      </trkpt>
      <trkpt lat="42.486148" lon="8.861873">
        <ele>686.4</ele>
        <time>2022-09-08T07:18:45Z</time>
      </trkpt>
      <trkpt lat="42.486102" lon="8.861887">
        <ele>687.2</ele>
        <time>2022-09-08T07:18:50Z</time>
      </trkpt>
      <trkpt lat="42.485973" lon="8.861947">
        <ele>689.4</ele>
        <time>2022-09-08T07:19:05Z</time>
      </trkpt>
      <trkpt lat="42.485923" lon="8.861965">
        <ele>690.8</ele>
        <time>2022-09-08T07:19:11Z</time>
      </trkpt>
      <trkpt lat="42.485853" lon="8.862003">
        <ele>691.6</ele>
        <time>2022-09-08T07:19:21Z</time>
      </trkpt>
      <trkpt lat="42.485777" lon="8.862145">
        <ele>692.6</ele>
        <time>2022-09-08T07:19:32Z</time>
      </trkpt>
      <trkpt lat="42.485612" lon="8.862372">
        <ele>695.8</ele>
        <time>2022-09-08T07:19:57Z</time>
      </trkpt>
      <trkpt lat="42.485605" lon="8.86238">
        <ele>695.8</ele>
        <time>2022-09-08T07:19:58Z</time>
      </trkpt>
      <trkpt lat="42.485577" lon="8.862473">
        <ele>695.8</ele>
        <time>2022-09-08T07:20:05Z</time>
      </trkpt>
      <trkpt lat="42.48554" lon="8.862653">
        <ele>696.6</ele>
        <time>2022-09-08T07:20:19Z</time>
      </trkpt>
      <trkpt lat="42.485535" lon="8.862752">
        <ele>696.8</ele>
        <time>2022-09-08T07:20:25Z</time>
      </trkpt>
      <trkpt lat="42.48553" lon="8.862823">
        <ele>697.2</ele>
        <time>2022-09-08T07:20:30Z</time>
      </trkpt>
      <trkpt lat="42.485467" lon="8.863077">
        <ele>700.6</ele>
        <time>2022-09-08T07:20:57Z</time>
      </trkpt>
      <trkpt lat="42.485435" lon="8.863127">
        <ele>702.6</ele>
        <time>2022-09-08T07:21:07Z</time>
      </trkpt>
      <trkpt lat="42.485393" lon="8.863185">
        <ele>704.4</ele>
        <time>2022-09-08T07:21:17Z</time>
      </trkpt>
      <trkpt lat="42.485305" lon="8.86342">
        <ele>707.0</ele>
        <time>2022-09-08T07:21:35Z</time>
      </trkpt>
      <trkpt lat="42.485228" lon="8.863507">
        <ele>708.6</ele>
        <time>2022-09-08T07:21:46Z</time>
      </trkpt>
      <trkpt lat="42.48519" lon="8.86352">
        <ele>709.8</ele>
        <time>2022-09-08T07:21:55Z</time>
      </trkpt>
      <trkpt lat="42.48518" lon="8.86352">
        <ele>709.8</ele>
        <time>2022-09-08T07:21:57Z</time>
      </trkpt>
      <trkpt lat="42.485162" lon="8.863542">
        <ele>711.0</ele>
        <time>2022-09-08T07:22:06Z</time>
      </trkpt>
      <trkpt lat="42.485128" lon="8.863618">
        <ele>712.6</ele>
        <time>2022-09-08T07:22:19Z</time>
      </trkpt>
      <trkpt lat="42.485087" lon="8.863668">
        <ele>715.2</ele>
        <time>2022-09-08T07:22:34Z</time>
      </trkpt>
      <trkpt lat="42.485" lon="8.863737">
        <ele>720.2</ele>
        <time>2022-09-08T07:23:21Z</time>
      </trkpt>
      <trkpt lat="42.484923" lon="8.86379">
        <ele>721.2</ele>
        <time>2022-09-08T07:23:31Z</time>
      </trkpt>
      <trkpt lat="42.484797" lon="8.863817">
        <ele>722.6</ele>
        <time>2022-09-08T07:23:41Z</time>
      </trkpt>
      <trkpt lat="42.484763" lon="8.863842">
        <ele>722.8</ele>
        <time>2022-09-08T07:23:43Z</time>
      </trkpt>
      <trkpt lat="42.484608" lon="8.863988">
        <ele>725.0</ele>
        <time>2022-09-08T07:23:53Z</time>
      </trkpt>
      <trkpt lat="42.484533" lon="8.864063">
        <ele>725.6</ele>
        <time>2022-09-08T07:23:58Z</time>
      </trkpt>
      <trkpt lat="42.484463" lon="8.864137">
        <ele>726.4</ele>
        <time>2022-09-08T07:24:03Z</time>
      </trkpt>
      <trkpt lat="42.484293" lon="8.864265">
        <ele>731.2</ele>
        <time>2022-09-08T07:24:30Z</time>
      </trkpt>
      <trkpt lat="42.484165" lon="8.864457">
        <ele>735.6</ele>
        <time>2022-09-08T07:24:53Z</time>
      </trkpt>
      <trkpt lat="42.484153" lon="8.86447">
        <ele>736.0</ele>
        <time>2022-09-08T07:24:54Z</time>
      </trkpt>
      <trkpt lat="42.484133" lon="8.8645">
        <ele>736.4</ele>
        <time>2022-09-08T07:24:56Z</time>
      </trkpt>
      <trkpt lat="42.48412" lon="8.864575">
        <ele>736.8</ele>
        <time>2022-09-08T07:25:00Z</time>
      </trkpt>
      <trkpt lat="42.484097" lon="8.864665">
        <ele>737.8</ele>
        <time>2022-09-08T07:25:07Z</time>
      </trkpt>
      <trkpt lat="42.484065" lon="8.864743">
        <ele>739.0</ele>
        <time>2022-09-08T07:25:17Z</time>
      </trkpt>
      <trkpt lat="42.48406" lon="8.8648">
        <ele>740.2</ele>
        <time>2022-09-08T07:25:27Z</time>
      </trkpt>
      <trkpt lat="42.483967" lon="8.864833">
        <ele>741.6</ele>
        <time>2022-09-08T07:25:42Z</time>
      </trkpt>
      <trkpt lat="42.483917" lon="8.86487">
        <ele>741.8</ele>
        <time>2022-09-08T07:25:48Z</time>
      </trkpt>
      <trkpt lat="42.483852" lon="8.864827">
        <ele>742.8</ele>
        <time>2022-09-08T07:25:59Z</time>
      </trkpt>
      <trkpt lat="42.483807" lon="8.864813">
        <ele>744.2</ele>
        <time>2022-09-08T07:26:08Z</time>
      </trkpt>
      <trkpt lat="42.483768" lon="8.864798">
        <ele>744.8</ele>
        <time>2022-09-08T07:26:16Z</time>
      </trkpt>
      <trkpt lat="42.483753" lon="8.864797">
        <ele>745.2</ele>
        <time>2022-09-08T07:26:20Z</time>
      </trkpt>
      <trkpt lat="42.483633" lon="8.864742">
        <ele>747.6</ele>
        <time>2022-09-08T07:26:35Z</time>
      </trkpt>
      <trkpt lat="42.483572" lon="8.864735">
        <ele>748.4</ele>
        <time>2022-09-08T07:26:43Z</time>
      </trkpt>
      <trkpt lat="42.483518" lon="8.86478">
        <ele>749.2</ele>
        <time>2022-09-08T07:26:49Z</time>
      </trkpt>
      <trkpt lat="42.483498" lon="8.864782">
        <ele>749.6</ele>
        <time>2022-09-08T07:26:51Z</time>
      </trkpt>
      <trkpt lat="42.483458" lon="8.864943">
        <ele>752.4</ele>
        <time>2022-09-08T07:27:12Z</time>
      </trkpt>
      <trkpt lat="42.483392" lon="8.86504">
        <ele>753.2</ele>
        <time>2022-09-08T07:27:22Z</time>
      </trkpt>
      <trkpt lat="42.483385" lon="8.865053">
        <ele>753.2</ele>
        <time>2022-09-08T07:27:24Z</time>
      </trkpt>
      <trkpt lat="42.483327" lon="8.865123">
        <ele>754.6</ele>
        <time>2022-09-08T07:27:35Z</time>
      </trkpt>
      <trkpt lat="42.483297" lon="8.86516">
        <ele>755.8</ele>
        <time>2022-09-08T07:27:41Z</time>
      </trkpt>
      <trkpt lat="42.483282" lon="8.865215">
        <ele>756.4</ele>
        <time>2022-09-08T07:27:47Z</time>
      </trkpt>
      <trkpt lat="42.483258" lon="8.86525">
        <ele>757.0</ele>
        <time>2022-09-08T07:27:52Z</time>
      </trkpt>
      <trkpt lat="42.483242" lon="8.865255">
        <ele>757.8</ele>
        <time>2022-09-08T07:27:56Z</time>
      </trkpt>
      <trkpt lat="42.483127" lon="8.865247">
        <ele>760.4</ele>
        <time>2022-09-08T07:28:21Z</time>
      </trkpt>
      <trkpt lat="42.483075" lon="8.865202">
        <ele>761.2</ele>
        <time>2022-09-08T07:28:34Z</time>
      </trkpt>
      <trkpt lat="42.483007" lon="8.865152">
        <ele>764.0</ele>
        <time>2022-09-08T07:28:47Z</time>
      </trkpt>
      <trkpt lat="42.482983" lon="8.865165">
        <ele>765.0</ele>
        <time>2022-09-08T07:28:56Z</time>
      </trkpt>
      <trkpt lat="42.482975" lon="8.865195">
        <ele>765.0</ele>
        <time>2022-09-08T07:29:04Z</time>
      </trkpt>
      <trkpt lat="42.482965" lon="8.86524">
        <ele>766.2</ele>
        <time>2022-09-08T07:29:13Z</time>
      </trkpt>
      <trkpt lat="42.48296" lon="8.865262">
        <ele>766.6</ele>
        <time>2022-09-08T07:29:17Z</time>
      </trkpt>
      <trkpt lat="42.482927" lon="8.865318">
        <ele>767.6</ele>
        <time>2022-09-08T07:29:25Z</time>
      </trkpt>
      <trkpt lat="42.48287" lon="8.865353">
        <ele>768.6</ele>
        <time>2022-09-08T07:29:32Z</time>
      </trkpt>
      <trkpt lat="42.48284" lon="8.8654">
        <ele>769.4</ele>
        <time>2022-09-08T07:29:38Z</time>
      </trkpt>
      <trkpt lat="42.48278" lon="8.865517">
        <ele>774.8</ele>
        <time>2022-09-08T07:30:05Z</time>
      </trkpt>
      <trkpt lat="42.482733" lon="8.865527">
        <ele>775.4</ele>
        <time>2022-09-08T07:30:10Z</time>
      </trkpt>
      <trkpt lat="42.482687" lon="8.86554">
        <ele>776.2</ele>
        <time>2022-09-08T07:30:18Z</time>
      </trkpt>
      <trkpt lat="42.482605" lon="8.865628">
        <ele>777.8</ele>
        <time>2022-09-08T07:30:28Z</time>
      </trkpt>
      <trkpt lat="42.48253" lon="8.865655">
        <ele>779.2</ele>
        <time>2022-09-08T07:30:36Z</time>
      </trkpt>
      <trkpt lat="42.482495" lon="8.86562">
        <ele>780.2</ele>
        <time>2022-09-08T07:30:40Z</time>
      </trkpt>
      <trkpt lat="42.482452" lon="8.865548">
        <ele>780.6</ele>
        <time>2022-09-08T07:30:47Z</time>
      </trkpt>
      <trkpt lat="42.482422" lon="8.865552">
        <ele>780.6</ele>
        <time>2022-09-08T07:30:51Z</time>
      </trkpt>
      <trkpt lat="42.48238" lon="8.86557">
        <ele>780.6</ele>
        <time>2022-09-08T07:30:58Z</time>
      </trkpt>
      <trkpt lat="42.48239" lon="8.865462">
        <ele>779.8</ele>
        <time>2022-09-08T07:31:09Z</time>
      </trkpt>
      <trkpt lat="42.482428" lon="8.86519">
        <ele>780.2</ele>
        <time>2022-09-08T07:31:24Z</time>
      </trkpt>
      <trkpt lat="42.482427" lon="8.865165">
        <ele>780.2</ele>
        <time>2022-09-08T07:31:25Z</time>
      </trkpt>
      <trkpt lat="42.482428" lon="8.865112">
        <ele>780.4</ele>
        <time>2022-09-08T07:31:27Z</time>
      </trkpt>
      <trkpt lat="42.482403" lon="8.865097">
        <ele>780.4</ele>
        <time>2022-09-08T07:31:30Z</time>
      </trkpt>
      <trkpt lat="42.482362" lon="8.865137">
        <ele>781.4</ele>
        <time>2022-09-08T07:31:35Z</time>
      </trkpt>
      <trkpt lat="42.482345" lon="8.865078">
        <ele>782.8</ele>
        <time>2022-09-08T07:31:42Z</time>
      </trkpt>
      <trkpt lat="42.482338" lon="8.865017">
        <ele>784.0</ele>
        <time>2022-09-08T07:31:50Z</time>
      </trkpt>
      <trkpt lat="42.482317" lon="8.86499">
        <ele>785.4</ele>
        <time>2022-09-08T07:31:55Z</time>
      </trkpt>
      <trkpt lat="42.48228" lon="8.865037">
        <ele>786.4</ele>
        <time>2022-09-08T07:32:02Z</time>
      </trkpt>
      <trkpt lat="42.48227" lon="8.865057">
        <ele>787.2</ele>
        <time>2022-09-08T07:32:05Z</time>
      </trkpt>
      <trkpt lat="42.482268" lon="8.865177">
        <ele>788.6</ele>
        <time>2022-09-08T07:32:13Z</time>
      </trkpt>
      <trkpt lat="42.482267" lon="8.86529">
        <ele>789.6</ele>
        <time>2022-09-08T07:32:20Z</time>
      </trkpt>
      <trkpt lat="42.482255" lon="8.865462">
        <ele>791.4</ele>
        <time>2022-09-08T07:32:30Z</time>
      </trkpt>
      <trkpt lat="42.48222" lon="8.865497">
        <ele>792.2</ele>
        <time>2022-09-08T07:32:34Z</time>
      </trkpt>
      <trkpt lat="42.482158" lon="8.865485">
        <ele>793.4</ele>
        <time>2022-09-08T07:32:41Z</time>
      </trkpt>
      <trkpt lat="42.482132" lon="8.865483">
        <ele>793.6</ele>
        <time>2022-09-08T07:32:44Z</time>
      </trkpt>
      <trkpt lat="42.482127" lon="8.865472">
        <ele>794.2</ele>
        <time>2022-09-08T07:32:45Z</time>
      </trkpt>
      <trkpt lat="42.48209" lon="8.865403">
        <ele>795.0</ele>
        <time>2022-09-08T07:32:53Z</time>
      </trkpt>
      <trkpt lat="42.482047" lon="8.86536">
        <ele>796.8</ele>
        <time>2022-09-08T07:33:03Z</time>
      </trkpt>
      <trkpt lat="42.482053" lon="8.86533">
        <ele>797.6</ele>
        <time>2022-09-08T07:33:08Z</time>
      </trkpt>
      <trkpt lat="42.482117" lon="8.865207">
        <ele>803.6</ele>
        <time>2022-09-08T07:33:45Z</time>
      </trkpt>
      <trkpt lat="42.482108" lon="8.865192">
        <ele>804.2</ele>
        <time>2022-09-08T07:33:46Z</time>
      </trkpt>
      <trkpt lat="42.482052" lon="8.865128">
        <ele>804.4</ele>
        <time>2022-09-08T07:33:51Z</time>
      </trkpt>
      <trkpt lat="42.481877" lon="8.865002">
        <ele>804.2</ele>
        <time>2022-09-08T07:34:02Z</time>
      </trkpt>
      <trkpt lat="42.481793" lon="8.864922">
        <ele>805.0</ele>
        <time>2022-09-08T07:34:08Z</time>
      </trkpt>
      <trkpt lat="42.481608" lon="8.864728">
        <ele>805.8</ele>
        <time>2022-09-08T07:34:19Z</time>
      </trkpt>
      <trkpt lat="42.481573" lon="8.864693">
        <ele>806.0</ele>
        <time>2022-09-08T07:34:21Z</time>
      </trkpt>
      <trkpt lat="42.481462" lon="8.864692">
        <ele>806.8</ele>
        <time>2022-09-08T07:34:31Z</time>
      </trkpt>
      <trkpt lat="42.481118" lon="8.864805">
        <ele>813.0</ele>
        <time>2022-09-08T07:35:14Z</time>
      </trkpt>
      <trkpt lat="42.481113" lon="8.864802">
        <ele>813.0</ele>
        <time>2022-09-08T07:35:16Z</time>
      </trkpt>
      <trkpt lat="42.481057" lon="8.864768">
        <ele>814.2</ele>
        <time>2022-09-08T07:35:25Z</time>
      </trkpt>
      <trkpt lat="42.480943" lon="8.864748">
        <ele>816.2</ele>
        <time>2022-09-08T07:35:40Z</time>
      </trkpt>
      <trkpt lat="42.480788" lon="8.864723">
        <ele>818.8</ele>
        <time>2022-09-08T07:35:59Z</time>
      </trkpt>
      <trkpt lat="42.480778" lon="8.864727">
        <ele>819.2</ele>
        <time>2022-09-08T07:36:00Z</time>
      </trkpt>
      <trkpt lat="42.480748" lon="8.864743">
        <ele>819.4</ele>
        <time>2022-09-08T07:36:06Z</time>
      </trkpt>
      <trkpt lat="42.480712" lon="8.864765">
        <ele>819.8</ele>
        <time>2022-09-08T07:36:12Z</time>
      </trkpt>
      <trkpt lat="42.480627" lon="8.86477">
        <ele>822.4</ele>
        <time>2022-09-08T07:36:26Z</time>
      </trkpt>
      <trkpt lat="42.480572" lon="8.864708">
        <ele>825.4</ele>
        <time>2022-09-08T07:36:54Z</time>
      </trkpt>
      <trkpt lat="42.480498" lon="8.864655">
        <ele>831.6</ele>
        <time>2022-09-08T07:37:29Z</time>
      </trkpt>
      <trkpt lat="42.480473" lon="8.864622">
        <ele>832.6</ele>
        <time>2022-09-08T07:37:42Z</time>
      </trkpt>
      <trkpt lat="42.48043" lon="8.864577">
        <ele>834.8</ele>
        <time>2022-09-08T07:37:58Z</time>
      </trkpt>
      <trkpt lat="42.48039" lon="8.864483">
        <ele>839.2</ele>
        <time>2022-09-08T07:38:24Z</time>
      </trkpt>
      <trkpt lat="42.480382" lon="8.864477">
        <ele>839.4</ele>
        <time>2022-09-08T07:38:25Z</time>
      </trkpt>
      <trkpt lat="42.480303" lon="8.864427">
        <ele>840.2</ele>
        <time>2022-09-08T07:38:31Z</time>
      </trkpt>
      <trkpt lat="42.480135" lon="8.864245">
        <ele>842.4</ele>
        <time>2022-09-08T07:38:45Z</time>
      </trkpt>
      <trkpt lat="42.480087" lon="8.864218">
        <ele>842.6</ele>
        <time>2022-09-08T07:38:48Z</time>
      </trkpt>
      <trkpt lat="42.479897" lon="8.864132">
        <ele>843.6</ele>
        <time>2022-09-08T07:38:59Z</time>
      </trkpt>
      <trkpt lat="42.479775" lon="8.864122">
        <ele>844.0</ele>
        <time>2022-09-08T07:39:05Z</time>
      </trkpt>
      <trkpt lat="42.479553" lon="8.864177">
        <ele>848.4</ele>
        <time>2022-09-08T07:39:35Z</time>
      </trkpt>
      <trkpt lat="42.479548" lon="8.86418">
        <ele>848.8</ele>
        <time>2022-09-08T07:39:38Z</time>
      </trkpt>
      <trkpt lat="42.479498" lon="8.864228">
        <ele>850.0</ele>
        <time>2022-09-08T07:39:46Z</time>
      </trkpt>
      <trkpt lat="42.479508" lon="8.864252">
        <ele>851.0</ele>
        <time>2022-09-08T07:39:48Z</time>
      </trkpt>
      <trkpt lat="42.479537" lon="8.864258">
        <ele>851.2</ele>
        <time>2022-09-08T07:39:51Z</time>
      </trkpt>
      <trkpt lat="42.479588" lon="8.86427">
        <ele>852.0</ele>
        <time>2022-09-08T07:39:57Z</time>
      </trkpt>
      <trkpt lat="42.479635" lon="8.864292">
        <ele>853.2</ele>
        <time>2022-09-08T07:40:05Z</time>
      </trkpt>
      <trkpt lat="42.479653" lon="8.864295">
        <ele>853.8</ele>
        <time>2022-09-08T07:40:08Z</time>
      </trkpt>
      <trkpt lat="42.479682" lon="8.864295">
        <ele>854.2</ele>
        <time>2022-09-08T07:40:12Z</time>
      </trkpt>
      <trkpt lat="42.479707" lon="8.864327">
        <ele>854.8</ele>
        <time>2022-09-08T07:40:17Z</time>
      </trkpt>
      <trkpt lat="42.479717" lon="8.864367">
        <ele>855.4</ele>
        <time>2022-09-08T07:40:22Z</time>
      </trkpt>
      <trkpt lat="42.479695" lon="8.864393">
        <ele>856.2</ele>
        <time>2022-09-08T07:40:28Z</time>
      </trkpt>
      <trkpt lat="42.479625" lon="8.86441">
        <ele>860.2</ele>
        <time>2022-09-08T07:40:56Z</time>
      </trkpt>
      <trkpt lat="42.479625" lon="8.864413">
        <ele>860.8</ele>
        <time>2022-09-08T07:40:58Z</time>
      </trkpt>
      <trkpt lat="42.479567" lon="8.864443">
        <ele>862.6</ele>
        <time>2022-09-08T07:41:10Z</time>
      </trkpt>
      <trkpt lat="42.47941" lon="8.864562">
        <ele>865.0</ele>
        <time>2022-09-08T07:41:26Z</time>
      </trkpt>
      <trkpt lat="42.479378" lon="8.86458">
        <ele>865.8</ele>
        <time>2022-09-08T07:41:30Z</time>
      </trkpt>
      <trkpt lat="42.479232" lon="8.864657">
        <ele>869.2</ele>
        <time>2022-09-08T07:41:52Z</time>
      </trkpt>
      <trkpt lat="42.479145" lon="8.86469">
        <ele>871.8</ele>
        <time>2022-09-08T07:42:06Z</time>
      </trkpt>
      <trkpt lat="42.479113" lon="8.864708">
        <ele>872.4</ele>
        <time>2022-09-08T07:42:10Z</time>
      </trkpt>
      <trkpt lat="42.479038" lon="8.864743">
        <ele>875.0</ele>
        <time>2022-09-08T07:42:26Z</time>
      </trkpt>
      <trkpt lat="42.478873" lon="8.8648">
        <ele>877.8</ele>
        <time>2022-09-08T07:42:46Z</time>
      </trkpt>
      <trkpt lat="42.478758" lon="8.864853">
        <ele>880.6</ele>
        <time>2022-09-08T07:43:02Z</time>
      </trkpt>
      <trkpt lat="42.478753" lon="8.864857">
        <ele>880.6</ele>
        <time>2022-09-08T07:43:03Z</time>
      </trkpt>
      <trkpt lat="42.478602" lon="8.864915">
        <ele>884.4</ele>
        <time>2022-09-08T07:43:31Z</time>
      </trkpt>
      <trkpt lat="42.478585" lon="8.864918">
        <ele>884.8</ele>
        <time>2022-09-08T07:43:34Z</time>
      </trkpt>
      <trkpt lat="42.478323" lon="8.865007">
        <ele>888.2</ele>
        <time>2022-09-08T07:44:06Z</time>
      </trkpt>
      <trkpt lat="42.478277" lon="8.865048">
        <ele>889.2</ele>
        <time>2022-09-08T07:44:12Z</time>
      </trkpt>
      <trkpt lat="42.478297" lon="8.865085">
        <ele>892.0</ele>
        <time>2022-09-08T07:44:31Z</time>
      </trkpt>
      <trkpt lat="42.478425" lon="8.865138">
        <ele>899.0</ele>
        <time>2022-09-08T07:45:18Z</time>
      </trkpt>
      <trkpt lat="42.478487" lon="8.865175">
        <ele>900.2</ele>
        <time>2022-09-08T07:45:28Z</time>
      </trkpt>
      <trkpt lat="42.478527" lon="8.865187">
        <ele>901.4</ele>
        <time>2022-09-08T07:45:33Z</time>
      </trkpt>
      <trkpt lat="42.478617" lon="8.86519">
        <ele>902.8</ele>
        <time>2022-09-08T07:45:40Z</time>
      </trkpt>
      <trkpt lat="42.478737" lon="8.865215">
        <ele>903.2</ele>
        <time>2022-09-08T07:45:52Z</time>
      </trkpt>
      <trkpt lat="42.478825" lon="8.865233">
        <ele>903.8</ele>
        <time>2022-09-08T07:45:58Z</time>
      </trkpt>
      <trkpt lat="42.478933" lon="8.865257">
        <ele>903.2</ele>
        <time>2022-09-08T07:46:08Z</time>
      </trkpt>
      <trkpt lat="42.479075" lon="8.865313">
        <ele>905.6</ele>
        <time>2022-09-08T07:46:21Z</time>
      </trkpt>
      <trkpt lat="42.479193" lon="8.86534">
        <ele>906.8</ele>
        <time>2022-09-08T07:46:32Z</time>
      </trkpt>
      <trkpt lat="42.479263" lon="8.86537">
        <ele>907.2</ele>
        <time>2022-09-08T07:46:39Z</time>
      </trkpt>
      <trkpt lat="42.479323" lon="8.865382">
        <ele>908.6</ele>
        <time>2022-09-08T07:46:45Z</time>
      </trkpt>
      <trkpt lat="42.47935" lon="8.865397">
        <ele>909.4</ele>
        <time>2022-09-08T07:46:48Z</time>
      </trkpt>
      <trkpt lat="42.479437" lon="8.86552">
        <ele>912.8</ele>
        <time>2022-09-08T07:47:06Z</time>
      </trkpt>
      <trkpt lat="42.479513" lon="8.865677">
        <ele>915.8</ele>
        <time>2022-09-08T07:47:23Z</time>
      </trkpt>
      <trkpt lat="42.47953" lon="8.865713">
        <ele>916.4</ele>
        <time>2022-09-08T07:47:28Z</time>
      </trkpt>
      <trkpt lat="42.479597" lon="8.865757">
        <ele>917.4</ele>
        <time>2022-09-08T07:47:38Z</time>
      </trkpt>
      <trkpt lat="42.479627" lon="8.865837">
        <ele>918.2</ele>
        <time>2022-09-08T07:47:44Z</time>
      </trkpt>
      <trkpt lat="42.479628" lon="8.865885">
        <ele>918.8</ele>
        <time>2022-09-08T07:47:48Z</time>
      </trkpt>
      <trkpt lat="42.4795" lon="8.865975">
        <ele>921.0</ele>
        <time>2022-09-08T07:48:03Z</time>
      </trkpt>
      <trkpt lat="42.479493" lon="8.86597">
        <ele>921.0</ele>
        <time>2022-09-08T07:48:04Z</time>
      </trkpt>
      <trkpt lat="42.479442" lon="8.865932">
        <ele>922.8</ele>
        <time>2022-09-08T07:48:12Z</time>
      </trkpt>
      <trkpt lat="42.479297" lon="8.865913">
        <ele>928.8</ele>
        <time>2022-09-08T07:48:47Z</time>
      </trkpt>
      <trkpt lat="42.47929" lon="8.865912">
        <ele>929.2</ele>
        <time>2022-09-08T07:48:49Z</time>
      </trkpt>
      <trkpt lat="42.479148" lon="8.865878">
        <ele>933.0</ele>
        <time>2022-09-08T07:49:11Z</time>
      </trkpt>
      <trkpt lat="42.479003" lon="8.865855">
        <ele>935.6</ele>
        <time>2022-09-08T07:49:29Z</time>
      </trkpt>
      <trkpt lat="42.478958" lon="8.865978">
        <ele>937.2</ele>
        <time>2022-09-08T07:49:44Z</time>
      </trkpt>
      <trkpt lat="42.478927" lon="8.866078">
        <ele>938.8</ele>
        <time>2022-09-08T07:49:54Z</time>
      </trkpt>
      <trkpt lat="42.478917" lon="8.866137">
        <ele>940.2</ele>
        <time>2022-09-08T07:50:02Z</time>
      </trkpt>
      <trkpt lat="42.478875" lon="8.866213">
        <ele>942.4</ele>
        <time>2022-09-08T07:50:18Z</time>
      </trkpt>
      <trkpt lat="42.478898" lon="8.866198">
        <ele>944.8</ele>
        <time>2022-09-08T07:50:33Z</time>
      </trkpt>
      <trkpt lat="42.478937" lon="8.866135">
        <ele>945.2</ele>
        <time>2022-09-08T07:50:42Z</time>
      </trkpt>
      <trkpt lat="42.478942" lon="8.866128">
        <ele>945.4</ele>
        <time>2022-09-08T07:50:43Z</time>
      </trkpt>
      <trkpt lat="42.479033" lon="8.86617">
        <ele>945.2</ele>
        <time>2022-09-08T07:50:55Z</time>
      </trkpt>
      <trkpt lat="42.479125" lon="8.866197">
        <ele>946.4</ele>
        <time>2022-09-08T07:51:05Z</time>
      </trkpt>
      <trkpt lat="42.479227" lon="8.866503">
        <ele>947.6</ele>
        <time>2022-09-08T07:51:15Z</time>
      </trkpt>
      <trkpt lat="42.479385" lon="8.866345">
        <ele>947.4</ele>
        <time>2022-09-08T07:51:25Z</time>
      </trkpt>
      <trkpt lat="42.479462" lon="8.8665">
        <ele>948.2</ele>
        <time>2022-09-08T07:51:32Z</time>
      </trkpt>
      <trkpt lat="42.479483" lon="8.866577">
        <ele>949.0</ele>
        <time>2022-09-08T07:51:37Z</time>
      </trkpt>
      <trkpt lat="42.47953" lon="8.866783">
        <ele>951.4</ele>
        <time>2022-09-08T07:51:51Z</time>
      </trkpt>
      <trkpt lat="42.479525" lon="8.866868">
        <ele>952.6</ele>
        <time>2022-09-08T07:51:57Z</time>
      </trkpt>
      <trkpt lat="42.479563" lon="8.867047">
        <ele>956.4</ele>
        <time>2022-09-08T07:52:18Z</time>
      </trkpt>
      <trkpt lat="42.479573" lon="8.86709">
        <ele>958.2</ele>
        <time>2022-09-08T07:52:29Z</time>
      </trkpt>
      <trkpt lat="42.479577" lon="8.867082">
        <ele>962.6</ele>
        <time>2022-09-08T07:52:55Z</time>
      </trkpt>
      <trkpt lat="42.479578" lon="8.867093">
        <ele>966.6</ele>
        <time>2022-09-08T07:53:26Z</time>
      </trkpt>
      <trkpt lat="42.479607" lon="8.867057">
        <ele>973.4</ele>
        <time>2022-09-08T07:54:11Z</time>
      </trkpt>
      <trkpt lat="42.47967" lon="8.867217">
        <ele>975.8</ele>
        <time>2022-09-08T07:54:25Z</time>
      </trkpt>
      <trkpt lat="42.47987" lon="8.867467">
        <ele>977.0</ele>
        <time>2022-09-08T07:54:36Z</time>
      </trkpt>
      <trkpt lat="42.479892" lon="8.867555">
        <ele>978.0</ele>
        <time>2022-09-08T07:54:41Z</time>
      </trkpt>
      <trkpt lat="42.479958" lon="8.86787">
        <ele>979.2</ele>
        <time>2022-09-08T07:54:52Z</time>
      </trkpt>
      <trkpt lat="42.479973" lon="8.867972">
        <ele>980.4</ele>
        <time>2022-09-08T07:54:57Z</time>
      </trkpt>
      <trkpt lat="42.479977" lon="8.868027">
        <ele>981.0</ele>
        <time>2022-09-08T07:55:00Z</time>
      </trkpt>
      <trkpt lat="42.479965" lon="8.868077">
        <ele>981.2</ele>
        <time>2022-09-08T07:55:03Z</time>
      </trkpt>
      <trkpt lat="42.479943" lon="8.868078">
        <ele>982.2</ele>
        <time>2022-09-08T07:55:05Z</time>
      </trkpt>
      <trkpt lat="42.479878" lon="8.868017">
        <ele>983.4</ele>
        <time>2022-09-08T07:55:12Z</time>
      </trkpt>
      <trkpt lat="42.47986" lon="8.868015">
        <ele>983.4</ele>
        <time>2022-09-08T07:55:14Z</time>
      </trkpt>
      <trkpt lat="42.479863" lon="8.868065">
        <ele>984.4</ele>
        <time>2022-09-08T07:55:19Z</time>
      </trkpt>
      <trkpt lat="42.479868" lon="8.868092">
        <ele>987.4</ele>
        <time>2022-09-08T07:55:40Z</time>
      </trkpt>
      <trkpt lat="42.479873" lon="8.868198">
        <ele>990.8</ele>
        <time>2022-09-08T07:56:10Z</time>
      </trkpt>
      <trkpt lat="42.479877" lon="8.868247">
        <ele>991.0</ele>
        <time>2022-09-08T07:56:13Z</time>
      </trkpt>
      <trkpt lat="42.479887" lon="8.868312">
        <ele>991.2</ele>
        <time>2022-09-08T07:56:17Z</time>
      </trkpt>
      <trkpt lat="42.479895" lon="8.868342">
        <ele>991.6</ele>
        <time>2022-09-08T07:56:19Z</time>
      </trkpt>
      <trkpt lat="42.479947" lon="8.868402">
        <ele>992.4</ele>
        <time>2022-09-08T07:56:25Z</time>
      </trkpt>
      <trkpt lat="42.480015" lon="8.868458">
        <ele>993.4</ele>
        <time>2022-09-08T07:56:37Z</time>
      </trkpt>
      <trkpt lat="42.480073" lon="8.868533">
        <ele>993.8</ele>
        <time>2022-09-08T07:56:46Z</time>
      </trkpt>
      <trkpt lat="42.480097" lon="8.868568">
        <ele>994.6</ele>
        <time>2022-09-08T07:56:54Z</time>
      </trkpt>
      <trkpt lat="42.480147" lon="8.868603">
        <ele>996.4</ele>
        <time>2022-09-08T07:57:11Z</time>
      </trkpt>
      <trkpt lat="42.480182" lon="8.868658">
        <ele>997.0</ele>
        <time>2022-09-08T07:57:21Z</time>
      </trkpt>
      <trkpt lat="42.48022" lon="8.868823">
        <ele>998.2</ele>
        <time>2022-09-08T07:57:34Z</time>
      </trkpt>
      <trkpt lat="42.480257" lon="8.868922">
        <ele>998.8</ele>
        <time>2022-09-08T07:57:40Z</time>
      </trkpt>
      <trkpt lat="42.480282" lon="8.868985">
        <ele>999.0</ele>
        <time>2022-09-08T07:57:44Z</time>
      </trkpt>
      <trkpt lat="42.480313" lon="8.86911">
        <ele>999.4</ele>
        <time>2022-09-08T07:57:52Z</time>
      </trkpt>
      <trkpt lat="42.480377" lon="8.869202">
        <ele>1000.6</ele>
        <time>2022-09-08T07:58:01Z</time>
      </trkpt>
      <trkpt lat="42.480383" lon="8.869212">
        <ele>1000.8</ele>
        <time>2022-09-08T07:58:03Z</time>
      </trkpt>
      <trkpt lat="42.480437" lon="8.869177">
        <ele>1001.8</ele>
        <time>2022-09-08T07:58:10Z</time>
      </trkpt>
      <trkpt lat="42.480477" lon="8.869177">
        <ele>1001.8</ele>
        <time>2022-09-08T07:58:15Z</time>
      </trkpt>
      <trkpt lat="42.480512" lon="8.86921">
        <ele>1001.8</ele>
        <time>2022-09-08T07:58:20Z</time>
      </trkpt>
      <trkpt lat="42.480575" lon="8.869287">
        <ele>1003.0</ele>
        <time>2022-09-08T07:58:29Z</time>
      </trkpt>
      <trkpt lat="42.480692" lon="8.869365">
        <ele>1004.6</ele>
        <time>2022-09-08T07:58:43Z</time>
      </trkpt>
      <trkpt lat="42.480708" lon="8.869458">
        <ele>1004.8</ele>
        <time>2022-09-08T07:58:50Z</time>
      </trkpt>
      <trkpt lat="42.480695" lon="8.869513">
        <ele>1004.4</ele>
        <time>2022-09-08T07:58:54Z</time>
      </trkpt>
      <trkpt lat="42.480582" lon="8.869793">
        <ele>1005.2</ele>
        <time>2022-09-08T07:59:14Z</time>
      </trkpt>
      <trkpt lat="42.48058" lon="8.869847">
        <ele>1005.2</ele>
        <time>2022-09-08T07:59:17Z</time>
      </trkpt>
      <trkpt lat="42.480597" lon="8.869943">
        <ele>1005.4</ele>
        <time>2022-09-08T07:59:24Z</time>
      </trkpt>
      <trkpt lat="42.480615" lon="8.870025">
        <ele>1005.4</ele>
        <time>2022-09-08T07:59:31Z</time>
      </trkpt>
      <trkpt lat="42.480642" lon="8.870055">
        <ele>1006.0</ele>
        <time>2022-09-08T07:59:35Z</time>
      </trkpt>
      <trkpt lat="42.480752" lon="8.870093">
        <ele>1008.2</ele>
        <time>2022-09-08T07:59:51Z</time>
      </trkpt>
      <trkpt lat="42.480778" lon="8.870155">
        <ele>1009.0</ele>
        <time>2022-09-08T08:00:00Z</time>
      </trkpt>
      <trkpt lat="42.480823" lon="8.870273">
        <ele>1009.6</ele>
        <time>2022-09-08T08:00:23Z</time>
      </trkpt>
      <trkpt lat="42.480863" lon="8.870375">
        <ele>1012.6</ele>
        <time>2022-09-08T08:00:54Z</time>
      </trkpt>
      <trkpt lat="42.480867" lon="8.870385">
        <ele>1013.0</ele>
        <time>2022-09-08T08:00:55Z</time>
      </trkpt>
      <trkpt lat="42.480878" lon="8.870457">
        <ele>1013.0</ele>
        <time>2022-09-08T08:01:01Z</time>
      </trkpt>
      <trkpt lat="42.480885" lon="8.870547">
        <ele>1013.2</ele>
        <time>2022-09-08T08:01:08Z</time>
      </trkpt>
      <trkpt lat="42.480923" lon="8.87058">
        <ele>1013.6</ele>
        <time>2022-09-08T08:01:14Z</time>
      </trkpt>
      <trkpt lat="42.480985" lon="8.870575">
        <ele>1013.8</ele>
        <time>2022-09-08T08:01:21Z</time>
      </trkpt>
      <trkpt lat="42.481043" lon="8.870573">
        <ele>1013.4</ele>
        <time>2022-09-08T08:01:27Z</time>
      </trkpt>
      <trkpt lat="42.48111" lon="8.87058">
        <ele>1013.2</ele>
        <time>2022-09-08T08:01:33Z</time>
      </trkpt>
      <trkpt lat="42.48118" lon="8.870538">
        <ele>1014.4</ele>
        <time>2022-09-08T08:01:40Z</time>
      </trkpt>
      <trkpt lat="42.48122" lon="8.87049">
        <ele>1014.6</ele>
        <time>2022-09-08T08:01:47Z</time>
      </trkpt>
      <trkpt lat="42.481252" lon="8.87048">
        <ele>1014.0</ele>
        <time>2022-09-08T08:01:51Z</time>
      </trkpt>
      <trkpt lat="42.481285" lon="8.870475">
        <ele>1013.6</ele>
        <time>2022-09-08T08:01:55Z</time>
      </trkpt>
      <trkpt lat="42.481355" lon="8.870385">
        <ele>1013.6</ele>
        <time>2022-09-08T08:02:07Z</time>
      </trkpt>
      <trkpt lat="42.481452" lon="8.870327">
        <ele>1013.4</ele>
        <time>2022-09-08T08:02:23Z</time>
      </trkpt>
      <trkpt lat="42.481458" lon="8.870322">
        <ele>1013.6</ele>
        <time>2022-09-08T08:02:24Z</time>
      </trkpt>
      <trkpt lat="42.481588" lon="8.870305">
        <ele>1013.8</ele>
        <time>2022-09-08T08:02:37Z</time>
      </trkpt>
      <trkpt lat="42.48181" lon="8.870313">
        <ele>1016.2</ele>
        <time>2022-09-08T08:02:57Z</time>
      </trkpt>
      <trkpt lat="42.481872" lon="8.870313">
        <ele>1017.2</ele>
        <time>2022-09-08T08:03:03Z</time>
      </trkpt>
      <trkpt lat="42.481907" lon="8.870262">
        <ele>1017.6</ele>
        <time>2022-09-08T08:03:11Z</time>
      </trkpt>
      <trkpt lat="42.481952" lon="8.87023">
        <ele>1019.2</ele>
        <time>2022-09-08T08:03:20Z</time>
      </trkpt>
      <trkpt lat="42.481973" lon="8.870347">
        <ele>1021.0</ele>
        <time>2022-09-08T08:03:33Z</time>
      </trkpt>
      <trkpt lat="42.48198" lon="8.870387">
        <ele>1022.2</ele>
        <time>2022-09-08T08:03:38Z</time>
      </trkpt>
      <trkpt lat="42.48198" lon="8.87044">
        <ele>1023.0</ele>
        <time>2022-09-08T08:03:45Z</time>
      </trkpt>
      <trkpt lat="42.481923" lon="8.870508">
        <ele>1025.8</ele>
        <time>2022-09-08T08:04:00Z</time>
      </trkpt>
      <trkpt lat="42.481873" lon="8.870542">
        <ele>1027.2</ele>
        <time>2022-09-08T08:04:09Z</time>
      </trkpt>
      <trkpt lat="42.481738" lon="8.870587">
        <ele>1028.2</ele>
        <time>2022-09-08T08:04:21Z</time>
      </trkpt>
      <trkpt lat="42.481732" lon="8.870595">
        <ele>1028.2</ele>
        <time>2022-09-08T08:04:22Z</time>
      </trkpt>
      <trkpt lat="42.481657" lon="8.870662">
        <ele>1028.8</ele>
        <time>2022-09-08T08:04:33Z</time>
      </trkpt>
      <trkpt lat="42.481595" lon="8.870712">
        <ele>1029.4</ele>
        <time>2022-09-08T08:04:42Z</time>
      </trkpt>
      <trkpt lat="42.48158" lon="8.870745">
        <ele>1029.4</ele>
        <time>2022-09-08T08:04:47Z</time>
      </trkpt>
      <trkpt lat="42.481568" lon="8.870817">
        <ele>1029.8</ele>
        <time>2022-09-08T08:04:56Z</time>
      </trkpt>
      <trkpt lat="42.481582" lon="8.87088">
        <ele>1030.6</ele>
        <time>2022-09-08T08:05:04Z</time>
      </trkpt>
      <trkpt lat="42.481545" lon="8.870997">
        <ele>1034.8</ele>
        <time>2022-09-08T08:05:31Z</time>
      </trkpt>
      <trkpt lat="42.481528" lon="8.871033">
        <ele>1036.4</ele>
        <time>2022-09-08T08:05:47Z</time>
      </trkpt>
      <trkpt lat="42.481528" lon="8.871078">
        <ele>1038.0</ele>
        <time>2022-09-08T08:05:58Z</time>
      </trkpt>
      <trkpt lat="42.481428" lon="8.871068">
        <ele>1040.8</ele>
        <time>2022-09-08T08:06:12Z</time>
      </trkpt>
      <trkpt lat="42.481353" lon="8.871065">
        <ele>1041.2</ele>
        <time>2022-09-08T08:06:17Z</time>
      </trkpt>
      <trkpt lat="42.481283" lon="8.871013">
        <ele>1041.8</ele>
        <time>2022-09-08T08:06:22Z</time>
      </trkpt>
      <trkpt lat="42.481202" lon="8.871038">
        <ele>1043.2</ele>
        <time>2022-09-08T08:06:33Z</time>
      </trkpt>
      <trkpt lat="42.481158" lon="8.87105">
        <ele>1044.6</ele>
        <time>2022-09-08T08:06:40Z</time>
      </trkpt>
      <trkpt lat="42.481143" lon="8.871057">
        <ele>1044.8</ele>
        <time>2022-09-08T08:06:42Z</time>
      </trkpt>
      <trkpt lat="42.48123" lon="8.871047">
        <ele>1045.6</ele>
        <time>2022-09-08T08:06:48Z</time>
      </trkpt>
      <trkpt lat="42.481345" lon="8.871068">
        <ele>1046.4</ele>
        <time>2022-09-08T08:06:55Z</time>
      </trkpt>
      <trkpt lat="42.48166" lon="8.870982">
        <ele>1049.4</ele>
        <time>2022-09-08T08:07:15Z</time>
      </trkpt>
      <trkpt lat="42.481707" lon="8.871053">
        <ele>1051.0</ele>
        <time>2022-09-08T08:07:22Z</time>
      </trkpt>
      <trkpt lat="42.481713" lon="8.871065">
        <ele>1051.4</ele>
        <time>2022-09-08T08:07:23Z</time>
      </trkpt>
      <trkpt lat="42.481703" lon="8.871073">
        <ele>1051.6</ele>
        <time>2022-09-08T08:07:24Z</time>
      </trkpt>
      <trkpt lat="42.481632" lon="8.871107">
        <ele>1052.4</ele>
        <time>2022-09-08T08:07:30Z</time>
      </trkpt>
      <trkpt lat="42.481597" lon="8.87118">
        <ele>1053.6</ele>
        <time>2022-09-08T08:07:37Z</time>
      </trkpt>
      <trkpt lat="42.481587" lon="8.871352">
        <ele>1056.6</ele>
        <time>2022-09-08T08:07:54Z</time>
      </trkpt>
      <trkpt lat="42.481743" lon="8.87136">
        <ele>1059.6</ele>
        <time>2022-09-08T08:08:14Z</time>
      </trkpt>
      <trkpt lat="42.481752" lon="8.871365">
        <ele>1059.6</ele>
        <time>2022-09-08T08:08:15Z</time>
      </trkpt>
      <trkpt lat="42.481772" lon="8.87141">
        <ele>1060.8</ele>
        <time>2022-09-08T08:08:24Z</time>
      </trkpt>
      <trkpt lat="42.481797" lon="8.871428">
        <ele>1061.4</ele>
        <time>2022-09-08T08:08:30Z</time>
      </trkpt>
      <trkpt lat="42.481885" lon="8.871443">
        <ele>1065.0</ele>
        <time>2022-09-08T08:08:53Z</time>
      </trkpt>
      <trkpt lat="42.481955" lon="8.87145">
        <ele>1070.8</ele>
        <time>2022-09-08T08:09:27Z</time>
      </trkpt>
      <trkpt lat="42.482027" lon="8.871455">
        <ele>1076.6</ele>
        <time>2022-09-08T08:10:05Z</time>
      </trkpt>
      <trkpt lat="42.482062" lon="8.871495">
        <ele>1077.6</ele>
        <time>2022-09-08T08:10:11Z</time>
      </trkpt>
      <trkpt lat="42.482202" lon="8.871802">
        <ele>1082.2</ele>
        <time>2022-09-08T08:10:44Z</time>
      </trkpt>
      <trkpt lat="42.482197" lon="8.871818">
        <ele>1083.4</ele>
        <time>2022-09-08T08:10:50Z</time>
      </trkpt>
      <trkpt lat="42.482112" lon="8.871693">
        <ele>1086.2</ele>
        <time>2022-09-08T08:11:22Z</time>
      </trkpt>
      <trkpt lat="42.482108" lon="8.871687">
        <ele>1086.8</ele>
        <time>2022-09-08T08:11:28Z</time>
      </trkpt>
      <trkpt lat="42.482125" lon="8.871795">
        <ele>1087.6</ele>
        <time>2022-09-08T08:11:35Z</time>
      </trkpt>
      <trkpt lat="42.482122" lon="8.871863">
        <ele>1088.4</ele>
        <time>2022-09-08T08:11:39Z</time>
      </trkpt>
      <trkpt lat="42.482098" lon="8.871895">
        <ele>1089.2</ele>
        <time>2022-09-08T08:11:44Z</time>
      </trkpt>
      <trkpt lat="42.48204" lon="8.871845">
        <ele>1091.0</ele>
        <time>2022-09-08T08:11:55Z</time>
      </trkpt>
      <trkpt lat="42.482017" lon="8.871857">
        <ele>1091.8</ele>
        <time>2022-09-08T08:12:00Z</time>
      </trkpt>
      <trkpt lat="42.482077" lon="8.871968">
        <ele>1093.2</ele>
        <time>2022-09-08T08:12:12Z</time>
      </trkpt>
      <trkpt lat="42.48213" lon="8.872035">
        <ele>1094.6</ele>
        <time>2022-09-08T08:12:25Z</time>
      </trkpt>
      <trkpt lat="42.482175" lon="8.872098">
        <ele>1095.6</ele>
        <time>2022-09-08T08:12:33Z</time>
      </trkpt>
      <trkpt lat="42.482195" lon="8.872143">
        <ele>1096.2</ele>
        <time>2022-09-08T08:12:38Z</time>
      </trkpt>
      <trkpt lat="42.482182" lon="8.8722">
        <ele>1097.4</ele>
        <time>2022-09-08T08:12:48Z</time>
      </trkpt>
      <trkpt lat="42.4822" lon="8.872328">
        <ele>1098.6</ele>
        <time>2022-09-08T08:13:00Z</time>
      </trkpt>
      <trkpt lat="42.482157" lon="8.872475">
        <ele>1100.4</ele>
        <time>2022-09-08T08:13:11Z</time>
      </trkpt>
      <trkpt lat="42.482158" lon="8.872487">
        <ele>1100.8</ele>
        <time>2022-09-08T08:13:13Z</time>
      </trkpt>
      <trkpt lat="42.482095" lon="8.872568">
        <ele>1102.4</ele>
        <time>2022-09-08T08:13:23Z</time>
      </trkpt>
      <trkpt lat="42.482052" lon="8.872523">
        <ele>1109.0</ele>
        <time>2022-09-08T08:14:03Z</time>
      </trkpt>
      <trkpt lat="42.48199" lon="8.872502">
        <ele>1111.0</ele>
        <time>2022-09-08T08:14:22Z</time>
      </trkpt>
      <trkpt lat="42.48193" lon="8.872538">
        <ele>1111.6</ele>
        <time>2022-09-08T08:14:27Z</time>
      </trkpt>
      <trkpt lat="42.481877" lon="8.872588">
        <ele>1113.0</ele>
        <time>2022-09-08T08:14:35Z</time>
      </trkpt>
      <trkpt lat="42.481868" lon="8.87262">
        <ele>1113.0</ele>
        <time>2022-09-08T08:14:37Z</time>
      </trkpt>
      <trkpt lat="42.481767" lon="8.872752">
        <ele>1115.4</ele>
        <time>2022-09-08T08:14:51Z</time>
      </trkpt>
      <trkpt lat="42.481718" lon="8.872858">
        <ele>1116.0</ele>
        <time>2022-09-08T08:15:02Z</time>
      </trkpt>
      <trkpt lat="42.481693" lon="8.87296">
        <ele>1117.4</ele>
        <time>2022-09-08T08:15:12Z</time>
      </trkpt>
      <trkpt lat="42.48169" lon="8.872968">
        <ele>1117.4</ele>
        <time>2022-09-08T08:15:14Z</time>
      </trkpt>
      <trkpt lat="42.481657" lon="8.873005">
        <ele>1119.2</ele>
        <time>2022-09-08T08:15:22Z</time>
      </trkpt>
      <trkpt lat="42.481643" lon="8.873042">
        <ele>1120.8</ele>
        <time>2022-09-08T08:15:31Z</time>
      </trkpt>
      <trkpt lat="42.48162" lon="8.873085">
        <ele>1123.4</ele>
        <time>2022-09-08T08:15:43Z</time>
      </trkpt>
      <trkpt lat="42.48162" lon="8.87309">
        <ele>1123.8</ele>
        <time>2022-09-08T08:15:44Z</time>
      </trkpt>
      <trkpt lat="42.481617" lon="8.873103">
        <ele>1126.4</ele>
        <time>2022-09-08T08:15:57Z</time>
      </trkpt>
      <trkpt lat="42.481667" lon="8.873098">
        <ele>1127.2</ele>
        <time>2022-09-08T08:16:04Z</time>
      </trkpt>
      <trkpt lat="42.481727" lon="8.873087">
        <ele>1127.4</ele>
        <time>2022-09-08T08:16:12Z</time>
      </trkpt>
      <trkpt lat="42.481725" lon="8.87311">
        <ele>1129.0</ele>
        <time>2022-09-08T08:16:18Z</time>
      </trkpt>
      <trkpt lat="42.481723" lon="8.873137">
        <ele>1130.4</ele>
        <time>2022-09-08T08:16:25Z</time>
      </trkpt>
      <trkpt lat="42.481738" lon="8.873222">
        <ele>1134.4</ele>
        <time>2022-09-08T08:16:45Z</time>
      </trkpt>
      <trkpt lat="42.481738" lon="8.873227">
        <ele>1134.4</ele>
        <time>2022-09-08T08:16:46Z</time>
      </trkpt>
      <trkpt lat="42.481635" lon="8.873352">
        <ele>1137.6</ele>
        <time>2022-09-08T08:17:02Z</time>
      </trkpt>
      <trkpt lat="42.481565" lon="8.873392">
        <ele>1138.8</ele>
        <time>2022-09-08T08:17:10Z</time>
      </trkpt>
      <trkpt lat="42.481468" lon="8.873418">
        <ele>1139.6</ele>
        <time>2022-09-08T08:17:19Z</time>
      </trkpt>
      <trkpt lat="42.481398" lon="8.873425">
        <ele>1140.0</ele>
        <time>2022-09-08T08:17:24Z</time>
      </trkpt>
      <trkpt lat="42.481342" lon="8.873498">
        <ele>1140.8</ele>
        <time>2022-09-08T08:17:32Z</time>
      </trkpt>
      <trkpt lat="42.481285" lon="8.873593">
        <ele>1141.6</ele>
        <time>2022-09-08T08:17:43Z</time>
      </trkpt>
      <trkpt lat="42.481188" lon="8.873683">
        <ele>1143.6</ele>
        <time>2022-09-08T08:17:57Z</time>
      </trkpt>
      <trkpt lat="42.481135" lon="8.873688">
        <ele>1144.2</ele>
        <time>2022-09-08T08:18:03Z</time>
      </trkpt>
      <trkpt lat="42.481075" lon="8.873672">
        <ele>1144.4</ele>
        <time>2022-09-08T08:18:11Z</time>
      </trkpt>
      <trkpt lat="42.481033" lon="8.873645">
        <ele>1144.6</ele>
        <time>2022-09-08T08:18:16Z</time>
      </trkpt>
      <trkpt lat="42.480997" lon="8.873572">
        <ele>1144.8</ele>
        <time>2022-09-08T08:18:24Z</time>
      </trkpt>
      <trkpt lat="42.480965" lon="8.873547">
        <ele>1145.4</ele>
        <time>2022-09-08T08:18:30Z</time>
      </trkpt>
      <trkpt lat="42.480853" lon="8.87354">
        <ele>1146.8</ele>
        <time>2022-09-08T08:18:44Z</time>
      </trkpt>
      <trkpt lat="42.480762" lon="8.873548">
        <ele>1148.4</ele>
        <time>2022-09-08T08:18:52Z</time>
      </trkpt>
      <trkpt lat="42.480628" lon="8.873587">
        <ele>1151.2</ele>
        <time>2022-09-08T08:19:06Z</time>
      </trkpt>
      <trkpt lat="42.480612" lon="8.87358">
        <ele>1151.4</ele>
        <time>2022-09-08T08:19:08Z</time>
      </trkpt>
      <trkpt lat="42.480487" lon="8.873493">
        <ele>1152.4</ele>
        <time>2022-09-08T08:19:27Z</time>
      </trkpt>
      <trkpt lat="42.480388" lon="8.873467">
        <ele>1155.4</ele>
        <time>2022-09-08T08:19:45Z</time>
      </trkpt>
      <trkpt lat="42.48035" lon="8.873435">
        <ele>1157.2</ele>
        <time>2022-09-08T08:19:55Z</time>
      </trkpt>
      <trkpt lat="42.48032" lon="8.873418">
        <ele>1157.6</ele>
        <time>2022-09-08T08:20:01Z</time>
      </trkpt>
      <trkpt lat="42.480293" lon="8.873397">
        <ele>1158.4</ele>
        <time>2022-09-08T08:20:08Z</time>
      </trkpt>
      <trkpt lat="42.480297" lon="8.873372">
        <ele>1160.0</ele>
        <time>2022-09-08T08:20:22Z</time>
      </trkpt>
      <trkpt lat="42.480248" lon="8.873385">
        <ele>1161.2</ele>
        <time>2022-09-08T08:20:30Z</time>
      </trkpt>
      <trkpt lat="42.48012" lon="8.873467">
        <ele>1164.2</ele>
        <time>2022-09-08T08:20:50Z</time>
      </trkpt>
      <trkpt lat="42.480098" lon="8.873508">
        <ele>1164.6</ele>
        <time>2022-09-08T08:20:57Z</time>
      </trkpt>
      <trkpt lat="42.48009" lon="8.873527">
        <ele>1165.4</ele>
        <time>2022-09-08T08:21:00Z</time>
      </trkpt>
      <trkpt lat="42.48012" lon="8.87357">
        <ele>1167.8</ele>
        <time>2022-09-08T08:21:17Z</time>
      </trkpt>
      <trkpt lat="42.48012" lon="8.873573">
        <ele>1167.8</ele>
        <time>2022-09-08T08:21:18Z</time>
      </trkpt>
      <trkpt lat="42.480115" lon="8.873645">
        <ele>1170.4</ele>
        <time>2022-09-08T08:21:30Z</time>
      </trkpt>
      <trkpt lat="42.480098" lon="8.873743">
        <ele>1171.4</ele>
        <time>2022-09-08T08:21:38Z</time>
      </trkpt>
      <trkpt lat="42.480077" lon="8.873857">
        <ele>1172.8</ele>
        <time>2022-09-08T08:21:47Z</time>
      </trkpt>
      <trkpt lat="42.48007" lon="8.87387">
        <ele>1173.4</ele>
        <time>2022-09-08T08:21:50Z</time>
      </trkpt>
      <trkpt lat="42.480018" lon="8.873882">
        <ele>1176.6</ele>
        <time>2022-09-08T08:22:04Z</time>
      </trkpt>
      <trkpt lat="42.479985" lon="8.873875">
        <ele>1179.8</ele>
        <time>2022-09-08T08:22:21Z</time>
      </trkpt>
      <trkpt lat="42.479982" lon="8.873877">
        <ele>1180.4</ele>
        <time>2022-09-08T08:22:22Z</time>
      </trkpt>
      <trkpt lat="42.480012" lon="8.87389">
        <ele>1181.8</ele>
        <time>2022-09-08T08:22:34Z</time>
      </trkpt>
      <trkpt lat="42.480043" lon="8.87389">
        <ele>1183.6</ele>
        <time>2022-09-08T08:22:48Z</time>
      </trkpt>
      <trkpt lat="42.4802" lon="8.873923">
        <ele>1188.8</ele>
        <time>2022-09-08T08:23:30Z</time>
      </trkpt>
      <trkpt lat="42.480302" lon="8.873988">
        <ele>1189.0</ele>
        <time>2022-09-08T08:24:03Z</time>
      </trkpt>
      <trkpt lat="42.480473" lon="8.874152">
        <ele>1191.4</ele>
        <time>2022-09-08T08:24:21Z</time>
      </trkpt>
      <trkpt lat="42.480528" lon="8.874207">
        <ele>1192.2</ele>
        <time>2022-09-08T08:24:27Z</time>
      </trkpt>
      <trkpt lat="42.480685" lon="8.87432">
        <ele>1194.4</ele>
        <time>2022-09-08T08:24:42Z</time>
      </trkpt>
      <trkpt lat="42.480795" lon="8.874502">
        <ele>1196.0</ele>
        <time>2022-09-08T08:24:55Z</time>
      </trkpt>
      <trkpt lat="42.480837" lon="8.874618">
        <ele>1197.4</ele>
        <time>2022-09-08T08:25:02Z</time>
      </trkpt>
      <trkpt lat="42.480928" lon="8.874665">
        <ele>1199.0</ele>
        <time>2022-09-08T08:25:12Z</time>
      </trkpt>
      <trkpt lat="42.480965" lon="8.874683">
        <ele>1199.2</ele>
        <time>2022-09-08T08:25:16Z</time>
      </trkpt>
      <trkpt lat="42.480995" lon="8.874732">
        <ele>1200.2</ele>
        <time>2022-09-08T08:25:21Z</time>
      </trkpt>
      <trkpt lat="42.480983" lon="8.874775">
        <ele>1201.2</ele>
        <time>2022-09-08T08:25:28Z</time>
      </trkpt>
      <trkpt lat="42.480985" lon="8.87482">
        <ele>1201.8</ele>
        <time>2022-09-08T08:25:52Z</time>
      </trkpt>
      <trkpt lat="42.480978" lon="8.874953">
        <ele>1201.6</ele>
        <time>2022-09-08T08:27:05Z</time>
      </trkpt>
      <trkpt lat="42.480925" lon="8.874862">
        <ele>1201.6</ele>
        <time>2022-09-08T08:28:49Z</time>
      </trkpt>
      <trkpt lat="42.481007" lon="8.874867">
        <ele>1206.0</ele>
        <time>2022-09-08T08:29:26Z</time>
      </trkpt>
      <trkpt lat="42.481265" lon="8.875012">
        <ele>1211.8</ele>
        <time>2022-09-08T08:29:57Z</time>
      </trkpt>
      <trkpt lat="42.48136" lon="8.875042">
        <ele>1214.4</ele>
        <time>2022-09-08T08:30:10Z</time>
      </trkpt>
      <trkpt lat="42.48145" lon="8.875093">
        <ele>1217.0</ele>
        <time>2022-09-08T08:30:24Z</time>
      </trkpt>
      <trkpt lat="42.481537" lon="8.875148">
        <ele>1220.2</ele>
        <time>2022-09-08T08:30:40Z</time>
      </trkpt>
      <trkpt lat="42.481588" lon="8.875172">
        <ele>1221.2</ele>
        <time>2022-09-08T08:30:49Z</time>
      </trkpt>
      <trkpt lat="42.481593" lon="8.875175">
        <ele>1221.6</ele>
        <time>2022-09-08T08:30:50Z</time>
      </trkpt>
      <trkpt lat="42.481632" lon="8.87521">
        <ele>1222.2</ele>
        <time>2022-09-08T08:30:57Z</time>
      </trkpt>
      <trkpt lat="42.481647" lon="8.875338">
        <ele>1227.0</ele>
        <time>2022-09-08T08:31:12Z</time>
      </trkpt>
      <trkpt lat="42.481662" lon="8.875388">
        <ele>1227.6</ele>
        <time>2022-09-08T08:31:18Z</time>
      </trkpt>
      <trkpt lat="42.481668" lon="8.875568">
        <ele>1231.4</ele>
        <time>2022-09-08T08:31:38Z</time>
      </trkpt>
      <trkpt lat="42.481703" lon="8.875648">
        <ele>1233.4</ele>
        <time>2022-09-08T08:31:45Z</time>
      </trkpt>
      <trkpt lat="42.481727" lon="8.875773">
        <ele>1237.6</ele>
        <time>2022-09-08T08:32:23Z</time>
      </trkpt>
      <trkpt lat="42.48172" lon="8.875823">
        <ele>1237.0</ele>
        <time>2022-09-08T08:32:28Z</time>
      </trkpt>
      <trkpt lat="42.481623" lon="8.875923">
        <ele>1236.4</ele>
        <time>2022-09-08T08:32:46Z</time>
      </trkpt>
      <trkpt lat="42.481613" lon="8.87594">
        <ele>1236.0</ele>
        <time>2022-09-08T08:32:48Z</time>
      </trkpt>
      <trkpt lat="42.481545" lon="8.87595">
        <ele>1236.0</ele>
        <time>2022-09-08T08:33:01Z</time>
      </trkpt>
      <trkpt lat="42.481477" lon="8.875942">
        <ele>1237.4</ele>
        <time>2022-09-08T08:34:23Z</time>
      </trkpt>
      <trkpt lat="42.481455" lon="8.875977">
        <ele>1238.2</ele>
        <time>2022-09-08T08:34:27Z</time>
      </trkpt>
      <trkpt lat="42.481412" lon="8.876098">
        <ele>1238.4</ele>
        <time>2022-09-08T08:34:36Z</time>
      </trkpt>
      <trkpt lat="42.4814" lon="8.876147">
        <ele>1237.8</ele>
        <time>2022-09-08T08:34:40Z</time>
      </trkpt>
      <trkpt lat="42.481363" lon="8.876195">
        <ele>1237.4</ele>
        <time>2022-09-08T08:34:45Z</time>
      </trkpt>
      <trkpt lat="42.481302" lon="8.876233">
        <ele>1237.2</ele>
        <time>2022-09-08T08:34:53Z</time>
      </trkpt>
      <trkpt lat="42.481292" lon="8.876228">
        <ele>1237.2</ele>
        <time>2022-09-08T08:34:54Z</time>
      </trkpt>
      <trkpt lat="42.481205" lon="8.876202">
        <ele>1237.6</ele>
        <time>2022-09-08T08:35:17Z</time>
      </trkpt>
      <trkpt lat="42.481162" lon="8.876238">
        <ele>1237.4</ele>
        <time>2022-09-08T08:35:22Z</time>
      </trkpt>
      <trkpt lat="42.4811" lon="8.876253">
        <ele>1235.8</ele>
        <time>2022-09-08T08:35:33Z</time>
      </trkpt>
      <trkpt lat="42.481097" lon="8.87626">
        <ele>1235.8</ele>
        <time>2022-09-08T08:35:35Z</time>
      </trkpt>
      <trkpt lat="42.481078" lon="8.87632">
        <ele>1235.2</ele>
        <time>2022-09-08T08:35:43Z</time>
      </trkpt>
      <trkpt lat="42.481075" lon="8.876328">
        <ele>1235.2</ele>
        <time>2022-09-08T08:35:44Z</time>
      </trkpt>
      <trkpt lat="42.481082" lon="8.876562">
        <ele>1228.6</ele>
        <time>2022-09-08T08:36:22Z</time>
      </trkpt>
      <trkpt lat="42.481073" lon="8.87662">
        <ele>1226.2</ele>
        <time>2022-09-08T08:36:33Z</time>
      </trkpt>
      <trkpt lat="42.481058" lon="8.87666">
        <ele>1224.0</ele>
        <time>2022-09-08T08:36:46Z</time>
      </trkpt>
      <trkpt lat="42.481058" lon="8.876663">
        <ele>1224.0</ele>
        <time>2022-09-08T08:36:47Z</time>
      </trkpt>
      <trkpt lat="42.481057" lon="8.876668">
        <ele>1224.0</ele>
        <time>2022-09-08T08:36:48Z</time>
      </trkpt>
      <trkpt lat="42.480927" lon="8.87679">
        <ele>1223.2</ele>
        <time>2022-09-08T08:37:00Z</time>
      </trkpt>
      <trkpt lat="42.480898" lon="8.876805">
        <ele>1223.0</ele>
        <time>2022-09-08T08:37:02Z</time>
      </trkpt>
      <trkpt lat="42.48077" lon="8.876822">
        <ele>1221.0</ele>
        <time>2022-09-08T08:37:12Z</time>
      </trkpt>
      <trkpt lat="42.480742" lon="8.876838">
        <ele>1221.0</ele>
        <time>2022-09-08T08:37:14Z</time>
      </trkpt>
      <trkpt lat="42.480715" lon="8.876867">
        <ele>1220.4</ele>
        <time>2022-09-08T08:37:18Z</time>
      </trkpt>
      <trkpt lat="42.480653" lon="8.876938">
        <ele>1219.6</ele>
        <time>2022-09-08T08:37:28Z</time>
      </trkpt>
      <trkpt lat="42.480617" lon="8.876942">
        <ele>1219.4</ele>
        <time>2022-09-08T08:37:33Z</time>
      </trkpt>
      <trkpt lat="42.48047" lon="8.876917">
        <ele>1219.4</ele>
        <time>2022-09-08T08:37:58Z</time>
      </trkpt>
      <trkpt lat="42.480393" lon="8.876942">
        <ele>1219.8</ele>
        <time>2022-09-08T08:38:12Z</time>
      </trkpt>
      <trkpt lat="42.480343" lon="8.876937">
        <ele>1219.8</ele>
        <time>2022-09-08T08:38:17Z</time>
      </trkpt>
      <trkpt lat="42.480257" lon="8.877105">
        <ele>1219.4</ele>
        <time>2022-09-08T08:38:32Z</time>
      </trkpt>
      <trkpt lat="42.48025" lon="8.877113">
        <ele>1219.2</ele>
        <time>2022-09-08T08:38:33Z</time>
      </trkpt>
      <trkpt lat="42.480242" lon="8.877173">
        <ele>1219.2</ele>
        <time>2022-09-08T08:38:39Z</time>
      </trkpt>
      <trkpt lat="42.480212" lon="8.877227">
        <ele>1218.4</ele>
        <time>2022-09-08T08:38:44Z</time>
      </trkpt>
      <trkpt lat="42.480145" lon="8.877312">
        <ele>1218.6</ele>
        <time>2022-09-08T08:38:53Z</time>
      </trkpt>
      <trkpt lat="42.480132" lon="8.877338">
        <ele>1218.6</ele>
        <time>2022-09-08T08:38:55Z</time>
      </trkpt>
      <trkpt lat="42.480087" lon="8.87763">
        <ele>1221.4</ele>
        <time>2022-09-08T08:39:19Z</time>
      </trkpt>
      <trkpt lat="42.480082" lon="8.877668">
        <ele>1221.6</ele>
        <time>2022-09-08T08:39:25Z</time>
      </trkpt>
      <trkpt lat="42.480083" lon="8.87768">
        <ele>1221.6</ele>
        <time>2022-09-08T08:39:28Z</time>
      </trkpt>
      <trkpt lat="42.480063" lon="8.877697">
        <ele>1222.0</ele>
        <time>2022-09-08T08:39:34Z</time>
      </trkpt>
      <trkpt lat="42.480027" lon="8.877673">
        <ele>1223.4</ele>
        <time>2022-09-08T08:39:40Z</time>
      </trkpt>
      <trkpt lat="42.479987" lon="8.877605">
        <ele>1225.6</ele>
        <time>2022-09-08T08:39:50Z</time>
      </trkpt>
      <trkpt lat="42.479938" lon="8.877528">
        <ele>1227.2</ele>
        <time>2022-09-08T08:40:02Z</time>
      </trkpt>
      <trkpt lat="42.479908" lon="8.877507">
        <ele>1227.6</ele>
        <time>2022-09-08T08:40:08Z</time>
      </trkpt>
      <trkpt lat="42.479857" lon="8.877398">
        <ele>1230.0</ele>
        <time>2022-09-08T08:40:23Z</time>
      </trkpt>
      <trkpt lat="42.47983" lon="8.87733">
        <ele>1231.2</ele>
        <time>2022-09-08T08:40:32Z</time>
      </trkpt>
      <trkpt lat="42.47983" lon="8.877322">
        <ele>1231.2</ele>
        <time>2022-09-08T08:40:33Z</time>
      </trkpt>
      <trkpt lat="42.479858" lon="8.877278">
        <ele>1233.6</ele>
        <time>2022-09-08T08:40:51Z</time>
      </trkpt>
      <trkpt lat="42.479845" lon="8.877273">
        <ele>1241.8</ele>
        <time>2022-09-08T08:41:45Z</time>
      </trkpt>
      <trkpt lat="42.479802" lon="8.877332">
        <ele>1247.4</ele>
        <time>2022-09-08T08:42:25Z</time>
      </trkpt>
      <trkpt lat="42.479747" lon="8.877405">
        <ele>1252.4</ele>
        <time>2022-09-08T08:43:01Z</time>
      </trkpt>
      <trkpt lat="42.47967" lon="8.877423">
        <ele>1253.4</ele>
        <time>2022-09-08T08:43:09Z</time>
      </trkpt>
      <trkpt lat="42.479592" lon="8.877407">
        <ele>1254.8</ele>
        <time>2022-09-08T08:43:17Z</time>
      </trkpt>
      <trkpt lat="42.47954" lon="8.877435">
        <ele>1255.0</ele>
        <time>2022-09-08T08:43:21Z</time>
      </trkpt>
      <trkpt lat="42.479403" lon="8.877538">
        <ele>1257.4</ele>
        <time>2022-09-08T08:43:34Z</time>
      </trkpt>
      <trkpt lat="42.47932" lon="8.877607">
        <ele>1259.0</ele>
        <time>2022-09-08T08:43:48Z</time>
      </trkpt>
      <trkpt lat="42.479305" lon="8.87762">
        <ele>1259.4</ele>
        <time>2022-09-08T08:43:52Z</time>
      </trkpt>
      <trkpt lat="42.479297" lon="8.877648">
        <ele>1261.0</ele>
        <time>2022-09-08T08:44:03Z</time>
      </trkpt>
      <trkpt lat="42.479123" lon="8.877617">
        <ele>1264.6</ele>
        <time>2022-09-08T08:44:37Z</time>
      </trkpt>
      <trkpt lat="42.478982" lon="8.877618">
        <ele>1267.2</ele>
        <time>2022-09-08T08:45:00Z</time>
      </trkpt>
      <trkpt lat="42.479113" lon="8.877743">
        <ele>1268.0</ele>
        <time>2022-09-08T08:45:07Z</time>
      </trkpt>
      <trkpt lat="42.478657" lon="8.877658">
        <ele>1273.0</ele>
        <time>2022-09-08T08:47:20Z</time>
      </trkpt>
      <trkpt lat="42.478837" lon="8.87764">
        <ele>1273.0</ele>
        <time>2022-09-08T08:47:33Z</time>
      </trkpt>
      <trkpt lat="42.478958" lon="8.877568">
        <ele>1272.0</ele>
        <time>2022-09-08T08:47:43Z</time>
      </trkpt>
      <trkpt lat="42.479033" lon="8.877563">
        <ele>1271.6</ele>
        <time>2022-09-08T08:47:53Z</time>
      </trkpt>
      <trkpt lat="42.478893" lon="8.877628">
        <ele>1271.8</ele>
        <time>2022-09-08T08:48:03Z</time>
      </trkpt>
      <trkpt lat="42.478927" lon="8.87761">
        <ele>1272.2</ele>
        <time>2022-09-08T08:48:13Z</time>
      </trkpt>
      <trkpt lat="42.4789" lon="8.877543">
        <ele>1272.8</ele>
        <time>2022-09-08T08:48:24Z</time>
      </trkpt>
      <trkpt lat="42.478923" lon="8.877607">
        <ele>1272.8</ele>
        <time>2022-09-08T08:48:30Z</time>
      </trkpt>
      <trkpt lat="42.478982" lon="8.877747">
        <ele>1273.0</ele>
        <time>2022-09-08T08:49:07Z</time>
      </trkpt>
      <trkpt lat="42.478983" lon="8.877753">
        <ele>1273.0</ele>
        <time>2022-09-08T08:49:08Z</time>
      </trkpt>
      <trkpt lat="42.478678" lon="8.87788">
        <ele>1277.2</ele>
        <time>2022-09-08T08:55:35Z</time>
      </trkpt>
      <trkpt lat="42.478465" lon="8.877687">
        <ele>1278.6</ele>
        <time>2022-09-08T08:55:58Z</time>
      </trkpt>
      <trkpt lat="42.478173" lon="8.877737">
        <ele>1280.2</ele>
        <time>2022-09-08T08:56:09Z</time>
      </trkpt>
      <trkpt lat="42.47813" lon="8.877782">
        <ele>1280.2</ele>
        <time>2022-09-08T08:56:09Z</time>
      </trkpt>
      <trkpt lat="42.478058" lon="8.877868">
        <ele>1281.4</ele>
        <time>2022-09-08T08:56:15Z</time>
      </trkpt>
      <trkpt lat="42.477975" lon="8.877973">
        <ele>1282.0</ele>
        <time>2022-09-08T08:56:22Z</time>
      </trkpt>
      <trkpt lat="42.477912" lon="8.878093">
        <ele>1282.2</ele>
        <time>2022-09-08T08:56:29Z</time>
      </trkpt>
      <trkpt lat="42.477875" lon="8.87821">
        <ele>1282.6</ele>
        <time>2022-09-08T08:56:36Z</time>
      </trkpt>
      <trkpt lat="42.477807" lon="8.878268">
        <ele>1283.2</ele>
        <time>2022-09-08T08:56:43Z</time>
      </trkpt>
      <trkpt lat="42.477787" lon="8.878282">
        <ele>1283.6</ele>
        <time>2022-09-08T08:56:45Z</time>
      </trkpt>
      <trkpt lat="42.477777" lon="8.878285">
        <ele>1283.8</ele>
        <time>2022-09-08T08:56:46Z</time>
      </trkpt>
      <trkpt lat="42.477742" lon="8.878303">
        <ele>1285.6</ele>
        <time>2022-09-08T08:56:57Z</time>
      </trkpt>
      <trkpt lat="42.477708" lon="8.878268">
        <ele>1286.4</ele>
        <time>2022-09-08T08:57:03Z</time>
      </trkpt>
      <trkpt lat="42.47767" lon="8.878253">
        <ele>1287.2</ele>
        <time>2022-09-08T08:57:09Z</time>
      </trkpt>
      <trkpt lat="42.477653" lon="8.87821">
        <ele>1287.8</ele>
        <time>2022-09-08T08:57:14Z</time>
      </trkpt>
      <trkpt lat="42.477643" lon="8.878173">
        <ele>1288.4</ele>
        <time>2022-09-08T08:57:18Z</time>
      </trkpt>
      <trkpt lat="42.477617" lon="8.878163">
        <ele>1289.4</ele>
        <time>2022-09-08T08:57:23Z</time>
      </trkpt>
      <trkpt lat="42.477587" lon="8.878123">
        <ele>1289.8</ele>
        <time>2022-09-08T08:57:28Z</time>
      </trkpt>
      <trkpt lat="42.477587" lon="8.878112">
        <ele>1289.8</ele>
        <time>2022-09-08T08:57:29Z</time>
      </trkpt>
      <trkpt lat="42.477625" lon="8.878047">
        <ele>1291.8</ele>
        <time>2022-09-08T08:57:44Z</time>
      </trkpt>
      <trkpt lat="42.477655" lon="8.877992">
        <ele>1291.8</ele>
        <time>2022-09-08T08:57:52Z</time>
      </trkpt>
      <trkpt lat="42.477662" lon="8.877903">
        <ele>1293.2</ele>
        <time>2022-09-08T08:58:05Z</time>
      </trkpt>
      <trkpt lat="42.477645" lon="8.877862">
        <ele>1296.0</ele>
        <time>2022-09-08T08:58:19Z</time>
      </trkpt>
      <trkpt lat="42.477643" lon="8.877862">
        <ele>1296.0</ele>
        <time>2022-09-08T08:58:20Z</time>
      </trkpt>
      <trkpt lat="42.477663" lon="8.877837">
        <ele>1296.6</ele>
        <time>2022-09-08T08:58:27Z</time>
      </trkpt>
      <trkpt lat="42.477663" lon="8.877822">
        <ele>1298.2</ele>
        <time>2022-09-08T08:58:32Z</time>
      </trkpt>
      <trkpt lat="42.477582" lon="8.877928">
        <ele>1302.0</ele>
        <time>2022-09-08T08:58:58Z</time>
      </trkpt>
      <trkpt lat="42.477557" lon="8.878123">
        <ele>1304.4</ele>
        <time>2022-09-08T08:59:20Z</time>
      </trkpt>
      <trkpt lat="42.477553" lon="8.878132">
        <ele>1304.4</ele>
        <time>2022-09-08T08:59:21Z</time>
      </trkpt>
      <trkpt lat="42.477547" lon="8.878192">
        <ele>1303.8</ele>
        <time>2022-09-08T08:59:27Z</time>
      </trkpt>
      <trkpt lat="42.477542" lon="8.878238">
        <ele>1303.0</ele>
        <time>2022-09-08T08:59:31Z</time>
      </trkpt>
      <trkpt lat="42.477468" lon="8.87838">
        <ele>1301.6</ele>
        <time>2022-09-08T08:59:48Z</time>
      </trkpt>
      <trkpt lat="42.477463" lon="8.878295">
        <ele>1301.4</ele>
        <time>2022-09-08T09:00:09Z</time>
      </trkpt>
      <trkpt lat="42.477462" lon="8.878292">
        <ele>1301.6</ele>
        <time>2022-09-08T09:00:10Z</time>
      </trkpt>
      <trkpt lat="42.477457" lon="8.878282">
        <ele>1301.8</ele>
        <time>2022-09-08T09:00:14Z</time>
      </trkpt>
      <trkpt lat="42.477502" lon="8.878213">
        <ele>1303.4</ele>
        <time>2022-09-08T09:00:21Z</time>
      </trkpt>
      <trkpt lat="42.477497" lon="8.87812">
        <ele>1305.0</ele>
        <time>2022-09-08T09:00:32Z</time>
      </trkpt>
      <trkpt lat="42.477517" lon="8.878093">
        <ele>1305.4</ele>
        <time>2022-09-08T09:00:36Z</time>
      </trkpt>
      <trkpt lat="42.477552" lon="8.878063">
        <ele>1306.2</ele>
        <time>2022-09-08T09:00:41Z</time>
      </trkpt>
      <trkpt lat="42.477508" lon="8.878045">
        <ele>1306.8</ele>
        <time>2022-09-08T09:00:47Z</time>
      </trkpt>
      <trkpt lat="42.477462" lon="8.87807">
        <ele>1307.4</ele>
        <time>2022-09-08T09:00:56Z</time>
      </trkpt>
      <trkpt lat="42.477362" lon="8.878103">
        <ele>1311.0</ele>
        <time>2022-09-08T09:01:27Z</time>
      </trkpt>
      <trkpt lat="42.477322" lon="8.878317">
        <ele>1311.8</ele>
        <time>2022-09-08T09:01:43Z</time>
      </trkpt>
      <trkpt lat="42.477287" lon="8.878352">
        <ele>1311.8</ele>
        <time>2022-09-08T09:01:49Z</time>
      </trkpt>
      <trkpt lat="42.477272" lon="8.87838">
        <ele>1311.8</ele>
        <time>2022-09-08T09:01:51Z</time>
      </trkpt>
      <trkpt lat="42.477237" lon="8.878378">
        <ele>1312.8</ele>
        <time>2022-09-08T09:01:56Z</time>
      </trkpt>
      <trkpt lat="42.477193" lon="8.878358">
        <ele>1314.0</ele>
        <time>2022-09-08T09:02:05Z</time>
      </trkpt>
      <trkpt lat="42.47716" lon="8.878377">
        <ele>1315.4</ele>
        <time>2022-09-08T09:02:13Z</time>
      </trkpt>
      <trkpt lat="42.477133" lon="8.878405">
        <ele>1315.8</ele>
        <time>2022-09-08T09:02:20Z</time>
      </trkpt>
      <trkpt lat="42.477108" lon="8.878473">
        <ele>1317.0</ele>
        <time>2022-09-08T09:02:34Z</time>
      </trkpt>
      <trkpt lat="42.477098" lon="8.878497">
        <ele>1317.8</ele>
        <time>2022-09-08T09:02:41Z</time>
      </trkpt>
      <trkpt lat="42.476817" lon="8.878708">
        <ele>1329.4</ele>
        <time>2022-09-08T09:04:36Z</time>
      </trkpt>
      <trkpt lat="42.476785" lon="8.878697">
        <ele>1330.2</ele>
        <time>2022-09-08T09:04:40Z</time>
      </trkpt>
      <trkpt lat="42.476708" lon="8.87867">
        <ele>1330.6</ele>
        <time>2022-09-08T09:04:46Z</time>
      </trkpt>
      <trkpt lat="42.476687" lon="8.878638">
        <ele>1330.6</ele>
        <time>2022-09-08T09:04:48Z</time>
      </trkpt>
      <trkpt lat="42.47665" lon="8.878553">
        <ele>1331.8</ele>
        <time>2022-09-08T09:04:54Z</time>
      </trkpt>
      <trkpt lat="42.47665" lon="8.8785">
        <ele>1332.6</ele>
        <time>2022-09-08T09:04:58Z</time>
      </trkpt>
      <trkpt lat="42.47667" lon="8.87846">
        <ele>1333.8</ele>
        <time>2022-09-08T09:05:02Z</time>
      </trkpt>
      <trkpt lat="42.4767" lon="8.878435">
        <ele>1334.2</ele>
        <time>2022-09-08T09:05:06Z</time>
      </trkpt>
      <trkpt lat="42.476702" lon="8.878405">
        <ele>1336.2</ele>
        <time>2022-09-08T09:05:25Z</time>
      </trkpt>
      <trkpt lat="42.4766" lon="8.878375">
        <ele>1349.0</ele>
        <time>2022-09-08T09:07:03Z</time>
      </trkpt>
      <trkpt lat="42.47676" lon="8.878557">
        <ele>1355.6</ele>
        <time>2022-09-08T09:07:52Z</time>
      </trkpt>
      <trkpt lat="42.476627" lon="8.878622">
        <ele>1369.0</ele>
        <time>2022-09-08T09:10:09Z</time>
      </trkpt>
      <trkpt lat="42.476555" lon="8.878663">
        <ele>1370.0</ele>
        <time>2022-09-08T09:10:16Z</time>
      </trkpt>
      <trkpt lat="42.47647" lon="8.878745">
        <ele>1370.8</ele>
        <time>2022-09-08T09:10:24Z</time>
      </trkpt>
      <trkpt lat="42.47641" lon="8.878842">
        <ele>1371.6</ele>
        <time>2022-09-08T09:10:32Z</time>
      </trkpt>
      <trkpt lat="42.476368" lon="8.878878">
        <ele>1371.6</ele>
        <time>2022-09-08T09:10:38Z</time>
      </trkpt>
      <trkpt lat="42.476325" lon="8.878897">
        <ele>1371.6</ele>
        <time>2022-09-08T09:10:43Z</time>
      </trkpt>
      <trkpt lat="42.476282" lon="8.878872">
        <ele>1371.8</ele>
        <time>2022-09-08T09:10:49Z</time>
      </trkpt>
      <trkpt lat="42.476255" lon="8.87888">
        <ele>1372.8</ele>
        <time>2022-09-08T09:10:55Z</time>
      </trkpt>
      <trkpt lat="42.476222" lon="8.878908">
        <ele>1374.6</ele>
        <time>2022-09-08T09:11:07Z</time>
      </trkpt>
      <trkpt lat="42.47618" lon="8.879063">
        <ele>1378.2</ele>
        <time>2022-09-08T09:11:34Z</time>
      </trkpt>
      <trkpt lat="42.476177" lon="8.879177">
        <ele>1379.2</ele>
        <time>2022-09-08T09:11:44Z</time>
      </trkpt>
      <trkpt lat="42.476167" lon="8.879273">
        <ele>1379.8</ele>
        <time>2022-09-08T09:11:52Z</time>
      </trkpt>
      <trkpt lat="42.476153" lon="8.87934">
        <ele>1380.4</ele>
        <time>2022-09-08T09:11:57Z</time>
      </trkpt>
      <trkpt lat="42.476058" lon="8.879378">
        <ele>1381.6</ele>
        <time>2022-09-08T09:12:10Z</time>
      </trkpt>
      <trkpt lat="42.475993" lon="8.879395">
        <ele>1381.4</ele>
        <time>2022-09-08T09:12:19Z</time>
      </trkpt>
      <trkpt lat="42.475953" lon="8.879445">
        <ele>1380.2</ele>
        <time>2022-09-08T09:12:25Z</time>
      </trkpt>
      <trkpt lat="42.47587" lon="8.879587">
        <ele>1377.6</ele>
        <time>2022-09-08T09:12:38Z</time>
      </trkpt>
      <trkpt lat="42.475882" lon="8.87961">
        <ele>1377.4</ele>
        <time>2022-09-08T09:12:40Z</time>
      </trkpt>
      <trkpt lat="42.475943" lon="8.87959">
        <ele>1375.8</ele>
        <time>2022-09-08T09:12:50Z</time>
      </trkpt>
      <trkpt lat="42.475967" lon="8.879565">
        <ele>1375.6</ele>
        <time>2022-09-08T09:12:54Z</time>
      </trkpt>
      <trkpt lat="42.476025" lon="8.87956">
        <ele>1373.8</ele>
        <time>2022-09-08T09:13:05Z</time>
      </trkpt>
      <trkpt lat="42.476057" lon="8.879625">
        <ele>1371.8</ele>
        <time>2022-09-08T09:13:18Z</time>
      </trkpt>
      <trkpt lat="42.476058" lon="8.879633">
        <ele>1371.4</ele>
        <time>2022-09-08T09:13:19Z</time>
      </trkpt>
      <trkpt lat="42.47604" lon="8.879678">
        <ele>1370.4</ele>
        <time>2022-09-08T09:13:24Z</time>
      </trkpt>
      <trkpt lat="42.475963" lon="8.879788">
        <ele>1370.2</ele>
        <time>2022-09-08T09:13:48Z</time>
      </trkpt>
      <trkpt lat="42.47597" lon="8.879763">
        <ele>1370.4</ele>
        <time>2022-09-08T09:13:51Z</time>
      </trkpt>
      <trkpt lat="42.475922" lon="8.879742">
        <ele>1371.4</ele>
        <time>2022-09-08T09:13:57Z</time>
      </trkpt>
      <trkpt lat="42.475902" lon="8.879768">
        <ele>1371.8</ele>
        <time>2022-09-08T09:14:00Z</time>
      </trkpt>
      <trkpt lat="42.475873" lon="8.879905">
        <ele>1373.4</ele>
        <time>2022-09-08T09:14:11Z</time>
      </trkpt>
      <trkpt lat="42.475817" lon="8.879935">
        <ele>1374.8</ele>
        <time>2022-09-08T09:14:19Z</time>
      </trkpt>
      <trkpt lat="42.475782" lon="8.880002">
        <ele>1376.2</ele>
        <time>2022-09-08T09:14:27Z</time>
      </trkpt>
      <trkpt lat="42.47573" lon="8.879998">
        <ele>1378.0</ele>
        <time>2022-09-08T09:14:40Z</time>
      </trkpt>
      <trkpt lat="42.475723" lon="8.879995">
        <ele>1378.4</ele>
        <time>2022-09-08T09:14:41Z</time>
      </trkpt>
      <trkpt lat="42.475703" lon="8.879918">
        <ele>1379.8</ele>
        <time>2022-09-08T09:14:46Z</time>
      </trkpt>
      <trkpt lat="42.475612" lon="8.879813">
        <ele>1381.8</ele>
        <time>2022-09-08T09:15:06Z</time>
      </trkpt>
      <trkpt lat="42.4756" lon="8.879815">
        <ele>1381.8</ele>
        <time>2022-09-08T09:15:08Z</time>
      </trkpt>
      <trkpt lat="42.47555" lon="8.87989">
        <ele>1383.2</ele>
        <time>2022-09-08T09:15:17Z</time>
      </trkpt>
      <trkpt lat="42.475515" lon="8.879928">
        <ele>1384.4</ele>
        <time>2022-09-08T09:15:24Z</time>
      </trkpt>
      <trkpt lat="42.475485" lon="8.879905">
        <ele>1386.2</ele>
        <time>2022-09-08T09:15:39Z</time>
      </trkpt>
      <trkpt lat="42.47546" lon="8.879895">
        <ele>1387.4</ele>
        <time>2022-09-08T09:15:46Z</time>
      </trkpt>
      <trkpt lat="42.475423" lon="8.879918">
        <ele>1388.4</ele>
        <time>2022-09-08T09:15:54Z</time>
      </trkpt>
      <trkpt lat="42.475395" lon="8.879957">
        <ele>1389.0</ele>
        <time>2022-09-08T09:16:04Z</time>
      </trkpt>
      <trkpt lat="42.475377" lon="8.879985">
        <ele>1389.0</ele>
        <time>2022-09-08T09:16:13Z</time>
      </trkpt>
      <trkpt lat="42.475357" lon="8.879992">
        <ele>1389.6</ele>
        <time>2022-09-08T09:16:19Z</time>
      </trkpt>
      <trkpt lat="42.475335" lon="8.880022">
        <ele>1391.0</ele>
        <time>2022-09-08T09:16:32Z</time>
      </trkpt>
      <trkpt lat="42.475053" lon="8.880043">
        <ele>1399.2</ele>
        <time>2022-09-08T09:18:21Z</time>
      </trkpt>
      <trkpt lat="42.47507" lon="8.879995">
        <ele>1400.2</ele>
        <time>2022-09-08T09:18:32Z</time>
      </trkpt>
      <trkpt lat="42.475113" lon="8.87991">
        <ele>1402.0</ele>
        <time>2022-09-08T09:18:43Z</time>
      </trkpt>
      <trkpt lat="42.47515" lon="8.879885">
        <ele>1402.8</ele>
        <time>2022-09-08T09:18:49Z</time>
      </trkpt>
      <trkpt lat="42.475092" lon="8.879842">
        <ele>1404.4</ele>
        <time>2022-09-08T09:19:00Z</time>
      </trkpt>
      <trkpt lat="42.475077" lon="8.879875">
        <ele>1405.4</ele>
        <time>2022-09-08T09:19:14Z</time>
      </trkpt>
      <trkpt lat="42.475048" lon="8.87985">
        <ele>1407.4</ele>
        <time>2022-09-08T09:19:27Z</time>
      </trkpt>
      <trkpt lat="42.475042" lon="8.879835">
        <ele>1407.8</ele>
        <time>2022-09-08T09:19:30Z</time>
      </trkpt>
      <trkpt lat="42.475075" lon="8.879772">
        <ele>1412.2</ele>
        <time>2022-09-08T09:20:06Z</time>
      </trkpt>
      <trkpt lat="42.47508" lon="8.879772">
        <ele>1412.6</ele>
        <time>2022-09-08T09:20:09Z</time>
      </trkpt>
      <trkpt lat="42.475077" lon="8.879753">
        <ele>1413.4</ele>
        <time>2022-09-08T09:20:19Z</time>
      </trkpt>
      <trkpt lat="42.475065" lon="8.879775">
        <ele>1414.6</ele>
        <time>2022-09-08T09:20:27Z</time>
      </trkpt>
      <trkpt lat="42.47506" lon="8.879823">
        <ele>1415.6</ele>
        <time>2022-09-08T09:20:34Z</time>
      </trkpt>
      <trkpt lat="42.47506" lon="8.87986">
        <ele>1416.0</ele>
        <time>2022-09-08T09:20:41Z</time>
      </trkpt>
      <trkpt lat="42.475062" lon="8.879878">
        <ele>1416.6</ele>
        <time>2022-09-08T09:20:46Z</time>
      </trkpt>
      <trkpt lat="42.47495" lon="8.880345">
        <ele>1420.0</ele>
        <time>2022-09-08T09:24:10Z</time>
      </trkpt>
      <trkpt lat="42.47495" lon="8.880453">
        <ele>1419.2</ele>
        <time>2022-09-08T09:24:20Z</time>
      </trkpt>
      <trkpt lat="42.47508" lon="8.880542">
        <ele>1418.0</ele>
        <time>2022-09-08T09:24:30Z</time>
      </trkpt>
      <trkpt lat="42.475018" lon="8.880653">
        <ele>1417.2</ele>
        <time>2022-09-08T09:24:40Z</time>
      </trkpt>
      <trkpt lat="42.474997" lon="8.880747">
        <ele>1416.4</ele>
        <time>2022-09-08T09:24:44Z</time>
      </trkpt>
      <trkpt lat="42.474982" lon="8.880787">
        <ele>1415.8</ele>
        <time>2022-09-08T09:24:48Z</time>
      </trkpt>
      <trkpt lat="42.474952" lon="8.88084">
        <ele>1415.4</ele>
        <time>2022-09-08T09:24:54Z</time>
      </trkpt>
      <trkpt lat="42.474915" lon="8.88093">
        <ele>1416.0</ele>
        <time>2022-09-08T09:25:04Z</time>
      </trkpt>
      <trkpt lat="42.474877" lon="8.880955">
        <ele>1418.0</ele>
        <time>2022-09-08T09:25:18Z</time>
      </trkpt>
      <trkpt lat="42.474802" lon="8.881007">
        <ele>1422.0</ele>
        <time>2022-09-08T09:25:45Z</time>
      </trkpt>
      <trkpt lat="42.474802" lon="8.881008">
        <ele>1422.0</ele>
        <time>2022-09-08T09:25:46Z</time>
      </trkpt>
      <trkpt lat="42.47482" lon="8.881033">
        <ele>1423.8</ele>
        <time>2022-09-08T09:26:03Z</time>
      </trkpt>
      <trkpt lat="42.474832" lon="8.88107">
        <ele>1425.2</ele>
        <time>2022-09-08T09:26:17Z</time>
      </trkpt>
      <trkpt lat="42.474932" lon="8.881238">
        <ele>1430.8</ele>
        <time>2022-09-08T09:27:34Z</time>
      </trkpt>
      <trkpt lat="42.474915" lon="8.881262">
        <ele>1433.8</ele>
        <time>2022-09-08T09:27:55Z</time>
      </trkpt>
      <trkpt lat="42.474855" lon="8.881517">
        <ele>1441.2</ele>
        <time>2022-09-08T09:29:03Z</time>
      </trkpt>
      <trkpt lat="42.474847" lon="8.881572">
        <ele>1440.8</ele>
        <time>2022-09-08T09:29:05Z</time>
      </trkpt>
      <trkpt lat="42.47487" lon="8.881703">
        <ele>1440.4</ele>
        <time>2022-09-08T09:29:10Z</time>
      </trkpt>
      <trkpt lat="42.474862" lon="8.881808">
        <ele>1440.2</ele>
        <time>2022-09-08T09:29:14Z</time>
      </trkpt>
      <trkpt lat="42.47484" lon="8.881902">
        <ele>1439.8</ele>
        <time>2022-09-08T09:29:18Z</time>
      </trkpt>
      <trkpt lat="42.474795" lon="8.882052">
        <ele>1439.4</ele>
        <time>2022-09-08T09:29:25Z</time>
      </trkpt>
      <trkpt lat="42.474752" lon="8.882117">
        <ele>1439.4</ele>
        <time>2022-09-08T09:29:30Z</time>
      </trkpt>
      <trkpt lat="42.474732" lon="8.882187">
        <ele>1439.4</ele>
        <time>2022-09-08T09:29:35Z</time>
      </trkpt>
      <trkpt lat="42.474732" lon="8.882202">
        <ele>1439.4</ele>
        <time>2022-09-08T09:29:36Z</time>
      </trkpt>
      <trkpt lat="42.4747" lon="8.882295">
        <ele>1439.4</ele>
        <time>2022-09-08T09:29:50Z</time>
      </trkpt>
      <trkpt lat="42.474673" lon="8.882337">
        <ele>1438.8</ele>
        <time>2022-09-08T09:29:58Z</time>
      </trkpt>
      <trkpt lat="42.474657" lon="8.882392">
        <ele>1441.0</ele>
        <time>2022-09-08T09:30:27Z</time>
      </trkpt>
      <trkpt lat="42.474637" lon="8.882457">
        <ele>1441.8</ele>
        <time>2022-09-08T09:30:32Z</time>
      </trkpt>
      <trkpt lat="42.474622" lon="8.882498">
        <ele>1441.8</ele>
        <time>2022-09-08T09:30:35Z</time>
      </trkpt>
      <trkpt lat="42.474572" lon="8.882538">
        <ele>1442.0</ele>
        <time>2022-09-08T09:30:43Z</time>
      </trkpt>
      <trkpt lat="42.474547" lon="8.882515">
        <ele>1442.2</ele>
        <time>2022-09-08T09:30:51Z</time>
      </trkpt>
      <trkpt lat="42.474568" lon="8.88259">
        <ele>1442.0</ele>
        <time>2022-09-08T09:31:25Z</time>
      </trkpt>
      <trkpt lat="42.474552" lon="8.882657">
        <ele>1442.0</ele>
        <time>2022-09-08T09:31:50Z</time>
      </trkpt>
      <trkpt lat="42.474548" lon="8.882677">
        <ele>1442.2</ele>
        <time>2022-09-08T09:31:51Z</time>
      </trkpt>
      <trkpt lat="42.474575" lon="8.882877">
        <ele>1443.8</ele>
        <time>2022-09-08T09:32:01Z</time>
      </trkpt>
      <trkpt lat="42.474575" lon="8.882902">
        <ele>1444.0</ele>
        <time>2022-09-08T09:32:02Z</time>
      </trkpt>
      <trkpt lat="42.474572" lon="8.883037">
        <ele>1444.6</ele>
        <time>2022-09-08T09:32:09Z</time>
      </trkpt>
      <trkpt lat="42.474582" lon="8.883207">
        <ele>1445.0</ele>
        <time>2022-09-08T09:32:20Z</time>
      </trkpt>
      <trkpt lat="42.474598" lon="8.88328">
        <ele>1445.0</ele>
        <time>2022-09-08T09:32:26Z</time>
      </trkpt>
      <trkpt lat="42.474597" lon="8.883332">
        <ele>1444.6</ele>
        <time>2022-09-08T09:32:31Z</time>
      </trkpt>
      <trkpt lat="42.474582" lon="8.88338">
        <ele>1444.4</ele>
        <time>2022-09-08T09:32:35Z</time>
      </trkpt>
      <trkpt lat="42.474508" lon="8.883393">
        <ele>1444.4</ele>
        <time>2022-09-08T09:32:43Z</time>
      </trkpt>
      <trkpt lat="42.474457" lon="8.883445">
        <ele>1444.8</ele>
        <time>2022-09-08T09:32:51Z</time>
      </trkpt>
      <trkpt lat="42.474417" lon="8.883462">
        <ele>1445.4</ele>
        <time>2022-09-08T09:32:56Z</time>
      </trkpt>
      <trkpt lat="42.474332" lon="8.883458">
        <ele>1447.4</ele>
        <time>2022-09-08T09:33:16Z</time>
      </trkpt>
      <trkpt lat="42.474335" lon="8.88347">
        <ele>1447.4</ele>
        <time>2022-09-08T09:33:18Z</time>
      </trkpt>
      <trkpt lat="42.47438" lon="8.883525">
        <ele>1448.8</ele>
        <time>2022-09-08T09:33:28Z</time>
      </trkpt>
      <trkpt lat="42.4744" lon="8.883582">
        <ele>1449.4</ele>
        <time>2022-09-08T09:33:37Z</time>
      </trkpt>
      <trkpt lat="42.474398" lon="8.883585">
        <ele>1449.8</ele>
        <time>2022-09-08T09:33:38Z</time>
      </trkpt>
      <trkpt lat="42.474342" lon="8.883687">
        <ele>1449.8</ele>
        <time>2022-09-08T09:33:51Z</time>
      </trkpt>
      <trkpt lat="42.47433" lon="8.883748">
        <ele>1450.4</ele>
        <time>2022-09-08T09:33:56Z</time>
      </trkpt>
      <trkpt lat="42.474328" lon="8.883873">
        <ele>1451.4</ele>
        <time>2022-09-08T09:34:06Z</time>
      </trkpt>
      <trkpt lat="42.474312" lon="8.883938">
        <ele>1451.4</ele>
        <time>2022-09-08T09:34:12Z</time>
      </trkpt>
      <trkpt lat="42.474298" lon="8.883982">
        <ele>1451.2</ele>
        <time>2022-09-08T09:34:16Z</time>
      </trkpt>
      <trkpt lat="42.47428" lon="8.884052">
        <ele>1450.4</ele>
        <time>2022-09-08T09:34:23Z</time>
      </trkpt>
      <trkpt lat="42.474262" lon="8.884128">
        <ele>1451.2</ele>
        <time>2022-09-08T09:34:33Z</time>
      </trkpt>
      <trkpt lat="42.474275" lon="8.884177">
        <ele>1452.0</ele>
        <time>2022-09-08T09:34:43Z</time>
      </trkpt>
      <trkpt lat="42.474295" lon="8.884267">
        <ele>1451.8</ele>
        <time>2022-09-08T09:34:55Z</time>
      </trkpt>
      <trkpt lat="42.474298" lon="8.884275">
        <ele>1451.8</ele>
        <time>2022-09-08T09:34:56Z</time>
      </trkpt>
      <trkpt lat="42.47421" lon="8.884408">
        <ele>1450.8</ele>
        <time>2022-09-08T09:35:19Z</time>
      </trkpt>
      <trkpt lat="42.47418" lon="8.884438">
        <ele>1450.6</ele>
        <time>2022-09-08T09:35:25Z</time>
      </trkpt>
      <trkpt lat="42.474143" lon="8.884495">
        <ele>1451.6</ele>
        <time>2022-09-08T09:35:33Z</time>
      </trkpt>
      <trkpt lat="42.474133" lon="8.884525">
        <ele>1451.8</ele>
        <time>2022-09-08T09:35:36Z</time>
      </trkpt>
      <trkpt lat="42.474058" lon="8.884573">
        <ele>1452.0</ele>
        <time>2022-09-08T09:35:44Z</time>
      </trkpt>
      <trkpt lat="42.473992" lon="8.884585">
        <ele>1451.6</ele>
        <time>2022-09-08T09:35:52Z</time>
      </trkpt>
      <trkpt lat="42.473922" lon="8.884602">
        <ele>1451.2</ele>
        <time>2022-09-08T09:35:59Z</time>
      </trkpt>
      <trkpt lat="42.473833" lon="8.884683">
        <ele>1451.6</ele>
        <time>2022-09-08T09:36:09Z</time>
      </trkpt>
      <trkpt lat="42.473783" lon="8.884755">
        <ele>1451.4</ele>
        <time>2022-09-08T09:36:16Z</time>
      </trkpt>
      <trkpt lat="42.473713" lon="8.884822">
        <ele>1450.4</ele>
        <time>2022-09-08T09:36:24Z</time>
      </trkpt>
      <trkpt lat="42.473725" lon="8.884918">
        <ele>1449.6</ele>
        <time>2022-09-08T09:36:33Z</time>
      </trkpt>
      <trkpt lat="42.473783" lon="8.885035">
        <ele>1448.8</ele>
        <time>2022-09-08T09:36:43Z</time>
      </trkpt>
      <trkpt lat="42.47391" lon="8.885188">
        <ele>1446.6</ele>
        <time>2022-09-08T09:36:59Z</time>
      </trkpt>
      <trkpt lat="42.47403" lon="8.885252">
        <ele>1444.8</ele>
        <time>2022-09-08T09:37:10Z</time>
      </trkpt>
      <trkpt lat="42.47404" lon="8.885255">
        <ele>1444.8</ele>
        <time>2022-09-08T09:37:11Z</time>
      </trkpt>
      <trkpt lat="42.474178" lon="8.885197">
        <ele>1441.2</ele>
        <time>2022-09-08T09:37:43Z</time>
      </trkpt>
      <trkpt lat="42.47421" lon="8.885487">
        <ele>1436.6</ele>
        <time>2022-09-08T09:38:34Z</time>
      </trkpt>
      <trkpt lat="42.474268" lon="8.886028">
        <ele>1435.8</ele>
        <time>2022-09-08T09:38:45Z</time>
      </trkpt>
      <trkpt lat="42.474252" lon="8.886087">
        <ele>1435.8</ele>
        <time>2022-09-08T09:38:48Z</time>
      </trkpt>
      <trkpt lat="42.474243" lon="8.886157">
        <ele>1435.8</ele>
        <time>2022-09-08T09:38:51Z</time>
      </trkpt>
      <trkpt lat="42.474243" lon="8.886232">
        <ele>1436.0</ele>
        <time>2022-09-08T09:38:54Z</time>
      </trkpt>
      <trkpt lat="42.474178" lon="8.886353">
        <ele>1435.6</ele>
        <time>2022-09-08T09:39:02Z</time>
      </trkpt>
      <trkpt lat="42.4741" lon="8.88644">
        <ele>1435.4</ele>
        <time>2022-09-08T09:39:08Z</time>
      </trkpt>
      <trkpt lat="42.474057" lon="8.88655">
        <ele>1435.4</ele>
        <time>2022-09-08T09:39:14Z</time>
      </trkpt>
      <trkpt lat="42.474052" lon="8.88659">
        <ele>1435.4</ele>
        <time>2022-09-08T09:39:16Z</time>
      </trkpt>
      <trkpt lat="42.474077" lon="8.886635">
        <ele>1434.6</ele>
        <time>2022-09-08T09:39:20Z</time>
      </trkpt>
      <trkpt lat="42.474128" lon="8.886613">
        <ele>1434.4</ele>
        <time>2022-09-08T09:39:24Z</time>
      </trkpt>
      <trkpt lat="42.474187" lon="8.886615">
        <ele>1433.8</ele>
        <time>2022-09-08T09:39:29Z</time>
      </trkpt>
      <trkpt lat="42.474208" lon="8.886618">
        <ele>1433.2</ele>
        <time>2022-09-08T09:39:31Z</time>
      </trkpt>
      <trkpt lat="42.474183" lon="8.886685">
        <ele>1432.6</ele>
        <time>2022-09-08T09:39:37Z</time>
      </trkpt>
      <trkpt lat="42.474208" lon="8.886745">
        <ele>1432.2</ele>
        <time>2022-09-08T09:39:42Z</time>
      </trkpt>
      <trkpt lat="42.474233" lon="8.886773">
        <ele>1432.0</ele>
        <time>2022-09-08T09:39:45Z</time>
      </trkpt>
      <trkpt lat="42.474297" lon="8.886812">
        <ele>1431.2</ele>
        <time>2022-09-08T09:39:51Z</time>
      </trkpt>
      <trkpt lat="42.474308" lon="8.886813">
        <ele>1431.2</ele>
        <time>2022-09-08T09:39:52Z</time>
      </trkpt>
      <trkpt lat="42.474368" lon="8.886807">
        <ele>1430.2</ele>
        <time>2022-09-08T09:40:03Z</time>
      </trkpt>
      <trkpt lat="42.474382" lon="8.886858">
        <ele>1428.0</ele>
        <time>2022-09-08T09:40:16Z</time>
      </trkpt>
      <trkpt lat="42.474388" lon="8.886915">
        <ele>1427.8</ele>
        <time>2022-09-08T09:40:21Z</time>
      </trkpt>
      <trkpt lat="42.474393" lon="8.886927">
        <ele>1427.6</ele>
        <time>2022-09-08T09:40:22Z</time>
      </trkpt>
      <trkpt lat="42.47434" lon="8.886975">
        <ele>1426.2</ele>
        <time>2022-09-08T09:40:35Z</time>
      </trkpt>
      <trkpt lat="42.474333" lon="8.887">
        <ele>1425.6</ele>
        <time>2022-09-08T09:40:41Z</time>
      </trkpt>
      <trkpt lat="42.474272" lon="8.887088">
        <ele>1423.6</ele>
        <time>2022-09-08T09:40:56Z</time>
      </trkpt>
      <trkpt lat="42.474248" lon="8.887127">
        <ele>1423.2</ele>
        <time>2022-09-08T09:41:03Z</time>
      </trkpt>
      <trkpt lat="42.474145" lon="8.887192">
        <ele>1423.6</ele>
        <time>2022-09-08T09:41:15Z</time>
      </trkpt>
      <trkpt lat="42.474093" lon="8.887295">
        <ele>1424.4</ele>
        <time>2022-09-08T09:41:27Z</time>
      </trkpt>
      <trkpt lat="42.474005" lon="8.88735">
        <ele>1424.4</ele>
        <time>2022-09-08T09:41:38Z</time>
      </trkpt>
      <trkpt lat="42.474005" lon="8.88736">
        <ele>1424.4</ele>
        <time>2022-09-08T09:41:39Z</time>
      </trkpt>
      <trkpt lat="42.474002" lon="8.887425">
        <ele>1425.0</ele>
        <time>2022-09-08T09:41:45Z</time>
      </trkpt>
      <trkpt lat="42.47399" lon="8.887565">
        <ele>1425.0</ele>
        <time>2022-09-08T09:41:58Z</time>
      </trkpt>
      <trkpt lat="42.473988" lon="8.887603">
        <ele>1425.2</ele>
        <time>2022-09-08T09:42:02Z</time>
      </trkpt>
      <trkpt lat="42.473965" lon="8.887762">
        <ele>1425.8</ele>
        <time>2022-09-08T09:42:26Z</time>
      </trkpt>
      <trkpt lat="42.47397" lon="8.887758">
        <ele>1426.0</ele>
        <time>2022-09-08T09:42:28Z</time>
      </trkpt>
      <trkpt lat="42.473962" lon="8.887705">
        <ele>1426.2</ele>
        <time>2022-09-08T09:42:35Z</time>
      </trkpt>
      <trkpt lat="42.473993" lon="8.88767">
        <ele>1426.2</ele>
        <time>2022-09-08T09:42:42Z</time>
      </trkpt>
      <trkpt lat="42.47402" lon="8.887663">
        <ele>1425.4</ele>
        <time>2022-09-08T09:42:47Z</time>
      </trkpt>
      <trkpt lat="42.474052" lon="8.88768">
        <ele>1424.0</ele>
        <time>2022-09-08T09:42:54Z</time>
      </trkpt>
      <trkpt lat="42.474073" lon="8.887732">
        <ele>1422.0</ele>
        <time>2022-09-08T09:43:04Z</time>
      </trkpt>
      <trkpt lat="42.474078" lon="8.887768">
        <ele>1422.0</ele>
        <time>2022-09-08T09:43:09Z</time>
      </trkpt>
      <trkpt lat="42.474068" lon="8.887843">
        <ele>1423.6</ele>
        <time>2022-09-08T09:43:24Z</time>
      </trkpt>
      <trkpt lat="42.474008" lon="8.887863">
        <ele>1424.8</ele>
        <time>2022-09-08T09:43:33Z</time>
      </trkpt>
      <trkpt lat="42.473997" lon="8.887898">
        <ele>1425.6</ele>
        <time>2022-09-08T09:43:37Z</time>
      </trkpt>
      <trkpt lat="42.473982" lon="8.887963">
        <ele>1427.0</ele>
        <time>2022-09-08T09:43:48Z</time>
      </trkpt>
      <trkpt lat="42.473973" lon="8.88798">
        <ele>1427.8</ele>
        <time>2022-09-08T09:43:51Z</time>
      </trkpt>
      <trkpt lat="42.473932" lon="8.888023">
        <ele>1430.2</ele>
        <time>2022-09-08T09:44:07Z</time>
      </trkpt>
      <trkpt lat="42.473907" lon="8.88808">
        <ele>1431.6</ele>
        <time>2022-09-08T09:44:16Z</time>
      </trkpt>
      <trkpt lat="42.473873" lon="8.888165">
        <ele>1432.8</ele>
        <time>2022-09-08T09:44:26Z</time>
      </trkpt>
      <trkpt lat="42.473857" lon="8.888187">
        <ele>1433.6</ele>
        <time>2022-09-08T09:44:31Z</time>
      </trkpt>
      <trkpt lat="42.473827" lon="8.888253">
        <ele>1434.2</ele>
        <time>2022-09-08T09:44:40Z</time>
      </trkpt>
      <trkpt lat="42.473807" lon="8.88827">
        <ele>1434.4</ele>
        <time>2022-09-08T09:44:44Z</time>
      </trkpt>
      <trkpt lat="42.473773" lon="8.888265">
        <ele>1435.0</ele>
        <time>2022-09-08T09:44:50Z</time>
      </trkpt>
      <trkpt lat="42.473718" lon="8.888345">
        <ele>1437.4</ele>
        <time>2022-09-08T09:45:09Z</time>
      </trkpt>
      <trkpt lat="42.473675" lon="8.888375">
        <ele>1438.6</ele>
        <time>2022-09-08T09:45:21Z</time>
      </trkpt>
      <trkpt lat="42.473672" lon="8.88838">
        <ele>1438.6</ele>
        <time>2022-09-08T09:45:22Z</time>
      </trkpt>
      <trkpt lat="42.473663" lon="8.888425">
        <ele>1439.6</ele>
        <time>2022-09-08T09:45:29Z</time>
      </trkpt>
      <trkpt lat="42.473633" lon="8.888482">
        <ele>1440.4</ele>
        <time>2022-09-08T09:45:37Z</time>
      </trkpt>
      <trkpt lat="42.473622" lon="8.888565">
        <ele>1441.6</ele>
        <time>2022-09-08T09:45:46Z</time>
      </trkpt>
      <trkpt lat="42.4736" lon="8.88858">
        <ele>1442.0</ele>
        <time>2022-09-08T09:45:51Z</time>
      </trkpt>
      <trkpt lat="42.47359" lon="8.888587">
        <ele>1442.2</ele>
        <time>2022-09-08T09:45:56Z</time>
      </trkpt>
      <trkpt lat="42.4735" lon="8.888635">
        <ele>1443.4</ele>
        <time>2022-09-08T09:46:06Z</time>
      </trkpt>
      <trkpt lat="42.473363" lon="8.888663">
        <ele>1445.2</ele>
        <time>2022-09-08T09:46:17Z</time>
      </trkpt>
      <trkpt lat="42.473347" lon="8.888613">
        <ele>1445.6</ele>
        <time>2022-09-08T09:46:21Z</time>
      </trkpt>
      <trkpt lat="42.473347" lon="8.888605">
        <ele>1446.2</ele>
        <time>2022-09-08T09:46:23Z</time>
      </trkpt>
      <trkpt lat="42.473303" lon="8.8885">
        <ele>1448.0</ele>
        <time>2022-09-08T09:46:37Z</time>
      </trkpt>
      <trkpt lat="42.473275" lon="8.88846">
        <ele>1449.0</ele>
        <time>2022-09-08T09:46:44Z</time>
      </trkpt>
      <trkpt lat="42.473243" lon="8.88843">
        <ele>1449.8</ele>
        <time>2022-09-08T09:46:50Z</time>
      </trkpt>
      <trkpt lat="42.473237" lon="8.88837">
        <ele>1450.6</ele>
        <time>2022-09-08T09:46:57Z</time>
      </trkpt>
      <trkpt lat="42.473262" lon="8.888285">
        <ele>1452.2</ele>
        <time>2022-09-08T09:47:09Z</time>
      </trkpt>
      <trkpt lat="42.473222" lon="8.888183">
        <ele>1453.6</ele>
        <time>2022-09-08T09:47:20Z</time>
      </trkpt>
      <trkpt lat="42.47323" lon="8.888153">
        <ele>1453.8</ele>
        <time>2022-09-08T09:47:24Z</time>
      </trkpt>
      <trkpt lat="42.47325" lon="8.888117">
        <ele>1455.4</ele>
        <time>2022-09-08T09:47:37Z</time>
      </trkpt>
      <trkpt lat="42.473252" lon="8.888103">
        <ele>1455.4</ele>
        <time>2022-09-08T09:47:41Z</time>
      </trkpt>
      <trkpt lat="42.473238" lon="8.88812">
        <ele>1456.4</ele>
        <time>2022-09-08T09:47:49Z</time>
      </trkpt>
      <trkpt lat="42.473213" lon="8.888155">
        <ele>1458.0</ele>
        <time>2022-09-08T09:48:00Z</time>
      </trkpt>
      <trkpt lat="42.473197" lon="8.888192">
        <ele>1460.0</ele>
        <time>2022-09-08T09:48:13Z</time>
      </trkpt>
      <trkpt lat="42.473172" lon="8.88818">
        <ele>1461.4</ele>
        <time>2022-09-08T09:48:23Z</time>
      </trkpt>
      <trkpt lat="42.473157" lon="8.888172">
        <ele>1463.0</ele>
        <time>2022-09-08T09:48:31Z</time>
      </trkpt>
      <trkpt lat="42.473073" lon="8.888078">
        <ele>1465.8</ele>
        <time>2022-09-08T09:48:50Z</time>
      </trkpt>
      <trkpt lat="42.473033" lon="8.888082">
        <ele>1468.0</ele>
        <time>2022-09-08T09:49:04Z</time>
      </trkpt>
      <trkpt lat="42.473" lon="8.888217">
        <ele>1470.2</ele>
        <time>2022-09-08T09:49:21Z</time>
      </trkpt>
      <trkpt lat="42.473" lon="8.888232">
        <ele>1470.4</ele>
        <time>2022-09-08T09:49:22Z</time>
      </trkpt>
      <trkpt lat="42.473022" lon="8.888272">
        <ele>1471.2</ele>
        <time>2022-09-08T09:49:27Z</time>
      </trkpt>
      <trkpt lat="42.473013" lon="8.888305">
        <ele>1471.2</ele>
        <time>2022-09-08T09:49:30Z</time>
      </trkpt>
      <trkpt lat="42.472967" lon="8.888377">
        <ele>1472.4</ele>
        <time>2022-09-08T09:49:37Z</time>
      </trkpt>
      <trkpt lat="42.47295" lon="8.888432">
        <ele>1472.8</ele>
        <time>2022-09-08T09:49:43Z</time>
      </trkpt>
      <trkpt lat="42.472928" lon="8.888513">
        <ele>1474.8</ele>
        <time>2022-09-08T09:50:09Z</time>
      </trkpt>
      <trkpt lat="42.472877" lon="8.88856">
        <ele>1477.2</ele>
        <time>2022-09-08T09:50:25Z</time>
      </trkpt>
      <trkpt lat="42.472713" lon="8.888692">
        <ele>1481.6</ele>
        <time>2022-09-08T09:51:11Z</time>
      </trkpt>
      <trkpt lat="42.472732" lon="8.88871">
        <ele>1482.2</ele>
        <time>2022-09-08T09:51:20Z</time>
      </trkpt>
      <trkpt lat="42.472738" lon="8.888718">
        <ele>1482.4</ele>
        <time>2022-09-08T09:51:22Z</time>
      </trkpt>
      <trkpt lat="42.472745" lon="8.888762">
        <ele>1483.4</ele>
        <time>2022-09-08T09:51:29Z</time>
      </trkpt>
      <trkpt lat="42.472715" lon="8.888787">
        <ele>1484.2</ele>
        <time>2022-09-08T09:51:35Z</time>
      </trkpt>
      <trkpt lat="42.472675" lon="8.888783">
        <ele>1485.4</ele>
        <time>2022-09-08T09:51:47Z</time>
      </trkpt>
      <trkpt lat="42.47266" lon="8.888768">
        <ele>1486.2</ele>
        <time>2022-09-08T09:51:52Z</time>
      </trkpt>
      <trkpt lat="42.472628" lon="8.888763">
        <ele>1486.4</ele>
        <time>2022-09-08T09:51:56Z</time>
      </trkpt>
      <trkpt lat="42.472542" lon="8.88875">
        <ele>1487.0</ele>
        <time>2022-09-08T09:52:03Z</time>
      </trkpt>
      <trkpt lat="42.472418" lon="8.888715">
        <ele>1488.4</ele>
        <time>2022-09-08T09:52:18Z</time>
      </trkpt>
      <trkpt lat="42.472358" lon="8.888782">
        <ele>1489.6</ele>
        <time>2022-09-08T09:52:29Z</time>
      </trkpt>
      <trkpt lat="42.472338" lon="8.888828">
        <ele>1491.2</ele>
        <time>2022-09-08T09:52:41Z</time>
      </trkpt>
      <trkpt lat="42.472362" lon="8.888923">
        <ele>1493.0</ele>
        <time>2022-09-08T09:52:51Z</time>
      </trkpt>
      <trkpt lat="42.47236" lon="8.888938">
        <ele>1493.0</ele>
        <time>2022-09-08T09:52:52Z</time>
      </trkpt>
      <trkpt lat="42.472322" lon="8.88911">
        <ele>1494.6</ele>
        <time>2022-09-08T09:53:07Z</time>
      </trkpt>
      <trkpt lat="42.472315" lon="8.889108">
        <ele>1494.8</ele>
        <time>2022-09-08T09:53:09Z</time>
      </trkpt>
      <trkpt lat="42.472272" lon="8.889093">
        <ele>1496.4</ele>
        <time>2022-09-08T09:53:20Z</time>
      </trkpt>
      <trkpt lat="42.472273" lon="8.889123">
        <ele>1498.2</ele>
        <time>2022-09-08T09:53:35Z</time>
      </trkpt>
      <trkpt lat="42.472337" lon="8.889228">
        <ele>1504.2</ele>
        <time>2022-09-08T09:54:21Z</time>
      </trkpt>
      <trkpt lat="42.472313" lon="8.889357">
        <ele>1512.8</ele>
        <time>2022-09-08T09:55:21Z</time>
      </trkpt>
      <trkpt lat="42.472273" lon="8.889435">
        <ele>1514.2</ele>
        <time>2022-09-08T09:55:32Z</time>
      </trkpt>
      <trkpt lat="42.472215" lon="8.889488">
        <ele>1514.6</ele>
        <time>2022-09-08T09:55:37Z</time>
      </trkpt>
      <trkpt lat="42.472123" lon="8.889515">
        <ele>1515.8</ele>
        <time>2022-09-08T09:55:42Z</time>
      </trkpt>
      <trkpt lat="42.472088" lon="8.88954">
        <ele>1515.8</ele>
        <time>2022-09-08T09:55:44Z</time>
      </trkpt>
      <trkpt lat="42.47199" lon="8.88975">
        <ele>1517.6</ele>
        <time>2022-09-08T09:55:54Z</time>
      </trkpt>
      <trkpt lat="42.4719" lon="8.889878">
        <ele>1520.6</ele>
        <time>2022-09-08T09:56:12Z</time>
      </trkpt>
      <trkpt lat="42.471868" lon="8.889927">
        <ele>1521.8</ele>
        <time>2022-09-08T09:56:23Z</time>
      </trkpt>
      <trkpt lat="42.471815" lon="8.889993">
        <ele>1523.0</ele>
        <time>2022-09-08T09:56:36Z</time>
      </trkpt>
      <trkpt lat="42.471748" lon="8.890065">
        <ele>1524.8</ele>
        <time>2022-09-08T09:56:54Z</time>
      </trkpt>
      <trkpt lat="42.471747" lon="8.890072">
        <ele>1524.8</ele>
        <time>2022-09-08T09:56:55Z</time>
      </trkpt>
      <trkpt lat="42.47174" lon="8.890175">
        <ele>1525.6</ele>
        <time>2022-09-08T09:57:05Z</time>
      </trkpt>
      <trkpt lat="42.471742" lon="8.890493">
        <ele>1528.0</ele>
        <time>2022-09-08T09:57:28Z</time>
      </trkpt>
      <trkpt lat="42.471737" lon="8.890527">
        <ele>1528.4</ele>
        <time>2022-09-08T09:57:30Z</time>
      </trkpt>
      <trkpt lat="42.471725" lon="8.89062">
        <ele>1529.2</ele>
        <time>2022-09-08T09:57:38Z</time>
      </trkpt>
      <trkpt lat="42.471715" lon="8.890757">
        <ele>1529.6</ele>
        <time>2022-09-08T09:57:50Z</time>
      </trkpt>
      <trkpt lat="42.471692" lon="8.890853">
        <ele>1530.8</ele>
        <time>2022-09-08T09:58:02Z</time>
      </trkpt>
      <trkpt lat="42.471697" lon="8.890907">
        <ele>1531.0</ele>
        <time>2022-09-08T09:58:08Z</time>
      </trkpt>
      <trkpt lat="42.471737" lon="8.890987">
        <ele>1531.6</ele>
        <time>2022-09-08T09:58:20Z</time>
      </trkpt>
      <trkpt lat="42.471748" lon="8.891053">
        <ele>1533.2</ele>
        <time>2022-09-08T09:58:28Z</time>
      </trkpt>
      <trkpt lat="42.47175" lon="8.891062">
        <ele>1533.4</ele>
        <time>2022-09-08T09:58:29Z</time>
      </trkpt>
      <trkpt lat="42.47181" lon="8.891278">
        <ele>1534.0</ele>
        <time>2022-09-08T09:58:49Z</time>
      </trkpt>
      <trkpt lat="42.47184" lon="8.8914">
        <ele>1533.6</ele>
        <time>2022-09-08T09:58:58Z</time>
      </trkpt>
      <trkpt lat="42.471847" lon="8.891525">
        <ele>1534.0</ele>
        <time>2022-09-08T09:59:06Z</time>
      </trkpt>
      <trkpt lat="42.47185" lon="8.891553">
        <ele>1534.0</ele>
        <time>2022-09-08T09:59:08Z</time>
      </trkpt>
      <trkpt lat="42.47188" lon="8.891782">
        <ele>1533.6</ele>
        <time>2022-09-08T09:59:26Z</time>
      </trkpt>
      <trkpt lat="42.471878" lon="8.89215">
        <ele>1534.8</ele>
        <time>2022-09-08T09:59:48Z</time>
      </trkpt>
      <trkpt lat="42.47185" lon="8.89234">
        <ele>1536.8</ele>
        <time>2022-09-08T10:00:03Z</time>
      </trkpt>
      <trkpt lat="42.471853" lon="8.89247">
        <ele>1537.8</ele>
        <time>2022-09-08T10:00:16Z</time>
      </trkpt>
      <trkpt lat="42.471873" lon="8.892635">
        <ele>1539.0</ele>
        <time>2022-09-08T10:00:32Z</time>
      </trkpt>
      <trkpt lat="42.47188" lon="8.892665">
        <ele>1538.6</ele>
        <time>2022-09-08T10:00:35Z</time>
      </trkpt>
      <trkpt lat="42.47189" lon="8.892973">
        <ele>1535.2</ele>
        <time>2022-09-08T10:00:59Z</time>
      </trkpt>
      <trkpt lat="42.47189" lon="8.8931">
        <ele>1534.2</ele>
        <time>2022-09-08T10:01:08Z</time>
      </trkpt>
      <trkpt lat="42.471873" lon="8.893363">
        <ele>1532.4</ele>
        <time>2022-09-08T10:01:27Z</time>
      </trkpt>
      <trkpt lat="42.47187" lon="8.893392">
        <ele>1532.4</ele>
        <time>2022-09-08T10:01:29Z</time>
      </trkpt>
      <trkpt lat="42.47192" lon="8.893558">
        <ele>1532.0</ele>
        <time>2022-09-08T10:01:41Z</time>
      </trkpt>
      <trkpt lat="42.47199" lon="8.893765">
        <ele>1532.0</ele>
        <time>2022-09-08T10:01:58Z</time>
      </trkpt>
      <trkpt lat="42.472007" lon="8.893772">
        <ele>1532.4</ele>
        <time>2022-09-08T10:02:00Z</time>
      </trkpt>
      <trkpt lat="42.472032" lon="8.893752">
        <ele>1532.6</ele>
        <time>2022-09-08T10:02:03Z</time>
      </trkpt>
      <trkpt lat="42.472053" lon="8.893767">
        <ele>1533.0</ele>
        <time>2022-09-08T10:02:06Z</time>
      </trkpt>
      <trkpt lat="42.471998" lon="8.893977">
        <ele>1535.6</ele>
        <time>2022-09-08T10:02:30Z</time>
      </trkpt>
      <trkpt lat="42.471965" lon="8.894065">
        <ele>1534.8</ele>
        <time>2022-09-08T10:02:43Z</time>
      </trkpt>
      <trkpt lat="42.47195" lon="8.894172">
        <ele>1536.0</ele>
        <time>2022-09-08T10:02:56Z</time>
      </trkpt>
      <trkpt lat="42.471918" lon="8.894235">
        <ele>1537.2</ele>
        <time>2022-09-08T10:03:03Z</time>
      </trkpt>
      <trkpt lat="42.471902" lon="8.894332">
        <ele>1536.8</ele>
        <time>2022-09-08T10:03:14Z</time>
      </trkpt>
      <trkpt lat="42.471882" lon="8.89439">
        <ele>1537.2</ele>
        <time>2022-09-08T10:03:20Z</time>
      </trkpt>
      <trkpt lat="42.471877" lon="8.894483">
        <ele>1538.2</ele>
        <time>2022-09-08T10:03:31Z</time>
      </trkpt>
      <trkpt lat="42.471838" lon="8.894688">
        <ele>1538.4</ele>
        <time>2022-09-08T10:03:47Z</time>
      </trkpt>
      <trkpt lat="42.471838" lon="8.894702">
        <ele>1538.4</ele>
        <time>2022-09-08T10:03:48Z</time>
      </trkpt>
      <trkpt lat="42.471888" lon="8.894865">
        <ele>1540.8</ele>
        <time>2022-09-08T10:04:08Z</time>
      </trkpt>
      <trkpt lat="42.471888" lon="8.894915">
        <ele>1541.2</ele>
        <time>2022-09-08T10:04:13Z</time>
      </trkpt>
      <trkpt lat="42.471877" lon="8.894995">
        <ele>1543.0</ele>
        <time>2022-09-08T10:04:24Z</time>
      </trkpt>
      <trkpt lat="42.471912" lon="8.895027">
        <ele>1544.0</ele>
        <time>2022-09-08T10:04:35Z</time>
      </trkpt>
      <trkpt lat="42.471912" lon="8.895032">
        <ele>1544.0</ele>
        <time>2022-09-08T10:04:36Z</time>
      </trkpt>
      <trkpt lat="42.471908" lon="8.895097">
        <ele>1545.4</ele>
        <time>2022-09-08T10:04:46Z</time>
      </trkpt>
      <trkpt lat="42.471908" lon="8.895125">
        <ele>1546.6</ele>
        <time>2022-09-08T10:04:56Z</time>
      </trkpt>
      <trkpt lat="42.47189" lon="8.895157">
        <ele>1547.8</ele>
        <time>2022-09-08T10:05:01Z</time>
      </trkpt>
      <trkpt lat="42.471868" lon="8.895275">
        <ele>1550.8</ele>
        <time>2022-09-08T10:05:24Z</time>
      </trkpt>
      <trkpt lat="42.471788" lon="8.89541">
        <ele>1552.4</ele>
        <time>2022-09-08T10:05:58Z</time>
      </trkpt>
      <trkpt lat="42.471685" lon="8.895855">
        <ele>1553.2</ele>
        <time>2022-09-08T10:06:14Z</time>
      </trkpt>
      <trkpt lat="42.471642" lon="8.89595">
        <ele>1553.8</ele>
        <time>2022-09-08T10:06:21Z</time>
      </trkpt>
      <trkpt lat="42.471612" lon="8.896108">
        <ele>1554.8</ele>
        <time>2022-09-08T10:06:35Z</time>
      </trkpt>
      <trkpt lat="42.471583" lon="8.896233">
        <ele>1555.4</ele>
        <time>2022-09-08T10:06:47Z</time>
      </trkpt>
      <trkpt lat="42.47158" lon="8.896312">
        <ele>1555.0</ele>
        <time>2022-09-08T10:06:55Z</time>
      </trkpt>
      <trkpt lat="42.47155" lon="8.896375">
        <ele>1555.0</ele>
        <time>2022-09-08T10:07:02Z</time>
      </trkpt>
      <trkpt lat="42.471533" lon="8.896413">
        <ele>1555.6</ele>
        <time>2022-09-08T10:07:06Z</time>
      </trkpt>
      <trkpt lat="42.471512" lon="8.896492">
        <ele>1555.8</ele>
        <time>2022-09-08T10:07:14Z</time>
      </trkpt>
      <trkpt lat="42.471473" lon="8.896573">
        <ele>1556.2</ele>
        <time>2022-09-08T10:07:23Z</time>
      </trkpt>
      <trkpt lat="42.471397" lon="8.896778">
        <ele>1558.0</ele>
        <time>2022-09-08T10:07:46Z</time>
      </trkpt>
      <trkpt lat="42.471392" lon="8.896925">
        <ele>1558.6</ele>
        <time>2022-09-08T10:07:57Z</time>
      </trkpt>
      <trkpt lat="42.471385" lon="8.89704">
        <ele>1558.8</ele>
        <time>2022-09-08T10:08:05Z</time>
      </trkpt>
      <trkpt lat="42.471395" lon="8.897113">
        <ele>1559.0</ele>
        <time>2022-09-08T10:08:11Z</time>
      </trkpt>
      <trkpt lat="42.471452" lon="8.897333">
        <ele>1560.0</ele>
        <time>2022-09-08T10:08:27Z</time>
      </trkpt>
      <trkpt lat="42.471485" lon="8.897485">
        <ele>1560.2</ele>
        <time>2022-09-08T10:08:38Z</time>
      </trkpt>
      <trkpt lat="42.471558" lon="8.897817">
        <ele>1559.4</ele>
        <time>2022-09-08T10:09:05Z</time>
      </trkpt>
      <trkpt lat="42.471535" lon="8.897945">
        <ele>1559.4</ele>
        <time>2022-09-08T10:09:15Z</time>
      </trkpt>
      <trkpt lat="42.471543" lon="8.897998">
        <ele>1558.6</ele>
        <time>2022-09-08T10:09:21Z</time>
      </trkpt>
      <trkpt lat="42.471508" lon="8.898132">
        <ele>1557.4</ele>
        <time>2022-09-08T10:09:36Z</time>
      </trkpt>
      <trkpt lat="42.471495" lon="8.898163">
        <ele>1556.8</ele>
        <time>2022-09-08T10:09:40Z</time>
      </trkpt>
      <trkpt lat="42.471488" lon="8.89831">
        <ele>1553.6</ele>
        <time>2022-09-08T10:09:56Z</time>
      </trkpt>
      <trkpt lat="42.471528" lon="8.898447">
        <ele>1550.8</ele>
        <time>2022-09-08T10:10:11Z</time>
      </trkpt>
      <trkpt lat="42.471527" lon="8.898458">
        <ele>1550.8</ele>
        <time>2022-09-08T10:10:13Z</time>
      </trkpt>
      <trkpt lat="42.471518" lon="8.898588">
        <ele>1548.4</ele>
        <time>2022-09-08T10:10:24Z</time>
      </trkpt>
      <trkpt lat="42.471538" lon="8.898655">
        <ele>1547.6</ele>
        <time>2022-09-08T10:10:30Z</time>
      </trkpt>
      <trkpt lat="42.471537" lon="8.898758">
        <ele>1545.8</ele>
        <time>2022-09-08T10:10:39Z</time>
      </trkpt>
      <trkpt lat="42.471535" lon="8.898832">
        <ele>1544.0</ele>
        <time>2022-09-08T10:10:49Z</time>
      </trkpt>
      <trkpt lat="42.471528" lon="8.89889">
        <ele>1543.4</ele>
        <time>2022-09-08T10:10:56Z</time>
      </trkpt>
      <trkpt lat="42.47153" lon="8.8989">
        <ele>1543.0</ele>
        <time>2022-09-08T10:10:57Z</time>
      </trkpt>
      <trkpt lat="42.47158" lon="8.899">
        <ele>1541.4</ele>
        <time>2022-09-08T10:11:07Z</time>
      </trkpt>
      <trkpt lat="42.47163" lon="8.899127">
        <ele>1539.6</ele>
        <time>2022-09-08T10:11:17Z</time>
      </trkpt>
      <trkpt lat="42.471658" lon="8.899192">
        <ele>1538.2</ele>
        <time>2022-09-08T10:11:22Z</time>
      </trkpt>
      <trkpt lat="42.471673" lon="8.899402">
        <ele>1534.6</ele>
        <time>2022-09-08T10:11:39Z</time>
      </trkpt>
      <trkpt lat="42.471717" lon="8.899485">
        <ele>1533.4</ele>
        <time>2022-09-08T10:11:47Z</time>
      </trkpt>
      <trkpt lat="42.47177" lon="8.899567">
        <ele>1532.4</ele>
        <time>2022-09-08T10:11:55Z</time>
      </trkpt>
      <trkpt lat="42.471813" lon="8.899602">
        <ele>1531.8</ele>
        <time>2022-09-08T10:12:00Z</time>
      </trkpt>
      <trkpt lat="42.471875" lon="8.899642">
        <ele>1531.2</ele>
        <time>2022-09-08T10:12:08Z</time>
      </trkpt>
      <trkpt lat="42.471968" lon="8.899818">
        <ele>1531.2</ele>
        <time>2022-09-08T10:12:21Z</time>
      </trkpt>
      <trkpt lat="42.471903" lon="8.900043">
        <ele>1529.0</ele>
        <time>2022-09-08T10:12:40Z</time>
      </trkpt>
      <trkpt lat="42.471877" lon="8.900142">
        <ele>1527.6</ele>
        <time>2022-09-08T10:12:53Z</time>
      </trkpt>
      <trkpt lat="42.471875" lon="8.900207">
        <ele>1526.4</ele>
        <time>2022-09-08T10:13:02Z</time>
      </trkpt>
      <trkpt lat="42.47184" lon="8.900302">
        <ele>1523.2</ele>
        <time>2022-09-08T10:13:17Z</time>
      </trkpt>
      <trkpt lat="42.47181" lon="8.90037">
        <ele>1521.4</ele>
        <time>2022-09-08T10:13:28Z</time>
      </trkpt>
      <trkpt lat="42.471775" lon="8.90067">
        <ele>1519.2</ele>
        <time>2022-09-08T10:13:46Z</time>
      </trkpt>
      <trkpt lat="42.47178" lon="8.900835">
        <ele>1518.0</ele>
        <time>2022-09-08T10:13:54Z</time>
      </trkpt>
      <trkpt lat="42.471777" lon="8.900855">
        <ele>1517.8</ele>
        <time>2022-09-08T10:13:55Z</time>
      </trkpt>
      <trkpt lat="42.471748" lon="8.900973">
        <ele>1516.8</ele>
        <time>2022-09-08T10:14:02Z</time>
      </trkpt>
      <trkpt lat="42.471698" lon="8.90113">
        <ele>1515.6</ele>
        <time>2022-09-08T10:14:15Z</time>
      </trkpt>
      <trkpt lat="42.471668" lon="8.901242">
        <ele>1514.8</ele>
        <time>2022-09-08T10:14:23Z</time>
      </trkpt>
      <trkpt lat="42.47156" lon="8.90158">
        <ele>1513.2</ele>
        <time>2022-09-08T10:14:43Z</time>
      </trkpt>
      <trkpt lat="42.471518" lon="8.901732">
        <ele>1512.2</ele>
        <time>2022-09-08T10:14:51Z</time>
      </trkpt>
      <trkpt lat="42.47151" lon="8.901748">
        <ele>1512.2</ele>
        <time>2022-09-08T10:14:52Z</time>
      </trkpt>
      <trkpt lat="42.471493" lon="8.90178">
        <ele>1512.0</ele>
        <time>2022-09-08T10:14:54Z</time>
      </trkpt>
      <trkpt lat="42.471465" lon="8.901867">
        <ele>1512.0</ele>
        <time>2022-09-08T10:14:59Z</time>
      </trkpt>
      <trkpt lat="42.471458" lon="8.901883">
        <ele>1512.0</ele>
        <time>2022-09-08T10:15:00Z</time>
      </trkpt>
      <trkpt lat="42.471447" lon="8.901915">
        <ele>1512.0</ele>
        <time>2022-09-08T10:15:02Z</time>
      </trkpt>
      <trkpt lat="42.471438" lon="8.901928">
        <ele>1512.0</ele>
        <time>2022-09-08T10:15:03Z</time>
      </trkpt>
      <trkpt lat="42.47138" lon="8.90196">
        <ele>1512.0</ele>
        <time>2022-09-08T10:15:10Z</time>
      </trkpt>
      <trkpt lat="42.471308" lon="8.902307">
        <ele>1511.6</ele>
        <time>2022-09-08T10:15:33Z</time>
      </trkpt>
      <trkpt lat="42.471308" lon="8.902325">
        <ele>1511.8</ele>
        <time>2022-09-08T10:15:34Z</time>
      </trkpt>
      <trkpt lat="42.471305" lon="8.902343">
        <ele>1511.8</ele>
        <time>2022-09-08T10:15:35Z</time>
      </trkpt>
      <trkpt lat="42.471303" lon="8.90236">
        <ele>1511.8</ele>
        <time>2022-09-08T10:15:36Z</time>
      </trkpt>
      <trkpt lat="42.471262" lon="8.902397">
        <ele>1511.8</ele>
        <time>2022-09-08T10:15:40Z</time>
      </trkpt>
      <trkpt lat="42.471243" lon="8.902415">
        <ele>1511.8</ele>
        <time>2022-09-08T10:15:42Z</time>
      </trkpt>
      <trkpt lat="42.47122" lon="8.902498">
        <ele>1511.0</ele>
        <time>2022-09-08T10:15:52Z</time>
      </trkpt>
      <trkpt lat="42.471172" lon="8.902548">
        <ele>1511.4</ele>
        <time>2022-09-08T10:16:03Z</time>
      </trkpt>
      <trkpt lat="42.471077" lon="8.902643">
        <ele>1512.2</ele>
        <time>2022-09-08T10:16:25Z</time>
      </trkpt>
      <trkpt lat="42.47094" lon="8.90271">
        <ele>1513.2</ele>
        <time>2022-09-08T10:16:42Z</time>
      </trkpt>
      <trkpt lat="42.471017" lon="8.902832">
        <ele>1513.2</ele>
        <time>2022-09-08T10:16:53Z</time>
      </trkpt>
      <trkpt lat="42.470772" lon="8.902663">
        <ele>1514.6</ele>
        <time>2022-09-08T10:17:04Z</time>
      </trkpt>
      <trkpt lat="42.47057" lon="8.90275">
        <ele>1514.8</ele>
        <time>2022-09-08T10:17:13Z</time>
      </trkpt>
      <trkpt lat="42.470602" lon="8.902718">
        <ele>1514.8</ele>
        <time>2022-09-08T10:17:14Z</time>
      </trkpt>
      <trkpt lat="42.470592" lon="8.902727">
        <ele>1514.8</ele>
        <time>2022-09-08T10:17:14Z</time>
      </trkpt>
      <trkpt lat="42.470513" lon="8.902858">
        <ele>1515.0</ele>
        <time>2022-09-08T10:17:23Z</time>
      </trkpt>
      <trkpt lat="42.470507" lon="8.902865">
        <ele>1515.2</ele>
        <time>2022-09-08T10:17:24Z</time>
      </trkpt>
      <trkpt lat="42.470498" lon="8.902872">
        <ele>1515.2</ele>
        <time>2022-09-08T10:17:25Z</time>
      </trkpt>
      <trkpt lat="42.470465" lon="8.902915">
        <ele>1515.8</ele>
        <time>2022-09-08T10:17:30Z</time>
      </trkpt>
      <trkpt lat="42.47045" lon="8.902948">
        <ele>1516.6</ele>
        <time>2022-09-08T10:17:34Z</time>
      </trkpt>
      <trkpt lat="42.47041" lon="8.903038">
        <ele>1517.6</ele>
        <time>2022-09-08T10:17:43Z</time>
      </trkpt>
      <trkpt lat="42.470382" lon="8.903075">
        <ele>1518.6</ele>
        <time>2022-09-08T10:17:48Z</time>
      </trkpt>
      <trkpt lat="42.470358" lon="8.90313">
        <ele>1519.4</ele>
        <time>2022-09-08T10:17:54Z</time>
      </trkpt>
      <trkpt lat="42.470338" lon="8.903158">
        <ele>1519.4</ele>
        <time>2022-09-08T10:17:58Z</time>
      </trkpt>
      <trkpt lat="42.470268" lon="8.903232">
        <ele>1518.6</ele>
        <time>2022-09-08T10:18:12Z</time>
      </trkpt>
      <trkpt lat="42.470277" lon="8.903193">
        <ele>1515.0</ele>
        <time>2022-09-08T10:18:53Z</time>
      </trkpt>
      <trkpt lat="42.470262" lon="8.9032">
        <ele>1514.8</ele>
        <time>2022-09-08T10:18:57Z</time>
      </trkpt>
      <trkpt lat="42.47024" lon="8.903198">
        <ele>1514.6</ele>
        <time>2022-09-08T10:19:01Z</time>
      </trkpt>
      <trkpt lat="42.470225" lon="8.903263">
        <ele>1514.0</ele>
        <time>2022-09-08T10:19:21Z</time>
      </trkpt>
      <trkpt lat="42.470183" lon="8.90334">
        <ele>1510.0</ele>
        <time>2022-09-08T10:20:21Z</time>
      </trkpt>
      <trkpt lat="42.470132" lon="8.903465">
        <ele>1510.0</ele>
        <time>2022-09-08T10:20:29Z</time>
      </trkpt>
      <trkpt lat="42.470142" lon="8.903627">
        <ele>1509.8</ele>
        <time>2022-09-08T10:20:35Z</time>
      </trkpt>
      <trkpt lat="42.470062" lon="8.90383">
        <ele>1509.0</ele>
        <time>2022-09-08T10:20:45Z</time>
      </trkpt>
      <trkpt lat="42.470047" lon="8.90389">
        <ele>1509.0</ele>
        <time>2022-09-08T10:20:48Z</time>
      </trkpt>
      <trkpt lat="42.469998" lon="8.903975">
        <ele>1508.0</ele>
        <time>2022-09-08T10:20:54Z</time>
      </trkpt>
      <trkpt lat="42.469943" lon="8.903995">
        <ele>1507.8</ele>
        <time>2022-09-08T10:20:59Z</time>
      </trkpt>
      <trkpt lat="42.4699" lon="8.904003">
        <ele>1507.2</ele>
        <time>2022-09-08T10:21:03Z</time>
      </trkpt>
      <trkpt lat="42.46989" lon="8.904">
        <ele>1507.2</ele>
        <time>2022-09-08T10:21:04Z</time>
      </trkpt>
      <trkpt lat="42.469828" lon="8.903967">
        <ele>1506.8</ele>
        <time>2022-09-08T10:21:10Z</time>
      </trkpt>
      <trkpt lat="42.469723" lon="8.903947">
        <ele>1506.6</ele>
        <time>2022-09-08T10:21:22Z</time>
      </trkpt>
      <trkpt lat="42.469697" lon="8.903897">
        <ele>1506.8</ele>
        <time>2022-09-08T10:21:27Z</time>
      </trkpt>
      <trkpt lat="42.469695" lon="8.903885">
        <ele>1506.8</ele>
        <time>2022-09-08T10:21:28Z</time>
      </trkpt>
      <trkpt lat="42.469673" lon="8.9039">
        <ele>1506.8</ele>
        <time>2022-09-08T10:21:38Z</time>
      </trkpt>
      <trkpt lat="42.469663" lon="8.903988">
        <ele>1507.4</ele>
        <time>2022-09-08T10:21:46Z</time>
      </trkpt>
      <trkpt lat="42.469665" lon="8.904">
        <ele>1507.6</ele>
        <time>2022-09-08T10:21:47Z</time>
      </trkpt>
      <trkpt lat="42.469685" lon="8.904162">
        <ele>1508.2</ele>
        <time>2022-09-08T10:22:04Z</time>
      </trkpt>
      <trkpt lat="42.469678" lon="8.90417">
        <ele>1508.2</ele>
        <time>2022-09-08T10:22:05Z</time>
      </trkpt>
      <trkpt lat="42.469643" lon="8.904232">
        <ele>1507.8</ele>
        <time>2022-09-08T10:22:15Z</time>
      </trkpt>
      <trkpt lat="42.46961" lon="8.904332">
        <ele>1507.2</ele>
        <time>2022-09-08T10:22:33Z</time>
      </trkpt>
      <trkpt lat="42.469605" lon="8.904348">
        <ele>1507.2</ele>
        <time>2022-09-08T10:22:36Z</time>
      </trkpt>
      <trkpt lat="42.46955" lon="8.90444">
        <ele>1507.4</ele>
        <time>2022-09-08T10:22:47Z</time>
      </trkpt>
      <trkpt lat="42.469518" lon="8.904523">
        <ele>1508.2</ele>
        <time>2022-09-08T10:22:55Z</time>
      </trkpt>
      <trkpt lat="42.469452" lon="8.904655">
        <ele>1507.8</ele>
        <time>2022-09-08T10:23:08Z</time>
      </trkpt>
      <trkpt lat="42.469438" lon="8.904715">
        <ele>1507.6</ele>
        <time>2022-09-08T10:23:13Z</time>
      </trkpt>
      <trkpt lat="42.469435" lon="8.90475">
        <ele>1507.2</ele>
        <time>2022-09-08T10:23:17Z</time>
      </trkpt>
      <trkpt lat="42.469408" lon="8.904832">
        <ele>1507.2</ele>
        <time>2022-09-08T10:23:26Z</time>
      </trkpt>
      <trkpt lat="42.469372" lon="8.904965">
        <ele>1507.0</ele>
        <time>2022-09-08T10:23:46Z</time>
      </trkpt>
      <trkpt lat="42.469355" lon="8.905083">
        <ele>1507.6</ele>
        <time>2022-09-08T10:23:59Z</time>
      </trkpt>
      <trkpt lat="42.46934" lon="8.905247">
        <ele>1509.0</ele>
        <time>2022-09-08T10:24:17Z</time>
      </trkpt>
      <trkpt lat="42.469338" lon="8.905257">
        <ele>1509.0</ele>
        <time>2022-09-08T10:24:19Z</time>
      </trkpt>
      <trkpt lat="42.469337" lon="8.905267">
        <ele>1509.0</ele>
        <time>2022-09-08T10:24:20Z</time>
      </trkpt>
      <trkpt lat="42.469318" lon="8.905418">
        <ele>1509.2</ele>
        <time>2022-09-08T10:24:31Z</time>
      </trkpt>
      <trkpt lat="42.469325" lon="8.905578">
        <ele>1510.2</ele>
        <time>2022-09-08T10:24:43Z</time>
      </trkpt>
      <trkpt lat="42.469337" lon="8.9057">
        <ele>1511.0</ele>
        <time>2022-09-08T10:24:56Z</time>
      </trkpt>
      <trkpt lat="42.469337" lon="8.905728">
        <ele>1511.6</ele>
        <time>2022-09-08T10:25:03Z</time>
      </trkpt>
      <trkpt lat="42.46939" lon="8.905928">
        <ele>1512.2</ele>
        <time>2022-09-08T10:25:19Z</time>
      </trkpt>
      <trkpt lat="42.469428" lon="8.906155">
        <ele>1512.8</ele>
        <time>2022-09-08T10:25:40Z</time>
      </trkpt>
      <trkpt lat="42.469445" lon="8.906223">
        <ele>1513.6</ele>
        <time>2022-09-08T10:25:48Z</time>
      </trkpt>
      <trkpt lat="42.469463" lon="8.906283">
        <ele>1513.6</ele>
        <time>2022-09-08T10:25:56Z</time>
      </trkpt>
      <trkpt lat="42.469495" lon="8.906398">
        <ele>1512.8</ele>
        <time>2022-09-08T10:26:10Z</time>
      </trkpt>
      <trkpt lat="42.46951" lon="8.906485">
        <ele>1512.8</ele>
        <time>2022-09-08T10:26:16Z</time>
      </trkpt>
      <trkpt lat="42.469508" lon="8.906535">
        <ele>1512.6</ele>
        <time>2022-09-08T10:26:19Z</time>
      </trkpt>
      <trkpt lat="42.469493" lon="8.906637">
        <ele>1513.0</ele>
        <time>2022-09-08T10:26:26Z</time>
      </trkpt>
      <trkpt lat="42.469468" lon="8.906693">
        <ele>1512.8</ele>
        <time>2022-09-08T10:26:31Z</time>
      </trkpt>
      <trkpt lat="42.46942" lon="8.90676">
        <ele>1512.6</ele>
        <time>2022-09-08T10:26:41Z</time>
      </trkpt>
      <trkpt lat="42.469368" lon="8.906868">
        <ele>1512.8</ele>
        <time>2022-09-08T10:26:51Z</time>
      </trkpt>
      <trkpt lat="42.469362" lon="8.906878">
        <ele>1512.6</ele>
        <time>2022-09-08T10:26:52Z</time>
      </trkpt>
      <trkpt lat="42.46924" lon="8.906947">
        <ele>1512.6</ele>
        <time>2022-09-08T10:27:03Z</time>
      </trkpt>
      <trkpt lat="42.469118" lon="8.906992">
        <ele>1512.8</ele>
        <time>2022-09-08T10:27:12Z</time>
      </trkpt>
      <trkpt lat="42.468852" lon="8.90716">
        <ele>1512.2</ele>
        <time>2022-09-08T10:27:33Z</time>
      </trkpt>
      <trkpt lat="42.46885" lon="8.907172">
        <ele>1512.0</ele>
        <time>2022-09-08T10:27:34Z</time>
      </trkpt>
      <trkpt lat="42.468837" lon="8.907205">
        <ele>1511.4</ele>
        <time>2022-09-08T10:27:37Z</time>
      </trkpt>
      <trkpt lat="42.468825" lon="8.907228">
        <ele>1511.0</ele>
        <time>2022-09-08T10:27:39Z</time>
      </trkpt>
      <trkpt lat="42.468783" lon="8.907297">
        <ele>1509.8</ele>
        <time>2022-09-08T10:27:45Z</time>
      </trkpt>
      <trkpt lat="42.468755" lon="8.907357">
        <ele>1509.0</ele>
        <time>2022-09-08T10:27:50Z</time>
      </trkpt>
      <trkpt lat="42.468737" lon="8.907373">
        <ele>1508.2</ele>
        <time>2022-09-08T10:27:52Z</time>
      </trkpt>
      <trkpt lat="42.468715" lon="8.907385">
        <ele>1508.2</ele>
        <time>2022-09-08T10:27:54Z</time>
      </trkpt>
      <trkpt lat="42.468657" lon="8.907403">
        <ele>1508.2</ele>
        <time>2022-09-08T10:27:59Z</time>
      </trkpt>
      <trkpt lat="42.468645" lon="8.907403">
        <ele>1508.2</ele>
        <time>2022-09-08T10:28:00Z</time>
      </trkpt>
      <trkpt lat="42.468598" lon="8.90738">
        <ele>1508.6</ele>
        <time>2022-09-08T10:28:05Z</time>
      </trkpt>
      <trkpt lat="42.468543" lon="8.907353">
        <ele>1508.8</ele>
        <time>2022-09-08T10:28:10Z</time>
      </trkpt>
      <trkpt lat="42.468502" lon="8.907353">
        <ele>1509.2</ele>
        <time>2022-09-08T10:28:14Z</time>
      </trkpt>
      <trkpt lat="42.468475" lon="8.90736">
        <ele>1509.2</ele>
        <time>2022-09-08T10:28:17Z</time>
      </trkpt>
      <trkpt lat="42.468453" lon="8.907318">
        <ele>1509.4</ele>
        <time>2022-09-08T10:28:23Z</time>
      </trkpt>
      <trkpt lat="42.46841" lon="8.907257">
        <ele>1510.8</ele>
        <time>2022-09-08T10:28:34Z</time>
      </trkpt>
      <trkpt lat="42.46838" lon="8.907203">
        <ele>1511.8</ele>
        <time>2022-09-08T10:28:41Z</time>
      </trkpt>
      <trkpt lat="42.468378" lon="8.907078">
        <ele>1513.4</ele>
        <time>2022-09-08T10:29:01Z</time>
      </trkpt>
      <trkpt lat="42.46838" lon="8.907073">
        <ele>1513.4</ele>
        <time>2022-09-08T10:29:02Z</time>
      </trkpt>
      <trkpt lat="42.468312" lon="8.907112">
        <ele>1513.4</ele>
        <time>2022-09-08T10:29:13Z</time>
      </trkpt>
      <trkpt lat="42.468198" lon="8.907178">
        <ele>1516.0</ele>
        <time>2022-09-08T10:29:35Z</time>
      </trkpt>
      <trkpt lat="42.468175" lon="8.907285">
        <ele>1518.2</ele>
        <time>2022-09-08T10:29:50Z</time>
      </trkpt>
      <trkpt lat="42.468175" lon="8.907292">
        <ele>1518.4</ele>
        <time>2022-09-08T10:29:51Z</time>
      </trkpt>
      <trkpt lat="42.468143" lon="8.907318">
        <ele>1519.8</ele>
        <time>2022-09-08T10:30:00Z</time>
      </trkpt>
      <trkpt lat="42.468138" lon="8.907388">
        <ele>1520.6</ele>
        <time>2022-09-08T10:30:12Z</time>
      </trkpt>
      <trkpt lat="42.468153" lon="8.90742">
        <ele>1522.0</ele>
        <time>2022-09-08T10:30:23Z</time>
      </trkpt>
      <trkpt lat="42.468168" lon="8.907458">
        <ele>1523.0</ele>
        <time>2022-09-08T10:30:32Z</time>
      </trkpt>
      <trkpt lat="42.468172" lon="8.907522">
        <ele>1525.2</ele>
        <time>2022-09-08T10:30:43Z</time>
      </trkpt>
      <trkpt lat="42.468153" lon="8.907603">
        <ele>1527.0</ele>
        <time>2022-09-08T10:30:57Z</time>
      </trkpt>
      <trkpt lat="42.468152" lon="8.907617">
        <ele>1527.2</ele>
        <time>2022-09-08T10:30:59Z</time>
      </trkpt>
      <trkpt lat="42.468135" lon="8.907673">
        <ele>1528.6</ele>
        <time>2022-09-08T10:31:08Z</time>
      </trkpt>
      <trkpt lat="42.46812" lon="8.907692">
        <ele>1529.2</ele>
        <time>2022-09-08T10:31:11Z</time>
      </trkpt>
      <trkpt lat="42.46798" lon="8.907755">
        <ele>1532.0</ele>
        <time>2022-09-08T10:31:31Z</time>
      </trkpt>
      <trkpt lat="42.467927" lon="8.907828">
        <ele>1532.8</ele>
        <time>2022-09-08T10:31:40Z</time>
      </trkpt>
      <trkpt lat="42.467898" lon="8.907872">
        <ele>1532.8</ele>
        <time>2022-09-08T10:31:45Z</time>
      </trkpt>
      <trkpt lat="42.467873" lon="8.907962">
        <ele>1532.4</ele>
        <time>2022-09-08T10:31:55Z</time>
      </trkpt>
      <trkpt lat="42.46777" lon="8.908068">
        <ele>1533.8</ele>
        <time>2022-09-08T10:32:12Z</time>
      </trkpt>
      <trkpt lat="42.467765" lon="8.908125">
        <ele>1535.6</ele>
        <time>2022-09-08T10:32:34Z</time>
      </trkpt>
      <trkpt lat="42.467777" lon="8.90816">
        <ele>1538.2</ele>
        <time>2022-09-08T10:32:49Z</time>
      </trkpt>
      <trkpt lat="42.46779" lon="8.908182">
        <ele>1540.6</ele>
        <time>2022-09-08T10:32:59Z</time>
      </trkpt>
      <trkpt lat="42.467792" lon="8.908187">
        <ele>1540.8</ele>
        <time>2022-09-08T10:33:03Z</time>
      </trkpt>
      <trkpt lat="42.46773" lon="8.9083">
        <ele>1542.0</ele>
        <time>2022-09-08T10:33:20Z</time>
      </trkpt>
      <trkpt lat="42.467682" lon="8.908392">
        <ele>1544.8</ele>
        <time>2022-09-08T10:33:42Z</time>
      </trkpt>
      <trkpt lat="42.46762" lon="8.908475">
        <ele>1546.2</ele>
        <time>2022-09-08T10:33:53Z</time>
      </trkpt>
      <trkpt lat="42.467477" lon="8.908708">
        <ele>1550.4</ele>
        <time>2022-09-08T10:34:22Z</time>
      </trkpt>
      <trkpt lat="42.467408" lon="8.908845">
        <ele>1553.0</ele>
        <time>2022-09-08T10:34:38Z</time>
      </trkpt>
      <trkpt lat="42.46739" lon="8.908872">
        <ele>1553.0</ele>
        <time>2022-09-08T10:34:41Z</time>
      </trkpt>
      <trkpt lat="42.467373" lon="8.909225">
        <ele>1555.2</ele>
        <time>2022-09-08T10:35:20Z</time>
      </trkpt>
      <trkpt lat="42.467292" lon="8.909333">
        <ele>1554.8</ele>
        <time>2022-09-08T10:35:34Z</time>
      </trkpt>
      <trkpt lat="42.467153" lon="8.909343">
        <ele>1553.8</ele>
        <time>2022-09-08T10:35:48Z</time>
      </trkpt>
      <trkpt lat="42.467095" lon="8.909312">
        <ele>1553.6</ele>
        <time>2022-09-08T10:35:57Z</time>
      </trkpt>
      <trkpt lat="42.466965" lon="8.90915">
        <ele>1554.8</ele>
        <time>2022-09-08T10:36:14Z</time>
      </trkpt>
      <trkpt lat="42.46695" lon="8.909162">
        <ele>1554.8</ele>
        <time>2022-09-08T10:36:16Z</time>
      </trkpt>
      <trkpt lat="42.466937" lon="8.909213">
        <ele>1554.8</ele>
        <time>2022-09-08T10:36:22Z</time>
      </trkpt>
      <trkpt lat="42.46693" lon="8.909263">
        <ele>1555.0</ele>
        <time>2022-09-08T10:36:28Z</time>
      </trkpt>
      <trkpt lat="42.46691" lon="8.909292">
        <ele>1555.6</ele>
        <time>2022-09-08T10:36:32Z</time>
      </trkpt>
      <trkpt lat="42.466848" lon="8.909342">
        <ele>1556.8</ele>
        <time>2022-09-08T10:36:41Z</time>
      </trkpt>
      <trkpt lat="42.466823" lon="8.909363">
        <ele>1557.6</ele>
        <time>2022-09-08T10:36:46Z</time>
      </trkpt>
      <trkpt lat="42.46686" lon="8.9094">
        <ele>1559.6</ele>
        <time>2022-09-08T10:36:59Z</time>
      </trkpt>
      <trkpt lat="42.466815" lon="8.909557">
        <ele>1569.6</ele>
        <time>2022-09-08T10:37:53Z</time>
      </trkpt>
      <trkpt lat="42.466797" lon="8.909572">
        <ele>1570.4</ele>
        <time>2022-09-08T10:37:57Z</time>
      </trkpt>
      <trkpt lat="42.466702" lon="8.909573">
        <ele>1572.4</ele>
        <time>2022-09-08T10:38:05Z</time>
      </trkpt>
      <trkpt lat="42.46659" lon="8.909577">
        <ele>1574.2</ele>
        <time>2022-09-08T10:38:16Z</time>
      </trkpt>
      <trkpt lat="42.466557" lon="8.909562">
        <ele>1575.0</ele>
        <time>2022-09-08T10:38:21Z</time>
      </trkpt>
      <trkpt lat="42.466518" lon="8.90955">
        <ele>1575.6</ele>
        <time>2022-09-08T10:38:27Z</time>
      </trkpt>
      <trkpt lat="42.466463" lon="8.909552">
        <ele>1576.6</ele>
        <time>2022-09-08T10:38:36Z</time>
      </trkpt>
      <trkpt lat="42.466417" lon="8.90954">
        <ele>1577.2</ele>
        <time>2022-09-08T10:38:43Z</time>
      </trkpt>
      <trkpt lat="42.466383" lon="8.909552">
        <ele>1577.2</ele>
        <time>2022-09-08T10:38:47Z</time>
      </trkpt>
      <trkpt lat="42.466362" lon="8.90955">
        <ele>1577.2</ele>
        <time>2022-09-08T10:38:51Z</time>
      </trkpt>
      <trkpt lat="42.466358" lon="8.909537">
        <ele>1576.6</ele>
        <time>2022-09-08T10:38:53Z</time>
      </trkpt>
      <trkpt lat="42.466378" lon="8.90949">
        <ele>1575.8</ele>
        <time>2022-09-08T10:38:58Z</time>
      </trkpt>
      <trkpt lat="42.466365" lon="8.909475">
        <ele>1574.6</ele>
        <time>2022-09-08T10:39:02Z</time>
      </trkpt>
      <trkpt lat="42.466335" lon="8.909482">
        <ele>1573.6</ele>
        <time>2022-09-08T10:39:12Z</time>
      </trkpt>
      <trkpt lat="42.466333" lon="8.909452">
        <ele>1573.0</ele>
        <time>2022-09-08T10:39:18Z</time>
      </trkpt>
      <trkpt lat="42.466308" lon="8.909438">
        <ele>1571.0</ele>
        <time>2022-09-08T10:39:28Z</time>
      </trkpt>
      <trkpt lat="42.466308" lon="8.909433">
        <ele>1571.0</ele>
        <time>2022-09-08T10:39:30Z</time>
      </trkpt>
      <trkpt lat="42.466325" lon="8.909353">
        <ele>1570.2</ele>
        <time>2022-09-08T10:39:38Z</time>
      </trkpt>
      <trkpt lat="42.466303" lon="8.909317">
        <ele>1569.0</ele>
        <time>2022-09-08T10:39:45Z</time>
      </trkpt>
      <trkpt lat="42.466292" lon="8.909277">
        <ele>1568.0</ele>
        <time>2022-09-08T10:39:51Z</time>
      </trkpt>
      <trkpt lat="42.466322" lon="8.909198">
        <ele>1561.8</ele>
        <time>2022-09-08T10:40:51Z</time>
      </trkpt>
      <trkpt lat="42.466342" lon="8.909155">
        <ele>1559.8</ele>
        <time>2022-09-08T10:41:10Z</time>
      </trkpt>
      <trkpt lat="42.466353" lon="8.909143">
        <ele>1559.8</ele>
        <time>2022-09-08T10:41:21Z</time>
      </trkpt>
      <trkpt lat="42.466403" lon="8.909005">
        <ele>1560.2</ele>
        <time>2022-09-08T10:41:45Z</time>
      </trkpt>
      <trkpt lat="42.4664" lon="8.908987">
        <ele>1560.2</ele>
        <time>2022-09-08T10:41:46Z</time>
      </trkpt>
      <trkpt lat="42.466352" lon="8.908873">
        <ele>1559.2</ele>
        <time>2022-09-08T10:41:52Z</time>
      </trkpt>
      <trkpt lat="42.466185" lon="8.908563">
        <ele>1559.0</ele>
        <time>2022-09-08T10:42:10Z</time>
      </trkpt>
      <trkpt lat="42.466133" lon="8.908447">
        <ele>1557.6</ele>
        <time>2022-09-08T10:42:16Z</time>
      </trkpt>
      <trkpt lat="42.46615" lon="8.908397">
        <ele>1557.6</ele>
        <time>2022-09-08T10:42:20Z</time>
      </trkpt>
      <trkpt lat="42.46617" lon="8.908298">
        <ele>1557.4</ele>
        <time>2022-09-08T10:42:28Z</time>
      </trkpt>
      <trkpt lat="42.466223" lon="8.908255">
        <ele>1555.4</ele>
        <time>2022-09-08T10:42:42Z</time>
      </trkpt>
      <trkpt lat="42.466275" lon="8.908243">
        <ele>1554.6</ele>
        <time>2022-09-08T10:42:51Z</time>
      </trkpt>
      <trkpt lat="42.466358" lon="8.90822">
        <ele>1555.2</ele>
        <time>2022-09-08T10:43:01Z</time>
      </trkpt>
      <trkpt lat="42.466385" lon="8.908222">
        <ele>1555.2</ele>
        <time>2022-09-08T10:43:04Z</time>
      </trkpt>
      <trkpt lat="42.4664" lon="8.90819">
        <ele>1554.6</ele>
        <time>2022-09-08T10:43:10Z</time>
      </trkpt>
      <trkpt lat="42.46642" lon="8.908163">
        <ele>1555.0</ele>
        <time>2022-09-08T10:43:21Z</time>
      </trkpt>
      <trkpt lat="42.46636" lon="8.908113">
        <ele>1555.6</ele>
        <time>2022-09-08T10:43:32Z</time>
      </trkpt>
      <trkpt lat="42.466318" lon="8.908087">
        <ele>1555.0</ele>
        <time>2022-09-08T10:43:39Z</time>
      </trkpt>
      <trkpt lat="42.46622" lon="8.908075">
        <ele>1557.4</ele>
        <time>2022-09-08T10:43:54Z</time>
      </trkpt>
      <trkpt lat="42.466205" lon="8.908115">
        <ele>1558.4</ele>
        <time>2022-09-08T10:44:02Z</time>
      </trkpt>
      <trkpt lat="42.466198" lon="8.908117">
        <ele>1558.8</ele>
        <time>2022-09-08T10:44:03Z</time>
      </trkpt>
      <trkpt lat="42.466173" lon="8.908062">
        <ele>1560.0</ele>
        <time>2022-09-08T10:44:12Z</time>
      </trkpt>
      <trkpt lat="42.466178" lon="8.907958">
        <ele>1561.6</ele>
        <time>2022-09-08T10:44:26Z</time>
      </trkpt>
      <trkpt lat="42.466167" lon="8.907912">
        <ele>1562.0</ele>
        <time>2022-09-08T10:44:34Z</time>
      </trkpt>
      <trkpt lat="42.466138" lon="8.907552">
        <ele>1561.8</ele>
        <time>2022-09-08T10:45:06Z</time>
      </trkpt>
      <trkpt lat="42.466135" lon="8.907543">
        <ele>1561.8</ele>
        <time>2022-09-08T10:45:07Z</time>
      </trkpt>
      <trkpt lat="42.466095" lon="8.90747">
        <ele>1563.0</ele>
        <time>2022-09-08T10:45:21Z</time>
      </trkpt>
      <trkpt lat="42.46609" lon="8.907432">
        <ele>1564.0</ele>
        <time>2022-09-08T10:45:28Z</time>
      </trkpt>
      <trkpt lat="42.466065" lon="8.907397">
        <ele>1564.0</ele>
        <time>2022-09-08T10:45:33Z</time>
      </trkpt>
      <trkpt lat="42.466045" lon="8.907365">
        <ele>1566.0</ele>
        <time>2022-09-08T10:45:49Z</time>
      </trkpt>
      <trkpt lat="42.466025" lon="8.907292">
        <ele>1566.6</ele>
        <time>2022-09-08T10:45:56Z</time>
      </trkpt>
      <trkpt lat="42.465922" lon="8.907242">
        <ele>1566.2</ele>
        <time>2022-09-08T10:46:12Z</time>
      </trkpt>
      <trkpt lat="42.465917" lon="8.907235">
        <ele>1566.2</ele>
        <time>2022-09-08T10:46:13Z</time>
      </trkpt>
      <trkpt lat="42.46588" lon="8.907175">
        <ele>1566.0</ele>
        <time>2022-09-08T10:46:20Z</time>
      </trkpt>
      <trkpt lat="42.465842" lon="8.907087">
        <ele>1565.6</ele>
        <time>2022-09-08T10:46:30Z</time>
      </trkpt>
      <trkpt lat="42.465818" lon="8.907025">
        <ele>1565.2</ele>
        <time>2022-09-08T10:46:37Z</time>
      </trkpt>
      <trkpt lat="42.465783" lon="8.907013">
        <ele>1565.0</ele>
        <time>2022-09-08T10:46:41Z</time>
      </trkpt>
      <trkpt lat="42.465767" lon="8.907012">
        <ele>1564.4</ele>
        <time>2022-09-08T10:46:43Z</time>
      </trkpt>
      <trkpt lat="42.465475" lon="8.906782">
        <ele>1557.6</ele>
        <time>2022-09-08T10:47:25Z</time>
      </trkpt>
      <trkpt lat="42.465437" lon="8.906727">
        <ele>1556.8</ele>
        <time>2022-09-08T10:47:32Z</time>
      </trkpt>
      <trkpt lat="42.465435" lon="8.906715">
        <ele>1556.8</ele>
        <time>2022-09-08T10:47:33Z</time>
      </trkpt>
      <trkpt lat="42.465377" lon="8.906752">
        <ele>1555.2</ele>
        <time>2022-09-08T10:47:57Z</time>
      </trkpt>
      <trkpt lat="42.465295" lon="8.906683">
        <ele>1554.4</ele>
        <time>2022-09-08T10:48:21Z</time>
      </trkpt>
      <trkpt lat="42.465245" lon="8.906672">
        <ele>1552.6</ele>
        <time>2022-09-08T10:48:44Z</time>
      </trkpt>
      <trkpt lat="42.465247" lon="8.906672">
        <ele>1550.6</ele>
        <time>2022-09-08T10:51:42Z</time>
      </trkpt>
      <trkpt lat="42.465233" lon="8.906753">
        <ele>1550.4</ele>
        <time>2022-09-08T10:51:54Z</time>
      </trkpt>
      <trkpt lat="42.465227" lon="8.906758">
        <ele>1550.2</ele>
        <time>2022-09-08T10:51:57Z</time>
      </trkpt>
      <trkpt lat="42.465165" lon="8.906808">
        <ele>1549.8</ele>
        <time>2022-09-08T10:52:04Z</time>
      </trkpt>
      <trkpt lat="42.465083" lon="8.906907">
        <ele>1549.8</ele>
        <time>2022-09-08T10:52:15Z</time>
      </trkpt>
      <trkpt lat="42.464985" lon="8.906827">
        <ele>1550.0</ele>
        <time>2022-09-08T10:52:57Z</time>
      </trkpt>
      <trkpt lat="42.464907" lon="8.906857">
        <ele>1549.6</ele>
        <time>2022-09-08T10:53:05Z</time>
      </trkpt>
      <trkpt lat="42.464892" lon="8.906898">
        <ele>1549.4</ele>
        <time>2022-09-08T10:53:18Z</time>
      </trkpt>
      <trkpt lat="42.464883" lon="8.906898">
        <ele>1549.6</ele>
        <time>2022-09-08T10:53:20Z</time>
      </trkpt>
      <trkpt lat="42.464853" lon="8.906905">
        <ele>1551.0</ele>
        <time>2022-09-08T10:53:28Z</time>
      </trkpt>
      <trkpt lat="42.464783" lon="8.906982">
        <ele>1552.8</ele>
        <time>2022-09-08T10:53:42Z</time>
      </trkpt>
      <trkpt lat="42.464713" lon="8.907083">
        <ele>1554.2</ele>
        <time>2022-09-08T10:53:56Z</time>
      </trkpt>
      <trkpt lat="42.464703" lon="8.907075">
        <ele>1554.4</ele>
        <time>2022-09-08T10:53:58Z</time>
      </trkpt>
      <trkpt lat="42.464663" lon="8.90697">
        <ele>1555.0</ele>
        <time>2022-09-08T10:54:14Z</time>
      </trkpt>
      <trkpt lat="42.464452" lon="8.906963">
        <ele>1554.2</ele>
        <time>2022-09-08T10:54:30Z</time>
      </trkpt>
      <trkpt lat="42.464435" lon="8.907007">
        <ele>1553.8</ele>
        <time>2022-09-08T10:54:33Z</time>
      </trkpt>
      <trkpt lat="42.464433" lon="8.907082">
        <ele>1553.4</ele>
        <time>2022-09-08T10:54:41Z</time>
      </trkpt>
      <trkpt lat="42.464538" lon="8.907185">
        <ele>1554.6</ele>
        <time>2022-09-08T10:54:57Z</time>
      </trkpt>
      <trkpt lat="42.464578" lon="8.907215">
        <ele>1555.8</ele>
        <time>2022-09-08T10:55:02Z</time>
      </trkpt>
      <trkpt lat="42.464623" lon="8.907215">
        <ele>1556.8</ele>
        <time>2022-09-08T10:55:07Z</time>
      </trkpt>
      <trkpt lat="42.464593" lon="8.90719">
        <ele>1557.8</ele>
        <time>2022-09-08T10:55:12Z</time>
      </trkpt>
      <trkpt lat="42.464522" lon="8.906987">
        <ele>1556.6</ele>
        <time>2022-09-08T10:55:36Z</time>
      </trkpt>
      <trkpt lat="42.46434" lon="8.906922">
        <ele>1554.4</ele>
        <time>2022-09-08T10:55:53Z</time>
      </trkpt>
      <trkpt lat="42.46424" lon="8.906897">
        <ele>1554.4</ele>
        <time>2022-09-08T10:56:03Z</time>
      </trkpt>
      <trkpt lat="42.464155" lon="8.906888">
        <ele>1553.8</ele>
        <time>2022-09-08T10:56:11Z</time>
      </trkpt>
      <trkpt lat="42.464125" lon="8.906878">
        <ele>1553.8</ele>
        <time>2022-09-08T10:56:14Z</time>
      </trkpt>
      <trkpt lat="42.464085" lon="8.90681">
        <ele>1554.2</ele>
        <time>2022-09-08T10:56:20Z</time>
      </trkpt>
      <trkpt lat="42.464003" lon="8.906795">
        <ele>1555.2</ele>
        <time>2022-09-08T10:56:29Z</time>
      </trkpt>
      <trkpt lat="42.463965" lon="8.906778">
        <ele>1555.2</ele>
        <time>2022-09-08T10:56:33Z</time>
      </trkpt>
      <trkpt lat="42.463917" lon="8.906812">
        <ele>1555.8</ele>
        <time>2022-09-08T10:56:40Z</time>
      </trkpt>
      <trkpt lat="42.463865" lon="8.906903">
        <ele>1556.0</ele>
        <time>2022-09-08T10:56:51Z</time>
      </trkpt>
      <trkpt lat="42.463835" lon="8.90697">
        <ele>1556.2</ele>
        <time>2022-09-08T10:56:59Z</time>
      </trkpt>
      <trkpt lat="42.46385" lon="8.907055">
        <ele>1556.4</ele>
        <time>2022-09-08T10:57:10Z</time>
      </trkpt>
      <trkpt lat="42.463818" lon="8.90712">
        <ele>1556.4</ele>
        <time>2022-09-08T10:57:18Z</time>
      </trkpt>
      <trkpt lat="42.463802" lon="8.90724">
        <ele>1556.6</ele>
        <time>2022-09-08T10:57:34Z</time>
      </trkpt>
      <trkpt lat="42.463802" lon="8.907252">
        <ele>1556.6</ele>
        <time>2022-09-08T10:57:35Z</time>
      </trkpt>
      <trkpt lat="42.463788" lon="8.90723">
        <ele>1556.4</ele>
        <time>2022-09-08T10:57:37Z</time>
      </trkpt>
      <trkpt lat="42.463767" lon="8.907172">
        <ele>1556.6</ele>
        <time>2022-09-08T10:57:42Z</time>
      </trkpt>
      <trkpt lat="42.463762" lon="8.90704">
        <ele>1557.0</ele>
        <time>2022-09-08T10:57:54Z</time>
      </trkpt>
      <trkpt lat="42.463743" lon="8.906985">
        <ele>1557.4</ele>
        <time>2022-09-08T10:58:07Z</time>
      </trkpt>
      <trkpt lat="42.463725" lon="8.90692">
        <ele>1557.8</ele>
        <time>2022-09-08T10:58:42Z</time>
      </trkpt>
      <trkpt lat="42.462465" lon="8.906332">
        <ele>1572.2</ele>
        <time>2022-09-08T11:09:29Z</time>
      </trkpt>
      <trkpt lat="42.462475" lon="8.906342">
        <ele>1572.4</ele>
        <time>2022-09-08T11:09:32Z</time>
      </trkpt>
      <trkpt lat="42.462592" lon="8.906363">
        <ele>1572.8</ele>
        <time>2022-09-08T11:09:36Z</time>
      </trkpt>
      <trkpt lat="42.46271" lon="8.906517">
        <ele>1573.2</ele>
        <time>2022-09-08T11:09:42Z</time>
      </trkpt>
      <trkpt lat="42.462798" lon="8.906603">
        <ele>1573.6</ele>
        <time>2022-09-08T11:09:46Z</time>
      </trkpt>
      <trkpt lat="42.463017" lon="8.90669">
        <ele>1574.8</ele>
        <time>2022-09-08T11:09:56Z</time>
      </trkpt>
      <trkpt lat="42.46356" lon="8.907">
        <ele>1581.0</ele>
        <time>2022-09-08T11:10:38Z</time>
      </trkpt>
      <trkpt lat="42.463833" lon="8.907153">
        <ele>1583.2</ele>
        <time>2022-09-08T11:10:58Z</time>
      </trkpt>
      <trkpt lat="42.463847" lon="8.907162">
        <ele>1583.6</ele>
        <time>2022-09-08T11:10:59Z</time>
      </trkpt>
      <trkpt lat="42.46378" lon="8.907208">
        <ele>1584.4</ele>
        <time>2022-09-08T11:11:05Z</time>
      </trkpt>
      <trkpt lat="42.463742" lon="8.907237">
        <ele>1584.8</ele>
        <time>2022-09-08T11:11:08Z</time>
      </trkpt>
      <trkpt lat="42.463657" lon="8.907245">
        <ele>1585.0</ele>
        <time>2022-09-08T11:11:14Z</time>
      </trkpt>
      <trkpt lat="42.463598" lon="8.907167">
        <ele>1585.4</ele>
        <time>2022-09-08T11:11:18Z</time>
      </trkpt>
      <trkpt lat="42.463545" lon="8.907115">
        <ele>1586.2</ele>
        <time>2022-09-08T11:11:22Z</time>
      </trkpt>
      <trkpt lat="42.463408" lon="8.90706">
        <ele>1587.2</ele>
        <time>2022-09-08T11:11:30Z</time>
      </trkpt>
      <trkpt lat="42.46334" lon="8.90701">
        <ele>1587.6</ele>
        <time>2022-09-08T11:11:34Z</time>
      </trkpt>
      <trkpt lat="42.46331" lon="8.907007">
        <ele>1588.0</ele>
        <time>2022-09-08T11:11:38Z</time>
      </trkpt>
      <trkpt lat="42.463275" lon="8.907042">
        <ele>1589.6</ele>
        <time>2022-09-08T11:11:46Z</time>
      </trkpt>
      <trkpt lat="42.463278" lon="8.90713">
        <ele>1590.6</ele>
        <time>2022-09-08T11:12:10Z</time>
      </trkpt>
      <trkpt lat="42.463275" lon="8.907133">
        <ele>1591.0</ele>
        <time>2022-09-08T11:12:13Z</time>
      </trkpt>
      <trkpt lat="42.463095" lon="8.906935">
        <ele>1606.0</ele>
        <time>2022-09-08T11:14:40Z</time>
      </trkpt>
      <trkpt lat="42.463012" lon="8.906822">
        <ele>1606.8</ele>
        <time>2022-09-08T11:14:48Z</time>
      </trkpt>
      <trkpt lat="42.462842" lon="8.906652">
        <ele>1608.0</ele>
        <time>2022-09-08T11:15:02Z</time>
      </trkpt>
      <trkpt lat="42.462788" lon="8.906608">
        <ele>1608.4</ele>
        <time>2022-09-08T11:15:14Z</time>
      </trkpt>
      <trkpt lat="42.462762" lon="8.906567">
        <ele>1609.8</ele>
        <time>2022-09-08T11:15:25Z</time>
      </trkpt>
      <trkpt lat="42.462758" lon="8.906527">
        <ele>1612.4</ele>
        <time>2022-09-08T11:15:47Z</time>
      </trkpt>
      <trkpt lat="42.462725" lon="8.906525">
        <ele>1612.6</ele>
        <time>2022-09-08T11:16:00Z</time>
      </trkpt>
      <trkpt lat="42.46257" lon="8.906555">
        <ele>1614.0</ele>
        <time>2022-09-08T11:16:13Z</time>
      </trkpt>
      <trkpt lat="42.462565" lon="8.906558">
        <ele>1614.0</ele>
        <time>2022-09-08T11:16:14Z</time>
      </trkpt>
      <trkpt lat="42.462543" lon="8.90656">
        <ele>1615.0</ele>
        <time>2022-09-08T11:16:19Z</time>
      </trkpt>
      <trkpt lat="42.462483" lon="8.90652">
        <ele>1614.2</ele>
        <time>2022-09-08T11:17:06Z</time>
      </trkpt>
      <trkpt lat="42.462452" lon="8.906505">
        <ele>1614.2</ele>
        <time>2022-09-08T11:17:27Z</time>
      </trkpt>
      <trkpt lat="42.462368" lon="8.906478">
        <ele>1615.4</ele>
        <time>2022-09-08T11:18:17Z</time>
      </trkpt>
      <trkpt lat="42.462325" lon="8.906498">
        <ele>1615.8</ele>
        <time>2022-09-08T11:18:22Z</time>
      </trkpt>
      <trkpt lat="42.462315" lon="8.906543">
        <ele>1615.8</ele>
        <time>2022-09-08T11:18:25Z</time>
      </trkpt>
      <trkpt lat="42.4623" lon="8.906603">
        <ele>1616.0</ele>
        <time>2022-09-08T11:18:33Z</time>
      </trkpt>
      <trkpt lat="42.462295" lon="8.90675">
        <ele>1617.2</ele>
        <time>2022-09-08T11:18:51Z</time>
      </trkpt>
      <trkpt lat="42.462292" lon="8.906755">
        <ele>1617.4</ele>
        <time>2022-09-08T11:18:52Z</time>
      </trkpt>
      <trkpt lat="42.46218" lon="8.90672">
        <ele>1621.2</ele>
        <time>2022-09-08T11:19:16Z</time>
      </trkpt>
      <trkpt lat="42.46213" lon="8.906715">
        <ele>1622.0</ele>
        <time>2022-09-08T11:19:25Z</time>
      </trkpt>
      <trkpt lat="42.46209" lon="8.906705">
        <ele>1623.4</ele>
        <time>2022-09-08T11:19:35Z</time>
      </trkpt>
      <trkpt lat="42.46207" lon="8.90669">
        <ele>1624.0</ele>
        <time>2022-09-08T11:19:40Z</time>
      </trkpt>
      <trkpt lat="42.462052" lon="8.906685">
        <ele>1624.6</ele>
        <time>2022-09-08T11:19:44Z</time>
      </trkpt>
      <trkpt lat="42.462023" lon="8.906703">
        <ele>1625.0</ele>
        <time>2022-09-08T11:19:51Z</time>
      </trkpt>
      <trkpt lat="42.462005" lon="8.906755">
        <ele>1625.8</ele>
        <time>2022-09-08T11:20:00Z</time>
      </trkpt>
      <trkpt lat="42.461962" lon="8.906768">
        <ele>1626.4</ele>
        <time>2022-09-08T11:20:15Z</time>
      </trkpt>
      <trkpt lat="42.461855" lon="8.90674">
        <ele>1629.0</ele>
        <time>2022-09-08T11:21:25Z</time>
      </trkpt>
      <trkpt lat="42.461738" lon="8.906703">
        <ele>1631.8</ele>
        <time>2022-09-08T11:22:13Z</time>
      </trkpt>
      <trkpt lat="42.461737" lon="8.906703">
        <ele>1631.8</ele>
        <time>2022-09-08T11:22:14Z</time>
      </trkpt>
      <trkpt lat="42.461495" lon="8.906702">
        <ele>1637.0</ele>
        <time>2022-09-08T11:24:39Z</time>
      </trkpt>
      <trkpt lat="42.46146" lon="8.906787">
        <ele>1640.4</ele>
        <time>2022-09-08T11:25:39Z</time>
      </trkpt>
      <trkpt lat="42.461437" lon="8.906775">
        <ele>1640.4</ele>
        <time>2022-09-08T11:25:44Z</time>
      </trkpt>
      <trkpt lat="42.461267" lon="8.906785">
        <ele>1640.4</ele>
        <time>2022-09-08T11:25:54Z</time>
      </trkpt>
      <trkpt lat="42.461202" lon="8.906755">
        <ele>1640.4</ele>
        <time>2022-09-08T11:25:58Z</time>
      </trkpt>
      <trkpt lat="42.461123" lon="8.906817">
        <ele>1641.2</ele>
        <time>2022-09-08T11:26:06Z</time>
      </trkpt>
      <trkpt lat="42.461092" lon="8.906875">
        <ele>1642.0</ele>
        <time>2022-09-08T11:26:10Z</time>
      </trkpt>
      <trkpt lat="42.461055" lon="8.906923">
        <ele>1642.2</ele>
        <time>2022-09-08T11:26:15Z</time>
      </trkpt>
      <trkpt lat="42.461028" lon="8.90693">
        <ele>1642.2</ele>
        <time>2022-09-08T11:26:17Z</time>
      </trkpt>
      <trkpt lat="42.461015" lon="8.90693">
        <ele>1642.6</ele>
        <time>2022-09-08T11:26:18Z</time>
      </trkpt>
      <trkpt lat="42.46094" lon="8.906853">
        <ele>1643.6</ele>
        <time>2022-09-08T11:26:28Z</time>
      </trkpt>
      <trkpt lat="42.460908" lon="8.906828">
        <ele>1644.2</ele>
        <time>2022-09-08T11:26:31Z</time>
      </trkpt>
      <trkpt lat="42.460888" lon="8.906842">
        <ele>1644.2</ele>
        <time>2022-09-08T11:26:47Z</time>
      </trkpt>
      <trkpt lat="42.460885" lon="8.906853">
        <ele>1644.0</ele>
        <time>2022-09-08T11:26:51Z</time>
      </trkpt>
      <trkpt lat="42.460855" lon="8.90685">
        <ele>1644.6</ele>
        <time>2022-09-08T11:26:57Z</time>
      </trkpt>
      <trkpt lat="42.460773" lon="8.906923">
        <ele>1644.6</ele>
        <time>2022-09-08T11:27:12Z</time>
      </trkpt>
      <trkpt lat="42.460745" lon="8.906908">
        <ele>1645.4</ele>
        <time>2022-09-08T11:27:22Z</time>
      </trkpt>
      <trkpt lat="42.460727" lon="8.906872">
        <ele>1646.2</ele>
        <time>2022-09-08T11:27:39Z</time>
      </trkpt>
      <trkpt lat="42.460712" lon="8.90679">
        <ele>1646.2</ele>
        <time>2022-09-08T11:27:51Z</time>
      </trkpt>
      <trkpt lat="42.460705" lon="8.906785">
        <ele>1646.2</ele>
        <time>2022-09-08T11:27:52Z</time>
      </trkpt>
      <trkpt lat="42.460663" lon="8.906728">
        <ele>1646.0</ele>
        <time>2022-09-08T11:27:59Z</time>
      </trkpt>
      <trkpt lat="42.460608" lon="8.9067">
        <ele>1644.8</ele>
        <time>2022-09-08T11:28:10Z</time>
      </trkpt>
      <trkpt lat="42.460527" lon="8.90662">
        <ele>1643.4</ele>
        <time>2022-09-08T11:28:24Z</time>
      </trkpt>
      <trkpt lat="42.46048" lon="8.906578">
        <ele>1642.8</ele>
        <time>2022-09-08T11:28:30Z</time>
      </trkpt>
      <trkpt lat="42.46048" lon="8.906565">
        <ele>1642.8</ele>
        <time>2022-09-08T11:28:32Z</time>
      </trkpt>
      <trkpt lat="42.460502" lon="8.906523">
        <ele>1642.6</ele>
        <time>2022-09-08T11:28:55Z</time>
      </trkpt>
      <trkpt lat="42.460477" lon="8.906482">
        <ele>1642.6</ele>
        <time>2022-09-08T11:29:00Z</time>
      </trkpt>
      <trkpt lat="42.460435" lon="8.906442">
        <ele>1642.4</ele>
        <time>2022-09-08T11:29:07Z</time>
      </trkpt>
      <trkpt lat="42.46031" lon="8.906405">
        <ele>1642.0</ele>
        <time>2022-09-08T11:29:24Z</time>
      </trkpt>
      <trkpt lat="42.46026" lon="8.906433">
        <ele>1641.6</ele>
        <time>2022-09-08T11:29:31Z</time>
      </trkpt>
      <trkpt lat="42.460215" lon="8.906445">
        <ele>1642.4</ele>
        <time>2022-09-08T11:29:43Z</time>
      </trkpt>
      <trkpt lat="42.460162" lon="8.906435">
        <ele>1643.0</ele>
        <time>2022-09-08T11:29:51Z</time>
      </trkpt>
      <trkpt lat="42.460123" lon="8.906372">
        <ele>1644.0</ele>
        <time>2022-09-08T11:30:06Z</time>
      </trkpt>
      <trkpt lat="42.460122" lon="8.906362">
        <ele>1644.0</ele>
        <time>2022-09-08T11:30:07Z</time>
      </trkpt>
      <trkpt lat="42.460162" lon="8.906302">
        <ele>1644.0</ele>
        <time>2022-09-08T11:30:12Z</time>
      </trkpt>
      <trkpt lat="42.460212" lon="8.906228">
        <ele>1643.8</ele>
        <time>2022-09-08T11:30:18Z</time>
      </trkpt>
      <trkpt lat="42.460227" lon="8.906145">
        <ele>1643.2</ele>
        <time>2022-09-08T11:30:26Z</time>
      </trkpt>
      <trkpt lat="42.460288" lon="8.906065">
        <ele>1644.2</ele>
        <time>2022-09-08T11:30:56Z</time>
      </trkpt>
      <trkpt lat="42.460287" lon="8.906057">
        <ele>1644.2</ele>
        <time>2022-09-08T11:30:57Z</time>
      </trkpt>
      <trkpt lat="42.460253" lon="8.906">
        <ele>1644.6</ele>
        <time>2022-09-08T11:31:05Z</time>
      </trkpt>
      <trkpt lat="42.460202" lon="8.905893">
        <ele>1645.6</ele>
        <time>2022-09-08T11:31:21Z</time>
      </trkpt>
      <trkpt lat="42.460188" lon="8.90585">
        <ele>1646.6</ele>
        <time>2022-09-08T11:31:30Z</time>
      </trkpt>
      <trkpt lat="42.460187" lon="8.905843">
        <ele>1646.6</ele>
        <time>2022-09-08T11:31:34Z</time>
      </trkpt>
      <trkpt lat="42.460168" lon="8.90576">
        <ele>1646.6</ele>
        <time>2022-09-08T11:31:45Z</time>
      </trkpt>
      <trkpt lat="42.460112" lon="8.905573">
        <ele>1647.4</ele>
        <time>2022-09-08T11:32:24Z</time>
      </trkpt>
      <trkpt lat="42.460108" lon="8.905525">
        <ele>1647.6</ele>
        <time>2022-09-08T11:32:28Z</time>
      </trkpt>
      <trkpt lat="42.460133" lon="8.90525">
        <ele>1647.4</ele>
        <time>2022-09-08T11:32:42Z</time>
      </trkpt>
      <trkpt lat="42.460202" lon="8.905148">
        <ele>1647.2</ele>
        <time>2022-09-08T11:32:50Z</time>
      </trkpt>
      <trkpt lat="42.460185" lon="8.904897">
        <ele>1646.8</ele>
        <time>2022-09-08T11:33:02Z</time>
      </trkpt>
      <trkpt lat="42.460168" lon="8.904788">
        <ele>1645.4</ele>
        <time>2022-09-08T11:33:14Z</time>
      </trkpt>
      <trkpt lat="42.460165" lon="8.904777">
        <ele>1645.4</ele>
        <time>2022-09-08T11:33:15Z</time>
      </trkpt>
      <trkpt lat="42.460162" lon="8.904768">
        <ele>1645.4</ele>
        <time>2022-09-08T11:33:16Z</time>
      </trkpt>
      <trkpt lat="42.460075" lon="8.90454">
        <ele>1644.0</ele>
        <time>2022-09-08T11:33:37Z</time>
      </trkpt>
      <trkpt lat="42.460075" lon="8.904492">
        <ele>1643.2</ele>
        <time>2022-09-08T11:33:49Z</time>
      </trkpt>
      <trkpt lat="42.46004" lon="8.904415">
        <ele>1643.2</ele>
        <time>2022-09-08T11:33:57Z</time>
      </trkpt>
      <trkpt lat="42.460003" lon="8.904353">
        <ele>1642.6</ele>
        <time>2022-09-08T11:34:06Z</time>
      </trkpt>
      <trkpt lat="42.459872" lon="8.90385">
        <ele>1643.0</ele>
        <time>2022-09-08T11:35:27Z</time>
      </trkpt>
      <trkpt lat="42.459885" lon="8.90385">
        <ele>1642.6</ele>
        <time>2022-09-08T11:35:33Z</time>
      </trkpt>
      <trkpt lat="42.459865" lon="8.903835">
        <ele>1642.2</ele>
        <time>2022-09-08T11:35:40Z</time>
      </trkpt>
      <trkpt lat="42.459845" lon="8.903762">
        <ele>1641.4</ele>
        <time>2022-09-08T11:35:53Z</time>
      </trkpt>
      <trkpt lat="42.459832" lon="8.903738">
        <ele>1641.2</ele>
        <time>2022-09-08T11:35:58Z</time>
      </trkpt>
      <trkpt lat="42.459827" lon="8.903735">
        <ele>1641.0</ele>
        <time>2022-09-08T11:36:00Z</time>
      </trkpt>
      <trkpt lat="42.459813" lon="8.903725">
        <ele>1640.8</ele>
        <time>2022-09-08T11:36:05Z</time>
      </trkpt>
      <trkpt lat="42.459813" lon="8.90372">
        <ele>1640.8</ele>
        <time>2022-09-08T11:36:06Z</time>
      </trkpt>
      <trkpt lat="42.459815" lon="8.90371">
        <ele>1640.8</ele>
        <time>2022-09-08T11:36:08Z</time>
      </trkpt>
      <trkpt lat="42.459808" lon="8.903672">
        <ele>1640.8</ele>
        <time>2022-09-08T11:36:11Z</time>
      </trkpt>
      <trkpt lat="42.459807" lon="8.90366">
        <ele>1640.8</ele>
        <time>2022-09-08T11:36:12Z</time>
      </trkpt>
      <trkpt lat="42.459793" lon="8.903613">
        <ele>1640.8</ele>
        <time>2022-09-08T11:36:16Z</time>
      </trkpt>
      <trkpt lat="42.459723" lon="8.903505">
        <ele>1640.2</ele>
        <time>2022-09-08T11:36:24Z</time>
      </trkpt>
      <trkpt lat="42.459667" lon="8.903398">
        <ele>1640.2</ele>
        <time>2022-09-08T11:36:33Z</time>
      </trkpt>
      <trkpt lat="42.459623" lon="8.903305">
        <ele>1639.6</ele>
        <time>2022-09-08T11:36:42Z</time>
      </trkpt>
      <trkpt lat="42.45958" lon="8.903232">
        <ele>1639.4</ele>
        <time>2022-09-08T11:36:50Z</time>
      </trkpt>
      <trkpt lat="42.459577" lon="8.903222">
        <ele>1639.4</ele>
        <time>2022-09-08T11:36:52Z</time>
      </trkpt>
      <trkpt lat="42.459545" lon="8.903177">
        <ele>1640.0</ele>
        <time>2022-09-08T11:36:58Z</time>
      </trkpt>
      <trkpt lat="42.459533" lon="8.9032">
        <ele>1640.8</ele>
        <time>2022-09-08T11:37:08Z</time>
      </trkpt>
      <trkpt lat="42.459553" lon="8.903263">
        <ele>1643.0</ele>
        <time>2022-09-08T11:37:25Z</time>
      </trkpt>
      <trkpt lat="42.459553" lon="8.903253">
        <ele>1643.4</ele>
        <time>2022-09-08T11:37:30Z</time>
      </trkpt>
      <trkpt lat="42.459535" lon="8.903247">
        <ele>1644.2</ele>
        <time>2022-09-08T11:37:36Z</time>
      </trkpt>
      <trkpt lat="42.459497" lon="8.903245">
        <ele>1645.4</ele>
        <time>2022-09-08T11:37:47Z</time>
      </trkpt>
      <trkpt lat="42.459488" lon="8.90325">
        <ele>1645.6</ele>
        <time>2022-09-08T11:37:50Z</time>
      </trkpt>
      <trkpt lat="42.459443" lon="8.903215">
        <ele>1646.4</ele>
        <time>2022-09-08T11:37:56Z</time>
      </trkpt>
      <trkpt lat="42.459372" lon="8.903107">
        <ele>1648.0</ele>
        <time>2022-09-08T11:38:09Z</time>
      </trkpt>
      <trkpt lat="42.459302" lon="8.90307">
        <ele>1648.2</ele>
        <time>2022-09-08T11:38:18Z</time>
      </trkpt>
      <trkpt lat="42.459293" lon="8.903058">
        <ele>1648.2</ele>
        <time>2022-09-08T11:38:19Z</time>
      </trkpt>
      <trkpt lat="42.459242" lon="8.903042">
        <ele>1648.2</ele>
        <time>2022-09-08T11:38:25Z</time>
      </trkpt>
      <trkpt lat="42.459193" lon="8.903037">
        <ele>1648.0</ele>
        <time>2022-09-08T11:38:31Z</time>
      </trkpt>
      <trkpt lat="42.459113" lon="8.902982">
        <ele>1647.2</ele>
        <time>2022-09-08T11:38:45Z</time>
      </trkpt>
      <trkpt lat="42.459072" lon="8.902938">
        <ele>1646.2</ele>
        <time>2022-09-08T11:39:01Z</time>
      </trkpt>
      <trkpt lat="42.459067" lon="8.902937">
        <ele>1645.8</ele>
        <time>2022-09-08T11:39:02Z</time>
      </trkpt>
      <trkpt lat="42.459012" lon="8.90293">
        <ele>1644.2</ele>
        <time>2022-09-08T11:39:13Z</time>
      </trkpt>
      <trkpt lat="42.458983" lon="8.902902">
        <ele>1643.8</ele>
        <time>2022-09-08T11:39:17Z</time>
      </trkpt>
      <trkpt lat="42.458927" lon="8.902877">
        <ele>1643.2</ele>
        <time>2022-09-08T11:39:24Z</time>
      </trkpt>
      <trkpt lat="42.45888" lon="8.902892">
        <ele>1642.4</ele>
        <time>2022-09-08T11:39:31Z</time>
      </trkpt>
      <trkpt lat="42.458843" lon="8.902935">
        <ele>1642.0</ele>
        <time>2022-09-08T11:39:38Z</time>
      </trkpt>
      <trkpt lat="42.45882" lon="8.902957">
        <ele>1641.4</ele>
        <time>2022-09-08T11:39:43Z</time>
      </trkpt>
      <trkpt lat="42.458797" lon="8.902955">
        <ele>1641.4</ele>
        <time>2022-09-08T11:39:47Z</time>
      </trkpt>
      <trkpt lat="42.458765" lon="8.902902">
        <ele>1641.2</ele>
        <time>2022-09-08T11:39:54Z</time>
      </trkpt>
      <trkpt lat="42.45874" lon="8.902862">
        <ele>1640.6</ele>
        <time>2022-09-08T11:39:59Z</time>
      </trkpt>
      <trkpt lat="42.458707" lon="8.902772">
        <ele>1639.8</ele>
        <time>2022-09-08T11:40:07Z</time>
      </trkpt>
      <trkpt lat="42.458687" lon="8.902665">
        <ele>1638.4</ele>
        <time>2022-09-08T11:40:28Z</time>
      </trkpt>
      <trkpt lat="42.458685" lon="8.902657">
        <ele>1638.0</ele>
        <time>2022-09-08T11:40:31Z</time>
      </trkpt>
      <trkpt lat="42.458563" lon="8.902568">
        <ele>1628.8</ele>
        <time>2022-09-08T11:45:45Z</time>
      </trkpt>
      <trkpt lat="42.458533" lon="8.90253">
        <ele>1628.0</ele>
        <time>2022-09-08T11:45:53Z</time>
      </trkpt>
      <trkpt lat="42.45847" lon="8.902663">
        <ele>1626.6</ele>
        <time>2022-09-08T11:46:03Z</time>
      </trkpt>
      <trkpt lat="42.458447" lon="8.90264">
        <ele>1625.8</ele>
        <time>2022-09-08T11:46:07Z</time>
      </trkpt>
      <trkpt lat="42.458422" lon="8.902523">
        <ele>1624.8</ele>
        <time>2022-09-08T11:46:15Z</time>
      </trkpt>
      <trkpt lat="42.458393" lon="8.902527">
        <ele>1624.4</ele>
        <time>2022-09-08T11:46:19Z</time>
      </trkpt>
      <trkpt lat="42.45833" lon="8.902577">
        <ele>1623.8</ele>
        <time>2022-09-08T11:46:28Z</time>
      </trkpt>
      <trkpt lat="42.458287" lon="8.90257">
        <ele>1622.6</ele>
        <time>2022-09-08T11:46:34Z</time>
      </trkpt>
      <trkpt lat="42.458252" lon="8.902592">
        <ele>1621.4</ele>
        <time>2022-09-08T11:46:42Z</time>
      </trkpt>
      <trkpt lat="42.458238" lon="8.902638">
        <ele>1620.8</ele>
        <time>2022-09-08T11:46:48Z</time>
      </trkpt>
      <trkpt lat="42.458222" lon="8.902753">
        <ele>1618.8</ele>
        <time>2022-09-08T11:46:59Z</time>
      </trkpt>
      <trkpt lat="42.458227" lon="8.902915">
        <ele>1616.4</ele>
        <time>2022-09-08T11:47:20Z</time>
      </trkpt>
      <trkpt lat="42.458205" lon="8.902933">
        <ele>1616.2</ele>
        <time>2022-09-08T11:47:25Z</time>
      </trkpt>
      <trkpt lat="42.458183" lon="8.902955">
        <ele>1615.2</ele>
        <time>2022-09-08T11:47:30Z</time>
      </trkpt>
      <trkpt lat="42.458162" lon="8.902937">
        <ele>1614.8</ele>
        <time>2022-09-08T11:47:34Z</time>
      </trkpt>
      <trkpt lat="42.458103" lon="8.902783">
        <ele>1612.8</ele>
        <time>2022-09-08T11:47:48Z</time>
      </trkpt>
      <trkpt lat="42.458073" lon="8.902662">
        <ele>1610.6</ele>
        <time>2022-09-08T11:47:58Z</time>
      </trkpt>
      <trkpt lat="42.458058" lon="8.902507">
        <ele>1608.6</ele>
        <time>2022-09-08T11:48:20Z</time>
      </trkpt>
      <trkpt lat="42.458033" lon="8.902523">
        <ele>1606.2</ele>
        <time>2022-09-08T11:48:46Z</time>
      </trkpt>
      <trkpt lat="42.458008" lon="8.902563">
        <ele>1603.2</ele>
        <time>2022-09-08T11:49:05Z</time>
      </trkpt>
      <trkpt lat="42.458003" lon="8.902582">
        <ele>1603.0</ele>
        <time>2022-09-08T11:49:06Z</time>
      </trkpt>
      <trkpt lat="42.457953" lon="8.90268">
        <ele>1602.6</ele>
        <time>2022-09-08T11:49:16Z</time>
      </trkpt>
      <trkpt lat="42.457938" lon="8.902715">
        <ele>1602.0</ele>
        <time>2022-09-08T11:49:19Z</time>
      </trkpt>
      <trkpt lat="42.457922" lon="8.902833">
        <ele>1600.6</ele>
        <time>2022-09-08T11:49:31Z</time>
      </trkpt>
      <trkpt lat="42.457913" lon="8.90288">
        <ele>1600.4</ele>
        <time>2022-09-08T11:49:36Z</time>
      </trkpt>
      <trkpt lat="42.457858" lon="8.902953">
        <ele>1599.4</ele>
        <time>2022-09-08T11:49:46Z</time>
      </trkpt>
      <trkpt lat="42.457888" lon="8.903017">
        <ele>1598.0</ele>
        <time>2022-09-08T11:49:56Z</time>
      </trkpt>
      <trkpt lat="42.457918" lon="8.903197">
        <ele>1594.2</ele>
        <time>2022-09-08T11:50:22Z</time>
      </trkpt>
      <trkpt lat="42.45789" lon="8.903232">
        <ele>1592.0</ele>
        <time>2022-09-08T11:50:48Z</time>
      </trkpt>
      <trkpt lat="42.457887" lon="8.903232">
        <ele>1591.6</ele>
        <time>2022-09-08T11:50:49Z</time>
      </trkpt>
      <trkpt lat="42.457835" lon="8.903258">
        <ele>1590.0</ele>
        <time>2022-09-08T11:51:04Z</time>
      </trkpt>
      <trkpt lat="42.457828" lon="8.903262">
        <ele>1590.0</ele>
        <time>2022-09-08T11:51:07Z</time>
      </trkpt>
      <trkpt lat="42.457802" lon="8.903272">
        <ele>1589.4</ele>
        <time>2022-09-08T11:51:11Z</time>
      </trkpt>
      <trkpt lat="42.457743" lon="8.903245">
        <ele>1588.8</ele>
        <time>2022-09-08T11:51:20Z</time>
      </trkpt>
      <trkpt lat="42.457742" lon="8.90319">
        <ele>1587.8</ele>
        <time>2022-09-08T11:51:26Z</time>
      </trkpt>
      <trkpt lat="42.457755" lon="8.903067">
        <ele>1583.6</ele>
        <time>2022-09-08T11:51:52Z</time>
      </trkpt>
      <trkpt lat="42.457723" lon="8.903062">
        <ele>1580.4</ele>
        <time>2022-09-08T11:52:27Z</time>
      </trkpt>
      <trkpt lat="42.457698" lon="8.903082">
        <ele>1579.0</ele>
        <time>2022-09-08T11:52:38Z</time>
      </trkpt>
      <trkpt lat="42.457665" lon="8.903125">
        <ele>1577.6</ele>
        <time>2022-09-08T11:52:54Z</time>
      </trkpt>
      <trkpt lat="42.457622" lon="8.903092">
        <ele>1576.4</ele>
        <time>2022-09-08T11:53:02Z</time>
      </trkpt>
      <trkpt lat="42.457607" lon="8.903127">
        <ele>1575.2</ele>
        <time>2022-09-08T11:53:12Z</time>
      </trkpt>
      <trkpt lat="42.457603" lon="8.903123">
        <ele>1575.2</ele>
        <time>2022-09-08T11:53:14Z</time>
      </trkpt>
      <trkpt lat="42.4576" lon="8.903083">
        <ele>1573.2</ele>
        <time>2022-09-08T11:53:26Z</time>
      </trkpt>
      <trkpt lat="42.457615" lon="8.903062">
        <ele>1571.6</ele>
        <time>2022-09-08T11:53:34Z</time>
      </trkpt>
      <trkpt lat="42.457575" lon="8.903023">
        <ele>1570.4</ele>
        <time>2022-09-08T11:53:48Z</time>
      </trkpt>
      <trkpt lat="42.457493" lon="8.903025">
        <ele>1570.2</ele>
        <time>2022-09-08T11:53:58Z</time>
      </trkpt>
      <trkpt lat="42.457407" lon="8.903103">
        <ele>1564.8</ele>
        <time>2022-09-08T11:54:51Z</time>
      </trkpt>
      <trkpt lat="42.45739" lon="8.903098">
        <ele>1564.2</ele>
        <time>2022-09-08T11:54:54Z</time>
      </trkpt>
      <trkpt lat="42.457277" lon="8.903213">
        <ele>1560.6</ele>
        <time>2022-09-08T11:55:22Z</time>
      </trkpt>
      <trkpt lat="42.457255" lon="8.903195">
        <ele>1560.0</ele>
        <time>2022-09-08T11:55:32Z</time>
      </trkpt>
      <trkpt lat="42.457255" lon="8.903192">
        <ele>1559.8</ele>
        <time>2022-09-08T11:55:33Z</time>
      </trkpt>
      <trkpt lat="42.457227" lon="8.903128">
        <ele>1559.8</ele>
        <time>2022-09-08T11:55:38Z</time>
      </trkpt>
      <trkpt lat="42.457175" lon="8.90303">
        <ele>1558.8</ele>
        <time>2022-09-08T11:55:47Z</time>
      </trkpt>
      <trkpt lat="42.457132" lon="8.902985">
        <ele>1558.6</ele>
        <time>2022-09-08T11:55:51Z</time>
      </trkpt>
      <trkpt lat="42.45712" lon="8.902977">
        <ele>1558.4</ele>
        <time>2022-09-08T11:55:52Z</time>
      </trkpt>
      <trkpt lat="42.457058" lon="8.902922">
        <ele>1558.2</ele>
        <time>2022-09-08T11:55:59Z</time>
      </trkpt>
      <trkpt lat="42.456953" lon="8.902897">
        <ele>1556.4</ele>
        <time>2022-09-08T11:56:11Z</time>
      </trkpt>
      <trkpt lat="42.456883" lon="8.902863">
        <ele>1555.4</ele>
        <time>2022-09-08T11:56:22Z</time>
      </trkpt>
      <trkpt lat="42.456787" lon="8.90282">
        <ele>1552.8</ele>
        <time>2022-09-08T11:56:40Z</time>
      </trkpt>
      <trkpt lat="42.456757" lon="8.902818">
        <ele>1552.0</ele>
        <time>2022-09-08T11:56:44Z</time>
      </trkpt>
      <trkpt lat="42.45668" lon="8.902945">
        <ele>1550.4</ele>
        <time>2022-09-08T11:59:06Z</time>
      </trkpt>
      <trkpt lat="42.456767" lon="8.903098">
        <ele>1550.8</ele>
        <time>2022-09-08T12:02:19Z</time>
      </trkpt>
      <trkpt lat="42.456897" lon="8.903248">
        <ele>1550.4</ele>
        <time>2022-09-08T12:03:47Z</time>
      </trkpt>
      <trkpt lat="42.456897" lon="8.903253">
        <ele>1550.4</ele>
        <time>2022-09-08T12:03:49Z</time>
      </trkpt>
      <trkpt lat="42.456908" lon="8.903158">
        <ele>1552.4</ele>
        <time>2022-09-08T12:05:17Z</time>
      </trkpt>
      <trkpt lat="42.456933" lon="8.90313">
        <ele>1552.4</ele>
        <time>2022-09-08T12:05:24Z</time>
      </trkpt>
      <trkpt lat="42.456998" lon="8.90308">
        <ele>1552.6</ele>
        <time>2022-09-08T12:05:38Z</time>
      </trkpt>
      <trkpt lat="42.457007" lon="8.903042">
        <ele>1552.6</ele>
        <time>2022-09-08T12:05:44Z</time>
      </trkpt>
      <trkpt lat="42.456857" lon="8.902822">
        <ele>1553.0</ele>
        <time>2022-09-08T12:07:06Z</time>
      </trkpt>
      <trkpt lat="42.456795" lon="8.902732">
        <ele>1553.4</ele>
        <time>2022-09-08T12:07:39Z</time>
      </trkpt>
      <trkpt lat="42.456783" lon="8.902755">
        <ele>1553.4</ele>
        <time>2022-09-08T12:07:42Z</time>
      </trkpt>
      <trkpt lat="42.456787" lon="8.902762">
        <ele>1553.4</ele>
        <time>2022-09-08T12:07:45Z</time>
      </trkpt>
      <trkpt lat="42.456837" lon="8.902807">
        <ele>1553.8</ele>
        <time>2022-09-08T12:08:05Z</time>
      </trkpt>
      <trkpt lat="42.456847" lon="8.902843">
        <ele>1554.2</ele>
        <time>2022-09-08T12:08:15Z</time>
      </trkpt>
      <trkpt lat="42.456857" lon="8.902915">
        <ele>1554.4</ele>
        <time>2022-09-08T12:08:43Z</time>
      </trkpt>
      <trkpt lat="42.456838" lon="8.9029">
        <ele>1554.4</ele>
        <time>2022-09-08T12:08:51Z</time>
      </trkpt>
      <trkpt lat="42.456798" lon="8.902887">
        <ele>1554.6</ele>
        <time>2022-09-08T12:09:06Z</time>
      </trkpt>
      <trkpt lat="42.456797" lon="8.902885">
        <ele>1554.4</ele>
        <time>2022-09-08T12:09:07Z</time>
      </trkpt>
      <trkpt lat="42.456777" lon="8.902875">
        <ele>1553.6</ele>
        <time>2022-09-08T12:09:14Z</time>
      </trkpt>
      <trkpt lat="42.456662" lon="8.902918">
        <ele>1551.6</ele>
        <time>2022-09-08T12:09:39Z</time>
      </trkpt>
      <trkpt lat="42.456578" lon="8.902925">
        <ele>1550.6</ele>
        <time>2022-09-08T12:09:49Z</time>
      </trkpt>
      <trkpt lat="42.456557" lon="8.90288">
        <ele>1549.8</ele>
        <time>2022-09-08T12:09:56Z</time>
      </trkpt>
      <trkpt lat="42.456467" lon="8.902778">
        <ele>1548.4</ele>
        <time>2022-09-08T12:10:13Z</time>
      </trkpt>
      <trkpt lat="42.456462" lon="8.902772">
        <ele>1548.0</ele>
        <time>2022-09-08T12:10:14Z</time>
      </trkpt>
      <trkpt lat="42.456398" lon="8.90272">
        <ele>1547.2</ele>
        <time>2022-09-08T12:10:23Z</time>
      </trkpt>
      <trkpt lat="42.456313" lon="8.902662">
        <ele>1547.2</ele>
        <time>2022-09-08T12:10:52Z</time>
      </trkpt>
      <trkpt lat="42.456263" lon="8.902768">
        <ele>1547.2</ele>
        <time>2022-09-08T12:11:20Z</time>
      </trkpt>
      <trkpt lat="42.456222" lon="8.902877">
        <ele>1547.2</ele>
        <time>2022-09-08T12:11:31Z</time>
      </trkpt>
      <trkpt lat="42.45618" lon="8.902933">
        <ele>1548.0</ele>
        <time>2022-09-08T12:11:38Z</time>
      </trkpt>
      <trkpt lat="42.456107" lon="8.902975">
        <ele>1548.6</ele>
        <time>2022-09-08T12:11:44Z</time>
      </trkpt>
      <trkpt lat="42.456075" lon="8.90301">
        <ele>1548.6</ele>
        <time>2022-09-08T12:11:47Z</time>
      </trkpt>
      <trkpt lat="42.456033" lon="8.903013">
        <ele>1548.6</ele>
        <time>2022-09-08T12:11:53Z</time>
      </trkpt>
      <trkpt lat="42.455977" lon="8.902995">
        <ele>1548.4</ele>
        <time>2022-09-08T12:12:00Z</time>
      </trkpt>
      <trkpt lat="42.455945" lon="8.90296">
        <ele>1548.6</ele>
        <time>2022-09-08T12:12:04Z</time>
      </trkpt>
      <trkpt lat="42.455905" lon="8.90297">
        <ele>1548.6</ele>
        <time>2022-09-08T12:12:08Z</time>
      </trkpt>
      <trkpt lat="42.45587" lon="8.903042">
        <ele>1548.6</ele>
        <time>2022-09-08T12:12:14Z</time>
      </trkpt>
      <trkpt lat="42.455865" lon="8.903055">
        <ele>1548.6</ele>
        <time>2022-09-08T12:12:16Z</time>
      </trkpt>
      <trkpt lat="42.455837" lon="8.903127">
        <ele>1549.2</ele>
        <time>2022-09-08T12:12:22Z</time>
      </trkpt>
      <trkpt lat="42.455777" lon="8.903172">
        <ele>1549.8</ele>
        <time>2022-09-08T12:12:30Z</time>
      </trkpt>
      <trkpt lat="42.455735" lon="8.903312">
        <ele>1549.2</ele>
        <time>2022-09-08T12:12:45Z</time>
      </trkpt>
      <trkpt lat="42.455737" lon="8.90332">
        <ele>1549.2</ele>
        <time>2022-09-08T12:12:46Z</time>
      </trkpt>
      <trkpt lat="42.455843" lon="8.903437">
        <ele>1545.8</ele>
        <time>2022-09-08T12:13:23Z</time>
      </trkpt>
      <trkpt lat="42.455992" lon="8.903562">
        <ele>1544.4</ele>
        <time>2022-09-08T12:14:14Z</time>
      </trkpt>
      <trkpt lat="42.455947" lon="8.90361">
        <ele>1543.0</ele>
        <time>2022-09-08T12:14:25Z</time>
      </trkpt>
      <trkpt lat="42.455828" lon="8.903698">
        <ele>1543.6</ele>
        <time>2022-09-08T12:14:54Z</time>
      </trkpt>
      <trkpt lat="42.455825" lon="8.9037">
        <ele>1544.0</ele>
        <time>2022-09-08T12:14:56Z</time>
      </trkpt>
      <trkpt lat="42.45584" lon="8.903748">
        <ele>1545.4</ele>
        <time>2022-09-08T12:15:13Z</time>
      </trkpt>
      <trkpt lat="42.455833" lon="8.90379">
        <ele>1546.6</ele>
        <time>2022-09-08T12:15:22Z</time>
      </trkpt>
      <trkpt lat="42.455833" lon="8.903803">
        <ele>1546.6</ele>
        <time>2022-09-08T12:15:24Z</time>
      </trkpt>
      <trkpt lat="42.455792" lon="8.903845">
        <ele>1547.2</ele>
        <time>2022-09-08T12:15:32Z</time>
      </trkpt>
      <trkpt lat="42.455767" lon="8.903902">
        <ele>1548.0</ele>
        <time>2022-09-08T12:15:43Z</time>
      </trkpt>
      <trkpt lat="42.455715" lon="8.903915">
        <ele>1549.0</ele>
        <time>2022-09-08T12:15:53Z</time>
      </trkpt>
      <trkpt lat="42.455638" lon="8.903913">
        <ele>1548.8</ele>
        <time>2022-09-08T12:16:00Z</time>
      </trkpt>
      <trkpt lat="42.455627" lon="8.903912">
        <ele>1548.8</ele>
        <time>2022-09-08T12:16:01Z</time>
      </trkpt>
      <trkpt lat="42.45559" lon="8.903878">
        <ele>1548.6</ele>
        <time>2022-09-08T12:16:05Z</time>
      </trkpt>
      <trkpt lat="42.455555" lon="8.903842">
        <ele>1548.0</ele>
        <time>2022-09-08T12:16:10Z</time>
      </trkpt>
      <trkpt lat="42.455533" lon="8.903808">
        <ele>1547.8</ele>
        <time>2022-09-08T12:16:14Z</time>
      </trkpt>
      <trkpt lat="42.45552" lon="8.903777">
        <ele>1547.4</ele>
        <time>2022-09-08T12:16:22Z</time>
      </trkpt>
      <trkpt lat="42.455527" lon="8.903747">
        <ele>1547.0</ele>
        <time>2022-09-08T12:16:25Z</time>
      </trkpt>
      <trkpt lat="42.455585" lon="8.903708">
        <ele>1546.6</ele>
        <time>2022-09-08T12:16:32Z</time>
      </trkpt>
      <trkpt lat="42.455588" lon="8.903693">
        <ele>1546.4</ele>
        <time>2022-09-08T12:16:33Z</time>
      </trkpt>
      <trkpt lat="42.455577" lon="8.903693">
        <ele>1546.4</ele>
        <time>2022-09-08T12:16:34Z</time>
      </trkpt>
      <trkpt lat="42.45555" lon="8.903707">
        <ele>1546.4</ele>
        <time>2022-09-08T12:16:37Z</time>
      </trkpt>
      <trkpt lat="42.455533" lon="8.903768">
        <ele>1546.0</ele>
        <time>2022-09-08T12:16:43Z</time>
      </trkpt>
      <trkpt lat="42.455492" lon="8.903763">
        <ele>1545.8</ele>
        <time>2022-09-08T12:16:49Z</time>
      </trkpt>
      <trkpt lat="42.455453" lon="8.90373">
        <ele>1546.8</ele>
        <time>2022-09-08T12:17:26Z</time>
      </trkpt>
      <trkpt lat="42.455427" lon="8.903718">
        <ele>1546.8</ele>
        <time>2022-09-08T12:17:43Z</time>
      </trkpt>
      <trkpt lat="42.4554" lon="8.903748">
        <ele>1550.0</ele>
        <time>2022-09-08T12:18:21Z</time>
      </trkpt>
      <trkpt lat="42.455407" lon="8.903758">
        <ele>1550.2</ele>
        <time>2022-09-08T12:18:25Z</time>
      </trkpt>
      <trkpt lat="42.455495" lon="8.903885">
        <ele>1552.0</ele>
        <time>2022-09-08T12:18:40Z</time>
      </trkpt>
      <trkpt lat="42.455405" lon="8.903912">
        <ele>1554.2</ele>
        <time>2022-09-08T12:18:53Z</time>
      </trkpt>
      <trkpt lat="42.4554" lon="8.903917">
        <ele>1554.4</ele>
        <time>2022-09-08T12:18:55Z</time>
      </trkpt>
      <trkpt lat="42.455387" lon="8.903852">
        <ele>1555.0</ele>
        <time>2022-09-08T12:19:02Z</time>
      </trkpt>
      <trkpt lat="42.455373" lon="8.903828">
        <ele>1558.6</ele>
        <time>2022-09-08T12:19:28Z</time>
      </trkpt>
      <trkpt lat="42.455262" lon="8.903835">
        <ele>1559.8</ele>
        <time>2022-09-08T12:19:41Z</time>
      </trkpt>
      <trkpt lat="42.45523" lon="8.903835">
        <ele>1560.6</ele>
        <time>2022-09-08T12:19:47Z</time>
      </trkpt>
      <trkpt lat="42.45526" lon="8.903777">
        <ele>1563.2</ele>
        <time>2022-09-08T12:20:13Z</time>
      </trkpt>
      <trkpt lat="42.45541" lon="8.90364">
        <ele>1564.8</ele>
        <time>2022-09-08T12:20:50Z</time>
      </trkpt>
      <trkpt lat="42.455328" lon="8.90362">
        <ele>1566.8</ele>
        <time>2022-09-08T12:21:17Z</time>
      </trkpt>
      <trkpt lat="42.455278" lon="8.903548">
        <ele>1568.0</ele>
        <time>2022-09-08T12:21:30Z</time>
      </trkpt>
      <trkpt lat="42.45524" lon="8.903503">
        <ele>1568.0</ele>
        <time>2022-09-08T12:21:35Z</time>
      </trkpt>
      <trkpt lat="42.455197" lon="8.903502">
        <ele>1568.0</ele>
        <time>2022-09-08T12:21:42Z</time>
      </trkpt>
      <trkpt lat="42.455185" lon="8.903515">
        <ele>1568.0</ele>
        <time>2022-09-08T12:21:44Z</time>
      </trkpt>
      <trkpt lat="42.455135" lon="8.903582">
        <ele>1570.0</ele>
        <time>2022-09-08T12:22:11Z</time>
      </trkpt>
      <trkpt lat="42.455098" lon="8.903582">
        <ele>1570.2</ele>
        <time>2022-09-08T12:22:21Z</time>
      </trkpt>
      <trkpt lat="42.455093" lon="8.903585">
        <ele>1570.2</ele>
        <time>2022-09-08T12:22:22Z</time>
      </trkpt>
      <trkpt lat="42.455033" lon="8.903565">
        <ele>1571.4</ele>
        <time>2022-09-08T12:22:32Z</time>
      </trkpt>
      <trkpt lat="42.454992" lon="8.903588">
        <ele>1571.8</ele>
        <time>2022-09-08T12:22:39Z</time>
      </trkpt>
      <trkpt lat="42.454988" lon="8.903593">
        <ele>1571.8</ele>
        <time>2022-09-08T12:22:40Z</time>
      </trkpt>
      <trkpt lat="42.454957" lon="8.903627">
        <ele>1572.4</ele>
        <time>2022-09-08T12:22:52Z</time>
      </trkpt>
      <trkpt lat="42.454947" lon="8.90364">
        <ele>1572.6</ele>
        <time>2022-09-08T12:22:57Z</time>
      </trkpt>
      <trkpt lat="42.454973" lon="8.903603">
        <ele>1573.8</ele>
        <time>2022-09-08T12:23:15Z</time>
      </trkpt>
      <trkpt lat="42.454947" lon="8.903547">
        <ele>1573.8</ele>
        <time>2022-09-08T12:23:22Z</time>
      </trkpt>
      <trkpt lat="42.454923" lon="8.903532">
        <ele>1573.8</ele>
        <time>2022-09-08T12:23:26Z</time>
      </trkpt>
      <trkpt lat="42.454882" lon="8.903552">
        <ele>1573.6</ele>
        <time>2022-09-08T12:23:34Z</time>
      </trkpt>
      <trkpt lat="42.454858" lon="8.903513">
        <ele>1573.8</ele>
        <time>2022-09-08T12:23:46Z</time>
      </trkpt>
      <trkpt lat="42.454837" lon="8.903447">
        <ele>1571.8</ele>
        <time>2022-09-08T12:24:04Z</time>
      </trkpt>
      <trkpt lat="42.454787" lon="8.903453">
        <ele>1572.2</ele>
        <time>2022-09-08T12:24:32Z</time>
      </trkpt>
      <trkpt lat="42.454698" lon="8.90349">
        <ele>1573.8</ele>
        <time>2022-09-08T12:25:21Z</time>
      </trkpt>
      <trkpt lat="42.454508" lon="8.903555">
        <ele>1579.6</ele>
        <time>2022-09-08T12:26:54Z</time>
      </trkpt>
      <trkpt lat="42.454502" lon="8.90359">
        <ele>1580.6</ele>
        <time>2022-09-08T12:27:08Z</time>
      </trkpt>
      <trkpt lat="42.454417" lon="8.903567">
        <ele>1581.2</ele>
        <time>2022-09-08T12:27:34Z</time>
      </trkpt>
      <trkpt lat="42.454402" lon="8.903563">
        <ele>1581.2</ele>
        <time>2022-09-08T12:27:35Z</time>
      </trkpt>
      <trkpt lat="42.454383" lon="8.903528">
        <ele>1581.0</ele>
        <time>2022-09-08T12:27:45Z</time>
      </trkpt>
      <trkpt lat="42.454372" lon="8.903525">
        <ele>1581.0</ele>
        <time>2022-09-08T12:27:46Z</time>
      </trkpt>
      <trkpt lat="42.454298" lon="8.903577">
        <ele>1581.6</ele>
        <time>2022-09-08T12:27:53Z</time>
      </trkpt>
      <trkpt lat="42.454292" lon="8.903588">
        <ele>1581.6</ele>
        <time>2022-09-08T12:27:54Z</time>
      </trkpt>
      <trkpt lat="42.454258" lon="8.903628">
        <ele>1582.0</ele>
        <time>2022-09-08T12:27:58Z</time>
      </trkpt>
      <trkpt lat="42.45419" lon="8.903677">
        <ele>1583.0</ele>
        <time>2022-09-08T12:28:08Z</time>
      </trkpt>
      <trkpt lat="42.4541" lon="8.903713">
        <ele>1583.8</ele>
        <time>2022-09-08T12:28:18Z</time>
      </trkpt>
      <trkpt lat="42.454047" lon="8.90373">
        <ele>1584.8</ele>
        <time>2022-09-08T12:28:50Z</time>
      </trkpt>
      <trkpt lat="42.453895" lon="8.903848">
        <ele>1590.4</ele>
        <time>2022-09-08T12:30:32Z</time>
      </trkpt>
      <trkpt lat="42.453865" lon="8.90382">
        <ele>1590.8</ele>
        <time>2022-09-08T12:30:37Z</time>
      </trkpt>
      <trkpt lat="42.453833" lon="8.903795">
        <ele>1590.8</ele>
        <time>2022-09-08T12:30:41Z</time>
      </trkpt>
      <trkpt lat="42.453778" lon="8.903778">
        <ele>1591.6</ele>
        <time>2022-09-08T12:30:47Z</time>
      </trkpt>
      <trkpt lat="42.45375" lon="8.903768">
        <ele>1591.6</ele>
        <time>2022-09-08T12:30:50Z</time>
      </trkpt>
      <trkpt lat="42.453695" lon="8.903823">
        <ele>1593.2</ele>
        <time>2022-09-08T12:30:59Z</time>
      </trkpt>
      <trkpt lat="42.453585" lon="8.90382">
        <ele>1594.0</ele>
        <time>2022-09-08T12:31:12Z</time>
      </trkpt>
      <trkpt lat="42.453523" lon="8.903918">
        <ele>1595.0</ele>
        <time>2022-09-08T12:31:23Z</time>
      </trkpt>
      <trkpt lat="42.453508" lon="8.903928">
        <ele>1595.2</ele>
        <time>2022-09-08T12:31:25Z</time>
      </trkpt>
      <trkpt lat="42.453417" lon="8.903942">
        <ele>1597.0</ele>
        <time>2022-09-08T12:31:37Z</time>
      </trkpt>
      <trkpt lat="42.45336" lon="8.903887">
        <ele>1599.6</ele>
        <time>2022-09-08T12:31:54Z</time>
      </trkpt>
      <trkpt lat="42.453315" lon="8.903867">
        <ele>1600.0</ele>
        <time>2022-09-08T12:32:04Z</time>
      </trkpt>
      <trkpt lat="42.453253" lon="8.903815">
        <ele>1600.4</ele>
        <time>2022-09-08T12:32:12Z</time>
      </trkpt>
      <trkpt lat="42.453232" lon="8.903822">
        <ele>1601.4</ele>
        <time>2022-09-08T12:32:22Z</time>
      </trkpt>
      <trkpt lat="42.453202" lon="8.9038">
        <ele>1601.6</ele>
        <time>2022-09-08T12:32:28Z</time>
      </trkpt>
      <trkpt lat="42.45319" lon="8.903788">
        <ele>1602.0</ele>
        <time>2022-09-08T12:32:31Z</time>
      </trkpt>
      <trkpt lat="42.45317" lon="8.903777">
        <ele>1602.8</ele>
        <time>2022-09-08T12:32:34Z</time>
      </trkpt>
      <trkpt lat="42.45317" lon="8.903772">
        <ele>1602.8</ele>
        <time>2022-09-08T12:32:35Z</time>
      </trkpt>
      <trkpt lat="42.45327" lon="8.903803">
        <ele>1603.8</ele>
        <time>2022-09-08T12:32:50Z</time>
      </trkpt>
      <trkpt lat="42.453318" lon="8.903828">
        <ele>1604.6</ele>
        <time>2022-09-08T12:32:55Z</time>
      </trkpt>
      <trkpt lat="42.45334" lon="8.903857">
        <ele>1605.0</ele>
        <time>2022-09-08T12:33:00Z</time>
      </trkpt>
      <trkpt lat="42.453447" lon="8.903845">
        <ele>1607.4</ele>
        <time>2022-09-08T12:33:25Z</time>
      </trkpt>
      <trkpt lat="42.453425" lon="8.903835">
        <ele>1608.2</ele>
        <time>2022-09-08T12:33:29Z</time>
      </trkpt>
      <trkpt lat="42.453397" lon="8.903877">
        <ele>1608.8</ele>
        <time>2022-09-08T12:33:35Z</time>
      </trkpt>
      <trkpt lat="42.453407" lon="8.903932">
        <ele>1609.2</ele>
        <time>2022-09-08T12:33:40Z</time>
      </trkpt>
      <trkpt lat="42.453432" lon="8.90397">
        <ele>1609.2</ele>
        <time>2022-09-08T12:33:49Z</time>
      </trkpt>
      <trkpt lat="42.453435" lon="8.903972">
        <ele>1609.2</ele>
        <time>2022-09-08T12:33:50Z</time>
      </trkpt>
      <trkpt lat="42.453382" lon="8.904088">
        <ele>1611.6</ele>
        <time>2022-09-08T12:34:10Z</time>
      </trkpt>
      <trkpt lat="42.45341" lon="8.904103">
        <ele>1619.0</ele>
        <time>2022-09-08T12:36:06Z</time>
      </trkpt>
      <trkpt lat="42.453358" lon="8.904133">
        <ele>1620.0</ele>
        <time>2022-09-08T12:36:21Z</time>
      </trkpt>
      <trkpt lat="42.453322" lon="8.90416">
        <ele>1620.6</ele>
        <time>2022-09-08T12:36:28Z</time>
      </trkpt>
      <trkpt lat="42.453267" lon="8.904163">
        <ele>1621.6</ele>
        <time>2022-09-08T12:36:40Z</time>
      </trkpt>
      <trkpt lat="42.453218" lon="8.904153">
        <ele>1621.6</ele>
        <time>2022-09-08T12:37:10Z</time>
      </trkpt>
      <trkpt lat="42.453197" lon="8.904158">
        <ele>1621.8</ele>
        <time>2022-09-08T12:37:13Z</time>
      </trkpt>
      <trkpt lat="42.453" lon="8.904145">
        <ele>1622.4</ele>
        <time>2022-09-08T12:37:39Z</time>
      </trkpt>
      <trkpt lat="42.452965" lon="8.904182">
        <ele>1621.8</ele>
        <time>2022-09-08T12:37:47Z</time>
      </trkpt>
      <trkpt lat="42.452923" lon="8.904197">
        <ele>1621.8</ele>
        <time>2022-09-08T12:37:52Z</time>
      </trkpt>
      <trkpt lat="42.45283" lon="8.904163">
        <ele>1620.4</ele>
        <time>2022-09-08T12:38:05Z</time>
      </trkpt>
      <trkpt lat="42.452797" lon="8.904168">
        <ele>1620.2</ele>
        <time>2022-09-08T12:38:10Z</time>
      </trkpt>
      <trkpt lat="42.452698" lon="8.904202">
        <ele>1620.2</ele>
        <time>2022-09-08T12:38:20Z</time>
      </trkpt>
      <trkpt lat="42.452697" lon="8.904268">
        <ele>1620.2</ele>
        <time>2022-09-08T12:38:25Z</time>
      </trkpt>
      <trkpt lat="42.452692" lon="8.9043">
        <ele>1620.2</ele>
        <time>2022-09-08T12:38:27Z</time>
      </trkpt>
      <trkpt lat="42.452658" lon="8.90438">
        <ele>1620.6</ele>
        <time>2022-09-08T12:38:33Z</time>
      </trkpt>
      <trkpt lat="42.45261" lon="8.904418">
        <ele>1622.2</ele>
        <time>2022-09-08T12:38:48Z</time>
      </trkpt>
      <trkpt lat="42.452598" lon="8.904497">
        <ele>1622.4</ele>
        <time>2022-09-08T12:38:53Z</time>
      </trkpt>
      <trkpt lat="42.452637" lon="8.904522">
        <ele>1622.8</ele>
        <time>2022-09-08T12:39:00Z</time>
      </trkpt>
      <trkpt lat="42.452637" lon="8.904528">
        <ele>1623.2</ele>
        <time>2022-09-08T12:39:02Z</time>
      </trkpt>
      <trkpt lat="42.452635" lon="8.90453">
        <ele>1623.2</ele>
        <time>2022-09-08T12:39:03Z</time>
      </trkpt>
      <trkpt lat="42.452615" lon="8.904525">
        <ele>1624.0</ele>
        <time>2022-09-08T12:39:08Z</time>
      </trkpt>
      <trkpt lat="42.45261" lon="8.904508">
        <ele>1624.6</ele>
        <time>2022-09-08T12:39:12Z</time>
      </trkpt>
      <trkpt lat="42.452687" lon="8.904082">
        <ele>1628.2</ele>
        <time>2022-09-08T12:39:53Z</time>
      </trkpt>
      <trkpt lat="42.452687" lon="8.904072">
        <ele>1628.6</ele>
        <time>2022-09-08T12:39:54Z</time>
      </trkpt>
      <trkpt lat="42.452562" lon="8.904298">
        <ele>1637.6</ele>
        <time>2022-09-08T12:41:40Z</time>
      </trkpt>
      <trkpt lat="42.452388" lon="8.904203">
        <ele>1638.0</ele>
        <time>2022-09-08T12:43:40Z</time>
      </trkpt>
      <trkpt lat="42.452142" lon="8.904103">
        <ele>1637.0</ele>
        <time>2022-09-08T12:44:00Z</time>
      </trkpt>
      <trkpt lat="42.452127" lon="8.904058">
        <ele>1636.0</ele>
        <time>2022-09-08T12:44:05Z</time>
      </trkpt>
      <trkpt lat="42.452132" lon="8.903975">
        <ele>1634.0</ele>
        <time>2022-09-08T12:44:15Z</time>
      </trkpt>
      <trkpt lat="42.45211" lon="8.90392">
        <ele>1631.8</ele>
        <time>2022-09-08T12:44:39Z</time>
      </trkpt>
      <trkpt lat="42.45209" lon="8.903852">
        <ele>1629.8</ele>
        <time>2022-09-08T12:45:10Z</time>
      </trkpt>
      <trkpt lat="42.452082" lon="8.903773">
        <ele>1628.0</ele>
        <time>2022-09-08T12:45:22Z</time>
      </trkpt>
      <trkpt lat="42.452078" lon="8.903763">
        <ele>1627.4</ele>
        <time>2022-09-08T12:45:26Z</time>
      </trkpt>
      <trkpt lat="42.45199" lon="8.903608">
        <ele>1623.6</ele>
        <time>2022-09-08T12:46:34Z</time>
      </trkpt>
      <trkpt lat="42.451917" lon="8.903618">
        <ele>1624.0</ele>
        <time>2022-09-08T12:46:48Z</time>
      </trkpt>
      <trkpt lat="42.451807" lon="8.903565">
        <ele>1627.6</ele>
        <time>2022-09-08T12:47:09Z</time>
      </trkpt>
      <trkpt lat="42.451802" lon="8.903562">
        <ele>1627.6</ele>
        <time>2022-09-08T12:47:10Z</time>
      </trkpt>
      <trkpt lat="42.45173" lon="8.90351">
        <ele>1629.6</ele>
        <time>2022-09-08T12:47:35Z</time>
      </trkpt>
      <trkpt lat="42.451717" lon="8.903493">
        <ele>1629.6</ele>
        <time>2022-09-08T12:47:38Z</time>
      </trkpt>
      <trkpt lat="42.45164" lon="8.903493">
        <ele>1632.2</ele>
        <time>2022-09-08T12:47:59Z</time>
      </trkpt>
      <trkpt lat="42.45158" lon="8.903527">
        <ele>1636.0</ele>
        <time>2022-09-08T12:48:36Z</time>
      </trkpt>
      <trkpt lat="42.4515" lon="8.90357">
        <ele>1640.4</ele>
        <time>2022-09-08T12:49:21Z</time>
      </trkpt>
      <trkpt lat="42.451498" lon="8.903565">
        <ele>1648.8</ele>
        <time>2022-09-08T12:50:45Z</time>
      </trkpt>
      <trkpt lat="42.451468" lon="8.903557">
        <ele>1649.0</ele>
        <time>2022-09-08T12:50:52Z</time>
      </trkpt>
      <trkpt lat="42.451432" lon="8.903685">
        <ele>1648.8</ele>
        <time>2022-09-08T12:51:06Z</time>
      </trkpt>
      <trkpt lat="42.451425" lon="8.903708">
        <ele>1648.8</ele>
        <time>2022-09-08T12:51:10Z</time>
      </trkpt>
      <trkpt lat="42.451363" lon="8.903707">
        <ele>1650.8</ele>
        <time>2022-09-08T12:51:27Z</time>
      </trkpt>
      <trkpt lat="42.451343" lon="8.90372">
        <ele>1651.2</ele>
        <time>2022-09-08T12:51:31Z</time>
      </trkpt>
      <trkpt lat="42.451317" lon="8.903778">
        <ele>1651.8</ele>
        <time>2022-09-08T12:51:41Z</time>
      </trkpt>
      <trkpt lat="42.451308" lon="8.903797">
        <ele>1652.2</ele>
        <time>2022-09-08T12:51:46Z</time>
      </trkpt>
      <trkpt lat="42.451287" lon="8.903768">
        <ele>1653.2</ele>
        <time>2022-09-08T12:51:55Z</time>
      </trkpt>
      <trkpt lat="42.451262" lon="8.903695">
        <ele>1654.2</ele>
        <time>2022-09-08T12:52:12Z</time>
      </trkpt>
      <trkpt lat="42.451188" lon="8.903662">
        <ele>1653.6</ele>
        <time>2022-09-08T12:52:29Z</time>
      </trkpt>
      <trkpt lat="42.451158" lon="8.903645">
        <ele>1654.4</ele>
        <time>2022-09-08T12:52:35Z</time>
      </trkpt>
      <trkpt lat="42.451123" lon="8.903583">
        <ele>1655.6</ele>
        <time>2022-09-08T12:52:46Z</time>
      </trkpt>
      <trkpt lat="42.4511" lon="8.90362">
        <ele>1656.8</ele>
        <time>2022-09-08T12:52:56Z</time>
      </trkpt>
      <trkpt lat="42.45109" lon="8.90364">
        <ele>1657.0</ele>
        <time>2022-09-08T12:52:59Z</time>
      </trkpt>
      <trkpt lat="42.45108" lon="8.90365">
        <ele>1657.6</ele>
        <time>2022-09-08T12:53:06Z</time>
      </trkpt>
      <trkpt lat="42.451012" lon="8.903668">
        <ele>1659.6</ele>
        <time>2022-09-08T12:53:20Z</time>
      </trkpt>
      <trkpt lat="42.45104" lon="8.903665">
        <ele>1668.6</ele>
        <time>2022-09-08T12:54:34Z</time>
      </trkpt>
      <trkpt lat="42.450997" lon="8.903665">
        <ele>1669.4</ele>
        <time>2022-09-08T12:54:46Z</time>
      </trkpt>
      <trkpt lat="42.450898" lon="8.903658">
        <ele>1671.0</ele>
        <time>2022-09-08T12:54:56Z</time>
      </trkpt>
      <trkpt lat="42.45089" lon="8.90366">
        <ele>1671.4</ele>
        <time>2022-09-08T12:54:59Z</time>
      </trkpt>
      <trkpt lat="42.450817" lon="8.903662">
        <ele>1672.2</ele>
        <time>2022-09-08T12:55:09Z</time>
      </trkpt>
      <trkpt lat="42.450785" lon="8.903653">
        <ele>1672.6</ele>
        <time>2022-09-08T12:55:15Z</time>
      </trkpt>
      <trkpt lat="42.450612" lon="8.903555">
        <ele>1678.6</ele>
        <time>2022-09-08T13:03:39Z</time>
      </trkpt>
      <trkpt lat="42.450512" lon="8.903555">
        <ele>1679.2</ele>
        <time>2022-09-08T13:03:48Z</time>
      </trkpt>
      <trkpt lat="42.450357" lon="8.903473">
        <ele>1682.0</ele>
        <time>2022-09-08T13:04:04Z</time>
      </trkpt>
      <trkpt lat="42.450293" lon="8.90346">
        <ele>1682.8</ele>
        <time>2022-09-08T13:04:11Z</time>
      </trkpt>
      <trkpt lat="42.450267" lon="8.903478">
        <ele>1684.2</ele>
        <time>2022-09-08T13:04:21Z</time>
      </trkpt>
      <trkpt lat="42.450248" lon="8.903452">
        <ele>1685.0</ele>
        <time>2022-09-08T13:04:38Z</time>
      </trkpt>
      <trkpt lat="42.45022" lon="8.903443">
        <ele>1686.6</ele>
        <time>2022-09-08T13:04:49Z</time>
      </trkpt>
      <trkpt lat="42.45019" lon="8.903463">
        <ele>1687.8</ele>
        <time>2022-09-08T13:05:05Z</time>
      </trkpt>
      <trkpt lat="42.450062" lon="8.903575">
        <ele>1694.4</ele>
        <time>2022-09-08T13:06:16Z</time>
      </trkpt>
      <trkpt lat="42.450052" lon="8.90356">
        <ele>1695.0</ele>
        <time>2022-09-08T13:06:20Z</time>
      </trkpt>
      <trkpt lat="42.44999" lon="8.90356">
        <ele>1697.4</ele>
        <time>2022-09-08T13:06:32Z</time>
      </trkpt>
      <trkpt lat="42.449975" lon="8.903527">
        <ele>1697.8</ele>
        <time>2022-09-08T13:06:37Z</time>
      </trkpt>
      <trkpt lat="42.449955" lon="8.90349">
        <ele>1700.6</ele>
        <time>2022-09-08T13:07:09Z</time>
      </trkpt>
      <trkpt lat="42.449917" lon="8.903502">
        <ele>1701.0</ele>
        <time>2022-09-08T13:07:18Z</time>
      </trkpt>
      <trkpt lat="42.449897" lon="8.903528">
        <ele>1702.4</ele>
        <time>2022-09-08T13:07:26Z</time>
      </trkpt>
      <trkpt lat="42.449862" lon="8.903522">
        <ele>1703.0</ele>
        <time>2022-09-08T13:07:33Z</time>
      </trkpt>
      <trkpt lat="42.449858" lon="8.903515">
        <ele>1703.0</ele>
        <time>2022-09-08T13:07:34Z</time>
      </trkpt>
      <trkpt lat="42.449812" lon="8.903518">
        <ele>1705.0</ele>
        <time>2022-09-08T13:07:48Z</time>
      </trkpt>
      <trkpt lat="42.449775" lon="8.90353">
        <ele>1704.8</ele>
        <time>2022-09-08T13:07:58Z</time>
      </trkpt>
      <trkpt lat="42.449752" lon="8.903492">
        <ele>1706.4</ele>
        <time>2022-09-08T13:08:05Z</time>
      </trkpt>
      <trkpt lat="42.449752" lon="8.903427">
        <ele>1708.0</ele>
        <time>2022-09-08T13:08:31Z</time>
      </trkpt>
      <trkpt lat="42.449738" lon="8.903415">
        <ele>1708.2</ele>
        <time>2022-09-08T13:08:37Z</time>
      </trkpt>
      <trkpt lat="42.449728" lon="8.903417">
        <ele>1708.6</ele>
        <time>2022-09-08T13:08:41Z</time>
      </trkpt>
      <trkpt lat="42.44972" lon="8.903408">
        <ele>1708.8</ele>
        <time>2022-09-08T13:08:44Z</time>
      </trkpt>
      <trkpt lat="42.449735" lon="8.903372">
        <ele>1709.6</ele>
        <time>2022-09-08T13:08:50Z</time>
      </trkpt>
      <trkpt lat="42.44972" lon="8.90337">
        <ele>1712.6</ele>
        <time>2022-09-08T13:09:24Z</time>
      </trkpt>
      <trkpt lat="42.449693" lon="8.903357">
        <ele>1712.6</ele>
        <time>2022-09-08T13:09:29Z</time>
      </trkpt>
      <trkpt lat="42.449688" lon="8.90335">
        <ele>1712.8</ele>
        <time>2022-09-08T13:09:31Z</time>
      </trkpt>
      <trkpt lat="42.449655" lon="8.903367">
        <ele>1714.0</ele>
        <time>2022-09-08T13:09:45Z</time>
      </trkpt>
      <trkpt lat="42.44966" lon="8.903327">
        <ele>1715.2</ele>
        <time>2022-09-08T13:09:56Z</time>
      </trkpt>
      <trkpt lat="42.449645" lon="8.903323">
        <ele>1716.2</ele>
        <time>2022-09-08T13:10:03Z</time>
      </trkpt>
      <trkpt lat="42.449612" lon="8.903305">
        <ele>1717.2</ele>
        <time>2022-09-08T13:10:15Z</time>
      </trkpt>
      <trkpt lat="42.449562" lon="8.90333">
        <ele>1718.8</ele>
        <time>2022-09-08T13:10:26Z</time>
      </trkpt>
      <trkpt lat="42.449522" lon="8.903313">
        <ele>1719.6</ele>
        <time>2022-09-08T13:10:37Z</time>
      </trkpt>
      <trkpt lat="42.4495" lon="8.903228">
        <ele>1721.6</ele>
        <time>2022-09-08T13:10:52Z</time>
      </trkpt>
      <trkpt lat="42.449477" lon="8.903192">
        <ele>1722.2</ele>
        <time>2022-09-08T13:11:07Z</time>
      </trkpt>
      <trkpt lat="42.449472" lon="8.90319">
        <ele>1722.2</ele>
        <time>2022-09-08T13:11:08Z</time>
      </trkpt>
      <trkpt lat="42.44942" lon="8.903258">
        <ele>1723.4</ele>
        <time>2022-09-08T13:11:20Z</time>
      </trkpt>
      <trkpt lat="42.449358" lon="8.90326">
        <ele>1725.2</ele>
        <time>2022-09-08T13:11:36Z</time>
      </trkpt>
      <trkpt lat="42.449327" lon="8.903262">
        <ele>1725.4</ele>
        <time>2022-09-08T13:11:42Z</time>
      </trkpt>
      <trkpt lat="42.449293" lon="8.903245">
        <ele>1729.4</ele>
        <time>2022-09-08T13:12:24Z</time>
      </trkpt>
      <trkpt lat="42.449287" lon="8.90324">
        <ele>1729.4</ele>
        <time>2022-09-08T13:12:25Z</time>
      </trkpt>
      <trkpt lat="42.449268" lon="8.903198">
        <ele>1729.0</ele>
        <time>2022-09-08T13:12:32Z</time>
      </trkpt>
      <trkpt lat="42.44927" lon="8.903188">
        <ele>1729.0</ele>
        <time>2022-09-08T13:12:33Z</time>
      </trkpt>
      <trkpt lat="42.449302" lon="8.903162">
        <ele>1729.0</ele>
        <time>2022-09-08T13:12:37Z</time>
      </trkpt>
      <trkpt lat="42.449398" lon="8.90301">
        <ele>1730.6</ele>
        <time>2022-09-08T13:12:53Z</time>
      </trkpt>
      <trkpt lat="42.449455" lon="8.902978">
        <ele>1734.0</ele>
        <time>2022-09-08T13:13:44Z</time>
      </trkpt>
      <trkpt lat="42.449453" lon="8.902978">
        <ele>1734.2</ele>
        <time>2022-09-08T13:13:46Z</time>
      </trkpt>
      <trkpt lat="42.449475" lon="8.902863">
        <ele>1735.4</ele>
        <time>2022-09-08T13:14:03Z</time>
      </trkpt>
      <trkpt lat="42.449468" lon="8.902857">
        <ele>1735.4</ele>
        <time>2022-09-08T13:14:04Z</time>
      </trkpt>
      <trkpt lat="42.449445" lon="8.90285">
        <ele>1736.2</ele>
        <time>2022-09-08T13:14:12Z</time>
      </trkpt>
      <trkpt lat="42.44941" lon="8.902775">
        <ele>1738.8</ele>
        <time>2022-09-08T13:14:25Z</time>
      </trkpt>
      <trkpt lat="42.449403" lon="8.902768">
        <ele>1738.8</ele>
        <time>2022-09-08T13:14:27Z</time>
      </trkpt>
      <trkpt lat="42.449408" lon="8.902745">
        <ele>1742.0</ele>
        <time>2022-09-08T13:15:03Z</time>
      </trkpt>
      <trkpt lat="42.449407" lon="8.902745">
        <ele>1742.0</ele>
        <time>2022-09-08T13:15:04Z</time>
      </trkpt>
      <trkpt lat="42.449393" lon="8.902735">
        <ele>1742.4</ele>
        <time>2022-09-08T13:15:10Z</time>
      </trkpt>
      <trkpt lat="42.449365" lon="8.902737">
        <ele>1743.4</ele>
        <time>2022-09-08T13:15:17Z</time>
      </trkpt>
      <trkpt lat="42.449358" lon="8.902703">
        <ele>1743.8</ele>
        <time>2022-09-08T13:15:23Z</time>
      </trkpt>
      <trkpt lat="42.449357" lon="8.902667">
        <ele>1745.6</ele>
        <time>2022-09-08T13:15:32Z</time>
      </trkpt>
      <trkpt lat="42.449302" lon="8.902613">
        <ele>1747.6</ele>
        <time>2022-09-08T13:15:51Z</time>
      </trkpt>
      <trkpt lat="42.4493" lon="8.902607">
        <ele>1747.6</ele>
        <time>2022-09-08T13:15:52Z</time>
      </trkpt>
      <trkpt lat="42.449302" lon="8.90259">
        <ele>1747.8</ele>
        <time>2022-09-08T13:15:56Z</time>
      </trkpt>
      <trkpt lat="42.449333" lon="8.902545">
        <ele>1749.6</ele>
        <time>2022-09-08T13:16:05Z</time>
      </trkpt>
      <trkpt lat="42.44932" lon="8.902535">
        <ele>1750.2</ele>
        <time>2022-09-08T13:16:08Z</time>
      </trkpt>
      <trkpt lat="42.44927" lon="8.902575">
        <ele>1751.6</ele>
        <time>2022-09-08T13:16:18Z</time>
      </trkpt>
      <trkpt lat="42.449255" lon="8.902653">
        <ele>1752.0</ele>
        <time>2022-09-08T13:16:33Z</time>
      </trkpt>
      <trkpt lat="42.449255" lon="8.90265">
        <ele>1752.0</ele>
        <time>2022-09-08T13:16:34Z</time>
      </trkpt>
      <trkpt lat="42.44925" lon="8.902677">
        <ele>1752.6</ele>
        <time>2022-09-08T13:16:40Z</time>
      </trkpt>
      <trkpt lat="42.44928" lon="8.902707">
        <ele>1754.2</ele>
        <time>2022-09-08T13:16:58Z</time>
      </trkpt>
      <trkpt lat="42.449308" lon="8.902767">
        <ele>1753.6</ele>
        <time>2022-09-08T13:17:28Z</time>
      </trkpt>
      <trkpt lat="42.44931" lon="8.902772">
        <ele>1753.6</ele>
        <time>2022-09-08T13:17:29Z</time>
      </trkpt>
      <trkpt lat="42.449363" lon="8.903137">
        <ele>1753.2</ele>
        <time>2022-09-08T13:20:23Z</time>
      </trkpt>
      <trkpt lat="42.449368" lon="8.903063">
        <ele>1753.2</ele>
        <time>2022-09-08T13:20:36Z</time>
      </trkpt>
      <trkpt lat="42.449398" lon="8.902953">
        <ele>1753.2</ele>
        <time>2022-09-08T13:20:46Z</time>
      </trkpt>
      <trkpt lat="42.44941" lon="8.903002">
        <ele>1753.0</ele>
        <time>2022-09-08T13:21:19Z</time>
      </trkpt>
      <trkpt lat="42.44939" lon="8.903018">
        <ele>1752.6</ele>
        <time>2022-09-08T13:21:42Z</time>
      </trkpt>
      <trkpt lat="42.449375" lon="8.903012">
        <ele>1752.0</ele>
        <time>2022-09-08T13:21:54Z</time>
      </trkpt>
      <trkpt lat="42.449405" lon="8.902973">
        <ele>1751.6</ele>
        <time>2022-09-08T13:24:59Z</time>
      </trkpt>
      <trkpt lat="42.449402" lon="8.902985">
        <ele>1751.6</ele>
        <time>2022-09-08T13:25:21Z</time>
      </trkpt>
      <trkpt lat="42.449402" lon="8.902985">
        <ele>1751.6</ele>
        <time>2022-09-08T13:25:32Z</time>
      </trkpt>
      <trkpt lat="42.449403" lon="8.902987">
        <ele>1751.4</ele>
        <time>2022-09-08T13:25:44Z</time>
      </trkpt>
      <trkpt lat="42.449403" lon="8.90299">
        <ele>1751.6</ele>
        <time>2022-09-08T13:25:56Z</time>
      </trkpt>
      <trkpt lat="42.449405" lon="8.90298">
        <ele>1751.6</ele>
        <time>2022-09-08T13:26:07Z</time>
      </trkpt>
      <trkpt lat="42.44941" lon="8.902963">
        <ele>1751.6</ele>
        <time>2022-09-08T13:26:17Z</time>
      </trkpt>
      <trkpt lat="42.44941" lon="8.902957">
        <ele>1751.6</ele>
        <time>2022-09-08T13:26:27Z</time>
      </trkpt>
      <trkpt lat="42.449407" lon="8.902957">
        <ele>1750.6</ele>
        <time>2022-09-08T13:26:38Z</time>
      </trkpt>
      <trkpt lat="42.449407" lon="8.902948">
        <ele>1749.6</ele>
        <time>2022-09-08T13:26:50Z</time>
      </trkpt>
      <trkpt lat="42.449412" lon="8.902932">
        <ele>1750.2</ele>
        <time>2022-09-08T13:27:01Z</time>
      </trkpt>
      <trkpt lat="42.449355" lon="8.902797">
        <ele>1749.6</ele>
        <time>2022-09-08T13:27:11Z</time>
      </trkpt>
      <trkpt lat="42.44931" lon="8.902895">
        <ele>1748.0</ele>
        <time>2022-09-08T13:27:31Z</time>
      </trkpt>
      <trkpt lat="42.44924" lon="8.902862">
        <ele>1747.0</ele>
        <time>2022-09-08T13:27:41Z</time>
      </trkpt>
      <trkpt lat="42.449215" lon="8.902925">
        <ele>1746.6</ele>
        <time>2022-09-08T13:27:45Z</time>
      </trkpt>
      <trkpt lat="42.449207" lon="8.902968">
        <ele>1746.4</ele>
        <time>2022-09-08T13:27:53Z</time>
      </trkpt>
      <trkpt lat="42.44922" lon="8.903017">
        <ele>1745.6</ele>
        <time>2022-09-08T13:28:02Z</time>
      </trkpt>
      <trkpt lat="42.44923" lon="8.903045">
        <ele>1745.4</ele>
        <time>2022-09-08T13:28:06Z</time>
      </trkpt>
      <trkpt lat="42.44922" lon="8.903105">
        <ele>1744.8</ele>
        <time>2022-09-08T13:28:14Z</time>
      </trkpt>
      <trkpt lat="42.449195" lon="8.903125">
        <ele>1744.4</ele>
        <time>2022-09-08T13:28:19Z</time>
      </trkpt>
      <trkpt lat="42.449142" lon="8.903147">
        <ele>1743.8</ele>
        <time>2022-09-08T13:28:28Z</time>
      </trkpt>
      <trkpt lat="42.449097" lon="8.903193">
        <ele>1746.6</ele>
        <time>2022-09-08T13:28:52Z</time>
      </trkpt>
      <trkpt lat="42.449042" lon="8.903237">
        <ele>1749.8</ele>
        <time>2022-09-08T13:29:21Z</time>
      </trkpt>
      <trkpt lat="42.448995" lon="8.90325">
        <ele>1750.2</ele>
        <time>2022-09-08T13:29:29Z</time>
      </trkpt>
      <trkpt lat="42.448992" lon="8.903355">
        <ele>1750.6</ele>
        <time>2022-09-08T13:29:43Z</time>
      </trkpt>
      <trkpt lat="42.448972" lon="8.903418">
        <ele>1752.0</ele>
        <time>2022-09-08T13:29:52Z</time>
      </trkpt>
      <trkpt lat="42.448968" lon="8.903412">
        <ele>1752.0</ele>
        <time>2022-09-08T13:29:53Z</time>
      </trkpt>
      <trkpt lat="42.448938" lon="8.903367">
        <ele>1752.2</ele>
        <time>2022-09-08T13:29:59Z</time>
      </trkpt>
      <trkpt lat="42.448913" lon="8.903345">
        <ele>1752.4</ele>
        <time>2022-09-08T13:30:03Z</time>
      </trkpt>
      <trkpt lat="42.448787" lon="8.903388">
        <ele>1753.8</ele>
        <time>2022-09-08T13:30:20Z</time>
      </trkpt>
      <trkpt lat="42.448727" lon="8.903368">
        <ele>1753.8</ele>
        <time>2022-09-08T13:30:26Z</time>
      </trkpt>
      <trkpt lat="42.448687" lon="8.903345">
        <ele>1754.4</ele>
        <time>2022-09-08T13:30:31Z</time>
      </trkpt>
      <trkpt lat="42.448667" lon="8.903402">
        <ele>1755.4</ele>
        <time>2022-09-08T13:30:41Z</time>
      </trkpt>
      <trkpt lat="42.448667" lon="8.903403">
        <ele>1755.4</ele>
        <time>2022-09-08T13:30:42Z</time>
      </trkpt>
      <trkpt lat="42.44864" lon="8.90343">
        <ele>1758.4</ele>
        <time>2022-09-08T13:30:59Z</time>
      </trkpt>
      <trkpt lat="42.448608" lon="8.903487">
        <ele>1759.6</ele>
        <time>2022-09-08T13:31:08Z</time>
      </trkpt>
      <trkpt lat="42.448577" lon="8.903635">
        <ele>1760.6</ele>
        <time>2022-09-08T13:31:23Z</time>
      </trkpt>
      <trkpt lat="42.448562" lon="8.903705">
        <ele>1761.0</ele>
        <time>2022-09-08T13:31:32Z</time>
      </trkpt>
      <trkpt lat="42.448573" lon="8.903765">
        <ele>1761.8</ele>
        <time>2022-09-08T13:31:41Z</time>
      </trkpt>
      <trkpt lat="42.448582" lon="8.903785">
        <ele>1762.0</ele>
        <time>2022-09-08T13:31:44Z</time>
      </trkpt>
      <trkpt lat="42.448587" lon="8.903783">
        <ele>1762.4</ele>
        <time>2022-09-08T13:31:47Z</time>
      </trkpt>
      <trkpt lat="42.448647" lon="8.903847">
        <ele>1762.4</ele>
        <time>2022-09-08T13:32:02Z</time>
      </trkpt>
      <trkpt lat="42.448722" lon="8.903865">
        <ele>1766.0</ele>
        <time>2022-09-08T13:32:41Z</time>
      </trkpt>
      <trkpt lat="42.448775" lon="8.90389">
        <ele>1767.6</ele>
        <time>2022-09-08T13:33:07Z</time>
      </trkpt>
      <trkpt lat="42.448787" lon="8.903942">
        <ele>1770.0</ele>
        <time>2022-09-08T13:33:20Z</time>
      </trkpt>
      <trkpt lat="42.448785" lon="8.903948">
        <ele>1770.6</ele>
        <time>2022-09-08T13:33:24Z</time>
      </trkpt>
      <trkpt lat="42.448745" lon="8.90396">
        <ele>1771.8</ele>
        <time>2022-09-08T13:33:36Z</time>
      </trkpt>
      <trkpt lat="42.448713" lon="8.904028">
        <ele>1772.4</ele>
        <time>2022-09-08T13:33:44Z</time>
      </trkpt>
      <trkpt lat="42.448715" lon="8.904037">
        <ele>1772.4</ele>
        <time>2022-09-08T13:33:46Z</time>
      </trkpt>
      <trkpt lat="42.448638" lon="8.90395">
        <ele>1773.4</ele>
        <time>2022-09-08T13:33:58Z</time>
      </trkpt>
      <trkpt lat="42.448598" lon="8.903752">
        <ele>1774.6</ele>
        <time>2022-09-08T13:34:16Z</time>
      </trkpt>
      <trkpt lat="42.448555" lon="8.903607">
        <ele>1774.4</ele>
        <time>2022-09-08T13:34:26Z</time>
      </trkpt>
      <trkpt lat="42.448548" lon="8.903592">
        <ele>1774.4</ele>
        <time>2022-09-08T13:34:27Z</time>
      </trkpt>
      <trkpt lat="42.44853" lon="8.903542">
        <ele>1774.4</ele>
        <time>2022-09-08T13:34:32Z</time>
      </trkpt>
      <trkpt lat="42.448523" lon="8.903493">
        <ele>1775.0</ele>
        <time>2022-09-08T13:34:36Z</time>
      </trkpt>
      <trkpt lat="42.448543" lon="8.903422">
        <ele>1777.0</ele>
        <time>2022-09-08T13:35:02Z</time>
      </trkpt>
      <trkpt lat="42.448517" lon="8.903282">
        <ele>1777.8</ele>
        <time>2022-09-08T13:35:44Z</time>
      </trkpt>
      <trkpt lat="42.448438" lon="8.903238">
        <ele>1780.6</ele>
        <time>2022-09-08T13:36:24Z</time>
      </trkpt>
      <trkpt lat="42.448452" lon="8.903183">
        <ele>1781.6</ele>
        <time>2022-09-08T13:36:34Z</time>
      </trkpt>
      <trkpt lat="42.44848" lon="8.90314">
        <ele>1781.8</ele>
        <time>2022-09-08T13:36:51Z</time>
      </trkpt>
      <trkpt lat="42.448485" lon="8.903132">
        <ele>1782.0</ele>
        <time>2022-09-08T13:36:54Z</time>
      </trkpt>
      <trkpt lat="42.448463" lon="8.903102">
        <ele>1782.2</ele>
        <time>2022-09-08T13:37:00Z</time>
      </trkpt>
      <trkpt lat="42.448382" lon="8.903012">
        <ele>1782.2</ele>
        <time>2022-09-08T13:37:10Z</time>
      </trkpt>
      <trkpt lat="42.448287" lon="8.90297">
        <ele>1782.2</ele>
        <time>2022-09-08T13:37:17Z</time>
      </trkpt>
      <trkpt lat="42.448213" lon="8.902962">
        <ele>1782.2</ele>
        <time>2022-09-08T13:37:23Z</time>
      </trkpt>
      <trkpt lat="42.448202" lon="8.90296">
        <ele>1782.2</ele>
        <time>2022-09-08T13:37:24Z</time>
      </trkpt>
      <trkpt lat="42.448157" lon="8.902945">
        <ele>1782.4</ele>
        <time>2022-09-08T13:37:28Z</time>
      </trkpt>
      <trkpt lat="42.44808" lon="8.902917">
        <ele>1782.8</ele>
        <time>2022-09-08T13:37:35Z</time>
      </trkpt>
      <trkpt lat="42.448127" lon="8.902898">
        <ele>1782.8</ele>
        <time>2022-09-08T13:37:38Z</time>
      </trkpt>
      <trkpt lat="42.44823" lon="8.902863">
        <ele>1783.2</ele>
        <time>2022-09-08T13:37:48Z</time>
      </trkpt>
      <trkpt lat="42.448535" lon="8.90281">
        <ele>1784.4</ele>
        <time>2022-09-08T13:38:17Z</time>
      </trkpt>
      <trkpt lat="42.44868" lon="8.902747">
        <ele>1786.2</ele>
        <time>2022-09-08T13:38:32Z</time>
      </trkpt>
      <trkpt lat="42.448722" lon="8.902732">
        <ele>1786.6</ele>
        <time>2022-09-08T13:38:36Z</time>
      </trkpt>
      <trkpt lat="42.44876" lon="8.902652">
        <ele>1786.6</ele>
        <time>2022-09-08T13:38:51Z</time>
      </trkpt>
      <trkpt lat="42.448808" lon="8.902508">
        <ele>1787.0</ele>
        <time>2022-09-08T13:38:59Z</time>
      </trkpt>
      <trkpt lat="42.4488" lon="8.902398">
        <ele>1788.2</ele>
        <time>2022-09-08T13:39:12Z</time>
      </trkpt>
      <trkpt lat="42.448757" lon="8.902318">
        <ele>1801.0</ele>
        <time>2022-09-08T13:41:13Z</time>
      </trkpt>
      <trkpt lat="42.448755" lon="8.902257">
        <ele>1801.2</ele>
        <time>2022-09-08T13:41:17Z</time>
      </trkpt>
      <trkpt lat="42.448737" lon="8.90222">
        <ele>1801.6</ele>
        <time>2022-09-08T13:41:20Z</time>
      </trkpt>
      <trkpt lat="42.448673" lon="8.902207">
        <ele>1802.0</ele>
        <time>2022-09-08T13:41:29Z</time>
      </trkpt>
      <trkpt lat="42.448582" lon="8.902157">
        <ele>1804.6</ele>
        <time>2022-09-08T13:41:50Z</time>
      </trkpt>
      <trkpt lat="42.448535" lon="8.902175">
        <ele>1805.8</ele>
        <time>2022-09-08T13:42:01Z</time>
      </trkpt>
      <trkpt lat="42.44851" lon="8.9022">
        <ele>1806.0</ele>
        <time>2022-09-08T13:42:13Z</time>
      </trkpt>
      <trkpt lat="42.448483" lon="8.902208">
        <ele>1806.4</ele>
        <time>2022-09-08T13:42:20Z</time>
      </trkpt>
      <trkpt lat="42.448448" lon="8.902222">
        <ele>1807.4</ele>
        <time>2022-09-08T13:42:29Z</time>
      </trkpt>
      <trkpt lat="42.448403" lon="8.902238">
        <ele>1808.0</ele>
        <time>2022-09-08T13:42:44Z</time>
      </trkpt>
      <trkpt lat="42.448368" lon="8.90223">
        <ele>1809.2</ele>
        <time>2022-09-08T13:42:58Z</time>
      </trkpt>
      <trkpt lat="42.448358" lon="8.90222">
        <ele>1810.0</ele>
        <time>2022-09-08T13:43:03Z</time>
      </trkpt>
      <trkpt lat="42.448368" lon="8.902297">
        <ele>1813.6</ele>
        <time>2022-09-08T13:43:40Z</time>
      </trkpt>
      <trkpt lat="42.448335" lon="8.902323">
        <ele>1814.2</ele>
        <time>2022-09-08T13:43:46Z</time>
      </trkpt>
      <trkpt lat="42.448275" lon="8.90239">
        <ele>1814.6</ele>
        <time>2022-09-08T13:43:58Z</time>
      </trkpt>
      <trkpt lat="42.448263" lon="8.902395">
        <ele>1814.6</ele>
        <time>2022-09-08T13:43:59Z</time>
      </trkpt>
      <trkpt lat="42.448232" lon="8.902347">
        <ele>1815.2</ele>
        <time>2022-09-08T13:44:03Z</time>
      </trkpt>
      <trkpt lat="42.448253" lon="8.902318">
        <ele>1815.4</ele>
        <time>2022-09-08T13:44:06Z</time>
      </trkpt>
      <trkpt lat="42.448323" lon="8.902273">
        <ele>1815.6</ele>
        <time>2022-09-08T13:44:13Z</time>
      </trkpt>
      <trkpt lat="42.448373" lon="8.902235">
        <ele>1816.8</ele>
        <time>2022-09-08T13:44:19Z</time>
      </trkpt>
      <trkpt lat="42.448398" lon="8.902218">
        <ele>1816.8</ele>
        <time>2022-09-08T13:44:22Z</time>
      </trkpt>
      <trkpt lat="42.448415" lon="8.90216">
        <ele>1817.4</ele>
        <time>2022-09-08T13:44:28Z</time>
      </trkpt>
      <trkpt lat="42.448275" lon="8.902095">
        <ele>1819.0</ele>
        <time>2022-09-08T13:44:46Z</time>
      </trkpt>
      <trkpt lat="42.448193" lon="8.90202">
        <ele>1822.8</ele>
        <time>2022-09-08T13:45:13Z</time>
      </trkpt>
      <trkpt lat="42.448188" lon="8.902018">
        <ele>1823.0</ele>
        <time>2022-09-08T13:45:15Z</time>
      </trkpt>
      <trkpt lat="42.448185" lon="8.902028">
        <ele>1823.0</ele>
        <time>2022-09-08T13:45:16Z</time>
      </trkpt>
      <trkpt lat="42.44814" lon="8.902112">
        <ele>1823.4</ele>
        <time>2022-09-08T13:45:22Z</time>
      </trkpt>
      <trkpt lat="42.44808" lon="8.902265">
        <ele>1824.6</ele>
        <time>2022-09-08T13:45:38Z</time>
      </trkpt>
      <trkpt lat="42.448035" lon="8.902347">
        <ele>1824.8</ele>
        <time>2022-09-08T13:45:45Z</time>
      </trkpt>
      <trkpt lat="42.448003" lon="8.902368">
        <ele>1825.2</ele>
        <time>2022-09-08T13:45:52Z</time>
      </trkpt>
      <trkpt lat="42.447957" lon="8.902425">
        <ele>1826.4</ele>
        <time>2022-09-08T13:46:00Z</time>
      </trkpt>
      <trkpt lat="42.447947" lon="8.902445">
        <ele>1826.4</ele>
        <time>2022-09-08T13:46:02Z</time>
      </trkpt>
      <trkpt lat="42.447908" lon="8.902618">
        <ele>1827.2</ele>
        <time>2022-09-08T13:46:41Z</time>
      </trkpt>
      <trkpt lat="42.447885" lon="8.902658">
        <ele>1827.6</ele>
        <time>2022-09-08T13:46:55Z</time>
      </trkpt>
      <trkpt lat="42.447853" lon="8.902728">
        <ele>1829.4</ele>
        <time>2022-09-08T13:48:57Z</time>
      </trkpt>
      <trkpt lat="42.447837" lon="8.902785">
        <ele>1829.6</ele>
        <time>2022-09-08T13:49:00Z</time>
      </trkpt>
      <trkpt lat="42.447805" lon="8.90282">
        <ele>1830.0</ele>
        <time>2022-09-08T13:49:04Z</time>
      </trkpt>
      <trkpt lat="42.447758" lon="8.902858">
        <ele>1830.0</ele>
        <time>2022-09-08T13:49:09Z</time>
      </trkpt>
      <trkpt lat="42.447717" lon="8.902955">
        <ele>1830.0</ele>
        <time>2022-09-08T13:49:17Z</time>
      </trkpt>
      <trkpt lat="42.44769" lon="8.902965">
        <ele>1830.0</ele>
        <time>2022-09-08T13:49:20Z</time>
      </trkpt>
      <trkpt lat="42.447588" lon="8.90306">
        <ele>1830.6</ele>
        <time>2022-09-08T13:49:39Z</time>
      </trkpt>
      <trkpt lat="42.447468" lon="8.903177">
        <ele>1833.0</ele>
        <time>2022-09-08T13:50:18Z</time>
      </trkpt>
      <trkpt lat="42.447452" lon="8.903177">
        <ele>1836.0</ele>
        <time>2022-09-08T13:50:49Z</time>
      </trkpt>
      <trkpt lat="42.44741" lon="8.903197">
        <ele>1838.6</ele>
        <time>2022-09-08T13:51:29Z</time>
      </trkpt>
      <trkpt lat="42.447253" lon="8.903257">
        <ele>1846.6</ele>
        <time>2022-09-08T13:53:39Z</time>
      </trkpt>
      <trkpt lat="42.447302" lon="8.903353">
        <ele>1850.8</ele>
        <time>2022-09-08T13:54:27Z</time>
      </trkpt>
      <trkpt lat="42.447298" lon="8.903345">
        <ele>1850.8</ele>
        <time>2022-09-08T13:54:31Z</time>
      </trkpt>
      <trkpt lat="42.447207" lon="8.903338">
        <ele>1851.6</ele>
        <time>2022-09-08T13:54:39Z</time>
      </trkpt>
      <trkpt lat="42.447138" lon="8.90339">
        <ele>1852.4</ele>
        <time>2022-09-08T13:54:45Z</time>
      </trkpt>
      <trkpt lat="42.447137" lon="8.903467">
        <ele>1853.0</ele>
        <time>2022-09-08T13:54:53Z</time>
      </trkpt>
      <trkpt lat="42.44706" lon="8.9035">
        <ele>1854.0</ele>
        <time>2022-09-08T13:54:58Z</time>
      </trkpt>
      <trkpt lat="42.446988" lon="8.90348">
        <ele>1854.2</ele>
        <time>2022-09-08T13:55:03Z</time>
      </trkpt>
      <trkpt lat="42.446928" lon="8.903387">
        <ele>1856.2</ele>
        <time>2022-09-08T13:55:16Z</time>
      </trkpt>
      <trkpt lat="42.44688" lon="8.903458">
        <ele>1859.4</ele>
        <time>2022-09-08T13:55:47Z</time>
      </trkpt>
      <trkpt lat="42.446893" lon="8.903578">
        <ele>1858.4</ele>
        <time>2022-09-08T13:56:08Z</time>
      </trkpt>
      <trkpt lat="42.446885" lon="8.903593">
        <ele>1858.2</ele>
        <time>2022-09-08T13:56:12Z</time>
      </trkpt>
      <trkpt lat="42.446765" lon="8.903688">
        <ele>1857.4</ele>
        <time>2022-09-08T13:56:28Z</time>
      </trkpt>
      <trkpt lat="42.446675" lon="8.903707">
        <ele>1856.6</ele>
        <time>2022-09-08T13:56:36Z</time>
      </trkpt>
      <trkpt lat="42.446632" lon="8.903708">
        <ele>1856.6</ele>
        <time>2022-09-08T13:56:40Z</time>
      </trkpt>
      <trkpt lat="42.446608" lon="8.903715">
        <ele>1856.6</ele>
        <time>2022-09-08T13:56:43Z</time>
      </trkpt>
      <trkpt lat="42.446557" lon="8.903838">
        <ele>1857.4</ele>
        <time>2022-09-08T13:56:58Z</time>
      </trkpt>
      <trkpt lat="42.446578" lon="8.903878">
        <ele>1857.0</ele>
        <time>2022-09-08T13:57:23Z</time>
      </trkpt>
      <trkpt lat="42.446588" lon="8.903913">
        <ele>1856.4</ele>
        <time>2022-09-08T13:57:26Z</time>
      </trkpt>
      <trkpt lat="42.446583" lon="8.903975">
        <ele>1856.4</ele>
        <time>2022-09-08T13:57:36Z</time>
      </trkpt>
      <trkpt lat="42.44656" lon="8.904035">
        <ele>1858.2</ele>
        <time>2022-09-08T13:57:51Z</time>
      </trkpt>
      <trkpt lat="42.446497" lon="8.904072">
        <ele>1863.2</ele>
        <time>2022-09-08T13:58:42Z</time>
      </trkpt>
      <trkpt lat="42.446505" lon="8.904197">
        <ele>1869.6</ele>
        <time>2022-09-08T14:00:00Z</time>
      </trkpt>
      <trkpt lat="42.44649" lon="8.904225">
        <ele>1870.0</ele>
        <time>2022-09-08T14:00:10Z</time>
      </trkpt>
      <trkpt lat="42.446515" lon="8.904315">
        <ele>1870.2</ele>
        <time>2022-09-08T14:00:16Z</time>
      </trkpt>
      <trkpt lat="42.446498" lon="8.904475">
        <ele>1870.4</ele>
        <time>2022-09-08T14:00:28Z</time>
      </trkpt>
      <trkpt lat="42.446503" lon="8.904603">
        <ele>1870.4</ele>
        <time>2022-09-08T14:00:35Z</time>
      </trkpt>
      <trkpt lat="42.446463" lon="8.904688">
        <ele>1871.0</ele>
        <time>2022-09-08T14:01:02Z</time>
      </trkpt>
      <trkpt lat="42.446448" lon="8.9047">
        <ele>1871.0</ele>
        <time>2022-09-08T14:01:04Z</time>
      </trkpt>
      <trkpt lat="42.44644" lon="8.9047">
        <ele>1871.0</ele>
        <time>2022-09-08T14:01:05Z</time>
      </trkpt>
      <trkpt lat="42.4464" lon="8.90464">
        <ele>1871.6</ele>
        <time>2022-09-08T14:01:17Z</time>
      </trkpt>
      <trkpt lat="42.446388" lon="8.904587">
        <ele>1873.0</ele>
        <time>2022-09-08T14:01:24Z</time>
      </trkpt>
      <trkpt lat="42.446375" lon="8.90452">
        <ele>1873.8</ele>
        <time>2022-09-08T14:01:33Z</time>
      </trkpt>
      <trkpt lat="42.446358" lon="8.90449">
        <ele>1874.4</ele>
        <time>2022-09-08T14:01:40Z</time>
      </trkpt>
      <trkpt lat="42.446342" lon="8.904408">
        <ele>1876.2</ele>
        <time>2022-09-08T14:01:52Z</time>
      </trkpt>
      <trkpt lat="42.446303" lon="8.904432">
        <ele>1877.8</ele>
        <time>2022-09-08T14:02:08Z</time>
      </trkpt>
      <trkpt lat="42.446295" lon="8.904402">
        <ele>1878.2</ele>
        <time>2022-09-08T14:02:15Z</time>
      </trkpt>
      <trkpt lat="42.446282" lon="8.904363">
        <ele>1881.8</ele>
        <time>2022-09-08T14:02:35Z</time>
      </trkpt>
      <trkpt lat="42.44627" lon="8.904332">
        <ele>1882.6</ele>
        <time>2022-09-08T14:02:44Z</time>
      </trkpt>
      <trkpt lat="42.44625" lon="8.904298">
        <ele>1884.0</ele>
        <time>2022-09-08T14:03:01Z</time>
      </trkpt>
      <trkpt lat="42.446247" lon="8.904302">
        <ele>1884.2</ele>
        <time>2022-09-08T14:03:03Z</time>
      </trkpt>
      <trkpt lat="42.446237" lon="8.9043">
        <ele>1886.4</ele>
        <time>2022-09-08T14:03:29Z</time>
      </trkpt>
      <trkpt lat="42.44623" lon="8.904303">
        <ele>1886.6</ele>
        <time>2022-09-08T14:03:32Z</time>
      </trkpt>
      <trkpt lat="42.44623" lon="8.904298">
        <ele>1889.2</ele>
        <time>2022-09-08T14:04:01Z</time>
      </trkpt>
      <trkpt lat="42.446215" lon="8.904265">
        <ele>1893.2</ele>
        <time>2022-09-08T14:04:42Z</time>
      </trkpt>
      <trkpt lat="42.44606" lon="8.904335">
        <ele>1901.8</ele>
        <time>2022-09-08T14:06:30Z</time>
      </trkpt>
      <trkpt lat="42.446027" lon="8.904308">
        <ele>1902.8</ele>
        <time>2022-09-08T14:06:40Z</time>
      </trkpt>
      <trkpt lat="42.445975" lon="8.90434">
        <ele>1905.0</ele>
        <time>2022-09-08T14:07:05Z</time>
      </trkpt>
      <trkpt lat="42.445953" lon="8.904318">
        <ele>1905.0</ele>
        <time>2022-09-08T14:07:11Z</time>
      </trkpt>
      <trkpt lat="42.44593" lon="8.904333">
        <ele>1906.4</ele>
        <time>2022-09-08T14:07:25Z</time>
      </trkpt>
      <trkpt lat="42.445913" lon="8.904337">
        <ele>1907.8</ele>
        <time>2022-09-08T14:07:32Z</time>
      </trkpt>
      <trkpt lat="42.445912" lon="8.904348">
        <ele>1908.0</ele>
        <time>2022-09-08T14:07:34Z</time>
      </trkpt>
      <trkpt lat="42.445917" lon="8.90436">
        <ele>1908.4</ele>
        <time>2022-09-08T14:07:36Z</time>
      </trkpt>
      <trkpt lat="42.445918" lon="8.904438">
        <ele>1909.4</ele>
        <time>2022-09-08T14:07:46Z</time>
      </trkpt>
      <trkpt lat="42.445918" lon="8.904473">
        <ele>1909.8</ele>
        <time>2022-09-08T14:07:50Z</time>
      </trkpt>
      <trkpt lat="42.445903" lon="8.904528">
        <ele>1910.0</ele>
        <time>2022-09-08T14:07:57Z</time>
      </trkpt>
      <trkpt lat="42.445843" lon="8.904562">
        <ele>1912.0</ele>
        <time>2022-09-08T14:08:15Z</time>
      </trkpt>
      <trkpt lat="42.445705" lon="8.904655">
        <ele>1923.6</ele>
        <time>2022-09-08T14:11:10Z</time>
      </trkpt>
      <trkpt lat="42.445655" lon="8.904833">
        <ele>1925.8</ele>
        <time>2022-09-08T14:11:24Z</time>
      </trkpt>
      <trkpt lat="42.44562" lon="8.904862">
        <ele>1925.6</ele>
        <time>2022-09-08T14:11:30Z</time>
      </trkpt>
      <trkpt lat="42.445587" lon="8.904883">
        <ele>1925.0</ele>
        <time>2022-09-08T14:11:37Z</time>
      </trkpt>
      <trkpt lat="42.445558" lon="8.904913">
        <ele>1924.0</ele>
        <time>2022-09-08T14:11:45Z</time>
      </trkpt>
      <trkpt lat="42.445517" lon="8.904925">
        <ele>1923.4</ele>
        <time>2022-09-08T14:11:56Z</time>
      </trkpt>
      <trkpt lat="42.445518" lon="8.904928">
        <ele>1923.2</ele>
        <time>2022-09-08T14:11:57Z</time>
      </trkpt>
      <trkpt lat="42.445542" lon="8.904917">
        <ele>1922.8</ele>
        <time>2022-09-08T14:12:05Z</time>
      </trkpt>
      <trkpt lat="42.445578" lon="8.904898">
        <ele>1922.6</ele>
        <time>2022-09-08T14:12:19Z</time>
      </trkpt>
      <trkpt lat="42.446107" lon="8.904717">
        <ele>1922.0</ele>
        <time>2022-09-08T14:13:49Z</time>
      </trkpt>
      <trkpt lat="42.447395" lon="8.907297">
        <ele>1923.0</ele>
        <time>2022-09-08T14:21:11Z</time>
      </trkpt>
      <trkpt lat="42.445857" lon="8.905133">
        <ele>1923.6</ele>
        <time>2022-09-08T14:35:57Z</time>
      </trkpt>
      <trkpt lat="42.445878" lon="8.905235">
        <ele>1924.2</ele>
        <time>2022-09-08T14:36:00Z</time>
      </trkpt>
      <trkpt lat="42.44591" lon="8.905378">
        <ele>1924.6</ele>
        <time>2022-09-08T14:36:14Z</time>
      </trkpt>
      <trkpt lat="42.445917" lon="8.905442">
        <ele>1924.6</ele>
        <time>2022-09-08T14:36:17Z</time>
      </trkpt>
      <trkpt lat="42.445913" lon="8.905463">
        <ele>1924.6</ele>
        <time>2022-09-08T14:36:18Z</time>
      </trkpt>
      <trkpt lat="42.445858" lon="8.905545">
        <ele>1925.4</ele>
        <time>2022-09-08T14:36:36Z</time>
      </trkpt>
      <trkpt lat="42.445855" lon="8.905545">
        <ele>1925.4</ele>
        <time>2022-09-08T14:36:37Z</time>
      </trkpt>
      <trkpt lat="42.4458" lon="8.905547">
        <ele>1926.2</ele>
        <time>2022-09-08T14:36:54Z</time>
      </trkpt>
      <trkpt lat="42.445775" lon="8.905972">
        <ele>1945.8</ele>
        <time>2022-09-08T14:41:21Z</time>
      </trkpt>
      <trkpt lat="42.445797" lon="8.90599">
        <ele>1946.4</ele>
        <time>2022-09-08T14:41:23Z</time>
      </trkpt>
      <trkpt lat="42.445812" lon="8.906047">
        <ele>1946.4</ele>
        <time>2022-09-08T14:41:26Z</time>
      </trkpt>
      <trkpt lat="42.445807" lon="8.90611">
        <ele>1946.8</ele>
        <time>2022-09-08T14:41:28Z</time>
      </trkpt>
      <trkpt lat="42.445782" lon="8.906197">
        <ele>1946.8</ele>
        <time>2022-09-08T14:41:32Z</time>
      </trkpt>
      <trkpt lat="42.445747" lon="8.906288">
        <ele>1946.8</ele>
        <time>2022-09-08T14:41:36Z</time>
      </trkpt>
      <trkpt lat="42.445712" lon="8.906477">
        <ele>1948.4</ele>
        <time>2022-09-08T14:41:45Z</time>
      </trkpt>
      <trkpt lat="42.445692" lon="8.906555">
        <ele>1948.6</ele>
        <time>2022-09-08T14:41:49Z</time>
      </trkpt>
      <trkpt lat="42.445725" lon="8.906565">
        <ele>1949.0</ele>
        <time>2022-09-08T14:41:51Z</time>
      </trkpt>
      <trkpt lat="42.445777" lon="8.906555">
        <ele>1949.6</ele>
        <time>2022-09-08T14:41:54Z</time>
      </trkpt>
      <trkpt lat="42.445762" lon="8.906587">
        <ele>1951.2</ele>
        <time>2022-09-08T14:42:13Z</time>
      </trkpt>
      <trkpt lat="42.445737" lon="8.90662">
        <ele>1952.0</ele>
        <time>2022-09-08T14:42:19Z</time>
      </trkpt>
      <trkpt lat="42.44577" lon="8.906657">
        <ele>1952.6</ele>
        <time>2022-09-08T14:42:25Z</time>
      </trkpt>
      <trkpt lat="42.445815" lon="8.90665">
        <ele>1953.6</ele>
        <time>2022-09-08T14:42:29Z</time>
      </trkpt>
      <trkpt lat="42.445903" lon="8.906653">
        <ele>1954.8</ele>
        <time>2022-09-08T14:42:43Z</time>
      </trkpt>
      <trkpt lat="42.445878" lon="8.906697">
        <ele>1955.4</ele>
        <time>2022-09-08T14:42:48Z</time>
      </trkpt>
      <trkpt lat="42.445792" lon="8.906697">
        <ele>1957.6</ele>
        <time>2022-09-08T14:43:04Z</time>
      </trkpt>
      <trkpt lat="42.445763" lon="8.90669">
        <ele>1958.0</ele>
        <time>2022-09-08T14:43:07Z</time>
      </trkpt>
      <trkpt lat="42.445715" lon="8.906778">
        <ele>1959.4</ele>
        <time>2022-09-08T14:43:14Z</time>
      </trkpt>
      <trkpt lat="42.445705" lon="8.906788">
        <ele>1959.6</ele>
        <time>2022-09-08T14:43:16Z</time>
      </trkpt>
      <trkpt lat="42.445717" lon="8.906892">
        <ele>1960.4</ele>
        <time>2022-09-08T14:43:28Z</time>
      </trkpt>
      <trkpt lat="42.44562" lon="8.907075">
        <ele>1961.2</ele>
        <time>2022-09-08T14:43:40Z</time>
      </trkpt>
      <trkpt lat="42.445728" lon="8.907033">
        <ele>1962.0</ele>
        <time>2022-09-08T14:43:46Z</time>
      </trkpt>
      <trkpt lat="42.445688" lon="8.906788">
        <ele>1966.0</ele>
        <time>2022-09-08T14:44:27Z</time>
      </trkpt>
      <trkpt lat="42.445678" lon="8.906775">
        <ele>1966.0</ele>
        <time>2022-09-08T14:44:30Z</time>
      </trkpt>
      <trkpt lat="42.445643" lon="8.906765">
        <ele>1966.4</ele>
        <time>2022-09-08T14:44:36Z</time>
      </trkpt>
      <trkpt lat="42.44564" lon="8.906848">
        <ele>1967.8</ele>
        <time>2022-09-08T14:44:53Z</time>
      </trkpt>
      <trkpt lat="42.445615" lon="8.90713">
        <ele>1986.6</ele>
        <time>2022-09-08T14:48:27Z</time>
      </trkpt>
      <trkpt lat="42.4456" lon="8.907093">
        <ele>1987.6</ele>
        <time>2022-09-08T14:48:31Z</time>
      </trkpt>
      <trkpt lat="42.445593" lon="8.907082">
        <ele>1988.0</ele>
        <time>2022-09-08T14:48:34Z</time>
      </trkpt>
      <trkpt lat="42.445587" lon="8.907072">
        <ele>1988.0</ele>
        <time>2022-09-08T14:48:35Z</time>
      </trkpt>
      <trkpt lat="42.445565" lon="8.906975">
        <ele>1989.0</ele>
        <time>2022-09-08T14:48:42Z</time>
      </trkpt>
      <trkpt lat="42.445605" lon="8.906952">
        <ele>1989.6</ele>
        <time>2022-09-08T14:48:48Z</time>
      </trkpt>
      <trkpt lat="42.445627" lon="8.906973">
        <ele>1990.0</ele>
        <time>2022-09-08T14:48:52Z</time>
      </trkpt>
      <trkpt lat="42.445658" lon="8.90702">
        <ele>1990.6</ele>
        <time>2022-09-08T14:49:00Z</time>
      </trkpt>
      <trkpt lat="42.445683" lon="8.90702">
        <ele>1990.2</ele>
        <time>2022-09-08T14:49:28Z</time>
      </trkpt>
      <trkpt lat="42.447825" lon="8.907197">
        <ele>1988.4</ele>
        <time>2022-09-08T15:03:30Z</time>
      </trkpt>
      <trkpt lat="42.447358" lon="8.907257">
        <ele>1987.6</ele>
        <time>2022-09-08T15:04:03Z</time>
      </trkpt>
      <trkpt lat="42.446878" lon="8.907327">
        <ele>1988.6</ele>
        <time>2022-09-08T15:04:32Z</time>
      </trkpt>
      <trkpt lat="42.4456" lon="8.907447">
        <ele>1991.2</ele>
        <time>2022-09-08T15:05:58Z</time>
      </trkpt>
      <trkpt lat="42.445658" lon="8.907513">
        <ele>1993.6</ele>
        <time>2022-09-08T15:06:10Z</time>
      </trkpt>
      <trkpt lat="42.445707" lon="8.907532">
        <ele>1995.6</ele>
        <time>2022-09-08T15:06:24Z</time>
      </trkpt>
      <trkpt lat="42.445693" lon="8.907567">
        <ele>1997.4</ele>
        <time>2022-09-08T15:06:35Z</time>
      </trkpt>
      <trkpt lat="42.445652" lon="8.907607">
        <ele>2001.0</ele>
        <time>2022-09-08T15:06:52Z</time>
      </trkpt>
      <trkpt lat="42.445603" lon="8.907643">
        <ele>1998.8</ele>
        <time>2022-09-08T15:07:13Z</time>
      </trkpt>
      <trkpt lat="42.445572" lon="8.90766">
        <ele>1997.8</ele>
        <time>2022-09-08T15:07:25Z</time>
      </trkpt>
      <trkpt lat="42.445543" lon="8.90771">
        <ele>1997.8</ele>
        <time>2022-09-08T15:07:28Z</time>
      </trkpt>
      <trkpt lat="42.445588" lon="8.907765">
        <ele>1997.2</ele>
        <time>2022-09-08T15:07:32Z</time>
      </trkpt>
      <trkpt lat="42.445572" lon="8.907865">
        <ele>1997.0</ele>
        <time>2022-09-08T15:07:39Z</time>
      </trkpt>
      <trkpt lat="42.445538" lon="8.907908">
        <ele>1996.8</ele>
        <time>2022-09-08T15:07:43Z</time>
      </trkpt>
      <trkpt lat="42.445477" lon="8.907942">
        <ele>1996.8</ele>
        <time>2022-09-08T15:07:48Z</time>
      </trkpt>
      <trkpt lat="42.445402" lon="8.907965">
        <ele>1996.6</ele>
        <time>2022-09-08T15:07:54Z</time>
      </trkpt>
      <trkpt lat="42.445313" lon="8.907968">
        <ele>1995.4</ele>
        <time>2022-09-08T15:08:02Z</time>
      </trkpt>
      <trkpt lat="42.445248" lon="8.907985">
        <ele>1994.6</ele>
        <time>2022-09-08T15:08:10Z</time>
      </trkpt>
      <trkpt lat="42.445228" lon="8.907987">
        <ele>1995.0</ele>
        <time>2022-09-08T15:08:15Z</time>
      </trkpt>
      <trkpt lat="42.445183" lon="8.90794">
        <ele>1996.8</ele>
        <time>2022-09-08T15:08:35Z</time>
      </trkpt>
      <trkpt lat="42.445187" lon="8.907933">
        <ele>1996.8</ele>
        <time>2022-09-08T15:08:36Z</time>
      </trkpt>
      <trkpt lat="42.445175" lon="8.907908">
        <ele>1996.8</ele>
        <time>2022-09-08T15:08:40Z</time>
      </trkpt>
      <trkpt lat="42.445167" lon="8.90786">
        <ele>1997.0</ele>
        <time>2022-09-08T15:08:46Z</time>
      </trkpt>
      <trkpt lat="42.445137" lon="8.90785">
        <ele>1997.0</ele>
        <time>2022-09-08T15:08:50Z</time>
      </trkpt>
      <trkpt lat="42.445098" lon="8.90787">
        <ele>1997.0</ele>
        <time>2022-09-08T15:08:56Z</time>
      </trkpt>
      <trkpt lat="42.445073" lon="8.907868">
        <ele>1997.2</ele>
        <time>2022-09-08T15:09:00Z</time>
      </trkpt>
      <trkpt lat="42.445037" lon="8.90785">
        <ele>1996.8</ele>
        <time>2022-09-08T15:09:05Z</time>
      </trkpt>
      <trkpt lat="42.445013" lon="8.907762">
        <ele>1995.8</ele>
        <time>2022-09-08T15:09:12Z</time>
      </trkpt>
      <trkpt lat="42.444978" lon="8.907752">
        <ele>1995.8</ele>
        <time>2022-09-08T15:09:18Z</time>
      </trkpt>
      <trkpt lat="42.44488" lon="8.907732">
        <ele>1996.2</ele>
        <time>2022-09-08T15:09:32Z</time>
      </trkpt>
      <trkpt lat="42.444852" lon="8.907705">
        <ele>1995.8</ele>
        <time>2022-09-08T15:09:41Z</time>
      </trkpt>
      <trkpt lat="42.444792" lon="8.907683">
        <ele>1994.4</ele>
        <time>2022-09-08T15:09:54Z</time>
      </trkpt>
      <trkpt lat="42.444788" lon="8.907695">
        <ele>1994.4</ele>
        <time>2022-09-08T15:09:55Z</time>
      </trkpt>
      <trkpt lat="42.444732" lon="8.907802">
        <ele>1991.6</ele>
        <time>2022-09-08T15:10:08Z</time>
      </trkpt>
      <trkpt lat="42.444703" lon="8.907882">
        <ele>1988.6</ele>
        <time>2022-09-08T15:10:24Z</time>
      </trkpt>
      <trkpt lat="42.444678" lon="8.907995">
        <ele>1986.0</ele>
        <time>2022-09-08T15:10:44Z</time>
      </trkpt>
      <trkpt lat="42.444652" lon="8.908017">
        <ele>1984.4</ele>
        <time>2022-09-08T15:11:34Z</time>
      </trkpt>
      <trkpt lat="42.444607" lon="8.90809">
        <ele>1983.8</ele>
        <time>2022-09-08T15:12:07Z</time>
      </trkpt>
      <trkpt lat="42.444605" lon="8.908212">
        <ele>1976.8</ele>
        <time>2022-09-08T15:12:44Z</time>
      </trkpt>
      <trkpt lat="42.444602" lon="8.908255">
        <ele>1976.8</ele>
        <time>2022-09-08T15:12:57Z</time>
      </trkpt>
      <trkpt lat="42.444602" lon="8.908363">
        <ele>1976.4</ele>
        <time>2022-09-08T15:13:27Z</time>
      </trkpt>
      <trkpt lat="42.444623" lon="8.908412">
        <ele>1977.2</ele>
        <time>2022-09-08T15:13:33Z</time>
      </trkpt>
      <trkpt lat="42.444645" lon="8.908627">
        <ele>1979.0</ele>
        <time>2022-09-08T15:13:43Z</time>
      </trkpt>
      <trkpt lat="42.444642" lon="8.908643">
        <ele>1979.4</ele>
        <time>2022-09-08T15:13:45Z</time>
      </trkpt>
      <trkpt lat="42.444635" lon="8.908655">
        <ele>1979.6</ele>
        <time>2022-09-08T15:13:46Z</time>
      </trkpt>
      <trkpt lat="42.444582" lon="8.908662">
        <ele>1979.0</ele>
        <time>2022-09-08T15:13:56Z</time>
      </trkpt>
      <trkpt lat="42.444568" lon="8.908677">
        <ele>1979.0</ele>
        <time>2022-09-08T15:13:58Z</time>
      </trkpt>
      <trkpt lat="42.44445" lon="8.908847">
        <ele>1981.8</ele>
        <time>2022-09-08T15:15:05Z</time>
      </trkpt>
      <trkpt lat="42.444357" lon="8.908907">
        <ele>1986.2</ele>
        <time>2022-09-08T15:15:47Z</time>
      </trkpt>
      <trkpt lat="42.444395" lon="8.908985">
        <ele>1988.0</ele>
        <time>2022-09-08T15:16:08Z</time>
      </trkpt>
      <trkpt lat="42.44441" lon="8.909158">
        <ele>1988.2</ele>
        <time>2022-09-08T15:16:14Z</time>
      </trkpt>
      <trkpt lat="42.444443" lon="8.909325">
        <ele>1989.0</ele>
        <time>2022-09-08T15:16:20Z</time>
      </trkpt>
      <trkpt lat="42.444445" lon="8.909475">
        <ele>1989.8</ele>
        <time>2022-09-08T15:16:26Z</time>
      </trkpt>
      <trkpt lat="42.444438" lon="8.909495">
        <ele>1989.8</ele>
        <time>2022-09-08T15:16:27Z</time>
      </trkpt>
      <trkpt lat="42.444363" lon="8.909582">
        <ele>1991.2</ele>
        <time>2022-09-08T15:16:36Z</time>
      </trkpt>
      <trkpt lat="42.444333" lon="8.90961">
        <ele>1992.0</ele>
        <time>2022-09-08T15:16:40Z</time>
      </trkpt>
      <trkpt lat="42.444308" lon="8.909643">
        <ele>1992.4</ele>
        <time>2022-09-08T15:16:44Z</time>
      </trkpt>
      <trkpt lat="42.444288" lon="8.90968">
        <ele>1992.6</ele>
        <time>2022-09-08T15:16:48Z</time>
      </trkpt>
      <trkpt lat="42.44428" lon="8.9097">
        <ele>1992.6</ele>
        <time>2022-09-08T15:16:51Z</time>
      </trkpt>
      <trkpt lat="42.444203" lon="8.909835">
        <ele>1993.8</ele>
        <time>2022-09-08T15:17:07Z</time>
      </trkpt>
      <trkpt lat="42.444198" lon="8.909905">
        <ele>1994.2</ele>
        <time>2022-09-08T15:17:13Z</time>
      </trkpt>
      <trkpt lat="42.444165" lon="8.910135">
        <ele>1997.0</ele>
        <time>2022-09-08T15:17:34Z</time>
      </trkpt>
      <trkpt lat="42.444157" lon="8.910172">
        <ele>1997.8</ele>
        <time>2022-09-08T15:17:38Z</time>
      </trkpt>
      <trkpt lat="42.444117" lon="8.910303">
        <ele>1999.6</ele>
        <time>2022-09-08T15:17:53Z</time>
      </trkpt>
      <trkpt lat="42.444097" lon="8.910337">
        <ele>2000.2</ele>
        <time>2022-09-08T15:17:57Z</time>
      </trkpt>
      <trkpt lat="42.444042" lon="8.910417">
        <ele>2002.2</ele>
        <time>2022-09-08T15:18:10Z</time>
      </trkpt>
      <trkpt lat="42.443952" lon="8.910633">
        <ele>2004.8</ele>
        <time>2022-09-08T15:18:33Z</time>
      </trkpt>
      <trkpt lat="42.443945" lon="8.910647">
        <ele>2005.0</ele>
        <time>2022-09-08T15:18:35Z</time>
      </trkpt>
      <trkpt lat="42.444055" lon="8.910858">
        <ele>2007.8</ele>
        <time>2022-09-08T15:19:01Z</time>
      </trkpt>
      <trkpt lat="42.444138" lon="8.911005">
        <ele>2008.6</ele>
        <time>2022-09-08T15:19:23Z</time>
      </trkpt>
      <trkpt lat="42.444137" lon="8.911015">
        <ele>2008.6</ele>
        <time>2022-09-08T15:19:24Z</time>
      </trkpt>
      <trkpt lat="42.444095" lon="8.911213">
        <ele>2008.8</ele>
        <time>2022-09-08T15:19:37Z</time>
      </trkpt>
      <trkpt lat="42.44408" lon="8.911267">
        <ele>2008.8</ele>
        <time>2022-09-08T15:19:40Z</time>
      </trkpt>
      <trkpt lat="42.444015" lon="8.911478">
        <ele>2009.2</ele>
        <time>2022-09-08T15:19:54Z</time>
      </trkpt>
      <trkpt lat="42.444027" lon="8.911492">
        <ele>2009.2</ele>
        <time>2022-09-08T15:19:56Z</time>
      </trkpt>
      <trkpt lat="42.444063" lon="8.911557">
        <ele>2010.6</ele>
        <time>2022-09-08T15:20:05Z</time>
      </trkpt>
      <trkpt lat="42.444078" lon="8.911595">
        <ele>2011.4</ele>
        <time>2022-09-08T15:20:10Z</time>
      </trkpt>
      <trkpt lat="42.444085" lon="8.91161">
        <ele>2011.8</ele>
        <time>2022-09-08T15:20:12Z</time>
      </trkpt>
      <trkpt lat="42.444107" lon="8.911692">
        <ele>2013.2</ele>
        <time>2022-09-08T15:20:23Z</time>
      </trkpt>
      <trkpt lat="42.444093" lon="8.911737">
        <ele>2014.4</ele>
        <time>2022-09-08T15:20:36Z</time>
      </trkpt>
      <trkpt lat="42.444095" lon="8.911747">
        <ele>2014.4</ele>
        <time>2022-09-08T15:20:37Z</time>
      </trkpt>
      <trkpt lat="42.444093" lon="8.911755">
        <ele>2014.4</ele>
        <time>2022-09-08T15:20:38Z</time>
      </trkpt>
      <trkpt lat="42.444082" lon="8.911832">
        <ele>2014.6</ele>
        <time>2022-09-08T15:20:46Z</time>
      </trkpt>
      <trkpt lat="42.44406" lon="8.911888">
        <ele>2016.0</ele>
        <time>2022-09-08T15:21:08Z</time>
      </trkpt>
      <trkpt lat="42.444032" lon="8.911935">
        <ele>2017.8</ele>
        <time>2022-09-08T15:21:37Z</time>
      </trkpt>
      <trkpt lat="42.444008" lon="8.911957">
        <ele>2018.8</ele>
        <time>2022-09-08T15:21:51Z</time>
      </trkpt>
      <trkpt lat="42.444007" lon="8.91196">
        <ele>2018.8</ele>
        <time>2022-09-08T15:21:52Z</time>
      </trkpt>
      <trkpt lat="42.44396" lon="8.912023">
        <ele>2019.0</ele>
        <time>2022-09-08T15:22:28Z</time>
      </trkpt>
      <trkpt lat="42.443918" lon="8.912065">
        <ele>2021.6</ele>
        <time>2022-09-08T15:23:05Z</time>
      </trkpt>
      <trkpt lat="42.443952" lon="8.912172">
        <ele>2022.0</ele>
        <time>2022-09-08T15:23:52Z</time>
      </trkpt>
      <trkpt lat="42.443937" lon="8.912275">
        <ele>2020.6</ele>
        <time>2022-09-08T15:24:01Z</time>
      </trkpt>
      <trkpt lat="42.443918" lon="8.912423">
        <ele>2020.6</ele>
        <time>2022-09-08T15:24:08Z</time>
      </trkpt>
      <trkpt lat="42.443945" lon="8.9126">
        <ele>2021.6</ele>
        <time>2022-09-08T15:24:15Z</time>
      </trkpt>
      <trkpt lat="42.443958" lon="8.91264">
        <ele>2022.0</ele>
        <time>2022-09-08T15:24:18Z</time>
      </trkpt>
      <trkpt lat="42.443947" lon="8.912705">
        <ele>2023.8</ele>
        <time>2022-09-08T15:24:26Z</time>
      </trkpt>
      <trkpt lat="42.443928" lon="8.91273">
        <ele>2025.0</ele>
        <time>2022-09-08T15:24:30Z</time>
      </trkpt>
      <trkpt lat="42.443927" lon="8.912788">
        <ele>2026.6</ele>
        <time>2022-09-08T15:24:40Z</time>
      </trkpt>
      <trkpt lat="42.443922" lon="8.912852">
        <ele>2024.8</ele>
        <time>2022-09-08T15:25:22Z</time>
      </trkpt>
      <trkpt lat="42.44393" lon="8.912875">
        <ele>2023.2</ele>
        <time>2022-09-08T15:25:33Z</time>
      </trkpt>
      <trkpt lat="42.443917" lon="8.912937">
        <ele>2021.4</ele>
        <time>2022-09-08T15:25:55Z</time>
      </trkpt>
      <trkpt lat="42.44387" lon="8.913115">
        <ele>2014.8</ele>
        <time>2022-09-08T15:27:04Z</time>
      </trkpt>
      <trkpt lat="42.443852" lon="8.91314">
        <ele>2013.0</ele>
        <time>2022-09-08T15:27:20Z</time>
      </trkpt>
      <trkpt lat="42.44381" lon="8.913168">
        <ele>2012.2</ele>
        <time>2022-09-08T15:27:28Z</time>
      </trkpt>
      <trkpt lat="42.443787" lon="8.913248">
        <ele>2011.2</ele>
        <time>2022-09-08T15:27:45Z</time>
      </trkpt>
      <trkpt lat="42.443788" lon="8.913273">
        <ele>2009.4</ele>
        <time>2022-09-08T15:27:54Z</time>
      </trkpt>
      <trkpt lat="42.443772" lon="8.913313">
        <ele>2008.6</ele>
        <time>2022-09-08T15:28:05Z</time>
      </trkpt>
      <trkpt lat="42.44376" lon="8.91332">
        <ele>2008.6</ele>
        <time>2022-09-08T15:28:08Z</time>
      </trkpt>
      <trkpt lat="42.443752" lon="8.913355">
        <ele>2008.0</ele>
        <time>2022-09-08T15:28:18Z</time>
      </trkpt>
      <trkpt lat="42.443755" lon="8.913405">
        <ele>2006.2</ele>
        <time>2022-09-08T15:28:37Z</time>
      </trkpt>
      <trkpt lat="42.443732" lon="8.913462">
        <ele>2005.2</ele>
        <time>2022-09-08T15:29:00Z</time>
      </trkpt>
      <trkpt lat="42.443792" lon="8.913533">
        <ele>2004.0</ele>
        <time>2022-09-08T15:29:08Z</time>
      </trkpt>
      <trkpt lat="42.443797" lon="8.913688">
        <ele>2002.6</ele>
        <time>2022-09-08T15:29:19Z</time>
      </trkpt>
      <trkpt lat="42.4438" lon="8.913698">
        <ele>2002.4</ele>
        <time>2022-09-08T15:29:20Z</time>
      </trkpt>
      <trkpt lat="42.44378" lon="8.913748">
        <ele>2001.6</ele>
        <time>2022-09-08T15:29:28Z</time>
      </trkpt>
      <trkpt lat="42.443777" lon="8.913762">
        <ele>2001.4</ele>
        <time>2022-09-08T15:29:31Z</time>
      </trkpt>
      <trkpt lat="42.44368" lon="8.914108">
        <ele>1972.6</ele>
        <time>2022-09-08T15:34:27Z</time>
      </trkpt>
      <trkpt lat="42.443653" lon="8.914138">
        <ele>1972.0</ele>
        <time>2022-09-08T15:34:31Z</time>
      </trkpt>
      <trkpt lat="42.44364" lon="8.914295">
        <ele>1971.0</ele>
        <time>2022-09-08T15:34:39Z</time>
      </trkpt>
      <trkpt lat="42.44363" lon="8.914315">
        <ele>1970.6</ele>
        <time>2022-09-08T15:34:41Z</time>
      </trkpt>
      <trkpt lat="42.443578" lon="8.914352">
        <ele>1970.2</ele>
        <time>2022-09-08T15:34:44Z</time>
      </trkpt>
      <trkpt lat="42.44352" lon="8.914393">
        <ele>1969.4</ele>
        <time>2022-09-08T15:34:48Z</time>
      </trkpt>
      <trkpt lat="42.443508" lon="8.91444">
        <ele>1969.0</ele>
        <time>2022-09-08T15:34:51Z</time>
      </trkpt>
      <trkpt lat="42.44352" lon="8.91456">
        <ele>1967.6</ele>
        <time>2022-09-08T15:34:59Z</time>
      </trkpt>
      <trkpt lat="42.44351" lon="8.914568">
        <ele>1967.6</ele>
        <time>2022-09-08T15:35:00Z</time>
      </trkpt>
      <trkpt lat="42.443452" lon="8.91463">
        <ele>1966.6</ele>
        <time>2022-09-08T15:35:07Z</time>
      </trkpt>
      <trkpt lat="42.443425" lon="8.914702">
        <ele>1966.0</ele>
        <time>2022-09-08T15:35:13Z</time>
      </trkpt>
      <trkpt lat="42.44342" lon="8.914728">
        <ele>1966.0</ele>
        <time>2022-09-08T15:35:15Z</time>
      </trkpt>
      <trkpt lat="42.443398" lon="8.9148">
        <ele>1965.0</ele>
        <time>2022-09-08T15:35:22Z</time>
      </trkpt>
      <trkpt lat="42.443383" lon="8.914813">
        <ele>1964.4</ele>
        <time>2022-09-08T15:35:25Z</time>
      </trkpt>
      <trkpt lat="42.443357" lon="8.914823">
        <ele>1963.8</ele>
        <time>2022-09-08T15:35:28Z</time>
      </trkpt>
      <trkpt lat="42.44331" lon="8.914825">
        <ele>1962.8</ele>
        <time>2022-09-08T15:35:33Z</time>
      </trkpt>
      <trkpt lat="42.44329" lon="8.914845">
        <ele>1962.2</ele>
        <time>2022-09-08T15:35:36Z</time>
      </trkpt>
      <trkpt lat="42.44326" lon="8.914895">
        <ele>1961.4</ele>
        <time>2022-09-08T15:35:42Z</time>
      </trkpt>
      <trkpt lat="42.443252" lon="8.91491">
        <ele>1961.0</ele>
        <time>2022-09-08T15:35:44Z</time>
      </trkpt>
      <trkpt lat="42.443217" lon="8.914978">
        <ele>1959.2</ele>
        <time>2022-09-08T15:35:54Z</time>
      </trkpt>
      <trkpt lat="42.443217" lon="8.914985">
        <ele>1959.2</ele>
        <time>2022-09-08T15:35:55Z</time>
      </trkpt>
      <trkpt lat="42.443178" lon="8.915025">
        <ele>1957.8</ele>
        <time>2022-09-08T15:36:01Z</time>
      </trkpt>
      <trkpt lat="42.443132" lon="8.915042">
        <ele>1956.8</ele>
        <time>2022-09-08T15:36:07Z</time>
      </trkpt>
      <trkpt lat="42.44308" lon="8.915018">
        <ele>1955.4</ele>
        <time>2022-09-08T15:36:16Z</time>
      </trkpt>
      <trkpt lat="42.443065" lon="8.915025">
        <ele>1955.0</ele>
        <time>2022-09-08T15:36:18Z</time>
      </trkpt>
      <trkpt lat="42.443007" lon="8.915047">
        <ele>1954.0</ele>
        <time>2022-09-08T15:36:26Z</time>
      </trkpt>
      <trkpt lat="42.442993" lon="8.915048">
        <ele>1954.0</ele>
        <time>2022-09-08T15:36:28Z</time>
      </trkpt>
      <trkpt lat="42.442923" lon="8.915073">
        <ele>1952.4</ele>
        <time>2022-09-08T15:36:38Z</time>
      </trkpt>
      <trkpt lat="42.442917" lon="8.915077">
        <ele>1952.2</ele>
        <time>2022-09-08T15:36:39Z</time>
      </trkpt>
      <trkpt lat="42.442885" lon="8.915155">
        <ele>1950.6</ele>
        <time>2022-09-08T15:36:51Z</time>
      </trkpt>
      <trkpt lat="42.44287" lon="8.915213">
        <ele>1949.0</ele>
        <time>2022-09-08T15:37:00Z</time>
      </trkpt>
      <trkpt lat="42.442862" lon="8.915238">
        <ele>1947.8</ele>
        <time>2022-09-08T15:37:09Z</time>
      </trkpt>
      <trkpt lat="42.442817" lon="8.915238">
        <ele>1947.2</ele>
        <time>2022-09-08T15:37:20Z</time>
      </trkpt>
      <trkpt lat="42.44279" lon="8.915242">
        <ele>1946.6</ele>
        <time>2022-09-08T15:37:27Z</time>
      </trkpt>
      <trkpt lat="42.442765" lon="8.915267">
        <ele>1946.0</ele>
        <time>2022-09-08T15:37:32Z</time>
      </trkpt>
      <trkpt lat="42.442723" lon="8.9153">
        <ele>1946.0</ele>
        <time>2022-09-08T15:37:44Z</time>
      </trkpt>
      <trkpt lat="42.442688" lon="8.915328">
        <ele>1944.6</ele>
        <time>2022-09-08T15:38:06Z</time>
      </trkpt>
      <trkpt lat="42.442672" lon="8.915308">
        <ele>1943.4</ele>
        <time>2022-09-08T15:38:12Z</time>
      </trkpt>
      <trkpt lat="42.442623" lon="8.91534">
        <ele>1941.8</ele>
        <time>2022-09-08T15:38:26Z</time>
      </trkpt>
      <trkpt lat="42.442607" lon="8.915332">
        <ele>1941.2</ele>
        <time>2022-09-08T15:38:30Z</time>
      </trkpt>
      <trkpt lat="42.442495" lon="8.91553">
        <ele>1925.2</ele>
        <time>2022-09-08T15:40:07Z</time>
      </trkpt>
      <trkpt lat="42.44248" lon="8.9155">
        <ele>1921.6</ele>
        <time>2022-09-08T15:40:27Z</time>
      </trkpt>
      <trkpt lat="42.442452" lon="8.915335">
        <ele>1917.0</ele>
        <time>2022-09-08T15:41:01Z</time>
      </trkpt>
      <trkpt lat="42.442433" lon="8.915342">
        <ele>1915.2</ele>
        <time>2022-09-08T15:41:12Z</time>
      </trkpt>
      <trkpt lat="42.442428" lon="8.915352">
        <ele>1915.2</ele>
        <time>2022-09-08T15:41:13Z</time>
      </trkpt>
      <trkpt lat="42.442413" lon="8.915358">
        <ele>1914.6</ele>
        <time>2022-09-08T15:41:15Z</time>
      </trkpt>
      <trkpt lat="42.442395" lon="8.915358">
        <ele>1914.6</ele>
        <time>2022-09-08T15:41:17Z</time>
      </trkpt>
      <trkpt lat="42.44235" lon="8.91535">
        <ele>1914.4</ele>
        <time>2022-09-08T15:41:22Z</time>
      </trkpt>
      <trkpt lat="42.442225" lon="8.915393">
        <ele>1913.0</ele>
        <time>2022-09-08T15:41:37Z</time>
      </trkpt>
      <trkpt lat="42.442167" lon="8.915273">
        <ele>1911.0</ele>
        <time>2022-09-08T15:41:48Z</time>
      </trkpt>
      <trkpt lat="42.442055" lon="8.915242">
        <ele>1910.2</ele>
        <time>2022-09-08T15:41:55Z</time>
      </trkpt>
      <trkpt lat="42.442038" lon="8.915212">
        <ele>1909.8</ele>
        <time>2022-09-08T15:41:57Z</time>
      </trkpt>
      <trkpt lat="42.442005" lon="8.915143">
        <ele>1908.6</ele>
        <time>2022-09-08T15:42:02Z</time>
      </trkpt>
      <trkpt lat="42.442013" lon="8.915045">
        <ele>1907.4</ele>
        <time>2022-09-08T15:42:14Z</time>
      </trkpt>
      <trkpt lat="42.44198" lon="8.915015">
        <ele>1906.2</ele>
        <time>2022-09-08T15:42:26Z</time>
      </trkpt>
      <trkpt lat="42.44193" lon="8.915033">
        <ele>1904.0</ele>
        <time>2022-09-08T15:42:41Z</time>
      </trkpt>
      <trkpt lat="42.441883" lon="8.915052">
        <ele>1901.6</ele>
        <time>2022-09-08T15:42:55Z</time>
      </trkpt>
      <trkpt lat="42.44188" lon="8.915053">
        <ele>1901.2</ele>
        <time>2022-09-08T15:42:56Z</time>
      </trkpt>
      <trkpt lat="42.442063" lon="8.91523">
        <ele>1901.0</ele>
        <time>2022-09-08T15:43:04Z</time>
      </trkpt>
      <trkpt lat="42.441863" lon="8.915258">
        <ele>1911.4</ele>
        <time>2022-09-08T15:45:53Z</time>
      </trkpt>
      <trkpt lat="42.441873" lon="8.915285">
        <ele>1911.8</ele>
        <time>2022-09-08T15:45:56Z</time>
      </trkpt>
      <trkpt lat="42.441813" lon="8.91546">
        <ele>1913.6</ele>
        <time>2022-09-08T15:46:07Z</time>
      </trkpt>
      <trkpt lat="42.441793" lon="8.91548">
        <ele>1913.6</ele>
        <time>2022-09-08T15:46:09Z</time>
      </trkpt>
      <trkpt lat="42.441592" lon="8.915612">
        <ele>1915.8</ele>
        <time>2022-09-08T15:46:29Z</time>
      </trkpt>
      <trkpt lat="42.441535" lon="8.915633">
        <ele>1915.4</ele>
        <time>2022-09-08T15:46:54Z</time>
      </trkpt>
      <trkpt lat="42.441508" lon="8.915635">
        <ele>1915.4</ele>
        <time>2022-09-08T15:47:00Z</time>
      </trkpt>
      <trkpt lat="42.441447" lon="8.915597">
        <ele>1915.2</ele>
        <time>2022-09-08T15:47:16Z</time>
      </trkpt>
      <trkpt lat="42.441453" lon="8.915562">
        <ele>1915.0</ele>
        <time>2022-09-08T15:47:23Z</time>
      </trkpt>
      <trkpt lat="42.441455" lon="8.915522">
        <ele>1914.4</ele>
        <time>2022-09-08T15:47:51Z</time>
      </trkpt>
      <trkpt lat="42.44144" lon="8.915493">
        <ele>1910.6</ele>
        <time>2022-09-08T15:48:47Z</time>
      </trkpt>
      <trkpt lat="42.441395" lon="8.915518">
        <ele>1907.6</ele>
        <time>2022-09-08T15:49:06Z</time>
      </trkpt>
      <trkpt lat="42.441208" lon="8.915573">
        <ele>1890.6</ele>
        <time>2022-09-08T15:51:28Z</time>
      </trkpt>
      <trkpt lat="42.441087" lon="8.915603">
        <ele>1889.4</ele>
        <time>2022-09-08T15:51:38Z</time>
      </trkpt>
      <trkpt lat="42.440905" lon="8.915727">
        <ele>1887.8</ele>
        <time>2022-09-08T15:51:57Z</time>
      </trkpt>
      <trkpt lat="42.440852" lon="8.915738">
        <ele>1886.6</ele>
        <time>2022-09-08T15:52:04Z</time>
      </trkpt>
      <trkpt lat="42.440802" lon="8.915715">
        <ele>1885.8</ele>
        <time>2022-09-08T15:52:12Z</time>
      </trkpt>
      <trkpt lat="42.440748" lon="8.915715">
        <ele>1885.4</ele>
        <time>2022-09-08T15:52:27Z</time>
      </trkpt>
      <trkpt lat="42.44071" lon="8.915657">
        <ele>1886.6</ele>
        <time>2022-09-08T15:52:36Z</time>
      </trkpt>
      <trkpt lat="42.440697" lon="8.915638">
        <ele>1886.8</ele>
        <time>2022-09-08T15:52:41Z</time>
      </trkpt>
      <trkpt lat="42.440675" lon="8.915625">
        <ele>1886.8</ele>
        <time>2022-09-08T15:52:47Z</time>
      </trkpt>
      <trkpt lat="42.440623" lon="8.915662">
        <ele>1886.8</ele>
        <time>2022-09-08T15:52:56Z</time>
      </trkpt>
      <trkpt lat="42.440552" lon="8.915693">
        <ele>1888.6</ele>
        <time>2022-09-08T15:53:18Z</time>
      </trkpt>
      <trkpt lat="42.440532" lon="8.91571">
        <ele>1889.2</ele>
        <time>2022-09-08T15:53:26Z</time>
      </trkpt>
      <trkpt lat="42.440512" lon="8.915728">
        <ele>1889.8</ele>
        <time>2022-09-08T15:53:36Z</time>
      </trkpt>
      <trkpt lat="42.44049" lon="8.915747">
        <ele>1890.6</ele>
        <time>2022-09-08T15:53:45Z</time>
      </trkpt>
      <trkpt lat="42.440487" lon="8.915752">
        <ele>1890.6</ele>
        <time>2022-09-08T15:53:47Z</time>
      </trkpt>
      <trkpt lat="42.440545" lon="8.91583">
        <ele>1891.8</ele>
        <time>2022-09-08T15:54:03Z</time>
      </trkpt>
      <trkpt lat="42.44057" lon="8.91586">
        <ele>1891.8</ele>
        <time>2022-09-08T15:54:08Z</time>
      </trkpt>
      <trkpt lat="42.44061" lon="8.915972">
        <ele>1892.0</ele>
        <time>2022-09-08T15:54:18Z</time>
      </trkpt>
      <trkpt lat="42.440615" lon="8.915987">
        <ele>1892.0</ele>
        <time>2022-09-08T15:54:19Z</time>
      </trkpt>
      <trkpt lat="42.4406" lon="8.91598">
        <ele>1892.0</ele>
        <time>2022-09-08T15:54:21Z</time>
      </trkpt>
      <trkpt lat="42.440587" lon="8.91597">
        <ele>1891.6</ele>
        <time>2022-09-08T15:54:23Z</time>
      </trkpt>
      <trkpt lat="42.440572" lon="8.915958">
        <ele>1891.4</ele>
        <time>2022-09-08T15:54:26Z</time>
      </trkpt>
      <trkpt lat="42.440498" lon="8.915923">
        <ele>1888.6</ele>
        <time>2022-09-08T15:54:59Z</time>
      </trkpt>
      <trkpt lat="42.440458" lon="8.91595">
        <ele>1890.0</ele>
        <time>2022-09-08T15:55:09Z</time>
      </trkpt>
      <trkpt lat="42.440422" lon="8.915942">
        <ele>1890.2</ele>
        <time>2022-09-08T15:55:23Z</time>
      </trkpt>
      <trkpt lat="42.44039" lon="8.915963">
        <ele>1889.8</ele>
        <time>2022-09-08T15:55:31Z</time>
      </trkpt>
      <trkpt lat="42.440343" lon="8.916112">
        <ele>1888.8</ele>
        <time>2022-09-08T15:56:14Z</time>
      </trkpt>
      <trkpt lat="42.440327" lon="8.91613">
        <ele>1889.0</ele>
        <time>2022-09-08T15:56:24Z</time>
      </trkpt>
      <trkpt lat="42.440305" lon="8.91616">
        <ele>1889.2</ele>
        <time>2022-09-08T15:56:45Z</time>
      </trkpt>
      <trkpt lat="42.440302" lon="8.916152">
        <ele>1889.2</ele>
        <time>2022-09-08T15:56:46Z</time>
      </trkpt>
      <trkpt lat="42.440293" lon="8.916137">
        <ele>1889.6</ele>
        <time>2022-09-08T15:56:48Z</time>
      </trkpt>
      <trkpt lat="42.440283" lon="8.91612">
        <ele>1889.8</ele>
        <time>2022-09-08T15:56:52Z</time>
      </trkpt>
      <trkpt lat="42.440218" lon="8.91601">
        <ele>1892.4</ele>
        <time>2022-09-08T15:57:17Z</time>
      </trkpt>
      <trkpt lat="42.4402" lon="8.915998">
        <ele>1893.0</ele>
        <time>2022-09-08T15:57:22Z</time>
      </trkpt>
      <trkpt lat="42.440182" lon="8.916003">
        <ele>1893.0</ele>
        <time>2022-09-08T15:57:28Z</time>
      </trkpt>
      <trkpt lat="42.44017" lon="8.915993">
        <ele>1893.2</ele>
        <time>2022-09-08T15:57:34Z</time>
      </trkpt>
      <trkpt lat="42.440142" lon="8.915988">
        <ele>1893.0</ele>
        <time>2022-09-08T15:57:45Z</time>
      </trkpt>
      <trkpt lat="42.440135" lon="8.91599">
        <ele>1893.0</ele>
        <time>2022-09-08T15:57:47Z</time>
      </trkpt>
      <trkpt lat="42.440112" lon="8.915995">
        <ele>1893.0</ele>
        <time>2022-09-08T15:57:50Z</time>
      </trkpt>
      <trkpt lat="42.44008" lon="8.915982">
        <ele>1892.6</ele>
        <time>2022-09-08T15:57:54Z</time>
      </trkpt>
      <trkpt lat="42.440067" lon="8.915972">
        <ele>1892.4</ele>
        <time>2022-09-08T15:57:56Z</time>
      </trkpt>
      <trkpt lat="42.440053" lon="8.915963">
        <ele>1892.4</ele>
        <time>2022-09-08T15:57:58Z</time>
      </trkpt>
      <trkpt lat="42.440035" lon="8.915987">
        <ele>1892.0</ele>
        <time>2022-09-08T15:58:04Z</time>
      </trkpt>
      <trkpt lat="42.44002" lon="8.916073">
        <ele>1891.4</ele>
        <time>2022-09-08T15:58:22Z</time>
      </trkpt>
      <trkpt lat="42.440022" lon="8.916243">
        <ele>1884.4</ele>
        <time>2022-09-08T15:59:53Z</time>
      </trkpt>
      <trkpt lat="42.440023" lon="8.916287">
        <ele>1884.4</ele>
        <time>2022-09-08T15:59:56Z</time>
      </trkpt>
      <trkpt lat="42.44005" lon="8.916375">
        <ele>1883.8</ele>
        <time>2022-09-08T16:00:02Z</time>
      </trkpt>
      <trkpt lat="42.44008" lon="8.916443">
        <ele>1883.2</ele>
        <time>2022-09-08T16:00:08Z</time>
      </trkpt>
      <trkpt lat="42.440123" lon="8.916497">
        <ele>1882.4</ele>
        <time>2022-09-08T16:00:20Z</time>
      </trkpt>
      <trkpt lat="42.440052" lon="8.916678">
        <ele>1879.6</ele>
        <time>2022-09-08T16:00:38Z</time>
      </trkpt>
      <trkpt lat="42.440045" lon="8.916728">
        <ele>1879.0</ele>
        <time>2022-09-08T16:00:42Z</time>
      </trkpt>
      <trkpt lat="42.440047" lon="8.916742">
        <ele>1878.6</ele>
        <time>2022-09-08T16:00:43Z</time>
      </trkpt>
      <trkpt lat="42.44003" lon="8.916788">
        <ele>1878.4</ele>
        <time>2022-09-08T16:00:48Z</time>
      </trkpt>
      <trkpt lat="42.439985" lon="8.916847">
        <ele>1877.6</ele>
        <time>2022-09-08T16:00:53Z</time>
      </trkpt>
      <trkpt lat="42.439975" lon="8.916858">
        <ele>1877.6</ele>
        <time>2022-09-08T16:00:54Z</time>
      </trkpt>
      <trkpt lat="42.439865" lon="8.91696">
        <ele>1876.4</ele>
        <time>2022-09-08T16:01:04Z</time>
      </trkpt>
      <trkpt lat="42.439852" lon="8.916952">
        <ele>1876.4</ele>
        <time>2022-09-08T16:01:05Z</time>
      </trkpt>
      <trkpt lat="42.43984" lon="8.91694">
        <ele>1876.4</ele>
        <time>2022-09-08T16:01:06Z</time>
      </trkpt>
      <trkpt lat="42.439808" lon="8.916902">
        <ele>1876.4</ele>
        <time>2022-09-08T16:01:09Z</time>
      </trkpt>
      <trkpt lat="42.439778" lon="8.916823">
        <ele>1876.0</ele>
        <time>2022-09-08T16:01:14Z</time>
      </trkpt>
      <trkpt lat="42.439765" lon="8.916762">
        <ele>1875.4</ele>
        <time>2022-09-08T16:01:24Z</time>
      </trkpt>
      <trkpt lat="42.439712" lon="8.916713">
        <ele>1874.0</ele>
        <time>2022-09-08T16:01:38Z</time>
      </trkpt>
      <trkpt lat="42.439077" lon="8.916255">
        <ele>1857.2</ele>
        <time>2022-09-08T16:04:05Z</time>
      </trkpt>
      <trkpt lat="42.43901" lon="8.916297">
        <ele>1857.2</ele>
        <time>2022-09-08T16:04:23Z</time>
      </trkpt>
      <trkpt lat="42.438948" lon="8.916373">
        <ele>1858.6</ele>
        <time>2022-09-08T16:04:37Z</time>
      </trkpt>
      <trkpt lat="42.438955" lon="8.916363">
        <ele>1858.6</ele>
        <time>2022-09-08T16:04:38Z</time>
      </trkpt>
      <trkpt lat="42.43896" lon="8.916353">
        <ele>1858.6</ele>
        <time>2022-09-08T16:04:39Z</time>
      </trkpt>
      <trkpt lat="42.438992" lon="8.916245">
        <ele>1859.0</ele>
        <time>2022-09-08T16:04:54Z</time>
      </trkpt>
      <trkpt lat="42.43901" lon="8.916205">
        <ele>1858.6</ele>
        <time>2022-09-08T16:04:58Z</time>
      </trkpt>
      <trkpt lat="42.439037" lon="8.91618">
        <ele>1857.8</ele>
        <time>2022-09-08T16:05:03Z</time>
      </trkpt>
      <trkpt lat="42.439083" lon="8.91612">
        <ele>1857.0</ele>
        <time>2022-09-08T16:05:15Z</time>
      </trkpt>
      <trkpt lat="42.439272" lon="8.916112">
        <ele>1857.2</ele>
        <time>2022-09-08T16:05:54Z</time>
      </trkpt>
      <trkpt lat="42.439348" lon="8.916197">
        <ele>1860.0</ele>
        <time>2022-09-08T16:06:19Z</time>
      </trkpt>
      <trkpt lat="42.439352" lon="8.916198">
        <ele>1860.0</ele>
        <time>2022-09-08T16:06:20Z</time>
      </trkpt>
      <trkpt lat="42.439427" lon="8.91633">
        <ele>1869.6</ele>
        <time>2022-09-08T16:07:32Z</time>
      </trkpt>
      <trkpt lat="42.439418" lon="8.91635">
        <ele>1870.8</ele>
        <time>2022-09-08T16:07:40Z</time>
      </trkpt>
      <trkpt lat="42.439443" lon="8.916418">
        <ele>1872.8</ele>
        <time>2022-09-08T16:07:55Z</time>
      </trkpt>
      <trkpt lat="42.439412" lon="8.916468">
        <ele>1873.4</ele>
        <time>2022-09-08T16:08:02Z</time>
      </trkpt>
      <trkpt lat="42.439408" lon="8.91653">
        <ele>1874.2</ele>
        <time>2022-09-08T16:08:07Z</time>
      </trkpt>
      <trkpt lat="42.439392" lon="8.916522">
        <ele>1874.4</ele>
        <time>2022-09-08T16:08:10Z</time>
      </trkpt>
      <trkpt lat="42.439377" lon="8.916458">
        <ele>1876.2</ele>
        <time>2022-09-08T16:08:22Z</time>
      </trkpt>
      <trkpt lat="42.439383" lon="8.916422">
        <ele>1877.0</ele>
        <time>2022-09-08T16:08:26Z</time>
      </trkpt>
      <trkpt lat="42.439367" lon="8.916405">
        <ele>1878.0</ele>
        <time>2022-09-08T16:08:30Z</time>
      </trkpt>
      <trkpt lat="42.439323" lon="8.916358">
        <ele>1878.2</ele>
        <time>2022-09-08T16:08:39Z</time>
      </trkpt>
      <trkpt lat="42.439265" lon="8.916388">
        <ele>1877.2</ele>
        <time>2022-09-08T16:08:48Z</time>
      </trkpt>
      <trkpt lat="42.439243" lon="8.916387">
        <ele>1877.2</ele>
        <time>2022-09-08T16:08:52Z</time>
      </trkpt>
      <trkpt lat="42.439242" lon="8.91637">
        <ele>1876.6</ele>
        <time>2022-09-08T16:08:55Z</time>
      </trkpt>
      <trkpt lat="42.439238" lon="8.916378">
        <ele>1875.8</ele>
        <time>2022-09-08T16:09:08Z</time>
      </trkpt>
      <trkpt lat="42.439213" lon="8.916405">
        <ele>1874.6</ele>
        <time>2022-09-08T16:09:22Z</time>
      </trkpt>
      <trkpt lat="42.439195" lon="8.916427">
        <ele>1874.0</ele>
        <time>2022-09-08T16:09:34Z</time>
      </trkpt>
      <trkpt lat="42.439193" lon="8.916432">
        <ele>1873.6</ele>
        <time>2022-09-08T16:09:35Z</time>
      </trkpt>
      <trkpt lat="42.439173" lon="8.916463">
        <ele>1872.4</ele>
        <time>2022-09-08T16:09:44Z</time>
      </trkpt>
      <trkpt lat="42.439132" lon="8.91639">
        <ele>1870.8</ele>
        <time>2022-09-08T16:10:06Z</time>
      </trkpt>
      <trkpt lat="42.439118" lon="8.916385">
        <ele>1870.8</ele>
        <time>2022-09-08T16:10:12Z</time>
      </trkpt>
      <trkpt lat="42.439103" lon="8.916383">
        <ele>1869.4</ele>
        <time>2022-09-08T16:10:19Z</time>
      </trkpt>
      <trkpt lat="42.439087" lon="8.91638">
        <ele>1868.2</ele>
        <time>2022-09-08T16:10:27Z</time>
      </trkpt>
      <trkpt lat="42.439063" lon="8.916383">
        <ele>1866.2</ele>
        <time>2022-09-08T16:10:38Z</time>
      </trkpt>
      <trkpt lat="42.439043" lon="8.916387">
        <ele>1864.6</ele>
        <time>2022-09-08T16:10:49Z</time>
      </trkpt>
      <trkpt lat="42.439028" lon="8.916383">
        <ele>1864.0</ele>
        <time>2022-09-08T16:10:53Z</time>
      </trkpt>
      <trkpt lat="42.439015" lon="8.916377">
        <ele>1863.6</ele>
        <time>2022-09-08T16:10:56Z</time>
      </trkpt>
      <trkpt lat="42.438952" lon="8.916367">
        <ele>1862.0</ele>
        <time>2022-09-08T16:11:07Z</time>
      </trkpt>
      <trkpt lat="42.438947" lon="8.916365">
        <ele>1861.8</ele>
        <time>2022-09-08T16:11:08Z</time>
      </trkpt>
      <trkpt lat="42.438918" lon="8.916398">
        <ele>1861.6</ele>
        <time>2022-09-08T16:11:15Z</time>
      </trkpt>
      <trkpt lat="42.43891" lon="8.916412">
        <ele>1861.6</ele>
        <time>2022-09-08T16:11:17Z</time>
      </trkpt>
      <trkpt lat="42.438857" lon="8.916453">
        <ele>1861.8</ele>
        <time>2022-09-08T16:11:39Z</time>
      </trkpt>
      <trkpt lat="42.43884" lon="8.916468">
        <ele>1862.2</ele>
        <time>2022-09-08T16:11:45Z</time>
      </trkpt>
      <trkpt lat="42.43883" lon="8.916488">
        <ele>1862.2</ele>
        <time>2022-09-08T16:11:51Z</time>
      </trkpt>
      <trkpt lat="42.4388" lon="8.916528">
        <ele>1861.0</ele>
        <time>2022-09-08T16:12:10Z</time>
      </trkpt>
      <trkpt lat="42.43877" lon="8.916587">
        <ele>1860.4</ele>
        <time>2022-09-08T16:12:37Z</time>
      </trkpt>
      <trkpt lat="42.438733" lon="8.916678">
        <ele>1862.4</ele>
        <time>2022-09-08T16:13:20Z</time>
      </trkpt>
      <trkpt lat="42.438693" lon="8.91653">
        <ele>1866.4</ele>
        <time>2022-09-08T16:14:00Z</time>
      </trkpt>
      <trkpt lat="42.438682" lon="8.916617">
        <ele>1867.8</ele>
        <time>2022-09-08T16:14:08Z</time>
      </trkpt>
      <trkpt lat="42.438672" lon="8.916643">
        <ele>1868.0</ele>
        <time>2022-09-08T16:14:11Z</time>
      </trkpt>
      <trkpt lat="42.438657" lon="8.916665">
        <ele>1868.2</ele>
        <time>2022-09-08T16:14:12Z</time>
      </trkpt>
      <trkpt lat="42.438602" lon="8.916712">
        <ele>1868.2</ele>
        <time>2022-09-08T16:14:15Z</time>
      </trkpt>
      <trkpt lat="42.438582" lon="8.916712">
        <ele>1868.6</ele>
        <time>2022-09-08T16:14:16Z</time>
      </trkpt>
      <trkpt lat="42.438542" lon="8.916698">
        <ele>1869.0</ele>
        <time>2022-09-08T16:14:18Z</time>
      </trkpt>
      <trkpt lat="42.438423" lon="8.916693">
        <ele>1870.8</ele>
        <time>2022-09-08T16:14:29Z</time>
      </trkpt>
      <trkpt lat="42.438328" lon="8.91674">
        <ele>1871.2</ele>
        <time>2022-09-08T16:14:35Z</time>
      </trkpt>
      <trkpt lat="42.438272" lon="8.91674">
        <ele>1872.6</ele>
        <time>2022-09-08T16:14:46Z</time>
      </trkpt>
      <trkpt lat="42.438215" lon="8.916718">
        <ele>1874.2</ele>
        <time>2022-09-08T16:14:58Z</time>
      </trkpt>
      <trkpt lat="42.438183" lon="8.916708">
        <ele>1875.2</ele>
        <time>2022-09-08T16:15:03Z</time>
      </trkpt>
      <trkpt lat="42.438168" lon="8.916695">
        <ele>1875.4</ele>
        <time>2022-09-08T16:15:06Z</time>
      </trkpt>
      <trkpt lat="42.438152" lon="8.916672">
        <ele>1875.6</ele>
        <time>2022-09-08T16:15:11Z</time>
      </trkpt>
      <trkpt lat="42.438075" lon="8.916663">
        <ele>1885.0</ele>
        <time>2022-09-08T16:16:55Z</time>
      </trkpt>
      <trkpt lat="42.438048" lon="8.916662">
        <ele>1886.0</ele>
        <time>2022-09-08T16:17:00Z</time>
      </trkpt>
      <trkpt lat="42.437988" lon="8.916657">
        <ele>1886.6</ele>
        <time>2022-09-08T16:17:08Z</time>
      </trkpt>
      <trkpt lat="42.437948" lon="8.916667">
        <ele>1888.4</ele>
        <time>2022-09-08T16:17:21Z</time>
      </trkpt>
      <trkpt lat="42.437947" lon="8.916695">
        <ele>1891.8</ele>
        <time>2022-09-08T16:17:49Z</time>
      </trkpt>
      <trkpt lat="42.43804" lon="8.916735">
        <ele>1895.8</ele>
        <time>2022-09-08T16:18:27Z</time>
      </trkpt>
      <trkpt lat="42.437988" lon="8.916747">
        <ele>1893.6</ele>
        <time>2022-09-08T16:20:41Z</time>
      </trkpt>
      <trkpt lat="42.43792" lon="8.916732">
        <ele>1893.6</ele>
        <time>2022-09-08T16:20:46Z</time>
      </trkpt>
      <trkpt lat="42.437885" lon="8.916715">
        <ele>1893.6</ele>
        <time>2022-09-08T16:20:50Z</time>
      </trkpt>
      <trkpt lat="42.437833" lon="8.916597">
        <ele>1893.6</ele>
        <time>2022-09-08T16:20:59Z</time>
      </trkpt>
      <trkpt lat="42.437813" lon="8.916592">
        <ele>1893.6</ele>
        <time>2022-09-08T16:21:00Z</time>
      </trkpt>
      <trkpt lat="42.437688" lon="8.916733">
        <ele>1893.6</ele>
        <time>2022-09-08T16:21:10Z</time>
      </trkpt>
      <trkpt lat="42.43765" lon="8.916742">
        <ele>1893.6</ele>
        <time>2022-09-08T16:21:12Z</time>
      </trkpt>
      <trkpt lat="42.437613" lon="8.916738">
        <ele>1893.2</ele>
        <time>2022-09-08T16:21:14Z</time>
      </trkpt>
      <trkpt lat="42.437595" lon="8.916738">
        <ele>1892.4</ele>
        <time>2022-09-08T16:21:16Z</time>
      </trkpt>
      <trkpt lat="42.437547" lon="8.916733">
        <ele>1891.2</ele>
        <time>2022-09-08T16:21:22Z</time>
      </trkpt>
      <trkpt lat="42.4375" lon="8.916722">
        <ele>1890.8</ele>
        <time>2022-09-08T16:21:29Z</time>
      </trkpt>
      <trkpt lat="42.437472" lon="8.916713">
        <ele>1891.2</ele>
        <time>2022-09-08T16:21:34Z</time>
      </trkpt>
      <trkpt lat="42.437385" lon="8.916675">
        <ele>1891.2</ele>
        <time>2022-09-08T16:21:50Z</time>
      </trkpt>
      <trkpt lat="42.43733" lon="8.916658">
        <ele>1891.4</ele>
        <time>2022-09-08T16:21:55Z</time>
      </trkpt>
      <trkpt lat="42.437262" lon="8.916642">
        <ele>1892.6</ele>
        <time>2022-09-08T16:22:01Z</time>
      </trkpt>
      <trkpt lat="42.43725" lon="8.916638">
        <ele>1892.6</ele>
        <time>2022-09-08T16:22:02Z</time>
      </trkpt>
      <trkpt lat="42.437178" lon="8.916583">
        <ele>1893.2</ele>
        <time>2022-09-08T16:22:10Z</time>
      </trkpt>
      <trkpt lat="42.437168" lon="8.916588">
        <ele>1893.8</ele>
        <time>2022-09-08T16:22:12Z</time>
      </trkpt>
      <trkpt lat="42.437135" lon="8.916633">
        <ele>1893.4</ele>
        <time>2022-09-08T16:22:18Z</time>
      </trkpt>
      <trkpt lat="42.437065" lon="8.916672">
        <ele>1892.0</ele>
        <time>2022-09-08T16:22:29Z</time>
      </trkpt>
      <trkpt lat="42.436985" lon="8.916702">
        <ele>1892.2</ele>
        <time>2022-09-08T16:23:02Z</time>
      </trkpt>
      <trkpt lat="42.436973" lon="8.91669">
        <ele>1892.6</ele>
        <time>2022-09-08T16:23:08Z</time>
      </trkpt>
      <trkpt lat="42.436938" lon="8.916705">
        <ele>1891.6</ele>
        <time>2022-09-08T16:23:38Z</time>
      </trkpt>
      <trkpt lat="42.436927" lon="8.916713">
        <ele>1889.8</ele>
        <time>2022-09-08T16:23:48Z</time>
      </trkpt>
      <trkpt lat="42.436878" lon="8.916742">
        <ele>1895.6</ele>
        <time>2022-09-08T16:24:27Z</time>
      </trkpt>
      <trkpt lat="42.436863" lon="8.916737">
        <ele>1895.6</ele>
        <time>2022-09-08T16:24:31Z</time>
      </trkpt>
      <trkpt lat="42.436793" lon="8.916733">
        <ele>1895.0</ele>
        <time>2022-09-08T16:24:41Z</time>
      </trkpt>
      <trkpt lat="42.436752" lon="8.916738">
        <ele>1894.6</ele>
        <time>2022-09-08T16:24:48Z</time>
      </trkpt>
      <trkpt lat="42.43674" lon="8.916757">
        <ele>1894.8</ele>
        <time>2022-09-08T16:24:51Z</time>
      </trkpt>
      <trkpt lat="42.436715" lon="8.916785">
        <ele>1896.2</ele>
        <time>2022-09-08T16:24:57Z</time>
      </trkpt>
      <trkpt lat="42.43669" lon="8.916785">
        <ele>1897.6</ele>
        <time>2022-09-08T16:25:07Z</time>
      </trkpt>
      <trkpt lat="42.436687" lon="8.916783">
        <ele>1897.8</ele>
        <time>2022-09-08T16:25:08Z</time>
      </trkpt>
      <trkpt lat="42.436667" lon="8.91679">
        <ele>1898.0</ele>
        <time>2022-09-08T16:25:14Z</time>
      </trkpt>
      <trkpt lat="42.43666" lon="8.9168">
        <ele>1898.0</ele>
        <time>2022-09-08T16:25:16Z</time>
      </trkpt>
      <trkpt lat="42.436638" lon="8.916835">
        <ele>1898.0</ele>
        <time>2022-09-08T16:25:32Z</time>
      </trkpt>
      <trkpt lat="42.436573" lon="8.916855">
        <ele>1895.8</ele>
        <time>2022-09-08T16:26:11Z</time>
      </trkpt>
      <trkpt lat="42.436437" lon="8.916918">
        <ele>1896.8</ele>
        <time>2022-09-08T16:27:35Z</time>
      </trkpt>
      <trkpt lat="42.436412" lon="8.916913">
        <ele>1897.0</ele>
        <time>2022-09-08T16:27:39Z</time>
      </trkpt>
      <trkpt lat="42.4364" lon="8.916908">
        <ele>1897.2</ele>
        <time>2022-09-08T16:27:40Z</time>
      </trkpt>
      <trkpt lat="42.436368" lon="8.916852">
        <ele>1897.4</ele>
        <time>2022-09-08T16:27:44Z</time>
      </trkpt>
      <trkpt lat="42.436347" lon="8.91677">
        <ele>1898.0</ele>
        <time>2022-09-08T16:27:47Z</time>
      </trkpt>
      <trkpt lat="42.436333" lon="8.916772">
        <ele>1898.4</ele>
        <time>2022-09-08T16:27:48Z</time>
      </trkpt>
      <trkpt lat="42.436313" lon="8.916775">
        <ele>1898.8</ele>
        <time>2022-09-08T16:27:50Z</time>
      </trkpt>
      <trkpt lat="42.4363" lon="8.9168">
        <ele>1899.2</ele>
        <time>2022-09-08T16:27:53Z</time>
      </trkpt>
      <trkpt lat="42.436288" lon="8.916805">
        <ele>1899.2</ele>
        <time>2022-09-08T16:27:56Z</time>
      </trkpt>
      <trkpt lat="42.436255" lon="8.916823">
        <ele>1899.4</ele>
        <time>2022-09-08T16:28:03Z</time>
      </trkpt>
      <trkpt lat="42.436242" lon="8.916838">
        <ele>1899.4</ele>
        <time>2022-09-08T16:28:06Z</time>
      </trkpt>
      <trkpt lat="42.436195" lon="8.916862">
        <ele>1898.4</ele>
        <time>2022-09-08T16:28:16Z</time>
      </trkpt>
      <trkpt lat="42.43619" lon="8.916862">
        <ele>1898.4</ele>
        <time>2022-09-08T16:28:17Z</time>
      </trkpt>
      <trkpt lat="42.436175" lon="8.916857">
        <ele>1898.2</ele>
        <time>2022-09-08T16:28:20Z</time>
      </trkpt>
      <trkpt lat="42.436162" lon="8.916845">
        <ele>1898.0</ele>
        <time>2022-09-08T16:28:23Z</time>
      </trkpt>
      <trkpt lat="42.436148" lon="8.916835">
        <ele>1898.0</ele>
        <time>2022-09-08T16:28:26Z</time>
      </trkpt>
      <trkpt lat="42.436127" lon="8.916817">
        <ele>1898.8</ele>
        <time>2022-09-08T16:28:32Z</time>
      </trkpt>
      <trkpt lat="42.43611" lon="8.916802">
        <ele>1899.4</ele>
        <time>2022-09-08T16:28:37Z</time>
      </trkpt>
      <trkpt lat="42.436097" lon="8.916793">
        <ele>1900.2</ele>
        <time>2022-09-08T16:28:42Z</time>
      </trkpt>
      <trkpt lat="42.436055" lon="8.916783">
        <ele>1900.8</ele>
        <time>2022-09-08T16:28:52Z</time>
      </trkpt>
      <trkpt lat="42.436022" lon="8.91679">
        <ele>1901.4</ele>
        <time>2022-09-08T16:29:06Z</time>
      </trkpt>
      <trkpt lat="42.436005" lon="8.916792">
        <ele>1901.4</ele>
        <time>2022-09-08T16:29:13Z</time>
      </trkpt>
      <trkpt lat="42.43598" lon="8.916765">
        <ele>1902.4</ele>
        <time>2022-09-08T16:29:33Z</time>
      </trkpt>
      <trkpt lat="42.435817" lon="8.916733">
        <ele>1905.8</ele>
        <time>2022-09-08T16:30:47Z</time>
      </trkpt>
      <trkpt lat="42.435817" lon="8.91673">
        <ele>1905.4</ele>
        <time>2022-09-08T16:30:48Z</time>
      </trkpt>
      <trkpt lat="42.435768" lon="8.916678">
        <ele>1904.2</ele>
        <time>2022-09-08T16:31:15Z</time>
      </trkpt>
      <trkpt lat="42.435735" lon="8.916668">
        <ele>1904.4</ele>
        <time>2022-09-08T16:31:27Z</time>
      </trkpt>
      <trkpt lat="42.435523" lon="8.916465">
        <ele>1895.6</ele>
        <time>2022-09-08T16:33:57Z</time>
      </trkpt>
      <trkpt lat="42.435525" lon="8.916438">
        <ele>1894.8</ele>
        <time>2022-09-08T16:34:12Z</time>
      </trkpt>
      <trkpt lat="42.435497" lon="8.916387">
        <ele>1895.0</ele>
        <time>2022-09-08T16:34:21Z</time>
      </trkpt>
      <trkpt lat="42.435423" lon="8.916293">
        <ele>1896.2</ele>
        <time>2022-09-08T16:34:29Z</time>
      </trkpt>
      <trkpt lat="42.435402" lon="8.91627">
        <ele>1896.6</ele>
        <time>2022-09-08T16:34:33Z</time>
      </trkpt>
      <trkpt lat="42.43534" lon="8.91622">
        <ele>1896.6</ele>
        <time>2022-09-08T16:34:38Z</time>
      </trkpt>
      <trkpt lat="42.435325" lon="8.916208">
        <ele>1896.4</ele>
        <time>2022-09-08T16:34:40Z</time>
      </trkpt>
      <trkpt lat="42.435308" lon="8.916198">
        <ele>1896.2</ele>
        <time>2022-09-08T16:34:42Z</time>
      </trkpt>
      <trkpt lat="42.43529" lon="8.916188">
        <ele>1896.2</ele>
        <time>2022-09-08T16:34:44Z</time>
      </trkpt>
      <trkpt lat="42.435265" lon="8.916175">
        <ele>1896.2</ele>
        <time>2022-09-08T16:34:47Z</time>
      </trkpt>
      <trkpt lat="42.435255" lon="8.916155">
        <ele>1896.2</ele>
        <time>2022-09-08T16:34:49Z</time>
      </trkpt>
      <trkpt lat="42.435245" lon="8.916137">
        <ele>1896.2</ele>
        <time>2022-09-08T16:34:51Z</time>
      </trkpt>
      <trkpt lat="42.435237" lon="8.916115">
        <ele>1896.2</ele>
        <time>2022-09-08T16:34:53Z</time>
      </trkpt>
      <trkpt lat="42.43522" lon="8.916107">
        <ele>1896.2</ele>
        <time>2022-09-08T16:34:55Z</time>
      </trkpt>
      <trkpt lat="42.435118" lon="8.916058">
        <ele>1895.6</ele>
        <time>2022-09-08T16:35:08Z</time>
      </trkpt>
      <trkpt lat="42.435057" lon="8.916065">
        <ele>1895.8</ele>
        <time>2022-09-08T16:35:19Z</time>
      </trkpt>
      <trkpt lat="42.435047" lon="8.91605">
        <ele>1896.0</ele>
        <time>2022-09-08T16:35:21Z</time>
      </trkpt>
      <trkpt lat="42.434995" lon="8.915992">
        <ele>1897.0</ele>
        <time>2022-09-08T16:35:37Z</time>
      </trkpt>
      <trkpt lat="42.434927" lon="8.915935">
        <ele>1900.8</ele>
        <time>2022-09-08T16:36:14Z</time>
      </trkpt>
      <trkpt lat="42.434957" lon="8.915925">
        <ele>1899.8</ele>
        <time>2022-09-08T16:36:34Z</time>
      </trkpt>
      <trkpt lat="42.434952" lon="8.915922">
        <ele>1899.6</ele>
        <time>2022-09-08T16:36:38Z</time>
      </trkpt>
      <trkpt lat="42.434953" lon="8.915902">
        <ele>1899.4</ele>
        <time>2022-09-08T16:36:45Z</time>
      </trkpt>
      <trkpt lat="42.434968" lon="8.915928">
        <ele>1898.2</ele>
        <time>2022-09-08T16:37:00Z</time>
      </trkpt>
      <trkpt lat="42.434948" lon="8.91594">
        <ele>1898.2</ele>
        <time>2022-09-08T16:37:04Z</time>
      </trkpt>
      <trkpt lat="42.434937" lon="8.915922">
        <ele>1898.2</ele>
        <time>2022-09-08T16:37:08Z</time>
      </trkpt>
      <trkpt lat="42.43493" lon="8.915922">
        <ele>1898.2</ele>
        <time>2022-09-08T16:37:09Z</time>
      </trkpt>
      <trkpt lat="42.434918" lon="8.915952">
        <ele>1898.2</ele>
        <time>2022-09-08T16:37:17Z</time>
      </trkpt>
      <trkpt lat="42.43492" lon="8.915983">
        <ele>1897.6</ele>
        <time>2022-09-08T16:37:31Z</time>
      </trkpt>
      <trkpt lat="42.434903" lon="8.915965">
        <ele>1896.6</ele>
        <time>2022-09-08T16:37:45Z</time>
      </trkpt>
      <trkpt lat="42.434877" lon="8.915938">
        <ele>1894.8</ele>
        <time>2022-09-08T16:37:56Z</time>
      </trkpt>
      <trkpt lat="42.434818" lon="8.915897">
        <ele>1893.2</ele>
        <time>2022-09-08T16:38:07Z</time>
      </trkpt>
      <trkpt lat="42.434813" lon="8.91588">
        <ele>1892.8</ele>
        <time>2022-09-08T16:38:09Z</time>
      </trkpt>
      <trkpt lat="42.434817" lon="8.91586">
        <ele>1892.8</ele>
        <time>2022-09-08T16:38:11Z</time>
      </trkpt>
      <trkpt lat="42.43482" lon="8.91583">
        <ele>1892.2</ele>
        <time>2022-09-08T16:38:14Z</time>
      </trkpt>
      <trkpt lat="42.434817" lon="8.915812">
        <ele>1891.8</ele>
        <time>2022-09-08T16:38:17Z</time>
      </trkpt>
      <trkpt lat="42.434788" lon="8.915765">
        <ele>1890.8</ele>
        <time>2022-09-08T16:38:23Z</time>
      </trkpt>
      <trkpt lat="42.434778" lon="8.915752">
        <ele>1890.4</ele>
        <time>2022-09-08T16:38:25Z</time>
      </trkpt>
      <trkpt lat="42.434753" lon="8.915718">
        <ele>1889.8</ele>
        <time>2022-09-08T16:38:30Z</time>
      </trkpt>
      <trkpt lat="42.434692" lon="8.915697">
        <ele>1888.4</ele>
        <time>2022-09-08T16:38:47Z</time>
      </trkpt>
      <trkpt lat="42.434707" lon="8.915655">
        <ele>1888.4</ele>
        <time>2022-09-08T16:38:57Z</time>
      </trkpt>
      <trkpt lat="42.434702" lon="8.915648">
        <ele>1888.4</ele>
        <time>2022-09-08T16:38:59Z</time>
      </trkpt>
      <trkpt lat="42.434675" lon="8.915635">
        <ele>1888.4</ele>
        <time>2022-09-08T16:39:06Z</time>
      </trkpt>
      <trkpt lat="42.434653" lon="8.915635">
        <ele>1888.6</ele>
        <time>2022-09-08T16:39:09Z</time>
      </trkpt>
      <trkpt lat="42.434632" lon="8.915643">
        <ele>1888.8</ele>
        <time>2022-09-08T16:39:12Z</time>
      </trkpt>
      <trkpt lat="42.434618" lon="8.915677">
        <ele>1889.2</ele>
        <time>2022-09-08T16:39:16Z</time>
      </trkpt>
      <trkpt lat="42.434577" lon="8.915683">
        <ele>1891.0</ele>
        <time>2022-09-08T16:39:22Z</time>
      </trkpt>
      <trkpt lat="42.434548" lon="8.915665">
        <ele>1891.4</ele>
        <time>2022-09-08T16:39:26Z</time>
      </trkpt>
      <trkpt lat="42.4345" lon="8.915585">
        <ele>1892.4</ele>
        <time>2022-09-08T16:39:35Z</time>
      </trkpt>
      <trkpt lat="42.434493" lon="8.915582">
        <ele>1892.4</ele>
        <time>2022-09-08T16:39:36Z</time>
      </trkpt>
      <trkpt lat="42.434483" lon="8.915567">
        <ele>1892.4</ele>
        <time>2022-09-08T16:39:38Z</time>
      </trkpt>
      <trkpt lat="42.434468" lon="8.915533">
        <ele>1893.4</ele>
        <time>2022-09-08T16:39:43Z</time>
      </trkpt>
      <trkpt lat="42.434458" lon="8.915455">
        <ele>1894.4</ele>
        <time>2022-09-08T16:39:52Z</time>
      </trkpt>
      <trkpt lat="42.434442" lon="8.915443">
        <ele>1896.2</ele>
        <time>2022-09-08T16:40:10Z</time>
      </trkpt>
      <trkpt lat="42.434243" lon="8.915473">
        <ele>1908.6</ele>
        <time>2022-09-08T16:41:43Z</time>
      </trkpt>
      <trkpt lat="42.434243" lon="8.915472">
        <ele>1909.0</ele>
        <time>2022-09-08T16:41:47Z</time>
      </trkpt>
      <trkpt lat="42.434158" lon="8.915402">
        <ele>1909.8</ele>
        <time>2022-09-08T16:42:04Z</time>
      </trkpt>
      <trkpt lat="42.434112" lon="8.91536">
        <ele>1909.2</ele>
        <time>2022-09-08T16:42:11Z</time>
      </trkpt>
      <trkpt lat="42.434097" lon="8.91535">
        <ele>1909.2</ele>
        <time>2022-09-08T16:42:13Z</time>
      </trkpt>
      <trkpt lat="42.434067" lon="8.915323">
        <ele>1909.6</ele>
        <time>2022-09-08T16:42:17Z</time>
      </trkpt>
      <trkpt lat="42.434062" lon="8.9153">
        <ele>1909.6</ele>
        <time>2022-09-08T16:42:19Z</time>
      </trkpt>
      <trkpt lat="42.43405" lon="8.915252">
        <ele>1909.8</ele>
        <time>2022-09-08T16:42:23Z</time>
      </trkpt>
      <trkpt lat="42.434038" lon="8.91522">
        <ele>1909.4</ele>
        <time>2022-09-08T16:42:26Z</time>
      </trkpt>
      <trkpt lat="42.434023" lon="8.915208">
        <ele>1909.4</ele>
        <time>2022-09-08T16:42:28Z</time>
      </trkpt>
      <trkpt lat="42.434" lon="8.915197">
        <ele>1909.4</ele>
        <time>2022-09-08T16:42:31Z</time>
      </trkpt>
      <trkpt lat="42.433973" lon="8.915227">
        <ele>1909.2</ele>
        <time>2022-09-08T16:42:39Z</time>
      </trkpt>
      <trkpt lat="42.43396" lon="8.91524">
        <ele>1909.6</ele>
        <time>2022-09-08T16:42:42Z</time>
      </trkpt>
      <trkpt lat="42.433943" lon="8.915277">
        <ele>1910.2</ele>
        <time>2022-09-08T16:42:47Z</time>
      </trkpt>
      <trkpt lat="42.433918" lon="8.915322">
        <ele>1911.2</ele>
        <time>2022-09-08T16:42:54Z</time>
      </trkpt>
      <trkpt lat="42.433887" lon="8.915327">
        <ele>1912.0</ele>
        <time>2022-09-08T16:43:00Z</time>
      </trkpt>
      <trkpt lat="42.433818" lon="8.915335">
        <ele>1912.8</ele>
        <time>2022-09-08T16:43:07Z</time>
      </trkpt>
      <trkpt lat="42.433762" lon="8.915357">
        <ele>1913.6</ele>
        <time>2022-09-08T16:43:13Z</time>
      </trkpt>
      <trkpt lat="42.433743" lon="8.915358">
        <ele>1914.0</ele>
        <time>2022-09-08T16:43:15Z</time>
      </trkpt>
      <trkpt lat="42.433718" lon="8.915357">
        <ele>1914.0</ele>
        <time>2022-09-08T16:43:18Z</time>
      </trkpt>
      <trkpt lat="42.433625" lon="8.91526">
        <ele>1913.2</ele>
        <time>2022-09-08T16:43:37Z</time>
      </trkpt>
      <trkpt lat="42.433618" lon="8.915257">
        <ele>1913.2</ele>
        <time>2022-09-08T16:43:39Z</time>
      </trkpt>
      <trkpt lat="42.433595" lon="8.915225">
        <ele>1912.2</ele>
        <time>2022-09-08T16:43:45Z</time>
      </trkpt>
      <trkpt lat="42.43357" lon="8.915205">
        <ele>1912.2</ele>
        <time>2022-09-08T16:43:50Z</time>
      </trkpt>
      <trkpt lat="42.43355" lon="8.9152">
        <ele>1912.4</ele>
        <time>2022-09-08T16:43:54Z</time>
      </trkpt>
      <trkpt lat="42.433522" lon="8.915165">
        <ele>1915.2</ele>
        <time>2022-09-08T16:44:10Z</time>
      </trkpt>
      <trkpt lat="42.433517" lon="8.91514">
        <ele>1915.8</ele>
        <time>2022-09-08T16:44:13Z</time>
      </trkpt>
      <trkpt lat="42.433517" lon="8.915078">
        <ele>1916.6</ele>
        <time>2022-09-08T16:44:20Z</time>
      </trkpt>
      <trkpt lat="42.433505" lon="8.91503">
        <ele>1916.0</ele>
        <time>2022-09-08T16:44:31Z</time>
      </trkpt>
      <trkpt lat="42.433502" lon="8.915025">
        <ele>1916.0</ele>
        <time>2022-09-08T16:44:32Z</time>
      </trkpt>
      <trkpt lat="42.433477" lon="8.915042">
        <ele>1916.2</ele>
        <time>2022-09-08T16:44:38Z</time>
      </trkpt>
      <trkpt lat="42.433457" lon="8.915052">
        <ele>1916.8</ele>
        <time>2022-09-08T16:44:43Z</time>
      </trkpt>
      <trkpt lat="42.43344" lon="8.915048">
        <ele>1917.2</ele>
        <time>2022-09-08T16:44:46Z</time>
      </trkpt>
      <trkpt lat="42.433383" lon="8.915018">
        <ele>1921.0</ele>
        <time>2022-09-08T16:45:29Z</time>
      </trkpt>
      <trkpt lat="42.433338" lon="8.914945">
        <ele>1920.6</ele>
        <time>2022-09-08T16:45:42Z</time>
      </trkpt>
      <trkpt lat="42.43333" lon="8.914922">
        <ele>1920.6</ele>
        <time>2022-09-08T16:45:45Z</time>
      </trkpt>
      <trkpt lat="42.433332" lon="8.914847">
        <ele>1921.4</ele>
        <time>2022-09-08T16:46:08Z</time>
      </trkpt>
      <trkpt lat="42.433332" lon="8.91482">
        <ele>1921.2</ele>
        <time>2022-09-08T16:46:14Z</time>
      </trkpt>
      <trkpt lat="42.433297" lon="8.914473">
        <ele>1915.2</ele>
        <time>2022-09-08T16:48:36Z</time>
      </trkpt>
      <trkpt lat="42.433283" lon="8.914458">
        <ele>1915.2</ele>
        <time>2022-09-08T16:48:37Z</time>
      </trkpt>
      <trkpt lat="42.433238" lon="8.914412">
        <ele>1915.2</ele>
        <time>2022-09-08T16:48:40Z</time>
      </trkpt>
      <trkpt lat="42.433227" lon="8.914385">
        <ele>1914.8</ele>
        <time>2022-09-08T16:48:43Z</time>
      </trkpt>
      <trkpt lat="42.433202" lon="8.914185">
        <ele>1914.8</ele>
        <time>2022-09-08T16:48:49Z</time>
      </trkpt>
      <trkpt lat="42.433127" lon="8.913962">
        <ele>1914.4</ele>
        <time>2022-09-08T16:48:58Z</time>
      </trkpt>
      <trkpt lat="42.433088" lon="8.913845">
        <ele>1914.2</ele>
        <time>2022-09-08T16:49:04Z</time>
      </trkpt>
      <trkpt lat="42.43308" lon="8.913828">
        <ele>1914.0</ele>
        <time>2022-09-08T16:49:05Z</time>
      </trkpt>
      <trkpt lat="42.433053" lon="8.913823">
        <ele>1914.0</ele>
        <time>2022-09-08T16:49:07Z</time>
      </trkpt>
      <trkpt lat="42.432988" lon="8.91382">
        <ele>1913.8</ele>
        <time>2022-09-08T16:49:12Z</time>
      </trkpt>
      <trkpt lat="42.43291" lon="8.913745">
        <ele>1915.2</ele>
        <time>2022-09-08T16:49:20Z</time>
      </trkpt>
      <trkpt lat="42.432837" lon="8.913677">
        <ele>1915.2</ele>
        <time>2022-09-08T16:49:30Z</time>
      </trkpt>
      <trkpt lat="42.432473" lon="8.913715">
        <ele>1893.8</ele>
        <time>2022-09-08T16:52:18Z</time>
      </trkpt>
      <trkpt lat="42.432765" lon="8.913363">
        <ele>1874.2</ele>
        <time>2022-09-08T16:55:08Z</time>
      </trkpt>
      <trkpt lat="42.43277" lon="8.913378">
        <ele>1873.0</ele>
        <time>2022-09-08T16:55:15Z</time>
      </trkpt>
      <trkpt lat="42.432847" lon="8.913217">
        <ele>1872.0</ele>
        <time>2022-09-08T16:55:34Z</time>
      </trkpt>
      <trkpt lat="42.432905" lon="8.91317">
        <ele>1871.6</ele>
        <time>2022-09-08T16:55:44Z</time>
      </trkpt>
      <trkpt lat="42.432903" lon="8.913138">
        <ele>1871.4</ele>
        <time>2022-09-08T16:55:54Z</time>
      </trkpt>
      <trkpt lat="42.432898" lon="8.913142">
        <ele>1871.4</ele>
        <time>2022-09-08T16:55:58Z</time>
      </trkpt>
      <trkpt lat="42.432888" lon="8.913078">
        <ele>1869.8</ele>
        <time>2022-09-08T16:56:09Z</time>
      </trkpt>
      <trkpt lat="42.432865" lon="8.913028">
        <ele>1869.2</ele>
        <time>2022-09-08T16:56:15Z</time>
      </trkpt>
      <trkpt lat="42.432853" lon="8.91301">
        <ele>1868.2</ele>
        <time>2022-09-08T16:56:17Z</time>
      </trkpt>
      <trkpt lat="42.43285" lon="8.912975">
        <ele>1867.6</ele>
        <time>2022-09-08T16:56:20Z</time>
      </trkpt>
      <trkpt lat="42.432862" lon="8.912905">
        <ele>1866.8</ele>
        <time>2022-09-08T16:56:26Z</time>
      </trkpt>
      <trkpt lat="42.432843" lon="8.912848">
        <ele>1866.0</ele>
        <time>2022-09-08T16:56:38Z</time>
      </trkpt>
      <trkpt lat="42.432838" lon="8.912843">
        <ele>1866.0</ele>
        <time>2022-09-08T16:56:39Z</time>
      </trkpt>
      <trkpt lat="42.432818" lon="8.912828">
        <ele>1866.0</ele>
        <time>2022-09-08T16:56:43Z</time>
      </trkpt>
      <trkpt lat="42.43278" lon="8.912833">
        <ele>1866.0</ele>
        <time>2022-09-08T16:56:53Z</time>
      </trkpt>
      <trkpt lat="42.432757" lon="8.912822">
        <ele>1862.6</ele>
        <time>2022-09-08T16:57:06Z</time>
      </trkpt>
      <trkpt lat="42.432735" lon="8.912838">
        <ele>1861.0</ele>
        <time>2022-09-08T16:57:16Z</time>
      </trkpt>
      <trkpt lat="42.432725" lon="8.912805">
        <ele>1857.8</ele>
        <time>2022-09-08T16:57:28Z</time>
      </trkpt>
      <trkpt lat="42.432687" lon="8.912788">
        <ele>1851.8</ele>
        <time>2022-09-08T16:58:01Z</time>
      </trkpt>
      <trkpt lat="42.432655" lon="8.912783">
        <ele>1849.4</ele>
        <time>2022-09-08T16:58:16Z</time>
      </trkpt>
      <trkpt lat="42.432598" lon="8.912807">
        <ele>1844.0</ele>
        <time>2022-09-08T16:58:41Z</time>
      </trkpt>
      <trkpt lat="42.432578" lon="8.91283">
        <ele>1843.8</ele>
        <time>2022-09-08T16:58:44Z</time>
      </trkpt>
      <trkpt lat="42.432535" lon="8.912885">
        <ele>1842.4</ele>
        <time>2022-09-08T16:58:50Z</time>
      </trkpt>
      <trkpt lat="42.43251" lon="8.912902">
        <ele>1842.2</ele>
        <time>2022-09-08T16:58:53Z</time>
      </trkpt>
      <trkpt lat="42.432365" lon="8.912832">
        <ele>1838.2</ele>
        <time>2022-09-08T16:59:28Z</time>
      </trkpt>
      <trkpt lat="42.432352" lon="8.912828">
        <ele>1838.2</ele>
        <time>2022-09-08T16:59:29Z</time>
      </trkpt>
      <trkpt lat="42.432235" lon="8.91291">
        <ele>1838.2</ele>
        <time>2022-09-08T16:59:40Z</time>
      </trkpt>
      <trkpt lat="42.432197" lon="8.9129">
        <ele>1837.6</ele>
        <time>2022-09-08T16:59:48Z</time>
      </trkpt>
      <trkpt lat="42.432193" lon="8.912897">
        <ele>1837.6</ele>
        <time>2022-09-08T16:59:49Z</time>
      </trkpt>
      <trkpt lat="42.432148" lon="8.912873">
        <ele>1834.6</ele>
        <time>2022-09-08T17:00:10Z</time>
      </trkpt>
      <trkpt lat="42.432135" lon="8.912873">
        <ele>1834.2</ele>
        <time>2022-09-08T17:00:14Z</time>
      </trkpt>
      <trkpt lat="42.432098" lon="8.91284">
        <ele>1832.8</ele>
        <time>2022-09-08T17:00:23Z</time>
      </trkpt>
      <trkpt lat="42.43211" lon="8.912778">
        <ele>1831.2</ele>
        <time>2022-09-08T17:00:34Z</time>
      </trkpt>
      <trkpt lat="42.43212" lon="8.912758">
        <ele>1830.4</ele>
        <time>2022-09-08T17:00:38Z</time>
      </trkpt>
      <trkpt lat="42.432125" lon="8.912753">
        <ele>1829.8</ele>
        <time>2022-09-08T17:00:42Z</time>
      </trkpt>
      <trkpt lat="42.432147" lon="8.91276">
        <ele>1828.8</ele>
        <time>2022-09-08T17:00:50Z</time>
      </trkpt>
      <trkpt lat="42.43214" lon="8.912795">
        <ele>1827.8</ele>
        <time>2022-09-08T17:01:00Z</time>
      </trkpt>
      <trkpt lat="42.432108" lon="8.912875">
        <ele>1826.8</ele>
        <time>2022-09-08T17:01:09Z</time>
      </trkpt>
      <trkpt lat="42.432103" lon="8.912882">
        <ele>1826.2</ele>
        <time>2022-09-08T17:01:10Z</time>
      </trkpt>
      <trkpt lat="42.432097" lon="8.912852">
        <ele>1824.2</ele>
        <time>2022-09-08T17:01:17Z</time>
      </trkpt>
      <trkpt lat="42.432072" lon="8.912813">
        <ele>1822.6</ele>
        <time>2022-09-08T17:01:23Z</time>
      </trkpt>
      <trkpt lat="42.432007" lon="8.91276">
        <ele>1821.8</ele>
        <time>2022-09-08T17:01:30Z</time>
      </trkpt>
      <trkpt lat="42.431945" lon="8.912753">
        <ele>1819.4</ele>
        <time>2022-09-08T17:01:37Z</time>
      </trkpt>
      <trkpt lat="42.431938" lon="8.912748">
        <ele>1819.4</ele>
        <time>2022-09-08T17:01:38Z</time>
      </trkpt>
      <trkpt lat="42.431918" lon="8.912722">
        <ele>1818.8</ele>
        <time>2022-09-08T17:01:43Z</time>
      </trkpt>
      <trkpt lat="42.431892" lon="8.91273">
        <ele>1817.4</ele>
        <time>2022-09-08T17:01:48Z</time>
      </trkpt>
      <trkpt lat="42.43185" lon="8.912585">
        <ele>1813.6</ele>
        <time>2022-09-08T17:02:10Z</time>
      </trkpt>
      <trkpt lat="42.431832" lon="8.912578">
        <ele>1812.8</ele>
        <time>2022-09-08T17:02:14Z</time>
      </trkpt>
      <trkpt lat="42.431778" lon="8.912592">
        <ele>1810.4</ele>
        <time>2022-09-08T17:02:27Z</time>
      </trkpt>
      <trkpt lat="42.431765" lon="8.912573">
        <ele>1809.8</ele>
        <time>2022-09-08T17:02:32Z</time>
      </trkpt>
      <trkpt lat="42.431742" lon="8.912583">
        <ele>1808.0</ele>
        <time>2022-09-08T17:02:42Z</time>
      </trkpt>
      <trkpt lat="42.431725" lon="8.912575">
        <ele>1806.8</ele>
        <time>2022-09-08T17:02:49Z</time>
      </trkpt>
      <trkpt lat="42.431657" lon="8.912525">
        <ele>1803.2</ele>
        <time>2022-09-08T17:03:11Z</time>
      </trkpt>
      <trkpt lat="42.431638" lon="8.91252">
        <ele>1802.4</ele>
        <time>2022-09-08T17:03:16Z</time>
      </trkpt>
      <trkpt lat="42.431627" lon="8.912533">
        <ele>1801.4</ele>
        <time>2022-09-08T17:03:20Z</time>
      </trkpt>
      <trkpt lat="42.431615" lon="8.912552">
        <ele>1801.0</ele>
        <time>2022-09-08T17:03:25Z</time>
      </trkpt>
      <trkpt lat="42.431603" lon="8.91257">
        <ele>1800.2</ele>
        <time>2022-09-08T17:03:29Z</time>
      </trkpt>
      <trkpt lat="42.431573" lon="8.912592">
        <ele>1797.8</ele>
        <time>2022-09-08T17:03:40Z</time>
      </trkpt>
      <trkpt lat="42.431533" lon="8.912612">
        <ele>1795.8</ele>
        <time>2022-09-08T17:03:50Z</time>
      </trkpt>
      <trkpt lat="42.431502" lon="8.91262">
        <ele>1794.2</ele>
        <time>2022-09-08T17:03:59Z</time>
      </trkpt>
      <trkpt lat="42.431475" lon="8.912592">
        <ele>1792.2</ele>
        <time>2022-09-08T17:04:11Z</time>
      </trkpt>
      <trkpt lat="42.431457" lon="8.912598">
        <ele>1791.0</ele>
        <time>2022-09-08T17:04:18Z</time>
      </trkpt>
      <trkpt lat="42.431453" lon="8.9126">
        <ele>1791.0</ele>
        <time>2022-09-08T17:04:19Z</time>
      </trkpt>
      <trkpt lat="42.431387" lon="8.912767">
        <ele>1770.2</ele>
        <time>2022-09-08T17:06:26Z</time>
      </trkpt>
      <trkpt lat="42.431367" lon="8.912787">
        <ele>1766.6</ele>
        <time>2022-09-08T17:06:42Z</time>
      </trkpt>
      <trkpt lat="42.431373" lon="8.912812">
        <ele>1765.4</ele>
        <time>2022-09-08T17:06:50Z</time>
      </trkpt>
      <trkpt lat="42.431288" lon="8.912837">
        <ele>1765.4</ele>
        <time>2022-09-08T17:06:59Z</time>
      </trkpt>
      <trkpt lat="42.431267" lon="8.912848">
        <ele>1764.6</ele>
        <time>2022-09-08T17:07:03Z</time>
      </trkpt>
      <trkpt lat="42.43118" lon="8.912852">
        <ele>1764.2</ele>
        <time>2022-09-08T17:07:09Z</time>
      </trkpt>
      <trkpt lat="42.431113" lon="8.912842">
        <ele>1763.4</ele>
        <time>2022-09-08T17:07:13Z</time>
      </trkpt>
      <trkpt lat="42.431082" lon="8.912805">
        <ele>1762.8</ele>
        <time>2022-09-08T17:07:17Z</time>
      </trkpt>
      <trkpt lat="42.43108" lon="8.912792">
        <ele>1762.8</ele>
        <time>2022-09-08T17:07:18Z</time>
      </trkpt>
      <trkpt lat="42.431077" lon="8.912765">
        <ele>1762.4</ele>
        <time>2022-09-08T17:07:20Z</time>
      </trkpt>
      <trkpt lat="42.431022" lon="8.912742">
        <ele>1761.4</ele>
        <time>2022-09-08T17:07:26Z</time>
      </trkpt>
      <trkpt lat="42.43098" lon="8.912775">
        <ele>1759.2</ele>
        <time>2022-09-08T17:07:43Z</time>
      </trkpt>
      <trkpt lat="42.430962" lon="8.912768">
        <ele>1758.4</ele>
        <time>2022-09-08T17:07:51Z</time>
      </trkpt>
      <trkpt lat="42.430915" lon="8.91279">
        <ele>1756.8</ele>
        <time>2022-09-08T17:08:01Z</time>
      </trkpt>
      <trkpt lat="42.43086" lon="8.912827">
        <ele>1754.6</ele>
        <time>2022-09-08T17:08:16Z</time>
      </trkpt>
      <trkpt lat="42.430242" lon="8.913103">
        <ele>1745.0</ele>
        <time>2022-09-08T17:10:08Z</time>
      </trkpt>
      <trkpt lat="42.430258" lon="8.913082">
        <ele>1744.8</ele>
        <time>2022-09-08T17:10:11Z</time>
      </trkpt>
      <trkpt lat="42.430623" lon="8.912648">
        <ele>1731.4</ele>
        <time>2022-09-08T17:11:19Z</time>
      </trkpt>
      <trkpt lat="42.430618" lon="8.912672">
        <ele>1730.2</ele>
        <time>2022-09-08T17:11:22Z</time>
      </trkpt>
      <trkpt lat="42.430613" lon="8.912693">
        <ele>1730.0</ele>
        <time>2022-09-08T17:11:24Z</time>
      </trkpt>
      <trkpt lat="42.430607" lon="8.91272">
        <ele>1729.6</ele>
        <time>2022-09-08T17:11:26Z</time>
      </trkpt>
      <trkpt lat="42.430545" lon="8.912645">
        <ele>1727.4</ele>
        <time>2022-09-08T17:11:33Z</time>
      </trkpt>
      <trkpt lat="42.430525" lon="8.91263">
        <ele>1727.2</ele>
        <time>2022-09-08T17:11:35Z</time>
      </trkpt>
      <trkpt lat="42.43047" lon="8.912633">
        <ele>1726.6</ele>
        <time>2022-09-08T17:11:40Z</time>
      </trkpt>
      <trkpt lat="42.43042" lon="8.912638">
        <ele>1726.0</ele>
        <time>2022-09-08T17:11:45Z</time>
      </trkpt>
      <trkpt lat="42.430328" lon="8.912637">
        <ele>1724.4</ele>
        <time>2022-09-08T17:11:55Z</time>
      </trkpt>
      <trkpt lat="42.430303" lon="8.91264">
        <ele>1723.6</ele>
        <time>2022-09-08T17:11:58Z</time>
      </trkpt>
      <trkpt lat="42.430298" lon="8.912622">
        <ele>1722.8</ele>
        <time>2022-09-08T17:12:02Z</time>
      </trkpt>
      <trkpt lat="42.430292" lon="8.912627">
        <ele>1722.2</ele>
        <time>2022-09-08T17:12:06Z</time>
      </trkpt>
      <trkpt lat="42.43028" lon="8.912635">
        <ele>1720.6</ele>
        <time>2022-09-08T17:12:13Z</time>
      </trkpt>
      <trkpt lat="42.430275" lon="8.912597">
        <ele>1718.4</ele>
        <time>2022-09-08T17:12:22Z</time>
      </trkpt>
      <trkpt lat="42.430252" lon="8.912595">
        <ele>1715.4</ele>
        <time>2022-09-08T17:12:35Z</time>
      </trkpt>
      <trkpt lat="42.430233" lon="8.912582">
        <ele>1714.2</ele>
        <time>2022-09-08T17:12:43Z</time>
      </trkpt>
      <trkpt lat="42.430227" lon="8.912585">
        <ele>1713.0</ele>
        <time>2022-09-08T17:12:47Z</time>
      </trkpt>
      <trkpt lat="42.430218" lon="8.912588">
        <ele>1712.2</ele>
        <time>2022-09-08T17:12:52Z</time>
      </trkpt>
      <trkpt lat="42.430212" lon="8.912582">
        <ele>1711.4</ele>
        <time>2022-09-08T17:12:58Z</time>
      </trkpt>
      <trkpt lat="42.430187" lon="8.912642">
        <ele>1710.0</ele>
        <time>2022-09-08T17:13:07Z</time>
      </trkpt>
      <trkpt lat="42.430185" lon="8.912612">
        <ele>1709.0</ele>
        <time>2022-09-08T17:13:10Z</time>
      </trkpt>
      <trkpt lat="42.430138" lon="8.912582">
        <ele>1708.2</ele>
        <time>2022-09-08T17:13:17Z</time>
      </trkpt>
      <trkpt lat="42.430112" lon="8.912568">
        <ele>1707.4</ele>
        <time>2022-09-08T17:13:21Z</time>
      </trkpt>
      <trkpt lat="42.430043" lon="8.912475">
        <ele>1704.8</ele>
        <time>2022-09-08T17:13:35Z</time>
      </trkpt>
      <trkpt lat="42.430032" lon="8.912482">
        <ele>1704.6</ele>
        <time>2022-09-08T17:13:37Z</time>
      </trkpt>
      <trkpt lat="42.430012" lon="8.912507">
        <ele>1703.8</ele>
        <time>2022-09-08T17:13:42Z</time>
      </trkpt>
      <trkpt lat="42.429993" lon="8.912518">
        <ele>1703.6</ele>
        <time>2022-09-08T17:13:45Z</time>
      </trkpt>
      <trkpt lat="42.429972" lon="8.912525">
        <ele>1703.0</ele>
        <time>2022-09-08T17:13:49Z</time>
      </trkpt>
      <trkpt lat="42.429833" lon="8.912517">
        <ele>1692.8</ele>
        <time>2022-09-08T17:14:47Z</time>
      </trkpt>
      <trkpt lat="42.429787" lon="8.912552">
        <ele>1693.2</ele>
        <time>2022-09-08T17:15:16Z</time>
      </trkpt>
      <trkpt lat="42.429837" lon="8.912568">
        <ele>1687.8</ele>
        <time>2022-09-08T17:16:55Z</time>
      </trkpt>
      <trkpt lat="42.429835" lon="8.91257">
        <ele>1687.8</ele>
        <time>2022-09-08T17:16:56Z</time>
      </trkpt>
      <trkpt lat="42.429723" lon="8.912493">
        <ele>1688.6</ele>
        <time>2022-09-08T17:17:08Z</time>
      </trkpt>
      <trkpt lat="42.429678" lon="8.912508">
        <ele>1688.6</ele>
        <time>2022-09-08T17:17:12Z</time>
      </trkpt>
      <trkpt lat="42.42962" lon="8.91257">
        <ele>1687.4</ele>
        <time>2022-09-08T17:17:19Z</time>
      </trkpt>
      <trkpt lat="42.429542" lon="8.91282">
        <ele>1684.0</ele>
        <time>2022-09-08T17:17:45Z</time>
      </trkpt>
      <trkpt lat="42.429542" lon="8.912827">
        <ele>1684.0</ele>
        <time>2022-09-08T17:17:46Z</time>
      </trkpt>
      <trkpt lat="42.42954" lon="8.912872">
        <ele>1683.0</ele>
        <time>2022-09-08T17:17:54Z</time>
      </trkpt>
      <trkpt lat="42.429527" lon="8.91286">
        <ele>1682.2</ele>
        <time>2022-09-08T17:17:59Z</time>
      </trkpt>
      <trkpt lat="42.429513" lon="8.912852">
        <ele>1681.8</ele>
        <time>2022-09-08T17:18:01Z</time>
      </trkpt>
      <trkpt lat="42.4295" lon="8.912843">
        <ele>1681.6</ele>
        <time>2022-09-08T17:18:04Z</time>
      </trkpt>
      <trkpt lat="42.429488" lon="8.912835">
        <ele>1681.4</ele>
        <time>2022-09-08T17:18:06Z</time>
      </trkpt>
      <trkpt lat="42.429115" lon="8.91259">
        <ele>1669.6</ele>
        <time>2022-09-08T17:19:05Z</time>
      </trkpt>
      <trkpt lat="42.429123" lon="8.912585">
        <ele>1669.4</ele>
        <time>2022-09-08T17:19:07Z</time>
      </trkpt>
      <trkpt lat="42.42924" lon="8.912537">
        <ele>1665.2</ele>
        <time>2022-09-08T17:19:29Z</time>
      </trkpt>
      <trkpt lat="42.429275" lon="8.912507">
        <ele>1664.8</ele>
        <time>2022-09-08T17:19:35Z</time>
      </trkpt>
      <trkpt lat="42.429167" lon="8.912428">
        <ele>1662.0</ele>
        <time>2022-09-08T17:19:52Z</time>
      </trkpt>
      <trkpt lat="42.429147" lon="8.912422">
        <ele>1661.4</ele>
        <time>2022-09-08T17:19:55Z</time>
      </trkpt>
      <trkpt lat="42.429112" lon="8.912368">
        <ele>1659.8</ele>
        <time>2022-09-08T17:20:03Z</time>
      </trkpt>
      <trkpt lat="42.42908" lon="8.912337">
        <ele>1658.2</ele>
        <time>2022-09-08T17:20:10Z</time>
      </trkpt>
      <trkpt lat="42.429065" lon="8.912335">
        <ele>1657.8</ele>
        <time>2022-09-08T17:20:14Z</time>
      </trkpt>
      <trkpt lat="42.429022" lon="8.912342">
        <ele>1657.0</ele>
        <time>2022-09-08T17:20:24Z</time>
      </trkpt>
      <trkpt lat="42.429005" lon="8.912352">
        <ele>1657.8</ele>
        <time>2022-09-08T17:20:29Z</time>
      </trkpt>
      <trkpt lat="42.42897" lon="8.912358">
        <ele>1656.8</ele>
        <time>2022-09-08T17:20:40Z</time>
      </trkpt>
      <trkpt lat="42.428957" lon="8.912323">
        <ele>1655.6</ele>
        <time>2022-09-08T17:20:50Z</time>
      </trkpt>
      <trkpt lat="42.428935" lon="8.912268">
        <ele>1644.0</ele>
        <time>2022-09-08T17:21:56Z</time>
      </trkpt>
      <trkpt lat="42.428912" lon="8.912235">
        <ele>1642.0</ele>
        <time>2022-09-08T17:22:05Z</time>
      </trkpt>
      <trkpt lat="42.428883" lon="8.912218">
        <ele>1641.4</ele>
        <time>2022-09-08T17:22:10Z</time>
      </trkpt>
      <trkpt lat="42.428853" lon="8.91222">
        <ele>1640.4</ele>
        <time>2022-09-08T17:22:14Z</time>
      </trkpt>
      <trkpt lat="42.428802" lon="8.912262">
        <ele>1639.2</ele>
        <time>2022-09-08T17:22:23Z</time>
      </trkpt>
      <trkpt lat="42.428785" lon="8.912273">
        <ele>1638.8</ele>
        <time>2022-09-08T17:22:27Z</time>
      </trkpt>
      <trkpt lat="42.428758" lon="8.912275">
        <ele>1636.8</ele>
        <time>2022-09-08T17:22:40Z</time>
      </trkpt>
      <trkpt lat="42.428737" lon="8.912277">
        <ele>1635.8</ele>
        <time>2022-09-08T17:22:50Z</time>
      </trkpt>
      <trkpt lat="42.428768" lon="8.912237">
        <ele>1627.2</ele>
        <time>2022-09-08T17:23:42Z</time>
      </trkpt>
      <trkpt lat="42.42877" lon="8.912217">
        <ele>1625.8</ele>
        <time>2022-09-08T17:23:50Z</time>
      </trkpt>
      <trkpt lat="42.428792" lon="8.911893">
        <ele>1606.8</ele>
        <time>2022-09-08T17:25:53Z</time>
      </trkpt>
      <trkpt lat="42.428792" lon="8.911875">
        <ele>1606.0</ele>
        <time>2022-09-08T17:25:57Z</time>
      </trkpt>
      <trkpt lat="42.428813" lon="8.911755">
        <ele>1604.8</ele>
        <time>2022-09-08T17:26:10Z</time>
      </trkpt>
      <trkpt lat="42.428817" lon="8.911673">
        <ele>1603.6</ele>
        <time>2022-09-08T17:26:19Z</time>
      </trkpt>
      <trkpt lat="42.42882" lon="8.911665">
        <ele>1603.6</ele>
        <time>2022-09-08T17:26:20Z</time>
      </trkpt>
      <trkpt lat="42.428847" lon="8.911577">
        <ele>1603.2</ele>
        <time>2022-09-08T17:26:28Z</time>
      </trkpt>
      <trkpt lat="42.428857" lon="8.91155">
        <ele>1603.2</ele>
        <time>2022-09-08T17:26:30Z</time>
      </trkpt>
      <trkpt lat="42.428885" lon="8.911447">
        <ele>1603.8</ele>
        <time>2022-09-08T17:26:38Z</time>
      </trkpt>
      <trkpt lat="42.428887" lon="8.911422">
        <ele>1603.8</ele>
        <time>2022-09-08T17:26:40Z</time>
      </trkpt>
      <trkpt lat="42.428875" lon="8.911387">
        <ele>1602.4</ele>
        <time>2022-09-08T17:27:02Z</time>
      </trkpt>
      <trkpt lat="42.428842" lon="8.911307">
        <ele>1593.4</ele>
        <time>2022-09-08T17:28:07Z</time>
      </trkpt>
      <trkpt lat="42.428845" lon="8.911288">
        <ele>1593.4</ele>
        <time>2022-09-08T17:28:08Z</time>
      </trkpt>
      <trkpt lat="42.428837" lon="8.911225">
        <ele>1593.2</ele>
        <time>2022-09-08T17:28:13Z</time>
      </trkpt>
      <trkpt lat="42.428802" lon="8.911122">
        <ele>1592.4</ele>
        <time>2022-09-08T17:28:21Z</time>
      </trkpt>
      <trkpt lat="42.42878" lon="8.911092">
        <ele>1591.8</ele>
        <time>2022-09-08T17:28:24Z</time>
      </trkpt>
      <trkpt lat="42.42875" lon="8.911078">
        <ele>1591.2</ele>
        <time>2022-09-08T17:28:28Z</time>
      </trkpt>
      <trkpt lat="42.42865" lon="8.911012">
        <ele>1588.8</ele>
        <time>2022-09-08T17:28:39Z</time>
      </trkpt>
      <trkpt lat="42.428618" lon="8.911008">
        <ele>1588.2</ele>
        <time>2022-09-08T17:28:42Z</time>
      </trkpt>
      <trkpt lat="42.428552" lon="8.911003">
        <ele>1586.8</ele>
        <time>2022-09-08T17:28:49Z</time>
      </trkpt>
      <trkpt lat="42.428543" lon="8.911">
        <ele>1586.6</ele>
        <time>2022-09-08T17:28:50Z</time>
      </trkpt>
      <trkpt lat="42.428555" lon="8.910973">
        <ele>1585.8</ele>
        <time>2022-09-08T17:28:54Z</time>
      </trkpt>
      <trkpt lat="42.428612" lon="8.91091">
        <ele>1583.8</ele>
        <time>2022-09-08T17:29:04Z</time>
      </trkpt>
      <trkpt lat="42.428588" lon="8.910817">
        <ele>1582.2</ele>
        <time>2022-09-08T17:29:13Z</time>
      </trkpt>
      <trkpt lat="42.428608" lon="8.910782">
        <ele>1579.8</ele>
        <time>2022-09-08T17:29:21Z</time>
      </trkpt>
      <trkpt lat="42.428592" lon="8.910708">
        <ele>1576.8</ele>
        <time>2022-09-08T17:29:37Z</time>
      </trkpt>
      <trkpt lat="42.42859" lon="8.910702">
        <ele>1576.6</ele>
        <time>2022-09-08T17:29:40Z</time>
      </trkpt>
      <trkpt lat="42.428515" lon="8.910712">
        <ele>1574.6</ele>
        <time>2022-09-08T17:29:52Z</time>
      </trkpt>
      <trkpt lat="42.4285" lon="8.91067">
        <ele>1572.2</ele>
        <time>2022-09-08T17:30:00Z</time>
      </trkpt>
      <trkpt lat="42.428515" lon="8.910632">
        <ele>1570.8</ele>
        <time>2022-09-08T17:30:07Z</time>
      </trkpt>
      <trkpt lat="42.428545" lon="8.91059">
        <ele>1568.4</ele>
        <time>2022-09-08T17:30:18Z</time>
      </trkpt>
      <trkpt lat="42.42857" lon="8.910513">
        <ele>1563.4</ele>
        <time>2022-09-08T17:30:45Z</time>
      </trkpt>
      <trkpt lat="42.4285" lon="8.910492">
        <ele>1562.0</ele>
        <time>2022-09-08T17:30:54Z</time>
      </trkpt>
      <trkpt lat="42.4285" lon="8.910463">
        <ele>1561.6</ele>
        <time>2022-09-08T17:30:56Z</time>
      </trkpt>
      <trkpt lat="42.4285" lon="8.910422">
        <ele>1561.4</ele>
        <time>2022-09-08T17:30:59Z</time>
      </trkpt>
      <trkpt lat="42.428492" lon="8.910353">
        <ele>1560.2</ele>
        <time>2022-09-08T17:31:04Z</time>
      </trkpt>
      <trkpt lat="42.428387" lon="8.910252">
        <ele>1557.4</ele>
        <time>2022-09-08T17:31:21Z</time>
      </trkpt>
      <trkpt lat="42.428382" lon="8.910245">
        <ele>1557.4</ele>
        <time>2022-09-08T17:31:22Z</time>
      </trkpt>
      <trkpt lat="42.428342" lon="8.910233">
        <ele>1556.8</ele>
        <time>2022-09-08T17:31:26Z</time>
      </trkpt>
      <trkpt lat="42.428357" lon="8.910378">
        <ele>1554.8</ele>
        <time>2022-09-08T17:31:40Z</time>
      </trkpt>
      <trkpt lat="42.42834" lon="8.910405">
        <ele>1553.8</ele>
        <time>2022-09-08T17:31:45Z</time>
      </trkpt>
      <trkpt lat="42.428308" lon="8.91045">
        <ele>1552.2</ele>
        <time>2022-09-08T17:31:56Z</time>
      </trkpt>
      <trkpt lat="42.428297" lon="8.910428">
        <ele>1552.2</ele>
        <time>2022-09-08T17:32:00Z</time>
      </trkpt>
      <trkpt lat="42.428295" lon="8.910422">
        <ele>1552.0</ele>
        <time>2022-09-08T17:32:01Z</time>
      </trkpt>
      <trkpt lat="42.428275" lon="8.910382">
        <ele>1549.8</ele>
        <time>2022-09-08T17:32:19Z</time>
      </trkpt>
      <trkpt lat="42.428285" lon="8.910335">
        <ele>1548.2</ele>
        <time>2022-09-08T17:32:31Z</time>
      </trkpt>
      <trkpt lat="42.42837" lon="8.910133">
        <ele>1538.4</ele>
        <time>2022-09-08T17:33:21Z</time>
      </trkpt>
      <trkpt lat="42.428348" lon="8.91012">
        <ele>1537.2</ele>
        <time>2022-09-08T17:33:30Z</time>
      </trkpt>
      <trkpt lat="42.428327" lon="8.910107">
        <ele>1536.0</ele>
        <time>2022-09-08T17:33:39Z</time>
      </trkpt>
      <trkpt lat="42.428305" lon="8.910095">
        <ele>1535.0</ele>
        <time>2022-09-08T17:33:48Z</time>
      </trkpt>
      <trkpt lat="42.428283" lon="8.910082">
        <ele>1533.6</ele>
        <time>2022-09-08T17:33:57Z</time>
      </trkpt>
      <trkpt lat="42.428245" lon="8.910037">
        <ele>1527.8</ele>
        <time>2022-09-08T17:34:38Z</time>
      </trkpt>
      <trkpt lat="42.428213" lon="8.910027">
        <ele>1527.0</ele>
        <time>2022-09-08T17:34:59Z</time>
      </trkpt>
      <trkpt lat="42.428197" lon="8.910012">
        <ele>1527.0</ele>
        <time>2022-09-08T17:35:07Z</time>
      </trkpt>
      <trkpt lat="42.428197" lon="8.909957">
        <ele>1523.8</ele>
        <time>2022-09-08T17:35:53Z</time>
      </trkpt>
      <trkpt lat="42.428192" lon="8.909935">
        <ele>1523.8</ele>
        <time>2022-09-08T17:35:57Z</time>
      </trkpt>
      <trkpt lat="42.428183" lon="8.90991">
        <ele>1523.8</ele>
        <time>2022-09-08T17:36:06Z</time>
      </trkpt>
      <trkpt lat="42.428075" lon="8.909713">
        <ele>1510.2</ele>
        <time>2022-09-08T17:37:13Z</time>
      </trkpt>
      <trkpt lat="42.42808" lon="8.909612">
        <ele>1500.8</ele>
        <time>2022-09-08T17:37:53Z</time>
      </trkpt>
      <trkpt lat="42.428083" lon="8.9096">
        <ele>1500.4</ele>
        <time>2022-09-08T17:37:55Z</time>
      </trkpt>
      <trkpt lat="42.428095" lon="8.90945">
        <ele>1498.2</ele>
        <time>2022-09-08T17:38:04Z</time>
      </trkpt>
      <trkpt lat="42.42811" lon="8.909357">
        <ele>1497.4</ele>
        <time>2022-09-08T17:38:10Z</time>
      </trkpt>
      <trkpt lat="42.428067" lon="8.909168">
        <ele>1495.2</ele>
        <time>2022-09-08T17:38:20Z</time>
      </trkpt>
      <trkpt lat="42.428025" lon="8.909042">
        <ele>1493.2</ele>
        <time>2022-09-08T17:38:28Z</time>
      </trkpt>
      <trkpt lat="42.428" lon="8.909008">
        <ele>1492.4</ele>
        <time>2022-09-08T17:38:31Z</time>
      </trkpt>
      <trkpt lat="42.427938" lon="8.908935">
        <ele>1490.8</ele>
        <time>2022-09-08T17:38:38Z</time>
      </trkpt>
      <trkpt lat="42.427928" lon="8.908908">
        <ele>1490.2</ele>
        <time>2022-09-08T17:38:42Z</time>
      </trkpt>
      <trkpt lat="42.42792" lon="8.90888">
        <ele>1489.6</ele>
        <time>2022-09-08T17:38:44Z</time>
      </trkpt>
      <trkpt lat="42.427957" lon="8.908843">
        <ele>1488.4</ele>
        <time>2022-09-08T17:38:49Z</time>
      </trkpt>
      <trkpt lat="42.427985" lon="8.908827">
        <ele>1487.6</ele>
        <time>2022-09-08T17:38:52Z</time>
      </trkpt>
      <trkpt lat="42.428002" lon="8.908805">
        <ele>1487.2</ele>
        <time>2022-09-08T17:38:55Z</time>
      </trkpt>
      <trkpt lat="42.427997" lon="8.908697">
        <ele>1485.2</ele>
        <time>2022-09-08T17:39:06Z</time>
      </trkpt>
      <trkpt lat="42.427982" lon="8.908667">
        <ele>1484.0</ele>
        <time>2022-09-08T17:39:13Z</time>
      </trkpt>
      <trkpt lat="42.427955" lon="8.908627">
        <ele>1483.2</ele>
        <time>2022-09-08T17:39:20Z</time>
      </trkpt>
      <trkpt lat="42.427935" lon="8.908605">
        <ele>1482.8</ele>
        <time>2022-09-08T17:39:23Z</time>
      </trkpt>
      <trkpt lat="42.427947" lon="8.90858">
        <ele>1481.8</ele>
        <time>2022-09-08T17:39:26Z</time>
      </trkpt>
      <trkpt lat="42.427958" lon="8.90857">
        <ele>1481.4</ele>
        <time>2022-09-08T17:39:29Z</time>
      </trkpt>
      <trkpt lat="42.427972" lon="8.908558">
        <ele>1480.8</ele>
        <time>2022-09-08T17:39:31Z</time>
      </trkpt>
      <trkpt lat="42.428077" lon="8.908473">
        <ele>1477.6</ele>
        <time>2022-09-08T17:39:46Z</time>
      </trkpt>
      <trkpt lat="42.428102" lon="8.908408">
        <ele>1477.0</ele>
        <time>2022-09-08T17:39:52Z</time>
      </trkpt>
      <trkpt lat="42.428105" lon="8.908383">
        <ele>1476.6</ele>
        <time>2022-09-08T17:39:54Z</time>
      </trkpt>
      <trkpt lat="42.428107" lon="8.90836">
        <ele>1475.8</ele>
        <time>2022-09-08T17:39:57Z</time>
      </trkpt>
      <trkpt lat="42.4281" lon="8.90829">
        <ele>1474.8</ele>
        <time>2022-09-08T17:40:03Z</time>
      </trkpt>
      <trkpt lat="42.42809" lon="8.908228">
        <ele>1473.8</ele>
        <time>2022-09-08T17:40:09Z</time>
      </trkpt>
      <trkpt lat="42.42809" lon="8.908202">
        <ele>1473.2</ele>
        <time>2022-09-08T17:40:12Z</time>
      </trkpt>
      <trkpt lat="42.428085" lon="8.908157">
        <ele>1472.6</ele>
        <time>2022-09-08T17:40:18Z</time>
      </trkpt>
      <trkpt lat="42.428042" lon="8.908157">
        <ele>1470.8</ele>
        <time>2022-09-08T17:40:25Z</time>
      </trkpt>
      <trkpt lat="42.428035" lon="8.908153">
        <ele>1470.8</ele>
        <time>2022-09-08T17:40:26Z</time>
      </trkpt>
      <trkpt lat="42.428013" lon="8.908165">
        <ele>1470.6</ele>
        <time>2022-09-08T17:40:28Z</time>
      </trkpt>
      <trkpt lat="42.427992" lon="8.908165">
        <ele>1470.2</ele>
        <time>2022-09-08T17:40:30Z</time>
      </trkpt>
      <trkpt lat="42.427765" lon="8.907995">
        <ele>1466.0</ele>
        <time>2022-09-08T17:40:54Z</time>
      </trkpt>
      <trkpt lat="42.42774" lon="8.907967">
        <ele>1465.4</ele>
        <time>2022-09-08T17:40:58Z</time>
      </trkpt>
      <trkpt lat="42.42772" lon="8.907963">
        <ele>1465.0</ele>
        <time>2022-09-08T17:41:00Z</time>
      </trkpt>
      <trkpt lat="42.427698" lon="8.90796">
        <ele>1464.6</ele>
        <time>2022-09-08T17:41:02Z</time>
      </trkpt>
      <trkpt lat="42.4277" lon="8.907902">
        <ele>1463.4</ele>
        <time>2022-09-08T17:41:07Z</time>
      </trkpt>
      <trkpt lat="42.42771" lon="8.907873">
        <ele>1463.2</ele>
        <time>2022-09-08T17:41:09Z</time>
      </trkpt>
      <trkpt lat="42.427717" lon="8.90786">
        <ele>1463.0</ele>
        <time>2022-09-08T17:41:10Z</time>
      </trkpt>
      <trkpt lat="42.427798" lon="8.90778">
        <ele>1460.4</ele>
        <time>2022-09-08T17:41:24Z</time>
      </trkpt>
      <trkpt lat="42.427825" lon="8.907755">
        <ele>1460.2</ele>
        <time>2022-09-08T17:41:30Z</time>
      </trkpt>
      <trkpt lat="42.427855" lon="8.907648">
        <ele>1457.8</ele>
        <time>2022-09-08T17:41:40Z</time>
      </trkpt>
      <trkpt lat="42.427862" lon="8.90763">
        <ele>1457.2</ele>
        <time>2022-09-08T17:41:41Z</time>
      </trkpt>
      <trkpt lat="42.42789" lon="8.907598">
        <ele>1455.8</ele>
        <time>2022-09-08T17:41:46Z</time>
      </trkpt>
      <trkpt lat="42.427908" lon="8.907522">
        <ele>1454.4</ele>
        <time>2022-09-08T17:41:53Z</time>
      </trkpt>
      <trkpt lat="42.427932" lon="8.907467">
        <ele>1453.0</ele>
        <time>2022-09-08T17:41:59Z</time>
      </trkpt>
      <trkpt lat="42.427928" lon="8.907445">
        <ele>1452.8</ele>
        <time>2022-09-08T17:42:01Z</time>
      </trkpt>
      <trkpt lat="42.427927" lon="8.907435">
        <ele>1452.4</ele>
        <time>2022-09-08T17:42:02Z</time>
      </trkpt>
      <trkpt lat="42.427918" lon="8.907367">
        <ele>1451.0</ele>
        <time>2022-09-08T17:42:10Z</time>
      </trkpt>
      <trkpt lat="42.42793" lon="8.90732">
        <ele>1449.8</ele>
        <time>2022-09-08T17:42:16Z</time>
      </trkpt>
      <trkpt lat="42.427968" lon="8.907312">
        <ele>1449.0</ele>
        <time>2022-09-08T17:42:23Z</time>
      </trkpt>
      <trkpt lat="42.427973" lon="8.907308">
        <ele>1448.2</ele>
        <time>2022-09-08T17:42:24Z</time>
      </trkpt>
      <trkpt lat="42.428" lon="8.907293">
        <ele>1447.2</ele>
        <time>2022-09-08T17:42:27Z</time>
      </trkpt>
      <trkpt lat="42.428047" lon="8.907262">
        <ele>1445.8</ele>
        <time>2022-09-08T17:42:33Z</time>
      </trkpt>
      <trkpt lat="42.428055" lon="8.907107">
        <ele>1442.0</ele>
        <time>2022-09-08T17:42:51Z</time>
      </trkpt>
      <trkpt lat="42.428047" lon="8.90709">
        <ele>1441.8</ele>
        <time>2022-09-08T17:42:53Z</time>
      </trkpt>
      <trkpt lat="42.42804" lon="8.907072">
        <ele>1441.2</ele>
        <time>2022-09-08T17:42:55Z</time>
      </trkpt>
      <trkpt lat="42.428047" lon="8.907015">
        <ele>1440.4</ele>
        <time>2022-09-08T17:43:01Z</time>
      </trkpt>
      <trkpt lat="42.428043" lon="8.906997">
        <ele>1440.0</ele>
        <time>2022-09-08T17:43:03Z</time>
      </trkpt>
      <trkpt lat="42.428032" lon="8.90687">
        <ele>1438.8</ele>
        <time>2022-09-08T17:43:10Z</time>
      </trkpt>
      <trkpt lat="42.427995" lon="8.906738">
        <ele>1437.4</ele>
        <time>2022-09-08T17:43:18Z</time>
      </trkpt>
      <trkpt lat="42.428012" lon="8.906515">
        <ele>1436.6</ele>
        <time>2022-09-08T17:43:30Z</time>
      </trkpt>
      <trkpt lat="42.428027" lon="8.906465">
        <ele>1437.2</ele>
        <time>2022-09-08T17:43:45Z</time>
      </trkpt>
      <trkpt lat="42.428007" lon="8.906535">
        <ele>1437.2</ele>
        <time>2022-09-08T17:43:52Z</time>
      </trkpt>
      <trkpt lat="42.427997" lon="8.906563">
        <ele>1437.2</ele>
        <time>2022-09-08T17:43:54Z</time>
      </trkpt>
      <trkpt lat="42.428012" lon="8.90656">
        <ele>1437.2</ele>
        <time>2022-09-08T17:43:56Z</time>
      </trkpt>
      <trkpt lat="42.428072" lon="8.906553">
        <ele>1437.0</ele>
        <time>2022-09-08T17:44:05Z</time>
      </trkpt>
      <trkpt lat="42.428085" lon="8.90656">
        <ele>1437.0</ele>
        <time>2022-09-08T17:44:07Z</time>
      </trkpt>
      <trkpt lat="42.42813" lon="8.906627">
        <ele>1437.4</ele>
        <time>2022-09-08T17:44:18Z</time>
      </trkpt>
      <trkpt lat="42.428153" lon="8.906632">
        <ele>1438.0</ele>
        <time>2022-09-08T17:44:21Z</time>
      </trkpt>
      <trkpt lat="42.428168" lon="8.906625">
        <ele>1438.4</ele>
        <time>2022-09-08T17:44:23Z</time>
      </trkpt>
      <trkpt lat="42.428223" lon="8.906597">
        <ele>1439.2</ele>
        <time>2022-09-08T17:44:32Z</time>
      </trkpt>
      <trkpt lat="42.428217" lon="8.906587">
        <ele>1439.2</ele>
        <time>2022-09-08T17:44:40Z</time>
      </trkpt>
      <trkpt lat="42.428162" lon="8.906537">
        <ele>1439.4</ele>
        <time>2022-09-08T17:44:54Z</time>
      </trkpt>
      <trkpt lat="42.428157" lon="8.906528">
        <ele>1439.4</ele>
        <time>2022-09-08T17:44:55Z</time>
      </trkpt>
      <trkpt lat="42.428157" lon="8.906543">
        <ele>1439.4</ele>
        <time>2022-09-08T17:44:57Z</time>
      </trkpt>
      <trkpt lat="42.428157" lon="8.906565">
        <ele>1439.6</ele>
        <time>2022-09-08T17:45:00Z</time>
      </trkpt>
      <trkpt lat="42.428143" lon="8.906635">
        <ele>1439.6</ele>
        <time>2022-09-08T17:45:10Z</time>
      </trkpt>
      <trkpt lat="42.428135" lon="8.906648">
        <ele>1439.6</ele>
        <time>2022-09-08T17:45:12Z</time>
      </trkpt>
      <trkpt lat="42.428127" lon="8.906662">
        <ele>1439.6</ele>
        <time>2022-09-08T17:45:14Z</time>
      </trkpt>
      <trkpt lat="42.428102" lon="8.906678">
        <ele>1440.0</ele>
        <time>2022-09-08T17:45:18Z</time>
      </trkpt>
      <trkpt lat="42.428123" lon="8.906667">
        <ele>1439.6</ele>
        <time>2022-09-08T17:45:23Z</time>
      </trkpt>
      <trkpt lat="42.42814" lon="8.90667">
        <ele>1439.6</ele>
        <time>2022-09-08T17:45:25Z</time>
      </trkpt>
      <trkpt lat="42.428152" lon="8.906698">
        <ele>1439.6</ele>
        <time>2022-09-08T17:45:28Z</time>
      </trkpt>
      <trkpt lat="42.428155" lon="8.906803">
        <ele>1439.2</ele>
        <time>2022-09-08T17:45:41Z</time>
      </trkpt>
      <trkpt lat="42.428147" lon="8.906883">
        <ele>1439.4</ele>
        <time>2022-09-08T17:45:52Z</time>
      </trkpt>
      <trkpt lat="42.428165" lon="8.906963">
        <ele>1439.4</ele>
        <time>2022-09-08T17:46:06Z</time>
      </trkpt>
      <trkpt lat="42.428168" lon="8.906978">
        <ele>1439.4</ele>
        <time>2022-09-08T17:46:07Z</time>
      </trkpt>
      <trkpt lat="42.42817" lon="8.906992">
        <ele>1439.4</ele>
        <time>2022-09-08T17:46:10Z</time>
      </trkpt>
      <trkpt lat="42.428242" lon="8.907312">
        <ele>1439.6</ele>
        <time>2022-09-08T17:46:32Z</time>
      </trkpt>
      <trkpt lat="42.428108" lon="8.906605">
        <ele>1434.6</ele>
        <time>2022-09-09T07:41:56Z</time>
      </trkpt>
      <trkpt lat="42.428108" lon="8.906605">
        <ele>1434.6</ele>
        <time>2022-09-09T07:42:01Z</time>
      </trkpt>
      <trkpt lat="42.428078" lon="8.90659">
        <ele>1433.4</ele>
        <time>2022-09-09T07:42:31Z</time>
      </trkpt>
      <trkpt lat="42.42806" lon="8.906617">
        <ele>1432.8</ele>
        <time>2022-09-09T07:42:41Z</time>
      </trkpt>
      <trkpt lat="42.42804" lon="8.906592">
        <ele>1431.8</ele>
        <time>2022-09-09T07:42:50Z</time>
      </trkpt>
      <trkpt lat="42.428023" lon="8.906533">
        <ele>1429.0</ele>
        <time>2022-09-09T07:43:08Z</time>
      </trkpt>
      <trkpt lat="42.427985" lon="8.906487">
        <ele>1427.4</ele>
        <time>2022-09-09T07:43:21Z</time>
      </trkpt>
      <trkpt lat="42.427945" lon="8.906322">
        <ele>1422.4</ele>
        <time>2022-09-09T07:43:56Z</time>
      </trkpt>
      <trkpt lat="42.427938" lon="8.906282">
        <ele>1421.0</ele>
        <time>2022-09-09T07:44:06Z</time>
      </trkpt>
      <trkpt lat="42.427993" lon="8.906273">
        <ele>1420.2</ele>
        <time>2022-09-09T07:44:14Z</time>
      </trkpt>
      <trkpt lat="42.42805" lon="8.906183">
        <ele>1418.4</ele>
        <time>2022-09-09T07:44:27Z</time>
      </trkpt>
      <trkpt lat="42.427992" lon="8.906055">
        <ele>1415.2</ele>
        <time>2022-09-09T07:44:52Z</time>
      </trkpt>
      <trkpt lat="42.427987" lon="8.90605">
        <ele>1415.2</ele>
        <time>2022-09-09T07:44:53Z</time>
      </trkpt>
      <trkpt lat="42.427957" lon="8.906143">
        <ele>1414.0</ele>
        <time>2022-09-09T07:45:09Z</time>
      </trkpt>
      <trkpt lat="42.427937" lon="8.906085">
        <ele>1411.8</ele>
        <time>2022-09-09T07:45:19Z</time>
      </trkpt>
      <trkpt lat="42.427917" lon="8.906003">
        <ele>1410.4</ele>
        <time>2022-09-09T07:45:30Z</time>
      </trkpt>
      <trkpt lat="42.427917" lon="8.905937">
        <ele>1409.2</ele>
        <time>2022-09-09T07:45:39Z</time>
      </trkpt>
      <trkpt lat="42.427877" lon="8.905918">
        <ele>1407.4</ele>
        <time>2022-09-09T07:45:49Z</time>
      </trkpt>
      <trkpt lat="42.427848" lon="8.905823">
        <ele>1405.2</ele>
        <time>2022-09-09T07:46:19Z</time>
      </trkpt>
      <trkpt lat="42.42785" lon="8.90582">
        <ele>1405.2</ele>
        <time>2022-09-09T07:46:20Z</time>
      </trkpt>
      <trkpt lat="42.427877" lon="8.90579">
        <ele>1404.8</ele>
        <time>2022-09-09T07:46:28Z</time>
      </trkpt>
      <trkpt lat="42.427945" lon="8.905688">
        <ele>1402.2</ele>
        <time>2022-09-09T07:46:46Z</time>
      </trkpt>
      <trkpt lat="42.42793" lon="8.905642">
        <ele>1401.6</ele>
        <time>2022-09-09T07:46:51Z</time>
      </trkpt>
      <trkpt lat="42.427892" lon="8.905617">
        <ele>1401.2</ele>
        <time>2022-09-09T07:46:59Z</time>
      </trkpt>
      <trkpt lat="42.42787" lon="8.905608">
        <ele>1400.8</ele>
        <time>2022-09-09T07:47:03Z</time>
      </trkpt>
      <trkpt lat="42.427867" lon="8.905692">
        <ele>1400.2</ele>
        <time>2022-09-09T07:47:10Z</time>
      </trkpt>
      <trkpt lat="42.42785" lon="8.905733">
        <ele>1399.8</ele>
        <time>2022-09-09T07:47:15Z</time>
      </trkpt>
      <trkpt lat="42.427803" lon="8.90569">
        <ele>1399.4</ele>
        <time>2022-09-09T07:47:21Z</time>
      </trkpt>
      <trkpt lat="42.427647" lon="8.90539">
        <ele>1397.2</ele>
        <time>2022-09-09T07:47:41Z</time>
      </trkpt>
      <trkpt lat="42.427657" lon="8.905382">
        <ele>1396.8</ele>
        <time>2022-09-09T07:47:42Z</time>
      </trkpt>
      <trkpt lat="42.427813" lon="8.905267">
        <ele>1393.6</ele>
        <time>2022-09-09T07:47:59Z</time>
      </trkpt>
      <trkpt lat="42.42785" lon="8.9052">
        <ele>1390.8</ele>
        <time>2022-09-09T07:48:09Z</time>
      </trkpt>
      <trkpt lat="42.427902" lon="8.90516">
        <ele>1389.6</ele>
        <time>2022-09-09T07:48:18Z</time>
      </trkpt>
      <trkpt lat="42.427888" lon="8.905143">
        <ele>1389.4</ele>
        <time>2022-09-09T07:48:22Z</time>
      </trkpt>
      <trkpt lat="42.427855" lon="8.905185">
        <ele>1389.0</ele>
        <time>2022-09-09T07:48:29Z</time>
      </trkpt>
      <trkpt lat="42.42779" lon="8.90529">
        <ele>1386.6</ele>
        <time>2022-09-09T07:48:48Z</time>
      </trkpt>
      <trkpt lat="42.427752" lon="8.905315">
        <ele>1385.2</ele>
        <time>2022-09-09T07:49:01Z</time>
      </trkpt>
      <trkpt lat="42.427725" lon="8.90533">
        <ele>1381.4</ele>
        <time>2022-09-09T07:49:21Z</time>
      </trkpt>
      <trkpt lat="42.42772" lon="8.905292">
        <ele>1380.6</ele>
        <time>2022-09-09T07:49:36Z</time>
      </trkpt>
      <trkpt lat="42.427707" lon="8.905292">
        <ele>1379.8</ele>
        <time>2022-09-09T07:49:40Z</time>
      </trkpt>
      <trkpt lat="42.427595" lon="8.905303">
        <ele>1378.6</ele>
        <time>2022-09-09T07:49:53Z</time>
      </trkpt>
      <trkpt lat="42.427525" lon="8.905328">
        <ele>1377.4</ele>
        <time>2022-09-09T07:50:01Z</time>
      </trkpt>
      <trkpt lat="42.427475" lon="8.905368">
        <ele>1375.4</ele>
        <time>2022-09-09T07:50:07Z</time>
      </trkpt>
      <trkpt lat="42.427407" lon="8.905407">
        <ele>1374.0</ele>
        <time>2022-09-09T07:50:19Z</time>
      </trkpt>
      <trkpt lat="42.427288" lon="8.905398">
        <ele>1371.2</ele>
        <time>2022-09-09T07:50:47Z</time>
      </trkpt>
      <trkpt lat="42.427283" lon="8.905395">
        <ele>1371.0</ele>
        <time>2022-09-09T07:50:48Z</time>
      </trkpt>
      <trkpt lat="42.427228" lon="8.905357">
        <ele>1370.0</ele>
        <time>2022-09-09T07:51:00Z</time>
      </trkpt>
      <trkpt lat="42.427163" lon="8.905318">
        <ele>1370.0</ele>
        <time>2022-09-09T07:51:10Z</time>
      </trkpt>
      <trkpt lat="42.42712" lon="8.905285">
        <ele>1369.8</ele>
        <time>2022-09-09T07:51:17Z</time>
      </trkpt>
      <trkpt lat="42.427048" lon="8.905222">
        <ele>1368.0</ele>
        <time>2022-09-09T07:51:29Z</time>
      </trkpt>
      <trkpt lat="42.427012" lon="8.905205">
        <ele>1367.6</ele>
        <time>2022-09-09T07:51:34Z</time>
      </trkpt>
      <trkpt lat="42.426988" lon="8.905213">
        <ele>1367.4</ele>
        <time>2022-09-09T07:51:45Z</time>
      </trkpt>
      <trkpt lat="42.426975" lon="8.90522">
        <ele>1367.0</ele>
        <time>2022-09-09T07:51:55Z</time>
      </trkpt>
      <trkpt lat="42.42694" lon="8.905172">
        <ele>1367.8</ele>
        <time>2022-09-09T07:52:15Z</time>
      </trkpt>
      <trkpt lat="42.426873" lon="8.905078">
        <ele>1369.2</ele>
        <time>2022-09-09T07:52:31Z</time>
      </trkpt>
      <trkpt lat="42.426855" lon="8.905047">
        <ele>1369.8</ele>
        <time>2022-09-09T07:52:35Z</time>
      </trkpt>
      <trkpt lat="42.426823" lon="8.90502">
        <ele>1370.2</ele>
        <time>2022-09-09T07:52:41Z</time>
      </trkpt>
      <trkpt lat="42.426707" lon="8.905027">
        <ele>1369.4</ele>
        <time>2022-09-09T07:52:58Z</time>
      </trkpt>
      <trkpt lat="42.426678" lon="8.905012">
        <ele>1368.8</ele>
        <time>2022-09-09T07:53:03Z</time>
      </trkpt>
      <trkpt lat="42.426638" lon="8.904968">
        <ele>1367.4</ele>
        <time>2022-09-09T07:53:12Z</time>
      </trkpt>
      <trkpt lat="42.426585" lon="8.904793">
        <ele>1361.4</ele>
        <time>2022-09-09T07:53:45Z</time>
      </trkpt>
      <trkpt lat="42.426618" lon="8.904698">
        <ele>1358.6</ele>
        <time>2022-09-09T07:54:05Z</time>
      </trkpt>
      <trkpt lat="42.426672" lon="8.904572">
        <ele>1353.8</ele>
        <time>2022-09-09T07:54:34Z</time>
      </trkpt>
      <trkpt lat="42.426693" lon="8.904408">
        <ele>1352.2</ele>
        <time>2022-09-09T07:54:48Z</time>
      </trkpt>
      <trkpt lat="42.426703" lon="8.904363">
        <ele>1351.4</ele>
        <time>2022-09-09T07:54:50Z</time>
      </trkpt>
      <trkpt lat="42.426677" lon="8.904227">
        <ele>1349.4</ele>
        <time>2022-09-09T07:55:01Z</time>
      </trkpt>
      <trkpt lat="42.426647" lon="8.904158">
        <ele>1347.2</ele>
        <time>2022-09-09T07:55:10Z</time>
      </trkpt>
      <trkpt lat="42.426635" lon="8.90411">
        <ele>1346.8</ele>
        <time>2022-09-09T07:55:16Z</time>
      </trkpt>
      <trkpt lat="42.426633" lon="8.904035">
        <ele>1347.2</ele>
        <time>2022-09-09T07:55:24Z</time>
      </trkpt>
      <trkpt lat="42.426613" lon="8.903945">
        <ele>1345.2</ele>
        <time>2022-09-09T07:55:35Z</time>
      </trkpt>
      <trkpt lat="42.426697" lon="8.903785">
        <ele>1342.0</ele>
        <time>2022-09-09T07:55:55Z</time>
      </trkpt>
      <trkpt lat="42.426698" lon="8.903685">
        <ele>1340.0</ele>
        <time>2022-09-09T07:56:06Z</time>
      </trkpt>
      <trkpt lat="42.426707" lon="8.903633">
        <ele>1339.0</ele>
        <time>2022-09-09T07:56:11Z</time>
      </trkpt>
      <trkpt lat="42.426695" lon="8.90354">
        <ele>1337.8</ele>
        <time>2022-09-09T07:56:20Z</time>
      </trkpt>
      <trkpt lat="42.426698" lon="8.903477">
        <ele>1337.2</ele>
        <time>2022-09-09T07:56:26Z</time>
      </trkpt>
      <trkpt lat="42.426668" lon="8.903458">
        <ele>1336.6</ele>
        <time>2022-09-09T07:56:30Z</time>
      </trkpt>
      <trkpt lat="42.42661" lon="8.903403">
        <ele>1335.4</ele>
        <time>2022-09-09T07:56:40Z</time>
      </trkpt>
      <trkpt lat="42.426653" lon="8.9033">
        <ele>1335.0</ele>
        <time>2022-09-09T07:56:53Z</time>
      </trkpt>
      <trkpt lat="42.426688" lon="8.903285">
        <ele>1334.0</ele>
        <time>2022-09-09T07:56:56Z</time>
      </trkpt>
      <trkpt lat="42.426662" lon="8.903322">
        <ele>1333.6</ele>
        <time>2022-09-09T07:57:00Z</time>
      </trkpt>
      <trkpt lat="42.426668" lon="8.903393">
        <ele>1332.6</ele>
        <time>2022-09-09T07:57:06Z</time>
      </trkpt>
      <trkpt lat="42.426663" lon="8.903442">
        <ele>1332.2</ele>
        <time>2022-09-09T07:57:11Z</time>
      </trkpt>
      <trkpt lat="42.426643" lon="8.903525">
        <ele>1331.0</ele>
        <time>2022-09-09T07:57:18Z</time>
      </trkpt>
      <trkpt lat="42.426712" lon="8.90365">
        <ele>1329.0</ele>
        <time>2022-09-09T07:57:33Z</time>
      </trkpt>
      <trkpt lat="42.426707" lon="8.903662">
        <ele>1329.0</ele>
        <time>2022-09-09T07:57:34Z</time>
      </trkpt>
      <trkpt lat="42.426797" lon="8.90363">
        <ele>1327.4</ele>
        <time>2022-09-09T07:57:42Z</time>
      </trkpt>
      <trkpt lat="42.426757" lon="8.90354">
        <ele>1325.6</ele>
        <time>2022-09-09T07:57:54Z</time>
      </trkpt>
      <trkpt lat="42.426732" lon="8.903485">
        <ele>1324.8</ele>
        <time>2022-09-09T07:58:01Z</time>
      </trkpt>
      <trkpt lat="42.426707" lon="8.903448">
        <ele>1324.0</ele>
        <time>2022-09-09T07:58:07Z</time>
      </trkpt>
      <trkpt lat="42.426727" lon="8.903378">
        <ele>1323.0</ele>
        <time>2022-09-09T07:58:19Z</time>
      </trkpt>
      <trkpt lat="42.42665" lon="8.903298">
        <ele>1321.8</ele>
        <time>2022-09-09T07:58:31Z</time>
      </trkpt>
      <trkpt lat="42.42665" lon="8.903292">
        <ele>1321.8</ele>
        <time>2022-09-09T07:58:33Z</time>
      </trkpt>
      <trkpt lat="42.426607" lon="8.903227">
        <ele>1320.2</ele>
        <time>2022-09-09T07:58:51Z</time>
      </trkpt>
      <trkpt lat="42.426577" lon="8.903177">
        <ele>1319.0</ele>
        <time>2022-09-09T07:59:02Z</time>
      </trkpt>
      <trkpt lat="42.42653" lon="8.903097">
        <ele>1318.4</ele>
        <time>2022-09-09T07:59:09Z</time>
      </trkpt>
      <trkpt lat="42.426475" lon="8.903003">
        <ele>1318.0</ele>
        <time>2022-09-09T07:59:19Z</time>
      </trkpt>
      <trkpt lat="42.426398" lon="8.902955">
        <ele>1316.2</ele>
        <time>2022-09-09T07:59:32Z</time>
      </trkpt>
      <trkpt lat="42.426352" lon="8.90292">
        <ele>1314.6</ele>
        <time>2022-09-09T07:59:41Z</time>
      </trkpt>
      <trkpt lat="42.426278" lon="8.902843">
        <ele>1307.8</ele>
        <time>2022-09-09T08:00:23Z</time>
      </trkpt>
      <trkpt lat="42.42636" lon="8.902778">
        <ele>1304.0</ele>
        <time>2022-09-09T08:00:42Z</time>
      </trkpt>
      <trkpt lat="42.426383" lon="8.902532">
        <ele>1301.4</ele>
        <time>2022-09-09T08:01:06Z</time>
      </trkpt>
      <trkpt lat="42.426338" lon="8.902337">
        <ele>1299.4</ele>
        <time>2022-09-09T08:01:24Z</time>
      </trkpt>
      <trkpt lat="42.426302" lon="8.902183">
        <ele>1297.8</ele>
        <time>2022-09-09T08:01:44Z</time>
      </trkpt>
      <trkpt lat="42.42619" lon="8.902132">
        <ele>1295.6</ele>
        <time>2022-09-09T08:02:07Z</time>
      </trkpt>
      <trkpt lat="42.426152" lon="8.902097">
        <ele>1295.6</ele>
        <time>2022-09-09T08:02:13Z</time>
      </trkpt>
      <trkpt lat="42.426078" lon="8.90205">
        <ele>1295.4</ele>
        <time>2022-09-09T08:02:21Z</time>
      </trkpt>
      <trkpt lat="42.42602" lon="8.901988">
        <ele>1294.0</ele>
        <time>2022-09-09T08:02:29Z</time>
      </trkpt>
      <trkpt lat="42.425983" lon="8.901967">
        <ele>1293.8</ele>
        <time>2022-09-09T08:02:33Z</time>
      </trkpt>
      <trkpt lat="42.425892" lon="8.90196">
        <ele>1292.4</ele>
        <time>2022-09-09T08:02:43Z</time>
      </trkpt>
      <trkpt lat="42.425982" lon="8.901863">
        <ele>1291.6</ele>
        <time>2022-09-09T08:02:53Z</time>
      </trkpt>
      <trkpt lat="42.426028" lon="8.901813">
        <ele>1291.4</ele>
        <time>2022-09-09T08:02:58Z</time>
      </trkpt>
      <trkpt lat="42.426122" lon="8.901665">
        <ele>1289.4</ele>
        <time>2022-09-09T08:03:16Z</time>
      </trkpt>
      <trkpt lat="42.42631" lon="8.901597">
        <ele>1288.0</ele>
        <time>2022-09-09T08:03:26Z</time>
      </trkpt>
      <trkpt lat="42.426312" lon="8.901578">
        <ele>1288.0</ele>
        <time>2022-09-09T08:03:27Z</time>
      </trkpt>
      <trkpt lat="42.426312" lon="8.901515">
        <ele>1287.8</ele>
        <time>2022-09-09T08:03:30Z</time>
      </trkpt>
      <trkpt lat="42.426308" lon="8.901453">
        <ele>1287.4</ele>
        <time>2022-09-09T08:03:33Z</time>
      </trkpt>
      <trkpt lat="42.426257" lon="8.901377">
        <ele>1285.6</ele>
        <time>2022-09-09T08:03:46Z</time>
      </trkpt>
      <trkpt lat="42.426172" lon="8.901332">
        <ele>1283.4</ele>
        <time>2022-09-09T08:04:13Z</time>
      </trkpt>
      <trkpt lat="42.426117" lon="8.901297">
        <ele>1282.6</ele>
        <time>2022-09-09T08:04:22Z</time>
      </trkpt>
      <trkpt lat="42.426072" lon="8.90125">
        <ele>1281.8</ele>
        <time>2022-09-09T08:04:27Z</time>
      </trkpt>
      <trkpt lat="42.426043" lon="8.901192">
        <ele>1281.2</ele>
        <time>2022-09-09T08:04:31Z</time>
      </trkpt>
      <trkpt lat="42.426005" lon="8.901123">
        <ele>1281.0</ele>
        <time>2022-09-09T08:04:37Z</time>
      </trkpt>
      <trkpt lat="42.426008" lon="8.901087">
        <ele>1280.8</ele>
        <time>2022-09-09T08:04:40Z</time>
      </trkpt>
      <trkpt lat="42.425987" lon="8.90106">
        <ele>1279.8</ele>
        <time>2022-09-09T08:04:45Z</time>
      </trkpt>
      <trkpt lat="42.425967" lon="8.90106">
        <ele>1279.2</ele>
        <time>2022-09-09T08:04:49Z</time>
      </trkpt>
      <trkpt lat="42.42597" lon="8.901032">
        <ele>1278.8</ele>
        <time>2022-09-09T08:04:59Z</time>
      </trkpt>
      <trkpt lat="42.426023" lon="8.900908">
        <ele>1276.8</ele>
        <time>2022-09-09T08:05:24Z</time>
      </trkpt>
      <trkpt lat="42.42603" lon="8.900847">
        <ele>1276.4</ele>
        <time>2022-09-09T08:05:28Z</time>
      </trkpt>
      <trkpt lat="42.426017" lon="8.90079">
        <ele>1276.0</ele>
        <time>2022-09-09T08:05:31Z</time>
      </trkpt>
      <trkpt lat="42.426003" lon="8.900753">
        <ele>1275.8</ele>
        <time>2022-09-09T08:05:33Z</time>
      </trkpt>
      <trkpt lat="42.426045" lon="8.900608">
        <ele>1275.0</ele>
        <time>2022-09-09T08:05:40Z</time>
      </trkpt>
      <trkpt lat="42.426117" lon="8.900497">
        <ele>1274.2</ele>
        <time>2022-09-09T08:05:49Z</time>
      </trkpt>
      <trkpt lat="42.426137" lon="8.90049">
        <ele>1274.0</ele>
        <time>2022-09-09T08:05:51Z</time>
      </trkpt>
      <trkpt lat="42.426162" lon="8.9005">
        <ele>1273.8</ele>
        <time>2022-09-09T08:05:54Z</time>
      </trkpt>
      <trkpt lat="42.42618" lon="8.90052">
        <ele>1273.8</ele>
        <time>2022-09-09T08:05:57Z</time>
      </trkpt>
      <trkpt lat="42.426172" lon="8.900543">
        <ele>1273.8</ele>
        <time>2022-09-09T08:05:59Z</time>
      </trkpt>
      <trkpt lat="42.42614" lon="8.900588">
        <ele>1273.6</ele>
        <time>2022-09-09T08:06:03Z</time>
      </trkpt>
      <trkpt lat="42.426112" lon="8.900622">
        <ele>1273.6</ele>
        <time>2022-09-09T08:06:06Z</time>
      </trkpt>
      <trkpt lat="42.426218" lon="8.900617">
        <ele>1273.6</ele>
        <time>2022-09-09T08:06:11Z</time>
      </trkpt>
      <trkpt lat="42.426255" lon="8.900623">
        <ele>1273.8</ele>
        <time>2022-09-09T08:06:13Z</time>
      </trkpt>
      <trkpt lat="42.426267" lon="8.900647">
        <ele>1273.8</ele>
        <time>2022-09-09T08:06:15Z</time>
      </trkpt>
      <trkpt lat="42.426147" lon="8.900677">
        <ele>1274.2</ele>
        <time>2022-09-09T08:06:22Z</time>
      </trkpt>
      <trkpt lat="42.426068" lon="8.90068">
        <ele>1274.6</ele>
        <time>2022-09-09T08:06:27Z</time>
      </trkpt>
      <trkpt lat="42.426018" lon="8.900648">
        <ele>1274.6</ele>
        <time>2022-09-09T08:06:32Z</time>
      </trkpt>
      <trkpt lat="42.42605" lon="8.900608">
        <ele>1274.6</ele>
        <time>2022-09-09T08:06:42Z</time>
      </trkpt>
      <trkpt lat="42.42612" lon="8.900545">
        <ele>1274.0</ele>
        <time>2022-09-09T08:07:19Z</time>
      </trkpt>
      <trkpt lat="42.426167" lon="8.900567">
        <ele>1274.4</ele>
        <time>2022-09-09T08:07:28Z</time>
      </trkpt>
      <trkpt lat="42.426197" lon="8.900612">
        <ele>1274.6</ele>
        <time>2022-09-09T08:07:34Z</time>
      </trkpt>
      <trkpt lat="42.426222" lon="8.900598">
        <ele>1274.4</ele>
        <time>2022-09-09T08:07:46Z</time>
      </trkpt>
      <trkpt lat="42.42619" lon="8.900592">
        <ele>1274.2</ele>
        <time>2022-09-09T08:07:50Z</time>
      </trkpt>
      <trkpt lat="42.426138" lon="8.900587">
        <ele>1274.0</ele>
        <time>2022-09-09T08:07:56Z</time>
      </trkpt>
      <trkpt lat="42.426017" lon="8.900505">
        <ele>1273.2</ele>
        <time>2022-09-09T08:08:13Z</time>
      </trkpt>
      <trkpt lat="42.425993" lon="8.900463">
        <ele>1273.0</ele>
        <time>2022-09-09T08:08:18Z</time>
      </trkpt>
      <trkpt lat="42.425998" lon="8.900473">
        <ele>1273.0</ele>
        <time>2022-09-09T08:08:19Z</time>
      </trkpt>
      <trkpt lat="42.426065" lon="8.900505">
        <ele>1273.0</ele>
        <time>2022-09-09T08:08:28Z</time>
      </trkpt>
      <trkpt lat="42.42605" lon="8.900535">
        <ele>1273.0</ele>
        <time>2022-09-09T08:08:34Z</time>
      </trkpt>
      <trkpt lat="42.425935" lon="8.90072">
        <ele>1273.4</ele>
        <time>2022-09-09T08:11:23Z</time>
      </trkpt>
      <trkpt lat="42.425952" lon="8.900722">
        <ele>1274.0</ele>
        <time>2022-09-09T08:11:39Z</time>
      </trkpt>
      <trkpt lat="42.426055" lon="8.900437">
        <ele>1261.6</ele>
        <time>2022-09-09T08:36:08Z</time>
      </trkpt>
      <trkpt lat="42.426097" lon="8.900242">
        <ele>1260.2</ele>
        <time>2022-09-09T08:37:36Z</time>
      </trkpt>
      <trkpt lat="42.42612" lon="8.899947">
        <ele>1259.6</ele>
        <time>2022-09-09T08:37:46Z</time>
      </trkpt>
      <trkpt lat="42.426227" lon="8.899933">
        <ele>1259.0</ele>
        <time>2022-09-09T08:37:50Z</time>
      </trkpt>
      <trkpt lat="42.426325" lon="8.899913">
        <ele>1258.6</ele>
        <time>2022-09-09T08:37:57Z</time>
      </trkpt>
      <trkpt lat="42.426447" lon="8.899837">
        <ele>1257.2</ele>
        <time>2022-09-09T08:38:09Z</time>
      </trkpt>
      <trkpt lat="42.426505" lon="8.899775">
        <ele>1256.8</ele>
        <time>2022-09-09T08:38:19Z</time>
      </trkpt>
      <trkpt lat="42.426558" lon="8.899692">
        <ele>1256.2</ele>
        <time>2022-09-09T08:38:39Z</time>
      </trkpt>
      <trkpt lat="42.426558" lon="8.899687">
        <ele>1256.0</ele>
        <time>2022-09-09T08:38:40Z</time>
      </trkpt>
      <trkpt lat="42.426445" lon="8.8997">
        <ele>1255.4</ele>
        <time>2022-09-09T08:38:56Z</time>
      </trkpt>
      <trkpt lat="42.425972" lon="8.899722">
        <ele>1248.4</ele>
        <time>2022-09-09T08:40:12Z</time>
      </trkpt>
      <trkpt lat="42.425915" lon="8.899645">
        <ele>1246.2</ele>
        <time>2022-09-09T08:40:23Z</time>
      </trkpt>
      <trkpt lat="42.425875" lon="8.899602">
        <ele>1245.4</ele>
        <time>2022-09-09T08:40:28Z</time>
      </trkpt>
      <trkpt lat="42.425858" lon="8.899485">
        <ele>1242.8</ele>
        <time>2022-09-09T08:40:35Z</time>
      </trkpt>
      <trkpt lat="42.425752" lon="8.89941">
        <ele>1241.4</ele>
        <time>2022-09-09T08:40:44Z</time>
      </trkpt>
      <trkpt lat="42.425683" lon="8.899337">
        <ele>1240.4</ele>
        <time>2022-09-09T08:40:55Z</time>
      </trkpt>
      <trkpt lat="42.4256" lon="8.899307">
        <ele>1239.0</ele>
        <time>2022-09-09T08:41:05Z</time>
      </trkpt>
      <trkpt lat="42.42552" lon="8.899287">
        <ele>1238.0</ele>
        <time>2022-09-09T08:41:15Z</time>
      </trkpt>
      <trkpt lat="42.425513" lon="8.899282">
        <ele>1238.0</ele>
        <time>2022-09-09T08:41:16Z</time>
      </trkpt>
      <trkpt lat="42.425498" lon="8.899238">
        <ele>1238.6</ele>
        <time>2022-09-09T08:41:21Z</time>
      </trkpt>
      <trkpt lat="42.425448" lon="8.899218">
        <ele>1239.0</ele>
        <time>2022-09-09T08:41:27Z</time>
      </trkpt>
      <trkpt lat="42.425413" lon="8.899138">
        <ele>1239.0</ele>
        <time>2022-09-09T08:41:37Z</time>
      </trkpt>
      <trkpt lat="42.425357" lon="8.899053">
        <ele>1241.0</ele>
        <time>2022-09-09T08:42:05Z</time>
      </trkpt>
      <trkpt lat="42.425377" lon="8.899112">
        <ele>1242.0</ele>
        <time>2022-09-09T08:42:59Z</time>
      </trkpt>
      <trkpt lat="42.425312" lon="8.899122">
        <ele>1243.2</ele>
        <time>2022-09-09T08:43:05Z</time>
      </trkpt>
      <trkpt lat="42.425298" lon="8.899118">
        <ele>1244.4</ele>
        <time>2022-09-09T08:43:08Z</time>
      </trkpt>
      <trkpt lat="42.425217" lon="8.899022">
        <ele>1246.2</ele>
        <time>2022-09-09T08:43:17Z</time>
      </trkpt>
      <trkpt lat="42.425182" lon="8.898955">
        <ele>1245.8</ele>
        <time>2022-09-09T08:43:23Z</time>
      </trkpt>
      <trkpt lat="42.42509" lon="8.898948">
        <ele>1245.6</ele>
        <time>2022-09-09T08:43:32Z</time>
      </trkpt>
      <trkpt lat="42.425078" lon="8.898953">
        <ele>1245.6</ele>
        <time>2022-09-09T08:43:33Z</time>
      </trkpt>
      <trkpt lat="42.425097" lon="8.89904">
        <ele>1244.2</ele>
        <time>2022-09-09T08:43:41Z</time>
      </trkpt>
      <trkpt lat="42.42515" lon="8.899092">
        <ele>1244.6</ele>
        <time>2022-09-09T08:43:51Z</time>
      </trkpt>
      <trkpt lat="42.42517" lon="8.89911">
        <ele>1245.0</ele>
        <time>2022-09-09T08:43:56Z</time>
      </trkpt>
      <trkpt lat="42.425183" lon="8.899098">
        <ele>1245.6</ele>
        <time>2022-09-09T08:44:04Z</time>
      </trkpt>
      <trkpt lat="42.425182" lon="8.899103">
        <ele>1246.0</ele>
        <time>2022-09-09T08:44:18Z</time>
      </trkpt>
      <trkpt lat="42.425182" lon="8.899102">
        <ele>1246.0</ele>
        <time>2022-09-09T08:44:24Z</time>
      </trkpt>
      <trkpt lat="42.42521" lon="8.89912">
        <ele>1246.0</ele>
        <time>2022-09-09T08:44:30Z</time>
      </trkpt>
      <trkpt lat="42.425167" lon="8.89913">
        <ele>1246.0</ele>
        <time>2022-09-09T08:44:35Z</time>
      </trkpt>
      <trkpt lat="42.425152" lon="8.899078">
        <ele>1246.0</ele>
        <time>2022-09-09T08:44:39Z</time>
      </trkpt>
      <trkpt lat="42.425078" lon="8.89906">
        <ele>1245.6</ele>
        <time>2022-09-09T08:44:48Z</time>
      </trkpt>
      <trkpt lat="42.42517" lon="8.89909">
        <ele>1243.8</ele>
        <time>2022-09-09T08:49:25Z</time>
      </trkpt>
      <trkpt lat="42.425148" lon="8.899075">
        <ele>1243.8</ele>
        <time>2022-09-09T08:49:37Z</time>
      </trkpt>
      <trkpt lat="42.42516" lon="8.899063">
        <ele>1243.6</ele>
        <time>2022-09-09T08:49:43Z</time>
      </trkpt>
      <trkpt lat="42.425138" lon="8.899005">
        <ele>1241.4</ele>
        <time>2022-09-09T08:50:18Z</time>
      </trkpt>
      <trkpt lat="42.425127" lon="8.89898">
        <ele>1242.0</ele>
        <time>2022-09-09T08:50:29Z</time>
      </trkpt>
      <trkpt lat="42.4251" lon="8.898928">
        <ele>1238.6</ele>
        <time>2022-09-09T08:51:07Z</time>
      </trkpt>
      <trkpt lat="42.425077" lon="8.898798">
        <ele>1237.0</ele>
        <time>2022-09-09T08:51:21Z</time>
      </trkpt>
      <trkpt lat="42.425018" lon="8.8987">
        <ele>1237.0</ele>
        <time>2022-09-09T08:51:29Z</time>
      </trkpt>
      <trkpt lat="42.424983" lon="8.898625">
        <ele>1237.0</ele>
        <time>2022-09-09T08:51:34Z</time>
      </trkpt>
      <trkpt lat="42.424978" lon="8.898532">
        <ele>1237.0</ele>
        <time>2022-09-09T08:51:39Z</time>
      </trkpt>
      <trkpt lat="42.42502" lon="8.898473">
        <ele>1237.0</ele>
        <time>2022-09-09T08:51:45Z</time>
      </trkpt>
      <trkpt lat="42.425043" lon="8.898367">
        <ele>1235.8</ele>
        <time>2022-09-09T08:51:52Z</time>
      </trkpt>
      <trkpt lat="42.42504" lon="8.898317">
        <ele>1235.4</ele>
        <time>2022-09-09T08:51:55Z</time>
      </trkpt>
      <trkpt lat="42.424997" lon="8.89822">
        <ele>1234.0</ele>
        <time>2022-09-09T08:52:02Z</time>
      </trkpt>
      <trkpt lat="42.424917" lon="8.898097">
        <ele>1229.6</ele>
        <time>2022-09-09T08:52:29Z</time>
      </trkpt>
      <trkpt lat="42.424868" lon="8.89804">
        <ele>1224.4</ele>
        <time>2022-09-09T08:52:51Z</time>
      </trkpt>
      <trkpt lat="42.424837" lon="8.898078">
        <ele>1221.0</ele>
        <time>2022-09-09T08:53:13Z</time>
      </trkpt>
      <trkpt lat="42.42479" lon="8.898152">
        <ele>1220.2</ele>
        <time>2022-09-09T08:53:22Z</time>
      </trkpt>
      <trkpt lat="42.424782" lon="8.898162">
        <ele>1220.4</ele>
        <time>2022-09-09T08:53:23Z</time>
      </trkpt>
      <trkpt lat="42.424652" lon="8.898123">
        <ele>1219.0</ele>
        <time>2022-09-09T08:53:53Z</time>
      </trkpt>
      <trkpt lat="42.42459" lon="8.89814">
        <ele>1216.6</ele>
        <time>2022-09-09T08:54:13Z</time>
      </trkpt>
      <trkpt lat="42.424567" lon="8.898178">
        <ele>1214.0</ele>
        <time>2022-09-09T08:54:24Z</time>
      </trkpt>
      <trkpt lat="42.424517" lon="8.898175">
        <ele>1214.0</ele>
        <time>2022-09-09T08:54:39Z</time>
      </trkpt>
      <trkpt lat="42.424468" lon="8.898145">
        <ele>1215.6</ele>
        <time>2022-09-09T08:54:49Z</time>
      </trkpt>
      <trkpt lat="42.424377" lon="8.89807">
        <ele>1215.6</ele>
        <time>2022-09-09T08:55:08Z</time>
      </trkpt>
      <trkpt lat="42.424332" lon="8.898055">
        <ele>1215.8</ele>
        <time>2022-09-09T08:55:24Z</time>
      </trkpt>
      <trkpt lat="42.42431" lon="8.89804">
        <ele>1216.2</ele>
        <time>2022-09-09T08:55:36Z</time>
      </trkpt>
      <trkpt lat="42.424275" lon="8.897845">
        <ele>1214.6</ele>
        <time>2022-09-09T08:55:55Z</time>
      </trkpt>
      <trkpt lat="42.424213" lon="8.897795">
        <ele>1210.6</ele>
        <time>2022-09-09T08:58:03Z</time>
      </trkpt>
      <trkpt lat="42.424198" lon="8.897737">
        <ele>1211.6</ele>
        <time>2022-09-09T08:58:14Z</time>
      </trkpt>
      <trkpt lat="42.424147" lon="8.897692">
        <ele>1213.2</ele>
        <time>2022-09-09T08:58:29Z</time>
      </trkpt>
      <trkpt lat="42.424142" lon="8.897697">
        <ele>1213.4</ele>
        <time>2022-09-09T08:58:30Z</time>
      </trkpt>
      <trkpt lat="42.424155" lon="8.897693">
        <ele>1214.2</ele>
        <time>2022-09-09T08:58:36Z</time>
      </trkpt>
      <trkpt lat="42.42417" lon="8.897698">
        <ele>1214.6</ele>
        <time>2022-09-09T08:58:41Z</time>
      </trkpt>
      <trkpt lat="42.424187" lon="8.897692">
        <ele>1214.8</ele>
        <time>2022-09-09T08:58:45Z</time>
      </trkpt>
      <trkpt lat="42.42423" lon="8.897705">
        <ele>1217.8</ele>
        <time>2022-09-09T08:59:02Z</time>
      </trkpt>
      <trkpt lat="42.424233" lon="8.897705">
        <ele>1217.8</ele>
        <time>2022-09-09T08:59:03Z</time>
      </trkpt>
      <trkpt lat="42.424165" lon="8.897688">
        <ele>1219.6</ele>
        <time>2022-09-09T08:59:11Z</time>
      </trkpt>
      <trkpt lat="42.424092" lon="8.89764">
        <ele>1220.6</ele>
        <time>2022-09-09T08:59:20Z</time>
      </trkpt>
      <trkpt lat="42.42399" lon="8.897768">
        <ele>1223.8</ele>
        <time>2022-09-09T08:59:56Z</time>
      </trkpt>
      <trkpt lat="42.423988" lon="8.897775">
        <ele>1224.2</ele>
        <time>2022-09-09T08:59:58Z</time>
      </trkpt>
      <trkpt lat="42.423935" lon="8.897815">
        <ele>1224.6</ele>
        <time>2022-09-09T09:00:04Z</time>
      </trkpt>
      <trkpt lat="42.423847" lon="8.897808">
        <ele>1224.8</ele>
        <time>2022-09-09T09:00:10Z</time>
      </trkpt>
      <trkpt lat="42.423812" lon="8.897783">
        <ele>1225.6</ele>
        <time>2022-09-09T09:00:13Z</time>
      </trkpt>
      <trkpt lat="42.4238" lon="8.897745">
        <ele>1225.8</ele>
        <time>2022-09-09T09:00:16Z</time>
      </trkpt>
      <trkpt lat="42.423787" lon="8.89766">
        <ele>1227.4</ele>
        <time>2022-09-09T09:00:27Z</time>
      </trkpt>
      <trkpt lat="42.423778" lon="8.897648">
        <ele>1228.0</ele>
        <time>2022-09-09T09:00:29Z</time>
      </trkpt>
      <trkpt lat="42.42376" lon="8.897597">
        <ele>1229.0</ele>
        <time>2022-09-09T09:00:35Z</time>
      </trkpt>
      <trkpt lat="42.42372" lon="8.897465">
        <ele>1230.4</ele>
        <time>2022-09-09T09:00:48Z</time>
      </trkpt>
      <trkpt lat="42.423697" lon="8.897455">
        <ele>1230.6</ele>
        <time>2022-09-09T09:00:52Z</time>
      </trkpt>
      <trkpt lat="42.423633" lon="8.897448">
        <ele>1231.6</ele>
        <time>2022-09-09T09:01:10Z</time>
      </trkpt>
      <trkpt lat="42.423613" lon="8.897428">
        <ele>1232.6</ele>
        <time>2022-09-09T09:01:19Z</time>
      </trkpt>
      <trkpt lat="42.42361" lon="8.897463">
        <ele>1233.0</ele>
        <time>2022-09-09T09:01:26Z</time>
      </trkpt>
      <trkpt lat="42.423645" lon="8.897507">
        <ele>1234.2</ele>
        <time>2022-09-09T09:01:37Z</time>
      </trkpt>
      <trkpt lat="42.423645" lon="8.897552">
        <ele>1234.6</ele>
        <time>2022-09-09T09:01:51Z</time>
      </trkpt>
      <trkpt lat="42.423628" lon="8.897587">
        <ele>1235.2</ele>
        <time>2022-09-09T09:01:59Z</time>
      </trkpt>
      <trkpt lat="42.423597" lon="8.897637">
        <ele>1237.6</ele>
        <time>2022-09-09T09:02:11Z</time>
      </trkpt>
      <trkpt lat="42.423593" lon="8.897628">
        <ele>1237.6</ele>
        <time>2022-09-09T09:02:12Z</time>
      </trkpt>
      <trkpt lat="42.423578" lon="8.897582">
        <ele>1238.0</ele>
        <time>2022-09-09T09:02:17Z</time>
      </trkpt>
      <trkpt lat="42.423515" lon="8.897495">
        <ele>1240.4</ele>
        <time>2022-09-09T09:02:28Z</time>
      </trkpt>
      <trkpt lat="42.423487" lon="8.89748">
        <ele>1240.6</ele>
        <time>2022-09-09T09:02:32Z</time>
      </trkpt>
      <trkpt lat="42.423467" lon="8.897505">
        <ele>1241.0</ele>
        <time>2022-09-09T09:02:37Z</time>
      </trkpt>
      <trkpt lat="42.42344" lon="8.897538">
        <ele>1241.4</ele>
        <time>2022-09-09T09:02:42Z</time>
      </trkpt>
      <trkpt lat="42.423388" lon="8.897575">
        <ele>1241.0</ele>
        <time>2022-09-09T09:02:50Z</time>
      </trkpt>
      <trkpt lat="42.423373" lon="8.89763">
        <ele>1240.2</ele>
        <time>2022-09-09T09:02:56Z</time>
      </trkpt>
      <trkpt lat="42.423382" lon="8.89775">
        <ele>1239.2</ele>
        <time>2022-09-09T09:03:11Z</time>
      </trkpt>
      <trkpt lat="42.423385" lon="8.897755">
        <ele>1239.2</ele>
        <time>2022-09-09T09:03:12Z</time>
      </trkpt>
      <trkpt lat="42.423393" lon="8.897782">
        <ele>1239.4</ele>
        <time>2022-09-09T09:03:23Z</time>
      </trkpt>
      <trkpt lat="42.423448" lon="8.897837">
        <ele>1238.8</ele>
        <time>2022-09-09T09:03:35Z</time>
      </trkpt>
      <trkpt lat="42.423455" lon="8.897875">
        <ele>1239.0</ele>
        <time>2022-09-09T09:03:40Z</time>
      </trkpt>
      <trkpt lat="42.423445" lon="8.897903">
        <ele>1239.2</ele>
        <time>2022-09-09T09:03:45Z</time>
      </trkpt>
      <trkpt lat="42.423398" lon="8.897927">
        <ele>1242.4</ele>
        <time>2022-09-09T09:04:12Z</time>
      </trkpt>
      <trkpt lat="42.423275" lon="8.898007">
        <ele>1246.4</ele>
        <time>2022-09-09T09:04:49Z</time>
      </trkpt>
      <trkpt lat="42.423152" lon="8.898077">
        <ele>1247.4</ele>
        <time>2022-09-09T09:05:12Z</time>
      </trkpt>
      <trkpt lat="42.423125" lon="8.898088">
        <ele>1247.4</ele>
        <time>2022-09-09T09:05:16Z</time>
      </trkpt>
      <trkpt lat="42.423055" lon="8.898077">
        <ele>1248.0</ele>
        <time>2022-09-09T09:05:28Z</time>
      </trkpt>
      <trkpt lat="42.42301" lon="8.898093">
        <ele>1249.4</ele>
        <time>2022-09-09T09:05:36Z</time>
      </trkpt>
      <trkpt lat="42.42295" lon="8.898125">
        <ele>1251.6</ele>
        <time>2022-09-09T09:05:56Z</time>
      </trkpt>
      <trkpt lat="42.422953" lon="8.898205">
        <ele>1252.0</ele>
        <time>2022-09-09T09:06:03Z</time>
      </trkpt>
      <trkpt lat="42.422952" lon="8.898237">
        <ele>1252.0</ele>
        <time>2022-09-09T09:06:05Z</time>
      </trkpt>
      <trkpt lat="42.422942" lon="8.8983">
        <ele>1251.6</ele>
        <time>2022-09-09T09:06:10Z</time>
      </trkpt>
      <trkpt lat="42.42288" lon="8.898417">
        <ele>1251.8</ele>
        <time>2022-09-09T09:06:21Z</time>
      </trkpt>
      <trkpt lat="42.422857" lon="8.89845">
        <ele>1252.4</ele>
        <time>2022-09-09T09:06:25Z</time>
      </trkpt>
      <trkpt lat="42.422783" lon="8.898505">
        <ele>1252.8</ele>
        <time>2022-09-09T09:06:36Z</time>
      </trkpt>
      <trkpt lat="42.422718" lon="8.898553">
        <ele>1253.8</ele>
        <time>2022-09-09T09:06:49Z</time>
      </trkpt>
      <trkpt lat="42.422697" lon="8.898582">
        <ele>1253.4</ele>
        <time>2022-09-09T09:06:53Z</time>
      </trkpt>
      <trkpt lat="42.422633" lon="8.898507">
        <ele>1251.8</ele>
        <time>2022-09-09T09:07:35Z</time>
      </trkpt>
      <trkpt lat="42.422588" lon="8.898457">
        <ele>1252.2</ele>
        <time>2022-09-09T09:07:42Z</time>
      </trkpt>
      <trkpt lat="42.422575" lon="8.898407">
        <ele>1252.6</ele>
        <time>2022-09-09T09:07:59Z</time>
      </trkpt>
      <trkpt lat="42.422572" lon="8.898362">
        <ele>1251.4</ele>
        <time>2022-09-09T09:08:11Z</time>
      </trkpt>
      <trkpt lat="42.422545" lon="8.898347">
        <ele>1252.4</ele>
        <time>2022-09-09T09:08:26Z</time>
      </trkpt>
      <trkpt lat="42.422512" lon="8.898367">
        <ele>1252.6</ele>
        <time>2022-09-09T09:08:33Z</time>
      </trkpt>
      <trkpt lat="42.422477" lon="8.898362">
        <ele>1254.0</ele>
        <time>2022-09-09T09:08:41Z</time>
      </trkpt>
      <trkpt lat="42.422395" lon="8.89839">
        <ele>1259.2</ele>
        <time>2022-09-09T09:09:11Z</time>
      </trkpt>
      <trkpt lat="42.422363" lon="8.898397">
        <ele>1261.2</ele>
        <time>2022-09-09T09:09:24Z</time>
      </trkpt>
      <trkpt lat="42.422177" lon="8.89844">
        <ele>1269.6</ele>
        <time>2022-09-09T09:10:18Z</time>
      </trkpt>
      <trkpt lat="42.422183" lon="8.898443">
        <ele>1270.2</ele>
        <time>2022-09-09T09:10:19Z</time>
      </trkpt>
      <trkpt lat="42.422188" lon="8.898543">
        <ele>1272.8</ele>
        <time>2022-09-09T09:10:33Z</time>
      </trkpt>
      <trkpt lat="42.422162" lon="8.898593">
        <ele>1273.8</ele>
        <time>2022-09-09T09:10:42Z</time>
      </trkpt>
      <trkpt lat="42.422148" lon="8.898703">
        <ele>1275.4</ele>
        <time>2022-09-09T09:10:54Z</time>
      </trkpt>
      <trkpt lat="42.421957" lon="8.89874">
        <ele>1275.6</ele>
        <time>2022-09-09T09:11:12Z</time>
      </trkpt>
      <trkpt lat="42.421888" lon="8.898828">
        <ele>1277.0</ele>
        <time>2022-09-09T09:11:23Z</time>
      </trkpt>
      <trkpt lat="42.421778" lon="8.89886">
        <ele>1279.2</ele>
        <time>2022-09-09T09:11:47Z</time>
      </trkpt>
      <trkpt lat="42.421658" lon="8.898885">
        <ele>1288.4</ele>
        <time>2022-09-09T09:12:42Z</time>
      </trkpt>
      <trkpt lat="42.421632" lon="8.898753">
        <ele>1288.8</ele>
        <time>2022-09-09T09:12:51Z</time>
      </trkpt>
      <trkpt lat="42.421598" lon="8.898682">
        <ele>1290.4</ele>
        <time>2022-09-09T09:13:00Z</time>
      </trkpt>
      <trkpt lat="42.421535" lon="8.898702">
        <ele>1293.0</ele>
        <time>2022-09-09T09:13:15Z</time>
      </trkpt>
      <trkpt lat="42.421458" lon="8.89869">
        <ele>1293.6</ele>
        <time>2022-09-09T09:13:29Z</time>
      </trkpt>
      <trkpt lat="42.421385" lon="8.898783">
        <ele>1294.2</ele>
        <time>2022-09-09T09:13:36Z</time>
      </trkpt>
      <trkpt lat="42.421335" lon="8.898955">
        <ele>1294.8</ele>
        <time>2022-09-09T09:13:44Z</time>
      </trkpt>
      <trkpt lat="42.421272" lon="8.899092">
        <ele>1296.2</ele>
        <time>2022-09-09T09:13:53Z</time>
      </trkpt>
      <trkpt lat="42.421267" lon="8.899218">
        <ele>1297.8</ele>
        <time>2022-09-09T09:14:03Z</time>
      </trkpt>
      <trkpt lat="42.421237" lon="8.899227">
        <ele>1299.0</ele>
        <time>2022-09-09T09:14:15Z</time>
      </trkpt>
      <trkpt lat="42.42113" lon="8.899238">
        <ele>1301.0</ele>
        <time>2022-09-09T09:14:40Z</time>
      </trkpt>
      <trkpt lat="42.421033" lon="8.899245">
        <ele>1302.2</ele>
        <time>2022-09-09T09:14:54Z</time>
      </trkpt>
      <trkpt lat="42.421023" lon="8.89924">
        <ele>1302.8</ele>
        <time>2022-09-09T09:14:58Z</time>
      </trkpt>
      <trkpt lat="42.420835" lon="8.899445">
        <ele>1307.2</ele>
        <time>2022-09-09T09:15:39Z</time>
      </trkpt>
      <trkpt lat="42.420813" lon="8.899425">
        <ele>1307.6</ele>
        <time>2022-09-09T09:15:42Z</time>
      </trkpt>
      <trkpt lat="42.420758" lon="8.899302">
        <ele>1309.6</ele>
        <time>2022-09-09T09:15:55Z</time>
      </trkpt>
      <trkpt lat="42.420718" lon="8.899278">
        <ele>1309.8</ele>
        <time>2022-09-09T09:15:59Z</time>
      </trkpt>
      <trkpt lat="42.420672" lon="8.899285">
        <ele>1310.0</ele>
        <time>2022-09-09T09:16:04Z</time>
      </trkpt>
      <trkpt lat="42.420572" lon="8.899367">
        <ele>1310.2</ele>
        <time>2022-09-09T09:16:14Z</time>
      </trkpt>
      <trkpt lat="42.420563" lon="8.899362">
        <ele>1310.4</ele>
        <time>2022-09-09T09:16:15Z</time>
      </trkpt>
      <trkpt lat="42.420558" lon="8.899352">
        <ele>1310.4</ele>
        <time>2022-09-09T09:16:18Z</time>
      </trkpt>
      <trkpt lat="42.420568" lon="8.899308">
        <ele>1311.0</ele>
        <time>2022-09-09T09:16:23Z</time>
      </trkpt>
      <trkpt lat="42.420555" lon="8.899318">
        <ele>1311.4</ele>
        <time>2022-09-09T09:16:27Z</time>
      </trkpt>
      <trkpt lat="42.420543" lon="8.899358">
        <ele>1311.8</ele>
        <time>2022-09-09T09:16:35Z</time>
      </trkpt>
      <trkpt lat="42.42053" lon="8.899365">
        <ele>1311.8</ele>
        <time>2022-09-09T09:16:41Z</time>
      </trkpt>
      <trkpt lat="42.420518" lon="8.899412">
        <ele>1312.6</ele>
        <time>2022-09-09T09:16:49Z</time>
      </trkpt>
      <trkpt lat="42.420542" lon="8.899462">
        <ele>1313.4</ele>
        <time>2022-09-09T09:16:53Z</time>
      </trkpt>
      <trkpt lat="42.420675" lon="8.899552">
        <ele>1314.8</ele>
        <time>2022-09-09T09:17:10Z</time>
      </trkpt>
      <trkpt lat="42.420675" lon="8.899603">
        <ele>1315.2</ele>
        <time>2022-09-09T09:17:15Z</time>
      </trkpt>
      <trkpt lat="42.420668" lon="8.89967">
        <ele>1315.6</ele>
        <time>2022-09-09T09:17:20Z</time>
      </trkpt>
      <trkpt lat="42.42067" lon="8.899732">
        <ele>1316.0</ele>
        <time>2022-09-09T09:17:25Z</time>
      </trkpt>
      <trkpt lat="42.420673" lon="8.899757">
        <ele>1316.4</ele>
        <time>2022-09-09T09:17:27Z</time>
      </trkpt>
      <trkpt lat="42.420625" lon="8.899797">
        <ele>1318.0</ele>
        <time>2022-09-09T09:17:35Z</time>
      </trkpt>
      <trkpt lat="42.420612" lon="8.899808">
        <ele>1318.2</ele>
        <time>2022-09-09T09:17:37Z</time>
      </trkpt>
      <trkpt lat="42.420603" lon="8.899887">
        <ele>1320.6</ele>
        <time>2022-09-09T09:17:52Z</time>
      </trkpt>
      <trkpt lat="42.420588" lon="8.899992">
        <ele>1323.4</ele>
        <time>2022-09-09T09:18:08Z</time>
      </trkpt>
      <trkpt lat="42.420587" lon="8.9">
        <ele>1323.6</ele>
        <time>2022-09-09T09:18:09Z</time>
      </trkpt>
      <trkpt lat="42.420535" lon="8.900038">
        <ele>1325.4</ele>
        <time>2022-09-09T09:18:19Z</time>
      </trkpt>
      <trkpt lat="42.420502" lon="8.900045">
        <ele>1326.8</ele>
        <time>2022-09-09T09:18:24Z</time>
      </trkpt>
      <trkpt lat="42.420495" lon="8.899983">
        <ele>1327.8</ele>
        <time>2022-09-09T09:18:32Z</time>
      </trkpt>
      <trkpt lat="42.420488" lon="8.899955">
        <ele>1328.2</ele>
        <time>2022-09-09T09:18:36Z</time>
      </trkpt>
      <trkpt lat="42.420445" lon="8.899972">
        <ele>1329.8</ele>
        <time>2022-09-09T09:18:45Z</time>
      </trkpt>
      <trkpt lat="42.42039" lon="8.900018">
        <ele>1331.2</ele>
        <time>2022-09-09T09:18:55Z</time>
      </trkpt>
      <trkpt lat="42.420292" lon="8.900118">
        <ele>1334.4</ele>
        <time>2022-09-09T09:19:16Z</time>
      </trkpt>
      <trkpt lat="42.420288" lon="8.900122">
        <ele>1334.4</ele>
        <time>2022-09-09T09:19:17Z</time>
      </trkpt>
      <trkpt lat="42.420262" lon="8.900162">
        <ele>1335.4</ele>
        <time>2022-09-09T09:19:26Z</time>
      </trkpt>
      <trkpt lat="42.42022" lon="8.90019">
        <ele>1337.2</ele>
        <time>2022-09-09T09:19:36Z</time>
      </trkpt>
      <trkpt lat="42.42018" lon="8.900215">
        <ele>1339.4</ele>
        <time>2022-09-09T09:19:49Z</time>
      </trkpt>
      <trkpt lat="42.42013" lon="8.900243">
        <ele>1344.4</ele>
        <time>2022-09-09T09:20:13Z</time>
      </trkpt>
      <trkpt lat="42.420128" lon="8.900247">
        <ele>1344.4</ele>
        <time>2022-09-09T09:20:14Z</time>
      </trkpt>
      <trkpt lat="42.420157" lon="8.90029">
        <ele>1346.0</ele>
        <time>2022-09-09T09:20:22Z</time>
      </trkpt>
      <trkpt lat="42.42019" lon="8.900425">
        <ele>1350.8</ele>
        <time>2022-09-09T09:20:45Z</time>
      </trkpt>
      <trkpt lat="42.42019" lon="8.900485">
        <ele>1352.6</ele>
        <time>2022-09-09T09:20:55Z</time>
      </trkpt>
      <trkpt lat="42.420193" lon="8.90052">
        <ele>1353.6</ele>
        <time>2022-09-09T09:21:00Z</time>
      </trkpt>
      <trkpt lat="42.42011" lon="8.900572">
        <ele>1355.4</ele>
        <time>2022-09-09T09:21:22Z</time>
      </trkpt>
      <trkpt lat="42.420045" lon="8.900565">
        <ele>1357.0</ele>
        <time>2022-09-09T09:21:32Z</time>
      </trkpt>
      <trkpt lat="42.419912" lon="8.900722">
        <ele>1363.2</ele>
        <time>2022-09-09T09:22:00Z</time>
      </trkpt>
      <trkpt lat="42.419907" lon="8.900732">
        <ele>1363.8</ele>
        <time>2022-09-09T09:22:03Z</time>
      </trkpt>
      <trkpt lat="42.419923" lon="8.900775">
        <ele>1365.0</ele>
        <time>2022-09-09T09:22:13Z</time>
      </trkpt>
      <trkpt lat="42.419928" lon="8.90081">
        <ele>1367.2</ele>
        <time>2022-09-09T09:22:24Z</time>
      </trkpt>
      <trkpt lat="42.41992" lon="8.900862">
        <ele>1368.6</ele>
        <time>2022-09-09T09:22:34Z</time>
      </trkpt>
      <trkpt lat="42.419957" lon="8.900958">
        <ele>1371.0</ele>
        <time>2022-09-09T09:22:53Z</time>
      </trkpt>
      <trkpt lat="42.41995" lon="8.900958">
        <ele>1371.0</ele>
        <time>2022-09-09T09:22:55Z</time>
      </trkpt>
      <trkpt lat="42.419923" lon="8.900967">
        <ele>1371.4</ele>
        <time>2022-09-09T09:23:00Z</time>
      </trkpt>
      <trkpt lat="42.4199" lon="8.900997">
        <ele>1372.2</ele>
        <time>2022-09-09T09:23:09Z</time>
      </trkpt>
      <trkpt lat="42.41988" lon="8.901012">
        <ele>1373.8</ele>
        <time>2022-09-09T09:23:18Z</time>
      </trkpt>
      <trkpt lat="42.419833" lon="8.901037">
        <ele>1375.2</ele>
        <time>2022-09-09T09:23:29Z</time>
      </trkpt>
      <trkpt lat="42.419747" lon="8.901053">
        <ele>1379.8</ele>
        <time>2022-09-09T09:23:57Z</time>
      </trkpt>
      <trkpt lat="42.419745" lon="8.901058">
        <ele>1379.8</ele>
        <time>2022-09-09T09:23:58Z</time>
      </trkpt>
      <trkpt lat="42.419717" lon="8.901093">
        <ele>1381.4</ele>
        <time>2022-09-09T09:24:09Z</time>
      </trkpt>
      <trkpt lat="42.419657" lon="8.901237">
        <ele>1384.2</ele>
        <time>2022-09-09T09:24:30Z</time>
      </trkpt>
      <trkpt lat="42.419658" lon="8.901282">
        <ele>1384.6</ele>
        <time>2022-09-09T09:24:35Z</time>
      </trkpt>
      <trkpt lat="42.41968" lon="8.901332">
        <ele>1386.8</ele>
        <time>2022-09-09T09:24:52Z</time>
      </trkpt>
      <trkpt lat="42.419662" lon="8.901368">
        <ele>1387.8</ele>
        <time>2022-09-09T09:24:59Z</time>
      </trkpt>
      <trkpt lat="42.419698" lon="8.901452">
        <ele>1390.2</ele>
        <time>2022-09-09T09:25:15Z</time>
      </trkpt>
      <trkpt lat="42.419692" lon="8.901517">
        <ele>1391.0</ele>
        <time>2022-09-09T09:25:23Z</time>
      </trkpt>
      <trkpt lat="42.419693" lon="8.901525">
        <ele>1391.0</ele>
        <time>2022-09-09T09:25:24Z</time>
      </trkpt>
      <trkpt lat="42.419747" lon="8.901637">
        <ele>1393.4</ele>
        <time>2022-09-09T09:25:41Z</time>
      </trkpt>
      <trkpt lat="42.41975" lon="8.901695">
        <ele>1394.4</ele>
        <time>2022-09-09T09:25:49Z</time>
      </trkpt>
      <trkpt lat="42.41974" lon="8.901775">
        <ele>1395.6</ele>
        <time>2022-09-09T09:25:58Z</time>
      </trkpt>
      <trkpt lat="42.419757" lon="8.901808">
        <ele>1396.6</ele>
        <time>2022-09-09T09:26:02Z</time>
      </trkpt>
      <trkpt lat="42.419735" lon="8.901868">
        <ele>1397.0</ele>
        <time>2022-09-09T09:26:08Z</time>
      </trkpt>
      <trkpt lat="42.419683" lon="8.901857">
        <ele>1398.6</ele>
        <time>2022-09-09T09:26:19Z</time>
      </trkpt>
      <trkpt lat="42.419618" lon="8.90188">
        <ele>1401.2</ele>
        <time>2022-09-09T09:26:32Z</time>
      </trkpt>
      <trkpt lat="42.419553" lon="8.901818">
        <ele>1404.0</ele>
        <time>2022-09-09T09:26:50Z</time>
      </trkpt>
      <trkpt lat="42.41955" lon="8.901822">
        <ele>1404.0</ele>
        <time>2022-09-09T09:26:51Z</time>
      </trkpt>
      <trkpt lat="42.419525" lon="8.901877">
        <ele>1405.8</ele>
        <time>2022-09-09T09:27:00Z</time>
      </trkpt>
      <trkpt lat="42.419507" lon="8.901913">
        <ele>1407.2</ele>
        <time>2022-09-09T09:27:07Z</time>
      </trkpt>
      <trkpt lat="42.419485" lon="8.901955">
        <ele>1408.6</ele>
        <time>2022-09-09T09:27:14Z</time>
      </trkpt>
      <trkpt lat="42.41946" lon="8.902012">
        <ele>1409.8</ele>
        <time>2022-09-09T09:27:24Z</time>
      </trkpt>
      <trkpt lat="42.419412" lon="8.902017">
        <ele>1411.8</ele>
        <time>2022-09-09T09:27:35Z</time>
      </trkpt>
      <trkpt lat="42.4194" lon="8.902028">
        <ele>1412.2</ele>
        <time>2022-09-09T09:27:38Z</time>
      </trkpt>
      <trkpt lat="42.419357" lon="8.902035">
        <ele>1414.0</ele>
        <time>2022-09-09T09:27:53Z</time>
      </trkpt>
      <trkpt lat="42.41932" lon="8.902128">
        <ele>1416.0</ele>
        <time>2022-09-09T09:28:05Z</time>
      </trkpt>
      <trkpt lat="42.419257" lon="8.902092">
        <ele>1417.6</ele>
        <time>2022-09-09T09:28:15Z</time>
      </trkpt>
      <trkpt lat="42.419243" lon="8.90211">
        <ele>1418.2</ele>
        <time>2022-09-09T09:28:18Z</time>
      </trkpt>
      <trkpt lat="42.419297" lon="8.902125">
        <ele>1420.2</ele>
        <time>2022-09-09T09:28:27Z</time>
      </trkpt>
      <trkpt lat="42.419305" lon="8.902175">
        <ele>1420.6</ele>
        <time>2022-09-09T09:28:31Z</time>
      </trkpt>
      <trkpt lat="42.419333" lon="8.902218">
        <ele>1422.0</ele>
        <time>2022-09-09T09:28:41Z</time>
      </trkpt>
      <trkpt lat="42.41935" lon="8.902282">
        <ele>1422.8</ele>
        <time>2022-09-09T09:28:51Z</time>
      </trkpt>
      <trkpt lat="42.419427" lon="8.902367">
        <ele>1425.4</ele>
        <time>2022-09-09T09:29:10Z</time>
      </trkpt>
      <trkpt lat="42.419463" lon="8.902367">
        <ele>1426.8</ele>
        <time>2022-09-09T09:29:14Z</time>
      </trkpt>
      <trkpt lat="42.419483" lon="8.902445">
        <ele>1428.2</ele>
        <time>2022-09-09T09:29:25Z</time>
      </trkpt>
      <trkpt lat="42.419497" lon="8.902503">
        <ele>1429.4</ele>
        <time>2022-09-09T09:29:35Z</time>
      </trkpt>
      <trkpt lat="42.419538" lon="8.90261">
        <ele>1432.0</ele>
        <time>2022-09-09T09:29:50Z</time>
      </trkpt>
      <trkpt lat="42.41946" lon="8.902648">
        <ele>1432.8</ele>
        <time>2022-09-09T09:30:00Z</time>
      </trkpt>
      <trkpt lat="42.419408" lon="8.902707">
        <ele>1433.2</ele>
        <time>2022-09-09T09:30:06Z</time>
      </trkpt>
      <trkpt lat="42.41941" lon="8.902743">
        <ele>1434.2</ele>
        <time>2022-09-09T09:30:13Z</time>
      </trkpt>
      <trkpt lat="42.419412" lon="8.90275">
        <ele>1434.4</ele>
        <time>2022-09-09T09:30:15Z</time>
      </trkpt>
      <trkpt lat="42.419378" lon="8.902747">
        <ele>1435.6</ele>
        <time>2022-09-09T09:30:22Z</time>
      </trkpt>
      <trkpt lat="42.419322" lon="8.902733">
        <ele>1437.0</ele>
        <time>2022-09-09T09:30:30Z</time>
      </trkpt>
      <trkpt lat="42.419287" lon="8.902725">
        <ele>1437.2</ele>
        <time>2022-09-09T09:30:36Z</time>
      </trkpt>
      <trkpt lat="42.419222" lon="8.902777">
        <ele>1439.8</ele>
        <time>2022-09-09T09:30:48Z</time>
      </trkpt>
      <trkpt lat="42.419148" lon="8.90284">
        <ele>1441.4</ele>
        <time>2022-09-09T09:30:58Z</time>
      </trkpt>
      <trkpt lat="42.419107" lon="8.902837">
        <ele>1443.4</ele>
        <time>2022-09-09T09:31:07Z</time>
      </trkpt>
      <trkpt lat="42.419027" lon="8.902827">
        <ele>1446.2</ele>
        <time>2022-09-09T09:31:23Z</time>
      </trkpt>
      <trkpt lat="42.41901" lon="8.902837">
        <ele>1446.6</ele>
        <time>2022-09-09T09:31:27Z</time>
      </trkpt>
      <trkpt lat="42.418992" lon="8.902903">
        <ele>1447.8</ele>
        <time>2022-09-09T09:31:43Z</time>
      </trkpt>
      <trkpt lat="42.41897" lon="8.902942">
        <ele>1449.4</ele>
        <time>2022-09-09T09:31:52Z</time>
      </trkpt>
      <trkpt lat="42.418903" lon="8.90296">
        <ele>1449.8</ele>
        <time>2022-09-09T09:31:59Z</time>
      </trkpt>
      <trkpt lat="42.418885" lon="8.90298">
        <ele>1449.8</ele>
        <time>2022-09-09T09:32:01Z</time>
      </trkpt>
      <trkpt lat="42.418912" lon="8.903052">
        <ele>1450.8</ele>
        <time>2022-09-09T09:32:09Z</time>
      </trkpt>
      <trkpt lat="42.41894" lon="8.903118">
        <ele>1453.0</ele>
        <time>2022-09-09T09:32:28Z</time>
      </trkpt>
      <trkpt lat="42.418977" lon="8.903207">
        <ele>1454.4</ele>
        <time>2022-09-09T09:32:37Z</time>
      </trkpt>
      <trkpt lat="42.418998" lon="8.903257">
        <ele>1455.4</ele>
        <time>2022-09-09T09:32:42Z</time>
      </trkpt>
      <trkpt lat="42.418973" lon="8.903283">
        <ele>1455.8</ele>
        <time>2022-09-09T09:32:47Z</time>
      </trkpt>
      <trkpt lat="42.418965" lon="8.903363">
        <ele>1459.2</ele>
        <time>2022-09-09T09:32:59Z</time>
      </trkpt>
      <trkpt lat="42.418967" lon="8.903372">
        <ele>1459.6</ele>
        <time>2022-09-09T09:33:01Z</time>
      </trkpt>
      <trkpt lat="42.418963" lon="8.903368">
        <ele>1460.2</ele>
        <time>2022-09-09T09:33:07Z</time>
      </trkpt>
      <trkpt lat="42.418943" lon="8.903348">
        <ele>1460.4</ele>
        <time>2022-09-09T09:33:11Z</time>
      </trkpt>
      <trkpt lat="42.418907" lon="8.9033">
        <ele>1462.0</ele>
        <time>2022-09-09T09:33:24Z</time>
      </trkpt>
      <trkpt lat="42.418867" lon="8.903255">
        <ele>1463.4</ele>
        <time>2022-09-09T09:33:35Z</time>
      </trkpt>
      <trkpt lat="42.41881" lon="8.90324">
        <ele>1464.0</ele>
        <time>2022-09-09T09:33:43Z</time>
      </trkpt>
      <trkpt lat="42.41875" lon="8.903198">
        <ele>1465.4</ele>
        <time>2022-09-09T09:33:52Z</time>
      </trkpt>
      <trkpt lat="42.418735" lon="8.903177">
        <ele>1466.4</ele>
        <time>2022-09-09T09:34:03Z</time>
      </trkpt>
      <trkpt lat="42.41873" lon="8.903152">
        <ele>1467.4</ele>
        <time>2022-09-09T09:34:12Z</time>
      </trkpt>
      <trkpt lat="42.418718" lon="8.903165">
        <ele>1468.0</ele>
        <time>2022-09-09T09:34:18Z</time>
      </trkpt>
      <trkpt lat="42.418645" lon="8.903128">
        <ele>1469.8</ele>
        <time>2022-09-09T09:34:36Z</time>
      </trkpt>
      <trkpt lat="42.418612" lon="8.903073">
        <ele>1471.2</ele>
        <time>2022-09-09T09:34:47Z</time>
      </trkpt>
      <trkpt lat="42.418552" lon="8.903033">
        <ele>1472.4</ele>
        <time>2022-09-09T09:35:02Z</time>
      </trkpt>
      <trkpt lat="42.418522" lon="8.903023">
        <ele>1473.4</ele>
        <time>2022-09-09T09:35:10Z</time>
      </trkpt>
      <trkpt lat="42.418507" lon="8.903013">
        <ele>1474.4</ele>
        <time>2022-09-09T09:35:24Z</time>
      </trkpt>
      <trkpt lat="42.418455" lon="8.903008">
        <ele>1478.2</ele>
        <time>2022-09-09T09:35:42Z</time>
      </trkpt>
      <trkpt lat="42.418395" lon="8.902958">
        <ele>1481.0</ele>
        <time>2022-09-09T09:35:58Z</time>
      </trkpt>
      <trkpt lat="42.418373" lon="8.90292">
        <ele>1481.8</ele>
        <time>2022-09-09T09:36:02Z</time>
      </trkpt>
      <trkpt lat="42.418267" lon="8.902872">
        <ele>1483.2</ele>
        <time>2022-09-09T09:36:08Z</time>
      </trkpt>
      <trkpt lat="42.418232" lon="8.902892">
        <ele>1483.4</ele>
        <time>2022-09-09T09:36:10Z</time>
      </trkpt>
      <trkpt lat="42.41818" lon="8.902883">
        <ele>1484.6</ele>
        <time>2022-09-09T09:36:16Z</time>
      </trkpt>
      <trkpt lat="42.418152" lon="8.902828">
        <ele>1485.8</ele>
        <time>2022-09-09T09:36:24Z</time>
      </trkpt>
      <trkpt lat="42.418138" lon="8.902815">
        <ele>1486.6</ele>
        <time>2022-09-09T09:36:27Z</time>
      </trkpt>
      <trkpt lat="42.418092" lon="8.902808">
        <ele>1488.6</ele>
        <time>2022-09-09T09:36:36Z</time>
      </trkpt>
      <trkpt lat="42.41807" lon="8.90281">
        <ele>1489.0</ele>
        <time>2022-09-09T09:36:44Z</time>
      </trkpt>
      <trkpt lat="42.418072" lon="8.902808">
        <ele>1489.2</ele>
        <time>2022-09-09T09:36:46Z</time>
      </trkpt>
      <trkpt lat="42.418047" lon="8.902732">
        <ele>1490.4</ele>
        <time>2022-09-09T09:36:55Z</time>
      </trkpt>
      <trkpt lat="42.418005" lon="8.902698">
        <ele>1490.4</ele>
        <time>2022-09-09T09:37:07Z</time>
      </trkpt>
      <trkpt lat="42.418002" lon="8.902657">
        <ele>1491.2</ele>
        <time>2022-09-09T09:37:13Z</time>
      </trkpt>
      <trkpt lat="42.417943" lon="8.902553">
        <ele>1495.0</ele>
        <time>2022-09-09T09:37:52Z</time>
      </trkpt>
      <trkpt lat="42.417927" lon="8.902505">
        <ele>1495.0</ele>
        <time>2022-09-09T09:37:58Z</time>
      </trkpt>
      <trkpt lat="42.417925" lon="8.902498">
        <ele>1495.0</ele>
        <time>2022-09-09T09:37:59Z</time>
      </trkpt>
      <trkpt lat="42.417945" lon="8.902383">
        <ele>1495.8</ele>
        <time>2022-09-09T09:38:12Z</time>
      </trkpt>
      <trkpt lat="42.417908" lon="8.90242">
        <ele>1496.8</ele>
        <time>2022-09-09T09:38:22Z</time>
      </trkpt>
      <trkpt lat="42.41792" lon="8.902392">
        <ele>1497.8</ele>
        <time>2022-09-09T09:38:33Z</time>
      </trkpt>
      <trkpt lat="42.417915" lon="8.902403">
        <ele>1498.4</ele>
        <time>2022-09-09T09:38:52Z</time>
      </trkpt>
      <trkpt lat="42.417913" lon="8.902403">
        <ele>1498.4</ele>
        <time>2022-09-09T09:38:53Z</time>
      </trkpt>
      <trkpt lat="42.417885" lon="8.902387">
        <ele>1499.4</ele>
        <time>2022-09-09T09:39:00Z</time>
      </trkpt>
      <trkpt lat="42.417817" lon="8.902343">
        <ele>1502.4</ele>
        <time>2022-09-09T09:39:22Z</time>
      </trkpt>
      <trkpt lat="42.417812" lon="8.902347">
        <ele>1502.6</ele>
        <time>2022-09-09T09:39:24Z</time>
      </trkpt>
      <trkpt lat="42.41778" lon="8.902313">
        <ele>1503.8</ele>
        <time>2022-09-09T09:39:37Z</time>
      </trkpt>
      <trkpt lat="42.41776" lon="8.902292">
        <ele>1504.2</ele>
        <time>2022-09-09T09:39:41Z</time>
      </trkpt>
      <trkpt lat="42.417707" lon="8.90231">
        <ele>1505.2</ele>
        <time>2022-09-09T09:39:51Z</time>
      </trkpt>
      <trkpt lat="42.417672" lon="8.902285">
        <ele>1507.0</ele>
        <time>2022-09-09T09:40:10Z</time>
      </trkpt>
      <trkpt lat="42.417635" lon="8.90219">
        <ele>1508.2</ele>
        <time>2022-09-09T09:40:17Z</time>
      </trkpt>
      <trkpt lat="42.417615" lon="8.902092">
        <ele>1509.4</ele>
        <time>2022-09-09T09:40:23Z</time>
      </trkpt>
      <trkpt lat="42.417567" lon="8.901965">
        <ele>1512.4</ele>
        <time>2022-09-09T09:40:35Z</time>
      </trkpt>
      <trkpt lat="42.417618" lon="8.901855">
        <ele>1515.0</ele>
        <time>2022-09-09T09:40:56Z</time>
      </trkpt>
      <trkpt lat="42.417625" lon="8.901852">
        <ele>1515.0</ele>
        <time>2022-09-09T09:40:57Z</time>
      </trkpt>
      <trkpt lat="42.417712" lon="8.90189">
        <ele>1515.8</ele>
        <time>2022-09-09T09:41:05Z</time>
      </trkpt>
      <trkpt lat="42.417903" lon="8.901917">
        <ele>1517.8</ele>
        <time>2022-09-09T09:41:34Z</time>
      </trkpt>
      <trkpt lat="42.41791" lon="8.901852">
        <ele>1519.2</ele>
        <time>2022-09-09T09:41:43Z</time>
      </trkpt>
      <trkpt lat="42.41791" lon="8.901822">
        <ele>1520.6</ele>
        <time>2022-09-09T09:41:57Z</time>
      </trkpt>
      <trkpt lat="42.41785" lon="8.901772">
        <ele>1523.8</ele>
        <time>2022-09-09T09:42:22Z</time>
      </trkpt>
      <trkpt lat="42.417912" lon="8.901782">
        <ele>1524.6</ele>
        <time>2022-09-09T09:42:33Z</time>
      </trkpt>
      <trkpt lat="42.417935" lon="8.901743">
        <ele>1526.6</ele>
        <time>2022-09-09T09:42:55Z</time>
      </trkpt>
      <trkpt lat="42.417915" lon="8.9017">
        <ele>1527.8</ele>
        <time>2022-09-09T09:43:05Z</time>
      </trkpt>
      <trkpt lat="42.417903" lon="8.901698">
        <ele>1528.6</ele>
        <time>2022-09-09T09:43:09Z</time>
      </trkpt>
      <trkpt lat="42.417903" lon="8.901677">
        <ele>1529.6</ele>
        <time>2022-09-09T09:43:18Z</time>
      </trkpt>
      <trkpt lat="42.417915" lon="8.901587">
        <ele>1532.0</ele>
        <time>2022-09-09T09:43:32Z</time>
      </trkpt>
      <trkpt lat="42.417835" lon="8.901465">
        <ele>1535.0</ele>
        <time>2022-09-09T09:43:49Z</time>
      </trkpt>
      <trkpt lat="42.417832" lon="8.901453">
        <ele>1535.2</ele>
        <time>2022-09-09T09:43:50Z</time>
      </trkpt>
      <trkpt lat="42.417755" lon="8.901453">
        <ele>1536.4</ele>
        <time>2022-09-09T09:43:58Z</time>
      </trkpt>
      <trkpt lat="42.41771" lon="8.90143">
        <ele>1537.4</ele>
        <time>2022-09-09T09:44:05Z</time>
      </trkpt>
      <trkpt lat="42.41763" lon="8.901448">
        <ele>1540.2</ele>
        <time>2022-09-09T09:44:23Z</time>
      </trkpt>
      <trkpt lat="42.417635" lon="8.901418">
        <ele>1540.4</ele>
        <time>2022-09-09T09:44:29Z</time>
      </trkpt>
      <trkpt lat="42.41758" lon="8.90147">
        <ele>1542.4</ele>
        <time>2022-09-09T09:44:47Z</time>
      </trkpt>
      <trkpt lat="42.417552" lon="8.90146">
        <ele>1543.2</ele>
        <time>2022-09-09T09:44:55Z</time>
      </trkpt>
      <trkpt lat="42.417545" lon="8.901447">
        <ele>1543.8</ele>
        <time>2022-09-09T09:44:58Z</time>
      </trkpt>
      <trkpt lat="42.417532" lon="8.901412">
        <ele>1544.2</ele>
        <time>2022-09-09T09:45:02Z</time>
      </trkpt>
      <trkpt lat="42.417503" lon="8.901352">
        <ele>1544.6</ele>
        <time>2022-09-09T09:45:10Z</time>
      </trkpt>
      <trkpt lat="42.417502" lon="8.901298">
        <ele>1545.2</ele>
        <time>2022-09-09T09:45:17Z</time>
      </trkpt>
      <trkpt lat="42.41748" lon="8.901275">
        <ele>1546.0</ele>
        <time>2022-09-09T09:45:26Z</time>
      </trkpt>
      <trkpt lat="42.417477" lon="8.90126">
        <ele>1546.0</ele>
        <time>2022-09-09T09:45:29Z</time>
      </trkpt>
      <trkpt lat="42.41741" lon="8.901185">
        <ele>1548.4</ele>
        <time>2022-09-09T09:45:52Z</time>
      </trkpt>
      <trkpt lat="42.417392" lon="8.901168">
        <ele>1549.0</ele>
        <time>2022-09-09T09:45:59Z</time>
      </trkpt>
      <trkpt lat="42.417375" lon="8.901122">
        <ele>1550.2</ele>
        <time>2022-09-09T09:46:07Z</time>
      </trkpt>
      <trkpt lat="42.417372" lon="8.901">
        <ele>1552.2</ele>
        <time>2022-09-09T09:46:16Z</time>
      </trkpt>
      <trkpt lat="42.41735" lon="8.90096">
        <ele>1552.6</ele>
        <time>2022-09-09T09:46:20Z</time>
      </trkpt>
      <trkpt lat="42.41726" lon="8.900913">
        <ele>1555.2</ele>
        <time>2022-09-09T09:46:41Z</time>
      </trkpt>
      <trkpt lat="42.417257" lon="8.900912">
        <ele>1555.2</ele>
        <time>2022-09-09T09:46:43Z</time>
      </trkpt>
      <trkpt lat="42.41725" lon="8.90094">
        <ele>1556.0</ele>
        <time>2022-09-09T09:46:53Z</time>
      </trkpt>
      <trkpt lat="42.417298" lon="8.90104">
        <ele>1560.4</ele>
        <time>2022-09-09T09:47:27Z</time>
      </trkpt>
      <trkpt lat="42.417297" lon="8.901042">
        <ele>1560.8</ele>
        <time>2022-09-09T09:47:30Z</time>
      </trkpt>
      <trkpt lat="42.417285" lon="8.9011">
        <ele>1561.4</ele>
        <time>2022-09-09T09:47:50Z</time>
      </trkpt>
      <trkpt lat="42.417282" lon="8.9011">
        <ele>1562.2</ele>
        <time>2022-09-09T09:47:55Z</time>
      </trkpt>
      <trkpt lat="42.41727" lon="8.90112">
        <ele>1563.4</ele>
        <time>2022-09-09T09:48:01Z</time>
      </trkpt>
      <trkpt lat="42.417247" lon="8.901118">
        <ele>1563.0</ele>
        <time>2022-09-09T09:48:07Z</time>
      </trkpt>
      <trkpt lat="42.41723" lon="8.90109">
        <ele>1563.6</ele>
        <time>2022-09-09T09:48:14Z</time>
      </trkpt>
      <trkpt lat="42.41714" lon="8.901142">
        <ele>1567.2</ele>
        <time>2022-09-09T09:48:35Z</time>
      </trkpt>
      <trkpt lat="42.417078" lon="8.901205">
        <ele>1569.8</ele>
        <time>2022-09-09T09:48:53Z</time>
      </trkpt>
      <trkpt lat="42.417068" lon="8.901212">
        <ele>1570.4</ele>
        <time>2022-09-09T09:48:55Z</time>
      </trkpt>
      <trkpt lat="42.417037" lon="8.901258">
        <ele>1571.6</ele>
        <time>2022-09-09T09:49:10Z</time>
      </trkpt>
      <trkpt lat="42.41699" lon="8.901307">
        <ele>1573.2</ele>
        <time>2022-09-09T09:49:28Z</time>
      </trkpt>
      <trkpt lat="42.416955" lon="8.90132">
        <ele>1574.4</ele>
        <time>2022-09-09T09:49:35Z</time>
      </trkpt>
      <trkpt lat="42.416925" lon="8.901323">
        <ele>1575.4</ele>
        <time>2022-09-09T09:49:41Z</time>
      </trkpt>
      <trkpt lat="42.416895" lon="8.901362">
        <ele>1578.0</ele>
        <time>2022-09-09T09:49:57Z</time>
      </trkpt>
      <trkpt lat="42.41688" lon="8.901383">
        <ele>1578.6</ele>
        <time>2022-09-09T09:50:02Z</time>
      </trkpt>
      <trkpt lat="42.416848" lon="8.901405">
        <ele>1580.0</ele>
        <time>2022-09-09T09:50:17Z</time>
      </trkpt>
      <trkpt lat="42.416812" lon="8.901408">
        <ele>1580.8</ele>
        <time>2022-09-09T09:50:27Z</time>
      </trkpt>
      <trkpt lat="42.416812" lon="8.90125">
        <ele>1581.0</ele>
        <time>2022-09-09T09:50:39Z</time>
      </trkpt>
      <trkpt lat="42.416713" lon="8.90121">
        <ele>1585.4</ele>
        <time>2022-09-09T09:51:06Z</time>
      </trkpt>
      <trkpt lat="42.416708" lon="8.901207">
        <ele>1585.8</ele>
        <time>2022-09-09T09:51:07Z</time>
      </trkpt>
      <trkpt lat="42.416608" lon="8.901173">
        <ele>1587.4</ele>
        <time>2022-09-09T09:51:21Z</time>
      </trkpt>
      <trkpt lat="42.41657" lon="8.901158">
        <ele>1589.2</ele>
        <time>2022-09-09T09:51:33Z</time>
      </trkpt>
      <trkpt lat="42.416535" lon="8.901115">
        <ele>1591.2</ele>
        <time>2022-09-09T09:51:46Z</time>
      </trkpt>
      <trkpt lat="42.416515" lon="8.901093">
        <ele>1591.8</ele>
        <time>2022-09-09T09:51:51Z</time>
      </trkpt>
      <trkpt lat="42.416478" lon="8.901097">
        <ele>1593.6</ele>
        <time>2022-09-09T09:51:59Z</time>
      </trkpt>
      <trkpt lat="42.416477" lon="8.9011">
        <ele>1593.6</ele>
        <time>2022-09-09T09:52:00Z</time>
      </trkpt>
      <trkpt lat="42.416477" lon="8.901148">
        <ele>1594.4</ele>
        <time>2022-09-09T09:52:07Z</time>
      </trkpt>
      <trkpt lat="42.416445" lon="8.90119">
        <ele>1593.8</ele>
        <time>2022-09-09T09:52:16Z</time>
      </trkpt>
      <trkpt lat="42.416387" lon="8.901327">
        <ele>1595.0</ele>
        <time>2022-09-09T09:52:36Z</time>
      </trkpt>
      <trkpt lat="42.416387" lon="8.901333">
        <ele>1595.0</ele>
        <time>2022-09-09T09:52:37Z</time>
      </trkpt>
      <trkpt lat="42.416425" lon="8.90141">
        <ele>1597.0</ele>
        <time>2022-09-09T09:52:58Z</time>
      </trkpt>
      <trkpt lat="42.416425" lon="8.901417">
        <ele>1597.2</ele>
        <time>2022-09-09T09:52:59Z</time>
      </trkpt>
      <trkpt lat="42.416382" lon="8.901457">
        <ele>1596.4</ele>
        <time>2022-09-09T09:53:09Z</time>
      </trkpt>
      <trkpt lat="42.416308" lon="8.90155">
        <ele>1598.0</ele>
        <time>2022-09-09T09:53:24Z</time>
      </trkpt>
      <trkpt lat="42.416268" lon="8.901568">
        <ele>1598.6</ele>
        <time>2022-09-09T09:53:31Z</time>
      </trkpt>
      <trkpt lat="42.416233" lon="8.901573">
        <ele>1599.4</ele>
        <time>2022-09-09T09:53:37Z</time>
      </trkpt>
      <trkpt lat="42.416217" lon="8.901587">
        <ele>1600.2</ele>
        <time>2022-09-09T09:53:40Z</time>
      </trkpt>
      <trkpt lat="42.416198" lon="8.901622">
        <ele>1601.2</ele>
        <time>2022-09-09T09:53:47Z</time>
      </trkpt>
      <trkpt lat="42.416167" lon="8.901628">
        <ele>1602.4</ele>
        <time>2022-09-09T09:53:53Z</time>
      </trkpt>
      <trkpt lat="42.416157" lon="8.901627">
        <ele>1602.6</ele>
        <time>2022-09-09T09:53:55Z</time>
      </trkpt>
      <trkpt lat="42.416157" lon="8.901545">
        <ele>1604.2</ele>
        <time>2022-09-09T09:54:04Z</time>
      </trkpt>
      <trkpt lat="42.416145" lon="8.901515">
        <ele>1605.2</ele>
        <time>2022-09-09T09:54:10Z</time>
      </trkpt>
      <trkpt lat="42.41613" lon="8.901505">
        <ele>1607.8</ele>
        <time>2022-09-09T09:54:27Z</time>
      </trkpt>
      <trkpt lat="42.416112" lon="8.901533">
        <ele>1609.0</ele>
        <time>2022-09-09T09:54:38Z</time>
      </trkpt>
      <trkpt lat="42.416045" lon="8.901577">
        <ele>1611.4</ele>
        <time>2022-09-09T09:54:56Z</time>
      </trkpt>
      <trkpt lat="42.415987" lon="8.90165">
        <ele>1612.6</ele>
        <time>2022-09-09T09:55:17Z</time>
      </trkpt>
      <trkpt lat="42.41598" lon="8.901653">
        <ele>1612.6</ele>
        <time>2022-09-09T09:55:20Z</time>
      </trkpt>
      <trkpt lat="42.41598" lon="8.901693">
        <ele>1616.0</ele>
        <time>2022-09-09T09:55:36Z</time>
      </trkpt>
      <trkpt lat="42.416" lon="8.901747">
        <ele>1618.0</ele>
        <time>2022-09-09T09:55:49Z</time>
      </trkpt>
      <trkpt lat="42.416055" lon="8.901843">
        <ele>1618.2</ele>
        <time>2022-09-09T09:56:08Z</time>
      </trkpt>
      <trkpt lat="42.416137" lon="8.90188">
        <ele>1618.4</ele>
        <time>2022-09-09T09:56:18Z</time>
      </trkpt>
      <trkpt lat="42.41615" lon="8.901892">
        <ele>1618.8</ele>
        <time>2022-09-09T09:56:20Z</time>
      </trkpt>
      <trkpt lat="42.416172" lon="8.902">
        <ele>1617.4</ele>
        <time>2022-09-09T09:56:38Z</time>
      </trkpt>
      <trkpt lat="42.416202" lon="8.902098">
        <ele>1617.8</ele>
        <time>2022-09-09T09:56:52Z</time>
      </trkpt>
      <trkpt lat="42.416168" lon="8.90213">
        <ele>1618.0</ele>
        <time>2022-09-09T09:56:57Z</time>
      </trkpt>
      <trkpt lat="42.416147" lon="8.90218">
        <ele>1618.0</ele>
        <time>2022-09-09T09:57:01Z</time>
      </trkpt>
      <trkpt lat="42.416072" lon="8.902265">
        <ele>1617.4</ele>
        <time>2022-09-09T09:57:16Z</time>
      </trkpt>
      <trkpt lat="42.416033" lon="8.902355">
        <ele>1617.8</ele>
        <time>2022-09-09T09:57:32Z</time>
      </trkpt>
      <trkpt lat="42.416005" lon="8.902433">
        <ele>1618.6</ele>
        <time>2022-09-09T09:57:46Z</time>
      </trkpt>
      <trkpt lat="42.415952" lon="8.902458">
        <ele>1619.0</ele>
        <time>2022-09-09T09:57:59Z</time>
      </trkpt>
      <trkpt lat="42.415943" lon="8.902442">
        <ele>1619.0</ele>
        <time>2022-09-09T09:58:00Z</time>
      </trkpt>
      <trkpt lat="42.415915" lon="8.9024">
        <ele>1619.2</ele>
        <time>2022-09-09T09:58:03Z</time>
      </trkpt>
      <trkpt lat="42.415857" lon="8.90241">
        <ele>1619.6</ele>
        <time>2022-09-09T09:58:09Z</time>
      </trkpt>
      <trkpt lat="42.415747" lon="8.902613">
        <ele>1619.0</ele>
        <time>2022-09-09T09:58:33Z</time>
      </trkpt>
      <trkpt lat="42.41572" lon="8.902655">
        <ele>1618.2</ele>
        <time>2022-09-09T09:58:42Z</time>
      </trkpt>
      <trkpt lat="42.4157" lon="8.902705">
        <ele>1617.6</ele>
        <time>2022-09-09T09:58:48Z</time>
      </trkpt>
      <trkpt lat="42.415677" lon="8.902747">
        <ele>1617.6</ele>
        <time>2022-09-09T09:58:53Z</time>
      </trkpt>
      <trkpt lat="42.415678" lon="8.902773">
        <ele>1617.8</ele>
        <time>2022-09-09T09:58:58Z</time>
      </trkpt>
      <trkpt lat="42.415678" lon="8.902812">
        <ele>1617.4</ele>
        <time>2022-09-09T09:59:03Z</time>
      </trkpt>
      <trkpt lat="42.415737" lon="8.902888">
        <ele>1617.0</ele>
        <time>2022-09-09T09:59:16Z</time>
      </trkpt>
      <trkpt lat="42.415782" lon="8.902993">
        <ele>1614.8</ele>
        <time>2022-09-09T09:59:33Z</time>
      </trkpt>
      <trkpt lat="42.41579" lon="8.903038">
        <ele>1614.2</ele>
        <time>2022-09-09T09:59:40Z</time>
      </trkpt>
      <trkpt lat="42.4158" lon="8.9031">
        <ele>1613.4</ele>
        <time>2022-09-09T09:59:49Z</time>
      </trkpt>
      <trkpt lat="42.415812" lon="8.903158">
        <ele>1613.4</ele>
        <time>2022-09-09T09:59:56Z</time>
      </trkpt>
      <trkpt lat="42.415825" lon="8.903242">
        <ele>1613.2</ele>
        <time>2022-09-09T10:00:06Z</time>
      </trkpt>
      <trkpt lat="42.415855" lon="8.903337">
        <ele>1614.2</ele>
        <time>2022-09-09T10:00:19Z</time>
      </trkpt>
      <trkpt lat="42.415847" lon="8.903382">
        <ele>1614.0</ele>
        <time>2022-09-09T10:00:25Z</time>
      </trkpt>
      <trkpt lat="42.415843" lon="8.903425">
        <ele>1613.8</ele>
        <time>2022-09-09T10:00:31Z</time>
      </trkpt>
      <trkpt lat="42.415848" lon="8.903517">
        <ele>1613.2</ele>
        <time>2022-09-09T10:00:41Z</time>
      </trkpt>
      <trkpt lat="42.415852" lon="8.903612">
        <ele>1612.8</ele>
        <time>2022-09-09T10:00:53Z</time>
      </trkpt>
      <trkpt lat="42.415867" lon="8.903693">
        <ele>1613.0</ele>
        <time>2022-09-09T10:01:04Z</time>
      </trkpt>
      <trkpt lat="42.41587" lon="8.9037">
        <ele>1613.0</ele>
        <time>2022-09-09T10:01:05Z</time>
      </trkpt>
      <trkpt lat="42.4159" lon="8.903788">
        <ele>1614.8</ele>
        <time>2022-09-09T10:01:23Z</time>
      </trkpt>
      <trkpt lat="42.415907" lon="8.903822">
        <ele>1615.0</ele>
        <time>2022-09-09T10:01:31Z</time>
      </trkpt>
      <trkpt lat="42.41596" lon="8.90385">
        <ele>1617.2</ele>
        <time>2022-09-09T10:01:58Z</time>
      </trkpt>
      <trkpt lat="42.415987" lon="8.90387">
        <ele>1618.6</ele>
        <time>2022-09-09T10:02:10Z</time>
      </trkpt>
      <trkpt lat="42.416008" lon="8.903885">
        <ele>1620.4</ele>
        <time>2022-09-09T10:02:17Z</time>
      </trkpt>
      <trkpt lat="42.41602" lon="8.90391">
        <ele>1621.0</ele>
        <time>2022-09-09T10:02:22Z</time>
      </trkpt>
      <trkpt lat="42.415997" lon="8.90393">
        <ele>1621.0</ele>
        <time>2022-09-09T10:02:26Z</time>
      </trkpt>
      <trkpt lat="42.415975" lon="8.903942">
        <ele>1621.0</ele>
        <time>2022-09-09T10:02:29Z</time>
      </trkpt>
      <trkpt lat="42.415943" lon="8.90409">
        <ele>1623.6</ele>
        <time>2022-09-09T10:02:52Z</time>
      </trkpt>
      <trkpt lat="42.415948" lon="8.904108">
        <ele>1624.4</ele>
        <time>2022-09-09T10:02:57Z</time>
      </trkpt>
      <trkpt lat="42.415838" lon="8.904167">
        <ele>1631.8</ele>
        <time>2022-09-09T10:03:56Z</time>
      </trkpt>
      <trkpt lat="42.415767" lon="8.904178">
        <ele>1635.4</ele>
        <time>2022-09-09T10:04:24Z</time>
      </trkpt>
      <trkpt lat="42.415715" lon="8.9041">
        <ele>1638.2</ele>
        <time>2022-09-09T10:04:50Z</time>
      </trkpt>
      <trkpt lat="42.415702" lon="8.904095">
        <ele>1638.8</ele>
        <time>2022-09-09T10:04:56Z</time>
      </trkpt>
      <trkpt lat="42.41568" lon="8.904105">
        <ele>1639.4</ele>
        <time>2022-09-09T10:05:02Z</time>
      </trkpt>
      <trkpt lat="42.415668" lon="8.904168">
        <ele>1640.8</ele>
        <time>2022-09-09T10:05:13Z</time>
      </trkpt>
      <trkpt lat="42.415667" lon="8.904172">
        <ele>1640.8</ele>
        <time>2022-09-09T10:05:14Z</time>
      </trkpt>
      <trkpt lat="42.41569" lon="8.904252">
        <ele>1645.0</ele>
        <time>2022-09-09T10:05:44Z</time>
      </trkpt>
      <trkpt lat="42.415668" lon="8.904318">
        <ele>1646.2</ele>
        <time>2022-09-09T10:05:55Z</time>
      </trkpt>
      <trkpt lat="42.415662" lon="8.904318">
        <ele>1646.2</ele>
        <time>2022-09-09T10:05:56Z</time>
      </trkpt>
      <trkpt lat="42.415617" lon="8.90432">
        <ele>1647.8</ele>
        <time>2022-09-09T10:06:03Z</time>
      </trkpt>
      <trkpt lat="42.415593" lon="8.904342">
        <ele>1648.6</ele>
        <time>2022-09-09T10:06:07Z</time>
      </trkpt>
      <trkpt lat="42.415572" lon="8.904372">
        <ele>1650.0</ele>
        <time>2022-09-09T10:06:17Z</time>
      </trkpt>
      <trkpt lat="42.415493" lon="8.904412">
        <ele>1653.0</ele>
        <time>2022-09-09T10:06:40Z</time>
      </trkpt>
      <trkpt lat="42.415487" lon="8.90444">
        <ele>1656.0</ele>
        <time>2022-09-09T10:06:54Z</time>
      </trkpt>
      <trkpt lat="42.415403" lon="8.904505">
        <ele>1658.6</ele>
        <time>2022-09-09T10:07:19Z</time>
      </trkpt>
      <trkpt lat="42.415398" lon="8.90451">
        <ele>1659.0</ele>
        <time>2022-09-09T10:07:21Z</time>
      </trkpt>
      <trkpt lat="42.41533" lon="8.904597">
        <ele>1661.0</ele>
        <time>2022-09-09T10:07:32Z</time>
      </trkpt>
      <trkpt lat="42.415315" lon="8.90464">
        <ele>1664.8</ele>
        <time>2022-09-09T10:07:58Z</time>
      </trkpt>
      <trkpt lat="42.415242" lon="8.904705">
        <ele>1666.2</ele>
        <time>2022-09-09T10:08:08Z</time>
      </trkpt>
      <trkpt lat="42.415178" lon="8.904753">
        <ele>1667.2</ele>
        <time>2022-09-09T10:08:15Z</time>
      </trkpt>
      <trkpt lat="42.415127" lon="8.904845">
        <ele>1668.4</ele>
        <time>2022-09-09T10:08:21Z</time>
      </trkpt>
      <trkpt lat="42.415062" lon="8.904925">
        <ele>1669.6</ele>
        <time>2022-09-09T10:08:29Z</time>
      </trkpt>
      <trkpt lat="42.415038" lon="8.904993">
        <ele>1670.8</ele>
        <time>2022-09-09T10:08:35Z</time>
      </trkpt>
      <trkpt lat="42.41504" lon="8.90507">
        <ele>1674.2</ele>
        <time>2022-09-09T10:09:05Z</time>
      </trkpt>
      <trkpt lat="42.41501" lon="8.9051">
        <ele>1679.6</ele>
        <time>2022-09-09T10:09:36Z</time>
      </trkpt>
      <trkpt lat="42.414967" lon="8.905118">
        <ele>1680.8</ele>
        <time>2022-09-09T10:09:53Z</time>
      </trkpt>
      <trkpt lat="42.414847" lon="8.905152">
        <ele>1683.0</ele>
        <time>2022-09-09T10:10:35Z</time>
      </trkpt>
      <trkpt lat="42.41486" lon="8.905148">
        <ele>1685.6</ele>
        <time>2022-09-09T10:10:57Z</time>
      </trkpt>
      <trkpt lat="42.414878" lon="8.905158">
        <ele>1686.2</ele>
        <time>2022-09-09T10:11:01Z</time>
      </trkpt>
      <trkpt lat="42.415038" lon="8.904942">
        <ele>1690.2</ele>
        <time>2022-09-09T10:11:58Z</time>
      </trkpt>
      <trkpt lat="42.414935" lon="8.904977">
        <ele>1694.4</ele>
        <time>2022-09-09T10:13:00Z</time>
      </trkpt>
      <trkpt lat="42.414862" lon="8.904835">
        <ele>1695.4</ele>
        <time>2022-09-09T10:13:16Z</time>
      </trkpt>
      <trkpt lat="42.414827" lon="8.904808">
        <ele>1697.4</ele>
        <time>2022-09-09T10:13:29Z</time>
      </trkpt>
      <trkpt lat="42.414815" lon="8.904795">
        <ele>1697.8</ele>
        <time>2022-09-09T10:13:34Z</time>
      </trkpt>
      <trkpt lat="42.41478" lon="8.904887">
        <ele>1700.8</ele>
        <time>2022-09-09T10:13:52Z</time>
      </trkpt>
      <trkpt lat="42.414755" lon="8.904922">
        <ele>1701.8</ele>
        <time>2022-09-09T10:13:59Z</time>
      </trkpt>
      <trkpt lat="42.414728" lon="8.904987">
        <ele>1703.4</ele>
        <time>2022-09-09T10:14:10Z</time>
      </trkpt>
      <trkpt lat="42.414767" lon="8.905137">
        <ele>1703.8</ele>
        <time>2022-09-09T10:14:18Z</time>
      </trkpt>
      <trkpt lat="42.414737" lon="8.90521">
        <ele>1704.4</ele>
        <time>2022-09-09T10:14:24Z</time>
      </trkpt>
      <trkpt lat="42.414718" lon="8.90531">
        <ele>1707.0</ele>
        <time>2022-09-09T10:14:47Z</time>
      </trkpt>
      <trkpt lat="42.414697" lon="8.905378">
        <ele>1709.8</ele>
        <time>2022-09-09T10:15:05Z</time>
      </trkpt>
      <trkpt lat="42.414633" lon="8.905432">
        <ele>1710.8</ele>
        <time>2022-09-09T10:15:23Z</time>
      </trkpt>
      <trkpt lat="42.414615" lon="8.905447">
        <ele>1710.8</ele>
        <time>2022-09-09T10:15:26Z</time>
      </trkpt>
      <trkpt lat="42.414597" lon="8.905475">
        <ele>1711.2</ele>
        <time>2022-09-09T10:15:34Z</time>
      </trkpt>
      <trkpt lat="42.414572" lon="8.905508">
        <ele>1711.8</ele>
        <time>2022-09-09T10:15:45Z</time>
      </trkpt>
      <trkpt lat="42.414615" lon="8.905527">
        <ele>1716.0</ele>
        <time>2022-09-09T10:16:15Z</time>
      </trkpt>
      <trkpt lat="42.414627" lon="8.90553">
        <ele>1716.4</ele>
        <time>2022-09-09T10:16:19Z</time>
      </trkpt>
      <trkpt lat="42.414625" lon="8.905532">
        <ele>1716.8</ele>
        <time>2022-09-09T10:16:20Z</time>
      </trkpt>
      <trkpt lat="42.41457" lon="8.90552">
        <ele>1718.2</ele>
        <time>2022-09-09T10:16:29Z</time>
      </trkpt>
      <trkpt lat="42.414557" lon="8.90551">
        <ele>1719.2</ele>
        <time>2022-09-09T10:16:33Z</time>
      </trkpt>
      <trkpt lat="42.41451" lon="8.90541">
        <ele>1722.4</ele>
        <time>2022-09-09T10:16:49Z</time>
      </trkpt>
      <trkpt lat="42.414482" lon="8.90529">
        <ele>1724.0</ele>
        <time>2022-09-09T10:17:03Z</time>
      </trkpt>
      <trkpt lat="42.414473" lon="8.905255">
        <ele>1724.8</ele>
        <time>2022-09-09T10:17:06Z</time>
      </trkpt>
      <trkpt lat="42.414462" lon="8.905248">
        <ele>1724.8</ele>
        <time>2022-09-09T10:17:08Z</time>
      </trkpt>
      <trkpt lat="42.4144" lon="8.905297">
        <ele>1727.2</ele>
        <time>2022-09-09T10:17:30Z</time>
      </trkpt>
      <trkpt lat="42.414367" lon="8.905412">
        <ele>1730.0</ele>
        <time>2022-09-09T10:17:54Z</time>
      </trkpt>
      <trkpt lat="42.414305" lon="8.90543">
        <ele>1731.6</ele>
        <time>2022-09-09T10:18:09Z</time>
      </trkpt>
      <trkpt lat="42.4143" lon="8.90543">
        <ele>1731.6</ele>
        <time>2022-09-09T10:18:10Z</time>
      </trkpt>
      <trkpt lat="42.414238" lon="8.905457">
        <ele>1732.8</ele>
        <time>2022-09-09T10:18:22Z</time>
      </trkpt>
      <trkpt lat="42.414212" lon="8.905477">
        <ele>1734.4</ele>
        <time>2022-09-09T10:18:29Z</time>
      </trkpt>
      <trkpt lat="42.414182" lon="8.905502">
        <ele>1736.6</ele>
        <time>2022-09-09T10:18:48Z</time>
      </trkpt>
      <trkpt lat="42.414147" lon="8.905542">
        <ele>1739.4</ele>
        <time>2022-09-09T10:19:07Z</time>
      </trkpt>
      <trkpt lat="42.414143" lon="8.905603">
        <ele>1740.2</ele>
        <time>2022-09-09T10:19:15Z</time>
      </trkpt>
      <trkpt lat="42.414138" lon="8.90561">
        <ele>1740.4</ele>
        <time>2022-09-09T10:19:16Z</time>
      </trkpt>
      <trkpt lat="42.414115" lon="8.905667">
        <ele>1741.6</ele>
        <time>2022-09-09T10:19:25Z</time>
      </trkpt>
      <trkpt lat="42.414125" lon="8.905727">
        <ele>1743.2</ele>
        <time>2022-09-09T10:19:38Z</time>
      </trkpt>
      <trkpt lat="42.414135" lon="8.905772">
        <ele>1744.2</ele>
        <time>2022-09-09T10:19:44Z</time>
      </trkpt>
      <trkpt lat="42.414108" lon="8.905797">
        <ele>1745.4</ele>
        <time>2022-09-09T10:19:50Z</time>
      </trkpt>
      <trkpt lat="42.414168" lon="8.905802">
        <ele>1747.4</ele>
        <time>2022-09-09T10:20:00Z</time>
      </trkpt>
      <trkpt lat="42.41419" lon="8.905813">
        <ele>1751.2</ele>
        <time>2022-09-09T10:20:23Z</time>
      </trkpt>
      <trkpt lat="42.414207" lon="8.905822">
        <ele>1753.0</ele>
        <time>2022-09-09T10:20:37Z</time>
      </trkpt>
      <trkpt lat="42.414235" lon="8.905873">
        <ele>1754.4</ele>
        <time>2022-09-09T10:20:44Z</time>
      </trkpt>
      <trkpt lat="42.414207" lon="8.905955">
        <ele>1757.0</ele>
        <time>2022-09-09T10:21:05Z</time>
      </trkpt>
      <trkpt lat="42.414195" lon="8.905915">
        <ele>1758.4</ele>
        <time>2022-09-09T10:21:13Z</time>
      </trkpt>
      <trkpt lat="42.414143" lon="8.905922">
        <ele>1758.8</ele>
        <time>2022-09-09T10:21:23Z</time>
      </trkpt>
      <trkpt lat="42.414107" lon="8.905932">
        <ele>1759.0</ele>
        <time>2022-09-09T10:21:27Z</time>
      </trkpt>
      <trkpt lat="42.414028" lon="8.90584">
        <ele>1760.4</ele>
        <time>2022-09-09T10:21:39Z</time>
      </trkpt>
      <trkpt lat="42.414018" lon="8.905833">
        <ele>1760.4</ele>
        <time>2022-09-09T10:21:40Z</time>
      </trkpt>
      <trkpt lat="42.414048" lon="8.905888">
        <ele>1761.8</ele>
        <time>2022-09-09T10:21:49Z</time>
      </trkpt>
      <trkpt lat="42.414082" lon="8.905872">
        <ele>1764.0</ele>
        <time>2022-09-09T10:22:07Z</time>
      </trkpt>
      <trkpt lat="42.414115" lon="8.90589">
        <ele>1766.4</ele>
        <time>2022-09-09T10:22:20Z</time>
      </trkpt>
      <trkpt lat="42.414135" lon="8.905902">
        <ele>1767.0</ele>
        <time>2022-09-09T10:22:24Z</time>
      </trkpt>
      <trkpt lat="42.414153" lon="8.90593">
        <ele>1767.4</ele>
        <time>2022-09-09T10:22:29Z</time>
      </trkpt>
      <trkpt lat="42.414153" lon="8.905957">
        <ele>1767.8</ele>
        <time>2022-09-09T10:22:34Z</time>
      </trkpt>
      <trkpt lat="42.414127" lon="8.905963">
        <ele>1768.6</ele>
        <time>2022-09-09T10:22:43Z</time>
      </trkpt>
      <trkpt lat="42.413872" lon="8.90618">
        <ele>1782.8</ele>
        <time>2022-09-09T10:25:19Z</time>
      </trkpt>
      <trkpt lat="42.41387" lon="8.906182">
        <ele>1782.8</ele>
        <time>2022-09-09T10:25:20Z</time>
      </trkpt>
      <trkpt lat="42.413885" lon="8.906208">
        <ele>1784.8</ele>
        <time>2022-09-09T10:25:34Z</time>
      </trkpt>
      <trkpt lat="42.41383" lon="8.906267">
        <ele>1786.4</ele>
        <time>2022-09-09T10:25:47Z</time>
      </trkpt>
      <trkpt lat="42.413828" lon="8.906305">
        <ele>1787.4</ele>
        <time>2022-09-09T10:25:53Z</time>
      </trkpt>
      <trkpt lat="42.413862" lon="8.90637">
        <ele>1791.4</ele>
        <time>2022-09-09T10:26:40Z</time>
      </trkpt>
      <trkpt lat="42.413867" lon="8.906395">
        <ele>1791.8</ele>
        <time>2022-09-09T10:26:48Z</time>
      </trkpt>
      <trkpt lat="42.41394" lon="8.906418">
        <ele>1793.8</ele>
        <time>2022-09-09T10:26:59Z</time>
      </trkpt>
      <trkpt lat="42.413945" lon="8.906423">
        <ele>1793.8</ele>
        <time>2022-09-09T10:27:00Z</time>
      </trkpt>
      <trkpt lat="42.413995" lon="8.906408">
        <ele>1793.0</ele>
        <time>2022-09-09T10:27:07Z</time>
      </trkpt>
      <trkpt lat="42.414037" lon="8.906417">
        <ele>1792.8</ele>
        <time>2022-09-09T10:27:13Z</time>
      </trkpt>
      <trkpt lat="42.414105" lon="8.906463">
        <ele>1794.8</ele>
        <time>2022-09-09T10:27:25Z</time>
      </trkpt>
      <trkpt lat="42.414088" lon="8.906508">
        <ele>1795.8</ele>
        <time>2022-09-09T10:27:33Z</time>
      </trkpt>
      <trkpt lat="42.414063" lon="8.906525">
        <ele>1796.4</ele>
        <time>2022-09-09T10:27:37Z</time>
      </trkpt>
      <trkpt lat="42.413985" lon="8.9065">
        <ele>1798.6</ele>
        <time>2022-09-09T10:27:56Z</time>
      </trkpt>
      <trkpt lat="42.413967" lon="8.906572">
        <ele>1801.0</ele>
        <time>2022-09-09T10:28:09Z</time>
      </trkpt>
      <trkpt lat="42.413965" lon="8.906622">
        <ele>1806.8</ele>
        <time>2022-09-09T10:28:45Z</time>
      </trkpt>
      <trkpt lat="42.413957" lon="8.906685">
        <ele>1807.0</ele>
        <time>2022-09-09T10:28:52Z</time>
      </trkpt>
      <trkpt lat="42.41395" lon="8.90675">
        <ele>1807.2</ele>
        <time>2022-09-09T10:28:58Z</time>
      </trkpt>
      <trkpt lat="42.413925" lon="8.906843">
        <ele>1807.4</ele>
        <time>2022-09-09T10:29:12Z</time>
      </trkpt>
      <trkpt lat="42.413908" lon="8.906945">
        <ele>1808.6</ele>
        <time>2022-09-09T10:29:23Z</time>
      </trkpt>
      <trkpt lat="42.413788" lon="8.906878">
        <ele>1815.6</ele>
        <time>2022-09-09T10:34:24Z</time>
      </trkpt>
      <trkpt lat="42.41377" lon="8.906875">
        <ele>1815.6</ele>
        <time>2022-09-09T10:34:29Z</time>
      </trkpt>
      <trkpt lat="42.413652" lon="8.90688">
        <ele>1819.0</ele>
        <time>2022-09-09T10:34:56Z</time>
      </trkpt>
      <trkpt lat="42.413615" lon="8.906858">
        <ele>1820.2</ele>
        <time>2022-09-09T10:35:06Z</time>
      </trkpt>
      <trkpt lat="42.41361" lon="8.906777">
        <ele>1822.4</ele>
        <time>2022-09-09T10:35:19Z</time>
      </trkpt>
      <trkpt lat="42.41357" lon="8.906718">
        <ele>1824.4</ele>
        <time>2022-09-09T10:35:27Z</time>
      </trkpt>
      <trkpt lat="42.413562" lon="8.906713">
        <ele>1824.2</ele>
        <time>2022-09-09T10:35:28Z</time>
      </trkpt>
      <trkpt lat="42.413558" lon="8.906858">
        <ele>1824.4</ele>
        <time>2022-09-09T10:35:42Z</time>
      </trkpt>
      <trkpt lat="42.413567" lon="8.90694">
        <ele>1825.8</ele>
        <time>2022-09-09T10:35:51Z</time>
      </trkpt>
      <trkpt lat="42.413562" lon="8.907003">
        <ele>1828.2</ele>
        <time>2022-09-09T10:36:02Z</time>
      </trkpt>
      <trkpt lat="42.413573" lon="8.90709">
        <ele>1831.6</ele>
        <time>2022-09-09T10:36:27Z</time>
      </trkpt>
      <trkpt lat="42.413583" lon="8.907145">
        <ele>1832.4</ele>
        <time>2022-09-09T10:36:31Z</time>
      </trkpt>
      <trkpt lat="42.413612" lon="8.907163">
        <ele>1832.8</ele>
        <time>2022-09-09T10:36:35Z</time>
      </trkpt>
      <trkpt lat="42.413642" lon="8.907173">
        <ele>1833.8</ele>
        <time>2022-09-09T10:36:47Z</time>
      </trkpt>
      <trkpt lat="42.413648" lon="8.90718">
        <ele>1833.8</ele>
        <time>2022-09-09T10:36:49Z</time>
      </trkpt>
      <trkpt lat="42.41369" lon="8.90715">
        <ele>1834.4</ele>
        <time>2022-09-09T10:37:00Z</time>
      </trkpt>
      <trkpt lat="42.41369" lon="8.907177">
        <ele>1836.0</ele>
        <time>2022-09-09T10:37:22Z</time>
      </trkpt>
      <trkpt lat="42.413675" lon="8.907218">
        <ele>1836.8</ele>
        <time>2022-09-09T10:37:29Z</time>
      </trkpt>
      <trkpt lat="42.413655" lon="8.90721">
        <ele>1837.4</ele>
        <time>2022-09-09T10:37:34Z</time>
      </trkpt>
      <trkpt lat="42.413623" lon="8.907253">
        <ele>1838.0</ele>
        <time>2022-09-09T10:37:39Z</time>
      </trkpt>
      <trkpt lat="42.413573" lon="8.907277">
        <ele>1838.6</ele>
        <time>2022-09-09T10:37:46Z</time>
      </trkpt>
      <trkpt lat="42.413498" lon="8.907232">
        <ele>1841.8</ele>
        <time>2022-09-09T10:38:08Z</time>
      </trkpt>
      <trkpt lat="42.41349" lon="8.907245">
        <ele>1842.6</ele>
        <time>2022-09-09T10:38:13Z</time>
      </trkpt>
      <trkpt lat="42.41348" lon="8.907308">
        <ele>1844.4</ele>
        <time>2022-09-09T10:38:29Z</time>
      </trkpt>
      <trkpt lat="42.413427" lon="8.907338">
        <ele>1846.4</ele>
        <time>2022-09-09T10:38:44Z</time>
      </trkpt>
      <trkpt lat="42.413423" lon="8.907342">
        <ele>1846.6</ele>
        <time>2022-09-09T10:38:45Z</time>
      </trkpt>
      <trkpt lat="42.413518" lon="8.907398">
        <ele>1848.0</ele>
        <time>2022-09-09T10:38:57Z</time>
      </trkpt>
      <trkpt lat="42.413627" lon="8.907527">
        <ele>1849.0</ele>
        <time>2022-09-09T10:39:13Z</time>
      </trkpt>
      <trkpt lat="42.413797" lon="8.907615">
        <ele>1846.6</ele>
        <time>2022-09-09T10:39:42Z</time>
      </trkpt>
      <trkpt lat="42.413825" lon="8.90775">
        <ele>1848.4</ele>
        <time>2022-09-09T10:42:05Z</time>
      </trkpt>
      <trkpt lat="42.41381" lon="8.907818">
        <ele>1848.6</ele>
        <time>2022-09-09T10:42:17Z</time>
      </trkpt>
      <trkpt lat="42.413817" lon="8.90784">
        <ele>1848.6</ele>
        <time>2022-09-09T10:42:20Z</time>
      </trkpt>
      <trkpt lat="42.413785" lon="8.907883">
        <ele>1850.0</ele>
        <time>2022-09-09T10:42:30Z</time>
      </trkpt>
      <trkpt lat="42.41377" lon="8.907915">
        <ele>1850.6</ele>
        <time>2022-09-09T10:42:37Z</time>
      </trkpt>
      <trkpt lat="42.413762" lon="8.907922">
        <ele>1850.6</ele>
        <time>2022-09-09T10:42:39Z</time>
      </trkpt>
      <trkpt lat="42.41369" lon="8.907945">
        <ele>1852.2</ele>
        <time>2022-09-09T10:43:05Z</time>
      </trkpt>
      <trkpt lat="42.413625" lon="8.907973">
        <ele>1854.6</ele>
        <time>2022-09-09T10:43:25Z</time>
      </trkpt>
      <trkpt lat="42.413595" lon="8.908027">
        <ele>1856.8</ele>
        <time>2022-09-09T10:43:40Z</time>
      </trkpt>
      <trkpt lat="42.413565" lon="8.908042">
        <ele>1860.2</ele>
        <time>2022-09-09T10:43:57Z</time>
      </trkpt>
      <trkpt lat="42.413562" lon="8.908045">
        <ele>1860.2</ele>
        <time>2022-09-09T10:43:58Z</time>
      </trkpt>
      <trkpt lat="42.41351" lon="8.90807">
        <ele>1861.0</ele>
        <time>2022-09-09T10:44:09Z</time>
      </trkpt>
      <trkpt lat="42.4135" lon="8.908112">
        <ele>1861.8</ele>
        <time>2022-09-09T10:44:16Z</time>
      </trkpt>
      <trkpt lat="42.41349" lon="8.90815">
        <ele>1862.4</ele>
        <time>2022-09-09T10:44:22Z</time>
      </trkpt>
      <trkpt lat="42.41347" lon="8.908172">
        <ele>1863.0</ele>
        <time>2022-09-09T10:44:28Z</time>
      </trkpt>
      <trkpt lat="42.41344" lon="8.908168">
        <ele>1866.0</ele>
        <time>2022-09-09T10:44:44Z</time>
      </trkpt>
      <trkpt lat="42.413417" lon="8.908178">
        <ele>1867.0</ele>
        <time>2022-09-09T10:44:51Z</time>
      </trkpt>
      <trkpt lat="42.413327" lon="8.908158">
        <ele>1869.2</ele>
        <time>2022-09-09T10:45:18Z</time>
      </trkpt>
      <trkpt lat="42.413325" lon="8.90816">
        <ele>1869.6</ele>
        <time>2022-09-09T10:45:19Z</time>
      </trkpt>
      <trkpt lat="42.413312" lon="8.90818">
        <ele>1870.8</ele>
        <time>2022-09-09T10:45:25Z</time>
      </trkpt>
      <trkpt lat="42.413285" lon="8.908167">
        <ele>1871.6</ele>
        <time>2022-09-09T10:45:31Z</time>
      </trkpt>
      <trkpt lat="42.413245" lon="8.90819">
        <ele>1873.6</ele>
        <time>2022-09-09T10:45:43Z</time>
      </trkpt>
      <trkpt lat="42.413218" lon="8.908168">
        <ele>1874.0</ele>
        <time>2022-09-09T10:45:51Z</time>
      </trkpt>
      <trkpt lat="42.413212" lon="8.908133">
        <ele>1875.0</ele>
        <time>2022-09-09T10:46:00Z</time>
      </trkpt>
      <trkpt lat="42.413192" lon="8.908118">
        <ele>1874.8</ele>
        <time>2022-09-09T10:46:13Z</time>
      </trkpt>
      <trkpt lat="42.413157" lon="8.908078">
        <ele>1875.4</ele>
        <time>2022-09-09T10:46:27Z</time>
      </trkpt>
      <trkpt lat="42.413122" lon="8.908068">
        <ele>1876.0</ele>
        <time>2022-09-09T10:46:33Z</time>
      </trkpt>
      <trkpt lat="42.41311" lon="8.908072">
        <ele>1876.2</ele>
        <time>2022-09-09T10:46:35Z</time>
      </trkpt>
      <trkpt lat="42.413025" lon="8.908028">
        <ele>1877.0</ele>
        <time>2022-09-09T10:46:48Z</time>
      </trkpt>
      <trkpt lat="42.412972" lon="8.908005">
        <ele>1876.8</ele>
        <time>2022-09-09T10:46:55Z</time>
      </trkpt>
      <trkpt lat="42.412833" lon="8.907963">
        <ele>1876.8</ele>
        <time>2022-09-09T10:47:13Z</time>
      </trkpt>
      <trkpt lat="42.412817" lon="8.907943">
        <ele>1876.8</ele>
        <time>2022-09-09T10:47:16Z</time>
      </trkpt>
      <trkpt lat="42.412793" lon="8.907912">
        <ele>1877.0</ele>
        <time>2022-09-09T10:47:21Z</time>
      </trkpt>
      <trkpt lat="42.412742" lon="8.907875">
        <ele>1877.8</ele>
        <time>2022-09-09T10:47:32Z</time>
      </trkpt>
      <trkpt lat="42.412675" lon="8.907732">
        <ele>1878.2</ele>
        <time>2022-09-09T10:47:58Z</time>
      </trkpt>
      <trkpt lat="42.412663" lon="8.907702">
        <ele>1878.2</ele>
        <time>2022-09-09T10:48:06Z</time>
      </trkpt>
      <trkpt lat="42.412598" lon="8.90774">
        <ele>1874.8</ele>
        <time>2022-09-09T10:48:40Z</time>
      </trkpt>
      <trkpt lat="42.41255" lon="8.907713">
        <ele>1873.0</ele>
        <time>2022-09-09T10:48:54Z</time>
      </trkpt>
      <trkpt lat="42.412515" lon="8.90772">
        <ele>1872.6</ele>
        <time>2022-09-09T10:49:00Z</time>
      </trkpt>
      <trkpt lat="42.412498" lon="8.907733">
        <ele>1872.2</ele>
        <time>2022-09-09T10:49:04Z</time>
      </trkpt>
      <trkpt lat="42.412463" lon="8.90778">
        <ele>1872.4</ele>
        <time>2022-09-09T10:49:21Z</time>
      </trkpt>
      <trkpt lat="42.41247" lon="8.907832">
        <ele>1874.0</ele>
        <time>2022-09-09T10:49:33Z</time>
      </trkpt>
      <trkpt lat="42.412455" lon="8.907855">
        <ele>1875.4</ele>
        <time>2022-09-09T10:49:44Z</time>
      </trkpt>
      <trkpt lat="42.412432" lon="8.907845">
        <ele>1876.0</ele>
        <time>2022-09-09T10:49:51Z</time>
      </trkpt>
      <trkpt lat="42.412412" lon="8.90786">
        <ele>1876.8</ele>
        <time>2022-09-09T10:49:58Z</time>
      </trkpt>
      <trkpt lat="42.412398" lon="8.907873">
        <ele>1877.2</ele>
        <time>2022-09-09T10:50:03Z</time>
      </trkpt>
      <trkpt lat="42.412337" lon="8.907965">
        <ele>1886.8</ele>
        <time>2022-09-09T10:51:19Z</time>
      </trkpt>
      <trkpt lat="42.412268" lon="8.908107">
        <ele>1888.0</ele>
        <time>2022-09-09T10:51:29Z</time>
      </trkpt>
      <trkpt lat="42.412163" lon="8.908128">
        <ele>1892.2</ele>
        <time>2022-09-09T10:51:55Z</time>
      </trkpt>
      <trkpt lat="42.41214" lon="8.908145">
        <ele>1893.6</ele>
        <time>2022-09-09T10:52:03Z</time>
      </trkpt>
      <trkpt lat="42.412065" lon="8.908105">
        <ele>1896.2</ele>
        <time>2022-09-09T10:52:19Z</time>
      </trkpt>
      <trkpt lat="42.412003" lon="8.908138">
        <ele>1901.6</ele>
        <time>2022-09-09T10:53:51Z</time>
      </trkpt>
      <trkpt lat="42.411973" lon="8.908175">
        <ele>1902.2</ele>
        <time>2022-09-09T10:53:58Z</time>
      </trkpt>
      <trkpt lat="42.411928" lon="8.908183">
        <ele>1902.6</ele>
        <time>2022-09-09T10:54:04Z</time>
      </trkpt>
      <trkpt lat="42.411877" lon="8.908218">
        <ele>1904.6</ele>
        <time>2022-09-09T10:54:18Z</time>
      </trkpt>
      <trkpt lat="42.411833" lon="8.908222">
        <ele>1905.6</ele>
        <time>2022-09-09T10:54:27Z</time>
      </trkpt>
      <trkpt lat="42.411758" lon="8.90826">
        <ele>1912.8</ele>
        <time>2022-09-09T10:55:24Z</time>
      </trkpt>
      <trkpt lat="42.41173" lon="8.908305">
        <ele>1914.4</ele>
        <time>2022-09-09T10:55:34Z</time>
      </trkpt>
      <trkpt lat="42.411647" lon="8.908333">
        <ele>1917.0</ele>
        <time>2022-09-09T10:56:02Z</time>
      </trkpt>
      <trkpt lat="42.41161" lon="8.908348">
        <ele>1918.8</ele>
        <time>2022-09-09T10:56:18Z</time>
      </trkpt>
      <trkpt lat="42.411605" lon="8.908347">
        <ele>1918.8</ele>
        <time>2022-09-09T10:56:19Z</time>
      </trkpt>
      <trkpt lat="42.411577" lon="8.908297">
        <ele>1920.0</ele>
        <time>2022-09-09T10:56:25Z</time>
      </trkpt>
      <trkpt lat="42.411537" lon="8.908263">
        <ele>1920.4</ele>
        <time>2022-09-09T10:56:30Z</time>
      </trkpt>
      <trkpt lat="42.411507" lon="8.9083">
        <ele>1922.6</ele>
        <time>2022-09-09T10:56:45Z</time>
      </trkpt>
      <trkpt lat="42.41149" lon="8.90833">
        <ele>1923.4</ele>
        <time>2022-09-09T10:56:53Z</time>
      </trkpt>
      <trkpt lat="42.411477" lon="8.90832">
        <ele>1924.0</ele>
        <time>2022-09-09T10:56:57Z</time>
      </trkpt>
      <trkpt lat="42.411442" lon="8.90836">
        <ele>1926.4</ele>
        <time>2022-09-09T10:57:16Z</time>
      </trkpt>
      <trkpt lat="42.411425" lon="8.908377">
        <ele>1928.0</ele>
        <time>2022-09-09T10:57:27Z</time>
      </trkpt>
      <trkpt lat="42.411407" lon="8.908408">
        <ele>1930.4</ele>
        <time>2022-09-09T10:57:48Z</time>
      </trkpt>
      <trkpt lat="42.411393" lon="8.908405">
        <ele>1930.6</ele>
        <time>2022-09-09T10:57:53Z</time>
      </trkpt>
      <trkpt lat="42.41137" lon="8.908428">
        <ele>1931.6</ele>
        <time>2022-09-09T10:58:03Z</time>
      </trkpt>
      <trkpt lat="42.411363" lon="8.908427">
        <ele>1931.6</ele>
        <time>2022-09-09T10:58:05Z</time>
      </trkpt>
      <trkpt lat="42.41133" lon="8.908422">
        <ele>1935.6</ele>
        <time>2022-09-09T10:58:27Z</time>
      </trkpt>
      <trkpt lat="42.411307" lon="8.908482">
        <ele>1940.2</ele>
        <time>2022-09-09T10:59:03Z</time>
      </trkpt>
      <trkpt lat="42.411287" lon="8.908478">
        <ele>1940.4</ele>
        <time>2022-09-09T10:59:09Z</time>
      </trkpt>
      <trkpt lat="42.411243" lon="8.90844">
        <ele>1943.4</ele>
        <time>2022-09-09T10:59:27Z</time>
      </trkpt>
      <trkpt lat="42.411215" lon="8.908485">
        <ele>1945.0</ele>
        <time>2022-09-09T10:59:47Z</time>
      </trkpt>
      <trkpt lat="42.411212" lon="8.908495">
        <ele>1945.6</ele>
        <time>2022-09-09T10:59:52Z</time>
      </trkpt>
      <trkpt lat="42.4112" lon="8.908503">
        <ele>1947.2</ele>
        <time>2022-09-09T11:00:02Z</time>
      </trkpt>
      <trkpt lat="42.41116" lon="8.908483">
        <ele>1949.6</ele>
        <time>2022-09-09T11:00:21Z</time>
      </trkpt>
      <trkpt lat="42.411138" lon="8.908478">
        <ele>1950.8</ele>
        <time>2022-09-09T11:00:30Z</time>
      </trkpt>
      <trkpt lat="42.411117" lon="8.908463">
        <ele>1951.8</ele>
        <time>2022-09-09T11:00:36Z</time>
      </trkpt>
      <trkpt lat="42.41104" lon="8.908493">
        <ele>1954.6</ele>
        <time>2022-09-09T11:00:57Z</time>
      </trkpt>
      <trkpt lat="42.41103" lon="8.908532">
        <ele>1955.2</ele>
        <time>2022-09-09T11:01:03Z</time>
      </trkpt>
      <trkpt lat="42.410965" lon="8.908642">
        <ele>1958.0</ele>
        <time>2022-09-09T11:01:28Z</time>
      </trkpt>
      <trkpt lat="42.410965" lon="8.908642">
        <ele>1958.0</ele>
        <time>2022-09-09T11:01:29Z</time>
      </trkpt>
      <trkpt lat="42.41094" lon="8.908533">
        <ele>1965.2</ele>
        <time>2022-09-09T11:02:26Z</time>
      </trkpt>
      <trkpt lat="42.410938" lon="8.908532">
        <ele>1965.2</ele>
        <time>2022-09-09T11:02:27Z</time>
      </trkpt>
      <trkpt lat="42.410962" lon="8.908508">
        <ele>1966.0</ele>
        <time>2022-09-09T11:02:31Z</time>
      </trkpt>
      <trkpt lat="42.410915" lon="8.90845">
        <ele>1967.2</ele>
        <time>2022-09-09T11:02:41Z</time>
      </trkpt>
      <trkpt lat="42.410855" lon="8.908413">
        <ele>1969.2</ele>
        <time>2022-09-09T11:02:55Z</time>
      </trkpt>
      <trkpt lat="42.410857" lon="8.90837">
        <ele>1970.6</ele>
        <time>2022-09-09T11:03:03Z</time>
      </trkpt>
      <trkpt lat="42.41085" lon="8.90831">
        <ele>1973.6</ele>
        <time>2022-09-09T11:03:31Z</time>
      </trkpt>
      <trkpt lat="42.41084" lon="8.90821">
        <ele>1978.6</ele>
        <time>2022-09-09T11:04:04Z</time>
      </trkpt>
      <trkpt lat="42.410842" lon="8.90817">
        <ele>1980.0</ele>
        <time>2022-09-09T11:04:25Z</time>
      </trkpt>
      <trkpt lat="42.410848" lon="8.908165">
        <ele>1980.6</ele>
        <time>2022-09-09T11:04:28Z</time>
      </trkpt>
      <trkpt lat="42.410838" lon="8.90814">
        <ele>1981.4</ele>
        <time>2022-09-09T11:04:33Z</time>
      </trkpt>
      <trkpt lat="42.410795" lon="8.908128">
        <ele>1982.0</ele>
        <time>2022-09-09T11:04:39Z</time>
      </trkpt>
      <trkpt lat="42.410765" lon="8.908183">
        <ele>1984.2</ele>
        <time>2022-09-09T11:05:25Z</time>
      </trkpt>
      <trkpt lat="42.410757" lon="8.90834">
        <ele>1986.4</ele>
        <time>2022-09-09T11:08:20Z</time>
      </trkpt>
      <trkpt lat="42.410748" lon="8.90835">
        <ele>1987.0</ele>
        <time>2022-09-09T11:08:23Z</time>
      </trkpt>
      <trkpt lat="42.410697" lon="8.908335">
        <ele>1988.6</ele>
        <time>2022-09-09T11:08:33Z</time>
      </trkpt>
      <trkpt lat="42.410572" lon="8.908395">
        <ele>1992.2</ele>
        <time>2022-09-09T11:09:09Z</time>
      </trkpt>
      <trkpt lat="42.410565" lon="8.908402">
        <ele>1992.4</ele>
        <time>2022-09-09T11:09:10Z</time>
      </trkpt>
      <trkpt lat="42.410558" lon="8.90831">
        <ele>1995.6</ele>
        <time>2022-09-09T11:09:38Z</time>
      </trkpt>
      <trkpt lat="42.41071" lon="8.905795">
        <ele>2002.0</ele>
        <time>2022-09-09T11:22:58Z</time>
      </trkpt>
      <trkpt lat="42.41049" lon="8.908003">
        <ele>2001.6</ele>
        <time>2022-09-09T11:26:38Z</time>
      </trkpt>
      <trkpt lat="42.41047" lon="8.908023">
        <ele>2003.0</ele>
        <time>2022-09-09T11:26:52Z</time>
      </trkpt>
      <trkpt lat="42.410465" lon="8.908025">
        <ele>2002.4</ele>
        <time>2022-09-09T11:26:56Z</time>
      </trkpt>
      <trkpt lat="42.410423" lon="8.908017">
        <ele>2002.2</ele>
        <time>2022-09-09T11:27:04Z</time>
      </trkpt>
      <trkpt lat="42.410407" lon="8.908">
        <ele>2002.8</ele>
        <time>2022-09-09T11:27:07Z</time>
      </trkpt>
      <trkpt lat="42.410443" lon="8.90791">
        <ele>2003.6</ele>
        <time>2022-09-09T11:27:20Z</time>
      </trkpt>
      <trkpt lat="42.410433" lon="8.907825">
        <ele>2004.2</ele>
        <time>2022-09-09T11:27:36Z</time>
      </trkpt>
      <trkpt lat="42.410453" lon="8.9078">
        <ele>2003.6</ele>
        <time>2022-09-09T11:28:05Z</time>
      </trkpt>
      <trkpt lat="42.41046" lon="8.907832">
        <ele>2002.6</ele>
        <time>2022-09-09T11:28:12Z</time>
      </trkpt>
      <trkpt lat="42.410485" lon="8.907768">
        <ele>1997.2</ele>
        <time>2022-09-09T11:30:22Z</time>
      </trkpt>
      <trkpt lat="42.410518" lon="8.907712">
        <ele>1996.2</ele>
        <time>2022-09-09T11:30:30Z</time>
      </trkpt>
      <trkpt lat="42.410577" lon="8.907718">
        <ele>1995.6</ele>
        <time>2022-09-09T11:30:36Z</time>
      </trkpt>
      <trkpt lat="42.410617" lon="8.907718">
        <ele>1995.0</ele>
        <time>2022-09-09T11:30:40Z</time>
      </trkpt>
      <trkpt lat="42.410652" lon="8.907652">
        <ele>1994.0</ele>
        <time>2022-09-09T11:30:47Z</time>
      </trkpt>
      <trkpt lat="42.41062" lon="8.907635">
        <ele>1994.0</ele>
        <time>2022-09-09T11:30:51Z</time>
      </trkpt>
      <trkpt lat="42.410543" lon="8.90769">
        <ele>1993.0</ele>
        <time>2022-09-09T11:31:04Z</time>
      </trkpt>
      <trkpt lat="42.410477" lon="8.907745">
        <ele>1990.4</ele>
        <time>2022-09-09T11:31:16Z</time>
      </trkpt>
      <trkpt lat="42.410425" lon="8.907665">
        <ele>1987.8</ele>
        <time>2022-09-09T11:31:33Z</time>
      </trkpt>
      <trkpt lat="42.410402" lon="8.907665">
        <ele>1987.4</ele>
        <time>2022-09-09T11:31:43Z</time>
      </trkpt>
      <trkpt lat="42.410402" lon="8.907667">
        <ele>1987.4</ele>
        <time>2022-09-09T11:31:44Z</time>
      </trkpt>
      <trkpt lat="42.410338" lon="8.907797">
        <ele>1984.0</ele>
        <time>2022-09-09T11:32:01Z</time>
      </trkpt>
      <trkpt lat="42.4103" lon="8.90781">
        <ele>1983.8</ele>
        <time>2022-09-09T11:32:12Z</time>
      </trkpt>
      <trkpt lat="42.41029" lon="8.907757">
        <ele>1983.0</ele>
        <time>2022-09-09T11:32:20Z</time>
      </trkpt>
      <trkpt lat="42.41022" lon="8.907738">
        <ele>1980.4</ele>
        <time>2022-09-09T11:32:38Z</time>
      </trkpt>
      <trkpt lat="42.410212" lon="8.907745">
        <ele>1979.8</ele>
        <time>2022-09-09T11:32:39Z</time>
      </trkpt>
      <trkpt lat="42.41018" lon="8.907823">
        <ele>1979.4</ele>
        <time>2022-09-09T11:32:49Z</time>
      </trkpt>
      <trkpt lat="42.41016" lon="8.907893">
        <ele>1978.2</ele>
        <time>2022-09-09T11:33:03Z</time>
      </trkpt>
      <trkpt lat="42.410142" lon="8.90791">
        <ele>1976.4</ele>
        <time>2022-09-09T11:33:10Z</time>
      </trkpt>
      <trkpt lat="42.410113" lon="8.90795">
        <ele>1975.6</ele>
        <time>2022-09-09T11:33:15Z</time>
      </trkpt>
      <trkpt lat="42.410067" lon="8.907977">
        <ele>1975.2</ele>
        <time>2022-09-09T11:33:21Z</time>
      </trkpt>
      <trkpt lat="42.410033" lon="8.907992">
        <ele>1974.2</ele>
        <time>2022-09-09T11:33:29Z</time>
      </trkpt>
      <trkpt lat="42.410012" lon="8.908045">
        <ele>1970.2</ele>
        <time>2022-09-09T11:33:54Z</time>
      </trkpt>
      <trkpt lat="42.410012" lon="8.908045">
        <ele>1970.2</ele>
        <time>2022-09-09T11:33:55Z</time>
      </trkpt>
      <trkpt lat="42.409993" lon="8.907992">
        <ele>1959.4</ele>
        <time>2022-09-09T11:34:53Z</time>
      </trkpt>
      <trkpt lat="42.409943" lon="8.908042">
        <ele>1956.2</ele>
        <time>2022-09-09T11:35:08Z</time>
      </trkpt>
      <trkpt lat="42.409908" lon="8.908047">
        <ele>1955.4</ele>
        <time>2022-09-09T11:35:13Z</time>
      </trkpt>
      <trkpt lat="42.40987" lon="8.908043">
        <ele>1954.8</ele>
        <time>2022-09-09T11:35:19Z</time>
      </trkpt>
      <trkpt lat="42.409807" lon="8.908105">
        <ele>1952.0</ele>
        <time>2022-09-09T11:35:39Z</time>
      </trkpt>
      <trkpt lat="42.409802" lon="8.908112">
        <ele>1952.0</ele>
        <time>2022-09-09T11:35:41Z</time>
      </trkpt>
      <trkpt lat="42.409763" lon="8.90817">
        <ele>1951.8</ele>
        <time>2022-09-09T11:35:49Z</time>
      </trkpt>
      <trkpt lat="42.40974" lon="8.90835">
        <ele>1950.8</ele>
        <time>2022-09-09T11:36:06Z</time>
      </trkpt>
      <trkpt lat="42.409702" lon="8.908463">
        <ele>1952.6</ele>
        <time>2022-09-09T11:36:16Z</time>
      </trkpt>
      <trkpt lat="42.409688" lon="8.908517">
        <ele>1954.6</ele>
        <time>2022-09-09T11:36:25Z</time>
      </trkpt>
      <trkpt lat="42.409647" lon="8.908552">
        <ele>1954.2</ele>
        <time>2022-09-09T11:36:33Z</time>
      </trkpt>
      <trkpt lat="42.409585" lon="8.908558">
        <ele>1955.2</ele>
        <time>2022-09-09T11:36:43Z</time>
      </trkpt>
      <trkpt lat="42.409517" lon="8.908552">
        <ele>1956.8</ele>
        <time>2022-09-09T11:36:54Z</time>
      </trkpt>
      <trkpt lat="42.409493" lon="8.908558">
        <ele>1957.0</ele>
        <time>2022-09-09T11:36:59Z</time>
      </trkpt>
      <trkpt lat="42.409477" lon="8.90856">
        <ele>1957.0</ele>
        <time>2022-09-09T11:37:03Z</time>
      </trkpt>
      <trkpt lat="42.409448" lon="8.90863">
        <ele>1957.4</ele>
        <time>2022-09-09T11:37:16Z</time>
      </trkpt>
      <trkpt lat="42.409353" lon="8.908713">
        <ele>1959.6</ele>
        <time>2022-09-09T11:37:35Z</time>
      </trkpt>
      <trkpt lat="42.409298" lon="8.908752">
        <ele>1960.6</ele>
        <time>2022-09-09T11:37:43Z</time>
      </trkpt>
      <trkpt lat="42.40929" lon="8.908753">
        <ele>1960.6</ele>
        <time>2022-09-09T11:37:44Z</time>
      </trkpt>
      <trkpt lat="42.409275" lon="8.908723">
        <ele>1960.4</ele>
        <time>2022-09-09T11:37:48Z</time>
      </trkpt>
      <trkpt lat="42.409238" lon="8.908683">
        <ele>1959.0</ele>
        <time>2022-09-09T11:37:56Z</time>
      </trkpt>
      <trkpt lat="42.409225" lon="8.908635">
        <ele>1957.0</ele>
        <time>2022-09-09T11:38:16Z</time>
      </trkpt>
      <trkpt lat="42.40919" lon="8.908535">
        <ele>1954.0</ele>
        <time>2022-09-09T11:38:59Z</time>
      </trkpt>
      <trkpt lat="42.409167" lon="8.908715">
        <ele>1957.2</ele>
        <time>2022-09-09T11:39:41Z</time>
      </trkpt>
      <trkpt lat="42.409098" lon="8.908745">
        <ele>1960.0</ele>
        <time>2022-09-09T11:39:59Z</time>
      </trkpt>
      <trkpt lat="42.408947" lon="8.908798">
        <ele>1960.2</ele>
        <time>2022-09-09T11:40:13Z</time>
      </trkpt>
      <trkpt lat="42.408883" lon="8.90884">
        <ele>1960.2</ele>
        <time>2022-09-09T11:40:17Z</time>
      </trkpt>
      <trkpt lat="42.408755" lon="8.908972">
        <ele>1960.6</ele>
        <time>2022-09-09T11:40:25Z</time>
      </trkpt>
      <trkpt lat="42.408722" lon="8.909008">
        <ele>1960.6</ele>
        <time>2022-09-09T11:40:27Z</time>
      </trkpt>
      <trkpt lat="42.408685" lon="8.909082">
        <ele>1961.2</ele>
        <time>2022-09-09T11:40:32Z</time>
      </trkpt>
      <trkpt lat="42.408632" lon="8.909125">
        <ele>1962.2</ele>
        <time>2022-09-09T11:40:39Z</time>
      </trkpt>
      <trkpt lat="42.408572" lon="8.909178">
        <ele>1963.0</ele>
        <time>2022-09-09T11:40:48Z</time>
      </trkpt>
      <trkpt lat="42.408532" lon="8.909278">
        <ele>1968.4</ele>
        <time>2022-09-09T11:41:32Z</time>
      </trkpt>
      <trkpt lat="42.408528" lon="8.909318">
        <ele>1968.8</ele>
        <time>2022-09-09T11:41:37Z</time>
      </trkpt>
      <trkpt lat="42.408497" lon="8.909363">
        <ele>1970.6</ele>
        <time>2022-09-09T11:41:43Z</time>
      </trkpt>
      <trkpt lat="42.408447" lon="8.909425">
        <ele>1971.8</ele>
        <time>2022-09-09T11:41:52Z</time>
      </trkpt>
      <trkpt lat="42.408447" lon="8.909495">
        <ele>1972.4</ele>
        <time>2022-09-09T11:41:58Z</time>
      </trkpt>
      <trkpt lat="42.408442" lon="8.909527">
        <ele>1972.6</ele>
        <time>2022-09-09T11:42:01Z</time>
      </trkpt>
      <trkpt lat="42.408433" lon="8.90953">
        <ele>1973.2</ele>
        <time>2022-09-09T11:42:02Z</time>
      </trkpt>
      <trkpt lat="42.408302" lon="8.909643">
        <ele>1978.6</ele>
        <time>2022-09-09T11:42:50Z</time>
      </trkpt>
      <trkpt lat="42.408323" lon="8.909685">
        <ele>1981.8</ele>
        <time>2022-09-09T11:43:06Z</time>
      </trkpt>
      <trkpt lat="42.408335" lon="8.909717">
        <ele>1982.4</ele>
        <time>2022-09-09T11:43:09Z</time>
      </trkpt>
      <trkpt lat="42.408293" lon="8.909768">
        <ele>1983.2</ele>
        <time>2022-09-09T11:43:14Z</time>
      </trkpt>
      <trkpt lat="42.408265" lon="8.909793">
        <ele>1984.0</ele>
        <time>2022-09-09T11:43:17Z</time>
      </trkpt>
      <trkpt lat="42.40825" lon="8.909857">
        <ele>1985.0</ele>
        <time>2022-09-09T11:43:22Z</time>
      </trkpt>
      <trkpt lat="42.408252" lon="8.90988">
        <ele>1986.2</ele>
        <time>2022-09-09T11:43:25Z</time>
      </trkpt>
      <trkpt lat="42.408245" lon="8.909885">
        <ele>1986.2</ele>
        <time>2022-09-09T11:43:26Z</time>
      </trkpt>
      <trkpt lat="42.4082" lon="8.90989">
        <ele>1987.4</ele>
        <time>2022-09-09T11:43:34Z</time>
      </trkpt>
      <trkpt lat="42.408145" lon="8.90983">
        <ele>1991.8</ele>
        <time>2022-09-09T11:44:00Z</time>
      </trkpt>
      <trkpt lat="42.408127" lon="8.909828">
        <ele>1991.6</ele>
        <time>2022-09-09T11:44:03Z</time>
      </trkpt>
      <trkpt lat="42.408118" lon="8.90986">
        <ele>1991.6</ele>
        <time>2022-09-09T11:44:07Z</time>
      </trkpt>
      <trkpt lat="42.40816" lon="8.909857">
        <ele>1992.4</ele>
        <time>2022-09-09T11:44:12Z</time>
      </trkpt>
      <trkpt lat="42.408145" lon="8.909933">
        <ele>1993.4</ele>
        <time>2022-09-09T11:44:22Z</time>
      </trkpt>
      <trkpt lat="42.40802" lon="8.910022">
        <ele>2000.0</ele>
        <time>2022-09-09T11:45:03Z</time>
      </trkpt>
      <trkpt lat="42.407972" lon="8.91007">
        <ele>2002.8</ele>
        <time>2022-09-09T11:45:20Z</time>
      </trkpt>
      <trkpt lat="42.407928" lon="8.910223">
        <ele>2005.2</ele>
        <time>2022-09-09T11:45:30Z</time>
      </trkpt>
      <trkpt lat="42.407927" lon="8.910243">
        <ele>2005.2</ele>
        <time>2022-09-09T11:45:31Z</time>
      </trkpt>
      <trkpt lat="42.4079" lon="8.910303">
        <ele>2007.0</ele>
        <time>2022-09-09T11:45:35Z</time>
      </trkpt>
      <trkpt lat="42.407783" lon="8.910398">
        <ele>2009.4</ele>
        <time>2022-09-09T11:45:51Z</time>
      </trkpt>
      <trkpt lat="42.407725" lon="8.910385">
        <ele>2011.4</ele>
        <time>2022-09-09T11:46:01Z</time>
      </trkpt>
      <trkpt lat="42.407642" lon="8.910422">
        <ele>2013.4</ele>
        <time>2022-09-09T11:46:14Z</time>
      </trkpt>
      <trkpt lat="42.407635" lon="8.910425">
        <ele>2014.0</ele>
        <time>2022-09-09T11:46:15Z</time>
      </trkpt>
      <trkpt lat="42.407663" lon="8.910452">
        <ele>2016.4</ele>
        <time>2022-09-09T11:46:21Z</time>
      </trkpt>
      <trkpt lat="42.407687" lon="8.910467">
        <ele>2016.6</ele>
        <time>2022-09-09T11:46:25Z</time>
      </trkpt>
      <trkpt lat="42.407703" lon="8.910513">
        <ele>2016.6</ele>
        <time>2022-09-09T11:46:31Z</time>
      </trkpt>
      <trkpt lat="42.407717" lon="8.910543">
        <ele>2017.0</ele>
        <time>2022-09-09T11:46:35Z</time>
      </trkpt>
      <trkpt lat="42.40775" lon="8.910588">
        <ele>2019.8</ele>
        <time>2022-09-09T11:46:43Z</time>
      </trkpt>
      <trkpt lat="42.407768" lon="8.910642">
        <ele>2019.8</ele>
        <time>2022-09-09T11:46:50Z</time>
      </trkpt>
      <trkpt lat="42.407703" lon="8.910623">
        <ele>2020.0</ele>
        <time>2022-09-09T11:46:59Z</time>
      </trkpt>
      <trkpt lat="42.40761" lon="8.910612">
        <ele>2019.2</ele>
        <time>2022-09-09T11:47:15Z</time>
      </trkpt>
      <trkpt lat="42.407587" lon="8.91063">
        <ele>2018.0</ele>
        <time>2022-09-09T11:47:23Z</time>
      </trkpt>
      <trkpt lat="42.407565" lon="8.910685">
        <ele>2017.8</ele>
        <time>2022-09-09T11:47:36Z</time>
      </trkpt>
      <trkpt lat="42.407517" lon="8.910735">
        <ele>2014.4</ele>
        <time>2022-09-09T11:47:50Z</time>
      </trkpt>
      <trkpt lat="42.40745" lon="8.910727">
        <ele>2010.6</ele>
        <time>2022-09-09T11:48:10Z</time>
      </trkpt>
      <trkpt lat="42.40743" lon="8.910745">
        <ele>2009.8</ele>
        <time>2022-09-09T11:48:17Z</time>
      </trkpt>
      <trkpt lat="42.407415" lon="8.910757">
        <ele>2009.2</ele>
        <time>2022-09-09T11:48:23Z</time>
      </trkpt>
      <trkpt lat="42.407398" lon="8.910808">
        <ele>2006.8</ele>
        <time>2022-09-09T11:48:36Z</time>
      </trkpt>
      <trkpt lat="42.407382" lon="8.910815">
        <ele>2006.6</ele>
        <time>2022-09-09T11:48:41Z</time>
      </trkpt>
      <trkpt lat="42.407388" lon="8.910868">
        <ele>2002.4</ele>
        <time>2022-09-09T11:49:05Z</time>
      </trkpt>
      <trkpt lat="42.407402" lon="8.910875">
        <ele>2002.0</ele>
        <time>2022-09-09T11:49:09Z</time>
      </trkpt>
      <trkpt lat="42.407408" lon="8.910932">
        <ele>1999.0</ele>
        <time>2022-09-09T11:49:25Z</time>
      </trkpt>
      <trkpt lat="42.407343" lon="8.911045">
        <ele>1997.2</ele>
        <time>2022-09-09T11:49:35Z</time>
      </trkpt>
      <trkpt lat="42.40738" lon="8.910615">
        <ele>1995.0</ele>
        <time>2022-09-09T11:49:47Z</time>
      </trkpt>
      <trkpt lat="42.407378" lon="8.910643">
        <ele>1995.0</ele>
        <time>2022-09-09T11:49:47Z</time>
      </trkpt>
      <trkpt lat="42.40735" lon="8.910657">
        <ele>1994.4</ele>
        <time>2022-09-09T11:49:50Z</time>
      </trkpt>
      <trkpt lat="42.407278" lon="8.910688">
        <ele>1993.4</ele>
        <time>2022-09-09T11:49:54Z</time>
      </trkpt>
      <trkpt lat="42.407237" lon="8.91072">
        <ele>1992.4</ele>
        <time>2022-09-09T11:49:58Z</time>
      </trkpt>
      <trkpt lat="42.40723" lon="8.910748">
        <ele>1992.4</ele>
        <time>2022-09-09T11:50:00Z</time>
      </trkpt>
      <trkpt lat="42.40722" lon="8.910817">
        <ele>1992.0</ele>
        <time>2022-09-09T11:50:05Z</time>
      </trkpt>
      <trkpt lat="42.4072" lon="8.910843">
        <ele>1991.6</ele>
        <time>2022-09-09T11:50:08Z</time>
      </trkpt>
      <trkpt lat="42.407167" lon="8.910862">
        <ele>1990.8</ele>
        <time>2022-09-09T11:50:12Z</time>
      </trkpt>
      <trkpt lat="42.407067" lon="8.910892">
        <ele>1988.0</ele>
        <time>2022-09-09T11:50:26Z</time>
      </trkpt>
      <trkpt lat="42.407063" lon="8.910898">
        <ele>1987.8</ele>
        <time>2022-09-09T11:50:27Z</time>
      </trkpt>
      <trkpt lat="42.407028" lon="8.910908">
        <ele>1986.2</ele>
        <time>2022-09-09T11:50:34Z</time>
      </trkpt>
      <trkpt lat="42.407002" lon="8.910912">
        <ele>1984.8</ele>
        <time>2022-09-09T11:50:39Z</time>
      </trkpt>
      <trkpt lat="42.40698" lon="8.91094">
        <ele>1983.6</ele>
        <time>2022-09-09T11:50:46Z</time>
      </trkpt>
      <trkpt lat="42.406963" lon="8.91095">
        <ele>1983.2</ele>
        <time>2022-09-09T11:50:50Z</time>
      </trkpt>
      <trkpt lat="42.406935" lon="8.910952">
        <ele>1982.0</ele>
        <time>2022-09-09T11:50:57Z</time>
      </trkpt>
      <trkpt lat="42.40693" lon="8.910988">
        <ele>1980.4</ele>
        <time>2022-09-09T11:51:04Z</time>
      </trkpt>
      <trkpt lat="42.406897" lon="8.910967">
        <ele>1978.4</ele>
        <time>2022-09-09T11:51:15Z</time>
      </trkpt>
      <trkpt lat="42.406897" lon="8.911">
        <ele>1977.0</ele>
        <time>2022-09-09T11:51:24Z</time>
      </trkpt>
      <trkpt lat="42.406878" lon="8.911003">
        <ele>1975.6</ele>
        <time>2022-09-09T11:51:33Z</time>
      </trkpt>
      <trkpt lat="42.406887" lon="8.911017">
        <ele>1974.0</ele>
        <time>2022-09-09T11:51:37Z</time>
      </trkpt>
      <trkpt lat="42.406888" lon="8.911018">
        <ele>1972.6</ele>
        <time>2022-09-09T11:51:46Z</time>
      </trkpt>
      <trkpt lat="42.406897" lon="8.910972">
        <ele>1970.8</ele>
        <time>2022-09-09T11:51:56Z</time>
      </trkpt>
      <trkpt lat="42.406952" lon="8.911068">
        <ele>1966.4</ele>
        <time>2022-09-09T11:52:17Z</time>
      </trkpt>
      <trkpt lat="42.406955" lon="8.911075">
        <ele>1966.0</ele>
        <time>2022-09-09T11:52:18Z</time>
      </trkpt>
      <trkpt lat="42.407012" lon="8.91111">
        <ele>1964.2</ele>
        <time>2022-09-09T11:52:33Z</time>
      </trkpt>
      <trkpt lat="42.407007" lon="8.91123">
        <ele>1962.2</ele>
        <time>2022-09-09T11:52:47Z</time>
      </trkpt>
      <trkpt lat="42.406992" lon="8.911278">
        <ele>1960.2</ele>
        <time>2022-09-09T11:52:56Z</time>
      </trkpt>
      <trkpt lat="42.406997" lon="8.91132">
        <ele>1959.2</ele>
        <time>2022-09-09T11:53:01Z</time>
      </trkpt>
      <trkpt lat="42.407018" lon="8.911357">
        <ele>1957.2</ele>
        <time>2022-09-09T11:53:10Z</time>
      </trkpt>
      <trkpt lat="42.407027" lon="8.911423">
        <ele>1955.4</ele>
        <time>2022-09-09T11:53:21Z</time>
      </trkpt>
      <trkpt lat="42.407072" lon="8.911463">
        <ele>1953.4</ele>
        <time>2022-09-09T11:53:32Z</time>
      </trkpt>
      <trkpt lat="42.407087" lon="8.911577">
        <ele>1948.6</ele>
        <time>2022-09-09T11:53:53Z</time>
      </trkpt>
      <trkpt lat="42.40711" lon="8.911595">
        <ele>1946.4</ele>
        <time>2022-09-09T11:54:06Z</time>
      </trkpt>
      <trkpt lat="42.407152" lon="8.911715">
        <ele>1938.6</ele>
        <time>2022-09-09T11:54:48Z</time>
      </trkpt>
      <trkpt lat="42.407148" lon="8.911717">
        <ele>1938.2</ele>
        <time>2022-09-09T11:54:49Z</time>
      </trkpt>
      <trkpt lat="42.40705" lon="8.911667">
        <ele>1933.0</ele>
        <time>2022-09-09T11:55:12Z</time>
      </trkpt>
      <trkpt lat="42.407037" lon="8.911655">
        <ele>1931.8</ele>
        <time>2022-09-09T11:55:16Z</time>
      </trkpt>
      <trkpt lat="42.406933" lon="8.911663">
        <ele>1929.8</ele>
        <time>2022-09-09T11:55:34Z</time>
      </trkpt>
      <trkpt lat="42.40689" lon="8.911723">
        <ele>1927.2</ele>
        <time>2022-09-09T11:55:44Z</time>
      </trkpt>
      <trkpt lat="42.406868" lon="8.911717">
        <ele>1927.0</ele>
        <time>2022-09-09T11:55:47Z</time>
      </trkpt>
      <trkpt lat="42.406835" lon="8.911717">
        <ele>1925.8</ele>
        <time>2022-09-09T11:55:51Z</time>
      </trkpt>
      <trkpt lat="42.406825" lon="8.911752">
        <ele>1925.2</ele>
        <time>2022-09-09T11:55:54Z</time>
      </trkpt>
      <trkpt lat="42.406833" lon="8.91181">
        <ele>1924.6</ele>
        <time>2022-09-09T11:55:59Z</time>
      </trkpt>
      <trkpt lat="42.40686" lon="8.911917">
        <ele>1923.4</ele>
        <time>2022-09-09T11:56:07Z</time>
      </trkpt>
      <trkpt lat="42.406867" lon="8.911967">
        <ele>1922.6</ele>
        <time>2022-09-09T11:56:11Z</time>
      </trkpt>
      <trkpt lat="42.406918" lon="8.912015">
        <ele>1920.2</ele>
        <time>2022-09-09T11:56:19Z</time>
      </trkpt>
      <trkpt lat="42.406943" lon="8.912058">
        <ele>1919.4</ele>
        <time>2022-09-09T11:56:25Z</time>
      </trkpt>
      <trkpt lat="42.406985" lon="8.912133">
        <ele>1917.4</ele>
        <time>2022-09-09T11:56:37Z</time>
      </trkpt>
      <trkpt lat="42.406988" lon="8.912165">
        <ele>1914.4</ele>
        <time>2022-09-09T11:56:54Z</time>
      </trkpt>
      <trkpt lat="42.406987" lon="8.912625">
        <ele>1897.8</ele>
        <time>2022-09-09T11:58:46Z</time>
      </trkpt>
      <trkpt lat="42.406987" lon="8.91262">
        <ele>1897.4</ele>
        <time>2022-09-09T11:58:47Z</time>
      </trkpt>
      <trkpt lat="42.406977" lon="8.91267">
        <ele>1895.6</ele>
        <time>2022-09-09T11:58:55Z</time>
      </trkpt>
      <trkpt lat="42.406992" lon="8.912702">
        <ele>1894.4</ele>
        <time>2022-09-09T11:59:02Z</time>
      </trkpt>
      <trkpt lat="42.40693" lon="8.912627">
        <ele>1892.6</ele>
        <time>2022-09-09T11:59:13Z</time>
      </trkpt>
      <trkpt lat="42.406775" lon="8.912417">
        <ele>1886.4</ele>
        <time>2022-09-09T11:59:42Z</time>
      </trkpt>
      <trkpt lat="42.406772" lon="8.912417">
        <ele>1884.8</ele>
        <time>2022-09-09T11:59:51Z</time>
      </trkpt>
      <trkpt lat="42.406772" lon="8.912425">
        <ele>1884.8</ele>
        <time>2022-09-09T11:59:52Z</time>
      </trkpt>
      <trkpt lat="42.406725" lon="8.912462">
        <ele>1883.2</ele>
        <time>2022-09-09T11:59:58Z</time>
      </trkpt>
      <trkpt lat="42.406713" lon="8.912543">
        <ele>1881.6</ele>
        <time>2022-09-09T12:00:04Z</time>
      </trkpt>
      <trkpt lat="42.406733" lon="8.91259">
        <ele>1880.4</ele>
        <time>2022-09-09T12:00:10Z</time>
      </trkpt>
      <trkpt lat="42.406753" lon="8.912607">
        <ele>1879.2</ele>
        <time>2022-09-09T12:00:15Z</time>
      </trkpt>
      <trkpt lat="42.406773" lon="8.91261">
        <ele>1878.6</ele>
        <time>2022-09-09T12:00:20Z</time>
      </trkpt>
      <trkpt lat="42.406818" lon="8.912648">
        <ele>1877.0</ele>
        <time>2022-09-09T12:00:34Z</time>
      </trkpt>
      <trkpt lat="42.406818" lon="8.912657">
        <ele>1876.8</ele>
        <time>2022-09-09T12:00:35Z</time>
      </trkpt>
      <trkpt lat="42.406783" lon="8.912748">
        <ele>1873.6</ele>
        <time>2022-09-09T12:00:47Z</time>
      </trkpt>
      <trkpt lat="42.40677" lon="8.912815">
        <ele>1871.6</ele>
        <time>2022-09-09T12:00:57Z</time>
      </trkpt>
      <trkpt lat="42.406788" lon="8.912857">
        <ele>1869.4</ele>
        <time>2022-09-09T12:01:06Z</time>
      </trkpt>
      <trkpt lat="42.406822" lon="8.91289">
        <ele>1866.8</ele>
        <time>2022-09-09T12:01:16Z</time>
      </trkpt>
      <trkpt lat="42.406827" lon="8.912893">
        <ele>1866.6</ele>
        <time>2022-09-09T12:01:17Z</time>
      </trkpt>
      <trkpt lat="42.40682" lon="8.912927">
        <ele>1866.6</ele>
        <time>2022-09-09T12:01:22Z</time>
      </trkpt>
      <trkpt lat="42.406773" lon="8.912947">
        <ele>1866.0</ele>
        <time>2022-09-09T12:01:29Z</time>
      </trkpt>
      <trkpt lat="42.406712" lon="8.912968">
        <ele>1864.2</ele>
        <time>2022-09-09T12:01:37Z</time>
      </trkpt>
      <trkpt lat="42.406702" lon="8.913035">
        <ele>1862.4</ele>
        <time>2022-09-09T12:01:44Z</time>
      </trkpt>
      <trkpt lat="42.406727" lon="8.913162">
        <ele>1860.4</ele>
        <time>2022-09-09T12:01:57Z</time>
      </trkpt>
      <trkpt lat="42.406758" lon="8.91318">
        <ele>1859.8</ele>
        <time>2022-09-09T12:02:03Z</time>
      </trkpt>
      <trkpt lat="42.406727" lon="8.913253">
        <ele>1859.0</ele>
        <time>2022-09-09T12:02:13Z</time>
      </trkpt>
      <trkpt lat="42.406697" lon="8.913293">
        <ele>1858.2</ele>
        <time>2022-09-09T12:02:21Z</time>
      </trkpt>
      <trkpt lat="42.40671" lon="8.913333">
        <ele>1856.8</ele>
        <time>2022-09-09T12:02:33Z</time>
      </trkpt>
      <trkpt lat="42.406718" lon="8.913337">
        <ele>1856.6</ele>
        <time>2022-09-09T12:02:37Z</time>
      </trkpt>
      <trkpt lat="42.40674" lon="8.913322">
        <ele>1856.0</ele>
        <time>2022-09-09T12:02:43Z</time>
      </trkpt>
      <trkpt lat="42.406757" lon="8.913373">
        <ele>1853.6</ele>
        <time>2022-09-09T12:02:56Z</time>
      </trkpt>
      <trkpt lat="42.406767" lon="8.913392">
        <ele>1852.4</ele>
        <time>2022-09-09T12:03:05Z</time>
      </trkpt>
      <trkpt lat="42.406768" lon="8.913415">
        <ele>1850.6</ele>
        <time>2022-09-09T12:03:15Z</time>
      </trkpt>
      <trkpt lat="42.406793" lon="8.913407">
        <ele>1849.2</ele>
        <time>2022-09-09T12:03:21Z</time>
      </trkpt>
      <trkpt lat="42.406818" lon="8.913355">
        <ele>1848.0</ele>
        <time>2022-09-09T12:03:30Z</time>
      </trkpt>
      <trkpt lat="42.40686" lon="8.913322">
        <ele>1848.2</ele>
        <time>2022-09-09T12:03:42Z</time>
      </trkpt>
      <trkpt lat="42.406915" lon="8.913302">
        <ele>1845.4</ele>
        <time>2022-09-09T12:04:04Z</time>
      </trkpt>
      <trkpt lat="42.40692" lon="8.9133">
        <ele>1845.0</ele>
        <time>2022-09-09T12:04:05Z</time>
      </trkpt>
      <trkpt lat="42.406983" lon="8.91363">
        <ele>1841.0</ele>
        <time>2022-09-09T12:04:31Z</time>
      </trkpt>
      <trkpt lat="42.407035" lon="8.91374">
        <ele>1839.4</ele>
        <time>2022-09-09T12:04:42Z</time>
      </trkpt>
      <trkpt lat="42.407037" lon="8.91375">
        <ele>1839.4</ele>
        <time>2022-09-09T12:04:43Z</time>
      </trkpt>
      <trkpt lat="42.407012" lon="8.91378">
        <ele>1838.2</ele>
        <time>2022-09-09T12:04:50Z</time>
      </trkpt>
      <trkpt lat="42.406978" lon="8.913848">
        <ele>1834.4</ele>
        <time>2022-09-09T12:05:07Z</time>
      </trkpt>
      <trkpt lat="42.406917" lon="8.91381">
        <ele>1831.6</ele>
        <time>2022-09-09T12:05:19Z</time>
      </trkpt>
      <trkpt lat="42.406912" lon="8.91381">
        <ele>1831.2</ele>
        <time>2022-09-09T12:05:20Z</time>
      </trkpt>
      <trkpt lat="42.406898" lon="8.913848">
        <ele>1830.0</ele>
        <time>2022-09-09T12:05:26Z</time>
      </trkpt>
      <trkpt lat="42.40687" lon="8.913842">
        <ele>1829.0</ele>
        <time>2022-09-09T12:05:32Z</time>
      </trkpt>
      <trkpt lat="42.406842" lon="8.913822">
        <ele>1826.8</ele>
        <time>2022-09-09T12:05:40Z</time>
      </trkpt>
      <trkpt lat="42.406838" lon="8.913877">
        <ele>1825.2</ele>
        <time>2022-09-09T12:05:48Z</time>
      </trkpt>
      <trkpt lat="42.406863" lon="8.913947">
        <ele>1823.4</ele>
        <time>2022-09-09T12:06:02Z</time>
      </trkpt>
      <trkpt lat="42.406865" lon="8.913987">
        <ele>1821.4</ele>
        <time>2022-09-09T12:06:14Z</time>
      </trkpt>
      <trkpt lat="42.40687" lon="8.914013">
        <ele>1821.0</ele>
        <time>2022-09-09T12:06:19Z</time>
      </trkpt>
      <trkpt lat="42.406848" lon="8.91403">
        <ele>1819.4</ele>
        <time>2022-09-09T12:06:28Z</time>
      </trkpt>
      <trkpt lat="42.40683" lon="8.914052">
        <ele>1817.6</ele>
        <time>2022-09-09T12:06:36Z</time>
      </trkpt>
      <trkpt lat="42.406815" lon="8.914097">
        <ele>1816.2</ele>
        <time>2022-09-09T12:06:47Z</time>
      </trkpt>
      <trkpt lat="42.40682" lon="8.914137">
        <ele>1813.8</ele>
        <time>2022-09-09T12:06:56Z</time>
      </trkpt>
      <trkpt lat="42.406793" lon="8.914195">
        <ele>1811.0</ele>
        <time>2022-09-09T12:07:08Z</time>
      </trkpt>
      <trkpt lat="42.406715" lon="8.914212">
        <ele>1808.0</ele>
        <time>2022-09-09T12:07:26Z</time>
      </trkpt>
      <trkpt lat="42.406688" lon="8.914208">
        <ele>1806.8</ele>
        <time>2022-09-09T12:07:32Z</time>
      </trkpt>
      <trkpt lat="42.406672" lon="8.914273">
        <ele>1803.2</ele>
        <time>2022-09-09T12:07:50Z</time>
      </trkpt>
      <trkpt lat="42.406633" lon="8.914285">
        <ele>1801.0</ele>
        <time>2022-09-09T12:07:58Z</time>
      </trkpt>
      <trkpt lat="42.406572" lon="8.914318">
        <ele>1800.0</ele>
        <time>2022-09-09T12:08:05Z</time>
      </trkpt>
      <trkpt lat="42.406562" lon="8.914325">
        <ele>1800.0</ele>
        <time>2022-09-09T12:08:06Z</time>
      </trkpt>
      <trkpt lat="42.406502" lon="8.914393">
        <ele>1798.0</ele>
        <time>2022-09-09T12:08:13Z</time>
      </trkpt>
      <trkpt lat="42.406463" lon="8.914422">
        <ele>1796.2</ele>
        <time>2022-09-09T12:08:22Z</time>
      </trkpt>
      <trkpt lat="42.406417" lon="8.914483">
        <ele>1796.0</ele>
        <time>2022-09-09T12:08:30Z</time>
      </trkpt>
      <trkpt lat="42.406397" lon="8.914437">
        <ele>1795.4</ele>
        <time>2022-09-09T12:08:44Z</time>
      </trkpt>
      <trkpt lat="42.406402" lon="8.914443">
        <ele>1795.4</ele>
        <time>2022-09-09T12:08:47Z</time>
      </trkpt>
      <trkpt lat="42.406298" lon="8.914477">
        <ele>1779.4</ele>
        <time>2022-09-09T12:11:11Z</time>
      </trkpt>
      <trkpt lat="42.406133" lon="8.914533">
        <ele>1776.4</ele>
        <time>2022-09-09T12:11:24Z</time>
      </trkpt>
      <trkpt lat="42.406013" lon="8.914563">
        <ele>1775.2</ele>
        <time>2022-09-09T12:11:31Z</time>
      </trkpt>
      <trkpt lat="42.405998" lon="8.914577">
        <ele>1775.0</ele>
        <time>2022-09-09T12:11:32Z</time>
      </trkpt>
      <trkpt lat="42.40602" lon="8.914507">
        <ele>1773.6</ele>
        <time>2022-09-09T12:11:39Z</time>
      </trkpt>
      <trkpt lat="42.40601" lon="8.914475">
        <ele>1773.0</ele>
        <time>2022-09-09T12:11:42Z</time>
      </trkpt>
      <trkpt lat="42.405987" lon="8.914447">
        <ele>1772.4</ele>
        <time>2022-09-09T12:11:46Z</time>
      </trkpt>
      <trkpt lat="42.405955" lon="8.91444">
        <ele>1772.2</ele>
        <time>2022-09-09T12:11:50Z</time>
      </trkpt>
      <trkpt lat="42.405907" lon="8.914445">
        <ele>1771.2</ele>
        <time>2022-09-09T12:11:56Z</time>
      </trkpt>
      <trkpt lat="42.405863" lon="8.914347">
        <ele>1768.4</ele>
        <time>2022-09-09T12:12:09Z</time>
      </trkpt>
      <trkpt lat="42.405798" lon="8.914332">
        <ele>1766.6</ele>
        <time>2022-09-09T12:12:20Z</time>
      </trkpt>
      <trkpt lat="42.405755" lon="8.914327">
        <ele>1763.4</ele>
        <time>2022-09-09T12:12:34Z</time>
      </trkpt>
      <trkpt lat="42.405713" lon="8.91431">
        <ele>1759.8</ele>
        <time>2022-09-09T12:12:48Z</time>
      </trkpt>
      <trkpt lat="42.40571" lon="8.914307">
        <ele>1759.6</ele>
        <time>2022-09-09T12:12:49Z</time>
      </trkpt>
      <trkpt lat="42.405703" lon="8.914363">
        <ele>1758.2</ele>
        <time>2022-09-09T12:12:57Z</time>
      </trkpt>
      <trkpt lat="42.405685" lon="8.914498">
        <ele>1753.2</ele>
        <time>2022-09-09T12:13:26Z</time>
      </trkpt>
      <trkpt lat="42.4057" lon="8.914547">
        <ele>1751.8</ele>
        <time>2022-09-09T12:13:34Z</time>
      </trkpt>
      <trkpt lat="42.405675" lon="8.914667">
        <ele>1749.2</ele>
        <time>2022-09-09T12:13:57Z</time>
      </trkpt>
      <trkpt lat="42.405707" lon="8.914763">
        <ele>1746.2</ele>
        <time>2022-09-09T12:14:13Z</time>
      </trkpt>
      <trkpt lat="42.40572" lon="8.914778">
        <ele>1745.2</ele>
        <time>2022-09-09T12:14:18Z</time>
      </trkpt>
      <trkpt lat="42.405723" lon="8.914818">
        <ele>1744.4</ele>
        <time>2022-09-09T12:14:25Z</time>
      </trkpt>
      <trkpt lat="42.405713" lon="8.914892">
        <ele>1742.8</ele>
        <time>2022-09-09T12:14:34Z</time>
      </trkpt>
      <trkpt lat="42.405715" lon="8.91495">
        <ele>1740.6</ele>
        <time>2022-09-09T12:14:43Z</time>
      </trkpt>
      <trkpt lat="42.405715" lon="8.915015">
        <ele>1737.0</ele>
        <time>2022-09-09T12:15:28Z</time>
      </trkpt>
      <trkpt lat="42.405705" lon="8.915142">
        <ele>1728.2</ele>
        <time>2022-09-09T12:16:01Z</time>
      </trkpt>
      <trkpt lat="42.405718" lon="8.915157">
        <ele>1727.4</ele>
        <time>2022-09-09T12:16:04Z</time>
      </trkpt>
      <trkpt lat="42.40572" lon="8.91516">
        <ele>1727.0</ele>
        <time>2022-09-09T12:16:05Z</time>
      </trkpt>
      <trkpt lat="42.405772" lon="8.91519">
        <ele>1724.2</ele>
        <time>2022-09-09T12:16:19Z</time>
      </trkpt>
      <trkpt lat="42.405707" lon="8.915342">
        <ele>1716.4</ele>
        <time>2022-09-09T12:16:57Z</time>
      </trkpt>
      <trkpt lat="42.405725" lon="8.915372">
        <ele>1713.0</ele>
        <time>2022-09-09T12:17:18Z</time>
      </trkpt>
      <trkpt lat="42.405722" lon="8.915375">
        <ele>1712.8</ele>
        <time>2022-09-09T12:17:19Z</time>
      </trkpt>
      <trkpt lat="42.40569" lon="8.915437">
        <ele>1711.2</ele>
        <time>2022-09-09T12:17:30Z</time>
      </trkpt>
      <trkpt lat="42.405642" lon="8.91557">
        <ele>1707.6</ele>
        <time>2022-09-09T12:17:47Z</time>
      </trkpt>
      <trkpt lat="42.405615" lon="8.915628">
        <ele>1707.4</ele>
        <time>2022-09-09T12:17:53Z</time>
      </trkpt>
      <trkpt lat="42.405553" lon="8.915677">
        <ele>1705.0</ele>
        <time>2022-09-09T12:18:05Z</time>
      </trkpt>
      <trkpt lat="42.405505" lon="8.915773">
        <ele>1702.2</ele>
        <time>2022-09-09T12:18:23Z</time>
      </trkpt>
      <trkpt lat="42.405447" lon="8.915867">
        <ele>1698.8</ele>
        <time>2022-09-09T12:18:43Z</time>
      </trkpt>
      <trkpt lat="42.405447" lon="8.915878">
        <ele>1698.6</ele>
        <time>2022-09-09T12:18:44Z</time>
      </trkpt>
      <trkpt lat="42.405438" lon="8.915943">
        <ele>1696.4</ele>
        <time>2022-09-09T12:18:52Z</time>
      </trkpt>
      <trkpt lat="42.405412" lon="8.916005">
        <ele>1693.2</ele>
        <time>2022-09-09T12:19:02Z</time>
      </trkpt>
      <trkpt lat="42.40538" lon="8.915973">
        <ele>1691.6</ele>
        <time>2022-09-09T12:19:10Z</time>
      </trkpt>
      <trkpt lat="42.405347" lon="8.916012">
        <ele>1690.8</ele>
        <time>2022-09-09T12:19:17Z</time>
      </trkpt>
      <trkpt lat="42.405362" lon="8.916082">
        <ele>1690.6</ele>
        <time>2022-09-09T12:19:27Z</time>
      </trkpt>
      <trkpt lat="42.40537" lon="8.916147">
        <ele>1689.8</ele>
        <time>2022-09-09T12:19:36Z</time>
      </trkpt>
      <trkpt lat="42.4054" lon="8.916208">
        <ele>1689.0</ele>
        <time>2022-09-09T12:19:54Z</time>
      </trkpt>
      <trkpt lat="42.405425" lon="8.916282">
        <ele>1689.2</ele>
        <time>2022-09-09T12:20:06Z</time>
      </trkpt>
      <trkpt lat="42.405322" lon="8.91653">
        <ele>1684.2</ele>
        <time>2022-09-09T12:20:50Z</time>
      </trkpt>
      <trkpt lat="42.405293" lon="8.916598">
        <ele>1683.0</ele>
        <time>2022-09-09T12:20:59Z</time>
      </trkpt>
      <trkpt lat="42.405222" lon="8.916652">
        <ele>1682.0</ele>
        <time>2022-09-09T12:21:09Z</time>
      </trkpt>
      <trkpt lat="42.405195" lon="8.916708">
        <ele>1681.4</ele>
        <time>2022-09-09T12:21:16Z</time>
      </trkpt>
      <trkpt lat="42.405197" lon="8.916792">
        <ele>1681.2</ele>
        <time>2022-09-09T12:21:24Z</time>
      </trkpt>
      <trkpt lat="42.405125" lon="8.916882">
        <ele>1679.8</ele>
        <time>2022-09-09T12:21:40Z</time>
      </trkpt>
      <trkpt lat="42.405122" lon="8.916887">
        <ele>1679.8</ele>
        <time>2022-09-09T12:21:41Z</time>
      </trkpt>
      <trkpt lat="42.4051" lon="8.916922">
        <ele>1678.6</ele>
        <time>2022-09-09T12:21:52Z</time>
      </trkpt>
      <trkpt lat="42.40513" lon="8.916927">
        <ele>1678.4</ele>
        <time>2022-09-09T12:22:10Z</time>
      </trkpt>
      <trkpt lat="42.40517" lon="8.916925">
        <ele>1676.8</ele>
        <time>2022-09-09T12:22:24Z</time>
      </trkpt>
      <trkpt lat="42.40519" lon="8.916987">
        <ele>1674.8</ele>
        <time>2022-09-09T12:22:40Z</time>
      </trkpt>
      <trkpt lat="42.40519" lon="8.917035">
        <ele>1674.2</ele>
        <time>2022-09-09T12:22:48Z</time>
      </trkpt>
      <trkpt lat="42.4052" lon="8.917103">
        <ele>1672.4</ele>
        <time>2022-09-09T12:23:03Z</time>
      </trkpt>
      <trkpt lat="42.405192" lon="8.917133">
        <ele>1669.6</ele>
        <time>2022-09-09T12:23:15Z</time>
      </trkpt>
      <trkpt lat="42.40511" lon="8.917202">
        <ele>1666.4</ele>
        <time>2022-09-09T12:23:34Z</time>
      </trkpt>
      <trkpt lat="42.405112" lon="8.917212">
        <ele>1666.2</ele>
        <time>2022-09-09T12:23:35Z</time>
      </trkpt>
      <trkpt lat="42.405157" lon="8.91724">
        <ele>1665.8</ele>
        <time>2022-09-09T12:23:41Z</time>
      </trkpt>
      <trkpt lat="42.405182" lon="8.917298">
        <ele>1664.6</ele>
        <time>2022-09-09T12:23:51Z</time>
      </trkpt>
      <trkpt lat="42.40516" lon="8.917357">
        <ele>1662.6</ele>
        <time>2022-09-09T12:24:03Z</time>
      </trkpt>
      <trkpt lat="42.405078" lon="8.917485">
        <ele>1661.8</ele>
        <time>2022-09-09T12:24:29Z</time>
      </trkpt>
      <trkpt lat="42.40508" lon="8.917495">
        <ele>1661.8</ele>
        <time>2022-09-09T12:24:31Z</time>
      </trkpt>
      <trkpt lat="42.40507" lon="8.917607">
        <ele>1660.4</ele>
        <time>2022-09-09T12:24:44Z</time>
      </trkpt>
      <trkpt lat="42.405025" lon="8.917692">
        <ele>1658.0</ele>
        <time>2022-09-09T12:24:57Z</time>
      </trkpt>
      <trkpt lat="42.40502" lon="8.917748">
        <ele>1656.6</ele>
        <time>2022-09-09T12:25:07Z</time>
      </trkpt>
      <trkpt lat="42.405007" lon="8.917782">
        <ele>1655.6</ele>
        <time>2022-09-09T12:25:16Z</time>
      </trkpt>
      <trkpt lat="42.405018" lon="8.917823">
        <ele>1654.8</ele>
        <time>2022-09-09T12:25:24Z</time>
      </trkpt>
      <trkpt lat="42.40506" lon="8.917898">
        <ele>1653.2</ele>
        <time>2022-09-09T12:25:42Z</time>
      </trkpt>
      <trkpt lat="42.405038" lon="8.917935">
        <ele>1650.8</ele>
        <time>2022-09-09T12:25:55Z</time>
      </trkpt>
      <trkpt lat="42.40502" lon="8.91793">
        <ele>1649.6</ele>
        <time>2022-09-09T12:26:02Z</time>
      </trkpt>
      <trkpt lat="42.404993" lon="8.917922">
        <ele>1648.4</ele>
        <time>2022-09-09T12:26:10Z</time>
      </trkpt>
      <trkpt lat="42.404983" lon="8.917955">
        <ele>1647.8</ele>
        <time>2022-09-09T12:26:20Z</time>
      </trkpt>
      <trkpt lat="42.405003" lon="8.917985">
        <ele>1646.2</ele>
        <time>2022-09-09T12:26:30Z</time>
      </trkpt>
      <trkpt lat="42.405003" lon="8.91799">
        <ele>1646.2</ele>
        <time>2022-09-09T12:26:31Z</time>
      </trkpt>
      <trkpt lat="42.405017" lon="8.91804">
        <ele>1644.6</ele>
        <time>2022-09-09T12:26:40Z</time>
      </trkpt>
      <trkpt lat="42.404985" lon="8.918127">
        <ele>1636.8</ele>
        <time>2022-09-09T12:27:17Z</time>
      </trkpt>
      <trkpt lat="42.404962" lon="8.918183">
        <ele>1635.6</ele>
        <time>2022-09-09T12:27:22Z</time>
      </trkpt>
      <trkpt lat="42.404995" lon="8.918213">
        <ele>1634.8</ele>
        <time>2022-09-09T12:27:26Z</time>
      </trkpt>
      <trkpt lat="42.405078" lon="8.918252">
        <ele>1632.4</ele>
        <time>2022-09-09T12:27:35Z</time>
      </trkpt>
      <trkpt lat="42.405027" lon="8.918365">
        <ele>1628.8</ele>
        <time>2022-09-09T12:27:49Z</time>
      </trkpt>
      <trkpt lat="42.405062" lon="8.918375">
        <ele>1627.8</ele>
        <time>2022-09-09T12:27:58Z</time>
      </trkpt>
      <trkpt lat="42.405068" lon="8.91837">
        <ele>1627.8</ele>
        <time>2022-09-09T12:27:59Z</time>
      </trkpt>
      <trkpt lat="42.405055" lon="8.918403">
        <ele>1624.0</ele>
        <time>2022-09-09T12:29:15Z</time>
      </trkpt>
      <trkpt lat="42.40501" lon="8.918398">
        <ele>1624.2</ele>
        <time>2022-09-09T12:29:23Z</time>
      </trkpt>
      <trkpt lat="42.404932" lon="8.918445">
        <ele>1624.0</ele>
        <time>2022-09-09T12:29:36Z</time>
      </trkpt>
      <trkpt lat="42.404853" lon="8.918478">
        <ele>1625.2</ele>
        <time>2022-09-09T12:29:46Z</time>
      </trkpt>
      <trkpt lat="42.40484" lon="8.918492">
        <ele>1625.6</ele>
        <time>2022-09-09T12:29:48Z</time>
      </trkpt>
      <trkpt lat="42.404803" lon="8.918502">
        <ele>1624.6</ele>
        <time>2022-09-09T12:29:59Z</time>
      </trkpt>
      <trkpt lat="42.40471" lon="8.918553">
        <ele>1624.2</ele>
        <time>2022-09-09T12:30:11Z</time>
      </trkpt>
      <trkpt lat="42.404702" lon="8.918592">
        <ele>1622.6</ele>
        <time>2022-09-09T12:30:16Z</time>
      </trkpt>
      <trkpt lat="42.40472" lon="8.918657">
        <ele>1621.6</ele>
        <time>2022-09-09T12:30:26Z</time>
      </trkpt>
      <trkpt lat="42.404637" lon="8.918732">
        <ele>1616.0</ele>
        <time>2022-09-09T12:30:49Z</time>
      </trkpt>
      <trkpt lat="42.404625" lon="8.918738">
        <ele>1615.8</ele>
        <time>2022-09-09T12:30:51Z</time>
      </trkpt>
      <trkpt lat="42.404463" lon="8.918788">
        <ele>1607.6</ele>
        <time>2022-09-09T12:31:26Z</time>
      </trkpt>
      <trkpt lat="42.404407" lon="8.918855">
        <ele>1605.4</ele>
        <time>2022-09-09T12:31:40Z</time>
      </trkpt>
      <trkpt lat="42.40439" lon="8.918865">
        <ele>1604.8</ele>
        <time>2022-09-09T12:31:45Z</time>
      </trkpt>
      <trkpt lat="42.404362" lon="8.91889">
        <ele>1603.2</ele>
        <time>2022-09-09T12:31:52Z</time>
      </trkpt>
      <trkpt lat="42.404348" lon="8.918957">
        <ele>1601.4</ele>
        <time>2022-09-09T12:32:00Z</time>
      </trkpt>
      <trkpt lat="42.404323" lon="8.918982">
        <ele>1600.6</ele>
        <time>2022-09-09T12:32:07Z</time>
      </trkpt>
      <trkpt lat="42.404323" lon="8.919112">
        <ele>1595.2</ele>
        <time>2022-09-09T12:32:30Z</time>
      </trkpt>
      <trkpt lat="42.404305" lon="8.919112">
        <ele>1594.0</ele>
        <time>2022-09-09T12:32:37Z</time>
      </trkpt>
      <trkpt lat="42.404287" lon="8.919092">
        <ele>1592.4</ele>
        <time>2022-09-09T12:32:45Z</time>
      </trkpt>
      <trkpt lat="42.404282" lon="8.919092">
        <ele>1590.8</ele>
        <time>2022-09-09T12:32:51Z</time>
      </trkpt>
      <trkpt lat="42.404277" lon="8.919102">
        <ele>1589.8</ele>
        <time>2022-09-09T12:32:57Z</time>
      </trkpt>
      <trkpt lat="42.404258" lon="8.919093">
        <ele>1587.6</ele>
        <time>2022-09-09T12:33:06Z</time>
      </trkpt>
      <trkpt lat="42.404265" lon="8.91913">
        <ele>1582.2</ele>
        <time>2022-09-09T12:33:25Z</time>
      </trkpt>
      <trkpt lat="42.404265" lon="8.919132">
        <ele>1582.0</ele>
        <time>2022-09-09T12:33:26Z</time>
      </trkpt>
      <trkpt lat="42.404265" lon="8.919185">
        <ele>1580.8</ele>
        <time>2022-09-09T12:33:32Z</time>
      </trkpt>
      <trkpt lat="42.404235" lon="8.919252">
        <ele>1579.4</ele>
        <time>2022-09-09T12:33:41Z</time>
      </trkpt>
      <trkpt lat="42.40425" lon="8.919348">
        <ele>1577.6</ele>
        <time>2022-09-09T12:33:50Z</time>
      </trkpt>
      <trkpt lat="42.404262" lon="8.919405">
        <ele>1576.8</ele>
        <time>2022-09-09T12:33:55Z</time>
      </trkpt>
      <trkpt lat="42.404263" lon="8.91943">
        <ele>1576.0</ele>
        <time>2022-09-09T12:33:57Z</time>
      </trkpt>
      <trkpt lat="42.404272" lon="8.919503">
        <ele>1574.2</ele>
        <time>2022-09-09T12:34:03Z</time>
      </trkpt>
      <trkpt lat="42.404373" lon="8.91984">
        <ele>1567.8</ele>
        <time>2022-09-09T12:34:30Z</time>
      </trkpt>
      <trkpt lat="42.404463" lon="8.919965">
        <ele>1566.2</ele>
        <time>2022-09-09T12:34:42Z</time>
      </trkpt>
      <trkpt lat="42.404475" lon="8.919978">
        <ele>1566.2</ele>
        <time>2022-09-09T12:34:43Z</time>
      </trkpt>
      <trkpt lat="42.404415" lon="8.920127">
        <ele>1564.6</ele>
        <time>2022-09-09T12:34:53Z</time>
      </trkpt>
      <trkpt lat="42.40437" lon="8.920107">
        <ele>1561.2</ele>
        <time>2022-09-09T12:35:10Z</time>
      </trkpt>
      <trkpt lat="42.404358" lon="8.920133">
        <ele>1559.6</ele>
        <time>2022-09-09T12:35:16Z</time>
      </trkpt>
      <trkpt lat="42.40435" lon="8.920207">
        <ele>1557.2</ele>
        <time>2022-09-09T12:35:24Z</time>
      </trkpt>
      <trkpt lat="42.404405" lon="8.9203">
        <ele>1555.4</ele>
        <time>2022-09-09T12:35:33Z</time>
      </trkpt>
      <trkpt lat="42.404422" lon="8.920337">
        <ele>1554.2</ele>
        <time>2022-09-09T12:35:36Z</time>
      </trkpt>
      <trkpt lat="42.404388" lon="8.920405">
        <ele>1552.6</ele>
        <time>2022-09-09T12:35:42Z</time>
      </trkpt>
      <trkpt lat="42.404455" lon="8.920535">
        <ele>1550.0</ele>
        <time>2022-09-09T12:35:55Z</time>
      </trkpt>
      <trkpt lat="42.404465" lon="8.920573">
        <ele>1548.6</ele>
        <time>2022-09-09T12:36:00Z</time>
      </trkpt>
      <trkpt lat="42.40445" lon="8.920535">
        <ele>1546.4</ele>
        <time>2022-09-09T12:36:09Z</time>
      </trkpt>
      <trkpt lat="42.404433" lon="8.920513">
        <ele>1546.4</ele>
        <time>2022-09-09T12:36:12Z</time>
      </trkpt>
      <trkpt lat="42.404458" lon="8.920427">
        <ele>1544.4</ele>
        <time>2022-09-09T12:36:23Z</time>
      </trkpt>
      <trkpt lat="42.404448" lon="8.9204">
        <ele>1543.0</ele>
        <time>2022-09-09T12:36:28Z</time>
      </trkpt>
      <trkpt lat="42.404422" lon="8.920395">
        <ele>1542.2</ele>
        <time>2022-09-09T12:36:34Z</time>
      </trkpt>
      <trkpt lat="42.404352" lon="8.920407">
        <ele>1538.6</ele>
        <time>2022-09-09T12:36:46Z</time>
      </trkpt>
      <trkpt lat="42.404345" lon="8.920412">
        <ele>1538.4</ele>
        <time>2022-09-09T12:36:47Z</time>
      </trkpt>
      <trkpt lat="42.404425" lon="8.920512">
        <ele>1536.2</ele>
        <time>2022-09-09T12:36:57Z</time>
      </trkpt>
      <trkpt lat="42.404462" lon="8.920635">
        <ele>1534.6</ele>
        <time>2022-09-09T12:37:06Z</time>
      </trkpt>
      <trkpt lat="42.404472" lon="8.9208">
        <ele>1532.0</ele>
        <time>2022-09-09T12:37:20Z</time>
      </trkpt>
      <trkpt lat="42.404468" lon="8.920812">
        <ele>1531.6</ele>
        <time>2022-09-09T12:37:21Z</time>
      </trkpt>
      <trkpt lat="42.404433" lon="8.920875">
        <ele>1530.4</ele>
        <time>2022-09-09T12:37:27Z</time>
      </trkpt>
      <trkpt lat="42.404357" lon="8.920928">
        <ele>1528.2</ele>
        <time>2022-09-09T12:37:35Z</time>
      </trkpt>
      <trkpt lat="42.404275" lon="8.920993">
        <ele>1527.0</ele>
        <time>2022-09-09T12:37:42Z</time>
      </trkpt>
      <trkpt lat="42.404255" lon="8.921065">
        <ele>1526.8</ele>
        <time>2022-09-09T12:37:46Z</time>
      </trkpt>
      <trkpt lat="42.404288" lon="8.921143">
        <ele>1525.8</ele>
        <time>2022-09-09T12:37:51Z</time>
      </trkpt>
      <trkpt lat="42.404297" lon="8.921158">
        <ele>1525.8</ele>
        <time>2022-09-09T12:37:52Z</time>
      </trkpt>
      <trkpt lat="42.4042" lon="8.92121">
        <ele>1523.8</ele>
        <time>2022-09-09T12:38:00Z</time>
      </trkpt>
      <trkpt lat="42.404182" lon="8.92127">
        <ele>1523.0</ele>
        <time>2022-09-09T12:38:04Z</time>
      </trkpt>
      <trkpt lat="42.404148" lon="8.921267">
        <ele>1519.8</ele>
        <time>2022-09-09T12:38:10Z</time>
      </trkpt>
      <trkpt lat="42.404102" lon="8.92127">
        <ele>1519.4</ele>
        <time>2022-09-09T12:38:16Z</time>
      </trkpt>
      <trkpt lat="42.404058" lon="8.921102">
        <ele>1517.2</ele>
        <time>2022-09-09T12:38:29Z</time>
      </trkpt>
      <trkpt lat="42.40395" lon="8.921197">
        <ele>1514.4</ele>
        <time>2022-09-09T12:38:40Z</time>
      </trkpt>
      <trkpt lat="42.403943" lon="8.921178">
        <ele>1514.0</ele>
        <time>2022-09-09T12:38:41Z</time>
      </trkpt>
      <trkpt lat="42.403957" lon="8.921275">
        <ele>1510.6</ele>
        <time>2022-09-09T12:38:53Z</time>
      </trkpt>
      <trkpt lat="42.403937" lon="8.92131">
        <ele>1509.0</ele>
        <time>2022-09-09T12:39:00Z</time>
      </trkpt>
      <trkpt lat="42.403933" lon="8.921325">
        <ele>1508.4</ele>
        <time>2022-09-09T12:39:03Z</time>
      </trkpt>
      <trkpt lat="42.403952" lon="8.921422">
        <ele>1504.0</ele>
        <time>2022-09-09T12:39:19Z</time>
      </trkpt>
      <trkpt lat="42.40394" lon="8.92142">
        <ele>1503.4</ele>
        <time>2022-09-09T12:39:20Z</time>
      </trkpt>
      <trkpt lat="42.403798" lon="8.921463">
        <ele>1498.4</ele>
        <time>2022-09-09T12:39:34Z</time>
      </trkpt>
      <trkpt lat="42.403555" lon="8.921457">
        <ele>1494.4</ele>
        <time>2022-09-09T12:39:49Z</time>
      </trkpt>
      <trkpt lat="42.403475" lon="8.921453">
        <ele>1492.8</ele>
        <time>2022-09-09T12:39:55Z</time>
      </trkpt>
      <trkpt lat="42.403472" lon="8.921455">
        <ele>1492.4</ele>
        <time>2022-09-09T12:39:56Z</time>
      </trkpt>
      <trkpt lat="42.403453" lon="8.921458">
        <ele>1491.2</ele>
        <time>2022-09-09T12:40:08Z</time>
      </trkpt>
      <trkpt lat="42.403382" lon="8.921358">
        <ele>1487.0</ele>
        <time>2022-09-09T12:40:37Z</time>
      </trkpt>
      <trkpt lat="42.40332" lon="8.921337">
        <ele>1486.8</ele>
        <time>2022-09-09T12:40:41Z</time>
      </trkpt>
      <trkpt lat="42.40329" lon="8.921332">
        <ele>1486.4</ele>
        <time>2022-09-09T12:40:43Z</time>
      </trkpt>
      <trkpt lat="42.403207" lon="8.921345">
        <ele>1485.6</ele>
        <time>2022-09-09T12:40:48Z</time>
      </trkpt>
      <trkpt lat="42.40316" lon="8.921357">
        <ele>1485.2</ele>
        <time>2022-09-09T12:40:51Z</time>
      </trkpt>
      <trkpt lat="42.403208" lon="8.92155">
        <ele>1482.2</ele>
        <time>2022-09-09T12:41:09Z</time>
      </trkpt>
      <trkpt lat="42.403228" lon="8.921603">
        <ele>1480.8</ele>
        <time>2022-09-09T12:41:16Z</time>
      </trkpt>
      <trkpt lat="42.40328" lon="8.921642">
        <ele>1477.4</ele>
        <time>2022-09-09T12:41:28Z</time>
      </trkpt>
      <trkpt lat="42.403318" lon="8.921645">
        <ele>1476.2</ele>
        <time>2022-09-09T12:41:36Z</time>
      </trkpt>
      <trkpt lat="42.403322" lon="8.92165">
        <ele>1475.8</ele>
        <time>2022-09-09T12:41:37Z</time>
      </trkpt>
      <trkpt lat="42.403338" lon="8.92161">
        <ele>1474.8</ele>
        <time>2022-09-09T12:41:45Z</time>
      </trkpt>
      <trkpt lat="42.403315" lon="8.921598">
        <ele>1474.0</ele>
        <time>2022-09-09T12:41:48Z</time>
      </trkpt>
      <trkpt lat="42.403285" lon="8.921597">
        <ele>1472.8</ele>
        <time>2022-09-09T12:41:51Z</time>
      </trkpt>
      <trkpt lat="42.403195" lon="8.921623">
        <ele>1471.4</ele>
        <time>2022-09-09T12:41:59Z</time>
      </trkpt>
      <trkpt lat="42.403057" lon="8.921702">
        <ele>1468.8</ele>
        <time>2022-09-09T12:42:12Z</time>
      </trkpt>
      <trkpt lat="42.403047" lon="8.921708">
        <ele>1468.6</ele>
        <time>2022-09-09T12:42:14Z</time>
      </trkpt>
      <trkpt lat="42.403137" lon="8.921805">
        <ele>1467.6</ele>
        <time>2022-09-09T12:42:20Z</time>
      </trkpt>
      <trkpt lat="42.403145" lon="8.921822">
        <ele>1467.6</ele>
        <time>2022-09-09T12:42:21Z</time>
      </trkpt>
      <trkpt lat="42.403165" lon="8.921933">
        <ele>1467.2</ele>
        <time>2022-09-09T12:42:32Z</time>
      </trkpt>
      <trkpt lat="42.403193" lon="8.922002">
        <ele>1466.4</ele>
        <time>2022-09-09T12:42:37Z</time>
      </trkpt>
      <trkpt lat="42.403245" lon="8.922072">
        <ele>1465.0</ele>
        <time>2022-09-09T12:42:43Z</time>
      </trkpt>
      <trkpt lat="42.40329" lon="8.92213">
        <ele>1464.4</ele>
        <time>2022-09-09T12:42:47Z</time>
      </trkpt>
      <trkpt lat="42.403328" lon="8.922157">
        <ele>1463.6</ele>
        <time>2022-09-09T12:42:51Z</time>
      </trkpt>
      <trkpt lat="42.403383" lon="8.922218">
        <ele>1462.4</ele>
        <time>2022-09-09T12:42:58Z</time>
      </trkpt>
      <trkpt lat="42.403413" lon="8.922232">
        <ele>1462.2</ele>
        <time>2022-09-09T12:43:01Z</time>
      </trkpt>
      <trkpt lat="42.40346" lon="8.922227">
        <ele>1460.8</ele>
        <time>2022-09-09T12:43:07Z</time>
      </trkpt>
      <trkpt lat="42.403525" lon="8.922202">
        <ele>1458.2</ele>
        <time>2022-09-09T12:43:16Z</time>
      </trkpt>
      <trkpt lat="42.403565" lon="8.922242">
        <ele>1457.6</ele>
        <time>2022-09-09T12:43:21Z</time>
      </trkpt>
      <trkpt lat="42.403573" lon="8.92225">
        <ele>1457.6</ele>
        <time>2022-09-09T12:43:22Z</time>
      </trkpt>
      <trkpt lat="42.403515" lon="8.922287">
        <ele>1456.4</ele>
        <time>2022-09-09T12:43:28Z</time>
      </trkpt>
      <trkpt lat="42.403505" lon="8.922338">
        <ele>1455.6</ele>
        <time>2022-09-09T12:43:32Z</time>
      </trkpt>
      <trkpt lat="42.403503" lon="8.922402">
        <ele>1453.8</ele>
        <time>2022-09-09T12:43:37Z</time>
      </trkpt>
      <trkpt lat="42.403442" lon="8.922497">
        <ele>1452.4</ele>
        <time>2022-09-09T12:43:48Z</time>
      </trkpt>
      <trkpt lat="42.403503" lon="8.92335">
        <ele>1412.2</ele>
        <time>2022-09-10T05:04:25Z</time>
      </trkpt>
      <trkpt lat="42.403503" lon="8.92335">
        <ele>1412.0</ele>
        <time>2022-09-10T05:04:30Z</time>
      </trkpt>
      <trkpt lat="42.403382" lon="8.923152">
        <ele>1412.8</ele>
        <time>2022-09-10T05:04:49Z</time>
      </trkpt>
      <trkpt lat="42.403338" lon="8.92313">
        <ele>1413.0</ele>
        <time>2022-09-10T05:04:52Z</time>
      </trkpt>
      <trkpt lat="42.403307" lon="8.923132">
        <ele>1413.0</ele>
        <time>2022-09-10T05:04:54Z</time>
      </trkpt>
      <trkpt lat="42.403283" lon="8.923097">
        <ele>1413.0</ele>
        <time>2022-09-10T05:04:58Z</time>
      </trkpt>
      <trkpt lat="42.403225" lon="8.923075">
        <ele>1413.0</ele>
        <time>2022-09-10T05:05:05Z</time>
      </trkpt>
      <trkpt lat="42.403175" lon="8.923075">
        <ele>1412.8</ele>
        <time>2022-09-10T05:05:11Z</time>
      </trkpt>
      <trkpt lat="42.402997" lon="8.923093">
        <ele>1413.6</ele>
        <time>2022-09-10T05:05:35Z</time>
      </trkpt>
      <trkpt lat="42.402993" lon="8.923095">
        <ele>1413.6</ele>
        <time>2022-09-10T05:05:36Z</time>
      </trkpt>
      <trkpt lat="42.403003" lon="8.923158">
        <ele>1413.2</ele>
        <time>2022-09-10T05:05:44Z</time>
      </trkpt>
      <trkpt lat="42.403057" lon="8.923253">
        <ele>1412.0</ele>
        <time>2022-09-10T05:05:54Z</time>
      </trkpt>
      <trkpt lat="42.403137" lon="8.923367">
        <ele>1410.8</ele>
        <time>2022-09-10T05:06:04Z</time>
      </trkpt>
      <trkpt lat="42.40322" lon="8.92346">
        <ele>1409.8</ele>
        <time>2022-09-10T05:06:12Z</time>
      </trkpt>
      <trkpt lat="42.403243" lon="8.923503">
        <ele>1409.4</ele>
        <time>2022-09-10T05:06:15Z</time>
      </trkpt>
      <trkpt lat="42.403272" lon="8.923618">
        <ele>1408.8</ele>
        <time>2022-09-10T05:06:22Z</time>
      </trkpt>
      <trkpt lat="42.403265" lon="8.923833">
        <ele>1408.4</ele>
        <time>2022-09-10T05:06:36Z</time>
      </trkpt>
      <trkpt lat="42.403267" lon="8.924013">
        <ele>1409.8</ele>
        <time>2022-09-10T05:06:49Z</time>
      </trkpt>
      <trkpt lat="42.403222" lon="8.924077">
        <ele>1410.6</ele>
        <time>2022-09-10T05:06:55Z</time>
      </trkpt>
      <trkpt lat="42.403192" lon="8.924098">
        <ele>1411.0</ele>
        <time>2022-09-10T05:06:58Z</time>
      </trkpt>
      <trkpt lat="42.403077" lon="8.924165">
        <ele>1410.6</ele>
        <time>2022-09-10T05:07:11Z</time>
      </trkpt>
      <trkpt lat="42.403003" lon="8.924175">
        <ele>1410.8</ele>
        <time>2022-09-10T05:07:20Z</time>
      </trkpt>
      <trkpt lat="42.402943" lon="8.924203">
        <ele>1411.2</ele>
        <time>2022-09-10T05:07:27Z</time>
      </trkpt>
      <trkpt lat="42.402917" lon="8.924208">
        <ele>1411.6</ele>
        <time>2022-09-10T05:07:30Z</time>
      </trkpt>
      <trkpt lat="42.402877" lon="8.924172">
        <ele>1412.4</ele>
        <time>2022-09-10T05:07:35Z</time>
      </trkpt>
      <trkpt lat="42.402818" lon="8.924132">
        <ele>1413.4</ele>
        <time>2022-09-10T05:07:41Z</time>
      </trkpt>
      <trkpt lat="42.402763" lon="8.924093">
        <ele>1414.2</ele>
        <time>2022-09-10T05:07:46Z</time>
      </trkpt>
      <trkpt lat="42.402753" lon="8.924063">
        <ele>1414.6</ele>
        <time>2022-09-10T05:07:48Z</time>
      </trkpt>
      <trkpt lat="42.402737" lon="8.923987">
        <ele>1415.2</ele>
        <time>2022-09-10T05:07:52Z</time>
      </trkpt>
      <trkpt lat="42.402698" lon="8.923923">
        <ele>1415.6</ele>
        <time>2022-09-10T05:07:56Z</time>
      </trkpt>
      <trkpt lat="42.402623" lon="8.923857">
        <ele>1416.6</ele>
        <time>2022-09-10T05:08:02Z</time>
      </trkpt>
      <trkpt lat="42.402588" lon="8.92382">
        <ele>1416.6</ele>
        <time>2022-09-10T05:08:06Z</time>
      </trkpt>
      <trkpt lat="42.402558" lon="8.923753">
        <ele>1416.6</ele>
        <time>2022-09-10T05:08:10Z</time>
      </trkpt>
      <trkpt lat="42.402548" lon="8.923715">
        <ele>1416.6</ele>
        <time>2022-09-10T05:08:12Z</time>
      </trkpt>
      <trkpt lat="42.402525" lon="8.923637">
        <ele>1416.4</ele>
        <time>2022-09-10T05:08:18Z</time>
      </trkpt>
      <trkpt lat="42.402433" lon="8.923512">
        <ele>1416.8</ele>
        <time>2022-09-10T05:08:32Z</time>
      </trkpt>
      <trkpt lat="42.402407" lon="8.92348">
        <ele>1416.6</ele>
        <time>2022-09-10T05:08:36Z</time>
      </trkpt>
      <trkpt lat="42.402365" lon="8.923432">
        <ele>1416.2</ele>
        <time>2022-09-10T05:08:42Z</time>
      </trkpt>
      <trkpt lat="42.402327" lon="8.92337">
        <ele>1417.6</ele>
        <time>2022-09-10T05:08:49Z</time>
      </trkpt>
      <trkpt lat="42.40228" lon="8.923345">
        <ele>1418.4</ele>
        <time>2022-09-10T05:08:55Z</time>
      </trkpt>
      <trkpt lat="42.402185" lon="8.923308">
        <ele>1422.4</ele>
        <time>2022-09-10T05:09:07Z</time>
      </trkpt>
      <trkpt lat="42.402102" lon="8.923233">
        <ele>1420.0</ele>
        <time>2022-09-10T05:09:18Z</time>
      </trkpt>
      <trkpt lat="42.40194" lon="8.923163">
        <ele>1417.8</ele>
        <time>2022-09-10T05:09:33Z</time>
      </trkpt>
      <trkpt lat="42.401885" lon="8.92308">
        <ele>1419.4</ele>
        <time>2022-09-10T05:09:41Z</time>
      </trkpt>
      <trkpt lat="42.401735" lon="8.92291">
        <ele>1421.2</ele>
        <time>2022-09-10T05:09:59Z</time>
      </trkpt>
      <trkpt lat="42.40165" lon="8.92288">
        <ele>1421.2</ele>
        <time>2022-09-10T05:10:07Z</time>
      </trkpt>
      <trkpt lat="42.401508" lon="8.922873">
        <ele>1419.2</ele>
        <time>2022-09-10T05:10:21Z</time>
      </trkpt>
      <trkpt lat="42.401433" lon="8.922878">
        <ele>1417.6</ele>
        <time>2022-09-10T05:10:28Z</time>
      </trkpt>
      <trkpt lat="42.401372" lon="8.922867">
        <ele>1416.6</ele>
        <time>2022-09-10T05:10:34Z</time>
      </trkpt>
      <trkpt lat="42.401312" lon="8.922845">
        <ele>1415.8</ele>
        <time>2022-09-10T05:10:40Z</time>
      </trkpt>
      <trkpt lat="42.40122" lon="8.922823">
        <ele>1415.4</ele>
        <time>2022-09-10T05:10:48Z</time>
      </trkpt>
      <trkpt lat="42.401132" lon="8.922778">
        <ele>1414.6</ele>
        <time>2022-09-10T05:10:57Z</time>
      </trkpt>
      <trkpt lat="42.401123" lon="8.922768">
        <ele>1414.2</ele>
        <time>2022-09-10T05:10:58Z</time>
      </trkpt>
      <trkpt lat="42.4011" lon="8.922715">
        <ele>1414.2</ele>
        <time>2022-09-10T05:11:02Z</time>
      </trkpt>
      <trkpt lat="42.401052" lon="8.922667">
        <ele>1414.6</ele>
        <time>2022-09-10T05:11:07Z</time>
      </trkpt>
      <trkpt lat="42.400955" lon="8.922618">
        <ele>1414.0</ele>
        <time>2022-09-10T05:11:16Z</time>
      </trkpt>
      <trkpt lat="42.400947" lon="8.92261">
        <ele>1413.8</ele>
        <time>2022-09-10T05:11:17Z</time>
      </trkpt>
      <trkpt lat="42.400892" lon="8.922517">
        <ele>1412.8</ele>
        <time>2022-09-10T05:11:24Z</time>
      </trkpt>
      <trkpt lat="42.400842" lon="8.922467">
        <ele>1412.8</ele>
        <time>2022-09-10T05:11:29Z</time>
      </trkpt>
      <trkpt lat="42.4008" lon="8.922378">
        <ele>1412.6</ele>
        <time>2022-09-10T05:11:35Z</time>
      </trkpt>
      <trkpt lat="42.400715" lon="8.922402">
        <ele>1412.6</ele>
        <time>2022-09-10T05:11:42Z</time>
      </trkpt>
      <trkpt lat="42.400618" lon="8.922405">
        <ele>1412.2</ele>
        <time>2022-09-10T05:11:51Z</time>
      </trkpt>
      <trkpt lat="42.40055" lon="8.92243">
        <ele>1412.4</ele>
        <time>2022-09-10T05:11:57Z</time>
      </trkpt>
      <trkpt lat="42.400492" lon="8.922372">
        <ele>1412.4</ele>
        <time>2022-09-10T05:12:04Z</time>
      </trkpt>
      <trkpt lat="42.400408" lon="8.922343">
        <ele>1412.6</ele>
        <time>2022-09-10T05:12:11Z</time>
      </trkpt>
      <trkpt lat="42.400402" lon="8.922335">
        <ele>1412.4</ele>
        <time>2022-09-10T05:12:12Z</time>
      </trkpt>
      <trkpt lat="42.400152" lon="8.92217">
        <ele>1412.4</ele>
        <time>2022-09-10T05:12:33Z</time>
      </trkpt>
      <trkpt lat="42.400138" lon="8.922168">
        <ele>1412.4</ele>
        <time>2022-09-10T05:12:34Z</time>
      </trkpt>
      <trkpt lat="42.399847" lon="8.922108">
        <ele>1409.8</ele>
        <time>2022-09-10T05:12:59Z</time>
      </trkpt>
      <trkpt lat="42.399768" lon="8.922123">
        <ele>1408.4</ele>
        <time>2022-09-10T05:13:07Z</time>
      </trkpt>
      <trkpt lat="42.399653" lon="8.922077">
        <ele>1407.6</ele>
        <time>2022-09-10T05:13:18Z</time>
      </trkpt>
      <trkpt lat="42.399512" lon="8.92202">
        <ele>1409.4</ele>
        <time>2022-09-10T05:13:32Z</time>
      </trkpt>
      <trkpt lat="42.399398" lon="8.922">
        <ele>1408.8</ele>
        <time>2022-09-10T05:13:43Z</time>
      </trkpt>
      <trkpt lat="42.399377" lon="8.922003">
        <ele>1408.6</ele>
        <time>2022-09-10T05:13:45Z</time>
      </trkpt>
      <trkpt lat="42.399325" lon="8.922055">
        <ele>1406.6</ele>
        <time>2022-09-10T05:13:51Z</time>
      </trkpt>
      <trkpt lat="42.399272" lon="8.922115">
        <ele>1404.6</ele>
        <time>2022-09-10T05:13:57Z</time>
      </trkpt>
      <trkpt lat="42.39923" lon="8.922107">
        <ele>1402.0</ele>
        <time>2022-09-10T05:14:14Z</time>
      </trkpt>
      <trkpt lat="42.399063" lon="8.922017">
        <ele>1403.4</ele>
        <time>2022-09-10T05:14:52Z</time>
      </trkpt>
      <trkpt lat="42.399022" lon="8.921983">
        <ele>1402.8</ele>
        <time>2022-09-10T05:15:00Z</time>
      </trkpt>
      <trkpt lat="42.398982" lon="8.921932">
        <ele>1403.2</ele>
        <time>2022-09-10T05:15:05Z</time>
      </trkpt>
      <trkpt lat="42.398972" lon="8.921923">
        <ele>1403.2</ele>
        <time>2022-09-10T05:15:06Z</time>
      </trkpt>
      <trkpt lat="42.398915" lon="8.921887">
        <ele>1404.6</ele>
        <time>2022-09-10T05:15:12Z</time>
      </trkpt>
      <trkpt lat="42.398802" lon="8.921878">
        <ele>1405.4</ele>
        <time>2022-09-10T05:15:20Z</time>
      </trkpt>
      <trkpt lat="42.398742" lon="8.921875">
        <ele>1405.4</ele>
        <time>2022-09-10T05:15:24Z</time>
      </trkpt>
      <trkpt lat="42.398667" lon="8.921847">
        <ele>1405.4</ele>
        <time>2022-09-10T05:15:29Z</time>
      </trkpt>
      <trkpt lat="42.398598" lon="8.921795">
        <ele>1405.2</ele>
        <time>2022-09-10T05:15:34Z</time>
      </trkpt>
      <trkpt lat="42.398528" lon="8.921772">
        <ele>1405.8</ele>
        <time>2022-09-10T05:15:39Z</time>
      </trkpt>
      <trkpt lat="42.398455" lon="8.921775">
        <ele>1406.0</ele>
        <time>2022-09-10T05:15:47Z</time>
      </trkpt>
      <trkpt lat="42.398357" lon="8.921735">
        <ele>1407.0</ele>
        <time>2022-09-10T05:16:00Z</time>
      </trkpt>
      <trkpt lat="42.39829" lon="8.921725">
        <ele>1408.2</ele>
        <time>2022-09-10T05:16:09Z</time>
      </trkpt>
      <trkpt lat="42.398253" lon="8.92172">
        <ele>1408.2</ele>
        <time>2022-09-10T05:16:14Z</time>
      </trkpt>
      <trkpt lat="42.398218" lon="8.921705">
        <ele>1408.4</ele>
        <time>2022-09-10T05:16:20Z</time>
      </trkpt>
      <trkpt lat="42.398192" lon="8.921702">
        <ele>1408.6</ele>
        <time>2022-09-10T05:16:24Z</time>
      </trkpt>
      <trkpt lat="42.398138" lon="8.921763">
        <ele>1409.4</ele>
        <time>2022-09-10T05:16:34Z</time>
      </trkpt>
      <trkpt lat="42.398098" lon="8.921783">
        <ele>1410.0</ele>
        <time>2022-09-10T05:16:39Z</time>
      </trkpt>
      <trkpt lat="42.398068" lon="8.921755">
        <ele>1410.2</ele>
        <time>2022-09-10T05:16:43Z</time>
      </trkpt>
      <trkpt lat="42.398013" lon="8.921553">
        <ele>1410.0</ele>
        <time>2022-09-10T05:17:05Z</time>
      </trkpt>
      <trkpt lat="42.398008" lon="8.921535">
        <ele>1409.4</ele>
        <time>2022-09-10T05:17:10Z</time>
      </trkpt>
      <trkpt lat="42.398063" lon="8.921473">
        <ele>1408.6</ele>
        <time>2022-09-10T05:17:37Z</time>
      </trkpt>
      <trkpt lat="42.398108" lon="8.921518">
        <ele>1408.6</ele>
        <time>2022-09-10T05:18:20Z</time>
      </trkpt>
      <trkpt lat="42.39788" lon="8.921538">
        <ele>1408.6</ele>
        <time>2022-09-10T05:19:04Z</time>
      </trkpt>
      <trkpt lat="42.397802" lon="8.921555">
        <ele>1407.4</ele>
        <time>2022-09-10T05:19:12Z</time>
      </trkpt>
      <trkpt lat="42.397498" lon="8.921688">
        <ele>1408.2</ele>
        <time>2022-09-10T05:19:29Z</time>
      </trkpt>
      <trkpt lat="42.397443" lon="8.921715">
        <ele>1408.8</ele>
        <time>2022-09-10T05:19:33Z</time>
      </trkpt>
      <trkpt lat="42.397295" lon="8.921715">
        <ele>1411.2</ele>
        <time>2022-09-10T05:19:44Z</time>
      </trkpt>
      <trkpt lat="42.397243" lon="8.921708">
        <ele>1411.4</ele>
        <time>2022-09-10T05:19:51Z</time>
      </trkpt>
      <trkpt lat="42.397198" lon="8.921712">
        <ele>1411.6</ele>
        <time>2022-09-10T05:19:58Z</time>
      </trkpt>
      <trkpt lat="42.397163" lon="8.921705">
        <ele>1410.2</ele>
        <time>2022-09-10T05:20:03Z</time>
      </trkpt>
      <trkpt lat="42.397137" lon="8.921725">
        <ele>1409.6</ele>
        <time>2022-09-10T05:20:12Z</time>
      </trkpt>
      <trkpt lat="42.39713" lon="8.921735">
        <ele>1409.6</ele>
        <time>2022-09-10T05:20:23Z</time>
      </trkpt>
      <trkpt lat="42.397095" lon="8.921737">
        <ele>1409.4</ele>
        <time>2022-09-10T05:20:30Z</time>
      </trkpt>
      <trkpt lat="42.39703" lon="8.921723">
        <ele>1411.0</ele>
        <time>2022-09-10T05:21:03Z</time>
      </trkpt>
      <trkpt lat="42.397027" lon="8.921713">
        <ele>1411.0</ele>
        <time>2022-09-10T05:21:08Z</time>
      </trkpt>
      <trkpt lat="42.396915" lon="8.921728">
        <ele>1411.6</ele>
        <time>2022-09-10T05:21:25Z</time>
      </trkpt>
      <trkpt lat="42.396827" lon="8.92173">
        <ele>1411.6</ele>
        <time>2022-09-10T05:21:31Z</time>
      </trkpt>
      <trkpt lat="42.396718" lon="8.921787">
        <ele>1411.8</ele>
        <time>2022-09-10T05:21:38Z</time>
      </trkpt>
      <trkpt lat="42.3967" lon="8.921817">
        <ele>1411.2</ele>
        <time>2022-09-10T05:21:42Z</time>
      </trkpt>
      <trkpt lat="42.396493" lon="8.921963">
        <ele>1408.6</ele>
        <time>2022-09-10T05:22:11Z</time>
      </trkpt>
      <trkpt lat="42.396377" lon="8.922022">
        <ele>1407.4</ele>
        <time>2022-09-10T05:22:33Z</time>
      </trkpt>
      <trkpt lat="42.39634" lon="8.922032">
        <ele>1407.4</ele>
        <time>2022-09-10T05:22:40Z</time>
      </trkpt>
      <trkpt lat="42.396325" lon="8.922042">
        <ele>1407.4</ele>
        <time>2022-09-10T05:22:43Z</time>
      </trkpt>
      <trkpt lat="42.396292" lon="8.922087">
        <ele>1407.2</ele>
        <time>2022-09-10T05:22:53Z</time>
      </trkpt>
      <trkpt lat="42.396168" lon="8.922158">
        <ele>1407.2</ele>
        <time>2022-09-10T05:23:15Z</time>
      </trkpt>
      <trkpt lat="42.39611" lon="8.922138">
        <ele>1407.6</ele>
        <time>2022-09-10T05:23:23Z</time>
      </trkpt>
      <trkpt lat="42.396082" lon="8.922123">
        <ele>1408.2</ele>
        <time>2022-09-10T05:23:26Z</time>
      </trkpt>
      <trkpt lat="42.396022" lon="8.922115">
        <ele>1408.6</ele>
        <time>2022-09-10T05:23:30Z</time>
      </trkpt>
      <trkpt lat="42.395963" lon="8.922148">
        <ele>1409.6</ele>
        <time>2022-09-10T05:23:36Z</time>
      </trkpt>
      <trkpt lat="42.395885" lon="8.922207">
        <ele>1410.4</ele>
        <time>2022-09-10T05:23:44Z</time>
      </trkpt>
      <trkpt lat="42.395773" lon="8.922252">
        <ele>1410.6</ele>
        <time>2022-09-10T05:23:54Z</time>
      </trkpt>
      <trkpt lat="42.395687" lon="8.922258">
        <ele>1411.2</ele>
        <time>2022-09-10T05:24:00Z</time>
      </trkpt>
      <trkpt lat="42.395593" lon="8.92232">
        <ele>1411.4</ele>
        <time>2022-09-10T05:24:07Z</time>
      </trkpt>
      <trkpt lat="42.395575" lon="8.922327">
        <ele>1411.4</ele>
        <time>2022-09-10T05:24:09Z</time>
      </trkpt>
      <trkpt lat="42.395567" lon="8.922327">
        <ele>1411.4</ele>
        <time>2022-09-10T05:24:10Z</time>
      </trkpt>
      <trkpt lat="42.39549" lon="8.92232">
        <ele>1411.6</ele>
        <time>2022-09-10T05:24:19Z</time>
      </trkpt>
      <trkpt lat="42.395447" lon="8.922363">
        <ele>1412.0</ele>
        <time>2022-09-10T05:24:26Z</time>
      </trkpt>
      <trkpt lat="42.395413" lon="8.922385">
        <ele>1412.4</ele>
        <time>2022-09-10T05:24:32Z</time>
      </trkpt>
      <trkpt lat="42.395373" lon="8.922407">
        <ele>1412.4</ele>
        <time>2022-09-10T05:24:41Z</time>
      </trkpt>
      <trkpt lat="42.39534" lon="8.922423">
        <ele>1412.4</ele>
        <time>2022-09-10T05:24:48Z</time>
      </trkpt>
      <trkpt lat="42.395313" lon="8.922445">
        <ele>1411.4</ele>
        <time>2022-09-10T05:24:53Z</time>
      </trkpt>
      <trkpt lat="42.3953" lon="8.922495">
        <ele>1410.4</ele>
        <time>2022-09-10T05:24:59Z</time>
      </trkpt>
      <trkpt lat="42.395293" lon="8.922527">
        <ele>1409.6</ele>
        <time>2022-09-10T05:25:03Z</time>
      </trkpt>
      <trkpt lat="42.39526" lon="8.922542">
        <ele>1408.4</ele>
        <time>2022-09-10T05:25:10Z</time>
      </trkpt>
      <trkpt lat="42.395218" lon="8.922558">
        <ele>1408.2</ele>
        <time>2022-09-10T05:25:18Z</time>
      </trkpt>
      <trkpt lat="42.395132" lon="8.922628">
        <ele>1409.0</ele>
        <time>2022-09-10T05:25:37Z</time>
      </trkpt>
      <trkpt lat="42.395028" lon="8.922668">
        <ele>1410.4</ele>
        <time>2022-09-10T05:25:50Z</time>
      </trkpt>
      <trkpt lat="42.394962" lon="8.922695">
        <ele>1412.0</ele>
        <time>2022-09-10T05:25:59Z</time>
      </trkpt>
      <trkpt lat="42.394918" lon="8.922732">
        <ele>1413.8</ele>
        <time>2022-09-10T05:26:11Z</time>
      </trkpt>
      <trkpt lat="42.394882" lon="8.922742">
        <ele>1415.8</ele>
        <time>2022-09-10T05:26:24Z</time>
      </trkpt>
      <trkpt lat="42.394873" lon="8.922737">
        <ele>1415.8</ele>
        <time>2022-09-10T05:26:25Z</time>
      </trkpt>
      <trkpt lat="42.39481" lon="8.922757">
        <ele>1416.8</ele>
        <time>2022-09-10T05:26:30Z</time>
      </trkpt>
      <trkpt lat="42.394763" lon="8.92276">
        <ele>1417.0</ele>
        <time>2022-09-10T05:26:33Z</time>
      </trkpt>
      <trkpt lat="42.394733" lon="8.922752">
        <ele>1417.6</ele>
        <time>2022-09-10T05:26:35Z</time>
      </trkpt>
      <trkpt lat="42.394652" lon="8.922715">
        <ele>1418.2</ele>
        <time>2022-09-10T05:26:41Z</time>
      </trkpt>
      <trkpt lat="42.394613" lon="8.922715">
        <ele>1418.8</ele>
        <time>2022-09-10T05:26:44Z</time>
      </trkpt>
      <trkpt lat="42.394555" lon="8.922715">
        <ele>1419.2</ele>
        <time>2022-09-10T05:26:54Z</time>
      </trkpt>
      <trkpt lat="42.394525" lon="8.92271">
        <ele>1419.8</ele>
        <time>2022-09-10T05:26:59Z</time>
      </trkpt>
      <trkpt lat="42.39444" lon="8.922682">
        <ele>1421.0</ele>
        <time>2022-09-10T05:27:21Z</time>
      </trkpt>
      <trkpt lat="42.394395" lon="8.922663">
        <ele>1421.2</ele>
        <time>2022-09-10T05:27:33Z</time>
      </trkpt>
      <trkpt lat="42.394378" lon="8.92265">
        <ele>1421.4</ele>
        <time>2022-09-10T05:27:37Z</time>
      </trkpt>
      <trkpt lat="42.394232" lon="8.922702">
        <ele>1422.6</ele>
        <time>2022-09-10T05:28:01Z</time>
      </trkpt>
      <trkpt lat="42.394162" lon="8.922668">
        <ele>1423.8</ele>
        <time>2022-09-10T05:28:15Z</time>
      </trkpt>
      <trkpt lat="42.394095" lon="8.922667">
        <ele>1425.8</ele>
        <time>2022-09-10T05:28:30Z</time>
      </trkpt>
      <trkpt lat="42.394023" lon="8.922677">
        <ele>1427.8</ele>
        <time>2022-09-10T05:28:43Z</time>
      </trkpt>
      <trkpt lat="42.39398" lon="8.922687">
        <ele>1428.8</ele>
        <time>2022-09-10T05:28:49Z</time>
      </trkpt>
      <trkpt lat="42.393877" lon="8.92274">
        <ele>1429.6</ele>
        <time>2022-09-10T05:29:03Z</time>
      </trkpt>
      <trkpt lat="42.393823" lon="8.92273">
        <ele>1430.6</ele>
        <time>2022-09-10T05:29:11Z</time>
      </trkpt>
      <trkpt lat="42.393782" lon="8.922715">
        <ele>1431.2</ele>
        <time>2022-09-10T05:29:19Z</time>
      </trkpt>
      <trkpt lat="42.39364" lon="8.922717">
        <ele>1432.0</ele>
        <time>2022-09-10T05:29:43Z</time>
      </trkpt>
      <trkpt lat="42.39363" lon="8.92271">
        <ele>1432.2</ele>
        <time>2022-09-10T05:29:44Z</time>
      </trkpt>
      <trkpt lat="42.393592" lon="8.922695">
        <ele>1432.2</ele>
        <time>2022-09-10T05:29:47Z</time>
      </trkpt>
      <trkpt lat="42.393403" lon="8.922658">
        <ele>1433.4</ele>
        <time>2022-09-10T05:30:03Z</time>
      </trkpt>
      <trkpt lat="42.393327" lon="8.922647">
        <ele>1434.0</ele>
        <time>2022-09-10T05:30:12Z</time>
      </trkpt>
      <trkpt lat="42.393248" lon="8.922608">
        <ele>1435.0</ele>
        <time>2022-09-10T05:30:21Z</time>
      </trkpt>
      <trkpt lat="42.393055" lon="8.922942">
        <ele>1438.8</ele>
        <time>2022-09-10T05:31:16Z</time>
      </trkpt>
      <trkpt lat="42.392957" lon="8.922943">
        <ele>1439.6</ele>
        <time>2022-09-10T05:31:28Z</time>
      </trkpt>
      <trkpt lat="42.392888" lon="8.922973">
        <ele>1440.2</ele>
        <time>2022-09-10T05:31:36Z</time>
      </trkpt>
      <trkpt lat="42.392762" lon="8.922988">
        <ele>1439.6</ele>
        <time>2022-09-10T05:31:53Z</time>
      </trkpt>
      <trkpt lat="42.392733" lon="8.92301">
        <ele>1439.4</ele>
        <time>2022-09-10T05:32:00Z</time>
      </trkpt>
      <trkpt lat="42.392693" lon="8.923067">
        <ele>1440.8</ele>
        <time>2022-09-10T05:32:10Z</time>
      </trkpt>
      <trkpt lat="42.39265" lon="8.9231">
        <ele>1441.4</ele>
        <time>2022-09-10T05:32:17Z</time>
      </trkpt>
      <trkpt lat="42.392635" lon="8.923122">
        <ele>1441.8</ele>
        <time>2022-09-10T05:32:20Z</time>
      </trkpt>
      <trkpt lat="42.392583" lon="8.92315">
        <ele>1442.4</ele>
        <time>2022-09-10T05:32:28Z</time>
      </trkpt>
      <trkpt lat="42.392562" lon="8.923227">
        <ele>1444.2</ele>
        <time>2022-09-10T05:32:47Z</time>
      </trkpt>
      <trkpt lat="42.39256" lon="8.923223">
        <ele>1444.2</ele>
        <time>2022-09-10T05:32:48Z</time>
      </trkpt>
      <trkpt lat="42.392508" lon="8.923152">
        <ele>1444.8</ele>
        <time>2022-09-10T05:33:02Z</time>
      </trkpt>
      <trkpt lat="42.392468" lon="8.923095">
        <ele>1444.6</ele>
        <time>2022-09-10T05:33:09Z</time>
      </trkpt>
      <trkpt lat="42.392398" lon="8.92303">
        <ele>1444.8</ele>
        <time>2022-09-10T05:33:19Z</time>
      </trkpt>
      <trkpt lat="42.392393" lon="8.92301">
        <ele>1445.4</ele>
        <time>2022-09-10T05:33:22Z</time>
      </trkpt>
      <trkpt lat="42.392378" lon="8.922958">
        <ele>1446.2</ele>
        <time>2022-09-10T05:33:29Z</time>
      </trkpt>
      <trkpt lat="42.392337" lon="8.922923">
        <ele>1447.0</ele>
        <time>2022-09-10T05:33:36Z</time>
      </trkpt>
      <trkpt lat="42.3923" lon="8.922912">
        <ele>1447.4</ele>
        <time>2022-09-10T05:33:41Z</time>
      </trkpt>
      <trkpt lat="42.392277" lon="8.922928">
        <ele>1448.0</ele>
        <time>2022-09-10T05:33:45Z</time>
      </trkpt>
      <trkpt lat="42.392242" lon="8.92297">
        <ele>1448.6</ele>
        <time>2022-09-10T05:33:54Z</time>
      </trkpt>
      <trkpt lat="42.392198" lon="8.922993">
        <ele>1449.2</ele>
        <time>2022-09-10T05:34:04Z</time>
      </trkpt>
      <trkpt lat="42.392142" lon="8.922988">
        <ele>1449.6</ele>
        <time>2022-09-10T05:34:13Z</time>
      </trkpt>
      <trkpt lat="42.392078" lon="8.92297">
        <ele>1450.4</ele>
        <time>2022-09-10T05:34:23Z</time>
      </trkpt>
      <trkpt lat="42.392077" lon="8.922985">
        <ele>1451.0</ele>
        <time>2022-09-10T05:34:26Z</time>
      </trkpt>
      <trkpt lat="42.39206" lon="8.92307">
        <ele>1451.4</ele>
        <time>2022-09-10T05:34:33Z</time>
      </trkpt>
      <trkpt lat="42.392015" lon="8.923127">
        <ele>1451.4</ele>
        <time>2022-09-10T05:34:41Z</time>
      </trkpt>
      <trkpt lat="42.391973" lon="8.923122">
        <ele>1451.8</ele>
        <time>2022-09-10T05:34:47Z</time>
      </trkpt>
      <trkpt lat="42.391923" lon="8.923117">
        <ele>1452.4</ele>
        <time>2022-09-10T05:34:54Z</time>
      </trkpt>
      <trkpt lat="42.391895" lon="8.923122">
        <ele>1452.8</ele>
        <time>2022-09-10T05:34:58Z</time>
      </trkpt>
      <trkpt lat="42.391843" lon="8.923097">
        <ele>1453.8</ele>
        <time>2022-09-10T05:35:04Z</time>
      </trkpt>
      <trkpt lat="42.391812" lon="8.923052">
        <ele>1454.4</ele>
        <time>2022-09-10T05:35:08Z</time>
      </trkpt>
      <trkpt lat="42.391797" lon="8.923075">
        <ele>1454.8</ele>
        <time>2022-09-10T05:35:13Z</time>
      </trkpt>
      <trkpt lat="42.391788" lon="8.92311">
        <ele>1455.4</ele>
        <time>2022-09-10T05:35:18Z</time>
      </trkpt>
      <trkpt lat="42.391785" lon="8.923108">
        <ele>1456.0</ele>
        <time>2022-09-10T05:35:29Z</time>
      </trkpt>
      <trkpt lat="42.391763" lon="8.923108">
        <ele>1456.6</ele>
        <time>2022-09-10T05:35:37Z</time>
      </trkpt>
      <trkpt lat="42.391743" lon="8.923115">
        <ele>1456.8</ele>
        <time>2022-09-10T05:35:43Z</time>
      </trkpt>
      <trkpt lat="42.391738" lon="8.923113">
        <ele>1456.8</ele>
        <time>2022-09-10T05:35:44Z</time>
      </trkpt>
      <trkpt lat="42.3917" lon="8.923058">
        <ele>1456.8</ele>
        <time>2022-09-10T05:35:56Z</time>
      </trkpt>
      <trkpt lat="42.391683" lon="8.923087">
        <ele>1457.2</ele>
        <time>2022-09-10T05:36:08Z</time>
      </trkpt>
      <trkpt lat="42.391668" lon="8.923147">
        <ele>1457.6</ele>
        <time>2022-09-10T05:36:38Z</time>
      </trkpt>
      <trkpt lat="42.391653" lon="8.923192">
        <ele>1457.6</ele>
        <time>2022-09-10T05:36:42Z</time>
      </trkpt>
      <trkpt lat="42.391632" lon="8.923238">
        <ele>1458.0</ele>
        <time>2022-09-10T05:36:46Z</time>
      </trkpt>
      <trkpt lat="42.391597" lon="8.923297">
        <ele>1458.4</ele>
        <time>2022-09-10T05:37:17Z</time>
      </trkpt>
      <trkpt lat="42.391337" lon="8.923597">
        <ele>1459.6</ele>
        <time>2022-09-10T05:40:20Z</time>
      </trkpt>
      <trkpt lat="42.391407" lon="8.923442">
        <ele>1459.8</ele>
        <time>2022-09-10T05:40:39Z</time>
      </trkpt>
      <trkpt lat="42.39142" lon="8.923347">
        <ele>1459.0</ele>
        <time>2022-09-10T05:40:46Z</time>
      </trkpt>
      <trkpt lat="42.391415" lon="8.923283">
        <ele>1459.8</ele>
        <time>2022-09-10T05:40:54Z</time>
      </trkpt>
      <trkpt lat="42.39141" lon="8.923218">
        <ele>1460.8</ele>
        <time>2022-09-10T05:41:03Z</time>
      </trkpt>
      <trkpt lat="42.391412" lon="8.923218">
        <ele>1461.2</ele>
        <time>2022-09-10T05:41:05Z</time>
      </trkpt>
      <trkpt lat="42.391385" lon="8.92324">
        <ele>1462.6</ele>
        <time>2022-09-10T05:41:13Z</time>
      </trkpt>
      <trkpt lat="42.39134" lon="8.92323">
        <ele>1464.8</ele>
        <time>2022-09-10T05:41:34Z</time>
      </trkpt>
      <trkpt lat="42.39133" lon="8.923222">
        <ele>1465.4</ele>
        <time>2022-09-10T05:41:38Z</time>
      </trkpt>
      <trkpt lat="42.391257" lon="8.923318">
        <ele>1468.8</ele>
        <time>2022-09-10T05:42:02Z</time>
      </trkpt>
      <trkpt lat="42.391237" lon="8.923318">
        <ele>1469.6</ele>
        <time>2022-09-10T05:42:10Z</time>
      </trkpt>
      <trkpt lat="42.391232" lon="8.923312">
        <ele>1469.8</ele>
        <time>2022-09-10T05:42:12Z</time>
      </trkpt>
      <trkpt lat="42.391193" lon="8.923247">
        <ele>1471.2</ele>
        <time>2022-09-10T05:42:25Z</time>
      </trkpt>
      <trkpt lat="42.39112" lon="8.923218">
        <ele>1472.6</ele>
        <time>2022-09-10T05:42:37Z</time>
      </trkpt>
      <trkpt lat="42.390983" lon="8.923232">
        <ele>1473.6</ele>
        <time>2022-09-10T05:42:52Z</time>
      </trkpt>
      <trkpt lat="42.390962" lon="8.92324">
        <ele>1473.8</ele>
        <time>2022-09-10T05:42:55Z</time>
      </trkpt>
      <trkpt lat="42.390947" lon="8.923225">
        <ele>1477.2</ele>
        <time>2022-09-10T05:43:19Z</time>
      </trkpt>
      <trkpt lat="42.390938" lon="8.923207">
        <ele>1477.4</ele>
        <time>2022-09-10T05:43:22Z</time>
      </trkpt>
      <trkpt lat="42.390912" lon="8.92327">
        <ele>1479.8</ele>
        <time>2022-09-10T05:43:35Z</time>
      </trkpt>
      <trkpt lat="42.39088" lon="8.923358">
        <ele>1480.8</ele>
        <time>2022-09-10T05:43:55Z</time>
      </trkpt>
      <trkpt lat="42.390822" lon="8.923473">
        <ele>1481.4</ele>
        <time>2022-09-10T05:44:12Z</time>
      </trkpt>
      <trkpt lat="42.390825" lon="8.923482">
        <ele>1481.4</ele>
        <time>2022-09-10T05:44:12Z</time>
      </trkpt>
      <trkpt lat="42.390773" lon="8.923513">
        <ele>1481.4</ele>
        <time>2022-09-10T05:44:23Z</time>
      </trkpt>
      <trkpt lat="42.390763" lon="8.923535">
        <ele>1481.4</ele>
        <time>2022-09-10T05:44:27Z</time>
      </trkpt>
      <trkpt lat="42.390752" lon="8.92356">
        <ele>1481.6</ele>
        <time>2022-09-10T05:44:31Z</time>
      </trkpt>
      <trkpt lat="42.390718" lon="8.923595">
        <ele>1481.4</ele>
        <time>2022-09-10T05:44:38Z</time>
      </trkpt>
      <trkpt lat="42.39072" lon="8.9236">
        <ele>1481.6</ele>
        <time>2022-09-10T05:44:39Z</time>
      </trkpt>
      <trkpt lat="42.390747" lon="8.92362">
        <ele>1482.2</ele>
        <time>2022-09-10T05:44:48Z</time>
      </trkpt>
      <trkpt lat="42.390732" lon="8.92364">
        <ele>1482.0</ele>
        <time>2022-09-10T05:44:53Z</time>
      </trkpt>
      <trkpt lat="42.39071" lon="8.923675">
        <ele>1482.0</ele>
        <time>2022-09-10T05:44:57Z</time>
      </trkpt>
      <trkpt lat="42.390682" lon="8.92368">
        <ele>1481.6</ele>
        <time>2022-09-10T05:45:03Z</time>
      </trkpt>
      <trkpt lat="42.39067" lon="8.92374">
        <ele>1482.0</ele>
        <time>2022-09-10T05:45:09Z</time>
      </trkpt>
      <trkpt lat="42.39067" lon="8.923822">
        <ele>1483.2</ele>
        <time>2022-09-10T05:45:16Z</time>
      </trkpt>
      <trkpt lat="42.3906" lon="8.923692">
        <ele>1487.8</ele>
        <time>2022-09-10T05:45:42Z</time>
      </trkpt>
      <trkpt lat="42.390592" lon="8.92369">
        <ele>1488.0</ele>
        <time>2022-09-10T05:45:43Z</time>
      </trkpt>
      <trkpt lat="42.390557" lon="8.923692">
        <ele>1487.6</ele>
        <time>2022-09-10T05:45:47Z</time>
      </trkpt>
      <trkpt lat="42.390528" lon="8.923743">
        <ele>1487.8</ele>
        <time>2022-09-10T05:45:53Z</time>
      </trkpt>
      <trkpt lat="42.390505" lon="8.923778">
        <ele>1488.2</ele>
        <time>2022-09-10T05:45:58Z</time>
      </trkpt>
      <trkpt lat="42.390472" lon="8.923758">
        <ele>1488.6</ele>
        <time>2022-09-10T05:46:04Z</time>
      </trkpt>
      <trkpt lat="42.390452" lon="8.923735">
        <ele>1489.0</ele>
        <time>2022-09-10T05:46:09Z</time>
      </trkpt>
      <trkpt lat="42.390435" lon="8.923738">
        <ele>1490.0</ele>
        <time>2022-09-10T05:46:15Z</time>
      </trkpt>
      <trkpt lat="42.390418" lon="8.923772">
        <ele>1492.8</ele>
        <time>2022-09-10T05:46:30Z</time>
      </trkpt>
      <trkpt lat="42.390337" lon="8.923808">
        <ele>1495.2</ele>
        <time>2022-09-10T05:46:47Z</time>
      </trkpt>
      <trkpt lat="42.390317" lon="8.92382">
        <ele>1495.4</ele>
        <time>2022-09-10T05:46:50Z</time>
      </trkpt>
      <trkpt lat="42.390148" lon="8.923832">
        <ele>1499.4</ele>
        <time>2022-09-10T05:47:25Z</time>
      </trkpt>
      <trkpt lat="42.390145" lon="8.923828">
        <ele>1499.4</ele>
        <time>2022-09-10T05:47:27Z</time>
      </trkpt>
      <trkpt lat="42.390138" lon="8.923902">
        <ele>1500.2</ele>
        <time>2022-09-10T05:47:41Z</time>
      </trkpt>
      <trkpt lat="42.390232" lon="8.923943">
        <ele>1503.6</ele>
        <time>2022-09-10T05:48:02Z</time>
      </trkpt>
      <trkpt lat="42.390272" lon="8.923958">
        <ele>1505.0</ele>
        <time>2022-09-10T05:48:10Z</time>
      </trkpt>
      <trkpt lat="42.390407" lon="8.923925">
        <ele>1507.4</ele>
        <time>2022-09-10T05:48:28Z</time>
      </trkpt>
      <trkpt lat="42.390417" lon="8.923925">
        <ele>1508.0</ele>
        <time>2022-09-10T05:48:30Z</time>
      </trkpt>
      <trkpt lat="42.390392" lon="8.923987">
        <ele>1508.6</ele>
        <time>2022-09-10T05:48:34Z</time>
      </trkpt>
      <trkpt lat="42.390342" lon="8.924102">
        <ele>1509.2</ele>
        <time>2022-09-10T05:48:41Z</time>
      </trkpt>
      <trkpt lat="42.390317" lon="8.92414">
        <ele>1509.8</ele>
        <time>2022-09-10T05:48:44Z</time>
      </trkpt>
      <trkpt lat="42.390277" lon="8.924127">
        <ele>1510.2</ele>
        <time>2022-09-10T05:48:48Z</time>
      </trkpt>
      <trkpt lat="42.39023" lon="8.924092">
        <ele>1511.4</ele>
        <time>2022-09-10T05:48:59Z</time>
      </trkpt>
      <trkpt lat="42.390157" lon="8.92412">
        <ele>1513.8</ele>
        <time>2022-09-10T05:49:15Z</time>
      </trkpt>
      <trkpt lat="42.390057" lon="8.924137">
        <ele>1517.6</ele>
        <time>2022-09-10T05:49:30Z</time>
      </trkpt>
      <trkpt lat="42.390053" lon="8.924217">
        <ele>1521.2</ele>
        <time>2022-09-10T05:49:37Z</time>
      </trkpt>
      <trkpt lat="42.390035" lon="8.924282">
        <ele>1521.0</ele>
        <time>2022-09-10T05:49:44Z</time>
      </trkpt>
      <trkpt lat="42.39002" lon="8.924323">
        <ele>1521.2</ele>
        <time>2022-09-10T05:49:49Z</time>
      </trkpt>
      <trkpt lat="42.389978" lon="8.92435">
        <ele>1520.6</ele>
        <time>2022-09-10T05:49:54Z</time>
      </trkpt>
      <trkpt lat="42.38995" lon="8.924408">
        <ele>1520.2</ele>
        <time>2022-09-10T05:50:01Z</time>
      </trkpt>
      <trkpt lat="42.389953" lon="8.924472">
        <ele>1522.2</ele>
        <time>2022-09-10T05:50:09Z</time>
      </trkpt>
      <trkpt lat="42.389953" lon="8.924533">
        <ele>1523.0</ele>
        <time>2022-09-10T05:50:15Z</time>
      </trkpt>
      <trkpt lat="42.389975" lon="8.924562">
        <ele>1523.0</ele>
        <time>2022-09-10T05:50:21Z</time>
      </trkpt>
      <trkpt lat="42.390003" lon="8.92456">
        <ele>1523.0</ele>
        <time>2022-09-10T05:50:26Z</time>
      </trkpt>
      <trkpt lat="42.390112" lon="8.924615">
        <ele>1524.6</ele>
        <time>2022-09-10T05:50:41Z</time>
      </trkpt>
      <trkpt lat="42.389838" lon="8.924512">
        <ele>1526.8</ele>
        <time>2022-09-10T05:50:53Z</time>
      </trkpt>
      <trkpt lat="42.390137" lon="8.924812">
        <ele>1528.0</ele>
        <time>2022-09-10T05:51:02Z</time>
      </trkpt>
      <trkpt lat="42.390142" lon="8.924785">
        <ele>1528.2</ele>
        <time>2022-09-10T05:51:04Z</time>
      </trkpt>
      <trkpt lat="42.39008" lon="8.924847">
        <ele>1528.4</ele>
        <time>2022-09-10T05:51:07Z</time>
      </trkpt>
      <trkpt lat="42.390037" lon="8.92486">
        <ele>1528.6</ele>
        <time>2022-09-10T05:51:10Z</time>
      </trkpt>
      <trkpt lat="42.389983" lon="8.924855">
        <ele>1528.6</ele>
        <time>2022-09-10T05:51:13Z</time>
      </trkpt>
      <trkpt lat="42.389942" lon="8.924845">
        <ele>1529.2</ele>
        <time>2022-09-10T05:51:16Z</time>
      </trkpt>
      <trkpt lat="42.389897" lon="8.924775">
        <ele>1531.4</ele>
        <time>2022-09-10T05:51:29Z</time>
      </trkpt>
      <trkpt lat="42.389875" lon="8.924753">
        <ele>1532.2</ele>
        <time>2022-09-10T05:51:34Z</time>
      </trkpt>
      <trkpt lat="42.389855" lon="8.924773">
        <ele>1532.8</ele>
        <time>2022-09-10T05:51:39Z</time>
      </trkpt>
      <trkpt lat="42.38981" lon="8.924778">
        <ele>1533.8</ele>
        <time>2022-09-10T05:51:48Z</time>
      </trkpt>
      <trkpt lat="42.389797" lon="8.924787">
        <ele>1534.2</ele>
        <time>2022-09-10T05:51:51Z</time>
      </trkpt>
      <trkpt lat="42.389773" lon="8.924795">
        <ele>1535.0</ele>
        <time>2022-09-10T05:51:56Z</time>
      </trkpt>
      <trkpt lat="42.389777" lon="8.924828">
        <ele>1535.2</ele>
        <time>2022-09-10T05:52:05Z</time>
      </trkpt>
      <trkpt lat="42.389773" lon="8.924855">
        <ele>1536.6</ele>
        <time>2022-09-10T05:52:17Z</time>
      </trkpt>
      <trkpt lat="42.38981" lon="8.92488">
        <ele>1537.2</ele>
        <time>2022-09-10T05:52:23Z</time>
      </trkpt>
      <trkpt lat="42.389835" lon="8.924902">
        <ele>1537.4</ele>
        <time>2022-09-10T05:52:27Z</time>
      </trkpt>
      <trkpt lat="42.389842" lon="8.924907">
        <ele>1538.6</ele>
        <time>2022-09-10T05:52:29Z</time>
      </trkpt>
      <trkpt lat="42.389795" lon="8.924902">
        <ele>1539.0</ele>
        <time>2022-09-10T05:52:39Z</time>
      </trkpt>
      <trkpt lat="42.389753" lon="8.924942">
        <ele>1540.4</ele>
        <time>2022-09-10T05:52:49Z</time>
      </trkpt>
      <trkpt lat="42.389735" lon="8.924962">
        <ele>1541.8</ele>
        <time>2022-09-10T05:52:55Z</time>
      </trkpt>
      <trkpt lat="42.389748" lon="8.925038">
        <ele>1548.6</ele>
        <time>2022-09-10T05:53:45Z</time>
      </trkpt>
      <trkpt lat="42.389748" lon="8.925053">
        <ele>1551.8</ele>
        <time>2022-09-10T05:54:07Z</time>
      </trkpt>
      <trkpt lat="42.389692" lon="8.92512">
        <ele>1554.0</ele>
        <time>2022-09-10T05:54:29Z</time>
      </trkpt>
      <trkpt lat="42.389688" lon="8.925132">
        <ele>1554.2</ele>
        <time>2022-09-10T05:54:30Z</time>
      </trkpt>
      <trkpt lat="42.389692" lon="8.9251">
        <ele>1554.6</ele>
        <time>2022-09-10T05:54:33Z</time>
      </trkpt>
      <trkpt lat="42.389547" lon="8.925112">
        <ele>1559.2</ele>
        <time>2022-09-10T05:55:25Z</time>
      </trkpt>
      <trkpt lat="42.389517" lon="8.925105">
        <ele>1559.4</ele>
        <time>2022-09-10T05:55:30Z</time>
      </trkpt>
      <trkpt lat="42.389485" lon="8.925142">
        <ele>1560.0</ele>
        <time>2022-09-10T05:55:35Z</time>
      </trkpt>
      <trkpt lat="42.389455" lon="8.925192">
        <ele>1560.2</ele>
        <time>2022-09-10T05:55:41Z</time>
      </trkpt>
      <trkpt lat="42.389317" lon="8.925235">
        <ele>1565.6</ele>
        <time>2022-09-10T05:56:04Z</time>
      </trkpt>
      <trkpt lat="42.389315" lon="8.925252">
        <ele>1566.2</ele>
        <time>2022-09-10T05:56:07Z</time>
      </trkpt>
      <trkpt lat="42.389315" lon="8.925258">
        <ele>1566.8</ele>
        <time>2022-09-10T05:56:09Z</time>
      </trkpt>
      <trkpt lat="42.389275" lon="8.925278">
        <ele>1567.0</ele>
        <time>2022-09-10T05:56:21Z</time>
      </trkpt>
      <trkpt lat="42.389243" lon="8.92529">
        <ele>1571.4</ele>
        <time>2022-09-10T05:57:01Z</time>
      </trkpt>
      <trkpt lat="42.389243" lon="8.9253">
        <ele>1572.0</ele>
        <time>2022-09-10T05:57:06Z</time>
      </trkpt>
      <trkpt lat="42.389202" lon="8.925308">
        <ele>1572.6</ele>
        <time>2022-09-10T05:57:14Z</time>
      </trkpt>
      <trkpt lat="42.389113" lon="8.925343">
        <ele>1574.6</ele>
        <time>2022-09-10T05:57:28Z</time>
      </trkpt>
      <trkpt lat="42.389077" lon="8.92535">
        <ele>1575.4</ele>
        <time>2022-09-10T05:57:33Z</time>
      </trkpt>
      <trkpt lat="42.38901" lon="8.925328">
        <ele>1576.2</ele>
        <time>2022-09-10T05:57:42Z</time>
      </trkpt>
      <trkpt lat="42.389003" lon="8.925325">
        <ele>1576.2</ele>
        <time>2022-09-10T05:57:43Z</time>
      </trkpt>
      <trkpt lat="42.388898" lon="8.925383">
        <ele>1578.2</ele>
        <time>2022-09-10T05:57:56Z</time>
      </trkpt>
      <trkpt lat="42.388893" lon="8.925385">
        <ele>1578.2</ele>
        <time>2022-09-10T05:57:57Z</time>
      </trkpt>
      <trkpt lat="42.388878" lon="8.925435">
        <ele>1581.0</ele>
        <time>2022-09-10T05:58:14Z</time>
      </trkpt>
      <trkpt lat="42.388847" lon="8.925477">
        <ele>1581.4</ele>
        <time>2022-09-10T05:58:18Z</time>
      </trkpt>
      <trkpt lat="42.388773" lon="8.92562">
        <ele>1582.0</ele>
        <time>2022-09-10T05:58:26Z</time>
      </trkpt>
      <trkpt lat="42.38874" lon="8.925718">
        <ele>1583.0</ele>
        <time>2022-09-10T05:58:32Z</time>
      </trkpt>
      <trkpt lat="42.388737" lon="8.925763">
        <ele>1583.2</ele>
        <time>2022-09-10T05:58:36Z</time>
      </trkpt>
      <trkpt lat="42.388707" lon="8.925688">
        <ele>1583.2</ele>
        <time>2022-09-10T05:58:41Z</time>
      </trkpt>
      <trkpt lat="42.38871" lon="8.925598">
        <ele>1584.0</ele>
        <time>2022-09-10T05:58:49Z</time>
      </trkpt>
      <trkpt lat="42.388687" lon="8.92553">
        <ele>1585.6</ele>
        <time>2022-09-10T05:59:03Z</time>
      </trkpt>
      <trkpt lat="42.388672" lon="8.925522">
        <ele>1586.0</ele>
        <time>2022-09-10T05:59:07Z</time>
      </trkpt>
      <trkpt lat="42.388648" lon="8.925435">
        <ele>1587.4</ele>
        <time>2022-09-10T05:59:21Z</time>
      </trkpt>
      <trkpt lat="42.388642" lon="8.925288">
        <ele>1589.6</ele>
        <time>2022-09-10T05:59:35Z</time>
      </trkpt>
      <trkpt lat="42.38864" lon="8.925262">
        <ele>1590.4</ele>
        <time>2022-09-10T05:59:39Z</time>
      </trkpt>
      <trkpt lat="42.388628" lon="8.925275">
        <ele>1591.2</ele>
        <time>2022-09-10T05:59:46Z</time>
      </trkpt>
      <trkpt lat="42.3886" lon="8.925278">
        <ele>1592.8</ele>
        <time>2022-09-10T05:59:55Z</time>
      </trkpt>
      <trkpt lat="42.388577" lon="8.925297">
        <ele>1594.0</ele>
        <time>2022-09-10T06:00:04Z</time>
      </trkpt>
      <trkpt lat="42.388512" lon="8.92537">
        <ele>1598.8</ele>
        <time>2022-09-10T06:00:27Z</time>
      </trkpt>
      <trkpt lat="42.3885" lon="8.9254">
        <ele>1599.4</ele>
        <time>2022-09-10T06:00:32Z</time>
      </trkpt>
      <trkpt lat="42.38849" lon="8.925397">
        <ele>1599.4</ele>
        <time>2022-09-10T06:00:34Z</time>
      </trkpt>
      <trkpt lat="42.388475" lon="8.92539">
        <ele>1600.2</ele>
        <time>2022-09-10T06:00:38Z</time>
      </trkpt>
      <trkpt lat="42.388402" lon="8.925433">
        <ele>1603.2</ele>
        <time>2022-09-10T06:01:06Z</time>
      </trkpt>
      <trkpt lat="42.388353" lon="8.925457">
        <ele>1605.4</ele>
        <time>2022-09-10T06:01:23Z</time>
      </trkpt>
      <trkpt lat="42.388347" lon="8.925455">
        <ele>1605.4</ele>
        <time>2022-09-10T06:01:25Z</time>
      </trkpt>
      <trkpt lat="42.388322" lon="8.925473">
        <ele>1606.2</ele>
        <time>2022-09-10T06:01:34Z</time>
      </trkpt>
      <trkpt lat="42.38832" lon="8.925505">
        <ele>1608.2</ele>
        <time>2022-09-10T06:01:45Z</time>
      </trkpt>
      <trkpt lat="42.388345" lon="8.925525">
        <ele>1610.4</ele>
        <time>2022-09-10T06:01:55Z</time>
      </trkpt>
      <trkpt lat="42.388362" lon="8.925548">
        <ele>1610.4</ele>
        <time>2022-09-10T06:01:59Z</time>
      </trkpt>
      <trkpt lat="42.388393" lon="8.925555">
        <ele>1611.0</ele>
        <time>2022-09-10T06:02:05Z</time>
      </trkpt>
      <trkpt lat="42.388432" lon="8.925535">
        <ele>1611.8</ele>
        <time>2022-09-10T06:02:15Z</time>
      </trkpt>
      <trkpt lat="42.38844" lon="8.925522">
        <ele>1611.8</ele>
        <time>2022-09-10T06:02:18Z</time>
      </trkpt>
      <trkpt lat="42.388432" lon="8.925533">
        <ele>1611.8</ele>
        <time>2022-09-10T06:02:21Z</time>
      </trkpt>
      <trkpt lat="42.388332" lon="8.925528">
        <ele>1614.2</ele>
        <time>2022-09-10T06:02:47Z</time>
      </trkpt>
      <trkpt lat="42.3883" lon="8.925538">
        <ele>1614.6</ele>
        <time>2022-09-10T06:02:54Z</time>
      </trkpt>
      <trkpt lat="42.388232" lon="8.925595">
        <ele>1619.2</ele>
        <time>2022-09-10T06:03:30Z</time>
      </trkpt>
      <trkpt lat="42.3882" lon="8.925592">
        <ele>1619.6</ele>
        <time>2022-09-10T06:03:38Z</time>
      </trkpt>
      <trkpt lat="42.388157" lon="8.925562">
        <ele>1621.0</ele>
        <time>2022-09-10T06:03:50Z</time>
      </trkpt>
      <trkpt lat="42.388138" lon="8.925585">
        <ele>1621.0</ele>
        <time>2022-09-10T06:03:55Z</time>
      </trkpt>
      <trkpt lat="42.388152" lon="8.925648">
        <ele>1622.6</ele>
        <time>2022-09-10T06:04:03Z</time>
      </trkpt>
      <trkpt lat="42.388128" lon="8.925705">
        <ele>1623.6</ele>
        <time>2022-09-10T06:04:17Z</time>
      </trkpt>
      <trkpt lat="42.388122" lon="8.925708">
        <ele>1624.4</ele>
        <time>2022-09-10T06:04:20Z</time>
      </trkpt>
      <trkpt lat="42.388087" lon="8.92567">
        <ele>1627.0</ele>
        <time>2022-09-10T06:04:36Z</time>
      </trkpt>
      <trkpt lat="42.38807" lon="8.925678">
        <ele>1627.4</ele>
        <time>2022-09-10T06:04:41Z</time>
      </trkpt>
      <trkpt lat="42.388047" lon="8.925703">
        <ele>1627.6</ele>
        <time>2022-09-10T06:04:48Z</time>
      </trkpt>
      <trkpt lat="42.388022" lon="8.92571">
        <ele>1628.8</ele>
        <time>2022-09-10T06:04:53Z</time>
      </trkpt>
      <trkpt lat="42.38798" lon="8.925673">
        <ele>1629.2</ele>
        <time>2022-09-10T06:05:00Z</time>
      </trkpt>
      <trkpt lat="42.38796" lon="8.92565">
        <ele>1630.0</ele>
        <time>2022-09-10T06:05:03Z</time>
      </trkpt>
      <trkpt lat="42.387895" lon="8.925698">
        <ele>1631.0</ele>
        <time>2022-09-10T06:05:12Z</time>
      </trkpt>
      <trkpt lat="42.387842" lon="8.925695">
        <ele>1632.0</ele>
        <time>2022-09-10T06:05:20Z</time>
      </trkpt>
      <trkpt lat="42.387823" lon="8.925725">
        <ele>1632.0</ele>
        <time>2022-09-10T06:05:25Z</time>
      </trkpt>
      <trkpt lat="42.387828" lon="8.925757">
        <ele>1633.4</ele>
        <time>2022-09-10T06:05:33Z</time>
      </trkpt>
      <trkpt lat="42.387835" lon="8.925777">
        <ele>1634.6</ele>
        <time>2022-09-10T06:05:47Z</time>
      </trkpt>
      <trkpt lat="42.387833" lon="8.925778">
        <ele>1635.0</ele>
        <time>2022-09-10T06:05:48Z</time>
      </trkpt>
      <trkpt lat="42.387832" lon="8.925793">
        <ele>1636.0</ele>
        <time>2022-09-10T06:05:54Z</time>
      </trkpt>
      <trkpt lat="42.387827" lon="8.925818">
        <ele>1636.6</ele>
        <time>2022-09-10T06:05:59Z</time>
      </trkpt>
      <trkpt lat="42.387823" lon="8.925842">
        <ele>1637.4</ele>
        <time>2022-09-10T06:06:08Z</time>
      </trkpt>
      <trkpt lat="42.387825" lon="8.925872">
        <ele>1639.0</ele>
        <time>2022-09-10T06:06:20Z</time>
      </trkpt>
      <trkpt lat="42.387815" lon="8.925893">
        <ele>1640.0</ele>
        <time>2022-09-10T06:06:29Z</time>
      </trkpt>
      <trkpt lat="42.38785" lon="8.925958">
        <ele>1641.8</ele>
        <time>2022-09-10T06:06:40Z</time>
      </trkpt>
      <trkpt lat="42.387852" lon="8.925963">
        <ele>1641.8</ele>
        <time>2022-09-10T06:06:41Z</time>
      </trkpt>
      <trkpt lat="42.387842" lon="8.925997">
        <ele>1643.2</ele>
        <time>2022-09-10T06:06:48Z</time>
      </trkpt>
      <trkpt lat="42.387835" lon="8.926025">
        <ele>1644.4</ele>
        <time>2022-09-10T06:06:54Z</time>
      </trkpt>
      <trkpt lat="42.387855" lon="8.926083">
        <ele>1648.0</ele>
        <time>2022-09-10T06:07:12Z</time>
      </trkpt>
      <trkpt lat="42.387873" lon="8.926127">
        <ele>1648.2</ele>
        <time>2022-09-10T06:07:20Z</time>
      </trkpt>
      <trkpt lat="42.387892" lon="8.926155">
        <ele>1648.6</ele>
        <time>2022-09-10T06:07:24Z</time>
      </trkpt>
      <trkpt lat="42.387923" lon="8.926172">
        <ele>1649.0</ele>
        <time>2022-09-10T06:07:29Z</time>
      </trkpt>
      <trkpt lat="42.387922" lon="8.92622">
        <ele>1651.6</ele>
        <time>2022-09-10T06:07:38Z</time>
      </trkpt>
      <trkpt lat="42.38794" lon="8.926263">
        <ele>1652.6</ele>
        <time>2022-09-10T06:07:46Z</time>
      </trkpt>
      <trkpt lat="42.387968" lon="8.926267">
        <ele>1653.4</ele>
        <time>2022-09-10T06:07:52Z</time>
      </trkpt>
      <trkpt lat="42.387978" lon="8.926265">
        <ele>1653.8</ele>
        <time>2022-09-10T06:07:54Z</time>
      </trkpt>
      <trkpt lat="42.38802" lon="8.926298">
        <ele>1656.2</ele>
        <time>2022-09-10T06:08:05Z</time>
      </trkpt>
      <trkpt lat="42.388093" lon="8.926285">
        <ele>1659.4</ele>
        <time>2022-09-10T06:08:42Z</time>
      </trkpt>
      <trkpt lat="42.388123" lon="8.926267">
        <ele>1659.2</ele>
        <time>2022-09-10T06:08:47Z</time>
      </trkpt>
      <trkpt lat="42.388163" lon="8.92627">
        <ele>1659.4</ele>
        <time>2022-09-10T06:08:53Z</time>
      </trkpt>
      <trkpt lat="42.388202" lon="8.92629">
        <ele>1658.8</ele>
        <time>2022-09-10T06:09:03Z</time>
      </trkpt>
      <trkpt lat="42.388207" lon="8.926288">
        <ele>1658.6</ele>
        <time>2022-09-10T06:09:04Z</time>
      </trkpt>
      <trkpt lat="42.388183" lon="8.92634">
        <ele>1658.4</ele>
        <time>2022-09-10T06:09:12Z</time>
      </trkpt>
      <trkpt lat="42.38813" lon="8.926397">
        <ele>1658.0</ele>
        <time>2022-09-10T06:09:19Z</time>
      </trkpt>
      <trkpt lat="42.388113" lon="8.926437">
        <ele>1658.4</ele>
        <time>2022-09-10T06:09:24Z</time>
      </trkpt>
      <trkpt lat="42.388093" lon="8.926528">
        <ele>1662.8</ele>
        <time>2022-09-10T06:09:54Z</time>
      </trkpt>
      <trkpt lat="42.388097" lon="8.926532">
        <ele>1663.0</ele>
        <time>2022-09-10T06:09:55Z</time>
      </trkpt>
      <trkpt lat="42.388203" lon="8.92652">
        <ele>1667.4</ele>
        <time>2022-09-10T06:10:28Z</time>
      </trkpt>
      <trkpt lat="42.388232" lon="8.926423">
        <ele>1669.0</ele>
        <time>2022-09-10T06:11:14Z</time>
      </trkpt>
      <trkpt lat="42.388247" lon="8.926432">
        <ele>1672.6</ele>
        <time>2022-09-10T06:11:25Z</time>
      </trkpt>
      <trkpt lat="42.388357" lon="8.926442">
        <ele>1674.0</ele>
        <time>2022-09-10T06:11:32Z</time>
      </trkpt>
      <trkpt lat="42.388452" lon="8.926433">
        <ele>1677.2</ele>
        <time>2022-09-10T06:12:16Z</time>
      </trkpt>
      <trkpt lat="42.388463" lon="8.926423">
        <ele>1677.2</ele>
        <time>2022-09-10T06:12:20Z</time>
      </trkpt>
      <trkpt lat="42.388488" lon="8.926482">
        <ele>1677.8</ele>
        <time>2022-09-10T06:12:36Z</time>
      </trkpt>
      <trkpt lat="42.388427" lon="8.926542">
        <ele>1682.8</ele>
        <time>2022-09-10T06:13:06Z</time>
      </trkpt>
      <trkpt lat="42.388367" lon="8.92653">
        <ele>1682.8</ele>
        <time>2022-09-10T06:13:10Z</time>
      </trkpt>
      <trkpt lat="42.388388" lon="8.926583">
        <ele>1684.6</ele>
        <time>2022-09-10T06:13:33Z</time>
      </trkpt>
      <trkpt lat="42.388418" lon="8.926602">
        <ele>1685.2</ele>
        <time>2022-09-10T06:13:38Z</time>
      </trkpt>
      <trkpt lat="42.388478" lon="8.926668">
        <ele>1685.4</ele>
        <time>2022-09-10T06:13:43Z</time>
      </trkpt>
      <trkpt lat="42.3885" lon="8.926742">
        <ele>1685.6</ele>
        <time>2022-09-10T06:13:47Z</time>
      </trkpt>
      <trkpt lat="42.388487" lon="8.926778">
        <ele>1686.4</ele>
        <time>2022-09-10T06:13:49Z</time>
      </trkpt>
      <trkpt lat="42.388342" lon="8.926925">
        <ele>1690.0</ele>
        <time>2022-09-10T06:14:00Z</time>
      </trkpt>
      <trkpt lat="42.388333" lon="8.926938">
        <ele>1690.6</ele>
        <time>2022-09-10T06:14:01Z</time>
      </trkpt>
      <trkpt lat="42.388253" lon="8.926918">
        <ele>1693.0</ele>
        <time>2022-09-10T06:14:14Z</time>
      </trkpt>
      <trkpt lat="42.388195" lon="8.926927">
        <ele>1696.0</ele>
        <time>2022-09-10T06:14:32Z</time>
      </trkpt>
      <trkpt lat="42.388142" lon="8.926915">
        <ele>1698.2</ele>
        <time>2022-09-10T06:14:52Z</time>
      </trkpt>
      <trkpt lat="42.38812" lon="8.926935">
        <ele>1699.2</ele>
        <time>2022-09-10T06:15:00Z</time>
      </trkpt>
      <trkpt lat="42.388115" lon="8.926937">
        <ele>1699.4</ele>
        <time>2022-09-10T06:15:03Z</time>
      </trkpt>
      <trkpt lat="42.388103" lon="8.926942">
        <ele>1699.4</ele>
        <time>2022-09-10T06:15:08Z</time>
      </trkpt>
      <trkpt lat="42.388093" lon="8.927012">
        <ele>1698.4</ele>
        <time>2022-09-10T06:15:17Z</time>
      </trkpt>
      <trkpt lat="42.388073" lon="8.927032">
        <ele>1698.2</ele>
        <time>2022-09-10T06:15:21Z</time>
      </trkpt>
      <trkpt lat="42.388002" lon="8.926983">
        <ele>1699.0</ele>
        <time>2022-09-10T06:15:29Z</time>
      </trkpt>
      <trkpt lat="42.388" lon="8.92699">
        <ele>1698.4</ele>
        <time>2022-09-10T06:15:32Z</time>
      </trkpt>
      <trkpt lat="42.388018" lon="8.926993">
        <ele>1698.4</ele>
        <time>2022-09-10T06:15:32Z</time>
      </trkpt>
      <trkpt lat="42.388107" lon="8.927045">
        <ele>1699.2</ele>
        <time>2022-09-10T06:15:41Z</time>
      </trkpt>
      <trkpt lat="42.388205" lon="8.92704">
        <ele>1701.8</ele>
        <time>2022-09-10T06:15:51Z</time>
      </trkpt>
      <trkpt lat="42.38827" lon="8.92711">
        <ele>1703.6</ele>
        <time>2022-09-10T06:16:01Z</time>
      </trkpt>
      <trkpt lat="42.388307" lon="8.927187">
        <ele>1704.6</ele>
        <time>2022-09-10T06:16:10Z</time>
      </trkpt>
      <trkpt lat="42.388322" lon="8.927217">
        <ele>1704.8</ele>
        <time>2022-09-10T06:16:13Z</time>
      </trkpt>
      <trkpt lat="42.388377" lon="8.927295">
        <ele>1704.6</ele>
        <time>2022-09-10T06:16:27Z</time>
      </trkpt>
      <trkpt lat="42.388377" lon="8.927317">
        <ele>1702.2</ele>
        <time>2022-09-10T06:16:37Z</time>
      </trkpt>
      <trkpt lat="42.388395" lon="8.927293">
        <ele>1703.6</ele>
        <time>2022-09-10T06:16:48Z</time>
      </trkpt>
      <trkpt lat="42.388165" lon="8.927147">
        <ele>1704.8</ele>
        <time>2022-09-10T06:17:06Z</time>
      </trkpt>
      <trkpt lat="42.388117" lon="8.9271">
        <ele>1704.8</ele>
        <time>2022-09-10T06:17:09Z</time>
      </trkpt>
      <trkpt lat="42.388127" lon="8.92702">
        <ele>1704.2</ele>
        <time>2022-09-10T06:17:14Z</time>
      </trkpt>
      <trkpt lat="42.38815" lon="8.926918">
        <ele>1704.8</ele>
        <time>2022-09-10T06:17:21Z</time>
      </trkpt>
      <trkpt lat="42.388132" lon="8.926837">
        <ele>1706.4</ele>
        <time>2022-09-10T06:17:31Z</time>
      </trkpt>
      <trkpt lat="42.388168" lon="8.926748">
        <ele>1706.8</ele>
        <time>2022-09-10T06:17:35Z</time>
      </trkpt>
      <trkpt lat="42.388147" lon="8.926823">
        <ele>1707.2</ele>
        <time>2022-09-10T06:17:38Z</time>
      </trkpt>
      <trkpt lat="42.388133" lon="8.926875">
        <ele>1707.4</ele>
        <time>2022-09-10T06:17:40Z</time>
      </trkpt>
      <trkpt lat="42.388075" lon="8.92688">
        <ele>1708.6</ele>
        <time>2022-09-10T06:17:43Z</time>
      </trkpt>
      <trkpt lat="42.388043" lon="8.926863">
        <ele>1708.6</ele>
        <time>2022-09-10T06:17:45Z</time>
      </trkpt>
      <trkpt lat="42.388015" lon="8.926835">
        <ele>1709.4</ele>
        <time>2022-09-10T06:17:48Z</time>
      </trkpt>
      <trkpt lat="42.387905" lon="8.926682">
        <ele>1711.2</ele>
        <time>2022-09-10T06:17:55Z</time>
      </trkpt>
      <trkpt lat="42.38785" lon="8.92665">
        <ele>1711.4</ele>
        <time>2022-09-10T06:17:57Z</time>
      </trkpt>
      <trkpt lat="42.387818" lon="8.92664">
        <ele>1712.0</ele>
        <time>2022-09-10T06:17:58Z</time>
      </trkpt>
      <trkpt lat="42.387722" lon="8.926648">
        <ele>1713.2</ele>
        <time>2022-09-10T06:18:02Z</time>
      </trkpt>
      <trkpt lat="42.387652" lon="8.926673">
        <ele>1714.4</ele>
        <time>2022-09-10T06:18:07Z</time>
      </trkpt>
      <trkpt lat="42.38762" lon="8.92666">
        <ele>1714.6</ele>
        <time>2022-09-10T06:18:11Z</time>
      </trkpt>
      <trkpt lat="42.38759" lon="8.92663">
        <ele>1715.6</ele>
        <time>2022-09-10T06:18:19Z</time>
      </trkpt>
      <trkpt lat="42.387572" lon="8.926623">
        <ele>1716.0</ele>
        <time>2022-09-10T06:18:22Z</time>
      </trkpt>
      <trkpt lat="42.38762" lon="8.926792">
        <ele>1715.2</ele>
        <time>2022-09-10T06:18:30Z</time>
      </trkpt>
      <trkpt lat="42.387617" lon="8.926853">
        <ele>1715.2</ele>
        <time>2022-09-10T06:18:34Z</time>
      </trkpt>
      <trkpt lat="42.387617" lon="8.926923">
        <ele>1715.8</ele>
        <time>2022-09-10T06:18:39Z</time>
      </trkpt>
      <trkpt lat="42.387647" lon="8.926983">
        <ele>1716.4</ele>
        <time>2022-09-10T06:18:42Z</time>
      </trkpt>
      <trkpt lat="42.387763" lon="8.927105">
        <ele>1719.2</ele>
        <time>2022-09-10T06:18:50Z</time>
      </trkpt>
      <trkpt lat="42.388008" lon="8.927268">
        <ele>1719.2</ele>
        <time>2022-09-10T06:19:04Z</time>
      </trkpt>
      <trkpt lat="42.38812" lon="8.927368">
        <ele>1719.8</ele>
        <time>2022-09-10T06:19:11Z</time>
      </trkpt>
      <trkpt lat="42.38819" lon="8.927445">
        <ele>1720.0</ele>
        <time>2022-09-10T06:19:15Z</time>
      </trkpt>
      <trkpt lat="42.388262" lon="8.927503">
        <ele>1720.4</ele>
        <time>2022-09-10T06:19:19Z</time>
      </trkpt>
      <trkpt lat="42.388412" lon="8.927545">
        <ele>1722.0</ele>
        <time>2022-09-10T06:19:28Z</time>
      </trkpt>
      <trkpt lat="42.388477" lon="8.927572">
        <ele>1722.4</ele>
        <time>2022-09-10T06:19:32Z</time>
      </trkpt>
      <trkpt lat="42.388598" lon="8.92761">
        <ele>1724.0</ele>
        <time>2022-09-10T06:19:42Z</time>
      </trkpt>
      <trkpt lat="42.388688" lon="8.927658">
        <ele>1725.6</ele>
        <time>2022-09-10T06:19:50Z</time>
      </trkpt>
      <trkpt lat="42.388693" lon="8.927668">
        <ele>1725.6</ele>
        <time>2022-09-10T06:19:50Z</time>
      </trkpt>
      <trkpt lat="42.388455" lon="8.927912">
        <ele>1726.8</ele>
        <time>2022-09-10T06:20:14Z</time>
      </trkpt>
      <trkpt lat="42.38844" lon="8.927922">
        <ele>1726.8</ele>
        <time>2022-09-10T06:20:15Z</time>
      </trkpt>
      <trkpt lat="42.388565" lon="8.928108">
        <ele>1729.0</ele>
        <time>2022-09-10T06:20:33Z</time>
      </trkpt>
      <trkpt lat="42.388542" lon="8.928155">
        <ele>1729.4</ele>
        <time>2022-09-10T06:20:37Z</time>
      </trkpt>
      <trkpt lat="42.388527" lon="8.928182">
        <ele>1729.2</ele>
        <time>2022-09-10T06:20:41Z</time>
      </trkpt>
      <trkpt lat="42.388535" lon="8.928207">
        <ele>1730.6</ele>
        <time>2022-09-10T06:20:53Z</time>
      </trkpt>
      <trkpt lat="42.388582" lon="8.928207">
        <ele>1732.6</ele>
        <time>2022-09-10T06:21:01Z</time>
      </trkpt>
      <trkpt lat="42.38859" lon="8.928122">
        <ele>1737.4</ele>
        <time>2022-09-10T06:21:26Z</time>
      </trkpt>
      <trkpt lat="42.388592" lon="8.928117">
        <ele>1737.4</ele>
        <time>2022-09-10T06:21:27Z</time>
      </trkpt>
      <trkpt lat="42.388627" lon="8.928102">
        <ele>1738.8</ele>
        <time>2022-09-10T06:21:37Z</time>
      </trkpt>
      <trkpt lat="42.388628" lon="8.928125">
        <ele>1739.2</ele>
        <time>2022-09-10T06:21:44Z</time>
      </trkpt>
      <trkpt lat="42.388617" lon="8.928162">
        <ele>1740.8</ele>
        <time>2022-09-10T06:21:55Z</time>
      </trkpt>
      <trkpt lat="42.38862" lon="8.928158">
        <ele>1741.8</ele>
        <time>2022-09-10T06:21:59Z</time>
      </trkpt>
      <trkpt lat="42.388475" lon="8.928142">
        <ele>1743.8</ele>
        <time>2022-09-10T06:22:12Z</time>
      </trkpt>
      <trkpt lat="42.388388" lon="8.928108">
        <ele>1744.8</ele>
        <time>2022-09-10T06:22:19Z</time>
      </trkpt>
      <trkpt lat="42.388342" lon="8.928053">
        <ele>1746.2</ele>
        <time>2022-09-10T06:22:24Z</time>
      </trkpt>
      <trkpt lat="42.388272" lon="8.92802">
        <ele>1747.6</ele>
        <time>2022-09-10T06:22:32Z</time>
      </trkpt>
      <trkpt lat="42.388227" lon="8.92806">
        <ele>1748.8</ele>
        <time>2022-09-10T06:22:39Z</time>
      </trkpt>
      <trkpt lat="42.388205" lon="8.9281">
        <ele>1751.0</ele>
        <time>2022-09-10T06:22:43Z</time>
      </trkpt>
      <trkpt lat="42.388212" lon="8.928167">
        <ele>1751.6</ele>
        <time>2022-09-10T06:22:51Z</time>
      </trkpt>
      <trkpt lat="42.388198" lon="8.928267">
        <ele>1753.0</ele>
        <time>2022-09-10T06:23:08Z</time>
      </trkpt>
      <trkpt lat="42.388185" lon="8.928325">
        <ele>1754.0</ele>
        <time>2022-09-10T06:23:13Z</time>
      </trkpt>
      <trkpt lat="42.388197" lon="8.928337">
        <ele>1754.0</ele>
        <time>2022-09-10T06:23:15Z</time>
      </trkpt>
      <trkpt lat="42.388225" lon="8.928393">
        <ele>1754.2</ele>
        <time>2022-09-10T06:23:19Z</time>
      </trkpt>
      <trkpt lat="42.388232" lon="8.928418">
        <ele>1754.4</ele>
        <time>2022-09-10T06:23:21Z</time>
      </trkpt>
      <trkpt lat="42.388348" lon="8.92852">
        <ele>1758.4</ele>
        <time>2022-09-10T06:23:33Z</time>
      </trkpt>
      <trkpt lat="42.388377" lon="8.928568">
        <ele>1758.4</ele>
        <time>2022-09-10T06:23:37Z</time>
      </trkpt>
      <trkpt lat="42.388548" lon="8.92863">
        <ele>1761.0</ele>
        <time>2022-09-10T06:23:54Z</time>
      </trkpt>
      <trkpt lat="42.388733" lon="8.92863">
        <ele>1762.4</ele>
        <time>2022-09-10T06:24:13Z</time>
      </trkpt>
      <trkpt lat="42.388732" lon="8.92862">
        <ele>1762.8</ele>
        <time>2022-09-10T06:24:14Z</time>
      </trkpt>
      <trkpt lat="42.388727" lon="8.928598">
        <ele>1763.2</ele>
        <time>2022-09-10T06:24:16Z</time>
      </trkpt>
      <trkpt lat="42.388708" lon="8.928563">
        <ele>1764.8</ele>
        <time>2022-09-10T06:24:23Z</time>
      </trkpt>
      <trkpt lat="42.38868" lon="8.928568">
        <ele>1765.8</ele>
        <time>2022-09-10T06:24:30Z</time>
      </trkpt>
      <trkpt lat="42.388638" lon="8.92859">
        <ele>1766.8</ele>
        <time>2022-09-10T06:24:35Z</time>
      </trkpt>
      <trkpt lat="42.388588" lon="8.928618">
        <ele>1767.0</ele>
        <time>2022-09-10T06:24:40Z</time>
      </trkpt>
      <trkpt lat="42.388545" lon="8.928687">
        <ele>1765.6</ele>
        <time>2022-09-10T06:24:47Z</time>
      </trkpt>
      <trkpt lat="42.388518" lon="8.928765">
        <ele>1765.6</ele>
        <time>2022-09-10T06:24:53Z</time>
      </trkpt>
      <trkpt lat="42.388392" lon="8.928793">
        <ele>1768.2</ele>
        <time>2022-09-10T06:25:20Z</time>
      </trkpt>
      <trkpt lat="42.388335" lon="8.928785">
        <ele>1768.2</ele>
        <time>2022-09-10T06:25:32Z</time>
      </trkpt>
      <trkpt lat="42.38825" lon="8.92878">
        <ele>1770.4</ele>
        <time>2022-09-10T06:25:51Z</time>
      </trkpt>
      <trkpt lat="42.38825" lon="8.928782">
        <ele>1770.4</ele>
        <time>2022-09-10T06:25:51Z</time>
      </trkpt>
      <trkpt lat="42.38827" lon="8.928803">
        <ele>1772.4</ele>
        <time>2022-09-10T06:25:59Z</time>
      </trkpt>
      <trkpt lat="42.388303" lon="8.928817">
        <ele>1771.2</ele>
        <time>2022-09-10T06:26:08Z</time>
      </trkpt>
      <trkpt lat="42.388315" lon="8.928825">
        <ele>1771.6</ele>
        <time>2022-09-10T06:26:11Z</time>
      </trkpt>
      <trkpt lat="42.388372" lon="8.928798">
        <ele>1774.8</ele>
        <time>2022-09-10T06:26:31Z</time>
      </trkpt>
      <trkpt lat="42.388465" lon="8.92882">
        <ele>1778.0</ele>
        <time>2022-09-10T06:26:46Z</time>
      </trkpt>
      <trkpt lat="42.388492" lon="8.92883">
        <ele>1777.8</ele>
        <time>2022-09-10T06:26:51Z</time>
      </trkpt>
      <trkpt lat="42.388527" lon="8.928828">
        <ele>1776.8</ele>
        <time>2022-09-10T06:26:59Z</time>
      </trkpt>
      <trkpt lat="42.388558" lon="8.928845">
        <ele>1778.4</ele>
        <time>2022-09-10T06:27:12Z</time>
      </trkpt>
      <trkpt lat="42.38861" lon="8.92887">
        <ele>1785.2</ele>
        <time>2022-09-10T06:27:44Z</time>
      </trkpt>
      <trkpt lat="42.38864" lon="8.928862">
        <ele>1785.8</ele>
        <time>2022-09-10T06:27:51Z</time>
      </trkpt>
      <trkpt lat="42.388678" lon="8.928943">
        <ele>1788.4</ele>
        <time>2022-09-10T06:27:59Z</time>
      </trkpt>
      <trkpt lat="42.388693" lon="8.929">
        <ele>1789.4</ele>
        <time>2022-09-10T06:28:14Z</time>
      </trkpt>
      <trkpt lat="42.388707" lon="8.929023">
        <ele>1790.4</ele>
        <time>2022-09-10T06:28:18Z</time>
      </trkpt>
      <trkpt lat="42.38867" lon="8.92909">
        <ele>1791.2</ele>
        <time>2022-09-10T06:28:25Z</time>
      </trkpt>
      <trkpt lat="42.388642" lon="8.92913">
        <ele>1791.2</ele>
        <time>2022-09-10T06:28:29Z</time>
      </trkpt>
      <trkpt lat="42.388637" lon="8.929142">
        <ele>1791.2</ele>
        <time>2022-09-10T06:28:29Z</time>
      </trkpt>
      <trkpt lat="42.38864" lon="8.929202">
        <ele>1792.8</ele>
        <time>2022-09-10T06:28:35Z</time>
      </trkpt>
      <trkpt lat="42.388587" lon="8.929298">
        <ele>1794.4</ele>
        <time>2022-09-10T06:28:42Z</time>
      </trkpt>
      <trkpt lat="42.38856" lon="8.929337">
        <ele>1795.2</ele>
        <time>2022-09-10T06:28:45Z</time>
      </trkpt>
      <trkpt lat="42.388558" lon="8.929397">
        <ele>1796.6</ele>
        <time>2022-09-10T06:28:49Z</time>
      </trkpt>
      <trkpt lat="42.388587" lon="8.9295">
        <ele>1799.0</ele>
        <time>2022-09-10T06:28:57Z</time>
      </trkpt>
      <trkpt lat="42.388572" lon="8.929523">
        <ele>1799.6</ele>
        <time>2022-09-10T06:28:59Z</time>
      </trkpt>
      <trkpt lat="42.388542" lon="8.929545">
        <ele>1799.6</ele>
        <time>2022-09-10T06:29:02Z</time>
      </trkpt>
      <trkpt lat="42.388493" lon="8.929573">
        <ele>1799.2</ele>
        <time>2022-09-10T06:29:11Z</time>
      </trkpt>
      <trkpt lat="42.388437" lon="8.929657">
        <ele>1801.2</ele>
        <time>2022-09-10T06:29:22Z</time>
      </trkpt>
      <trkpt lat="42.38843" lon="8.929665">
        <ele>1801.2</ele>
        <time>2022-09-10T06:29:22Z</time>
      </trkpt>
      <trkpt lat="42.388428" lon="8.929708">
        <ele>1804.0</ele>
        <time>2022-09-10T06:29:35Z</time>
      </trkpt>
      <trkpt lat="42.388453" lon="8.929728">
        <ele>1804.8</ele>
        <time>2022-09-10T06:29:41Z</time>
      </trkpt>
      <trkpt lat="42.388523" lon="8.929725">
        <ele>1806.2</ele>
        <time>2022-09-10T06:29:50Z</time>
      </trkpt>
      <trkpt lat="42.38859" lon="8.929717">
        <ele>1805.8</ele>
        <time>2022-09-10T06:29:56Z</time>
      </trkpt>
      <trkpt lat="42.388625" lon="8.929723">
        <ele>1805.6</ele>
        <time>2022-09-10T06:30:00Z</time>
      </trkpt>
      <trkpt lat="42.388638" lon="8.929745">
        <ele>1806.6</ele>
        <time>2022-09-10T06:30:06Z</time>
      </trkpt>
      <trkpt lat="42.388657" lon="8.929772">
        <ele>1807.8</ele>
        <time>2022-09-10T06:30:14Z</time>
      </trkpt>
      <trkpt lat="42.388667" lon="8.92978">
        <ele>1807.8</ele>
        <time>2022-09-10T06:30:16Z</time>
      </trkpt>
      <trkpt lat="42.38861" lon="8.929817">
        <ele>1805.4</ele>
        <time>2022-09-10T06:30:32Z</time>
      </trkpt>
      <trkpt lat="42.388583" lon="8.929822">
        <ele>1805.6</ele>
        <time>2022-09-10T06:30:39Z</time>
      </trkpt>
      <trkpt lat="42.388565" lon="8.92983">
        <ele>1808.4</ele>
        <time>2022-09-10T06:30:47Z</time>
      </trkpt>
      <trkpt lat="42.38855" lon="8.929835">
        <ele>1810.0</ele>
        <time>2022-09-10T06:30:52Z</time>
      </trkpt>
      <trkpt lat="42.388553" lon="8.929842">
        <ele>1810.0</ele>
        <time>2022-09-10T06:30:53Z</time>
      </trkpt>
      <trkpt lat="42.38856" lon="8.929888">
        <ele>1813.2</ele>
        <time>2022-09-10T06:31:09Z</time>
      </trkpt>
      <trkpt lat="42.388562" lon="8.929938">
        <ele>1816.0</ele>
        <time>2022-09-10T06:31:24Z</time>
      </trkpt>
      <trkpt lat="42.388567" lon="8.930005">
        <ele>1818.4</ele>
        <time>2022-09-10T06:31:35Z</time>
      </trkpt>
      <trkpt lat="42.388593" lon="8.930117">
        <ele>1820.8</ele>
        <time>2022-09-10T06:31:55Z</time>
      </trkpt>
      <trkpt lat="42.388525" lon="8.930263">
        <ele>1823.8</ele>
        <time>2022-09-10T06:32:14Z</time>
      </trkpt>
      <trkpt lat="42.388523" lon="8.930382">
        <ele>1827.8</ele>
        <time>2022-09-10T06:32:49Z</time>
      </trkpt>
      <trkpt lat="42.388538" lon="8.930425">
        <ele>1828.6</ele>
        <time>2022-09-10T06:32:58Z</time>
      </trkpt>
      <trkpt lat="42.388585" lon="8.930512">
        <ele>1829.4</ele>
        <time>2022-09-10T06:33:05Z</time>
      </trkpt>
      <trkpt lat="42.388522" lon="8.930577">
        <ele>1830.2</ele>
        <time>2022-09-10T06:33:10Z</time>
      </trkpt>
      <trkpt lat="42.38851" lon="8.930568">
        <ele>1830.2</ele>
        <time>2022-09-10T06:33:11Z</time>
      </trkpt>
      <trkpt lat="42.388437" lon="8.930502">
        <ele>1830.8</ele>
        <time>2022-09-10T06:33:18Z</time>
      </trkpt>
      <trkpt lat="42.388408" lon="8.9305">
        <ele>1830.8</ele>
        <time>2022-09-10T06:33:20Z</time>
      </trkpt>
      <trkpt lat="42.388368" lon="8.930517">
        <ele>1830.8</ele>
        <time>2022-09-10T06:33:23Z</time>
      </trkpt>
      <trkpt lat="42.388303" lon="8.93058">
        <ele>1831.8</ele>
        <time>2022-09-10T06:33:30Z</time>
      </trkpt>
      <trkpt lat="42.388233" lon="8.930662">
        <ele>1831.8</ele>
        <time>2022-09-10T06:33:37Z</time>
      </trkpt>
      <trkpt lat="42.388163" lon="8.930727">
        <ele>1833.0</ele>
        <time>2022-09-10T06:33:42Z</time>
      </trkpt>
      <trkpt lat="42.388245" lon="8.930862">
        <ele>1835.4</ele>
        <time>2022-09-10T06:33:50Z</time>
      </trkpt>
      <trkpt lat="42.388288" lon="8.930903">
        <ele>1836.4</ele>
        <time>2022-09-10T06:33:54Z</time>
      </trkpt>
      <trkpt lat="42.388335" lon="8.930932">
        <ele>1837.0</ele>
        <time>2022-09-10T06:33:57Z</time>
      </trkpt>
      <trkpt lat="42.388433" lon="8.930782">
        <ele>1838.6</ele>
        <time>2022-09-10T06:34:09Z</time>
      </trkpt>
      <trkpt lat="42.388475" lon="8.930782">
        <ele>1839.0</ele>
        <time>2022-09-10T06:34:16Z</time>
      </trkpt>
      <trkpt lat="42.388533" lon="8.930812">
        <ele>1839.6</ele>
        <time>2022-09-10T06:34:26Z</time>
      </trkpt>
      <trkpt lat="42.388553" lon="8.93082">
        <ele>1840.0</ele>
        <time>2022-09-10T06:34:29Z</time>
      </trkpt>
      <trkpt lat="42.388645" lon="8.930918">
        <ele>1843.2</ele>
        <time>2022-09-10T06:34:50Z</time>
      </trkpt>
      <trkpt lat="42.388717" lon="8.930898">
        <ele>1844.0</ele>
        <time>2022-09-10T06:35:04Z</time>
      </trkpt>
      <trkpt lat="42.388748" lon="8.930922">
        <ele>1844.6</ele>
        <time>2022-09-10T06:35:10Z</time>
      </trkpt>
      <trkpt lat="42.388723" lon="8.930958">
        <ele>1844.6</ele>
        <time>2022-09-10T06:35:17Z</time>
      </trkpt>
      <trkpt lat="42.388717" lon="8.930995">
        <ele>1845.0</ele>
        <time>2022-09-10T06:35:23Z</time>
      </trkpt>
      <trkpt lat="42.388717" lon="8.93104">
        <ele>1846.0</ele>
        <time>2022-09-10T06:35:29Z</time>
      </trkpt>
      <trkpt lat="42.388628" lon="8.931145">
        <ele>1847.8</ele>
        <time>2022-09-10T06:36:07Z</time>
      </trkpt>
      <trkpt lat="42.388597" lon="8.931153">
        <ele>1850.6</ele>
        <time>2022-09-10T06:36:37Z</time>
      </trkpt>
      <trkpt lat="42.388577" lon="8.931183">
        <ele>1851.2</ele>
        <time>2022-09-10T06:36:45Z</time>
      </trkpt>
      <trkpt lat="42.388563" lon="8.931195">
        <ele>1850.0</ele>
        <time>2022-09-10T06:36:50Z</time>
      </trkpt>
      <trkpt lat="42.388555" lon="8.93127">
        <ele>1849.4</ele>
        <time>2022-09-10T06:37:09Z</time>
      </trkpt>
      <trkpt lat="42.38853" lon="8.931292">
        <ele>1849.8</ele>
        <time>2022-09-10T06:37:18Z</time>
      </trkpt>
      <trkpt lat="42.38852" lon="8.931325">
        <ele>1848.0</ele>
        <time>2022-09-10T06:37:30Z</time>
      </trkpt>
      <trkpt lat="42.388487" lon="8.931327">
        <ele>1846.4</ele>
        <time>2022-09-10T06:37:48Z</time>
      </trkpt>
      <trkpt lat="42.388472" lon="8.931353">
        <ele>1847.8</ele>
        <time>2022-09-10T06:38:07Z</time>
      </trkpt>
      <trkpt lat="42.388473" lon="8.931355">
        <ele>1847.8</ele>
        <time>2022-09-10T06:38:07Z</time>
      </trkpt>
      <trkpt lat="42.388508" lon="8.931377">
        <ele>1850.8</ele>
        <time>2022-09-10T06:38:14Z</time>
      </trkpt>
      <trkpt lat="42.388533" lon="8.931417">
        <ele>1853.8</ele>
        <time>2022-09-10T06:38:23Z</time>
      </trkpt>
      <trkpt lat="42.388555" lon="8.931427">
        <ele>1855.6</ele>
        <time>2022-09-10T06:38:33Z</time>
      </trkpt>
      <trkpt lat="42.388585" lon="8.931438">
        <ele>1856.0</ele>
        <time>2022-09-10T06:39:01Z</time>
      </trkpt>
      <trkpt lat="42.388593" lon="8.931538">
        <ele>1855.6</ele>
        <time>2022-09-10T06:39:31Z</time>
      </trkpt>
      <trkpt lat="42.388597" lon="8.931547">
        <ele>1855.8</ele>
        <time>2022-09-10T06:39:32Z</time>
      </trkpt>
      <trkpt lat="42.388617" lon="8.931577">
        <ele>1856.2</ele>
        <time>2022-09-10T06:39:37Z</time>
      </trkpt>
      <trkpt lat="42.3886" lon="8.931605">
        <ele>1857.2</ele>
        <time>2022-09-10T06:39:41Z</time>
      </trkpt>
      <trkpt lat="42.388533" lon="8.931622">
        <ele>1859.0</ele>
        <time>2022-09-10T06:39:53Z</time>
      </trkpt>
      <trkpt lat="42.388498" lon="8.931675">
        <ele>1860.0</ele>
        <time>2022-09-10T06:40:01Z</time>
      </trkpt>
      <trkpt lat="42.388468" lon="8.931717">
        <ele>1861.0</ele>
        <time>2022-09-10T06:40:09Z</time>
      </trkpt>
      <trkpt lat="42.388405" lon="8.931747">
        <ele>1864.2</ele>
        <time>2022-09-10T06:40:40Z</time>
      </trkpt>
      <trkpt lat="42.388405" lon="8.931747">
        <ele>1864.2</ele>
        <time>2022-09-10T06:40:40Z</time>
      </trkpt>
      <trkpt lat="42.388378" lon="8.931772">
        <ele>1865.6</ele>
        <time>2022-09-10T06:40:51Z</time>
      </trkpt>
      <trkpt lat="42.388382" lon="8.931807">
        <ele>1868.6</ele>
        <time>2022-09-10T06:41:12Z</time>
      </trkpt>
      <trkpt lat="42.388377" lon="8.931828">
        <ele>1870.6</ele>
        <time>2022-09-10T06:41:22Z</time>
      </trkpt>
      <trkpt lat="42.388313" lon="8.931873">
        <ele>1870.8</ele>
        <time>2022-09-10T06:41:37Z</time>
      </trkpt>
      <trkpt lat="42.388308" lon="8.931877">
        <ele>1870.8</ele>
        <time>2022-09-10T06:41:38Z</time>
      </trkpt>
      <trkpt lat="42.388302" lon="8.931923">
        <ele>1872.8</ele>
        <time>2022-09-10T06:41:45Z</time>
      </trkpt>
      <trkpt lat="42.38831" lon="8.932042">
        <ele>1874.8</ele>
        <time>2022-09-10T06:41:58Z</time>
      </trkpt>
      <trkpt lat="42.388315" lon="8.932087">
        <ele>1877.2</ele>
        <time>2022-09-10T06:42:03Z</time>
      </trkpt>
      <trkpt lat="42.388312" lon="8.932192">
        <ele>1878.2</ele>
        <time>2022-09-10T06:42:15Z</time>
      </trkpt>
      <trkpt lat="42.388302" lon="8.932287">
        <ele>1879.0</ele>
        <time>2022-09-10T06:42:27Z</time>
      </trkpt>
      <trkpt lat="42.388302" lon="8.932318">
        <ele>1879.2</ele>
        <time>2022-09-10T06:42:32Z</time>
      </trkpt>
      <trkpt lat="42.388235" lon="8.932455">
        <ele>1880.6</ele>
        <time>2022-09-10T06:42:54Z</time>
      </trkpt>
      <trkpt lat="42.38819" lon="8.93246">
        <ele>1880.8</ele>
        <time>2022-09-10T06:43:02Z</time>
      </trkpt>
      <trkpt lat="42.388122" lon="8.93243">
        <ele>1880.8</ele>
        <time>2022-09-10T06:43:14Z</time>
      </trkpt>
      <trkpt lat="42.388107" lon="8.932465">
        <ele>1880.8</ele>
        <time>2022-09-10T06:43:25Z</time>
      </trkpt>
      <trkpt lat="42.388107" lon="8.93247">
        <ele>1880.8</ele>
        <time>2022-09-10T06:43:27Z</time>
      </trkpt>
      <trkpt lat="42.388098" lon="8.932518">
        <ele>1883.4</ele>
        <time>2022-09-10T06:43:51Z</time>
      </trkpt>
      <trkpt lat="42.38809" lon="8.93263">
        <ele>1885.6</ele>
        <time>2022-09-10T06:44:02Z</time>
      </trkpt>
      <trkpt lat="42.388092" lon="8.932722">
        <ele>1896.8</ele>
        <time>2022-09-10T06:45:12Z</time>
      </trkpt>
      <trkpt lat="42.388118" lon="8.932768">
        <ele>1897.8</ele>
        <time>2022-09-10T06:45:18Z</time>
      </trkpt>
      <trkpt lat="42.3881" lon="8.932973">
        <ele>1899.2</ele>
        <time>2022-09-10T06:45:31Z</time>
      </trkpt>
      <trkpt lat="42.388103" lon="8.933052">
        <ele>1899.6</ele>
        <time>2022-09-10T06:45:34Z</time>
      </trkpt>
      <trkpt lat="42.3881" lon="8.933065">
        <ele>1899.8</ele>
        <time>2022-09-10T06:45:35Z</time>
      </trkpt>
      <trkpt lat="42.388018" lon="8.933183">
        <ele>1901.8</ele>
        <time>2022-09-10T06:45:47Z</time>
      </trkpt>
      <trkpt lat="42.387983" lon="8.933242">
        <ele>1903.2</ele>
        <time>2022-09-10T06:45:55Z</time>
      </trkpt>
      <trkpt lat="42.387917" lon="8.933347">
        <ele>1905.0</ele>
        <time>2022-09-10T06:46:20Z</time>
      </trkpt>
      <trkpt lat="42.387897" lon="8.933373">
        <ele>1906.2</ele>
        <time>2022-09-10T06:46:30Z</time>
      </trkpt>
      <trkpt lat="42.38787" lon="8.9334">
        <ele>1908.6</ele>
        <time>2022-09-10T06:46:40Z</time>
      </trkpt>
      <trkpt lat="42.387837" lon="8.933445">
        <ele>1910.8</ele>
        <time>2022-09-10T06:46:52Z</time>
      </trkpt>
      <trkpt lat="42.387813" lon="8.93348">
        <ele>1912.4</ele>
        <time>2022-09-10T06:47:01Z</time>
      </trkpt>
      <trkpt lat="42.387808" lon="8.933537">
        <ele>1914.2</ele>
        <time>2022-09-10T06:47:12Z</time>
      </trkpt>
      <trkpt lat="42.387795" lon="8.933563">
        <ele>1914.4</ele>
        <time>2022-09-10T06:47:18Z</time>
      </trkpt>
      <trkpt lat="42.38778" lon="8.933588">
        <ele>1914.0</ele>
        <time>2022-09-10T06:47:25Z</time>
      </trkpt>
      <trkpt lat="42.387772" lon="8.933623">
        <ele>1912.0</ele>
        <time>2022-09-10T06:47:41Z</time>
      </trkpt>
      <trkpt lat="42.387765" lon="8.933718">
        <ele>1911.8</ele>
        <time>2022-09-10T06:47:48Z</time>
      </trkpt>
      <trkpt lat="42.387767" lon="8.933805">
        <ele>1912.0</ele>
        <time>2022-09-10T06:47:54Z</time>
      </trkpt>
      <trkpt lat="42.387783" lon="8.933858">
        <ele>1912.2</ele>
        <time>2022-09-10T06:47:58Z</time>
      </trkpt>
      <trkpt lat="42.387795" lon="8.933882">
        <ele>1912.8</ele>
        <time>2022-09-10T06:48:01Z</time>
      </trkpt>
      <trkpt lat="42.387825" lon="8.933895">
        <ele>1915.4</ele>
        <time>2022-09-10T06:48:20Z</time>
      </trkpt>
      <trkpt lat="42.387832" lon="8.933947">
        <ele>1917.4</ele>
        <time>2022-09-10T06:48:29Z</time>
      </trkpt>
      <trkpt lat="42.387835" lon="8.933977">
        <ele>1918.6</ele>
        <time>2022-09-10T06:48:35Z</time>
      </trkpt>
      <trkpt lat="42.387843" lon="8.934008">
        <ele>1919.2</ele>
        <time>2022-09-10T06:48:41Z</time>
      </trkpt>
      <trkpt lat="42.387812" lon="8.934072">
        <ele>1922.0</ele>
        <time>2022-09-10T06:48:55Z</time>
      </trkpt>
      <trkpt lat="42.387828" lon="8.934078">
        <ele>1922.2</ele>
        <time>2022-09-10T06:48:58Z</time>
      </trkpt>
      <trkpt lat="42.387813" lon="8.934165">
        <ele>1924.0</ele>
        <time>2022-09-10T06:49:24Z</time>
      </trkpt>
      <trkpt lat="42.387808" lon="8.93418">
        <ele>1925.2</ele>
        <time>2022-09-10T06:49:29Z</time>
      </trkpt>
      <trkpt lat="42.387773" lon="8.934203">
        <ele>1928.0</ele>
        <time>2022-09-10T06:49:49Z</time>
      </trkpt>
      <trkpt lat="42.387757" lon="8.934215">
        <ele>1928.4</ele>
        <time>2022-09-10T06:49:52Z</time>
      </trkpt>
      <trkpt lat="42.38772" lon="8.934208">
        <ele>1929.4</ele>
        <time>2022-09-10T06:49:59Z</time>
      </trkpt>
      <trkpt lat="42.387697" lon="8.934227">
        <ele>1930.0</ele>
        <time>2022-09-10T06:50:09Z</time>
      </trkpt>
      <trkpt lat="42.387703" lon="8.934265">
        <ele>1931.8</ele>
        <time>2022-09-10T06:50:24Z</time>
      </trkpt>
      <trkpt lat="42.387683" lon="8.934382">
        <ele>1941.2</ele>
        <time>2022-09-10T06:51:14Z</time>
      </trkpt>
      <trkpt lat="42.387643" lon="8.934418">
        <ele>1945.0</ele>
        <time>2022-09-10T06:51:31Z</time>
      </trkpt>
      <trkpt lat="42.387623" lon="8.934473">
        <ele>1945.8</ele>
        <time>2022-09-10T06:51:45Z</time>
      </trkpt>
      <trkpt lat="42.387627" lon="8.93451">
        <ele>1946.6</ele>
        <time>2022-09-10T06:51:50Z</time>
      </trkpt>
      <trkpt lat="42.38762" lon="8.934525">
        <ele>1947.2</ele>
        <time>2022-09-10T06:51:53Z</time>
      </trkpt>
      <trkpt lat="42.387637" lon="8.934595">
        <ele>1948.2</ele>
        <time>2022-09-10T06:52:02Z</time>
      </trkpt>
      <trkpt lat="42.387612" lon="8.934617">
        <ele>1949.4</ele>
        <time>2022-09-10T06:52:10Z</time>
      </trkpt>
      <trkpt lat="42.38765" lon="8.934617">
        <ele>1949.8</ele>
        <time>2022-09-10T06:52:22Z</time>
      </trkpt>
      <trkpt lat="42.387685" lon="8.93462">
        <ele>1950.4</ele>
        <time>2022-09-10T06:52:28Z</time>
      </trkpt>
      <trkpt lat="42.387715" lon="8.934675">
        <ele>1951.6</ele>
        <time>2022-09-10T06:52:43Z</time>
      </trkpt>
      <trkpt lat="42.387708" lon="8.93471">
        <ele>1952.0</ele>
        <time>2022-09-10T06:52:50Z</time>
      </trkpt>
      <trkpt lat="42.387692" lon="8.934762">
        <ele>1952.0</ele>
        <time>2022-09-10T06:52:58Z</time>
      </trkpt>
      <trkpt lat="42.387668" lon="8.934912">
        <ele>1953.4</ele>
        <time>2022-09-10T06:53:15Z</time>
      </trkpt>
      <trkpt lat="42.387668" lon="8.934922">
        <ele>1953.4</ele>
        <time>2022-09-10T06:53:16Z</time>
      </trkpt>
      <trkpt lat="42.387652" lon="8.934922">
        <ele>1953.8</ele>
        <time>2022-09-10T06:53:19Z</time>
      </trkpt>
      <trkpt lat="42.387607" lon="8.934895">
        <ele>1954.8</ele>
        <time>2022-09-10T06:53:25Z</time>
      </trkpt>
      <trkpt lat="42.387578" lon="8.93491">
        <ele>1956.0</ele>
        <time>2022-09-10T06:53:36Z</time>
      </trkpt>
      <trkpt lat="42.387475" lon="8.934913">
        <ele>1957.2</ele>
        <time>2022-09-10T06:53:44Z</time>
      </trkpt>
      <trkpt lat="42.387432" lon="8.934915">
        <ele>1962.0</ele>
        <time>2022-09-10T06:54:18Z</time>
      </trkpt>
      <trkpt lat="42.387408" lon="8.935062">
        <ele>1967.2</ele>
        <time>2022-09-10T06:54:55Z</time>
      </trkpt>
      <trkpt lat="42.387355" lon="8.935048">
        <ele>1967.6</ele>
        <time>2022-09-10T06:55:02Z</time>
      </trkpt>
      <trkpt lat="42.387327" lon="8.935057">
        <ele>1967.6</ele>
        <time>2022-09-10T06:55:05Z</time>
      </trkpt>
      <trkpt lat="42.38729" lon="8.93509">
        <ele>1967.6</ele>
        <time>2022-09-10T06:55:12Z</time>
      </trkpt>
      <trkpt lat="42.387277" lon="8.93513">
        <ele>1968.6</ele>
        <time>2022-09-10T06:55:17Z</time>
      </trkpt>
      <trkpt lat="42.387263" lon="8.935177">
        <ele>1970.0</ele>
        <time>2022-09-10T06:55:24Z</time>
      </trkpt>
      <trkpt lat="42.387233" lon="8.935202">
        <ele>1971.6</ele>
        <time>2022-09-10T06:55:29Z</time>
      </trkpt>
      <trkpt lat="42.387182" lon="8.93522">
        <ele>1972.4</ele>
        <time>2022-09-10T06:55:37Z</time>
      </trkpt>
      <trkpt lat="42.387122" lon="8.935225">
        <ele>1974.6</ele>
        <time>2022-09-10T06:55:55Z</time>
      </trkpt>
      <trkpt lat="42.387117" lon="8.935228">
        <ele>1974.6</ele>
        <time>2022-09-10T06:55:56Z</time>
      </trkpt>
      <trkpt lat="42.3871" lon="8.935258">
        <ele>1975.6</ele>
        <time>2022-09-10T06:56:06Z</time>
      </trkpt>
      <trkpt lat="42.387078" lon="8.935295">
        <ele>1976.4</ele>
        <time>2022-09-10T06:56:12Z</time>
      </trkpt>
      <trkpt lat="42.387053" lon="8.935333">
        <ele>1978.2</ele>
        <time>2022-09-10T06:56:26Z</time>
      </trkpt>
      <trkpt lat="42.387028" lon="8.935372">
        <ele>1981.8</ele>
        <time>2022-09-10T06:56:48Z</time>
      </trkpt>
      <trkpt lat="42.387025" lon="8.935377">
        <ele>1982.2</ele>
        <time>2022-09-10T06:56:49Z</time>
      </trkpt>
      <trkpt lat="42.38713" lon="8.935498">
        <ele>1987.2</ele>
        <time>2022-09-10T06:57:27Z</time>
      </trkpt>
      <trkpt lat="42.387148" lon="8.93565">
        <ele>1988.6</ele>
        <time>2022-09-10T06:57:38Z</time>
      </trkpt>
      <trkpt lat="42.386965" lon="8.935987">
        <ele>1990.0</ele>
        <time>2022-09-10T06:57:51Z</time>
      </trkpt>
      <trkpt lat="42.386997" lon="8.936038">
        <ele>1990.0</ele>
        <time>2022-09-10T06:57:52Z</time>
      </trkpt>
      <trkpt lat="42.387095" lon="8.936112">
        <ele>1990.2</ele>
        <time>2022-09-10T06:58:02Z</time>
      </trkpt>
      <trkpt lat="42.38713" lon="8.936168">
        <ele>1990.2</ele>
        <time>2022-09-10T06:58:08Z</time>
      </trkpt>
      <trkpt lat="42.387153" lon="8.936197">
        <ele>1990.4</ele>
        <time>2022-09-10T06:58:12Z</time>
      </trkpt>
      <trkpt lat="42.387223" lon="8.93617">
        <ele>1991.8</ele>
        <time>2022-09-10T06:58:22Z</time>
      </trkpt>
      <trkpt lat="42.38724" lon="8.936195">
        <ele>1992.6</ele>
        <time>2022-09-10T06:58:26Z</time>
      </trkpt>
      <trkpt lat="42.387238" lon="8.93624">
        <ele>1993.4</ele>
        <time>2022-09-10T06:58:31Z</time>
      </trkpt>
      <trkpt lat="42.387245" lon="8.936277">
        <ele>1995.4</ele>
        <time>2022-09-10T06:58:47Z</time>
      </trkpt>
      <trkpt lat="42.387245" lon="8.936278">
        <ele>1995.4</ele>
        <time>2022-09-10T06:58:48Z</time>
      </trkpt>
      <trkpt lat="42.386988" lon="8.936082">
        <ele>1999.4</ele>
        <time>2022-09-10T06:59:28Z</time>
      </trkpt>
      <trkpt lat="42.38692" lon="8.936193">
        <ele>2000.8</ele>
        <time>2022-09-10T07:00:22Z</time>
      </trkpt>
      <trkpt lat="42.386902" lon="8.936232">
        <ele>2001.4</ele>
        <time>2022-09-10T07:00:27Z</time>
      </trkpt>
      <trkpt lat="42.386862" lon="8.936233">
        <ele>2003.4</ele>
        <time>2022-09-10T07:00:34Z</time>
      </trkpt>
      <trkpt lat="42.386813" lon="8.936218">
        <ele>2004.6</ele>
        <time>2022-09-10T07:00:40Z</time>
      </trkpt>
      <trkpt lat="42.386797" lon="8.936242">
        <ele>2005.0</ele>
        <time>2022-09-10T07:00:43Z</time>
      </trkpt>
      <trkpt lat="42.386792" lon="8.93635">
        <ele>2006.6</ele>
        <time>2022-09-10T07:00:52Z</time>
      </trkpt>
      <trkpt lat="42.386783" lon="8.9364">
        <ele>2007.4</ele>
        <time>2022-09-10T07:00:56Z</time>
      </trkpt>
      <trkpt lat="42.386768" lon="8.936405">
        <ele>2008.0</ele>
        <time>2022-09-10T07:00:59Z</time>
      </trkpt>
      <trkpt lat="42.38678" lon="8.936535">
        <ele>2011.6</ele>
        <time>2022-09-10T07:01:14Z</time>
      </trkpt>
      <trkpt lat="42.386773" lon="8.93659">
        <ele>2012.8</ele>
        <time>2022-09-10T07:01:21Z</time>
      </trkpt>
      <trkpt lat="42.386762" lon="8.936623">
        <ele>2013.4</ele>
        <time>2022-09-10T07:01:26Z</time>
      </trkpt>
      <trkpt lat="42.3868" lon="8.936622">
        <ele>2016.6</ele>
        <time>2022-09-10T07:01:50Z</time>
      </trkpt>
      <trkpt lat="42.38684" lon="8.93662">
        <ele>2017.2</ele>
        <time>2022-09-10T07:02:00Z</time>
      </trkpt>
      <trkpt lat="42.386857" lon="8.936728">
        <ele>2022.6</ele>
        <time>2022-09-10T07:02:29Z</time>
      </trkpt>
      <trkpt lat="42.386808" lon="8.936732">
        <ele>2024.8</ele>
        <time>2022-09-10T07:02:43Z</time>
      </trkpt>
      <trkpt lat="42.386825" lon="8.936787">
        <ele>2026.2</ele>
        <time>2022-09-10T07:02:53Z</time>
      </trkpt>
      <trkpt lat="42.386827" lon="8.936798">
        <ele>2026.2</ele>
        <time>2022-09-10T07:02:55Z</time>
      </trkpt>
      <trkpt lat="42.386797" lon="8.93683">
        <ele>2027.6</ele>
        <time>2022-09-10T07:03:07Z</time>
      </trkpt>
      <trkpt lat="42.38671" lon="8.936867">
        <ele>2027.8</ele>
        <time>2022-09-10T07:03:21Z</time>
      </trkpt>
      <trkpt lat="42.386707" lon="8.936875">
        <ele>2027.8</ele>
        <time>2022-09-10T07:03:21Z</time>
      </trkpt>
      <trkpt lat="42.386653" lon="8.936985">
        <ele>2031.4</ele>
        <time>2022-09-10T07:03:52Z</time>
      </trkpt>
      <trkpt lat="42.386682" lon="8.937057">
        <ele>2032.6</ele>
        <time>2022-09-10T07:04:02Z</time>
      </trkpt>
      <trkpt lat="42.38667" lon="8.937268">
        <ele>2036.2</ele>
        <time>2022-09-10T07:04:42Z</time>
      </trkpt>
      <trkpt lat="42.386647" lon="8.937328">
        <ele>2036.8</ele>
        <time>2022-09-10T07:04:51Z</time>
      </trkpt>
      <trkpt lat="42.386617" lon="8.93742">
        <ele>2039.2</ele>
        <time>2022-09-10T07:05:02Z</time>
      </trkpt>
      <trkpt lat="42.386587" lon="8.937463">
        <ele>2041.4</ele>
        <time>2022-09-10T07:05:09Z</time>
      </trkpt>
      <trkpt lat="42.386568" lon="8.937507">
        <ele>2042.6</ele>
        <time>2022-09-10T07:05:15Z</time>
      </trkpt>
      <trkpt lat="42.38651" lon="8.937572">
        <ele>2044.6</ele>
        <time>2022-09-10T07:05:43Z</time>
      </trkpt>
      <trkpt lat="42.386517" lon="8.937617">
        <ele>2043.6</ele>
        <time>2022-09-10T07:05:53Z</time>
      </trkpt>
      <trkpt lat="42.38652" lon="8.937623">
        <ele>2043.6</ele>
        <time>2022-09-10T07:05:53Z</time>
      </trkpt>
      <trkpt lat="42.386578" lon="8.937603">
        <ele>2047.4</ele>
        <time>2022-09-10T07:06:39Z</time>
      </trkpt>
      <trkpt lat="42.386585" lon="8.937602">
        <ele>2047.6</ele>
        <time>2022-09-10T07:06:41Z</time>
      </trkpt>
      <trkpt lat="42.386527" lon="8.937752">
        <ele>2054.4</ele>
        <time>2022-09-10T07:07:12Z</time>
      </trkpt>
      <trkpt lat="42.386558" lon="8.93777">
        <ele>2056.2</ele>
        <time>2022-09-10T07:07:26Z</time>
      </trkpt>
      <trkpt lat="42.386555" lon="8.937798">
        <ele>2057.0</ele>
        <time>2022-09-10T07:07:31Z</time>
      </trkpt>
      <trkpt lat="42.386532" lon="8.937837">
        <ele>2058.2</ele>
        <time>2022-09-10T07:07:39Z</time>
      </trkpt>
      <trkpt lat="42.386565" lon="8.937867">
        <ele>2059.8</ele>
        <time>2022-09-10T07:07:52Z</time>
      </trkpt>
      <trkpt lat="42.386578" lon="8.937898">
        <ele>2061.2</ele>
        <time>2022-09-10T07:08:06Z</time>
      </trkpt>
      <trkpt lat="42.386575" lon="8.937935">
        <ele>2061.8</ele>
        <time>2022-09-10T07:08:09Z</time>
      </trkpt>
      <trkpt lat="42.38655" lon="8.937988">
        <ele>2063.6</ele>
        <time>2022-09-10T07:08:19Z</time>
      </trkpt>
      <trkpt lat="42.38645" lon="8.938053">
        <ele>2066.0</ele>
        <time>2022-09-10T07:08:49Z</time>
      </trkpt>
      <trkpt lat="42.38639" lon="8.938035">
        <ele>2068.0</ele>
        <time>2022-09-10T07:09:03Z</time>
      </trkpt>
      <trkpt lat="42.386382" lon="8.938035">
        <ele>2069.2</ele>
        <time>2022-09-10T07:09:07Z</time>
      </trkpt>
      <trkpt lat="42.386332" lon="8.938002">
        <ele>2069.8</ele>
        <time>2022-09-10T07:09:15Z</time>
      </trkpt>
      <trkpt lat="42.386273" lon="8.937975">
        <ele>2070.0</ele>
        <time>2022-09-10T07:09:21Z</time>
      </trkpt>
      <trkpt lat="42.386232" lon="8.937968">
        <ele>2070.4</ele>
        <time>2022-09-10T07:09:24Z</time>
      </trkpt>
      <trkpt lat="42.386202" lon="8.93797">
        <ele>2070.4</ele>
        <time>2022-09-10T07:09:26Z</time>
      </trkpt>
      <trkpt lat="42.386147" lon="8.937865">
        <ele>2070.4</ele>
        <time>2022-09-10T07:09:33Z</time>
      </trkpt>
      <trkpt lat="42.386125" lon="8.93781">
        <ele>2070.2</ele>
        <time>2022-09-10T07:09:36Z</time>
      </trkpt>
      <trkpt lat="42.386082" lon="8.937753">
        <ele>2070.8</ele>
        <time>2022-09-10T07:09:40Z</time>
      </trkpt>
      <trkpt lat="42.386045" lon="8.937735">
        <ele>2071.4</ele>
        <time>2022-09-10T07:09:43Z</time>
      </trkpt>
      <trkpt lat="42.386003" lon="8.937725">
        <ele>2073.8</ele>
        <time>2022-09-10T07:09:48Z</time>
      </trkpt>
      <trkpt lat="42.38595" lon="8.937717">
        <ele>2076.8</ele>
        <time>2022-09-10T07:10:05Z</time>
      </trkpt>
      <trkpt lat="42.38593" lon="8.937712">
        <ele>2077.6</ele>
        <time>2022-09-10T07:10:11Z</time>
      </trkpt>
      <trkpt lat="42.385905" lon="8.93776">
        <ele>2080.4</ele>
        <time>2022-09-10T07:10:29Z</time>
      </trkpt>
      <trkpt lat="42.385905" lon="8.937813">
        <ele>2085.4</ele>
        <time>2022-09-10T07:11:01Z</time>
      </trkpt>
      <trkpt lat="42.38589" lon="8.937835">
        <ele>2086.0</ele>
        <time>2022-09-10T07:11:10Z</time>
      </trkpt>
      <trkpt lat="42.385898" lon="8.937875">
        <ele>2087.0</ele>
        <time>2022-09-10T07:11:19Z</time>
      </trkpt>
      <trkpt lat="42.385878" lon="8.937882">
        <ele>2090.2</ele>
        <time>2022-09-10T07:11:36Z</time>
      </trkpt>
      <trkpt lat="42.385865" lon="8.937933">
        <ele>2091.0</ele>
        <time>2022-09-10T07:11:44Z</time>
      </trkpt>
      <trkpt lat="42.385853" lon="8.93798">
        <ele>2091.4</ele>
        <time>2022-09-10T07:11:48Z</time>
      </trkpt>
      <trkpt lat="42.385712" lon="8.938027">
        <ele>2095.2</ele>
        <time>2022-09-10T07:12:10Z</time>
      </trkpt>
      <trkpt lat="42.385702" lon="8.938027">
        <ele>2095.8</ele>
        <time>2022-09-10T07:12:13Z</time>
      </trkpt>
      <trkpt lat="42.385653" lon="8.938082">
        <ele>2101.0</ele>
        <time>2022-09-10T07:12:31Z</time>
      </trkpt>
      <trkpt lat="42.385562" lon="8.938192">
        <ele>2102.8</ele>
        <time>2022-09-10T07:13:03Z</time>
      </trkpt>
      <trkpt lat="42.385557" lon="8.9382">
        <ele>2102.8</ele>
        <time>2022-09-10T07:13:04Z</time>
      </trkpt>
      <trkpt lat="42.385477" lon="8.938268">
        <ele>2102.4</ele>
        <time>2022-09-10T07:13:16Z</time>
      </trkpt>
      <trkpt lat="42.385435" lon="8.938307">
        <ele>2102.0</ele>
        <time>2022-09-10T07:13:22Z</time>
      </trkpt>
      <trkpt lat="42.385373" lon="8.938343">
        <ele>2101.8</ele>
        <time>2022-09-10T07:13:26Z</time>
      </trkpt>
      <trkpt lat="42.385318" lon="8.93836">
        <ele>2101.8</ele>
        <time>2022-09-10T07:13:29Z</time>
      </trkpt>
      <trkpt lat="42.385233" lon="8.938367">
        <ele>2101.6</ele>
        <time>2022-09-10T07:13:34Z</time>
      </trkpt>
      <trkpt lat="42.385203" lon="8.938367">
        <ele>2101.4</ele>
        <time>2022-09-10T07:13:36Z</time>
      </trkpt>
      <trkpt lat="42.38516" lon="8.938362">
        <ele>2101.0</ele>
        <time>2022-09-10T07:13:40Z</time>
      </trkpt>
      <trkpt lat="42.38511" lon="8.938417">
        <ele>2100.2</ele>
        <time>2022-09-10T07:13:46Z</time>
      </trkpt>
      <trkpt lat="42.385058" lon="8.938448">
        <ele>2100.0</ele>
        <time>2022-09-10T07:13:51Z</time>
      </trkpt>
      <trkpt lat="42.385048" lon="8.938472">
        <ele>2100.0</ele>
        <time>2022-09-10T07:13:53Z</time>
      </trkpt>
      <trkpt lat="42.385032" lon="8.938562">
        <ele>2099.4</ele>
        <time>2022-09-10T07:14:00Z</time>
      </trkpt>
      <trkpt lat="42.385012" lon="8.938588">
        <ele>2099.4</ele>
        <time>2022-09-10T07:14:04Z</time>
      </trkpt>
      <trkpt lat="42.384975" lon="8.938587">
        <ele>2099.4</ele>
        <time>2022-09-10T07:14:08Z</time>
      </trkpt>
      <trkpt lat="42.384947" lon="8.938585">
        <ele>2100.0</ele>
        <time>2022-09-10T07:14:11Z</time>
      </trkpt>
      <trkpt lat="42.384852" lon="8.938642">
        <ele>2102.0</ele>
        <time>2022-09-10T07:14:37Z</time>
      </trkpt>
      <trkpt lat="42.384852" lon="8.938645">
        <ele>2102.0</ele>
        <time>2022-09-10T07:14:38Z</time>
      </trkpt>
      <trkpt lat="42.384865" lon="8.938702">
        <ele>2103.0</ele>
        <time>2022-09-10T07:14:47Z</time>
      </trkpt>
      <trkpt lat="42.384877" lon="8.938767">
        <ele>2102.6</ele>
        <time>2022-09-10T07:14:55Z</time>
      </trkpt>
      <trkpt lat="42.384875" lon="8.9388">
        <ele>2102.2</ele>
        <time>2022-09-10T07:15:02Z</time>
      </trkpt>
      <trkpt lat="42.384838" lon="8.938828">
        <ele>2102.2</ele>
        <time>2022-09-10T07:15:16Z</time>
      </trkpt>
      <trkpt lat="42.38483" lon="8.938847">
        <ele>2103.0</ele>
        <time>2022-09-10T07:15:21Z</time>
      </trkpt>
      <trkpt lat="42.384792" lon="8.9389">
        <ele>2105.6</ele>
        <time>2022-09-10T07:15:33Z</time>
      </trkpt>
      <trkpt lat="42.3847" lon="8.938888">
        <ele>2107.2</ele>
        <time>2022-09-10T07:15:45Z</time>
      </trkpt>
      <trkpt lat="42.384637" lon="8.938893">
        <ele>2107.4</ele>
        <time>2022-09-10T07:15:50Z</time>
      </trkpt>
      <trkpt lat="42.384542" lon="8.938902">
        <ele>2108.0</ele>
        <time>2022-09-10T07:15:56Z</time>
      </trkpt>
      <trkpt lat="42.384517" lon="8.938953">
        <ele>2108.2</ele>
        <time>2022-09-10T07:16:00Z</time>
      </trkpt>
      <trkpt lat="42.384507" lon="8.93895">
        <ele>2108.2</ele>
        <time>2022-09-10T07:16:02Z</time>
      </trkpt>
      <trkpt lat="42.384422" lon="8.93893">
        <ele>2108.6</ele>
        <time>2022-09-10T07:16:10Z</time>
      </trkpt>
      <trkpt lat="42.384373" lon="8.93899">
        <ele>2108.6</ele>
        <time>2022-09-10T07:16:19Z</time>
      </trkpt>
      <trkpt lat="42.384343" lon="8.939028">
        <ele>2110.8</ele>
        <time>2022-09-10T07:16:36Z</time>
      </trkpt>
      <trkpt lat="42.38426" lon="8.93908">
        <ele>2113.2</ele>
        <time>2022-09-10T07:16:58Z</time>
      </trkpt>
      <trkpt lat="42.384252" lon="8.93911">
        <ele>2114.4</ele>
        <time>2022-09-10T07:17:05Z</time>
      </trkpt>
      <trkpt lat="42.384223" lon="8.939135">
        <ele>2115.0</ele>
        <time>2022-09-10T07:17:11Z</time>
      </trkpt>
      <trkpt lat="42.384098" lon="8.939193">
        <ele>2116.6</ele>
        <time>2022-09-10T07:17:18Z</time>
      </trkpt>
      <trkpt lat="42.384087" lon="8.939217">
        <ele>2117.0</ele>
        <time>2022-09-10T07:17:19Z</time>
      </trkpt>
      <trkpt lat="42.384062" lon="8.939238">
        <ele>2117.2</ele>
        <time>2022-09-10T07:17:21Z</time>
      </trkpt>
      <trkpt lat="42.384015" lon="8.939327">
        <ele>2117.2</ele>
        <time>2022-09-10T07:17:27Z</time>
      </trkpt>
      <trkpt lat="42.384003" lon="8.939372">
        <ele>2117.4</ele>
        <time>2022-09-10T07:17:30Z</time>
      </trkpt>
      <trkpt lat="42.383997" lon="8.93938">
        <ele>2118.4</ele>
        <time>2022-09-10T07:17:38Z</time>
      </trkpt>
      <trkpt lat="42.384013" lon="8.939377">
        <ele>2120.0</ele>
        <time>2022-09-10T07:17:50Z</time>
      </trkpt>
      <trkpt lat="42.383982" lon="8.939407">
        <ele>2122.4</ele>
        <time>2022-09-10T07:18:07Z</time>
      </trkpt>
      <trkpt lat="42.383938" lon="8.939423">
        <ele>2123.2</ele>
        <time>2022-09-10T07:18:15Z</time>
      </trkpt>
      <trkpt lat="42.383932" lon="8.93939">
        <ele>2124.0</ele>
        <time>2022-09-10T07:18:27Z</time>
      </trkpt>
      <trkpt lat="42.383927" lon="8.939372">
        <ele>2124.4</ele>
        <time>2022-09-10T07:18:30Z</time>
      </trkpt>
      <trkpt lat="42.383905" lon="8.939367">
        <ele>2125.6</ele>
        <time>2022-09-10T07:18:33Z</time>
      </trkpt>
      <trkpt lat="42.383887" lon="8.939438">
        <ele>2125.6</ele>
        <time>2022-09-10T07:18:44Z</time>
      </trkpt>
      <trkpt lat="42.383858" lon="8.93943">
        <ele>2129.2</ele>
        <time>2022-09-10T07:18:57Z</time>
      </trkpt>
      <trkpt lat="42.38385" lon="8.939488">
        <ele>2128.4</ele>
        <time>2022-09-10T07:19:09Z</time>
      </trkpt>
      <trkpt lat="42.383833" lon="8.939532">
        <ele>2130.0</ele>
        <time>2022-09-10T07:19:20Z</time>
      </trkpt>
      <trkpt lat="42.38384" lon="8.93957">
        <ele>2130.2</ele>
        <time>2022-09-10T07:19:24Z</time>
      </trkpt>
      <trkpt lat="42.383835" lon="8.939602">
        <ele>2130.4</ele>
        <time>2022-09-10T07:19:27Z</time>
      </trkpt>
      <trkpt lat="42.383802" lon="8.9396">
        <ele>2131.2</ele>
        <time>2022-09-10T07:19:33Z</time>
      </trkpt>
      <trkpt lat="42.383762" lon="8.939557">
        <ele>2134.0</ele>
        <time>2022-09-10T07:19:52Z</time>
      </trkpt>
      <trkpt lat="42.383738" lon="8.93956">
        <ele>2136.4</ele>
        <time>2022-09-10T07:20:05Z</time>
      </trkpt>
      <trkpt lat="42.383717" lon="8.939578">
        <ele>2137.2</ele>
        <time>2022-09-10T07:20:12Z</time>
      </trkpt>
      <trkpt lat="42.383642" lon="8.939597">
        <ele>2138.6</ele>
        <time>2022-09-10T07:20:26Z</time>
      </trkpt>
      <trkpt lat="42.383597" lon="8.939562">
        <ele>2138.6</ele>
        <time>2022-09-10T07:20:34Z</time>
      </trkpt>
      <trkpt lat="42.383513" lon="8.93949">
        <ele>2141.4</ele>
        <time>2022-09-10T07:20:46Z</time>
      </trkpt>
      <trkpt lat="42.383512" lon="8.939492">
        <ele>2141.6</ele>
        <time>2022-09-10T07:20:47Z</time>
      </trkpt>
      <trkpt lat="42.383502" lon="8.939537">
        <ele>2141.4</ele>
        <time>2022-09-10T07:20:56Z</time>
      </trkpt>
      <trkpt lat="42.38346" lon="8.93955">
        <ele>2143.4</ele>
        <time>2022-09-10T07:21:10Z</time>
      </trkpt>
      <trkpt lat="42.383448" lon="8.93961">
        <ele>2144.0</ele>
        <time>2022-09-10T07:21:21Z</time>
      </trkpt>
      <trkpt lat="42.38342" lon="8.939627">
        <ele>2145.6</ele>
        <time>2022-09-10T07:21:28Z</time>
      </trkpt>
      <trkpt lat="42.383412" lon="8.939678">
        <ele>2147.4</ele>
        <time>2022-09-10T07:21:38Z</time>
      </trkpt>
      <trkpt lat="42.383378" lon="8.939645">
        <ele>2149.2</ele>
        <time>2022-09-10T07:21:47Z</time>
      </trkpt>
      <trkpt lat="42.383348" lon="8.939605">
        <ele>2152.0</ele>
        <time>2022-09-10T07:22:10Z</time>
      </trkpt>
      <trkpt lat="42.38327" lon="8.93949">
        <ele>2155.0</ele>
        <time>2022-09-10T07:22:28Z</time>
      </trkpt>
      <trkpt lat="42.38326" lon="8.939502">
        <ele>2155.4</ele>
        <time>2022-09-10T07:22:29Z</time>
      </trkpt>
      <trkpt lat="42.38322" lon="8.939595">
        <ele>2160.6</ele>
        <time>2022-09-10T07:22:55Z</time>
      </trkpt>
      <trkpt lat="42.383152" lon="8.939583">
        <ele>2163.8</ele>
        <time>2022-09-10T07:23:32Z</time>
      </trkpt>
      <trkpt lat="42.383167" lon="8.939675">
        <ele>2169.8</ele>
        <time>2022-09-10T07:24:34Z</time>
      </trkpt>
      <trkpt lat="42.383167" lon="8.939758">
        <ele>2171.4</ele>
        <time>2022-09-10T07:24:42Z</time>
      </trkpt>
      <trkpt lat="42.383152" lon="8.939783">
        <ele>2172.0</ele>
        <time>2022-09-10T07:24:44Z</time>
      </trkpt>
      <trkpt lat="42.38315" lon="8.939862">
        <ele>2174.0</ele>
        <time>2022-09-10T07:24:52Z</time>
      </trkpt>
      <trkpt lat="42.383162" lon="8.939932">
        <ele>2173.4</ele>
        <time>2022-09-10T07:25:01Z</time>
      </trkpt>
      <trkpt lat="42.383125" lon="8.939965">
        <ele>2173.4</ele>
        <time>2022-09-10T07:25:07Z</time>
      </trkpt>
      <trkpt lat="42.38312" lon="8.939992">
        <ele>2174.2</ele>
        <time>2022-09-10T07:25:11Z</time>
      </trkpt>
      <trkpt lat="42.383125" lon="8.940055">
        <ele>2175.2</ele>
        <time>2022-09-10T07:25:19Z</time>
      </trkpt>
      <trkpt lat="42.383095" lon="8.94007">
        <ele>2175.4</ele>
        <time>2022-09-10T07:25:25Z</time>
      </trkpt>
      <trkpt lat="42.383057" lon="8.940102">
        <ele>2176.4</ele>
        <time>2022-09-10T07:25:29Z</time>
      </trkpt>
      <trkpt lat="42.383062" lon="8.940143">
        <ele>2177.2</ele>
        <time>2022-09-10T07:25:32Z</time>
      </trkpt>
      <trkpt lat="42.383075" lon="8.940218">
        <ele>2177.4</ele>
        <time>2022-09-10T07:25:38Z</time>
      </trkpt>
      <trkpt lat="42.383072" lon="8.940233">
        <ele>2177.4</ele>
        <time>2022-09-10T07:25:39Z</time>
      </trkpt>
      <trkpt lat="42.38298" lon="8.940267">
        <ele>2178.6</ele>
        <time>2022-09-10T07:25:47Z</time>
      </trkpt>
      <trkpt lat="42.382917" lon="8.940278">
        <ele>2179.4</ele>
        <time>2022-09-10T07:25:53Z</time>
      </trkpt>
      <trkpt lat="42.382918" lon="8.940343">
        <ele>2182.2</ele>
        <time>2022-09-10T07:26:08Z</time>
      </trkpt>
      <trkpt lat="42.382915" lon="8.940347">
        <ele>2182.4</ele>
        <time>2022-09-10T07:26:09Z</time>
      </trkpt>
      <trkpt lat="42.382895" lon="8.940287">
        <ele>2185.6</ele>
        <time>2022-09-10T07:26:22Z</time>
      </trkpt>
      <trkpt lat="42.382862" lon="8.940217">
        <ele>2187.0</ele>
        <time>2022-09-10T07:26:28Z</time>
      </trkpt>
      <trkpt lat="42.382825" lon="8.940228">
        <ele>2187.2</ele>
        <time>2022-09-10T07:26:35Z</time>
      </trkpt>
      <trkpt lat="42.382843" lon="8.940235">
        <ele>2191.4</ele>
        <time>2022-09-10T07:27:05Z</time>
      </trkpt>
      <trkpt lat="42.382872" lon="8.940238">
        <ele>2194.4</ele>
        <time>2022-09-10T07:27:17Z</time>
      </trkpt>
      <trkpt lat="42.382867" lon="8.940265">
        <ele>2195.2</ele>
        <time>2022-09-10T07:27:21Z</time>
      </trkpt>
      <trkpt lat="42.38285" lon="8.940287">
        <ele>2195.8</ele>
        <time>2022-09-10T07:27:24Z</time>
      </trkpt>
      <trkpt lat="42.382848" lon="8.940333">
        <ele>2195.4</ele>
        <time>2022-09-10T07:27:28Z</time>
      </trkpt>
      <trkpt lat="42.382853" lon="8.940413">
        <ele>2195.6</ele>
        <time>2022-09-10T07:27:34Z</time>
      </trkpt>
      <trkpt lat="42.382843" lon="8.940455">
        <ele>2196.8</ele>
        <time>2022-09-10T07:27:41Z</time>
      </trkpt>
      <trkpt lat="42.38282" lon="8.940535">
        <ele>2197.2</ele>
        <time>2022-09-10T07:27:57Z</time>
      </trkpt>
      <trkpt lat="42.38279" lon="8.94056">
        <ele>2198.2</ele>
        <time>2022-09-10T07:28:08Z</time>
      </trkpt>
      <trkpt lat="42.382747" lon="8.940557">
        <ele>2202.2</ele>
        <time>2022-09-10T07:28:20Z</time>
      </trkpt>
      <trkpt lat="42.382705" lon="8.94054">
        <ele>2204.6</ele>
        <time>2022-09-10T07:28:27Z</time>
      </trkpt>
      <trkpt lat="42.382623" lon="8.940583">
        <ele>2206.2</ele>
        <time>2022-09-10T07:28:43Z</time>
      </trkpt>
      <trkpt lat="42.382617" lon="8.94065">
        <ele>2206.8</ele>
        <time>2022-09-10T07:28:51Z</time>
      </trkpt>
      <trkpt lat="42.382568" lon="8.94068">
        <ele>2208.2</ele>
        <time>2022-09-10T07:29:03Z</time>
      </trkpt>
      <trkpt lat="42.38254" lon="8.940658">
        <ele>2208.8</ele>
        <time>2022-09-10T07:29:10Z</time>
      </trkpt>
      <trkpt lat="42.38252" lon="8.940688">
        <ele>2209.4</ele>
        <time>2022-09-10T07:29:16Z</time>
      </trkpt>
      <trkpt lat="42.382508" lon="8.940687">
        <ele>2209.8</ele>
        <time>2022-09-10T07:29:21Z</time>
      </trkpt>
      <trkpt lat="42.382483" lon="8.940655">
        <ele>2210.6</ele>
        <time>2022-09-10T07:29:27Z</time>
      </trkpt>
      <trkpt lat="42.38239" lon="8.940642">
        <ele>2212.4</ele>
        <time>2022-09-10T07:29:46Z</time>
      </trkpt>
      <trkpt lat="42.3824" lon="8.940665">
        <ele>2214.0</ele>
        <time>2022-09-10T07:29:57Z</time>
      </trkpt>
      <trkpt lat="42.382423" lon="8.940705">
        <ele>2215.8</ele>
        <time>2022-09-10T07:30:12Z</time>
      </trkpt>
      <trkpt lat="42.382412" lon="8.940718">
        <ele>2216.8</ele>
        <time>2022-09-10T07:30:22Z</time>
      </trkpt>
      <trkpt lat="42.382483" lon="8.940765">
        <ele>2218.4</ele>
        <time>2022-09-10T07:30:52Z</time>
      </trkpt>
      <trkpt lat="42.382487" lon="8.940768">
        <ele>2218.4</ele>
        <time>2022-09-10T07:30:53Z</time>
      </trkpt>
      <trkpt lat="42.382518" lon="8.940807">
        <ele>2228.6</ele>
        <time>2022-09-10T07:31:40Z</time>
      </trkpt>
      <trkpt lat="42.382498" lon="8.940845">
        <ele>2230.0</ele>
        <time>2022-09-10T07:31:48Z</time>
      </trkpt>
      <trkpt lat="42.382453" lon="8.940893">
        <ele>2232.0</ele>
        <time>2022-09-10T07:32:01Z</time>
      </trkpt>
      <trkpt lat="42.382427" lon="8.940912">
        <ele>2232.0</ele>
        <time>2022-09-10T07:32:14Z</time>
      </trkpt>
      <trkpt lat="42.382405" lon="8.940912">
        <ele>2232.4</ele>
        <time>2022-09-10T07:32:28Z</time>
      </trkpt>
      <trkpt lat="42.382387" lon="8.940963">
        <ele>2236.4</ele>
        <time>2022-09-10T07:32:55Z</time>
      </trkpt>
      <trkpt lat="42.382392" lon="8.940968">
        <ele>2236.8</ele>
        <time>2022-09-10T07:32:56Z</time>
      </trkpt>
      <trkpt lat="42.38246" lon="8.941013">
        <ele>2238.8</ele>
        <time>2022-09-10T07:33:12Z</time>
      </trkpt>
      <trkpt lat="42.382423" lon="8.94108">
        <ele>2240.0</ele>
        <time>2022-09-10T07:33:26Z</time>
      </trkpt>
      <trkpt lat="42.382388" lon="8.941143">
        <ele>2242.6</ele>
        <time>2022-09-10T07:34:00Z</time>
      </trkpt>
      <trkpt lat="42.382342" lon="8.941252">
        <ele>2249.2</ele>
        <time>2022-09-10T07:35:14Z</time>
      </trkpt>
      <trkpt lat="42.38238" lon="8.941263">
        <ele>2251.6</ele>
        <time>2022-09-10T07:35:33Z</time>
      </trkpt>
      <trkpt lat="42.38238" lon="8.941293">
        <ele>2258.0</ele>
        <time>2022-09-10T07:36:16Z</time>
      </trkpt>
      <trkpt lat="42.382395" lon="8.941332">
        <ele>2258.4</ele>
        <time>2022-09-10T07:36:22Z</time>
      </trkpt>
      <trkpt lat="42.3824" lon="8.941338">
        <ele>2258.4</ele>
        <time>2022-09-10T07:36:22Z</time>
      </trkpt>
      <trkpt lat="42.382325" lon="8.941328">
        <ele>2260.0</ele>
        <time>2022-09-10T07:36:31Z</time>
      </trkpt>
      <trkpt lat="42.382297" lon="8.941313">
        <ele>2260.8</ele>
        <time>2022-09-10T07:36:35Z</time>
      </trkpt>
      <trkpt lat="42.38228" lon="8.9413">
        <ele>2262.2</ele>
        <time>2022-09-10T07:36:41Z</time>
      </trkpt>
      <trkpt lat="42.382285" lon="8.941263">
        <ele>2263.4</ele>
        <time>2022-09-10T07:36:51Z</time>
      </trkpt>
      <trkpt lat="42.382298" lon="8.941242">
        <ele>2263.6</ele>
        <time>2022-09-10T07:36:58Z</time>
      </trkpt>
      <trkpt lat="42.382302" lon="8.94118">
        <ele>2265.2</ele>
        <time>2022-09-10T07:37:05Z</time>
      </trkpt>
      <trkpt lat="42.3823" lon="8.94117">
        <ele>2265.2</ele>
        <time>2022-09-10T07:37:06Z</time>
      </trkpt>
      <trkpt lat="42.382287" lon="8.941167">
        <ele>2266.0</ele>
        <time>2022-09-10T07:37:17Z</time>
      </trkpt>
      <trkpt lat="42.382237" lon="8.941167">
        <ele>2267.0</ele>
        <time>2022-09-10T07:37:27Z</time>
      </trkpt>
      <trkpt lat="42.38221" lon="8.941185">
        <ele>2266.6</ele>
        <time>2022-09-10T07:37:39Z</time>
      </trkpt>
      <trkpt lat="42.38201" lon="8.94121">
        <ele>2275.6</ele>
        <time>2022-09-10T07:38:25Z</time>
      </trkpt>
      <trkpt lat="42.381985" lon="8.941192">
        <ele>2276.4</ele>
        <time>2022-09-10T07:38:39Z</time>
      </trkpt>
      <trkpt lat="42.381983" lon="8.9412">
        <ele>2276.4</ele>
        <time>2022-09-10T07:38:41Z</time>
      </trkpt>
      <trkpt lat="42.38199" lon="8.94126">
        <ele>2277.4</ele>
        <time>2022-09-10T07:38:51Z</time>
      </trkpt>
      <trkpt lat="42.38203" lon="8.941303">
        <ele>2282.2</ele>
        <time>2022-09-10T07:39:28Z</time>
      </trkpt>
      <trkpt lat="42.381978" lon="8.941235">
        <ele>2287.0</ele>
        <time>2022-09-10T07:40:13Z</time>
      </trkpt>
      <trkpt lat="42.381855" lon="8.941175">
        <ele>2291.6</ele>
        <time>2022-09-10T07:41:46Z</time>
      </trkpt>
      <trkpt lat="42.381748" lon="8.941148">
        <ele>2292.0</ele>
        <time>2022-09-10T07:42:05Z</time>
      </trkpt>
      <trkpt lat="42.381695" lon="8.94108">
        <ele>2292.0</ele>
        <time>2022-09-10T07:42:10Z</time>
      </trkpt>
      <trkpt lat="42.381667" lon="8.941042">
        <ele>2292.2</ele>
        <time>2022-09-10T07:42:15Z</time>
      </trkpt>
      <trkpt lat="42.381632" lon="8.941012">
        <ele>2292.2</ele>
        <time>2022-09-10T07:42:21Z</time>
      </trkpt>
      <trkpt lat="42.381612" lon="8.940975">
        <ele>2292.8</ele>
        <time>2022-09-10T07:42:26Z</time>
      </trkpt>
      <trkpt lat="42.381512" lon="8.94096">
        <ele>2296.8</ele>
        <time>2022-09-10T07:42:45Z</time>
      </trkpt>
      <trkpt lat="42.381478" lon="8.940922">
        <ele>2298.8</ele>
        <time>2022-09-10T07:42:53Z</time>
      </trkpt>
      <trkpt lat="42.38146" lon="8.940937">
        <ele>2300.6</ele>
        <time>2022-09-10T07:43:03Z</time>
      </trkpt>
      <trkpt lat="42.3814" lon="8.940915">
        <ele>2301.6</ele>
        <time>2022-09-10T07:43:13Z</time>
      </trkpt>
      <trkpt lat="42.381327" lon="8.940863">
        <ele>2302.8</ele>
        <time>2022-09-10T07:43:21Z</time>
      </trkpt>
      <trkpt lat="42.38127" lon="8.940802">
        <ele>2305.6</ele>
        <time>2022-09-10T07:43:30Z</time>
      </trkpt>
      <trkpt lat="42.381263" lon="8.940798">
        <ele>2305.6</ele>
        <time>2022-09-10T07:43:30Z</time>
      </trkpt>
      <trkpt lat="42.381258" lon="8.940782">
        <ele>2308.2</ele>
        <time>2022-09-10T07:43:34Z</time>
      </trkpt>
      <trkpt lat="42.38125" lon="8.940772">
        <ele>2308.6</ele>
        <time>2022-09-10T07:43:38Z</time>
      </trkpt>
      <trkpt lat="42.381313" lon="8.940737">
        <ele>2307.8</ele>
        <time>2022-09-10T07:43:56Z</time>
      </trkpt>
      <trkpt lat="42.381323" lon="8.94073">
        <ele>2309.2</ele>
        <time>2022-09-10T07:44:12Z</time>
      </trkpt>
      <trkpt lat="42.381318" lon="8.940735">
        <ele>2309.2</ele>
        <time>2022-09-10T07:44:13Z</time>
      </trkpt>
      <trkpt lat="42.38128" lon="8.940787">
        <ele>2309.6</ele>
        <time>2022-09-10T07:44:20Z</time>
      </trkpt>
      <trkpt lat="42.381273" lon="8.940792">
        <ele>2309.6</ele>
        <time>2022-09-10T07:44:21Z</time>
      </trkpt>
      <trkpt lat="42.381223" lon="8.940748">
        <ele>2311.0</ele>
        <time>2022-09-10T07:44:28Z</time>
      </trkpt>
      <trkpt lat="42.381198" lon="8.940785">
        <ele>2311.2</ele>
        <time>2022-09-10T07:44:32Z</time>
      </trkpt>
      <trkpt lat="42.381205" lon="8.940743">
        <ele>2320.8</ele>
        <time>2022-09-10T07:45:25Z</time>
      </trkpt>
      <trkpt lat="42.381132" lon="8.940747">
        <ele>2320.8</ele>
        <time>2022-09-10T07:45:35Z</time>
      </trkpt>
      <trkpt lat="42.38107" lon="8.940707">
        <ele>2322.2</ele>
        <time>2022-09-10T07:45:43Z</time>
      </trkpt>
      <trkpt lat="42.381077" lon="8.940597">
        <ele>2322.0</ele>
        <time>2022-09-10T07:45:57Z</time>
      </trkpt>
      <trkpt lat="42.381042" lon="8.940577">
        <ele>2322.0</ele>
        <time>2022-09-10T07:46:03Z</time>
      </trkpt>
      <trkpt lat="42.381012" lon="8.940578">
        <ele>2321.2</ele>
        <time>2022-09-10T07:46:06Z</time>
      </trkpt>
      <trkpt lat="42.380955" lon="8.940585">
        <ele>2319.2</ele>
        <time>2022-09-10T07:46:13Z</time>
      </trkpt>
      <trkpt lat="42.38091" lon="8.940595">
        <ele>2316.0</ele>
        <time>2022-09-10T07:46:21Z</time>
      </trkpt>
      <trkpt lat="42.380883" lon="8.940568">
        <ele>2315.4</ele>
        <time>2022-09-10T07:46:28Z</time>
      </trkpt>
      <trkpt lat="42.380848" lon="8.9405">
        <ele>2313.8</ele>
        <time>2022-09-10T07:46:44Z</time>
      </trkpt>
      <trkpt lat="42.380838" lon="8.940418">
        <ele>2310.6</ele>
        <time>2022-09-10T07:46:57Z</time>
      </trkpt>
      <trkpt lat="42.380838" lon="8.940405">
        <ele>2310.4</ele>
        <time>2022-09-10T07:46:59Z</time>
      </trkpt>
      <trkpt lat="42.380787" lon="8.94033">
        <ele>2308.0</ele>
        <time>2022-09-10T07:47:15Z</time>
      </trkpt>
      <trkpt lat="42.380777" lon="8.94033">
        <ele>2308.2</ele>
        <time>2022-09-10T07:47:18Z</time>
      </trkpt>
      <trkpt lat="42.380725" lon="8.940282">
        <ele>2308.6</ele>
        <time>2022-09-10T07:47:32Z</time>
      </trkpt>
      <trkpt lat="42.380713" lon="8.940173">
        <ele>2308.6</ele>
        <time>2022-09-10T07:47:50Z</time>
      </trkpt>
      <trkpt lat="42.380662" lon="8.940098">
        <ele>2311.4</ele>
        <time>2022-09-10T07:48:27Z</time>
      </trkpt>
      <trkpt lat="42.380657" lon="8.940095">
        <ele>2311.8</ele>
        <time>2022-09-10T07:48:28Z</time>
      </trkpt>
      <trkpt lat="42.380595" lon="8.939992">
        <ele>2313.8</ele>
        <time>2022-09-10T07:49:13Z</time>
      </trkpt>
      <trkpt lat="42.380585" lon="8.939983">
        <ele>2313.8</ele>
        <time>2022-09-10T07:49:16Z</time>
      </trkpt>
      <trkpt lat="42.380567" lon="8.939948">
        <ele>2314.8</ele>
        <time>2022-09-10T07:49:21Z</time>
      </trkpt>
      <trkpt lat="42.380567" lon="8.939933">
        <ele>2314.8</ele>
        <time>2022-09-10T07:49:23Z</time>
      </trkpt>
      <trkpt lat="42.380548" lon="8.93989">
        <ele>2316.4</ele>
        <time>2022-09-10T07:49:32Z</time>
      </trkpt>
      <trkpt lat="42.380525" lon="8.939882">
        <ele>2317.0</ele>
        <time>2022-09-10T07:49:36Z</time>
      </trkpt>
      <trkpt lat="42.380473" lon="8.939928">
        <ele>2317.4</ele>
        <time>2022-09-10T07:50:18Z</time>
      </trkpt>
      <trkpt lat="42.380553" lon="8.939822">
        <ele>2320.4</ele>
        <time>2022-09-10T07:50:33Z</time>
      </trkpt>
      <trkpt lat="42.380503" lon="8.939785">
        <ele>2323.4</ele>
        <time>2022-09-10T07:50:43Z</time>
      </trkpt>
      <trkpt lat="42.380498" lon="8.939778">
        <ele>2323.4</ele>
        <time>2022-09-10T07:50:44Z</time>
      </trkpt>
      <trkpt lat="42.380465" lon="8.93973">
        <ele>2323.8</ele>
        <time>2022-09-10T07:50:57Z</time>
      </trkpt>
      <trkpt lat="42.380442" lon="8.939713">
        <ele>2327.0</ele>
        <time>2022-09-10T07:51:05Z</time>
      </trkpt>
      <trkpt lat="42.380412" lon="8.939702">
        <ele>2327.4</ele>
        <time>2022-09-10T07:51:12Z</time>
      </trkpt>
      <trkpt lat="42.380373" lon="8.939678">
        <ele>2329.0</ele>
        <time>2022-09-10T07:51:25Z</time>
      </trkpt>
      <trkpt lat="42.380372" lon="8.939678">
        <ele>2329.0</ele>
        <time>2022-09-10T07:51:26Z</time>
      </trkpt>
      <trkpt lat="42.380347" lon="8.939653">
        <ele>2330.2</ele>
        <time>2022-09-10T07:51:33Z</time>
      </trkpt>
      <trkpt lat="42.380307" lon="8.939593">
        <ele>2329.0</ele>
        <time>2022-09-10T07:51:50Z</time>
      </trkpt>
      <trkpt lat="42.380292" lon="8.939577">
        <ele>2328.2</ele>
        <time>2022-09-10T07:51:58Z</time>
      </trkpt>
      <trkpt lat="42.380228" lon="8.939472">
        <ele>2327.8</ele>
        <time>2022-09-10T07:52:10Z</time>
      </trkpt>
      <trkpt lat="42.380165" lon="8.939343">
        <ele>2323.6</ele>
        <time>2022-09-10T07:52:31Z</time>
      </trkpt>
      <trkpt lat="42.380162" lon="8.93934">
        <ele>2323.6</ele>
        <time>2022-09-10T07:52:32Z</time>
      </trkpt>
      <trkpt lat="42.38012" lon="8.939265">
        <ele>2323.8</ele>
        <time>2022-09-10T07:52:47Z</time>
      </trkpt>
      <trkpt lat="42.38012" lon="8.93918">
        <ele>2324.4</ele>
        <time>2022-09-10T07:52:55Z</time>
      </trkpt>
      <trkpt lat="42.38014" lon="8.939115">
        <ele>2326.2</ele>
        <time>2022-09-10T07:53:12Z</time>
      </trkpt>
      <trkpt lat="42.380127" lon="8.93903">
        <ele>2332.0</ele>
        <time>2022-09-10T07:53:50Z</time>
      </trkpt>
      <trkpt lat="42.380123" lon="8.939025">
        <ele>2332.0</ele>
        <time>2022-09-10T07:53:51Z</time>
      </trkpt>
      <trkpt lat="42.380103" lon="8.938985">
        <ele>2332.4</ele>
        <time>2022-09-10T07:54:00Z</time>
      </trkpt>
      <trkpt lat="42.380102" lon="8.938942">
        <ele>2331.8</ele>
        <time>2022-09-10T07:54:08Z</time>
      </trkpt>
      <trkpt lat="42.380068" lon="8.938948">
        <ele>2332.8</ele>
        <time>2022-09-10T07:54:18Z</time>
      </trkpt>
      <trkpt lat="42.38001" lon="8.938988">
        <ele>2335.4</ele>
        <time>2022-09-10T07:54:32Z</time>
      </trkpt>
      <trkpt lat="42.379933" lon="8.939008">
        <ele>2339.8</ele>
        <time>2022-09-10T07:55:01Z</time>
      </trkpt>
      <trkpt lat="42.379895" lon="8.939037">
        <ele>2339.4</ele>
        <time>2022-09-10T07:55:12Z</time>
      </trkpt>
      <trkpt lat="42.379892" lon="8.939043">
        <ele>2339.4</ele>
        <time>2022-09-10T07:55:13Z</time>
      </trkpt>
      <trkpt lat="42.379873" lon="8.939095">
        <ele>2341.0</ele>
        <time>2022-09-10T07:55:27Z</time>
      </trkpt>
      <trkpt lat="42.379838" lon="8.939202">
        <ele>2346.0</ele>
        <time>2022-09-10T07:56:09Z</time>
      </trkpt>
      <trkpt lat="42.379842" lon="8.939218">
        <ele>2347.2</ele>
        <time>2022-09-10T07:56:15Z</time>
      </trkpt>
      <trkpt lat="42.379815" lon="8.939257">
        <ele>2353.4</ele>
        <time>2022-09-10T07:56:34Z</time>
      </trkpt>
      <trkpt lat="42.3798" lon="8.939277">
        <ele>2355.0</ele>
        <time>2022-09-10T07:57:47Z</time>
      </trkpt>
      <trkpt lat="42.379792" lon="8.939272">
        <ele>2355.6</ele>
        <time>2022-09-10T07:57:52Z</time>
      </trkpt>
      <trkpt lat="42.379778" lon="8.939222">
        <ele>2356.2</ele>
        <time>2022-09-10T07:58:03Z</time>
      </trkpt>
      <trkpt lat="42.379725" lon="8.939205">
        <ele>2359.6</ele>
        <time>2022-09-10T07:58:30Z</time>
      </trkpt>
      <trkpt lat="42.379725" lon="8.939235">
        <ele>2362.6</ele>
        <time>2022-09-10T07:58:43Z</time>
      </trkpt>
      <trkpt lat="42.379738" lon="8.93928">
        <ele>2363.8</ele>
        <time>2022-09-10T07:58:52Z</time>
      </trkpt>
      <trkpt lat="42.379687" lon="8.939333">
        <ele>2359.8</ele>
        <time>2022-09-10T07:59:45Z</time>
      </trkpt>
      <trkpt lat="42.379655" lon="8.939315">
        <ele>2359.8</ele>
        <time>2022-09-10T08:00:00Z</time>
      </trkpt>
      <trkpt lat="42.379587" lon="8.939413">
        <ele>2366.0</ele>
        <time>2022-09-10T08:00:41Z</time>
      </trkpt>
      <trkpt lat="42.379532" lon="8.93939">
        <ele>2368.0</ele>
        <time>2022-09-10T08:00:56Z</time>
      </trkpt>
      <trkpt lat="42.379495" lon="8.939312">
        <ele>2367.4</ele>
        <time>2022-09-10T08:01:04Z</time>
      </trkpt>
      <trkpt lat="42.379477" lon="8.939333">
        <ele>2368.4</ele>
        <time>2022-09-10T08:01:18Z</time>
      </trkpt>
      <trkpt lat="42.379393" lon="8.939288">
        <ele>2369.6</ele>
        <time>2022-09-10T08:01:27Z</time>
      </trkpt>
      <trkpt lat="42.379342" lon="8.939222">
        <ele>2370.2</ele>
        <time>2022-09-10T08:01:31Z</time>
      </trkpt>
      <trkpt lat="42.379265" lon="8.939182">
        <ele>2370.4</ele>
        <time>2022-09-10T08:01:39Z</time>
      </trkpt>
      <trkpt lat="42.379145" lon="8.939248">
        <ele>2372.2</ele>
        <time>2022-09-10T08:01:52Z</time>
      </trkpt>
      <trkpt lat="42.379137" lon="8.939252">
        <ele>2372.2</ele>
        <time>2022-09-10T08:01:53Z</time>
      </trkpt>
      <trkpt lat="42.379123" lon="8.939248">
        <ele>2373.2</ele>
        <time>2022-09-10T08:01:56Z</time>
      </trkpt>
      <trkpt lat="42.379147" lon="8.939213">
        <ele>2374.2</ele>
        <time>2022-09-10T08:02:03Z</time>
      </trkpt>
      <trkpt lat="42.379168" lon="8.939193">
        <ele>2374.2</ele>
        <time>2022-09-10T08:02:08Z</time>
      </trkpt>
      <trkpt lat="42.37915" lon="8.939142">
        <ele>2376.6</ele>
        <time>2022-09-10T08:02:26Z</time>
      </trkpt>
      <trkpt lat="42.379207" lon="8.939093">
        <ele>2378.8</ele>
        <time>2022-09-10T08:02:43Z</time>
      </trkpt>
      <trkpt lat="42.379197" lon="8.939023">
        <ele>2382.2</ele>
        <time>2022-09-10T08:03:10Z</time>
      </trkpt>
      <trkpt lat="42.379197" lon="8.93902">
        <ele>2382.2</ele>
        <time>2022-09-10T08:03:11Z</time>
      </trkpt>
      <trkpt lat="42.379182" lon="8.939068">
        <ele>2382.8</ele>
        <time>2022-09-10T08:03:17Z</time>
      </trkpt>
      <trkpt lat="42.379198" lon="8.939142">
        <ele>2383.0</ele>
        <time>2022-09-10T08:03:22Z</time>
      </trkpt>
      <trkpt lat="42.37915" lon="8.9391">
        <ele>2383.6</ele>
        <time>2022-09-10T08:03:31Z</time>
      </trkpt>
      <trkpt lat="42.37914" lon="8.939107">
        <ele>2383.6</ele>
        <time>2022-09-10T08:03:32Z</time>
      </trkpt>
      <trkpt lat="42.379132" lon="8.939173">
        <ele>2383.2</ele>
        <time>2022-09-10T08:03:38Z</time>
      </trkpt>
      <trkpt lat="42.379082" lon="8.939197">
        <ele>2383.8</ele>
        <time>2022-09-10T08:03:45Z</time>
      </trkpt>
      <trkpt lat="42.37904" lon="8.9392">
        <ele>2384.6</ele>
        <time>2022-09-10T08:03:53Z</time>
      </trkpt>
      <trkpt lat="42.37897" lon="8.939282">
        <ele>2387.4</ele>
        <time>2022-09-10T08:04:13Z</time>
      </trkpt>
      <trkpt lat="42.378962" lon="8.939287">
        <ele>2387.8</ele>
        <time>2022-09-10T08:04:14Z</time>
      </trkpt>
      <trkpt lat="42.378933" lon="8.939288">
        <ele>2387.8</ele>
        <time>2022-09-10T08:04:16Z</time>
      </trkpt>
      <trkpt lat="42.378882" lon="8.939228">
        <ele>2389.4</ele>
        <time>2022-09-10T08:04:23Z</time>
      </trkpt>
      <trkpt lat="42.378867" lon="8.939205">
        <ele>2389.8</ele>
        <time>2022-09-10T08:04:25Z</time>
      </trkpt>
      <trkpt lat="42.378807" lon="8.939168">
        <ele>2391.0</ele>
        <time>2022-09-10T08:04:34Z</time>
      </trkpt>
      <trkpt lat="42.378757" lon="8.93918">
        <ele>2391.8</ele>
        <time>2022-09-10T08:04:38Z</time>
      </trkpt>
      <trkpt lat="42.378722" lon="8.939177">
        <ele>2396.4</ele>
        <time>2022-09-10T08:05:06Z</time>
      </trkpt>
      <trkpt lat="42.378715" lon="8.9392">
        <ele>2403.8</ele>
        <time>2022-09-10T08:06:52Z</time>
      </trkpt>
      <trkpt lat="42.37871" lon="8.939152">
        <ele>2404.2</ele>
        <time>2022-09-10T08:06:59Z</time>
      </trkpt>
      <trkpt lat="42.378652" lon="8.939173">
        <ele>2408.2</ele>
        <time>2022-09-10T08:07:21Z</time>
      </trkpt>
      <trkpt lat="42.378577" lon="8.939145">
        <ele>2411.2</ele>
        <time>2022-09-10T08:07:45Z</time>
      </trkpt>
      <trkpt lat="42.378413" lon="8.93905">
        <ele>2409.4</ele>
        <time>2022-09-10T08:08:56Z</time>
      </trkpt>
      <trkpt lat="42.378182" lon="8.938895">
        <ele>2418.0</ele>
        <time>2022-09-10T08:10:38Z</time>
      </trkpt>
      <trkpt lat="42.378165" lon="8.938888">
        <ele>2418.8</ele>
        <time>2022-09-10T08:10:47Z</time>
      </trkpt>
      <trkpt lat="42.378253" lon="8.938905">
        <ele>2421.8</ele>
        <time>2022-09-10T08:11:35Z</time>
      </trkpt>
      <trkpt lat="42.378283" lon="8.938892">
        <ele>2429.2</ele>
        <time>2022-09-10T08:12:06Z</time>
      </trkpt>
      <trkpt lat="42.378295" lon="8.938885">
        <ele>2428.6</ele>
        <time>2022-09-10T08:12:16Z</time>
      </trkpt>
      <trkpt lat="42.378308" lon="8.938895">
        <ele>2426.6</ele>
        <time>2022-09-10T08:12:36Z</time>
      </trkpt>
      <trkpt lat="42.37831" lon="8.938893">
        <ele>2426.6</ele>
        <time>2022-09-10T08:12:37Z</time>
      </trkpt>
      <trkpt lat="42.378292" lon="8.938867">
        <ele>2427.6</ele>
        <time>2022-09-10T08:12:41Z</time>
      </trkpt>
      <trkpt lat="42.378258" lon="8.938847">
        <ele>2428.0</ele>
        <time>2022-09-10T08:12:45Z</time>
      </trkpt>
      <trkpt lat="42.378233" lon="8.93879">
        <ele>2429.4</ele>
        <time>2022-09-10T08:12:51Z</time>
      </trkpt>
      <trkpt lat="42.378233" lon="8.938762">
        <ele>2429.8</ele>
        <time>2022-09-10T08:12:55Z</time>
      </trkpt>
      <trkpt lat="42.378198" lon="8.938725">
        <ele>2430.4</ele>
        <time>2022-09-10T08:13:02Z</time>
      </trkpt>
      <trkpt lat="42.378165" lon="8.938672">
        <ele>2431.6</ele>
        <time>2022-09-10T08:13:10Z</time>
      </trkpt>
      <trkpt lat="42.378147" lon="8.93866">
        <ele>2432.4</ele>
        <time>2022-09-10T08:13:16Z</time>
      </trkpt>
      <trkpt lat="42.37811" lon="8.93862">
        <ele>2433.0</ele>
        <time>2022-09-10T08:13:23Z</time>
      </trkpt>
      <trkpt lat="42.378023" lon="8.938495">
        <ele>2435.8</ele>
        <time>2022-09-10T08:13:51Z</time>
      </trkpt>
      <trkpt lat="42.377967" lon="8.938418">
        <ele>2436.8</ele>
        <time>2022-09-10T08:14:07Z</time>
      </trkpt>
      <trkpt lat="42.377962" lon="8.938415">
        <ele>2436.8</ele>
        <time>2022-09-10T08:14:08Z</time>
      </trkpt>
      <trkpt lat="42.377937" lon="8.93841">
        <ele>2437.2</ele>
        <time>2022-09-10T08:14:20Z</time>
      </trkpt>
      <trkpt lat="42.377907" lon="8.938452">
        <ele>2441.4</ele>
        <time>2022-09-10T08:14:52Z</time>
      </trkpt>
      <trkpt lat="42.37776" lon="8.938428">
        <ele>2449.2</ele>
        <time>2022-09-10T08:15:56Z</time>
      </trkpt>
      <trkpt lat="42.377745" lon="8.938433">
        <ele>2451.2</ele>
        <time>2022-09-10T08:16:04Z</time>
      </trkpt>
      <trkpt lat="42.37769" lon="8.938372">
        <ele>2452.6</ele>
        <time>2022-09-10T08:16:17Z</time>
      </trkpt>
      <trkpt lat="42.37765" lon="8.938322">
        <ele>2455.6</ele>
        <time>2022-09-10T08:16:33Z</time>
      </trkpt>
      <trkpt lat="42.377608" lon="8.938243">
        <ele>2456.4</ele>
        <time>2022-09-10T08:17:12Z</time>
      </trkpt>
      <trkpt lat="42.377567" lon="8.938137">
        <ele>2464.6</ele>
        <time>2022-09-10T08:18:01Z</time>
      </trkpt>
      <trkpt lat="42.377577" lon="8.93812">
        <ele>2465.0</ele>
        <time>2022-09-10T08:18:07Z</time>
      </trkpt>
      <trkpt lat="42.377562" lon="8.938083">
        <ele>2465.0</ele>
        <time>2022-09-10T08:18:16Z</time>
      </trkpt>
      <trkpt lat="42.377533" lon="8.938065">
        <ele>2464.8</ele>
        <time>2022-09-10T08:18:24Z</time>
      </trkpt>
      <trkpt lat="42.377512" lon="8.938043">
        <ele>2465.0</ele>
        <time>2022-09-10T08:18:30Z</time>
      </trkpt>
      <trkpt lat="42.37748" lon="8.938028">
        <ele>2464.8</ele>
        <time>2022-09-10T08:18:37Z</time>
      </trkpt>
      <trkpt lat="42.377443" lon="8.938048">
        <ele>2464.8</ele>
        <time>2022-09-10T08:18:44Z</time>
      </trkpt>
      <trkpt lat="42.377418" lon="8.938028">
        <ele>2466.0</ele>
        <time>2022-09-10T08:19:00Z</time>
      </trkpt>
      <trkpt lat="42.377415" lon="8.937825">
        <ele>2475.2</ele>
        <time>2022-09-10T08:20:35Z</time>
      </trkpt>
      <trkpt lat="42.377375" lon="8.93783">
        <ele>2476.4</ele>
        <time>2022-09-10T08:20:47Z</time>
      </trkpt>
      <trkpt lat="42.377382" lon="8.93783">
        <ele>2476.8</ele>
        <time>2022-09-10T08:20:50Z</time>
      </trkpt>
      <trkpt lat="42.377437" lon="8.937833">
        <ele>2480.2</ele>
        <time>2022-09-10T08:21:05Z</time>
      </trkpt>
      <trkpt lat="42.377475" lon="8.937828">
        <ele>2481.6</ele>
        <time>2022-09-10T08:21:16Z</time>
      </trkpt>
      <trkpt lat="42.377515" lon="8.937867">
        <ele>2482.4</ele>
        <time>2022-09-10T08:21:25Z</time>
      </trkpt>
      <trkpt lat="42.377528" lon="8.937918">
        <ele>2482.4</ele>
        <time>2022-09-10T08:21:33Z</time>
      </trkpt>
      <trkpt lat="42.377533" lon="8.93823">
        <ele>2489.6</ele>
        <time>2022-09-10T08:22:32Z</time>
      </trkpt>
      <trkpt lat="42.377275" lon="8.938162">
        <ele>2504.0</ele>
        <time>2022-09-10T08:24:33Z</time>
      </trkpt>
      <trkpt lat="42.377232" lon="8.938208">
        <ele>2505.2</ele>
        <time>2022-09-10T08:24:49Z</time>
      </trkpt>
      <trkpt lat="42.377185" lon="8.938253">
        <ele>2506.2</ele>
        <time>2022-09-10T08:24:54Z</time>
      </trkpt>
      <trkpt lat="42.377157" lon="8.938237">
        <ele>2507.0</ele>
        <time>2022-09-10T08:24:57Z</time>
      </trkpt>
      <trkpt lat="42.37714" lon="8.938187">
        <ele>2507.8</ele>
        <time>2022-09-10T08:25:02Z</time>
      </trkpt>
      <trkpt lat="42.377083" lon="8.938085">
        <ele>2507.6</ele>
        <time>2022-09-10T08:25:15Z</time>
      </trkpt>
      <trkpt lat="42.377077" lon="8.938087">
        <ele>2507.8</ele>
        <time>2022-09-10T08:25:16Z</time>
      </trkpt>
      <trkpt lat="42.377027" lon="8.938028">
        <ele>2507.2</ele>
        <time>2022-09-10T08:25:29Z</time>
      </trkpt>
      <trkpt lat="42.377012" lon="8.938022">
        <ele>2507.6</ele>
        <time>2022-09-10T08:25:33Z</time>
      </trkpt>
      <trkpt lat="42.377018" lon="8.938">
        <ele>2509.2</ele>
        <time>2022-09-10T08:25:44Z</time>
      </trkpt>
      <trkpt lat="42.377005" lon="8.938017">
        <ele>2513.2</ele>
        <time>2022-09-10T08:25:57Z</time>
      </trkpt>
      <trkpt lat="42.377045" lon="8.937995">
        <ele>2515.0</ele>
        <time>2022-09-10T08:26:18Z</time>
      </trkpt>
      <trkpt lat="42.377105" lon="8.93796">
        <ele>2517.2</ele>
        <time>2022-09-10T08:26:50Z</time>
      </trkpt>
      <trkpt lat="42.377103" lon="8.937958">
        <ele>2517.2</ele>
        <time>2022-09-10T08:26:51Z</time>
      </trkpt>
      <trkpt lat="42.377077" lon="8.937963">
        <ele>2518.6</ele>
        <time>2022-09-10T08:26:58Z</time>
      </trkpt>
      <trkpt lat="42.377038" lon="8.937958">
        <ele>2520.4</ele>
        <time>2022-09-10T08:27:18Z</time>
      </trkpt>
      <trkpt lat="42.377012" lon="8.937977">
        <ele>2521.8</ele>
        <time>2022-09-10T08:27:33Z</time>
      </trkpt>
      <trkpt lat="42.376977" lon="8.93802">
        <ele>2525.8</ele>
        <time>2022-09-10T08:27:51Z</time>
      </trkpt>
      <trkpt lat="42.376973" lon="8.938008">
        <ele>2527.6</ele>
        <time>2022-09-10T08:28:01Z</time>
      </trkpt>
      <trkpt lat="42.376962" lon="8.93803">
        <ele>2530.2</ele>
        <time>2022-09-10T08:28:16Z</time>
      </trkpt>
      <trkpt lat="42.376915" lon="8.937998">
        <ele>2533.0</ele>
        <time>2022-09-10T08:28:43Z</time>
      </trkpt>
      <trkpt lat="42.376892" lon="8.937965">
        <ele>2534.0</ele>
        <time>2022-09-10T08:28:49Z</time>
      </trkpt>
      <trkpt lat="42.376852" lon="8.937952">
        <ele>2535.6</ele>
        <time>2022-09-10T08:28:57Z</time>
      </trkpt>
      <trkpt lat="42.376863" lon="8.938027">
        <ele>2538.8</ele>
        <time>2022-09-10T08:29:29Z</time>
      </trkpt>
      <trkpt lat="42.376803" lon="8.938005">
        <ele>2542.4</ele>
        <time>2022-09-10T08:29:59Z</time>
      </trkpt>
      <trkpt lat="42.376753" lon="8.937963">
        <ele>2543.6</ele>
        <time>2022-09-10T08:30:10Z</time>
      </trkpt>
      <trkpt lat="42.376702" lon="8.937942">
        <ele>2544.2</ele>
        <time>2022-09-10T08:30:17Z</time>
      </trkpt>
      <trkpt lat="42.376657" lon="8.93794">
        <ele>2544.4</ele>
        <time>2022-09-10T08:30:20Z</time>
      </trkpt>
      <trkpt lat="42.376662" lon="8.937907">
        <ele>2544.6</ele>
        <time>2022-09-10T08:30:23Z</time>
      </trkpt>
      <trkpt lat="42.376675" lon="8.93783">
        <ele>2546.8</ele>
        <time>2022-09-10T08:30:30Z</time>
      </trkpt>
      <trkpt lat="42.376673" lon="8.937813">
        <ele>2547.0</ele>
        <time>2022-09-10T08:30:31Z</time>
      </trkpt>
      <trkpt lat="42.376657" lon="8.937745">
        <ele>2548.0</ele>
        <time>2022-09-10T08:30:35Z</time>
      </trkpt>
      <trkpt lat="42.376682" lon="8.937682">
        <ele>2548.2</ele>
        <time>2022-09-10T08:30:39Z</time>
      </trkpt>
      <trkpt lat="42.376702" lon="8.937642">
        <ele>2548.4</ele>
        <time>2022-09-10T08:30:42Z</time>
      </trkpt>
      <trkpt lat="42.376708" lon="8.93758">
        <ele>2548.8</ele>
        <time>2022-09-10T08:30:46Z</time>
      </trkpt>
      <trkpt lat="42.37671" lon="8.937503">
        <ele>2549.6</ele>
        <time>2022-09-10T08:30:52Z</time>
      </trkpt>
      <trkpt lat="42.376347" lon="8.937435">
        <ele>2557.8</ele>
        <time>2022-09-10T08:31:39Z</time>
      </trkpt>
      <trkpt lat="42.376338" lon="8.937435">
        <ele>2558.2</ele>
        <time>2022-09-10T08:31:42Z</time>
      </trkpt>
      <trkpt lat="42.376412" lon="8.937288">
        <ele>2562.8</ele>
        <time>2022-09-10T08:31:55Z</time>
      </trkpt>
      <trkpt lat="42.376452" lon="8.937225">
        <ele>2563.6</ele>
        <time>2022-09-10T08:32:04Z</time>
      </trkpt>
      <trkpt lat="42.376592" lon="8.93722">
        <ele>2578.2</ele>
        <time>2022-09-10T08:32:31Z</time>
      </trkpt>
      <trkpt lat="42.376445" lon="8.937292">
        <ele>2579.6</ele>
        <time>2022-09-10T08:32:46Z</time>
      </trkpt>
      <trkpt lat="42.376363" lon="8.9374">
        <ele>2578.8</ele>
        <time>2022-09-10T08:32:55Z</time>
      </trkpt>
      <trkpt lat="42.376332" lon="8.937463">
        <ele>2580.6</ele>
        <time>2022-09-10T08:32:59Z</time>
      </trkpt>
      <trkpt lat="42.37631" lon="8.937512">
        <ele>2581.6</ele>
        <time>2022-09-10T08:33:03Z</time>
      </trkpt>
      <trkpt lat="42.376215" lon="8.937622">
        <ele>2584.4</ele>
        <time>2022-09-10T08:33:11Z</time>
      </trkpt>
      <trkpt lat="42.376198" lon="8.93756">
        <ele>2581.8</ele>
        <time>2022-09-10T08:33:20Z</time>
      </trkpt>
      <trkpt lat="42.376158" lon="8.937517">
        <ele>2585.2</ele>
        <time>2022-09-10T08:33:38Z</time>
      </trkpt>
      <trkpt lat="42.376138" lon="8.937518">
        <ele>2585.0</ele>
        <time>2022-09-10T08:33:45Z</time>
      </trkpt>
      <trkpt lat="42.376103" lon="8.937468">
        <ele>2579.0</ele>
        <time>2022-09-10T08:33:57Z</time>
      </trkpt>
      <trkpt lat="42.376075" lon="8.93744">
        <ele>2584.8</ele>
        <time>2022-09-10T08:34:26Z</time>
      </trkpt>
      <trkpt lat="42.376065" lon="8.937445">
        <ele>2583.6</ele>
        <time>2022-09-10T08:34:29Z</time>
      </trkpt>
      <trkpt lat="42.376043" lon="8.93741">
        <ele>2583.2</ele>
        <time>2022-09-10T08:34:51Z</time>
      </trkpt>
      <trkpt lat="42.376047" lon="8.937407">
        <ele>2583.4</ele>
        <time>2022-09-10T08:34:52Z</time>
      </trkpt>
      <trkpt lat="42.376215" lon="8.937542">
        <ele>2586.0</ele>
        <time>2022-09-10T08:35:59Z</time>
      </trkpt>
      <trkpt lat="42.37613" lon="8.93762">
        <ele>2580.0</ele>
        <time>2022-09-10T08:37:11Z</time>
      </trkpt>
      <trkpt lat="42.376092" lon="8.937675">
        <ele>2577.4</ele>
        <time>2022-09-10T08:37:19Z</time>
      </trkpt>
      <trkpt lat="42.376022" lon="8.9378">
        <ele>2572.4</ele>
        <time>2022-09-10T08:37:32Z</time>
      </trkpt>
      <trkpt lat="42.375992" lon="8.937853">
        <ele>2569.4</ele>
        <time>2022-09-10T08:37:38Z</time>
      </trkpt>
      <trkpt lat="42.375985" lon="8.937912">
        <ele>2568.0</ele>
        <time>2022-09-10T08:37:45Z</time>
      </trkpt>
      <trkpt lat="42.375982" lon="8.937962">
        <ele>2567.4</ele>
        <time>2022-09-10T08:37:50Z</time>
      </trkpt>
      <trkpt lat="42.375982" lon="8.937967">
        <ele>2567.4</ele>
        <time>2022-09-10T08:37:50Z</time>
      </trkpt>
      <trkpt lat="42.375992" lon="8.937997">
        <ele>2564.6</ele>
        <time>2022-09-10T08:38:04Z</time>
      </trkpt>
      <trkpt lat="42.376007" lon="8.938062">
        <ele>2564.0</ele>
        <time>2022-09-10T08:38:22Z</time>
      </trkpt>
      <trkpt lat="42.376037" lon="8.938067">
        <ele>2564.4</ele>
        <time>2022-09-10T08:38:27Z</time>
      </trkpt>
      <trkpt lat="42.376077" lon="8.938105">
        <ele>2565.8</ele>
        <time>2022-09-10T08:38:33Z</time>
      </trkpt>
      <trkpt lat="42.376102" lon="8.93814">
        <ele>2567.4</ele>
        <time>2022-09-10T08:38:40Z</time>
      </trkpt>
      <trkpt lat="42.376138" lon="8.938135">
        <ele>2569.2</ele>
        <time>2022-09-10T08:38:54Z</time>
      </trkpt>
      <trkpt lat="42.376185" lon="8.93818">
        <ele>2573.4</ele>
        <time>2022-09-10T08:39:20Z</time>
      </trkpt>
      <trkpt lat="42.37623" lon="8.9382">
        <ele>2578.2</ele>
        <time>2022-09-10T08:39:39Z</time>
      </trkpt>
      <trkpt lat="42.376232" lon="8.938202">
        <ele>2578.2</ele>
        <time>2022-09-10T08:39:40Z</time>
      </trkpt>
      <trkpt lat="42.37626" lon="8.938252">
        <ele>2580.2</ele>
        <time>2022-09-10T08:39:49Z</time>
      </trkpt>
      <trkpt lat="42.376297" lon="8.938278">
        <ele>2581.8</ele>
        <time>2022-09-10T08:39:56Z</time>
      </trkpt>
      <trkpt lat="42.376275" lon="8.938422">
        <ele>2587.4</ele>
        <time>2022-09-10T08:40:18Z</time>
      </trkpt>
      <trkpt lat="42.376295" lon="8.938473">
        <ele>2589.6</ele>
        <time>2022-09-10T08:40:30Z</time>
      </trkpt>
      <trkpt lat="42.37631" lon="8.93859">
        <ele>2573.8</ele>
        <time>2022-09-10T08:40:58Z</time>
      </trkpt>
      <trkpt lat="42.376292" lon="8.93867">
        <ele>2579.0</ele>
        <time>2022-09-10T08:41:16Z</time>
      </trkpt>
      <trkpt lat="42.3763" lon="8.938727">
        <ele>2580.0</ele>
        <time>2022-09-10T08:41:21Z</time>
      </trkpt>
      <trkpt lat="42.37629" lon="8.938773">
        <ele>2583.2</ele>
        <time>2022-09-10T08:41:25Z</time>
      </trkpt>
      <trkpt lat="42.376258" lon="8.938835">
        <ele>2587.2</ele>
        <time>2022-09-10T08:41:32Z</time>
      </trkpt>
      <trkpt lat="42.376225" lon="8.938918">
        <ele>2591.2</ele>
        <time>2022-09-10T08:41:42Z</time>
      </trkpt>
      <trkpt lat="42.376263" lon="8.938992">
        <ele>2589.0</ele>
        <time>2022-09-10T08:41:54Z</time>
      </trkpt>
      <trkpt lat="42.376335" lon="8.939117">
        <ele>2593.0</ele>
        <time>2022-09-10T08:42:37Z</time>
      </trkpt>
      <trkpt lat="42.376392" lon="8.93918">
        <ele>2591.4</ele>
        <time>2022-09-10T08:42:50Z</time>
      </trkpt>
      <trkpt lat="42.376397" lon="8.939185">
        <ele>2591.4</ele>
        <time>2022-09-10T08:42:54Z</time>
      </trkpt>
      <trkpt lat="42.376418" lon="8.939268">
        <ele>2591.8</ele>
        <time>2022-09-10T08:43:02Z</time>
      </trkpt>
      <trkpt lat="42.376418" lon="8.939357">
        <ele>2592.2</ele>
        <time>2022-09-10T08:43:09Z</time>
      </trkpt>
      <trkpt lat="42.376442" lon="8.939453">
        <ele>2591.4</ele>
        <time>2022-09-10T08:43:18Z</time>
      </trkpt>
      <trkpt lat="42.37648" lon="8.939492">
        <ele>2592.0</ele>
        <time>2022-09-10T08:43:23Z</time>
      </trkpt>
      <trkpt lat="42.376565" lon="8.939568">
        <ele>2593.8</ele>
        <time>2022-09-10T08:43:36Z</time>
      </trkpt>
      <trkpt lat="42.376608" lon="8.939633">
        <ele>2595.0</ele>
        <time>2022-09-10T08:43:43Z</time>
      </trkpt>
      <trkpt lat="42.376663" lon="8.939743">
        <ele>2596.6</ele>
        <time>2022-09-10T08:43:55Z</time>
      </trkpt>
      <trkpt lat="42.376697" lon="8.939817">
        <ele>2597.0</ele>
        <time>2022-09-10T08:44:06Z</time>
      </trkpt>
      <trkpt lat="42.376697" lon="8.939823">
        <ele>2597.0</ele>
        <time>2022-09-10T08:44:07Z</time>
      </trkpt>
      <trkpt lat="42.376623" lon="8.93982">
        <ele>2596.8</ele>
        <time>2022-09-10T08:44:24Z</time>
      </trkpt>
      <trkpt lat="42.376585" lon="8.939845">
        <ele>2596.6</ele>
        <time>2022-09-10T08:44:36Z</time>
      </trkpt>
      <trkpt lat="42.376573" lon="8.939873">
        <ele>2596.2</ele>
        <time>2022-09-10T08:44:44Z</time>
      </trkpt>
      <trkpt lat="42.376607" lon="8.939902">
        <ele>2598.2</ele>
        <time>2022-09-10T08:44:54Z</time>
      </trkpt>
      <trkpt lat="42.376708" lon="8.9399">
        <ele>2600.2</ele>
        <time>2022-09-10T08:45:05Z</time>
      </trkpt>
      <trkpt lat="42.376753" lon="8.939995">
        <ele>2602.4</ele>
        <time>2022-09-10T08:45:14Z</time>
      </trkpt>
      <trkpt lat="42.376785" lon="8.94004">
        <ele>2602.8</ele>
        <time>2022-09-10T08:45:19Z</time>
      </trkpt>
      <trkpt lat="42.376827" lon="8.940152">
        <ele>2605.2</ele>
        <time>2022-09-10T08:45:28Z</time>
      </trkpt>
      <trkpt lat="42.376855" lon="8.940233">
        <ele>2608.2</ele>
        <time>2022-09-10T08:45:35Z</time>
      </trkpt>
      <trkpt lat="42.376865" lon="8.940268">
        <ele>2608.4</ele>
        <time>2022-09-10T08:45:38Z</time>
      </trkpt>
      <trkpt lat="42.376867" lon="8.940297">
        <ele>2608.8</ele>
        <time>2022-09-10T08:45:42Z</time>
      </trkpt>
      <trkpt lat="42.376927" lon="8.940318">
        <ele>2607.6</ele>
        <time>2022-09-10T08:45:49Z</time>
      </trkpt>
      <trkpt lat="42.376857" lon="8.940405">
        <ele>2611.0</ele>
        <time>2022-09-10T08:46:06Z</time>
      </trkpt>
      <trkpt lat="42.376908" lon="8.940428">
        <ele>2607.0</ele>
        <time>2022-09-10T08:46:28Z</time>
      </trkpt>
      <trkpt lat="42.37695" lon="8.940448">
        <ele>2606.4</ele>
        <time>2022-09-10T08:46:41Z</time>
      </trkpt>
      <trkpt lat="42.376937" lon="8.94048">
        <ele>2603.0</ele>
        <time>2022-09-10T08:46:50Z</time>
      </trkpt>
      <trkpt lat="42.376905" lon="8.940502">
        <ele>2602.8</ele>
        <time>2022-09-10T08:46:55Z</time>
      </trkpt>
      <trkpt lat="42.376897" lon="8.940567">
        <ele>2601.2</ele>
        <time>2022-09-10T08:47:06Z</time>
      </trkpt>
      <trkpt lat="42.376897" lon="8.940572">
        <ele>2601.0</ele>
        <time>2022-09-10T08:47:07Z</time>
      </trkpt>
      <trkpt lat="42.376885" lon="8.94067">
        <ele>2600.2</ele>
        <time>2022-09-10T08:47:25Z</time>
      </trkpt>
      <trkpt lat="42.376907" lon="8.94077">
        <ele>2606.4</ele>
        <time>2022-09-10T08:48:04Z</time>
      </trkpt>
      <trkpt lat="42.376918" lon="8.94084">
        <ele>2609.8</ele>
        <time>2022-09-10T08:48:18Z</time>
      </trkpt>
      <trkpt lat="42.376915" lon="8.940845">
        <ele>2609.8</ele>
        <time>2022-09-10T08:48:18Z</time>
      </trkpt>
      <trkpt lat="42.376993" lon="8.940822">
        <ele>2611.8</ele>
        <time>2022-09-10T08:48:32Z</time>
      </trkpt>
      <trkpt lat="42.377047" lon="8.940835">
        <ele>2613.6</ele>
        <time>2022-09-10T08:48:43Z</time>
      </trkpt>
      <trkpt lat="42.377068" lon="8.94086">
        <ele>2615.2</ele>
        <time>2022-09-10T08:48:51Z</time>
      </trkpt>
      <trkpt lat="42.37707" lon="8.94087">
        <ele>2615.4</ele>
        <time>2022-09-10T08:48:52Z</time>
      </trkpt>
      <trkpt lat="42.377087" lon="8.94089">
        <ele>2616.6</ele>
        <time>2022-09-10T08:48:59Z</time>
      </trkpt>
      <trkpt lat="42.377127" lon="8.940858">
        <ele>2618.0</ele>
        <time>2022-09-10T08:49:11Z</time>
      </trkpt>
      <trkpt lat="42.377173" lon="8.940885">
        <ele>2619.6</ele>
        <time>2022-09-10T08:49:20Z</time>
      </trkpt>
      <trkpt lat="42.377182" lon="8.940918">
        <ele>2620.2</ele>
        <time>2022-09-10T08:49:26Z</time>
      </trkpt>
      <trkpt lat="42.37719" lon="8.940993">
        <ele>2622.4</ele>
        <time>2022-09-10T08:49:41Z</time>
      </trkpt>
      <trkpt lat="42.377227" lon="8.941212">
        <ele>2618.8</ele>
        <time>2022-09-10T08:50:23Z</time>
      </trkpt>
      <trkpt lat="42.377215" lon="8.94169">
        <ele>2615.0</ele>
        <time>2022-09-10T08:52:39Z</time>
      </trkpt>
      <trkpt lat="42.37721" lon="8.941687">
        <ele>2615.0</ele>
        <time>2022-09-10T08:52:43Z</time>
      </trkpt>
      <trkpt lat="42.377208" lon="8.941697">
        <ele>2614.2</ele>
        <time>2022-09-10T08:52:51Z</time>
      </trkpt>
      <trkpt lat="42.377222" lon="8.941693">
        <ele>2614.2</ele>
        <time>2022-09-10T08:52:55Z</time>
      </trkpt>
      <trkpt lat="42.377227" lon="8.941705">
        <ele>2613.4</ele>
        <time>2022-09-10T08:53:10Z</time>
      </trkpt>
      <trkpt lat="42.377212" lon="8.941705">
        <ele>2612.6</ele>
        <time>2022-09-10T08:53:19Z</time>
      </trkpt>
      <trkpt lat="42.377163" lon="8.941683">
        <ele>2611.2</ele>
        <time>2022-09-10T08:53:28Z</time>
      </trkpt>
      <trkpt lat="42.377083" lon="8.94165">
        <ele>2607.8</ele>
        <time>2022-09-10T08:53:44Z</time>
      </trkpt>
      <trkpt lat="42.37708" lon="8.941648">
        <ele>2607.8</ele>
        <time>2022-09-10T08:53:45Z</time>
      </trkpt>
      <trkpt lat="42.377065" lon="8.941625">
        <ele>2606.4</ele>
        <time>2022-09-10T08:53:51Z</time>
      </trkpt>
      <trkpt lat="42.37706" lon="8.94161">
        <ele>2606.0</ele>
        <time>2022-09-10T08:53:54Z</time>
      </trkpt>
      <trkpt lat="42.37701" lon="8.941587">
        <ele>2603.8</ele>
        <time>2022-09-10T08:54:08Z</time>
      </trkpt>
      <trkpt lat="42.37698" lon="8.941585">
        <ele>2603.0</ele>
        <time>2022-09-10T08:54:18Z</time>
      </trkpt>
      <trkpt lat="42.376987" lon="8.941555">
        <ele>2597.6</ele>
        <time>2022-09-10T08:55:19Z</time>
      </trkpt>
      <trkpt lat="42.376962" lon="8.941548">
        <ele>2594.4</ele>
        <time>2022-09-10T08:55:32Z</time>
      </trkpt>
      <trkpt lat="42.376958" lon="8.941555">
        <ele>2594.2</ele>
        <time>2022-09-10T08:55:33Z</time>
      </trkpt>
      <trkpt lat="42.376945" lon="8.941592">
        <ele>2592.8</ele>
        <time>2022-09-10T08:55:39Z</time>
      </trkpt>
      <trkpt lat="42.376937" lon="8.941637">
        <ele>2590.4</ele>
        <time>2022-09-10T08:55:48Z</time>
      </trkpt>
      <trkpt lat="42.376903" lon="8.941695">
        <ele>2589.2</ele>
        <time>2022-09-10T08:55:59Z</time>
      </trkpt>
      <trkpt lat="42.376887" lon="8.941715">
        <ele>2588.6</ele>
        <time>2022-09-10T08:56:05Z</time>
      </trkpt>
      <trkpt lat="42.376847" lon="8.941733">
        <ele>2585.8</ele>
        <time>2022-09-10T08:56:15Z</time>
      </trkpt>
      <trkpt lat="42.376838" lon="8.94174">
        <ele>2585.8</ele>
        <time>2022-09-10T08:56:17Z</time>
      </trkpt>
      <trkpt lat="42.376797" lon="8.941867">
        <ele>2581.6</ele>
        <time>2022-09-10T08:56:48Z</time>
      </trkpt>
      <trkpt lat="42.376798" lon="8.94187">
        <ele>2581.6</ele>
        <time>2022-09-10T08:56:49Z</time>
      </trkpt>
      <trkpt lat="42.37679" lon="8.94195">
        <ele>2575.4</ele>
        <time>2022-09-10T08:57:22Z</time>
      </trkpt>
      <trkpt lat="42.376797" lon="8.941993">
        <ele>2572.0</ele>
        <time>2022-09-10T08:57:37Z</time>
      </trkpt>
      <trkpt lat="42.376815" lon="8.942092">
        <ele>2568.4</ele>
        <time>2022-09-10T08:57:55Z</time>
      </trkpt>
      <trkpt lat="42.376815" lon="8.942107">
        <ele>2568.0</ele>
        <time>2022-09-10T08:57:58Z</time>
      </trkpt>
      <trkpt lat="42.37687" lon="8.942253">
        <ele>2568.0</ele>
        <time>2022-09-10T08:58:29Z</time>
      </trkpt>
      <trkpt lat="42.376962" lon="8.942342">
        <ele>2572.2</ele>
        <time>2022-09-10T08:59:18Z</time>
      </trkpt>
      <trkpt lat="42.376988" lon="8.942367">
        <ele>2572.8</ele>
        <time>2022-09-10T08:59:24Z</time>
      </trkpt>
      <trkpt lat="42.376988" lon="8.942375">
        <ele>2572.8</ele>
        <time>2022-09-10T08:59:25Z</time>
      </trkpt>
      <trkpt lat="42.376998" lon="8.942413">
        <ele>2574.0</ele>
        <time>2022-09-10T08:59:33Z</time>
      </trkpt>
      <trkpt lat="42.377003" lon="8.942413">
        <ele>2574.4</ele>
        <time>2022-09-10T08:59:34Z</time>
      </trkpt>
      <trkpt lat="42.37704" lon="8.942397">
        <ele>2575.6</ele>
        <time>2022-09-10T08:59:42Z</time>
      </trkpt>
      <trkpt lat="42.377065" lon="8.942422">
        <ele>2576.6</ele>
        <time>2022-09-10T08:59:49Z</time>
      </trkpt>
      <trkpt lat="42.377105" lon="8.94247">
        <ele>2579.0</ele>
        <time>2022-09-10T09:00:08Z</time>
      </trkpt>
      <trkpt lat="42.377152" lon="8.942513">
        <ele>2580.0</ele>
        <time>2022-09-10T09:00:18Z</time>
      </trkpt>
      <trkpt lat="42.377168" lon="8.942525">
        <ele>2580.4</ele>
        <time>2022-09-10T09:00:21Z</time>
      </trkpt>
      <trkpt lat="42.377195" lon="8.942565">
        <ele>2581.8</ele>
        <time>2022-09-10T09:00:27Z</time>
      </trkpt>
      <trkpt lat="42.377282" lon="8.942502">
        <ele>2584.6</ele>
        <time>2022-09-10T09:00:49Z</time>
      </trkpt>
      <trkpt lat="42.377288" lon="8.942498">
        <ele>2584.8</ele>
        <time>2022-09-10T09:00:50Z</time>
      </trkpt>
      <trkpt lat="42.377372" lon="8.942498">
        <ele>2587.6</ele>
        <time>2022-09-10T09:01:04Z</time>
      </trkpt>
      <trkpt lat="42.377365" lon="8.94255">
        <ele>2592.8</ele>
        <time>2022-09-10T09:01:37Z</time>
      </trkpt>
      <trkpt lat="42.377413" lon="8.942553">
        <ele>2592.8</ele>
        <time>2022-09-10T09:01:41Z</time>
      </trkpt>
      <trkpt lat="42.377425" lon="8.94255">
        <ele>2592.8</ele>
        <time>2022-09-10T09:01:42Z</time>
      </trkpt>
      <trkpt lat="42.377445" lon="8.9425">
        <ele>2594.0</ele>
        <time>2022-09-10T09:01:57Z</time>
      </trkpt>
      <trkpt lat="42.377445" lon="8.94247">
        <ele>2594.0</ele>
        <time>2022-09-10T09:02:01Z</time>
      </trkpt>
      <trkpt lat="42.377483" lon="8.942462">
        <ele>2594.2</ele>
        <time>2022-09-10T09:02:06Z</time>
      </trkpt>
      <trkpt lat="42.377515" lon="8.942522">
        <ele>2596.2</ele>
        <time>2022-09-10T09:02:14Z</time>
      </trkpt>
      <trkpt lat="42.377537" lon="8.942617">
        <ele>2597.2</ele>
        <time>2022-09-10T09:02:22Z</time>
      </trkpt>
      <trkpt lat="42.37754" lon="8.942662">
        <ele>2596.8</ele>
        <time>2022-09-10T09:02:26Z</time>
      </trkpt>
      <trkpt lat="42.37752" lon="8.9427">
        <ele>2596.0</ele>
        <time>2022-09-10T09:02:34Z</time>
      </trkpt>
      <trkpt lat="42.377507" lon="8.942738">
        <ele>2595.0</ele>
        <time>2022-09-10T09:02:42Z</time>
      </trkpt>
      <trkpt lat="42.377528" lon="8.942835">
        <ele>2595.4</ele>
        <time>2022-09-10T09:03:01Z</time>
      </trkpt>
      <trkpt lat="42.377527" lon="8.942857">
        <ele>2596.0</ele>
        <time>2022-09-10T09:03:05Z</time>
      </trkpt>
      <trkpt lat="42.37757" lon="8.942863">
        <ele>2592.0</ele>
        <time>2022-09-10T09:03:37Z</time>
      </trkpt>
      <trkpt lat="42.377562" lon="8.942878">
        <ele>2590.0</ele>
        <time>2022-09-10T09:04:01Z</time>
      </trkpt>
      <trkpt lat="42.377562" lon="8.942878">
        <ele>2590.0</ele>
        <time>2022-09-10T09:04:02Z</time>
      </trkpt>
      <trkpt lat="42.377582" lon="8.943018">
        <ele>2583.4</ele>
        <time>2022-09-10T09:04:34Z</time>
      </trkpt>
      <trkpt lat="42.377495" lon="8.943125">
        <ele>2580.0</ele>
        <time>2022-09-10T09:04:49Z</time>
      </trkpt>
      <trkpt lat="42.3775" lon="8.943133">
        <ele>2579.8</ele>
        <time>2022-09-10T09:04:50Z</time>
      </trkpt>
      <trkpt lat="42.377553" lon="8.9432">
        <ele>2580.2</ele>
        <time>2022-09-10T09:05:02Z</time>
      </trkpt>
      <trkpt lat="42.377617" lon="8.943267">
        <ele>2580.0</ele>
        <time>2022-09-10T09:05:21Z</time>
      </trkpt>
      <trkpt lat="42.377633" lon="8.943297">
        <ele>2578.6</ele>
        <time>2022-09-10T09:05:30Z</time>
      </trkpt>
      <trkpt lat="42.377657" lon="8.943315">
        <ele>2577.6</ele>
        <time>2022-09-10T09:05:36Z</time>
      </trkpt>
      <trkpt lat="42.377627" lon="8.943385">
        <ele>2576.0</ele>
        <time>2022-09-10T09:06:09Z</time>
      </trkpt>
      <trkpt lat="42.377648" lon="8.943398">
        <ele>2576.8</ele>
        <time>2022-09-10T09:06:20Z</time>
      </trkpt>
      <trkpt lat="42.377705" lon="8.943402">
        <ele>2579.4</ele>
        <time>2022-09-10T09:06:34Z</time>
      </trkpt>
      <trkpt lat="42.377732" lon="8.943417">
        <ele>2579.6</ele>
        <time>2022-09-10T09:06:38Z</time>
      </trkpt>
      <trkpt lat="42.37777" lon="8.943473">
        <ele>2579.8</ele>
        <time>2022-09-10T09:06:51Z</time>
      </trkpt>
      <trkpt lat="42.377783" lon="8.943513">
        <ele>2579.4</ele>
        <time>2022-09-10T09:06:59Z</time>
      </trkpt>
      <trkpt lat="42.3778" lon="8.943565">
        <ele>2577.4</ele>
        <time>2022-09-10T09:07:12Z</time>
      </trkpt>
      <trkpt lat="42.37781" lon="8.943602">
        <ele>2577.0</ele>
        <time>2022-09-10T09:07:20Z</time>
      </trkpt>
      <trkpt lat="42.377815" lon="8.943638">
        <ele>2576.0</ele>
        <time>2022-09-10T09:07:26Z</time>
      </trkpt>
      <trkpt lat="42.377902" lon="8.943828">
        <ele>2575.6</ele>
        <time>2022-09-10T09:07:52Z</time>
      </trkpt>
      <trkpt lat="42.377903" lon="8.94394">
        <ele>2575.0</ele>
        <time>2022-09-10T09:08:01Z</time>
      </trkpt>
      <trkpt lat="42.377863" lon="8.944058">
        <ele>2574.8</ele>
        <time>2022-09-10T09:08:23Z</time>
      </trkpt>
      <trkpt lat="42.377833" lon="8.944103">
        <ele>2571.8</ele>
        <time>2022-09-10T09:08:43Z</time>
      </trkpt>
      <trkpt lat="42.377822" lon="8.944142">
        <ele>2571.0</ele>
        <time>2022-09-10T09:08:47Z</time>
      </trkpt>
      <trkpt lat="42.377823" lon="8.944152">
        <ele>2571.0</ele>
        <time>2022-09-10T09:08:48Z</time>
      </trkpt>
      <trkpt lat="42.37783" lon="8.944213">
        <ele>2569.8</ele>
        <time>2022-09-10T09:08:58Z</time>
      </trkpt>
      <trkpt lat="42.377888" lon="8.94426">
        <ele>2569.2</ele>
        <time>2022-09-10T09:09:35Z</time>
      </trkpt>
      <trkpt lat="42.377915" lon="8.944267">
        <ele>2568.0</ele>
        <time>2022-09-10T09:09:43Z</time>
      </trkpt>
      <trkpt lat="42.37795" lon="8.944263">
        <ele>2568.8</ele>
        <time>2022-09-10T09:09:51Z</time>
      </trkpt>
      <trkpt lat="42.377997" lon="8.944263">
        <ele>2570.2</ele>
        <time>2022-09-10T09:10:03Z</time>
      </trkpt>
      <trkpt lat="42.378032" lon="8.94427">
        <ele>2573.0</ele>
        <time>2022-09-10T09:10:20Z</time>
      </trkpt>
      <trkpt lat="42.37811" lon="8.944312">
        <ele>2578.8</ele>
        <time>2022-09-10T09:10:52Z</time>
      </trkpt>
      <trkpt lat="42.378202" lon="8.94445">
        <ele>2580.2</ele>
        <time>2022-09-10T09:11:35Z</time>
      </trkpt>
      <trkpt lat="42.378203" lon="8.944525">
        <ele>2580.2</ele>
        <time>2022-09-10T09:11:45Z</time>
      </trkpt>
      <trkpt lat="42.378205" lon="8.94457">
        <ele>2579.8</ele>
        <time>2022-09-10T09:11:53Z</time>
      </trkpt>
      <trkpt lat="42.378232" lon="8.94462">
        <ele>2581.2</ele>
        <time>2022-09-10T09:12:09Z</time>
      </trkpt>
      <trkpt lat="42.378242" lon="8.944625">
        <ele>2582.0</ele>
        <time>2022-09-10T09:12:14Z</time>
      </trkpt>
      <trkpt lat="42.378268" lon="8.944645">
        <ele>2583.4</ele>
        <time>2022-09-10T09:12:22Z</time>
      </trkpt>
      <trkpt lat="42.37833" lon="8.94465">
        <ele>2587.6</ele>
        <time>2022-09-10T09:12:40Z</time>
      </trkpt>
      <trkpt lat="42.37843" lon="8.94476">
        <ele>2592.4</ele>
        <time>2022-09-10T09:13:09Z</time>
      </trkpt>
      <trkpt lat="42.378438" lon="8.944752">
        <ele>2592.8</ele>
        <time>2022-09-10T09:13:12Z</time>
      </trkpt>
      <trkpt lat="42.378475" lon="8.944687">
        <ele>2603.0</ele>
        <time>2022-09-10T09:14:19Z</time>
      </trkpt>
      <trkpt lat="42.378567" lon="8.944747">
        <ele>2604.0</ele>
        <time>2022-09-10T09:14:36Z</time>
      </trkpt>
      <trkpt lat="42.378653" lon="8.944828">
        <ele>2603.6</ele>
        <time>2022-09-10T09:14:51Z</time>
      </trkpt>
      <trkpt lat="42.378687" lon="8.944822">
        <ele>2604.2</ele>
        <time>2022-09-10T09:14:56Z</time>
      </trkpt>
      <trkpt lat="42.378675" lon="8.944897">
        <ele>2604.8</ele>
        <time>2022-09-10T09:15:05Z</time>
      </trkpt>
      <trkpt lat="42.378705" lon="8.944982">
        <ele>2608.0</ele>
        <time>2022-09-10T09:15:28Z</time>
      </trkpt>
      <trkpt lat="42.378732" lon="8.945057">
        <ele>2609.8</ele>
        <time>2022-09-10T09:15:36Z</time>
      </trkpt>
      <trkpt lat="42.378685" lon="8.945182">
        <ele>2610.8</ele>
        <time>2022-09-10T09:15:46Z</time>
      </trkpt>
      <trkpt lat="42.378672" lon="8.945208">
        <ele>2611.0</ele>
        <time>2022-09-10T09:15:51Z</time>
      </trkpt>
      <trkpt lat="42.378655" lon="8.945235">
        <ele>2611.2</ele>
        <time>2022-09-10T09:15:58Z</time>
      </trkpt>
      <trkpt lat="42.378703" lon="8.945337">
        <ele>2612.4</ele>
        <time>2022-09-10T09:16:32Z</time>
      </trkpt>
      <trkpt lat="42.378743" lon="8.945363">
        <ele>2612.2</ele>
        <time>2022-09-10T09:16:46Z</time>
      </trkpt>
      <trkpt lat="42.378788" lon="8.945427">
        <ele>2615.6</ele>
        <time>2022-09-10T09:17:12Z</time>
      </trkpt>
      <trkpt lat="42.3788" lon="8.945438">
        <ele>2616.4</ele>
        <time>2022-09-10T09:17:17Z</time>
      </trkpt>
      <trkpt lat="42.378812" lon="8.94539">
        <ele>2616.6</ele>
        <time>2022-09-10T09:17:21Z</time>
      </trkpt>
      <trkpt lat="42.378852" lon="8.945465">
        <ele>2618.2</ele>
        <time>2022-09-10T09:17:36Z</time>
      </trkpt>
      <trkpt lat="42.378882" lon="8.94557">
        <ele>2621.0</ele>
        <time>2022-09-10T09:18:04Z</time>
      </trkpt>
      <trkpt lat="42.37892" lon="8.945535">
        <ele>2621.6</ele>
        <time>2022-09-10T09:18:10Z</time>
      </trkpt>
      <trkpt lat="42.378933" lon="8.945525">
        <ele>2621.8</ele>
        <time>2022-09-10T09:18:12Z</time>
      </trkpt>
      <trkpt lat="42.378963" lon="8.945577">
        <ele>2623.2</ele>
        <time>2022-09-10T09:18:18Z</time>
      </trkpt>
      <trkpt lat="42.378955" lon="8.945718">
        <ele>2628.6</ele>
        <time>2022-09-10T09:18:53Z</time>
      </trkpt>
      <trkpt lat="42.378945" lon="8.945823">
        <ele>2629.8</ele>
        <time>2022-09-10T09:19:29Z</time>
      </trkpt>
      <trkpt lat="42.378955" lon="8.945855">
        <ele>2630.2</ele>
        <time>2022-09-10T09:19:38Z</time>
      </trkpt>
      <trkpt lat="42.378913" lon="8.945975">
        <ele>2634.0</ele>
        <time>2022-09-10T09:20:04Z</time>
      </trkpt>
      <trkpt lat="42.378908" lon="8.945983">
        <ele>2634.2</ele>
        <time>2022-09-10T09:20:05Z</time>
      </trkpt>
      <trkpt lat="42.378898" lon="8.946078">
        <ele>2635.6</ele>
        <time>2022-09-10T09:20:17Z</time>
      </trkpt>
      <trkpt lat="42.378913" lon="8.946095">
        <ele>2635.8</ele>
        <time>2022-09-10T09:20:20Z</time>
      </trkpt>
      <trkpt lat="42.378947" lon="8.94607">
        <ele>2636.2</ele>
        <time>2022-09-10T09:20:29Z</time>
      </trkpt>
      <trkpt lat="42.378957" lon="8.946057">
        <ele>2636.4</ele>
        <time>2022-09-10T09:20:34Z</time>
      </trkpt>
      <trkpt lat="42.378972" lon="8.946002">
        <ele>2637.8</ele>
        <time>2022-09-10T09:20:48Z</time>
      </trkpt>
      <trkpt lat="42.378988" lon="8.946018">
        <ele>2640.2</ele>
        <time>2022-09-10T09:21:02Z</time>
      </trkpt>
      <trkpt lat="42.379022" lon="8.946048">
        <ele>2641.0</ele>
        <time>2022-09-10T09:21:08Z</time>
      </trkpt>
      <trkpt lat="42.379065" lon="8.946122">
        <ele>2642.6</ele>
        <time>2022-09-10T09:21:16Z</time>
      </trkpt>
      <trkpt lat="42.379087" lon="8.946132">
        <ele>2643.0</ele>
        <time>2022-09-10T09:21:19Z</time>
      </trkpt>
      <trkpt lat="42.37912" lon="8.946105">
        <ele>2643.2</ele>
        <time>2022-09-10T09:21:24Z</time>
      </trkpt>
      <trkpt lat="42.379162" lon="8.946055">
        <ele>2643.8</ele>
        <time>2022-09-10T09:21:33Z</time>
      </trkpt>
      <trkpt lat="42.379177" lon="8.945978">
        <ele>2645.2</ele>
        <time>2022-09-10T09:21:42Z</time>
      </trkpt>
      <trkpt lat="42.379193" lon="8.945962">
        <ele>2647.6</ele>
        <time>2022-09-10T09:21:59Z</time>
      </trkpt>
      <trkpt lat="42.379198" lon="8.945923">
        <ele>2655.4</ele>
        <time>2022-09-10T09:23:04Z</time>
      </trkpt>
      <trkpt lat="42.379218" lon="8.945912">
        <ele>2656.2</ele>
        <time>2022-09-10T09:23:09Z</time>
      </trkpt>
      <trkpt lat="42.379258" lon="8.945913">
        <ele>2657.8</ele>
        <time>2022-09-10T09:23:19Z</time>
      </trkpt>
      <trkpt lat="42.379253" lon="8.945823">
        <ele>2660.0</ele>
        <time>2022-09-10T09:23:38Z</time>
      </trkpt>
      <trkpt lat="42.379265" lon="8.945852">
        <ele>2661.6</ele>
        <time>2022-09-10T09:23:46Z</time>
      </trkpt>
      <trkpt lat="42.37932" lon="8.945855">
        <ele>2664.2</ele>
        <time>2022-09-10T09:24:01Z</time>
      </trkpt>
      <trkpt lat="42.379348" lon="8.945885">
        <ele>2666.6</ele>
        <time>2022-09-10T09:24:24Z</time>
      </trkpt>
      <trkpt lat="42.379407" lon="8.945863">
        <ele>2670.2</ele>
        <time>2022-09-10T09:24:43Z</time>
      </trkpt>
      <trkpt lat="42.37942" lon="8.94587">
        <ele>2670.8</ele>
        <time>2022-09-10T09:24:46Z</time>
      </trkpt>
      <trkpt lat="42.379445" lon="8.945852">
        <ele>2671.6</ele>
        <time>2022-09-10T09:24:52Z</time>
      </trkpt>
      <trkpt lat="42.37947" lon="8.945862">
        <ele>2673.4</ele>
        <time>2022-09-10T09:25:04Z</time>
      </trkpt>
      <trkpt lat="42.379477" lon="8.945855">
        <ele>2673.4</ele>
        <time>2022-09-10T09:25:06Z</time>
      </trkpt>
      <trkpt lat="42.379502" lon="8.945853">
        <ele>2675.0</ele>
        <time>2022-09-10T09:25:18Z</time>
      </trkpt>
      <trkpt lat="42.379528" lon="8.945847">
        <ele>2676.8</ele>
        <time>2022-09-10T09:25:30Z</time>
      </trkpt>
      <trkpt lat="42.379572" lon="8.945828">
        <ele>2678.8</ele>
        <time>2022-09-10T09:25:41Z</time>
      </trkpt>
      <trkpt lat="42.379588" lon="8.945815">
        <ele>2679.2</ele>
        <time>2022-09-10T09:25:44Z</time>
      </trkpt>
      <trkpt lat="42.379607" lon="8.945803">
        <ele>2680.0</ele>
        <time>2022-09-10T09:25:47Z</time>
      </trkpt>
      <trkpt lat="42.379637" lon="8.945758">
        <ele>2681.8</ele>
        <time>2022-09-10T09:25:55Z</time>
      </trkpt>
      <trkpt lat="42.379683" lon="8.945735">
        <ele>2683.0</ele>
        <time>2022-09-10T09:26:03Z</time>
      </trkpt>
      <trkpt lat="42.37969" lon="8.945692">
        <ele>2683.8</ele>
        <time>2022-09-10T09:26:10Z</time>
      </trkpt>
      <trkpt lat="42.379708" lon="8.945582">
        <ele>2686.6</ele>
        <time>2022-09-10T09:26:36Z</time>
      </trkpt>
      <trkpt lat="42.379708" lon="8.9455">
        <ele>2688.6</ele>
        <time>2022-09-10T09:26:49Z</time>
      </trkpt>
      <trkpt lat="42.379735" lon="8.945472">
        <ele>2690.0</ele>
        <time>2022-09-10T09:27:02Z</time>
      </trkpt>
      <trkpt lat="42.379747" lon="8.945455">
        <ele>2690.0</ele>
        <time>2022-09-10T09:27:06Z</time>
      </trkpt>
      <trkpt lat="42.379742" lon="8.945435">
        <ele>2690.4</ele>
        <time>2022-09-10T09:27:25Z</time>
      </trkpt>
      <trkpt lat="42.379723" lon="8.945415">
        <ele>2689.6</ele>
        <time>2022-09-10T09:27:52Z</time>
      </trkpt>
      <trkpt lat="42.379557" lon="8.945225">
        <ele>2691.0</ele>
        <time>2022-09-10T09:30:05Z</time>
      </trkpt>
      <trkpt lat="42.379532" lon="8.945238">
        <ele>2690.8</ele>
        <time>2022-09-10T09:30:16Z</time>
      </trkpt>
      <trkpt lat="42.379527" lon="8.945215">
        <ele>2691.0</ele>
        <time>2022-09-10T09:30:20Z</time>
      </trkpt>
      <trkpt lat="42.379542" lon="8.94519">
        <ele>2691.2</ele>
        <time>2022-09-10T09:30:24Z</time>
      </trkpt>
      <trkpt lat="42.379577" lon="8.945197">
        <ele>2691.2</ele>
        <time>2022-09-10T09:30:29Z</time>
      </trkpt>
      <trkpt lat="42.379613" lon="8.945248">
        <ele>2691.8</ele>
        <time>2022-09-10T09:30:35Z</time>
      </trkpt>
      <trkpt lat="42.379657" lon="8.945368">
        <ele>2693.4</ele>
        <time>2022-09-10T09:30:58Z</time>
      </trkpt>
      <trkpt lat="42.37966" lon="8.945373">
        <ele>2693.2</ele>
        <time>2022-09-10T09:30:59Z</time>
      </trkpt>
      <trkpt lat="42.379632" lon="8.945443">
        <ele>2690.8</ele>
        <time>2022-09-10T09:31:08Z</time>
      </trkpt>
      <trkpt lat="42.379603" lon="8.945472">
        <ele>2691.6</ele>
        <time>2022-09-10T09:31:25Z</time>
      </trkpt>
      <trkpt lat="42.379597" lon="8.945555">
        <ele>2692.0</ele>
        <time>2022-09-10T09:32:51Z</time>
      </trkpt>
      <trkpt lat="42.379615" lon="8.945542">
        <ele>2692.2</ele>
        <time>2022-09-10T09:33:01Z</time>
      </trkpt>
      <trkpt lat="42.379617" lon="8.945535">
        <ele>2692.6</ele>
        <time>2022-09-10T09:33:02Z</time>
      </trkpt>
      <trkpt lat="42.379588" lon="8.94557">
        <ele>2693.0</ele>
        <time>2022-09-10T09:34:47Z</time>
      </trkpt>
      <trkpt lat="42.379548" lon="8.945637">
        <ele>2692.4</ele>
        <time>2022-09-10T09:35:03Z</time>
      </trkpt>
      <trkpt lat="42.379527" lon="8.945687">
        <ele>2693.6</ele>
        <time>2022-09-10T09:36:16Z</time>
      </trkpt>
      <trkpt lat="42.379503" lon="8.945753">
        <ele>2689.2</ele>
        <time>2022-09-10T09:38:26Z</time>
      </trkpt>
      <trkpt lat="42.379525" lon="8.945755">
        <ele>2687.8</ele>
        <time>2022-09-10T09:38:34Z</time>
      </trkpt>
      <trkpt lat="42.379552" lon="8.945743">
        <ele>2686.8</ele>
        <time>2022-09-10T09:38:39Z</time>
      </trkpt>
      <trkpt lat="42.379573" lon="8.94576">
        <ele>2685.8</ele>
        <time>2022-09-10T09:38:44Z</time>
      </trkpt>
      <trkpt lat="42.379575" lon="8.945767">
        <ele>2685.6</ele>
        <time>2022-09-10T09:38:45Z</time>
      </trkpt>
      <trkpt lat="42.379533" lon="8.945772">
        <ele>2684.6</ele>
        <time>2022-09-10T09:38:52Z</time>
      </trkpt>
      <trkpt lat="42.379493" lon="8.94578">
        <ele>2683.6</ele>
        <time>2022-09-10T09:38:57Z</time>
      </trkpt>
      <trkpt lat="42.379478" lon="8.94584">
        <ele>2683.2</ele>
        <time>2022-09-10T09:39:03Z</time>
      </trkpt>
      <trkpt lat="42.379457" lon="8.94588">
        <ele>2682.6</ele>
        <time>2022-09-10T09:39:08Z</time>
      </trkpt>
      <trkpt lat="42.37939" lon="8.945927">
        <ele>2680.0</ele>
        <time>2022-09-10T09:39:18Z</time>
      </trkpt>
      <trkpt lat="42.37942" lon="8.94581">
        <ele>2678.0</ele>
        <time>2022-09-10T09:39:34Z</time>
      </trkpt>
      <trkpt lat="42.37946" lon="8.945785">
        <ele>2678.0</ele>
        <time>2022-09-10T09:39:41Z</time>
      </trkpt>
      <trkpt lat="42.379323" lon="8.945802">
        <ele>2675.8</ele>
        <time>2022-09-10T09:39:58Z</time>
      </trkpt>
      <trkpt lat="42.379293" lon="8.945825">
        <ele>2674.6</ele>
        <time>2022-09-10T09:40:02Z</time>
      </trkpt>
      <trkpt lat="42.379188" lon="8.945963">
        <ele>2671.6</ele>
        <time>2022-09-10T09:40:23Z</time>
      </trkpt>
      <trkpt lat="42.379183" lon="8.945967">
        <ele>2671.2</ele>
        <time>2022-09-10T09:40:26Z</time>
      </trkpt>
      <trkpt lat="42.379152" lon="8.945963">
        <ele>2670.0</ele>
        <time>2022-09-10T09:40:35Z</time>
      </trkpt>
      <trkpt lat="42.379122" lon="8.94591">
        <ele>2665.2</ele>
        <time>2022-09-10T09:41:06Z</time>
      </trkpt>
      <trkpt lat="42.379098" lon="8.94594">
        <ele>2663.4</ele>
        <time>2022-09-10T09:41:18Z</time>
      </trkpt>
      <trkpt lat="42.379078" lon="8.945948">
        <ele>2661.2</ele>
        <time>2022-09-10T09:41:33Z</time>
      </trkpt>
      <trkpt lat="42.379077" lon="8.945958">
        <ele>2660.2</ele>
        <time>2022-09-10T09:41:39Z</time>
      </trkpt>
      <trkpt lat="42.379088" lon="8.945997">
        <ele>2659.2</ele>
        <time>2022-09-10T09:41:45Z</time>
      </trkpt>
      <trkpt lat="42.379055" lon="8.946018">
        <ele>2657.8</ele>
        <time>2022-09-10T09:41:52Z</time>
      </trkpt>
      <trkpt lat="42.379055" lon="8.946097">
        <ele>2656.0</ele>
        <time>2022-09-10T09:42:08Z</time>
      </trkpt>
      <trkpt lat="42.379037" lon="8.946102">
        <ele>2655.0</ele>
        <time>2022-09-10T09:42:14Z</time>
      </trkpt>
      <trkpt lat="42.379025" lon="8.946155">
        <ele>2653.4</ele>
        <time>2022-09-10T09:42:25Z</time>
      </trkpt>
      <trkpt lat="42.378993" lon="8.9462">
        <ele>2651.2</ele>
        <time>2022-09-10T09:42:36Z</time>
      </trkpt>
      <trkpt lat="42.378972" lon="8.946188">
        <ele>2651.4</ele>
        <time>2022-09-10T09:42:41Z</time>
      </trkpt>
      <trkpt lat="42.37893" lon="8.946133">
        <ele>2651.4</ele>
        <time>2022-09-10T09:42:50Z</time>
      </trkpt>
      <trkpt lat="42.378903" lon="8.946098">
        <ele>2650.2</ele>
        <time>2022-09-10T09:42:56Z</time>
      </trkpt>
      <trkpt lat="42.378862" lon="8.945923">
        <ele>2645.2</ele>
        <time>2022-09-10T09:43:41Z</time>
      </trkpt>
      <trkpt lat="42.37897" lon="8.94574">
        <ele>2640.4</ele>
        <time>2022-09-10T09:44:11Z</time>
      </trkpt>
      <trkpt lat="42.378977" lon="8.945735">
        <ele>2640.2</ele>
        <time>2022-09-10T09:44:12Z</time>
      </trkpt>
      <trkpt lat="42.378965" lon="8.945662">
        <ele>2636.6</ele>
        <time>2022-09-10T09:44:38Z</time>
      </trkpt>
      <trkpt lat="42.378915" lon="8.945425">
        <ele>2624.4</ele>
        <time>2022-09-10T09:46:10Z</time>
      </trkpt>
      <trkpt lat="42.37887" lon="8.94543">
        <ele>2622.0</ele>
        <time>2022-09-10T09:46:48Z</time>
      </trkpt>
      <trkpt lat="42.378868" lon="8.94538">
        <ele>2621.6</ele>
        <time>2022-09-10T09:46:52Z</time>
      </trkpt>
      <trkpt lat="42.37884" lon="8.945347">
        <ele>2621.4</ele>
        <time>2022-09-10T09:46:55Z</time>
      </trkpt>
      <trkpt lat="42.378782" lon="8.945212">
        <ele>2618.8</ele>
        <time>2022-09-10T09:47:12Z</time>
      </trkpt>
      <trkpt lat="42.378795" lon="8.945113">
        <ele>2616.8</ele>
        <time>2022-09-10T09:47:52Z</time>
      </trkpt>
      <trkpt lat="42.378775" lon="8.945012">
        <ele>2614.8</ele>
        <time>2022-09-10T09:48:08Z</time>
      </trkpt>
      <trkpt lat="42.378772" lon="8.945">
        <ele>2614.8</ele>
        <time>2022-09-10T09:48:09Z</time>
      </trkpt>
      <trkpt lat="42.378723" lon="8.944877">
        <ele>2613.6</ele>
        <time>2022-09-10T09:48:23Z</time>
      </trkpt>
      <trkpt lat="42.378718" lon="8.94487">
        <ele>2613.4</ele>
        <time>2022-09-10T09:48:24Z</time>
      </trkpt>
      <trkpt lat="42.378722" lon="8.944812">
        <ele>2612.2</ele>
        <time>2022-09-10T09:48:30Z</time>
      </trkpt>
      <trkpt lat="42.378722" lon="8.944567">
        <ele>2610.6</ele>
        <time>2022-09-10T09:48:55Z</time>
      </trkpt>
      <trkpt lat="42.378708" lon="8.944557">
        <ele>2611.2</ele>
        <time>2022-09-10T09:48:57Z</time>
      </trkpt>
      <trkpt lat="42.378677" lon="8.944557">
        <ele>2610.8</ele>
        <time>2022-09-10T09:49:01Z</time>
      </trkpt>
      <trkpt lat="42.37865" lon="8.944517">
        <ele>2610.4</ele>
        <time>2022-09-10T09:49:06Z</time>
      </trkpt>
      <trkpt lat="42.378617" lon="8.944508">
        <ele>2609.8</ele>
        <time>2022-09-10T09:49:10Z</time>
      </trkpt>
      <trkpt lat="42.378563" lon="8.94451">
        <ele>2606.8</ele>
        <time>2022-09-10T09:49:28Z</time>
      </trkpt>
      <trkpt lat="42.378557" lon="8.94451">
        <ele>2606.8</ele>
        <time>2022-09-10T09:49:29Z</time>
      </trkpt>
      <trkpt lat="42.378537" lon="8.944487">
        <ele>2606.2</ele>
        <time>2022-09-10T09:49:35Z</time>
      </trkpt>
      <trkpt lat="42.378487" lon="8.94446">
        <ele>2603.0</ele>
        <time>2022-09-10T09:49:49Z</time>
      </trkpt>
      <trkpt lat="42.378468" lon="8.944432">
        <ele>2601.2</ele>
        <time>2022-09-10T09:49:55Z</time>
      </trkpt>
      <trkpt lat="42.378447" lon="8.944397">
        <ele>2599.4</ele>
        <time>2022-09-10T09:50:02Z</time>
      </trkpt>
      <trkpt lat="42.378388" lon="8.944383">
        <ele>2597.4</ele>
        <time>2022-09-10T09:50:12Z</time>
      </trkpt>
      <trkpt lat="42.378348" lon="8.94443">
        <ele>2596.4</ele>
        <time>2022-09-10T09:50:18Z</time>
      </trkpt>
      <trkpt lat="42.3783" lon="8.944405">
        <ele>2594.6</ele>
        <time>2022-09-10T09:50:25Z</time>
      </trkpt>
      <trkpt lat="42.378262" lon="8.944368">
        <ele>2593.2</ele>
        <time>2022-09-10T09:50:32Z</time>
      </trkpt>
      <trkpt lat="42.378237" lon="8.944312">
        <ele>2591.2</ele>
        <time>2022-09-10T09:50:41Z</time>
      </trkpt>
      <trkpt lat="42.378213" lon="8.944252">
        <ele>2590.8</ele>
        <time>2022-09-10T09:50:50Z</time>
      </trkpt>
      <trkpt lat="42.378118" lon="8.944205">
        <ele>2588.0</ele>
        <time>2022-09-10T09:51:06Z</time>
      </trkpt>
      <trkpt lat="42.378123" lon="8.944132">
        <ele>2586.8</ele>
        <time>2022-09-10T09:51:41Z</time>
      </trkpt>
      <trkpt lat="42.377958" lon="8.944005">
        <ele>2582.0</ele>
        <time>2022-09-10T09:52:09Z</time>
      </trkpt>
      <trkpt lat="42.37794" lon="8.943977">
        <ele>2579.0</ele>
        <time>2022-09-10T09:52:23Z</time>
      </trkpt>
      <trkpt lat="42.377938" lon="8.943972">
        <ele>2579.0</ele>
        <time>2022-09-10T09:52:24Z</time>
      </trkpt>
      <trkpt lat="42.37793" lon="8.943947">
        <ele>2578.4</ele>
        <time>2022-09-10T09:52:29Z</time>
      </trkpt>
      <trkpt lat="42.37793" lon="8.943907">
        <ele>2581.0</ele>
        <time>2022-09-10T09:52:46Z</time>
      </trkpt>
      <trkpt lat="42.377928" lon="8.943892">
        <ele>2579.0</ele>
        <time>2022-09-10T09:53:02Z</time>
      </trkpt>
      <trkpt lat="42.377972" lon="8.94387">
        <ele>2583.0</ele>
        <time>2022-09-10T09:53:25Z</time>
      </trkpt>
      <trkpt lat="42.377935" lon="8.94375">
        <ele>2584.0</ele>
        <time>2022-09-10T09:53:45Z</time>
      </trkpt>
      <trkpt lat="42.377933" lon="8.943745">
        <ele>2584.0</ele>
        <time>2022-09-10T09:53:46Z</time>
      </trkpt>
      <trkpt lat="42.377958" lon="8.94368">
        <ele>2583.8</ele>
        <time>2022-09-10T09:53:59Z</time>
      </trkpt>
      <trkpt lat="42.377972" lon="8.94362">
        <ele>2585.0</ele>
        <time>2022-09-10T09:54:05Z</time>
      </trkpt>
      <trkpt lat="42.377952" lon="8.943567">
        <ele>2585.8</ele>
        <time>2022-09-10T09:54:12Z</time>
      </trkpt>
      <trkpt lat="42.377913" lon="8.943517">
        <ele>2585.2</ele>
        <time>2022-09-10T09:54:20Z</time>
      </trkpt>
      <trkpt lat="42.377892" lon="8.943522">
        <ele>2585.0</ele>
        <time>2022-09-10T09:54:23Z</time>
      </trkpt>
      <trkpt lat="42.377857" lon="8.943502">
        <ele>2585.0</ele>
        <time>2022-09-10T09:54:29Z</time>
      </trkpt>
      <trkpt lat="42.377845" lon="8.943482">
        <ele>2587.2</ele>
        <time>2022-09-10T09:54:45Z</time>
      </trkpt>
      <trkpt lat="42.377817" lon="8.943442">
        <ele>2587.4</ele>
        <time>2022-09-10T09:55:03Z</time>
      </trkpt>
      <trkpt lat="42.377762" lon="8.94334">
        <ele>2595.0</ele>
        <time>2022-09-10T09:55:53Z</time>
      </trkpt>
      <trkpt lat="42.37774" lon="8.943347">
        <ele>2593.4</ele>
        <time>2022-09-10T09:56:15Z</time>
      </trkpt>
      <trkpt lat="42.377707" lon="8.943395">
        <ele>2590.6</ele>
        <time>2022-09-10T09:56:48Z</time>
      </trkpt>
      <trkpt lat="42.377705" lon="8.943393">
        <ele>2590.6</ele>
        <time>2022-09-10T09:56:49Z</time>
      </trkpt>
      <trkpt lat="42.377685" lon="8.943267">
        <ele>2587.6</ele>
        <time>2022-09-10T09:57:01Z</time>
      </trkpt>
      <trkpt lat="42.37769" lon="8.943135">
        <ele>2587.8</ele>
        <time>2022-09-10T09:57:09Z</time>
      </trkpt>
      <trkpt lat="42.377713" lon="8.943018">
        <ele>2590.2</ele>
        <time>2022-09-10T09:57:25Z</time>
      </trkpt>
      <trkpt lat="42.377693" lon="8.943013">
        <ele>2591.0</ele>
        <time>2022-09-10T09:57:28Z</time>
      </trkpt>
      <trkpt lat="42.377648" lon="8.942993">
        <ele>2591.6</ele>
        <time>2022-09-10T09:57:34Z</time>
      </trkpt>
      <trkpt lat="42.377622" lon="8.942965">
        <ele>2592.4</ele>
        <time>2022-09-10T09:57:40Z</time>
      </trkpt>
      <trkpt lat="42.377628" lon="8.942902">
        <ele>2594.4</ele>
        <time>2022-09-10T09:57:47Z</time>
      </trkpt>
      <trkpt lat="42.377608" lon="8.942837">
        <ele>2595.6</ele>
        <time>2022-09-10T09:57:56Z</time>
      </trkpt>
      <trkpt lat="42.377603" lon="8.942797">
        <ele>2596.4</ele>
        <time>2022-09-10T09:58:03Z</time>
      </trkpt>
      <trkpt lat="42.377568" lon="8.94276">
        <ele>2600.6</ele>
        <time>2022-09-10T09:58:29Z</time>
      </trkpt>
      <trkpt lat="42.377482" lon="8.942795">
        <ele>2603.4</ele>
        <time>2022-09-10T09:58:54Z</time>
      </trkpt>
      <trkpt lat="42.377478" lon="8.942797">
        <ele>2603.4</ele>
        <time>2022-09-10T09:58:55Z</time>
      </trkpt>
      <trkpt lat="42.377455" lon="8.942817">
        <ele>2604.0</ele>
        <time>2022-09-10T09:59:02Z</time>
      </trkpt>
      <trkpt lat="42.377417" lon="8.942833">
        <ele>2602.4</ele>
        <time>2022-09-10T09:59:23Z</time>
      </trkpt>
      <trkpt lat="42.377413" lon="8.9428">
        <ele>2601.8</ele>
        <time>2022-09-10T09:59:28Z</time>
      </trkpt>
      <trkpt lat="42.377427" lon="8.942743">
        <ele>2601.6</ele>
        <time>2022-09-10T09:59:39Z</time>
      </trkpt>
      <trkpt lat="42.377412" lon="8.94271">
        <ele>2602.8</ele>
        <time>2022-09-10T09:59:49Z</time>
      </trkpt>
      <trkpt lat="42.37741" lon="8.942708">
        <ele>2602.8</ele>
        <time>2022-09-10T09:59:50Z</time>
      </trkpt>
      <trkpt lat="42.377393" lon="8.942662">
        <ele>2604.6</ele>
        <time>2022-09-10T10:00:11Z</time>
      </trkpt>
      <trkpt lat="42.377388" lon="8.942617">
        <ele>2603.8</ele>
        <time>2022-09-10T10:00:28Z</time>
      </trkpt>
      <trkpt lat="42.377432" lon="8.94252">
        <ele>2603.0</ele>
        <time>2022-09-10T10:00:40Z</time>
      </trkpt>
      <trkpt lat="42.377435" lon="8.942473">
        <ele>2603.4</ele>
        <time>2022-09-10T10:00:43Z</time>
      </trkpt>
      <trkpt lat="42.377393" lon="8.942403">
        <ele>2603.2</ele>
        <time>2022-09-10T10:00:48Z</time>
      </trkpt>
      <trkpt lat="42.377363" lon="8.94226">
        <ele>2601.4</ele>
        <time>2022-09-10T10:01:11Z</time>
      </trkpt>
      <trkpt lat="42.377348" lon="8.942157">
        <ele>2599.0</ele>
        <time>2022-09-10T10:01:45Z</time>
      </trkpt>
      <trkpt lat="42.377347" lon="8.94215">
        <ele>2598.6</ele>
        <time>2022-09-10T10:01:48Z</time>
      </trkpt>
      <trkpt lat="42.377325" lon="8.942122">
        <ele>2598.0</ele>
        <time>2022-09-10T10:01:55Z</time>
      </trkpt>
      <trkpt lat="42.377305" lon="8.942228">
        <ele>2596.2</ele>
        <time>2022-09-10T10:02:10Z</time>
      </trkpt>
      <trkpt lat="42.37731" lon="8.942283">
        <ele>2595.4</ele>
        <time>2022-09-10T10:02:16Z</time>
      </trkpt>
      <trkpt lat="42.377288" lon="8.94229">
        <ele>2595.2</ele>
        <time>2022-09-10T10:02:23Z</time>
      </trkpt>
      <trkpt lat="42.377262" lon="8.942292">
        <ele>2594.4</ele>
        <time>2022-09-10T10:02:33Z</time>
      </trkpt>
      <trkpt lat="42.377227" lon="8.942307">
        <ele>2592.0</ele>
        <time>2022-09-10T10:02:46Z</time>
      </trkpt>
      <trkpt lat="42.3772" lon="8.942323">
        <ele>2588.8</ele>
        <time>2022-09-10T10:03:00Z</time>
      </trkpt>
      <trkpt lat="42.37719" lon="8.942363">
        <ele>2586.6</ele>
        <time>2022-09-10T10:03:19Z</time>
      </trkpt>
      <trkpt lat="42.377163" lon="8.942357">
        <ele>2585.6</ele>
        <time>2022-09-10T10:03:27Z</time>
      </trkpt>
      <trkpt lat="42.37716" lon="8.942357">
        <ele>2585.8</ele>
        <time>2022-09-10T10:03:30Z</time>
      </trkpt>
      <trkpt lat="42.37711" lon="8.942362">
        <ele>2586.6</ele>
        <time>2022-09-10T10:03:43Z</time>
      </trkpt>
      <trkpt lat="42.377068" lon="8.94236">
        <ele>2585.6</ele>
        <time>2022-09-10T10:03:57Z</time>
      </trkpt>
      <trkpt lat="42.377065" lon="8.942357">
        <ele>2585.6</ele>
        <time>2022-09-10T10:03:58Z</time>
      </trkpt>
      <trkpt lat="42.376943" lon="8.942353">
        <ele>2584.0</ele>
        <time>2022-09-10T10:04:10Z</time>
      </trkpt>
      <trkpt lat="42.376895" lon="8.942297">
        <ele>2583.2</ele>
        <time>2022-09-10T10:04:18Z</time>
      </trkpt>
      <trkpt lat="42.376853" lon="8.942288">
        <ele>2582.8</ele>
        <time>2022-09-10T10:04:23Z</time>
      </trkpt>
      <trkpt lat="42.376777" lon="8.942283">
        <ele>2581.4</ele>
        <time>2022-09-10T10:04:31Z</time>
      </trkpt>
      <trkpt lat="42.376768" lon="8.942282">
        <ele>2581.4</ele>
        <time>2022-09-10T10:04:32Z</time>
      </trkpt>
      <trkpt lat="42.376762" lon="8.942237">
        <ele>2581.0</ele>
        <time>2022-09-10T10:04:38Z</time>
      </trkpt>
      <trkpt lat="42.376768" lon="8.942182">
        <ele>2580.0</ele>
        <time>2022-09-10T10:04:46Z</time>
      </trkpt>
      <trkpt lat="42.37679" lon="8.942128">
        <ele>2579.6</ele>
        <time>2022-09-10T10:04:52Z</time>
      </trkpt>
      <trkpt lat="42.376908" lon="8.942115">
        <ele>2580.4</ele>
        <time>2022-09-10T10:05:16Z</time>
      </trkpt>
      <trkpt lat="42.376948" lon="8.94208">
        <ele>2579.8</ele>
        <time>2022-09-10T10:05:26Z</time>
      </trkpt>
      <trkpt lat="42.376955" lon="8.942042">
        <ele>2579.2</ele>
        <time>2022-09-10T10:05:32Z</time>
      </trkpt>
      <trkpt lat="42.376957" lon="8.942033">
        <ele>2578.6</ele>
        <time>2022-09-10T10:05:34Z</time>
      </trkpt>
      <trkpt lat="42.376947" lon="8.941987">
        <ele>2577.2</ele>
        <time>2022-09-10T10:05:41Z</time>
      </trkpt>
      <trkpt lat="42.376943" lon="8.941948">
        <ele>2577.0</ele>
        <time>2022-09-10T10:05:47Z</time>
      </trkpt>
      <trkpt lat="42.376992" lon="8.941887">
        <ele>2579.6</ele>
        <time>2022-09-10T10:06:00Z</time>
      </trkpt>
      <trkpt lat="42.377008" lon="8.941868">
        <ele>2580.4</ele>
        <time>2022-09-10T10:06:04Z</time>
      </trkpt>
      <trkpt lat="42.376992" lon="8.9418">
        <ele>2581.4</ele>
        <time>2022-09-10T10:06:16Z</time>
      </trkpt>
      <trkpt lat="42.377007" lon="8.94176">
        <ele>2582.6</ele>
        <time>2022-09-10T10:06:28Z</time>
      </trkpt>
      <trkpt lat="42.377013" lon="8.941752">
        <ele>2582.8</ele>
        <time>2022-09-10T10:06:31Z</time>
      </trkpt>
      <trkpt lat="42.37702" lon="8.941703">
        <ele>2583.0</ele>
        <time>2022-09-10T10:06:40Z</time>
      </trkpt>
      <trkpt lat="42.377032" lon="8.941683">
        <ele>2587.6</ele>
        <time>2022-09-10T10:07:21Z</time>
      </trkpt>
      <trkpt lat="42.377045" lon="8.941553">
        <ele>2590.2</ele>
        <time>2022-09-10T10:07:37Z</time>
      </trkpt>
      <trkpt lat="42.377042" lon="8.94154">
        <ele>2590.6</ele>
        <time>2022-09-10T10:07:38Z</time>
      </trkpt>
      <trkpt lat="42.377033" lon="8.941488">
        <ele>2591.0</ele>
        <time>2022-09-10T10:07:42Z</time>
      </trkpt>
      <trkpt lat="42.37704" lon="8.941452">
        <ele>2591.6</ele>
        <time>2022-09-10T10:07:45Z</time>
      </trkpt>
      <trkpt lat="42.377047" lon="8.941442">
        <ele>2591.8</ele>
        <time>2022-09-10T10:07:46Z</time>
      </trkpt>
      <trkpt lat="42.377125" lon="8.941377">
        <ele>2593.0</ele>
        <time>2022-09-10T10:07:57Z</time>
      </trkpt>
      <trkpt lat="42.377137" lon="8.941337">
        <ele>2594.4</ele>
        <time>2022-09-10T10:08:02Z</time>
      </trkpt>
      <trkpt lat="42.377132" lon="8.941298">
        <ele>2595.0</ele>
        <time>2022-09-10T10:08:07Z</time>
      </trkpt>
      <trkpt lat="42.377128" lon="8.941128">
        <ele>2601.4</ele>
        <time>2022-09-10T10:08:46Z</time>
      </trkpt>
      <trkpt lat="42.377153" lon="8.941135">
        <ele>2603.2</ele>
        <time>2022-09-10T10:08:55Z</time>
      </trkpt>
      <trkpt lat="42.377183" lon="8.941132">
        <ele>2603.6</ele>
        <time>2022-09-10T10:09:06Z</time>
      </trkpt>
      <trkpt lat="42.377217" lon="8.941157">
        <ele>2607.2</ele>
        <time>2022-09-10T10:09:20Z</time>
      </trkpt>
      <trkpt lat="42.377183" lon="8.94112">
        <ele>2608.4</ele>
        <time>2022-09-10T10:09:37Z</time>
      </trkpt>
      <trkpt lat="42.377177" lon="8.941118">
        <ele>2612.6</ele>
        <time>2022-09-10T10:10:02Z</time>
      </trkpt>
      <trkpt lat="42.37713" lon="8.941245">
        <ele>2618.6</ele>
        <time>2022-09-10T10:11:38Z</time>
      </trkpt>
      <trkpt lat="42.377097" lon="8.941233">
        <ele>2621.4</ele>
        <time>2022-09-10T10:12:00Z</time>
      </trkpt>
      <trkpt lat="42.377117" lon="8.941223">
        <ele>2623.4</ele>
        <time>2022-09-10T10:12:17Z</time>
      </trkpt>
      <trkpt lat="42.377117" lon="8.941223">
        <ele>2623.4</ele>
        <time>2022-09-10T10:12:18Z</time>
      </trkpt>
      <trkpt lat="42.377112" lon="8.941118">
        <ele>2624.4</ele>
        <time>2022-09-10T10:12:40Z</time>
      </trkpt>
      <trkpt lat="42.377147" lon="8.941105">
        <ele>2626.4</ele>
        <time>2022-09-10T10:12:47Z</time>
      </trkpt>
      <trkpt lat="42.377175" lon="8.941145">
        <ele>2627.4</ele>
        <time>2022-09-10T10:12:55Z</time>
      </trkpt>
      <trkpt lat="42.377197" lon="8.941192">
        <ele>2627.2</ele>
        <time>2022-09-10T10:13:00Z</time>
      </trkpt>
      <trkpt lat="42.377208" lon="8.941197">
        <ele>2627.2</ele>
        <time>2022-09-10T10:13:01Z</time>
      </trkpt>
      <trkpt lat="42.377258" lon="8.941168">
        <ele>2630.2</ele>
        <time>2022-09-10T10:13:10Z</time>
      </trkpt>
      <trkpt lat="42.377228" lon="8.941088">
        <ele>2625.8</ele>
        <time>2022-09-10T10:15:17Z</time>
      </trkpt>
      <trkpt lat="42.377213" lon="8.94104">
        <ele>2626.0</ele>
        <time>2022-09-10T10:15:25Z</time>
      </trkpt>
      <trkpt lat="42.377182" lon="8.941007">
        <ele>2626.4</ele>
        <time>2022-09-10T10:15:35Z</time>
      </trkpt>
      <trkpt lat="42.37718" lon="8.940873">
        <ele>2620.8</ele>
        <time>2022-09-10T10:15:54Z</time>
      </trkpt>
      <trkpt lat="42.377165" lon="8.940897">
        <ele>2619.8</ele>
        <time>2022-09-10T10:16:02Z</time>
      </trkpt>
      <trkpt lat="42.37713" lon="8.940875">
        <ele>2619.6</ele>
        <time>2022-09-10T10:16:16Z</time>
      </trkpt>
      <trkpt lat="42.37712" lon="8.940842">
        <ele>2620.0</ele>
        <time>2022-09-10T10:16:24Z</time>
      </trkpt>
      <trkpt lat="42.377088" lon="8.940792">
        <ele>2608.8</ele>
        <time>2022-09-10T10:17:21Z</time>
      </trkpt>
      <trkpt lat="42.377065" lon="8.940735">
        <ele>2612.2</ele>
        <time>2022-09-10T10:17:35Z</time>
      </trkpt>
      <trkpt lat="42.376977" lon="8.94066">
        <ele>2615.6</ele>
        <time>2022-09-10T10:17:52Z</time>
      </trkpt>
      <trkpt lat="42.376977" lon="8.94065">
        <ele>2615.6</ele>
        <time>2022-09-10T10:17:52Z</time>
      </trkpt>
      <trkpt lat="42.376978" lon="8.940628">
        <ele>2617.0</ele>
        <time>2022-09-10T10:17:57Z</time>
      </trkpt>
      <trkpt lat="42.376997" lon="8.940568">
        <ele>2618.4</ele>
        <time>2022-09-10T10:18:03Z</time>
      </trkpt>
      <trkpt lat="42.377005" lon="8.940495">
        <ele>2620.8</ele>
        <time>2022-09-10T10:18:27Z</time>
      </trkpt>
      <trkpt lat="42.377018" lon="8.940428">
        <ele>2619.0</ele>
        <time>2022-09-10T10:18:45Z</time>
      </trkpt>
      <trkpt lat="42.377003" lon="8.94021">
        <ele>2615.8</ele>
        <time>2022-09-10T10:19:30Z</time>
      </trkpt>
      <trkpt lat="42.377003" lon="8.940207">
        <ele>2617.4</ele>
        <time>2022-09-10T10:19:32Z</time>
      </trkpt>
      <trkpt lat="42.376878" lon="8.94006">
        <ele>2613.8</ele>
        <time>2022-09-10T10:20:02Z</time>
      </trkpt>
      <trkpt lat="42.37681" lon="8.940035">
        <ele>2615.0</ele>
        <time>2022-09-10T10:20:11Z</time>
      </trkpt>
      <trkpt lat="42.376723" lon="8.939885">
        <ele>2615.4</ele>
        <time>2022-09-10T10:20:24Z</time>
      </trkpt>
      <trkpt lat="42.376692" lon="8.939793">
        <ele>2614.0</ele>
        <time>2022-09-10T10:20:31Z</time>
      </trkpt>
      <trkpt lat="42.376673" lon="8.939728">
        <ele>2610.6</ele>
        <time>2022-09-10T10:20:38Z</time>
      </trkpt>
      <trkpt lat="42.376638" lon="8.93966">
        <ele>2610.8</ele>
        <time>2022-09-10T10:20:44Z</time>
      </trkpt>
      <trkpt lat="42.376618" lon="8.939598">
        <ele>2610.4</ele>
        <time>2022-09-10T10:20:51Z</time>
      </trkpt>
      <trkpt lat="42.376587" lon="8.939428">
        <ele>2601.6</ele>
        <time>2022-09-10T10:21:09Z</time>
      </trkpt>
      <trkpt lat="42.376557" lon="8.939407">
        <ele>2601.4</ele>
        <time>2022-09-10T10:21:13Z</time>
      </trkpt>
      <trkpt lat="42.376533" lon="8.939395">
        <ele>2600.8</ele>
        <time>2022-09-10T10:21:17Z</time>
      </trkpt>
      <trkpt lat="42.376493" lon="8.939358">
        <ele>2599.6</ele>
        <time>2022-09-10T10:21:23Z</time>
      </trkpt>
      <trkpt lat="42.376445" lon="8.939332">
        <ele>2598.2</ele>
        <time>2022-09-10T10:21:31Z</time>
      </trkpt>
      <trkpt lat="42.376403" lon="8.93927">
        <ele>2598.0</ele>
        <time>2022-09-10T10:21:40Z</time>
      </trkpt>
      <trkpt lat="42.376323" lon="8.93917">
        <ele>2594.8</ele>
        <time>2022-09-10T10:21:59Z</time>
      </trkpt>
      <trkpt lat="42.3763" lon="8.93917">
        <ele>2593.0</ele>
        <time>2022-09-10T10:22:05Z</time>
      </trkpt>
      <trkpt lat="42.376273" lon="8.939148">
        <ele>2591.2</ele>
        <time>2022-09-10T10:22:11Z</time>
      </trkpt>
      <trkpt lat="42.376247" lon="8.939105">
        <ele>2590.2</ele>
        <time>2022-09-10T10:22:18Z</time>
      </trkpt>
      <trkpt lat="42.376228" lon="8.939043">
        <ele>2589.0</ele>
        <time>2022-09-10T10:22:43Z</time>
      </trkpt>
      <trkpt lat="42.376245" lon="8.938975">
        <ele>2589.6</ele>
        <time>2022-09-10T10:23:34Z</time>
      </trkpt>
      <trkpt lat="42.376247" lon="8.938972">
        <ele>2589.2</ele>
        <time>2022-09-10T10:23:37Z</time>
      </trkpt>
      <trkpt lat="42.376267" lon="8.938927">
        <ele>2592.4</ele>
        <time>2022-09-10T10:23:52Z</time>
      </trkpt>
      <trkpt lat="42.376262" lon="8.938898">
        <ele>2591.8</ele>
        <time>2022-09-10T10:24:00Z</time>
      </trkpt>
      <trkpt lat="42.376263" lon="8.938872">
        <ele>2591.6</ele>
        <time>2022-09-10T10:24:11Z</time>
      </trkpt>
      <trkpt lat="42.376258" lon="8.93885">
        <ele>2591.6</ele>
        <time>2022-09-10T10:24:16Z</time>
      </trkpt>
      <trkpt lat="42.37625" lon="8.938822">
        <ele>2591.4</ele>
        <time>2022-09-10T10:24:23Z</time>
      </trkpt>
      <trkpt lat="42.376225" lon="8.938785">
        <ele>2590.4</ele>
        <time>2022-09-10T10:24:32Z</time>
      </trkpt>
      <trkpt lat="42.376217" lon="8.938735">
        <ele>2590.4</ele>
        <time>2022-09-10T10:24:41Z</time>
      </trkpt>
      <trkpt lat="42.376243" lon="8.93871">
        <ele>2590.6</ele>
        <time>2022-09-10T10:24:48Z</time>
      </trkpt>
      <trkpt lat="42.376237" lon="8.938685">
        <ele>2591.8</ele>
        <time>2022-09-10T10:24:52Z</time>
      </trkpt>
      <trkpt lat="42.3762" lon="8.938632">
        <ele>2593.2</ele>
        <time>2022-09-10T10:25:06Z</time>
      </trkpt>
      <trkpt lat="42.376197" lon="8.938628">
        <ele>2593.0</ele>
        <time>2022-09-10T10:25:07Z</time>
      </trkpt>
      <trkpt lat="42.376125" lon="8.938587">
        <ele>2585.6</ele>
        <time>2022-09-10T10:25:24Z</time>
      </trkpt>
      <trkpt lat="42.37614" lon="8.93853">
        <ele>2582.8</ele>
        <time>2022-09-10T10:25:32Z</time>
      </trkpt>
      <trkpt lat="42.376162" lon="8.938435">
        <ele>2581.0</ele>
        <time>2022-09-10T10:25:44Z</time>
      </trkpt>
      <trkpt lat="42.376183" lon="8.938368">
        <ele>2579.8</ele>
        <time>2022-09-10T10:25:53Z</time>
      </trkpt>
      <trkpt lat="42.376207" lon="8.938342">
        <ele>2579.2</ele>
        <time>2022-09-10T10:25:58Z</time>
      </trkpt>
      <trkpt lat="42.376208" lon="8.938285">
        <ele>2579.2</ele>
        <time>2022-09-10T10:26:06Z</time>
      </trkpt>
      <trkpt lat="42.376198" lon="8.938212">
        <ele>2577.6</ele>
        <time>2022-09-10T10:26:17Z</time>
      </trkpt>
      <trkpt lat="42.3762" lon="8.93818">
        <ele>2577.0</ele>
        <time>2022-09-10T10:26:30Z</time>
      </trkpt>
      <trkpt lat="42.376198" lon="8.938078">
        <ele>2576.6</ele>
        <time>2022-09-10T10:26:41Z</time>
      </trkpt>
      <trkpt lat="42.376193" lon="8.938035">
        <ele>2576.0</ele>
        <time>2022-09-10T10:26:46Z</time>
      </trkpt>
      <trkpt lat="42.376188" lon="8.938012">
        <ele>2575.8</ele>
        <time>2022-09-10T10:26:49Z</time>
      </trkpt>
      <trkpt lat="42.3762" lon="8.937982">
        <ele>2575.6</ele>
        <time>2022-09-10T10:26:54Z</time>
      </trkpt>
      <trkpt lat="42.376242" lon="8.93798">
        <ele>2577.2</ele>
        <time>2022-09-10T10:27:04Z</time>
      </trkpt>
      <trkpt lat="42.37625" lon="8.93799">
        <ele>2581.2</ele>
        <time>2022-09-10T10:27:46Z</time>
      </trkpt>
      <trkpt lat="42.376262" lon="8.937995">
        <ele>2583.0</ele>
        <time>2022-09-10T10:27:50Z</time>
      </trkpt>
      <trkpt lat="42.376307" lon="8.937965">
        <ele>2584.0</ele>
        <time>2022-09-10T10:27:57Z</time>
      </trkpt>
      <trkpt lat="42.376345" lon="8.937935">
        <ele>2585.8</ele>
        <time>2022-09-10T10:28:03Z</time>
      </trkpt>
      <trkpt lat="42.376325" lon="8.937888">
        <ele>2589.4</ele>
        <time>2022-09-10T10:28:08Z</time>
      </trkpt>
      <trkpt lat="42.376207" lon="8.937768">
        <ele>2587.8</ele>
        <time>2022-09-10T10:28:22Z</time>
      </trkpt>
      <trkpt lat="42.376267" lon="8.93774">
        <ele>2586.4</ele>
        <time>2022-09-10T10:28:35Z</time>
      </trkpt>
      <trkpt lat="42.376263" lon="8.937737">
        <ele>2586.4</ele>
        <time>2022-09-10T10:28:36Z</time>
      </trkpt>
      <trkpt lat="42.376225" lon="8.937752">
        <ele>2588.0</ele>
        <time>2022-09-10T10:28:44Z</time>
      </trkpt>
      <trkpt lat="42.376202" lon="8.937775">
        <ele>2589.6</ele>
        <time>2022-09-10T10:28:50Z</time>
      </trkpt>
      <trkpt lat="42.37622" lon="8.937677">
        <ele>2594.0</ele>
        <time>2022-09-10T10:29:06Z</time>
      </trkpt>
      <trkpt lat="42.376288" lon="8.9376">
        <ele>2591.8</ele>
        <time>2022-09-10T10:29:16Z</time>
      </trkpt>
      <trkpt lat="42.376338" lon="8.937522">
        <ele>2590.0</ele>
        <time>2022-09-10T10:29:25Z</time>
      </trkpt>
      <trkpt lat="42.376343" lon="8.937517">
        <ele>2589.8</ele>
        <time>2022-09-10T10:29:26Z</time>
      </trkpt>
      <trkpt lat="42.37637" lon="8.937428">
        <ele>2590.4</ele>
        <time>2022-09-10T10:29:45Z</time>
      </trkpt>
      <trkpt lat="42.376405" lon="8.937317">
        <ele>2592.0</ele>
        <time>2022-09-10T10:30:08Z</time>
      </trkpt>
      <trkpt lat="42.376373" lon="8.93727">
        <ele>2596.4</ele>
        <time>2022-09-10T10:30:31Z</time>
      </trkpt>
      <trkpt lat="42.376252" lon="8.937352">
        <ele>2594.2</ele>
        <time>2022-09-10T10:30:51Z</time>
      </trkpt>
      <trkpt lat="42.376248" lon="8.937367">
        <ele>2593.8</ele>
        <time>2022-09-10T10:30:52Z</time>
      </trkpt>
      <trkpt lat="42.37621" lon="8.937333">
        <ele>2591.8</ele>
        <time>2022-09-10T10:30:59Z</time>
      </trkpt>
      <trkpt lat="42.376192" lon="8.93723">
        <ele>2592.0</ele>
        <time>2022-09-10T10:31:12Z</time>
      </trkpt>
      <trkpt lat="42.376172" lon="8.937173">
        <ele>2593.0</ele>
        <time>2022-09-10T10:31:19Z</time>
      </trkpt>
      <trkpt lat="42.376163" lon="8.93705">
        <ele>2592.2</ele>
        <time>2022-09-10T10:31:31Z</time>
      </trkpt>
      <trkpt lat="42.37613" lon="8.937058">
        <ele>2591.2</ele>
        <time>2022-09-10T10:31:40Z</time>
      </trkpt>
      <trkpt lat="42.376072" lon="8.937048">
        <ele>2586.8</ele>
        <time>2022-09-10T10:31:54Z</time>
      </trkpt>
      <trkpt lat="42.376052" lon="8.93701">
        <ele>2589.4</ele>
        <time>2022-09-10T10:32:03Z</time>
      </trkpt>
      <trkpt lat="42.376015" lon="8.936863">
        <ele>2586.8</ele>
        <time>2022-09-10T10:32:26Z</time>
      </trkpt>
      <trkpt lat="42.37584" lon="8.936052">
        <ele>2583.6</ele>
        <time>2022-09-10T10:34:36Z</time>
      </trkpt>
      <trkpt lat="42.375858" lon="8.936152">
        <ele>2584.2</ele>
        <time>2022-09-10T10:34:44Z</time>
      </trkpt>
      <trkpt lat="42.37586" lon="8.936298">
        <ele>2582.4</ele>
        <time>2022-09-10T10:34:57Z</time>
      </trkpt>
      <trkpt lat="42.37596" lon="8.936567">
        <ele>2578.8</ele>
        <time>2022-09-10T10:35:24Z</time>
      </trkpt>
      <trkpt lat="42.375967" lon="8.93656">
        <ele>2578.8</ele>
        <time>2022-09-10T10:35:25Z</time>
      </trkpt>
      <trkpt lat="42.376027" lon="8.936512">
        <ele>2579.0</ele>
        <time>2022-09-10T10:35:32Z</time>
      </trkpt>
      <trkpt lat="42.376032" lon="8.936457">
        <ele>2583.4</ele>
        <time>2022-09-10T10:35:37Z</time>
      </trkpt>
      <trkpt lat="42.37599" lon="8.936387">
        <ele>2588.4</ele>
        <time>2022-09-10T10:35:45Z</time>
      </trkpt>
      <trkpt lat="42.375983" lon="8.93638">
        <ele>2588.4</ele>
        <time>2022-09-10T10:35:46Z</time>
      </trkpt>
      <trkpt lat="42.375957" lon="8.936353">
        <ele>2589.0</ele>
        <time>2022-09-10T10:35:52Z</time>
      </trkpt>
      <trkpt lat="42.375935" lon="8.936275">
        <ele>2582.6</ele>
        <time>2022-09-10T10:36:02Z</time>
      </trkpt>
      <trkpt lat="42.375913" lon="8.936218">
        <ele>2580.6</ele>
        <time>2022-09-10T10:36:10Z</time>
      </trkpt>
      <trkpt lat="42.375897" lon="8.936152">
        <ele>2578.6</ele>
        <time>2022-09-10T10:36:25Z</time>
      </trkpt>
      <trkpt lat="42.375847" lon="8.936033">
        <ele>2576.6</ele>
        <time>2022-09-10T10:36:45Z</time>
      </trkpt>
      <trkpt lat="42.375813" lon="8.936062">
        <ele>2575.0</ele>
        <time>2022-09-10T10:36:51Z</time>
      </trkpt>
      <trkpt lat="42.375785" lon="8.936162">
        <ele>2573.0</ele>
        <time>2022-09-10T10:37:03Z</time>
      </trkpt>
      <trkpt lat="42.375777" lon="8.936172">
        <ele>2572.8</ele>
        <time>2022-09-10T10:37:05Z</time>
      </trkpt>
      <trkpt lat="42.375718" lon="8.936152">
        <ele>2572.8</ele>
        <time>2022-09-10T10:37:16Z</time>
      </trkpt>
      <trkpt lat="42.375695" lon="8.936163">
        <ele>2571.6</ele>
        <time>2022-09-10T10:37:22Z</time>
      </trkpt>
      <trkpt lat="42.375697" lon="8.936083">
        <ele>2571.0</ele>
        <time>2022-09-10T10:37:39Z</time>
      </trkpt>
      <trkpt lat="42.375687" lon="8.936058">
        <ele>2570.6</ele>
        <time>2022-09-10T10:37:42Z</time>
      </trkpt>
      <trkpt lat="42.37567" lon="8.93596">
        <ele>2569.4</ele>
        <time>2022-09-10T10:37:53Z</time>
      </trkpt>
      <trkpt lat="42.375647" lon="8.935928">
        <ele>2567.4</ele>
        <time>2022-09-10T10:37:59Z</time>
      </trkpt>
      <trkpt lat="42.375572" lon="8.935865">
        <ele>2559.2</ele>
        <time>2022-09-10T10:38:37Z</time>
      </trkpt>
      <trkpt lat="42.375567" lon="8.935575">
        <ele>2553.4</ele>
        <time>2022-09-10T10:39:48Z</time>
      </trkpt>
      <trkpt lat="42.375558" lon="8.935475">
        <ele>2553.4</ele>
        <time>2022-09-10T10:39:58Z</time>
      </trkpt>
      <trkpt lat="42.375525" lon="8.935357">
        <ele>2550.2</ele>
        <time>2022-09-10T10:40:07Z</time>
      </trkpt>
      <trkpt lat="42.375492" lon="8.935292">
        <ele>2545.8</ele>
        <time>2022-09-10T10:40:13Z</time>
      </trkpt>
      <trkpt lat="42.375467" lon="8.935245">
        <ele>2545.0</ele>
        <time>2022-09-10T10:40:19Z</time>
      </trkpt>
      <trkpt lat="42.375427" lon="8.935153">
        <ele>2544.8</ele>
        <time>2022-09-10T10:40:28Z</time>
      </trkpt>
      <trkpt lat="42.375412" lon="8.935138">
        <ele>2544.8</ele>
        <time>2022-09-10T10:40:31Z</time>
      </trkpt>
      <trkpt lat="42.37538" lon="8.934993">
        <ele>2543.2</ele>
        <time>2022-09-10T10:40:55Z</time>
      </trkpt>
      <trkpt lat="42.37539" lon="8.934952">
        <ele>2537.6</ele>
        <time>2022-09-10T10:41:38Z</time>
      </trkpt>
      <trkpt lat="42.375378" lon="8.934903">
        <ele>2537.6</ele>
        <time>2022-09-10T10:41:48Z</time>
      </trkpt>
      <trkpt lat="42.375392" lon="8.934637">
        <ele>2534.8</ele>
        <time>2022-09-10T10:42:13Z</time>
      </trkpt>
      <trkpt lat="42.375397" lon="8.934578">
        <ele>2534.0</ele>
        <time>2022-09-10T10:42:17Z</time>
      </trkpt>
      <trkpt lat="42.375397" lon="8.934552">
        <ele>2533.0</ele>
        <time>2022-09-10T10:42:19Z</time>
      </trkpt>
      <trkpt lat="42.375403" lon="8.934482">
        <ele>2532.2</ele>
        <time>2022-09-10T10:42:26Z</time>
      </trkpt>
      <trkpt lat="42.375373" lon="8.934322">
        <ele>2530.2</ele>
        <time>2022-09-10T10:42:43Z</time>
      </trkpt>
      <trkpt lat="42.37537" lon="8.934312">
        <ele>2530.2</ele>
        <time>2022-09-10T10:42:44Z</time>
      </trkpt>
      <trkpt lat="42.375395" lon="8.93426">
        <ele>2528.0</ele>
        <time>2022-09-10T10:43:00Z</time>
      </trkpt>
      <trkpt lat="42.375398" lon="8.934257">
        <ele>2528.0</ele>
        <time>2022-09-10T10:43:00Z</time>
      </trkpt>
      <trkpt lat="42.375428" lon="8.93423">
        <ele>2528.8</ele>
        <time>2022-09-10T10:43:12Z</time>
      </trkpt>
      <trkpt lat="42.375555" lon="8.93406">
        <ele>2526.6</ele>
        <time>2022-09-10T10:43:40Z</time>
      </trkpt>
      <trkpt lat="42.375558" lon="8.93405">
        <ele>2528.2</ele>
        <time>2022-09-10T10:43:43Z</time>
      </trkpt>
      <trkpt lat="42.375337" lon="8.93402">
        <ele>2523.6</ele>
        <time>2022-09-10T10:44:08Z</time>
      </trkpt>
      <trkpt lat="42.375268" lon="8.934027">
        <ele>2518.6</ele>
        <time>2022-09-10T10:44:15Z</time>
      </trkpt>
      <trkpt lat="42.375197" lon="8.934012">
        <ele>2517.0</ele>
        <time>2022-09-10T10:44:24Z</time>
      </trkpt>
      <trkpt lat="42.37519" lon="8.934012">
        <ele>2516.2</ele>
        <time>2022-09-10T10:44:26Z</time>
      </trkpt>
      <trkpt lat="42.375122" lon="8.934077">
        <ele>2513.8</ele>
        <time>2022-09-10T10:44:42Z</time>
      </trkpt>
      <trkpt lat="42.375083" lon="8.934128">
        <ele>2510.2</ele>
        <time>2022-09-10T10:44:53Z</time>
      </trkpt>
      <trkpt lat="42.375025" lon="8.934113">
        <ele>2509.2</ele>
        <time>2022-09-10T10:45:07Z</time>
      </trkpt>
      <trkpt lat="42.375003" lon="8.934118">
        <ele>2508.8</ele>
        <time>2022-09-10T10:45:13Z</time>
      </trkpt>
      <trkpt lat="42.374982" lon="8.934135">
        <ele>2507.0</ele>
        <time>2022-09-10T10:45:42Z</time>
      </trkpt>
      <trkpt lat="42.374952" lon="8.934183">
        <ele>2505.2</ele>
        <time>2022-09-10T10:45:51Z</time>
      </trkpt>
      <trkpt lat="42.374945" lon="8.934187">
        <ele>2505.2</ele>
        <time>2022-09-10T10:45:52Z</time>
      </trkpt>
      <trkpt lat="42.374888" lon="8.934155">
        <ele>2506.8</ele>
        <time>2022-09-10T10:46:00Z</time>
      </trkpt>
      <trkpt lat="42.374835" lon="8.934133">
        <ele>2506.8</ele>
        <time>2022-09-10T10:46:11Z</time>
      </trkpt>
      <trkpt lat="42.37479" lon="8.933917">
        <ele>2498.8</ele>
        <time>2022-09-10T10:46:48Z</time>
      </trkpt>
      <trkpt lat="42.374762" lon="8.933888">
        <ele>2497.6</ele>
        <time>2022-09-10T10:47:03Z</time>
      </trkpt>
      <trkpt lat="42.374755" lon="8.933888">
        <ele>2497.6</ele>
        <time>2022-09-10T10:47:04Z</time>
      </trkpt>
      <trkpt lat="42.374707" lon="8.933852">
        <ele>2498.0</ele>
        <time>2022-09-10T10:47:10Z</time>
      </trkpt>
      <trkpt lat="42.374697" lon="8.933687">
        <ele>2494.4</ele>
        <time>2022-09-10T10:47:25Z</time>
      </trkpt>
      <trkpt lat="42.374707" lon="8.933592">
        <ele>2493.0</ele>
        <time>2022-09-10T10:47:34Z</time>
      </trkpt>
      <trkpt lat="42.374652" lon="8.933512">
        <ele>2495.2</ele>
        <time>2022-09-10T10:47:41Z</time>
      </trkpt>
      <trkpt lat="42.374642" lon="8.9335">
        <ele>2495.2</ele>
        <time>2022-09-10T10:47:41Z</time>
      </trkpt>
      <trkpt lat="42.374548" lon="8.933607">
        <ele>2491.4</ele>
        <time>2022-09-10T10:47:58Z</time>
      </trkpt>
      <trkpt lat="42.374505" lon="8.933625">
        <ele>2491.6</ele>
        <time>2022-09-10T10:48:06Z</time>
      </trkpt>
      <trkpt lat="42.37443" lon="8.933727">
        <ele>2488.6</ele>
        <time>2022-09-10T10:48:26Z</time>
      </trkpt>
      <trkpt lat="42.374303" lon="8.933563">
        <ele>2483.4</ele>
        <time>2022-09-10T10:48:46Z</time>
      </trkpt>
      <trkpt lat="42.374287" lon="8.933485">
        <ele>2482.4</ele>
        <time>2022-09-10T10:48:55Z</time>
      </trkpt>
      <trkpt lat="42.374313" lon="8.933382">
        <ele>2483.0</ele>
        <time>2022-09-10T10:49:03Z</time>
      </trkpt>
      <trkpt lat="42.374288" lon="8.93336">
        <ele>2483.0</ele>
        <time>2022-09-10T10:49:05Z</time>
      </trkpt>
      <trkpt lat="42.374275" lon="8.933352">
        <ele>2483.0</ele>
        <time>2022-09-10T10:49:07Z</time>
      </trkpt>
      <trkpt lat="42.374122" lon="8.933288">
        <ele>2483.8</ele>
        <time>2022-09-10T10:49:17Z</time>
      </trkpt>
      <trkpt lat="42.374017" lon="8.933218">
        <ele>2482.4</ele>
        <time>2022-09-10T10:49:25Z</time>
      </trkpt>
      <trkpt lat="42.373962" lon="8.933148">
        <ele>2480.8</ele>
        <time>2022-09-10T10:49:30Z</time>
      </trkpt>
      <trkpt lat="42.37393" lon="8.933112">
        <ele>2480.6</ele>
        <time>2022-09-10T10:49:33Z</time>
      </trkpt>
      <trkpt lat="42.373773" lon="8.932943">
        <ele>2477.4</ele>
        <time>2022-09-10T10:49:52Z</time>
      </trkpt>
      <trkpt lat="42.373788" lon="8.932903">
        <ele>2476.4</ele>
        <time>2022-09-10T10:50:05Z</time>
      </trkpt>
      <trkpt lat="42.373795" lon="8.93288">
        <ele>2477.0</ele>
        <time>2022-09-10T10:50:14Z</time>
      </trkpt>
      <trkpt lat="42.373802" lon="8.932822">
        <ele>2478.2</ele>
        <time>2022-09-10T10:50:19Z</time>
      </trkpt>
      <trkpt lat="42.373807" lon="8.93272">
        <ele>2478.2</ele>
        <time>2022-09-10T10:50:25Z</time>
      </trkpt>
      <trkpt lat="42.373788" lon="8.932633">
        <ele>2477.6</ele>
        <time>2022-09-10T10:50:33Z</time>
      </trkpt>
      <trkpt lat="42.373735" lon="8.932545">
        <ele>2474.2</ele>
        <time>2022-09-10T10:50:43Z</time>
      </trkpt>
      <trkpt lat="42.373703" lon="8.932463">
        <ele>2472.2</ele>
        <time>2022-09-10T10:50:52Z</time>
      </trkpt>
      <trkpt lat="42.373643" lon="8.93241">
        <ele>2473.0</ele>
        <time>2022-09-10T10:51:02Z</time>
      </trkpt>
      <trkpt lat="42.373608" lon="8.932382">
        <ele>2472.4</ele>
        <time>2022-09-10T10:51:08Z</time>
      </trkpt>
      <trkpt lat="42.373595" lon="8.932343">
        <ele>2471.2</ele>
        <time>2022-09-10T10:51:14Z</time>
      </trkpt>
      <trkpt lat="42.373595" lon="8.932335">
        <ele>2471.0</ele>
        <time>2022-09-10T10:51:15Z</time>
      </trkpt>
      <trkpt lat="42.37358" lon="8.93224">
        <ele>2470.2</ele>
        <time>2022-09-10T10:51:24Z</time>
      </trkpt>
      <trkpt lat="42.373527" lon="8.932128">
        <ele>2472.2</ele>
        <time>2022-09-10T10:51:38Z</time>
      </trkpt>
      <trkpt lat="42.373488" lon="8.932017">
        <ele>2469.6</ele>
        <time>2022-09-10T10:51:54Z</time>
      </trkpt>
      <trkpt lat="42.373485" lon="8.932">
        <ele>2468.6</ele>
        <time>2022-09-10T10:51:58Z</time>
      </trkpt>
      <trkpt lat="42.373453" lon="8.931942">
        <ele>2468.6</ele>
        <time>2022-09-10T10:52:05Z</time>
      </trkpt>
      <trkpt lat="42.373418" lon="8.931853">
        <ele>2467.0</ele>
        <time>2022-09-10T10:52:13Z</time>
      </trkpt>
      <trkpt lat="42.37332" lon="8.931828">
        <ele>2466.6</ele>
        <time>2022-09-10T10:52:29Z</time>
      </trkpt>
      <trkpt lat="42.373218" lon="8.931767">
        <ele>2468.6</ele>
        <time>2022-09-10T10:52:45Z</time>
      </trkpt>
      <trkpt lat="42.373152" lon="8.931718">
        <ele>2465.4</ele>
        <time>2022-09-10T10:53:04Z</time>
      </trkpt>
      <trkpt lat="42.373168" lon="8.931652">
        <ele>2465.8</ele>
        <time>2022-09-10T10:53:15Z</time>
      </trkpt>
      <trkpt lat="42.373175" lon="8.931602">
        <ele>2464.6</ele>
        <time>2022-09-10T10:53:45Z</time>
      </trkpt>
      <trkpt lat="42.373142" lon="8.931542">
        <ele>2467.2</ele>
        <time>2022-09-10T10:54:06Z</time>
      </trkpt>
      <trkpt lat="42.373157" lon="8.931512">
        <ele>2462.2</ele>
        <time>2022-09-10T10:54:22Z</time>
      </trkpt>
      <trkpt lat="42.373152" lon="8.931512">
        <ele>2461.8</ele>
        <time>2022-09-10T10:54:25Z</time>
      </trkpt>
      <trkpt lat="42.373103" lon="8.931492">
        <ele>2461.8</ele>
        <time>2022-09-10T10:54:35Z</time>
      </trkpt>
      <trkpt lat="42.373015" lon="8.931502">
        <ele>2465.8</ele>
        <time>2022-09-10T10:54:47Z</time>
      </trkpt>
      <trkpt lat="42.372928" lon="8.931517">
        <ele>2464.6</ele>
        <time>2022-09-10T10:54:58Z</time>
      </trkpt>
      <trkpt lat="42.372915" lon="8.931513">
        <ele>2462.2</ele>
        <time>2022-09-10T10:55:00Z</time>
      </trkpt>
      <trkpt lat="42.372915" lon="8.931495">
        <ele>2461.6</ele>
        <time>2022-09-10T10:55:02Z</time>
      </trkpt>
      <trkpt lat="42.372887" lon="8.931383">
        <ele>2456.8</ele>
        <time>2022-09-10T10:55:35Z</time>
      </trkpt>
      <trkpt lat="42.372897" lon="8.931353">
        <ele>2456.2</ele>
        <time>2022-09-10T10:55:44Z</time>
      </trkpt>
      <trkpt lat="42.37291" lon="8.931225">
        <ele>2457.6</ele>
        <time>2022-09-10T10:55:56Z</time>
      </trkpt>
      <trkpt lat="42.37293" lon="8.931168">
        <ele>2458.4</ele>
        <time>2022-09-10T10:56:05Z</time>
      </trkpt>
      <trkpt lat="42.372945" lon="8.931017">
        <ele>2461.2</ele>
        <time>2022-09-10T10:56:21Z</time>
      </trkpt>
      <trkpt lat="42.372955" lon="8.93099">
        <ele>2461.6</ele>
        <time>2022-09-10T10:56:24Z</time>
      </trkpt>
      <trkpt lat="42.372965" lon="8.930925">
        <ele>2463.4</ele>
        <time>2022-09-10T10:56:30Z</time>
      </trkpt>
      <trkpt lat="42.372977" lon="8.930833">
        <ele>2463.6</ele>
        <time>2022-09-10T10:56:37Z</time>
      </trkpt>
      <trkpt lat="42.37299" lon="8.93077">
        <ele>2460.6</ele>
        <time>2022-09-10T10:56:42Z</time>
      </trkpt>
      <trkpt lat="42.372995" lon="8.930667">
        <ele>2464.0</ele>
        <time>2022-09-10T10:56:55Z</time>
      </trkpt>
      <trkpt lat="42.373" lon="8.930643">
        <ele>2464.0</ele>
        <time>2022-09-10T10:56:57Z</time>
      </trkpt>
      <trkpt lat="42.372973" lon="8.930592">
        <ele>2464.2</ele>
        <time>2022-09-10T10:57:08Z</time>
      </trkpt>
      <trkpt lat="42.3729" lon="8.930535">
        <ele>2463.8</ele>
        <time>2022-09-10T10:57:21Z</time>
      </trkpt>
      <trkpt lat="42.372838" lon="8.930445">
        <ele>2459.8</ele>
        <time>2022-09-10T10:57:39Z</time>
      </trkpt>
      <trkpt lat="42.372833" lon="8.93044">
        <ele>2460.4</ele>
        <time>2022-09-10T10:57:41Z</time>
      </trkpt>
      <trkpt lat="42.372808" lon="8.930403">
        <ele>2462.0</ele>
        <time>2022-09-10T10:57:48Z</time>
      </trkpt>
      <trkpt lat="42.372763" lon="8.930333">
        <ele>2462.4</ele>
        <time>2022-09-10T10:57:57Z</time>
      </trkpt>
      <trkpt lat="42.372693" lon="8.930288">
        <ele>2461.8</ele>
        <time>2022-09-10T10:58:08Z</time>
      </trkpt>
      <trkpt lat="42.37266" lon="8.93031">
        <ele>2467.2</ele>
        <time>2022-09-10T10:58:13Z</time>
      </trkpt>
      <trkpt lat="42.372615" lon="8.930338">
        <ele>2464.4</ele>
        <time>2022-09-10T10:58:22Z</time>
      </trkpt>
      <trkpt lat="42.372597" lon="8.930322">
        <ele>2461.6</ele>
        <time>2022-09-10T10:58:26Z</time>
      </trkpt>
      <trkpt lat="42.372565" lon="8.930248">
        <ele>2462.2</ele>
        <time>2022-09-10T10:58:37Z</time>
      </trkpt>
      <trkpt lat="42.372515" lon="8.930217">
        <ele>2462.2</ele>
        <time>2022-09-10T10:58:49Z</time>
      </trkpt>
      <trkpt lat="42.372458" lon="8.93019">
        <ele>2464.4</ele>
        <time>2022-09-10T10:59:02Z</time>
      </trkpt>
      <trkpt lat="42.372453" lon="8.930192">
        <ele>2464.8</ele>
        <time>2022-09-10T10:59:04Z</time>
      </trkpt>
      <trkpt lat="42.372365" lon="8.930233">
        <ele>2466.2</ele>
        <time>2022-09-10T10:59:23Z</time>
      </trkpt>
      <trkpt lat="42.37231" lon="8.930263">
        <ele>2463.6</ele>
        <time>2022-09-10T10:59:42Z</time>
      </trkpt>
      <trkpt lat="42.372237" lon="8.930315">
        <ele>2460.2</ele>
        <time>2022-09-10T11:00:21Z</time>
      </trkpt>
      <trkpt lat="42.372197" lon="8.930273">
        <ele>2459.2</ele>
        <time>2022-09-10T11:00:31Z</time>
      </trkpt>
      <trkpt lat="42.372123" lon="8.930213">
        <ele>2457.8</ele>
        <time>2022-09-10T11:00:43Z</time>
      </trkpt>
      <trkpt lat="42.372097" lon="8.930175">
        <ele>2457.2</ele>
        <time>2022-09-10T11:00:47Z</time>
      </trkpt>
      <trkpt lat="42.372063" lon="8.930063">
        <ele>2457.6</ele>
        <time>2022-09-10T11:00:54Z</time>
      </trkpt>
      <trkpt lat="42.372022" lon="8.930023">
        <ele>2457.6</ele>
        <time>2022-09-10T11:00:58Z</time>
      </trkpt>
      <trkpt lat="42.37196" lon="8.929967">
        <ele>2456.0</ele>
        <time>2022-09-10T11:01:05Z</time>
      </trkpt>
      <trkpt lat="42.371935" lon="8.929928">
        <ele>2454.4</ele>
        <time>2022-09-10T11:01:16Z</time>
      </trkpt>
      <trkpt lat="42.371932" lon="8.929927">
        <ele>2454.4</ele>
        <time>2022-09-10T11:01:16Z</time>
      </trkpt>
      <trkpt lat="42.371907" lon="8.929957">
        <ele>2455.4</ele>
        <time>2022-09-10T11:01:23Z</time>
      </trkpt>
      <trkpt lat="42.371872" lon="8.929992">
        <ele>2456.2</ele>
        <time>2022-09-10T11:01:32Z</time>
      </trkpt>
      <trkpt lat="42.371852" lon="8.930027">
        <ele>2455.6</ele>
        <time>2022-09-10T11:01:40Z</time>
      </trkpt>
      <trkpt lat="42.37183" lon="8.930072">
        <ele>2456.4</ele>
        <time>2022-09-10T11:01:50Z</time>
      </trkpt>
      <trkpt lat="42.3718" lon="8.930108">
        <ele>2458.8</ele>
        <time>2022-09-10T11:02:02Z</time>
      </trkpt>
      <trkpt lat="42.371782" lon="8.930163">
        <ele>2455.0</ele>
        <time>2022-09-10T11:02:19Z</time>
      </trkpt>
      <trkpt lat="42.371777" lon="8.930195">
        <ele>2453.2</ele>
        <time>2022-09-10T11:02:29Z</time>
      </trkpt>
      <trkpt lat="42.371752" lon="8.93012">
        <ele>2452.6</ele>
        <time>2022-09-10T11:02:40Z</time>
      </trkpt>
      <trkpt lat="42.371727" lon="8.93004">
        <ele>2451.6</ele>
        <time>2022-09-10T11:02:51Z</time>
      </trkpt>
      <trkpt lat="42.371755" lon="8.929957">
        <ele>2450.8</ele>
        <time>2022-09-10T11:03:01Z</time>
      </trkpt>
      <trkpt lat="42.371735" lon="8.929843">
        <ele>2450.8</ele>
        <time>2022-09-10T11:03:32Z</time>
      </trkpt>
      <trkpt lat="42.371718" lon="8.929727">
        <ele>2452.4</ele>
        <time>2022-09-10T11:04:10Z</time>
      </trkpt>
      <trkpt lat="42.371765" lon="8.92991">
        <ele>2462.4</ele>
        <time>2022-09-10T11:25:13Z</time>
      </trkpt>
      <trkpt lat="42.371828" lon="8.929865">
        <ele>2463.4</ele>
        <time>2022-09-10T11:26:55Z</time>
      </trkpt>
      <trkpt lat="42.371797" lon="8.929857">
        <ele>2463.8</ele>
        <time>2022-09-10T11:27:07Z</time>
      </trkpt>
      <trkpt lat="42.371762" lon="8.929857">
        <ele>2464.6</ele>
        <time>2022-09-10T11:27:16Z</time>
      </trkpt>
      <trkpt lat="42.371715" lon="8.92984">
        <ele>2461.8</ele>
        <time>2022-09-10T11:27:24Z</time>
      </trkpt>
      <trkpt lat="42.371675" lon="8.929767">
        <ele>2463.2</ele>
        <time>2022-09-10T11:27:46Z</time>
      </trkpt>
      <trkpt lat="42.371675" lon="8.929763">
        <ele>2463.2</ele>
        <time>2022-09-10T11:27:46Z</time>
      </trkpt>
      <trkpt lat="42.371667" lon="8.929752">
        <ele>2463.6</ele>
        <time>2022-09-10T11:27:51Z</time>
      </trkpt>
      <trkpt lat="42.371623" lon="8.929732">
        <ele>2468.0</ele>
        <time>2022-09-10T11:28:06Z</time>
      </trkpt>
      <trkpt lat="42.371592" lon="8.929702">
        <ele>2470.6</ele>
        <time>2022-09-10T11:28:17Z</time>
      </trkpt>
      <trkpt lat="42.371568" lon="8.929597">
        <ele>2475.8</ele>
        <time>2022-09-10T11:29:02Z</time>
      </trkpt>
      <trkpt lat="42.371572" lon="8.929583">
        <ele>2476.2</ele>
        <time>2022-09-10T11:29:04Z</time>
      </trkpt>
      <trkpt lat="42.371558" lon="8.92956">
        <ele>2477.6</ele>
        <time>2022-09-10T11:29:14Z</time>
      </trkpt>
      <trkpt lat="42.371535" lon="8.929577">
        <ele>2477.6</ele>
        <time>2022-09-10T11:29:22Z</time>
      </trkpt>
      <trkpt lat="42.37145" lon="8.92952">
        <ele>2479.2</ele>
        <time>2022-09-10T11:29:58Z</time>
      </trkpt>
      <trkpt lat="42.371425" lon="8.92953">
        <ele>2474.6</ele>
        <time>2022-09-10T11:30:09Z</time>
      </trkpt>
      <trkpt lat="42.37141" lon="8.929562">
        <ele>2473.0</ele>
        <time>2022-09-10T11:30:15Z</time>
      </trkpt>
      <trkpt lat="42.371403" lon="8.929512">
        <ele>2470.6</ele>
        <time>2022-09-10T11:30:43Z</time>
      </trkpt>
      <trkpt lat="42.37141" lon="8.929463">
        <ele>2470.8</ele>
        <time>2022-09-10T11:30:53Z</time>
      </trkpt>
      <trkpt lat="42.371437" lon="8.929487">
        <ele>2472.0</ele>
        <time>2022-09-10T11:31:04Z</time>
      </trkpt>
      <trkpt lat="42.371403" lon="8.929505">
        <ele>2471.6</ele>
        <time>2022-09-10T11:31:12Z</time>
      </trkpt>
      <trkpt lat="42.371398" lon="8.929522">
        <ele>2471.6</ele>
        <time>2022-09-10T11:31:15Z</time>
      </trkpt>
      <trkpt lat="42.371412" lon="8.929567">
        <ele>2473.8</ele>
        <time>2022-09-10T11:31:32Z</time>
      </trkpt>
      <trkpt lat="42.371425" lon="8.929535">
        <ele>2469.6</ele>
        <time>2022-09-10T11:31:45Z</time>
      </trkpt>
      <trkpt lat="42.371472" lon="8.929503">
        <ele>2469.6</ele>
        <time>2022-09-10T11:31:53Z</time>
      </trkpt>
      <trkpt lat="42.371472" lon="8.929473">
        <ele>2467.4</ele>
        <time>2022-09-10T11:31:58Z</time>
      </trkpt>
      <trkpt lat="42.371455" lon="8.929455">
        <ele>2466.4</ele>
        <time>2022-09-10T11:32:02Z</time>
      </trkpt>
      <trkpt lat="42.371475" lon="8.929398">
        <ele>2464.4</ele>
        <time>2022-09-10T11:32:12Z</time>
      </trkpt>
      <trkpt lat="42.371522" lon="8.929338">
        <ele>2462.0</ele>
        <time>2022-09-10T11:32:30Z</time>
      </trkpt>
      <trkpt lat="42.37153" lon="8.929263">
        <ele>2461.8</ele>
        <time>2022-09-10T11:32:41Z</time>
      </trkpt>
      <trkpt lat="42.371538" lon="8.92921">
        <ele>2459.8</ele>
        <time>2022-09-10T11:32:50Z</time>
      </trkpt>
      <trkpt lat="42.37158" lon="8.929098">
        <ele>2451.8</ele>
        <time>2022-09-10T11:33:11Z</time>
      </trkpt>
      <trkpt lat="42.371607" lon="8.929075">
        <ele>2451.2</ele>
        <time>2022-09-10T11:33:26Z</time>
      </trkpt>
      <trkpt lat="42.371615" lon="8.929063">
        <ele>2450.4</ele>
        <time>2022-09-10T11:33:29Z</time>
      </trkpt>
      <trkpt lat="42.371635" lon="8.929053">
        <ele>2449.4</ele>
        <time>2022-09-10T11:33:35Z</time>
      </trkpt>
      <trkpt lat="42.371668" lon="8.928997">
        <ele>2448.8</ele>
        <time>2022-09-10T11:33:57Z</time>
      </trkpt>
      <trkpt lat="42.371697" lon="8.92898">
        <ele>2447.6</ele>
        <time>2022-09-10T11:34:04Z</time>
      </trkpt>
      <trkpt lat="42.371705" lon="8.92896">
        <ele>2448.6</ele>
        <time>2022-09-10T11:34:08Z</time>
      </trkpt>
      <trkpt lat="42.371743" lon="8.928955">
        <ele>2446.0</ele>
        <time>2022-09-10T11:34:20Z</time>
      </trkpt>
      <trkpt lat="42.371752" lon="8.928955">
        <ele>2445.8</ele>
        <time>2022-09-10T11:34:21Z</time>
      </trkpt>
      <trkpt lat="42.371772" lon="8.92892">
        <ele>2445.2</ele>
        <time>2022-09-10T11:34:26Z</time>
      </trkpt>
      <trkpt lat="42.37178" lon="8.928857">
        <ele>2444.0</ele>
        <time>2022-09-10T11:34:33Z</time>
      </trkpt>
      <trkpt lat="42.371813" lon="8.928877">
        <ele>2439.8</ele>
        <time>2022-09-10T11:34:52Z</time>
      </trkpt>
      <trkpt lat="42.371835" lon="8.928848">
        <ele>2438.6</ele>
        <time>2022-09-10T11:35:02Z</time>
      </trkpt>
      <trkpt lat="42.371862" lon="8.928837">
        <ele>2437.2</ele>
        <time>2022-09-10T11:35:09Z</time>
      </trkpt>
      <trkpt lat="42.371865" lon="8.928832">
        <ele>2437.2</ele>
        <time>2022-09-10T11:35:11Z</time>
      </trkpt>
      <trkpt lat="42.37188" lon="8.928803">
        <ele>2435.4</ele>
        <time>2022-09-10T11:35:18Z</time>
      </trkpt>
      <trkpt lat="42.371945" lon="8.928765">
        <ele>2433.2</ele>
        <time>2022-09-10T11:35:33Z</time>
      </trkpt>
      <trkpt lat="42.371997" lon="8.928728">
        <ele>2431.4</ele>
        <time>2022-09-10T11:35:43Z</time>
      </trkpt>
      <trkpt lat="42.372093" lon="8.928682">
        <ele>2429.2</ele>
        <time>2022-09-10T11:35:59Z</time>
      </trkpt>
      <trkpt lat="42.372112" lon="8.92867">
        <ele>2428.6</ele>
        <time>2022-09-10T11:36:03Z</time>
      </trkpt>
      <trkpt lat="42.372097" lon="8.928627">
        <ele>2428.4</ele>
        <time>2022-09-10T11:36:07Z</time>
      </trkpt>
      <trkpt lat="42.372057" lon="8.928673">
        <ele>2427.8</ele>
        <time>2022-09-10T11:36:16Z</time>
      </trkpt>
      <trkpt lat="42.37202" lon="8.928635">
        <ele>2427.2</ele>
        <time>2022-09-10T11:36:24Z</time>
      </trkpt>
      <trkpt lat="42.37198" lon="8.928512">
        <ele>2426.2</ele>
        <time>2022-09-10T11:36:36Z</time>
      </trkpt>
      <trkpt lat="42.371957" lon="8.928572">
        <ele>2424.8</ele>
        <time>2022-09-10T11:36:44Z</time>
      </trkpt>
      <trkpt lat="42.371932" lon="8.928533">
        <ele>2424.0</ele>
        <time>2022-09-10T11:36:50Z</time>
      </trkpt>
      <trkpt lat="42.372003" lon="8.928517">
        <ele>2421.0</ele>
        <time>2022-09-10T11:37:05Z</time>
      </trkpt>
      <trkpt lat="42.37203" lon="8.928512">
        <ele>2420.8</ele>
        <time>2022-09-10T11:37:09Z</time>
      </trkpt>
      <trkpt lat="42.372023" lon="8.928468">
        <ele>2420.2</ele>
        <time>2022-09-10T11:37:19Z</time>
      </trkpt>
      <trkpt lat="42.372055" lon="8.928422">
        <ele>2417.8</ele>
        <time>2022-09-10T11:37:37Z</time>
      </trkpt>
      <trkpt lat="42.372037" lon="8.928388">
        <ele>2416.0</ele>
        <time>2022-09-10T11:37:49Z</time>
      </trkpt>
      <trkpt lat="42.372048" lon="8.928357">
        <ele>2415.0</ele>
        <time>2022-09-10T11:37:57Z</time>
      </trkpt>
      <trkpt lat="42.372033" lon="8.928317">
        <ele>2411.0</ele>
        <time>2022-09-10T11:38:11Z</time>
      </trkpt>
      <trkpt lat="42.372052" lon="8.92828">
        <ele>2410.0</ele>
        <time>2022-09-10T11:38:20Z</time>
      </trkpt>
      <trkpt lat="42.372042" lon="8.928238">
        <ele>2406.8</ele>
        <time>2022-09-10T11:38:40Z</time>
      </trkpt>
      <trkpt lat="42.372045" lon="8.928232">
        <ele>2406.8</ele>
        <time>2022-09-10T11:38:42Z</time>
      </trkpt>
      <trkpt lat="42.372027" lon="8.92818">
        <ele>2404.2</ele>
        <time>2022-09-10T11:38:53Z</time>
      </trkpt>
      <trkpt lat="42.372058" lon="8.928173">
        <ele>2402.8</ele>
        <time>2022-09-10T11:38:59Z</time>
      </trkpt>
      <trkpt lat="42.372085" lon="8.928167">
        <ele>2401.8</ele>
        <time>2022-09-10T11:39:04Z</time>
      </trkpt>
      <trkpt lat="42.37209" lon="8.928122">
        <ele>2400.4</ele>
        <time>2022-09-10T11:39:14Z</time>
      </trkpt>
      <trkpt lat="42.37211" lon="8.928105">
        <ele>2400.2</ele>
        <time>2022-09-10T11:39:25Z</time>
      </trkpt>
      <trkpt lat="42.372117" lon="8.928065">
        <ele>2400.2</ele>
        <time>2022-09-10T11:39:36Z</time>
      </trkpt>
      <trkpt lat="42.372138" lon="8.92805">
        <ele>2399.4</ele>
        <time>2022-09-10T11:39:43Z</time>
      </trkpt>
      <trkpt lat="42.372145" lon="8.928013">
        <ele>2397.4</ele>
        <time>2022-09-10T11:39:54Z</time>
      </trkpt>
      <trkpt lat="42.372158" lon="8.927958">
        <ele>2395.2</ele>
        <time>2022-09-10T11:40:06Z</time>
      </trkpt>
      <trkpt lat="42.37222" lon="8.927923">
        <ele>2392.6</ele>
        <time>2022-09-10T11:40:21Z</time>
      </trkpt>
      <trkpt lat="42.372223" lon="8.92792">
        <ele>2392.6</ele>
        <time>2022-09-10T11:40:22Z</time>
      </trkpt>
      <trkpt lat="42.372232" lon="8.92785">
        <ele>2390.8</ele>
        <time>2022-09-10T11:40:31Z</time>
      </trkpt>
      <trkpt lat="42.372233" lon="8.927755">
        <ele>2388.4</ele>
        <time>2022-09-10T11:40:50Z</time>
      </trkpt>
      <trkpt lat="42.372218" lon="8.927718">
        <ele>2387.2</ele>
        <time>2022-09-10T11:40:58Z</time>
      </trkpt>
      <trkpt lat="42.37221" lon="8.92767">
        <ele>2386.4</ele>
        <time>2022-09-10T11:41:04Z</time>
      </trkpt>
      <trkpt lat="42.372203" lon="8.927598">
        <ele>2384.6</ele>
        <time>2022-09-10T11:41:13Z</time>
      </trkpt>
      <trkpt lat="42.372137" lon="8.927528">
        <ele>2380.2</ele>
        <time>2022-09-10T11:41:44Z</time>
      </trkpt>
      <trkpt lat="42.372138" lon="8.927517">
        <ele>2379.0</ele>
        <time>2022-09-10T11:41:47Z</time>
      </trkpt>
      <trkpt lat="42.372153" lon="8.9275">
        <ele>2377.8</ele>
        <time>2022-09-10T11:41:58Z</time>
      </trkpt>
      <trkpt lat="42.372178" lon="8.927457">
        <ele>2376.6</ele>
        <time>2022-09-10T11:42:10Z</time>
      </trkpt>
      <trkpt lat="42.372177" lon="8.927422">
        <ele>2375.2</ele>
        <time>2022-09-10T11:42:17Z</time>
      </trkpt>
      <trkpt lat="42.372162" lon="8.92739">
        <ele>2374.6</ele>
        <time>2022-09-10T11:42:24Z</time>
      </trkpt>
      <trkpt lat="42.372153" lon="8.927353">
        <ele>2373.6</ele>
        <time>2022-09-10T11:42:31Z</time>
      </trkpt>
      <trkpt lat="42.372103" lon="8.927345">
        <ele>2372.8</ele>
        <time>2022-09-10T11:42:43Z</time>
      </trkpt>
      <trkpt lat="42.37207" lon="8.927327">
        <ele>2370.6</ele>
        <time>2022-09-10T11:42:52Z</time>
      </trkpt>
      <trkpt lat="42.372078" lon="8.927303">
        <ele>2368.6</ele>
        <time>2022-09-10T11:42:59Z</time>
      </trkpt>
      <trkpt lat="42.372075" lon="8.92728">
        <ele>2366.8</ele>
        <time>2022-09-10T11:43:07Z</time>
      </trkpt>
      <trkpt lat="42.372065" lon="8.927252">
        <ele>2365.4</ele>
        <time>2022-09-10T11:43:16Z</time>
      </trkpt>
      <trkpt lat="42.372055" lon="8.927237">
        <ele>2364.2</ele>
        <time>2022-09-10T11:43:22Z</time>
      </trkpt>
      <trkpt lat="42.372038" lon="8.927195">
        <ele>2363.2</ele>
        <time>2022-09-10T11:43:29Z</time>
      </trkpt>
      <trkpt lat="42.372067" lon="8.927133">
        <ele>2359.2</ele>
        <time>2022-09-10T11:43:42Z</time>
      </trkpt>
      <trkpt lat="42.372047" lon="8.927093">
        <ele>2357.2</ele>
        <time>2022-09-10T11:43:55Z</time>
      </trkpt>
      <trkpt lat="42.372017" lon="8.927072">
        <ele>2355.4</ele>
        <time>2022-09-10T11:44:08Z</time>
      </trkpt>
      <trkpt lat="42.371992" lon="8.927037">
        <ele>2354.0</ele>
        <time>2022-09-10T11:44:18Z</time>
      </trkpt>
      <trkpt lat="42.371988" lon="8.927025">
        <ele>2354.0</ele>
        <time>2022-09-10T11:44:19Z</time>
      </trkpt>
      <trkpt lat="42.371953" lon="8.926947">
        <ele>2352.2</ele>
        <time>2022-09-10T11:44:29Z</time>
      </trkpt>
      <trkpt lat="42.371942" lon="8.926905">
        <ele>2351.4</ele>
        <time>2022-09-10T11:44:35Z</time>
      </trkpt>
      <trkpt lat="42.371917" lon="8.92686">
        <ele>2351.0</ele>
        <time>2022-09-10T11:44:44Z</time>
      </trkpt>
      <trkpt lat="42.371898" lon="8.926828">
        <ele>2349.8</ele>
        <time>2022-09-10T11:44:53Z</time>
      </trkpt>
      <trkpt lat="42.37188" lon="8.926815">
        <ele>2349.6</ele>
        <time>2022-09-10T11:45:00Z</time>
      </trkpt>
      <trkpt lat="42.37185" lon="8.926742">
        <ele>2348.0</ele>
        <time>2022-09-10T11:45:14Z</time>
      </trkpt>
      <trkpt lat="42.371847" lon="8.926742">
        <ele>2347.4</ele>
        <time>2022-09-10T11:45:15Z</time>
      </trkpt>
      <trkpt lat="42.371798" lon="8.926773">
        <ele>2344.2</ele>
        <time>2022-09-10T11:45:29Z</time>
      </trkpt>
      <trkpt lat="42.37178" lon="8.92677">
        <ele>2341.8</ele>
        <time>2022-09-10T11:45:46Z</time>
      </trkpt>
      <trkpt lat="42.371783" lon="8.926743">
        <ele>2341.2</ele>
        <time>2022-09-10T11:45:53Z</time>
      </trkpt>
      <trkpt lat="42.371773" lon="8.926713">
        <ele>2339.4</ele>
        <time>2022-09-10T11:46:01Z</time>
      </trkpt>
      <trkpt lat="42.371772" lon="8.926678">
        <ele>2337.8</ele>
        <time>2022-09-10T11:46:11Z</time>
      </trkpt>
      <trkpt lat="42.371728" lon="8.926672">
        <ele>2335.8</ele>
        <time>2022-09-10T11:46:25Z</time>
      </trkpt>
      <trkpt lat="42.371732" lon="8.926637">
        <ele>2334.4</ele>
        <time>2022-09-10T11:46:39Z</time>
      </trkpt>
      <trkpt lat="42.371732" lon="8.926633">
        <ele>2334.4</ele>
        <time>2022-09-10T11:46:39Z</time>
      </trkpt>
      <trkpt lat="42.371725" lon="8.926593">
        <ele>2333.4</ele>
        <time>2022-09-10T11:46:46Z</time>
      </trkpt>
      <trkpt lat="42.37169" lon="8.926597">
        <ele>2334.2</ele>
        <time>2022-09-10T11:46:56Z</time>
      </trkpt>
      <trkpt lat="42.371678" lon="8.926548">
        <ele>2332.6</ele>
        <time>2022-09-10T11:47:04Z</time>
      </trkpt>
      <trkpt lat="42.371638" lon="8.926532">
        <ele>2330.2</ele>
        <time>2022-09-10T11:47:18Z</time>
      </trkpt>
      <trkpt lat="42.371635" lon="8.92653">
        <ele>2330.2</ele>
        <time>2022-09-10T11:47:19Z</time>
      </trkpt>
      <trkpt lat="42.371572" lon="8.926577">
        <ele>2326.0</ele>
        <time>2022-09-10T11:47:41Z</time>
      </trkpt>
      <trkpt lat="42.371548" lon="8.926548">
        <ele>2324.2</ele>
        <time>2022-09-10T11:47:48Z</time>
      </trkpt>
      <trkpt lat="42.371508" lon="8.926558">
        <ele>2324.2</ele>
        <time>2022-09-10T11:47:55Z</time>
      </trkpt>
      <trkpt lat="42.371488" lon="8.926553">
        <ele>2323.0</ele>
        <time>2022-09-10T11:48:00Z</time>
      </trkpt>
      <trkpt lat="42.371435" lon="8.926587">
        <ele>2322.4</ele>
        <time>2022-09-10T11:48:09Z</time>
      </trkpt>
      <trkpt lat="42.371405" lon="8.926608">
        <ele>2322.0</ele>
        <time>2022-09-10T11:48:14Z</time>
      </trkpt>
      <trkpt lat="42.371262" lon="8.926622">
        <ele>2319.6</ele>
        <time>2022-09-10T11:48:28Z</time>
      </trkpt>
      <trkpt lat="42.371235" lon="8.926607">
        <ele>2318.2</ele>
        <time>2022-09-10T11:48:31Z</time>
      </trkpt>
      <trkpt lat="42.371233" lon="8.926583">
        <ele>2317.4</ele>
        <time>2022-09-10T11:48:36Z</time>
      </trkpt>
      <trkpt lat="42.371207" lon="8.926543">
        <ele>2316.4</ele>
        <time>2022-09-10T11:48:45Z</time>
      </trkpt>
      <trkpt lat="42.37123" lon="8.926513">
        <ele>2314.2</ele>
        <time>2022-09-10T11:48:53Z</time>
      </trkpt>
      <trkpt lat="42.371245" lon="8.92649">
        <ele>2313.2</ele>
        <time>2022-09-10T11:48:59Z</time>
      </trkpt>
      <trkpt lat="42.371203" lon="8.926423">
        <ele>2309.8</ele>
        <time>2022-09-10T11:49:16Z</time>
      </trkpt>
      <trkpt lat="42.371223" lon="8.926402">
        <ele>2307.8</ele>
        <time>2022-09-10T11:49:24Z</time>
      </trkpt>
      <trkpt lat="42.371223" lon="8.926393">
        <ele>2307.2</ele>
        <time>2022-09-10T11:49:26Z</time>
      </trkpt>
      <trkpt lat="42.371208" lon="8.926345">
        <ele>2306.2</ele>
        <time>2022-09-10T11:49:33Z</time>
      </trkpt>
      <trkpt lat="42.371215" lon="8.926267">
        <ele>2301.4</ele>
        <time>2022-09-10T11:49:58Z</time>
      </trkpt>
      <trkpt lat="42.371152" lon="8.926283">
        <ele>2300.8</ele>
        <time>2022-09-10T11:50:07Z</time>
      </trkpt>
      <trkpt lat="42.37108" lon="8.926333">
        <ele>2299.8</ele>
        <time>2022-09-10T11:50:17Z</time>
      </trkpt>
      <trkpt lat="42.371047" lon="8.92632">
        <ele>2299.8</ele>
        <time>2022-09-10T11:50:20Z</time>
      </trkpt>
      <trkpt lat="42.37101" lon="8.926322">
        <ele>2299.2</ele>
        <time>2022-09-10T11:50:27Z</time>
      </trkpt>
      <trkpt lat="42.370982" lon="8.926288">
        <ele>2297.0</ele>
        <time>2022-09-10T11:50:35Z</time>
      </trkpt>
      <trkpt lat="42.370925" lon="8.926297">
        <ele>2295.6</ele>
        <time>2022-09-10T11:50:56Z</time>
      </trkpt>
      <trkpt lat="42.370893" lon="8.926252">
        <ele>2291.8</ele>
        <time>2022-09-10T11:51:09Z</time>
      </trkpt>
      <trkpt lat="42.370872" lon="8.926252">
        <ele>2290.8</ele>
        <time>2022-09-10T11:51:15Z</time>
      </trkpt>
      <trkpt lat="42.370868" lon="8.926257">
        <ele>2290.8</ele>
        <time>2022-09-10T11:51:16Z</time>
      </trkpt>
      <trkpt lat="42.370845" lon="8.926287">
        <ele>2289.8</ele>
        <time>2022-09-10T11:51:24Z</time>
      </trkpt>
      <trkpt lat="42.370807" lon="8.926318">
        <ele>2286.6</ele>
        <time>2022-09-10T11:51:38Z</time>
      </trkpt>
      <trkpt lat="42.370702" lon="8.926293">
        <ele>2281.8</ele>
        <time>2022-09-10T11:52:00Z</time>
      </trkpt>
      <trkpt lat="42.370633" lon="8.926247">
        <ele>2278.4</ele>
        <time>2022-09-10T11:52:15Z</time>
      </trkpt>
      <trkpt lat="42.370628" lon="8.926238">
        <ele>2278.4</ele>
        <time>2022-09-10T11:52:16Z</time>
      </trkpt>
      <trkpt lat="42.370505" lon="8.92604">
        <ele>2276.2</ele>
        <time>2022-09-10T11:52:39Z</time>
      </trkpt>
      <trkpt lat="42.370453" lon="8.926037">
        <ele>2275.4</ele>
        <time>2022-09-10T11:52:46Z</time>
      </trkpt>
      <trkpt lat="42.370452" lon="8.925998">
        <ele>2274.2</ele>
        <time>2022-09-10T11:52:57Z</time>
      </trkpt>
      <trkpt lat="42.370457" lon="8.925988">
        <ele>2274.2</ele>
        <time>2022-09-10T11:52:58Z</time>
      </trkpt>
      <trkpt lat="42.370455" lon="8.925948">
        <ele>2273.6</ele>
        <time>2022-09-10T11:53:03Z</time>
      </trkpt>
      <trkpt lat="42.370432" lon="8.925935">
        <ele>2273.0</ele>
        <time>2022-09-10T11:53:07Z</time>
      </trkpt>
      <trkpt lat="42.37039" lon="8.925928">
        <ele>2272.0</ele>
        <time>2022-09-10T11:53:13Z</time>
      </trkpt>
      <trkpt lat="42.370347" lon="8.925897">
        <ele>2269.2</ele>
        <time>2022-09-10T11:53:26Z</time>
      </trkpt>
      <trkpt lat="42.370332" lon="8.925903">
        <ele>2269.6</ele>
        <time>2022-09-10T11:53:32Z</time>
      </trkpt>
      <trkpt lat="42.370307" lon="8.9259">
        <ele>2266.8</ele>
        <time>2022-09-10T11:53:41Z</time>
      </trkpt>
      <trkpt lat="42.370288" lon="8.92593">
        <ele>2266.8</ele>
        <time>2022-09-10T11:53:50Z</time>
      </trkpt>
      <trkpt lat="42.370218" lon="8.925942">
        <ele>2265.2</ele>
        <time>2022-09-10T11:54:05Z</time>
      </trkpt>
      <trkpt lat="42.370192" lon="8.925935">
        <ele>2263.0</ele>
        <time>2022-09-10T11:54:19Z</time>
      </trkpt>
      <trkpt lat="42.370162" lon="8.92597">
        <ele>2262.8</ele>
        <time>2022-09-10T11:54:29Z</time>
      </trkpt>
      <trkpt lat="42.370158" lon="8.925972">
        <ele>2262.8</ele>
        <time>2022-09-10T11:54:30Z</time>
      </trkpt>
      <trkpt lat="42.37011" lon="8.925943">
        <ele>2259.8</ele>
        <time>2022-09-10T11:54:44Z</time>
      </trkpt>
      <trkpt lat="42.37008" lon="8.925965">
        <ele>2257.2</ele>
        <time>2022-09-10T11:54:59Z</time>
      </trkpt>
      <trkpt lat="42.370038" lon="8.925962">
        <ele>2254.0</ele>
        <time>2022-09-10T11:55:21Z</time>
      </trkpt>
      <trkpt lat="42.370017" lon="8.925955">
        <ele>2253.4</ele>
        <time>2022-09-10T11:55:25Z</time>
      </trkpt>
      <trkpt lat="42.370007" lon="8.925887">
        <ele>2251.4</ele>
        <time>2022-09-10T11:55:34Z</time>
      </trkpt>
      <trkpt lat="42.37004" lon="8.925792">
        <ele>2248.6</ele>
        <time>2022-09-10T11:55:49Z</time>
      </trkpt>
      <trkpt lat="42.370027" lon="8.925772">
        <ele>2247.2</ele>
        <time>2022-09-10T11:55:56Z</time>
      </trkpt>
      <trkpt lat="42.369965" lon="8.925755">
        <ele>2242.2</ele>
        <time>2022-09-10T11:56:22Z</time>
      </trkpt>
      <trkpt lat="42.369967" lon="8.925752">
        <ele>2242.0</ele>
        <time>2022-09-10T11:56:23Z</time>
      </trkpt>
      <trkpt lat="42.369967" lon="8.92574">
        <ele>2240.4</ele>
        <time>2022-09-10T11:56:32Z</time>
      </trkpt>
      <trkpt lat="42.369955" lon="8.925755">
        <ele>2240.2</ele>
        <time>2022-09-10T11:56:36Z</time>
      </trkpt>
      <trkpt lat="42.369992" lon="8.925637">
        <ele>2236.0</ele>
        <time>2022-09-10T11:56:52Z</time>
      </trkpt>
      <trkpt lat="42.37002" lon="8.925597">
        <ele>2235.0</ele>
        <time>2022-09-10T11:57:01Z</time>
      </trkpt>
      <trkpt lat="42.370063" lon="8.925507">
        <ele>2232.6</ele>
        <time>2022-09-10T11:57:18Z</time>
      </trkpt>
      <trkpt lat="42.370067" lon="8.925478">
        <ele>2232.0</ele>
        <time>2022-09-10T11:57:27Z</time>
      </trkpt>
      <trkpt lat="42.370068" lon="8.925415">
        <ele>2231.4</ele>
        <time>2022-09-10T11:57:33Z</time>
      </trkpt>
      <trkpt lat="42.370072" lon="8.925405">
        <ele>2231.4</ele>
        <time>2022-09-10T11:57:33Z</time>
      </trkpt>
      <trkpt lat="42.370052" lon="8.92525">
        <ele>2227.4</ele>
        <time>2022-09-10T11:58:51Z</time>
      </trkpt>
      <trkpt lat="42.369985" lon="8.925235">
        <ele>2227.2</ele>
        <time>2022-09-10T11:59:12Z</time>
      </trkpt>
      <trkpt lat="42.369795" lon="8.92528">
        <ele>2225.8</ele>
        <time>2022-09-10T11:59:58Z</time>
      </trkpt>
      <trkpt lat="42.369772" lon="8.925277">
        <ele>2226.2</ele>
        <time>2022-09-10T12:00:02Z</time>
      </trkpt>
      <trkpt lat="42.369727" lon="8.925213">
        <ele>2225.0</ele>
        <time>2022-09-10T12:00:23Z</time>
      </trkpt>
      <trkpt lat="42.36971" lon="8.925217">
        <ele>2225.0</ele>
        <time>2022-09-10T12:00:36Z</time>
      </trkpt>
      <trkpt lat="42.369697" lon="8.92525">
        <ele>2222.8</ele>
        <time>2022-09-10T12:00:46Z</time>
      </trkpt>
      <trkpt lat="42.36965" lon="8.925255">
        <ele>2216.8</ele>
        <time>2022-09-10T12:01:14Z</time>
      </trkpt>
      <trkpt lat="42.369647" lon="8.925253">
        <ele>2216.8</ele>
        <time>2022-09-10T12:01:15Z</time>
      </trkpt>
      <trkpt lat="42.369687" lon="8.925257">
        <ele>2214.2</ele>
        <time>2022-09-10T12:01:34Z</time>
      </trkpt>
      <trkpt lat="42.369692" lon="8.92524">
        <ele>2212.4</ele>
        <time>2022-09-10T12:01:48Z</time>
      </trkpt>
      <trkpt lat="42.369702" lon="8.925237">
        <ele>2211.6</ele>
        <time>2022-09-10T12:01:56Z</time>
      </trkpt>
      <trkpt lat="42.36974" lon="8.925197">
        <ele>2210.6</ele>
        <time>2022-09-10T12:02:04Z</time>
      </trkpt>
      <trkpt lat="42.369747" lon="8.925178">
        <ele>2210.6</ele>
        <time>2022-09-10T12:02:09Z</time>
      </trkpt>
      <trkpt lat="42.369742" lon="8.925103">
        <ele>2210.2</ele>
        <time>2022-09-10T12:02:14Z</time>
      </trkpt>
      <trkpt lat="42.369752" lon="8.925017">
        <ele>2208.2</ele>
        <time>2022-09-10T12:02:19Z</time>
      </trkpt>
      <trkpt lat="42.369743" lon="8.924992">
        <ele>2208.0</ele>
        <time>2022-09-10T12:02:21Z</time>
      </trkpt>
      <trkpt lat="42.36966" lon="8.924998">
        <ele>2208.6</ele>
        <time>2022-09-10T12:02:28Z</time>
      </trkpt>
      <trkpt lat="42.369602" lon="8.92498">
        <ele>2207.6</ele>
        <time>2022-09-10T12:02:35Z</time>
      </trkpt>
      <trkpt lat="42.369557" lon="8.925013">
        <ele>2207.0</ele>
        <time>2022-09-10T12:02:42Z</time>
      </trkpt>
      <trkpt lat="42.369593" lon="8.924938">
        <ele>2204.0</ele>
        <time>2022-09-10T12:03:00Z</time>
      </trkpt>
      <trkpt lat="42.369613" lon="8.924918">
        <ele>2203.4</ele>
        <time>2022-09-10T12:03:04Z</time>
      </trkpt>
      <trkpt lat="42.369632" lon="8.92488">
        <ele>2202.4</ele>
        <time>2022-09-10T12:03:16Z</time>
      </trkpt>
      <trkpt lat="42.369678" lon="8.924813">
        <ele>2202.2</ele>
        <time>2022-09-10T12:03:24Z</time>
      </trkpt>
      <trkpt lat="42.369677" lon="8.924788">
        <ele>2201.8</ele>
        <time>2022-09-10T12:03:28Z</time>
      </trkpt>
      <trkpt lat="42.369708" lon="8.924808">
        <ele>2201.0</ele>
        <time>2022-09-10T12:03:52Z</time>
      </trkpt>
      <trkpt lat="42.369652" lon="8.924783">
        <ele>2198.8</ele>
        <time>2022-09-10T12:04:02Z</time>
      </trkpt>
      <trkpt lat="42.369583" lon="8.924743">
        <ele>2198.2</ele>
        <time>2022-09-10T12:04:09Z</time>
      </trkpt>
      <trkpt lat="42.369533" lon="8.924678">
        <ele>2197.6</ele>
        <time>2022-09-10T12:04:14Z</time>
      </trkpt>
      <trkpt lat="42.369517" lon="8.924703">
        <ele>2197.0</ele>
        <time>2022-09-10T12:04:16Z</time>
      </trkpt>
      <trkpt lat="42.369502" lon="8.924742">
        <ele>2196.0</ele>
        <time>2022-09-10T12:04:21Z</time>
      </trkpt>
      <trkpt lat="42.369357" lon="8.924777">
        <ele>2192.4</ele>
        <time>2022-09-10T12:04:42Z</time>
      </trkpt>
      <trkpt lat="42.36939" lon="8.92474">
        <ele>2191.8</ele>
        <time>2022-09-10T12:04:45Z</time>
      </trkpt>
      <trkpt lat="42.369452" lon="8.924663">
        <ele>2190.6</ele>
        <time>2022-09-10T12:04:51Z</time>
      </trkpt>
      <trkpt lat="42.369485" lon="8.924598">
        <ele>2190.0</ele>
        <time>2022-09-10T12:04:56Z</time>
      </trkpt>
      <trkpt lat="42.369487" lon="8.924567">
        <ele>2189.6</ele>
        <time>2022-09-10T12:05:00Z</time>
      </trkpt>
      <trkpt lat="42.369478" lon="8.924577">
        <ele>2189.2</ele>
        <time>2022-09-10T12:05:03Z</time>
      </trkpt>
      <trkpt lat="42.369477" lon="8.924583">
        <ele>2189.2</ele>
        <time>2022-09-10T12:05:04Z</time>
      </trkpt>
      <trkpt lat="42.369515" lon="8.924562">
        <ele>2187.4</ele>
        <time>2022-09-10T12:05:14Z</time>
      </trkpt>
      <trkpt lat="42.369583" lon="8.924513">
        <ele>2185.2</ele>
        <time>2022-09-10T12:05:26Z</time>
      </trkpt>
      <trkpt lat="42.369587" lon="8.924508">
        <ele>2185.0</ele>
        <time>2022-09-10T12:05:28Z</time>
      </trkpt>
      <trkpt lat="42.369597" lon="8.924387">
        <ele>2183.0</ele>
        <time>2022-09-10T12:05:39Z</time>
      </trkpt>
      <trkpt lat="42.369602" lon="8.924328">
        <ele>2182.2</ele>
        <time>2022-09-10T12:05:44Z</time>
      </trkpt>
      <trkpt lat="42.369562" lon="8.924257">
        <ele>2181.8</ele>
        <time>2022-09-10T12:05:52Z</time>
      </trkpt>
      <trkpt lat="42.369555" lon="8.924182">
        <ele>2179.6</ele>
        <time>2022-09-10T12:06:00Z</time>
      </trkpt>
      <trkpt lat="42.36962" lon="8.924085">
        <ele>2178.8</ele>
        <time>2022-09-10T12:06:12Z</time>
      </trkpt>
      <trkpt lat="42.369612" lon="8.924082">
        <ele>2178.8</ele>
        <time>2022-09-10T12:06:12Z</time>
      </trkpt>
      <trkpt lat="42.369625" lon="8.924112">
        <ele>2178.8</ele>
        <time>2022-09-10T12:06:16Z</time>
      </trkpt>
      <trkpt lat="42.369653" lon="8.924217">
        <ele>2177.4</ele>
        <time>2022-09-10T12:06:29Z</time>
      </trkpt>
      <trkpt lat="42.369653" lon="8.924232">
        <ele>2178.0</ele>
        <time>2022-09-10T12:06:31Z</time>
      </trkpt>
      <trkpt lat="42.369658" lon="8.924277">
        <ele>2173.0</ele>
        <time>2022-09-10T12:06:54Z</time>
      </trkpt>
      <trkpt lat="42.369653" lon="8.924313">
        <ele>2171.0</ele>
        <time>2022-09-10T12:07:09Z</time>
      </trkpt>
      <trkpt lat="42.36961" lon="8.924338">
        <ele>2169.0</ele>
        <time>2022-09-10T12:07:19Z</time>
      </trkpt>
      <trkpt lat="42.369605" lon="8.92434">
        <ele>2169.0</ele>
        <time>2022-09-10T12:07:20Z</time>
      </trkpt>
      <trkpt lat="42.369585" lon="8.924125">
        <ele>2166.6</ele>
        <time>2022-09-10T12:07:32Z</time>
      </trkpt>
      <trkpt lat="42.369567" lon="8.923965">
        <ele>2163.6</ele>
        <time>2022-09-10T12:07:43Z</time>
      </trkpt>
      <trkpt lat="42.36951" lon="8.923913">
        <ele>2162.8</ele>
        <time>2022-09-10T12:07:50Z</time>
      </trkpt>
      <trkpt lat="42.369485" lon="8.923893">
        <ele>2162.0</ele>
        <time>2022-09-10T12:07:53Z</time>
      </trkpt>
      <trkpt lat="42.369447" lon="8.92382">
        <ele>2161.0</ele>
        <time>2022-09-10T12:07:59Z</time>
      </trkpt>
      <trkpt lat="42.369413" lon="8.923718">
        <ele>2158.4</ele>
        <time>2022-09-10T12:08:17Z</time>
      </trkpt>
      <trkpt lat="42.36939" lon="8.923733">
        <ele>2157.2</ele>
        <time>2022-09-10T12:08:29Z</time>
      </trkpt>
      <trkpt lat="42.369378" lon="8.923715">
        <ele>2156.6</ele>
        <time>2022-09-10T12:08:32Z</time>
      </trkpt>
      <trkpt lat="42.369403" lon="8.923733">
        <ele>2155.4</ele>
        <time>2022-09-10T12:08:39Z</time>
      </trkpt>
      <trkpt lat="42.36942" lon="8.923702">
        <ele>2155.2</ele>
        <time>2022-09-10T12:08:45Z</time>
      </trkpt>
      <trkpt lat="42.369438" lon="8.923662">
        <ele>2154.8</ele>
        <time>2022-09-10T12:08:51Z</time>
      </trkpt>
      <trkpt lat="42.369468" lon="8.923668">
        <ele>2152.6</ele>
        <time>2022-09-10T12:08:58Z</time>
      </trkpt>
      <trkpt lat="42.369473" lon="8.923672">
        <ele>2152.4</ele>
        <time>2022-09-10T12:08:59Z</time>
      </trkpt>
      <trkpt lat="42.369505" lon="8.923623">
        <ele>2151.0</ele>
        <time>2022-09-10T12:09:09Z</time>
      </trkpt>
      <trkpt lat="42.369513" lon="8.923593">
        <ele>2151.0</ele>
        <time>2022-09-10T12:09:13Z</time>
      </trkpt>
      <trkpt lat="42.369397" lon="8.923813">
        <ele>2148.0</ele>
        <time>2022-09-10T12:09:33Z</time>
      </trkpt>
      <trkpt lat="42.369328" lon="8.92392">
        <ele>2146.8</ele>
        <time>2022-09-10T12:09:41Z</time>
      </trkpt>
      <trkpt lat="42.369278" lon="8.923927">
        <ele>2146.6</ele>
        <time>2022-09-10T12:09:44Z</time>
      </trkpt>
      <trkpt lat="42.369217" lon="8.92392">
        <ele>2145.6</ele>
        <time>2022-09-10T12:09:48Z</time>
      </trkpt>
      <trkpt lat="42.369213" lon="8.923915">
        <ele>2145.4</ele>
        <time>2022-09-10T12:09:49Z</time>
      </trkpt>
      <trkpt lat="42.369168" lon="8.923907">
        <ele>2144.4</ele>
        <time>2022-09-10T12:09:57Z</time>
      </trkpt>
      <trkpt lat="42.369092" lon="8.924015">
        <ele>2141.6</ele>
        <time>2022-09-10T12:10:14Z</time>
      </trkpt>
      <trkpt lat="42.369065" lon="8.924037">
        <ele>2140.6</ele>
        <time>2022-09-10T12:10:19Z</time>
      </trkpt>
      <trkpt lat="42.369028" lon="8.924047">
        <ele>2139.2</ele>
        <time>2022-09-10T12:10:26Z</time>
      </trkpt>
      <trkpt lat="42.369012" lon="8.92408">
        <ele>2138.6</ele>
        <time>2022-09-10T12:10:31Z</time>
      </trkpt>
      <trkpt lat="42.369" lon="8.924072">
        <ele>2138.2</ele>
        <time>2022-09-10T12:10:34Z</time>
      </trkpt>
      <trkpt lat="42.369035" lon="8.924125">
        <ele>2137.0</ele>
        <time>2022-09-10T12:10:47Z</time>
      </trkpt>
      <trkpt lat="42.369047" lon="8.924143">
        <ele>2136.8</ele>
        <time>2022-09-10T12:10:51Z</time>
      </trkpt>
      <trkpt lat="42.369057" lon="8.924118">
        <ele>2136.4</ele>
        <time>2022-09-10T12:10:57Z</time>
      </trkpt>
      <trkpt lat="42.369035" lon="8.924077">
        <ele>2135.8</ele>
        <time>2022-09-10T12:11:09Z</time>
      </trkpt>
      <trkpt lat="42.36904" lon="8.924142">
        <ele>2132.8</ele>
        <time>2022-09-10T12:11:24Z</time>
      </trkpt>
      <trkpt lat="42.369025" lon="8.924168">
        <ele>2132.4</ele>
        <time>2022-09-10T12:11:27Z</time>
      </trkpt>
      <trkpt lat="42.369057" lon="8.924145">
        <ele>2133.6</ele>
        <time>2022-09-10T12:11:34Z</time>
      </trkpt>
      <trkpt lat="42.369023" lon="8.924157">
        <ele>2131.2</ele>
        <time>2022-09-10T12:11:58Z</time>
      </trkpt>
      <trkpt lat="42.368973" lon="8.924105">
        <ele>2125.6</ele>
        <time>2022-09-10T12:12:19Z</time>
      </trkpt>
      <trkpt lat="42.368997" lon="8.924027">
        <ele>2125.0</ele>
        <time>2022-09-10T12:12:27Z</time>
      </trkpt>
      <trkpt lat="42.368997" lon="8.923975">
        <ele>2124.6</ele>
        <time>2022-09-10T12:12:33Z</time>
      </trkpt>
      <trkpt lat="42.368962" lon="8.923918">
        <ele>2124.4</ele>
        <time>2022-09-10T12:12:39Z</time>
      </trkpt>
      <trkpt lat="42.368913" lon="8.923827">
        <ele>2122.6</ele>
        <time>2022-09-10T12:12:52Z</time>
      </trkpt>
      <trkpt lat="42.368908" lon="8.923813">
        <ele>2122.2</ele>
        <time>2022-09-10T12:12:55Z</time>
      </trkpt>
      <trkpt lat="42.368883" lon="8.923787">
        <ele>2120.4</ele>
        <time>2022-09-10T12:13:11Z</time>
      </trkpt>
      <trkpt lat="42.36885" lon="8.923838">
        <ele>2119.8</ele>
        <time>2022-09-10T12:13:28Z</time>
      </trkpt>
      <trkpt lat="42.36883" lon="8.92383">
        <ele>2118.8</ele>
        <time>2022-09-10T12:13:39Z</time>
      </trkpt>
      <trkpt lat="42.3688" lon="8.923853">
        <ele>2117.6</ele>
        <time>2022-09-10T12:13:49Z</time>
      </trkpt>
      <trkpt lat="42.368778" lon="8.923902">
        <ele>2115.6</ele>
        <time>2022-09-10T12:14:06Z</time>
      </trkpt>
      <trkpt lat="42.368788" lon="8.923963">
        <ele>2115.2</ele>
        <time>2022-09-10T12:14:11Z</time>
      </trkpt>
      <trkpt lat="42.3688" lon="8.923958">
        <ele>2115.2</ele>
        <time>2022-09-10T12:14:13Z</time>
      </trkpt>
      <trkpt lat="42.368815" lon="8.92402">
        <ele>2114.4</ele>
        <time>2022-09-10T12:14:17Z</time>
      </trkpt>
      <trkpt lat="42.368793" lon="8.924007">
        <ele>2113.6</ele>
        <time>2022-09-10T12:14:22Z</time>
      </trkpt>
      <trkpt lat="42.36876" lon="8.923942">
        <ele>2112.6</ele>
        <time>2022-09-10T12:14:41Z</time>
      </trkpt>
      <trkpt lat="42.368728" lon="8.923917">
        <ele>2112.2</ele>
        <time>2022-09-10T12:14:45Z</time>
      </trkpt>
      <trkpt lat="42.368637" lon="8.923793">
        <ele>2110.6</ele>
        <time>2022-09-10T12:14:56Z</time>
      </trkpt>
      <trkpt lat="42.368585" lon="8.923688">
        <ele>2109.8</ele>
        <time>2022-09-10T12:15:04Z</time>
      </trkpt>
      <trkpt lat="42.368562" lon="8.923623">
        <ele>2109.8</ele>
        <time>2022-09-10T12:15:09Z</time>
      </trkpt>
      <trkpt lat="42.368557" lon="8.923578">
        <ele>2110.0</ele>
        <time>2022-09-10T12:15:12Z</time>
      </trkpt>
      <trkpt lat="42.368572" lon="8.92353">
        <ele>2110.0</ele>
        <time>2022-09-10T12:15:17Z</time>
      </trkpt>
      <trkpt lat="42.368583" lon="8.923487">
        <ele>2110.6</ele>
        <time>2022-09-10T12:15:21Z</time>
      </trkpt>
      <trkpt lat="42.368577" lon="8.923432">
        <ele>2110.6</ele>
        <time>2022-09-10T12:15:25Z</time>
      </trkpt>
      <trkpt lat="42.368483" lon="8.923182">
        <ele>2111.4</ele>
        <time>2022-09-10T12:15:45Z</time>
      </trkpt>
      <trkpt lat="42.368475" lon="8.923173">
        <ele>2111.4</ele>
        <time>2022-09-10T12:15:46Z</time>
      </trkpt>
      <trkpt lat="42.368488" lon="8.923105">
        <ele>2111.8</ele>
        <time>2022-09-10T12:15:53Z</time>
      </trkpt>
      <trkpt lat="42.368567" lon="8.923072">
        <ele>2108.4</ele>
        <time>2022-09-10T12:16:07Z</time>
      </trkpt>
      <trkpt lat="42.368593" lon="8.92306">
        <ele>2107.2</ele>
        <time>2022-09-10T12:16:12Z</time>
      </trkpt>
      <trkpt lat="42.368623" lon="8.922993">
        <ele>2105.8</ele>
        <time>2022-09-10T12:16:22Z</time>
      </trkpt>
      <trkpt lat="42.368687" lon="8.922975">
        <ele>2102.8</ele>
        <time>2022-09-10T12:16:33Z</time>
      </trkpt>
      <trkpt lat="42.368693" lon="8.922972">
        <ele>2102.8</ele>
        <time>2022-09-10T12:16:34Z</time>
      </trkpt>
      <trkpt lat="42.368682" lon="8.922925">
        <ele>2101.4</ele>
        <time>2022-09-10T12:16:41Z</time>
      </trkpt>
      <trkpt lat="42.368663" lon="8.92284">
        <ele>2098.4</ele>
        <time>2022-09-10T12:16:49Z</time>
      </trkpt>
      <trkpt lat="42.36864" lon="8.922835">
        <ele>2098.2</ele>
        <time>2022-09-10T12:16:51Z</time>
      </trkpt>
      <trkpt lat="42.368583" lon="8.92284">
        <ele>2098.2</ele>
        <time>2022-09-10T12:17:00Z</time>
      </trkpt>
      <trkpt lat="42.368553" lon="8.922802">
        <ele>2097.6</ele>
        <time>2022-09-10T12:17:10Z</time>
      </trkpt>
      <trkpt lat="42.368542" lon="8.922763">
        <ele>2093.2</ele>
        <time>2022-09-10T12:17:20Z</time>
      </trkpt>
      <trkpt lat="42.368515" lon="8.922712">
        <ele>2089.2</ele>
        <time>2022-09-10T12:17:44Z</time>
      </trkpt>
      <trkpt lat="42.368507" lon="8.922702">
        <ele>2089.0</ele>
        <time>2022-09-10T12:17:48Z</time>
      </trkpt>
      <trkpt lat="42.368477" lon="8.922682">
        <ele>2084.8</ele>
        <time>2022-09-10T12:18:14Z</time>
      </trkpt>
      <trkpt lat="42.368397" lon="8.922535">
        <ele>2080.4</ele>
        <time>2022-09-10T12:18:59Z</time>
      </trkpt>
      <trkpt lat="42.368397" lon="8.922508">
        <ele>2078.8</ele>
        <time>2022-09-10T12:19:09Z</time>
      </trkpt>
      <trkpt lat="42.368387" lon="8.922488">
        <ele>2078.0</ele>
        <time>2022-09-10T12:19:15Z</time>
      </trkpt>
      <trkpt lat="42.368395" lon="8.922423">
        <ele>2076.0</ele>
        <time>2022-09-10T12:19:29Z</time>
      </trkpt>
      <trkpt lat="42.368397" lon="8.922418">
        <ele>2075.6</ele>
        <time>2022-09-10T12:19:30Z</time>
      </trkpt>
      <trkpt lat="42.368343" lon="8.922407">
        <ele>2072.8</ele>
        <time>2022-09-10T12:19:49Z</time>
      </trkpt>
      <trkpt lat="42.36832" lon="8.922403">
        <ele>2070.8</ele>
        <time>2022-09-10T12:19:57Z</time>
      </trkpt>
      <trkpt lat="42.36832" lon="8.92235">
        <ele>2070.0</ele>
        <time>2022-09-10T12:20:03Z</time>
      </trkpt>
      <trkpt lat="42.368293" lon="8.922303">
        <ele>2068.6</ele>
        <time>2022-09-10T12:20:14Z</time>
      </trkpt>
      <trkpt lat="42.368273" lon="8.922262">
        <ele>2066.8</ele>
        <time>2022-09-10T12:20:24Z</time>
      </trkpt>
      <trkpt lat="42.368297" lon="8.922205">
        <ele>2064.4</ele>
        <time>2022-09-10T12:20:35Z</time>
      </trkpt>
      <trkpt lat="42.368277" lon="8.92216">
        <ele>2062.0</ele>
        <time>2022-09-10T12:20:47Z</time>
      </trkpt>
      <trkpt lat="42.368257" lon="8.92215">
        <ele>2061.6</ele>
        <time>2022-09-10T12:20:50Z</time>
      </trkpt>
      <trkpt lat="42.368213" lon="8.922187">
        <ele>2060.2</ele>
        <time>2022-09-10T12:21:05Z</time>
      </trkpt>
      <trkpt lat="42.368212" lon="8.922187">
        <ele>2060.2</ele>
        <time>2022-09-10T12:21:06Z</time>
      </trkpt>
      <trkpt lat="42.368175" lon="8.922157">
        <ele>2060.2</ele>
        <time>2022-09-10T12:21:10Z</time>
      </trkpt>
      <trkpt lat="42.368162" lon="8.922112">
        <ele>2060.0</ele>
        <time>2022-09-10T12:21:14Z</time>
      </trkpt>
      <trkpt lat="42.368152" lon="8.922062">
        <ele>2060.0</ele>
        <time>2022-09-10T12:21:17Z</time>
      </trkpt>
      <trkpt lat="42.368152" lon="8.921953">
        <ele>2059.0</ele>
        <time>2022-09-10T12:21:28Z</time>
      </trkpt>
      <trkpt lat="42.368137" lon="8.921935">
        <ele>2057.8</ele>
        <time>2022-09-10T12:21:39Z</time>
      </trkpt>
      <trkpt lat="42.368172" lon="8.921822">
        <ele>2052.4</ele>
        <time>2022-09-10T12:22:19Z</time>
      </trkpt>
      <trkpt lat="42.368187" lon="8.921823">
        <ele>2052.4</ele>
        <time>2022-09-10T12:22:25Z</time>
      </trkpt>
      <trkpt lat="42.368203" lon="8.921768">
        <ele>2051.6</ele>
        <time>2022-09-10T12:22:36Z</time>
      </trkpt>
      <trkpt lat="42.3682" lon="8.921732">
        <ele>2050.8</ele>
        <time>2022-09-10T12:22:42Z</time>
      </trkpt>
      <trkpt lat="42.36821" lon="8.921707">
        <ele>2050.4</ele>
        <time>2022-09-10T12:22:52Z</time>
      </trkpt>
      <trkpt lat="42.368212" lon="8.92166">
        <ele>2043.0</ele>
        <time>2022-09-10T12:23:33Z</time>
      </trkpt>
      <trkpt lat="42.368192" lon="8.921753">
        <ele>2043.0</ele>
        <time>2022-09-10T12:23:45Z</time>
      </trkpt>
      <trkpt lat="42.368175" lon="8.921807">
        <ele>2043.0</ele>
        <time>2022-09-10T12:23:50Z</time>
      </trkpt>
      <trkpt lat="42.368153" lon="8.9218">
        <ele>2042.8</ele>
        <time>2022-09-10T12:23:58Z</time>
      </trkpt>
      <trkpt lat="42.368143" lon="8.92182">
        <ele>2040.8</ele>
        <time>2022-09-10T12:24:12Z</time>
      </trkpt>
      <trkpt lat="42.368225" lon="8.921862">
        <ele>2038.0</ele>
        <time>2022-09-10T12:24:43Z</time>
      </trkpt>
      <trkpt lat="42.368242" lon="8.921907">
        <ele>2037.4</ele>
        <time>2022-09-10T12:24:56Z</time>
      </trkpt>
      <trkpt lat="42.368237" lon="8.92183">
        <ele>2036.6</ele>
        <time>2022-09-10T12:25:03Z</time>
      </trkpt>
      <trkpt lat="42.368257" lon="8.921777">
        <ele>2035.2</ele>
        <time>2022-09-10T12:25:11Z</time>
      </trkpt>
      <trkpt lat="42.368265" lon="8.921757">
        <ele>2032.8</ele>
        <time>2022-09-10T12:25:25Z</time>
      </trkpt>
      <trkpt lat="42.368235" lon="8.921755">
        <ele>2031.0</ele>
        <time>2022-09-10T12:25:38Z</time>
      </trkpt>
      <trkpt lat="42.368235" lon="8.921745">
        <ele>2030.6</ele>
        <time>2022-09-10T12:25:41Z</time>
      </trkpt>
      <trkpt lat="42.368258" lon="8.921702">
        <ele>2029.6</ele>
        <time>2022-09-10T12:25:49Z</time>
      </trkpt>
      <trkpt lat="42.368263" lon="8.921697">
        <ele>2029.2</ele>
        <time>2022-09-10T12:25:50Z</time>
      </trkpt>
      <trkpt lat="42.368307" lon="8.92169">
        <ele>2028.2</ele>
        <time>2022-09-10T12:25:57Z</time>
      </trkpt>
      <trkpt lat="42.368338" lon="8.92166">
        <ele>2026.6</ele>
        <time>2022-09-10T12:26:04Z</time>
      </trkpt>
      <trkpt lat="42.368382" lon="8.921527">
        <ele>2023.8</ele>
        <time>2022-09-10T12:26:30Z</time>
      </trkpt>
      <trkpt lat="42.36839" lon="8.921513">
        <ele>2023.0</ele>
        <time>2022-09-10T12:26:33Z</time>
      </trkpt>
      <trkpt lat="42.368348" lon="8.92148">
        <ele>2022.0</ele>
        <time>2022-09-10T12:26:40Z</time>
      </trkpt>
      <trkpt lat="42.368277" lon="8.921438">
        <ele>2021.4</ele>
        <time>2022-09-10T12:26:48Z</time>
      </trkpt>
      <trkpt lat="42.36821" lon="8.921373">
        <ele>2019.4</ele>
        <time>2022-09-10T12:26:58Z</time>
      </trkpt>
      <trkpt lat="42.368192" lon="8.921328">
        <ele>2016.6</ele>
        <time>2022-09-10T12:27:10Z</time>
      </trkpt>
      <trkpt lat="42.36817" lon="8.921297">
        <ele>2016.0</ele>
        <time>2022-09-10T12:27:15Z</time>
      </trkpt>
      <trkpt lat="42.368167" lon="8.921283">
        <ele>2015.8</ele>
        <time>2022-09-10T12:27:17Z</time>
      </trkpt>
      <trkpt lat="42.36815" lon="8.921225">
        <ele>2015.2</ele>
        <time>2022-09-10T12:27:22Z</time>
      </trkpt>
      <trkpt lat="42.368137" lon="8.921193">
        <ele>2013.6</ele>
        <time>2022-09-10T12:27:27Z</time>
      </trkpt>
      <trkpt lat="42.368148" lon="8.921158">
        <ele>2013.2</ele>
        <time>2022-09-10T12:27:37Z</time>
      </trkpt>
      <trkpt lat="42.368045" lon="8.921235">
        <ele>2011.0</ele>
        <time>2022-09-10T12:27:58Z</time>
      </trkpt>
      <trkpt lat="42.368037" lon="8.921233">
        <ele>2011.0</ele>
        <time>2022-09-10T12:27:58Z</time>
      </trkpt>
      <trkpt lat="42.367923" lon="8.921222">
        <ele>2009.8</ele>
        <time>2022-09-10T12:28:14Z</time>
      </trkpt>
      <trkpt lat="42.367855" lon="8.92108">
        <ele>2006.6</ele>
        <time>2022-09-10T12:28:29Z</time>
      </trkpt>
      <trkpt lat="42.367855" lon="8.92107">
        <ele>2005.8</ele>
        <time>2022-09-10T12:28:33Z</time>
      </trkpt>
      <trkpt lat="42.367822" lon="8.921022">
        <ele>2005.2</ele>
        <time>2022-09-10T12:28:41Z</time>
      </trkpt>
      <trkpt lat="42.367793" lon="8.921018">
        <ele>2003.4</ele>
        <time>2022-09-10T12:28:50Z</time>
      </trkpt>
      <trkpt lat="42.36777" lon="8.921042">
        <ele>2001.6</ele>
        <time>2022-09-10T12:29:00Z</time>
      </trkpt>
      <trkpt lat="42.367742" lon="8.921045">
        <ele>2000.4</ele>
        <time>2022-09-10T12:29:09Z</time>
      </trkpt>
      <trkpt lat="42.367713" lon="8.921032">
        <ele>1998.8</ele>
        <time>2022-09-10T12:29:17Z</time>
      </trkpt>
      <trkpt lat="42.367672" lon="8.921038">
        <ele>1998.2</ele>
        <time>2022-09-10T12:29:24Z</time>
      </trkpt>
      <trkpt lat="42.367648" lon="8.921013">
        <ele>1996.6</ele>
        <time>2022-09-10T12:29:31Z</time>
      </trkpt>
      <trkpt lat="42.367622" lon="8.921017">
        <ele>1995.2</ele>
        <time>2022-09-10T12:29:42Z</time>
      </trkpt>
      <trkpt lat="42.367575" lon="8.920977">
        <ele>1991.8</ele>
        <time>2022-09-10T12:30:02Z</time>
      </trkpt>
      <trkpt lat="42.36755" lon="8.920968">
        <ele>1990.8</ele>
        <time>2022-09-10T12:30:08Z</time>
      </trkpt>
      <trkpt lat="42.367578" lon="8.920925">
        <ele>1990.2</ele>
        <time>2022-09-10T12:30:12Z</time>
      </trkpt>
      <trkpt lat="42.367605" lon="8.920848">
        <ele>1989.6</ele>
        <time>2022-09-10T12:30:20Z</time>
      </trkpt>
      <trkpt lat="42.367705" lon="8.920768">
        <ele>1986.4</ele>
        <time>2022-09-10T12:30:39Z</time>
      </trkpt>
      <trkpt lat="42.367737" lon="8.920692">
        <ele>1984.6</ele>
        <time>2022-09-10T12:30:50Z</time>
      </trkpt>
      <trkpt lat="42.367792" lon="8.920617">
        <ele>1983.6</ele>
        <time>2022-09-10T12:31:00Z</time>
      </trkpt>
      <trkpt lat="42.367862" lon="8.920558">
        <ele>1982.6</ele>
        <time>2022-09-10T12:31:08Z</time>
      </trkpt>
      <trkpt lat="42.367882" lon="8.920505">
        <ele>1982.0</ele>
        <time>2022-09-10T12:31:12Z</time>
      </trkpt>
      <trkpt lat="42.367882" lon="8.920432">
        <ele>1981.2</ele>
        <time>2022-09-10T12:31:19Z</time>
      </trkpt>
      <trkpt lat="42.367873" lon="8.920355">
        <ele>1980.0</ele>
        <time>2022-09-10T12:31:27Z</time>
      </trkpt>
      <trkpt lat="42.3679" lon="8.920273">
        <ele>1976.8</ele>
        <time>2022-09-10T12:31:53Z</time>
      </trkpt>
      <trkpt lat="42.367905" lon="8.920265">
        <ele>1976.6</ele>
        <time>2022-09-10T12:31:56Z</time>
      </trkpt>
      <trkpt lat="42.367903" lon="8.920207">
        <ele>1976.6</ele>
        <time>2022-09-10T12:32:05Z</time>
      </trkpt>
      <trkpt lat="42.367955" lon="8.92007">
        <ele>1974.6</ele>
        <time>2022-09-10T12:32:27Z</time>
      </trkpt>
      <trkpt lat="42.367953" lon="8.92006">
        <ele>1974.4</ele>
        <time>2022-09-10T12:32:28Z</time>
      </trkpt>
      <trkpt lat="42.367887" lon="8.92006">
        <ele>1973.2</ele>
        <time>2022-09-10T12:32:35Z</time>
      </trkpt>
      <trkpt lat="42.367813" lon="8.91999">
        <ele>1971.0</ele>
        <time>2022-09-10T12:32:46Z</time>
      </trkpt>
      <trkpt lat="42.367757" lon="8.919993">
        <ele>1970.2</ele>
        <time>2022-09-10T12:32:52Z</time>
      </trkpt>
      <trkpt lat="42.367715" lon="8.920003">
        <ele>1969.2</ele>
        <time>2022-09-10T12:32:57Z</time>
      </trkpt>
      <trkpt lat="42.367683" lon="8.919985">
        <ele>1966.2</ele>
        <time>2022-09-10T12:33:14Z</time>
      </trkpt>
      <trkpt lat="42.367648" lon="8.919887">
        <ele>1964.6</ele>
        <time>2022-09-10T12:33:26Z</time>
      </trkpt>
      <trkpt lat="42.36765" lon="8.919875">
        <ele>1964.4</ele>
        <time>2022-09-10T12:33:27Z</time>
      </trkpt>
      <trkpt lat="42.36767" lon="8.919812">
        <ele>1963.2</ele>
        <time>2022-09-10T12:33:34Z</time>
      </trkpt>
      <trkpt lat="42.367673" lon="8.919672">
        <ele>1959.6</ele>
        <time>2022-09-10T12:33:46Z</time>
      </trkpt>
      <trkpt lat="42.367677" lon="8.919585">
        <ele>1959.0</ele>
        <time>2022-09-10T12:33:54Z</time>
      </trkpt>
      <trkpt lat="42.367675" lon="8.919508">
        <ele>1959.0</ele>
        <time>2022-09-10T12:34:02Z</time>
      </trkpt>
      <trkpt lat="42.367653" lon="8.919433">
        <ele>1958.8</ele>
        <time>2022-09-10T12:34:09Z</time>
      </trkpt>
      <trkpt lat="42.367593" lon="8.919395">
        <ele>1958.6</ele>
        <time>2022-09-10T12:34:21Z</time>
      </trkpt>
      <trkpt lat="42.367543" lon="8.919338">
        <ele>1957.8</ele>
        <time>2022-09-10T12:34:26Z</time>
      </trkpt>
      <trkpt lat="42.367505" lon="8.919318">
        <ele>1957.2</ele>
        <time>2022-09-10T12:34:29Z</time>
      </trkpt>
      <trkpt lat="42.367433" lon="8.919345">
        <ele>1957.0</ele>
        <time>2022-09-10T12:34:36Z</time>
      </trkpt>
      <trkpt lat="42.367355" lon="8.919382">
        <ele>1954.6</ele>
        <time>2022-09-10T12:34:44Z</time>
      </trkpt>
      <trkpt lat="42.367297" lon="8.919412">
        <ele>1953.2</ele>
        <time>2022-09-10T12:34:51Z</time>
      </trkpt>
      <trkpt lat="42.367252" lon="8.919415">
        <ele>1951.8</ele>
        <time>2022-09-10T12:34:58Z</time>
      </trkpt>
      <trkpt lat="42.367225" lon="8.919375">
        <ele>1951.4</ele>
        <time>2022-09-10T12:35:03Z</time>
      </trkpt>
      <trkpt lat="42.3672" lon="8.919288">
        <ele>1951.6</ele>
        <time>2022-09-10T12:35:12Z</time>
      </trkpt>
      <trkpt lat="42.367165" lon="8.919295">
        <ele>1952.0</ele>
        <time>2022-09-10T12:35:17Z</time>
      </trkpt>
      <trkpt lat="42.367145" lon="8.919298">
        <ele>1951.0</ele>
        <time>2022-09-10T12:35:20Z</time>
      </trkpt>
      <trkpt lat="42.367132" lon="8.919268">
        <ele>1946.8</ele>
        <time>2022-09-10T12:35:24Z</time>
      </trkpt>
      <trkpt lat="42.367127" lon="8.919233">
        <ele>1943.6</ele>
        <time>2022-09-10T12:35:28Z</time>
      </trkpt>
      <trkpt lat="42.367152" lon="8.919173">
        <ele>1942.0</ele>
        <time>2022-09-10T12:35:35Z</time>
      </trkpt>
      <trkpt lat="42.367155" lon="8.919165">
        <ele>1942.6</ele>
        <time>2022-09-10T12:35:36Z</time>
      </trkpt>
      <trkpt lat="42.367168" lon="8.919118">
        <ele>1944.0</ele>
        <time>2022-09-10T12:35:44Z</time>
      </trkpt>
      <trkpt lat="42.367182" lon="8.91904">
        <ele>1942.4</ele>
        <time>2022-09-10T12:35:56Z</time>
      </trkpt>
      <trkpt lat="42.367213" lon="8.91893">
        <ele>1940.0</ele>
        <time>2022-09-10T12:36:07Z</time>
      </trkpt>
      <trkpt lat="42.36732" lon="8.918635">
        <ele>1935.8</ele>
        <time>2022-09-10T12:36:38Z</time>
      </trkpt>
      <trkpt lat="42.367312" lon="8.91857">
        <ele>1934.8</ele>
        <time>2022-09-10T12:36:45Z</time>
      </trkpt>
      <trkpt lat="42.367292" lon="8.91854">
        <ele>1934.0</ele>
        <time>2022-09-10T12:36:50Z</time>
      </trkpt>
      <trkpt lat="42.367243" lon="8.91857">
        <ele>1932.8</ele>
        <time>2022-09-10T12:36:56Z</time>
      </trkpt>
      <trkpt lat="42.367175" lon="8.918533">
        <ele>1930.8</ele>
        <time>2022-09-10T12:37:06Z</time>
      </trkpt>
      <trkpt lat="42.367045" lon="8.918602">
        <ele>1923.4</ele>
        <time>2022-09-10T12:37:36Z</time>
      </trkpt>
      <trkpt lat="42.366992" lon="8.9186">
        <ele>1922.4</ele>
        <time>2022-09-10T12:37:42Z</time>
      </trkpt>
      <trkpt lat="42.366925" lon="8.918595">
        <ele>1921.8</ele>
        <time>2022-09-10T12:37:48Z</time>
      </trkpt>
      <trkpt lat="42.366843" lon="8.918633">
        <ele>1919.2</ele>
        <time>2022-09-10T12:38:02Z</time>
      </trkpt>
      <trkpt lat="42.366752" lon="8.918697">
        <ele>1915.8</ele>
        <time>2022-09-10T12:38:21Z</time>
      </trkpt>
      <trkpt lat="42.366712" lon="8.9187">
        <ele>1913.8</ele>
        <time>2022-09-10T12:38:28Z</time>
      </trkpt>
      <trkpt lat="42.366668" lon="8.918703">
        <ele>1912.4</ele>
        <time>2022-09-10T12:38:36Z</time>
      </trkpt>
      <trkpt lat="42.366623" lon="8.918717">
        <ele>1910.2</ele>
        <time>2022-09-10T12:38:45Z</time>
      </trkpt>
      <trkpt lat="42.366607" lon="8.918672">
        <ele>1907.6</ele>
        <time>2022-09-10T12:38:52Z</time>
      </trkpt>
      <trkpt lat="42.36659" lon="8.918618">
        <ele>1906.4</ele>
        <time>2022-09-10T12:39:00Z</time>
      </trkpt>
      <trkpt lat="42.36655" lon="8.918582">
        <ele>1904.8</ele>
        <time>2022-09-10T12:39:09Z</time>
      </trkpt>
      <trkpt lat="42.366527" lon="8.91855">
        <ele>1904.2</ele>
        <time>2022-09-10T12:39:18Z</time>
      </trkpt>
      <trkpt lat="42.366522" lon="8.91853">
        <ele>1903.6</ele>
        <time>2022-09-10T12:39:22Z</time>
      </trkpt>
      <trkpt lat="42.366515" lon="8.918493">
        <ele>1902.8</ele>
        <time>2022-09-10T12:39:28Z</time>
      </trkpt>
      <trkpt lat="42.3665" lon="8.918452">
        <ele>1901.8</ele>
        <time>2022-09-10T12:39:34Z</time>
      </trkpt>
      <trkpt lat="42.366535" lon="8.918382">
        <ele>1900.4</ele>
        <time>2022-09-10T12:39:47Z</time>
      </trkpt>
      <trkpt lat="42.366588" lon="8.918332">
        <ele>1900.2</ele>
        <time>2022-09-10T12:39:56Z</time>
      </trkpt>
      <trkpt lat="42.366597" lon="8.918297">
        <ele>1899.0</ele>
        <time>2022-09-10T12:40:08Z</time>
      </trkpt>
      <trkpt lat="42.36658" lon="8.918277">
        <ele>1898.2</ele>
        <time>2022-09-10T12:40:15Z</time>
      </trkpt>
      <trkpt lat="42.366507" lon="8.918268">
        <ele>1897.0</ele>
        <time>2022-09-10T12:40:35Z</time>
      </trkpt>
      <trkpt lat="42.366483" lon="8.918288">
        <ele>1895.6</ele>
        <time>2022-09-10T12:40:46Z</time>
      </trkpt>
      <trkpt lat="42.36647" lon="8.9182">
        <ele>1892.8</ele>
        <time>2022-09-10T12:41:03Z</time>
      </trkpt>
      <trkpt lat="42.366438" lon="8.918127">
        <ele>1889.8</ele>
        <time>2022-09-10T12:41:20Z</time>
      </trkpt>
      <trkpt lat="42.366432" lon="8.918123">
        <ele>1889.2</ele>
        <time>2022-09-10T12:41:22Z</time>
      </trkpt>
      <trkpt lat="42.366382" lon="8.918125">
        <ele>1888.8</ele>
        <time>2022-09-10T12:41:32Z</time>
      </trkpt>
      <trkpt lat="42.366353" lon="8.918158">
        <ele>1888.4</ele>
        <time>2022-09-10T12:41:40Z</time>
      </trkpt>
      <trkpt lat="42.36632" lon="8.91809">
        <ele>1887.0</ele>
        <time>2022-09-10T12:41:53Z</time>
      </trkpt>
      <trkpt lat="42.366298" lon="8.918088">
        <ele>1885.6</ele>
        <time>2022-09-10T12:41:58Z</time>
      </trkpt>
      <trkpt lat="42.366275" lon="8.9181">
        <ele>1885.0</ele>
        <time>2022-09-10T12:42:04Z</time>
      </trkpt>
      <trkpt lat="42.36624" lon="8.918078">
        <ele>1879.6</ele>
        <time>2022-09-10T12:42:22Z</time>
      </trkpt>
      <trkpt lat="42.366187" lon="8.917978">
        <ele>1873.0</ele>
        <time>2022-09-10T12:43:02Z</time>
      </trkpt>
      <trkpt lat="42.366145" lon="8.917848">
        <ele>1870.8</ele>
        <time>2022-09-10T12:43:16Z</time>
      </trkpt>
      <trkpt lat="42.366093" lon="8.917882">
        <ele>1869.2</ele>
        <time>2022-09-10T12:43:30Z</time>
      </trkpt>
      <trkpt lat="42.366063" lon="8.917873">
        <ele>1868.8</ele>
        <time>2022-09-10T12:43:34Z</time>
      </trkpt>
      <trkpt lat="42.366045" lon="8.917805">
        <ele>1867.4</ele>
        <time>2022-09-10T12:43:41Z</time>
      </trkpt>
      <trkpt lat="42.366042" lon="8.91777">
        <ele>1867.4</ele>
        <time>2022-09-10T12:43:46Z</time>
      </trkpt>
      <trkpt lat="42.365997" lon="8.91769">
        <ele>1866.2</ele>
        <time>2022-09-10T12:43:58Z</time>
      </trkpt>
      <trkpt lat="42.36597" lon="8.917568">
        <ele>1863.8</ele>
        <time>2022-09-10T12:44:17Z</time>
      </trkpt>
      <trkpt lat="42.365967" lon="8.917548">
        <ele>1863.6</ele>
        <time>2022-09-10T12:44:20Z</time>
      </trkpt>
      <trkpt lat="42.365988" lon="8.917427">
        <ele>1863.6</ele>
        <time>2022-09-10T12:44:35Z</time>
      </trkpt>
      <trkpt lat="42.365968" lon="8.91735">
        <ele>1864.2</ele>
        <time>2022-09-10T12:44:43Z</time>
      </trkpt>
      <trkpt lat="42.365952" lon="8.917337">
        <ele>1864.2</ele>
        <time>2022-09-10T12:44:46Z</time>
      </trkpt>
      <trkpt lat="42.365948" lon="8.917337">
        <ele>1864.2</ele>
        <time>2022-09-10T12:44:47Z</time>
      </trkpt>
      <trkpt lat="42.365917" lon="8.917405">
        <ele>1861.8</ele>
        <time>2022-09-10T12:45:08Z</time>
      </trkpt>
      <trkpt lat="42.365888" lon="8.917413">
        <ele>1860.6</ele>
        <time>2022-09-10T12:45:16Z</time>
      </trkpt>
      <trkpt lat="42.36586" lon="8.917378">
        <ele>1859.0</ele>
        <time>2022-09-10T12:45:22Z</time>
      </trkpt>
      <trkpt lat="42.36585" lon="8.917298">
        <ele>1857.6</ele>
        <time>2022-09-10T12:45:30Z</time>
      </trkpt>
      <trkpt lat="42.365822" lon="8.917225">
        <ele>1857.0</ele>
        <time>2022-09-10T12:45:41Z</time>
      </trkpt>
      <trkpt lat="42.365783" lon="8.917062">
        <ele>1855.4</ele>
        <time>2022-09-10T12:46:06Z</time>
      </trkpt>
      <trkpt lat="42.3657" lon="8.917027">
        <ele>1853.8</ele>
        <time>2022-09-10T12:46:24Z</time>
      </trkpt>
      <trkpt lat="42.365615" lon="8.91694">
        <ele>1852.0</ele>
        <time>2022-09-10T12:47:02Z</time>
      </trkpt>
      <trkpt lat="42.365595" lon="8.916863">
        <ele>1848.6</ele>
        <time>2022-09-10T12:47:14Z</time>
      </trkpt>
      <trkpt lat="42.36558" lon="8.91681">
        <ele>1847.2</ele>
        <time>2022-09-10T12:47:21Z</time>
      </trkpt>
      <trkpt lat="42.365562" lon="8.91676">
        <ele>1846.4</ele>
        <time>2022-09-10T12:47:28Z</time>
      </trkpt>
      <trkpt lat="42.365543" lon="8.916683">
        <ele>1844.8</ele>
        <time>2022-09-10T12:47:38Z</time>
      </trkpt>
      <trkpt lat="42.365527" lon="8.916645">
        <ele>1844.0</ele>
        <time>2022-09-10T12:47:43Z</time>
      </trkpt>
      <trkpt lat="42.365503" lon="8.916658">
        <ele>1843.4</ele>
        <time>2022-09-10T12:47:47Z</time>
      </trkpt>
      <trkpt lat="42.365492" lon="8.916682">
        <ele>1843.4</ele>
        <time>2022-09-10T12:47:51Z</time>
      </trkpt>
      <trkpt lat="42.365478" lon="8.916723">
        <ele>1842.8</ele>
        <time>2022-09-10T12:47:58Z</time>
      </trkpt>
      <trkpt lat="42.365487" lon="8.91668">
        <ele>1841.0</ele>
        <time>2022-09-10T12:48:30Z</time>
      </trkpt>
      <trkpt lat="42.365473" lon="8.91668">
        <ele>1840.6</ele>
        <time>2022-09-10T12:48:43Z</time>
      </trkpt>
      <trkpt lat="42.365452" lon="8.91666">
        <ele>1838.4</ele>
        <time>2022-09-10T12:48:57Z</time>
      </trkpt>
      <trkpt lat="42.365448" lon="8.91667">
        <ele>1838.0</ele>
        <time>2022-09-10T12:49:01Z</time>
      </trkpt>
      <trkpt lat="42.36544" lon="8.916685">
        <ele>1837.8</ele>
        <time>2022-09-10T12:49:04Z</time>
      </trkpt>
      <trkpt lat="42.365397" lon="8.916718">
        <ele>1837.0</ele>
        <time>2022-09-10T12:49:10Z</time>
      </trkpt>
      <trkpt lat="42.365372" lon="8.916727">
        <ele>1836.4</ele>
        <time>2022-09-10T12:49:14Z</time>
      </trkpt>
      <trkpt lat="42.365337" lon="8.91668">
        <ele>1835.2</ele>
        <time>2022-09-10T12:49:20Z</time>
      </trkpt>
      <trkpt lat="42.36525" lon="8.916548">
        <ele>1830.8</ele>
        <time>2022-09-10T12:49:37Z</time>
      </trkpt>
      <trkpt lat="42.365247" lon="8.916548">
        <ele>1830.8</ele>
        <time>2022-09-10T12:49:38Z</time>
      </trkpt>
      <trkpt lat="42.365232" lon="8.916532">
        <ele>1830.2</ele>
        <time>2022-09-10T12:49:47Z</time>
      </trkpt>
      <trkpt lat="42.365237" lon="8.916492">
        <ele>1827.8</ele>
        <time>2022-09-10T12:49:58Z</time>
      </trkpt>
      <trkpt lat="42.365218" lon="8.91633">
        <ele>1821.8</ele>
        <time>2022-09-10T12:50:29Z</time>
      </trkpt>
      <trkpt lat="42.365217" lon="8.916325">
        <ele>1821.8</ele>
        <time>2022-09-10T12:50:30Z</time>
      </trkpt>
      <trkpt lat="42.36521" lon="8.91631">
        <ele>1820.2</ele>
        <time>2022-09-10T12:50:39Z</time>
      </trkpt>
      <trkpt lat="42.365173" lon="8.916292">
        <ele>1819.4</ele>
        <time>2022-09-10T12:50:46Z</time>
      </trkpt>
      <trkpt lat="42.365168" lon="8.91626">
        <ele>1817.4</ele>
        <time>2022-09-10T12:50:51Z</time>
      </trkpt>
      <trkpt lat="42.365175" lon="8.916148">
        <ele>1813.2</ele>
        <time>2022-09-10T12:51:14Z</time>
      </trkpt>
      <trkpt lat="42.365188" lon="8.916118">
        <ele>1811.4</ele>
        <time>2022-09-10T12:51:24Z</time>
      </trkpt>
      <trkpt lat="42.365195" lon="8.916117">
        <ele>1811.2</ele>
        <time>2022-09-10T12:51:27Z</time>
      </trkpt>
      <trkpt lat="42.365202" lon="8.916095">
        <ele>1809.0</ele>
        <time>2022-09-10T12:51:42Z</time>
      </trkpt>
      <trkpt lat="42.365217" lon="8.916082">
        <ele>1807.0</ele>
        <time>2022-09-10T12:51:54Z</time>
      </trkpt>
      <trkpt lat="42.36522" lon="8.916082">
        <ele>1807.0</ele>
        <time>2022-09-10T12:51:54Z</time>
      </trkpt>
      <trkpt lat="42.365185" lon="8.916077">
        <ele>1806.2</ele>
        <time>2022-09-10T12:52:03Z</time>
      </trkpt>
      <trkpt lat="42.36513" lon="8.916065">
        <ele>1805.2</ele>
        <time>2022-09-10T12:52:09Z</time>
      </trkpt>
      <trkpt lat="42.365055" lon="8.916055">
        <ele>1804.8</ele>
        <time>2022-09-10T12:52:15Z</time>
      </trkpt>
      <trkpt lat="42.364952" lon="8.916027">
        <ele>1802.2</ele>
        <time>2022-09-10T12:52:26Z</time>
      </trkpt>
      <trkpt lat="42.364837" lon="8.916025">
        <ele>1801.6</ele>
        <time>2022-09-10T12:52:34Z</time>
      </trkpt>
      <trkpt lat="42.364845" lon="8.915957">
        <ele>1800.2</ele>
        <time>2022-09-10T12:52:38Z</time>
      </trkpt>
      <trkpt lat="42.364878" lon="8.915837">
        <ele>1800.0</ele>
        <time>2022-09-10T12:52:46Z</time>
      </trkpt>
      <trkpt lat="42.364833" lon="8.91582">
        <ele>1798.8</ele>
        <time>2022-09-10T12:53:08Z</time>
      </trkpt>
      <trkpt lat="42.364865" lon="8.915768">
        <ele>1798.4</ele>
        <time>2022-09-10T12:53:16Z</time>
      </trkpt>
      <trkpt lat="42.364885" lon="8.915758">
        <ele>1798.2</ele>
        <time>2022-09-10T12:53:18Z</time>
      </trkpt>
      <trkpt lat="42.364893" lon="8.91562">
        <ele>1798.2</ele>
        <time>2022-09-10T12:53:26Z</time>
      </trkpt>
      <trkpt lat="42.364892" lon="8.915598">
        <ele>1798.2</ele>
        <time>2022-09-10T12:53:26Z</time>
      </trkpt>
      <trkpt lat="42.36485" lon="8.91545">
        <ele>1798.4</ele>
        <time>2022-09-10T12:53:33Z</time>
      </trkpt>
      <trkpt lat="42.3648" lon="8.91538">
        <ele>1797.0</ele>
        <time>2022-09-10T12:53:42Z</time>
      </trkpt>
      <trkpt lat="42.364773" lon="8.915368">
        <ele>1796.6</ele>
        <time>2022-09-10T12:53:46Z</time>
      </trkpt>
      <trkpt lat="42.364773" lon="8.915353">
        <ele>1795.8</ele>
        <time>2022-09-10T12:53:58Z</time>
      </trkpt>
      <trkpt lat="42.364788" lon="8.915328">
        <ele>1794.8</ele>
        <time>2022-09-10T12:54:15Z</time>
      </trkpt>
      <trkpt lat="42.364777" lon="8.915305">
        <ele>1794.8</ele>
        <time>2022-09-10T12:54:22Z</time>
      </trkpt>
      <trkpt lat="42.364773" lon="8.915303">
        <ele>1795.6</ele>
        <time>2022-09-10T12:54:25Z</time>
      </trkpt>
      <trkpt lat="42.364772" lon="8.915285">
        <ele>1796.2</ele>
        <time>2022-09-10T12:54:29Z</time>
      </trkpt>
      <trkpt lat="42.364797" lon="8.915245">
        <ele>1790.2</ele>
        <time>2022-09-10T12:54:37Z</time>
      </trkpt>
      <trkpt lat="42.364842" lon="8.915203">
        <ele>1786.4</ele>
        <time>2022-09-10T12:54:48Z</time>
      </trkpt>
      <trkpt lat="42.364887" lon="8.915197">
        <ele>1788.0</ele>
        <time>2022-09-10T12:54:58Z</time>
      </trkpt>
      <trkpt lat="42.364968" lon="8.915255">
        <ele>1789.4</ele>
        <time>2022-09-10T12:55:20Z</time>
      </trkpt>
      <trkpt lat="42.365003" lon="8.915242">
        <ele>1789.4</ele>
        <time>2022-09-10T12:55:26Z</time>
      </trkpt>
      <trkpt lat="42.365007" lon="8.915222">
        <ele>1789.2</ele>
        <time>2022-09-10T12:55:29Z</time>
      </trkpt>
      <trkpt lat="42.365018" lon="8.91518">
        <ele>1788.6</ele>
        <time>2022-09-10T12:55:37Z</time>
      </trkpt>
      <trkpt lat="42.365008" lon="8.915137">
        <ele>1785.8</ele>
        <time>2022-09-10T12:55:52Z</time>
      </trkpt>
      <trkpt lat="42.36492" lon="8.915">
        <ele>1777.8</ele>
        <time>2022-09-10T12:56:44Z</time>
      </trkpt>
      <trkpt lat="42.364892" lon="8.914925">
        <ele>1776.8</ele>
        <time>2022-09-10T12:56:52Z</time>
      </trkpt>
      <trkpt lat="42.364858" lon="8.914898">
        <ele>1776.0</ele>
        <time>2022-09-10T12:56:55Z</time>
      </trkpt>
      <trkpt lat="42.364807" lon="8.914882">
        <ele>1775.8</ele>
        <time>2022-09-10T12:57:00Z</time>
      </trkpt>
      <trkpt lat="42.364792" lon="8.914895">
        <ele>1775.2</ele>
        <time>2022-09-10T12:57:03Z</time>
      </trkpt>
      <trkpt lat="42.364783" lon="8.914922">
        <ele>1775.4</ele>
        <time>2022-09-10T12:57:07Z</time>
      </trkpt>
      <trkpt lat="42.36475" lon="8.914962">
        <ele>1775.0</ele>
        <time>2022-09-10T12:57:15Z</time>
      </trkpt>
      <trkpt lat="42.36468" lon="8.91493">
        <ele>1772.8</ele>
        <time>2022-09-10T12:57:24Z</time>
      </trkpt>
      <trkpt lat="42.364628" lon="8.914952">
        <ele>1771.6</ele>
        <time>2022-09-10T12:57:32Z</time>
      </trkpt>
      <trkpt lat="42.364615" lon="8.914978">
        <ele>1771.0</ele>
        <time>2022-09-10T12:57:37Z</time>
      </trkpt>
      <trkpt lat="42.364595" lon="8.914973">
        <ele>1771.0</ele>
        <time>2022-09-10T12:57:45Z</time>
      </trkpt>
      <trkpt lat="42.364553" lon="8.914947">
        <ele>1767.2</ele>
        <time>2022-09-10T12:57:58Z</time>
      </trkpt>
      <trkpt lat="42.36455" lon="8.914867">
        <ele>1762.0</ele>
        <time>2022-09-10T12:58:18Z</time>
      </trkpt>
      <trkpt lat="42.364517" lon="8.914775">
        <ele>1760.2</ele>
        <time>2022-09-10T12:58:32Z</time>
      </trkpt>
      <trkpt lat="42.364513" lon="8.914755">
        <ele>1759.8</ele>
        <time>2022-09-10T12:58:35Z</time>
      </trkpt>
      <trkpt lat="42.364477" lon="8.914713">
        <ele>1758.0</ele>
        <time>2022-09-10T12:58:45Z</time>
      </trkpt>
      <trkpt lat="42.364453" lon="8.914703">
        <ele>1756.6</ele>
        <time>2022-09-10T12:58:52Z</time>
      </trkpt>
      <trkpt lat="42.364435" lon="8.91472">
        <ele>1754.6</ele>
        <time>2022-09-10T12:59:00Z</time>
      </trkpt>
      <trkpt lat="42.364413" lon="8.914768">
        <ele>1754.8</ele>
        <time>2022-09-10T12:59:06Z</time>
      </trkpt>
      <trkpt lat="42.36441" lon="8.914778">
        <ele>1754.8</ele>
        <time>2022-09-10T12:59:07Z</time>
      </trkpt>
      <trkpt lat="42.36435" lon="8.914698">
        <ele>1752.4</ele>
        <time>2022-09-10T12:59:24Z</time>
      </trkpt>
      <trkpt lat="42.364332" lon="8.914673">
        <ele>1750.8</ele>
        <time>2022-09-10T12:59:31Z</time>
      </trkpt>
      <trkpt lat="42.364322" lon="8.914687">
        <ele>1750.0</ele>
        <time>2022-09-10T12:59:44Z</time>
      </trkpt>
      <trkpt lat="42.364322" lon="8.914685">
        <ele>1749.0</ele>
        <time>2022-09-10T12:59:49Z</time>
      </trkpt>
      <trkpt lat="42.364238" lon="8.914667">
        <ele>1746.4</ele>
        <time>2022-09-10T13:00:03Z</time>
      </trkpt>
      <trkpt lat="42.363908" lon="8.914498">
        <ele>1739.6</ele>
        <time>2022-09-10T13:00:38Z</time>
      </trkpt>
      <trkpt lat="42.363855" lon="8.914487">
        <ele>1738.2</ele>
        <time>2022-09-10T13:00:46Z</time>
      </trkpt>
      <trkpt lat="42.3638" lon="8.914467">
        <ele>1736.6</ele>
        <time>2022-09-10T13:00:52Z</time>
      </trkpt>
      <trkpt lat="42.363768" lon="8.914382">
        <ele>1734.2</ele>
        <time>2022-09-10T13:01:03Z</time>
      </trkpt>
      <trkpt lat="42.363697" lon="8.914162">
        <ele>1731.6</ele>
        <time>2022-09-10T13:01:32Z</time>
      </trkpt>
      <trkpt lat="42.363698" lon="8.914128">
        <ele>1731.0</ele>
        <time>2022-09-10T13:01:39Z</time>
      </trkpt>
      <trkpt lat="42.363663" lon="8.913998">
        <ele>1729.8</ele>
        <time>2022-09-10T13:01:53Z</time>
      </trkpt>
      <trkpt lat="42.363638" lon="8.913942">
        <ele>1728.4</ele>
        <time>2022-09-10T13:02:02Z</time>
      </trkpt>
      <trkpt lat="42.363622" lon="8.913913">
        <ele>1727.6</ele>
        <time>2022-09-10T13:02:11Z</time>
      </trkpt>
      <trkpt lat="42.363607" lon="8.913907">
        <ele>1727.2</ele>
        <time>2022-09-10T13:02:16Z</time>
      </trkpt>
      <trkpt lat="42.363588" lon="8.913947">
        <ele>1727.0</ele>
        <time>2022-09-10T13:02:25Z</time>
      </trkpt>
      <trkpt lat="42.36353" lon="8.914067">
        <ele>1726.6</ele>
        <time>2022-09-10T13:02:37Z</time>
      </trkpt>
      <trkpt lat="42.363462" lon="8.914148">
        <ele>1724.2</ele>
        <time>2022-09-10T13:02:51Z</time>
      </trkpt>
      <trkpt lat="42.363443" lon="8.914068">
        <ele>1720.8</ele>
        <time>2022-09-10T13:03:06Z</time>
      </trkpt>
      <trkpt lat="42.36337" lon="8.913968">
        <ele>1720.4</ele>
        <time>2022-09-10T13:03:22Z</time>
      </trkpt>
      <trkpt lat="42.363367" lon="8.913965">
        <ele>1720.2</ele>
        <time>2022-09-10T13:03:24Z</time>
      </trkpt>
      <trkpt lat="42.363262" lon="8.913842">
        <ele>1720.4</ele>
        <time>2022-09-10T13:03:47Z</time>
      </trkpt>
      <trkpt lat="42.36321" lon="8.91382">
        <ele>1719.4</ele>
        <time>2022-09-10T13:03:53Z</time>
      </trkpt>
      <trkpt lat="42.363188" lon="8.913823">
        <ele>1719.6</ele>
        <time>2022-09-10T13:03:55Z</time>
      </trkpt>
      <trkpt lat="42.363153" lon="8.913793">
        <ele>1718.6</ele>
        <time>2022-09-10T13:04:01Z</time>
      </trkpt>
      <trkpt lat="42.363113" lon="8.913727">
        <ele>1717.2</ele>
        <time>2022-09-10T13:04:12Z</time>
      </trkpt>
      <trkpt lat="42.363072" lon="8.91368">
        <ele>1717.2</ele>
        <time>2022-09-10T13:04:21Z</time>
      </trkpt>
      <trkpt lat="42.363012" lon="8.913548">
        <ele>1714.0</ele>
        <time>2022-09-10T13:04:42Z</time>
      </trkpt>
      <trkpt lat="42.362985" lon="8.913507">
        <ele>1712.4</ele>
        <time>2022-09-10T13:04:51Z</time>
      </trkpt>
      <trkpt lat="42.36297" lon="8.913423">
        <ele>1711.0</ele>
        <time>2022-09-10T13:05:00Z</time>
      </trkpt>
      <trkpt lat="42.362965" lon="8.913367">
        <ele>1711.8</ele>
        <time>2022-09-10T13:05:07Z</time>
      </trkpt>
      <trkpt lat="42.362963" lon="8.91333">
        <ele>1713.0</ele>
        <time>2022-09-10T13:05:11Z</time>
      </trkpt>
      <trkpt lat="42.362908" lon="8.913213">
        <ele>1712.8</ele>
        <time>2022-09-10T13:05:25Z</time>
      </trkpt>
      <trkpt lat="42.362893" lon="8.91316">
        <ele>1711.6</ele>
        <time>2022-09-10T13:05:31Z</time>
      </trkpt>
      <trkpt lat="42.362863" lon="8.913098">
        <ele>1710.6</ele>
        <time>2022-09-10T13:05:43Z</time>
      </trkpt>
      <trkpt lat="42.362828" lon="8.913058">
        <ele>1706.4</ele>
        <time>2022-09-10T13:06:06Z</time>
      </trkpt>
      <trkpt lat="42.362795" lon="8.913022">
        <ele>1703.8</ele>
        <time>2022-09-10T13:06:23Z</time>
      </trkpt>
      <trkpt lat="42.362792" lon="8.91302">
        <ele>1703.8</ele>
        <time>2022-09-10T13:06:23Z</time>
      </trkpt>
      <trkpt lat="42.362768" lon="8.912992">
        <ele>1702.0</ele>
        <time>2022-09-10T13:06:32Z</time>
      </trkpt>
      <trkpt lat="42.362723" lon="8.912905">
        <ele>1699.2</ele>
        <time>2022-09-10T13:06:45Z</time>
      </trkpt>
      <trkpt lat="42.362647" lon="8.91278">
        <ele>1701.2</ele>
        <time>2022-09-10T13:07:05Z</time>
      </trkpt>
      <trkpt lat="42.362622" lon="8.912748">
        <ele>1700.2</ele>
        <time>2022-09-10T13:07:10Z</time>
      </trkpt>
      <trkpt lat="42.36255" lon="8.912605">
        <ele>1697.2</ele>
        <time>2022-09-10T13:07:40Z</time>
      </trkpt>
      <trkpt lat="42.362532" lon="8.912588">
        <ele>1697.2</ele>
        <time>2022-09-10T13:07:43Z</time>
      </trkpt>
      <trkpt lat="42.362463" lon="8.912605">
        <ele>1695.8</ele>
        <time>2022-09-10T13:08:04Z</time>
      </trkpt>
      <trkpt lat="42.362432" lon="8.912608">
        <ele>1693.8</ele>
        <time>2022-09-10T13:08:16Z</time>
      </trkpt>
      <trkpt lat="42.3624" lon="8.91256">
        <ele>1692.0</ele>
        <time>2022-09-10T13:08:31Z</time>
      </trkpt>
      <trkpt lat="42.362388" lon="8.912477">
        <ele>1692.6</ele>
        <time>2022-09-10T13:08:43Z</time>
      </trkpt>
      <trkpt lat="42.36238" lon="8.912435">
        <ele>1693.6</ele>
        <time>2022-09-10T13:08:48Z</time>
      </trkpt>
      <trkpt lat="42.362332" lon="8.912403">
        <ele>1691.2</ele>
        <time>2022-09-10T13:08:56Z</time>
      </trkpt>
      <trkpt lat="42.36231" lon="8.912382">
        <ele>1690.0</ele>
        <time>2022-09-10T13:09:01Z</time>
      </trkpt>
      <trkpt lat="42.362332" lon="8.912342">
        <ele>1689.4</ele>
        <time>2022-09-10T13:09:09Z</time>
      </trkpt>
      <trkpt lat="42.36234" lon="8.9123">
        <ele>1688.6</ele>
        <time>2022-09-10T13:09:17Z</time>
      </trkpt>
      <trkpt lat="42.362363" lon="8.912223">
        <ele>1686.6</ele>
        <time>2022-09-10T13:09:34Z</time>
      </trkpt>
      <trkpt lat="42.362365" lon="8.912188">
        <ele>1685.0</ele>
        <time>2022-09-10T13:09:42Z</time>
      </trkpt>
      <trkpt lat="42.362378" lon="8.912125">
        <ele>1683.8</ele>
        <time>2022-09-10T13:10:00Z</time>
      </trkpt>
      <trkpt lat="42.362407" lon="8.912092">
        <ele>1682.2</ele>
        <time>2022-09-10T13:10:12Z</time>
      </trkpt>
      <trkpt lat="42.3624" lon="8.912085">
        <ele>1682.2</ele>
        <time>2022-09-10T13:10:13Z</time>
      </trkpt>
      <trkpt lat="42.362302" lon="8.911982">
        <ele>1680.4</ele>
        <time>2022-09-10T13:10:34Z</time>
      </trkpt>
      <trkpt lat="42.362247" lon="8.911882">
        <ele>1678.6</ele>
        <time>2022-09-10T13:10:44Z</time>
      </trkpt>
      <trkpt lat="42.362207" lon="8.911822">
        <ele>1677.2</ele>
        <time>2022-09-10T13:10:52Z</time>
      </trkpt>
      <trkpt lat="42.362153" lon="8.911738">
        <ele>1677.0</ele>
        <time>2022-09-10T13:11:01Z</time>
      </trkpt>
      <trkpt lat="42.362153" lon="8.911655">
        <ele>1678.0</ele>
        <time>2022-09-10T13:11:09Z</time>
      </trkpt>
      <trkpt lat="42.362175" lon="8.911592">
        <ele>1679.6</ele>
        <time>2022-09-10T13:11:16Z</time>
      </trkpt>
      <trkpt lat="42.362237" lon="8.911555">
        <ele>1682.0</ele>
        <time>2022-09-10T13:11:23Z</time>
      </trkpt>
      <trkpt lat="42.362242" lon="8.911545">
        <ele>1682.2</ele>
        <time>2022-09-10T13:11:25Z</time>
      </trkpt>
      <trkpt lat="42.36227" lon="8.911513">
        <ele>1681.0</ele>
        <time>2022-09-10T13:11:31Z</time>
      </trkpt>
      <trkpt lat="42.362297" lon="8.911463">
        <ele>1681.6</ele>
        <time>2022-09-10T13:11:38Z</time>
      </trkpt>
      <trkpt lat="42.36231" lon="8.911425">
        <ele>1681.4</ele>
        <time>2022-09-10T13:12:07Z</time>
      </trkpt>
      <trkpt lat="42.362315" lon="8.911328">
        <ele>1675.4</ele>
        <time>2022-09-10T13:12:42Z</time>
      </trkpt>
      <trkpt lat="42.36234" lon="8.911268">
        <ele>1674.6</ele>
        <time>2022-09-10T13:12:50Z</time>
      </trkpt>
      <trkpt lat="42.36237" lon="8.91118">
        <ele>1673.6</ele>
        <time>2022-09-10T13:13:17Z</time>
      </trkpt>
      <trkpt lat="42.362373" lon="8.911168">
        <ele>1673.6</ele>
        <time>2022-09-10T13:13:21Z</time>
      </trkpt>
      <trkpt lat="42.362337" lon="8.911047">
        <ele>1672.0</ele>
        <time>2022-09-10T13:13:40Z</time>
      </trkpt>
      <trkpt lat="42.362327" lon="8.910963">
        <ele>1671.0</ele>
        <time>2022-09-10T13:13:48Z</time>
      </trkpt>
      <trkpt lat="42.362275" lon="8.910782">
        <ele>1667.2</ele>
        <time>2022-09-10T13:14:05Z</time>
      </trkpt>
      <trkpt lat="42.362285" lon="8.910712">
        <ele>1667.2</ele>
        <time>2022-09-10T13:14:11Z</time>
      </trkpt>
      <trkpt lat="42.362303" lon="8.910655">
        <ele>1668.2</ele>
        <time>2022-09-10T13:14:16Z</time>
      </trkpt>
      <trkpt lat="42.362312" lon="8.910572">
        <ele>1668.4</ele>
        <time>2022-09-10T13:14:35Z</time>
      </trkpt>
      <trkpt lat="42.362317" lon="8.910547">
        <ele>1668.4</ele>
        <time>2022-09-10T13:14:40Z</time>
      </trkpt>
      <trkpt lat="42.36227" lon="8.910278">
        <ele>1669.2</ele>
        <time>2022-09-10T13:15:08Z</time>
      </trkpt>
      <trkpt lat="42.362282" lon="8.910212">
        <ele>1669.2</ele>
        <time>2022-09-10T13:15:13Z</time>
      </trkpt>
      <trkpt lat="42.362288" lon="8.910168">
        <ele>1670.8</ele>
        <time>2022-09-10T13:15:43Z</time>
      </trkpt>
      <trkpt lat="42.362315" lon="8.910012">
        <ele>1673.2</ele>
        <time>2022-09-10T13:16:07Z</time>
      </trkpt>
      <trkpt lat="42.362342" lon="8.90996">
        <ele>1676.0</ele>
        <time>2022-09-10T13:16:22Z</time>
      </trkpt>
      <trkpt lat="42.362328" lon="8.909907">
        <ele>1677.4</ele>
        <time>2022-09-10T13:16:36Z</time>
      </trkpt>
      <trkpt lat="42.362348" lon="8.909805">
        <ele>1680.6</ele>
        <time>2022-09-10T13:16:54Z</time>
      </trkpt>
      <trkpt lat="42.362365" lon="8.9098">
        <ele>1681.2</ele>
        <time>2022-09-10T13:17:01Z</time>
      </trkpt>
      <trkpt lat="42.362397" lon="8.909773">
        <ele>1683.0</ele>
        <time>2022-09-10T13:17:13Z</time>
      </trkpt>
      <trkpt lat="42.362408" lon="8.9097">
        <ele>1684.2</ele>
        <time>2022-09-10T13:17:21Z</time>
      </trkpt>
      <trkpt lat="42.362447" lon="8.909647">
        <ele>1686.4</ele>
        <time>2022-09-10T13:17:31Z</time>
      </trkpt>
      <trkpt lat="42.362428" lon="8.909588">
        <ele>1686.6</ele>
        <time>2022-09-10T13:17:37Z</time>
      </trkpt>
      <trkpt lat="42.362395" lon="8.909447">
        <ele>1687.8</ele>
        <time>2022-09-10T13:17:55Z</time>
      </trkpt>
      <trkpt lat="42.362373" lon="8.909378">
        <ele>1688.8</ele>
        <time>2022-09-10T13:18:04Z</time>
      </trkpt>
      <trkpt lat="42.362353" lon="8.90932">
        <ele>1689.8</ele>
        <time>2022-09-10T13:18:14Z</time>
      </trkpt>
      <trkpt lat="42.362343" lon="8.909305">
        <ele>1689.8</ele>
        <time>2022-09-10T13:18:22Z</time>
      </trkpt>
      <trkpt lat="42.362372" lon="8.909217">
        <ele>1688.2</ele>
        <time>2022-09-10T13:18:35Z</time>
      </trkpt>
      <trkpt lat="42.362358" lon="8.909142">
        <ele>1687.0</ele>
        <time>2022-09-10T13:18:41Z</time>
      </trkpt>
      <trkpt lat="42.362303" lon="8.909057">
        <ele>1685.8</ele>
        <time>2022-09-10T13:18:49Z</time>
      </trkpt>
      <trkpt lat="42.362323" lon="8.908928">
        <ele>1684.8</ele>
        <time>2022-09-10T13:18:59Z</time>
      </trkpt>
      <trkpt lat="42.362332" lon="8.908848">
        <ele>1684.8</ele>
        <time>2022-09-10T13:19:05Z</time>
      </trkpt>
      <trkpt lat="42.36233" lon="8.908805">
        <ele>1684.8</ele>
        <time>2022-09-10T13:19:08Z</time>
      </trkpt>
      <trkpt lat="42.36237" lon="8.908807">
        <ele>1684.8</ele>
        <time>2022-09-10T13:19:12Z</time>
      </trkpt>
      <trkpt lat="42.362155" lon="8.90873">
        <ele>1684.8</ele>
        <time>2022-09-10T13:19:12Z</time>
      </trkpt>
      <trkpt lat="42.362162" lon="8.909032">
        <ele>1686.6</ele>
        <time>2022-09-10T13:35:48Z</time>
      </trkpt>
      <trkpt lat="42.362142" lon="8.909002">
        <ele>1686.6</ele>
        <time>2022-09-10T13:35:53Z</time>
      </trkpt>
      <trkpt lat="42.362098" lon="8.909023">
        <ele>1685.6</ele>
        <time>2022-09-10T13:36:07Z</time>
      </trkpt>
      <trkpt lat="42.362033" lon="8.909123">
        <ele>1684.2</ele>
        <time>2022-09-10T13:36:23Z</time>
      </trkpt>
      <trkpt lat="42.36201" lon="8.909147">
        <ele>1683.2</ele>
        <time>2022-09-10T13:36:28Z</time>
      </trkpt>
      <trkpt lat="42.361965" lon="8.909235">
        <ele>1681.4</ele>
        <time>2022-09-10T13:36:43Z</time>
      </trkpt>
      <trkpt lat="42.361943" lon="8.909283">
        <ele>1680.0</ele>
        <time>2022-09-10T13:36:56Z</time>
      </trkpt>
      <trkpt lat="42.361928" lon="8.909322">
        <ele>1673.8</ele>
        <time>2022-09-10T13:38:10Z</time>
      </trkpt>
      <trkpt lat="42.361935" lon="8.909335">
        <ele>1673.8</ele>
        <time>2022-09-10T13:38:14Z</time>
      </trkpt>
      <trkpt lat="42.36191" lon="8.909348">
        <ele>1673.6</ele>
        <time>2022-09-10T13:38:21Z</time>
      </trkpt>
      <trkpt lat="42.36186" lon="8.909335">
        <ele>1672.4</ele>
        <time>2022-09-10T13:38:30Z</time>
      </trkpt>
      <trkpt lat="42.361742" lon="8.909315">
        <ele>1670.2</ele>
        <time>2022-09-10T13:38:40Z</time>
      </trkpt>
      <trkpt lat="42.361732" lon="8.909388">
        <ele>1669.8</ele>
        <time>2022-09-10T13:38:52Z</time>
      </trkpt>
      <trkpt lat="42.361733" lon="8.90941">
        <ele>1669.8</ele>
        <time>2022-09-10T13:38:55Z</time>
      </trkpt>
      <trkpt lat="42.361797" lon="8.90948">
        <ele>1668.2</ele>
        <time>2022-09-10T13:39:10Z</time>
      </trkpt>
      <trkpt lat="42.36184" lon="8.90958">
        <ele>1666.2</ele>
        <time>2022-09-10T13:39:28Z</time>
      </trkpt>
      <trkpt lat="42.361885" lon="8.909705">
        <ele>1665.6</ele>
        <time>2022-09-10T13:39:36Z</time>
      </trkpt>
      <trkpt lat="42.361927" lon="8.909905">
        <ele>1664.4</ele>
        <time>2022-09-10T13:39:46Z</time>
      </trkpt>
      <trkpt lat="42.361933" lon="8.910018">
        <ele>1665.2</ele>
        <time>2022-09-10T13:39:56Z</time>
      </trkpt>
      <trkpt lat="42.36194" lon="8.910118">
        <ele>1664.8</ele>
        <time>2022-09-10T13:40:08Z</time>
      </trkpt>
      <trkpt lat="42.361963" lon="8.910228">
        <ele>1662.6</ele>
        <time>2022-09-10T13:40:20Z</time>
      </trkpt>
      <trkpt lat="42.361905" lon="8.910277">
        <ele>1662.0</ele>
        <time>2022-09-10T13:40:27Z</time>
      </trkpt>
      <trkpt lat="42.361815" lon="8.910325">
        <ele>1661.0</ele>
        <time>2022-09-10T13:40:37Z</time>
      </trkpt>
      <trkpt lat="42.36178" lon="8.910377">
        <ele>1660.2</ele>
        <time>2022-09-10T13:40:49Z</time>
      </trkpt>
      <trkpt lat="42.361688" lon="8.91024">
        <ele>1657.0</ele>
        <time>2022-09-10T13:41:36Z</time>
      </trkpt>
      <trkpt lat="42.361633" lon="8.910232">
        <ele>1652.4</ele>
        <time>2022-09-10T13:42:15Z</time>
      </trkpt>
      <trkpt lat="42.361627" lon="8.91023">
        <ele>1652.4</ele>
        <time>2022-09-10T13:42:16Z</time>
      </trkpt>
      <trkpt lat="42.361573" lon="8.910177">
        <ele>1652.4</ele>
        <time>2022-09-10T13:42:25Z</time>
      </trkpt>
      <trkpt lat="42.361552" lon="8.910258">
        <ele>1652.4</ele>
        <time>2022-09-10T13:42:33Z</time>
      </trkpt>
      <trkpt lat="42.361545" lon="8.910263">
        <ele>1652.4</ele>
        <time>2022-09-10T13:42:34Z</time>
      </trkpt>
      <trkpt lat="42.361518" lon="8.910197">
        <ele>1651.6</ele>
        <time>2022-09-10T13:42:43Z</time>
      </trkpt>
      <trkpt lat="42.361515" lon="8.910153">
        <ele>1651.0</ele>
        <time>2022-09-10T13:42:50Z</time>
      </trkpt>
      <trkpt lat="42.361467" lon="8.910143">
        <ele>1648.8</ele>
        <time>2022-09-10T13:43:00Z</time>
      </trkpt>
      <trkpt lat="42.361373" lon="8.910145">
        <ele>1644.0</ele>
        <time>2022-09-10T13:43:38Z</time>
      </trkpt>
      <trkpt lat="42.361372" lon="8.910152">
        <ele>1643.4</ele>
        <time>2022-09-10T13:43:42Z</time>
      </trkpt>
      <trkpt lat="42.361347" lon="8.91014">
        <ele>1641.8</ele>
        <time>2022-09-10T13:43:54Z</time>
      </trkpt>
      <trkpt lat="42.361323" lon="8.910127">
        <ele>1641.4</ele>
        <time>2022-09-10T13:44:00Z</time>
      </trkpt>
      <trkpt lat="42.36131" lon="8.910123">
        <ele>1640.6</ele>
        <time>2022-09-10T13:44:02Z</time>
      </trkpt>
      <trkpt lat="42.361205" lon="8.910055">
        <ele>1640.4</ele>
        <time>2022-09-10T13:44:20Z</time>
      </trkpt>
      <trkpt lat="42.361175" lon="8.910052">
        <ele>1640.4</ele>
        <time>2022-09-10T13:44:23Z</time>
      </trkpt>
      <trkpt lat="42.361113" lon="8.91009">
        <ele>1639.0</ele>
        <time>2022-09-10T13:44:31Z</time>
      </trkpt>
      <trkpt lat="42.361102" lon="8.910012">
        <ele>1638.8</ele>
        <time>2022-09-10T13:44:38Z</time>
      </trkpt>
      <trkpt lat="42.361047" lon="8.910002">
        <ele>1638.6</ele>
        <time>2022-09-10T13:44:44Z</time>
      </trkpt>
      <trkpt lat="42.361027" lon="8.90998">
        <ele>1637.8</ele>
        <time>2022-09-10T13:44:47Z</time>
      </trkpt>
      <trkpt lat="42.360953" lon="8.909997">
        <ele>1636.0</ele>
        <time>2022-09-10T13:45:03Z</time>
      </trkpt>
      <trkpt lat="42.360875" lon="8.910033">
        <ele>1634.6</ele>
        <time>2022-09-10T13:45:16Z</time>
      </trkpt>
      <trkpt lat="42.360835" lon="8.910048">
        <ele>1633.6</ele>
        <time>2022-09-10T13:45:22Z</time>
      </trkpt>
      <trkpt lat="42.360802" lon="8.910075">
        <ele>1632.2</ele>
        <time>2022-09-10T13:45:27Z</time>
      </trkpt>
      <trkpt lat="42.360813" lon="8.910032">
        <ele>1631.4</ele>
        <time>2022-09-10T13:45:32Z</time>
      </trkpt>
      <trkpt lat="42.360852" lon="8.909958">
        <ele>1630.6</ele>
        <time>2022-09-10T13:45:41Z</time>
      </trkpt>
      <trkpt lat="42.360875" lon="8.909923">
        <ele>1630.4</ele>
        <time>2022-09-10T13:45:45Z</time>
      </trkpt>
      <trkpt lat="42.360902" lon="8.909833">
        <ele>1629.0</ele>
        <time>2022-09-10T13:45:54Z</time>
      </trkpt>
      <trkpt lat="42.360927" lon="8.909703">
        <ele>1626.8</ele>
        <time>2022-09-10T13:46:07Z</time>
      </trkpt>
      <trkpt lat="42.360933" lon="8.909675">
        <ele>1626.6</ele>
        <time>2022-09-10T13:46:10Z</time>
      </trkpt>
      <trkpt lat="42.360892" lon="8.909707">
        <ele>1624.6</ele>
        <time>2022-09-10T13:46:20Z</time>
      </trkpt>
      <trkpt lat="42.360818" lon="8.909647">
        <ele>1623.2</ele>
        <time>2022-09-10T13:46:35Z</time>
      </trkpt>
      <trkpt lat="42.360717" lon="8.909608">
        <ele>1621.8</ele>
        <time>2022-09-10T13:46:50Z</time>
      </trkpt>
      <trkpt lat="42.3607" lon="8.909615">
        <ele>1621.2</ele>
        <time>2022-09-10T13:46:52Z</time>
      </trkpt>
      <trkpt lat="42.360728" lon="8.909723">
        <ele>1619.6</ele>
        <time>2022-09-10T13:47:08Z</time>
      </trkpt>
      <trkpt lat="42.360743" lon="8.909767">
        <ele>1618.2</ele>
        <time>2022-09-10T13:47:14Z</time>
      </trkpt>
      <trkpt lat="42.360735" lon="8.909808">
        <ele>1617.4</ele>
        <time>2022-09-10T13:47:22Z</time>
      </trkpt>
      <trkpt lat="42.360732" lon="8.909835">
        <ele>1617.0</ele>
        <time>2022-09-10T13:47:26Z</time>
      </trkpt>
      <trkpt lat="42.36076" lon="8.909872">
        <ele>1616.2</ele>
        <time>2022-09-10T13:47:34Z</time>
      </trkpt>
      <trkpt lat="42.360772" lon="8.90993">
        <ele>1615.8</ele>
        <time>2022-09-10T13:47:44Z</time>
      </trkpt>
      <trkpt lat="42.360697" lon="8.909865">
        <ele>1614.2</ele>
        <time>2022-09-10T13:47:52Z</time>
      </trkpt>
      <trkpt lat="42.36062" lon="8.90981">
        <ele>1613.2</ele>
        <time>2022-09-10T13:48:02Z</time>
      </trkpt>
      <trkpt lat="42.360468" lon="8.909658">
        <ele>1611.2</ele>
        <time>2022-09-10T13:48:25Z</time>
      </trkpt>
      <trkpt lat="42.360462" lon="8.909653">
        <ele>1611.2</ele>
        <time>2022-09-10T13:48:27Z</time>
      </trkpt>
      <trkpt lat="42.360423" lon="8.909648">
        <ele>1611.0</ele>
        <time>2022-09-10T13:48:33Z</time>
      </trkpt>
      <trkpt lat="42.360387" lon="8.909585">
        <ele>1610.2</ele>
        <time>2022-09-10T13:48:39Z</time>
      </trkpt>
      <trkpt lat="42.360308" lon="8.909563">
        <ele>1609.0</ele>
        <time>2022-09-10T13:48:49Z</time>
      </trkpt>
      <trkpt lat="42.360265" lon="8.909537">
        <ele>1608.0</ele>
        <time>2022-09-10T13:48:55Z</time>
      </trkpt>
      <trkpt lat="42.36022" lon="8.909573">
        <ele>1607.0</ele>
        <time>2022-09-10T13:49:02Z</time>
      </trkpt>
      <trkpt lat="42.360183" lon="8.909682">
        <ele>1604.6</ele>
        <time>2022-09-10T13:49:20Z</time>
      </trkpt>
      <trkpt lat="42.360167" lon="8.909727">
        <ele>1604.2</ele>
        <time>2022-09-10T13:49:28Z</time>
      </trkpt>
      <trkpt lat="42.360165" lon="8.909732">
        <ele>1604.2</ele>
        <time>2022-09-10T13:49:30Z</time>
      </trkpt>
      <trkpt lat="42.360162" lon="8.909738">
        <ele>1604.2</ele>
        <time>2022-09-10T13:49:32Z</time>
      </trkpt>
      <trkpt lat="42.360048" lon="8.90992">
        <ele>1604.2</ele>
        <time>2022-09-10T13:50:16Z</time>
      </trkpt>
      <trkpt lat="42.360033" lon="8.909917">
        <ele>1603.8</ele>
        <time>2022-09-10T13:51:10Z</time>
      </trkpt>
      <trkpt lat="42.359935" lon="8.909942">
        <ele>1592.8</ele>
        <time>2022-09-10T13:52:50Z</time>
      </trkpt>
      <trkpt lat="42.359835" lon="8.909998">
        <ele>1591.6</ele>
        <time>2022-09-10T13:53:01Z</time>
      </trkpt>
      <trkpt lat="42.35981" lon="8.910063">
        <ele>1591.0</ele>
        <time>2022-09-10T13:53:04Z</time>
      </trkpt>
      <trkpt lat="42.359777" lon="8.910167">
        <ele>1589.8</ele>
        <time>2022-09-10T13:53:09Z</time>
      </trkpt>
      <trkpt lat="42.359755" lon="8.910188">
        <ele>1589.8</ele>
        <time>2022-09-10T13:53:11Z</time>
      </trkpt>
      <trkpt lat="42.359678" lon="8.91019">
        <ele>1589.2</ele>
        <time>2022-09-10T13:53:17Z</time>
      </trkpt>
      <trkpt lat="42.359655" lon="8.910172">
        <ele>1588.8</ele>
        <time>2022-09-10T13:53:20Z</time>
      </trkpt>
      <trkpt lat="42.359643" lon="8.91016">
        <ele>1588.8</ele>
        <time>2022-09-10T13:53:21Z</time>
      </trkpt>
      <trkpt lat="42.359618" lon="8.910215">
        <ele>1587.8</ele>
        <time>2022-09-10T13:53:25Z</time>
      </trkpt>
      <trkpt lat="42.359625" lon="8.910247">
        <ele>1587.6</ele>
        <time>2022-09-10T13:53:27Z</time>
      </trkpt>
      <trkpt lat="42.359677" lon="8.91042">
        <ele>1586.0</ele>
        <time>2022-09-10T13:53:39Z</time>
      </trkpt>
      <trkpt lat="42.359687" lon="8.910538">
        <ele>1584.6</ele>
        <time>2022-09-10T13:53:48Z</time>
      </trkpt>
      <trkpt lat="42.3597" lon="8.910627">
        <ele>1584.0</ele>
        <time>2022-09-10T13:53:55Z</time>
      </trkpt>
      <trkpt lat="42.359693" lon="8.910708">
        <ele>1583.4</ele>
        <time>2022-09-10T13:54:03Z</time>
      </trkpt>
      <trkpt lat="42.359727" lon="8.910772">
        <ele>1581.0</ele>
        <time>2022-09-10T13:54:17Z</time>
      </trkpt>
      <trkpt lat="42.359645" lon="8.910582">
        <ele>1580.6</ele>
        <time>2022-09-10T13:54:28Z</time>
      </trkpt>
      <trkpt lat="42.359553" lon="8.9103">
        <ele>1576.8</ele>
        <time>2022-09-10T13:54:42Z</time>
      </trkpt>
      <trkpt lat="42.359407" lon="8.910048">
        <ele>1575.4</ele>
        <time>2022-09-10T13:54:54Z</time>
      </trkpt>
      <trkpt lat="42.359392" lon="8.910028">
        <ele>1574.8</ele>
        <time>2022-09-10T13:54:55Z</time>
      </trkpt>
      <trkpt lat="42.359322" lon="8.910083">
        <ele>1571.4</ele>
        <time>2022-09-10T13:55:12Z</time>
      </trkpt>
      <trkpt lat="42.359277" lon="8.91008">
        <ele>1569.8</ele>
        <time>2022-09-10T13:55:23Z</time>
      </trkpt>
      <trkpt lat="42.359252" lon="8.910072">
        <ele>1568.6</ele>
        <time>2022-09-10T13:55:30Z</time>
      </trkpt>
      <trkpt lat="42.359215" lon="8.910093">
        <ele>1567.0</ele>
        <time>2022-09-10T13:55:39Z</time>
      </trkpt>
      <trkpt lat="42.359197" lon="8.910117">
        <ele>1563.6</ele>
        <time>2022-09-10T13:56:02Z</time>
      </trkpt>
      <trkpt lat="42.359172" lon="8.910145">
        <ele>1562.0</ele>
        <time>2022-09-10T13:56:15Z</time>
      </trkpt>
      <trkpt lat="42.359132" lon="8.910153">
        <ele>1561.2</ele>
        <time>2022-09-10T13:56:21Z</time>
      </trkpt>
      <trkpt lat="42.359093" lon="8.910145">
        <ele>1560.2</ele>
        <time>2022-09-10T13:56:27Z</time>
      </trkpt>
      <trkpt lat="42.359047" lon="8.9101">
        <ele>1559.6</ele>
        <time>2022-09-10T13:56:32Z</time>
      </trkpt>
      <trkpt lat="42.358985" lon="8.910055">
        <ele>1558.6</ele>
        <time>2022-09-10T13:56:39Z</time>
      </trkpt>
      <trkpt lat="42.358933" lon="8.910003">
        <ele>1557.4</ele>
        <time>2022-09-10T13:56:47Z</time>
      </trkpt>
      <trkpt lat="42.358872" lon="8.910072">
        <ele>1556.8</ele>
        <time>2022-09-10T13:56:54Z</time>
      </trkpt>
      <trkpt lat="42.358783" lon="8.909997">
        <ele>1554.8</ele>
        <time>2022-09-10T13:57:08Z</time>
      </trkpt>
      <trkpt lat="42.358773" lon="8.909992">
        <ele>1554.8</ele>
        <time>2022-09-10T13:57:09Z</time>
      </trkpt>
      <trkpt lat="42.358762" lon="8.909918">
        <ele>1554.2</ele>
        <time>2022-09-10T13:57:14Z</time>
      </trkpt>
      <trkpt lat="42.358787" lon="8.909632">
        <ele>1552.4</ele>
        <time>2022-09-10T13:57:31Z</time>
      </trkpt>
      <trkpt lat="42.35881" lon="8.909565">
        <ele>1551.8</ele>
        <time>2022-09-10T13:57:36Z</time>
      </trkpt>
      <trkpt lat="42.3588" lon="8.909465">
        <ele>1549.4</ele>
        <time>2022-09-10T13:58:00Z</time>
      </trkpt>
      <trkpt lat="42.358793" lon="8.909475">
        <ele>1549.4</ele>
        <time>2022-09-10T13:58:00Z</time>
      </trkpt>
      <trkpt lat="42.358647" lon="8.909835">
        <ele>1539.0</ele>
        <time>2022-09-10T13:59:35Z</time>
      </trkpt>
      <trkpt lat="42.358582" lon="8.909832">
        <ele>1538.0</ele>
        <time>2022-09-10T13:59:45Z</time>
      </trkpt>
      <trkpt lat="42.358428" lon="8.909827">
        <ele>1536.6</ele>
        <time>2022-09-10T13:59:55Z</time>
      </trkpt>
      <trkpt lat="42.35841" lon="8.909822">
        <ele>1536.0</ele>
        <time>2022-09-10T13:59:58Z</time>
      </trkpt>
      <trkpt lat="42.358373" lon="8.909828">
        <ele>1535.8</ele>
        <time>2022-09-10T14:00:02Z</time>
      </trkpt>
      <trkpt lat="42.358342" lon="8.909843">
        <ele>1535.6</ele>
        <time>2022-09-10T14:00:06Z</time>
      </trkpt>
      <trkpt lat="42.358293" lon="8.909823">
        <ele>1534.4</ele>
        <time>2022-09-10T14:00:20Z</time>
      </trkpt>
      <trkpt lat="42.358255" lon="8.909838">
        <ele>1532.8</ele>
        <time>2022-09-10T14:00:34Z</time>
      </trkpt>
      <trkpt lat="42.358237" lon="8.909835">
        <ele>1531.8</ele>
        <time>2022-09-10T14:00:42Z</time>
      </trkpt>
      <trkpt lat="42.358165" lon="8.909797">
        <ele>1529.2</ele>
        <time>2022-09-10T14:01:16Z</time>
      </trkpt>
      <trkpt lat="42.358127" lon="8.90974">
        <ele>1528.8</ele>
        <time>2022-09-10T14:01:19Z</time>
      </trkpt>
      <trkpt lat="42.358053" lon="8.90963">
        <ele>1528.6</ele>
        <time>2022-09-10T14:01:24Z</time>
      </trkpt>
      <trkpt lat="42.358013" lon="8.909617">
        <ele>1528.4</ele>
        <time>2022-09-10T14:01:26Z</time>
      </trkpt>
      <trkpt lat="42.357952" lon="8.909633">
        <ele>1528.4</ele>
        <time>2022-09-10T14:01:31Z</time>
      </trkpt>
      <trkpt lat="42.357922" lon="8.909667">
        <ele>1528.4</ele>
        <time>2022-09-10T14:01:33Z</time>
      </trkpt>
      <trkpt lat="42.35785" lon="8.909798">
        <ele>1527.6</ele>
        <time>2022-09-10T14:01:40Z</time>
      </trkpt>
      <trkpt lat="42.357813" lon="8.909817">
        <ele>1527.2</ele>
        <time>2022-09-10T14:01:43Z</time>
      </trkpt>
      <trkpt lat="42.357783" lon="8.909867">
        <ele>1525.6</ele>
        <time>2022-09-10T14:01:56Z</time>
      </trkpt>
      <trkpt lat="42.357782" lon="8.909868">
        <ele>1525.6</ele>
        <time>2022-09-10T14:01:58Z</time>
      </trkpt>
      <trkpt lat="42.357685" lon="8.909845">
        <ele>1523.2</ele>
        <time>2022-09-10T14:02:33Z</time>
      </trkpt>
      <trkpt lat="42.357583" lon="8.909838">
        <ele>1520.4</ele>
        <time>2022-09-10T14:02:53Z</time>
      </trkpt>
      <trkpt lat="42.35749" lon="8.909878">
        <ele>1520.4</ele>
        <time>2022-09-10T14:03:03Z</time>
      </trkpt>
      <trkpt lat="42.357492" lon="8.909862">
        <ele>1520.0</ele>
        <time>2022-09-10T14:03:04Z</time>
      </trkpt>
      <trkpt lat="42.357517" lon="8.909822">
        <ele>1519.8</ele>
        <time>2022-09-10T14:03:09Z</time>
      </trkpt>
      <trkpt lat="42.357548" lon="8.90978">
        <ele>1519.4</ele>
        <time>2022-09-10T14:03:14Z</time>
      </trkpt>
      <trkpt lat="42.357567" lon="8.90971">
        <ele>1519.0</ele>
        <time>2022-09-10T14:03:20Z</time>
      </trkpt>
      <trkpt lat="42.357567" lon="8.909705">
        <ele>1519.0</ele>
        <time>2022-09-10T14:03:41Z</time>
      </trkpt>
      <trkpt lat="42.357568" lon="8.909703">
        <ele>1519.0</ele>
        <time>2022-09-10T14:03:42Z</time>
      </trkpt>
      <trkpt lat="42.35762" lon="8.90965">
        <ele>1519.0</ele>
        <time>2022-09-10T14:03:51Z</time>
      </trkpt>
      <trkpt lat="42.357637" lon="8.909608">
        <ele>1518.6</ele>
        <time>2022-09-10T14:03:54Z</time>
      </trkpt>
      <trkpt lat="42.357713" lon="8.909582">
        <ele>1518.2</ele>
        <time>2022-09-10T14:04:04Z</time>
      </trkpt>
      <trkpt lat="42.357745" lon="8.909627">
        <ele>1517.0</ele>
        <time>2022-09-10T14:04:23Z</time>
      </trkpt>
      <trkpt lat="42.35776" lon="8.909627">
        <ele>1516.2</ele>
        <time>2022-09-10T14:04:38Z</time>
      </trkpt>
      <trkpt lat="42.35776" lon="8.909618">
        <ele>1516.6</ele>
        <time>2022-09-10T14:04:44Z</time>
      </trkpt>
      <trkpt lat="42.357607" lon="8.909675">
        <ele>1516.8</ele>
        <time>2022-09-10T14:05:02Z</time>
      </trkpt>
      <trkpt lat="42.357322" lon="8.909757">
        <ele>1515.2</ele>
        <time>2022-09-10T14:05:34Z</time>
      </trkpt>
      <trkpt lat="42.357165" lon="8.909783">
        <ele>1514.2</ele>
        <time>2022-09-10T14:05:48Z</time>
      </trkpt>
      <trkpt lat="42.35708" lon="8.90978">
        <ele>1514.0</ele>
        <time>2022-09-10T14:05:52Z</time>
      </trkpt>
      <trkpt lat="42.35696" lon="8.909752">
        <ele>1513.2</ele>
        <time>2022-09-10T14:06:00Z</time>
      </trkpt>
      <trkpt lat="42.356918" lon="8.909745">
        <ele>1513.0</ele>
        <time>2022-09-10T14:06:03Z</time>
      </trkpt>
      <trkpt lat="42.35684" lon="8.909725">
        <ele>1513.0</ele>
        <time>2022-09-10T14:06:09Z</time>
      </trkpt>
      <trkpt lat="42.356732" lon="8.909727">
        <ele>1513.0</ele>
        <time>2022-09-10T14:06:21Z</time>
      </trkpt>
      <trkpt lat="42.35651" lon="8.909802">
        <ele>1510.4</ele>
        <time>2022-09-10T14:06:44Z</time>
      </trkpt>
      <trkpt lat="42.356502" lon="8.909807">
        <ele>1510.2</ele>
        <time>2022-09-10T14:06:46Z</time>
      </trkpt>
      <trkpt lat="42.356472" lon="8.909813">
        <ele>1510.0</ele>
        <time>2022-09-10T14:06:49Z</time>
      </trkpt>
      <trkpt lat="42.356363" lon="8.909915">
        <ele>1508.6</ele>
        <time>2022-09-10T14:07:04Z</time>
      </trkpt>
      <trkpt lat="42.356352" lon="8.90992">
        <ele>1508.2</ele>
        <time>2022-09-10T14:07:05Z</time>
      </trkpt>
      <trkpt lat="42.356252" lon="8.910018">
        <ele>1507.0</ele>
        <time>2022-09-10T14:07:25Z</time>
      </trkpt>
      <trkpt lat="42.356245" lon="8.910033">
        <ele>1506.8</ele>
        <time>2022-09-10T14:07:27Z</time>
      </trkpt>
      <trkpt lat="42.356203" lon="8.91009">
        <ele>1506.2</ele>
        <time>2022-09-10T14:07:32Z</time>
      </trkpt>
      <trkpt lat="42.356078" lon="8.910015">
        <ele>1505.8</ele>
        <time>2022-09-10T14:07:42Z</time>
      </trkpt>
      <trkpt lat="42.355995" lon="8.909948">
        <ele>1505.0</ele>
        <time>2022-09-10T14:07:48Z</time>
      </trkpt>
      <trkpt lat="42.355932" lon="8.909838">
        <ele>1504.4</ele>
        <time>2022-09-10T14:07:53Z</time>
      </trkpt>
      <trkpt lat="42.355885" lon="8.909803">
        <ele>1504.2</ele>
        <time>2022-09-10T14:07:57Z</time>
      </trkpt>
      <trkpt lat="42.35591" lon="8.909802">
        <ele>1504.2</ele>
        <time>2022-09-10T14:07:59Z</time>
      </trkpt>
      <trkpt lat="42.355978" lon="8.909763">
        <ele>1503.2</ele>
        <time>2022-09-10T14:08:09Z</time>
      </trkpt>
      <trkpt lat="42.356045" lon="8.909715">
        <ele>1501.2</ele>
        <time>2022-09-10T14:08:24Z</time>
      </trkpt>
      <trkpt lat="42.35608" lon="8.909657">
        <ele>1499.8</ele>
        <time>2022-09-10T14:08:37Z</time>
      </trkpt>
      <trkpt lat="42.356203" lon="8.90957">
        <ele>1497.6</ele>
        <time>2022-09-10T14:09:05Z</time>
      </trkpt>
      <trkpt lat="42.356095" lon="8.909643">
        <ele>1496.4</ele>
        <time>2022-09-10T14:09:13Z</time>
      </trkpt>
      <trkpt lat="42.355873" lon="8.90976">
        <ele>1494.6</ele>
        <time>2022-09-10T14:09:29Z</time>
      </trkpt>
      <trkpt lat="42.355788" lon="8.909778">
        <ele>1493.8</ele>
        <time>2022-09-10T14:09:35Z</time>
      </trkpt>
      <trkpt lat="42.355693" lon="8.90979">
        <ele>1493.0</ele>
        <time>2022-09-10T14:09:42Z</time>
      </trkpt>
      <trkpt lat="42.355642" lon="8.909797">
        <ele>1492.6</ele>
        <time>2022-09-10T14:09:47Z</time>
      </trkpt>
      <trkpt lat="42.355625" lon="8.909787">
        <ele>1492.4</ele>
        <time>2022-09-10T14:09:51Z</time>
      </trkpt>
      <trkpt lat="42.355598" lon="8.90979">
        <ele>1491.2</ele>
        <time>2022-09-10T14:09:57Z</time>
      </trkpt>
      <trkpt lat="42.355572" lon="8.909773">
        <ele>1491.0</ele>
        <time>2022-09-10T14:10:05Z</time>
      </trkpt>
      <trkpt lat="42.355532" lon="8.909768">
        <ele>1488.4</ele>
        <time>2022-09-10T14:10:18Z</time>
      </trkpt>
      <trkpt lat="42.355512" lon="8.909763">
        <ele>1488.0</ele>
        <time>2022-09-10T14:10:23Z</time>
      </trkpt>
      <trkpt lat="42.355498" lon="8.909773">
        <ele>1487.6</ele>
        <time>2022-09-10T14:10:26Z</time>
      </trkpt>
      <trkpt lat="42.355403" lon="8.909775">
        <ele>1486.4</ele>
        <time>2022-09-10T14:10:38Z</time>
      </trkpt>
      <trkpt lat="42.35538" lon="8.909753">
        <ele>1486.2</ele>
        <time>2022-09-10T14:10:42Z</time>
      </trkpt>
      <trkpt lat="42.355335" lon="8.909668">
        <ele>1484.6</ele>
        <time>2022-09-10T14:10:55Z</time>
      </trkpt>
      <trkpt lat="42.355327" lon="8.909663">
        <ele>1484.0</ele>
        <time>2022-09-10T14:10:57Z</time>
      </trkpt>
      <trkpt lat="42.355182" lon="8.909738">
        <ele>1482.2</ele>
        <time>2022-09-10T14:11:11Z</time>
      </trkpt>
      <trkpt lat="42.355075" lon="8.909705">
        <ele>1481.0</ele>
        <time>2022-09-10T14:11:25Z</time>
      </trkpt>
      <trkpt lat="42.354943" lon="8.90962">
        <ele>1480.0</ele>
        <time>2022-09-10T14:11:36Z</time>
      </trkpt>
      <trkpt lat="42.354983" lon="8.909577">
        <ele>1477.8</ele>
        <time>2022-09-10T14:12:17Z</time>
      </trkpt>
      <trkpt lat="42.35493" lon="8.909592">
        <ele>1476.8</ele>
        <time>2022-09-10T14:12:25Z</time>
      </trkpt>
      <trkpt lat="42.354872" lon="8.909565">
        <ele>1476.4</ele>
        <time>2022-09-10T14:12:33Z</time>
      </trkpt>
      <trkpt lat="42.354855" lon="8.909553">
        <ele>1476.4</ele>
        <time>2022-09-10T14:12:36Z</time>
      </trkpt>
      <trkpt lat="42.354788" lon="8.909538">
        <ele>1475.6</ele>
        <time>2022-09-10T14:12:47Z</time>
      </trkpt>
      <trkpt lat="42.354782" lon="8.909537">
        <ele>1475.0</ele>
        <time>2022-09-10T14:12:48Z</time>
      </trkpt>
      <trkpt lat="42.354748" lon="8.909547">
        <ele>1474.8</ele>
        <time>2022-09-10T14:12:55Z</time>
      </trkpt>
      <trkpt lat="42.354702" lon="8.909575">
        <ele>1474.4</ele>
        <time>2022-09-10T14:13:04Z</time>
      </trkpt>
      <trkpt lat="42.354675" lon="8.909598">
        <ele>1474.4</ele>
        <time>2022-09-10T14:13:10Z</time>
      </trkpt>
      <trkpt lat="42.35465" lon="8.909645">
        <ele>1473.6</ele>
        <time>2022-09-10T14:13:18Z</time>
      </trkpt>
      <trkpt lat="42.354632" lon="8.909673">
        <ele>1473.4</ele>
        <time>2022-09-10T14:13:23Z</time>
      </trkpt>
      <trkpt lat="42.354582" lon="8.90968">
        <ele>1472.4</ele>
        <time>2022-09-10T14:13:32Z</time>
      </trkpt>
      <trkpt lat="42.354513" lon="8.909623">
        <ele>1472.0</ele>
        <time>2022-09-10T14:13:45Z</time>
      </trkpt>
      <trkpt lat="42.354488" lon="8.909585">
        <ele>1472.0</ele>
        <time>2022-09-10T14:13:51Z</time>
      </trkpt>
      <trkpt lat="42.354458" lon="8.909492">
        <ele>1471.6</ele>
        <time>2022-09-10T14:14:01Z</time>
      </trkpt>
      <trkpt lat="42.35445" lon="8.909472">
        <ele>1471.6</ele>
        <time>2022-09-10T14:14:03Z</time>
      </trkpt>
      <trkpt lat="42.35439" lon="8.90931">
        <ele>1471.8</ele>
        <time>2022-09-10T14:14:20Z</time>
      </trkpt>
      <trkpt lat="42.354327" lon="8.909222">
        <ele>1471.4</ele>
        <time>2022-09-10T14:14:30Z</time>
      </trkpt>
      <trkpt lat="42.354192" lon="8.909127">
        <ele>1470.2</ele>
        <time>2022-09-10T14:14:50Z</time>
      </trkpt>
      <trkpt lat="42.354117" lon="8.909102">
        <ele>1469.2</ele>
        <time>2022-09-10T14:15:02Z</time>
      </trkpt>
      <trkpt lat="42.354097" lon="8.909068">
        <ele>1469.2</ele>
        <time>2022-09-10T14:15:09Z</time>
      </trkpt>
      <trkpt lat="42.354098" lon="8.909037">
        <ele>1469.8</ele>
        <time>2022-09-10T14:15:15Z</time>
      </trkpt>
      <trkpt lat="42.354053" lon="8.909005">
        <ele>1469.2</ele>
        <time>2022-09-10T14:15:20Z</time>
      </trkpt>
      <trkpt lat="42.353998" lon="8.909">
        <ele>1469.2</ele>
        <time>2022-09-10T14:15:25Z</time>
      </trkpt>
      <trkpt lat="42.353917" lon="8.909005">
        <ele>1469.0</ele>
        <time>2022-09-10T14:15:32Z</time>
      </trkpt>
      <trkpt lat="42.353907" lon="8.909">
        <ele>1468.8</ele>
        <time>2022-09-10T14:15:33Z</time>
      </trkpt>
      <trkpt lat="42.353897" lon="8.908917">
        <ele>1468.2</ele>
        <time>2022-09-10T14:15:41Z</time>
      </trkpt>
      <trkpt lat="42.353833" lon="8.908705">
        <ele>1467.4</ele>
        <time>2022-09-10T14:16:03Z</time>
      </trkpt>
      <trkpt lat="42.353802" lon="8.908653">
        <ele>1467.2</ele>
        <time>2022-09-10T14:16:10Z</time>
      </trkpt>
      <trkpt lat="42.35378" lon="8.908615">
        <ele>1467.2</ele>
        <time>2022-09-10T14:16:16Z</time>
      </trkpt>
      <trkpt lat="42.35376" lon="8.90857">
        <ele>1467.2</ele>
        <time>2022-09-10T14:16:25Z</time>
      </trkpt>
      <trkpt lat="42.353728" lon="8.908452">
        <ele>1464.4</ele>
        <time>2022-09-10T14:17:11Z</time>
      </trkpt>
      <trkpt lat="42.353685" lon="8.908433">
        <ele>1461.4</ele>
        <time>2022-09-10T14:17:34Z</time>
      </trkpt>
      <trkpt lat="42.353662" lon="8.908425">
        <ele>1461.0</ele>
        <time>2022-09-10T14:17:46Z</time>
      </trkpt>
      <trkpt lat="42.35366" lon="8.908422">
        <ele>1460.6</ele>
        <time>2022-09-10T14:17:47Z</time>
      </trkpt>
      <trkpt lat="42.353588" lon="8.90827">
        <ele>1459.2</ele>
        <time>2022-09-10T14:17:59Z</time>
      </trkpt>
      <trkpt lat="42.353552" lon="8.908162">
        <ele>1458.4</ele>
        <time>2022-09-10T14:18:06Z</time>
      </trkpt>
      <trkpt lat="42.353515" lon="8.908127">
        <ele>1457.6</ele>
        <time>2022-09-10T14:18:10Z</time>
      </trkpt>
      <trkpt lat="42.353498" lon="8.908168">
        <ele>1457.6</ele>
        <time>2022-09-10T14:18:13Z</time>
      </trkpt>
      <trkpt lat="42.353518" lon="8.908213">
        <ele>1457.6</ele>
        <time>2022-09-10T14:18:17Z</time>
      </trkpt>
      <trkpt lat="42.353488" lon="8.908298">
        <ele>1457.6</ele>
        <time>2022-09-10T14:18:25Z</time>
      </trkpt>
      <trkpt lat="42.353437" lon="8.908352">
        <ele>1457.4</ele>
        <time>2022-09-10T14:18:33Z</time>
      </trkpt>
      <trkpt lat="42.353415" lon="8.908318">
        <ele>1457.2</ele>
        <time>2022-09-10T14:18:36Z</time>
      </trkpt>
      <trkpt lat="42.353393" lon="8.908013">
        <ele>1455.8</ele>
        <time>2022-09-10T14:18:52Z</time>
      </trkpt>
      <trkpt lat="42.35339" lon="8.908005">
        <ele>1455.6</ele>
        <time>2022-09-10T14:18:53Z</time>
      </trkpt>
      <trkpt lat="42.353368" lon="8.907977">
        <ele>1455.0</ele>
        <time>2022-09-10T14:18:57Z</time>
      </trkpt>
      <trkpt lat="42.353287" lon="8.907948">
        <ele>1453.0</ele>
        <time>2022-09-10T14:19:16Z</time>
      </trkpt>
      <trkpt lat="42.353275" lon="8.907953">
        <ele>1450.0</ele>
        <time>2022-09-10T14:19:40Z</time>
      </trkpt>
      <trkpt lat="42.353252" lon="8.907947">
        <ele>1449.2</ele>
        <time>2022-09-10T14:19:48Z</time>
      </trkpt>
      <trkpt lat="42.353235" lon="8.907945">
        <ele>1448.6</ele>
        <time>2022-09-10T14:19:51Z</time>
      </trkpt>
      <trkpt lat="42.353183" lon="8.907888">
        <ele>1447.4</ele>
        <time>2022-09-10T14:19:59Z</time>
      </trkpt>
      <trkpt lat="42.353142" lon="8.907933">
        <ele>1446.6</ele>
        <time>2022-09-10T14:20:06Z</time>
      </trkpt>
      <trkpt lat="42.353102" lon="8.907943">
        <ele>1446.4</ele>
        <time>2022-09-10T14:20:11Z</time>
      </trkpt>
      <trkpt lat="42.353022" lon="8.90795">
        <ele>1445.4</ele>
        <time>2022-09-10T14:20:22Z</time>
      </trkpt>
      <trkpt lat="42.35299" lon="8.907953">
        <ele>1445.2</ele>
        <time>2022-09-10T14:20:27Z</time>
      </trkpt>
      <trkpt lat="42.352983" lon="8.907952">
        <ele>1445.2</ele>
        <time>2022-09-10T14:20:28Z</time>
      </trkpt>
      <trkpt lat="42.35296" lon="8.907995">
        <ele>1444.0</ele>
        <time>2022-09-10T14:20:37Z</time>
      </trkpt>
      <trkpt lat="42.352967" lon="8.908058">
        <ele>1443.6</ele>
        <time>2022-09-10T14:20:46Z</time>
      </trkpt>
      <trkpt lat="42.352972" lon="8.90804">
        <ele>1442.8</ele>
        <time>2022-09-10T14:20:57Z</time>
      </trkpt>
      <trkpt lat="42.352988" lon="8.907995">
        <ele>1442.8</ele>
        <time>2022-09-10T14:21:14Z</time>
      </trkpt>
      <trkpt lat="42.353002" lon="8.907998">
        <ele>1442.8</ele>
        <time>2022-09-10T14:21:15Z</time>
      </trkpt>
      <trkpt lat="42.353027" lon="8.907975">
        <ele>1442.6</ele>
        <time>2022-09-10T14:21:32Z</time>
      </trkpt>
      <trkpt lat="42.352433" lon="8.907767">
        <ele>1442.8</ele>
        <time>2022-09-10T14:34:52Z</time>
      </trkpt>
      <trkpt lat="42.352348" lon="8.907663">
        <ele>1432.8</ele>
        <time>2022-09-10T14:35:14Z</time>
      </trkpt>
      <trkpt lat="42.352308" lon="8.907618">
        <ele>1431.8</ele>
        <time>2022-09-10T14:35:21Z</time>
      </trkpt>
      <trkpt lat="42.352238" lon="8.907603">
        <ele>1430.6</ele>
        <time>2022-09-10T14:35:30Z</time>
      </trkpt>
      <trkpt lat="42.352232" lon="8.907603">
        <ele>1430.6</ele>
        <time>2022-09-10T14:35:31Z</time>
      </trkpt>
      <trkpt lat="42.352165" lon="8.907723">
        <ele>1428.4</ele>
        <time>2022-09-10T14:35:46Z</time>
      </trkpt>
      <trkpt lat="42.352108" lon="8.907748">
        <ele>1427.6</ele>
        <time>2022-09-10T14:35:54Z</time>
      </trkpt>
      <trkpt lat="42.352075" lon="8.907802">
        <ele>1426.4</ele>
        <time>2022-09-10T14:36:01Z</time>
      </trkpt>
      <trkpt lat="42.352073" lon="8.90781">
        <ele>1426.4</ele>
        <time>2022-09-10T14:36:02Z</time>
      </trkpt>
      <trkpt lat="42.352075" lon="8.90782">
        <ele>1425.2</ele>
        <time>2022-09-10T14:36:11Z</time>
      </trkpt>
      <trkpt lat="42.352062" lon="8.907787">
        <ele>1424.4</ele>
        <time>2022-09-10T14:36:15Z</time>
      </trkpt>
      <trkpt lat="42.352023" lon="8.907622">
        <ele>1423.8</ele>
        <time>2022-09-10T14:36:24Z</time>
      </trkpt>
      <trkpt lat="42.35196" lon="8.907488">
        <ele>1422.2</ele>
        <time>2022-09-10T14:36:36Z</time>
      </trkpt>
      <trkpt lat="42.351955" lon="8.907477">
        <ele>1422.0</ele>
        <time>2022-09-10T14:36:37Z</time>
      </trkpt>
      <trkpt lat="42.351947" lon="8.907393">
        <ele>1421.6</ele>
        <time>2022-09-10T14:36:44Z</time>
      </trkpt>
      <trkpt lat="42.351878" lon="8.90724">
        <ele>1421.8</ele>
        <time>2022-09-10T14:37:02Z</time>
      </trkpt>
      <trkpt lat="42.351848" lon="8.907217">
        <ele>1421.4</ele>
        <time>2022-09-10T14:37:07Z</time>
      </trkpt>
      <trkpt lat="42.351815" lon="8.907205">
        <ele>1420.6</ele>
        <time>2022-09-10T14:37:13Z</time>
      </trkpt>
      <trkpt lat="42.351715" lon="8.90719">
        <ele>1417.4</ele>
        <time>2022-09-10T14:37:38Z</time>
      </trkpt>
      <trkpt lat="42.351713" lon="8.907188">
        <ele>1417.4</ele>
        <time>2022-09-10T14:37:39Z</time>
      </trkpt>
      <trkpt lat="42.351622" lon="8.907243">
        <ele>1416.4</ele>
        <time>2022-09-10T14:37:55Z</time>
      </trkpt>
      <trkpt lat="42.351522" lon="8.907282">
        <ele>1415.2</ele>
        <time>2022-09-10T14:38:07Z</time>
      </trkpt>
      <trkpt lat="42.351352" lon="8.907318">
        <ele>1413.0</ele>
        <time>2022-09-10T14:38:32Z</time>
      </trkpt>
      <trkpt lat="42.351288" lon="8.907268">
        <ele>1414.0</ele>
        <time>2022-09-10T14:38:43Z</time>
      </trkpt>
      <trkpt lat="42.35128" lon="8.907265">
        <ele>1414.0</ele>
        <time>2022-09-10T14:38:44Z</time>
      </trkpt>
      <trkpt lat="42.351185" lon="8.907178">
        <ele>1414.8</ele>
        <time>2022-09-10T14:39:00Z</time>
      </trkpt>
      <trkpt lat="42.351133" lon="8.907107">
        <ele>1415.6</ele>
        <time>2022-09-10T14:39:08Z</time>
      </trkpt>
      <trkpt lat="42.351067" lon="8.907027">
        <ele>1416.2</ele>
        <time>2022-09-10T14:39:22Z</time>
      </trkpt>
      <trkpt lat="42.351062" lon="8.907013">
        <ele>1416.4</ele>
        <time>2022-09-10T14:39:24Z</time>
      </trkpt>
      <trkpt lat="42.351003" lon="8.907047">
        <ele>1416.8</ele>
        <time>2022-09-10T14:39:35Z</time>
      </trkpt>
      <trkpt lat="42.350968" lon="8.907063">
        <ele>1417.2</ele>
        <time>2022-09-10T14:39:40Z</time>
      </trkpt>
      <trkpt lat="42.35092" lon="8.907077">
        <ele>1418.0</ele>
        <time>2022-09-10T14:39:46Z</time>
      </trkpt>
      <trkpt lat="42.350828" lon="8.907103">
        <ele>1418.8</ele>
        <time>2022-09-10T14:39:58Z</time>
      </trkpt>
      <trkpt lat="42.35082" lon="8.907118">
        <ele>1418.8</ele>
        <time>2022-09-10T14:40:00Z</time>
      </trkpt>
      <trkpt lat="42.350775" lon="8.907112">
        <ele>1418.2</ele>
        <time>2022-09-10T14:40:07Z</time>
      </trkpt>
      <trkpt lat="42.350757" lon="8.907077">
        <ele>1417.8</ele>
        <time>2022-09-10T14:40:13Z</time>
      </trkpt>
      <trkpt lat="42.350752" lon="8.906992">
        <ele>1417.8</ele>
        <time>2022-09-10T14:40:27Z</time>
      </trkpt>
      <trkpt lat="42.35069" lon="8.906922">
        <ele>1416.8</ele>
        <time>2022-09-10T14:40:41Z</time>
      </trkpt>
      <trkpt lat="42.350653" lon="8.906805">
        <ele>1413.0</ele>
        <time>2022-09-10T14:41:27Z</time>
      </trkpt>
      <trkpt lat="42.350652" lon="8.906785">
        <ele>1412.8</ele>
        <time>2022-09-10T14:41:33Z</time>
      </trkpt>
      <trkpt lat="42.350575" lon="8.906798">
        <ele>1408.0</ele>
        <time>2022-09-10T14:42:32Z</time>
      </trkpt>
      <trkpt lat="42.350287" lon="8.906718">
        <ele>1407.0</ele>
        <time>2022-09-10T14:42:47Z</time>
      </trkpt>
      <trkpt lat="42.349885" lon="8.906998">
        <ele>1406.8</ele>
        <time>2022-09-10T14:42:59Z</time>
      </trkpt>
      <trkpt lat="42.34975" lon="8.907123">
        <ele>1406.6</ele>
        <time>2022-09-10T14:43:10Z</time>
      </trkpt>
      <trkpt lat="42.349703" lon="8.90707">
        <ele>1406.6</ele>
        <time>2022-09-10T14:43:10Z</time>
      </trkpt>
      <trkpt lat="42.34962" lon="8.906923">
        <ele>1405.6</ele>
        <time>2022-09-10T14:43:22Z</time>
      </trkpt>
      <trkpt lat="42.34961" lon="8.9069">
        <ele>1405.6</ele>
        <time>2022-09-10T14:43:24Z</time>
      </trkpt>
      <trkpt lat="42.34956" lon="8.90685">
        <ele>1405.6</ele>
        <time>2022-09-10T14:43:32Z</time>
      </trkpt>
      <trkpt lat="42.349547" lon="8.9068">
        <ele>1406.4</ele>
        <time>2022-09-10T14:43:38Z</time>
      </trkpt>
      <trkpt lat="42.349468" lon="8.906842">
        <ele>1406.0</ele>
        <time>2022-09-10T14:43:50Z</time>
      </trkpt>
      <trkpt lat="42.349385" lon="8.906882">
        <ele>1405.8</ele>
        <time>2022-09-10T14:44:04Z</time>
      </trkpt>
      <trkpt lat="42.349315" lon="8.906892">
        <ele>1406.0</ele>
        <time>2022-09-10T14:44:14Z</time>
      </trkpt>
      <trkpt lat="42.349247" lon="8.906902">
        <ele>1406.4</ele>
        <time>2022-09-10T14:44:22Z</time>
      </trkpt>
      <trkpt lat="42.349242" lon="8.90683">
        <ele>1407.0</ele>
        <time>2022-09-10T14:44:32Z</time>
      </trkpt>
      <trkpt lat="42.349187" lon="8.906775">
        <ele>1408.2</ele>
        <time>2022-09-10T14:44:43Z</time>
      </trkpt>
      <trkpt lat="42.349167" lon="8.906757">
        <ele>1408.4</ele>
        <time>2022-09-10T14:44:48Z</time>
      </trkpt>
      <trkpt lat="42.349133" lon="8.906712">
        <ele>1408.8</ele>
        <time>2022-09-10T14:44:56Z</time>
      </trkpt>
      <trkpt lat="42.349128" lon="8.906707">
        <ele>1409.0</ele>
        <time>2022-09-10T14:44:57Z</time>
      </trkpt>
      <trkpt lat="42.349018" lon="8.906602">
        <ele>1410.4</ele>
        <time>2022-09-10T14:45:14Z</time>
      </trkpt>
      <trkpt lat="42.34898" lon="8.9065">
        <ele>1410.8</ele>
        <time>2022-09-10T14:45:26Z</time>
      </trkpt>
      <trkpt lat="42.348967" lon="8.906483">
        <ele>1411.0</ele>
        <time>2022-09-10T14:45:29Z</time>
      </trkpt>
      <trkpt lat="42.34892" lon="8.90654">
        <ele>1411.2</ele>
        <time>2022-09-10T14:45:37Z</time>
      </trkpt>
      <trkpt lat="42.348862" lon="8.906605">
        <ele>1411.4</ele>
        <time>2022-09-10T14:45:46Z</time>
      </trkpt>
      <trkpt lat="42.348815" lon="8.90664">
        <ele>1411.8</ele>
        <time>2022-09-10T14:45:51Z</time>
      </trkpt>
      <trkpt lat="42.348772" lon="8.906753">
        <ele>1412.0</ele>
        <time>2022-09-10T14:46:01Z</time>
      </trkpt>
      <trkpt lat="42.348617" lon="8.906857">
        <ele>1412.8</ele>
        <time>2022-09-10T14:46:19Z</time>
      </trkpt>
      <trkpt lat="42.348603" lon="8.90685">
        <ele>1412.8</ele>
        <time>2022-09-10T14:46:20Z</time>
      </trkpt>
      <trkpt lat="42.34852" lon="8.906805">
        <ele>1413.2</ele>
        <time>2022-09-10T14:46:26Z</time>
      </trkpt>
      <trkpt lat="42.348483" lon="8.906758">
        <ele>1413.4</ele>
        <time>2022-09-10T14:46:30Z</time>
      </trkpt>
      <trkpt lat="42.348468" lon="8.906718">
        <ele>1413.4</ele>
        <time>2022-09-10T14:46:33Z</time>
      </trkpt>
      <trkpt lat="42.348515" lon="8.906468">
        <ele>1411.2</ele>
        <time>2022-09-10T14:55:06Z</time>
      </trkpt>
      <trkpt lat="42.348563" lon="8.90652">
        <ele>1410.4</ele>
        <time>2022-09-10T14:55:46Z</time>
      </trkpt>
      <trkpt lat="42.348557" lon="8.906522">
        <ele>1410.4</ele>
        <time>2022-09-10T14:55:47Z</time>
      </trkpt>
      <trkpt lat="42.34838" lon="8.906572">
        <ele>1411.0</ele>
        <time>2022-09-10T14:55:59Z</time>
      </trkpt>
      <trkpt lat="42.348338" lon="8.906575">
        <ele>1411.2</ele>
        <time>2022-09-10T14:56:01Z</time>
      </trkpt>
      <trkpt lat="42.348192" lon="8.906537">
        <ele>1412.0</ele>
        <time>2022-09-10T14:56:10Z</time>
      </trkpt>
      <trkpt lat="42.34813" lon="8.90651">
        <ele>1412.0</ele>
        <time>2022-09-10T14:56:13Z</time>
      </trkpt>
      <trkpt lat="42.348015" lon="8.906488">
        <ele>1412.4</ele>
        <time>2022-09-10T14:56:18Z</time>
      </trkpt>
      <trkpt lat="42.34796" lon="8.90651">
        <ele>1412.6</ele>
        <time>2022-09-10T14:56:21Z</time>
      </trkpt>
      <trkpt lat="42.347942" lon="8.906477">
        <ele>1412.6</ele>
        <time>2022-09-10T14:56:24Z</time>
      </trkpt>
      <trkpt lat="42.347908" lon="8.906418">
        <ele>1413.0</ele>
        <time>2022-09-10T14:56:30Z</time>
      </trkpt>
      <trkpt lat="42.347748" lon="8.90618">
        <ele>1413.4</ele>
        <time>2022-09-10T14:56:49Z</time>
      </trkpt>
      <trkpt lat="42.347718" lon="8.906113">
        <ele>1414.0</ele>
        <time>2022-09-10T14:56:54Z</time>
      </trkpt>
      <trkpt lat="42.347723" lon="8.906097">
        <ele>1414.0</ele>
        <time>2022-09-10T14:56:54Z</time>
      </trkpt>
      <trkpt lat="42.347777" lon="8.906015">
        <ele>1414.4</ele>
        <time>2022-09-10T14:57:00Z</time>
      </trkpt>
      <trkpt lat="42.347797" lon="8.905995">
        <ele>1415.2</ele>
        <time>2022-09-10T14:57:09Z</time>
      </trkpt>
      <trkpt lat="42.347745" lon="8.90617">
        <ele>1418.8</ele>
        <time>2022-09-10T14:57:50Z</time>
      </trkpt>
      <trkpt lat="42.347687" lon="8.906138">
        <ele>1418.6</ele>
        <time>2022-09-10T14:57:59Z</time>
      </trkpt>
      <trkpt lat="42.347647" lon="8.906102">
        <ele>1417.8</ele>
        <time>2022-09-10T14:58:04Z</time>
      </trkpt>
      <trkpt lat="42.347588" lon="8.906022">
        <ele>1417.6</ele>
        <time>2022-09-10T14:58:12Z</time>
      </trkpt>
      <trkpt lat="42.347533" lon="8.905988">
        <ele>1417.0</ele>
        <time>2022-09-10T14:58:19Z</time>
      </trkpt>
      <trkpt lat="42.347453" lon="8.90589">
        <ele>1417.0</ele>
        <time>2022-09-10T14:58:31Z</time>
      </trkpt>
      <trkpt lat="42.347422" lon="8.905893">
        <ele>1417.6</ele>
        <time>2022-09-10T14:58:35Z</time>
      </trkpt>
      <trkpt lat="42.347435" lon="8.905867">
        <ele>1417.4</ele>
        <time>2022-09-10T14:58:39Z</time>
      </trkpt>
      <trkpt lat="42.347487" lon="8.905807">
        <ele>1416.2</ele>
        <time>2022-09-10T14:58:48Z</time>
      </trkpt>
      <trkpt lat="42.347515" lon="8.90577">
        <ele>1414.8</ele>
        <time>2022-09-10T14:58:54Z</time>
      </trkpt>
      <trkpt lat="42.347555" lon="8.905747">
        <ele>1414.2</ele>
        <time>2022-09-10T14:58:59Z</time>
      </trkpt>
      <trkpt lat="42.347595" lon="8.90572">
        <ele>1413.8</ele>
        <time>2022-09-10T14:59:04Z</time>
      </trkpt>
      <trkpt lat="42.347647" lon="8.905677">
        <ele>1413.6</ele>
        <time>2022-09-10T14:59:11Z</time>
      </trkpt>
      <trkpt lat="42.347713" lon="8.905647">
        <ele>1412.2</ele>
        <time>2022-09-10T14:59:19Z</time>
      </trkpt>
      <trkpt lat="42.347722" lon="8.905643">
        <ele>1412.2</ele>
        <time>2022-09-10T14:59:20Z</time>
      </trkpt>
      <trkpt lat="42.347468" lon="8.905552">
        <ele>1411.2</ele>
        <time>2022-09-10T14:59:38Z</time>
      </trkpt>
      <trkpt lat="42.347377" lon="8.905492">
        <ele>1410.0</ele>
        <time>2022-09-10T14:59:47Z</time>
      </trkpt>
      <trkpt lat="42.347195" lon="8.905475">
        <ele>1409.2</ele>
        <time>2022-09-10T15:00:04Z</time>
      </trkpt>
      <trkpt lat="42.347185" lon="8.905473">
        <ele>1409.0</ele>
        <time>2022-09-10T15:00:05Z</time>
      </trkpt>
      <trkpt lat="42.34697" lon="8.90528">
        <ele>1405.8</ele>
        <time>2022-09-10T15:00:36Z</time>
      </trkpt>
      <trkpt lat="42.34693" lon="8.905207">
        <ele>1404.8</ele>
        <time>2022-09-10T15:00:44Z</time>
      </trkpt>
      <trkpt lat="42.346815" lon="8.905107">
        <ele>1401.4</ele>
        <time>2022-09-10T15:01:04Z</time>
      </trkpt>
      <trkpt lat="42.346758" lon="8.905155">
        <ele>1399.2</ele>
        <time>2022-09-10T15:01:32Z</time>
      </trkpt>
      <trkpt lat="42.346667" lon="8.905117">
        <ele>1397.4</ele>
        <time>2022-09-10T15:01:46Z</time>
      </trkpt>
      <trkpt lat="42.346552" lon="8.90495">
        <ele>1396.0</ele>
        <time>2022-09-10T15:02:02Z</time>
      </trkpt>
      <trkpt lat="42.34642" lon="8.904795">
        <ele>1394.6</ele>
        <time>2022-09-10T15:02:14Z</time>
      </trkpt>
      <trkpt lat="42.346327" lon="8.904752">
        <ele>1393.8</ele>
        <time>2022-09-10T15:02:20Z</time>
      </trkpt>
      <trkpt lat="42.346278" lon="8.904652">
        <ele>1392.8</ele>
        <time>2022-09-10T15:02:26Z</time>
      </trkpt>
      <trkpt lat="42.34627" lon="8.904613">
        <ele>1392.2</ele>
        <time>2022-09-10T15:02:28Z</time>
      </trkpt>
      <trkpt lat="42.346197" lon="8.904583">
        <ele>1391.4</ele>
        <time>2022-09-10T15:02:42Z</time>
      </trkpt>
      <trkpt lat="42.346172" lon="8.904565">
        <ele>1392.2</ele>
        <time>2022-09-10T15:02:50Z</time>
      </trkpt>
      <trkpt lat="42.346117" lon="8.904495">
        <ele>1392.2</ele>
        <time>2022-09-10T15:03:01Z</time>
      </trkpt>
      <trkpt lat="42.346055" lon="8.904448">
        <ele>1392.4</ele>
        <time>2022-09-10T15:03:16Z</time>
      </trkpt>
      <trkpt lat="42.346037" lon="8.904413">
        <ele>1392.8</ele>
        <time>2022-09-10T15:03:21Z</time>
      </trkpt>
      <trkpt lat="42.345993" lon="8.904285">
        <ele>1392.4</ele>
        <time>2022-09-10T15:03:34Z</time>
      </trkpt>
      <trkpt lat="42.345983" lon="8.904268">
        <ele>1392.2</ele>
        <time>2022-09-10T15:03:36Z</time>
      </trkpt>
      <trkpt lat="42.345908" lon="8.904323">
        <ele>1390.6</ele>
        <time>2022-09-10T15:03:48Z</time>
      </trkpt>
      <trkpt lat="42.345773" lon="8.904472">
        <ele>1388.6</ele>
        <time>2022-09-10T15:04:06Z</time>
      </trkpt>
      <trkpt lat="42.345733" lon="8.904472">
        <ele>1388.0</ele>
        <time>2022-09-10T15:04:10Z</time>
      </trkpt>
      <trkpt lat="42.345667" lon="8.904475">
        <ele>1387.2</ele>
        <time>2022-09-10T15:04:19Z</time>
      </trkpt>
      <trkpt lat="42.34563" lon="8.904435">
        <ele>1386.8</ele>
        <time>2022-09-10T15:04:26Z</time>
      </trkpt>
      <trkpt lat="42.345445" lon="8.904262">
        <ele>1389.8</ele>
        <time>2022-09-10T15:04:58Z</time>
      </trkpt>
      <trkpt lat="42.345397" lon="8.904247">
        <ele>1390.8</ele>
        <time>2022-09-10T15:05:06Z</time>
      </trkpt>
      <trkpt lat="42.345383" lon="8.904232">
        <ele>1390.8</ele>
        <time>2022-09-10T15:05:09Z</time>
      </trkpt>
      <trkpt lat="42.345328" lon="8.904227">
        <ele>1389.8</ele>
        <time>2022-09-10T15:05:18Z</time>
      </trkpt>
      <trkpt lat="42.345312" lon="8.904192">
        <ele>1388.8</ele>
        <time>2022-09-10T15:05:22Z</time>
      </trkpt>
      <trkpt lat="42.345293" lon="8.904145">
        <ele>1388.6</ele>
        <time>2022-09-10T15:05:28Z</time>
      </trkpt>
      <trkpt lat="42.345275" lon="8.904088">
        <ele>1388.4</ele>
        <time>2022-09-10T15:05:38Z</time>
      </trkpt>
      <trkpt lat="42.345263" lon="8.904043">
        <ele>1388.6</ele>
        <time>2022-09-10T15:05:47Z</time>
      </trkpt>
      <trkpt lat="42.345237" lon="8.904002">
        <ele>1389.0</ele>
        <time>2022-09-10T15:06:02Z</time>
      </trkpt>
      <trkpt lat="42.345235" lon="8.904">
        <ele>1389.0</ele>
        <time>2022-09-10T15:06:03Z</time>
      </trkpt>
      <trkpt lat="42.345222" lon="8.904078">
        <ele>1389.4</ele>
        <time>2022-09-10T15:06:13Z</time>
      </trkpt>
      <trkpt lat="42.344948" lon="8.904042">
        <ele>1389.4</ele>
        <time>2022-09-10T15:06:25Z</time>
      </trkpt>
      <trkpt lat="42.345047" lon="8.903618">
        <ele>1388.6</ele>
        <time>2022-09-10T15:06:36Z</time>
      </trkpt>
      <trkpt lat="42.345105" lon="8.903472">
        <ele>1387.0</ele>
        <time>2022-09-10T15:06:47Z</time>
      </trkpt>
      <trkpt lat="42.345025" lon="8.903488">
        <ele>1387.0</ele>
        <time>2022-09-10T15:06:48Z</time>
      </trkpt>
      <trkpt lat="42.344963" lon="8.903458">
        <ele>1386.4</ele>
        <time>2022-09-10T15:06:53Z</time>
      </trkpt>
      <trkpt lat="42.344912" lon="8.90344">
        <ele>1385.8</ele>
        <time>2022-09-10T15:06:57Z</time>
      </trkpt>
      <trkpt lat="42.344777" lon="8.90345">
        <ele>1385.2</ele>
        <time>2022-09-10T15:07:07Z</time>
      </trkpt>
      <trkpt lat="42.34465" lon="8.903375">
        <ele>1384.2</ele>
        <time>2022-09-10T15:07:18Z</time>
      </trkpt>
      <trkpt lat="42.34459" lon="8.903372">
        <ele>1384.2</ele>
        <time>2022-09-10T15:07:23Z</time>
      </trkpt>
      <trkpt lat="42.344553" lon="8.903375">
        <ele>1384.2</ele>
        <time>2022-09-10T15:07:26Z</time>
      </trkpt>
      <trkpt lat="42.344537" lon="8.903318">
        <ele>1383.4</ele>
        <time>2022-09-10T15:07:31Z</time>
      </trkpt>
      <trkpt lat="42.344538" lon="8.903225">
        <ele>1383.0</ele>
        <time>2022-09-10T15:07:38Z</time>
      </trkpt>
      <trkpt lat="42.344547" lon="8.903107">
        <ele>1381.4</ele>
        <time>2022-09-10T15:07:49Z</time>
      </trkpt>
      <trkpt lat="42.344538" lon="8.903018">
        <ele>1380.8</ele>
        <time>2022-09-10T15:07:58Z</time>
      </trkpt>
      <trkpt lat="42.344552" lon="8.902917">
        <ele>1378.4</ele>
        <time>2022-09-10T15:08:18Z</time>
      </trkpt>
      <trkpt lat="42.344508" lon="8.902762">
        <ele>1378.6</ele>
        <time>2022-09-10T15:08:28Z</time>
      </trkpt>
      <trkpt lat="42.344488" lon="8.902708">
        <ele>1378.6</ele>
        <time>2022-09-10T15:08:31Z</time>
      </trkpt>
      <trkpt lat="42.344437" lon="8.90258">
        <ele>1378.0</ele>
        <time>2022-09-10T15:08:40Z</time>
      </trkpt>
      <trkpt lat="42.344393" lon="8.902337">
        <ele>1377.6</ele>
        <time>2022-09-10T15:08:56Z</time>
      </trkpt>
      <trkpt lat="42.344375" lon="8.902295">
        <ele>1377.4</ele>
        <time>2022-09-10T15:09:00Z</time>
      </trkpt>
      <trkpt lat="42.34437" lon="8.902287">
        <ele>1377.4</ele>
        <time>2022-09-10T15:09:01Z</time>
      </trkpt>
      <trkpt lat="42.344345" lon="8.902303">
        <ele>1377.0</ele>
        <time>2022-09-10T15:09:07Z</time>
      </trkpt>
      <trkpt lat="42.344345" lon="8.902282">
        <ele>1376.4</ele>
        <time>2022-09-10T15:09:14Z</time>
      </trkpt>
      <trkpt lat="42.34434" lon="8.902262">
        <ele>1376.2</ele>
        <time>2022-09-10T15:09:20Z</time>
      </trkpt>
      <trkpt lat="42.344327" lon="8.902215">
        <ele>1376.4</ele>
        <time>2022-09-10T15:09:29Z</time>
      </trkpt>
      <trkpt lat="42.344313" lon="8.902182">
        <ele>1376.0</ele>
        <time>2022-09-10T15:09:34Z</time>
      </trkpt>
      <trkpt lat="42.3443" lon="8.902147">
        <ele>1375.8</ele>
        <time>2022-09-10T15:09:39Z</time>
      </trkpt>
      <trkpt lat="42.344302" lon="8.90212">
        <ele>1375.8</ele>
        <time>2022-09-10T15:09:43Z</time>
      </trkpt>
      <trkpt lat="42.344252" lon="8.902035">
        <ele>1375.4</ele>
        <time>2022-09-10T15:09:51Z</time>
      </trkpt>
      <trkpt lat="42.344215" lon="8.901993">
        <ele>1374.8</ele>
        <time>2022-09-10T15:09:56Z</time>
      </trkpt>
      <trkpt lat="42.34419" lon="8.901985">
        <ele>1374.6</ele>
        <time>2022-09-10T15:09:59Z</time>
      </trkpt>
      <trkpt lat="42.344162" lon="8.902013">
        <ele>1373.4</ele>
        <time>2022-09-10T15:10:08Z</time>
      </trkpt>
      <trkpt lat="42.34413" lon="8.901982">
        <ele>1372.0</ele>
        <time>2022-09-10T15:10:18Z</time>
      </trkpt>
      <trkpt lat="42.34405" lon="8.901863">
        <ele>1369.4</ele>
        <time>2022-09-10T15:10:32Z</time>
      </trkpt>
      <trkpt lat="42.34401" lon="8.901777">
        <ele>1369.2</ele>
        <time>2022-09-10T15:10:41Z</time>
      </trkpt>
      <trkpt lat="42.343953" lon="8.901685">
        <ele>1370.8</ele>
        <time>2022-09-10T15:11:04Z</time>
      </trkpt>
      <trkpt lat="42.343953" lon="8.90168">
        <ele>1370.8</ele>
        <time>2022-09-10T15:11:05Z</time>
      </trkpt>
      <trkpt lat="42.343917" lon="8.901607">
        <ele>1370.8</ele>
        <time>2022-09-10T15:11:18Z</time>
      </trkpt>
      <trkpt lat="42.343932" lon="8.901517">
        <ele>1370.4</ele>
        <time>2022-09-10T15:11:27Z</time>
      </trkpt>
      <trkpt lat="42.343913" lon="8.90148">
        <ele>1370.8</ele>
        <time>2022-09-10T15:11:35Z</time>
      </trkpt>
      <trkpt lat="42.343862" lon="8.901397">
        <ele>1371.0</ele>
        <time>2022-09-10T15:12:05Z</time>
      </trkpt>
      <trkpt lat="42.343828" lon="8.901367">
        <ele>1371.2</ele>
        <time>2022-09-10T15:12:08Z</time>
      </trkpt>
      <trkpt lat="42.343813" lon="8.901363">
        <ele>1371.2</ele>
        <time>2022-09-10T15:12:10Z</time>
      </trkpt>
      <trkpt lat="42.343725" lon="8.90136">
        <ele>1371.4</ele>
        <time>2022-09-10T15:12:18Z</time>
      </trkpt>
      <trkpt lat="42.343613" lon="8.901232">
        <ele>1372.6</ele>
        <time>2022-09-10T15:12:33Z</time>
      </trkpt>
      <trkpt lat="42.343545" lon="8.901088">
        <ele>1374.2</ele>
        <time>2022-09-10T15:12:49Z</time>
      </trkpt>
      <trkpt lat="42.343532" lon="8.901007">
        <ele>1374.2</ele>
        <time>2022-09-10T15:12:59Z</time>
      </trkpt>
      <trkpt lat="42.343525" lon="8.900983">
        <ele>1375.0</ele>
        <time>2022-09-10T15:13:08Z</time>
      </trkpt>
      <trkpt lat="42.343468" lon="8.90091">
        <ele>1376.0</ele>
        <time>2022-09-10T15:13:14Z</time>
      </trkpt>
      <trkpt lat="42.343345" lon="8.9008">
        <ele>1376.6</ele>
        <time>2022-09-10T15:13:25Z</time>
      </trkpt>
      <trkpt lat="42.343322" lon="8.90075">
        <ele>1376.8</ele>
        <time>2022-09-10T15:13:29Z</time>
      </trkpt>
      <trkpt lat="42.343312" lon="8.900725">
        <ele>1376.8</ele>
        <time>2022-09-10T15:13:31Z</time>
      </trkpt>
      <trkpt lat="42.343402" lon="8.900688">
        <ele>1377.2</ele>
        <time>2022-09-10T15:13:42Z</time>
      </trkpt>
      <trkpt lat="42.34343" lon="8.900647">
        <ele>1377.4</ele>
        <time>2022-09-10T15:13:51Z</time>
      </trkpt>
      <trkpt lat="42.343505" lon="8.900633">
        <ele>1377.2</ele>
        <time>2022-09-10T15:14:00Z</time>
      </trkpt>
      <trkpt lat="42.34354" lon="8.900627">
        <ele>1377.6</ele>
        <time>2022-09-10T15:14:04Z</time>
      </trkpt>
      <trkpt lat="42.343543" lon="8.900623">
        <ele>1377.6</ele>
        <time>2022-09-10T15:14:04Z</time>
      </trkpt>
      <trkpt lat="42.3434" lon="8.900592">
        <ele>1378.4</ele>
        <time>2022-09-10T15:14:20Z</time>
      </trkpt>
      <trkpt lat="42.343325" lon="8.90059">
        <ele>1378.6</ele>
        <time>2022-09-10T15:14:27Z</time>
      </trkpt>
      <trkpt lat="42.343193" lon="8.900512">
        <ele>1378.6</ele>
        <time>2022-09-10T15:14:42Z</time>
      </trkpt>
      <trkpt lat="42.343175" lon="8.90051">
        <ele>1378.6</ele>
        <time>2022-09-10T15:14:44Z</time>
      </trkpt>
      <trkpt lat="42.343128" lon="8.90053">
        <ele>1378.0</ele>
        <time>2022-09-10T15:14:50Z</time>
      </trkpt>
      <trkpt lat="42.34307" lon="8.900552">
        <ele>1377.2</ele>
        <time>2022-09-10T15:14:57Z</time>
      </trkpt>
      <trkpt lat="42.342978" lon="8.90056">
        <ele>1376.8</ele>
        <time>2022-09-10T15:15:16Z</time>
      </trkpt>
      <trkpt lat="42.34295" lon="8.900542">
        <ele>1376.4</ele>
        <time>2022-09-10T15:17:51Z</time>
      </trkpt>
      <trkpt lat="42.342925" lon="8.90053">
        <ele>1376.6</ele>
        <time>2022-09-10T15:17:53Z</time>
      </trkpt>
      <trkpt lat="42.342863" lon="8.900483">
        <ele>1377.4</ele>
        <time>2022-09-10T15:17:59Z</time>
      </trkpt>
      <trkpt lat="42.342848" lon="8.900478">
        <ele>1377.6</ele>
        <time>2022-09-10T15:18:02Z</time>
      </trkpt>
      <trkpt lat="42.342783" lon="8.90048">
        <ele>1378.4</ele>
        <time>2022-09-10T15:18:07Z</time>
      </trkpt>
      <trkpt lat="42.34276" lon="8.900485">
        <ele>1378.8</ele>
        <time>2022-09-10T15:18:09Z</time>
      </trkpt>
      <trkpt lat="42.342602" lon="8.900642">
        <ele>1380.8</ele>
        <time>2022-09-10T15:18:24Z</time>
      </trkpt>
      <trkpt lat="42.342497" lon="8.90078">
        <ele>1381.6</ele>
        <time>2022-09-10T15:18:41Z</time>
      </trkpt>
      <trkpt lat="42.342467" lon="8.900897">
        <ele>1380.6</ele>
        <time>2022-09-10T15:18:51Z</time>
      </trkpt>
      <trkpt lat="42.342468" lon="8.900943">
        <ele>1380.0</ele>
        <time>2022-09-10T15:18:54Z</time>
      </trkpt>
      <trkpt lat="42.342473" lon="8.90098">
        <ele>1379.4</ele>
        <time>2022-09-10T15:18:57Z</time>
      </trkpt>
      <trkpt lat="42.342467" lon="8.900992">
        <ele>1379.4</ele>
        <time>2022-09-10T15:18:58Z</time>
      </trkpt>
      <trkpt lat="42.342325" lon="8.901143">
        <ele>1377.8</ele>
        <time>2022-09-10T15:19:16Z</time>
      </trkpt>
      <trkpt lat="42.34229" lon="8.9012">
        <ele>1378.0</ele>
        <time>2022-09-10T15:19:21Z</time>
      </trkpt>
      <trkpt lat="42.342245" lon="8.901328">
        <ele>1377.8</ele>
        <time>2022-09-10T15:19:32Z</time>
      </trkpt>
      <trkpt lat="42.342253" lon="8.901372">
        <ele>1377.0</ele>
        <time>2022-09-10T15:19:37Z</time>
      </trkpt>
      <trkpt lat="42.342237" lon="8.901455">
        <ele>1376.6</ele>
        <time>2022-09-10T15:19:50Z</time>
      </trkpt>
      <trkpt lat="42.342198" lon="8.90157">
        <ele>1377.2</ele>
        <time>2022-09-10T15:20:07Z</time>
      </trkpt>
      <trkpt lat="42.34218" lon="8.901627">
        <ele>1377.0</ele>
        <time>2022-09-10T15:20:24Z</time>
      </trkpt>
      <trkpt lat="42.342107" lon="8.901643">
        <ele>1377.2</ele>
        <time>2022-09-10T15:20:33Z</time>
      </trkpt>
      <trkpt lat="42.341937" lon="8.901798">
        <ele>1378.8</ele>
        <time>2022-09-10T15:20:56Z</time>
      </trkpt>
      <trkpt lat="42.341795" lon="8.901998">
        <ele>1379.8</ele>
        <time>2022-09-10T15:21:07Z</time>
      </trkpt>
      <trkpt lat="42.341793" lon="8.902053">
        <ele>1380.4</ele>
        <time>2022-09-10T15:21:11Z</time>
      </trkpt>
      <trkpt lat="42.341773" lon="8.902187">
        <ele>1384.4</ele>
        <time>2022-09-10T15:21:31Z</time>
      </trkpt>
      <trkpt lat="42.341772" lon="8.902225">
        <ele>1385.2</ele>
        <time>2022-09-10T15:21:38Z</time>
      </trkpt>
      <trkpt lat="42.341742" lon="8.902228">
        <ele>1385.6</ele>
        <time>2022-09-10T15:21:45Z</time>
      </trkpt>
      <trkpt lat="42.341708" lon="8.90216">
        <ele>1386.4</ele>
        <time>2022-09-10T15:21:55Z</time>
      </trkpt>
      <trkpt lat="42.341648" lon="8.90216">
        <ele>1386.6</ele>
        <time>2022-09-10T15:22:01Z</time>
      </trkpt>
      <trkpt lat="42.341612" lon="8.902167">
        <ele>1387.6</ele>
        <time>2022-09-10T15:22:05Z</time>
      </trkpt>
      <trkpt lat="42.341485" lon="8.902157">
        <ele>1389.2</ele>
        <time>2022-09-10T15:22:17Z</time>
      </trkpt>
      <trkpt lat="42.341368" lon="8.902175">
        <ele>1390.2</ele>
        <time>2022-09-10T15:22:31Z</time>
      </trkpt>
      <trkpt lat="42.341303" lon="8.902158">
        <ele>1391.6</ele>
        <time>2022-09-10T15:22:41Z</time>
      </trkpt>
      <trkpt lat="42.341267" lon="8.902128">
        <ele>1393.8</ele>
        <time>2022-09-10T15:22:53Z</time>
      </trkpt>
      <trkpt lat="42.341263" lon="8.902148">
        <ele>1394.4</ele>
        <time>2022-09-10T15:22:57Z</time>
      </trkpt>
      <trkpt lat="42.341248" lon="8.902212">
        <ele>1395.0</ele>
        <time>2022-09-10T15:23:05Z</time>
      </trkpt>
      <trkpt lat="42.341205" lon="8.902228">
        <ele>1394.6</ele>
        <time>2022-09-10T15:23:09Z</time>
      </trkpt>
      <trkpt lat="42.34086" lon="8.90222">
        <ele>1391.6</ele>
        <time>2022-09-10T15:23:29Z</time>
      </trkpt>
      <trkpt lat="42.340847" lon="8.90225">
        <ele>1391.4</ele>
        <time>2022-09-10T15:23:31Z</time>
      </trkpt>
      <trkpt lat="42.340693" lon="8.902157">
        <ele>1388.8</ele>
        <time>2022-09-10T15:23:49Z</time>
      </trkpt>
      <trkpt lat="42.340655" lon="8.902117">
        <ele>1388.0</ele>
        <time>2022-09-10T15:23:55Z</time>
      </trkpt>
      <trkpt lat="42.34061" lon="8.902087">
        <ele>1386.4</ele>
        <time>2022-09-10T15:24:02Z</time>
      </trkpt>
      <trkpt lat="42.3406" lon="8.902032">
        <ele>1385.2</ele>
        <time>2022-09-10T15:24:36Z</time>
      </trkpt>
      <trkpt lat="42.340557" lon="8.902005">
        <ele>1384.0</ele>
        <time>2022-09-10T15:24:56Z</time>
      </trkpt>
      <trkpt lat="42.340505" lon="8.902028">
        <ele>1383.0</ele>
        <time>2022-09-10T15:25:09Z</time>
      </trkpt>
      <trkpt lat="42.340493" lon="8.902017">
        <ele>1382.8</ele>
        <time>2022-09-10T15:25:12Z</time>
      </trkpt>
      <trkpt lat="42.34048" lon="8.902015">
        <ele>1382.0</ele>
        <time>2022-09-10T15:25:18Z</time>
      </trkpt>
      <trkpt lat="42.340463" lon="8.902015">
        <ele>1381.4</ele>
        <time>2022-09-10T15:25:24Z</time>
      </trkpt>
      <trkpt lat="42.340447" lon="8.901998">
        <ele>1381.4</ele>
        <time>2022-09-10T15:25:30Z</time>
      </trkpt>
      <trkpt lat="42.340417" lon="8.902015">
        <ele>1381.6</ele>
        <time>2022-09-10T15:25:37Z</time>
      </trkpt>
      <trkpt lat="42.340412" lon="8.90207">
        <ele>1381.6</ele>
        <time>2022-09-10T15:25:44Z</time>
      </trkpt>
      <trkpt lat="42.340407" lon="8.902103">
        <ele>1380.6</ele>
        <time>2022-09-10T15:25:49Z</time>
      </trkpt>
      <trkpt lat="42.34038" lon="8.902132">
        <ele>1379.6</ele>
        <time>2022-09-10T15:25:59Z</time>
      </trkpt>
      <trkpt lat="42.340378" lon="8.902132">
        <ele>1379.6</ele>
        <time>2022-09-10T15:26:00Z</time>
      </trkpt>
      <trkpt lat="42.340268" lon="8.902158">
        <ele>1378.8</ele>
        <time>2022-09-10T15:26:13Z</time>
      </trkpt>
      <trkpt lat="42.340245" lon="8.902148">
        <ele>1380.4</ele>
        <time>2022-09-10T15:26:34Z</time>
      </trkpt>
      <trkpt lat="42.340177" lon="8.902157">
        <ele>1383.4</ele>
        <time>2022-09-10T15:26:57Z</time>
      </trkpt>
      <trkpt lat="42.340122" lon="8.902167">
        <ele>1385.2</ele>
        <time>2022-09-10T15:27:16Z</time>
      </trkpt>
      <trkpt lat="42.34005" lon="8.902272">
        <ele>1385.0</ele>
        <time>2022-09-10T15:27:37Z</time>
      </trkpt>
      <trkpt lat="42.339847" lon="8.902345">
        <ele>1385.4</ele>
        <time>2022-09-10T15:27:56Z</time>
      </trkpt>
      <trkpt lat="42.339768" lon="8.902382">
        <ele>1385.2</ele>
        <time>2022-09-10T15:28:01Z</time>
      </trkpt>
      <trkpt lat="42.339712" lon="8.902398">
        <ele>1385.2</ele>
        <time>2022-09-10T15:28:04Z</time>
      </trkpt>
      <trkpt lat="42.339612" lon="8.90241">
        <ele>1385.0</ele>
        <time>2022-09-10T15:28:09Z</time>
      </trkpt>
      <trkpt lat="42.33943" lon="8.902427">
        <ele>1385.6</ele>
        <time>2022-09-10T15:28:18Z</time>
      </trkpt>
      <trkpt lat="42.33907" lon="8.902508">
        <ele>1387.0</ele>
        <time>2022-09-10T15:28:38Z</time>
      </trkpt>
      <trkpt lat="42.33902" lon="8.9025">
        <ele>1387.8</ele>
        <time>2022-09-10T15:28:43Z</time>
      </trkpt>
      <trkpt lat="42.338955" lon="8.902472">
        <ele>1388.4</ele>
        <time>2022-09-10T15:28:52Z</time>
      </trkpt>
      <trkpt lat="42.338893" lon="8.902467">
        <ele>1389.2</ele>
        <time>2022-09-10T15:29:01Z</time>
      </trkpt>
      <trkpt lat="42.338848" lon="8.90241">
        <ele>1390.2</ele>
        <time>2022-09-10T15:29:12Z</time>
      </trkpt>
      <trkpt lat="42.338827" lon="8.902372">
        <ele>1391.6</ele>
        <time>2022-09-10T15:29:21Z</time>
      </trkpt>
      <trkpt lat="42.338792" lon="8.902337">
        <ele>1392.2</ele>
        <time>2022-09-10T15:29:32Z</time>
      </trkpt>
      <trkpt lat="42.33879" lon="8.902293">
        <ele>1393.4</ele>
        <time>2022-09-10T15:29:42Z</time>
      </trkpt>
      <trkpt lat="42.338787" lon="8.902275">
        <ele>1393.6</ele>
        <time>2022-09-10T15:29:47Z</time>
      </trkpt>
      <trkpt lat="42.338767" lon="8.902192">
        <ele>1394.2</ele>
        <time>2022-09-10T15:30:09Z</time>
      </trkpt>
      <trkpt lat="42.338733" lon="8.902187">
        <ele>1393.2</ele>
        <time>2022-09-10T15:30:24Z</time>
      </trkpt>
      <trkpt lat="42.33872" lon="8.902118">
        <ele>1394.0</ele>
        <time>2022-09-10T15:30:47Z</time>
      </trkpt>
      <trkpt lat="42.338502" lon="8.901867">
        <ele>1394.8</ele>
        <time>2022-09-10T15:31:03Z</time>
      </trkpt>
      <trkpt lat="42.338495" lon="8.901853">
        <ele>1395.0</ele>
        <time>2022-09-10T15:31:04Z</time>
      </trkpt>
      <trkpt lat="42.338432" lon="8.901703">
        <ele>1395.6</ele>
        <time>2022-09-10T15:31:16Z</time>
      </trkpt>
      <trkpt lat="42.338367" lon="8.901593">
        <ele>1396.0</ele>
        <time>2022-09-10T15:31:27Z</time>
      </trkpt>
      <trkpt lat="42.338343" lon="8.90152">
        <ele>1396.0</ele>
        <time>2022-09-10T15:31:32Z</time>
      </trkpt>
      <trkpt lat="42.338315" lon="8.901408">
        <ele>1395.4</ele>
        <time>2022-09-10T15:31:40Z</time>
      </trkpt>
      <trkpt lat="42.338287" lon="8.901373">
        <ele>1395.4</ele>
        <time>2022-09-10T15:31:44Z</time>
      </trkpt>
      <trkpt lat="42.338242" lon="8.901312">
        <ele>1395.2</ele>
        <time>2022-09-10T15:31:51Z</time>
      </trkpt>
      <trkpt lat="42.33815" lon="8.90111">
        <ele>1395.0</ele>
        <time>2022-09-10T15:32:10Z</time>
      </trkpt>
      <trkpt lat="42.338148" lon="8.901097">
        <ele>1395.0</ele>
        <time>2022-09-10T15:32:11Z</time>
      </trkpt>
      <trkpt lat="42.338147" lon="8.901083">
        <ele>1395.0</ele>
        <time>2022-09-10T15:32:12Z</time>
      </trkpt>
      <trkpt lat="42.338148" lon="8.901005">
        <ele>1395.8</ele>
        <time>2022-09-10T15:32:18Z</time>
      </trkpt>
      <trkpt lat="42.338122" lon="8.900945">
        <ele>1396.4</ele>
        <time>2022-09-10T15:32:23Z</time>
      </trkpt>
      <trkpt lat="42.338048" lon="8.900893">
        <ele>1396.8</ele>
        <time>2022-09-10T15:34:14Z</time>
      </trkpt>
      <trkpt lat="42.33804" lon="8.90089">
        <ele>1396.8</ele>
        <time>2022-09-10T15:34:18Z</time>
      </trkpt>
      <trkpt lat="42.338002" lon="8.900812">
        <ele>1396.6</ele>
        <time>2022-09-10T15:34:25Z</time>
      </trkpt>
      <trkpt lat="42.338002" lon="8.900687">
        <ele>1396.0</ele>
        <time>2022-09-10T15:34:30Z</time>
      </trkpt>
      <trkpt lat="42.337995" lon="8.90061">
        <ele>1396.0</ele>
        <time>2022-09-10T15:34:33Z</time>
      </trkpt>
      <trkpt lat="42.337947" lon="8.900488">
        <ele>1396.4</ele>
        <time>2022-09-10T15:34:40Z</time>
      </trkpt>
      <trkpt lat="42.337862" lon="8.900345">
        <ele>1395.4</ele>
        <time>2022-09-10T15:34:48Z</time>
      </trkpt>
      <trkpt lat="42.337797" lon="8.900223">
        <ele>1394.8</ele>
        <time>2022-09-10T15:34:53Z</time>
      </trkpt>
      <trkpt lat="42.337798" lon="8.90014">
        <ele>1394.4</ele>
        <time>2022-09-10T15:34:58Z</time>
      </trkpt>
      <trkpt lat="42.337855" lon="8.89992">
        <ele>1393.8</ele>
        <time>2022-09-10T15:35:12Z</time>
      </trkpt>
      <trkpt lat="42.337895" lon="8.899643">
        <ele>1394.2</ele>
        <time>2022-09-10T15:35:32Z</time>
      </trkpt>
      <trkpt lat="42.337898" lon="8.899572">
        <ele>1394.8</ele>
        <time>2022-09-10T15:35:38Z</time>
      </trkpt>
      <trkpt lat="42.337828" lon="8.899573">
        <ele>1396.2</ele>
        <time>2022-09-10T15:35:47Z</time>
      </trkpt>
      <trkpt lat="42.337727" lon="8.899592">
        <ele>1399.4</ele>
        <time>2022-09-10T15:36:11Z</time>
      </trkpt>
      <trkpt lat="42.337653" lon="8.899553">
        <ele>1399.0</ele>
        <time>2022-09-10T15:36:18Z</time>
      </trkpt>
      <trkpt lat="42.337612" lon="8.899533">
        <ele>1398.8</ele>
        <time>2022-09-10T15:36:22Z</time>
      </trkpt>
      <trkpt lat="42.337455" lon="8.899372">
        <ele>1399.4</ele>
        <time>2022-09-10T15:36:33Z</time>
      </trkpt>
      <trkpt lat="42.337468" lon="8.899232">
        <ele>1400.2</ele>
        <time>2022-09-10T15:36:42Z</time>
      </trkpt>
      <trkpt lat="42.337447" lon="8.899093">
        <ele>1400.6</ele>
        <time>2022-09-10T15:36:50Z</time>
      </trkpt>
      <trkpt lat="42.337445" lon="8.899025">
        <ele>1400.4</ele>
        <time>2022-09-10T15:36:54Z</time>
      </trkpt>
      <trkpt lat="42.33745" lon="8.898913">
        <ele>1400.2</ele>
        <time>2022-09-10T15:37:01Z</time>
      </trkpt>
      <trkpt lat="42.337433" lon="8.8988">
        <ele>1400.4</ele>
        <time>2022-09-10T15:37:09Z</time>
      </trkpt>
      <trkpt lat="42.337417" lon="8.898727">
        <ele>1400.4</ele>
        <time>2022-09-10T15:37:15Z</time>
      </trkpt>
      <trkpt lat="42.337417" lon="8.898695">
        <ele>1400.0</ele>
        <time>2022-09-10T15:37:18Z</time>
      </trkpt>
      <trkpt lat="42.337358" lon="8.898615">
        <ele>1398.2</ele>
        <time>2022-09-10T15:37:28Z</time>
      </trkpt>
      <trkpt lat="42.33734" lon="8.898567">
        <ele>1398.8</ele>
        <time>2022-09-10T15:37:34Z</time>
      </trkpt>
      <trkpt lat="42.337278" lon="8.898543">
        <ele>1399.4</ele>
        <time>2022-09-10T15:37:40Z</time>
      </trkpt>
      <trkpt lat="42.337225" lon="8.89852">
        <ele>1399.2</ele>
        <time>2022-09-10T15:37:45Z</time>
      </trkpt>
      <trkpt lat="42.337167" lon="8.898457">
        <ele>1398.2</ele>
        <time>2022-09-10T15:37:52Z</time>
      </trkpt>
      <trkpt lat="42.337045" lon="8.89825">
        <ele>1399.4</ele>
        <time>2022-09-10T15:38:13Z</time>
      </trkpt>
      <trkpt lat="42.337012" lon="8.898177">
        <ele>1401.4</ele>
        <time>2022-09-10T15:38:24Z</time>
      </trkpt>
      <trkpt lat="42.336942" lon="8.898153">
        <ele>1402.4</ele>
        <time>2022-09-10T15:38:39Z</time>
      </trkpt>
      <trkpt lat="42.336875" lon="8.898138">
        <ele>1403.4</ele>
        <time>2022-09-10T15:38:51Z</time>
      </trkpt>
      <trkpt lat="42.336857" lon="8.898117">
        <ele>1405.0</ele>
        <time>2022-09-10T15:38:59Z</time>
      </trkpt>
      <trkpt lat="42.33686" lon="8.898095">
        <ele>1405.2</ele>
        <time>2022-09-10T15:39:03Z</time>
      </trkpt>
      <trkpt lat="42.336878" lon="8.898062">
        <ele>1406.4</ele>
        <time>2022-09-10T15:39:10Z</time>
      </trkpt>
      <trkpt lat="42.336838" lon="8.898002">
        <ele>1409.2</ele>
        <time>2022-09-10T15:39:28Z</time>
      </trkpt>
      <trkpt lat="42.33685" lon="8.897945">
        <ele>1409.4</ele>
        <time>2022-09-10T15:39:35Z</time>
      </trkpt>
      <trkpt lat="42.336818" lon="8.89785">
        <ele>1410.4</ele>
        <time>2022-09-10T15:39:46Z</time>
      </trkpt>
      <trkpt lat="42.336803" lon="8.897827">
        <ele>1410.8</ele>
        <time>2022-09-10T15:39:49Z</time>
      </trkpt>
      <trkpt lat="42.336793" lon="8.897793">
        <ele>1411.0</ele>
        <time>2022-09-10T15:39:55Z</time>
      </trkpt>
      <trkpt lat="42.336783" lon="8.89776">
        <ele>1411.0</ele>
        <time>2022-09-10T15:40:00Z</time>
      </trkpt>
      <trkpt lat="42.336817" lon="8.897703">
        <ele>1409.6</ele>
        <time>2022-09-10T15:40:12Z</time>
      </trkpt>
      <trkpt lat="42.336828" lon="8.897683">
        <ele>1408.8</ele>
        <time>2022-09-10T15:40:22Z</time>
      </trkpt>
      <trkpt lat="42.33685" lon="8.89767">
        <ele>1409.0</ele>
        <time>2022-09-10T15:40:28Z</time>
      </trkpt>
      <trkpt lat="42.33686" lon="8.897665">
        <ele>1409.0</ele>
        <time>2022-09-10T15:40:31Z</time>
      </trkpt>
      <trkpt lat="42.336842" lon="8.897615">
        <ele>1409.4</ele>
        <time>2022-09-10T15:40:36Z</time>
      </trkpt>
      <trkpt lat="42.336795" lon="8.897535">
        <ele>1409.4</ele>
        <time>2022-09-10T15:40:44Z</time>
      </trkpt>
      <trkpt lat="42.336738" lon="8.897312">
        <ele>1406.2</ele>
        <time>2022-09-10T15:41:03Z</time>
      </trkpt>
      <trkpt lat="42.336642" lon="8.897228">
        <ele>1404.8</ele>
        <time>2022-09-10T15:41:14Z</time>
      </trkpt>
      <trkpt lat="42.336605" lon="8.897167">
        <ele>1404.0</ele>
        <time>2022-09-10T15:41:21Z</time>
      </trkpt>
      <trkpt lat="42.336538" lon="8.897058">
        <ele>1403.0</ele>
        <time>2022-09-10T15:41:32Z</time>
      </trkpt>
      <trkpt lat="42.336498" lon="8.896967">
        <ele>1402.8</ele>
        <time>2022-09-10T15:41:41Z</time>
      </trkpt>
      <trkpt lat="42.336468" lon="8.896878">
        <ele>1402.2</ele>
        <time>2022-09-10T15:41:49Z</time>
      </trkpt>
      <trkpt lat="42.336422" lon="8.896825">
        <ele>1401.8</ele>
        <time>2022-09-10T15:41:55Z</time>
      </trkpt>
      <trkpt lat="42.3364" lon="8.896803">
        <ele>1401.2</ele>
        <time>2022-09-10T15:41:59Z</time>
      </trkpt>
      <trkpt lat="42.336342" lon="8.896757">
        <ele>1399.8</ele>
        <time>2022-09-10T15:42:07Z</time>
      </trkpt>
      <trkpt lat="42.336308" lon="8.896705">
        <ele>1398.6</ele>
        <time>2022-09-10T15:42:14Z</time>
      </trkpt>
      <trkpt lat="42.336283" lon="8.896602">
        <ele>1399.0</ele>
        <time>2022-09-10T15:42:31Z</time>
      </trkpt>
      <trkpt lat="42.336287" lon="8.89658">
        <ele>1399.6</ele>
        <time>2022-09-10T15:42:36Z</time>
      </trkpt>
      <trkpt lat="42.336273" lon="8.896557">
        <ele>1399.8</ele>
        <time>2022-09-10T15:42:43Z</time>
      </trkpt>
      <trkpt lat="42.33628" lon="8.896497">
        <ele>1400.0</ele>
        <time>2022-09-10T15:42:50Z</time>
      </trkpt>
      <trkpt lat="42.336348" lon="8.896412">
        <ele>1400.8</ele>
        <time>2022-09-10T15:43:02Z</time>
      </trkpt>
      <trkpt lat="42.336397" lon="8.89623">
        <ele>1402.4</ele>
        <time>2022-09-10T15:43:18Z</time>
      </trkpt>
      <trkpt lat="42.336427" lon="8.89616">
        <ele>1403.6</ele>
        <time>2022-09-10T15:43:25Z</time>
      </trkpt>
      <trkpt lat="42.336373" lon="8.896038">
        <ele>1405.6</ele>
        <time>2022-09-10T15:43:41Z</time>
      </trkpt>
      <trkpt lat="42.336358" lon="8.895997">
        <ele>1405.8</ele>
        <time>2022-09-10T15:43:45Z</time>
      </trkpt>
      <trkpt lat="42.336335" lon="8.895938">
        <ele>1406.0</ele>
        <time>2022-09-10T15:43:50Z</time>
      </trkpt>
      <trkpt lat="42.336272" lon="8.895848">
        <ele>1407.0</ele>
        <time>2022-09-10T15:43:59Z</time>
      </trkpt>
      <trkpt lat="42.33623" lon="8.8958">
        <ele>1407.6</ele>
        <time>2022-09-10T15:44:05Z</time>
      </trkpt>
      <trkpt lat="42.336215" lon="8.895785">
        <ele>1407.6</ele>
        <time>2022-09-10T15:44:07Z</time>
      </trkpt>
      <trkpt lat="42.336138" lon="8.895652">
        <ele>1409.4</ele>
        <time>2022-09-10T15:44:24Z</time>
      </trkpt>
      <trkpt lat="42.336137" lon="8.895622">
        <ele>1412.2</ele>
        <time>2022-09-10T15:44:46Z</time>
      </trkpt>
      <trkpt lat="42.336133" lon="8.895598">
        <ele>1413.6</ele>
        <time>2022-09-10T15:44:52Z</time>
      </trkpt>
      <trkpt lat="42.336132" lon="8.89557">
        <ele>1414.2</ele>
        <time>2022-09-10T15:44:58Z</time>
      </trkpt>
      <trkpt lat="42.336122" lon="8.895447">
        <ele>1415.8</ele>
        <time>2022-09-10T15:45:14Z</time>
      </trkpt>
      <trkpt lat="42.336108" lon="8.895413">
        <ele>1416.4</ele>
        <time>2022-09-10T15:45:20Z</time>
      </trkpt>
      <trkpt lat="42.336063" lon="8.89533">
        <ele>1416.6</ele>
        <time>2022-09-10T15:45:32Z</time>
      </trkpt>
      <trkpt lat="42.336052" lon="8.895308">
        <ele>1416.2</ele>
        <time>2022-09-10T15:45:36Z</time>
      </trkpt>
      <trkpt lat="42.336045" lon="8.895302">
        <ele>1416.2</ele>
        <time>2022-09-10T15:45:38Z</time>
      </trkpt>
      <trkpt lat="42.336057" lon="8.89521">
        <ele>1415.4</ele>
        <time>2022-09-10T15:45:46Z</time>
      </trkpt>
      <trkpt lat="42.33606" lon="8.895155">
        <ele>1415.4</ele>
        <time>2022-09-10T15:45:51Z</time>
      </trkpt>
      <trkpt lat="42.336065" lon="8.895115">
        <ele>1417.0</ele>
        <time>2022-09-10T15:46:04Z</time>
      </trkpt>
      <trkpt lat="42.336173" lon="8.895033">
        <ele>1421.6</ele>
        <time>2022-09-10T15:46:38Z</time>
      </trkpt>
      <trkpt lat="42.336208" lon="8.894952">
        <ele>1423.2</ele>
        <time>2022-09-10T15:46:55Z</time>
      </trkpt>
      <trkpt lat="42.336297" lon="8.894805">
        <ele>1424.4</ele>
        <time>2022-09-10T15:47:17Z</time>
      </trkpt>
      <trkpt lat="42.3363" lon="8.894797">
        <ele>1424.4</ele>
        <time>2022-09-10T15:47:18Z</time>
      </trkpt>
      <trkpt lat="42.336282" lon="8.894757">
        <ele>1424.6</ele>
        <time>2022-09-10T15:47:22Z</time>
      </trkpt>
      <trkpt lat="42.336245" lon="8.894712">
        <ele>1425.0</ele>
        <time>2022-09-10T15:47:28Z</time>
      </trkpt>
      <trkpt lat="42.336173" lon="8.894668">
        <ele>1425.0</ele>
        <time>2022-09-10T15:47:38Z</time>
      </trkpt>
      <trkpt lat="42.336113" lon="8.894575">
        <ele>1424.8</ele>
        <time>2022-09-10T15:47:49Z</time>
      </trkpt>
      <trkpt lat="42.336105" lon="8.894557">
        <ele>1424.8</ele>
        <time>2022-09-10T15:47:51Z</time>
      </trkpt>
      <trkpt lat="42.3361" lon="8.894523">
        <ele>1425.4</ele>
        <time>2022-09-10T15:47:57Z</time>
      </trkpt>
      <trkpt lat="42.336112" lon="8.894473">
        <ele>1425.8</ele>
        <time>2022-09-10T15:48:05Z</time>
      </trkpt>
      <trkpt lat="42.336015" lon="8.894418">
        <ele>1426.8</ele>
        <time>2022-09-10T15:48:18Z</time>
      </trkpt>
      <trkpt lat="42.335977" lon="8.894413">
        <ele>1427.2</ele>
        <time>2022-09-10T15:48:21Z</time>
      </trkpt>
      <trkpt lat="42.335945" lon="8.894413">
        <ele>1427.4</ele>
        <time>2022-09-10T15:48:23Z</time>
      </trkpt>
      <trkpt lat="42.335933" lon="8.894323">
        <ele>1428.2</ele>
        <time>2022-09-10T15:48:29Z</time>
      </trkpt>
      <trkpt lat="42.335943" lon="8.894203">
        <ele>1428.6</ele>
        <time>2022-09-10T15:48:39Z</time>
      </trkpt>
      <trkpt lat="42.335907" lon="8.894035">
        <ele>1429.2</ele>
        <time>2022-09-10T15:48:53Z</time>
      </trkpt>
      <trkpt lat="42.335908" lon="8.894005">
        <ele>1429.0</ele>
        <time>2022-09-10T15:48:57Z</time>
      </trkpt>
      <trkpt lat="42.336008" lon="8.893752">
        <ele>1428.6</ele>
        <time>2022-09-10T15:49:22Z</time>
      </trkpt>
      <trkpt lat="42.335987" lon="8.893683">
        <ele>1429.2</ele>
        <time>2022-09-10T15:49:29Z</time>
      </trkpt>
      <trkpt lat="42.33602" lon="8.893578">
        <ele>1430.4</ele>
        <time>2022-09-10T15:49:41Z</time>
      </trkpt>
      <trkpt lat="42.33602" lon="8.89357">
        <ele>1430.6</ele>
        <time>2022-09-10T15:49:42Z</time>
      </trkpt>
      <trkpt lat="42.33599" lon="8.893558">
        <ele>1431.2</ele>
        <time>2022-09-10T15:49:47Z</time>
      </trkpt>
      <trkpt lat="42.33589" lon="8.893512">
        <ele>1431.6</ele>
        <time>2022-09-10T15:50:00Z</time>
      </trkpt>
      <trkpt lat="42.335812" lon="8.893487">
        <ele>1433.0</ele>
        <time>2022-09-10T15:50:11Z</time>
      </trkpt>
      <trkpt lat="42.335697" lon="8.893362">
        <ele>1435.0</ele>
        <time>2022-09-10T15:50:29Z</time>
      </trkpt>
      <trkpt lat="42.335715" lon="8.893328">
        <ele>1435.4</ele>
        <time>2022-09-10T15:50:32Z</time>
      </trkpt>
      <trkpt lat="42.335745" lon="8.893295">
        <ele>1436.6</ele>
        <time>2022-09-10T15:50:40Z</time>
      </trkpt>
      <trkpt lat="42.335782" lon="8.893167">
        <ele>1439.8</ele>
        <time>2022-09-10T15:51:10Z</time>
      </trkpt>
      <trkpt lat="42.335775" lon="8.893142">
        <ele>1440.4</ele>
        <time>2022-09-10T15:51:13Z</time>
      </trkpt>
      <trkpt lat="42.335793" lon="8.893075">
        <ele>1441.8</ele>
        <time>2022-09-10T15:51:21Z</time>
      </trkpt>
      <trkpt lat="42.335787" lon="8.893018">
        <ele>1442.2</ele>
        <time>2022-09-10T15:51:37Z</time>
      </trkpt>
      <trkpt lat="42.335778" lon="8.892925">
        <ele>1444.6</ele>
        <time>2022-09-10T15:51:54Z</time>
      </trkpt>
      <trkpt lat="42.335723" lon="8.892883">
        <ele>1445.4</ele>
        <time>2022-09-10T15:51:59Z</time>
      </trkpt>
      <trkpt lat="42.335753" lon="8.892802">
        <ele>1445.8</ele>
        <time>2022-09-10T15:52:05Z</time>
      </trkpt>
      <trkpt lat="42.33582" lon="8.89273">
        <ele>1447.2</ele>
        <time>2022-09-10T15:52:18Z</time>
      </trkpt>
      <trkpt lat="42.335857" lon="8.892705">
        <ele>1448.0</ele>
        <time>2022-09-10T15:52:23Z</time>
      </trkpt>
      <trkpt lat="42.335807" lon="8.892535">
        <ele>1449.8</ele>
        <time>2022-09-10T15:52:42Z</time>
      </trkpt>
      <trkpt lat="42.33583" lon="8.892462">
        <ele>1451.2</ele>
        <time>2022-09-10T15:52:51Z</time>
      </trkpt>
      <trkpt lat="42.335828" lon="8.892372">
        <ele>1452.8</ele>
        <time>2022-09-10T15:53:07Z</time>
      </trkpt>
      <trkpt lat="42.335807" lon="8.892292">
        <ele>1455.0</ele>
        <time>2022-09-10T15:53:19Z</time>
      </trkpt>
      <trkpt lat="42.33583" lon="8.89223">
        <ele>1456.2</ele>
        <time>2022-09-10T15:53:29Z</time>
      </trkpt>
      <trkpt lat="42.33583" lon="8.89221">
        <ele>1456.6</ele>
        <time>2022-09-10T15:53:32Z</time>
      </trkpt>
      <trkpt lat="42.335822" lon="8.892222">
        <ele>1458.8</ele>
        <time>2022-09-10T15:53:49Z</time>
      </trkpt>
      <trkpt lat="42.335818" lon="8.892218">
        <ele>1460.6</ele>
        <time>2022-09-10T15:54:04Z</time>
      </trkpt>
      <trkpt lat="42.335817" lon="8.892212">
        <ele>1460.6</ele>
        <time>2022-09-10T15:54:09Z</time>
      </trkpt>
      <trkpt lat="42.335797" lon="8.89218">
        <ele>1461.2</ele>
        <time>2022-09-10T15:54:18Z</time>
      </trkpt>
      <trkpt lat="42.335782" lon="8.89217">
        <ele>1462.0</ele>
        <time>2022-09-10T15:54:22Z</time>
      </trkpt>
      <trkpt lat="42.335752" lon="8.892157">
        <ele>1462.6</ele>
        <time>2022-09-10T15:54:27Z</time>
      </trkpt>
      <trkpt lat="42.335747" lon="8.892167">
        <ele>1462.6</ele>
        <time>2022-09-10T15:54:28Z</time>
      </trkpt>
      <trkpt lat="42.335715" lon="8.892085">
        <ele>1463.8</ele>
        <time>2022-09-10T15:54:47Z</time>
      </trkpt>
      <trkpt lat="42.335702" lon="8.892025">
        <ele>1463.8</ele>
        <time>2022-09-10T15:55:01Z</time>
      </trkpt>
      <trkpt lat="42.335675" lon="8.892002">
        <ele>1465.8</ele>
        <time>2022-09-10T15:55:14Z</time>
      </trkpt>
      <trkpt lat="42.335542" lon="8.891993">
        <ele>1467.0</ele>
        <time>2022-09-10T15:55:28Z</time>
      </trkpt>
      <trkpt lat="42.335533" lon="8.891997">
        <ele>1467.0</ele>
        <time>2022-09-10T15:55:29Z</time>
      </trkpt>
      <trkpt lat="42.335512" lon="8.891938">
        <ele>1468.2</ele>
        <time>2022-09-10T15:55:37Z</time>
      </trkpt>
      <trkpt lat="42.335503" lon="8.89179">
        <ele>1471.2</ele>
        <time>2022-09-10T15:56:03Z</time>
      </trkpt>
      <trkpt lat="42.335557" lon="8.891737">
        <ele>1471.6</ele>
        <time>2022-09-10T15:56:12Z</time>
      </trkpt>
      <trkpt lat="42.335567" lon="8.891702">
        <ele>1472.0</ele>
        <time>2022-09-10T15:56:15Z</time>
      </trkpt>
      <trkpt lat="42.335563" lon="8.891653">
        <ele>1472.6</ele>
        <time>2022-09-10T15:56:19Z</time>
      </trkpt>
      <trkpt lat="42.335577" lon="8.89161">
        <ele>1473.2</ele>
        <time>2022-09-10T15:56:23Z</time>
      </trkpt>
      <trkpt lat="42.3356" lon="8.891593">
        <ele>1473.4</ele>
        <time>2022-09-10T15:56:26Z</time>
      </trkpt>
      <trkpt lat="42.335612" lon="8.891545">
        <ele>1474.6</ele>
        <time>2022-09-10T15:56:33Z</time>
      </trkpt>
      <trkpt lat="42.335615" lon="8.89138">
        <ele>1480.2</ele>
        <time>2022-09-10T15:57:18Z</time>
      </trkpt>
      <trkpt lat="42.335595" lon="8.891382">
        <ele>1480.8</ele>
        <time>2022-09-10T15:57:25Z</time>
      </trkpt>
      <trkpt lat="42.335553" lon="8.891403">
        <ele>1481.8</ele>
        <time>2022-09-10T15:57:31Z</time>
      </trkpt>
      <trkpt lat="42.335548" lon="8.891388">
        <ele>1482.2</ele>
        <time>2022-09-10T15:57:36Z</time>
      </trkpt>
      <trkpt lat="42.335597" lon="8.891433">
        <ele>1483.6</ele>
        <time>2022-09-10T15:58:03Z</time>
      </trkpt>
      <trkpt lat="42.335653" lon="8.891482">
        <ele>1484.2</ele>
        <time>2022-09-10T15:58:13Z</time>
      </trkpt>
      <trkpt lat="42.335692" lon="8.89151">
        <ele>1485.0</ele>
        <time>2022-09-10T15:58:19Z</time>
      </trkpt>
      <trkpt lat="42.335707" lon="8.89152">
        <ele>1485.6</ele>
        <time>2022-09-10T15:58:21Z</time>
      </trkpt>
      <trkpt lat="42.33575" lon="8.89157">
        <ele>1486.4</ele>
        <time>2022-09-10T15:58:27Z</time>
      </trkpt>
      <trkpt lat="42.335783" lon="8.891682">
        <ele>1487.6</ele>
        <time>2022-09-10T15:58:38Z</time>
      </trkpt>
      <trkpt lat="42.335793" lon="8.891722">
        <ele>1488.2</ele>
        <time>2022-09-10T15:58:46Z</time>
      </trkpt>
      <trkpt lat="42.335818" lon="8.891782">
        <ele>1489.6</ele>
        <time>2022-09-10T15:58:55Z</time>
      </trkpt>
      <trkpt lat="42.335692" lon="8.891605">
        <ele>1492.8</ele>
        <time>2022-09-10T15:59:17Z</time>
      </trkpt>
      <trkpt lat="42.335597" lon="8.891423">
        <ele>1495.4</ele>
        <time>2022-09-10T15:59:43Z</time>
      </trkpt>
      <trkpt lat="42.33556" lon="8.891315">
        <ele>1498.0</ele>
        <time>2022-09-10T15:59:59Z</time>
      </trkpt>
      <trkpt lat="42.335447" lon="8.89112">
        <ele>1500.4</ele>
        <time>2022-09-10T16:00:22Z</time>
      </trkpt>
      <trkpt lat="42.3354" lon="8.891063">
        <ele>1501.0</ele>
        <time>2022-09-10T16:00:28Z</time>
      </trkpt>
      <trkpt lat="42.335368" lon="8.890993">
        <ele>1501.6</ele>
        <time>2022-09-10T16:00:34Z</time>
      </trkpt>
      <trkpt lat="42.335357" lon="8.890935">
        <ele>1502.8</ele>
        <time>2022-09-10T16:00:47Z</time>
      </trkpt>
      <trkpt lat="42.335383" lon="8.890843">
        <ele>1503.8</ele>
        <time>2022-09-10T16:00:56Z</time>
      </trkpt>
      <trkpt lat="42.335428" lon="8.890737">
        <ele>1505.0</ele>
        <time>2022-09-10T16:01:03Z</time>
      </trkpt>
      <trkpt lat="42.335457" lon="8.890705">
        <ele>1505.6</ele>
        <time>2022-09-10T16:01:06Z</time>
      </trkpt>
      <trkpt lat="42.33544" lon="8.89067">
        <ele>1506.4</ele>
        <time>2022-09-10T16:01:10Z</time>
      </trkpt>
      <trkpt lat="42.335418" lon="8.890647">
        <ele>1507.0</ele>
        <time>2022-09-10T16:01:14Z</time>
      </trkpt>
      <trkpt lat="42.335372" lon="8.890635">
        <ele>1510.2</ele>
        <time>2022-09-10T16:01:32Z</time>
      </trkpt>
      <trkpt lat="42.335367" lon="8.89062">
        <ele>1509.8</ele>
        <time>2022-09-10T16:01:34Z</time>
      </trkpt>
      <trkpt lat="42.335388" lon="8.890533">
        <ele>1509.2</ele>
        <time>2022-09-10T16:01:46Z</time>
      </trkpt>
      <trkpt lat="42.335387" lon="8.890507">
        <ele>1509.8</ele>
        <time>2022-09-10T16:01:50Z</time>
      </trkpt>
      <trkpt lat="42.335362" lon="8.89048">
        <ele>1511.0</ele>
        <time>2022-09-10T16:01:57Z</time>
      </trkpt>
      <trkpt lat="42.335318" lon="8.890437">
        <ele>1512.0</ele>
        <time>2022-09-10T16:02:06Z</time>
      </trkpt>
      <trkpt lat="42.335252" lon="8.89027">
        <ele>1513.4</ele>
        <time>2022-09-10T16:02:24Z</time>
      </trkpt>
      <trkpt lat="42.335252" lon="8.89026">
        <ele>1513.4</ele>
        <time>2022-09-10T16:02:25Z</time>
      </trkpt>
      <trkpt lat="42.335258" lon="8.890212">
        <ele>1514.8</ele>
        <time>2022-09-10T16:02:30Z</time>
      </trkpt>
      <trkpt lat="42.335297" lon="8.890178">
        <ele>1517.8</ele>
        <time>2022-09-10T16:03:04Z</time>
      </trkpt>
      <trkpt lat="42.335277" lon="8.8901">
        <ele>1520.4</ele>
        <time>2022-09-10T16:03:21Z</time>
      </trkpt>
      <trkpt lat="42.33529" lon="8.890063">
        <ele>1522.0</ele>
        <time>2022-09-10T16:03:35Z</time>
      </trkpt>
      <trkpt lat="42.335292" lon="8.890037">
        <ele>1523.4</ele>
        <time>2022-09-10T16:03:44Z</time>
      </trkpt>
      <trkpt lat="42.335295" lon="8.890028">
        <ele>1523.6</ele>
        <time>2022-09-10T16:03:45Z</time>
      </trkpt>
      <trkpt lat="42.335353" lon="8.889982">
        <ele>1524.6</ele>
        <time>2022-09-10T16:03:54Z</time>
      </trkpt>
      <trkpt lat="42.335322" lon="8.889915">
        <ele>1526.2</ele>
        <time>2022-09-10T16:04:03Z</time>
      </trkpt>
      <trkpt lat="42.335312" lon="8.889875">
        <ele>1526.8</ele>
        <time>2022-09-10T16:04:08Z</time>
      </trkpt>
      <trkpt lat="42.33534" lon="8.889843">
        <ele>1527.0</ele>
        <time>2022-09-10T16:04:15Z</time>
      </trkpt>
      <trkpt lat="42.33535" lon="8.889845">
        <ele>1527.2</ele>
        <time>2022-09-10T16:04:17Z</time>
      </trkpt>
      <trkpt lat="42.335457" lon="8.889877">
        <ele>1528.2</ele>
        <time>2022-09-10T16:04:25Z</time>
      </trkpt>
      <trkpt lat="42.335505" lon="8.889858">
        <ele>1528.4</ele>
        <time>2022-09-10T16:04:29Z</time>
      </trkpt>
      <trkpt lat="42.335427" lon="8.88974">
        <ele>1530.2</ele>
        <time>2022-09-10T16:04:42Z</time>
      </trkpt>
      <trkpt lat="42.335403" lon="8.889728">
        <ele>1532.2</ele>
        <time>2022-09-10T16:04:51Z</time>
      </trkpt>
      <trkpt lat="42.335385" lon="8.889728">
        <ele>1532.6</ele>
        <time>2022-09-10T16:04:54Z</time>
      </trkpt>
      <trkpt lat="42.335382" lon="8.889638">
        <ele>1534.6</ele>
        <time>2022-09-10T16:05:17Z</time>
      </trkpt>
      <trkpt lat="42.335385" lon="8.889603">
        <ele>1535.0</ele>
        <time>2022-09-10T16:05:23Z</time>
      </trkpt>
      <trkpt lat="42.335373" lon="8.889555">
        <ele>1535.6</ele>
        <time>2022-09-10T16:05:34Z</time>
      </trkpt>
      <trkpt lat="42.335353" lon="8.889552">
        <ele>1536.4</ele>
        <time>2022-09-10T16:05:39Z</time>
      </trkpt>
      <trkpt lat="42.3353" lon="8.889562">
        <ele>1538.0</ele>
        <time>2022-09-10T16:05:54Z</time>
      </trkpt>
      <trkpt lat="42.335288" lon="8.88955">
        <ele>1539.0</ele>
        <time>2022-09-10T16:06:05Z</time>
      </trkpt>
      <trkpt lat="42.335263" lon="8.889512">
        <ele>1541.2</ele>
        <time>2022-09-10T16:06:21Z</time>
      </trkpt>
      <trkpt lat="42.335265" lon="8.889508">
        <ele>1541.2</ele>
        <time>2022-09-10T16:06:21Z</time>
      </trkpt>
      <trkpt lat="42.335283" lon="8.88944">
        <ele>1542.2</ele>
        <time>2022-09-10T16:06:29Z</time>
      </trkpt>
      <trkpt lat="42.335277" lon="8.889397">
        <ele>1542.4</ele>
        <time>2022-09-10T16:06:33Z</time>
      </trkpt>
      <trkpt lat="42.335267" lon="8.889363">
        <ele>1542.8</ele>
        <time>2022-09-10T16:06:36Z</time>
      </trkpt>
      <trkpt lat="42.335287" lon="8.889272">
        <ele>1544.8</ele>
        <time>2022-09-10T16:06:49Z</time>
      </trkpt>
      <trkpt lat="42.335282" lon="8.889193">
        <ele>1545.6</ele>
        <time>2022-09-10T16:06:57Z</time>
      </trkpt>
      <trkpt lat="42.335307" lon="8.889182">
        <ele>1546.0</ele>
        <time>2022-09-10T16:07:02Z</time>
      </trkpt>
      <trkpt lat="42.335343" lon="8.889178">
        <ele>1547.0</ele>
        <time>2022-09-10T16:07:09Z</time>
      </trkpt>
      <trkpt lat="42.335357" lon="8.889167">
        <ele>1547.2</ele>
        <time>2022-09-10T16:07:12Z</time>
      </trkpt>
      <trkpt lat="42.335395" lon="8.889152">
        <ele>1548.2</ele>
        <time>2022-09-10T16:07:22Z</time>
      </trkpt>
      <trkpt lat="42.335395" lon="8.889142">
        <ele>1548.4</ele>
        <time>2022-09-10T16:07:24Z</time>
      </trkpt>
      <trkpt lat="42.335458" lon="8.889162">
        <ele>1549.2</ele>
        <time>2022-09-10T16:07:32Z</time>
      </trkpt>
      <trkpt lat="42.335488" lon="8.889188">
        <ele>1549.6</ele>
        <time>2022-09-10T16:07:36Z</time>
      </trkpt>
      <trkpt lat="42.33551" lon="8.889213">
        <ele>1549.8</ele>
        <time>2022-09-10T16:07:39Z</time>
      </trkpt>
      <trkpt lat="42.33558" lon="8.889273">
        <ele>1551.4</ele>
        <time>2022-09-10T16:07:48Z</time>
      </trkpt>
      <trkpt lat="42.335593" lon="8.889328">
        <ele>1552.6</ele>
        <time>2022-09-10T16:08:01Z</time>
      </trkpt>
      <trkpt lat="42.335637" lon="8.889382">
        <ele>1553.4</ele>
        <time>2022-09-10T16:08:13Z</time>
      </trkpt>
      <trkpt lat="42.335663" lon="8.889402">
        <ele>1554.2</ele>
        <time>2022-09-10T16:08:17Z</time>
      </trkpt>
      <trkpt lat="42.335693" lon="8.889328">
        <ele>1555.8</ele>
        <time>2022-09-10T16:08:24Z</time>
      </trkpt>
      <trkpt lat="42.335672" lon="8.889215">
        <ele>1557.4</ele>
        <time>2022-09-10T16:08:39Z</time>
      </trkpt>
      <trkpt lat="42.335587" lon="8.889078">
        <ele>1558.4</ele>
        <time>2022-09-10T16:09:00Z</time>
      </trkpt>
      <trkpt lat="42.33553" lon="8.888892">
        <ele>1560.2</ele>
        <time>2022-09-10T16:09:29Z</time>
      </trkpt>
      <trkpt lat="42.335532" lon="8.888883">
        <ele>1560.6</ele>
        <time>2022-09-10T16:09:32Z</time>
      </trkpt>
      <trkpt lat="42.335537" lon="8.888842">
        <ele>1562.6</ele>
        <time>2022-09-10T16:09:51Z</time>
      </trkpt>
      <trkpt lat="42.335543" lon="8.888792">
        <ele>1564.0</ele>
        <time>2022-09-10T16:10:01Z</time>
      </trkpt>
      <trkpt lat="42.33556" lon="8.888772">
        <ele>1564.2</ele>
        <time>2022-09-10T16:10:06Z</time>
      </trkpt>
      <trkpt lat="42.33559" lon="8.88878">
        <ele>1565.0</ele>
        <time>2022-09-10T16:10:13Z</time>
      </trkpt>
      <trkpt lat="42.3356" lon="8.888823">
        <ele>1566.4</ele>
        <time>2022-09-10T16:10:23Z</time>
      </trkpt>
      <trkpt lat="42.335655" lon="8.888748">
        <ele>1568.2</ele>
        <time>2022-09-10T16:10:55Z</time>
      </trkpt>
      <trkpt lat="42.335658" lon="8.888747">
        <ele>1568.4</ele>
        <time>2022-09-10T16:10:57Z</time>
      </trkpt>
      <trkpt lat="42.335678" lon="8.888735">
        <ele>1569.0</ele>
        <time>2022-09-10T16:11:05Z</time>
      </trkpt>
      <trkpt lat="42.335665" lon="8.888657">
        <ele>1570.4</ele>
        <time>2022-09-10T16:11:23Z</time>
      </trkpt>
      <trkpt lat="42.335677" lon="8.888652">
        <ele>1571.0</ele>
        <time>2022-09-10T16:11:30Z</time>
      </trkpt>
      <trkpt lat="42.335712" lon="8.888683">
        <ele>1572.0</ele>
        <time>2022-09-10T16:11:46Z</time>
      </trkpt>
      <trkpt lat="42.335745" lon="8.888683">
        <ele>1573.6</ele>
        <time>2022-09-10T16:11:56Z</time>
      </trkpt>
      <trkpt lat="42.335748" lon="8.888642">
        <ele>1574.4</ele>
        <time>2022-09-10T16:12:05Z</time>
      </trkpt>
      <trkpt lat="42.335722" lon="8.88854">
        <ele>1578.4</ele>
        <time>2022-09-10T16:12:50Z</time>
      </trkpt>
      <trkpt lat="42.335645" lon="8.888473">
        <ele>1580.0</ele>
        <time>2022-09-10T16:13:13Z</time>
      </trkpt>
      <trkpt lat="42.335608" lon="8.88842">
        <ele>1583.2</ele>
        <time>2022-09-10T16:13:40Z</time>
      </trkpt>
      <trkpt lat="42.335573" lon="8.888375">
        <ele>1584.4</ele>
        <time>2022-09-10T16:13:54Z</time>
      </trkpt>
      <trkpt lat="42.335572" lon="8.888367">
        <ele>1584.4</ele>
        <time>2022-09-10T16:13:55Z</time>
      </trkpt>
      <trkpt lat="42.335567" lon="8.888347">
        <ele>1584.8</ele>
        <time>2022-09-10T16:13:58Z</time>
      </trkpt>
      <trkpt lat="42.335572" lon="8.888335">
        <ele>1587.0</ele>
        <time>2022-09-10T16:14:17Z</time>
      </trkpt>
      <trkpt lat="42.335543" lon="8.888328">
        <ele>1587.8</ele>
        <time>2022-09-10T16:14:23Z</time>
      </trkpt>
      <trkpt lat="42.335538" lon="8.888282">
        <ele>1588.6</ele>
        <time>2022-09-10T16:14:34Z</time>
      </trkpt>
      <trkpt lat="42.335545" lon="8.888242">
        <ele>1590.4</ele>
        <time>2022-09-10T16:14:48Z</time>
      </trkpt>
      <trkpt lat="42.335537" lon="8.88823">
        <ele>1590.6</ele>
        <time>2022-09-10T16:14:50Z</time>
      </trkpt>
      <trkpt lat="42.335463" lon="8.88815">
        <ele>1592.2</ele>
        <time>2022-09-10T16:15:06Z</time>
      </trkpt>
      <trkpt lat="42.335467" lon="8.88814">
        <ele>1592.2</ele>
        <time>2022-09-10T16:15:07Z</time>
      </trkpt>
      <trkpt lat="42.3355" lon="8.888033">
        <ele>1592.8</ele>
        <time>2022-09-10T16:15:17Z</time>
      </trkpt>
      <trkpt lat="42.335552" lon="8.887832">
        <ele>1596.6</ele>
        <time>2022-09-10T16:15:50Z</time>
      </trkpt>
      <trkpt lat="42.33555" lon="8.887825">
        <ele>1596.6</ele>
        <time>2022-09-10T16:15:51Z</time>
      </trkpt>
      <trkpt lat="42.335543" lon="8.887685">
        <ele>1598.8</ele>
        <time>2022-09-10T16:16:11Z</time>
      </trkpt>
      <trkpt lat="42.335555" lon="8.887677">
        <ele>1599.0</ele>
        <time>2022-09-10T16:16:13Z</time>
      </trkpt>
      <trkpt lat="42.335657" lon="8.887683">
        <ele>1600.4</ele>
        <time>2022-09-10T16:16:27Z</time>
      </trkpt>
      <trkpt lat="42.335652" lon="8.887643">
        <ele>1600.8</ele>
        <time>2022-09-10T16:16:31Z</time>
      </trkpt>
      <trkpt lat="42.33557" lon="8.887488">
        <ele>1602.6</ele>
        <time>2022-09-10T16:16:50Z</time>
      </trkpt>
      <trkpt lat="42.335577" lon="8.887487">
        <ele>1602.8</ele>
        <time>2022-09-10T16:16:51Z</time>
      </trkpt>
      <trkpt lat="42.335662" lon="8.887502">
        <ele>1602.8</ele>
        <time>2022-09-10T16:17:03Z</time>
      </trkpt>
      <trkpt lat="42.335733" lon="8.88762">
        <ele>1603.8</ele>
        <time>2022-09-10T16:17:15Z</time>
      </trkpt>
      <trkpt lat="42.335772" lon="8.887622">
        <ele>1603.8</ele>
        <time>2022-09-10T16:17:19Z</time>
      </trkpt>
      <trkpt lat="42.33595" lon="8.887418">
        <ele>1606.2</ele>
        <time>2022-09-10T16:17:35Z</time>
      </trkpt>
      <trkpt lat="42.335963" lon="8.887397">
        <ele>1606.4</ele>
        <time>2022-09-10T16:17:36Z</time>
      </trkpt>
      <trkpt lat="42.335942" lon="8.887323">
        <ele>1606.4</ele>
        <time>2022-09-10T16:17:39Z</time>
      </trkpt>
      <trkpt lat="42.335815" lon="8.88716">
        <ele>1606.6</ele>
        <time>2022-09-10T16:17:49Z</time>
      </trkpt>
      <trkpt lat="42.335823" lon="8.887125">
        <ele>1607.2</ele>
        <time>2022-09-10T16:17:59Z</time>
      </trkpt>
      <trkpt lat="42.3358" lon="8.887095">
        <ele>1607.8</ele>
        <time>2022-09-10T16:18:03Z</time>
      </trkpt>
      <trkpt lat="42.335827" lon="8.887053">
        <ele>1608.4</ele>
        <time>2022-09-10T16:18:13Z</time>
      </trkpt>
      <trkpt lat="42.335708" lon="8.886972">
        <ele>1610.4</ele>
        <time>2022-09-10T16:18:28Z</time>
      </trkpt>
      <trkpt lat="42.335532" lon="8.886837">
        <ele>1612.0</ele>
        <time>2022-09-10T16:18:48Z</time>
      </trkpt>
      <trkpt lat="42.335528" lon="8.886835">
        <ele>1612.0</ele>
        <time>2022-09-10T16:18:48Z</time>
      </trkpt>
      <trkpt lat="42.335527" lon="8.886833">
        <ele>1612.0</ele>
        <time>2022-09-10T16:18:49Z</time>
      </trkpt>
      <trkpt lat="42.335493" lon="8.886852">
        <ele>1612.6</ele>
        <time>2022-09-10T16:18:54Z</time>
      </trkpt>
      <trkpt lat="42.335448" lon="8.886912">
        <ele>1613.8</ele>
        <time>2022-09-10T16:19:01Z</time>
      </trkpt>
      <trkpt lat="42.335397" lon="8.887007">
        <ele>1614.8</ele>
        <time>2022-09-10T16:19:14Z</time>
      </trkpt>
      <trkpt lat="42.335335" lon="8.887042">
        <ele>1616.0</ele>
        <time>2022-09-10T16:19:25Z</time>
      </trkpt>
      <trkpt lat="42.335315" lon="8.887055">
        <ele>1616.6</ele>
        <time>2022-09-10T16:19:28Z</time>
      </trkpt>
      <trkpt lat="42.335263" lon="8.887072">
        <ele>1617.4</ele>
        <time>2022-09-10T16:19:37Z</time>
      </trkpt>
      <trkpt lat="42.335243" lon="8.887052">
        <ele>1617.6</ele>
        <time>2022-09-10T16:19:42Z</time>
      </trkpt>
      <trkpt lat="42.335223" lon="8.886993">
        <ele>1621.4</ele>
        <time>2022-09-10T16:20:13Z</time>
      </trkpt>
      <trkpt lat="42.335205" lon="8.887007">
        <ele>1622.2</ele>
        <time>2022-09-10T16:20:26Z</time>
      </trkpt>
      <trkpt lat="42.33519" lon="8.886962">
        <ele>1624.0</ele>
        <time>2022-09-10T16:20:43Z</time>
      </trkpt>
      <trkpt lat="42.33517" lon="8.886953">
        <ele>1624.6</ele>
        <time>2022-09-10T16:20:51Z</time>
      </trkpt>
      <trkpt lat="42.335145" lon="8.886938">
        <ele>1625.6</ele>
        <time>2022-09-10T16:20:58Z</time>
      </trkpt>
      <trkpt lat="42.335155" lon="8.886892">
        <ele>1627.4</ele>
        <time>2022-09-10T16:21:13Z</time>
      </trkpt>
      <trkpt lat="42.33516" lon="8.88688">
        <ele>1628.0</ele>
        <time>2022-09-10T16:21:16Z</time>
      </trkpt>
      <trkpt lat="42.335178" lon="8.886793">
        <ele>1629.4</ele>
        <time>2022-09-10T16:21:30Z</time>
      </trkpt>
      <trkpt lat="42.335152" lon="8.886715">
        <ele>1631.4</ele>
        <time>2022-09-10T16:21:49Z</time>
      </trkpt>
      <trkpt lat="42.335142" lon="8.886707">
        <ele>1632.4</ele>
        <time>2022-09-10T16:21:56Z</time>
      </trkpt>
      <trkpt lat="42.33515" lon="8.886675">
        <ele>1633.2</ele>
        <time>2022-09-10T16:22:03Z</time>
      </trkpt>
      <trkpt lat="42.335132" lon="8.886653">
        <ele>1634.2</ele>
        <time>2022-09-10T16:22:08Z</time>
      </trkpt>
      <trkpt lat="42.335102" lon="8.886632">
        <ele>1634.4</ele>
        <time>2022-09-10T16:22:14Z</time>
      </trkpt>
      <trkpt lat="42.335087" lon="8.886607">
        <ele>1634.6</ele>
        <time>2022-09-10T16:22:18Z</time>
      </trkpt>
      <trkpt lat="42.335018" lon="8.88656">
        <ele>1636.6</ele>
        <time>2022-09-10T16:22:27Z</time>
      </trkpt>
      <trkpt lat="42.334995" lon="8.886482">
        <ele>1638.6</ele>
        <time>2022-09-10T16:22:42Z</time>
      </trkpt>
      <trkpt lat="42.334898" lon="8.88641">
        <ele>1643.2</ele>
        <time>2022-09-10T16:23:27Z</time>
      </trkpt>
      <trkpt lat="42.334918" lon="8.886358">
        <ele>1645.2</ele>
        <time>2022-09-10T16:23:37Z</time>
      </trkpt>
      <trkpt lat="42.334922" lon="8.88634">
        <ele>1645.4</ele>
        <time>2022-09-10T16:23:40Z</time>
      </trkpt>
      <trkpt lat="42.334907" lon="8.88631">
        <ele>1646.0</ele>
        <time>2022-09-10T16:23:47Z</time>
      </trkpt>
      <trkpt lat="42.334857" lon="8.886355">
        <ele>1648.0</ele>
        <time>2022-09-10T16:24:03Z</time>
      </trkpt>
      <trkpt lat="42.334862" lon="8.886318">
        <ele>1650.2</ele>
        <time>2022-09-10T16:24:36Z</time>
      </trkpt>
      <trkpt lat="42.334893" lon="8.886222">
        <ele>1653.8</ele>
        <time>2022-09-10T16:25:04Z</time>
      </trkpt>
      <trkpt lat="42.3349" lon="8.886178">
        <ele>1656.2</ele>
        <time>2022-09-10T16:25:17Z</time>
      </trkpt>
      <trkpt lat="42.334868" lon="8.886122">
        <ele>1655.8</ele>
        <time>2022-09-10T16:25:26Z</time>
      </trkpt>
      <trkpt lat="42.33479" lon="8.885972">
        <ele>1657.6</ele>
        <time>2022-09-10T16:25:36Z</time>
      </trkpt>
      <trkpt lat="42.334757" lon="8.885907">
        <ele>1658.0</ele>
        <time>2022-09-10T16:25:39Z</time>
      </trkpt>
      <trkpt lat="42.334723" lon="8.885723">
        <ele>1661.4</ele>
        <time>2022-09-10T16:25:58Z</time>
      </trkpt>
      <trkpt lat="42.334735" lon="8.885702">
        <ele>1663.2</ele>
        <time>2022-09-10T16:26:09Z</time>
      </trkpt>
      <trkpt lat="42.334722" lon="8.885663">
        <ele>1664.4</ele>
        <time>2022-09-10T16:26:15Z</time>
      </trkpt>
      <trkpt lat="42.334747" lon="8.885615">
        <ele>1664.4</ele>
        <time>2022-09-10T16:26:23Z</time>
      </trkpt>
      <trkpt lat="42.334752" lon="8.885608">
        <ele>1664.8</ele>
        <time>2022-09-10T16:26:24Z</time>
      </trkpt>
      <trkpt lat="42.334723" lon="8.885528">
        <ele>1665.4</ele>
        <time>2022-09-10T16:26:37Z</time>
      </trkpt>
      <trkpt lat="42.334708" lon="8.885437">
        <ele>1666.2</ele>
        <time>2022-09-10T16:26:51Z</time>
      </trkpt>
      <trkpt lat="42.334707" lon="8.885393">
        <ele>1667.4</ele>
        <time>2022-09-10T16:27:02Z</time>
      </trkpt>
      <trkpt lat="42.334712" lon="8.885388">
        <ele>1667.8</ele>
        <time>2022-09-10T16:27:04Z</time>
      </trkpt>
      <trkpt lat="42.33472" lon="8.885343">
        <ele>1668.6</ele>
        <time>2022-09-10T16:27:10Z</time>
      </trkpt>
      <trkpt lat="42.33471" lon="8.885228">
        <ele>1669.6</ele>
        <time>2022-09-10T16:27:21Z</time>
      </trkpt>
      <trkpt lat="42.334737" lon="8.88516">
        <ele>1670.8</ele>
        <time>2022-09-10T16:27:29Z</time>
      </trkpt>
      <trkpt lat="42.334772" lon="8.885118">
        <ele>1672.2</ele>
        <time>2022-09-10T16:27:37Z</time>
      </trkpt>
      <trkpt lat="42.334845" lon="8.885097">
        <ele>1675.8</ele>
        <time>2022-09-10T16:27:48Z</time>
      </trkpt>
      <trkpt lat="42.334907" lon="8.885072">
        <ele>1677.4</ele>
        <time>2022-09-10T16:27:57Z</time>
      </trkpt>
      <trkpt lat="42.334915" lon="8.885058">
        <ele>1677.4</ele>
        <time>2022-09-10T16:27:59Z</time>
      </trkpt>
      <trkpt lat="42.334902" lon="8.885018">
        <ele>1678.2</ele>
        <time>2022-09-10T16:28:07Z</time>
      </trkpt>
      <trkpt lat="42.334887" lon="8.884987">
        <ele>1679.2</ele>
        <time>2022-09-10T16:28:12Z</time>
      </trkpt>
      <trkpt lat="42.334867" lon="8.884922">
        <ele>1680.4</ele>
        <time>2022-09-10T16:28:22Z</time>
      </trkpt>
      <trkpt lat="42.334862" lon="8.884863">
        <ele>1681.2</ele>
        <time>2022-09-10T16:28:30Z</time>
      </trkpt>
      <trkpt lat="42.33485" lon="8.884832">
        <ele>1681.4</ele>
        <time>2022-09-10T16:28:35Z</time>
      </trkpt>
      <trkpt lat="42.334855" lon="8.884815">
        <ele>1681.4</ele>
        <time>2022-09-10T16:28:37Z</time>
      </trkpt>
      <trkpt lat="42.33486" lon="8.884813">
        <ele>1681.8</ele>
        <time>2022-09-10T16:28:39Z</time>
      </trkpt>
      <trkpt lat="42.334795" lon="8.884747">
        <ele>1684.4</ele>
        <time>2022-09-10T16:28:58Z</time>
      </trkpt>
      <trkpt lat="42.334783" lon="8.884743">
        <ele>1684.4</ele>
        <time>2022-09-10T16:29:00Z</time>
      </trkpt>
      <trkpt lat="42.334777" lon="8.884722">
        <ele>1684.4</ele>
        <time>2022-09-10T16:29:04Z</time>
      </trkpt>
      <trkpt lat="42.334783" lon="8.884692">
        <ele>1685.2</ele>
        <time>2022-09-10T16:29:10Z</time>
      </trkpt>
      <trkpt lat="42.33476" lon="8.884658">
        <ele>1685.8</ele>
        <time>2022-09-10T16:29:15Z</time>
      </trkpt>
      <trkpt lat="42.334737" lon="8.884645">
        <ele>1686.0</ele>
        <time>2022-09-10T16:29:18Z</time>
      </trkpt>
      <trkpt lat="42.334727" lon="8.884663">
        <ele>1686.2</ele>
        <time>2022-09-10T16:29:21Z</time>
      </trkpt>
      <trkpt lat="42.33468" lon="8.884687">
        <ele>1687.0</ele>
        <time>2022-09-10T16:29:28Z</time>
      </trkpt>
      <trkpt lat="42.334585" lon="8.884703">
        <ele>1689.8</ele>
        <time>2022-09-10T16:29:46Z</time>
      </trkpt>
      <trkpt lat="42.33456" lon="8.884725">
        <ele>1690.8</ele>
        <time>2022-09-10T16:29:51Z</time>
      </trkpt>
      <trkpt lat="42.334525" lon="8.884668">
        <ele>1692.8</ele>
        <time>2022-09-10T16:30:10Z</time>
      </trkpt>
      <trkpt lat="42.334513" lon="8.884667">
        <ele>1693.2</ele>
        <time>2022-09-10T16:30:13Z</time>
      </trkpt>
      <trkpt lat="42.334478" lon="8.884607">
        <ele>1695.2</ele>
        <time>2022-09-10T16:30:26Z</time>
      </trkpt>
      <trkpt lat="42.334493" lon="8.884555">
        <ele>1695.8</ele>
        <time>2022-09-10T16:30:33Z</time>
      </trkpt>
      <trkpt lat="42.334463" lon="8.884487">
        <ele>1697.0</ele>
        <time>2022-09-10T16:30:40Z</time>
      </trkpt>
      <trkpt lat="42.33443" lon="8.884392">
        <ele>1698.4</ele>
        <time>2022-09-10T16:30:57Z</time>
      </trkpt>
      <trkpt lat="42.334433" lon="8.884387">
        <ele>1698.4</ele>
        <time>2022-09-10T16:30:58Z</time>
      </trkpt>
      <trkpt lat="42.334513" lon="8.884268">
        <ele>1701.0</ele>
        <time>2022-09-10T16:31:16Z</time>
      </trkpt>
      <trkpt lat="42.334515" lon="8.88426">
        <ele>1701.0</ele>
        <time>2022-09-10T16:31:17Z</time>
      </trkpt>
      <trkpt lat="42.33456" lon="8.884217">
        <ele>1701.8</ele>
        <time>2022-09-10T16:31:27Z</time>
      </trkpt>
      <trkpt lat="42.334643" lon="8.884293">
        <ele>1702.8</ele>
        <time>2022-09-10T16:31:39Z</time>
      </trkpt>
      <trkpt lat="42.334617" lon="8.884282">
        <ele>1702.6</ele>
        <time>2022-09-10T16:33:30Z</time>
      </trkpt>
      <trkpt lat="42.334565" lon="8.884227">
        <ele>1702.4</ele>
        <time>2022-09-10T16:33:40Z</time>
      </trkpt>
      <trkpt lat="42.334583" lon="8.884205">
        <ele>1702.4</ele>
        <time>2022-09-10T16:33:43Z</time>
      </trkpt>
      <trkpt lat="42.334527" lon="8.884223">
        <ele>1702.8</ele>
        <time>2022-09-10T16:34:07Z</time>
      </trkpt>
      <trkpt lat="42.334508" lon="8.88427">
        <ele>1703.6</ele>
        <time>2022-09-10T16:34:16Z</time>
      </trkpt>
      <trkpt lat="42.334507" lon="8.884277">
        <ele>1703.6</ele>
        <time>2022-09-10T16:34:17Z</time>
      </trkpt>
      <trkpt lat="42.334477" lon="8.88425">
        <ele>1704.0</ele>
        <time>2022-09-10T16:34:23Z</time>
      </trkpt>
      <trkpt lat="42.334478" lon="8.884207">
        <ele>1703.6</ele>
        <time>2022-09-10T16:34:29Z</time>
      </trkpt>
      <trkpt lat="42.334527" lon="8.884177">
        <ele>1705.8</ele>
        <time>2022-09-10T16:35:36Z</time>
      </trkpt>
      <trkpt lat="42.334548" lon="8.88416">
        <ele>1705.8</ele>
        <time>2022-09-10T16:35:44Z</time>
      </trkpt>
      <trkpt lat="42.334503" lon="8.884097">
        <ele>1707.2</ele>
        <time>2022-09-10T16:36:03Z</time>
      </trkpt>
      <trkpt lat="42.33447" lon="8.884022">
        <ele>1708.4</ele>
        <time>2022-09-10T16:36:21Z</time>
      </trkpt>
      <trkpt lat="42.334435" lon="8.883968">
        <ele>1709.6</ele>
        <time>2022-09-10T16:36:25Z</time>
      </trkpt>
      <trkpt lat="42.334448" lon="8.883867">
        <ele>1710.0</ele>
        <time>2022-09-10T16:36:33Z</time>
      </trkpt>
      <trkpt lat="42.334377" lon="8.883633">
        <ele>1713.0</ele>
        <time>2022-09-10T16:37:00Z</time>
      </trkpt>
      <trkpt lat="42.334375" lon="8.88361">
        <ele>1713.2</ele>
        <time>2022-09-10T16:37:05Z</time>
      </trkpt>
      <trkpt lat="42.334363" lon="8.883563">
        <ele>1714.0</ele>
        <time>2022-09-10T16:37:11Z</time>
      </trkpt>
      <trkpt lat="42.334322" lon="8.883515">
        <ele>1715.0</ele>
        <time>2022-09-10T16:37:18Z</time>
      </trkpt>
      <trkpt lat="42.334302" lon="8.883458">
        <ele>1716.2</ele>
        <time>2022-09-10T16:37:27Z</time>
      </trkpt>
      <trkpt lat="42.334277" lon="8.88338">
        <ele>1718.4</ele>
        <time>2022-09-10T16:37:47Z</time>
      </trkpt>
      <trkpt lat="42.334277" lon="8.883378">
        <ele>1718.8</ele>
        <time>2022-09-10T16:37:48Z</time>
      </trkpt>
      <trkpt lat="42.334267" lon="8.883358">
        <ele>1719.0</ele>
        <time>2022-09-10T16:37:54Z</time>
      </trkpt>
      <trkpt lat="42.334217" lon="8.883238">
        <ele>1720.2</ele>
        <time>2022-09-10T16:38:12Z</time>
      </trkpt>
      <trkpt lat="42.334208" lon="8.883213">
        <ele>1721.8</ele>
        <time>2022-09-10T16:38:22Z</time>
      </trkpt>
      <trkpt lat="42.334208" lon="8.883212">
        <ele>1722.4</ele>
        <time>2022-09-10T16:38:24Z</time>
      </trkpt>
      <trkpt lat="42.334205" lon="8.883188">
        <ele>1727.4</ele>
        <time>2022-09-10T16:38:55Z</time>
      </trkpt>
      <trkpt lat="42.334255" lon="8.883085">
        <ele>1729.2</ele>
        <time>2022-09-10T16:39:14Z</time>
      </trkpt>
      <trkpt lat="42.33425" lon="8.883045">
        <ele>1730.2</ele>
        <time>2022-09-10T16:39:22Z</time>
      </trkpt>
      <trkpt lat="42.33423" lon="8.883053">
        <ele>1730.8</ele>
        <time>2022-09-10T16:39:26Z</time>
      </trkpt>
      <trkpt lat="42.334185" lon="8.88301">
        <ele>1731.2</ele>
        <time>2022-09-10T16:39:37Z</time>
      </trkpt>
      <trkpt lat="42.334198" lon="8.88297">
        <ele>1736.4</ele>
        <time>2022-09-10T16:40:24Z</time>
      </trkpt>
      <trkpt lat="42.334217" lon="8.882942">
        <ele>1736.6</ele>
        <time>2022-09-10T16:40:31Z</time>
      </trkpt>
      <trkpt lat="42.334162" lon="8.882818">
        <ele>1743.0</ele>
        <time>2022-09-10T16:41:33Z</time>
      </trkpt>
      <trkpt lat="42.33414" lon="8.882742">
        <ele>1744.2</ele>
        <time>2022-09-10T16:41:44Z</time>
      </trkpt>
      <trkpt lat="42.334122" lon="8.882625">
        <ele>1745.0</ele>
        <time>2022-09-10T16:41:56Z</time>
      </trkpt>
      <trkpt lat="42.334107" lon="8.882582">
        <ele>1745.4</ele>
        <time>2022-09-10T16:42:00Z</time>
      </trkpt>
      <trkpt lat="42.334075" lon="8.882528">
        <ele>1746.0</ele>
        <time>2022-09-10T16:42:06Z</time>
      </trkpt>
      <trkpt lat="42.334075" lon="8.882483">
        <ele>1746.2</ele>
        <time>2022-09-10T16:42:10Z</time>
      </trkpt>
      <trkpt lat="42.334055" lon="8.882408">
        <ele>1747.4</ele>
        <time>2022-09-10T16:42:18Z</time>
      </trkpt>
      <trkpt lat="42.334035" lon="8.882348">
        <ele>1749.4</ele>
        <time>2022-09-10T16:42:29Z</time>
      </trkpt>
      <trkpt lat="42.334033" lon="8.882327">
        <ele>1750.0</ele>
        <time>2022-09-10T16:42:32Z</time>
      </trkpt>
      <trkpt lat="42.334027" lon="8.88224">
        <ele>1752.0</ele>
        <time>2022-09-10T16:42:46Z</time>
      </trkpt>
      <trkpt lat="42.334032" lon="8.882188">
        <ele>1752.4</ele>
        <time>2022-09-10T16:42:55Z</time>
      </trkpt>
      <trkpt lat="42.334033" lon="8.882168">
        <ele>1752.6</ele>
        <time>2022-09-10T16:42:59Z</time>
      </trkpt>
      <trkpt lat="42.333965" lon="8.882145">
        <ele>1752.8</ele>
        <time>2022-09-10T16:43:16Z</time>
      </trkpt>
      <trkpt lat="42.333955" lon="8.88211">
        <ele>1751.2</ele>
        <time>2022-09-10T16:43:27Z</time>
      </trkpt>
      <trkpt lat="42.33396" lon="8.882095">
        <ele>1751.2</ele>
        <time>2022-09-10T16:43:31Z</time>
      </trkpt>
      <trkpt lat="42.333983" lon="8.882085">
        <ele>1751.8</ele>
        <time>2022-09-10T16:43:46Z</time>
      </trkpt>
      <trkpt lat="42.333983" lon="8.88207">
        <ele>1752.0</ele>
        <time>2022-09-10T16:43:51Z</time>
      </trkpt>
      <trkpt lat="42.333957" lon="8.882105">
        <ele>1754.2</ele>
        <time>2022-09-10T16:44:26Z</time>
      </trkpt>
      <trkpt lat="42.333945" lon="8.882088">
        <ele>1753.6</ele>
        <time>2022-09-10T16:44:39Z</time>
      </trkpt>
      <trkpt lat="42.333913" lon="8.882048">
        <ele>1751.6</ele>
        <time>2022-09-10T16:44:49Z</time>
      </trkpt>
      <trkpt lat="42.333888" lon="8.881982">
        <ele>1751.2</ele>
        <time>2022-09-10T16:45:00Z</time>
      </trkpt>
      <trkpt lat="42.333802" lon="8.881898">
        <ele>1751.0</ele>
        <time>2022-09-10T16:45:18Z</time>
      </trkpt>
      <trkpt lat="42.333855" lon="8.881753">
        <ele>1755.6</ele>
        <time>2022-09-10T16:45:58Z</time>
      </trkpt>
      <trkpt lat="42.333883" lon="8.881693">
        <ele>1756.0</ele>
        <time>2022-09-10T16:46:04Z</time>
      </trkpt>
      <trkpt lat="42.333948" lon="8.881667">
        <ele>1757.0</ele>
        <time>2022-09-10T16:46:14Z</time>
      </trkpt>
      <trkpt lat="42.333968" lon="8.881698">
        <ele>1757.4</ele>
        <time>2022-09-10T16:46:18Z</time>
      </trkpt>
      <trkpt lat="42.333985" lon="8.881722">
        <ele>1757.8</ele>
        <time>2022-09-10T16:46:22Z</time>
      </trkpt>
      <trkpt lat="42.334013" lon="8.881683">
        <ele>1759.8</ele>
        <time>2022-09-10T16:46:47Z</time>
      </trkpt>
      <trkpt lat="42.334033" lon="8.881592">
        <ele>1763.4</ele>
        <time>2022-09-10T16:47:00Z</time>
      </trkpt>
      <trkpt lat="42.334038" lon="8.881567">
        <ele>1764.2</ele>
        <time>2022-09-10T16:47:06Z</time>
      </trkpt>
      <trkpt lat="42.333998" lon="8.881593">
        <ele>1763.8</ele>
        <time>2022-09-10T16:47:31Z</time>
      </trkpt>
      <trkpt lat="42.333973" lon="8.881632">
        <ele>1764.4</ele>
        <time>2022-09-10T16:47:56Z</time>
      </trkpt>
      <trkpt lat="42.333808" lon="8.881658">
        <ele>1769.4</ele>
        <time>2022-09-10T16:48:34Z</time>
      </trkpt>
      <trkpt lat="42.333798" lon="8.881652">
        <ele>1769.4</ele>
        <time>2022-09-10T16:48:35Z</time>
      </trkpt>
      <trkpt lat="42.333852" lon="8.88171">
        <ele>1769.6</ele>
        <time>2022-09-10T16:48:42Z</time>
      </trkpt>
      <trkpt lat="42.333887" lon="8.8817">
        <ele>1769.2</ele>
        <time>2022-09-10T16:48:46Z</time>
      </trkpt>
      <trkpt lat="42.333917" lon="8.881672">
        <ele>1769.2</ele>
        <time>2022-09-10T16:48:50Z</time>
      </trkpt>
      <trkpt lat="42.333903" lon="8.881623">
        <ele>1769.4</ele>
        <time>2022-09-10T16:48:54Z</time>
      </trkpt>
      <trkpt lat="42.333877" lon="8.88158">
        <ele>1770.6</ele>
        <time>2022-09-10T16:48:59Z</time>
      </trkpt>
      <trkpt lat="42.333915" lon="8.88149">
        <ele>1771.4</ele>
        <time>2022-09-10T16:49:08Z</time>
      </trkpt>
      <trkpt lat="42.333933" lon="8.88147">
        <ele>1771.6</ele>
        <time>2022-09-10T16:49:11Z</time>
      </trkpt>
      <trkpt lat="42.33391" lon="8.881428">
        <ele>1778.4</ele>
        <time>2022-09-10T16:51:12Z</time>
      </trkpt>
      <trkpt lat="42.333883" lon="8.881372">
        <ele>1780.8</ele>
        <time>2022-09-10T16:51:28Z</time>
      </trkpt>
      <trkpt lat="42.333833" lon="8.881385">
        <ele>1781.8</ele>
        <time>2022-09-10T16:51:47Z</time>
      </trkpt>
      <trkpt lat="42.333817" lon="8.881335">
        <ele>1782.4</ele>
        <time>2022-09-10T16:51:53Z</time>
      </trkpt>
      <trkpt lat="42.333788" lon="8.88131">
        <ele>1783.2</ele>
        <time>2022-09-10T16:52:00Z</time>
      </trkpt>
      <trkpt lat="42.333752" lon="8.881283">
        <ele>1784.0</ele>
        <time>2022-09-10T16:52:09Z</time>
      </trkpt>
      <trkpt lat="42.333765" lon="8.881255">
        <ele>1785.6</ele>
        <time>2022-09-10T16:52:25Z</time>
      </trkpt>
      <trkpt lat="42.333822" lon="8.881135">
        <ele>1790.6</ele>
        <time>2022-09-10T16:53:04Z</time>
      </trkpt>
      <trkpt lat="42.333923" lon="8.881002">
        <ele>1794.8</ele>
        <time>2022-09-10T16:53:46Z</time>
      </trkpt>
      <trkpt lat="42.333933" lon="8.881003">
        <ele>1795.2</ele>
        <time>2022-09-10T16:53:49Z</time>
      </trkpt>
      <trkpt lat="42.33392" lon="8.880992">
        <ele>1796.0</ele>
        <time>2022-09-10T16:53:54Z</time>
      </trkpt>
      <trkpt lat="42.333883" lon="8.88101">
        <ele>1797.4</ele>
        <time>2022-09-10T16:54:10Z</time>
      </trkpt>
      <trkpt lat="42.333807" lon="8.881022">
        <ele>1798.6</ele>
        <time>2022-09-10T16:54:24Z</time>
      </trkpt>
      <trkpt lat="42.333777" lon="8.881025">
        <ele>1798.8</ele>
        <time>2022-09-10T16:54:29Z</time>
      </trkpt>
      <trkpt lat="42.333772" lon="8.88102">
        <ele>1798.8</ele>
        <time>2022-09-10T16:54:30Z</time>
      </trkpt>
      <trkpt lat="42.333732" lon="8.880953">
        <ele>1799.8</ele>
        <time>2022-09-10T16:54:39Z</time>
      </trkpt>
      <trkpt lat="42.333677" lon="8.880958">
        <ele>1802.0</ele>
        <time>2022-09-10T16:54:54Z</time>
      </trkpt>
      <trkpt lat="42.333617" lon="8.88091">
        <ele>1803.8</ele>
        <time>2022-09-10T16:55:02Z</time>
      </trkpt>
      <trkpt lat="42.333598" lon="8.880902">
        <ele>1804.0</ele>
        <time>2022-09-10T16:55:04Z</time>
      </trkpt>
      <trkpt lat="42.333485" lon="8.880875">
        <ele>1809.6</ele>
        <time>2022-09-10T16:56:05Z</time>
      </trkpt>
      <trkpt lat="42.333498" lon="8.880845">
        <ele>1811.0</ele>
        <time>2022-09-10T16:56:18Z</time>
      </trkpt>
      <trkpt lat="42.333585" lon="8.880793">
        <ele>1815.6</ele>
        <time>2022-09-10T16:57:17Z</time>
      </trkpt>
      <trkpt lat="42.333608" lon="8.88077">
        <ele>1817.2</ele>
        <time>2022-09-10T16:57:47Z</time>
      </trkpt>
      <trkpt lat="42.333602" lon="8.880753">
        <ele>1818.0</ele>
        <time>2022-09-10T16:57:49Z</time>
      </trkpt>
      <trkpt lat="42.333628" lon="8.880625">
        <ele>1819.4</ele>
        <time>2022-09-10T16:58:04Z</time>
      </trkpt>
      <trkpt lat="42.333643" lon="8.88059">
        <ele>1820.8</ele>
        <time>2022-09-10T16:58:11Z</time>
      </trkpt>
      <trkpt lat="42.333725" lon="8.880567">
        <ele>1823.0</ele>
        <time>2022-09-10T16:58:26Z</time>
      </trkpt>
      <trkpt lat="42.33377" lon="8.880542">
        <ele>1822.8</ele>
        <time>2022-09-10T16:58:34Z</time>
      </trkpt>
      <trkpt lat="42.333825" lon="8.880483">
        <ele>1824.8</ele>
        <time>2022-09-10T16:58:50Z</time>
      </trkpt>
      <trkpt lat="42.333827" lon="8.88048">
        <ele>1824.8</ele>
        <time>2022-09-10T16:58:51Z</time>
      </trkpt>
      <trkpt lat="42.333842" lon="8.880435">
        <ele>1827.4</ele>
        <time>2022-09-10T16:59:09Z</time>
      </trkpt>
      <trkpt lat="42.333943" lon="8.880428">
        <ele>1833.4</ele>
        <time>2022-09-10T17:00:05Z</time>
      </trkpt>
      <trkpt lat="42.333828" lon="8.880367">
        <ele>1836.6</ele>
        <time>2022-09-10T17:00:46Z</time>
      </trkpt>
      <trkpt lat="42.333805" lon="8.880253">
        <ele>1838.0</ele>
        <time>2022-09-10T17:00:55Z</time>
      </trkpt>
      <trkpt lat="42.333767" lon="8.88018">
        <ele>1840.0</ele>
        <time>2022-09-10T17:01:13Z</time>
      </trkpt>
      <trkpt lat="42.333765" lon="8.880175">
        <ele>1840.0</ele>
        <time>2022-09-10T17:01:13Z</time>
      </trkpt>
      <trkpt lat="42.33374" lon="8.880155">
        <ele>1841.4</ele>
        <time>2022-09-10T17:01:29Z</time>
      </trkpt>
      <trkpt lat="42.33376" lon="8.88014">
        <ele>1840.6</ele>
        <time>2022-09-10T17:01:36Z</time>
      </trkpt>
      <trkpt lat="42.333767" lon="8.88014">
        <ele>1840.6</ele>
        <time>2022-09-10T17:01:38Z</time>
      </trkpt>
      <trkpt lat="42.333808" lon="8.88022">
        <ele>1843.6</ele>
        <time>2022-09-10T17:01:52Z</time>
      </trkpt>
      <trkpt lat="42.333822" lon="8.880225">
        <ele>1843.6</ele>
        <time>2022-09-10T17:01:53Z</time>
      </trkpt>
      <trkpt lat="42.333847" lon="8.880145">
        <ele>1843.6</ele>
        <time>2022-09-10T17:01:58Z</time>
      </trkpt>
      <trkpt lat="42.33387" lon="8.879992">
        <ele>1843.8</ele>
        <time>2022-09-10T17:02:07Z</time>
      </trkpt>
      <trkpt lat="42.333862" lon="8.879953">
        <ele>1847.2</ele>
        <time>2022-09-10T17:02:19Z</time>
      </trkpt>
      <trkpt lat="42.333843" lon="8.879905">
        <ele>1849.6</ele>
        <time>2022-09-10T17:02:38Z</time>
      </trkpt>
      <trkpt lat="42.33387" lon="8.879868">
        <ele>1850.2</ele>
        <time>2022-09-10T17:02:50Z</time>
      </trkpt>
      <trkpt lat="42.333888" lon="8.879862">
        <ele>1850.6</ele>
        <time>2022-09-10T17:02:56Z</time>
      </trkpt>
      <trkpt lat="42.333922" lon="8.879837">
        <ele>1852.0</ele>
        <time>2022-09-10T17:03:03Z</time>
      </trkpt>
      <trkpt lat="42.333932" lon="8.879777">
        <ele>1853.0</ele>
        <time>2022-09-10T17:03:10Z</time>
      </trkpt>
      <trkpt lat="42.333975" lon="8.879753">
        <ele>1851.6</ele>
        <time>2022-09-10T17:03:17Z</time>
      </trkpt>
      <trkpt lat="42.334032" lon="8.879753">
        <ele>1851.4</ele>
        <time>2022-09-10T17:03:26Z</time>
      </trkpt>
      <trkpt lat="42.334042" lon="8.879743">
        <ele>1851.8</ele>
        <time>2022-09-10T17:03:28Z</time>
      </trkpt>
      <trkpt lat="42.33406" lon="8.87971">
        <ele>1852.8</ele>
        <time>2022-09-10T17:03:44Z</time>
      </trkpt>
      <trkpt lat="42.33417" lon="8.879653">
        <ele>1859.2</ele>
        <time>2022-09-10T17:04:26Z</time>
      </trkpt>
      <trkpt lat="42.334167" lon="8.879625">
        <ele>1859.6</ele>
        <time>2022-09-10T17:04:33Z</time>
      </trkpt>
      <trkpt lat="42.334222" lon="8.87955">
        <ele>1864.0</ele>
        <time>2022-09-10T17:05:05Z</time>
      </trkpt>
      <trkpt lat="42.334235" lon="8.879535">
        <ele>1865.0</ele>
        <time>2022-09-10T17:05:16Z</time>
      </trkpt>
      <trkpt lat="42.334233" lon="8.879482">
        <ele>1865.4</ele>
        <time>2022-09-10T17:05:26Z</time>
      </trkpt>
      <trkpt lat="42.33423" lon="8.879443">
        <ele>1866.6</ele>
        <time>2022-09-10T17:05:34Z</time>
      </trkpt>
      <trkpt lat="42.334202" lon="8.879325">
        <ele>1868.6</ele>
        <time>2022-09-10T17:05:49Z</time>
      </trkpt>
      <trkpt lat="42.334202" lon="8.879287">
        <ele>1869.2</ele>
        <time>2022-09-10T17:05:54Z</time>
      </trkpt>
      <trkpt lat="42.334183" lon="8.879252">
        <ele>1870.2</ele>
        <time>2022-09-10T17:06:02Z</time>
      </trkpt>
      <trkpt lat="42.334095" lon="8.879175">
        <ele>1873.8</ele>
        <time>2022-09-10T17:06:36Z</time>
      </trkpt>
      <trkpt lat="42.334052" lon="8.879155">
        <ele>1876.4</ele>
        <time>2022-09-10T17:06:50Z</time>
      </trkpt>
      <trkpt lat="42.334027" lon="8.879142">
        <ele>1880.2</ele>
        <time>2022-09-10T17:07:13Z</time>
      </trkpt>
      <trkpt lat="42.334043" lon="8.879118">
        <ele>1881.0</ele>
        <time>2022-09-10T17:07:20Z</time>
      </trkpt>
      <trkpt lat="42.334077" lon="8.879103">
        <ele>1881.6</ele>
        <time>2022-09-10T17:07:33Z</time>
      </trkpt>
      <trkpt lat="42.334023" lon="8.879055">
        <ele>1886.6</ele>
        <time>2022-09-10T17:08:01Z</time>
      </trkpt>
      <trkpt lat="42.334035" lon="8.879025">
        <ele>1888.4</ele>
        <time>2022-09-10T17:08:20Z</time>
      </trkpt>
      <trkpt lat="42.334037" lon="8.878997">
        <ele>1890.0</ele>
        <time>2022-09-10T17:08:31Z</time>
      </trkpt>
      <trkpt lat="42.334022" lon="8.87897">
        <ele>1890.6</ele>
        <time>2022-09-10T17:08:37Z</time>
      </trkpt>
      <trkpt lat="42.33399" lon="8.878935">
        <ele>1892.6</ele>
        <time>2022-09-10T17:08:45Z</time>
      </trkpt>
      <trkpt lat="42.33398" lon="8.878872">
        <ele>1893.6</ele>
        <time>2022-09-10T17:08:54Z</time>
      </trkpt>
      <trkpt lat="42.333972" lon="8.878847">
        <ele>1893.8</ele>
        <time>2022-09-10T17:08:58Z</time>
      </trkpt>
      <trkpt lat="42.333952" lon="8.878818">
        <ele>1893.8</ele>
        <time>2022-09-10T17:09:05Z</time>
      </trkpt>
      <trkpt lat="42.333912" lon="8.878798">
        <ele>1896.4</ele>
        <time>2022-09-10T17:09:20Z</time>
      </trkpt>
      <trkpt lat="42.333853" lon="8.878765">
        <ele>1897.6</ele>
        <time>2022-09-10T17:09:33Z</time>
      </trkpt>
      <trkpt lat="42.333825" lon="8.878748">
        <ele>1898.0</ele>
        <time>2022-09-10T17:09:38Z</time>
      </trkpt>
      <trkpt lat="42.333727" lon="8.87872">
        <ele>1898.2</ele>
        <time>2022-09-10T17:09:52Z</time>
      </trkpt>
      <trkpt lat="42.333718" lon="8.878685">
        <ele>1897.6</ele>
        <time>2022-09-10T17:10:00Z</time>
      </trkpt>
      <trkpt lat="42.33368" lon="8.87863">
        <ele>1898.0</ele>
        <time>2022-09-10T17:10:09Z</time>
      </trkpt>
      <trkpt lat="42.333563" lon="8.878503">
        <ele>1899.6</ele>
        <time>2022-09-10T17:10:29Z</time>
      </trkpt>
      <trkpt lat="42.333598" lon="8.878462">
        <ele>1900.6</ele>
        <time>2022-09-10T17:10:34Z</time>
      </trkpt>
      <trkpt lat="42.333608" lon="8.878455">
        <ele>1900.8</ele>
        <time>2022-09-10T17:10:35Z</time>
      </trkpt>
      <trkpt lat="42.333587" lon="8.87834">
        <ele>1904.4</ele>
        <time>2022-09-10T17:11:06Z</time>
      </trkpt>
      <trkpt lat="42.333493" lon="8.878282">
        <ele>1911.0</ele>
        <time>2022-09-10T17:12:04Z</time>
      </trkpt>
      <trkpt lat="42.333443" lon="8.878277">
        <ele>1911.4</ele>
        <time>2022-09-10T17:12:09Z</time>
      </trkpt>
      <trkpt lat="42.33337" lon="8.878312">
        <ele>1911.4</ele>
        <time>2022-09-10T17:12:14Z</time>
      </trkpt>
      <trkpt lat="42.333362" lon="8.878272">
        <ele>1911.2</ele>
        <time>2022-09-10T17:12:23Z</time>
      </trkpt>
      <trkpt lat="42.333413" lon="8.878288">
        <ele>1912.0</ele>
        <time>2022-09-10T17:12:37Z</time>
      </trkpt>
      <trkpt lat="42.333425" lon="8.878272">
        <ele>1912.6</ele>
        <time>2022-09-10T17:12:41Z</time>
      </trkpt>
      <trkpt lat="42.333413" lon="8.878223">
        <ele>1913.6</ele>
        <time>2022-09-10T17:12:50Z</time>
      </trkpt>
      <trkpt lat="42.333392" lon="8.878183">
        <ele>1913.6</ele>
        <time>2022-09-10T17:12:58Z</time>
      </trkpt>
      <trkpt lat="42.333392" lon="8.878177">
        <ele>1913.8</ele>
        <time>2022-09-10T17:12:59Z</time>
      </trkpt>
      <trkpt lat="42.333313" lon="8.87812">
        <ele>1915.8</ele>
        <time>2022-09-10T17:13:10Z</time>
      </trkpt>
      <trkpt lat="42.333297" lon="8.878097">
        <ele>1919.4</ele>
        <time>2022-09-10T17:13:29Z</time>
      </trkpt>
      <trkpt lat="42.333152" lon="8.878118">
        <ele>1920.8</ele>
        <time>2022-09-10T17:13:42Z</time>
      </trkpt>
      <trkpt lat="42.333105" lon="8.87808">
        <ele>1921.0</ele>
        <time>2022-09-10T17:13:47Z</time>
      </trkpt>
      <trkpt lat="42.333068" lon="8.877995">
        <ele>1923.2</ele>
        <time>2022-09-10T17:13:59Z</time>
      </trkpt>
      <trkpt lat="42.332992" lon="8.877903">
        <ele>1925.6</ele>
        <time>2022-09-10T17:14:23Z</time>
      </trkpt>
      <trkpt lat="42.332982" lon="8.877848">
        <ele>1926.0</ele>
        <time>2022-09-10T17:14:31Z</time>
      </trkpt>
      <trkpt lat="42.33298" lon="8.877843">
        <ele>1926.2</ele>
        <time>2022-09-10T17:14:33Z</time>
      </trkpt>
      <trkpt lat="42.33292" lon="8.87772">
        <ele>1928.6</ele>
        <time>2022-09-10T17:14:54Z</time>
      </trkpt>
      <trkpt lat="42.332793" lon="8.877307">
        <ele>1938.0</ele>
        <time>2022-09-10T17:15:55Z</time>
      </trkpt>
      <trkpt lat="42.332755" lon="8.87726">
        <ele>1938.6</ele>
        <time>2022-09-10T17:16:03Z</time>
      </trkpt>
      <trkpt lat="42.332717" lon="8.87722">
        <ele>1939.8</ele>
        <time>2022-09-10T17:16:09Z</time>
      </trkpt>
      <trkpt lat="42.332702" lon="8.877172">
        <ele>1939.8</ele>
        <time>2022-09-10T17:16:22Z</time>
      </trkpt>
      <trkpt lat="42.332703" lon="8.877172">
        <ele>1940.2</ele>
        <time>2022-09-10T17:16:23Z</time>
      </trkpt>
      <trkpt lat="42.33271" lon="8.877172">
        <ele>1942.4</ele>
        <time>2022-09-10T17:16:32Z</time>
      </trkpt>
      <trkpt lat="42.332712" lon="8.877202">
        <ele>1943.0</ele>
        <time>2022-09-10T17:16:44Z</time>
      </trkpt>
      <trkpt lat="42.332733" lon="8.87728">
        <ele>1947.4</ele>
        <time>2022-09-10T17:17:06Z</time>
      </trkpt>
      <trkpt lat="42.332732" lon="8.877282">
        <ele>1947.6</ele>
        <time>2022-09-10T17:17:08Z</time>
      </trkpt>
      <trkpt lat="42.332687" lon="8.87723">
        <ele>1947.2</ele>
        <time>2022-09-10T17:17:19Z</time>
      </trkpt>
      <trkpt lat="42.332692" lon="8.877187">
        <ele>1950.0</ele>
        <time>2022-09-10T17:17:30Z</time>
      </trkpt>
      <trkpt lat="42.3327" lon="8.877147">
        <ele>1950.8</ele>
        <time>2022-09-10T17:17:43Z</time>
      </trkpt>
      <trkpt lat="42.33267" lon="8.8771">
        <ele>1954.4</ele>
        <time>2022-09-10T17:17:53Z</time>
      </trkpt>
      <trkpt lat="42.332662" lon="8.877065">
        <ele>1956.6</ele>
        <time>2022-09-10T17:18:00Z</time>
      </trkpt>
      <trkpt lat="42.332647" lon="8.877027">
        <ele>1958.0</ele>
        <time>2022-09-10T17:18:09Z</time>
      </trkpt>
      <trkpt lat="42.332613" lon="8.876997">
        <ele>1959.2</ele>
        <time>2022-09-10T17:18:21Z</time>
      </trkpt>
      <trkpt lat="42.332608" lon="8.876997">
        <ele>1959.2</ele>
        <time>2022-09-10T17:18:22Z</time>
      </trkpt>
      <trkpt lat="42.332578" lon="8.87694">
        <ele>1962.6</ele>
        <time>2022-09-10T17:18:36Z</time>
      </trkpt>
      <trkpt lat="42.332568" lon="8.876888">
        <ele>1964.2</ele>
        <time>2022-09-10T17:18:44Z</time>
      </trkpt>
      <trkpt lat="42.332553" lon="8.876813">
        <ele>1965.8</ele>
        <time>2022-09-10T17:18:52Z</time>
      </trkpt>
      <trkpt lat="42.332585" lon="8.876715">
        <ele>1967.8</ele>
        <time>2022-09-10T17:19:07Z</time>
      </trkpt>
      <trkpt lat="42.33257" lon="8.87667">
        <ele>1969.0</ele>
        <time>2022-09-10T17:19:11Z</time>
      </trkpt>
      <trkpt lat="42.332535" lon="8.876635">
        <ele>1971.2</ele>
        <time>2022-09-10T17:19:15Z</time>
      </trkpt>
      <trkpt lat="42.332492" lon="8.876552">
        <ele>1970.2</ele>
        <time>2022-09-10T17:19:25Z</time>
      </trkpt>
      <trkpt lat="42.33246" lon="8.876467">
        <ele>1973.8</ele>
        <time>2022-09-10T17:19:33Z</time>
      </trkpt>
      <trkpt lat="42.332575" lon="8.87644">
        <ele>1975.4</ele>
        <time>2022-09-10T17:19:47Z</time>
      </trkpt>
      <trkpt lat="42.332612" lon="8.876497">
        <ele>1977.8</ele>
        <time>2022-09-10T17:20:10Z</time>
      </trkpt>
      <trkpt lat="42.332542" lon="8.876497">
        <ele>1979.4</ele>
        <time>2022-09-10T17:20:16Z</time>
      </trkpt>
      <trkpt lat="42.33259" lon="8.876488">
        <ele>1975.4</ele>
        <time>2022-09-10T17:20:24Z</time>
      </trkpt>
      <trkpt lat="42.33266" lon="8.876497">
        <ele>1975.2</ele>
        <time>2022-09-10T17:20:32Z</time>
      </trkpt>
      <trkpt lat="42.33277" lon="8.876525">
        <ele>1978.2</ele>
        <time>2022-09-10T17:20:49Z</time>
      </trkpt>
      <trkpt lat="42.332847" lon="8.876523">
        <ele>1978.2</ele>
        <time>2022-09-10T17:20:56Z</time>
      </trkpt>
      <trkpt lat="42.33286" lon="8.876522">
        <ele>1978.2</ele>
        <time>2022-09-10T17:20:57Z</time>
      </trkpt>
      <trkpt lat="42.333112" lon="8.87637">
        <ele>1983.4</ele>
        <time>2022-09-10T17:21:36Z</time>
      </trkpt>
      <trkpt lat="42.333175" lon="8.87634">
        <ele>1985.2</ele>
        <time>2022-09-10T17:21:43Z</time>
      </trkpt>
      <trkpt lat="42.333212" lon="8.876315">
        <ele>1985.2</ele>
        <time>2022-09-10T17:21:48Z</time>
      </trkpt>
      <trkpt lat="42.333262" lon="8.876263">
        <ele>1986.8</ele>
        <time>2022-09-10T17:21:57Z</time>
      </trkpt>
      <trkpt lat="42.333307" lon="8.87621">
        <ele>1987.6</ele>
        <time>2022-09-10T17:22:05Z</time>
      </trkpt>
      <trkpt lat="42.33333" lon="8.876157">
        <ele>1988.2</ele>
        <time>2022-09-10T17:22:13Z</time>
      </trkpt>
      <trkpt lat="42.333352" lon="8.876103">
        <ele>1988.4</ele>
        <time>2022-09-10T17:22:20Z</time>
      </trkpt>
      <trkpt lat="42.333452" lon="8.875922">
        <ele>1995.8</ele>
        <time>2022-09-10T17:22:59Z</time>
      </trkpt>
      <trkpt lat="42.333483" lon="8.875865">
        <ele>1997.0</ele>
        <time>2022-09-10T17:23:08Z</time>
      </trkpt>
      <trkpt lat="42.333518" lon="8.875845">
        <ele>1997.8</ele>
        <time>2022-09-10T17:23:13Z</time>
      </trkpt>
      <trkpt lat="42.333545" lon="8.8758">
        <ele>1999.0</ele>
        <time>2022-09-10T17:23:19Z</time>
      </trkpt>
      <trkpt lat="42.333625" lon="8.875598">
        <ele>2000.0</ele>
        <time>2022-09-10T17:23:40Z</time>
      </trkpt>
      <trkpt lat="42.333668" lon="8.875492">
        <ele>2001.0</ele>
        <time>2022-09-10T17:23:49Z</time>
      </trkpt>
      <trkpt lat="42.333682" lon="8.875457">
        <ele>2001.6</ele>
        <time>2022-09-10T17:23:54Z</time>
      </trkpt>
      <trkpt lat="42.333687" lon="8.875378">
        <ele>2003.0</ele>
        <time>2022-09-10T17:24:02Z</time>
      </trkpt>
      <trkpt lat="42.333698" lon="8.87531">
        <ele>2004.4</ele>
        <time>2022-09-10T17:24:09Z</time>
      </trkpt>
      <trkpt lat="42.33372" lon="8.875278">
        <ele>2005.6</ele>
        <time>2022-09-10T17:24:13Z</time>
      </trkpt>
      <trkpt lat="42.333762" lon="8.875243">
        <ele>2007.4</ele>
        <time>2022-09-10T17:24:20Z</time>
      </trkpt>
      <trkpt lat="42.333758" lon="8.875215">
        <ele>2007.4</ele>
        <time>2022-09-10T17:24:26Z</time>
      </trkpt>
      <trkpt lat="42.333757" lon="8.87521">
        <ele>2007.4</ele>
        <time>2022-09-10T17:24:27Z</time>
      </trkpt>
      <trkpt lat="42.333808" lon="8.87516">
        <ele>2008.8</ele>
        <time>2022-09-10T17:24:36Z</time>
      </trkpt>
      <trkpt lat="42.333833" lon="8.875132">
        <ele>2010.6</ele>
        <time>2022-09-10T17:25:02Z</time>
      </trkpt>
      <trkpt lat="42.333877" lon="8.875072">
        <ele>2011.2</ele>
        <time>2022-09-10T17:25:15Z</time>
      </trkpt>
      <trkpt lat="42.333987" lon="8.874972">
        <ele>2013.4</ele>
        <time>2022-09-10T17:25:47Z</time>
      </trkpt>
      <trkpt lat="42.334018" lon="8.874832">
        <ele>2015.0</ele>
        <time>2022-09-10T17:25:59Z</time>
      </trkpt>
      <trkpt lat="42.334042" lon="8.874687">
        <ele>2017.2</ele>
        <time>2022-09-10T17:26:16Z</time>
      </trkpt>
      <trkpt lat="42.333992" lon="8.874667">
        <ele>2019.8</ele>
        <time>2022-09-10T17:26:28Z</time>
      </trkpt>
      <trkpt lat="42.333997" lon="8.874653">
        <ele>2019.8</ele>
        <time>2022-09-10T17:26:29Z</time>
      </trkpt>
      <trkpt lat="42.334045" lon="8.874603">
        <ele>2018.8</ele>
        <time>2022-09-10T17:26:37Z</time>
      </trkpt>
      <trkpt lat="42.334113" lon="8.874458">
        <ele>2020.6</ele>
        <time>2022-09-10T17:26:54Z</time>
      </trkpt>
      <trkpt lat="42.33414" lon="8.874387">
        <ele>2022.6</ele>
        <time>2022-09-10T17:27:05Z</time>
      </trkpt>
      <trkpt lat="42.334157" lon="8.874345">
        <ele>2023.6</ele>
        <time>2022-09-10T17:27:10Z</time>
      </trkpt>
      <trkpt lat="42.33422" lon="8.874287">
        <ele>2025.4</ele>
        <time>2022-09-10T17:27:21Z</time>
      </trkpt>
      <trkpt lat="42.334275" lon="8.874245">
        <ele>2027.2</ele>
        <time>2022-09-10T17:27:30Z</time>
      </trkpt>
      <trkpt lat="42.334335" lon="8.874178">
        <ele>2028.2</ele>
        <time>2022-09-10T17:27:40Z</time>
      </trkpt>
      <trkpt lat="42.334388" lon="8.87414">
        <ele>2029.8</ele>
        <time>2022-09-10T17:27:50Z</time>
      </trkpt>
      <trkpt lat="42.334408" lon="8.874138">
        <ele>2030.0</ele>
        <time>2022-09-10T17:27:53Z</time>
      </trkpt>
      <trkpt lat="42.334422" lon="8.8741">
        <ele>2031.0</ele>
        <time>2022-09-10T17:27:58Z</time>
      </trkpt>
      <trkpt lat="42.334437" lon="8.874002">
        <ele>2032.6</ele>
        <time>2022-09-10T17:28:09Z</time>
      </trkpt>
      <trkpt lat="42.33446" lon="8.873927">
        <ele>2033.4</ele>
        <time>2022-09-10T17:28:19Z</time>
      </trkpt>
      <trkpt lat="42.334447" lon="8.873782">
        <ele>2035.2</ele>
        <time>2022-09-10T17:28:36Z</time>
      </trkpt>
      <trkpt lat="42.334483" lon="8.87375">
        <ele>2036.2</ele>
        <time>2022-09-10T17:28:42Z</time>
      </trkpt>
      <trkpt lat="42.334562" lon="8.873742">
        <ele>2037.4</ele>
        <time>2022-09-10T17:28:55Z</time>
      </trkpt>
      <trkpt lat="42.33459" lon="8.873738">
        <ele>2038.8</ele>
        <time>2022-09-10T17:29:07Z</time>
      </trkpt>
      <trkpt lat="42.33468" lon="8.873683">
        <ele>2038.2</ele>
        <time>2022-09-10T17:29:19Z</time>
      </trkpt>
      <trkpt lat="42.334727" lon="8.873663">
        <ele>2039.0</ele>
        <time>2022-09-10T17:29:26Z</time>
      </trkpt>
      <trkpt lat="42.334738" lon="8.873462">
        <ele>2035.6</ele>
        <time>2022-09-10T17:29:47Z</time>
      </trkpt>
      <trkpt lat="42.33476" lon="8.87335">
        <ele>2034.4</ele>
        <time>2022-09-10T17:29:59Z</time>
      </trkpt>
      <trkpt lat="42.334755" lon="8.873297">
        <ele>2034.2</ele>
        <time>2022-09-10T17:30:04Z</time>
      </trkpt>
      <trkpt lat="42.334748" lon="8.87329">
        <ele>2034.0</ele>
        <time>2022-09-10T17:30:05Z</time>
      </trkpt>
      <trkpt lat="42.33476" lon="8.873248">
        <ele>2033.4</ele>
        <time>2022-09-10T17:30:12Z</time>
      </trkpt>
      <trkpt lat="42.334797" lon="8.873217">
        <ele>2030.8</ele>
        <time>2022-09-10T17:30:20Z</time>
      </trkpt>
      <trkpt lat="42.334835" lon="8.873108">
        <ele>2028.8</ele>
        <time>2022-09-10T17:30:37Z</time>
      </trkpt>
      <trkpt lat="42.334837" lon="8.873033">
        <ele>2026.2</ele>
        <time>2022-09-10T17:30:47Z</time>
      </trkpt>
      <trkpt lat="42.334862" lon="8.872935">
        <ele>2023.4</ele>
        <time>2022-09-10T17:31:05Z</time>
      </trkpt>
      <trkpt lat="42.334855" lon="8.872818">
        <ele>2020.6</ele>
        <time>2022-09-10T17:31:49Z</time>
      </trkpt>
      <trkpt lat="42.334865" lon="8.872728">
        <ele>2020.6</ele>
        <time>2022-09-10T17:32:03Z</time>
      </trkpt>
      <trkpt lat="42.334855" lon="8.872673">
        <ele>2020.6</ele>
        <time>2022-09-10T17:32:08Z</time>
      </trkpt>
      <trkpt lat="42.334862" lon="8.872627">
        <ele>2020.4</ele>
        <time>2022-09-10T17:32:13Z</time>
      </trkpt>
      <trkpt lat="42.334895" lon="8.872553">
        <ele>2021.0</ele>
        <time>2022-09-10T17:32:22Z</time>
      </trkpt>
      <trkpt lat="42.334897" lon="8.872478">
        <ele>2021.6</ele>
        <time>2022-09-10T17:32:33Z</time>
      </trkpt>
      <trkpt lat="42.334895" lon="8.87244">
        <ele>2022.0</ele>
        <time>2022-09-10T17:32:39Z</time>
      </trkpt>
      <trkpt lat="42.334933" lon="8.872337">
        <ele>2022.6</ele>
        <time>2022-09-10T17:32:48Z</time>
      </trkpt>
      <trkpt lat="42.33496" lon="8.87229">
        <ele>2023.0</ele>
        <time>2022-09-10T17:32:52Z</time>
      </trkpt>
      <trkpt lat="42.334963" lon="8.872142">
        <ele>2023.6</ele>
        <time>2022-09-10T17:33:11Z</time>
      </trkpt>
      <trkpt lat="42.334953" lon="8.872023">
        <ele>2021.4</ele>
        <time>2022-09-10T17:33:23Z</time>
      </trkpt>
      <trkpt lat="42.33497" lon="8.87196">
        <ele>2021.2</ele>
        <time>2022-09-10T17:33:29Z</time>
      </trkpt>
      <trkpt lat="42.33498" lon="8.871942">
        <ele>2020.8</ele>
        <time>2022-09-10T17:33:31Z</time>
      </trkpt>
      <trkpt lat="42.335023" lon="8.871922">
        <ele>2021.4</ele>
        <time>2022-09-10T17:33:38Z</time>
      </trkpt>
      <trkpt lat="42.335072" lon="8.87188">
        <ele>2022.2</ele>
        <time>2022-09-10T17:33:47Z</time>
      </trkpt>
      <trkpt lat="42.33509" lon="8.871848">
        <ele>2023.2</ele>
        <time>2022-09-10T17:33:52Z</time>
      </trkpt>
      <trkpt lat="42.335142" lon="8.87174">
        <ele>2022.6</ele>
        <time>2022-09-10T17:34:07Z</time>
      </trkpt>
      <trkpt lat="42.335197" lon="8.871645">
        <ele>2019.6</ele>
        <time>2022-09-10T17:34:23Z</time>
      </trkpt>
      <trkpt lat="42.335218" lon="8.87162">
        <ele>2018.6</ele>
        <time>2022-09-10T17:34:28Z</time>
      </trkpt>
      <trkpt lat="42.335188" lon="8.871588">
        <ele>2018.4</ele>
        <time>2022-09-10T17:34:35Z</time>
      </trkpt>
      <trkpt lat="42.335148" lon="8.871512">
        <ele>2015.8</ele>
        <time>2022-09-10T17:34:55Z</time>
      </trkpt>
      <trkpt lat="42.335103" lon="8.871493">
        <ele>2015.0</ele>
        <time>2022-09-10T17:35:11Z</time>
      </trkpt>
      <trkpt lat="42.335082" lon="8.871477">
        <ele>2013.0</ele>
        <time>2022-09-10T17:35:24Z</time>
      </trkpt>
      <trkpt lat="42.335075" lon="8.871478">
        <ele>2013.0</ele>
        <time>2022-09-10T17:35:24Z</time>
      </trkpt>
      <trkpt lat="42.335062" lon="8.871518">
        <ele>2012.6</ele>
        <time>2022-09-10T17:35:31Z</time>
      </trkpt>
      <trkpt lat="42.335047" lon="8.871533">
        <ele>2012.0</ele>
        <time>2022-09-10T17:35:36Z</time>
      </trkpt>
      <trkpt lat="42.335018" lon="8.871593">
        <ele>2010.6</ele>
        <time>2022-09-10T17:35:45Z</time>
      </trkpt>
      <trkpt lat="42.334977" lon="8.871618">
        <ele>2009.8</ele>
        <time>2022-09-10T17:35:52Z</time>
      </trkpt>
      <trkpt lat="42.334957" lon="8.871623">
        <ele>2009.2</ele>
        <time>2022-09-10T17:35:55Z</time>
      </trkpt>
      <trkpt lat="42.334992" lon="8.871492">
        <ele>2007.6</ele>
        <time>2022-09-10T17:36:07Z</time>
      </trkpt>
      <trkpt lat="42.33502" lon="8.871417">
        <ele>2007.0</ele>
        <time>2022-09-10T17:36:15Z</time>
      </trkpt>
      <trkpt lat="42.335023" lon="8.871405">
        <ele>2006.8</ele>
        <time>2022-09-10T17:36:16Z</time>
      </trkpt>
      <trkpt lat="42.335133" lon="8.87119">
        <ele>2003.0</ele>
        <time>2022-09-10T17:36:57Z</time>
      </trkpt>
      <trkpt lat="42.335208" lon="8.87104">
        <ele>2002.6</ele>
        <time>2022-09-10T17:37:19Z</time>
      </trkpt>
      <trkpt lat="42.335227" lon="8.87099">
        <ele>2000.6</ele>
        <time>2022-09-10T17:37:32Z</time>
      </trkpt>
      <trkpt lat="42.335243" lon="8.870847">
        <ele>1994.8</ele>
        <time>2022-09-10T17:38:13Z</time>
      </trkpt>
      <trkpt lat="42.335325" lon="8.870442">
        <ele>1995.0</ele>
        <time>2022-09-10T17:38:38Z</time>
      </trkpt>
      <trkpt lat="42.335293" lon="8.870147">
        <ele>1994.0</ele>
        <time>2022-09-10T17:38:49Z</time>
      </trkpt>
      <trkpt lat="42.335393" lon="8.870155">
        <ele>1994.0</ele>
        <time>2022-09-10T17:38:59Z</time>
      </trkpt>
      <trkpt lat="42.335383" lon="8.87012">
        <ele>1994.0</ele>
        <time>2022-09-10T17:38:59Z</time>
      </trkpt>
      <trkpt lat="42.335437" lon="8.869943">
        <ele>1992.8</ele>
        <time>2022-09-10T17:39:15Z</time>
      </trkpt>
      <trkpt lat="42.335435" lon="8.869932">
        <ele>1992.8</ele>
        <time>2022-09-10T17:39:16Z</time>
      </trkpt>
      <trkpt lat="42.335353" lon="8.869777">
        <ele>1990.2</ele>
        <time>2022-09-10T17:39:42Z</time>
      </trkpt>
      <trkpt lat="42.335302" lon="8.869722">
        <ele>1988.8</ele>
        <time>2022-09-10T17:39:55Z</time>
      </trkpt>
      <trkpt lat="42.33528" lon="8.869712">
        <ele>1988.4</ele>
        <time>2022-09-10T17:40:00Z</time>
      </trkpt>
      <trkpt lat="42.335258" lon="8.869725">
        <ele>1987.8</ele>
        <time>2022-09-10T17:40:06Z</time>
      </trkpt>
      <trkpt lat="42.335228" lon="8.869805">
        <ele>1987.0</ele>
        <time>2022-09-10T17:40:15Z</time>
      </trkpt>
      <trkpt lat="42.335202" lon="8.869888">
        <ele>1986.8</ele>
        <time>2022-09-10T17:40:24Z</time>
      </trkpt>
      <trkpt lat="42.335177" lon="8.86992">
        <ele>1987.0</ele>
        <time>2022-09-10T17:40:30Z</time>
      </trkpt>
      <trkpt lat="42.335153" lon="8.869923">
        <ele>1987.6</ele>
        <time>2022-09-10T17:40:37Z</time>
      </trkpt>
      <trkpt lat="42.33515" lon="8.869935">
        <ele>1987.6</ele>
        <time>2022-09-10T17:40:45Z</time>
      </trkpt>
      <trkpt lat="42.335275" lon="8.869783">
        <ele>1988.0</ele>
        <time>2022-09-10T17:41:09Z</time>
      </trkpt>
      <trkpt lat="42.335342" lon="8.869763">
        <ele>1988.6</ele>
        <time>2022-09-10T17:41:17Z</time>
      </trkpt>
      <trkpt lat="42.335365" lon="8.869757">
        <ele>1988.6</ele>
        <time>2022-09-10T17:41:21Z</time>
      </trkpt>
      <trkpt lat="42.335437" lon="8.869615">
        <ele>1988.4</ele>
        <time>2022-09-10T17:41:43Z</time>
      </trkpt>
      <trkpt lat="42.335445" lon="8.869567">
        <ele>1988.4</ele>
        <time>2022-09-10T17:41:51Z</time>
      </trkpt>
      <trkpt lat="42.335465" lon="8.869595">
        <ele>1988.8</ele>
        <time>2022-09-10T17:41:58Z</time>
      </trkpt>
      <trkpt lat="42.33544" lon="8.869602">
        <ele>1989.0</ele>
        <time>2022-09-10T17:42:07Z</time>
      </trkpt>
      <trkpt lat="42.335435" lon="8.8696">
        <ele>1989.0</ele>
        <time>2022-09-10T17:42:09Z</time>
      </trkpt>
      <trkpt lat="42.334912" lon="8.868208">
        <ele>2001.6</ele>
        <time>2022-09-11T06:03:49Z</time>
      </trkpt>
      <trkpt lat="42.334912" lon="8.868208">
        <ele>2001.8</ele>
        <time>2022-09-11T06:03:54Z</time>
      </trkpt>
      <trkpt lat="42.334925" lon="8.868237">
        <ele>2001.4</ele>
        <time>2022-09-11T06:04:02Z</time>
      </trkpt>
      <trkpt lat="42.335003" lon="8.86817">
        <ele>2001.0</ele>
        <time>2022-09-11T06:04:14Z</time>
      </trkpt>
      <trkpt lat="42.335013" lon="8.868108">
        <ele>2001.2</ele>
        <time>2022-09-11T06:04:21Z</time>
      </trkpt>
      <trkpt lat="42.335007" lon="8.86807">
        <ele>2002.0</ele>
        <time>2022-09-11T06:04:26Z</time>
      </trkpt>
      <trkpt lat="42.334962" lon="8.86799">
        <ele>2002.8</ele>
        <time>2022-09-11T06:04:39Z</time>
      </trkpt>
      <trkpt lat="42.334962" lon="8.867927">
        <ele>2003.8</ele>
        <time>2022-09-11T06:04:48Z</time>
      </trkpt>
      <trkpt lat="42.33489" lon="8.86782">
        <ele>2003.6</ele>
        <time>2022-09-11T06:05:03Z</time>
      </trkpt>
      <trkpt lat="42.334852" lon="8.867755">
        <ele>2003.0</ele>
        <time>2022-09-11T06:05:11Z</time>
      </trkpt>
      <trkpt lat="42.334832" lon="8.867738">
        <ele>2003.0</ele>
        <time>2022-09-11T06:05:14Z</time>
      </trkpt>
      <trkpt lat="42.334798" lon="8.86762">
        <ele>2002.2</ele>
        <time>2022-09-11T06:05:25Z</time>
      </trkpt>
      <trkpt lat="42.33476" lon="8.867523">
        <ele>2002.4</ele>
        <time>2022-09-11T06:05:33Z</time>
      </trkpt>
      <trkpt lat="42.334755" lon="8.867497">
        <ele>2002.4</ele>
        <time>2022-09-11T06:05:35Z</time>
      </trkpt>
      <trkpt lat="42.334695" lon="8.867398">
        <ele>2002.0</ele>
        <time>2022-09-11T06:05:44Z</time>
      </trkpt>
      <trkpt lat="42.334628" lon="8.867338">
        <ele>2002.0</ele>
        <time>2022-09-11T06:05:51Z</time>
      </trkpt>
      <trkpt lat="42.334583" lon="8.867327">
        <ele>2001.6</ele>
        <time>2022-09-11T06:05:55Z</time>
      </trkpt>
      <trkpt lat="42.334528" lon="8.867282">
        <ele>2001.6</ele>
        <time>2022-09-11T06:06:03Z</time>
      </trkpt>
      <trkpt lat="42.334478" lon="8.867228">
        <ele>2001.6</ele>
        <time>2022-09-11T06:06:11Z</time>
      </trkpt>
      <trkpt lat="42.334462" lon="8.86719">
        <ele>2000.6</ele>
        <time>2022-09-11T06:06:17Z</time>
      </trkpt>
      <trkpt lat="42.334477" lon="8.86714">
        <ele>1999.8</ele>
        <time>2022-09-11T06:06:25Z</time>
      </trkpt>
      <trkpt lat="42.334487" lon="8.86708">
        <ele>1997.2</ele>
        <time>2022-09-11T06:06:35Z</time>
      </trkpt>
      <trkpt lat="42.334488" lon="8.866982">
        <ele>1997.4</ele>
        <time>2022-09-11T06:06:46Z</time>
      </trkpt>
      <trkpt lat="42.334487" lon="8.86697">
        <ele>1997.4</ele>
        <time>2022-09-11T06:06:47Z</time>
      </trkpt>
      <trkpt lat="42.33442" lon="8.866477">
        <ele>1997.0</ele>
        <time>2022-09-11T06:07:15Z</time>
      </trkpt>
      <trkpt lat="42.334377" lon="8.866352">
        <ele>1998.0</ele>
        <time>2022-09-11T06:07:22Z</time>
      </trkpt>
      <trkpt lat="42.334298" lon="8.866153">
        <ele>1998.0</ele>
        <time>2022-09-11T06:07:36Z</time>
      </trkpt>
      <trkpt lat="42.334302" lon="8.86608">
        <ele>1997.0</ele>
        <time>2022-09-11T06:07:43Z</time>
      </trkpt>
      <trkpt lat="42.334285" lon="8.86599">
        <ele>1996.0</ele>
        <time>2022-09-11T06:07:51Z</time>
      </trkpt>
      <trkpt lat="42.334168" lon="8.86596">
        <ele>1994.8</ele>
        <time>2022-09-11T06:08:03Z</time>
      </trkpt>
      <trkpt lat="42.334075" lon="8.865965">
        <ele>1994.4</ele>
        <time>2022-09-11T06:08:13Z</time>
      </trkpt>
      <trkpt lat="42.33409" lon="8.865938">
        <ele>1993.6</ele>
        <time>2022-09-11T06:08:20Z</time>
      </trkpt>
      <trkpt lat="42.334143" lon="8.8659">
        <ele>1993.4</ele>
        <time>2022-09-11T06:08:30Z</time>
      </trkpt>
      <trkpt lat="42.334205" lon="8.865833">
        <ele>1993.4</ele>
        <time>2022-09-11T06:08:39Z</time>
      </trkpt>
      <trkpt lat="42.334303" lon="8.865698">
        <ele>1996.6</ele>
        <time>2022-09-11T06:09:16Z</time>
      </trkpt>
      <trkpt lat="42.334305" lon="8.8657">
        <ele>1997.0</ele>
        <time>2022-09-11T06:09:17Z</time>
      </trkpt>
      <trkpt lat="42.33431" lon="8.865713">
        <ele>1994.8</ele>
        <time>2022-09-11T06:09:36Z</time>
      </trkpt>
      <trkpt lat="42.334275" lon="8.865713">
        <ele>1994.2</ele>
        <time>2022-09-11T06:09:54Z</time>
      </trkpt>
      <trkpt lat="42.334232" lon="8.865765">
        <ele>1996.0</ele>
        <time>2022-09-11T06:10:39Z</time>
      </trkpt>
      <trkpt lat="42.33423" lon="8.86576">
        <ele>1995.8</ele>
        <time>2022-09-11T06:10:44Z</time>
      </trkpt>
      <trkpt lat="42.334232" lon="8.865748">
        <ele>1995.6</ele>
        <time>2022-09-11T06:10:48Z</time>
      </trkpt>
      <trkpt lat="42.334192" lon="8.865708">
        <ele>1994.2</ele>
        <time>2022-09-11T06:11:02Z</time>
      </trkpt>
      <trkpt lat="42.33415" lon="8.865742">
        <ele>1994.6</ele>
        <time>2022-09-11T06:13:47Z</time>
      </trkpt>
      <trkpt lat="42.334133" lon="8.86578">
        <ele>1994.6</ele>
        <time>2022-09-11T06:13:52Z</time>
      </trkpt>
      <trkpt lat="42.334115" lon="8.865802">
        <ele>1994.2</ele>
        <time>2022-09-11T06:13:55Z</time>
      </trkpt>
      <trkpt lat="42.334147" lon="8.865793">
        <ele>1993.8</ele>
        <time>2022-09-11T06:14:00Z</time>
      </trkpt>
      <trkpt lat="42.334202" lon="8.865818">
        <ele>1993.4</ele>
        <time>2022-09-11T06:14:11Z</time>
      </trkpt>
      <trkpt lat="42.334208" lon="8.865878">
        <ele>1993.6</ele>
        <time>2022-09-11T06:14:17Z</time>
      </trkpt>
      <trkpt lat="42.334218" lon="8.865912">
        <ele>1993.4</ele>
        <time>2022-09-11T06:14:23Z</time>
      </trkpt>
      <trkpt lat="42.334233" lon="8.865853">
        <ele>1993.2</ele>
        <time>2022-09-11T06:14:57Z</time>
      </trkpt>
      <trkpt lat="42.334208" lon="8.86583">
        <ele>1994.4</ele>
        <time>2022-09-11T06:15:10Z</time>
      </trkpt>
      <trkpt lat="42.334203" lon="8.865828">
        <ele>1995.2</ele>
        <time>2022-09-11T06:15:13Z</time>
      </trkpt>
      <trkpt lat="42.334055" lon="8.865547">
        <ele>1995.6</ele>
        <time>2022-09-11T06:15:33Z</time>
      </trkpt>
      <trkpt lat="42.333975" lon="8.865427">
        <ele>1995.8</ele>
        <time>2022-09-11T06:15:42Z</time>
      </trkpt>
      <trkpt lat="42.333892" lon="8.865315">
        <ele>1996.4</ele>
        <time>2022-09-11T06:15:50Z</time>
      </trkpt>
      <trkpt lat="42.333853" lon="8.86519">
        <ele>1996.4</ele>
        <time>2022-09-11T06:15:57Z</time>
      </trkpt>
      <trkpt lat="42.333845" lon="8.865175">
        <ele>1996.4</ele>
        <time>2022-09-11T06:15:58Z</time>
      </trkpt>
      <trkpt lat="42.333775" lon="8.865183">
        <ele>1996.4</ele>
        <time>2022-09-11T06:16:10Z</time>
      </trkpt>
      <trkpt lat="42.333767" lon="8.865082">
        <ele>1995.4</ele>
        <time>2022-09-11T06:16:29Z</time>
      </trkpt>
      <trkpt lat="42.333768" lon="8.865073">
        <ele>1995.4</ele>
        <time>2022-09-11T06:16:29Z</time>
      </trkpt>
      <trkpt lat="42.333712" lon="8.864818">
        <ele>1995.4</ele>
        <time>2022-09-11T06:16:48Z</time>
      </trkpt>
      <trkpt lat="42.333703" lon="8.864793">
        <ele>1995.6</ele>
        <time>2022-09-11T06:16:51Z</time>
      </trkpt>
      <trkpt lat="42.333682" lon="8.86475">
        <ele>1995.8</ele>
        <time>2022-09-11T06:16:54Z</time>
      </trkpt>
      <trkpt lat="42.333608" lon="8.864643">
        <ele>1996.0</ele>
        <time>2022-09-11T06:17:02Z</time>
      </trkpt>
      <trkpt lat="42.333547" lon="8.864575">
        <ele>1996.6</ele>
        <time>2022-09-11T06:17:09Z</time>
      </trkpt>
      <trkpt lat="42.333483" lon="8.864537">
        <ele>1997.0</ele>
        <time>2022-09-11T06:17:16Z</time>
      </trkpt>
      <trkpt lat="42.33345" lon="8.864517">
        <ele>1996.6</ele>
        <time>2022-09-11T06:17:21Z</time>
      </trkpt>
      <trkpt lat="42.333392" lon="8.864462">
        <ele>1996.6</ele>
        <time>2022-09-11T06:17:29Z</time>
      </trkpt>
      <trkpt lat="42.333353" lon="8.864438">
        <ele>1997.6</ele>
        <time>2022-09-11T06:17:34Z</time>
      </trkpt>
      <trkpt lat="42.33332" lon="8.864385">
        <ele>1996.2</ele>
        <time>2022-09-11T06:17:40Z</time>
      </trkpt>
      <trkpt lat="42.333265" lon="8.864248">
        <ele>1998.0</ele>
        <time>2022-09-11T06:17:53Z</time>
      </trkpt>
      <trkpt lat="42.333247" lon="8.864202">
        <ele>1998.6</ele>
        <time>2022-09-11T06:17:59Z</time>
      </trkpt>
      <trkpt lat="42.333263" lon="8.864108">
        <ele>1997.4</ele>
        <time>2022-09-11T06:18:05Z</time>
      </trkpt>
      <trkpt lat="42.333255" lon="8.864095">
        <ele>1997.8</ele>
        <time>2022-09-11T06:18:06Z</time>
      </trkpt>
      <trkpt lat="42.333118" lon="8.863902">
        <ele>1997.4</ele>
        <time>2022-09-11T06:18:26Z</time>
      </trkpt>
      <trkpt lat="42.333057" lon="8.863908">
        <ele>1997.4</ele>
        <time>2022-09-11T06:18:34Z</time>
      </trkpt>
      <trkpt lat="42.332982" lon="8.863938">
        <ele>1997.4</ele>
        <time>2022-09-11T06:18:47Z</time>
      </trkpt>
      <trkpt lat="42.332975" lon="8.863942">
        <ele>1997.4</ele>
        <time>2022-09-11T06:18:48Z</time>
      </trkpt>
      <trkpt lat="42.33292" lon="8.863865">
        <ele>1995.2</ele>
        <time>2022-09-11T06:18:57Z</time>
      </trkpt>
      <trkpt lat="42.332873" lon="8.863818">
        <ele>1994.4</ele>
        <time>2022-09-11T06:19:05Z</time>
      </trkpt>
      <trkpt lat="42.332832" lon="8.863795">
        <ele>1994.0</ele>
        <time>2022-09-11T06:19:11Z</time>
      </trkpt>
      <trkpt lat="42.332745" lon="8.863648">
        <ele>1992.2</ele>
        <time>2022-09-11T06:19:25Z</time>
      </trkpt>
      <trkpt lat="42.33272" lon="8.863588">
        <ele>1992.2</ele>
        <time>2022-09-11T06:19:30Z</time>
      </trkpt>
      <trkpt lat="42.332705" lon="8.86357">
        <ele>1993.4</ele>
        <time>2022-09-11T06:19:32Z</time>
      </trkpt>
      <trkpt lat="42.332377" lon="8.863318">
        <ele>1984.8</ele>
        <time>2022-09-11T06:20:07Z</time>
      </trkpt>
      <trkpt lat="42.33226" lon="8.86319">
        <ele>1981.6</ele>
        <time>2022-09-11T06:20:22Z</time>
      </trkpt>
      <trkpt lat="42.332253" lon="8.863187">
        <ele>1980.8</ele>
        <time>2022-09-11T06:20:24Z</time>
      </trkpt>
      <trkpt lat="42.332173" lon="8.863152">
        <ele>1978.6</ele>
        <time>2022-09-11T06:20:35Z</time>
      </trkpt>
      <trkpt lat="42.332077" lon="8.863112">
        <ele>1976.6</ele>
        <time>2022-09-11T06:20:51Z</time>
      </trkpt>
      <trkpt lat="42.332072" lon="8.863112">
        <ele>1976.6</ele>
        <time>2022-09-11T06:20:52Z</time>
      </trkpt>
      <trkpt lat="42.332012" lon="8.86302">
        <ele>1975.2</ele>
        <time>2022-09-11T06:21:03Z</time>
      </trkpt>
      <trkpt lat="42.331848" lon="8.862858">
        <ele>1972.6</ele>
        <time>2022-09-11T06:21:24Z</time>
      </trkpt>
      <trkpt lat="42.331735" lon="8.862715">
        <ele>1971.4</ele>
        <time>2022-09-11T06:21:41Z</time>
      </trkpt>
      <trkpt lat="42.331668" lon="8.86264">
        <ele>1970.2</ele>
        <time>2022-09-11T06:21:49Z</time>
      </trkpt>
      <trkpt lat="42.331583" lon="8.862588">
        <ele>1968.8</ele>
        <time>2022-09-11T06:21:58Z</time>
      </trkpt>
      <trkpt lat="42.331425" lon="8.862465">
        <ele>1965.8</ele>
        <time>2022-09-11T06:22:16Z</time>
      </trkpt>
      <trkpt lat="42.33142" lon="8.862458">
        <ele>1965.6</ele>
        <time>2022-09-11T06:22:18Z</time>
      </trkpt>
      <trkpt lat="42.331362" lon="8.862367">
        <ele>1964.6</ele>
        <time>2022-09-11T06:22:29Z</time>
      </trkpt>
      <trkpt lat="42.331323" lon="8.862313">
        <ele>1963.0</ele>
        <time>2022-09-11T06:22:36Z</time>
      </trkpt>
      <trkpt lat="42.331285" lon="8.862295">
        <ele>1963.0</ele>
        <time>2022-09-11T06:22:41Z</time>
      </trkpt>
      <trkpt lat="42.331222" lon="8.86224">
        <ele>1962.2</ele>
        <time>2022-09-11T06:22:48Z</time>
      </trkpt>
      <trkpt lat="42.331125" lon="8.862138">
        <ele>1961.6</ele>
        <time>2022-09-11T06:23:01Z</time>
      </trkpt>
      <trkpt lat="42.33105" lon="8.86206">
        <ele>1960.8</ele>
        <time>2022-09-11T06:23:10Z</time>
      </trkpt>
      <trkpt lat="42.331012" lon="8.862007">
        <ele>1961.4</ele>
        <time>2022-09-11T06:23:15Z</time>
      </trkpt>
      <trkpt lat="42.330983" lon="8.861948">
        <ele>1961.2</ele>
        <time>2022-09-11T06:23:20Z</time>
      </trkpt>
      <trkpt lat="42.33094" lon="8.861895">
        <ele>1960.8</ele>
        <time>2022-09-11T06:23:26Z</time>
      </trkpt>
      <trkpt lat="42.330895" lon="8.861837">
        <ele>1959.6</ele>
        <time>2022-09-11T06:23:33Z</time>
      </trkpt>
      <trkpt lat="42.330838" lon="8.861733">
        <ele>1957.6</ele>
        <time>2022-09-11T06:23:42Z</time>
      </trkpt>
      <trkpt lat="42.330802" lon="8.861722">
        <ele>1956.8</ele>
        <time>2022-09-11T06:23:46Z</time>
      </trkpt>
      <trkpt lat="42.330658" lon="8.861748">
        <ele>1955.0</ele>
        <time>2022-09-11T06:24:00Z</time>
      </trkpt>
      <trkpt lat="42.330648" lon="8.86175">
        <ele>1954.8</ele>
        <time>2022-09-11T06:24:01Z</time>
      </trkpt>
      <trkpt lat="42.330545" lon="8.861693">
        <ele>1953.2</ele>
        <time>2022-09-11T06:24:14Z</time>
      </trkpt>
      <trkpt lat="42.330508" lon="8.861653">
        <ele>1952.8</ele>
        <time>2022-09-11T06:24:19Z</time>
      </trkpt>
      <trkpt lat="42.330478" lon="8.861622">
        <ele>1952.4</ele>
        <time>2022-09-11T06:24:23Z</time>
      </trkpt>
      <trkpt lat="42.330413" lon="8.861618">
        <ele>1951.6</ele>
        <time>2022-09-11T06:24:30Z</time>
      </trkpt>
      <trkpt lat="42.330405" lon="8.86162">
        <ele>1951.6</ele>
        <time>2022-09-11T06:24:31Z</time>
      </trkpt>
      <trkpt lat="42.33027" lon="8.86158">
        <ele>1950.2</ele>
        <time>2022-09-11T06:24:47Z</time>
      </trkpt>
      <trkpt lat="42.33026" lon="8.861578">
        <ele>1950.0</ele>
        <time>2022-09-11T06:24:48Z</time>
      </trkpt>
      <trkpt lat="42.330138" lon="8.86156">
        <ele>1948.0</ele>
        <time>2022-09-11T06:24:59Z</time>
      </trkpt>
      <trkpt lat="42.330042" lon="8.861565">
        <ele>1946.8</ele>
        <time>2022-09-11T06:25:07Z</time>
      </trkpt>
      <trkpt lat="42.329868" lon="8.861595">
        <ele>1945.6</ele>
        <time>2022-09-11T06:25:20Z</time>
      </trkpt>
      <trkpt lat="42.329755" lon="8.861645">
        <ele>1947.2</ele>
        <time>2022-09-11T06:25:35Z</time>
      </trkpt>
      <trkpt lat="42.329675" lon="8.86168">
        <ele>1947.0</ele>
        <time>2022-09-11T06:25:46Z</time>
      </trkpt>
      <trkpt lat="42.329588" lon="8.861693">
        <ele>1947.0</ele>
        <time>2022-09-11T06:25:56Z</time>
      </trkpt>
      <trkpt lat="42.329553" lon="8.861717">
        <ele>1947.2</ele>
        <time>2022-09-11T06:26:01Z</time>
      </trkpt>
      <trkpt lat="42.329483" lon="8.861722">
        <ele>1949.4</ele>
        <time>2022-09-11T06:26:09Z</time>
      </trkpt>
      <trkpt lat="42.329278" lon="8.861657">
        <ele>1954.0</ele>
        <time>2022-09-11T06:26:38Z</time>
      </trkpt>
      <trkpt lat="42.329237" lon="8.861667">
        <ele>1956.0</ele>
        <time>2022-09-11T06:26:43Z</time>
      </trkpt>
      <trkpt lat="42.329167" lon="8.861685">
        <ele>1953.4</ele>
        <time>2022-09-11T06:26:53Z</time>
      </trkpt>
      <trkpt lat="42.32906" lon="8.861727">
        <ele>1955.4</ele>
        <time>2022-09-11T06:27:09Z</time>
      </trkpt>
      <trkpt lat="42.329007" lon="8.861725">
        <ele>1956.0</ele>
        <time>2022-09-11T06:27:17Z</time>
      </trkpt>
      <trkpt lat="42.328952" lon="8.861658">
        <ele>1957.2</ele>
        <time>2022-09-11T06:27:27Z</time>
      </trkpt>
      <trkpt lat="42.328912" lon="8.86167">
        <ele>1957.6</ele>
        <time>2022-09-11T06:27:33Z</time>
      </trkpt>
      <trkpt lat="42.3289" lon="8.86168">
        <ele>1958.0</ele>
        <time>2022-09-11T06:27:35Z</time>
      </trkpt>
      <trkpt lat="42.328853" lon="8.861693">
        <ele>1958.6</ele>
        <time>2022-09-11T06:27:43Z</time>
      </trkpt>
      <trkpt lat="42.328847" lon="8.861693">
        <ele>1959.0</ele>
        <time>2022-09-11T06:27:44Z</time>
      </trkpt>
      <trkpt lat="42.328817" lon="8.861723">
        <ele>1960.6</ele>
        <time>2022-09-11T06:27:55Z</time>
      </trkpt>
      <trkpt lat="42.328828" lon="8.861775">
        <ele>1963.0</ele>
        <time>2022-09-11T06:28:04Z</time>
      </trkpt>
      <trkpt lat="42.328845" lon="8.861798">
        <ele>1962.6</ele>
        <time>2022-09-11T06:28:09Z</time>
      </trkpt>
      <trkpt lat="42.32883" lon="8.861835">
        <ele>1962.2</ele>
        <time>2022-09-11T06:28:19Z</time>
      </trkpt>
      <trkpt lat="42.32879" lon="8.861828">
        <ele>1962.0</ele>
        <time>2022-09-11T06:28:26Z</time>
      </trkpt>
      <trkpt lat="42.328753" lon="8.861817">
        <ele>1963.4</ele>
        <time>2022-09-11T06:28:29Z</time>
      </trkpt>
      <trkpt lat="42.328672" lon="8.861727">
        <ele>1960.6</ele>
        <time>2022-09-11T06:28:42Z</time>
      </trkpt>
      <trkpt lat="42.328697" lon="8.86163">
        <ele>1959.6</ele>
        <time>2022-09-11T06:30:05Z</time>
      </trkpt>
      <trkpt lat="42.328678" lon="8.861645">
        <ele>1959.6</ele>
        <time>2022-09-11T06:30:14Z</time>
      </trkpt>
      <trkpt lat="42.328657" lon="8.861683">
        <ele>1960.2</ele>
        <time>2022-09-11T06:30:19Z</time>
      </trkpt>
      <trkpt lat="42.328613" lon="8.861705">
        <ele>1954.2</ele>
        <time>2022-09-11T06:30:40Z</time>
      </trkpt>
      <trkpt lat="42.328538" lon="8.861692">
        <ele>1953.4</ele>
        <time>2022-09-11T06:30:54Z</time>
      </trkpt>
      <trkpt lat="42.32848" lon="8.861648">
        <ele>1952.4</ele>
        <time>2022-09-11T06:31:02Z</time>
      </trkpt>
      <trkpt lat="42.328463" lon="8.861625">
        <ele>1952.0</ele>
        <time>2022-09-11T06:31:05Z</time>
      </trkpt>
      <trkpt lat="42.328393" lon="8.861578">
        <ele>1950.6</ele>
        <time>2022-09-11T06:31:18Z</time>
      </trkpt>
      <trkpt lat="42.328373" lon="8.86157">
        <ele>1950.6</ele>
        <time>2022-09-11T06:31:23Z</time>
      </trkpt>
      <trkpt lat="42.328342" lon="8.861588">
        <ele>1948.2</ele>
        <time>2022-09-11T06:31:42Z</time>
      </trkpt>
      <trkpt lat="42.3283" lon="8.861563">
        <ele>1944.2</ele>
        <time>2022-09-11T06:32:04Z</time>
      </trkpt>
      <trkpt lat="42.32826" lon="8.861537">
        <ele>1941.2</ele>
        <time>2022-09-11T06:32:23Z</time>
      </trkpt>
      <trkpt lat="42.327998" lon="8.861307">
        <ele>1939.0</ele>
        <time>2022-09-11T06:32:37Z</time>
      </trkpt>
      <trkpt lat="42.327815" lon="8.861287">
        <ele>1936.8</ele>
        <time>2022-09-11T06:32:49Z</time>
      </trkpt>
      <trkpt lat="42.327742" lon="8.861217">
        <ele>1935.4</ele>
        <time>2022-09-11T06:32:59Z</time>
      </trkpt>
      <trkpt lat="42.327703" lon="8.861198">
        <ele>1935.4</ele>
        <time>2022-09-11T06:32:59Z</time>
      </trkpt>
      <trkpt lat="42.327658" lon="8.861222">
        <ele>1935.0</ele>
        <time>2022-09-11T06:33:04Z</time>
      </trkpt>
      <trkpt lat="42.327622" lon="8.861228">
        <ele>1935.0</ele>
        <time>2022-09-11T06:33:08Z</time>
      </trkpt>
      <trkpt lat="42.32759" lon="8.861188">
        <ele>1934.2</ele>
        <time>2022-09-11T06:33:12Z</time>
      </trkpt>
      <trkpt lat="42.32757" lon="8.86114">
        <ele>1933.2</ele>
        <time>2022-09-11T06:33:17Z</time>
      </trkpt>
      <trkpt lat="42.327543" lon="8.861067">
        <ele>1931.4</ele>
        <time>2022-09-11T06:33:25Z</time>
      </trkpt>
      <trkpt lat="42.327485" lon="8.861033">
        <ele>1930.8</ele>
        <time>2022-09-11T06:33:34Z</time>
      </trkpt>
      <trkpt lat="42.327475" lon="8.861017">
        <ele>1930.6</ele>
        <time>2022-09-11T06:33:36Z</time>
      </trkpt>
      <trkpt lat="42.327462" lon="8.860908">
        <ele>1929.2</ele>
        <time>2022-09-11T06:33:46Z</time>
      </trkpt>
      <trkpt lat="42.327468" lon="8.860867">
        <ele>1928.8</ele>
        <time>2022-09-11T06:33:50Z</time>
      </trkpt>
      <trkpt lat="42.327428" lon="8.86078">
        <ele>1928.0</ele>
        <time>2022-09-11T06:33:59Z</time>
      </trkpt>
      <trkpt lat="42.327375" lon="8.860728">
        <ele>1927.6</ele>
        <time>2022-09-11T06:34:06Z</time>
      </trkpt>
      <trkpt lat="42.327368" lon="8.860723">
        <ele>1927.6</ele>
        <time>2022-09-11T06:34:06Z</time>
      </trkpt>
      <trkpt lat="42.327328" lon="8.860758">
        <ele>1925.8</ele>
        <time>2022-09-11T06:34:14Z</time>
      </trkpt>
      <trkpt lat="42.327257" lon="8.860765">
        <ele>1923.8</ele>
        <time>2022-09-11T06:34:24Z</time>
      </trkpt>
      <trkpt lat="42.327197" lon="8.86077">
        <ele>1922.2</ele>
        <time>2022-09-11T06:34:33Z</time>
      </trkpt>
      <trkpt lat="42.327037" lon="8.86087">
        <ele>1918.6</ele>
        <time>2022-09-11T06:34:57Z</time>
      </trkpt>
      <trkpt lat="42.327017" lon="8.860897">
        <ele>1918.2</ele>
        <time>2022-09-11T06:35:01Z</time>
      </trkpt>
      <trkpt lat="42.32698" lon="8.860915">
        <ele>1916.8</ele>
        <time>2022-09-11T06:35:08Z</time>
      </trkpt>
      <trkpt lat="42.326968" lon="8.860913">
        <ele>1915.4</ele>
        <time>2022-09-11T06:35:10Z</time>
      </trkpt>
      <trkpt lat="42.326933" lon="8.860937">
        <ele>1915.2</ele>
        <time>2022-09-11T06:35:17Z</time>
      </trkpt>
      <trkpt lat="42.326907" lon="8.860967">
        <ele>1914.6</ele>
        <time>2022-09-11T06:35:23Z</time>
      </trkpt>
      <trkpt lat="42.326877" lon="8.860973">
        <ele>1914.0</ele>
        <time>2022-09-11T06:35:28Z</time>
      </trkpt>
      <trkpt lat="42.32681" lon="8.86082">
        <ele>1911.2</ele>
        <time>2022-09-11T06:35:43Z</time>
      </trkpt>
      <trkpt lat="42.326732" lon="8.860765">
        <ele>1909.6</ele>
        <time>2022-09-11T06:35:51Z</time>
      </trkpt>
      <trkpt lat="42.32669" lon="8.860692">
        <ele>1908.8</ele>
        <time>2022-09-11T06:35:57Z</time>
      </trkpt>
      <trkpt lat="42.326677" lon="8.860692">
        <ele>1908.8</ele>
        <time>2022-09-11T06:35:57Z</time>
      </trkpt>
      <trkpt lat="42.326617" lon="8.860665">
        <ele>1909.4</ele>
        <time>2022-09-11T06:36:05Z</time>
      </trkpt>
      <trkpt lat="42.326578" lon="8.86064">
        <ele>1906.8</ele>
        <time>2022-09-11T06:36:13Z</time>
      </trkpt>
      <trkpt lat="42.326547" lon="8.860638">
        <ele>1905.0</ele>
        <time>2022-09-11T06:36:17Z</time>
      </trkpt>
      <trkpt lat="42.326478" lon="8.860685">
        <ele>1903.2</ele>
        <time>2022-09-11T06:36:27Z</time>
      </trkpt>
      <trkpt lat="42.326328" lon="8.860747">
        <ele>1901.2</ele>
        <time>2022-09-11T06:36:47Z</time>
      </trkpt>
      <trkpt lat="42.326302" lon="8.860735">
        <ele>1900.0</ele>
        <time>2022-09-11T06:36:54Z</time>
      </trkpt>
      <trkpt lat="42.326252" lon="8.860703">
        <ele>1898.4</ele>
        <time>2022-09-11T06:37:12Z</time>
      </trkpt>
      <trkpt lat="42.326167" lon="8.86061">
        <ele>1899.0</ele>
        <time>2022-09-11T06:37:26Z</time>
      </trkpt>
      <trkpt lat="42.326115" lon="8.860577">
        <ele>1897.0</ele>
        <time>2022-09-11T06:37:32Z</time>
      </trkpt>
      <trkpt lat="42.326077" lon="8.860557">
        <ele>1895.8</ele>
        <time>2022-09-11T06:37:36Z</time>
      </trkpt>
      <trkpt lat="42.32599" lon="8.86057">
        <ele>1894.4</ele>
        <time>2022-09-11T06:37:46Z</time>
      </trkpt>
      <trkpt lat="42.325952" lon="8.860573">
        <ele>1894.0</ele>
        <time>2022-09-11T06:38:17Z</time>
      </trkpt>
      <trkpt lat="42.325892" lon="8.860572">
        <ele>1895.8</ele>
        <time>2022-09-11T06:38:35Z</time>
      </trkpt>
      <trkpt lat="42.325782" lon="8.860558">
        <ele>1891.2</ele>
        <time>2022-09-11T06:38:47Z</time>
      </trkpt>
      <trkpt lat="42.325602" lon="8.86047">
        <ele>1890.6</ele>
        <time>2022-09-11T06:39:05Z</time>
      </trkpt>
      <trkpt lat="42.32559" lon="8.860468">
        <ele>1890.0</ele>
        <time>2022-09-11T06:39:06Z</time>
      </trkpt>
      <trkpt lat="42.3255" lon="8.860492">
        <ele>1888.6</ele>
        <time>2022-09-11T06:39:19Z</time>
      </trkpt>
      <trkpt lat="42.325412" lon="8.86052">
        <ele>1886.2</ele>
        <time>2022-09-11T06:39:31Z</time>
      </trkpt>
      <trkpt lat="42.325258" lon="8.860545">
        <ele>1881.4</ele>
        <time>2022-09-11T06:39:52Z</time>
      </trkpt>
      <trkpt lat="42.325252" lon="8.860548">
        <ele>1881.0</ele>
        <time>2022-09-11T06:39:53Z</time>
      </trkpt>
      <trkpt lat="42.325203" lon="8.86056">
        <ele>1880.0</ele>
        <time>2022-09-11T06:39:57Z</time>
      </trkpt>
      <trkpt lat="42.325245" lon="8.860495">
        <ele>1879.6</ele>
        <time>2022-09-11T06:40:05Z</time>
      </trkpt>
      <trkpt lat="42.325372" lon="8.860568">
        <ele>1881.8</ele>
        <time>2022-09-11T06:40:16Z</time>
      </trkpt>
      <trkpt lat="42.325565" lon="8.86058">
        <ele>1884.6</ele>
        <time>2022-09-11T06:40:29Z</time>
      </trkpt>
      <trkpt lat="42.325572" lon="8.860575">
        <ele>1885.0</ele>
        <time>2022-09-11T06:40:30Z</time>
      </trkpt>
      <trkpt lat="42.325637" lon="8.860537">
        <ele>1886.4</ele>
        <time>2022-09-11T06:40:39Z</time>
      </trkpt>
      <trkpt lat="42.325665" lon="8.860448">
        <ele>1889.0</ele>
        <time>2022-09-11T06:40:49Z</time>
      </trkpt>
      <trkpt lat="42.325668" lon="8.860357">
        <ele>1889.0</ele>
        <time>2022-09-11T06:41:05Z</time>
      </trkpt>
      <trkpt lat="42.32562" lon="8.860347">
        <ele>1888.0</ele>
        <time>2022-09-11T06:41:18Z</time>
      </trkpt>
      <trkpt lat="42.325583" lon="8.860318">
        <ele>1887.2</ele>
        <time>2022-09-11T06:41:34Z</time>
      </trkpt>
      <trkpt lat="42.32557" lon="8.860343">
        <ele>1886.6</ele>
        <time>2022-09-11T06:41:40Z</time>
      </trkpt>
      <trkpt lat="42.325533" lon="8.86036">
        <ele>1887.4</ele>
        <time>2022-09-11T06:41:56Z</time>
      </trkpt>
      <trkpt lat="42.325512" lon="8.86047">
        <ele>1884.0</ele>
        <time>2022-09-11T06:43:18Z</time>
      </trkpt>
      <trkpt lat="42.325515" lon="8.860478">
        <ele>1883.6</ele>
        <time>2022-09-11T06:43:19Z</time>
      </trkpt>
      <trkpt lat="42.32545" lon="8.860507">
        <ele>1882.8</ele>
        <time>2022-09-11T06:43:25Z</time>
      </trkpt>
      <trkpt lat="42.325243" lon="8.860603">
        <ele>1880.6</ele>
        <time>2022-09-11T06:43:38Z</time>
      </trkpt>
      <trkpt lat="42.32504" lon="8.860793">
        <ele>1877.4</ele>
        <time>2022-09-11T06:43:52Z</time>
      </trkpt>
      <trkpt lat="42.32497" lon="8.860827">
        <ele>1876.6</ele>
        <time>2022-09-11T06:43:57Z</time>
      </trkpt>
      <trkpt lat="42.324898" lon="8.860868">
        <ele>1874.4</ele>
        <time>2022-09-11T06:44:06Z</time>
      </trkpt>
      <trkpt lat="42.324805" lon="8.860938">
        <ele>1871.4</ele>
        <time>2022-09-11T06:44:19Z</time>
      </trkpt>
      <trkpt lat="42.324772" lon="8.860973">
        <ele>1870.4</ele>
        <time>2022-09-11T06:44:24Z</time>
      </trkpt>
      <trkpt lat="42.324735" lon="8.861002">
        <ele>1869.4</ele>
        <time>2022-09-11T06:44:31Z</time>
      </trkpt>
      <trkpt lat="42.324715" lon="8.860995">
        <ele>1869.0</ele>
        <time>2022-09-11T06:44:34Z</time>
      </trkpt>
      <trkpt lat="42.324643" lon="8.86103">
        <ele>1867.8</ele>
        <time>2022-09-11T06:44:41Z</time>
      </trkpt>
      <trkpt lat="42.324508" lon="8.861135">
        <ele>1865.2</ele>
        <time>2022-09-11T06:44:55Z</time>
      </trkpt>
      <trkpt lat="42.324393" lon="8.861118">
        <ele>1863.6</ele>
        <time>2022-09-11T06:45:05Z</time>
      </trkpt>
      <trkpt lat="42.324382" lon="8.861118">
        <ele>1863.6</ele>
        <time>2022-09-11T06:45:06Z</time>
      </trkpt>
      <trkpt lat="42.324237" lon="8.861223">
        <ele>1863.0</ele>
        <time>2022-09-11T06:45:27Z</time>
      </trkpt>
      <trkpt lat="42.324193" lon="8.861245">
        <ele>1865.2</ele>
        <time>2022-09-11T06:45:40Z</time>
      </trkpt>
      <trkpt lat="42.324162" lon="8.861272">
        <ele>1865.0</ele>
        <time>2022-09-11T06:45:47Z</time>
      </trkpt>
      <trkpt lat="42.32414" lon="8.8613">
        <ele>1864.4</ele>
        <time>2022-09-11T06:45:52Z</time>
      </trkpt>
      <trkpt lat="42.324103" lon="8.861378">
        <ele>1862.8</ele>
        <time>2022-09-11T06:46:00Z</time>
      </trkpt>
      <trkpt lat="42.32407" lon="8.861458">
        <ele>1862.0</ele>
        <time>2022-09-11T06:46:06Z</time>
      </trkpt>
      <trkpt lat="42.32398" lon="8.861542">
        <ele>1860.2</ele>
        <time>2022-09-11T06:46:17Z</time>
      </trkpt>
      <trkpt lat="42.32375" lon="8.861745">
        <ele>1860.0</ele>
        <time>2022-09-11T06:46:36Z</time>
      </trkpt>
      <trkpt lat="42.323752" lon="8.861853">
        <ele>1860.0</ele>
        <time>2022-09-11T06:46:43Z</time>
      </trkpt>
      <trkpt lat="42.323717" lon="8.862055">
        <ele>1859.8</ele>
        <time>2022-09-11T06:47:01Z</time>
      </trkpt>
      <trkpt lat="42.323682" lon="8.862112">
        <ele>1859.6</ele>
        <time>2022-09-11T06:47:08Z</time>
      </trkpt>
      <trkpt lat="42.323688" lon="8.862212">
        <ele>1861.8</ele>
        <time>2022-09-11T06:47:16Z</time>
      </trkpt>
      <trkpt lat="42.323703" lon="8.862372">
        <ele>1863.2</ele>
        <time>2022-09-11T06:47:30Z</time>
      </trkpt>
      <trkpt lat="42.323682" lon="8.862415">
        <ele>1862.8</ele>
        <time>2022-09-11T06:47:35Z</time>
      </trkpt>
      <trkpt lat="42.323602" lon="8.86252">
        <ele>1862.6</ele>
        <time>2022-09-11T06:47:51Z</time>
      </trkpt>
      <trkpt lat="42.323552" lon="8.862537">
        <ele>1859.6</ele>
        <time>2022-09-11T06:47:59Z</time>
      </trkpt>
      <trkpt lat="42.323523" lon="8.86262">
        <ele>1858.2</ele>
        <time>2022-09-11T06:48:07Z</time>
      </trkpt>
      <trkpt lat="42.323492" lon="8.86279">
        <ele>1857.6</ele>
        <time>2022-09-11T06:48:23Z</time>
      </trkpt>
      <trkpt lat="42.323448" lon="8.862875">
        <ele>1856.2</ele>
        <time>2022-09-11T06:48:33Z</time>
      </trkpt>
      <trkpt lat="42.323403" lon="8.862915">
        <ele>1855.0</ele>
        <time>2022-09-11T06:48:40Z</time>
      </trkpt>
      <trkpt lat="42.323375" lon="8.862952">
        <ele>1854.0</ele>
        <time>2022-09-11T06:48:46Z</time>
      </trkpt>
      <trkpt lat="42.323333" lon="8.863028">
        <ele>1852.0</ele>
        <time>2022-09-11T06:48:56Z</time>
      </trkpt>
      <trkpt lat="42.32329" lon="8.863103">
        <ele>1849.6</ele>
        <time>2022-09-11T06:49:06Z</time>
      </trkpt>
      <trkpt lat="42.323273" lon="8.863148">
        <ele>1849.0</ele>
        <time>2022-09-11T06:49:12Z</time>
      </trkpt>
      <trkpt lat="42.323232" lon="8.863182">
        <ele>1847.6</ele>
        <time>2022-09-11T06:49:22Z</time>
      </trkpt>
      <trkpt lat="42.323232" lon="8.863192">
        <ele>1847.6</ele>
        <time>2022-09-11T06:49:23Z</time>
      </trkpt>
      <trkpt lat="42.323265" lon="8.863208">
        <ele>1847.4</ele>
        <time>2022-09-11T06:49:29Z</time>
      </trkpt>
      <trkpt lat="42.323275" lon="8.863302">
        <ele>1845.0</ele>
        <time>2022-09-11T06:49:41Z</time>
      </trkpt>
      <trkpt lat="42.323285" lon="8.86336">
        <ele>1842.8</ele>
        <time>2022-09-11T06:49:51Z</time>
      </trkpt>
      <trkpt lat="42.323277" lon="8.863423">
        <ele>1842.2</ele>
        <time>2022-09-11T06:50:13Z</time>
      </trkpt>
      <trkpt lat="42.32328" lon="8.863437">
        <ele>1841.2</ele>
        <time>2022-09-11T06:50:17Z</time>
      </trkpt>
      <trkpt lat="42.32324" lon="8.86361">
        <ele>1838.0</ele>
        <time>2022-09-11T06:50:29Z</time>
      </trkpt>
      <trkpt lat="42.323215" lon="8.863703">
        <ele>1837.6</ele>
        <time>2022-09-11T06:50:36Z</time>
      </trkpt>
      <trkpt lat="42.323188" lon="8.863735">
        <ele>1837.2</ele>
        <time>2022-09-11T06:50:40Z</time>
      </trkpt>
      <trkpt lat="42.323152" lon="8.863768">
        <ele>1835.4</ele>
        <time>2022-09-11T06:50:45Z</time>
      </trkpt>
      <trkpt lat="42.323098" lon="8.863923">
        <ele>1832.0</ele>
        <time>2022-09-11T06:51:02Z</time>
      </trkpt>
      <trkpt lat="42.323078" lon="8.863965">
        <ele>1831.0</ele>
        <time>2022-09-11T06:51:09Z</time>
      </trkpt>
      <trkpt lat="42.323055" lon="8.863975">
        <ele>1830.6</ele>
        <time>2022-09-11T06:51:12Z</time>
      </trkpt>
      <trkpt lat="42.322905" lon="8.863987">
        <ele>1829.6</ele>
        <time>2022-09-11T06:51:28Z</time>
      </trkpt>
      <trkpt lat="42.32288" lon="8.864003">
        <ele>1829.6</ele>
        <time>2022-09-11T06:51:32Z</time>
      </trkpt>
      <trkpt lat="42.322858" lon="8.864068">
        <ele>1826.6</ele>
        <time>2022-09-11T06:51:38Z</time>
      </trkpt>
      <trkpt lat="42.322843" lon="8.864163">
        <ele>1824.4</ele>
        <time>2022-09-11T06:51:48Z</time>
      </trkpt>
      <trkpt lat="42.322812" lon="8.864282">
        <ele>1822.6</ele>
        <time>2022-09-11T06:52:04Z</time>
      </trkpt>
      <trkpt lat="42.322772" lon="8.864405">
        <ele>1821.0</ele>
        <time>2022-09-11T06:52:14Z</time>
      </trkpt>
      <trkpt lat="42.322843" lon="8.86451">
        <ele>1819.2</ele>
        <time>2022-09-11T06:52:24Z</time>
      </trkpt>
      <trkpt lat="42.322865" lon="8.864575">
        <ele>1817.8</ele>
        <time>2022-09-11T06:52:29Z</time>
      </trkpt>
      <trkpt lat="42.322885" lon="8.864647">
        <ele>1816.4</ele>
        <time>2022-09-11T06:52:36Z</time>
      </trkpt>
      <trkpt lat="42.322957" lon="8.864697">
        <ele>1814.6</ele>
        <time>2022-09-11T06:52:46Z</time>
      </trkpt>
      <trkpt lat="42.322977" lon="8.86475">
        <ele>1813.0</ele>
        <time>2022-09-11T06:52:52Z</time>
      </trkpt>
      <trkpt lat="42.323002" lon="8.864848">
        <ele>1810.8</ele>
        <time>2022-09-11T06:53:04Z</time>
      </trkpt>
      <trkpt lat="42.322992" lon="8.86493">
        <ele>1809.2</ele>
        <time>2022-09-11T06:53:12Z</time>
      </trkpt>
      <trkpt lat="42.322988" lon="8.86494">
        <ele>1809.0</ele>
        <time>2022-09-11T06:53:13Z</time>
      </trkpt>
      <trkpt lat="42.32298" lon="8.865068">
        <ele>1807.8</ele>
        <time>2022-09-11T06:53:21Z</time>
      </trkpt>
      <trkpt lat="42.323015" lon="8.865118">
        <ele>1805.8</ele>
        <time>2022-09-11T06:53:28Z</time>
      </trkpt>
      <trkpt lat="42.323065" lon="8.865187">
        <ele>1803.0</ele>
        <time>2022-09-11T06:53:47Z</time>
      </trkpt>
      <trkpt lat="42.323038" lon="8.865247">
        <ele>1803.6</ele>
        <time>2022-09-11T06:53:57Z</time>
      </trkpt>
      <trkpt lat="42.323003" lon="8.865255">
        <ele>1794.0</ele>
        <time>2022-09-11T06:54:52Z</time>
      </trkpt>
      <trkpt lat="42.322987" lon="8.865242">
        <ele>1793.4</ele>
        <time>2022-09-11T06:54:57Z</time>
      </trkpt>
      <trkpt lat="42.322957" lon="8.865267">
        <ele>1792.6</ele>
        <time>2022-09-11T06:55:03Z</time>
      </trkpt>
      <trkpt lat="42.322947" lon="8.865285">
        <ele>1792.4</ele>
        <time>2022-09-11T06:55:05Z</time>
      </trkpt>
      <trkpt lat="42.322945" lon="8.86536">
        <ele>1791.6</ele>
        <time>2022-09-11T06:55:11Z</time>
      </trkpt>
      <trkpt lat="42.322968" lon="8.865447">
        <ele>1790.6</ele>
        <time>2022-09-11T06:55:20Z</time>
      </trkpt>
      <trkpt lat="42.322992" lon="8.865477">
        <ele>1788.6</ele>
        <time>2022-09-11T06:55:30Z</time>
      </trkpt>
      <trkpt lat="42.322967" lon="8.865518">
        <ele>1787.6</ele>
        <time>2022-09-11T06:55:40Z</time>
      </trkpt>
      <trkpt lat="42.32296" lon="8.865518">
        <ele>1787.4</ele>
        <time>2022-09-11T06:55:42Z</time>
      </trkpt>
      <trkpt lat="42.322928" lon="8.865547">
        <ele>1786.2</ele>
        <time>2022-09-11T06:55:48Z</time>
      </trkpt>
      <trkpt lat="42.322918" lon="8.865575">
        <ele>1785.8</ele>
        <time>2022-09-11T06:55:51Z</time>
      </trkpt>
      <trkpt lat="42.322937" lon="8.865617">
        <ele>1785.2</ele>
        <time>2022-09-11T06:55:55Z</time>
      </trkpt>
      <trkpt lat="42.322968" lon="8.86564">
        <ele>1784.4</ele>
        <time>2022-09-11T06:55:59Z</time>
      </trkpt>
      <trkpt lat="42.323122" lon="8.8657">
        <ele>1781.2</ele>
        <time>2022-09-11T06:56:19Z</time>
      </trkpt>
      <trkpt lat="42.323197" lon="8.865742">
        <ele>1779.4</ele>
        <time>2022-09-11T06:56:31Z</time>
      </trkpt>
      <trkpt lat="42.323205" lon="8.865747">
        <ele>1779.4</ele>
        <time>2022-09-11T06:56:32Z</time>
      </trkpt>
      <trkpt lat="42.323327" lon="8.86578">
        <ele>1775.6</ele>
        <time>2022-09-11T06:57:06Z</time>
      </trkpt>
      <trkpt lat="42.323353" lon="8.865932">
        <ele>1767.8</ele>
        <time>2022-09-11T06:57:57Z</time>
      </trkpt>
      <trkpt lat="42.323353" lon="8.865935">
        <ele>1767.4</ele>
        <time>2022-09-11T06:58:00Z</time>
      </trkpt>
      <trkpt lat="42.323398" lon="8.866027">
        <ele>1762.6</ele>
        <time>2022-09-11T06:58:26Z</time>
      </trkpt>
      <trkpt lat="42.323428" lon="8.86607">
        <ele>1760.8</ele>
        <time>2022-09-11T06:58:38Z</time>
      </trkpt>
      <trkpt lat="42.32346" lon="8.866135">
        <ele>1757.8</ele>
        <time>2022-09-11T06:58:56Z</time>
      </trkpt>
      <trkpt lat="42.323463" lon="8.866137">
        <ele>1757.6</ele>
        <time>2022-09-11T06:58:57Z</time>
      </trkpt>
      <trkpt lat="42.323365" lon="8.86626">
        <ele>1751.6</ele>
        <time>2022-09-11T06:59:34Z</time>
      </trkpt>
      <trkpt lat="42.323367" lon="8.866368">
        <ele>1751.4</ele>
        <time>2022-09-11T06:59:45Z</time>
      </trkpt>
      <trkpt lat="42.323397" lon="8.866652">
        <ele>1751.4</ele>
        <time>2022-09-11T07:00:07Z</time>
      </trkpt>
      <trkpt lat="42.323328" lon="8.866722">
        <ele>1751.8</ele>
        <time>2022-09-11T07:05:43Z</time>
      </trkpt>
      <trkpt lat="42.323345" lon="8.866803">
        <ele>1751.8</ele>
        <time>2022-09-11T07:06:13Z</time>
      </trkpt>
      <trkpt lat="42.323355" lon="8.866875">
        <ele>1752.2</ele>
        <time>2022-09-11T07:06:56Z</time>
      </trkpt>
      <trkpt lat="42.323323" lon="8.866807">
        <ele>1752.4</ele>
        <time>2022-09-11T07:07:24Z</time>
      </trkpt>
      <trkpt lat="42.32317" lon="8.866312">
        <ele>1747.2</ele>
        <time>2022-09-11T07:07:59Z</time>
      </trkpt>
      <trkpt lat="42.323167" lon="8.866315">
        <ele>1747.2</ele>
        <time>2022-09-11T07:08:00Z</time>
      </trkpt>
      <trkpt lat="42.323183" lon="8.866425">
        <ele>1746.2</ele>
        <time>2022-09-11T07:08:04Z</time>
      </trkpt>
      <trkpt lat="42.323235" lon="8.866712">
        <ele>1744.6</ele>
        <time>2022-09-11T07:08:14Z</time>
      </trkpt>
      <trkpt lat="42.323242" lon="8.866805">
        <ele>1743.8</ele>
        <time>2022-09-11T07:08:17Z</time>
      </trkpt>
      <trkpt lat="42.323232" lon="8.866878">
        <ele>1743.6</ele>
        <time>2022-09-11T07:08:20Z</time>
      </trkpt>
      <trkpt lat="42.323208" lon="8.86715">
        <ele>1742.8</ele>
        <time>2022-09-11T07:08:32Z</time>
      </trkpt>
      <trkpt lat="42.323232" lon="8.867368">
        <ele>1741.2</ele>
        <time>2022-09-11T07:08:41Z</time>
      </trkpt>
      <trkpt lat="42.323232" lon="8.867388">
        <ele>1740.8</ele>
        <time>2022-09-11T07:08:43Z</time>
      </trkpt>
      <trkpt lat="42.323228" lon="8.867402">
        <ele>1740.0</ele>
        <time>2022-09-11T07:08:48Z</time>
      </trkpt>
      <trkpt lat="42.32326" lon="8.867428">
        <ele>1739.0</ele>
        <time>2022-09-11T07:08:54Z</time>
      </trkpt>
      <trkpt lat="42.323277" lon="8.867465">
        <ele>1738.2</ele>
        <time>2022-09-11T07:09:01Z</time>
      </trkpt>
      <trkpt lat="42.323312" lon="8.867512">
        <ele>1737.0</ele>
        <time>2022-09-11T07:09:09Z</time>
      </trkpt>
      <trkpt lat="42.323358" lon="8.86757">
        <ele>1736.2</ele>
        <time>2022-09-11T07:09:17Z</time>
      </trkpt>
      <trkpt lat="42.323398" lon="8.867585">
        <ele>1735.6</ele>
        <time>2022-09-11T07:09:21Z</time>
      </trkpt>
      <trkpt lat="42.323453" lon="8.86759">
        <ele>1735.2</ele>
        <time>2022-09-11T07:09:26Z</time>
      </trkpt>
      <trkpt lat="42.323462" lon="8.867605">
        <ele>1734.6</ele>
        <time>2022-09-11T07:09:28Z</time>
      </trkpt>
      <trkpt lat="42.323523" lon="8.867603">
        <ele>1732.0</ele>
        <time>2022-09-11T07:09:51Z</time>
      </trkpt>
      <trkpt lat="42.323525" lon="8.867607">
        <ele>1731.6</ele>
        <time>2022-09-11T07:09:53Z</time>
      </trkpt>
      <trkpt lat="42.323542" lon="8.867613">
        <ele>1730.4</ele>
        <time>2022-09-11T07:10:01Z</time>
      </trkpt>
      <trkpt lat="42.323548" lon="8.867625">
        <ele>1730.0</ele>
        <time>2022-09-11T07:10:05Z</time>
      </trkpt>
      <trkpt lat="42.32355" lon="8.867647">
        <ele>1729.8</ele>
        <time>2022-09-11T07:10:07Z</time>
      </trkpt>
      <trkpt lat="42.323535" lon="8.86771">
        <ele>1728.8</ele>
        <time>2022-09-11T07:10:12Z</time>
      </trkpt>
      <trkpt lat="42.323525" lon="8.86775">
        <ele>1728.6</ele>
        <time>2022-09-11T07:10:16Z</time>
      </trkpt>
      <trkpt lat="42.323533" lon="8.867775">
        <ele>1728.6</ele>
        <time>2022-09-11T07:10:18Z</time>
      </trkpt>
      <trkpt lat="42.323552" lon="8.867758">
        <ele>1728.0</ele>
        <time>2022-09-11T07:10:20Z</time>
      </trkpt>
      <trkpt lat="42.323598" lon="8.867712">
        <ele>1727.6</ele>
        <time>2022-09-11T07:10:25Z</time>
      </trkpt>
      <trkpt lat="42.323625" lon="8.867693">
        <ele>1727.0</ele>
        <time>2022-09-11T07:10:28Z</time>
      </trkpt>
      <trkpt lat="42.323652" lon="8.86769">
        <ele>1726.6</ele>
        <time>2022-09-11T07:10:31Z</time>
      </trkpt>
      <trkpt lat="42.323652" lon="8.867728">
        <ele>1726.2</ele>
        <time>2022-09-11T07:10:36Z</time>
      </trkpt>
      <trkpt lat="42.323652" lon="8.867735">
        <ele>1725.8</ele>
        <time>2022-09-11T07:10:37Z</time>
      </trkpt>
      <trkpt lat="42.323618" lon="8.867765">
        <ele>1725.2</ele>
        <time>2022-09-11T07:10:42Z</time>
      </trkpt>
      <trkpt lat="42.323463" lon="8.867975">
        <ele>1721.4</ele>
        <time>2022-09-11T07:11:06Z</time>
      </trkpt>
      <trkpt lat="42.323402" lon="8.867993">
        <ele>1720.4</ele>
        <time>2022-09-11T07:11:14Z</time>
      </trkpt>
      <trkpt lat="42.323372" lon="8.868025">
        <ele>1719.4</ele>
        <time>2022-09-11T07:11:18Z</time>
      </trkpt>
      <trkpt lat="42.323347" lon="8.868037">
        <ele>1718.8</ele>
        <time>2022-09-11T07:11:22Z</time>
      </trkpt>
      <trkpt lat="42.323333" lon="8.868057">
        <ele>1718.6</ele>
        <time>2022-09-11T07:11:25Z</time>
      </trkpt>
      <trkpt lat="42.323318" lon="8.86811">
        <ele>1717.4</ele>
        <time>2022-09-11T07:11:32Z</time>
      </trkpt>
      <trkpt lat="42.323327" lon="8.86817">
        <ele>1716.6</ele>
        <time>2022-09-11T07:11:39Z</time>
      </trkpt>
      <trkpt lat="42.323302" lon="8.868178">
        <ele>1713.8</ele>
        <time>2022-09-11T07:11:54Z</time>
      </trkpt>
      <trkpt lat="42.323257" lon="8.868295">
        <ele>1709.2</ele>
        <time>2022-09-11T07:12:19Z</time>
      </trkpt>
      <trkpt lat="42.323262" lon="8.868295">
        <ele>1709.2</ele>
        <time>2022-09-11T07:12:19Z</time>
      </trkpt>
      <trkpt lat="42.323305" lon="8.868282">
        <ele>1707.2</ele>
        <time>2022-09-11T07:12:29Z</time>
      </trkpt>
      <trkpt lat="42.32331" lon="8.8683">
        <ele>1705.8</ele>
        <time>2022-09-11T07:12:36Z</time>
      </trkpt>
      <trkpt lat="42.323333" lon="8.868317">
        <ele>1705.4</ele>
        <time>2022-09-11T07:12:43Z</time>
      </trkpt>
      <trkpt lat="42.323363" lon="8.868372">
        <ele>1703.6</ele>
        <time>2022-09-11T07:12:56Z</time>
      </trkpt>
      <trkpt lat="42.323363" lon="8.868377">
        <ele>1703.4</ele>
        <time>2022-09-11T07:12:57Z</time>
      </trkpt>
      <trkpt lat="42.323333" lon="8.8684">
        <ele>1702.8</ele>
        <time>2022-09-11T07:13:01Z</time>
      </trkpt>
      <trkpt lat="42.323305" lon="8.868507">
        <ele>1701.0</ele>
        <time>2022-09-11T07:13:12Z</time>
      </trkpt>
      <trkpt lat="42.323167" lon="8.86859">
        <ele>1698.0</ele>
        <time>2022-09-11T07:13:30Z</time>
      </trkpt>
      <trkpt lat="42.32314" lon="8.868597">
        <ele>1697.4</ele>
        <time>2022-09-11T07:13:33Z</time>
      </trkpt>
      <trkpt lat="42.323125" lon="8.86868">
        <ele>1696.8</ele>
        <time>2022-09-11T07:13:40Z</time>
      </trkpt>
      <trkpt lat="42.323142" lon="8.86878">
        <ele>1695.4</ele>
        <time>2022-09-11T07:13:49Z</time>
      </trkpt>
      <trkpt lat="42.323125" lon="8.868848">
        <ele>1694.2</ele>
        <time>2022-09-11T07:13:57Z</time>
      </trkpt>
      <trkpt lat="42.323098" lon="8.868885">
        <ele>1694.0</ele>
        <time>2022-09-11T07:14:02Z</time>
      </trkpt>
      <trkpt lat="42.323037" lon="8.86896">
        <ele>1693.0</ele>
        <time>2022-09-11T07:14:12Z</time>
      </trkpt>
      <trkpt lat="42.32303" lon="8.86897">
        <ele>1693.0</ele>
        <time>2022-09-11T07:14:13Z</time>
      </trkpt>
      <trkpt lat="42.322992" lon="8.868955">
        <ele>1692.2</ele>
        <time>2022-09-11T07:14:18Z</time>
      </trkpt>
      <trkpt lat="42.32292" lon="8.868917">
        <ele>1691.8</ele>
        <time>2022-09-11T07:14:29Z</time>
      </trkpt>
      <trkpt lat="42.322843" lon="8.868933">
        <ele>1691.4</ele>
        <time>2022-09-11T07:14:40Z</time>
      </trkpt>
      <trkpt lat="42.322787" lon="8.868927">
        <ele>1691.2</ele>
        <time>2022-09-11T07:14:47Z</time>
      </trkpt>
      <trkpt lat="42.322763" lon="8.868912">
        <ele>1691.2</ele>
        <time>2022-09-11T07:14:50Z</time>
      </trkpt>
      <trkpt lat="42.32274" lon="8.868933">
        <ele>1690.8</ele>
        <time>2022-09-11T07:14:55Z</time>
      </trkpt>
      <trkpt lat="42.322622" lon="8.869148">
        <ele>1686.2</ele>
        <time>2022-09-11T07:15:25Z</time>
      </trkpt>
      <trkpt lat="42.32259" lon="8.86918">
        <ele>1685.4</ele>
        <time>2022-09-11T07:15:39Z</time>
      </trkpt>
      <trkpt lat="42.322587" lon="8.869185">
        <ele>1685.2</ele>
        <time>2022-09-11T07:15:44Z</time>
      </trkpt>
      <trkpt lat="42.322522" lon="8.869187">
        <ele>1684.2</ele>
        <time>2022-09-11T07:15:55Z</time>
      </trkpt>
      <trkpt lat="42.32227" lon="8.869223">
        <ele>1683.0</ele>
        <time>2022-09-11T07:16:25Z</time>
      </trkpt>
      <trkpt lat="42.322233" lon="8.86916">
        <ele>1682.4</ele>
        <time>2022-09-11T07:16:32Z</time>
      </trkpt>
      <trkpt lat="42.322227" lon="8.869143">
        <ele>1682.2</ele>
        <time>2022-09-11T07:16:34Z</time>
      </trkpt>
      <trkpt lat="42.322183" lon="8.869102">
        <ele>1681.8</ele>
        <time>2022-09-11T07:16:43Z</time>
      </trkpt>
      <trkpt lat="42.322135" lon="8.86904">
        <ele>1682.0</ele>
        <time>2022-09-11T07:17:06Z</time>
      </trkpt>
      <trkpt lat="42.321385" lon="8.868123">
        <ele>1682.2</ele>
        <time>2022-09-11T07:23:14Z</time>
      </trkpt>
      <trkpt lat="42.321643" lon="8.868527">
        <ele>1680.2</ele>
        <time>2022-09-11T07:23:31Z</time>
      </trkpt>
      <trkpt lat="42.321748" lon="8.868797">
        <ele>1678.8</ele>
        <time>2022-09-11T07:23:39Z</time>
      </trkpt>
      <trkpt lat="42.321863" lon="8.869073">
        <ele>1678.2</ele>
        <time>2022-09-11T07:23:50Z</time>
      </trkpt>
      <trkpt lat="42.321933" lon="8.869178">
        <ele>1677.4</ele>
        <time>2022-09-11T07:23:56Z</time>
      </trkpt>
      <trkpt lat="42.321945" lon="8.869207">
        <ele>1677.4</ele>
        <time>2022-09-11T07:23:57Z</time>
      </trkpt>
      <trkpt lat="42.321952" lon="8.869185">
        <ele>1678.2</ele>
        <time>2022-09-11T07:24:31Z</time>
      </trkpt>
      <trkpt lat="42.322005" lon="8.869112">
        <ele>1679.0</ele>
        <time>2022-09-11T07:24:37Z</time>
      </trkpt>
      <trkpt lat="42.322015" lon="8.869053">
        <ele>1679.2</ele>
        <time>2022-09-11T07:25:03Z</time>
      </trkpt>
      <trkpt lat="42.322013" lon="8.869052">
        <ele>1679.2</ele>
        <time>2022-09-11T07:25:04Z</time>
      </trkpt>
      <trkpt lat="42.321938" lon="8.869047">
        <ele>1676.6</ele>
        <time>2022-09-11T07:25:24Z</time>
      </trkpt>
      <trkpt lat="42.321793" lon="8.86907">
        <ele>1675.8</ele>
        <time>2022-09-11T07:25:38Z</time>
      </trkpt>
      <trkpt lat="42.321777" lon="8.869073">
        <ele>1675.6</ele>
        <time>2022-09-11T07:25:40Z</time>
      </trkpt>
      <trkpt lat="42.321748" lon="8.869092">
        <ele>1675.4</ele>
        <time>2022-09-11T07:25:43Z</time>
      </trkpt>
      <trkpt lat="42.321647" lon="8.86904">
        <ele>1674.8</ele>
        <time>2022-09-11T07:25:53Z</time>
      </trkpt>
      <trkpt lat="42.321595" lon="8.869093">
        <ele>1674.4</ele>
        <time>2022-09-11T07:25:58Z</time>
      </trkpt>
      <trkpt lat="42.321443" lon="8.869282">
        <ele>1672.4</ele>
        <time>2022-09-11T07:26:15Z</time>
      </trkpt>
      <trkpt lat="42.321385" lon="8.869355">
        <ele>1672.0</ele>
        <time>2022-09-11T07:26:21Z</time>
      </trkpt>
      <trkpt lat="42.321318" lon="8.869358">
        <ele>1672.2</ele>
        <time>2022-09-11T07:26:29Z</time>
      </trkpt>
      <trkpt lat="42.321245" lon="8.869347">
        <ele>1671.4</ele>
        <time>2022-09-11T07:26:42Z</time>
      </trkpt>
      <trkpt lat="42.321118" lon="8.869345">
        <ele>1670.2</ele>
        <time>2022-09-11T07:26:54Z</time>
      </trkpt>
      <trkpt lat="42.321052" lon="8.86934">
        <ele>1669.6</ele>
        <time>2022-09-11T07:27:02Z</time>
      </trkpt>
      <trkpt lat="42.320975" lon="8.869357">
        <ele>1669.2</ele>
        <time>2022-09-11T07:27:11Z</time>
      </trkpt>
      <trkpt lat="42.32095" lon="8.869357">
        <ele>1669.0</ele>
        <time>2022-09-11T07:27:14Z</time>
      </trkpt>
      <trkpt lat="42.320867" lon="8.869408">
        <ele>1667.6</ele>
        <time>2022-09-11T07:27:24Z</time>
      </trkpt>
      <trkpt lat="42.320722" lon="8.869512">
        <ele>1666.4</ele>
        <time>2022-09-11T07:27:41Z</time>
      </trkpt>
      <trkpt lat="42.32065" lon="8.869563">
        <ele>1665.6</ele>
        <time>2022-09-11T07:27:50Z</time>
      </trkpt>
      <trkpt lat="42.3206" lon="8.86961">
        <ele>1665.0</ele>
        <time>2022-09-11T07:27:56Z</time>
      </trkpt>
      <trkpt lat="42.32054" lon="8.86962">
        <ele>1664.8</ele>
        <time>2022-09-11T07:28:02Z</time>
      </trkpt>
      <trkpt lat="42.320333" lon="8.869588">
        <ele>1663.8</ele>
        <time>2022-09-11T07:28:22Z</time>
      </trkpt>
      <trkpt lat="42.32026" lon="8.869577">
        <ele>1663.0</ele>
        <time>2022-09-11T07:28:29Z</time>
      </trkpt>
      <trkpt lat="42.320142" lon="8.869575">
        <ele>1661.2</ele>
        <time>2022-09-11T07:28:41Z</time>
      </trkpt>
      <trkpt lat="42.320058" lon="8.869598">
        <ele>1660.6</ele>
        <time>2022-09-11T07:28:49Z</time>
      </trkpt>
      <trkpt lat="42.319947" lon="8.869592">
        <ele>1659.6</ele>
        <time>2022-09-11T07:29:00Z</time>
      </trkpt>
      <trkpt lat="42.319822" lon="8.869488">
        <ele>1659.2</ele>
        <time>2022-09-11T07:29:15Z</time>
      </trkpt>
      <trkpt lat="42.319752" lon="8.86943">
        <ele>1659.2</ele>
        <time>2022-09-11T07:29:24Z</time>
      </trkpt>
      <trkpt lat="42.319697" lon="8.869417">
        <ele>1658.8</ele>
        <time>2022-09-11T07:29:31Z</time>
      </trkpt>
      <trkpt lat="42.319675" lon="8.869415">
        <ele>1658.6</ele>
        <time>2022-09-11T07:29:33Z</time>
      </trkpt>
      <trkpt lat="42.319552" lon="8.86946">
        <ele>1657.8</ele>
        <time>2022-09-11T07:29:45Z</time>
      </trkpt>
      <trkpt lat="42.31945" lon="8.869508">
        <ele>1657.4</ele>
        <time>2022-09-11T07:29:55Z</time>
      </trkpt>
      <trkpt lat="42.31934" lon="8.869558">
        <ele>1656.0</ele>
        <time>2022-09-11T07:30:05Z</time>
      </trkpt>
      <trkpt lat="42.319223" lon="8.869577">
        <ele>1655.6</ele>
        <time>2022-09-11T07:30:17Z</time>
      </trkpt>
      <trkpt lat="42.319198" lon="8.869577">
        <ele>1655.6</ele>
        <time>2022-09-11T07:30:20Z</time>
      </trkpt>
      <trkpt lat="42.319145" lon="8.869538">
        <ele>1655.8</ele>
        <time>2022-09-11T07:30:26Z</time>
      </trkpt>
      <trkpt lat="42.319108" lon="8.869452">
        <ele>1656.0</ele>
        <time>2022-09-11T07:30:34Z</time>
      </trkpt>
      <trkpt lat="42.319085" lon="8.86941">
        <ele>1656.0</ele>
        <time>2022-09-11T07:30:39Z</time>
      </trkpt>
      <trkpt lat="42.31906" lon="8.869403">
        <ele>1655.8</ele>
        <time>2022-09-11T07:30:43Z</time>
      </trkpt>
      <trkpt lat="42.319012" lon="8.86941">
        <ele>1655.2</ele>
        <time>2022-09-11T07:30:48Z</time>
      </trkpt>
      <trkpt lat="42.318988" lon="8.869365">
        <ele>1655.2</ele>
        <time>2022-09-11T07:30:52Z</time>
      </trkpt>
      <trkpt lat="42.318928" lon="8.869325">
        <ele>1654.2</ele>
        <time>2022-09-11T07:31:01Z</time>
      </trkpt>
      <trkpt lat="42.318875" lon="8.86929">
        <ele>1654.2</ele>
        <time>2022-09-11T07:31:12Z</time>
      </trkpt>
      <trkpt lat="42.31878" lon="8.86921">
        <ele>1653.4</ele>
        <time>2022-09-11T07:31:22Z</time>
      </trkpt>
      <trkpt lat="42.31873" lon="8.869193">
        <ele>1653.8</ele>
        <time>2022-09-11T07:31:27Z</time>
      </trkpt>
      <trkpt lat="42.318647" lon="8.86917">
        <ele>1653.8</ele>
        <time>2022-09-11T07:31:34Z</time>
      </trkpt>
      <trkpt lat="42.31849" lon="8.869022">
        <ele>1650.2</ele>
        <time>2022-09-11T07:31:54Z</time>
      </trkpt>
      <trkpt lat="42.318405" lon="8.868887">
        <ele>1649.0</ele>
        <time>2022-09-11T07:32:04Z</time>
      </trkpt>
      <trkpt lat="42.31839" lon="8.868833">
        <ele>1648.8</ele>
        <time>2022-09-11T07:32:08Z</time>
      </trkpt>
      <trkpt lat="42.318358" lon="8.868772">
        <ele>1648.6</ele>
        <time>2022-09-11T07:32:14Z</time>
      </trkpt>
      <trkpt lat="42.318273" lon="8.868672">
        <ele>1647.8</ele>
        <time>2022-09-11T07:32:26Z</time>
      </trkpt>
      <trkpt lat="42.318208" lon="8.86861">
        <ele>1646.8</ele>
        <time>2022-09-11T07:32:35Z</time>
      </trkpt>
      <trkpt lat="42.318178" lon="8.868587">
        <ele>1646.6</ele>
        <time>2022-09-11T07:32:39Z</time>
      </trkpt>
      <trkpt lat="42.318138" lon="8.868562">
        <ele>1644.4</ele>
        <time>2022-09-11T07:32:45Z</time>
      </trkpt>
      <trkpt lat="42.318103" lon="8.868527">
        <ele>1644.2</ele>
        <time>2022-09-11T07:32:50Z</time>
      </trkpt>
      <trkpt lat="42.318052" lon="8.868493">
        <ele>1643.6</ele>
        <time>2022-09-11T07:32:57Z</time>
      </trkpt>
      <trkpt lat="42.317993" lon="8.868437">
        <ele>1644.4</ele>
        <time>2022-09-11T07:33:05Z</time>
      </trkpt>
      <trkpt lat="42.317845" lon="8.868325">
        <ele>1642.6</ele>
        <time>2022-09-11T07:33:23Z</time>
      </trkpt>
      <trkpt lat="42.317833" lon="8.868223">
        <ele>1642.0</ele>
        <time>2022-09-11T07:33:31Z</time>
      </trkpt>
      <trkpt lat="42.31783" lon="8.86818">
        <ele>1641.8</ele>
        <time>2022-09-11T07:33:34Z</time>
      </trkpt>
      <trkpt lat="42.317813" lon="8.868168">
        <ele>1641.8</ele>
        <time>2022-09-11T07:33:36Z</time>
      </trkpt>
      <trkpt lat="42.317702" lon="8.868155">
        <ele>1641.0</ele>
        <time>2022-09-11T07:33:47Z</time>
      </trkpt>
      <trkpt lat="42.317647" lon="8.868127">
        <ele>1641.0</ele>
        <time>2022-09-11T07:33:56Z</time>
      </trkpt>
      <trkpt lat="42.317582" lon="8.868162">
        <ele>1640.6</ele>
        <time>2022-09-11T07:34:06Z</time>
      </trkpt>
      <trkpt lat="42.317573" lon="8.868165">
        <ele>1640.6</ele>
        <time>2022-09-11T07:34:06Z</time>
      </trkpt>
      <trkpt lat="42.317518" lon="8.868157">
        <ele>1640.4</ele>
        <time>2022-09-11T07:34:11Z</time>
      </trkpt>
      <trkpt lat="42.31738" lon="8.868107">
        <ele>1639.6</ele>
        <time>2022-09-11T07:34:24Z</time>
      </trkpt>
      <trkpt lat="42.317128" lon="8.86814">
        <ele>1636.6</ele>
        <time>2022-09-11T07:34:46Z</time>
      </trkpt>
      <trkpt lat="42.317068" lon="8.868127">
        <ele>1636.6</ele>
        <time>2022-09-11T07:34:55Z</time>
      </trkpt>
      <trkpt lat="42.316995" lon="8.868122">
        <ele>1636.2</ele>
        <time>2022-09-11T07:35:03Z</time>
      </trkpt>
      <trkpt lat="42.316925" lon="8.868113">
        <ele>1635.2</ele>
        <time>2022-09-11T07:35:11Z</time>
      </trkpt>
      <trkpt lat="42.316823" lon="8.868093">
        <ele>1635.2</ele>
        <time>2022-09-11T07:35:22Z</time>
      </trkpt>
      <trkpt lat="42.316732" lon="8.8681">
        <ele>1636.2</ele>
        <time>2022-09-11T07:35:32Z</time>
      </trkpt>
      <trkpt lat="42.316712" lon="8.868098">
        <ele>1636.2</ele>
        <time>2022-09-11T07:35:35Z</time>
      </trkpt>
      <trkpt lat="42.316658" lon="8.86829">
        <ele>1631.2</ele>
        <time>2022-09-11T07:36:01Z</time>
      </trkpt>
      <trkpt lat="42.31666" lon="8.868333">
        <ele>1629.6</ele>
        <time>2022-09-11T07:36:05Z</time>
      </trkpt>
      <trkpt lat="42.316643" lon="8.868352">
        <ele>1629.2</ele>
        <time>2022-09-11T07:36:09Z</time>
      </trkpt>
      <trkpt lat="42.316615" lon="8.868277">
        <ele>1628.8</ele>
        <time>2022-09-11T07:36:16Z</time>
      </trkpt>
      <trkpt lat="42.316573" lon="8.868218">
        <ele>1628.2</ele>
        <time>2022-09-11T07:36:26Z</time>
      </trkpt>
      <trkpt lat="42.316498" lon="8.868032">
        <ele>1626.2</ele>
        <time>2022-09-11T07:36:45Z</time>
      </trkpt>
      <trkpt lat="42.316435" lon="8.86803">
        <ele>1625.2</ele>
        <time>2022-09-11T07:36:54Z</time>
      </trkpt>
      <trkpt lat="42.316305" lon="8.868078">
        <ele>1621.2</ele>
        <time>2022-09-11T07:37:14Z</time>
      </trkpt>
      <trkpt lat="42.316288" lon="8.868123">
        <ele>1620.8</ele>
        <time>2022-09-11T07:37:21Z</time>
      </trkpt>
      <trkpt lat="42.316277" lon="8.868163">
        <ele>1620.4</ele>
        <time>2022-09-11T07:37:29Z</time>
      </trkpt>
      <trkpt lat="42.316258" lon="8.868187">
        <ele>1620.8</ele>
        <time>2022-09-11T07:37:34Z</time>
      </trkpt>
      <trkpt lat="42.316135" lon="8.868235">
        <ele>1620.6</ele>
        <time>2022-09-11T07:37:58Z</time>
      </trkpt>
      <trkpt lat="42.316078" lon="8.868252">
        <ele>1620.4</ele>
        <time>2022-09-11T07:38:05Z</time>
      </trkpt>
      <trkpt lat="42.315975" lon="8.868258">
        <ele>1619.2</ele>
        <time>2022-09-11T07:38:19Z</time>
      </trkpt>
      <trkpt lat="42.315958" lon="8.868262">
        <ele>1619.2</ele>
        <time>2022-09-11T07:38:23Z</time>
      </trkpt>
      <trkpt lat="42.315913" lon="8.868242">
        <ele>1619.0</ele>
        <time>2022-09-11T07:38:32Z</time>
      </trkpt>
      <trkpt lat="42.31585" lon="8.868242">
        <ele>1618.2</ele>
        <time>2022-09-11T07:38:41Z</time>
      </trkpt>
      <trkpt lat="42.315792" lon="8.868242">
        <ele>1617.6</ele>
        <time>2022-09-11T07:38:47Z</time>
      </trkpt>
      <trkpt lat="42.315658" lon="8.868202">
        <ele>1617.2</ele>
        <time>2022-09-11T07:39:01Z</time>
      </trkpt>
      <trkpt lat="42.315613" lon="8.868187">
        <ele>1617.2</ele>
        <time>2022-09-11T07:39:07Z</time>
      </trkpt>
      <trkpt lat="42.315505" lon="8.868138">
        <ele>1616.8</ele>
        <time>2022-09-11T07:39:22Z</time>
      </trkpt>
      <trkpt lat="42.315343" lon="8.868167">
        <ele>1616.0</ele>
        <time>2022-09-11T07:39:46Z</time>
      </trkpt>
      <trkpt lat="42.315242" lon="8.868243">
        <ele>1615.2</ele>
        <time>2022-09-11T07:39:58Z</time>
      </trkpt>
      <trkpt lat="42.315217" lon="8.868245">
        <ele>1614.6</ele>
        <time>2022-09-11T07:40:00Z</time>
      </trkpt>
      <trkpt lat="42.315182" lon="8.868228">
        <ele>1614.2</ele>
        <time>2022-09-11T07:40:04Z</time>
      </trkpt>
      <trkpt lat="42.315122" lon="8.868182">
        <ele>1615.4</ele>
        <time>2022-09-11T07:40:10Z</time>
      </trkpt>
      <trkpt lat="42.31505" lon="8.868122">
        <ele>1615.6</ele>
        <time>2022-09-11T07:40:18Z</time>
      </trkpt>
      <trkpt lat="42.315" lon="8.868112">
        <ele>1614.4</ele>
        <time>2022-09-11T07:40:23Z</time>
      </trkpt>
      <trkpt lat="42.314945" lon="8.86812">
        <ele>1613.2</ele>
        <time>2022-09-11T07:40:29Z</time>
      </trkpt>
      <trkpt lat="42.314905" lon="8.868125">
        <ele>1611.8</ele>
        <time>2022-09-11T07:40:34Z</time>
      </trkpt>
      <trkpt lat="42.314875" lon="8.868102">
        <ele>1611.2</ele>
        <time>2022-09-11T07:40:37Z</time>
      </trkpt>
      <trkpt lat="42.314833" lon="8.86806">
        <ele>1611.2</ele>
        <time>2022-09-11T07:40:41Z</time>
      </trkpt>
      <trkpt lat="42.314748" lon="8.868038">
        <ele>1610.8</ele>
        <time>2022-09-11T07:40:47Z</time>
      </trkpt>
      <trkpt lat="42.31468" lon="8.86806">
        <ele>1609.2</ele>
        <time>2022-09-11T07:40:54Z</time>
      </trkpt>
      <trkpt lat="42.314593" lon="8.86818">
        <ele>1607.2</ele>
        <time>2022-09-11T07:41:08Z</time>
      </trkpt>
      <trkpt lat="42.31455" lon="8.868208">
        <ele>1606.2</ele>
        <time>2022-09-11T07:41:24Z</time>
      </trkpt>
      <trkpt lat="42.31451" lon="8.868277">
        <ele>1604.6</ele>
        <time>2022-09-11T07:41:40Z</time>
      </trkpt>
      <trkpt lat="42.314498" lon="8.868283">
        <ele>1604.4</ele>
        <time>2022-09-11T07:41:41Z</time>
      </trkpt>
      <trkpt lat="42.31442" lon="8.868317">
        <ele>1603.8</ele>
        <time>2022-09-11T07:41:47Z</time>
      </trkpt>
      <trkpt lat="42.314302" lon="8.868303">
        <ele>1602.4</ele>
        <time>2022-09-11T07:41:57Z</time>
      </trkpt>
      <trkpt lat="42.314113" lon="8.868332">
        <ele>1601.4</ele>
        <time>2022-09-11T07:42:13Z</time>
      </trkpt>
      <trkpt lat="42.314082" lon="8.868325">
        <ele>1601.2</ele>
        <time>2022-09-11T07:42:16Z</time>
      </trkpt>
      <trkpt lat="42.314032" lon="8.868257">
        <ele>1601.0</ele>
        <time>2022-09-11T07:42:22Z</time>
      </trkpt>
      <trkpt lat="42.314005" lon="8.868222">
        <ele>1601.0</ele>
        <time>2022-09-11T07:42:25Z</time>
      </trkpt>
      <trkpt lat="42.313935" lon="8.868265">
        <ele>1600.4</ele>
        <time>2022-09-11T07:42:32Z</time>
      </trkpt>
      <trkpt lat="42.313807" lon="8.868397">
        <ele>1599.8</ele>
        <time>2022-09-11T07:42:47Z</time>
      </trkpt>
      <trkpt lat="42.313803" lon="8.86841">
        <ele>1599.4</ele>
        <time>2022-09-11T07:42:48Z</time>
      </trkpt>
      <trkpt lat="42.31374" lon="8.868312">
        <ele>1599.2</ele>
        <time>2022-09-11T07:43:04Z</time>
      </trkpt>
      <trkpt lat="42.313707" lon="8.868323">
        <ele>1599.2</ele>
        <time>2022-09-11T07:43:07Z</time>
      </trkpt>
      <trkpt lat="42.313635" lon="8.868323">
        <ele>1598.8</ele>
        <time>2022-09-11T07:43:17Z</time>
      </trkpt>
      <trkpt lat="42.313495" lon="8.868343">
        <ele>1598.0</ele>
        <time>2022-09-11T07:43:35Z</time>
      </trkpt>
      <trkpt lat="42.313477" lon="8.868363">
        <ele>1598.2</ele>
        <time>2022-09-11T07:43:38Z</time>
      </trkpt>
      <trkpt lat="42.313435" lon="8.86833">
        <ele>1598.0</ele>
        <time>2022-09-11T07:43:48Z</time>
      </trkpt>
      <trkpt lat="42.313428" lon="8.868335">
        <ele>1598.0</ele>
        <time>2022-09-11T07:43:49Z</time>
      </trkpt>
      <trkpt lat="42.313332" lon="8.868395">
        <ele>1597.8</ele>
        <time>2022-09-11T07:44:05Z</time>
      </trkpt>
      <trkpt lat="42.313302" lon="8.868465">
        <ele>1597.0</ele>
        <time>2022-09-11T07:44:17Z</time>
      </trkpt>
      <trkpt lat="42.313248" lon="8.868475">
        <ele>1597.4</ele>
        <time>2022-09-11T07:44:29Z</time>
      </trkpt>
      <trkpt lat="42.313172" lon="8.868493">
        <ele>1598.4</ele>
        <time>2022-09-11T07:44:40Z</time>
      </trkpt>
      <trkpt lat="42.313115" lon="8.86854">
        <ele>1597.4</ele>
        <time>2022-09-11T07:44:46Z</time>
      </trkpt>
      <trkpt lat="42.31303" lon="8.868567">
        <ele>1597.4</ele>
        <time>2022-09-11T07:44:55Z</time>
      </trkpt>
      <trkpt lat="42.312958" lon="8.868623">
        <ele>1597.0</ele>
        <time>2022-09-11T07:45:02Z</time>
      </trkpt>
      <trkpt lat="42.312848" lon="8.86873">
        <ele>1595.8</ele>
        <time>2022-09-11T07:45:13Z</time>
      </trkpt>
      <trkpt lat="42.312748" lon="8.868783">
        <ele>1596.0</ele>
        <time>2022-09-11T07:45:22Z</time>
      </trkpt>
      <trkpt lat="42.312713" lon="8.868782">
        <ele>1596.0</ele>
        <time>2022-09-11T07:45:25Z</time>
      </trkpt>
      <trkpt lat="42.312658" lon="8.868752">
        <ele>1596.6</ele>
        <time>2022-09-11T07:45:32Z</time>
      </trkpt>
      <trkpt lat="42.312612" lon="8.868717">
        <ele>1596.8</ele>
        <time>2022-09-11T07:45:38Z</time>
      </trkpt>
      <trkpt lat="42.312482" lon="8.86872">
        <ele>1596.8</ele>
        <time>2022-09-11T07:45:49Z</time>
      </trkpt>
      <trkpt lat="42.312448" lon="8.868732">
        <ele>1596.8</ele>
        <time>2022-09-11T07:45:52Z</time>
      </trkpt>
      <trkpt lat="42.312447" lon="8.868763">
        <ele>1596.8</ele>
        <time>2022-09-11T07:45:55Z</time>
      </trkpt>
      <trkpt lat="42.312435" lon="8.868885">
        <ele>1596.2</ele>
        <time>2022-09-11T07:46:03Z</time>
      </trkpt>
      <trkpt lat="42.31243" lon="8.868898">
        <ele>1596.2</ele>
        <time>2022-09-11T07:46:04Z</time>
      </trkpt>
      <trkpt lat="42.312207" lon="8.869165">
        <ele>1591.8</ele>
        <time>2022-09-11T07:46:43Z</time>
      </trkpt>
      <trkpt lat="42.312183" lon="8.869178">
        <ele>1592.0</ele>
        <time>2022-09-11T07:46:47Z</time>
      </trkpt>
      <trkpt lat="42.312147" lon="8.869212">
        <ele>1591.8</ele>
        <time>2022-09-11T07:46:55Z</time>
      </trkpt>
      <trkpt lat="42.3121" lon="8.869283">
        <ele>1589.6</ele>
        <time>2022-09-11T07:47:08Z</time>
      </trkpt>
      <trkpt lat="42.312062" lon="8.869305">
        <ele>1589.4</ele>
        <time>2022-09-11T07:47:15Z</time>
      </trkpt>
      <trkpt lat="42.312015" lon="8.869333">
        <ele>1589.0</ele>
        <time>2022-09-11T07:47:21Z</time>
      </trkpt>
      <trkpt lat="42.311957" lon="8.869348">
        <ele>1588.6</ele>
        <time>2022-09-11T07:47:27Z</time>
      </trkpt>
      <trkpt lat="42.311915" lon="8.869302">
        <ele>1588.6</ele>
        <time>2022-09-11T07:47:32Z</time>
      </trkpt>
      <trkpt lat="42.311893" lon="8.869267">
        <ele>1588.6</ele>
        <time>2022-09-11T07:47:35Z</time>
      </trkpt>
      <trkpt lat="42.311837" lon="8.869273">
        <ele>1588.6</ele>
        <time>2022-09-11T07:47:40Z</time>
      </trkpt>
      <trkpt lat="42.311823" lon="8.869325">
        <ele>1588.8</ele>
        <time>2022-09-11T07:47:44Z</time>
      </trkpt>
      <trkpt lat="42.311822" lon="8.8694">
        <ele>1588.2</ele>
        <time>2022-09-11T07:47:50Z</time>
      </trkpt>
      <trkpt lat="42.311767" lon="8.869623">
        <ele>1587.0</ele>
        <time>2022-09-11T07:48:09Z</time>
      </trkpt>
      <trkpt lat="42.311767" lon="8.869663">
        <ele>1586.8</ele>
        <time>2022-09-11T07:48:13Z</time>
      </trkpt>
      <trkpt lat="42.311603" lon="8.869662">
        <ele>1585.6</ele>
        <time>2022-09-11T07:48:32Z</time>
      </trkpt>
      <trkpt lat="42.311578" lon="8.869682">
        <ele>1585.4</ele>
        <time>2022-09-11T07:48:36Z</time>
      </trkpt>
      <trkpt lat="42.311537" lon="8.869755">
        <ele>1584.6</ele>
        <time>2022-09-11T07:48:43Z</time>
      </trkpt>
      <trkpt lat="42.31153" lon="8.869768">
        <ele>1584.2</ele>
        <time>2022-09-11T07:48:44Z</time>
      </trkpt>
      <trkpt lat="42.31146" lon="8.8698">
        <ele>1584.2</ele>
        <time>2022-09-11T07:48:51Z</time>
      </trkpt>
      <trkpt lat="42.311338" lon="8.869852">
        <ele>1583.6</ele>
        <time>2022-09-11T07:49:03Z</time>
      </trkpt>
      <trkpt lat="42.311255" lon="8.869875">
        <ele>1581.4</ele>
        <time>2022-09-11T07:49:13Z</time>
      </trkpt>
      <trkpt lat="42.311207" lon="8.869875">
        <ele>1581.0</ele>
        <time>2022-09-11T07:49:25Z</time>
      </trkpt>
      <trkpt lat="42.311248" lon="8.86986">
        <ele>1581.0</ele>
        <time>2022-09-11T07:49:36Z</time>
      </trkpt>
      <trkpt lat="42.311253" lon="8.869822">
        <ele>1581.0</ele>
        <time>2022-09-11T07:49:48Z</time>
      </trkpt>
      <trkpt lat="42.311247" lon="8.8698">
        <ele>1581.8</ele>
        <time>2022-09-11T07:50:00Z</time>
      </trkpt>
      <trkpt lat="42.311243" lon="8.869797">
        <ele>1581.8</ele>
        <time>2022-09-11T07:50:00Z</time>
      </trkpt>
      <trkpt lat="42.311178" lon="8.869853">
        <ele>1580.4</ele>
        <time>2022-09-11T07:50:06Z</time>
      </trkpt>
      <trkpt lat="42.311128" lon="8.869997">
        <ele>1577.8</ele>
        <time>2022-09-11T07:50:14Z</time>
      </trkpt>
      <trkpt lat="42.311013" lon="8.870122">
        <ele>1577.2</ele>
        <time>2022-09-11T07:50:26Z</time>
      </trkpt>
      <trkpt lat="42.31099" lon="8.870172">
        <ele>1576.4</ele>
        <time>2022-09-11T07:50:29Z</time>
      </trkpt>
      <trkpt lat="42.310947" lon="8.870195">
        <ele>1576.0</ele>
        <time>2022-09-11T07:50:35Z</time>
      </trkpt>
      <trkpt lat="42.310912" lon="8.870165">
        <ele>1577.8</ele>
        <time>2022-09-11T07:50:59Z</time>
      </trkpt>
      <trkpt lat="42.3109" lon="8.87016">
        <ele>1577.6</ele>
        <time>2022-09-11T07:51:02Z</time>
      </trkpt>
      <trkpt lat="42.310883" lon="8.870173">
        <ele>1575.8</ele>
        <time>2022-09-11T07:51:07Z</time>
      </trkpt>
      <trkpt lat="42.310863" lon="8.870217">
        <ele>1573.0</ele>
        <time>2022-09-11T07:51:15Z</time>
      </trkpt>
      <trkpt lat="42.310803" lon="8.870223">
        <ele>1571.0</ele>
        <time>2022-09-11T07:51:39Z</time>
      </trkpt>
      <trkpt lat="42.310755" lon="8.870288">
        <ele>1569.8</ele>
        <time>2022-09-11T07:51:50Z</time>
      </trkpt>
      <trkpt lat="42.310712" lon="8.870402">
        <ele>1567.0</ele>
        <time>2022-09-11T07:52:22Z</time>
      </trkpt>
      <trkpt lat="42.31071" lon="8.870403">
        <ele>1566.6</ele>
        <time>2022-09-11T07:52:25Z</time>
      </trkpt>
      <trkpt lat="42.310678" lon="8.870433">
        <ele>1564.8</ele>
        <time>2022-09-11T07:52:42Z</time>
      </trkpt>
      <trkpt lat="42.3106" lon="8.870438">
        <ele>1563.6</ele>
        <time>2022-09-11T07:52:53Z</time>
      </trkpt>
      <trkpt lat="42.310483" lon="8.870432">
        <ele>1563.4</ele>
        <time>2022-09-11T07:52:59Z</time>
      </trkpt>
      <trkpt lat="42.310437" lon="8.870443">
        <ele>1563.8</ele>
        <time>2022-09-11T07:53:01Z</time>
      </trkpt>
      <trkpt lat="42.310407" lon="8.87049">
        <ele>1564.2</ele>
        <time>2022-09-11T07:53:04Z</time>
      </trkpt>
      <trkpt lat="42.310397" lon="8.870503">
        <ele>1563.8</ele>
        <time>2022-09-11T07:53:05Z</time>
      </trkpt>
      <trkpt lat="42.310337" lon="8.870665">
        <ele>1562.8</ele>
        <time>2022-09-11T07:53:15Z</time>
      </trkpt>
      <trkpt lat="42.310313" lon="8.870668">
        <ele>1562.8</ele>
        <time>2022-09-11T07:53:17Z</time>
      </trkpt>
      <trkpt lat="42.310225" lon="8.870668">
        <ele>1562.6</ele>
        <time>2022-09-11T07:53:25Z</time>
      </trkpt>
      <trkpt lat="42.310128" lon="8.870685">
        <ele>1562.2</ele>
        <time>2022-09-11T07:53:36Z</time>
      </trkpt>
      <trkpt lat="42.31008" lon="8.870715">
        <ele>1561.8</ele>
        <time>2022-09-11T07:53:42Z</time>
      </trkpt>
      <trkpt lat="42.310043" lon="8.870765">
        <ele>1561.0</ele>
        <time>2022-09-11T07:53:48Z</time>
      </trkpt>
      <trkpt lat="42.310042" lon="8.870787">
        <ele>1560.8</ele>
        <time>2022-09-11T07:53:51Z</time>
      </trkpt>
      <trkpt lat="42.310067" lon="8.87081">
        <ele>1560.2</ele>
        <time>2022-09-11T07:53:56Z</time>
      </trkpt>
      <trkpt lat="42.31007" lon="8.870875">
        <ele>1559.6</ele>
        <time>2022-09-11T07:54:04Z</time>
      </trkpt>
      <trkpt lat="42.310068" lon="8.870885">
        <ele>1559.6</ele>
        <time>2022-09-11T07:54:05Z</time>
      </trkpt>
      <trkpt lat="42.310117" lon="8.870942">
        <ele>1559.4</ele>
        <time>2022-09-11T07:54:12Z</time>
      </trkpt>
      <trkpt lat="42.310152" lon="8.871025">
        <ele>1559.0</ele>
        <time>2022-09-11T07:54:21Z</time>
      </trkpt>
      <trkpt lat="42.310192" lon="8.871088">
        <ele>1557.8</ele>
        <time>2022-09-11T07:54:29Z</time>
      </trkpt>
      <trkpt lat="42.310195" lon="8.871118">
        <ele>1557.4</ele>
        <time>2022-09-11T07:54:31Z</time>
      </trkpt>
      <trkpt lat="42.310185" lon="8.871187">
        <ele>1557.0</ele>
        <time>2022-09-11T07:54:36Z</time>
      </trkpt>
      <trkpt lat="42.31027" lon="8.871243">
        <ele>1556.6</ele>
        <time>2022-09-11T07:54:44Z</time>
      </trkpt>
      <trkpt lat="42.31028" lon="8.87126">
        <ele>1556.8</ele>
        <time>2022-09-11T07:54:47Z</time>
      </trkpt>
      <trkpt lat="42.310255" lon="8.87125">
        <ele>1556.4</ele>
        <time>2022-09-11T07:54:54Z</time>
      </trkpt>
      <trkpt lat="42.310242" lon="8.871277">
        <ele>1555.8</ele>
        <time>2022-09-11T07:55:05Z</time>
      </trkpt>
      <trkpt lat="42.310213" lon="8.871318">
        <ele>1553.4</ele>
        <time>2022-09-11T07:55:24Z</time>
      </trkpt>
      <trkpt lat="42.310202" lon="8.871365">
        <ele>1552.6</ele>
        <time>2022-09-11T07:55:32Z</time>
      </trkpt>
      <trkpt lat="42.310195" lon="8.87144">
        <ele>1551.8</ele>
        <time>2022-09-11T07:55:49Z</time>
      </trkpt>
      <trkpt lat="42.310195" lon="8.871443">
        <ele>1551.8</ele>
        <time>2022-09-11T07:55:50Z</time>
      </trkpt>
      <trkpt lat="42.310195" lon="8.871482">
        <ele>1551.0</ele>
        <time>2022-09-11T07:55:59Z</time>
      </trkpt>
      <trkpt lat="42.31018" lon="8.87159">
        <ele>1549.4</ele>
        <time>2022-09-11T07:56:13Z</time>
      </trkpt>
      <trkpt lat="42.310158" lon="8.871647">
        <ele>1548.0</ele>
        <time>2022-09-11T07:56:20Z</time>
      </trkpt>
      <trkpt lat="42.310125" lon="8.871673">
        <ele>1547.6</ele>
        <time>2022-09-11T07:56:25Z</time>
      </trkpt>
      <trkpt lat="42.310092" lon="8.871703">
        <ele>1547.2</ele>
        <time>2022-09-11T07:56:30Z</time>
      </trkpt>
      <trkpt lat="42.31009" lon="8.871735">
        <ele>1545.8</ele>
        <time>2022-09-11T07:56:37Z</time>
      </trkpt>
      <trkpt lat="42.31014" lon="8.871987">
        <ele>1542.2</ele>
        <time>2022-09-11T07:57:11Z</time>
      </trkpt>
      <trkpt lat="42.31015" lon="8.872025">
        <ele>1541.2</ele>
        <time>2022-09-11T07:57:17Z</time>
      </trkpt>
      <trkpt lat="42.310168" lon="8.872077">
        <ele>1540.4</ele>
        <time>2022-09-11T07:57:23Z</time>
      </trkpt>
      <trkpt lat="42.310178" lon="8.872195">
        <ele>1539.6</ele>
        <time>2022-09-11T07:57:33Z</time>
      </trkpt>
      <trkpt lat="42.310118" lon="8.872272">
        <ele>1538.4</ele>
        <time>2022-09-11T07:57:51Z</time>
      </trkpt>
      <trkpt lat="42.310078" lon="8.872332">
        <ele>1536.8</ele>
        <time>2022-09-11T07:58:00Z</time>
      </trkpt>
      <trkpt lat="42.310082" lon="8.872353">
        <ele>1536.4</ele>
        <time>2022-09-11T07:58:02Z</time>
      </trkpt>
      <trkpt lat="42.310092" lon="8.872382">
        <ele>1535.8</ele>
        <time>2022-09-11T07:58:05Z</time>
      </trkpt>
      <trkpt lat="42.310083" lon="8.872438">
        <ele>1535.2</ele>
        <time>2022-09-11T07:58:12Z</time>
      </trkpt>
      <trkpt lat="42.310018" lon="8.872475">
        <ele>1531.2</ele>
        <time>2022-09-11T07:58:39Z</time>
      </trkpt>
      <trkpt lat="42.310002" lon="8.872435">
        <ele>1530.8</ele>
        <time>2022-09-11T07:58:45Z</time>
      </trkpt>
      <trkpt lat="42.309973" lon="8.872418">
        <ele>1530.4</ele>
        <time>2022-09-11T07:58:50Z</time>
      </trkpt>
      <trkpt lat="42.309865" lon="8.872452">
        <ele>1531.8</ele>
        <time>2022-09-11T07:59:09Z</time>
      </trkpt>
      <trkpt lat="42.309865" lon="8.872475">
        <ele>1530.6</ele>
        <time>2022-09-11T07:59:18Z</time>
      </trkpt>
      <trkpt lat="42.309865" lon="8.872477">
        <ele>1530.6</ele>
        <time>2022-09-11T07:59:20Z</time>
      </trkpt>
      <trkpt lat="42.309935" lon="8.872593">
        <ele>1529.6</ele>
        <time>2022-09-11T08:00:11Z</time>
      </trkpt>
      <trkpt lat="42.309972" lon="8.872668">
        <ele>1529.0</ele>
        <time>2022-09-11T08:00:21Z</time>
      </trkpt>
      <trkpt lat="42.310022" lon="8.872913">
        <ele>1528.6</ele>
        <time>2022-09-11T08:00:32Z</time>
      </trkpt>
      <trkpt lat="42.310072" lon="8.873033">
        <ele>1528.4</ele>
        <time>2022-09-11T08:00:37Z</time>
      </trkpt>
      <trkpt lat="42.310148" lon="8.87312">
        <ele>1527.4</ele>
        <time>2022-09-11T08:00:44Z</time>
      </trkpt>
      <trkpt lat="42.310152" lon="8.873153">
        <ele>1527.4</ele>
        <time>2022-09-11T08:00:45Z</time>
      </trkpt>
      <trkpt lat="42.31014" lon="8.873177">
        <ele>1527.2</ele>
        <time>2022-09-11T08:00:47Z</time>
      </trkpt>
      <trkpt lat="42.310102" lon="8.87317">
        <ele>1526.6</ele>
        <time>2022-09-11T08:00:50Z</time>
      </trkpt>
      <trkpt lat="42.31006" lon="8.873143">
        <ele>1526.4</ele>
        <time>2022-09-11T08:00:54Z</time>
      </trkpt>
      <trkpt lat="42.310015" lon="8.873072">
        <ele>1525.6</ele>
        <time>2022-09-11T08:01:01Z</time>
      </trkpt>
      <trkpt lat="42.309938" lon="8.873023">
        <ele>1525.0</ele>
        <time>2022-09-11T08:01:10Z</time>
      </trkpt>
      <trkpt lat="42.309908" lon="8.873023">
        <ele>1524.6</ele>
        <time>2022-09-11T08:01:13Z</time>
      </trkpt>
      <trkpt lat="42.3099" lon="8.873042">
        <ele>1524.4</ele>
        <time>2022-09-11T08:01:15Z</time>
      </trkpt>
      <trkpt lat="42.309908" lon="8.87314">
        <ele>1523.8</ele>
        <time>2022-09-11T08:01:22Z</time>
      </trkpt>
      <trkpt lat="42.30998" lon="8.873212">
        <ele>1521.6</ele>
        <time>2022-09-11T08:01:39Z</time>
      </trkpt>
      <trkpt lat="42.309978" lon="8.873278">
        <ele>1520.8</ele>
        <time>2022-09-11T08:01:46Z</time>
      </trkpt>
      <trkpt lat="42.310013" lon="8.873355">
        <ele>1519.4</ele>
        <time>2022-09-11T08:01:57Z</time>
      </trkpt>
      <trkpt lat="42.310017" lon="8.873363">
        <ele>1519.4</ele>
        <time>2022-09-11T08:01:57Z</time>
      </trkpt>
      <trkpt lat="42.309998" lon="8.873397">
        <ele>1519.0</ele>
        <time>2022-09-11T08:02:01Z</time>
      </trkpt>
      <trkpt lat="42.309975" lon="8.873487">
        <ele>1517.6</ele>
        <time>2022-09-11T08:02:10Z</time>
      </trkpt>
      <trkpt lat="42.309953" lon="8.87353">
        <ele>1517.0</ele>
        <time>2022-09-11T08:02:20Z</time>
      </trkpt>
      <trkpt lat="42.310025" lon="8.873638">
        <ele>1512.6</ele>
        <time>2022-09-11T08:03:01Z</time>
      </trkpt>
      <trkpt lat="42.310013" lon="8.873688">
        <ele>1512.6</ele>
        <time>2022-09-11T08:03:06Z</time>
      </trkpt>
      <trkpt lat="42.31" lon="8.873745">
        <ele>1512.2</ele>
        <time>2022-09-11T08:03:10Z</time>
      </trkpt>
      <trkpt lat="42.310005" lon="8.873815">
        <ele>1511.8</ele>
        <time>2022-09-11T08:03:16Z</time>
      </trkpt>
      <trkpt lat="42.310072" lon="8.874015">
        <ele>1508.4</ele>
        <time>2022-09-11T08:03:50Z</time>
      </trkpt>
      <trkpt lat="42.310085" lon="8.874073">
        <ele>1507.6</ele>
        <time>2022-09-11T08:03:58Z</time>
      </trkpt>
      <trkpt lat="42.31005" lon="8.874155">
        <ele>1506.8</ele>
        <time>2022-09-11T08:04:05Z</time>
      </trkpt>
      <trkpt lat="42.310037" lon="8.874202">
        <ele>1506.2</ele>
        <time>2022-09-11T08:04:08Z</time>
      </trkpt>
      <trkpt lat="42.30998" lon="8.874303">
        <ele>1505.8</ele>
        <time>2022-09-11T08:04:18Z</time>
      </trkpt>
      <trkpt lat="42.310015" lon="8.874363">
        <ele>1505.4</ele>
        <time>2022-09-11T08:04:24Z</time>
      </trkpt>
      <trkpt lat="42.310055" lon="8.874428">
        <ele>1505.2</ele>
        <time>2022-09-11T08:04:31Z</time>
      </trkpt>
      <trkpt lat="42.310058" lon="8.874513">
        <ele>1504.8</ele>
        <time>2022-09-11T08:04:40Z</time>
      </trkpt>
      <trkpt lat="42.310072" lon="8.87469">
        <ele>1503.0</ele>
        <time>2022-09-11T08:05:02Z</time>
      </trkpt>
      <trkpt lat="42.31005" lon="8.874857">
        <ele>1502.2</ele>
        <time>2022-09-11T08:05:16Z</time>
      </trkpt>
      <trkpt lat="42.310063" lon="8.874943">
        <ele>1502.0</ele>
        <time>2022-09-11T08:05:23Z</time>
      </trkpt>
      <trkpt lat="42.31008" lon="8.874992">
        <ele>1501.2</ele>
        <time>2022-09-11T08:05:29Z</time>
      </trkpt>
      <trkpt lat="42.31013" lon="8.875007">
        <ele>1500.4</ele>
        <time>2022-09-11T08:05:42Z</time>
      </trkpt>
      <trkpt lat="42.310115" lon="8.87505">
        <ele>1500.0</ele>
        <time>2022-09-11T08:05:46Z</time>
      </trkpt>
      <trkpt lat="42.310067" lon="8.875058">
        <ele>1499.0</ele>
        <time>2022-09-11T08:06:43Z</time>
      </trkpt>
      <trkpt lat="42.310032" lon="8.875107">
        <ele>1497.6</ele>
        <time>2022-09-11T08:07:32Z</time>
      </trkpt>
      <trkpt lat="42.310022" lon="8.87516">
        <ele>1497.0</ele>
        <time>2022-09-11T08:07:38Z</time>
      </trkpt>
      <trkpt lat="42.309997" lon="8.875232">
        <ele>1496.8</ele>
        <time>2022-09-11T08:07:42Z</time>
      </trkpt>
      <trkpt lat="42.309975" lon="8.875253">
        <ele>1496.6</ele>
        <time>2022-09-11T08:07:44Z</time>
      </trkpt>
      <trkpt lat="42.30989" lon="8.875232">
        <ele>1495.0</ele>
        <time>2022-09-11T08:07:54Z</time>
      </trkpt>
      <trkpt lat="42.309867" lon="8.875197">
        <ele>1494.4</ele>
        <time>2022-09-11T08:07:58Z</time>
      </trkpt>
      <trkpt lat="42.309835" lon="8.875127">
        <ele>1493.8</ele>
        <time>2022-09-11T08:08:05Z</time>
      </trkpt>
      <trkpt lat="42.30981" lon="8.875127">
        <ele>1493.0</ele>
        <time>2022-09-11T08:08:08Z</time>
      </trkpt>
      <trkpt lat="42.309698" lon="8.87528">
        <ele>1489.6</ele>
        <time>2022-09-11T08:08:29Z</time>
      </trkpt>
      <trkpt lat="42.30969" lon="8.875283">
        <ele>1489.6</ele>
        <time>2022-09-11T08:08:30Z</time>
      </trkpt>
      <trkpt lat="42.309688" lon="8.875265">
        <ele>1489.2</ele>
        <time>2022-09-11T08:08:33Z</time>
      </trkpt>
      <trkpt lat="42.309693" lon="8.875213">
        <ele>1488.2</ele>
        <time>2022-09-11T08:08:38Z</time>
      </trkpt>
      <trkpt lat="42.309665" lon="8.875185">
        <ele>1486.4</ele>
        <time>2022-09-11T08:08:47Z</time>
      </trkpt>
      <trkpt lat="42.30966" lon="8.875175">
        <ele>1486.0</ele>
        <time>2022-09-11T08:08:49Z</time>
      </trkpt>
      <trkpt lat="42.309662" lon="8.875205">
        <ele>1484.8</ele>
        <time>2022-09-11T08:08:54Z</time>
      </trkpt>
      <trkpt lat="42.309693" lon="8.8753">
        <ele>1483.6</ele>
        <time>2022-09-11T08:09:05Z</time>
      </trkpt>
      <trkpt lat="42.309695" lon="8.875302">
        <ele>1483.4</ele>
        <time>2022-09-11T08:09:06Z</time>
      </trkpt>
      <trkpt lat="42.309652" lon="8.875337">
        <ele>1481.4</ele>
        <time>2022-09-11T08:09:19Z</time>
      </trkpt>
      <trkpt lat="42.309617" lon="8.875353">
        <ele>1481.0</ele>
        <time>2022-09-11T08:09:27Z</time>
      </trkpt>
      <trkpt lat="42.309582" lon="8.875705">
        <ele>1478.2</ele>
        <time>2022-09-11T08:10:06Z</time>
      </trkpt>
      <trkpt lat="42.309578" lon="8.875715">
        <ele>1478.4</ele>
        <time>2022-09-11T08:10:07Z</time>
      </trkpt>
      <trkpt lat="42.309532" lon="8.87577">
        <ele>1478.6</ele>
        <time>2022-09-11T08:10:14Z</time>
      </trkpt>
      <trkpt lat="42.309477" lon="8.875843">
        <ele>1478.0</ele>
        <time>2022-09-11T08:10:22Z</time>
      </trkpt>
      <trkpt lat="42.309425" lon="8.875948">
        <ele>1477.6</ele>
        <time>2022-09-11T08:10:31Z</time>
      </trkpt>
      <trkpt lat="42.309407" lon="8.875987">
        <ele>1477.0</ele>
        <time>2022-09-11T08:10:35Z</time>
      </trkpt>
      <trkpt lat="42.309313" lon="8.876032">
        <ele>1476.2</ele>
        <time>2022-09-11T08:10:43Z</time>
      </trkpt>
      <trkpt lat="42.30929" lon="8.876063">
        <ele>1475.8</ele>
        <time>2022-09-11T08:10:46Z</time>
      </trkpt>
      <trkpt lat="42.309233" lon="8.876085">
        <ele>1474.8</ele>
        <time>2022-09-11T08:10:56Z</time>
      </trkpt>
      <trkpt lat="42.309128" lon="8.876125">
        <ele>1473.6</ele>
        <time>2022-09-11T08:11:23Z</time>
      </trkpt>
      <trkpt lat="42.309103" lon="8.876145">
        <ele>1474.6</ele>
        <time>2022-09-11T08:11:36Z</time>
      </trkpt>
      <trkpt lat="42.309053" lon="8.876148">
        <ele>1474.4</ele>
        <time>2022-09-11T08:11:48Z</time>
      </trkpt>
      <trkpt lat="42.309053" lon="8.876157">
        <ele>1474.4</ele>
        <time>2022-09-11T08:11:49Z</time>
      </trkpt>
      <trkpt lat="42.309052" lon="8.87626">
        <ele>1474.4</ele>
        <time>2022-09-11T08:11:59Z</time>
      </trkpt>
      <trkpt lat="42.309048" lon="8.876313">
        <ele>1473.6</ele>
        <time>2022-09-11T08:12:05Z</time>
      </trkpt>
      <trkpt lat="42.30903" lon="8.876372">
        <ele>1472.6</ele>
        <time>2022-09-11T08:12:12Z</time>
      </trkpt>
      <trkpt lat="42.308997" lon="8.876417">
        <ele>1471.4</ele>
        <time>2022-09-11T08:12:19Z</time>
      </trkpt>
      <trkpt lat="42.308987" lon="8.876427">
        <ele>1471.0</ele>
        <time>2022-09-11T08:12:21Z</time>
      </trkpt>
      <trkpt lat="42.308947" lon="8.876477">
        <ele>1469.2</ele>
        <time>2022-09-11T08:12:33Z</time>
      </trkpt>
      <trkpt lat="42.30888" lon="8.876463">
        <ele>1465.8</ele>
        <time>2022-09-11T08:13:01Z</time>
      </trkpt>
      <trkpt lat="42.308795" lon="8.876503">
        <ele>1464.8</ele>
        <time>2022-09-11T08:13:17Z</time>
      </trkpt>
      <trkpt lat="42.30875" lon="8.876552">
        <ele>1464.2</ele>
        <time>2022-09-11T08:13:23Z</time>
      </trkpt>
      <trkpt lat="42.308732" lon="8.876555">
        <ele>1464.2</ele>
        <time>2022-09-11T08:13:25Z</time>
      </trkpt>
      <trkpt lat="42.30869" lon="8.876535">
        <ele>1463.2</ele>
        <time>2022-09-11T08:13:30Z</time>
      </trkpt>
      <trkpt lat="42.308645" lon="8.876582">
        <ele>1461.6</ele>
        <time>2022-09-11T08:13:37Z</time>
      </trkpt>
      <trkpt lat="42.308617" lon="8.876633">
        <ele>1461.0</ele>
        <time>2022-09-11T08:13:43Z</time>
      </trkpt>
      <trkpt lat="42.308537" lon="8.876653">
        <ele>1460.0</ele>
        <time>2022-09-11T08:13:51Z</time>
      </trkpt>
      <trkpt lat="42.308517" lon="8.876662">
        <ele>1459.6</ele>
        <time>2022-09-11T08:13:53Z</time>
      </trkpt>
      <trkpt lat="42.308492" lon="8.876688">
        <ele>1459.0</ele>
        <time>2022-09-11T08:13:56Z</time>
      </trkpt>
      <trkpt lat="42.308442" lon="8.876787">
        <ele>1458.0</ele>
        <time>2022-09-11T08:14:12Z</time>
      </trkpt>
      <trkpt lat="42.308413" lon="8.876808">
        <ele>1456.8</ele>
        <time>2022-09-11T08:14:25Z</time>
      </trkpt>
      <trkpt lat="42.30841" lon="8.87681">
        <ele>1456.8</ele>
        <time>2022-09-11T08:14:26Z</time>
      </trkpt>
      <trkpt lat="42.308372" lon="8.876847">
        <ele>1456.0</ele>
        <time>2022-09-11T08:14:35Z</time>
      </trkpt>
      <trkpt lat="42.30837" lon="8.876882">
        <ele>1454.6</ele>
        <time>2022-09-11T08:14:40Z</time>
      </trkpt>
      <trkpt lat="42.30837" lon="8.87695">
        <ele>1453.6</ele>
        <time>2022-09-11T08:14:49Z</time>
      </trkpt>
      <trkpt lat="42.308358" lon="8.876997">
        <ele>1452.8</ele>
        <time>2022-09-11T08:14:55Z</time>
      </trkpt>
      <trkpt lat="42.308347" lon="8.877042">
        <ele>1451.8</ele>
        <time>2022-09-11T08:15:01Z</time>
      </trkpt>
      <trkpt lat="42.30834" lon="8.87708">
        <ele>1451.0</ele>
        <time>2022-09-11T08:15:06Z</time>
      </trkpt>
      <trkpt lat="42.308328" lon="8.877083">
        <ele>1450.4</ele>
        <time>2022-09-11T08:15:08Z</time>
      </trkpt>
      <trkpt lat="42.308313" lon="8.87701">
        <ele>1449.4</ele>
        <time>2022-09-11T08:15:17Z</time>
      </trkpt>
      <trkpt lat="42.308297" lon="8.87698">
        <ele>1448.2</ele>
        <time>2022-09-11T08:15:24Z</time>
      </trkpt>
      <trkpt lat="42.308268" lon="8.876975">
        <ele>1446.8</ele>
        <time>2022-09-11T08:15:33Z</time>
      </trkpt>
      <trkpt lat="42.30825" lon="8.876998">
        <ele>1446.6</ele>
        <time>2022-09-11T08:15:37Z</time>
      </trkpt>
      <trkpt lat="42.308197" lon="8.877082">
        <ele>1444.8</ele>
        <time>2022-09-11T08:15:49Z</time>
      </trkpt>
      <trkpt lat="42.308192" lon="8.877087">
        <ele>1444.8</ele>
        <time>2022-09-11T08:15:49Z</time>
      </trkpt>
      <trkpt lat="42.308115" lon="8.877127">
        <ele>1442.8</ele>
        <time>2022-09-11T08:16:03Z</time>
      </trkpt>
      <trkpt lat="42.30809" lon="8.877123">
        <ele>1442.4</ele>
        <time>2022-09-11T08:16:07Z</time>
      </trkpt>
      <trkpt lat="42.308058" lon="8.87714">
        <ele>1440.8</ele>
        <time>2022-09-11T08:16:30Z</time>
      </trkpt>
      <trkpt lat="42.308015" lon="8.877158">
        <ele>1438.6</ele>
        <time>2022-09-11T08:16:47Z</time>
      </trkpt>
      <trkpt lat="42.307948" lon="8.8772">
        <ele>1436.8</ele>
        <time>2022-09-11T08:17:05Z</time>
      </trkpt>
      <trkpt lat="42.307945" lon="8.877205">
        <ele>1436.2</ele>
        <time>2022-09-11T08:17:07Z</time>
      </trkpt>
      <trkpt lat="42.307858" lon="8.877242">
        <ele>1435.0</ele>
        <time>2022-09-11T08:17:22Z</time>
      </trkpt>
      <trkpt lat="42.30779" lon="8.877262">
        <ele>1434.0</ele>
        <time>2022-09-11T08:17:30Z</time>
      </trkpt>
      <trkpt lat="42.307688" lon="8.877318">
        <ele>1433.4</ele>
        <time>2022-09-11T08:17:41Z</time>
      </trkpt>
      <trkpt lat="42.307678" lon="8.877318">
        <ele>1433.2</ele>
        <time>2022-09-11T08:17:42Z</time>
      </trkpt>
      <trkpt lat="42.307567" lon="8.877385">
        <ele>1428.8</ele>
        <time>2022-09-11T08:18:20Z</time>
      </trkpt>
      <trkpt lat="42.30731" lon="8.877455">
        <ele>1426.2</ele>
        <time>2022-09-11T08:18:51Z</time>
      </trkpt>
      <trkpt lat="42.307235" lon="8.877437">
        <ele>1424.8</ele>
        <time>2022-09-11T08:19:06Z</time>
      </trkpt>
      <trkpt lat="42.307152" lon="8.877462">
        <ele>1423.2</ele>
        <time>2022-09-11T08:19:23Z</time>
      </trkpt>
      <trkpt lat="42.307137" lon="8.87744">
        <ele>1422.4</ele>
        <time>2022-09-11T08:19:30Z</time>
      </trkpt>
      <trkpt lat="42.307103" lon="8.877463">
        <ele>1420.0</ele>
        <time>2022-09-11T08:19:51Z</time>
      </trkpt>
      <trkpt lat="42.307055" lon="8.877555">
        <ele>1414.6</ele>
        <time>2022-09-11T08:20:28Z</time>
      </trkpt>
      <trkpt lat="42.30701" lon="8.877587">
        <ele>1413.2</ele>
        <time>2022-09-11T08:20:42Z</time>
      </trkpt>
      <trkpt lat="42.306967" lon="8.8776">
        <ele>1413.0</ele>
        <time>2022-09-11T08:20:47Z</time>
      </trkpt>
      <trkpt lat="42.306905" lon="8.877625">
        <ele>1412.4</ele>
        <time>2022-09-11T08:20:53Z</time>
      </trkpt>
      <trkpt lat="42.306842" lon="8.87762">
        <ele>1412.8</ele>
        <time>2022-09-11T08:21:00Z</time>
      </trkpt>
      <trkpt lat="42.306762" lon="8.877613">
        <ele>1412.2</ele>
        <time>2022-09-11T08:21:08Z</time>
      </trkpt>
      <trkpt lat="42.306663" lon="8.87765">
        <ele>1412.0</ele>
        <time>2022-09-11T08:21:19Z</time>
      </trkpt>
      <trkpt lat="42.306592" lon="8.87769">
        <ele>1411.4</ele>
        <time>2022-09-11T08:21:28Z</time>
      </trkpt>
      <trkpt lat="42.306497" lon="8.877757">
        <ele>1410.2</ele>
        <time>2022-09-11T08:21:42Z</time>
      </trkpt>
      <trkpt lat="42.306467" lon="8.877753">
        <ele>1410.0</ele>
        <time>2022-09-11T08:21:46Z</time>
      </trkpt>
      <trkpt lat="42.306407" lon="8.877718">
        <ele>1409.4</ele>
        <time>2022-09-11T08:21:53Z</time>
      </trkpt>
      <trkpt lat="42.306345" lon="8.877648">
        <ele>1408.2</ele>
        <time>2022-09-11T08:22:05Z</time>
      </trkpt>
      <trkpt lat="42.30634" lon="8.877603">
        <ele>1407.6</ele>
        <time>2022-09-11T08:22:10Z</time>
      </trkpt>
      <trkpt lat="42.306363" lon="8.87758">
        <ele>1406.6</ele>
        <time>2022-09-11T08:22:14Z</time>
      </trkpt>
      <trkpt lat="42.30641" lon="8.87755">
        <ele>1405.6</ele>
        <time>2022-09-11T08:22:20Z</time>
      </trkpt>
      <trkpt lat="42.306447" lon="8.877507">
        <ele>1405.0</ele>
        <time>2022-09-11T08:22:24Z</time>
      </trkpt>
      <trkpt lat="42.306432" lon="8.877483">
        <ele>1404.6</ele>
        <time>2022-09-11T08:22:26Z</time>
      </trkpt>
      <trkpt lat="42.30637" lon="8.877427">
        <ele>1403.2</ele>
        <time>2022-09-11T08:22:34Z</time>
      </trkpt>
      <trkpt lat="42.30636" lon="8.877365">
        <ele>1403.0</ele>
        <time>2022-09-11T08:22:41Z</time>
      </trkpt>
      <trkpt lat="42.30636" lon="8.877305">
        <ele>1402.6</ele>
        <time>2022-09-11T08:22:47Z</time>
      </trkpt>
      <trkpt lat="42.306343" lon="8.877208">
        <ele>1402.2</ele>
        <time>2022-09-11T08:22:54Z</time>
      </trkpt>
      <trkpt lat="42.306315" lon="8.877097">
        <ele>1401.6</ele>
        <time>2022-09-11T08:23:02Z</time>
      </trkpt>
      <trkpt lat="42.306307" lon="8.877022">
        <ele>1401.2</ele>
        <time>2022-09-11T08:23:07Z</time>
      </trkpt>
      <trkpt lat="42.306255" lon="8.87689">
        <ele>1401.0</ele>
        <time>2022-09-11T08:23:18Z</time>
      </trkpt>
      <trkpt lat="42.306247" lon="8.876733">
        <ele>1400.2</ele>
        <time>2022-09-11T08:23:31Z</time>
      </trkpt>
      <trkpt lat="42.306253" lon="8.876725">
        <ele>1400.6</ele>
        <time>2022-09-11T08:23:32Z</time>
      </trkpt>
      <trkpt lat="42.306257" lon="8.876835">
        <ele>1401.4</ele>
        <time>2022-09-11T08:23:40Z</time>
      </trkpt>
      <trkpt lat="42.306262" lon="8.876903">
        <ele>1401.4</ele>
        <time>2022-09-11T08:23:45Z</time>
      </trkpt>
      <trkpt lat="42.30628" lon="8.876957">
        <ele>1401.4</ele>
        <time>2022-09-11T08:23:50Z</time>
      </trkpt>
      <trkpt lat="42.306277" lon="8.877017">
        <ele>1401.2</ele>
        <time>2022-09-11T08:23:55Z</time>
      </trkpt>
      <trkpt lat="42.306265" lon="8.877062">
        <ele>1401.2</ele>
        <time>2022-09-11T08:24:00Z</time>
      </trkpt>
      <trkpt lat="42.30628" lon="8.87707">
        <ele>1400.8</ele>
        <time>2022-09-11T08:24:18Z</time>
      </trkpt>
      <trkpt lat="42.306252" lon="8.877048">
        <ele>1400.0</ele>
        <time>2022-09-11T08:24:29Z</time>
      </trkpt>
      <trkpt lat="42.30626" lon="8.87719">
        <ele>1401.2</ele>
        <time>2022-09-11T08:25:42Z</time>
      </trkpt>
      <trkpt lat="42.306208" lon="8.87717">
        <ele>1400.8</ele>
        <time>2022-09-11T08:26:03Z</time>
      </trkpt>
      <trkpt lat="42.306155" lon="8.877202">
        <ele>1401.2</ele>
        <time>2022-09-11T08:26:44Z</time>
      </trkpt>
      <trkpt lat="42.306173" lon="8.87714">
        <ele>1400.6</ele>
        <time>2022-09-11T08:26:57Z</time>
      </trkpt>
      <trkpt lat="42.306177" lon="8.877113">
        <ele>1400.6</ele>
        <time>2022-09-11T08:27:00Z</time>
      </trkpt>
      <trkpt lat="42.306125" lon="8.877023">
        <ele>1401.4</ele>
        <time>2022-09-11T08:27:13Z</time>
      </trkpt>
      <trkpt lat="42.306092" lon="8.876912">
        <ele>1400.0</ele>
        <time>2022-09-11T08:28:36Z</time>
      </trkpt>
      <trkpt lat="42.306078" lon="8.876943">
        <ele>1398.6</ele>
        <time>2022-09-11T08:29:00Z</time>
      </trkpt>
      <trkpt lat="42.30606" lon="8.876975">
        <ele>1398.6</ele>
        <time>2022-09-11T08:29:06Z</time>
      </trkpt>
      <trkpt lat="42.306058" lon="8.876982">
        <ele>1398.8</ele>
        <time>2022-09-11T08:29:07Z</time>
      </trkpt>
      <trkpt lat="42.305957" lon="8.876965">
        <ele>1399.6</ele>
        <time>2022-09-11T08:29:23Z</time>
      </trkpt>
      <trkpt lat="42.305918" lon="8.876983">
        <ele>1399.8</ele>
        <time>2022-09-11T08:29:33Z</time>
      </trkpt>
      <trkpt lat="42.305845" lon="8.877008">
        <ele>1399.8</ele>
        <time>2022-09-11T08:29:43Z</time>
      </trkpt>
      <trkpt lat="42.305793" lon="8.877043">
        <ele>1400.0</ele>
        <time>2022-09-11T08:29:52Z</time>
      </trkpt>
      <trkpt lat="42.30576" lon="8.877063">
        <ele>1399.8</ele>
        <time>2022-09-11T08:29:58Z</time>
      </trkpt>
      <trkpt lat="42.305738" lon="8.877082">
        <ele>1399.6</ele>
        <time>2022-09-11T08:30:04Z</time>
      </trkpt>
      <trkpt lat="42.305722" lon="8.877105">
        <ele>1399.6</ele>
        <time>2022-09-11T08:30:09Z</time>
      </trkpt>
      <trkpt lat="42.305563" lon="8.877083">
        <ele>1399.0</ele>
        <time>2022-09-11T08:30:35Z</time>
      </trkpt>
      <trkpt lat="42.305545" lon="8.877082">
        <ele>1398.6</ele>
        <time>2022-09-11T08:30:39Z</time>
      </trkpt>
      <trkpt lat="42.305533" lon="8.877043">
        <ele>1397.2</ele>
        <time>2022-09-11T08:30:48Z</time>
      </trkpt>
      <trkpt lat="42.305502" lon="8.876963">
        <ele>1396.2</ele>
        <time>2022-09-11T08:30:56Z</time>
      </trkpt>
      <trkpt lat="42.305453" lon="8.87687">
        <ele>1395.0</ele>
        <time>2022-09-11T08:31:05Z</time>
      </trkpt>
      <trkpt lat="42.305427" lon="8.876775">
        <ele>1393.8</ele>
        <time>2022-09-11T08:31:12Z</time>
      </trkpt>
      <trkpt lat="42.305363" lon="8.876653">
        <ele>1392.2</ele>
        <time>2022-09-11T08:31:23Z</time>
      </trkpt>
      <trkpt lat="42.305353" lon="8.876602">
        <ele>1391.0</ele>
        <time>2022-09-11T08:31:32Z</time>
      </trkpt>
      <trkpt lat="42.305292" lon="8.876542">
        <ele>1389.6</ele>
        <time>2022-09-11T08:31:46Z</time>
      </trkpt>
      <trkpt lat="42.305215" lon="8.876423">
        <ele>1388.0</ele>
        <time>2022-09-11T08:32:00Z</time>
      </trkpt>
      <trkpt lat="42.30517" lon="8.87629">
        <ele>1387.8</ele>
        <time>2022-09-11T08:32:09Z</time>
      </trkpt>
      <trkpt lat="42.305013" lon="8.876165">
        <ele>1388.4</ele>
        <time>2022-09-11T08:32:25Z</time>
      </trkpt>
      <trkpt lat="42.305007" lon="8.876172">
        <ele>1388.4</ele>
        <time>2022-09-11T08:32:26Z</time>
      </trkpt>
      <trkpt lat="42.30499" lon="8.876195">
        <ele>1387.8</ele>
        <time>2022-09-11T08:32:29Z</time>
      </trkpt>
      <trkpt lat="42.304947" lon="8.876302">
        <ele>1387.2</ele>
        <time>2022-09-11T08:32:41Z</time>
      </trkpt>
      <trkpt lat="42.304922" lon="8.876315">
        <ele>1386.6</ele>
        <time>2022-09-11T08:32:45Z</time>
      </trkpt>
      <trkpt lat="42.30487" lon="8.87634">
        <ele>1385.8</ele>
        <time>2022-09-11T08:33:01Z</time>
      </trkpt>
      <trkpt lat="42.304867" lon="8.876335">
        <ele>1385.8</ele>
        <time>2022-09-11T08:33:02Z</time>
      </trkpt>
      <trkpt lat="42.30484" lon="8.87629">
        <ele>1385.8</ele>
        <time>2022-09-11T08:33:06Z</time>
      </trkpt>
      <trkpt lat="42.304802" lon="8.876262">
        <ele>1386.2</ele>
        <time>2022-09-11T08:33:11Z</time>
      </trkpt>
      <trkpt lat="42.304767" lon="8.876267">
        <ele>1386.2</ele>
        <time>2022-09-11T08:33:16Z</time>
      </trkpt>
      <trkpt lat="42.30471" lon="8.876158">
        <ele>1384.8</ele>
        <time>2022-09-11T08:33:27Z</time>
      </trkpt>
      <trkpt lat="42.304705" lon="8.876147">
        <ele>1384.8</ele>
        <time>2022-09-11T08:33:28Z</time>
      </trkpt>
      <trkpt lat="42.30469" lon="8.876025">
        <ele>1384.2</ele>
        <time>2022-09-11T08:33:36Z</time>
      </trkpt>
      <trkpt lat="42.304673" lon="8.87599">
        <ele>1384.2</ele>
        <time>2022-09-11T08:33:40Z</time>
      </trkpt>
      <trkpt lat="42.304643" lon="8.875947">
        <ele>1383.6</ele>
        <time>2022-09-11T08:33:47Z</time>
      </trkpt>
      <trkpt lat="42.304602" lon="8.875945">
        <ele>1383.4</ele>
        <time>2022-09-11T08:33:55Z</time>
      </trkpt>
      <trkpt lat="42.304585" lon="8.875928">
        <ele>1382.8</ele>
        <time>2022-09-11T08:33:59Z</time>
      </trkpt>
      <trkpt lat="42.304543" lon="8.875943">
        <ele>1381.4</ele>
        <time>2022-09-11T08:34:09Z</time>
      </trkpt>
      <trkpt lat="42.304527" lon="8.875933">
        <ele>1380.6</ele>
        <time>2022-09-11T08:34:14Z</time>
      </trkpt>
      <trkpt lat="42.304507" lon="8.87589">
        <ele>1379.8</ele>
        <time>2022-09-11T08:34:26Z</time>
      </trkpt>
      <trkpt lat="42.304493" lon="8.875862">
        <ele>1379.2</ele>
        <time>2022-09-11T08:34:33Z</time>
      </trkpt>
      <trkpt lat="42.304488" lon="8.875855">
        <ele>1379.0</ele>
        <time>2022-09-11T08:34:35Z</time>
      </trkpt>
      <trkpt lat="42.304432" lon="8.875678">
        <ele>1380.0</ele>
        <time>2022-09-11T08:35:00Z</time>
      </trkpt>
      <trkpt lat="42.304383" lon="8.875607">
        <ele>1381.2</ele>
        <time>2022-09-11T08:35:20Z</time>
      </trkpt>
      <trkpt lat="42.304312" lon="8.875578">
        <ele>1382.4</ele>
        <time>2022-09-11T08:35:36Z</time>
      </trkpt>
      <trkpt lat="42.304287" lon="8.875575">
        <ele>1382.4</ele>
        <time>2022-09-11T08:35:39Z</time>
      </trkpt>
      <trkpt lat="42.304257" lon="8.875578">
        <ele>1382.2</ele>
        <time>2022-09-11T08:35:43Z</time>
      </trkpt>
      <trkpt lat="42.304208" lon="8.875548">
        <ele>1381.2</ele>
        <time>2022-09-11T08:35:50Z</time>
      </trkpt>
      <trkpt lat="42.30419" lon="8.875523">
        <ele>1381.2</ele>
        <time>2022-09-11T08:35:54Z</time>
      </trkpt>
      <trkpt lat="42.304188" lon="8.875515">
        <ele>1381.2</ele>
        <time>2022-09-11T08:35:55Z</time>
      </trkpt>
      <trkpt lat="42.304163" lon="8.875487">
        <ele>1382.2</ele>
        <time>2022-09-11T08:36:06Z</time>
      </trkpt>
      <trkpt lat="42.304085" lon="8.875468">
        <ele>1383.2</ele>
        <time>2022-09-11T08:36:19Z</time>
      </trkpt>
      <trkpt lat="42.304067" lon="8.875458">
        <ele>1383.6</ele>
        <time>2022-09-11T08:36:24Z</time>
      </trkpt>
      <trkpt lat="42.304023" lon="8.875352">
        <ele>1385.4</ele>
        <time>2022-09-11T08:36:39Z</time>
      </trkpt>
      <trkpt lat="42.303983" lon="8.875393">
        <ele>1386.0</ele>
        <time>2022-09-11T08:36:44Z</time>
      </trkpt>
      <trkpt lat="42.303925" lon="8.875463">
        <ele>1386.4</ele>
        <time>2022-09-11T08:36:52Z</time>
      </trkpt>
      <trkpt lat="42.303873" lon="8.875483">
        <ele>1387.0</ele>
        <time>2022-09-11T08:36:58Z</time>
      </trkpt>
      <trkpt lat="42.303852" lon="8.875487">
        <ele>1387.2</ele>
        <time>2022-09-11T08:37:01Z</time>
      </trkpt>
      <trkpt lat="42.30384" lon="8.875482">
        <ele>1387.8</ele>
        <time>2022-09-11T08:37:06Z</time>
      </trkpt>
      <trkpt lat="42.30384" lon="8.875455">
        <ele>1388.2</ele>
        <time>2022-09-11T08:37:11Z</time>
      </trkpt>
      <trkpt lat="42.303847" lon="8.875435">
        <ele>1388.6</ele>
        <time>2022-09-11T08:37:14Z</time>
      </trkpt>
      <trkpt lat="42.303838" lon="8.875408">
        <ele>1388.8</ele>
        <time>2022-09-11T08:37:21Z</time>
      </trkpt>
      <trkpt lat="42.303828" lon="8.87542">
        <ele>1389.0</ele>
        <time>2022-09-11T08:37:24Z</time>
      </trkpt>
      <trkpt lat="42.303815" lon="8.875413">
        <ele>1389.8</ele>
        <time>2022-09-11T08:37:34Z</time>
      </trkpt>
      <trkpt lat="42.303882" lon="8.875338">
        <ele>1392.2</ele>
        <time>2022-09-11T08:37:59Z</time>
      </trkpt>
      <trkpt lat="42.303882" lon="8.875333">
        <ele>1392.4</ele>
        <time>2022-09-11T08:38:00Z</time>
      </trkpt>
      <trkpt lat="42.303848" lon="8.875338">
        <ele>1393.0</ele>
        <time>2022-09-11T08:38:07Z</time>
      </trkpt>
      <trkpt lat="42.303812" lon="8.875335">
        <ele>1393.0</ele>
        <time>2022-09-11T08:38:14Z</time>
      </trkpt>
      <trkpt lat="42.303757" lon="8.875313">
        <ele>1393.0</ele>
        <time>2022-09-11T08:38:21Z</time>
      </trkpt>
      <trkpt lat="42.303708" lon="8.875187">
        <ele>1393.4</ele>
        <time>2022-09-11T08:38:31Z</time>
      </trkpt>
      <trkpt lat="42.303653" lon="8.875173">
        <ele>1394.2</ele>
        <time>2022-09-11T08:38:55Z</time>
      </trkpt>
      <trkpt lat="42.303612" lon="8.875188">
        <ele>1394.2</ele>
        <time>2022-09-11T08:39:01Z</time>
      </trkpt>
      <trkpt lat="42.303605" lon="8.875167">
        <ele>1394.2</ele>
        <time>2022-09-11T08:39:03Z</time>
      </trkpt>
      <trkpt lat="42.303613" lon="8.875072">
        <ele>1394.0</ele>
        <time>2022-09-11T08:39:11Z</time>
      </trkpt>
      <trkpt lat="42.3036" lon="8.874963">
        <ele>1393.4</ele>
        <time>2022-09-11T08:39:20Z</time>
      </trkpt>
      <trkpt lat="42.303587" lon="8.87485">
        <ele>1393.0</ele>
        <time>2022-09-11T08:39:29Z</time>
      </trkpt>
      <trkpt lat="42.303597" lon="8.874738">
        <ele>1392.4</ele>
        <time>2022-09-11T08:39:37Z</time>
      </trkpt>
      <trkpt lat="42.303597" lon="8.874695">
        <ele>1392.2</ele>
        <time>2022-09-11T08:39:40Z</time>
      </trkpt>
      <trkpt lat="42.30353" lon="8.874712">
        <ele>1391.6</ele>
        <time>2022-09-11T08:39:47Z</time>
      </trkpt>
      <trkpt lat="42.303472" lon="8.87476">
        <ele>1392.0</ele>
        <time>2022-09-11T08:39:54Z</time>
      </trkpt>
      <trkpt lat="42.303433" lon="8.874797">
        <ele>1392.2</ele>
        <time>2022-09-11T08:39:59Z</time>
      </trkpt>
      <trkpt lat="42.303402" lon="8.874818">
        <ele>1392.8</ele>
        <time>2022-09-11T08:40:03Z</time>
      </trkpt>
      <trkpt lat="42.303397" lon="8.87484">
        <ele>1393.0</ele>
        <time>2022-09-11T08:40:05Z</time>
      </trkpt>
      <trkpt lat="42.303363" lon="8.875012">
        <ele>1392.0</ele>
        <time>2022-09-11T08:40:21Z</time>
      </trkpt>
      <trkpt lat="42.303332" lon="8.875088">
        <ele>1391.4</ele>
        <time>2022-09-11T08:40:28Z</time>
      </trkpt>
      <trkpt lat="42.303178" lon="8.87545">
        <ele>1388.0</ele>
        <time>2022-09-11T08:41:01Z</time>
      </trkpt>
      <trkpt lat="42.303172" lon="8.875448">
        <ele>1388.0</ele>
        <time>2022-09-11T08:41:02Z</time>
      </trkpt>
      <trkpt lat="42.30313" lon="8.87544">
        <ele>1386.6</ele>
        <time>2022-09-11T08:41:12Z</time>
      </trkpt>
      <trkpt lat="42.303072" lon="8.875487">
        <ele>1384.8</ele>
        <time>2022-09-11T08:41:24Z</time>
      </trkpt>
      <trkpt lat="42.303047" lon="8.875492">
        <ele>1384.2</ele>
        <time>2022-09-11T08:41:30Z</time>
      </trkpt>
      <trkpt lat="42.302997" lon="8.875552">
        <ele>1383.2</ele>
        <time>2022-09-11T08:41:45Z</time>
      </trkpt>
      <trkpt lat="42.302968" lon="8.875597">
        <ele>1382.8</ele>
        <time>2022-09-11T08:41:50Z</time>
      </trkpt>
      <trkpt lat="42.302965" lon="8.875608">
        <ele>1382.8</ele>
        <time>2022-09-11T08:41:51Z</time>
      </trkpt>
      <trkpt lat="42.302882" lon="8.875637">
        <ele>1382.4</ele>
        <time>2022-09-11T08:42:03Z</time>
      </trkpt>
      <trkpt lat="42.302862" lon="8.875643">
        <ele>1382.2</ele>
        <time>2022-09-11T08:42:06Z</time>
      </trkpt>
      <trkpt lat="42.302872" lon="8.875663">
        <ele>1380.0</ele>
        <time>2022-09-11T08:42:53Z</time>
      </trkpt>
      <trkpt lat="42.302852" lon="8.87571">
        <ele>1377.6</ele>
        <time>2022-09-11T08:43:39Z</time>
      </trkpt>
      <trkpt lat="42.302777" lon="8.875843">
        <ele>1373.8</ele>
        <time>2022-09-11T08:48:29Z</time>
      </trkpt>
      <trkpt lat="42.302858" lon="8.875852">
        <ele>1372.4</ele>
        <time>2022-09-11T08:48:39Z</time>
      </trkpt>
      <trkpt lat="42.302915" lon="8.875918">
        <ele>1371.4</ele>
        <time>2022-09-11T08:48:47Z</time>
      </trkpt>
      <trkpt lat="42.302983" lon="8.875957">
        <ele>1368.2</ele>
        <time>2022-09-11T08:49:05Z</time>
      </trkpt>
      <trkpt lat="42.302962" lon="8.876153">
        <ele>1367.2</ele>
        <time>2022-09-11T08:49:18Z</time>
      </trkpt>
      <trkpt lat="42.30293" lon="8.876207">
        <ele>1366.8</ele>
        <time>2022-09-11T08:49:24Z</time>
      </trkpt>
      <trkpt lat="42.30288" lon="8.876247">
        <ele>1367.2</ele>
        <time>2022-09-11T08:49:33Z</time>
      </trkpt>
      <trkpt lat="42.302848" lon="8.876318">
        <ele>1367.6</ele>
        <time>2022-09-11T08:49:39Z</time>
      </trkpt>
      <trkpt lat="42.302828" lon="8.876343">
        <ele>1367.6</ele>
        <time>2022-09-11T08:49:43Z</time>
      </trkpt>
      <trkpt lat="42.30279" lon="8.876365">
        <ele>1368.4</ele>
        <time>2022-09-11T08:49:49Z</time>
      </trkpt>
      <trkpt lat="42.30275" lon="8.876422">
        <ele>1371.2</ele>
        <time>2022-09-11T08:50:13Z</time>
      </trkpt>
      <trkpt lat="42.30273" lon="8.87651">
        <ele>1369.0</ele>
        <time>2022-09-11T08:50:28Z</time>
      </trkpt>
      <trkpt lat="42.302732" lon="8.876555">
        <ele>1368.8</ele>
        <time>2022-09-11T08:50:34Z</time>
      </trkpt>
      <trkpt lat="42.302718" lon="8.876617">
        <ele>1367.6</ele>
        <time>2022-09-11T08:50:40Z</time>
      </trkpt>
      <trkpt lat="42.302682" lon="8.876658">
        <ele>1367.0</ele>
        <time>2022-09-11T08:50:46Z</time>
      </trkpt>
      <trkpt lat="42.302627" lon="8.876667">
        <ele>1366.4</ele>
        <time>2022-09-11T08:50:52Z</time>
      </trkpt>
      <trkpt lat="42.302437" lon="8.87682">
        <ele>1365.2</ele>
        <time>2022-09-11T08:51:12Z</time>
      </trkpt>
      <trkpt lat="42.302403" lon="8.876835">
        <ele>1365.2</ele>
        <time>2022-09-11T08:51:15Z</time>
      </trkpt>
      <trkpt lat="42.302395" lon="8.876848">
        <ele>1365.0</ele>
        <time>2022-09-11T08:51:16Z</time>
      </trkpt>
      <trkpt lat="42.302353" lon="8.876888">
        <ele>1364.8</ele>
        <time>2022-09-11T08:51:23Z</time>
      </trkpt>
      <trkpt lat="42.30232" lon="8.876928">
        <ele>1364.2</ele>
        <time>2022-09-11T08:51:29Z</time>
      </trkpt>
      <trkpt lat="42.302265" lon="8.876987">
        <ele>1363.2</ele>
        <time>2022-09-11T08:51:39Z</time>
      </trkpt>
      <trkpt lat="42.302228" lon="8.877113">
        <ele>1361.8</ele>
        <time>2022-09-11T08:51:59Z</time>
      </trkpt>
      <trkpt lat="42.302195" lon="8.877617">
        <ele>1360.6</ele>
        <time>2022-09-11T08:52:38Z</time>
      </trkpt>
      <trkpt lat="42.302187" lon="8.87764">
        <ele>1360.2</ele>
        <time>2022-09-11T08:52:50Z</time>
      </trkpt>
      <trkpt lat="42.301987" lon="8.877515">
        <ele>1360.4</ele>
        <time>2022-09-11T08:53:02Z</time>
      </trkpt>
      <trkpt lat="42.301832" lon="8.877677">
        <ele>1359.6</ele>
        <time>2022-09-11T08:53:15Z</time>
      </trkpt>
      <trkpt lat="42.301802" lon="8.877718">
        <ele>1359.6</ele>
        <time>2022-09-11T08:53:15Z</time>
      </trkpt>
      <trkpt lat="42.301808" lon="8.877773">
        <ele>1359.4</ele>
        <time>2022-09-11T08:53:20Z</time>
      </trkpt>
      <trkpt lat="42.301855" lon="8.87789">
        <ele>1359.0</ele>
        <time>2022-09-11T08:53:31Z</time>
      </trkpt>
      <trkpt lat="42.30184" lon="8.877998">
        <ele>1359.2</ele>
        <time>2022-09-11T08:53:42Z</time>
      </trkpt>
      <trkpt lat="42.30182" lon="8.878098">
        <ele>1360.6</ele>
        <time>2022-09-11T08:53:55Z</time>
      </trkpt>
      <trkpt lat="42.301792" lon="8.878192">
        <ele>1361.6</ele>
        <time>2022-09-11T08:54:07Z</time>
      </trkpt>
      <trkpt lat="42.301763" lon="8.878288">
        <ele>1362.0</ele>
        <time>2022-09-11T08:54:17Z</time>
      </trkpt>
      <trkpt lat="42.30175" lon="8.87836">
        <ele>1361.8</ele>
        <time>2022-09-11T08:54:24Z</time>
      </trkpt>
      <trkpt lat="42.30176" lon="8.878517">
        <ele>1361.4</ele>
        <time>2022-09-11T08:54:37Z</time>
      </trkpt>
      <trkpt lat="42.301745" lon="8.87861">
        <ele>1360.8</ele>
        <time>2022-09-11T08:54:46Z</time>
      </trkpt>
      <trkpt lat="42.301718" lon="8.87869">
        <ele>1360.8</ele>
        <time>2022-09-11T08:54:54Z</time>
      </trkpt>
      <trkpt lat="42.301692" lon="8.87881">
        <ele>1360.8</ele>
        <time>2022-09-11T08:55:08Z</time>
      </trkpt>
      <trkpt lat="42.301693" lon="8.878818">
        <ele>1360.8</ele>
        <time>2022-09-11T08:55:09Z</time>
      </trkpt>
      <trkpt lat="42.301652" lon="8.878972">
        <ele>1361.0</ele>
        <time>2022-09-11T08:55:23Z</time>
      </trkpt>
      <trkpt lat="42.301642" lon="8.879087">
        <ele>1361.2</ele>
        <time>2022-09-11T08:55:33Z</time>
      </trkpt>
      <trkpt lat="42.30164" lon="8.87914">
        <ele>1361.0</ele>
        <time>2022-09-11T08:55:37Z</time>
      </trkpt>
      <trkpt lat="42.301582" lon="8.879368">
        <ele>1360.6</ele>
        <time>2022-09-11T08:55:53Z</time>
      </trkpt>
      <trkpt lat="42.301593" lon="8.87946">
        <ele>1361.0</ele>
        <time>2022-09-11T08:56:00Z</time>
      </trkpt>
      <trkpt lat="42.301567" lon="8.87958">
        <ele>1361.8</ele>
        <time>2022-09-11T08:56:11Z</time>
      </trkpt>
      <trkpt lat="42.301512" lon="8.879813">
        <ele>1363.4</ele>
        <time>2022-09-11T08:56:37Z</time>
      </trkpt>
      <trkpt lat="42.301507" lon="8.87986">
        <ele>1363.6</ele>
        <time>2022-09-11T08:56:41Z</time>
      </trkpt>
      <trkpt lat="42.301368" lon="8.879958">
        <ele>1362.6</ele>
        <time>2022-09-11T08:56:56Z</time>
      </trkpt>
      <trkpt lat="42.301328" lon="8.879955">
        <ele>1362.4</ele>
        <time>2022-09-11T08:57:01Z</time>
      </trkpt>
      <trkpt lat="42.30129" lon="8.879948">
        <ele>1362.4</ele>
        <time>2022-09-11T08:57:06Z</time>
      </trkpt>
      <trkpt lat="42.301253" lon="8.879973">
        <ele>1362.6</ele>
        <time>2022-09-11T08:57:11Z</time>
      </trkpt>
      <trkpt lat="42.301232" lon="8.880002">
        <ele>1362.8</ele>
        <time>2022-09-11T08:57:14Z</time>
      </trkpt>
      <trkpt lat="42.301067" lon="8.880202">
        <ele>1364.0</ele>
        <time>2022-09-11T08:57:41Z</time>
      </trkpt>
      <trkpt lat="42.301035" lon="8.880282">
        <ele>1364.0</ele>
        <time>2022-09-11T08:57:49Z</time>
      </trkpt>
      <trkpt lat="42.30101" lon="8.88034">
        <ele>1364.0</ele>
        <time>2022-09-11T08:57:55Z</time>
      </trkpt>
      <trkpt lat="42.300952" lon="8.880425">
        <ele>1363.2</ele>
        <time>2022-09-11T08:58:08Z</time>
      </trkpt>
      <trkpt lat="42.300897" lon="8.880543">
        <ele>1362.0</ele>
        <time>2022-09-11T08:58:24Z</time>
      </trkpt>
      <trkpt lat="42.300845" lon="8.880597">
        <ele>1361.8</ele>
        <time>2022-09-11T08:58:34Z</time>
      </trkpt>
      <trkpt lat="42.300812" lon="8.880642">
        <ele>1361.8</ele>
        <time>2022-09-11T08:58:41Z</time>
      </trkpt>
      <trkpt lat="42.300797" lon="8.880643">
        <ele>1361.8</ele>
        <time>2022-09-11T08:58:43Z</time>
      </trkpt>
      <trkpt lat="42.300738" lon="8.880727">
        <ele>1362.8</ele>
        <time>2022-09-11T08:58:55Z</time>
      </trkpt>
      <trkpt lat="42.300715" lon="8.880768">
        <ele>1363.4</ele>
        <time>2022-09-11T08:59:00Z</time>
      </trkpt>
      <trkpt lat="42.300693" lon="8.880877">
        <ele>1364.0</ele>
        <time>2022-09-11T08:59:10Z</time>
      </trkpt>
      <trkpt lat="42.300702" lon="8.880995">
        <ele>1365.2</ele>
        <time>2022-09-11T08:59:20Z</time>
      </trkpt>
      <trkpt lat="42.3007" lon="8.881027">
        <ele>1365.4</ele>
        <time>2022-09-11T08:59:23Z</time>
      </trkpt>
      <trkpt lat="42.300687" lon="8.881078">
        <ele>1365.8</ele>
        <time>2022-09-11T08:59:30Z</time>
      </trkpt>
      <trkpt lat="42.300683" lon="8.881138">
        <ele>1365.8</ele>
        <time>2022-09-11T08:59:39Z</time>
      </trkpt>
      <trkpt lat="42.30066" lon="8.881222">
        <ele>1365.8</ele>
        <time>2022-09-11T08:59:50Z</time>
      </trkpt>
      <trkpt lat="42.30064" lon="8.881245">
        <ele>1366.2</ele>
        <time>2022-09-11T08:59:54Z</time>
      </trkpt>
      <trkpt lat="42.300602" lon="8.88127">
        <ele>1366.6</ele>
        <time>2022-09-11T09:00:00Z</time>
      </trkpt>
      <trkpt lat="42.300598" lon="8.88131">
        <ele>1366.6</ele>
        <time>2022-09-11T09:00:06Z</time>
      </trkpt>
      <trkpt lat="42.300545" lon="8.881337">
        <ele>1367.8</ele>
        <time>2022-09-11T09:00:22Z</time>
      </trkpt>
      <trkpt lat="42.300515" lon="8.881428">
        <ele>1369.2</ele>
        <time>2022-09-11T09:00:37Z</time>
      </trkpt>
      <trkpt lat="42.300513" lon="8.881437">
        <ele>1369.6</ele>
        <time>2022-09-11T09:00:38Z</time>
      </trkpt>
      <trkpt lat="42.300383" lon="8.881703">
        <ele>1371.8</ele>
        <time>2022-09-11T09:01:08Z</time>
      </trkpt>
      <trkpt lat="42.300383" lon="8.88176">
        <ele>1372.4</ele>
        <time>2022-09-11T09:01:15Z</time>
      </trkpt>
      <trkpt lat="42.30037" lon="8.881795">
        <ele>1373.2</ele>
        <time>2022-09-11T09:01:19Z</time>
      </trkpt>
      <trkpt lat="42.30038" lon="8.881895">
        <ele>1374.4</ele>
        <time>2022-09-11T09:01:29Z</time>
      </trkpt>
      <trkpt lat="42.30036" lon="8.881962">
        <ele>1374.8</ele>
        <time>2022-09-11T09:01:36Z</time>
      </trkpt>
      <trkpt lat="42.30032" lon="8.88208">
        <ele>1375.0</ele>
        <time>2022-09-11T09:01:50Z</time>
      </trkpt>
      <trkpt lat="42.300298" lon="8.882172">
        <ele>1373.8</ele>
        <time>2022-09-11T09:02:02Z</time>
      </trkpt>
      <trkpt lat="42.300297" lon="8.88218">
        <ele>1373.8</ele>
        <time>2022-09-11T09:02:03Z</time>
      </trkpt>
      <trkpt lat="42.300287" lon="8.882187">
        <ele>1373.6</ele>
        <time>2022-09-11T09:02:04Z</time>
      </trkpt>
      <trkpt lat="42.300222" lon="8.88218">
        <ele>1373.0</ele>
        <time>2022-09-11T09:02:10Z</time>
      </trkpt>
      <trkpt lat="42.300158" lon="8.882327">
        <ele>1372.4</ele>
        <time>2022-09-11T09:02:23Z</time>
      </trkpt>
      <trkpt lat="42.300122" lon="8.882398">
        <ele>1371.6</ele>
        <time>2022-09-11T09:02:30Z</time>
      </trkpt>
      <trkpt lat="42.300075" lon="8.882308">
        <ele>1370.6</ele>
        <time>2022-09-11T09:02:39Z</time>
      </trkpt>
      <trkpt lat="42.30007" lon="8.882158">
        <ele>1368.6</ele>
        <time>2022-09-11T09:02:53Z</time>
      </trkpt>
      <trkpt lat="42.300065" lon="8.882148">
        <ele>1368.6</ele>
        <time>2022-09-11T09:02:54Z</time>
      </trkpt>
      <trkpt lat="42.300042" lon="8.882058">
        <ele>1367.8</ele>
        <time>2022-09-11T09:03:02Z</time>
      </trkpt>
      <trkpt lat="42.299997" lon="8.881978">
        <ele>1366.4</ele>
        <time>2022-09-11T09:03:11Z</time>
      </trkpt>
      <trkpt lat="42.299913" lon="8.881857">
        <ele>1364.4</ele>
        <time>2022-09-11T09:03:24Z</time>
      </trkpt>
      <trkpt lat="42.299905" lon="8.881842">
        <ele>1364.4</ele>
        <time>2022-09-11T09:03:26Z</time>
      </trkpt>
      <trkpt lat="42.299858" lon="8.881797">
        <ele>1363.4</ele>
        <time>2022-09-11T09:03:34Z</time>
      </trkpt>
      <trkpt lat="42.299832" lon="8.881765">
        <ele>1362.6</ele>
        <time>2022-09-11T09:03:43Z</time>
      </trkpt>
      <trkpt lat="42.299813" lon="8.88171">
        <ele>1361.4</ele>
        <time>2022-09-11T09:03:51Z</time>
      </trkpt>
      <trkpt lat="42.299795" lon="8.881607">
        <ele>1359.8</ele>
        <time>2022-09-11T09:04:04Z</time>
      </trkpt>
      <trkpt lat="42.299763" lon="8.881577">
        <ele>1359.0</ele>
        <time>2022-09-11T09:04:10Z</time>
      </trkpt>
      <trkpt lat="42.299683" lon="8.881573">
        <ele>1357.6</ele>
        <time>2022-09-11T09:04:27Z</time>
      </trkpt>
      <trkpt lat="42.299643" lon="8.881507">
        <ele>1357.6</ele>
        <time>2022-09-11T09:04:36Z</time>
      </trkpt>
      <trkpt lat="42.29953" lon="8.881465">
        <ele>1358.6</ele>
        <time>2022-09-11T09:04:48Z</time>
      </trkpt>
      <trkpt lat="42.299477" lon="8.881418">
        <ele>1359.0</ele>
        <time>2022-09-11T09:04:54Z</time>
      </trkpt>
      <trkpt lat="42.299467" lon="8.881417">
        <ele>1359.2</ele>
        <time>2022-09-11T09:04:55Z</time>
      </trkpt>
      <trkpt lat="42.29944" lon="8.881382">
        <ele>1359.2</ele>
        <time>2022-09-11T09:05:00Z</time>
      </trkpt>
      <trkpt lat="42.299417" lon="8.881355">
        <ele>1360.0</ele>
        <time>2022-09-11T09:05:50Z</time>
      </trkpt>
      <trkpt lat="42.299382" lon="8.881348">
        <ele>1360.0</ele>
        <time>2022-09-11T09:05:59Z</time>
      </trkpt>
      <trkpt lat="42.29931" lon="8.881273">
        <ele>1360.6</ele>
        <time>2022-09-11T09:06:11Z</time>
      </trkpt>
      <trkpt lat="42.299235" lon="8.881217">
        <ele>1361.2</ele>
        <time>2022-09-11T09:06:21Z</time>
      </trkpt>
      <trkpt lat="42.299177" lon="8.881137">
        <ele>1365.0</ele>
        <time>2022-09-11T09:07:07Z</time>
      </trkpt>
      <trkpt lat="42.299098" lon="8.881135">
        <ele>1364.8</ele>
        <time>2022-09-11T09:07:17Z</time>
      </trkpt>
      <trkpt lat="42.29906" lon="8.881112">
        <ele>1365.2</ele>
        <time>2022-09-11T09:07:23Z</time>
      </trkpt>
      <trkpt lat="42.299022" lon="8.88107">
        <ele>1365.2</ele>
        <time>2022-09-11T09:07:30Z</time>
      </trkpt>
      <trkpt lat="42.298995" lon="8.881062">
        <ele>1365.6</ele>
        <time>2022-09-11T09:07:34Z</time>
      </trkpt>
      <trkpt lat="42.29892" lon="8.881068">
        <ele>1365.6</ele>
        <time>2022-09-11T09:07:45Z</time>
      </trkpt>
      <trkpt lat="42.298898" lon="8.881033">
        <ele>1365.0</ele>
        <time>2022-09-11T09:07:50Z</time>
      </trkpt>
      <trkpt lat="42.298867" lon="8.880967">
        <ele>1366.2</ele>
        <time>2022-09-11T09:08:05Z</time>
      </trkpt>
      <trkpt lat="42.298863" lon="8.880962">
        <ele>1366.2</ele>
        <time>2022-09-11T09:08:05Z</time>
      </trkpt>
      <trkpt lat="42.298823" lon="8.880922">
        <ele>1367.0</ele>
        <time>2022-09-11T09:08:19Z</time>
      </trkpt>
      <trkpt lat="42.298722" lon="8.880792">
        <ele>1367.2</ele>
        <time>2022-09-11T09:08:29Z</time>
      </trkpt>
      <trkpt lat="42.298663" lon="8.880783">
        <ele>1367.6</ele>
        <time>2022-09-11T09:08:41Z</time>
      </trkpt>
      <trkpt lat="42.298618" lon="8.880777">
        <ele>1368.8</ele>
        <time>2022-09-11T09:09:04Z</time>
      </trkpt>
      <trkpt lat="42.298617" lon="8.880775">
        <ele>1369.2</ele>
        <time>2022-09-11T09:09:05Z</time>
      </trkpt>
      <trkpt lat="42.298552" lon="8.880713">
        <ele>1371.4</ele>
        <time>2022-09-11T09:09:32Z</time>
      </trkpt>
      <trkpt lat="42.29851" lon="8.880642">
        <ele>1372.4</ele>
        <time>2022-09-11T09:09:39Z</time>
      </trkpt>
      <trkpt lat="42.298448" lon="8.880593">
        <ele>1373.0</ele>
        <time>2022-09-11T09:09:44Z</time>
      </trkpt>
      <trkpt lat="42.29839" lon="8.880575">
        <ele>1373.2</ele>
        <time>2022-09-11T09:09:52Z</time>
      </trkpt>
      <trkpt lat="42.29822" lon="8.88055">
        <ele>1376.4</ele>
        <time>2022-09-11T09:10:39Z</time>
      </trkpt>
      <trkpt lat="42.298173" lon="8.880577">
        <ele>1376.8</ele>
        <time>2022-09-11T09:10:47Z</time>
      </trkpt>
      <trkpt lat="42.298048" lon="8.880587">
        <ele>1376.2</ele>
        <time>2022-09-11T09:11:01Z</time>
      </trkpt>
      <trkpt lat="42.298042" lon="8.880593">
        <ele>1376.2</ele>
        <time>2022-09-11T09:11:02Z</time>
      </trkpt>
      <trkpt lat="42.298013" lon="8.880607">
        <ele>1375.8</ele>
        <time>2022-09-11T09:11:09Z</time>
      </trkpt>
      <trkpt lat="42.297978" lon="8.880565">
        <ele>1375.4</ele>
        <time>2022-09-11T09:11:14Z</time>
      </trkpt>
      <trkpt lat="42.297937" lon="8.880488">
        <ele>1375.6</ele>
        <time>2022-09-11T09:11:22Z</time>
      </trkpt>
      <trkpt lat="42.29791" lon="8.880425">
        <ele>1375.8</ele>
        <time>2022-09-11T09:11:29Z</time>
      </trkpt>
      <trkpt lat="42.297902" lon="8.880388">
        <ele>1376.0</ele>
        <time>2022-09-11T09:11:33Z</time>
      </trkpt>
      <trkpt lat="42.297857" lon="8.880288">
        <ele>1377.0</ele>
        <time>2022-09-11T09:11:45Z</time>
      </trkpt>
      <trkpt lat="42.297845" lon="8.88026">
        <ele>1377.2</ele>
        <time>2022-09-11T09:11:48Z</time>
      </trkpt>
      <trkpt lat="42.297777" lon="8.880153">
        <ele>1378.4</ele>
        <time>2022-09-11T09:12:02Z</time>
      </trkpt>
      <trkpt lat="42.297757" lon="8.88014">
        <ele>1378.4</ele>
        <time>2022-09-11T09:12:05Z</time>
      </trkpt>
      <trkpt lat="42.297652" lon="8.88011">
        <ele>1379.6</ele>
        <time>2022-09-11T09:12:22Z</time>
      </trkpt>
      <trkpt lat="42.297617" lon="8.88009">
        <ele>1379.6</ele>
        <time>2022-09-11T09:12:31Z</time>
      </trkpt>
      <trkpt lat="42.297522" lon="8.880202">
        <ele>1377.6</ele>
        <time>2022-09-11T09:12:58Z</time>
      </trkpt>
      <trkpt lat="42.297515" lon="8.880213">
        <ele>1377.2</ele>
        <time>2022-09-11T09:13:00Z</time>
      </trkpt>
      <trkpt lat="42.29747" lon="8.880227">
        <ele>1376.4</ele>
        <time>2022-09-11T09:13:08Z</time>
      </trkpt>
      <trkpt lat="42.297432" lon="8.880237">
        <ele>1376.0</ele>
        <time>2022-09-11T09:13:15Z</time>
      </trkpt>
      <trkpt lat="42.297373" lon="8.880262">
        <ele>1375.0</ele>
        <time>2022-09-11T09:13:26Z</time>
      </trkpt>
      <trkpt lat="42.297327" lon="8.880263">
        <ele>1374.4</ele>
        <time>2022-09-11T09:13:33Z</time>
      </trkpt>
      <trkpt lat="42.297252" lon="8.880332">
        <ele>1373.6</ele>
        <time>2022-09-11T09:13:46Z</time>
      </trkpt>
      <trkpt lat="42.297238" lon="8.880348">
        <ele>1373.6</ele>
        <time>2022-09-11T09:13:49Z</time>
      </trkpt>
      <trkpt lat="42.297242" lon="8.880468">
        <ele>1371.8</ele>
        <time>2022-09-11T09:14:08Z</time>
      </trkpt>
      <trkpt lat="42.297238" lon="8.880542">
        <ele>1372.8</ele>
        <time>2022-09-11T09:14:23Z</time>
      </trkpt>
      <trkpt lat="42.297235" lon="8.880573">
        <ele>1373.4</ele>
        <time>2022-09-11T09:14:32Z</time>
      </trkpt>
      <trkpt lat="42.297202" lon="8.88059">
        <ele>1373.2</ele>
        <time>2022-09-11T09:14:50Z</time>
      </trkpt>
      <trkpt lat="42.297195" lon="8.880632">
        <ele>1372.0</ele>
        <time>2022-09-11T09:15:04Z</time>
      </trkpt>
      <trkpt lat="42.297192" lon="8.88064">
        <ele>1372.0</ele>
        <time>2022-09-11T09:15:05Z</time>
      </trkpt>
      <trkpt lat="42.297177" lon="8.880722">
        <ele>1372.2</ele>
        <time>2022-09-11T09:15:12Z</time>
      </trkpt>
      <trkpt lat="42.297123" lon="8.880928">
        <ele>1373.0</ele>
        <time>2022-09-11T09:15:19Z</time>
      </trkpt>
      <trkpt lat="42.29706" lon="8.881118">
        <ele>1373.4</ele>
        <time>2022-09-11T09:15:26Z</time>
      </trkpt>
      <trkpt lat="42.296993" lon="8.881373">
        <ele>1373.8</ele>
        <time>2022-09-11T09:15:37Z</time>
      </trkpt>
      <trkpt lat="42.296985" lon="8.881393">
        <ele>1374.2</ele>
        <time>2022-09-11T09:15:38Z</time>
      </trkpt>
      <trkpt lat="42.296898" lon="8.881523">
        <ele>1376.2</ele>
        <time>2022-09-11T09:15:57Z</time>
      </trkpt>
      <trkpt lat="42.296792" lon="8.881703">
        <ele>1380.4</ele>
        <time>2022-09-11T09:16:25Z</time>
      </trkpt>
      <trkpt lat="42.296783" lon="8.881763">
        <ele>1381.4</ele>
        <time>2022-09-11T09:16:33Z</time>
      </trkpt>
      <trkpt lat="42.296537" lon="8.881923">
        <ele>1384.2</ele>
        <time>2022-09-11T09:17:08Z</time>
      </trkpt>
      <trkpt lat="42.296467" lon="8.881935">
        <ele>1384.2</ele>
        <time>2022-09-11T09:17:14Z</time>
      </trkpt>
      <trkpt lat="42.296335" lon="8.882065">
        <ele>1385.0</ele>
        <time>2022-09-11T09:17:27Z</time>
      </trkpt>
      <trkpt lat="42.296253" lon="8.882198">
        <ele>1385.8</ele>
        <time>2022-09-11T09:17:42Z</time>
      </trkpt>
      <trkpt lat="42.296232" lon="8.88224">
        <ele>1386.0</ele>
        <time>2022-09-11T09:17:48Z</time>
      </trkpt>
      <trkpt lat="42.296193" lon="8.882262">
        <ele>1385.8</ele>
        <time>2022-09-11T09:17:56Z</time>
      </trkpt>
      <trkpt lat="42.296145" lon="8.882338">
        <ele>1387.4</ele>
        <time>2022-09-11T09:18:09Z</time>
      </trkpt>
      <trkpt lat="42.296018" lon="8.8824">
        <ele>1388.6</ele>
        <time>2022-09-11T09:18:24Z</time>
      </trkpt>
      <trkpt lat="42.295945" lon="8.882385">
        <ele>1389.6</ele>
        <time>2022-09-11T09:18:32Z</time>
      </trkpt>
      <trkpt lat="42.29585" lon="8.882435">
        <ele>1391.0</ele>
        <time>2022-09-11T09:18:44Z</time>
      </trkpt>
      <trkpt lat="42.295843" lon="8.882435">
        <ele>1391.0</ele>
        <time>2022-09-11T09:18:45Z</time>
      </trkpt>
      <trkpt lat="42.295803" lon="8.882412">
        <ele>1391.4</ele>
        <time>2022-09-11T09:18:53Z</time>
      </trkpt>
      <trkpt lat="42.295667" lon="8.882308">
        <ele>1393.6</ele>
        <time>2022-09-11T09:19:17Z</time>
      </trkpt>
      <trkpt lat="42.2955" lon="8.882225">
        <ele>1394.6</ele>
        <time>2022-09-11T09:19:32Z</time>
      </trkpt>
      <trkpt lat="42.295483" lon="8.882212">
        <ele>1394.8</ele>
        <time>2022-09-11T09:19:34Z</time>
      </trkpt>
      <trkpt lat="42.295413" lon="8.882162">
        <ele>1395.2</ele>
        <time>2022-09-11T09:19:43Z</time>
      </trkpt>
      <trkpt lat="42.295357" lon="8.882113">
        <ele>1396.0</ele>
        <time>2022-09-11T09:19:52Z</time>
      </trkpt>
      <trkpt lat="42.29532" lon="8.882098">
        <ele>1395.6</ele>
        <time>2022-09-11T09:20:00Z</time>
      </trkpt>
      <trkpt lat="42.295237" lon="8.881955">
        <ele>1396.0</ele>
        <time>2022-09-11T09:20:21Z</time>
      </trkpt>
      <trkpt lat="42.295223" lon="8.881887">
        <ele>1397.2</ele>
        <time>2022-09-11T09:20:28Z</time>
      </trkpt>
      <trkpt lat="42.295217" lon="8.881882">
        <ele>1397.2</ele>
        <time>2022-09-11T09:20:28Z</time>
      </trkpt>
      <trkpt lat="42.295153" lon="8.88187">
        <ele>1398.2</ele>
        <time>2022-09-11T09:20:36Z</time>
      </trkpt>
      <trkpt lat="42.29511" lon="8.881825">
        <ele>1399.0</ele>
        <time>2022-09-11T09:20:46Z</time>
      </trkpt>
      <trkpt lat="42.295085" lon="8.881752">
        <ele>1400.2</ele>
        <time>2022-09-11T09:20:55Z</time>
      </trkpt>
      <trkpt lat="42.295038" lon="8.881717">
        <ele>1400.8</ele>
        <time>2022-09-11T09:21:06Z</time>
      </trkpt>
      <trkpt lat="42.294963" lon="8.88168">
        <ele>1400.0</ele>
        <time>2022-09-11T09:21:22Z</time>
      </trkpt>
      <trkpt lat="42.294875" lon="8.881573">
        <ele>1400.8</ele>
        <time>2022-09-11T09:21:38Z</time>
      </trkpt>
      <trkpt lat="42.294738" lon="8.881535">
        <ele>1400.4</ele>
        <time>2022-09-11T09:21:59Z</time>
      </trkpt>
      <trkpt lat="42.294693" lon="8.88149">
        <ele>1401.4</ele>
        <time>2022-09-11T09:22:06Z</time>
      </trkpt>
      <trkpt lat="42.294628" lon="8.881512">
        <ele>1401.4</ele>
        <time>2022-09-11T09:22:14Z</time>
      </trkpt>
      <trkpt lat="42.294595" lon="8.88156">
        <ele>1401.2</ele>
        <time>2022-09-11T09:22:21Z</time>
      </trkpt>
      <trkpt lat="42.294567" lon="8.88161">
        <ele>1400.2</ele>
        <time>2022-09-11T09:22:29Z</time>
      </trkpt>
      <trkpt lat="42.294537" lon="8.88164">
        <ele>1400.4</ele>
        <time>2022-09-11T09:22:36Z</time>
      </trkpt>
      <trkpt lat="42.294455" lon="8.881815">
        <ele>1403.0</ele>
        <time>2022-09-11T09:22:54Z</time>
      </trkpt>
      <trkpt lat="42.294425" lon="8.88188">
        <ele>1403.4</ele>
        <time>2022-09-11T09:23:00Z</time>
      </trkpt>
      <trkpt lat="42.29441" lon="8.881888">
        <ele>1403.8</ele>
        <time>2022-09-11T09:23:02Z</time>
      </trkpt>
      <trkpt lat="42.294358" lon="8.8819">
        <ele>1405.4</ele>
        <time>2022-09-11T09:23:15Z</time>
      </trkpt>
      <trkpt lat="42.294317" lon="8.881938">
        <ele>1407.2</ele>
        <time>2022-09-11T09:23:33Z</time>
      </trkpt>
      <trkpt lat="42.29419" lon="8.88201">
        <ele>1409.0</ele>
        <time>2022-09-11T09:23:51Z</time>
      </trkpt>
      <trkpt lat="42.29417" lon="8.882032">
        <ele>1409.2</ele>
        <time>2022-09-11T09:23:54Z</time>
      </trkpt>
      <trkpt lat="42.294127" lon="8.882133">
        <ele>1409.2</ele>
        <time>2022-09-11T09:24:03Z</time>
      </trkpt>
      <trkpt lat="42.294058" lon="8.882157">
        <ele>1409.2</ele>
        <time>2022-09-11T09:24:10Z</time>
      </trkpt>
      <trkpt lat="42.293968" lon="8.882243">
        <ele>1410.0</ele>
        <time>2022-09-11T09:24:27Z</time>
      </trkpt>
      <trkpt lat="42.293933" lon="8.882297">
        <ele>1409.4</ele>
        <time>2022-09-11T09:24:37Z</time>
      </trkpt>
      <trkpt lat="42.293753" lon="8.882292">
        <ele>1407.8</ele>
        <time>2022-09-11T09:24:58Z</time>
      </trkpt>
      <trkpt lat="42.293667" lon="8.882238">
        <ele>1407.6</ele>
        <time>2022-09-11T09:25:05Z</time>
      </trkpt>
      <trkpt lat="42.29359" lon="8.882163">
        <ele>1406.6</ele>
        <time>2022-09-11T09:25:10Z</time>
      </trkpt>
      <trkpt lat="42.293527" lon="8.882107">
        <ele>1406.8</ele>
        <time>2022-09-11T09:25:15Z</time>
      </trkpt>
      <trkpt lat="42.293455" lon="8.882115">
        <ele>1407.4</ele>
        <time>2022-09-11T09:25:19Z</time>
      </trkpt>
      <trkpt lat="42.29339" lon="8.882125">
        <ele>1407.6</ele>
        <time>2022-09-11T09:25:27Z</time>
      </trkpt>
      <trkpt lat="42.293263" lon="8.88209">
        <ele>1407.4</ele>
        <time>2022-09-11T09:25:45Z</time>
      </trkpt>
      <trkpt lat="42.293225" lon="8.882053">
        <ele>1408.0</ele>
        <time>2022-09-11T09:25:59Z</time>
      </trkpt>
      <trkpt lat="42.293182" lon="8.882077">
        <ele>1407.6</ele>
        <time>2022-09-11T09:26:15Z</time>
      </trkpt>
      <trkpt lat="42.29318" lon="8.88208">
        <ele>1407.6</ele>
        <time>2022-09-11T09:26:16Z</time>
      </trkpt>
      <trkpt lat="42.293152" lon="8.882118">
        <ele>1407.8</ele>
        <time>2022-09-11T09:26:37Z</time>
      </trkpt>
      <trkpt lat="42.293113" lon="8.882137">
        <ele>1407.2</ele>
        <time>2022-09-11T09:27:15Z</time>
      </trkpt>
      <trkpt lat="42.29305" lon="8.882155">
        <ele>1407.2</ele>
        <time>2022-09-11T09:27:23Z</time>
      </trkpt>
      <trkpt lat="42.293007" lon="8.882185">
        <ele>1406.8</ele>
        <time>2022-09-11T09:27:28Z</time>
      </trkpt>
      <trkpt lat="42.292938" lon="8.882297">
        <ele>1405.6</ele>
        <time>2022-09-11T09:27:37Z</time>
      </trkpt>
      <trkpt lat="42.292892" lon="8.882333">
        <ele>1405.4</ele>
        <time>2022-09-11T09:27:42Z</time>
      </trkpt>
      <trkpt lat="42.292838" lon="8.882337">
        <ele>1404.8</ele>
        <time>2022-09-11T09:27:47Z</time>
      </trkpt>
      <trkpt lat="42.292747" lon="8.882305">
        <ele>1404.6</ele>
        <time>2022-09-11T09:27:56Z</time>
      </trkpt>
      <trkpt lat="42.29271" lon="8.882292">
        <ele>1405.2</ele>
        <time>2022-09-11T09:28:00Z</time>
      </trkpt>
      <trkpt lat="42.292592" lon="8.882195">
        <ele>1406.6</ele>
        <time>2022-09-11T09:28:12Z</time>
      </trkpt>
      <trkpt lat="42.292582" lon="8.882195">
        <ele>1406.6</ele>
        <time>2022-09-11T09:28:13Z</time>
      </trkpt>
      <trkpt lat="42.292528" lon="8.882252">
        <ele>1407.2</ele>
        <time>2022-09-11T09:28:22Z</time>
      </trkpt>
      <trkpt lat="42.292457" lon="8.882293">
        <ele>1408.2</ele>
        <time>2022-09-11T09:28:41Z</time>
      </trkpt>
      <trkpt lat="42.292438" lon="8.882372">
        <ele>1407.4</ele>
        <time>2022-09-11T09:28:53Z</time>
      </trkpt>
      <trkpt lat="42.292418" lon="8.8824">
        <ele>1406.8</ele>
        <time>2022-09-11T09:28:57Z</time>
      </trkpt>
      <trkpt lat="42.292352" lon="8.882477">
        <ele>1406.2</ele>
        <time>2022-09-11T09:29:14Z</time>
      </trkpt>
      <trkpt lat="42.29222" lon="8.882435">
        <ele>1404.6</ele>
        <time>2022-09-11T09:29:38Z</time>
      </trkpt>
      <trkpt lat="42.29217" lon="8.882458">
        <ele>1404.2</ele>
        <time>2022-09-11T09:29:47Z</time>
      </trkpt>
      <trkpt lat="42.29211" lon="8.882425">
        <ele>1404.4</ele>
        <time>2022-09-11T09:30:02Z</time>
      </trkpt>
      <trkpt lat="42.292105" lon="8.882425">
        <ele>1404.4</ele>
        <time>2022-09-11T09:30:02Z</time>
      </trkpt>
      <trkpt lat="42.292085" lon="8.882473">
        <ele>1404.8</ele>
        <time>2022-09-11T09:30:10Z</time>
      </trkpt>
      <trkpt lat="42.292063" lon="8.882567">
        <ele>1403.6</ele>
        <time>2022-09-11T09:30:25Z</time>
      </trkpt>
      <trkpt lat="42.292085" lon="8.882612">
        <ele>1403.2</ele>
        <time>2022-09-11T09:30:32Z</time>
      </trkpt>
      <trkpt lat="42.292068" lon="8.882653">
        <ele>1402.8</ele>
        <time>2022-09-11T09:30:40Z</time>
      </trkpt>
      <trkpt lat="42.29206" lon="8.882667">
        <ele>1402.4</ele>
        <time>2022-09-11T09:30:42Z</time>
      </trkpt>
      <trkpt lat="42.292025" lon="8.882727">
        <ele>1402.0</ele>
        <time>2022-09-11T09:30:48Z</time>
      </trkpt>
      <trkpt lat="42.291983" lon="8.882785">
        <ele>1401.4</ele>
        <time>2022-09-11T09:30:54Z</time>
      </trkpt>
      <trkpt lat="42.29191" lon="8.882775">
        <ele>1400.8</ele>
        <time>2022-09-11T09:30:59Z</time>
      </trkpt>
      <trkpt lat="42.291768" lon="8.882665">
        <ele>1400.6</ele>
        <time>2022-09-11T09:31:09Z</time>
      </trkpt>
      <trkpt lat="42.29167" lon="8.882607">
        <ele>1400.6</ele>
        <time>2022-09-11T09:31:15Z</time>
      </trkpt>
      <trkpt lat="42.291643" lon="8.88251">
        <ele>1401.8</ele>
        <time>2022-09-11T09:31:24Z</time>
      </trkpt>
      <trkpt lat="42.291548" lon="8.882337">
        <ele>1400.8</ele>
        <time>2022-09-11T09:31:44Z</time>
      </trkpt>
      <trkpt lat="42.291535" lon="8.882302">
        <ele>1400.4</ele>
        <time>2022-09-11T09:31:48Z</time>
      </trkpt>
      <trkpt lat="42.291518" lon="8.882215">
        <ele>1400.8</ele>
        <time>2022-09-11T09:31:58Z</time>
      </trkpt>
      <trkpt lat="42.291503" lon="8.882187">
        <ele>1401.0</ele>
        <time>2022-09-11T09:32:02Z</time>
      </trkpt>
      <trkpt lat="42.29149" lon="8.882182">
        <ele>1401.0</ele>
        <time>2022-09-11T09:32:04Z</time>
      </trkpt>
      <trkpt lat="42.291438" lon="8.882138">
        <ele>1400.8</ele>
        <time>2022-09-11T09:32:15Z</time>
      </trkpt>
      <trkpt lat="42.291373" lon="8.882113">
        <ele>1399.6</ele>
        <time>2022-09-11T09:32:24Z</time>
      </trkpt>
      <trkpt lat="42.291312" lon="8.882063">
        <ele>1397.8</ele>
        <time>2022-09-11T09:32:36Z</time>
      </trkpt>
      <trkpt lat="42.291208" lon="8.881927">
        <ele>1395.0</ele>
        <time>2022-09-11T09:33:30Z</time>
      </trkpt>
      <trkpt lat="42.291207" lon="8.881928">
        <ele>1395.0</ele>
        <time>2022-09-11T09:33:31Z</time>
      </trkpt>
      <trkpt lat="42.291163" lon="8.881938">
        <ele>1393.8</ele>
        <time>2022-09-11T09:33:53Z</time>
      </trkpt>
      <trkpt lat="42.291087" lon="8.881988">
        <ele>1394.4</ele>
        <time>2022-09-11T09:33:57Z</time>
      </trkpt>
      <trkpt lat="42.290998" lon="8.882073">
        <ele>1395.4</ele>
        <time>2022-09-11T09:34:04Z</time>
      </trkpt>
      <trkpt lat="42.29084" lon="8.882208">
        <ele>1396.2</ele>
        <time>2022-09-11T09:34:35Z</time>
      </trkpt>
      <trkpt lat="42.290812" lon="8.88222">
        <ele>1396.2</ele>
        <time>2022-09-11T09:34:48Z</time>
      </trkpt>
      <trkpt lat="42.290803" lon="8.882197">
        <ele>1396.6</ele>
        <time>2022-09-11T09:34:55Z</time>
      </trkpt>
      <trkpt lat="42.290785" lon="8.882178">
        <ele>1397.0</ele>
        <time>2022-09-11T09:35:01Z</time>
      </trkpt>
      <trkpt lat="42.290742" lon="8.882172">
        <ele>1397.8</ele>
        <time>2022-09-11T09:35:12Z</time>
      </trkpt>
      <trkpt lat="42.290737" lon="8.882173">
        <ele>1397.8</ele>
        <time>2022-09-11T09:35:12Z</time>
      </trkpt>
      <trkpt lat="42.29072" lon="8.882255">
        <ele>1397.6</ele>
        <time>2022-09-11T09:35:20Z</time>
      </trkpt>
      <trkpt lat="42.290707" lon="8.882325">
        <ele>1397.2</ele>
        <time>2022-09-11T09:35:26Z</time>
      </trkpt>
      <trkpt lat="42.290693" lon="8.882427">
        <ele>1396.2</ele>
        <time>2022-09-11T09:35:34Z</time>
      </trkpt>
      <trkpt lat="42.290665" lon="8.882548">
        <ele>1395.8</ele>
        <time>2022-09-11T09:35:45Z</time>
      </trkpt>
      <trkpt lat="42.290622" lon="8.882633">
        <ele>1396.6</ele>
        <time>2022-09-11T09:35:54Z</time>
      </trkpt>
      <trkpt lat="42.290583" lon="8.88271">
        <ele>1398.2</ele>
        <time>2022-09-11T09:36:04Z</time>
      </trkpt>
      <trkpt lat="42.290572" lon="8.882775">
        <ele>1399.4</ele>
        <time>2022-09-11T09:36:11Z</time>
      </trkpt>
      <trkpt lat="42.290573" lon="8.882885">
        <ele>1399.8</ele>
        <time>2022-09-11T09:36:22Z</time>
      </trkpt>
      <trkpt lat="42.290595" lon="8.882957">
        <ele>1400.0</ele>
        <time>2022-09-11T09:36:33Z</time>
      </trkpt>
      <trkpt lat="42.290603" lon="8.883007">
        <ele>1399.4</ele>
        <time>2022-09-11T09:36:38Z</time>
      </trkpt>
      <trkpt lat="42.290595" lon="8.883117">
        <ele>1399.2</ele>
        <time>2022-09-11T09:36:48Z</time>
      </trkpt>
      <trkpt lat="42.290528" lon="8.88324">
        <ele>1399.4</ele>
        <time>2022-09-11T09:36:58Z</time>
      </trkpt>
      <trkpt lat="42.290462" lon="8.883327">
        <ele>1399.6</ele>
        <time>2022-09-11T09:37:06Z</time>
      </trkpt>
      <trkpt lat="42.29036" lon="8.883492">
        <ele>1399.0</ele>
        <time>2022-09-11T09:37:22Z</time>
      </trkpt>
      <trkpt lat="42.290297" lon="8.883518">
        <ele>1398.6</ele>
        <time>2022-09-11T09:37:27Z</time>
      </trkpt>
      <trkpt lat="42.290238" lon="8.883535">
        <ele>1398.6</ele>
        <time>2022-09-11T09:37:30Z</time>
      </trkpt>
      <trkpt lat="42.290172" lon="8.883635">
        <ele>1399.2</ele>
        <time>2022-09-11T09:37:34Z</time>
      </trkpt>
      <trkpt lat="42.29024" lon="8.883727">
        <ele>1399.2</ele>
        <time>2022-09-11T09:37:39Z</time>
      </trkpt>
      <trkpt lat="42.290178" lon="8.883907">
        <ele>1399.2</ele>
        <time>2022-09-11T09:37:51Z</time>
      </trkpt>
      <trkpt lat="42.290187" lon="8.883955">
        <ele>1399.6</ele>
        <time>2022-09-11T09:37:54Z</time>
      </trkpt>
      <trkpt lat="42.290233" lon="8.884023">
        <ele>1399.8</ele>
        <time>2022-09-11T09:37:59Z</time>
      </trkpt>
      <trkpt lat="42.290288" lon="8.884085">
        <ele>1399.0</ele>
        <time>2022-09-11T09:38:05Z</time>
      </trkpt>
      <trkpt lat="42.290243" lon="8.884247">
        <ele>1398.4</ele>
        <time>2022-09-11T09:38:20Z</time>
      </trkpt>
      <trkpt lat="42.290228" lon="8.884317">
        <ele>1397.8</ele>
        <time>2022-09-11T09:38:33Z</time>
      </trkpt>
      <trkpt lat="42.290188" lon="8.884397">
        <ele>1397.0</ele>
        <time>2022-09-11T09:38:47Z</time>
      </trkpt>
      <trkpt lat="42.290182" lon="8.884403">
        <ele>1397.0</ele>
        <time>2022-09-11T09:38:48Z</time>
      </trkpt>
      <trkpt lat="42.290078" lon="8.884422">
        <ele>1397.6</ele>
        <time>2022-09-11T09:38:59Z</time>
      </trkpt>
      <trkpt lat="42.290015" lon="8.884413">
        <ele>1397.8</ele>
        <time>2022-09-11T09:39:04Z</time>
      </trkpt>
      <trkpt lat="42.289917" lon="8.88447">
        <ele>1398.6</ele>
        <time>2022-09-11T09:39:11Z</time>
      </trkpt>
      <trkpt lat="42.289857" lon="8.884518">
        <ele>1399.0</ele>
        <time>2022-09-11T09:39:15Z</time>
      </trkpt>
      <trkpt lat="42.289765" lon="8.884623">
        <ele>1399.4</ele>
        <time>2022-09-11T09:39:26Z</time>
      </trkpt>
      <trkpt lat="42.289677" lon="8.884688">
        <ele>1399.4</ele>
        <time>2022-09-11T09:39:46Z</time>
      </trkpt>
      <trkpt lat="42.28967" lon="8.884693">
        <ele>1399.4</ele>
        <time>2022-09-11T09:39:47Z</time>
      </trkpt>
      <trkpt lat="42.289635" lon="8.884743">
        <ele>1399.2</ele>
        <time>2022-09-11T09:39:54Z</time>
      </trkpt>
      <trkpt lat="42.289627" lon="8.884797">
        <ele>1400.0</ele>
        <time>2022-09-11T09:40:00Z</time>
      </trkpt>
      <trkpt lat="42.289615" lon="8.88485">
        <ele>1400.6</ele>
        <time>2022-09-11T09:40:06Z</time>
      </trkpt>
      <trkpt lat="42.289563" lon="8.884928">
        <ele>1400.8</ele>
        <time>2022-09-11T09:40:16Z</time>
      </trkpt>
      <trkpt lat="42.289557" lon="8.884972">
        <ele>1400.8</ele>
        <time>2022-09-11T09:40:21Z</time>
      </trkpt>
      <trkpt lat="42.289518" lon="8.885118">
        <ele>1398.8</ele>
        <time>2022-09-11T09:40:39Z</time>
      </trkpt>
      <trkpt lat="42.289437" lon="8.88535">
        <ele>1396.6</ele>
        <time>2022-09-11T09:41:05Z</time>
      </trkpt>
      <trkpt lat="42.289387" lon="8.885422">
        <ele>1395.4</ele>
        <time>2022-09-11T09:41:16Z</time>
      </trkpt>
      <trkpt lat="42.28936" lon="8.885472">
        <ele>1394.8</ele>
        <time>2022-09-11T09:41:24Z</time>
      </trkpt>
      <trkpt lat="42.289317" lon="8.88555">
        <ele>1394.4</ele>
        <time>2022-09-11T09:41:43Z</time>
      </trkpt>
      <trkpt lat="42.289342" lon="8.8856">
        <ele>1394.4</ele>
        <time>2022-09-11T09:41:57Z</time>
      </trkpt>
      <trkpt lat="42.28936" lon="8.885698">
        <ele>1396.6</ele>
        <time>2022-09-11T09:42:14Z</time>
      </trkpt>
      <trkpt lat="42.289363" lon="8.885707">
        <ele>1396.6</ele>
        <time>2022-09-11T09:42:15Z</time>
      </trkpt>
      <trkpt lat="42.289307" lon="8.88571">
        <ele>1395.2</ele>
        <time>2022-09-11T09:42:22Z</time>
      </trkpt>
      <trkpt lat="42.289248" lon="8.885742">
        <ele>1394.4</ele>
        <time>2022-09-11T09:42:28Z</time>
      </trkpt>
      <trkpt lat="42.289142" lon="8.88583">
        <ele>1394.4</ele>
        <time>2022-09-11T09:42:39Z</time>
      </trkpt>
      <trkpt lat="42.289037" lon="8.885937">
        <ele>1395.0</ele>
        <time>2022-09-11T09:42:49Z</time>
      </trkpt>
      <trkpt lat="42.28899" lon="8.885987">
        <ele>1395.0</ele>
        <time>2022-09-11T09:42:54Z</time>
      </trkpt>
      <trkpt lat="42.288812" lon="8.88612">
        <ele>1394.4</ele>
        <time>2022-09-11T09:43:12Z</time>
      </trkpt>
      <trkpt lat="42.28883" lon="8.886125">
        <ele>1394.4</ele>
        <time>2022-09-11T09:43:13Z</time>
      </trkpt>
      <trkpt lat="42.288885" lon="8.88614">
        <ele>1394.4</ele>
        <time>2022-09-11T09:43:17Z</time>
      </trkpt>
      <trkpt lat="42.28899" lon="8.886213">
        <ele>1394.4</ele>
        <time>2022-09-11T09:43:25Z</time>
      </trkpt>
      <trkpt lat="42.289113" lon="8.886313">
        <ele>1394.8</ele>
        <time>2022-09-11T09:43:36Z</time>
      </trkpt>
      <trkpt lat="42.289262" lon="8.886397">
        <ele>1395.0</ele>
        <time>2022-09-11T09:43:48Z</time>
      </trkpt>
      <trkpt lat="42.289418" lon="8.886475">
        <ele>1394.8</ele>
        <time>2022-09-11T09:44:07Z</time>
      </trkpt>
      <trkpt lat="42.289428" lon="8.886477">
        <ele>1394.8</ele>
        <time>2022-09-11T09:44:09Z</time>
      </trkpt>
      <trkpt lat="42.289465" lon="8.886495">
        <ele>1394.4</ele>
        <time>2022-09-11T09:44:15Z</time>
      </trkpt>
      <trkpt lat="42.289523" lon="8.886572">
        <ele>1394.2</ele>
        <time>2022-09-11T09:44:23Z</time>
      </trkpt>
      <trkpt lat="42.289575" lon="8.886677">
        <ele>1395.4</ele>
        <time>2022-09-11T09:44:32Z</time>
      </trkpt>
      <trkpt lat="42.289587" lon="8.886747">
        <ele>1396.2</ele>
        <time>2022-09-11T09:44:37Z</time>
      </trkpt>
      <trkpt lat="42.289602" lon="8.886823">
        <ele>1397.4</ele>
        <time>2022-09-11T09:44:44Z</time>
      </trkpt>
      <trkpt lat="42.289635" lon="8.886882">
        <ele>1397.6</ele>
        <time>2022-09-11T09:44:52Z</time>
      </trkpt>
      <trkpt lat="42.28966" lon="8.886968">
        <ele>1397.6</ele>
        <time>2022-09-11T09:44:58Z</time>
      </trkpt>
      <trkpt lat="42.289662" lon="8.88716">
        <ele>1398.6</ele>
        <time>2022-09-11T09:45:09Z</time>
      </trkpt>
      <trkpt lat="42.289695" lon="8.887302">
        <ele>1399.0</ele>
        <time>2022-09-11T09:45:18Z</time>
      </trkpt>
      <trkpt lat="42.289677" lon="8.887333">
        <ele>1399.0</ele>
        <time>2022-09-11T09:45:24Z</time>
      </trkpt>
      <trkpt lat="42.28966" lon="8.887357">
        <ele>1398.4</ele>
        <time>2022-09-11T09:45:28Z</time>
      </trkpt>
      <trkpt lat="42.2896" lon="8.887407">
        <ele>1397.0</ele>
        <time>2022-09-11T09:45:39Z</time>
      </trkpt>
      <trkpt lat="42.289557" lon="8.887457">
        <ele>1395.8</ele>
        <time>2022-09-11T09:45:48Z</time>
      </trkpt>
      <trkpt lat="42.28954" lon="8.88746">
        <ele>1395.4</ele>
        <time>2022-09-11T09:45:50Z</time>
      </trkpt>
      <trkpt lat="42.28955" lon="8.88756">
        <ele>1394.6</ele>
        <time>2022-09-11T09:46:01Z</time>
      </trkpt>
      <trkpt lat="42.289552" lon="8.887613">
        <ele>1394.4</ele>
        <time>2022-09-11T09:46:06Z</time>
      </trkpt>
      <trkpt lat="42.289545" lon="8.8877">
        <ele>1394.2</ele>
        <time>2022-09-11T09:46:14Z</time>
      </trkpt>
      <trkpt lat="42.289567" lon="8.88787">
        <ele>1394.4</ele>
        <time>2022-09-11T09:46:32Z</time>
      </trkpt>
      <trkpt lat="42.289597" lon="8.887897">
        <ele>1394.2</ele>
        <time>2022-09-11T09:46:38Z</time>
      </trkpt>
      <trkpt lat="42.289607" lon="8.887965">
        <ele>1393.6</ele>
        <time>2022-09-11T09:46:44Z</time>
      </trkpt>
      <trkpt lat="42.28956" lon="8.888147">
        <ele>1392.4</ele>
        <time>2022-09-11T09:46:58Z</time>
      </trkpt>
      <trkpt lat="42.289572" lon="8.888403">
        <ele>1393.6</ele>
        <time>2022-09-11T09:47:14Z</time>
      </trkpt>
      <trkpt lat="42.289582" lon="8.888488">
        <ele>1393.8</ele>
        <time>2022-09-11T09:47:21Z</time>
      </trkpt>
      <trkpt lat="42.289578" lon="8.88857">
        <ele>1393.6</ele>
        <time>2022-09-11T09:47:29Z</time>
      </trkpt>
      <trkpt lat="42.289553" lon="8.888738">
        <ele>1395.0</ele>
        <time>2022-09-11T09:47:48Z</time>
      </trkpt>
      <trkpt lat="42.289505" lon="8.888872">
        <ele>1396.4</ele>
        <time>2022-09-11T09:48:00Z</time>
      </trkpt>
      <trkpt lat="42.289485" lon="8.888923">
        <ele>1397.2</ele>
        <time>2022-09-11T09:48:06Z</time>
      </trkpt>
      <trkpt lat="42.289447" lon="8.888947">
        <ele>1398.4</ele>
        <time>2022-09-11T09:48:13Z</time>
      </trkpt>
      <trkpt lat="42.289408" lon="8.888942">
        <ele>1399.0</ele>
        <time>2022-09-11T09:48:18Z</time>
      </trkpt>
      <trkpt lat="42.289127" lon="8.889063">
        <ele>1403.0</ele>
        <time>2022-09-11T09:48:49Z</time>
      </trkpt>
      <trkpt lat="42.289095" lon="8.889092">
        <ele>1404.6</ele>
        <time>2022-09-11T09:49:02Z</time>
      </trkpt>
      <trkpt lat="42.289092" lon="8.889095">
        <ele>1404.6</ele>
        <time>2022-09-11T09:49:03Z</time>
      </trkpt>
      <trkpt lat="42.289018" lon="8.88912">
        <ele>1405.4</ele>
        <time>2022-09-11T09:49:11Z</time>
      </trkpt>
      <trkpt lat="42.28888" lon="8.8892">
        <ele>1406.8</ele>
        <time>2022-09-11T09:49:22Z</time>
      </trkpt>
      <trkpt lat="42.28875" lon="8.889272">
        <ele>1407.4</ele>
        <time>2022-09-11T09:49:36Z</time>
      </trkpt>
      <trkpt lat="42.288602" lon="8.889377">
        <ele>1407.8</ele>
        <time>2022-09-11T09:49:49Z</time>
      </trkpt>
      <trkpt lat="42.288522" lon="8.889412">
        <ele>1407.2</ele>
        <time>2022-09-11T09:49:54Z</time>
      </trkpt>
      <trkpt lat="42.28847" lon="8.889468">
        <ele>1407.0</ele>
        <time>2022-09-11T09:49:58Z</time>
      </trkpt>
      <trkpt lat="42.28847" lon="8.889505">
        <ele>1406.6</ele>
        <time>2022-09-11T09:50:01Z</time>
      </trkpt>
      <trkpt lat="42.288453" lon="8.889543">
        <ele>1406.0</ele>
        <time>2022-09-11T09:50:05Z</time>
      </trkpt>
      <trkpt lat="42.288395" lon="8.889623">
        <ele>1406.0</ele>
        <time>2022-09-11T09:50:16Z</time>
      </trkpt>
      <trkpt lat="42.288387" lon="8.889745">
        <ele>1406.0</ele>
        <time>2022-09-11T09:50:35Z</time>
      </trkpt>
      <trkpt lat="42.288387" lon="8.889757">
        <ele>1406.0</ele>
        <time>2022-09-11T09:50:40Z</time>
      </trkpt>
      <trkpt lat="42.288395" lon="8.889845">
        <ele>1406.4</ele>
        <time>2022-09-11T09:50:47Z</time>
      </trkpt>
      <trkpt lat="42.28837" lon="8.889905">
        <ele>1406.4</ele>
        <time>2022-09-11T09:50:53Z</time>
      </trkpt>
      <trkpt lat="42.288352" lon="8.89001">
        <ele>1406.0</ele>
        <time>2022-09-11T09:50:59Z</time>
      </trkpt>
      <trkpt lat="42.288313" lon="8.890173">
        <ele>1405.4</ele>
        <time>2022-09-11T09:51:09Z</time>
      </trkpt>
      <trkpt lat="42.28834" lon="8.89037">
        <ele>1406.0</ele>
        <time>2022-09-11T09:51:20Z</time>
      </trkpt>
      <trkpt lat="42.288342" lon="8.890393">
        <ele>1406.2</ele>
        <time>2022-09-11T09:51:22Z</time>
      </trkpt>
      <trkpt lat="42.288352" lon="8.890502">
        <ele>1406.4</ele>
        <time>2022-09-11T09:51:31Z</time>
      </trkpt>
      <trkpt lat="42.288352" lon="8.890582">
        <ele>1406.2</ele>
        <time>2022-09-11T09:51:38Z</time>
      </trkpt>
      <trkpt lat="42.288355" lon="8.890663">
        <ele>1406.2</ele>
        <time>2022-09-11T09:51:45Z</time>
      </trkpt>
      <trkpt lat="42.288345" lon="8.890707">
        <ele>1406.2</ele>
        <time>2022-09-11T09:51:49Z</time>
      </trkpt>
      <trkpt lat="42.288328" lon="8.890773">
        <ele>1406.4</ele>
        <time>2022-09-11T09:51:55Z</time>
      </trkpt>
      <trkpt lat="42.28831" lon="8.890843">
        <ele>1406.6</ele>
        <time>2022-09-11T09:52:03Z</time>
      </trkpt>
      <trkpt lat="42.28833" lon="8.890902">
        <ele>1407.2</ele>
        <time>2022-09-11T09:52:09Z</time>
      </trkpt>
      <trkpt lat="42.288342" lon="8.890955">
        <ele>1406.8</ele>
        <time>2022-09-11T09:52:15Z</time>
      </trkpt>
      <trkpt lat="42.288323" lon="8.891067">
        <ele>1407.2</ele>
        <time>2022-09-11T09:52:28Z</time>
      </trkpt>
      <trkpt lat="42.288297" lon="8.891275">
        <ele>1409.6</ele>
        <time>2022-09-11T09:53:00Z</time>
      </trkpt>
      <trkpt lat="42.288242" lon="8.891398">
        <ele>1410.2</ele>
        <time>2022-09-11T09:53:11Z</time>
      </trkpt>
      <trkpt lat="42.288183" lon="8.891472">
        <ele>1411.0</ele>
        <time>2022-09-11T09:53:17Z</time>
      </trkpt>
      <trkpt lat="42.288047" lon="8.891587">
        <ele>1413.6</ele>
        <time>2022-09-11T09:53:29Z</time>
      </trkpt>
      <trkpt lat="42.287852" lon="8.891632">
        <ele>1414.8</ele>
        <time>2022-09-11T09:53:41Z</time>
      </trkpt>
      <trkpt lat="42.287792" lon="8.89166">
        <ele>1415.0</ele>
        <time>2022-09-11T09:54:20Z</time>
      </trkpt>
      <trkpt lat="42.287777" lon="8.891687">
        <ele>1415.6</ele>
        <time>2022-09-11T09:54:31Z</time>
      </trkpt>
      <trkpt lat="42.287712" lon="8.891723">
        <ele>1414.6</ele>
        <time>2022-09-11T09:54:55Z</time>
      </trkpt>
      <trkpt lat="42.287655" lon="8.891745">
        <ele>1413.4</ele>
        <time>2022-09-11T09:55:13Z</time>
      </trkpt>
      <trkpt lat="42.287605" lon="8.891735">
        <ele>1413.2</ele>
        <time>2022-09-11T09:55:24Z</time>
      </trkpt>
      <trkpt lat="42.287567" lon="8.891722">
        <ele>1412.6</ele>
        <time>2022-09-11T09:55:31Z</time>
      </trkpt>
      <trkpt lat="42.287488" lon="8.891673">
        <ele>1410.2</ele>
        <time>2022-09-11T09:55:53Z</time>
      </trkpt>
      <trkpt lat="42.287478" lon="8.891672">
        <ele>1410.0</ele>
        <time>2022-09-11T09:55:54Z</time>
      </trkpt>
      <trkpt lat="42.287428" lon="8.89166">
        <ele>1409.6</ele>
        <time>2022-09-11T09:55:59Z</time>
      </trkpt>
      <trkpt lat="42.2872" lon="8.891697">
        <ele>1409.2</ele>
        <time>2022-09-11T09:56:07Z</time>
      </trkpt>
      <trkpt lat="42.28706" lon="8.89173">
        <ele>1408.6</ele>
        <time>2022-09-11T09:56:12Z</time>
      </trkpt>
      <trkpt lat="42.286907" lon="8.891783">
        <ele>1408.2</ele>
        <time>2022-09-11T09:56:19Z</time>
      </trkpt>
      <trkpt lat="42.286765" lon="8.891808">
        <ele>1407.6</ele>
        <time>2022-09-11T09:56:25Z</time>
      </trkpt>
      <trkpt lat="42.286747" lon="8.891827">
        <ele>1407.6</ele>
        <time>2022-09-11T09:56:26Z</time>
      </trkpt>
      <trkpt lat="42.286723" lon="8.891925">
        <ele>1407.4</ele>
        <time>2022-09-11T09:56:30Z</time>
      </trkpt>
      <trkpt lat="42.286697" lon="8.89194">
        <ele>1407.0</ele>
        <time>2022-09-11T09:56:32Z</time>
      </trkpt>
      <trkpt lat="42.286633" lon="8.89193">
        <ele>1407.0</ele>
        <time>2022-09-11T09:56:38Z</time>
      </trkpt>
      <trkpt lat="42.286627" lon="8.891988">
        <ele>1407.2</ele>
        <time>2022-09-11T09:56:41Z</time>
      </trkpt>
      <trkpt lat="42.286622" lon="8.89213">
        <ele>1407.0</ele>
        <time>2022-09-11T09:56:48Z</time>
      </trkpt>
      <trkpt lat="42.286623" lon="8.892168">
        <ele>1407.0</ele>
        <time>2022-09-11T09:56:50Z</time>
      </trkpt>
      <trkpt lat="42.286627" lon="8.892327">
        <ele>1406.2</ele>
        <time>2022-09-11T09:56:58Z</time>
      </trkpt>
      <trkpt lat="42.286627" lon="8.892345">
        <ele>1406.0</ele>
        <time>2022-09-11T09:57:00Z</time>
      </trkpt>
      <trkpt lat="42.286597" lon="8.892472">
        <ele>1405.2</ele>
        <time>2022-09-11T09:57:17Z</time>
      </trkpt>
      <trkpt lat="42.286585" lon="8.89254">
        <ele>1405.2</ele>
        <time>2022-09-11T09:57:20Z</time>
      </trkpt>
      <trkpt lat="42.28659" lon="8.892603">
        <ele>1405.2</ele>
        <time>2022-09-11T09:57:23Z</time>
      </trkpt>
      <trkpt lat="42.286608" lon="8.892652">
        <ele>1404.8</ele>
        <time>2022-09-11T09:57:26Z</time>
      </trkpt>
      <trkpt lat="42.286655" lon="8.892972">
        <ele>1404.4</ele>
        <time>2022-09-11T09:57:46Z</time>
      </trkpt>
      <trkpt lat="42.286667" lon="8.89302">
        <ele>1404.4</ele>
        <time>2022-09-11T09:57:49Z</time>
      </trkpt>
      <trkpt lat="42.286618" lon="8.893103">
        <ele>1404.0</ele>
        <time>2022-09-11T09:57:56Z</time>
      </trkpt>
      <trkpt lat="42.28659" lon="8.893148">
        <ele>1403.4</ele>
        <time>2022-09-11T09:58:00Z</time>
      </trkpt>
      <trkpt lat="42.286587" lon="8.893287">
        <ele>1402.0</ele>
        <time>2022-09-11T09:58:14Z</time>
      </trkpt>
      <trkpt lat="42.286697" lon="8.893397">
        <ele>1400.8</ele>
        <time>2022-09-11T10:42:12Z</time>
      </trkpt>
      <trkpt lat="42.28665" lon="8.893452">
        <ele>1400.6</ele>
        <time>2022-09-11T10:42:16Z</time>
      </trkpt>
      <trkpt lat="42.286522" lon="8.893612">
        <ele>1400.0</ele>
        <time>2022-09-11T10:42:27Z</time>
      </trkpt>
      <trkpt lat="42.286513" lon="8.89366">
        <ele>1399.8</ele>
        <time>2022-09-11T10:42:29Z</time>
      </trkpt>
      <trkpt lat="42.286515" lon="8.893708">
        <ele>1399.8</ele>
        <time>2022-09-11T10:42:31Z</time>
      </trkpt>
      <trkpt lat="42.286545" lon="8.893955">
        <ele>1399.2</ele>
        <time>2022-09-11T10:42:42Z</time>
      </trkpt>
      <trkpt lat="42.286542" lon="8.89399">
        <ele>1399.0</ele>
        <time>2022-09-11T10:42:44Z</time>
      </trkpt>
      <trkpt lat="42.286472" lon="8.894253">
        <ele>1399.4</ele>
        <time>2022-09-11T10:43:02Z</time>
      </trkpt>
      <trkpt lat="42.286462" lon="8.894458">
        <ele>1399.4</ele>
        <time>2022-09-11T10:43:15Z</time>
      </trkpt>
      <trkpt lat="42.286448" lon="8.894555">
        <ele>1399.0</ele>
        <time>2022-09-11T10:43:21Z</time>
      </trkpt>
      <trkpt lat="42.286463" lon="8.894645">
        <ele>1398.4</ele>
        <time>2022-09-11T10:43:28Z</time>
      </trkpt>
      <trkpt lat="42.286463" lon="8.894677">
        <ele>1398.4</ele>
        <time>2022-09-11T10:43:30Z</time>
      </trkpt>
      <trkpt lat="42.286448" lon="8.894795">
        <ele>1397.4</ele>
        <time>2022-09-11T10:43:41Z</time>
      </trkpt>
      <trkpt lat="42.286438" lon="8.894833">
        <ele>1396.8</ele>
        <time>2022-09-11T10:43:45Z</time>
      </trkpt>
      <trkpt lat="42.28642" lon="8.894852">
        <ele>1396.6</ele>
        <time>2022-09-11T10:43:48Z</time>
      </trkpt>
      <trkpt lat="42.286337" lon="8.894868">
        <ele>1395.0</ele>
        <time>2022-09-11T10:43:59Z</time>
      </trkpt>
      <trkpt lat="42.286215" lon="8.89481">
        <ele>1391.2</ele>
        <time>2022-09-11T10:44:31Z</time>
      </trkpt>
      <trkpt lat="42.286207" lon="8.89472">
        <ele>1390.0</ele>
        <time>2022-09-11T10:44:39Z</time>
      </trkpt>
      <trkpt lat="42.286137" lon="8.894702">
        <ele>1389.0</ele>
        <time>2022-09-11T10:44:50Z</time>
      </trkpt>
      <trkpt lat="42.285927" lon="8.894482">
        <ele>1388.4</ele>
        <time>2022-09-11T10:45:01Z</time>
      </trkpt>
      <trkpt lat="42.285822" lon="8.894408">
        <ele>1387.0</ele>
        <time>2022-09-11T10:45:14Z</time>
      </trkpt>
      <trkpt lat="42.285775" lon="8.894307">
        <ele>1386.6</ele>
        <time>2022-09-11T10:45:16Z</time>
      </trkpt>
      <trkpt lat="42.285693" lon="8.894202">
        <ele>1385.6</ele>
        <time>2022-09-11T10:45:30Z</time>
      </trkpt>
      <trkpt lat="42.285628" lon="8.894142">
        <ele>1383.0</ele>
        <time>2022-09-11T10:46:01Z</time>
      </trkpt>
      <trkpt lat="42.285515" lon="8.894165">
        <ele>1380.8</ele>
        <time>2022-09-11T10:46:22Z</time>
      </trkpt>
      <trkpt lat="42.28546" lon="8.894172">
        <ele>1378.6</ele>
        <time>2022-09-11T10:46:35Z</time>
      </trkpt>
      <trkpt lat="42.285403" lon="8.894103">
        <ele>1372.8</ele>
        <time>2022-09-11T10:47:16Z</time>
      </trkpt>
      <trkpt lat="42.285403" lon="8.894112">
        <ele>1372.4</ele>
        <time>2022-09-11T10:47:17Z</time>
      </trkpt>
      <trkpt lat="42.285378" lon="8.894263">
        <ele>1370.0</ele>
        <time>2022-09-11T10:47:33Z</time>
      </trkpt>
      <trkpt lat="42.285267" lon="8.894422">
        <ele>1367.4</ele>
        <time>2022-09-11T10:47:51Z</time>
      </trkpt>
      <trkpt lat="42.28525" lon="8.894457">
        <ele>1367.0</ele>
        <time>2022-09-11T10:47:55Z</time>
      </trkpt>
      <trkpt lat="42.285157" lon="8.894487">
        <ele>1365.2</ele>
        <time>2022-09-11T10:48:11Z</time>
      </trkpt>
      <trkpt lat="42.285125" lon="8.894495">
        <ele>1364.2</ele>
        <time>2022-09-11T10:48:18Z</time>
      </trkpt>
      <trkpt lat="42.284993" lon="8.894488">
        <ele>1361.2</ele>
        <time>2022-09-11T10:48:45Z</time>
      </trkpt>
      <trkpt lat="42.284955" lon="8.8945">
        <ele>1361.2</ele>
        <time>2022-09-11T10:48:51Z</time>
      </trkpt>
      <trkpt lat="42.284925" lon="8.894503">
        <ele>1360.2</ele>
        <time>2022-09-11T10:48:57Z</time>
      </trkpt>
      <trkpt lat="42.284888" lon="8.894498">
        <ele>1360.0</ele>
        <time>2022-09-11T10:49:05Z</time>
      </trkpt>
      <trkpt lat="42.284878" lon="8.8945">
        <ele>1360.0</ele>
        <time>2022-09-11T10:49:08Z</time>
      </trkpt>
      <trkpt lat="42.284767" lon="8.894583">
        <ele>1356.0</ele>
        <time>2022-09-11T10:49:47Z</time>
      </trkpt>
      <trkpt lat="42.284675" lon="8.894558">
        <ele>1353.8</ele>
        <time>2022-09-11T10:50:04Z</time>
      </trkpt>
      <trkpt lat="42.284417" lon="8.894362">
        <ele>1352.0</ele>
        <time>2022-09-11T10:50:18Z</time>
      </trkpt>
      <trkpt lat="42.284375" lon="8.894443">
        <ele>1350.2</ele>
        <time>2022-09-11T10:50:30Z</time>
      </trkpt>
      <trkpt lat="42.284188" lon="8.89467">
        <ele>1348.4</ele>
        <time>2022-09-11T10:50:42Z</time>
      </trkpt>
      <trkpt lat="42.284108" lon="8.894585">
        <ele>1347.0</ele>
        <time>2022-09-11T10:50:52Z</time>
      </trkpt>
      <trkpt lat="42.284083" lon="8.894568">
        <ele>1346.8</ele>
        <time>2022-09-11T10:50:56Z</time>
      </trkpt>
      <trkpt lat="42.284017" lon="8.894597">
        <ele>1345.8</ele>
        <time>2022-09-11T10:51:09Z</time>
      </trkpt>
      <trkpt lat="42.283995" lon="8.89461">
        <ele>1344.8</ele>
        <time>2022-09-11T10:51:19Z</time>
      </trkpt>
      <trkpt lat="42.283988" lon="8.894618">
        <ele>1344.0</ele>
        <time>2022-09-11T10:51:22Z</time>
      </trkpt>
      <trkpt lat="42.283905" lon="8.894753">
        <ele>1340.0</ele>
        <time>2022-09-11T10:51:42Z</time>
      </trkpt>
      <trkpt lat="42.283868" lon="8.894877">
        <ele>1338.0</ele>
        <time>2022-09-11T10:51:56Z</time>
      </trkpt>
      <trkpt lat="42.283818" lon="8.894935">
        <ele>1336.6</ele>
        <time>2022-09-11T10:52:06Z</time>
      </trkpt>
      <trkpt lat="42.283752" lon="8.895072">
        <ele>1336.2</ele>
        <time>2022-09-11T10:52:18Z</time>
      </trkpt>
      <trkpt lat="42.283692" lon="8.895057">
        <ele>1336.4</ele>
        <time>2022-09-11T10:52:23Z</time>
      </trkpt>
      <trkpt lat="42.283603" lon="8.89496">
        <ele>1336.4</ele>
        <time>2022-09-11T10:52:31Z</time>
      </trkpt>
      <trkpt lat="42.283418" lon="8.89475">
        <ele>1336.4</ele>
        <time>2022-09-11T10:52:43Z</time>
      </trkpt>
      <trkpt lat="42.28341" lon="8.894742">
        <ele>1336.4</ele>
        <time>2022-09-11T10:52:45Z</time>
      </trkpt>
      <trkpt lat="42.283348" lon="8.894677">
        <ele>1336.4</ele>
        <time>2022-09-11T10:52:53Z</time>
      </trkpt>
      <trkpt lat="42.283242" lon="8.894577">
        <ele>1335.8</ele>
        <time>2022-09-11T10:53:09Z</time>
      </trkpt>
      <trkpt lat="42.283232" lon="8.894538">
        <ele>1335.8</ele>
        <time>2022-09-11T10:53:13Z</time>
      </trkpt>
      <trkpt lat="42.283235" lon="8.894468">
        <ele>1335.6</ele>
        <time>2022-09-11T10:53:20Z</time>
      </trkpt>
      <trkpt lat="42.283238" lon="8.894425">
        <ele>1335.6</ele>
        <time>2022-09-11T10:53:25Z</time>
      </trkpt>
      <trkpt lat="42.283122" lon="8.894227">
        <ele>1336.0</ele>
        <time>2022-09-11T10:53:54Z</time>
      </trkpt>
      <trkpt lat="42.28308" lon="8.89413">
        <ele>1335.8</ele>
        <time>2022-09-11T10:54:09Z</time>
      </trkpt>
      <trkpt lat="42.28305" lon="8.894082">
        <ele>1335.6</ele>
        <time>2022-09-11T10:54:15Z</time>
      </trkpt>
      <trkpt lat="42.283047" lon="8.894015">
        <ele>1335.6</ele>
        <time>2022-09-11T10:54:22Z</time>
      </trkpt>
      <trkpt lat="42.283052" lon="8.893902">
        <ele>1335.6</ele>
        <time>2022-09-11T10:54:36Z</time>
      </trkpt>
      <trkpt lat="42.283022" lon="8.893822">
        <ele>1335.4</ele>
        <time>2022-09-11T10:54:43Z</time>
      </trkpt>
      <trkpt lat="42.282938" lon="8.893712">
        <ele>1335.4</ele>
        <time>2022-09-11T10:54:52Z</time>
      </trkpt>
      <trkpt lat="42.282923" lon="8.893683">
        <ele>1335.4</ele>
        <time>2022-09-11T10:54:54Z</time>
      </trkpt>
      <trkpt lat="42.282877" lon="8.893098">
        <ele>1336.6</ele>
        <time>2022-09-11T10:55:31Z</time>
      </trkpt>
      <trkpt lat="42.282865" lon="8.893028">
        <ele>1336.8</ele>
        <time>2022-09-11T10:55:36Z</time>
      </trkpt>
      <trkpt lat="42.282867" lon="8.892898">
        <ele>1336.8</ele>
        <time>2022-09-11T10:55:47Z</time>
      </trkpt>
      <trkpt lat="42.282858" lon="8.8928">
        <ele>1337.2</ele>
        <time>2022-09-11T10:55:57Z</time>
      </trkpt>
      <trkpt lat="42.282897" lon="8.892692">
        <ele>1337.8</ele>
        <time>2022-09-11T10:56:12Z</time>
      </trkpt>
      <trkpt lat="42.282918" lon="8.892657">
        <ele>1337.8</ele>
        <time>2022-09-11T10:56:18Z</time>
      </trkpt>
      <trkpt lat="42.282938" lon="8.89263">
        <ele>1338.0</ele>
        <time>2022-09-11T10:56:24Z</time>
      </trkpt>
      <trkpt lat="42.282945" lon="8.892583">
        <ele>1338.0</ele>
        <time>2022-09-11T10:56:30Z</time>
      </trkpt>
      <trkpt lat="42.282947" lon="8.89252">
        <ele>1338.0</ele>
        <time>2022-09-11T10:56:38Z</time>
      </trkpt>
      <trkpt lat="42.282953" lon="8.892457">
        <ele>1338.2</ele>
        <time>2022-09-11T10:56:46Z</time>
      </trkpt>
      <trkpt lat="42.28295" lon="8.892392">
        <ele>1338.4</ele>
        <time>2022-09-11T10:56:53Z</time>
      </trkpt>
      <trkpt lat="42.282937" lon="8.892293">
        <ele>1338.6</ele>
        <time>2022-09-11T10:57:05Z</time>
      </trkpt>
      <trkpt lat="42.28294" lon="8.892117">
        <ele>1339.2</ele>
        <time>2022-09-11T10:57:25Z</time>
      </trkpt>
      <trkpt lat="42.282933" lon="8.892108">
        <ele>1339.2</ele>
        <time>2022-09-11T10:57:26Z</time>
      </trkpt>
      <trkpt lat="42.282892" lon="8.89204">
        <ele>1339.4</ele>
        <time>2022-09-11T10:57:33Z</time>
      </trkpt>
      <trkpt lat="42.282798" lon="8.89181">
        <ele>1340.0</ele>
        <time>2022-09-11T10:57:54Z</time>
      </trkpt>
      <trkpt lat="42.282753" lon="8.891803">
        <ele>1340.2</ele>
        <time>2022-09-11T10:57:59Z</time>
      </trkpt>
      <trkpt lat="42.282697" lon="8.891865">
        <ele>1340.4</ele>
        <time>2022-09-11T10:58:04Z</time>
      </trkpt>
      <trkpt lat="42.282632" lon="8.891942">
        <ele>1340.2</ele>
        <time>2022-09-11T10:58:10Z</time>
      </trkpt>
      <trkpt lat="42.282497" lon="8.892137">
        <ele>1339.8</ele>
        <time>2022-09-11T10:58:30Z</time>
      </trkpt>
      <trkpt lat="42.282348" lon="8.892252">
        <ele>1339.8</ele>
        <time>2022-09-11T10:58:51Z</time>
      </trkpt>
      <trkpt lat="42.282332" lon="8.89227">
        <ele>1340.0</ele>
        <time>2022-09-11T10:58:54Z</time>
      </trkpt>
      <trkpt lat="42.282222" lon="8.892273">
        <ele>1340.8</ele>
        <time>2022-09-11T10:59:02Z</time>
      </trkpt>
      <trkpt lat="42.28215" lon="8.89224">
        <ele>1341.0</ele>
        <time>2022-09-11T10:59:08Z</time>
      </trkpt>
      <trkpt lat="42.282112" lon="8.892197">
        <ele>1341.2</ele>
        <time>2022-09-11T10:59:12Z</time>
      </trkpt>
      <trkpt lat="42.282053" lon="8.892082">
        <ele>1341.4</ele>
        <time>2022-09-11T10:59:20Z</time>
      </trkpt>
      <trkpt lat="42.281973" lon="8.891985">
        <ele>1341.4</ele>
        <time>2022-09-11T10:59:29Z</time>
      </trkpt>
      <trkpt lat="42.281948" lon="8.891967">
        <ele>1341.4</ele>
        <time>2022-09-11T10:59:31Z</time>
      </trkpt>
      <trkpt lat="42.281898" lon="8.891855">
        <ele>1341.6</ele>
        <time>2022-09-11T10:59:41Z</time>
      </trkpt>
      <trkpt lat="42.281867" lon="8.891737">
        <ele>1341.6</ele>
        <time>2022-09-11T10:59:51Z</time>
      </trkpt>
      <trkpt lat="42.281845" lon="8.891657">
        <ele>1341.4</ele>
        <time>2022-09-11T10:59:58Z</time>
      </trkpt>
      <trkpt lat="42.281798" lon="8.891583">
        <ele>1341.4</ele>
        <time>2022-09-11T11:00:06Z</time>
      </trkpt>
      <trkpt lat="42.281772" lon="8.89148">
        <ele>1341.2</ele>
        <time>2022-09-11T11:00:15Z</time>
      </trkpt>
      <trkpt lat="42.281767" lon="8.891445">
        <ele>1341.2</ele>
        <time>2022-09-11T11:00:18Z</time>
      </trkpt>
      <trkpt lat="42.281718" lon="8.891227">
        <ele>1341.6</ele>
        <time>2022-09-11T11:00:35Z</time>
      </trkpt>
      <trkpt lat="42.281732" lon="8.891043">
        <ele>1341.6</ele>
        <time>2022-09-11T11:00:50Z</time>
      </trkpt>
      <trkpt lat="42.28172" lon="8.890955">
        <ele>1342.2</ele>
        <time>2022-09-11T11:00:59Z</time>
      </trkpt>
      <trkpt lat="42.281702" lon="8.890932">
        <ele>1342.2</ele>
        <time>2022-09-11T11:01:02Z</time>
      </trkpt>
      <trkpt lat="42.281672" lon="8.890882">
        <ele>1342.0</ele>
        <time>2022-09-11T11:01:07Z</time>
      </trkpt>
      <trkpt lat="42.281518" lon="8.890728">
        <ele>1343.0</ele>
        <time>2022-09-11T11:01:28Z</time>
      </trkpt>
      <trkpt lat="42.281477" lon="8.89068">
        <ele>1343.2</ele>
        <time>2022-09-11T11:01:34Z</time>
      </trkpt>
      <trkpt lat="42.281433" lon="8.890667">
        <ele>1343.2</ele>
        <time>2022-09-11T11:01:40Z</time>
      </trkpt>
      <trkpt lat="42.281282" lon="8.890698">
        <ele>1343.0</ele>
        <time>2022-09-11T11:01:58Z</time>
      </trkpt>
      <trkpt lat="42.281225" lon="8.890653">
        <ele>1341.8</ele>
        <time>2022-09-11T11:02:06Z</time>
      </trkpt>
      <trkpt lat="42.281183" lon="8.890623">
        <ele>1342.6</ele>
        <time>2022-09-11T11:02:12Z</time>
      </trkpt>
      <trkpt lat="42.281175" lon="8.890623">
        <ele>1342.6</ele>
        <time>2022-09-11T11:02:13Z</time>
      </trkpt>
      <trkpt lat="42.281018" lon="8.890623">
        <ele>1343.2</ele>
        <time>2022-09-11T11:02:35Z</time>
      </trkpt>
      <trkpt lat="42.280915" lon="8.890587">
        <ele>1343.2</ele>
        <time>2022-09-11T11:02:50Z</time>
      </trkpt>
      <trkpt lat="42.280727" lon="8.890393">
        <ele>1344.4</ele>
        <time>2022-09-11T11:03:12Z</time>
      </trkpt>
      <trkpt lat="42.280605" lon="8.890227">
        <ele>1345.4</ele>
        <time>2022-09-11T11:03:27Z</time>
      </trkpt>
      <trkpt lat="42.280543" lon="8.890178">
        <ele>1345.8</ele>
        <time>2022-09-11T11:03:33Z</time>
      </trkpt>
      <trkpt lat="42.280473" lon="8.890142">
        <ele>1346.0</ele>
        <time>2022-09-11T11:03:42Z</time>
      </trkpt>
      <trkpt lat="42.280353" lon="8.890093">
        <ele>1346.0</ele>
        <time>2022-09-11T11:03:55Z</time>
      </trkpt>
      <trkpt lat="42.280285" lon="8.89005">
        <ele>1346.2</ele>
        <time>2022-09-11T11:04:03Z</time>
      </trkpt>
      <trkpt lat="42.280167" lon="8.890007">
        <ele>1346.4</ele>
        <time>2022-09-11T11:04:16Z</time>
      </trkpt>
      <trkpt lat="42.280085" lon="8.889925">
        <ele>1347.0</ele>
        <time>2022-09-11T11:04:28Z</time>
      </trkpt>
      <trkpt lat="42.279982" lon="8.889792">
        <ele>1347.6</ele>
        <time>2022-09-11T11:04:47Z</time>
      </trkpt>
      <trkpt lat="42.27998" lon="8.88978">
        <ele>1347.6</ele>
        <time>2022-09-11T11:04:48Z</time>
      </trkpt>
      <trkpt lat="42.279968" lon="8.88975">
        <ele>1348.0</ele>
        <time>2022-09-11T11:04:52Z</time>
      </trkpt>
      <trkpt lat="42.279895" lon="8.88968">
        <ele>1348.2</ele>
        <time>2022-09-11T11:05:05Z</time>
      </trkpt>
      <trkpt lat="42.27987" lon="8.889632">
        <ele>1348.6</ele>
        <time>2022-09-11T11:05:12Z</time>
      </trkpt>
      <trkpt lat="42.279853" lon="8.88955">
        <ele>1349.4</ele>
        <time>2022-09-11T11:05:23Z</time>
      </trkpt>
      <trkpt lat="42.279818" lon="8.889503">
        <ele>1349.6</ele>
        <time>2022-09-11T11:05:31Z</time>
      </trkpt>
      <trkpt lat="42.279788" lon="8.889493">
        <ele>1349.6</ele>
        <time>2022-09-11T11:05:36Z</time>
      </trkpt>
      <trkpt lat="42.279775" lon="8.889497">
        <ele>1349.6</ele>
        <time>2022-09-11T11:05:38Z</time>
      </trkpt>
      <trkpt lat="42.279678" lon="8.889532">
        <ele>1349.8</ele>
        <time>2022-09-11T11:05:50Z</time>
      </trkpt>
      <trkpt lat="42.279632" lon="8.889508">
        <ele>1350.0</ele>
        <time>2022-09-11T11:05:57Z</time>
      </trkpt>
      <trkpt lat="42.27952" lon="8.889395">
        <ele>1350.2</ele>
        <time>2022-09-11T11:06:13Z</time>
      </trkpt>
      <trkpt lat="42.279482" lon="8.889365">
        <ele>1351.2</ele>
        <time>2022-09-11T11:06:18Z</time>
      </trkpt>
      <trkpt lat="42.279423" lon="8.889242">
        <ele>1351.4</ele>
        <time>2022-09-11T11:06:31Z</time>
      </trkpt>
      <trkpt lat="42.279408" lon="8.88923">
        <ele>1351.4</ele>
        <time>2022-09-11T11:06:33Z</time>
      </trkpt>
      <trkpt lat="42.27934" lon="8.88914">
        <ele>1351.4</ele>
        <time>2022-09-11T11:06:44Z</time>
      </trkpt>
      <trkpt lat="42.279308" lon="8.88905">
        <ele>1351.4</ele>
        <time>2022-09-11T11:06:50Z</time>
      </trkpt>
      <trkpt lat="42.279277" lon="8.888942">
        <ele>1351.6</ele>
        <time>2022-09-11T11:06:56Z</time>
      </trkpt>
      <trkpt lat="42.27925" lon="8.888897">
        <ele>1351.6</ele>
        <time>2022-09-11T11:06:59Z</time>
      </trkpt>
      <trkpt lat="42.279228" lon="8.888918">
        <ele>1351.6</ele>
        <time>2022-09-11T11:07:01Z</time>
      </trkpt>
      <trkpt lat="42.27911" lon="8.889047">
        <ele>1350.6</ele>
        <time>2022-09-11T11:07:23Z</time>
      </trkpt>
      <trkpt lat="42.279105" lon="8.889048">
        <ele>1350.6</ele>
        <time>2022-09-11T11:07:24Z</time>
      </trkpt>
      <trkpt lat="42.278957" lon="8.889538">
        <ele>1351.0</ele>
        <time>2022-09-11T11:07:48Z</time>
      </trkpt>
      <trkpt lat="42.278803" lon="8.889605">
        <ele>1351.4</ele>
        <time>2022-09-11T11:07:59Z</time>
      </trkpt>
      <trkpt lat="42.278685" lon="8.889698">
        <ele>1352.0</ele>
        <time>2022-09-11T11:08:09Z</time>
      </trkpt>
      <trkpt lat="42.278533" lon="8.889462">
        <ele>1352.6</ele>
        <time>2022-09-11T11:08:21Z</time>
      </trkpt>
      <trkpt lat="42.278487" lon="8.889425">
        <ele>1352.6</ele>
        <time>2022-09-11T11:08:22Z</time>
      </trkpt>
      <trkpt lat="42.278453" lon="8.889393">
        <ele>1352.6</ele>
        <time>2022-09-11T11:08:26Z</time>
      </trkpt>
      <trkpt lat="42.2784" lon="8.889377">
        <ele>1352.6</ele>
        <time>2022-09-11T11:08:31Z</time>
      </trkpt>
      <trkpt lat="42.278383" lon="8.889393">
        <ele>1353.0</ele>
        <time>2022-09-11T11:08:33Z</time>
      </trkpt>
      <trkpt lat="42.27837" lon="8.88943">
        <ele>1353.0</ele>
        <time>2022-09-11T11:08:36Z</time>
      </trkpt>
      <trkpt lat="42.278362" lon="8.889493">
        <ele>1353.0</ele>
        <time>2022-09-11T11:08:41Z</time>
      </trkpt>
      <trkpt lat="42.278367" lon="8.889505">
        <ele>1353.0</ele>
        <time>2022-09-11T11:08:42Z</time>
      </trkpt>
      <trkpt lat="42.27836" lon="8.889588">
        <ele>1353.0</ele>
        <time>2022-09-11T11:08:54Z</time>
      </trkpt>
      <trkpt lat="42.27835" lon="8.889613">
        <ele>1353.0</ele>
        <time>2022-09-11T11:08:57Z</time>
      </trkpt>
      <trkpt lat="42.27831" lon="8.889648">
        <ele>1352.6</ele>
        <time>2022-09-11T11:09:03Z</time>
      </trkpt>
      <trkpt lat="42.278205" lon="8.889693">
        <ele>1353.0</ele>
        <time>2022-09-11T11:09:13Z</time>
      </trkpt>
      <trkpt lat="42.278122" lon="8.88968">
        <ele>1353.0</ele>
        <time>2022-09-11T11:09:21Z</time>
      </trkpt>
      <trkpt lat="42.278058" lon="8.889667">
        <ele>1353.4</ele>
        <time>2022-09-11T11:09:28Z</time>
      </trkpt>
      <trkpt lat="42.278022" lon="8.88964">
        <ele>1353.6</ele>
        <time>2022-09-11T11:09:42Z</time>
      </trkpt>
      <trkpt lat="42.277957" lon="8.889657">
        <ele>1353.6</ele>
        <time>2022-09-11T11:09:52Z</time>
      </trkpt>
      <trkpt lat="42.277948" lon="8.889657">
        <ele>1353.6</ele>
        <time>2022-09-11T11:09:53Z</time>
      </trkpt>
      <trkpt lat="42.27791" lon="8.889657">
        <ele>1353.6</ele>
        <time>2022-09-11T11:09:57Z</time>
      </trkpt>
      <trkpt lat="42.277863" lon="8.889692">
        <ele>1353.8</ele>
        <time>2022-09-11T11:10:02Z</time>
      </trkpt>
      <trkpt lat="42.277818" lon="8.889745">
        <ele>1354.0</ele>
        <time>2022-09-11T11:10:08Z</time>
      </trkpt>
      <trkpt lat="42.277795" lon="8.889795">
        <ele>1354.2</ele>
        <time>2022-09-11T11:10:14Z</time>
      </trkpt>
      <trkpt lat="42.277742" lon="8.890002">
        <ele>1355.0</ele>
        <time>2022-09-11T11:10:44Z</time>
      </trkpt>
      <trkpt lat="42.277735" lon="8.890047">
        <ele>1355.2</ele>
        <time>2022-09-11T11:11:15Z</time>
      </trkpt>
      <trkpt lat="42.277703" lon="8.890138">
        <ele>1355.2</ele>
        <time>2022-09-11T11:11:48Z</time>
      </trkpt>
      <trkpt lat="42.277702" lon="8.890138">
        <ele>1355.2</ele>
        <time>2022-09-11T11:11:49Z</time>
      </trkpt>
      <trkpt lat="42.277632" lon="8.89025">
        <ele>1355.6</ele>
        <time>2022-09-11T11:12:02Z</time>
      </trkpt>
      <trkpt lat="42.277437" lon="8.890357">
        <ele>1356.2</ele>
        <time>2022-09-11T11:12:12Z</time>
      </trkpt>
      <trkpt lat="42.277332" lon="8.890378">
        <ele>1356.4</ele>
        <time>2022-09-11T11:12:22Z</time>
      </trkpt>
      <trkpt lat="42.277245" lon="8.890497">
        <ele>1356.2</ele>
        <time>2022-09-11T11:12:32Z</time>
      </trkpt>
      <trkpt lat="42.277178" lon="8.89048">
        <ele>1356.0</ele>
        <time>2022-09-11T11:12:35Z</time>
      </trkpt>
      <trkpt lat="42.276982" lon="8.890322">
        <ele>1356.2</ele>
        <time>2022-09-11T11:13:05Z</time>
      </trkpt>
      <trkpt lat="42.276973" lon="8.89032">
        <ele>1356.4</ele>
        <time>2022-09-11T11:13:06Z</time>
      </trkpt>
      <trkpt lat="42.276913" lon="8.890353">
        <ele>1356.8</ele>
        <time>2022-09-11T11:13:14Z</time>
      </trkpt>
      <trkpt lat="42.276842" lon="8.890408">
        <ele>1357.0</ele>
        <time>2022-09-11T11:13:24Z</time>
      </trkpt>
      <trkpt lat="42.276675" lon="8.89052">
        <ele>1356.8</ele>
        <time>2022-09-11T11:13:46Z</time>
      </trkpt>
      <trkpt lat="42.276637" lon="8.890448">
        <ele>1357.0</ele>
        <time>2022-09-11T11:13:55Z</time>
      </trkpt>
      <trkpt lat="42.276637" lon="8.890393">
        <ele>1357.0</ele>
        <time>2022-09-11T11:13:59Z</time>
      </trkpt>
      <trkpt lat="42.27665" lon="8.890322">
        <ele>1357.0</ele>
        <time>2022-09-11T11:14:09Z</time>
      </trkpt>
      <trkpt lat="42.276672" lon="8.890317">
        <ele>1357.6</ele>
        <time>2022-09-11T11:14:16Z</time>
      </trkpt>
      <trkpt lat="42.276658" lon="8.89037">
        <ele>1357.6</ele>
        <time>2022-09-11T11:14:53Z</time>
      </trkpt>
      <trkpt lat="42.27666" lon="8.89041">
        <ele>1357.6</ele>
        <time>2022-09-11T11:14:58Z</time>
      </trkpt>
      <trkpt lat="42.276655" lon="8.890418">
        <ele>1357.6</ele>
        <time>2022-09-11T11:14:59Z</time>
      </trkpt>
      <trkpt lat="42.276597" lon="8.890418">
        <ele>1358.0</ele>
        <time>2022-09-11T11:15:07Z</time>
      </trkpt>
      <trkpt lat="42.276567" lon="8.890398">
        <ele>1358.0</ele>
        <time>2022-09-11T11:15:11Z</time>
      </trkpt>
      <trkpt lat="42.276558" lon="8.890348">
        <ele>1358.4</ele>
        <time>2022-09-11T11:15:28Z</time>
      </trkpt>
      <trkpt lat="42.276552" lon="8.89035">
        <ele>1358.6</ele>
        <time>2022-09-11T11:15:53Z</time>
      </trkpt>
      <trkpt lat="42.276563" lon="8.890288">
        <ele>1359.2</ele>
        <time>2022-09-11T11:16:17Z</time>
      </trkpt>
      <trkpt lat="42.276567" lon="8.89029">
        <ele>1359.2</ele>
        <time>2022-09-11T11:16:18Z</time>
      </trkpt>
      <trkpt lat="42.276538" lon="8.890232">
        <ele>1359.2</ele>
        <time>2022-09-11T11:16:26Z</time>
      </trkpt>
      <trkpt lat="42.276483" lon="8.890238">
        <ele>1359.2</ele>
        <time>2022-09-11T11:16:35Z</time>
      </trkpt>
      <trkpt lat="42.27646" lon="8.890245">
        <ele>1359.2</ele>
        <time>2022-09-11T11:16:39Z</time>
      </trkpt>
      <trkpt lat="42.27639" lon="8.89021">
        <ele>1358.8</ele>
        <time>2022-09-11T11:17:09Z</time>
      </trkpt>
      <trkpt lat="42.276317" lon="8.890133">
        <ele>1360.2</ele>
        <time>2022-09-11T11:17:36Z</time>
      </trkpt>
      <trkpt lat="42.276312" lon="8.890143">
        <ele>1360.2</ele>
        <time>2022-09-11T11:17:37Z</time>
      </trkpt>
      <trkpt lat="42.276268" lon="8.890215">
        <ele>1360.6</ele>
        <time>2022-09-11T11:17:44Z</time>
      </trkpt>
      <trkpt lat="42.276223" lon="8.890387">
        <ele>1360.4</ele>
        <time>2022-09-11T11:17:58Z</time>
      </trkpt>
      <trkpt lat="42.276203" lon="8.8905">
        <ele>1360.2</ele>
        <time>2022-09-11T11:18:06Z</time>
      </trkpt>
      <trkpt lat="42.276152" lon="8.89063">
        <ele>1360.0</ele>
        <time>2022-09-11T11:18:16Z</time>
      </trkpt>
      <trkpt lat="42.276147" lon="8.890643">
        <ele>1360.0</ele>
        <time>2022-09-11T11:18:17Z</time>
      </trkpt>
      <trkpt lat="42.276102" lon="8.890668">
        <ele>1360.4</ele>
        <time>2022-09-11T11:18:22Z</time>
      </trkpt>
      <trkpt lat="42.275927" lon="8.890712">
        <ele>1360.8</ele>
        <time>2022-09-11T11:18:40Z</time>
      </trkpt>
      <trkpt lat="42.275743" lon="8.890745">
        <ele>1361.6</ele>
        <time>2022-09-11T11:18:59Z</time>
      </trkpt>
      <trkpt lat="42.275735" lon="8.890743">
        <ele>1361.6</ele>
        <time>2022-09-11T11:19:00Z</time>
      </trkpt>
      <trkpt lat="42.275693" lon="8.890727">
        <ele>1361.6</ele>
        <time>2022-09-11T11:19:05Z</time>
      </trkpt>
      <trkpt lat="42.275623" lon="8.890757">
        <ele>1362.0</ele>
        <time>2022-09-11T11:19:15Z</time>
      </trkpt>
      <trkpt lat="42.275588" lon="8.890775">
        <ele>1362.2</ele>
        <time>2022-09-11T11:19:23Z</time>
      </trkpt>
      <trkpt lat="42.275572" lon="8.890847">
        <ele>1362.2</ele>
        <time>2022-09-11T11:19:30Z</time>
      </trkpt>
      <trkpt lat="42.275565" lon="8.891125">
        <ele>1362.4</ele>
        <time>2022-09-11T11:19:56Z</time>
      </trkpt>
      <trkpt lat="42.275565" lon="8.89114">
        <ele>1362.4</ele>
        <time>2022-09-11T11:19:57Z</time>
      </trkpt>
      <trkpt lat="42.275537" lon="8.891205">
        <ele>1362.6</ele>
        <time>2022-09-11T11:20:03Z</time>
      </trkpt>
      <trkpt lat="42.275487" lon="8.891292">
        <ele>1362.6</ele>
        <time>2022-09-11T11:20:12Z</time>
      </trkpt>
      <trkpt lat="42.27541" lon="8.891417">
        <ele>1363.2</ele>
        <time>2022-09-11T11:20:25Z</time>
      </trkpt>
      <trkpt lat="42.275365" lon="8.891482">
        <ele>1363.4</ele>
        <time>2022-09-11T11:20:33Z</time>
      </trkpt>
      <trkpt lat="42.27534" lon="8.891508">
        <ele>1363.4</ele>
        <time>2022-09-11T11:20:37Z</time>
      </trkpt>
      <trkpt lat="42.275298" lon="8.891743">
        <ele>1364.2</ele>
        <time>2022-09-11T11:20:56Z</time>
      </trkpt>
      <trkpt lat="42.275298" lon="8.892028">
        <ele>1364.4</ele>
        <time>2022-09-11T11:21:15Z</time>
      </trkpt>
      <trkpt lat="42.275305" lon="8.892182">
        <ele>1364.6</ele>
        <time>2022-09-11T11:21:26Z</time>
      </trkpt>
      <trkpt lat="42.27532" lon="8.892365">
        <ele>1364.8</ele>
        <time>2022-09-11T11:21:42Z</time>
      </trkpt>
      <trkpt lat="42.275342" lon="8.89248">
        <ele>1365.0</ele>
        <time>2022-09-11T11:21:50Z</time>
      </trkpt>
      <trkpt lat="42.275382" lon="8.892723">
        <ele>1365.8</ele>
        <time>2022-09-11T11:22:02Z</time>
      </trkpt>
      <trkpt lat="42.275393" lon="8.892802">
        <ele>1365.8</ele>
        <time>2022-09-11T11:22:07Z</time>
      </trkpt>
      <trkpt lat="42.27538" lon="8.892922">
        <ele>1365.8</ele>
        <time>2022-09-11T11:22:13Z</time>
      </trkpt>
      <trkpt lat="42.27536" lon="8.893165">
        <ele>1365.8</ele>
        <time>2022-09-11T11:22:26Z</time>
      </trkpt>
      <trkpt lat="42.27532" lon="8.89331">
        <ele>1365.6</ele>
        <time>2022-09-11T11:22:37Z</time>
      </trkpt>
      <trkpt lat="42.275228" lon="8.893415">
        <ele>1365.6</ele>
        <time>2022-09-11T11:22:49Z</time>
      </trkpt>
      <trkpt lat="42.275163" lon="8.893453">
        <ele>1365.6</ele>
        <time>2022-09-11T11:22:56Z</time>
      </trkpt>
      <trkpt lat="42.275087" lon="8.893515">
        <ele>1365.6</ele>
        <time>2022-09-11T11:23:04Z</time>
      </trkpt>
      <trkpt lat="42.275077" lon="8.893525">
        <ele>1365.6</ele>
        <time>2022-09-11T11:23:05Z</time>
      </trkpt>
      <trkpt lat="42.274987" lon="8.89356">
        <ele>1365.8</ele>
        <time>2022-09-11T11:23:15Z</time>
      </trkpt>
      <trkpt lat="42.27494" lon="8.89359">
        <ele>1365.8</ele>
        <time>2022-09-11T11:23:21Z</time>
      </trkpt>
      <trkpt lat="42.274913" lon="8.893602">
        <ele>1366.2</ele>
        <time>2022-09-11T11:23:40Z</time>
      </trkpt>
      <trkpt lat="42.274837" lon="8.893572">
        <ele>1367.0</ele>
        <time>2022-09-11T11:24:32Z</time>
      </trkpt>
      <trkpt lat="42.27473" lon="8.893612">
        <ele>1367.0</ele>
        <time>2022-09-11T11:24:46Z</time>
      </trkpt>
      <trkpt lat="42.274598" lon="8.893623">
        <ele>1367.6</ele>
        <time>2022-09-11T11:24:56Z</time>
      </trkpt>
      <trkpt lat="42.274518" lon="8.893617">
        <ele>1367.6</ele>
        <time>2022-09-11T11:25:01Z</time>
      </trkpt>
      <trkpt lat="42.274433" lon="8.893655">
        <ele>1367.6</ele>
        <time>2022-09-11T11:25:07Z</time>
      </trkpt>
      <trkpt lat="42.274375" lon="8.893697">
        <ele>1367.6</ele>
        <time>2022-09-11T11:25:11Z</time>
      </trkpt>
      <trkpt lat="42.274348" lon="8.89372">
        <ele>1367.6</ele>
        <time>2022-09-11T11:25:13Z</time>
      </trkpt>
      <trkpt lat="42.274295" lon="8.893755">
        <ele>1367.8</ele>
        <time>2022-09-11T11:25:18Z</time>
      </trkpt>
      <trkpt lat="42.274222" lon="8.893765">
        <ele>1367.6</ele>
        <time>2022-09-11T11:25:25Z</time>
      </trkpt>
      <trkpt lat="42.274148" lon="8.893793">
        <ele>1367.6</ele>
        <time>2022-09-11T11:25:34Z</time>
      </trkpt>
      <trkpt lat="42.274082" lon="8.893812">
        <ele>1367.8</ele>
        <time>2022-09-11T11:25:41Z</time>
      </trkpt>
      <trkpt lat="42.274033" lon="8.893852">
        <ele>1367.8</ele>
        <time>2022-09-11T11:25:47Z</time>
      </trkpt>
      <trkpt lat="42.27394" lon="8.893925">
        <ele>1367.8</ele>
        <time>2022-09-11T11:25:59Z</time>
      </trkpt>
      <trkpt lat="42.273895" lon="8.89394">
        <ele>1367.6</ele>
        <time>2022-09-11T11:26:04Z</time>
      </trkpt>
      <trkpt lat="42.273855" lon="8.893915">
        <ele>1367.6</ele>
        <time>2022-09-11T11:26:09Z</time>
      </trkpt>
      <trkpt lat="42.273805" lon="8.893917">
        <ele>1367.6</ele>
        <time>2022-09-11T11:26:14Z</time>
      </trkpt>
      <trkpt lat="42.27375" lon="8.893973">
        <ele>1367.6</ele>
        <time>2022-09-11T11:26:20Z</time>
      </trkpt>
      <trkpt lat="42.273687" lon="8.89404">
        <ele>1367.4</ele>
        <time>2022-09-11T11:26:27Z</time>
      </trkpt>
      <trkpt lat="42.273595" lon="8.89402">
        <ele>1367.6</ele>
        <time>2022-09-11T11:26:38Z</time>
      </trkpt>
      <trkpt lat="42.273508" lon="8.894012">
        <ele>1368.0</ele>
        <time>2022-09-11T11:26:47Z</time>
      </trkpt>
      <trkpt lat="42.273472" lon="8.894015">
        <ele>1368.0</ele>
        <time>2022-09-11T11:26:51Z</time>
      </trkpt>
      <trkpt lat="42.273395" lon="8.894085">
        <ele>1368.0</ele>
        <time>2022-09-11T11:27:00Z</time>
      </trkpt>
      <trkpt lat="42.273373" lon="8.894125">
        <ele>1368.0</ele>
        <time>2022-09-11T11:27:04Z</time>
      </trkpt>
      <trkpt lat="42.273322" lon="8.894273">
        <ele>1367.8</ele>
        <time>2022-09-11T11:27:16Z</time>
      </trkpt>
      <trkpt lat="42.273267" lon="8.89436">
        <ele>1367.6</ele>
        <time>2022-09-11T11:27:26Z</time>
      </trkpt>
      <trkpt lat="42.273093" lon="8.894347">
        <ele>1368.0</ele>
        <time>2022-09-11T11:27:55Z</time>
      </trkpt>
      <trkpt lat="42.273025" lon="8.894337">
        <ele>1368.0</ele>
        <time>2022-09-11T11:28:04Z</time>
      </trkpt>
      <trkpt lat="42.27295" lon="8.894332">
        <ele>1368.2</ele>
        <time>2022-09-11T11:28:15Z</time>
      </trkpt>
      <trkpt lat="42.27281" lon="8.894362">
        <ele>1370.0</ele>
        <time>2022-09-11T11:28:47Z</time>
      </trkpt>
      <trkpt lat="42.272752" lon="8.894373">
        <ele>1370.0</ele>
        <time>2022-09-11T11:28:59Z</time>
      </trkpt>
      <trkpt lat="42.272733" lon="8.894387">
        <ele>1370.0</ele>
        <time>2022-09-11T11:29:02Z</time>
      </trkpt>
      <trkpt lat="42.272698" lon="8.894468">
        <ele>1370.2</ele>
        <time>2022-09-11T11:29:09Z</time>
      </trkpt>
      <trkpt lat="42.2727" lon="8.894565">
        <ele>1370.2</ele>
        <time>2022-09-11T11:29:16Z</time>
      </trkpt>
      <trkpt lat="42.2727" lon="8.894632">
        <ele>1370.2</ele>
        <time>2022-09-11T11:29:20Z</time>
      </trkpt>
      <trkpt lat="42.272672" lon="8.894703">
        <ele>1370.2</ele>
        <time>2022-09-11T11:29:25Z</time>
      </trkpt>
      <trkpt lat="42.272608" lon="8.894767">
        <ele>1370.2</ele>
        <time>2022-09-11T11:29:30Z</time>
      </trkpt>
      <trkpt lat="42.272545" lon="8.894778">
        <ele>1370.2</ele>
        <time>2022-09-11T11:29:34Z</time>
      </trkpt>
      <trkpt lat="42.272505" lon="8.894765">
        <ele>1370.6</ele>
        <time>2022-09-11T11:29:39Z</time>
      </trkpt>
      <trkpt lat="42.272462" lon="8.894778">
        <ele>1371.2</ele>
        <time>2022-09-11T11:29:44Z</time>
      </trkpt>
      <trkpt lat="42.272427" lon="8.89479">
        <ele>1371.2</ele>
        <time>2022-09-11T11:29:48Z</time>
      </trkpt>
      <trkpt lat="42.272383" lon="8.89477">
        <ele>1370.6</ele>
        <time>2022-09-11T11:29:54Z</time>
      </trkpt>
      <trkpt lat="42.272338" lon="8.894723">
        <ele>1370.4</ele>
        <time>2022-09-11T11:30:01Z</time>
      </trkpt>
      <trkpt lat="42.272305" lon="8.89466">
        <ele>1370.2</ele>
        <time>2022-09-11T11:30:07Z</time>
      </trkpt>
      <trkpt lat="42.272283" lon="8.894617">
        <ele>1370.2</ele>
        <time>2022-09-11T11:30:11Z</time>
      </trkpt>
      <trkpt lat="42.272275" lon="8.89461">
        <ele>1370.2</ele>
        <time>2022-09-11T11:30:13Z</time>
      </trkpt>
      <trkpt lat="42.272235" lon="8.894577">
        <ele>1370.4</ele>
        <time>2022-09-11T11:30:18Z</time>
      </trkpt>
      <trkpt lat="42.27212" lon="8.89458">
        <ele>1371.2</ele>
        <time>2022-09-11T11:30:30Z</time>
      </trkpt>
      <trkpt lat="42.27207" lon="8.894582">
        <ele>1371.0</ele>
        <time>2022-09-11T11:30:35Z</time>
      </trkpt>
      <trkpt lat="42.27199" lon="8.894565">
        <ele>1371.0</ele>
        <time>2022-09-11T11:30:44Z</time>
      </trkpt>
      <trkpt lat="42.27198" lon="8.894565">
        <ele>1371.0</ele>
        <time>2022-09-11T11:30:46Z</time>
      </trkpt>
      <trkpt lat="42.271945" lon="8.894512">
        <ele>1370.8</ele>
        <time>2022-09-11T11:30:51Z</time>
      </trkpt>
      <trkpt lat="42.271872" lon="8.894375">
        <ele>1370.4</ele>
        <time>2022-09-11T11:31:04Z</time>
      </trkpt>
      <trkpt lat="42.271642" lon="8.89405">
        <ele>1370.8</ele>
        <time>2022-09-11T11:31:34Z</time>
      </trkpt>
      <trkpt lat="42.27163" lon="8.894027">
        <ele>1371.0</ele>
        <time>2022-09-11T11:31:39Z</time>
      </trkpt>
      <trkpt lat="42.271623" lon="8.893945">
        <ele>1371.4</ele>
        <time>2022-09-11T11:31:49Z</time>
      </trkpt>
      <trkpt lat="42.271575" lon="8.893777">
        <ele>1372.0</ele>
        <time>2022-09-11T11:32:06Z</time>
      </trkpt>
      <trkpt lat="42.271532" lon="8.893658">
        <ele>1372.4</ele>
        <time>2022-09-11T11:32:19Z</time>
      </trkpt>
      <trkpt lat="42.27152" lon="8.89362">
        <ele>1372.6</ele>
        <time>2022-09-11T11:32:22Z</time>
      </trkpt>
      <trkpt lat="42.271493" lon="8.893512">
        <ele>1373.0</ele>
        <time>2022-09-11T11:32:30Z</time>
      </trkpt>
      <trkpt lat="42.271477" lon="8.89343">
        <ele>1373.4</ele>
        <time>2022-09-11T11:32:37Z</time>
      </trkpt>
      <trkpt lat="42.271397" lon="8.893198">
        <ele>1373.6</ele>
        <time>2022-09-11T11:32:56Z</time>
      </trkpt>
      <trkpt lat="42.271388" lon="8.893133">
        <ele>1373.4</ele>
        <time>2022-09-11T11:33:02Z</time>
      </trkpt>
      <trkpt lat="42.271388" lon="8.893093">
        <ele>1373.4</ele>
        <time>2022-09-11T11:33:06Z</time>
      </trkpt>
      <trkpt lat="42.27135" lon="8.893022">
        <ele>1373.4</ele>
        <time>2022-09-11T11:33:12Z</time>
      </trkpt>
      <trkpt lat="42.271277" lon="8.892928">
        <ele>1373.4</ele>
        <time>2022-09-11T11:33:21Z</time>
      </trkpt>
      <trkpt lat="42.271192" lon="8.892762">
        <ele>1373.4</ele>
        <time>2022-09-11T11:33:30Z</time>
      </trkpt>
      <trkpt lat="42.271098" lon="8.892628">
        <ele>1373.2</ele>
        <time>2022-09-11T11:33:38Z</time>
      </trkpt>
      <trkpt lat="42.270995" lon="8.892488">
        <ele>1373.0</ele>
        <time>2022-09-11T11:33:47Z</time>
      </trkpt>
      <trkpt lat="42.270963" lon="8.892433">
        <ele>1373.0</ele>
        <time>2022-09-11T11:33:50Z</time>
      </trkpt>
      <trkpt lat="42.270972" lon="8.892373">
        <ele>1373.4</ele>
        <time>2022-09-11T11:33:56Z</time>
      </trkpt>
      <trkpt lat="42.270945" lon="8.892195">
        <ele>1373.6</ele>
        <time>2022-09-11T11:34:13Z</time>
      </trkpt>
      <trkpt lat="42.27094" lon="8.892037">
        <ele>1374.2</ele>
        <time>2022-09-11T11:34:32Z</time>
      </trkpt>
      <trkpt lat="42.270933" lon="8.89201">
        <ele>1374.2</ele>
        <time>2022-09-11T11:34:35Z</time>
      </trkpt>
      <trkpt lat="42.270788" lon="8.891827">
        <ele>1375.6</ele>
        <time>2022-09-11T11:34:58Z</time>
      </trkpt>
      <trkpt lat="42.270735" lon="8.891687">
        <ele>1375.8</ele>
        <time>2022-09-11T11:35:12Z</time>
      </trkpt>
      <trkpt lat="42.270692" lon="8.89156">
        <ele>1376.0</ele>
        <time>2022-09-11T11:35:19Z</time>
      </trkpt>
      <trkpt lat="42.270638" lon="8.891448">
        <ele>1376.2</ele>
        <time>2022-09-11T11:35:26Z</time>
      </trkpt>
      <trkpt lat="42.270607" lon="8.891375">
        <ele>1376.6</ele>
        <time>2022-09-11T11:35:30Z</time>
      </trkpt>
      <trkpt lat="42.270535" lon="8.891157">
        <ele>1377.4</ele>
        <time>2022-09-11T11:35:43Z</time>
      </trkpt>
      <trkpt lat="42.270497" lon="8.89108">
        <ele>1377.4</ele>
        <time>2022-09-11T11:35:50Z</time>
      </trkpt>
      <trkpt lat="42.270483" lon="8.890985">
        <ele>1377.0</ele>
        <time>2022-09-11T11:35:57Z</time>
      </trkpt>
      <trkpt lat="42.270475" lon="8.890927">
        <ele>1377.6</ele>
        <time>2022-09-11T11:36:01Z</time>
      </trkpt>
      <trkpt lat="42.270455" lon="8.890918">
        <ele>1378.0</ele>
        <time>2022-09-11T11:36:04Z</time>
      </trkpt>
      <trkpt lat="42.270367" lon="8.890912">
        <ele>1378.4</ele>
        <time>2022-09-11T11:36:22Z</time>
      </trkpt>
      <trkpt lat="42.270368" lon="8.890952">
        <ele>1378.8</ele>
        <time>2022-09-11T11:36:37Z</time>
      </trkpt>
      <trkpt lat="42.270363" lon="8.891122">
        <ele>1382.0</ele>
        <time>2022-09-11T11:37:40Z</time>
      </trkpt>
      <trkpt lat="42.270338" lon="8.8912">
        <ele>1382.8</ele>
        <time>2022-09-11T11:37:53Z</time>
      </trkpt>
      <trkpt lat="42.270245" lon="8.891142">
        <ele>1382.8</ele>
        <time>2022-09-11T11:38:09Z</time>
      </trkpt>
      <trkpt lat="42.270185" lon="8.89114">
        <ele>1382.6</ele>
        <time>2022-09-11T11:38:17Z</time>
      </trkpt>
      <trkpt lat="42.270165" lon="8.891128">
        <ele>1382.6</ele>
        <time>2022-09-11T11:38:23Z</time>
      </trkpt>
      <trkpt lat="42.270238" lon="8.89108">
        <ele>1382.8</ele>
        <time>2022-09-11T11:38:55Z</time>
      </trkpt>
      <trkpt lat="42.269442" lon="8.892223">
        <ele>1389.4</ele>
        <time>2022-09-11T11:47:43Z</time>
      </trkpt>
      <trkpt lat="42.269398" lon="8.892285">
        <ele>1390.4</ele>
        <time>2022-09-11T11:47:53Z</time>
      </trkpt>
      <trkpt lat="42.269252" lon="8.892382">
        <ele>1391.2</ele>
        <time>2022-09-11T11:48:10Z</time>
      </trkpt>
      <trkpt lat="42.269243" lon="8.892388">
        <ele>1391.2</ele>
        <time>2022-09-11T11:48:15Z</time>
      </trkpt>
      <trkpt lat="42.26925" lon="8.892398">
        <ele>1391.2</ele>
        <time>2022-09-11T11:48:18Z</time>
      </trkpt>
      <trkpt lat="42.269425" lon="8.892423">
        <ele>1391.6</ele>
        <time>2022-09-11T11:48:39Z</time>
      </trkpt>
      <trkpt lat="42.269468" lon="8.892487">
        <ele>1392.2</ele>
        <time>2022-09-11T11:48:53Z</time>
      </trkpt>
      <trkpt lat="42.269507" lon="8.89256">
        <ele>1393.2</ele>
        <time>2022-09-11T11:49:20Z</time>
      </trkpt>
      <trkpt lat="42.269493" lon="8.892702">
        <ele>1393.6</ele>
        <time>2022-09-11T11:49:38Z</time>
      </trkpt>
      <trkpt lat="42.269485" lon="8.892762">
        <ele>1393.8</ele>
        <time>2022-09-11T11:49:45Z</time>
      </trkpt>
      <trkpt lat="42.269462" lon="8.892885">
        <ele>1394.0</ele>
        <time>2022-09-11T11:50:00Z</time>
      </trkpt>
      <trkpt lat="42.269447" lon="8.892928">
        <ele>1394.4</ele>
        <time>2022-09-11T11:50:05Z</time>
      </trkpt>
      <trkpt lat="42.269407" lon="8.893038">
        <ele>1394.4</ele>
        <time>2022-09-11T11:50:14Z</time>
      </trkpt>
      <trkpt lat="42.269345" lon="8.893143">
        <ele>1394.4</ele>
        <time>2022-09-11T11:50:25Z</time>
      </trkpt>
      <trkpt lat="42.269313" lon="8.893255">
        <ele>1394.8</ele>
        <time>2022-09-11T11:50:34Z</time>
      </trkpt>
      <trkpt lat="42.26927" lon="8.893432">
        <ele>1395.0</ele>
        <time>2022-09-11T11:50:46Z</time>
      </trkpt>
      <trkpt lat="42.269263" lon="8.893445">
        <ele>1395.0</ele>
        <time>2022-09-11T11:50:47Z</time>
      </trkpt>
      <trkpt lat="42.269178" lon="8.89351">
        <ele>1395.2</ele>
        <time>2022-09-11T11:50:59Z</time>
      </trkpt>
      <trkpt lat="42.269057" lon="8.893567">
        <ele>1396.4</ele>
        <time>2022-09-11T11:51:17Z</time>
      </trkpt>
      <trkpt lat="42.26902" lon="8.893602">
        <ele>1396.6</ele>
        <time>2022-09-11T11:51:24Z</time>
      </trkpt>
      <trkpt lat="42.268962" lon="8.893662">
        <ele>1397.0</ele>
        <time>2022-09-11T11:51:36Z</time>
      </trkpt>
      <trkpt lat="42.268958" lon="8.89367">
        <ele>1397.0</ele>
        <time>2022-09-11T11:51:37Z</time>
      </trkpt>
      <trkpt lat="42.268923" lon="8.893717">
        <ele>1397.4</ele>
        <time>2022-09-11T11:51:44Z</time>
      </trkpt>
      <trkpt lat="42.268833" lon="8.893762">
        <ele>1397.2</ele>
        <time>2022-09-11T11:52:03Z</time>
      </trkpt>
      <trkpt lat="42.268817" lon="8.893758">
        <ele>1397.0</ele>
        <time>2022-09-11T11:52:23Z</time>
      </trkpt>
      <trkpt lat="42.268637" lon="8.893695">
        <ele>1398.2</ele>
        <time>2022-09-11T11:52:43Z</time>
      </trkpt>
      <trkpt lat="42.268423" lon="8.893615">
        <ele>1398.2</ele>
        <time>2022-09-11T11:53:04Z</time>
      </trkpt>
      <trkpt lat="42.268358" lon="8.893617">
        <ele>1398.0</ele>
        <time>2022-09-11T11:53:10Z</time>
      </trkpt>
      <trkpt lat="42.268268" lon="8.89355">
        <ele>1397.6</ele>
        <time>2022-09-11T11:53:21Z</time>
      </trkpt>
      <trkpt lat="42.268202" lon="8.893505">
        <ele>1398.4</ele>
        <time>2022-09-11T11:53:27Z</time>
      </trkpt>
      <trkpt lat="42.268188" lon="8.893502">
        <ele>1398.4</ele>
        <time>2022-09-11T11:53:28Z</time>
      </trkpt>
      <trkpt lat="42.268127" lon="8.893522">
        <ele>1398.4</ele>
        <time>2022-09-11T11:53:33Z</time>
      </trkpt>
      <trkpt lat="42.268013" lon="8.89351">
        <ele>1398.0</ele>
        <time>2022-09-11T11:53:43Z</time>
      </trkpt>
      <trkpt lat="42.267903" lon="8.893572">
        <ele>1397.8</ele>
        <time>2022-09-11T11:53:54Z</time>
      </trkpt>
      <trkpt lat="42.267803" lon="8.893618">
        <ele>1397.0</ele>
        <time>2022-09-11T11:54:03Z</time>
      </trkpt>
      <trkpt lat="42.267742" lon="8.893598">
        <ele>1396.8</ele>
        <time>2022-09-11T11:54:09Z</time>
      </trkpt>
      <trkpt lat="42.267653" lon="8.893568">
        <ele>1397.2</ele>
        <time>2022-09-11T11:54:17Z</time>
      </trkpt>
      <trkpt lat="42.267615" lon="8.893588">
        <ele>1397.4</ele>
        <time>2022-09-11T11:54:21Z</time>
      </trkpt>
      <trkpt lat="42.267578" lon="8.893598">
        <ele>1397.4</ele>
        <time>2022-09-11T11:54:25Z</time>
      </trkpt>
      <trkpt lat="42.267503" lon="8.893573">
        <ele>1397.8</ele>
        <time>2022-09-11T11:54:37Z</time>
      </trkpt>
      <trkpt lat="42.267488" lon="8.893578">
        <ele>1398.0</ele>
        <time>2022-09-11T11:54:46Z</time>
      </trkpt>
      <trkpt lat="42.267497" lon="8.893608">
        <ele>1397.8</ele>
        <time>2022-09-11T11:54:55Z</time>
      </trkpt>
      <trkpt lat="42.267498" lon="8.893612">
        <ele>1397.8</ele>
        <time>2022-09-11T11:54:55Z</time>
      </trkpt>
      <trkpt lat="42.267428" lon="8.893648">
        <ele>1397.8</ele>
        <time>2022-09-11T11:55:15Z</time>
      </trkpt>
      <trkpt lat="42.26743" lon="8.893683">
        <ele>1397.8</ele>
        <time>2022-09-11T11:55:45Z</time>
      </trkpt>
      <trkpt lat="42.267385" lon="8.893717">
        <ele>1398.6</ele>
        <time>2022-09-11T11:56:10Z</time>
      </trkpt>
      <trkpt lat="42.267302" lon="8.89376">
        <ele>1399.0</ele>
        <time>2022-09-11T11:56:35Z</time>
      </trkpt>
      <trkpt lat="42.267298" lon="8.893762">
        <ele>1399.0</ele>
        <time>2022-09-11T11:56:36Z</time>
      </trkpt>
      <trkpt lat="42.267237" lon="8.893817">
        <ele>1399.4</ele>
        <time>2022-09-11T11:56:48Z</time>
      </trkpt>
      <trkpt lat="42.267107" lon="8.893863">
        <ele>1399.6</ele>
        <time>2022-09-11T11:57:01Z</time>
      </trkpt>
      <trkpt lat="42.267075" lon="8.893868">
        <ele>1399.4</ele>
        <time>2022-09-11T11:57:04Z</time>
      </trkpt>
      <trkpt lat="42.266877" lon="8.893852">
        <ele>1399.8</ele>
        <time>2022-09-11T11:57:20Z</time>
      </trkpt>
      <trkpt lat="42.266705" lon="8.893827">
        <ele>1399.8</ele>
        <time>2022-09-11T11:57:32Z</time>
      </trkpt>
      <trkpt lat="42.266663" lon="8.89382">
        <ele>1399.8</ele>
        <time>2022-09-11T11:57:36Z</time>
      </trkpt>
      <trkpt lat="42.26659" lon="8.893767">
        <ele>1400.6</ele>
        <time>2022-09-11T11:57:45Z</time>
      </trkpt>
      <trkpt lat="42.266558" lon="8.893768">
        <ele>1401.0</ele>
        <time>2022-09-11T11:57:49Z</time>
      </trkpt>
      <trkpt lat="42.26656" lon="8.893813">
        <ele>1401.0</ele>
        <time>2022-09-11T11:57:57Z</time>
      </trkpt>
      <trkpt lat="42.266565" lon="8.89392">
        <ele>1401.0</ele>
        <time>2022-09-11T11:58:06Z</time>
      </trkpt>
      <trkpt lat="42.26656" lon="8.893947">
        <ele>1401.0</ele>
        <time>2022-09-11T11:58:09Z</time>
      </trkpt>
      <trkpt lat="42.266512" lon="8.89394">
        <ele>1401.2</ele>
        <time>2022-09-11T11:58:14Z</time>
      </trkpt>
      <trkpt lat="42.266443" lon="8.89393">
        <ele>1401.4</ele>
        <time>2022-09-11T11:58:20Z</time>
      </trkpt>
      <trkpt lat="42.266385" lon="8.893935">
        <ele>1401.4</ele>
        <time>2022-09-11T11:58:25Z</time>
      </trkpt>
      <trkpt lat="42.266333" lon="8.893972">
        <ele>1401.4</ele>
        <time>2022-09-11T11:58:30Z</time>
      </trkpt>
      <trkpt lat="42.266255" lon="8.89407">
        <ele>1401.4</ele>
        <time>2022-09-11T11:58:41Z</time>
      </trkpt>
      <trkpt lat="42.266212" lon="8.894115">
        <ele>1401.4</ele>
        <time>2022-09-11T11:58:47Z</time>
      </trkpt>
      <trkpt lat="42.266168" lon="8.894233">
        <ele>1402.0</ele>
        <time>2022-09-11T11:59:06Z</time>
      </trkpt>
      <trkpt lat="42.266157" lon="8.894247">
        <ele>1402.0</ele>
        <time>2022-09-11T11:59:08Z</time>
      </trkpt>
      <trkpt lat="42.266068" lon="8.894227">
        <ele>1402.2</ele>
        <time>2022-09-11T11:59:19Z</time>
      </trkpt>
      <trkpt lat="42.266015" lon="8.894213">
        <ele>1402.0</ele>
        <time>2022-09-11T11:59:31Z</time>
      </trkpt>
      <trkpt lat="42.265965" lon="8.894172">
        <ele>1402.4</ele>
        <time>2022-09-11T11:59:53Z</time>
      </trkpt>
      <trkpt lat="42.26596" lon="8.894167">
        <ele>1402.8</ele>
        <time>2022-09-11T11:59:56Z</time>
      </trkpt>
      <trkpt lat="42.265892" lon="8.894125">
        <ele>1403.0</ele>
        <time>2022-09-11T12:00:05Z</time>
      </trkpt>
      <trkpt lat="42.265858" lon="8.894125">
        <ele>1403.2</ele>
        <time>2022-09-11T12:00:08Z</time>
      </trkpt>
      <trkpt lat="42.265815" lon="8.894147">
        <ele>1403.2</ele>
        <time>2022-09-11T12:00:13Z</time>
      </trkpt>
      <trkpt lat="42.265742" lon="8.894207">
        <ele>1403.2</ele>
        <time>2022-09-11T12:00:20Z</time>
      </trkpt>
      <trkpt lat="42.265728" lon="8.89421">
        <ele>1403.2</ele>
        <time>2022-09-11T12:00:21Z</time>
      </trkpt>
      <trkpt lat="42.265542" lon="8.89419">
        <ele>1403.4</ele>
        <time>2022-09-11T12:00:37Z</time>
      </trkpt>
      <trkpt lat="42.265533" lon="8.8942">
        <ele>1403.4</ele>
        <time>2022-09-11T12:00:37Z</time>
      </trkpt>
      <trkpt lat="42.26544" lon="8.894298">
        <ele>1404.0</ele>
        <time>2022-09-11T12:00:50Z</time>
      </trkpt>
      <trkpt lat="42.26525" lon="8.89444">
        <ele>1405.2</ele>
        <time>2022-09-11T12:01:11Z</time>
      </trkpt>
      <trkpt lat="42.265242" lon="8.89445">
        <ele>1405.4</ele>
        <time>2022-09-11T12:01:12Z</time>
      </trkpt>
      <trkpt lat="42.265213" lon="8.894393">
        <ele>1405.4</ele>
        <time>2022-09-11T12:01:17Z</time>
      </trkpt>
      <trkpt lat="42.26517" lon="8.894335">
        <ele>1405.4</ele>
        <time>2022-09-11T12:01:23Z</time>
      </trkpt>
      <trkpt lat="42.26511" lon="8.894283">
        <ele>1405.4</ele>
        <time>2022-09-11T12:01:30Z</time>
      </trkpt>
      <trkpt lat="42.265062" lon="8.894265">
        <ele>1405.2</ele>
        <time>2022-09-11T12:01:35Z</time>
      </trkpt>
      <trkpt lat="42.26501" lon="8.89429">
        <ele>1405.2</ele>
        <time>2022-09-11T12:01:41Z</time>
      </trkpt>
      <trkpt lat="42.264983" lon="8.894305">
        <ele>1405.0</ele>
        <time>2022-09-11T12:01:44Z</time>
      </trkpt>
      <trkpt lat="42.265015" lon="8.894368">
        <ele>1405.0</ele>
        <time>2022-09-11T12:01:50Z</time>
      </trkpt>
      <trkpt lat="42.265052" lon="8.894552">
        <ele>1404.8</ele>
        <time>2022-09-11T12:02:09Z</time>
      </trkpt>
      <trkpt lat="42.265065" lon="8.8946">
        <ele>1404.6</ele>
        <time>2022-09-11T12:02:14Z</time>
      </trkpt>
      <trkpt lat="42.265092" lon="8.894642">
        <ele>1404.2</ele>
        <time>2022-09-11T12:02:19Z</time>
      </trkpt>
      <trkpt lat="42.265123" lon="8.894672">
        <ele>1404.2</ele>
        <time>2022-09-11T12:02:25Z</time>
      </trkpt>
      <trkpt lat="42.26514" lon="8.89471">
        <ele>1404.6</ele>
        <time>2022-09-11T12:02:30Z</time>
      </trkpt>
      <trkpt lat="42.265135" lon="8.89478">
        <ele>1404.8</ele>
        <time>2022-09-11T12:02:41Z</time>
      </trkpt>
      <trkpt lat="42.265175" lon="8.894855">
        <ele>1403.8</ele>
        <time>2022-09-11T12:03:13Z</time>
      </trkpt>
      <trkpt lat="42.265197" lon="8.894892">
        <ele>1403.2</ele>
        <time>2022-09-11T12:03:48Z</time>
      </trkpt>
      <trkpt lat="42.265223" lon="8.895052">
        <ele>1403.2</ele>
        <time>2022-09-11T12:04:30Z</time>
      </trkpt>
      <trkpt lat="42.265243" lon="8.895332">
        <ele>1403.2</ele>
        <time>2022-09-11T12:04:48Z</time>
      </trkpt>
      <trkpt lat="42.265263" lon="8.895538">
        <ele>1402.8</ele>
        <time>2022-09-11T12:04:59Z</time>
      </trkpt>
      <trkpt lat="42.265265" lon="8.895772">
        <ele>1403.2</ele>
        <time>2022-09-11T12:05:07Z</time>
      </trkpt>
      <trkpt lat="42.26515" lon="8.896003">
        <ele>1404.0</ele>
        <time>2022-09-11T12:05:17Z</time>
      </trkpt>
      <trkpt lat="42.265135" lon="8.89601">
        <ele>1404.2</ele>
        <time>2022-09-11T12:05:19Z</time>
      </trkpt>
      <trkpt lat="42.265075" lon="8.895983">
        <ele>1404.8</ele>
        <time>2022-09-11T12:05:51Z</time>
      </trkpt>
      <trkpt lat="42.26468" lon="8.895627">
        <ele>1411.4</ele>
        <time>2022-09-11T12:09:30Z</time>
      </trkpt>
      <trkpt lat="42.264755" lon="8.895717">
        <ele>1412.2</ele>
        <time>2022-09-11T12:09:39Z</time>
      </trkpt>
      <trkpt lat="42.264762" lon="8.895722">
        <ele>1412.2</ele>
        <time>2022-09-11T12:09:43Z</time>
      </trkpt>
      <trkpt lat="42.264802" lon="8.895667">
        <ele>1414.4</ele>
        <time>2022-09-11T12:09:57Z</time>
      </trkpt>
      <trkpt lat="42.264813" lon="8.895652">
        <ele>1415.0</ele>
        <time>2022-09-11T12:10:01Z</time>
      </trkpt>
      <trkpt lat="42.264803" lon="8.895592">
        <ele>1415.2</ele>
        <time>2022-09-11T12:10:06Z</time>
      </trkpt>
      <trkpt lat="42.264727" lon="8.895388">
        <ele>1416.8</ele>
        <time>2022-09-11T12:10:26Z</time>
      </trkpt>
      <trkpt lat="42.264708" lon="8.895373">
        <ele>1417.4</ele>
        <time>2022-09-11T12:10:30Z</time>
      </trkpt>
      <trkpt lat="42.264695" lon="8.895283">
        <ele>1419.2</ele>
        <time>2022-09-11T12:10:46Z</time>
      </trkpt>
      <trkpt lat="42.264613" lon="8.895093">
        <ele>1420.4</ele>
        <time>2022-09-11T12:11:05Z</time>
      </trkpt>
      <trkpt lat="42.264608" lon="8.89508">
        <ele>1420.8</ele>
        <time>2022-09-11T12:11:07Z</time>
      </trkpt>
      <trkpt lat="42.264637" lon="8.895015">
        <ele>1421.4</ele>
        <time>2022-09-11T12:11:13Z</time>
      </trkpt>
      <trkpt lat="42.26465" lon="8.894935">
        <ele>1422.4</ele>
        <time>2022-09-11T12:11:22Z</time>
      </trkpt>
      <trkpt lat="42.264703" lon="8.894817">
        <ele>1424.2</ele>
        <time>2022-09-11T12:11:46Z</time>
      </trkpt>
      <trkpt lat="42.264727" lon="8.894783">
        <ele>1424.6</ele>
        <time>2022-09-11T12:11:54Z</time>
      </trkpt>
      <trkpt lat="42.264803" lon="8.894753">
        <ele>1426.0</ele>
        <time>2022-09-11T12:12:10Z</time>
      </trkpt>
      <trkpt lat="42.26481" lon="8.894747">
        <ele>1426.0</ele>
        <time>2022-09-11T12:12:11Z</time>
      </trkpt>
      <trkpt lat="42.264548" lon="8.89469">
        <ele>1428.2</ele>
        <time>2022-09-11T12:12:29Z</time>
      </trkpt>
      <trkpt lat="42.264368" lon="8.894663">
        <ele>1429.4</ele>
        <time>2022-09-11T12:12:40Z</time>
      </trkpt>
      <trkpt lat="42.264282" lon="8.89465">
        <ele>1429.6</ele>
        <time>2022-09-11T12:12:45Z</time>
      </trkpt>
      <trkpt lat="42.264182" lon="8.894682">
        <ele>1430.0</ele>
        <time>2022-09-11T12:12:52Z</time>
      </trkpt>
      <trkpt lat="42.264147" lon="8.89455">
        <ele>1431.8</ele>
        <time>2022-09-11T12:13:03Z</time>
      </trkpt>
      <trkpt lat="42.264145" lon="8.894402">
        <ele>1432.6</ele>
        <time>2022-09-11T12:13:13Z</time>
      </trkpt>
      <trkpt lat="42.26416" lon="8.894247">
        <ele>1433.4</ele>
        <time>2022-09-11T12:13:22Z</time>
      </trkpt>
      <trkpt lat="42.264268" lon="8.893955">
        <ele>1435.0</ele>
        <time>2022-09-11T12:13:45Z</time>
      </trkpt>
      <trkpt lat="42.26427" lon="8.893938">
        <ele>1435.4</ele>
        <time>2022-09-11T12:13:47Z</time>
      </trkpt>
      <trkpt lat="42.264268" lon="8.893852">
        <ele>1436.2</ele>
        <time>2022-09-11T12:13:52Z</time>
      </trkpt>
      <trkpt lat="42.264235" lon="8.89376">
        <ele>1436.4</ele>
        <time>2022-09-11T12:13:58Z</time>
      </trkpt>
      <trkpt lat="42.264228" lon="8.893658">
        <ele>1437.2</ele>
        <time>2022-09-11T12:14:05Z</time>
      </trkpt>
      <trkpt lat="42.264222" lon="8.893632">
        <ele>1437.2</ele>
        <time>2022-09-11T12:14:07Z</time>
      </trkpt>
      <trkpt lat="42.264198" lon="8.89357">
        <ele>1437.4</ele>
        <time>2022-09-11T12:14:12Z</time>
      </trkpt>
      <trkpt lat="42.264172" lon="8.893443">
        <ele>1439.8</ele>
        <time>2022-09-11T12:14:32Z</time>
      </trkpt>
      <trkpt lat="42.264172" lon="8.893428">
        <ele>1439.8</ele>
        <time>2022-09-11T12:14:34Z</time>
      </trkpt>
      <trkpt lat="42.264152" lon="8.893362">
        <ele>1441.2</ele>
        <time>2022-09-11T12:14:48Z</time>
      </trkpt>
      <trkpt lat="42.264187" lon="8.89332">
        <ele>1441.6</ele>
        <time>2022-09-11T12:14:53Z</time>
      </trkpt>
      <trkpt lat="42.26423" lon="8.893138">
        <ele>1442.6</ele>
        <time>2022-09-11T12:15:06Z</time>
      </trkpt>
      <trkpt lat="42.264248" lon="8.893058">
        <ele>1442.8</ele>
        <time>2022-09-11T12:15:11Z</time>
      </trkpt>
      <trkpt lat="42.26431" lon="8.892865">
        <ele>1444.0</ele>
        <time>2022-09-11T12:15:23Z</time>
      </trkpt>
      <trkpt lat="42.264365" lon="8.892778">
        <ele>1445.0</ele>
        <time>2022-09-11T12:15:30Z</time>
      </trkpt>
      <trkpt lat="42.264395" lon="8.89283">
        <ele>1445.6</ele>
        <time>2022-09-11T12:15:35Z</time>
      </trkpt>
      <trkpt lat="42.264417" lon="8.892863">
        <ele>1445.6</ele>
        <time>2022-09-11T12:15:40Z</time>
      </trkpt>
      <trkpt lat="42.264545" lon="8.8929">
        <ele>1445.4</ele>
        <time>2022-09-11T12:15:53Z</time>
      </trkpt>
      <trkpt lat="42.2646" lon="8.892885">
        <ele>1445.4</ele>
        <time>2022-09-11T12:15:58Z</time>
      </trkpt>
      <trkpt lat="42.264632" lon="8.892872">
        <ele>1445.6</ele>
        <time>2022-09-11T12:16:01Z</time>
      </trkpt>
      <trkpt lat="42.264693" lon="8.89289">
        <ele>1446.2</ele>
        <time>2022-09-11T12:16:09Z</time>
      </trkpt>
      <trkpt lat="42.264737" lon="8.892905">
        <ele>1446.2</ele>
        <time>2022-09-11T12:16:16Z</time>
      </trkpt>
      <trkpt lat="42.264797" lon="8.892953">
        <ele>1448.4</ele>
        <time>2022-09-11T12:16:32Z</time>
      </trkpt>
      <trkpt lat="42.264817" lon="8.892955">
        <ele>1449.0</ele>
        <time>2022-09-11T12:16:41Z</time>
      </trkpt>
      <trkpt lat="42.264812" lon="8.892943">
        <ele>1449.4</ele>
        <time>2022-09-11T12:16:44Z</time>
      </trkpt>
      <trkpt lat="42.264692" lon="8.89296">
        <ele>1451.8</ele>
        <time>2022-09-11T12:17:07Z</time>
      </trkpt>
      <trkpt lat="42.264563" lon="8.892942">
        <ele>1453.2</ele>
        <time>2022-09-11T12:17:21Z</time>
      </trkpt>
      <trkpt lat="42.264512" lon="8.892933">
        <ele>1453.6</ele>
        <time>2022-09-11T12:17:25Z</time>
      </trkpt>
      <trkpt lat="42.26428" lon="8.892902">
        <ele>1456.2</ele>
        <time>2022-09-11T12:18:00Z</time>
      </trkpt>
      <trkpt lat="42.264193" lon="8.892897">
        <ele>1457.8</ele>
        <time>2022-09-11T12:18:22Z</time>
      </trkpt>
      <trkpt lat="42.264153" lon="8.892898">
        <ele>1458.6</ele>
        <time>2022-09-11T12:18:28Z</time>
      </trkpt>
      <trkpt lat="42.264087" lon="8.89288">
        <ele>1460.0</ele>
        <time>2022-09-11T12:18:38Z</time>
      </trkpt>
      <trkpt lat="42.263992" lon="8.892822">
        <ele>1461.8</ele>
        <time>2022-09-11T12:18:50Z</time>
      </trkpt>
      <trkpt lat="42.263953" lon="8.89282">
        <ele>1462.0</ele>
        <time>2022-09-11T12:18:54Z</time>
      </trkpt>
      <trkpt lat="42.263842" lon="8.892848">
        <ele>1463.0</ele>
        <time>2022-09-11T12:19:06Z</time>
      </trkpt>
      <trkpt lat="42.26375" lon="8.892902">
        <ele>1463.2</ele>
        <time>2022-09-11T12:19:18Z</time>
      </trkpt>
      <trkpt lat="42.263698" lon="8.893043">
        <ele>1466.0</ele>
        <time>2022-09-11T12:19:49Z</time>
      </trkpt>
      <trkpt lat="42.263675" lon="8.893153">
        <ele>1468.2</ele>
        <time>2022-09-11T12:20:00Z</time>
      </trkpt>
      <trkpt lat="42.263688" lon="8.893228">
        <ele>1468.8</ele>
        <time>2022-09-11T12:20:23Z</time>
      </trkpt>
      <trkpt lat="42.26369" lon="8.893268">
        <ele>1469.0</ele>
        <time>2022-09-11T12:20:32Z</time>
      </trkpt>
      <trkpt lat="42.26367" lon="8.893333">
        <ele>1469.8</ele>
        <time>2022-09-11T12:20:40Z</time>
      </trkpt>
      <trkpt lat="42.263665" lon="8.893343">
        <ele>1469.8</ele>
        <time>2022-09-11T12:20:42Z</time>
      </trkpt>
      <trkpt lat="42.26363" lon="8.893417">
        <ele>1471.2</ele>
        <time>2022-09-11T12:20:50Z</time>
      </trkpt>
      <trkpt lat="42.263595" lon="8.893542">
        <ele>1472.2</ele>
        <time>2022-09-11T12:21:04Z</time>
      </trkpt>
      <trkpt lat="42.263575" lon="8.893593">
        <ele>1473.4</ele>
        <time>2022-09-11T12:21:13Z</time>
      </trkpt>
      <trkpt lat="42.263553" lon="8.893633">
        <ele>1474.0</ele>
        <time>2022-09-11T12:21:18Z</time>
      </trkpt>
      <trkpt lat="42.263528" lon="8.893637">
        <ele>1474.2</ele>
        <time>2022-09-11T12:21:22Z</time>
      </trkpt>
      <trkpt lat="42.263513" lon="8.893605">
        <ele>1474.8</ele>
        <time>2022-09-11T12:21:25Z</time>
      </trkpt>
      <trkpt lat="42.263495" lon="8.893483">
        <ele>1476.0</ele>
        <time>2022-09-11T12:21:37Z</time>
      </trkpt>
      <trkpt lat="42.26348" lon="8.89338">
        <ele>1476.6</ele>
        <time>2022-09-11T12:21:48Z</time>
      </trkpt>
      <trkpt lat="42.263475" lon="8.893357">
        <ele>1477.0</ele>
        <time>2022-09-11T12:21:50Z</time>
      </trkpt>
      <trkpt lat="42.26342" lon="8.893155">
        <ele>1478.2</ele>
        <time>2022-09-11T12:22:10Z</time>
      </trkpt>
      <trkpt lat="42.263335" lon="8.893005">
        <ele>1480.0</ele>
        <time>2022-09-11T12:22:25Z</time>
      </trkpt>
      <trkpt lat="42.2633" lon="8.893007">
        <ele>1481.2</ele>
        <time>2022-09-11T12:22:30Z</time>
      </trkpt>
      <trkpt lat="42.263275" lon="8.893068">
        <ele>1483.0</ele>
        <time>2022-09-11T12:22:43Z</time>
      </trkpt>
      <trkpt lat="42.263273" lon="8.89308">
        <ele>1483.0</ele>
        <time>2022-09-11T12:22:43Z</time>
      </trkpt>
      <trkpt lat="42.263225" lon="8.89325">
        <ele>1482.6</ele>
        <time>2022-09-11T12:22:58Z</time>
      </trkpt>
      <trkpt lat="42.263177" lon="8.893435">
        <ele>1483.8</ele>
        <time>2022-09-11T12:23:11Z</time>
      </trkpt>
      <trkpt lat="42.263157" lon="8.8935">
        <ele>1484.2</ele>
        <time>2022-09-11T12:23:16Z</time>
      </trkpt>
      <trkpt lat="42.263155" lon="8.8936">
        <ele>1484.4</ele>
        <time>2022-09-11T12:23:23Z</time>
      </trkpt>
      <trkpt lat="42.263147" lon="8.893612">
        <ele>1484.4</ele>
        <time>2022-09-11T12:23:25Z</time>
      </trkpt>
      <trkpt lat="42.263102" lon="8.893608">
        <ele>1486.6</ele>
        <time>2022-09-11T12:23:36Z</time>
      </trkpt>
      <trkpt lat="42.263103" lon="8.893692">
        <ele>1487.4</ele>
        <time>2022-09-11T12:23:51Z</time>
      </trkpt>
      <trkpt lat="42.263085" lon="8.89375">
        <ele>1490.2</ele>
        <time>2022-09-11T12:24:11Z</time>
      </trkpt>
      <trkpt lat="42.263108" lon="8.893808">
        <ele>1490.8</ele>
        <time>2022-09-11T12:24:17Z</time>
      </trkpt>
      <trkpt lat="42.263138" lon="8.893952">
        <ele>1490.8</ele>
        <time>2022-09-11T12:24:29Z</time>
      </trkpt>
      <trkpt lat="42.263125" lon="8.893985">
        <ele>1491.4</ele>
        <time>2022-09-11T12:24:33Z</time>
      </trkpt>
      <trkpt lat="42.263042" lon="8.894045">
        <ele>1492.2</ele>
        <time>2022-09-11T12:24:42Z</time>
      </trkpt>
      <trkpt lat="42.263013" lon="8.89408">
        <ele>1492.2</ele>
        <time>2022-09-11T12:24:47Z</time>
      </trkpt>
      <trkpt lat="42.262868" lon="8.894113">
        <ele>1496.6</ele>
        <time>2022-09-11T12:25:27Z</time>
      </trkpt>
      <trkpt lat="42.26285" lon="8.894103">
        <ele>1497.2</ele>
        <time>2022-09-11T12:25:31Z</time>
      </trkpt>
      <trkpt lat="42.262815" lon="8.894122">
        <ele>1498.8</ele>
        <time>2022-09-11T12:25:45Z</time>
      </trkpt>
      <trkpt lat="42.262812" lon="8.894163">
        <ele>1499.6</ele>
        <time>2022-09-11T12:25:53Z</time>
      </trkpt>
      <trkpt lat="42.262813" lon="8.894198">
        <ele>1500.2</ele>
        <time>2022-09-11T12:25:59Z</time>
      </trkpt>
      <trkpt lat="42.262793" lon="8.894247">
        <ele>1501.4</ele>
        <time>2022-09-11T12:26:08Z</time>
      </trkpt>
      <trkpt lat="42.2628" lon="8.894358">
        <ele>1502.4</ele>
        <time>2022-09-11T12:26:25Z</time>
      </trkpt>
      <trkpt lat="42.262798" lon="8.894365">
        <ele>1502.6</ele>
        <time>2022-09-11T12:26:27Z</time>
      </trkpt>
      <trkpt lat="42.262655" lon="8.894553">
        <ele>1505.0</ele>
        <time>2022-09-11T12:26:51Z</time>
      </trkpt>
      <trkpt lat="42.262517" lon="8.894585">
        <ele>1506.4</ele>
        <time>2022-09-11T12:27:04Z</time>
      </trkpt>
      <trkpt lat="42.262327" lon="8.894733">
        <ele>1510.2</ele>
        <time>2022-09-11T12:27:31Z</time>
      </trkpt>
      <trkpt lat="42.262302" lon="8.894775">
        <ele>1510.8</ele>
        <time>2022-09-11T12:27:36Z</time>
      </trkpt>
      <trkpt lat="42.262283" lon="8.894827">
        <ele>1512.4</ele>
        <time>2022-09-11T12:27:48Z</time>
      </trkpt>
      <trkpt lat="42.262282" lon="8.89483">
        <ele>1512.4</ele>
        <time>2022-09-11T12:27:49Z</time>
      </trkpt>
      <trkpt lat="42.26221" lon="8.894942">
        <ele>1515.0</ele>
        <time>2022-09-11T12:28:07Z</time>
      </trkpt>
      <trkpt lat="42.262155" lon="8.895053">
        <ele>1516.0</ele>
        <time>2022-09-11T12:28:16Z</time>
      </trkpt>
      <trkpt lat="42.262122" lon="8.895057">
        <ele>1516.6</ele>
        <time>2022-09-11T12:28:19Z</time>
      </trkpt>
      <trkpt lat="42.262103" lon="8.895033">
        <ele>1516.8</ele>
        <time>2022-09-11T12:28:23Z</time>
      </trkpt>
      <trkpt lat="42.26207" lon="8.894962">
        <ele>1517.6</ele>
        <time>2022-09-11T12:28:30Z</time>
      </trkpt>
      <trkpt lat="42.26203" lon="8.89485">
        <ele>1518.4</ele>
        <time>2022-09-11T12:28:40Z</time>
      </trkpt>
      <trkpt lat="42.261997" lon="8.894853">
        <ele>1519.2</ele>
        <time>2022-09-11T12:28:45Z</time>
      </trkpt>
      <trkpt lat="42.261973" lon="8.894898">
        <ele>1519.4</ele>
        <time>2022-09-11T12:28:50Z</time>
      </trkpt>
      <trkpt lat="42.261933" lon="8.89504">
        <ele>1520.8</ele>
        <time>2022-09-11T12:29:15Z</time>
      </trkpt>
      <trkpt lat="42.261928" lon="8.895042">
        <ele>1520.8</ele>
        <time>2022-09-11T12:29:16Z</time>
      </trkpt>
      <trkpt lat="42.261905" lon="8.895067">
        <ele>1522.0</ele>
        <time>2022-09-11T12:29:24Z</time>
      </trkpt>
      <trkpt lat="42.261875" lon="8.895053">
        <ele>1523.4</ele>
        <time>2022-09-11T12:29:42Z</time>
      </trkpt>
      <trkpt lat="42.261785" lon="8.895078">
        <ele>1525.2</ele>
        <time>2022-09-11T12:29:56Z</time>
      </trkpt>
      <trkpt lat="42.261773" lon="8.89508">
        <ele>1525.4</ele>
        <time>2022-09-11T12:29:58Z</time>
      </trkpt>
      <trkpt lat="42.26173" lon="8.895073">
        <ele>1526.6</ele>
        <time>2022-09-11T12:30:03Z</time>
      </trkpt>
      <trkpt lat="42.261615" lon="8.895098">
        <ele>1527.8</ele>
        <time>2022-09-11T12:30:16Z</time>
      </trkpt>
      <trkpt lat="42.261553" lon="8.895107">
        <ele>1528.2</ele>
        <time>2022-09-11T12:30:23Z</time>
      </trkpt>
      <trkpt lat="42.261442" lon="8.895105">
        <ele>1530.4</ele>
        <time>2022-09-11T12:30:37Z</time>
      </trkpt>
      <trkpt lat="42.261388" lon="8.895135">
        <ele>1530.2</ele>
        <time>2022-09-11T12:30:45Z</time>
      </trkpt>
      <trkpt lat="42.261292" lon="8.895232">
        <ele>1531.2</ele>
        <time>2022-09-11T12:31:02Z</time>
      </trkpt>
      <trkpt lat="42.261233" lon="8.895247">
        <ele>1532.8</ele>
        <time>2022-09-11T12:31:12Z</time>
      </trkpt>
      <trkpt lat="42.261217" lon="8.895252">
        <ele>1533.2</ele>
        <time>2022-09-11T12:31:17Z</time>
      </trkpt>
      <trkpt lat="42.26114" lon="8.895287">
        <ele>1534.4</ele>
        <time>2022-09-11T12:31:31Z</time>
      </trkpt>
      <trkpt lat="42.261093" lon="8.895313">
        <ele>1535.4</ele>
        <time>2022-09-11T12:31:39Z</time>
      </trkpt>
      <trkpt lat="42.261085" lon="8.89537">
        <ele>1536.0</ele>
        <time>2022-09-11T12:31:45Z</time>
      </trkpt>
      <trkpt lat="42.261082" lon="8.895405">
        <ele>1537.0</ele>
        <time>2022-09-11T12:31:49Z</time>
      </trkpt>
      <trkpt lat="42.261035" lon="8.89541">
        <ele>1537.8</ele>
        <time>2022-09-11T12:32:03Z</time>
      </trkpt>
      <trkpt lat="42.26096" lon="8.895422">
        <ele>1539.2</ele>
        <time>2022-09-11T12:32:18Z</time>
      </trkpt>
      <trkpt lat="42.260958" lon="8.895365">
        <ele>1540.0</ele>
        <time>2022-09-11T12:32:27Z</time>
      </trkpt>
      <trkpt lat="42.260915" lon="8.89537">
        <ele>1540.6</ele>
        <time>2022-09-11T12:32:34Z</time>
      </trkpt>
      <trkpt lat="42.260863" lon="8.89541">
        <ele>1540.8</ele>
        <time>2022-09-11T12:32:43Z</time>
      </trkpt>
      <trkpt lat="42.260765" lon="8.895435">
        <ele>1543.0</ele>
        <time>2022-09-11T12:33:04Z</time>
      </trkpt>
      <trkpt lat="42.260743" lon="8.89545">
        <ele>1543.0</ele>
        <time>2022-09-11T12:33:09Z</time>
      </trkpt>
      <trkpt lat="42.260837" lon="8.895512">
        <ele>1544.6</ele>
        <time>2022-09-11T12:33:23Z</time>
      </trkpt>
      <trkpt lat="42.260922" lon="8.895593">
        <ele>1545.8</ele>
        <time>2022-09-11T12:33:36Z</time>
      </trkpt>
      <trkpt lat="42.260943" lon="8.895635">
        <ele>1546.8</ele>
        <time>2022-09-11T12:33:43Z</time>
      </trkpt>
      <trkpt lat="42.26097" lon="8.895577">
        <ele>1548.6</ele>
        <time>2022-09-11T12:33:53Z</time>
      </trkpt>
      <trkpt lat="42.26097" lon="8.89557">
        <ele>1549.0</ele>
        <time>2022-09-11T12:33:54Z</time>
      </trkpt>
      <trkpt lat="42.260958" lon="8.895582">
        <ele>1549.4</ele>
        <time>2022-09-11T12:33:56Z</time>
      </trkpt>
      <trkpt lat="42.26087" lon="8.895515">
        <ele>1549.0</ele>
        <time>2022-09-11T12:34:16Z</time>
      </trkpt>
      <trkpt lat="42.260835" lon="8.895538">
        <ele>1549.2</ele>
        <time>2022-09-11T12:34:22Z</time>
      </trkpt>
      <trkpt lat="42.260762" lon="8.895628">
        <ele>1550.6</ele>
        <time>2022-09-11T12:34:38Z</time>
      </trkpt>
      <trkpt lat="42.260757" lon="8.895628">
        <ele>1550.6</ele>
        <time>2022-09-11T12:34:39Z</time>
      </trkpt>
      <trkpt lat="42.26071" lon="8.895637">
        <ele>1552.2</ele>
        <time>2022-09-11T12:34:48Z</time>
      </trkpt>
      <trkpt lat="42.260677" lon="8.89564">
        <ele>1552.0</ele>
        <time>2022-09-11T12:34:55Z</time>
      </trkpt>
      <trkpt lat="42.260682" lon="8.895655">
        <ele>1552.2</ele>
        <time>2022-09-11T12:35:18Z</time>
      </trkpt>
      <trkpt lat="42.260733" lon="8.89567">
        <ele>1552.8</ele>
        <time>2022-09-11T12:35:31Z</time>
      </trkpt>
      <trkpt lat="42.260737" lon="8.895673">
        <ele>1552.8</ele>
        <time>2022-09-11T12:35:32Z</time>
      </trkpt>
      <trkpt lat="42.260788" lon="8.895805">
        <ele>1554.8</ele>
        <time>2022-09-11T12:35:48Z</time>
      </trkpt>
      <trkpt lat="42.260768" lon="8.895788">
        <ele>1556.6</ele>
        <time>2022-09-11T12:36:07Z</time>
      </trkpt>
      <trkpt lat="42.260705" lon="8.895737">
        <ele>1557.2</ele>
        <time>2022-09-11T12:36:21Z</time>
      </trkpt>
      <trkpt lat="42.260677" lon="8.895698">
        <ele>1557.4</ele>
        <time>2022-09-11T12:36:28Z</time>
      </trkpt>
      <trkpt lat="42.260645" lon="8.895698">
        <ele>1558.0</ele>
        <time>2022-09-11T12:36:42Z</time>
      </trkpt>
      <trkpt lat="42.260623" lon="8.895735">
        <ele>1558.6</ele>
        <time>2022-09-11T12:36:49Z</time>
      </trkpt>
      <trkpt lat="42.260612" lon="8.89588">
        <ele>1560.0</ele>
        <time>2022-09-11T12:37:32Z</time>
      </trkpt>
      <trkpt lat="42.26058" lon="8.896022">
        <ele>1561.2</ele>
        <time>2022-09-11T12:37:53Z</time>
      </trkpt>
      <trkpt lat="42.260518" lon="8.896148">
        <ele>1562.0</ele>
        <time>2022-09-11T12:38:23Z</time>
      </trkpt>
      <trkpt lat="42.260465" lon="8.896095">
        <ele>1562.8</ele>
        <time>2022-09-11T12:38:32Z</time>
      </trkpt>
      <trkpt lat="42.260342" lon="8.896023">
        <ele>1565.0</ele>
        <time>2022-09-11T12:38:42Z</time>
      </trkpt>
      <trkpt lat="42.260343" lon="8.896018">
        <ele>1565.0</ele>
        <time>2022-09-11T12:38:42Z</time>
      </trkpt>
      <trkpt lat="42.260372" lon="8.89594">
        <ele>1564.4</ele>
        <time>2022-09-11T12:38:51Z</time>
      </trkpt>
      <trkpt lat="42.260405" lon="8.895872">
        <ele>1564.8</ele>
        <time>2022-09-11T12:38:57Z</time>
      </trkpt>
      <trkpt lat="42.260405" lon="8.89584">
        <ele>1565.0</ele>
        <time>2022-09-11T12:38:59Z</time>
      </trkpt>
      <trkpt lat="42.260388" lon="8.895785">
        <ele>1565.2</ele>
        <time>2022-09-11T12:39:03Z</time>
      </trkpt>
      <trkpt lat="42.260365" lon="8.895747">
        <ele>1565.6</ele>
        <time>2022-09-11T12:39:05Z</time>
      </trkpt>
      <trkpt lat="42.26035" lon="8.89573">
        <ele>1566.0</ele>
        <time>2022-09-11T12:39:06Z</time>
      </trkpt>
      <trkpt lat="42.26033" lon="8.895732">
        <ele>1566.0</ele>
        <time>2022-09-11T12:39:06Z</time>
      </trkpt>
      <trkpt lat="42.26031" lon="8.895745">
        <ele>1566.0</ele>
        <time>2022-09-11T12:39:07Z</time>
      </trkpt>
      <trkpt lat="42.260153" lon="8.895892">
        <ele>1567.0</ele>
        <time>2022-09-11T12:39:24Z</time>
      </trkpt>
      <trkpt lat="42.260145" lon="8.895898">
        <ele>1567.0</ele>
        <time>2022-09-11T12:39:25Z</time>
      </trkpt>
      <trkpt lat="42.260238" lon="8.896065">
        <ele>1568.2</ele>
        <time>2022-09-11T12:39:36Z</time>
      </trkpt>
      <trkpt lat="42.26031" lon="8.896378">
        <ele>1569.6</ele>
        <time>2022-09-11T12:39:51Z</time>
      </trkpt>
      <trkpt lat="42.260317" lon="8.896483">
        <ele>1570.4</ele>
        <time>2022-09-11T12:39:56Z</time>
      </trkpt>
      <trkpt lat="42.260313" lon="8.896557">
        <ele>1571.0</ele>
        <time>2022-09-11T12:40:01Z</time>
      </trkpt>
      <trkpt lat="42.260292" lon="8.896603">
        <ele>1571.4</ele>
        <time>2022-09-11T12:40:06Z</time>
      </trkpt>
      <trkpt lat="42.260268" lon="8.896632">
        <ele>1571.8</ele>
        <time>2022-09-11T12:40:10Z</time>
      </trkpt>
      <trkpt lat="42.260207" lon="8.896643">
        <ele>1572.4</ele>
        <time>2022-09-11T12:40:18Z</time>
      </trkpt>
      <trkpt lat="42.260182" lon="8.896667">
        <ele>1573.2</ele>
        <time>2022-09-11T12:40:23Z</time>
      </trkpt>
      <trkpt lat="42.260167" lon="8.89673">
        <ele>1574.0</ele>
        <time>2022-09-11T12:40:34Z</time>
      </trkpt>
      <trkpt lat="42.260088" lon="8.896793">
        <ele>1575.6</ele>
        <time>2022-09-11T12:40:50Z</time>
      </trkpt>
      <trkpt lat="42.260007" lon="8.896822">
        <ele>1577.4</ele>
        <time>2022-09-11T12:41:01Z</time>
      </trkpt>
      <trkpt lat="42.25999" lon="8.89682">
        <ele>1577.4</ele>
        <time>2022-09-11T12:41:03Z</time>
      </trkpt>
      <trkpt lat="42.259945" lon="8.89682">
        <ele>1577.0</ele>
        <time>2022-09-11T12:41:07Z</time>
      </trkpt>
      <trkpt lat="42.25992" lon="8.89685">
        <ele>1577.6</ele>
        <time>2022-09-11T12:41:12Z</time>
      </trkpt>
      <trkpt lat="42.2599" lon="8.896928">
        <ele>1578.6</ele>
        <time>2022-09-11T12:41:21Z</time>
      </trkpt>
      <trkpt lat="42.259928" lon="8.896985">
        <ele>1579.6</ele>
        <time>2022-09-11T12:41:29Z</time>
      </trkpt>
      <trkpt lat="42.25998" lon="8.897018">
        <ele>1579.6</ele>
        <time>2022-09-11T12:41:37Z</time>
      </trkpt>
      <trkpt lat="42.260032" lon="8.89708">
        <ele>1580.8</ele>
        <time>2022-09-11T12:41:52Z</time>
      </trkpt>
      <trkpt lat="42.26004" lon="8.897122">
        <ele>1581.0</ele>
        <time>2022-09-11T12:41:57Z</time>
      </trkpt>
      <trkpt lat="42.260007" lon="8.89716">
        <ele>1581.6</ele>
        <time>2022-09-11T12:42:02Z</time>
      </trkpt>
      <trkpt lat="42.259907" lon="8.897245">
        <ele>1584.4</ele>
        <time>2022-09-11T12:42:15Z</time>
      </trkpt>
      <trkpt lat="42.259845" lon="8.897282">
        <ele>1584.8</ele>
        <time>2022-09-11T12:42:24Z</time>
      </trkpt>
      <trkpt lat="42.25981" lon="8.897328">
        <ele>1586.2</ele>
        <time>2022-09-11T12:42:31Z</time>
      </trkpt>
      <trkpt lat="42.259795" lon="8.89739">
        <ele>1587.4</ele>
        <time>2022-09-11T12:42:40Z</time>
      </trkpt>
      <trkpt lat="42.259798" lon="8.897427">
        <ele>1587.4</ele>
        <time>2022-09-11T12:42:44Z</time>
      </trkpt>
      <trkpt lat="42.259797" lon="8.897557">
        <ele>1588.0</ele>
        <time>2022-09-11T12:42:59Z</time>
      </trkpt>
      <trkpt lat="42.25973" lon="8.897753">
        <ele>1590.0</ele>
        <time>2022-09-11T12:43:19Z</time>
      </trkpt>
      <trkpt lat="42.259707" lon="8.897797">
        <ele>1590.0</ele>
        <time>2022-09-11T12:43:24Z</time>
      </trkpt>
      <trkpt lat="42.259672" lon="8.897892">
        <ele>1591.2</ele>
        <time>2022-09-11T12:43:37Z</time>
      </trkpt>
      <trkpt lat="42.259637" lon="8.89794">
        <ele>1592.0</ele>
        <time>2022-09-11T12:43:44Z</time>
      </trkpt>
      <trkpt lat="42.259595" lon="8.897973">
        <ele>1593.2</ele>
        <time>2022-09-11T12:43:51Z</time>
      </trkpt>
      <trkpt lat="42.259588" lon="8.897998">
        <ele>1593.4</ele>
        <time>2022-09-11T12:43:55Z</time>
      </trkpt>
      <trkpt lat="42.259605" lon="8.898083">
        <ele>1594.6</ele>
        <time>2022-09-11T12:44:06Z</time>
      </trkpt>
      <trkpt lat="42.259597" lon="8.898118">
        <ele>1594.6</ele>
        <time>2022-09-11T12:44:09Z</time>
      </trkpt>
      <trkpt lat="42.259592" lon="8.898128">
        <ele>1594.8</ele>
        <time>2022-09-11T12:44:10Z</time>
      </trkpt>
      <trkpt lat="42.259573" lon="8.898183">
        <ele>1595.8</ele>
        <time>2022-09-11T12:44:15Z</time>
      </trkpt>
      <trkpt lat="42.259512" lon="8.898188">
        <ele>1596.6</ele>
        <time>2022-09-11T12:44:22Z</time>
      </trkpt>
      <trkpt lat="42.259473" lon="8.898187">
        <ele>1598.2</ele>
        <time>2022-09-11T12:44:49Z</time>
      </trkpt>
      <trkpt lat="42.259455" lon="8.898195">
        <ele>1598.8</ele>
        <time>2022-09-11T12:44:57Z</time>
      </trkpt>
      <trkpt lat="42.259447" lon="8.898203">
        <ele>1599.2</ele>
        <time>2022-09-11T12:45:08Z</time>
      </trkpt>
      <trkpt lat="42.259435" lon="8.898273">
        <ele>1600.0</ele>
        <time>2022-09-11T12:45:15Z</time>
      </trkpt>
      <trkpt lat="42.259423" lon="8.898392">
        <ele>1600.6</ele>
        <time>2022-09-11T12:45:21Z</time>
      </trkpt>
      <trkpt lat="42.259447" lon="8.898427">
        <ele>1601.6</ele>
        <time>2022-09-11T12:45:37Z</time>
      </trkpt>
      <trkpt lat="42.259445" lon="8.89834">
        <ele>1601.4</ele>
        <time>2022-09-11T12:45:57Z</time>
      </trkpt>
      <trkpt lat="42.259435" lon="8.898325">
        <ele>1601.6</ele>
        <time>2022-09-11T12:45:58Z</time>
      </trkpt>
      <trkpt lat="42.259372" lon="8.89835">
        <ele>1602.4</ele>
        <time>2022-09-11T12:46:39Z</time>
      </trkpt>
      <trkpt lat="42.259337" lon="8.898405">
        <ele>1602.8</ele>
        <time>2022-09-11T12:46:51Z</time>
      </trkpt>
      <trkpt lat="42.259293" lon="8.898538">
        <ele>1603.6</ele>
        <time>2022-09-11T12:47:20Z</time>
      </trkpt>
      <trkpt lat="42.259273" lon="8.898583">
        <ele>1603.8</ele>
        <time>2022-09-11T12:47:25Z</time>
      </trkpt>
      <trkpt lat="42.259197" lon="8.898693">
        <ele>1604.4</ele>
        <time>2022-09-11T12:47:38Z</time>
      </trkpt>
      <trkpt lat="42.259157" lon="8.898738">
        <ele>1606.2</ele>
        <time>2022-09-11T12:47:44Z</time>
      </trkpt>
      <trkpt lat="42.25913" lon="8.89882">
        <ele>1606.6</ele>
        <time>2022-09-11T12:47:50Z</time>
      </trkpt>
      <trkpt lat="42.259093" lon="8.898968">
        <ele>1606.4</ele>
        <time>2022-09-11T12:48:01Z</time>
      </trkpt>
      <trkpt lat="42.259077" lon="8.899015">
        <ele>1606.6</ele>
        <time>2022-09-11T12:48:06Z</time>
      </trkpt>
      <trkpt lat="42.25905" lon="8.899152">
        <ele>1606.8</ele>
        <time>2022-09-11T12:48:19Z</time>
      </trkpt>
      <trkpt lat="42.259098" lon="8.899297">
        <ele>1607.6</ele>
        <time>2022-09-11T12:48:29Z</time>
      </trkpt>
      <trkpt lat="42.259117" lon="8.899378">
        <ele>1608.0</ele>
        <time>2022-09-11T12:48:34Z</time>
      </trkpt>
      <trkpt lat="42.25908" lon="8.899552">
        <ele>1609.4</ele>
        <time>2022-09-11T12:48:46Z</time>
      </trkpt>
      <trkpt lat="42.259" lon="8.899598">
        <ele>1610.2</ele>
        <time>2022-09-11T12:48:57Z</time>
      </trkpt>
      <trkpt lat="42.258867" lon="8.89959">
        <ele>1611.8</ele>
        <time>2022-09-11T12:49:11Z</time>
      </trkpt>
      <trkpt lat="42.258807" lon="8.899737">
        <ele>1613.8</ele>
        <time>2022-09-11T12:49:36Z</time>
      </trkpt>
      <trkpt lat="42.25878" lon="8.89975">
        <ele>1614.4</ele>
        <time>2022-09-11T12:49:42Z</time>
      </trkpt>
      <trkpt lat="42.258725" lon="8.899875">
        <ele>1616.2</ele>
        <time>2022-09-11T12:49:55Z</time>
      </trkpt>
      <trkpt lat="42.258633" lon="8.900098">
        <ele>1618.4</ele>
        <time>2022-09-11T12:50:17Z</time>
      </trkpt>
      <trkpt lat="42.258615" lon="8.900162">
        <ele>1619.6</ele>
        <time>2022-09-11T12:50:27Z</time>
      </trkpt>
      <trkpt lat="42.258592" lon="8.900262">
        <ele>1619.4</ele>
        <time>2022-09-11T12:50:47Z</time>
      </trkpt>
      <trkpt lat="42.258535" lon="8.900435">
        <ele>1619.4</ele>
        <time>2022-09-11T12:50:59Z</time>
      </trkpt>
      <trkpt lat="42.258478" lon="8.900537">
        <ele>1620.4</ele>
        <time>2022-09-11T12:51:17Z</time>
      </trkpt>
      <trkpt lat="42.258477" lon="8.900542">
        <ele>1620.4</ele>
        <time>2022-09-11T12:51:19Z</time>
      </trkpt>
      <trkpt lat="42.258532" lon="8.900417">
        <ele>1623.8</ele>
        <time>2022-09-11T12:52:01Z</time>
      </trkpt>
      <trkpt lat="42.258358" lon="8.900733">
        <ele>1626.0</ele>
        <time>2022-09-11T12:52:21Z</time>
      </trkpt>
      <trkpt lat="42.258115" lon="8.901152">
        <ele>1627.8</ele>
        <time>2022-09-11T12:52:43Z</time>
      </trkpt>
      <trkpt lat="42.258055" lon="8.901348">
        <ele>1630.4</ele>
        <time>2022-09-11T12:53:03Z</time>
      </trkpt>
      <trkpt lat="42.25804" lon="8.901443">
        <ele>1631.8</ele>
        <time>2022-09-11T12:53:14Z</time>
      </trkpt>
      <trkpt lat="42.258023" lon="8.90148">
        <ele>1632.0</ele>
        <time>2022-09-11T12:53:18Z</time>
      </trkpt>
      <trkpt lat="42.258012" lon="8.901572">
        <ele>1632.8</ele>
        <time>2022-09-11T12:53:27Z</time>
      </trkpt>
      <trkpt lat="42.258015" lon="8.901643">
        <ele>1633.6</ele>
        <time>2022-09-11T12:53:35Z</time>
      </trkpt>
      <trkpt lat="42.258028" lon="8.901668">
        <ele>1634.2</ele>
        <time>2022-09-11T12:53:39Z</time>
      </trkpt>
      <trkpt lat="42.25804" lon="8.901695">
        <ele>1634.6</ele>
        <time>2022-09-11T12:53:43Z</time>
      </trkpt>
      <trkpt lat="42.258018" lon="8.901743">
        <ele>1635.4</ele>
        <time>2022-09-11T12:53:49Z</time>
      </trkpt>
      <trkpt lat="42.258042" lon="8.901897">
        <ele>1636.4</ele>
        <time>2022-09-11T12:54:09Z</time>
      </trkpt>
      <trkpt lat="42.258073" lon="8.901962">
        <ele>1638.4</ele>
        <time>2022-09-11T12:54:37Z</time>
      </trkpt>
      <trkpt lat="42.258082" lon="8.901993">
        <ele>1638.6</ele>
        <time>2022-09-11T12:54:42Z</time>
      </trkpt>
      <trkpt lat="42.258053" lon="8.9021">
        <ele>1639.0</ele>
        <time>2022-09-11T12:54:51Z</time>
      </trkpt>
      <trkpt lat="42.258015" lon="8.90218">
        <ele>1639.4</ele>
        <time>2022-09-11T12:54:57Z</time>
      </trkpt>
      <trkpt lat="42.257965" lon="8.902248">
        <ele>1639.4</ele>
        <time>2022-09-11T12:55:04Z</time>
      </trkpt>
      <trkpt lat="42.257872" lon="8.90233">
        <ele>1640.2</ele>
        <time>2022-09-11T12:55:16Z</time>
      </trkpt>
      <trkpt lat="42.25771" lon="8.902442">
        <ele>1644.2</ele>
        <time>2022-09-11T12:56:00Z</time>
      </trkpt>
      <trkpt lat="42.257655" lon="8.90251">
        <ele>1644.6</ele>
        <time>2022-09-11T12:56:10Z</time>
      </trkpt>
      <trkpt lat="42.257582" lon="8.902632">
        <ele>1645.2</ele>
        <time>2022-09-11T12:56:17Z</time>
      </trkpt>
      <trkpt lat="42.257535" lon="8.90273">
        <ele>1645.6</ele>
        <time>2022-09-11T12:56:22Z</time>
      </trkpt>
      <trkpt lat="42.257472" lon="8.902892">
        <ele>1646.0</ele>
        <time>2022-09-11T12:56:30Z</time>
      </trkpt>
      <trkpt lat="42.257355" lon="8.903095">
        <ele>1646.2</ele>
        <time>2022-09-11T12:56:43Z</time>
      </trkpt>
      <trkpt lat="42.257328" lon="8.903157">
        <ele>1646.6</ele>
        <time>2022-09-11T12:56:47Z</time>
      </trkpt>
      <trkpt lat="42.257275" lon="8.903168">
        <ele>1646.6</ele>
        <time>2022-09-11T12:56:52Z</time>
      </trkpt>
      <trkpt lat="42.257142" lon="8.903177">
        <ele>1647.8</ele>
        <time>2022-09-11T12:57:05Z</time>
      </trkpt>
      <trkpt lat="42.257092" lon="8.903177">
        <ele>1648.0</ele>
        <time>2022-09-11T12:57:10Z</time>
      </trkpt>
      <trkpt lat="42.257002" lon="8.903208">
        <ele>1649.2</ele>
        <time>2022-09-11T12:57:22Z</time>
      </trkpt>
      <trkpt lat="42.256967" lon="8.90323">
        <ele>1649.2</ele>
        <time>2022-09-11T12:57:30Z</time>
      </trkpt>
      <trkpt lat="42.256938" lon="8.903288">
        <ele>1649.2</ele>
        <time>2022-09-11T12:57:35Z</time>
      </trkpt>
      <trkpt lat="42.256873" lon="8.90334">
        <ele>1649.2</ele>
        <time>2022-09-11T12:57:41Z</time>
      </trkpt>
      <trkpt lat="42.256777" lon="8.903393">
        <ele>1649.6</ele>
        <time>2022-09-11T12:57:49Z</time>
      </trkpt>
      <trkpt lat="42.256642" lon="8.903423">
        <ele>1649.6</ele>
        <time>2022-09-11T12:57:59Z</time>
      </trkpt>
      <trkpt lat="42.256587" lon="8.903467">
        <ele>1649.8</ele>
        <time>2022-09-11T12:58:04Z</time>
      </trkpt>
      <trkpt lat="42.256535" lon="8.903508">
        <ele>1649.8</ele>
        <time>2022-09-11T12:58:10Z</time>
      </trkpt>
      <trkpt lat="42.256453" lon="8.903572">
        <ele>1650.2</ele>
        <time>2022-09-11T12:58:23Z</time>
      </trkpt>
      <trkpt lat="42.256373" lon="8.903625">
        <ele>1651.8</ele>
        <time>2022-09-11T12:58:48Z</time>
      </trkpt>
      <trkpt lat="42.256368" lon="8.90363">
        <ele>1651.8</ele>
        <time>2022-09-11T12:58:49Z</time>
      </trkpt>
      <trkpt lat="42.25633" lon="8.903672">
        <ele>1652.6</ele>
        <time>2022-09-11T12:58:57Z</time>
      </trkpt>
      <trkpt lat="42.256288" lon="8.903713">
        <ele>1652.6</ele>
        <time>2022-09-11T12:59:04Z</time>
      </trkpt>
      <trkpt lat="42.256247" lon="8.90379">
        <ele>1653.2</ele>
        <time>2022-09-11T12:59:16Z</time>
      </trkpt>
      <trkpt lat="42.256192" lon="8.903897">
        <ele>1654.8</ele>
        <time>2022-09-11T12:59:38Z</time>
      </trkpt>
      <trkpt lat="42.256182" lon="8.903955">
        <ele>1656.0</ele>
        <time>2022-09-11T12:59:45Z</time>
      </trkpt>
      <trkpt lat="42.256177" lon="8.90396">
        <ele>1656.2</ele>
        <time>2022-09-11T12:59:47Z</time>
      </trkpt>
      <trkpt lat="42.25615" lon="8.903988">
        <ele>1656.4</ele>
        <time>2022-09-11T12:59:53Z</time>
      </trkpt>
      <trkpt lat="42.256118" lon="8.904012">
        <ele>1657.6</ele>
        <time>2022-09-11T13:00:00Z</time>
      </trkpt>
      <trkpt lat="42.256113" lon="8.904052">
        <ele>1658.8</ele>
        <time>2022-09-11T13:00:08Z</time>
      </trkpt>
      <trkpt lat="42.256097" lon="8.904112">
        <ele>1659.2</ele>
        <time>2022-09-11T13:00:15Z</time>
      </trkpt>
      <trkpt lat="42.256088" lon="8.904128">
        <ele>1659.2</ele>
        <time>2022-09-11T13:00:18Z</time>
      </trkpt>
      <trkpt lat="42.256033" lon="8.904217">
        <ele>1660.4</ele>
        <time>2022-09-11T13:00:27Z</time>
      </trkpt>
      <trkpt lat="42.255995" lon="8.904288">
        <ele>1660.8</ele>
        <time>2022-09-11T13:00:38Z</time>
      </trkpt>
      <trkpt lat="42.255982" lon="8.90436">
        <ele>1661.2</ele>
        <time>2022-09-11T13:00:47Z</time>
      </trkpt>
      <trkpt lat="42.255992" lon="8.904463">
        <ele>1661.4</ele>
        <time>2022-09-11T13:00:57Z</time>
      </trkpt>
      <trkpt lat="42.255998" lon="8.90451">
        <ele>1661.4</ele>
        <time>2022-09-11T13:01:01Z</time>
      </trkpt>
      <trkpt lat="42.255978" lon="8.904578">
        <ele>1662.0</ele>
        <time>2022-09-11T13:01:09Z</time>
      </trkpt>
      <trkpt lat="42.255967" lon="8.904653">
        <ele>1662.4</ele>
        <time>2022-09-11T13:01:17Z</time>
      </trkpt>
      <trkpt lat="42.255902" lon="8.904783">
        <ele>1661.4</ele>
        <time>2022-09-11T13:01:40Z</time>
      </trkpt>
      <trkpt lat="42.25588" lon="8.904868">
        <ele>1662.0</ele>
        <time>2022-09-11T13:02:07Z</time>
      </trkpt>
      <trkpt lat="42.255878" lon="8.904873">
        <ele>1662.2</ele>
        <time>2022-09-11T13:02:10Z</time>
      </trkpt>
      <trkpt lat="42.25586" lon="8.904958">
        <ele>1662.6</ele>
        <time>2022-09-11T13:02:17Z</time>
      </trkpt>
      <trkpt lat="42.25583" lon="8.905058">
        <ele>1663.4</ele>
        <time>2022-09-11T13:02:24Z</time>
      </trkpt>
      <trkpt lat="42.255835" lon="8.905183">
        <ele>1664.4</ele>
        <time>2022-09-11T13:02:33Z</time>
      </trkpt>
      <trkpt lat="42.255847" lon="8.905255">
        <ele>1664.6</ele>
        <time>2022-09-11T13:02:39Z</time>
      </trkpt>
      <trkpt lat="42.255892" lon="8.905363">
        <ele>1665.0</ele>
        <time>2022-09-11T13:02:50Z</time>
      </trkpt>
      <trkpt lat="42.255887" lon="8.905403">
        <ele>1665.2</ele>
        <time>2022-09-11T13:02:54Z</time>
      </trkpt>
      <trkpt lat="42.255862" lon="8.905458">
        <ele>1665.8</ele>
        <time>2022-09-11T13:03:00Z</time>
      </trkpt>
      <trkpt lat="42.255852" lon="8.905565">
        <ele>1666.2</ele>
        <time>2022-09-11T13:03:10Z</time>
      </trkpt>
      <trkpt lat="42.255863" lon="8.90567">
        <ele>1666.6</ele>
        <time>2022-09-11T13:03:21Z</time>
      </trkpt>
      <trkpt lat="42.255843" lon="8.905842">
        <ele>1667.8</ele>
        <time>2022-09-11T13:03:38Z</time>
      </trkpt>
      <trkpt lat="42.255822" lon="8.905912">
        <ele>1668.2</ele>
        <time>2022-09-11T13:03:45Z</time>
      </trkpt>
      <trkpt lat="42.255822" lon="8.906012">
        <ele>1668.8</ele>
        <time>2022-09-11T13:03:55Z</time>
      </trkpt>
      <trkpt lat="42.255792" lon="8.90609">
        <ele>1669.8</ele>
        <time>2022-09-11T13:04:05Z</time>
      </trkpt>
      <trkpt lat="42.255788" lon="8.906097">
        <ele>1669.8</ele>
        <time>2022-09-11T13:04:05Z</time>
      </trkpt>
      <trkpt lat="42.255802" lon="8.90619">
        <ele>1670.8</ele>
        <time>2022-09-11T13:04:15Z</time>
      </trkpt>
      <trkpt lat="42.255832" lon="8.906277">
        <ele>1671.8</ele>
        <time>2022-09-11T13:04:33Z</time>
      </trkpt>
      <trkpt lat="42.255897" lon="8.906435">
        <ele>1672.6</ele>
        <time>2022-09-11T13:04:56Z</time>
      </trkpt>
      <trkpt lat="42.255877" lon="8.906493">
        <ele>1673.4</ele>
        <time>2022-09-11T13:05:04Z</time>
      </trkpt>
      <trkpt lat="42.25588" lon="8.90662">
        <ele>1674.6</ele>
        <time>2022-09-11T13:05:18Z</time>
      </trkpt>
      <trkpt lat="42.255957" lon="8.906767">
        <ele>1677.0</ele>
        <time>2022-09-11T13:05:40Z</time>
      </trkpt>
      <trkpt lat="42.25596" lon="8.906775">
        <ele>1677.2</ele>
        <time>2022-09-11T13:05:41Z</time>
      </trkpt>
      <trkpt lat="42.255998" lon="8.906832">
        <ele>1678.0</ele>
        <time>2022-09-11T13:05:50Z</time>
      </trkpt>
      <trkpt lat="42.256025" lon="8.906878">
        <ele>1678.0</ele>
        <time>2022-09-11T13:05:57Z</time>
      </trkpt>
      <trkpt lat="42.256062" lon="8.906975">
        <ele>1678.2</ele>
        <time>2022-09-11T13:06:09Z</time>
      </trkpt>
      <trkpt lat="42.256063" lon="8.90698">
        <ele>1678.2</ele>
        <time>2022-09-11T13:06:10Z</time>
      </trkpt>
      <trkpt lat="42.256083" lon="8.906993">
        <ele>1679.4</ele>
        <time>2022-09-11T13:06:18Z</time>
      </trkpt>
      <trkpt lat="42.25612" lon="8.90701">
        <ele>1679.6</ele>
        <time>2022-09-11T13:06:27Z</time>
      </trkpt>
      <trkpt lat="42.256225" lon="8.907127">
        <ele>1680.0</ele>
        <time>2022-09-11T13:06:51Z</time>
      </trkpt>
      <trkpt lat="42.256237" lon="8.907145">
        <ele>1680.0</ele>
        <time>2022-09-11T13:06:54Z</time>
      </trkpt>
      <trkpt lat="42.25619" lon="8.907287">
        <ele>1681.0</ele>
        <time>2022-09-11T13:07:08Z</time>
      </trkpt>
      <trkpt lat="42.256155" lon="8.907415">
        <ele>1682.2</ele>
        <time>2022-09-11T13:07:20Z</time>
      </trkpt>
      <trkpt lat="42.256132" lon="8.907478">
        <ele>1682.6</ele>
        <time>2022-09-11T13:07:26Z</time>
      </trkpt>
      <trkpt lat="42.256087" lon="8.907568">
        <ele>1682.8</ele>
        <time>2022-09-11T13:07:34Z</time>
      </trkpt>
      <trkpt lat="42.256075" lon="8.907592">
        <ele>1683.0</ele>
        <time>2022-09-11T13:07:37Z</time>
      </trkpt>
      <trkpt lat="42.256038" lon="8.907638">
        <ele>1683.0</ele>
        <time>2022-09-11T13:07:45Z</time>
      </trkpt>
      <trkpt lat="42.256038" lon="8.907665">
        <ele>1683.0</ele>
        <time>2022-09-11T13:07:48Z</time>
      </trkpt>
      <trkpt lat="42.25607" lon="8.90771">
        <ele>1682.0</ele>
        <time>2022-09-11T13:08:11Z</time>
      </trkpt>
      <trkpt lat="42.256052" lon="8.907748">
        <ele>1682.2</ele>
        <time>2022-09-11T13:08:20Z</time>
      </trkpt>
      <trkpt lat="42.256042" lon="8.907762">
        <ele>1682.6</ele>
        <time>2022-09-11T13:08:24Z</time>
      </trkpt>
      <trkpt lat="42.256032" lon="8.907805">
        <ele>1682.8</ele>
        <time>2022-09-11T13:08:35Z</time>
      </trkpt>
      <trkpt lat="42.256017" lon="8.907833">
        <ele>1682.2</ele>
        <time>2022-09-11T13:08:40Z</time>
      </trkpt>
      <trkpt lat="42.255997" lon="8.90798">
        <ele>1682.4</ele>
        <time>2022-09-11T13:08:57Z</time>
      </trkpt>
      <trkpt lat="42.256113" lon="8.908067">
        <ele>1678.8</ele>
        <time>2022-09-11T13:09:25Z</time>
      </trkpt>
      <trkpt lat="42.256082" lon="8.908107">
        <ele>1678.0</ele>
        <time>2022-09-11T13:09:31Z</time>
      </trkpt>
      <trkpt lat="42.256092" lon="8.908023">
        <ele>1680.2</ele>
        <time>2022-09-11T13:10:24Z</time>
      </trkpt>
      <trkpt lat="42.256093" lon="8.907972">
        <ele>1681.0</ele>
        <time>2022-09-11T13:10:30Z</time>
      </trkpt>
      <trkpt lat="42.256257" lon="8.907613">
        <ele>1683.8</ele>
        <time>2022-09-11T13:10:59Z</time>
      </trkpt>
      <trkpt lat="42.256263" lon="8.907602">
        <ele>1683.8</ele>
        <time>2022-09-11T13:10:59Z</time>
      </trkpt>
      <trkpt lat="42.256322" lon="8.907498">
        <ele>1682.8</ele>
        <time>2022-09-11T13:11:08Z</time>
      </trkpt>
      <trkpt lat="42.256352" lon="8.907315">
        <ele>1682.2</ele>
        <time>2022-09-11T13:11:23Z</time>
      </trkpt>
      <trkpt lat="42.256335" lon="8.907225">
        <ele>1682.0</ele>
        <time>2022-09-11T13:11:30Z</time>
      </trkpt>
      <trkpt lat="42.25632" lon="8.907205">
        <ele>1682.2</ele>
        <time>2022-09-11T13:11:32Z</time>
      </trkpt>
      <trkpt lat="42.256275" lon="8.907187">
        <ele>1683.0</ele>
        <time>2022-09-11T13:11:39Z</time>
      </trkpt>
      <trkpt lat="42.256178" lon="8.907122">
        <ele>1683.8</ele>
        <time>2022-09-11T13:11:51Z</time>
      </trkpt>
      <trkpt lat="42.256142" lon="8.907107">
        <ele>1685.2</ele>
        <time>2022-09-11T13:11:57Z</time>
      </trkpt>
      <trkpt lat="42.256072" lon="8.907042">
        <ele>1686.2</ele>
        <time>2022-09-11T13:12:09Z</time>
      </trkpt>
      <trkpt lat="42.25605" lon="8.906997">
        <ele>1687.6</ele>
        <time>2022-09-11T13:12:14Z</time>
      </trkpt>
      <trkpt lat="42.255997" lon="8.906965">
        <ele>1688.0</ele>
        <time>2022-09-11T13:12:23Z</time>
      </trkpt>
      <trkpt lat="42.255902" lon="8.906937">
        <ele>1689.4</ele>
        <time>2022-09-11T13:12:42Z</time>
      </trkpt>
      <trkpt lat="42.255823" lon="8.906903">
        <ele>1691.4</ele>
        <time>2022-09-11T13:13:06Z</time>
      </trkpt>
      <trkpt lat="42.255812" lon="8.906897">
        <ele>1691.4</ele>
        <time>2022-09-11T13:13:07Z</time>
      </trkpt>
      <trkpt lat="42.25577" lon="8.906903">
        <ele>1692.2</ele>
        <time>2022-09-11T13:13:11Z</time>
      </trkpt>
      <trkpt lat="42.255743" lon="8.906955">
        <ele>1692.8</ele>
        <time>2022-09-11T13:13:16Z</time>
      </trkpt>
      <trkpt lat="42.255703" lon="8.907065">
        <ele>1695.2</ele>
        <time>2022-09-11T13:13:32Z</time>
      </trkpt>
      <trkpt lat="42.255687" lon="8.90716">
        <ele>1696.2</ele>
        <time>2022-09-11T13:13:44Z</time>
      </trkpt>
      <trkpt lat="42.25567" lon="8.907222">
        <ele>1697.8</ele>
        <time>2022-09-11T13:13:56Z</time>
      </trkpt>
      <trkpt lat="42.255745" lon="8.907332">
        <ele>1699.2</ele>
        <time>2022-09-11T13:14:08Z</time>
      </trkpt>
      <trkpt lat="42.25579" lon="8.907422">
        <ele>1701.0</ele>
        <time>2022-09-11T13:14:17Z</time>
      </trkpt>
      <trkpt lat="42.255817" lon="8.907468">
        <ele>1701.6</ele>
        <time>2022-09-11T13:14:22Z</time>
      </trkpt>
      <trkpt lat="42.255843" lon="8.907545">
        <ele>1703.0</ele>
        <time>2022-09-11T13:14:33Z</time>
      </trkpt>
      <trkpt lat="42.25583" lon="8.907542">
        <ele>1703.0</ele>
        <time>2022-09-11T13:14:35Z</time>
      </trkpt>
      <trkpt lat="42.255807" lon="8.907497">
        <ele>1703.6</ele>
        <time>2022-09-11T13:14:41Z</time>
      </trkpt>
      <trkpt lat="42.255803" lon="8.907465">
        <ele>1704.0</ele>
        <time>2022-09-11T13:14:45Z</time>
      </trkpt>
      <trkpt lat="42.255827" lon="8.9074">
        <ele>1705.0</ele>
        <time>2022-09-11T13:14:55Z</time>
      </trkpt>
      <trkpt lat="42.255845" lon="8.907352">
        <ele>1705.6</ele>
        <time>2022-09-11T13:15:02Z</time>
      </trkpt>
      <trkpt lat="42.255855" lon="8.907277">
        <ele>1705.2</ele>
        <time>2022-09-11T13:15:14Z</time>
      </trkpt>
      <trkpt lat="42.255845" lon="8.907273">
        <ele>1705.2</ele>
        <time>2022-09-11T13:15:15Z</time>
      </trkpt>
      <trkpt lat="42.25569" lon="8.907252">
        <ele>1707.0</ele>
        <time>2022-09-11T13:15:40Z</time>
      </trkpt>
      <trkpt lat="42.255608" lon="8.907273">
        <ele>1707.6</ele>
        <time>2022-09-11T13:15:48Z</time>
      </trkpt>
      <trkpt lat="42.255588" lon="8.907265">
        <ele>1707.8</ele>
        <time>2022-09-11T13:15:51Z</time>
      </trkpt>
      <trkpt lat="42.255503" lon="8.907175">
        <ele>1709.4</ele>
        <time>2022-09-11T13:16:04Z</time>
      </trkpt>
      <trkpt lat="42.255387" lon="8.907068">
        <ele>1711.4</ele>
        <time>2022-09-11T13:16:22Z</time>
      </trkpt>
      <trkpt lat="42.255317" lon="8.906922">
        <ele>1712.2</ele>
        <time>2022-09-11T13:16:40Z</time>
      </trkpt>
      <trkpt lat="42.255248" lon="8.906885">
        <ele>1712.4</ele>
        <time>2022-09-11T13:16:48Z</time>
      </trkpt>
      <trkpt lat="42.255205" lon="8.906872">
        <ele>1713.2</ele>
        <time>2022-09-11T13:16:54Z</time>
      </trkpt>
      <trkpt lat="42.255092" lon="8.906823">
        <ele>1715.0</ele>
        <time>2022-09-11T13:17:11Z</time>
      </trkpt>
      <trkpt lat="42.255035" lon="8.906783">
        <ele>1716.0</ele>
        <time>2022-09-11T13:17:20Z</time>
      </trkpt>
      <trkpt lat="42.255023" lon="8.906778">
        <ele>1716.2</ele>
        <time>2022-09-11T13:17:22Z</time>
      </trkpt>
      <trkpt lat="42.254995" lon="8.906787">
        <ele>1717.2</ele>
        <time>2022-09-11T13:17:30Z</time>
      </trkpt>
      <trkpt lat="42.255118" lon="8.90685">
        <ele>1722.4</ele>
        <time>2022-09-11T13:18:18Z</time>
      </trkpt>
      <trkpt lat="42.255167" lon="8.906978">
        <ele>1723.6</ele>
        <time>2022-09-11T13:18:33Z</time>
      </trkpt>
      <trkpt lat="42.255193" lon="8.907062">
        <ele>1723.6</ele>
        <time>2022-09-11T13:18:41Z</time>
      </trkpt>
      <trkpt lat="42.255218" lon="8.907217">
        <ele>1724.4</ele>
        <time>2022-09-11T13:18:51Z</time>
      </trkpt>
      <trkpt lat="42.25526" lon="8.907313">
        <ele>1725.2</ele>
        <time>2022-09-11T13:18:57Z</time>
      </trkpt>
      <trkpt lat="42.25529" lon="8.907443">
        <ele>1725.0</ele>
        <time>2022-09-11T13:19:09Z</time>
      </trkpt>
      <trkpt lat="42.255307" lon="8.907563">
        <ele>1724.8</ele>
        <time>2022-09-11T13:19:18Z</time>
      </trkpt>
      <trkpt lat="42.255315" lon="8.907687">
        <ele>1725.6</ele>
        <time>2022-09-11T13:19:27Z</time>
      </trkpt>
      <trkpt lat="42.255308" lon="8.9079">
        <ele>1727.2</ele>
        <time>2022-09-11T13:19:42Z</time>
      </trkpt>
      <trkpt lat="42.255292" lon="8.907948">
        <ele>1727.6</ele>
        <time>2022-09-11T13:19:46Z</time>
      </trkpt>
      <trkpt lat="42.255288" lon="8.908">
        <ele>1728.2</ele>
        <time>2022-09-11T13:19:51Z</time>
      </trkpt>
      <trkpt lat="42.255345" lon="8.908133">
        <ele>1729.8</ele>
        <time>2022-09-11T13:20:06Z</time>
      </trkpt>
      <trkpt lat="42.255368" lon="8.908197">
        <ele>1731.0</ele>
        <time>2022-09-11T13:20:14Z</time>
      </trkpt>
      <trkpt lat="42.255417" lon="8.908232">
        <ele>1731.4</ele>
        <time>2022-09-11T13:20:23Z</time>
      </trkpt>
      <trkpt lat="42.25542" lon="8.908238">
        <ele>1731.4</ele>
        <time>2022-09-11T13:20:23Z</time>
      </trkpt>
      <trkpt lat="42.255418" lon="8.908295">
        <ele>1731.4</ele>
        <time>2022-09-11T13:20:32Z</time>
      </trkpt>
      <trkpt lat="42.255383" lon="8.908362">
        <ele>1732.0</ele>
        <time>2022-09-11T13:20:42Z</time>
      </trkpt>
      <trkpt lat="42.255363" lon="8.908402">
        <ele>1733.0</ele>
        <time>2022-09-11T13:20:48Z</time>
      </trkpt>
      <trkpt lat="42.255292" lon="8.90847">
        <ele>1733.8</ele>
        <time>2022-09-11T13:21:03Z</time>
      </trkpt>
      <trkpt lat="42.25527" lon="8.908567">
        <ele>1734.4</ele>
        <time>2022-09-11T13:21:19Z</time>
      </trkpt>
      <trkpt lat="42.255267" lon="8.908573">
        <ele>1734.6</ele>
        <time>2022-09-11T13:21:21Z</time>
      </trkpt>
      <trkpt lat="42.255253" lon="8.908623">
        <ele>1735.8</ele>
        <time>2022-09-11T13:21:30Z</time>
      </trkpt>
      <trkpt lat="42.255242" lon="8.908657">
        <ele>1736.6</ele>
        <time>2022-09-11T13:21:37Z</time>
      </trkpt>
      <trkpt lat="42.255213" lon="8.908677">
        <ele>1737.2</ele>
        <time>2022-09-11T13:21:45Z</time>
      </trkpt>
      <trkpt lat="42.255187" lon="8.908713">
        <ele>1739.6</ele>
        <time>2022-09-11T13:22:11Z</time>
      </trkpt>
      <trkpt lat="42.255153" lon="8.908732">
        <ele>1742.8</ele>
        <time>2022-09-11T13:22:42Z</time>
      </trkpt>
      <trkpt lat="42.255152" lon="8.908795">
        <ele>1745.8</ele>
        <time>2022-09-11T13:23:11Z</time>
      </trkpt>
      <trkpt lat="42.255153" lon="8.908877">
        <ele>1749.6</ele>
        <time>2022-09-11T13:23:51Z</time>
      </trkpt>
      <trkpt lat="42.255158" lon="8.908885">
        <ele>1750.2</ele>
        <time>2022-09-11T13:23:56Z</time>
      </trkpt>
      <trkpt lat="42.255172" lon="8.908982">
        <ele>1750.4</ele>
        <time>2022-09-11T13:24:13Z</time>
      </trkpt>
      <trkpt lat="42.255167" lon="8.909103">
        <ele>1750.4</ele>
        <time>2022-09-11T13:24:23Z</time>
      </trkpt>
      <trkpt lat="42.255143" lon="8.909365">
        <ele>1751.0</ele>
        <time>2022-09-11T13:24:33Z</time>
      </trkpt>
      <trkpt lat="42.255082" lon="8.909687">
        <ele>1751.8</ele>
        <time>2022-09-11T13:24:44Z</time>
      </trkpt>
      <trkpt lat="42.255112" lon="8.909883">
        <ele>1753.6</ele>
        <time>2022-09-11T13:24:54Z</time>
      </trkpt>
      <trkpt lat="42.255117" lon="8.909935">
        <ele>1753.8</ele>
        <time>2022-09-11T13:24:57Z</time>
      </trkpt>
      <trkpt lat="42.25509" lon="8.909963">
        <ele>1753.8</ele>
        <time>2022-09-11T13:25:00Z</time>
      </trkpt>
      <trkpt lat="42.254987" lon="8.910022">
        <ele>1755.0</ele>
        <time>2022-09-11T13:25:06Z</time>
      </trkpt>
      <trkpt lat="42.25498" lon="8.910045">
        <ele>1757.8</ele>
        <time>2022-09-11T13:25:21Z</time>
      </trkpt>
      <trkpt lat="42.25501" lon="8.91003">
        <ele>1757.6</ele>
        <time>2022-09-11T13:25:49Z</time>
      </trkpt>
      <trkpt lat="42.25507" lon="8.910038">
        <ele>1756.6</ele>
        <time>2022-09-11T13:26:09Z</time>
      </trkpt>
      <trkpt lat="42.25508" lon="8.910043">
        <ele>1756.6</ele>
        <time>2022-09-11T13:26:11Z</time>
      </trkpt>
      <trkpt lat="42.255247" lon="8.910282">
        <ele>1757.6</ele>
        <time>2022-09-11T13:26:31Z</time>
      </trkpt>
      <trkpt lat="42.255412" lon="8.910573">
        <ele>1758.6</ele>
        <time>2022-09-11T13:26:59Z</time>
      </trkpt>
      <trkpt lat="42.255417" lon="8.910587">
        <ele>1758.6</ele>
        <time>2022-09-11T13:27:00Z</time>
      </trkpt>
      <trkpt lat="42.255437" lon="8.910747">
        <ele>1759.4</ele>
        <time>2022-09-11T13:27:14Z</time>
      </trkpt>
      <trkpt lat="42.255447" lon="8.91087">
        <ele>1760.2</ele>
        <time>2022-09-11T13:27:33Z</time>
      </trkpt>
      <trkpt lat="42.255432" lon="8.910945">
        <ele>1761.2</ele>
        <time>2022-09-11T13:27:45Z</time>
      </trkpt>
      <trkpt lat="42.25542" lon="8.91102">
        <ele>1761.6</ele>
        <time>2022-09-11T13:27:51Z</time>
      </trkpt>
      <trkpt lat="42.255418" lon="8.911058">
        <ele>1761.8</ele>
        <time>2022-09-11T13:27:54Z</time>
      </trkpt>
      <trkpt lat="42.255448" lon="8.911282">
        <ele>1762.2</ele>
        <time>2022-09-11T13:28:10Z</time>
      </trkpt>
      <trkpt lat="42.255475" lon="8.91159">
        <ele>1763.8</ele>
        <time>2022-09-11T13:28:38Z</time>
      </trkpt>
      <trkpt lat="42.255453" lon="8.911655">
        <ele>1764.4</ele>
        <time>2022-09-11T13:28:45Z</time>
      </trkpt>
      <trkpt lat="42.255425" lon="8.911798">
        <ele>1765.2</ele>
        <time>2022-09-11T13:29:00Z</time>
      </trkpt>
      <trkpt lat="42.25538" lon="8.911918">
        <ele>1766.4</ele>
        <time>2022-09-11T13:29:18Z</time>
      </trkpt>
      <trkpt lat="42.25535" lon="8.912057">
        <ele>1767.0</ele>
        <time>2022-09-11T13:29:36Z</time>
      </trkpt>
      <trkpt lat="42.255332" lon="8.91216">
        <ele>1767.4</ele>
        <time>2022-09-11T13:29:44Z</time>
      </trkpt>
      <trkpt lat="42.255302" lon="8.912315">
        <ele>1768.0</ele>
        <time>2022-09-11T13:29:55Z</time>
      </trkpt>
      <trkpt lat="42.25525" lon="8.912522">
        <ele>1768.6</ele>
        <time>2022-09-11T13:30:08Z</time>
      </trkpt>
      <trkpt lat="42.255225" lon="8.912665">
        <ele>1769.6</ele>
        <time>2022-09-11T13:30:17Z</time>
      </trkpt>
      <trkpt lat="42.25516" lon="8.912898">
        <ele>1770.0</ele>
        <time>2022-09-11T13:30:40Z</time>
      </trkpt>
      <trkpt lat="42.255127" lon="8.913067">
        <ele>1770.2</ele>
        <time>2022-09-11T13:30:58Z</time>
      </trkpt>
      <trkpt lat="42.255142" lon="8.913142">
        <ele>1770.2</ele>
        <time>2022-09-11T13:31:07Z</time>
      </trkpt>
      <trkpt lat="42.255132" lon="8.91322">
        <ele>1771.0</ele>
        <time>2022-09-11T13:33:34Z</time>
      </trkpt>
      <trkpt lat="42.255157" lon="8.91331">
        <ele>1770.8</ele>
        <time>2022-09-11T13:33:43Z</time>
      </trkpt>
      <trkpt lat="42.25517" lon="8.91343">
        <ele>1771.0</ele>
        <time>2022-09-11T13:33:54Z</time>
      </trkpt>
      <trkpt lat="42.255138" lon="8.913507">
        <ele>1771.2</ele>
        <time>2022-09-11T13:34:04Z</time>
      </trkpt>
      <trkpt lat="42.255165" lon="8.913665">
        <ele>1772.2</ele>
        <time>2022-09-11T13:34:16Z</time>
      </trkpt>
      <trkpt lat="42.255185" lon="8.913752">
        <ele>1773.6</ele>
        <time>2022-09-11T13:34:22Z</time>
      </trkpt>
      <trkpt lat="42.255237" lon="8.91391">
        <ele>1773.8</ele>
        <time>2022-09-11T13:34:34Z</time>
      </trkpt>
      <trkpt lat="42.255257" lon="8.913975">
        <ele>1774.4</ele>
        <time>2022-09-11T13:34:39Z</time>
      </trkpt>
      <trkpt lat="42.255307" lon="8.914047">
        <ele>1774.6</ele>
        <time>2022-09-11T13:34:47Z</time>
      </trkpt>
      <trkpt lat="42.255327" lon="8.914128">
        <ele>1775.6</ele>
        <time>2022-09-11T13:34:54Z</time>
      </trkpt>
      <trkpt lat="42.255308" lon="8.91422">
        <ele>1776.0</ele>
        <time>2022-09-11T13:35:04Z</time>
      </trkpt>
      <trkpt lat="42.255305" lon="8.914305">
        <ele>1777.4</ele>
        <time>2022-09-11T13:35:14Z</time>
      </trkpt>
      <trkpt lat="42.255282" lon="8.914418">
        <ele>1779.4</ele>
        <time>2022-09-11T13:35:27Z</time>
      </trkpt>
      <trkpt lat="42.255277" lon="8.914495">
        <ele>1780.6</ele>
        <time>2022-09-11T13:35:39Z</time>
      </trkpt>
      <trkpt lat="42.255277" lon="8.914502">
        <ele>1780.6</ele>
        <time>2022-09-11T13:35:40Z</time>
      </trkpt>
      <trkpt lat="42.25528" lon="8.914555">
        <ele>1781.2</ele>
        <time>2022-09-11T13:35:46Z</time>
      </trkpt>
      <trkpt lat="42.255258" lon="8.914725">
        <ele>1783.2</ele>
        <time>2022-09-11T13:36:06Z</time>
      </trkpt>
      <trkpt lat="42.255238" lon="8.914815">
        <ele>1784.6</ele>
        <time>2022-09-11T13:36:17Z</time>
      </trkpt>
      <trkpt lat="42.255287" lon="8.914937">
        <ele>1787.2</ele>
        <time>2022-09-11T13:36:43Z</time>
      </trkpt>
      <trkpt lat="42.2553" lon="8.914977">
        <ele>1788.0</ele>
        <time>2022-09-11T13:36:49Z</time>
      </trkpt>
      <trkpt lat="42.25532" lon="8.915057">
        <ele>1788.8</ele>
        <time>2022-09-11T13:36:59Z</time>
      </trkpt>
      <trkpt lat="42.25536" lon="8.91524">
        <ele>1796.2</ele>
        <time>2022-09-11T13:38:01Z</time>
      </trkpt>
      <trkpt lat="42.25543" lon="8.915342">
        <ele>1797.2</ele>
        <time>2022-09-11T13:38:23Z</time>
      </trkpt>
      <trkpt lat="42.255465" lon="8.915423">
        <ele>1796.8</ele>
        <time>2022-09-11T13:38:30Z</time>
      </trkpt>
      <trkpt lat="42.255538" lon="8.915683">
        <ele>1796.8</ele>
        <time>2022-09-11T13:38:42Z</time>
      </trkpt>
      <trkpt lat="42.255545" lon="8.915705">
        <ele>1796.8</ele>
        <time>2022-09-11T13:38:42Z</time>
      </trkpt>
      <trkpt lat="42.255545" lon="8.91574">
        <ele>1797.0</ele>
        <time>2022-09-11T13:38:45Z</time>
      </trkpt>
      <trkpt lat="42.255525" lon="8.915778">
        <ele>1797.6</ele>
        <time>2022-09-11T13:38:49Z</time>
      </trkpt>
      <trkpt lat="42.255497" lon="8.915833">
        <ele>1798.4</ele>
        <time>2022-09-11T13:38:56Z</time>
      </trkpt>
      <trkpt lat="42.255493" lon="8.915927">
        <ele>1798.4</ele>
        <time>2022-09-11T13:39:04Z</time>
      </trkpt>
      <trkpt lat="42.2555" lon="8.91599">
        <ele>1798.2</ele>
        <time>2022-09-11T13:39:14Z</time>
      </trkpt>
      <trkpt lat="42.255468" lon="8.916007">
        <ele>1798.2</ele>
        <time>2022-09-11T13:39:18Z</time>
      </trkpt>
      <trkpt lat="42.255437" lon="8.916">
        <ele>1797.8</ele>
        <time>2022-09-11T13:39:22Z</time>
      </trkpt>
      <trkpt lat="42.255322" lon="8.915907">
        <ele>1794.6</ele>
        <time>2022-09-11T13:39:48Z</time>
      </trkpt>
      <trkpt lat="42.2553" lon="8.91591">
        <ele>1794.2</ele>
        <time>2022-09-11T13:39:53Z</time>
      </trkpt>
      <trkpt lat="42.25525" lon="8.915935">
        <ele>1794.6</ele>
        <time>2022-09-11T13:40:17Z</time>
      </trkpt>
      <trkpt lat="42.255293" lon="8.915995">
        <ele>1794.8</ele>
        <time>2022-09-11T13:40:44Z</time>
      </trkpt>
      <trkpt lat="42.25529" lon="8.916">
        <ele>1794.2</ele>
        <time>2022-09-11T13:40:45Z</time>
      </trkpt>
      <trkpt lat="42.255263" lon="8.916053">
        <ele>1792.2</ele>
        <time>2022-09-11T13:42:04Z</time>
      </trkpt>
      <trkpt lat="42.255218" lon="8.916057">
        <ele>1792.0</ele>
        <time>2022-09-11T13:42:19Z</time>
      </trkpt>
      <trkpt lat="42.255175" lon="8.916088">
        <ele>1792.2</ele>
        <time>2022-09-11T13:42:33Z</time>
      </trkpt>
      <trkpt lat="42.255147" lon="8.916113">
        <ele>1792.8</ele>
        <time>2022-09-11T13:42:59Z</time>
      </trkpt>
      <trkpt lat="42.255133" lon="8.916145">
        <ele>1792.4</ele>
        <time>2022-09-11T13:43:09Z</time>
      </trkpt>
      <trkpt lat="42.255135" lon="8.916148">
        <ele>1793.2</ele>
        <time>2022-09-11T13:43:11Z</time>
      </trkpt>
      <trkpt lat="42.255233" lon="8.916057">
        <ele>1790.8</ele>
        <time>2022-09-11T13:43:33Z</time>
      </trkpt>
      <trkpt lat="42.255297" lon="8.916042">
        <ele>1790.2</ele>
        <time>2022-09-11T13:43:46Z</time>
      </trkpt>
      <trkpt lat="42.255338" lon="8.91607">
        <ele>1790.4</ele>
        <time>2022-09-11T13:43:52Z</time>
      </trkpt>
      <trkpt lat="42.255363" lon="8.916038">
        <ele>1790.0</ele>
        <time>2022-09-11T13:43:55Z</time>
      </trkpt>
      <trkpt lat="42.255383" lon="8.916083">
        <ele>1790.4</ele>
        <time>2022-09-11T13:44:01Z</time>
      </trkpt>
      <trkpt lat="42.255395" lon="8.916128">
        <ele>1790.0</ele>
        <time>2022-09-11T13:44:06Z</time>
      </trkpt>
      <trkpt lat="42.255405" lon="8.916218">
        <ele>1788.4</ele>
        <time>2022-09-11T13:44:16Z</time>
      </trkpt>
      <trkpt lat="42.25543" lon="8.91626">
        <ele>1786.6</ele>
        <time>2022-09-11T13:44:24Z</time>
      </trkpt>
      <trkpt lat="42.25544" lon="8.916262">
        <ele>1786.6</ele>
        <time>2022-09-11T13:44:25Z</time>
      </trkpt>
      <trkpt lat="42.25544" lon="8.916187">
        <ele>1786.0</ele>
        <time>2022-09-11T13:44:31Z</time>
      </trkpt>
      <trkpt lat="42.255433" lon="8.916145">
        <ele>1785.8</ele>
        <time>2022-09-11T13:44:34Z</time>
      </trkpt>
      <trkpt lat="42.255412" lon="8.91615">
        <ele>1785.8</ele>
        <time>2022-09-11T13:44:37Z</time>
      </trkpt>
      <trkpt lat="42.255335" lon="8.916322">
        <ele>1783.6</ele>
        <time>2022-09-11T13:45:03Z</time>
      </trkpt>
      <trkpt lat="42.255392" lon="8.916437">
        <ele>1783.2</ele>
        <time>2022-09-11T13:45:10Z</time>
      </trkpt>
      <trkpt lat="42.25542" lon="8.916497">
        <ele>1783.2</ele>
        <time>2022-09-11T13:45:14Z</time>
      </trkpt>
      <trkpt lat="42.255498" lon="8.916767">
        <ele>1784.2</ele>
        <time>2022-09-11T13:45:34Z</time>
      </trkpt>
      <trkpt lat="42.255518" lon="8.916822">
        <ele>1784.2</ele>
        <time>2022-09-11T13:45:40Z</time>
      </trkpt>
      <trkpt lat="42.255508" lon="8.916885">
        <ele>1784.6</ele>
        <time>2022-09-11T13:45:46Z</time>
      </trkpt>
      <trkpt lat="42.255523" lon="8.91695">
        <ele>1785.0</ele>
        <time>2022-09-11T13:45:52Z</time>
      </trkpt>
      <trkpt lat="42.255582" lon="8.917183">
        <ele>1786.2</ele>
        <time>2022-09-11T13:46:18Z</time>
      </trkpt>
      <trkpt lat="42.255587" lon="8.917192">
        <ele>1786.4</ele>
        <time>2022-09-11T13:46:19Z</time>
      </trkpt>
      <trkpt lat="42.255543" lon="8.917258">
        <ele>1787.2</ele>
        <time>2022-09-11T13:46:27Z</time>
      </trkpt>
      <trkpt lat="42.255475" lon="8.91735">
        <ele>1788.4</ele>
        <time>2022-09-11T13:46:43Z</time>
      </trkpt>
      <trkpt lat="42.255412" lon="8.917425">
        <ele>1789.0</ele>
        <time>2022-09-11T13:46:54Z</time>
      </trkpt>
      <trkpt lat="42.255427" lon="8.91747">
        <ele>1790.0</ele>
        <time>2022-09-11T13:47:06Z</time>
      </trkpt>
      <trkpt lat="42.25548" lon="8.917492">
        <ele>1791.2</ele>
        <time>2022-09-11T13:47:17Z</time>
      </trkpt>
      <trkpt lat="42.25551" lon="8.917502">
        <ele>1796.8</ele>
        <time>2022-09-11T13:48:01Z</time>
      </trkpt>
      <trkpt lat="42.255495" lon="8.917783">
        <ele>1797.4</ele>
        <time>2022-09-11T13:48:15Z</time>
      </trkpt>
      <trkpt lat="42.255483" lon="8.91784">
        <ele>1797.4</ele>
        <time>2022-09-11T13:48:18Z</time>
      </trkpt>
      <trkpt lat="42.255507" lon="8.91786">
        <ele>1797.6</ele>
        <time>2022-09-11T13:48:23Z</time>
      </trkpt>
      <trkpt lat="42.255538" lon="8.91785">
        <ele>1797.6</ele>
        <time>2022-09-11T13:48:27Z</time>
      </trkpt>
      <trkpt lat="42.255492" lon="8.917783">
        <ele>1797.6</ele>
        <time>2022-09-11T13:48:41Z</time>
      </trkpt>
      <trkpt lat="42.25546" lon="8.91776">
        <ele>1800.0</ele>
        <time>2022-09-11T13:49:01Z</time>
      </trkpt>
      <trkpt lat="42.255447" lon="8.917743">
        <ele>1800.0</ele>
        <time>2022-09-11T13:49:09Z</time>
      </trkpt>
      <trkpt lat="42.255463" lon="8.91776">
        <ele>1800.6</ele>
        <time>2022-09-11T13:49:17Z</time>
      </trkpt>
      <trkpt lat="42.255677" lon="8.917937">
        <ele>1811.0</ele>
        <time>2022-09-11T13:51:48Z</time>
      </trkpt>
      <trkpt lat="42.255718" lon="8.917962">
        <ele>1811.4</ele>
        <time>2022-09-11T13:51:52Z</time>
      </trkpt>
      <trkpt lat="42.255807" lon="8.918055">
        <ele>1812.6</ele>
        <time>2022-09-11T13:52:03Z</time>
      </trkpt>
      <trkpt lat="42.255843" lon="8.918113">
        <ele>1813.2</ele>
        <time>2022-09-11T13:52:09Z</time>
      </trkpt>
      <trkpt lat="42.255823" lon="8.918155">
        <ele>1813.8</ele>
        <time>2022-09-11T13:52:15Z</time>
      </trkpt>
      <trkpt lat="42.255722" lon="8.918207">
        <ele>1815.0</ele>
        <time>2022-09-11T13:52:31Z</time>
      </trkpt>
      <trkpt lat="42.25569" lon="8.918277">
        <ele>1815.8</ele>
        <time>2022-09-11T13:52:40Z</time>
      </trkpt>
      <trkpt lat="42.255678" lon="8.918392">
        <ele>1816.6</ele>
        <time>2022-09-11T13:52:48Z</time>
      </trkpt>
      <trkpt lat="42.255678" lon="8.918407">
        <ele>1816.6</ele>
        <time>2022-09-11T13:52:49Z</time>
      </trkpt>
      <trkpt lat="42.255708" lon="8.918487">
        <ele>1818.4</ele>
        <time>2022-09-11T13:53:20Z</time>
      </trkpt>
      <trkpt lat="42.255742" lon="8.918628">
        <ele>1821.2</ele>
        <time>2022-09-11T13:54:00Z</time>
      </trkpt>
      <trkpt lat="42.255747" lon="8.91871">
        <ele>1822.0</ele>
        <time>2022-09-11T13:54:23Z</time>
      </trkpt>
      <trkpt lat="42.25576" lon="8.91877">
        <ele>1822.0</ele>
        <time>2022-09-11T13:54:35Z</time>
      </trkpt>
      <trkpt lat="42.255767" lon="8.918788">
        <ele>1822.0</ele>
        <time>2022-09-11T13:54:39Z</time>
      </trkpt>
      <trkpt lat="42.255773" lon="8.918885">
        <ele>1822.8</ele>
        <time>2022-09-11T13:54:51Z</time>
      </trkpt>
      <trkpt lat="42.255767" lon="8.919035">
        <ele>1823.6</ele>
        <time>2022-09-11T13:54:59Z</time>
      </trkpt>
      <trkpt lat="42.25578" lon="8.919213">
        <ele>1824.0</ele>
        <time>2022-09-11T13:55:06Z</time>
      </trkpt>
      <trkpt lat="42.255795" lon="8.919395">
        <ele>1825.0</ele>
        <time>2022-09-11T13:55:13Z</time>
      </trkpt>
      <trkpt lat="42.25578" lon="8.919623">
        <ele>1825.4</ele>
        <time>2022-09-11T13:55:22Z</time>
      </trkpt>
      <trkpt lat="42.255725" lon="8.919762">
        <ele>1826.2</ele>
        <time>2022-09-11T13:55:36Z</time>
      </trkpt>
      <trkpt lat="42.25571" lon="8.91981">
        <ele>1826.8</ele>
        <time>2022-09-11T13:55:41Z</time>
      </trkpt>
      <trkpt lat="42.255703" lon="8.919867">
        <ele>1826.4</ele>
        <time>2022-09-11T13:55:47Z</time>
      </trkpt>
      <trkpt lat="42.255723" lon="8.919993">
        <ele>1827.4</ele>
        <time>2022-09-11T13:56:01Z</time>
      </trkpt>
      <trkpt lat="42.25572" lon="8.92003">
        <ele>1827.4</ele>
        <time>2022-09-11T13:56:06Z</time>
      </trkpt>
      <trkpt lat="42.255683" lon="8.920062">
        <ele>1827.4</ele>
        <time>2022-09-11T13:56:15Z</time>
      </trkpt>
      <trkpt lat="42.255682" lon="8.920068">
        <ele>1827.4</ele>
        <time>2022-09-11T13:56:15Z</time>
      </trkpt>
      <trkpt lat="42.255673" lon="8.920168">
        <ele>1825.4</ele>
        <time>2022-09-11T13:56:37Z</time>
      </trkpt>
      <trkpt lat="42.255613" lon="8.92031">
        <ele>1823.8</ele>
        <time>2022-09-11T13:57:32Z</time>
      </trkpt>
      <trkpt lat="42.25565" lon="8.920443">
        <ele>1824.6</ele>
        <time>2022-09-11T13:57:45Z</time>
      </trkpt>
      <trkpt lat="42.255642" lon="8.92057">
        <ele>1825.6</ele>
        <time>2022-09-11T13:57:54Z</time>
      </trkpt>
      <trkpt lat="42.25563" lon="8.920838">
        <ele>1826.6</ele>
        <time>2022-09-11T13:58:05Z</time>
      </trkpt>
      <trkpt lat="42.25558" lon="8.921013">
        <ele>1826.6</ele>
        <time>2022-09-11T13:58:12Z</time>
      </trkpt>
      <trkpt lat="42.255577" lon="8.921062">
        <ele>1826.6</ele>
        <time>2022-09-11T13:58:14Z</time>
      </trkpt>
      <trkpt lat="42.255515" lon="8.921167">
        <ele>1828.0</ele>
        <time>2022-09-11T13:58:34Z</time>
      </trkpt>
      <trkpt lat="42.255442" lon="8.921253">
        <ele>1828.8</ele>
        <time>2022-09-11T13:58:42Z</time>
      </trkpt>
      <trkpt lat="42.255247" lon="8.921482">
        <ele>1830.4</ele>
        <time>2022-09-11T13:59:04Z</time>
      </trkpt>
      <trkpt lat="42.255217" lon="8.921637">
        <ele>1829.8</ele>
        <time>2022-09-11T13:59:20Z</time>
      </trkpt>
      <trkpt lat="42.255168" lon="8.92178">
        <ele>1829.8</ele>
        <time>2022-09-11T13:59:37Z</time>
      </trkpt>
      <trkpt lat="42.255155" lon="8.921807">
        <ele>1830.2</ele>
        <time>2022-09-11T13:59:40Z</time>
      </trkpt>
      <trkpt lat="42.255137" lon="8.921828">
        <ele>1830.8</ele>
        <time>2022-09-11T13:59:45Z</time>
      </trkpt>
      <trkpt lat="42.25511" lon="8.921883">
        <ele>1831.6</ele>
        <time>2022-09-11T13:59:52Z</time>
      </trkpt>
      <trkpt lat="42.255092" lon="8.921958">
        <ele>1832.0</ele>
        <time>2022-09-11T14:00:02Z</time>
      </trkpt>
      <trkpt lat="42.25509" lon="8.921973">
        <ele>1832.2</ele>
        <time>2022-09-11T14:00:04Z</time>
      </trkpt>
      <trkpt lat="42.255035" lon="8.922123">
        <ele>1833.6</ele>
        <time>2022-09-11T14:00:28Z</time>
      </trkpt>
      <trkpt lat="42.255033" lon="8.922185">
        <ele>1833.8</ele>
        <time>2022-09-11T14:00:37Z</time>
      </trkpt>
      <trkpt lat="42.25504" lon="8.922258">
        <ele>1834.6</ele>
        <time>2022-09-11T14:00:46Z</time>
      </trkpt>
      <trkpt lat="42.255073" lon="8.922417">
        <ele>1835.2</ele>
        <time>2022-09-11T14:01:00Z</time>
      </trkpt>
      <trkpt lat="42.255035" lon="8.922445">
        <ele>1835.8</ele>
        <time>2022-09-11T14:01:05Z</time>
      </trkpt>
      <trkpt lat="42.254907" lon="8.922458">
        <ele>1836.0</ele>
        <time>2022-09-11T14:01:19Z</time>
      </trkpt>
      <trkpt lat="42.254898" lon="8.922467">
        <ele>1836.6</ele>
        <time>2022-09-11T14:01:21Z</time>
      </trkpt>
      <trkpt lat="42.254892" lon="8.922473">
        <ele>1836.6</ele>
        <time>2022-09-11T14:01:22Z</time>
      </trkpt>
      <trkpt lat="42.254877" lon="8.92252">
        <ele>1837.0</ele>
        <time>2022-09-11T14:01:27Z</time>
      </trkpt>
      <trkpt lat="42.254868" lon="8.922657">
        <ele>1837.4</ele>
        <time>2022-09-11T14:01:41Z</time>
      </trkpt>
      <trkpt lat="42.254825" lon="8.922778">
        <ele>1838.4</ele>
        <time>2022-09-11T14:01:53Z</time>
      </trkpt>
      <trkpt lat="42.254803" lon="8.922897">
        <ele>1838.8</ele>
        <time>2022-09-11T14:02:06Z</time>
      </trkpt>
      <trkpt lat="42.254662" lon="8.923317">
        <ele>1842.0</ele>
        <time>2022-09-11T14:02:51Z</time>
      </trkpt>
      <trkpt lat="42.254642" lon="8.923427">
        <ele>1842.4</ele>
        <time>2022-09-11T14:03:02Z</time>
      </trkpt>
      <trkpt lat="42.254638" lon="8.923437">
        <ele>1842.4</ele>
        <time>2022-09-11T14:03:03Z</time>
      </trkpt>
      <trkpt lat="42.25464" lon="8.923522">
        <ele>1842.6</ele>
        <time>2022-09-11T14:03:10Z</time>
      </trkpt>
      <trkpt lat="42.254635" lon="8.923582">
        <ele>1843.6</ele>
        <time>2022-09-11T14:03:17Z</time>
      </trkpt>
      <trkpt lat="42.254597" lon="8.923683">
        <ele>1845.0</ele>
        <time>2022-09-11T14:03:26Z</time>
      </trkpt>
      <trkpt lat="42.254555" lon="8.923868">
        <ele>1846.2</ele>
        <time>2022-09-11T14:03:40Z</time>
      </trkpt>
      <trkpt lat="42.25455" lon="8.923882">
        <ele>1846.2</ele>
        <time>2022-09-11T14:03:41Z</time>
      </trkpt>
      <trkpt lat="42.254365" lon="8.924172">
        <ele>1848.2</ele>
        <time>2022-09-11T14:04:16Z</time>
      </trkpt>
      <trkpt lat="42.25436" lon="8.924213">
        <ele>1848.6</ele>
        <time>2022-09-11T14:04:21Z</time>
      </trkpt>
      <trkpt lat="42.25438" lon="8.924273">
        <ele>1849.8</ele>
        <time>2022-09-11T14:04:27Z</time>
      </trkpt>
      <trkpt lat="42.254395" lon="8.924447">
        <ele>1851.2</ele>
        <time>2022-09-11T14:04:42Z</time>
      </trkpt>
      <trkpt lat="42.254387" lon="8.924577">
        <ele>1852.4</ele>
        <time>2022-09-11T14:04:55Z</time>
      </trkpt>
      <trkpt lat="42.254372" lon="8.924662">
        <ele>1853.4</ele>
        <time>2022-09-11T14:05:03Z</time>
      </trkpt>
      <trkpt lat="42.254375" lon="8.924792">
        <ele>1853.8</ele>
        <time>2022-09-11T14:05:14Z</time>
      </trkpt>
      <trkpt lat="42.254377" lon="8.925008">
        <ele>1855.2</ele>
        <time>2022-09-11T14:05:31Z</time>
      </trkpt>
      <trkpt lat="42.254345" lon="8.925108">
        <ele>1855.8</ele>
        <time>2022-09-11T14:05:40Z</time>
      </trkpt>
      <trkpt lat="42.254347" lon="8.925163">
        <ele>1856.4</ele>
        <time>2022-09-11T14:05:45Z</time>
      </trkpt>
      <trkpt lat="42.254323" lon="8.925235">
        <ele>1858.0</ele>
        <time>2022-09-11T14:05:54Z</time>
      </trkpt>
      <trkpt lat="42.254293" lon="8.925285">
        <ele>1859.0</ele>
        <time>2022-09-11T14:06:03Z</time>
      </trkpt>
      <trkpt lat="42.254277" lon="8.925312">
        <ele>1859.8</ele>
        <time>2022-09-11T14:06:08Z</time>
      </trkpt>
      <trkpt lat="42.254232" lon="8.925422">
        <ele>1861.8</ele>
        <time>2022-09-11T14:06:23Z</time>
      </trkpt>
      <trkpt lat="42.25422" lon="8.925485">
        <ele>1862.6</ele>
        <time>2022-09-11T14:06:31Z</time>
      </trkpt>
      <trkpt lat="42.25422" lon="8.925515">
        <ele>1863.4</ele>
        <time>2022-09-11T14:06:35Z</time>
      </trkpt>
      <trkpt lat="42.254248" lon="8.925687">
        <ele>1865.0</ele>
        <time>2022-09-11T14:06:52Z</time>
      </trkpt>
      <trkpt lat="42.254277" lon="8.925867">
        <ele>1866.8</ele>
        <time>2022-09-11T14:07:09Z</time>
      </trkpt>
      <trkpt lat="42.254283" lon="8.925968">
        <ele>1867.2</ele>
        <time>2022-09-11T14:07:17Z</time>
      </trkpt>
      <trkpt lat="42.254253" lon="8.92611">
        <ele>1869.6</ele>
        <time>2022-09-11T14:07:31Z</time>
      </trkpt>
      <trkpt lat="42.254248" lon="8.926373">
        <ele>1870.0</ele>
        <time>2022-09-11T14:07:52Z</time>
      </trkpt>
      <trkpt lat="42.254252" lon="8.926467">
        <ele>1870.4</ele>
        <time>2022-09-11T14:08:00Z</time>
      </trkpt>
      <trkpt lat="42.254247" lon="8.926588">
        <ele>1870.4</ele>
        <time>2022-09-11T14:08:10Z</time>
      </trkpt>
      <trkpt lat="42.254282" lon="8.926662">
        <ele>1870.4</ele>
        <time>2022-09-11T14:08:17Z</time>
      </trkpt>
      <trkpt lat="42.254357" lon="8.92684">
        <ele>1869.8</ele>
        <time>2022-09-11T14:08:35Z</time>
      </trkpt>
      <trkpt lat="42.25443" lon="8.926937">
        <ele>1868.6</ele>
        <time>2022-09-11T14:08:44Z</time>
      </trkpt>
      <trkpt lat="42.254475" lon="8.926985">
        <ele>1867.8</ele>
        <time>2022-09-11T14:08:50Z</time>
      </trkpt>
      <trkpt lat="42.254452" lon="8.927052">
        <ele>1867.4</ele>
        <time>2022-09-11T14:08:56Z</time>
      </trkpt>
      <trkpt lat="42.254415" lon="8.92717">
        <ele>1866.0</ele>
        <time>2022-09-11T14:09:08Z</time>
      </trkpt>
      <trkpt lat="42.2544" lon="8.927218">
        <ele>1865.4</ele>
        <time>2022-09-11T14:09:13Z</time>
      </trkpt>
      <trkpt lat="42.25439" lon="8.92725">
        <ele>1865.2</ele>
        <time>2022-09-11T14:09:16Z</time>
      </trkpt>
      <trkpt lat="42.2544" lon="8.927487">
        <ele>1862.6</ele>
        <time>2022-09-11T14:09:37Z</time>
      </trkpt>
      <trkpt lat="42.254418" lon="8.927598">
        <ele>1861.4</ele>
        <time>2022-09-11T14:09:52Z</time>
      </trkpt>
      <trkpt lat="42.254475" lon="8.927752">
        <ele>1859.0</ele>
        <time>2022-09-11T14:10:09Z</time>
      </trkpt>
      <trkpt lat="42.254468" lon="8.927815">
        <ele>1858.2</ele>
        <time>2022-09-11T14:10:17Z</time>
      </trkpt>
      <trkpt lat="42.254533" lon="8.927935">
        <ele>1854.2</ele>
        <time>2022-09-11T14:10:39Z</time>
      </trkpt>
      <trkpt lat="42.254537" lon="8.92796">
        <ele>1853.8</ele>
        <time>2022-09-11T14:10:43Z</time>
      </trkpt>
      <trkpt lat="42.254563" lon="8.928117">
        <ele>1852.0</ele>
        <time>2022-09-11T14:10:56Z</time>
      </trkpt>
      <trkpt lat="42.254563" lon="8.928155">
        <ele>1851.8</ele>
        <time>2022-09-11T14:10:59Z</time>
      </trkpt>
      <trkpt lat="42.2546" lon="8.928287">
        <ele>1849.6</ele>
        <time>2022-09-11T14:11:16Z</time>
      </trkpt>
      <trkpt lat="42.254678" lon="8.928575">
        <ele>1845.8</ele>
        <time>2022-09-11T14:11:45Z</time>
      </trkpt>
      <trkpt lat="42.254717" lon="8.928682">
        <ele>1843.4</ele>
        <time>2022-09-11T14:11:58Z</time>
      </trkpt>
      <trkpt lat="42.254797" lon="8.928858">
        <ele>1841.4</ele>
        <time>2022-09-11T14:12:15Z</time>
      </trkpt>
      <trkpt lat="42.254848" lon="8.928955">
        <ele>1841.2</ele>
        <time>2022-09-11T14:12:23Z</time>
      </trkpt>
      <trkpt lat="42.25482" lon="8.929013">
        <ele>1840.8</ele>
        <time>2022-09-11T14:12:40Z</time>
      </trkpt>
      <trkpt lat="42.25477" lon="8.92915">
        <ele>1839.2</ele>
        <time>2022-09-11T14:13:19Z</time>
      </trkpt>
      <trkpt lat="42.254775" lon="8.929163">
        <ele>1838.8</ele>
        <time>2022-09-11T14:13:22Z</time>
      </trkpt>
      <trkpt lat="42.254815" lon="8.929298">
        <ele>1838.4</ele>
        <time>2022-09-11T14:13:30Z</time>
      </trkpt>
      <trkpt lat="42.254897" lon="8.929765">
        <ele>1837.2</ele>
        <time>2022-09-11T14:13:49Z</time>
      </trkpt>
      <trkpt lat="42.254905" lon="8.929883">
        <ele>1836.6</ele>
        <time>2022-09-11T14:13:54Z</time>
      </trkpt>
      <trkpt lat="42.254922" lon="8.929963">
        <ele>1836.2</ele>
        <time>2022-09-11T14:13:59Z</time>
      </trkpt>
      <trkpt lat="42.254928" lon="8.930012">
        <ele>1835.4</ele>
        <time>2022-09-11T14:14:03Z</time>
      </trkpt>
      <trkpt lat="42.254998" lon="8.930198">
        <ele>1835.4</ele>
        <time>2022-09-11T14:14:19Z</time>
      </trkpt>
      <trkpt lat="42.255035" lon="8.930415">
        <ele>1835.8</ele>
        <time>2022-09-11T14:14:37Z</time>
      </trkpt>
      <trkpt lat="42.25503" lon="8.930522">
        <ele>1835.8</ele>
        <time>2022-09-11T14:14:45Z</time>
      </trkpt>
      <trkpt lat="42.25502" lon="8.93059">
        <ele>1835.8</ele>
        <time>2022-09-11T14:14:50Z</time>
      </trkpt>
      <trkpt lat="42.255037" lon="8.930745">
        <ele>1835.6</ele>
        <time>2022-09-11T14:15:06Z</time>
      </trkpt>
      <trkpt lat="42.255092" lon="8.930952">
        <ele>1835.4</ele>
        <time>2022-09-11T14:15:21Z</time>
      </trkpt>
      <trkpt lat="42.25515" lon="8.931173">
        <ele>1834.6</ele>
        <time>2022-09-11T14:15:38Z</time>
      </trkpt>
      <trkpt lat="42.255063" lon="8.931342">
        <ele>1834.6</ele>
        <time>2022-09-11T14:15:53Z</time>
      </trkpt>
      <trkpt lat="42.255007" lon="8.93144">
        <ele>1834.6</ele>
        <time>2022-09-11T14:16:02Z</time>
      </trkpt>
      <trkpt lat="42.254967" lon="8.931567">
        <ele>1834.4</ele>
        <time>2022-09-11T14:16:14Z</time>
      </trkpt>
      <trkpt lat="42.254945" lon="8.931697">
        <ele>1833.4</ele>
        <time>2022-09-11T14:16:24Z</time>
      </trkpt>
      <trkpt lat="42.254962" lon="8.931775">
        <ele>1833.2</ele>
        <time>2022-09-11T14:16:30Z</time>
      </trkpt>
      <trkpt lat="42.254983" lon="8.931872">
        <ele>1833.0</ele>
        <time>2022-09-11T14:16:38Z</time>
      </trkpt>
      <trkpt lat="42.25498" lon="8.931942">
        <ele>1833.0</ele>
        <time>2022-09-11T14:16:44Z</time>
      </trkpt>
      <trkpt lat="42.254975" lon="8.931962">
        <ele>1833.0</ele>
        <time>2022-09-11T14:16:46Z</time>
      </trkpt>
      <trkpt lat="42.254993" lon="8.932108">
        <ele>1832.8</ele>
        <time>2022-09-11T14:16:59Z</time>
      </trkpt>
      <trkpt lat="42.255033" lon="8.932287">
        <ele>1832.6</ele>
        <time>2022-09-11T14:17:14Z</time>
      </trkpt>
      <trkpt lat="42.255055" lon="8.932355">
        <ele>1832.6</ele>
        <time>2022-09-11T14:17:20Z</time>
      </trkpt>
      <trkpt lat="42.255147" lon="8.932462">
        <ele>1832.4</ele>
        <time>2022-09-11T14:17:34Z</time>
      </trkpt>
      <trkpt lat="42.255182" lon="8.932523">
        <ele>1832.0</ele>
        <time>2022-09-11T14:17:43Z</time>
      </trkpt>
      <trkpt lat="42.255225" lon="8.932688">
        <ele>1831.6</ele>
        <time>2022-09-11T14:18:01Z</time>
      </trkpt>
      <trkpt lat="42.255228" lon="8.932697">
        <ele>1831.6</ele>
        <time>2022-09-11T14:18:02Z</time>
      </trkpt>
      <trkpt lat="42.25524" lon="8.932765">
        <ele>1831.6</ele>
        <time>2022-09-11T14:18:07Z</time>
      </trkpt>
      <trkpt lat="42.255262" lon="8.932907">
        <ele>1831.6</ele>
        <time>2022-09-11T14:18:17Z</time>
      </trkpt>
      <trkpt lat="42.255357" lon="8.933197">
        <ele>1828.8</ele>
        <time>2022-09-11T14:18:42Z</time>
      </trkpt>
      <trkpt lat="42.25536" lon="8.933212">
        <ele>1828.4</ele>
        <time>2022-09-11T14:18:43Z</time>
      </trkpt>
      <trkpt lat="42.255332" lon="8.933313">
        <ele>1828.2</ele>
        <time>2022-09-11T14:18:54Z</time>
      </trkpt>
      <trkpt lat="42.255317" lon="8.933378">
        <ele>1828.0</ele>
        <time>2022-09-11T14:19:01Z</time>
      </trkpt>
      <trkpt lat="42.255295" lon="8.933403">
        <ele>1827.8</ele>
        <time>2022-09-11T14:19:07Z</time>
      </trkpt>
      <trkpt lat="42.25523" lon="8.933433">
        <ele>1827.0</ele>
        <time>2022-09-11T14:19:19Z</time>
      </trkpt>
      <trkpt lat="42.255195" lon="8.93346">
        <ele>1826.6</ele>
        <time>2022-09-11T14:19:22Z</time>
      </trkpt>
      <trkpt lat="42.255185" lon="8.933475">
        <ele>1826.6</ele>
        <time>2022-09-11T14:19:23Z</time>
      </trkpt>
      <trkpt lat="42.255128" lon="8.933595">
        <ele>1826.0</ele>
        <time>2022-09-11T14:19:31Z</time>
      </trkpt>
      <trkpt lat="42.255113" lon="8.93362">
        <ele>1826.0</ele>
        <time>2022-09-11T14:19:33Z</time>
      </trkpt>
      <trkpt lat="42.255178" lon="8.933762">
        <ele>1825.0</ele>
        <time>2022-09-11T14:19:43Z</time>
      </trkpt>
      <trkpt lat="42.255208" lon="8.933832">
        <ele>1824.6</ele>
        <time>2022-09-11T14:19:48Z</time>
      </trkpt>
      <trkpt lat="42.255298" lon="8.933948">
        <ele>1823.4</ele>
        <time>2022-09-11T14:20:00Z</time>
      </trkpt>
      <trkpt lat="42.25531" lon="8.933987">
        <ele>1822.2</ele>
        <time>2022-09-11T14:20:30Z</time>
      </trkpt>
      <trkpt lat="42.255307" lon="8.933958">
        <ele>1822.2</ele>
        <time>2022-09-11T14:20:40Z</time>
      </trkpt>
      <trkpt lat="42.255305" lon="8.933908">
        <ele>1821.0</ele>
        <time>2022-09-11T14:20:53Z</time>
      </trkpt>
      <trkpt lat="42.255325" lon="8.933858">
        <ele>1819.2</ele>
        <time>2022-09-11T14:21:07Z</time>
      </trkpt>
      <trkpt lat="42.25535" lon="8.933852">
        <ele>1818.0</ele>
        <time>2022-09-11T14:21:14Z</time>
      </trkpt>
      <trkpt lat="42.25536" lon="8.933862">
        <ele>1817.8</ele>
        <time>2022-09-11T14:21:17Z</time>
      </trkpt>
      <trkpt lat="42.255388" lon="8.933912">
        <ele>1816.4</ele>
        <time>2022-09-11T14:21:32Z</time>
      </trkpt>
      <trkpt lat="42.255397" lon="8.933933">
        <ele>1816.2</ele>
        <time>2022-09-11T14:21:37Z</time>
      </trkpt>
      <trkpt lat="42.255453" lon="8.933965">
        <ele>1815.0</ele>
        <time>2022-09-11T14:21:49Z</time>
      </trkpt>
      <trkpt lat="42.255452" lon="8.934052">
        <ele>1813.8</ele>
        <time>2022-09-11T14:21:59Z</time>
      </trkpt>
      <trkpt lat="42.255453" lon="8.934132">
        <ele>1813.0</ele>
        <time>2022-09-11T14:22:07Z</time>
      </trkpt>
      <trkpt lat="42.25545" lon="8.934168">
        <ele>1812.2</ele>
        <time>2022-09-11T14:22:12Z</time>
      </trkpt>
      <trkpt lat="42.255467" lon="8.934202">
        <ele>1810.4</ele>
        <time>2022-09-11T14:22:23Z</time>
      </trkpt>
      <trkpt lat="42.255495" lon="8.934207">
        <ele>1808.8</ele>
        <time>2022-09-11T14:22:30Z</time>
      </trkpt>
      <trkpt lat="42.255525" lon="8.934245">
        <ele>1808.0</ele>
        <time>2022-09-11T14:22:35Z</time>
      </trkpt>
      <trkpt lat="42.255545" lon="8.9343">
        <ele>1807.2</ele>
        <time>2022-09-11T14:22:40Z</time>
      </trkpt>
      <trkpt lat="42.255633" lon="8.934333">
        <ele>1806.0</ele>
        <time>2022-09-11T14:22:54Z</time>
      </trkpt>
      <trkpt lat="42.255733" lon="8.934372">
        <ele>1801.8</ele>
        <time>2022-09-11T14:23:45Z</time>
      </trkpt>
      <trkpt lat="42.25573" lon="8.934402">
        <ele>1801.2</ele>
        <time>2022-09-11T14:23:49Z</time>
      </trkpt>
      <trkpt lat="42.2557" lon="8.934448">
        <ele>1800.4</ele>
        <time>2022-09-11T14:23:56Z</time>
      </trkpt>
      <trkpt lat="42.255672" lon="8.934472">
        <ele>1800.2</ele>
        <time>2022-09-11T14:24:02Z</time>
      </trkpt>
      <trkpt lat="42.255638" lon="8.934588">
        <ele>1799.2</ele>
        <time>2022-09-11T14:24:14Z</time>
      </trkpt>
      <trkpt lat="42.25563" lon="8.934623">
        <ele>1798.6</ele>
        <time>2022-09-11T14:24:18Z</time>
      </trkpt>
      <trkpt lat="42.255583" lon="8.934737">
        <ele>1797.6</ele>
        <time>2022-09-11T14:24:30Z</time>
      </trkpt>
      <trkpt lat="42.255557" lon="8.934832">
        <ele>1796.6</ele>
        <time>2022-09-11T14:24:40Z</time>
      </trkpt>
      <trkpt lat="42.255528" lon="8.934913">
        <ele>1795.8</ele>
        <time>2022-09-11T14:24:49Z</time>
      </trkpt>
      <trkpt lat="42.255525" lon="8.93492">
        <ele>1795.8</ele>
        <time>2022-09-11T14:24:50Z</time>
      </trkpt>
      <trkpt lat="42.255512" lon="8.935013">
        <ele>1793.8</ele>
        <time>2022-09-11T14:25:09Z</time>
      </trkpt>
      <trkpt lat="42.255507" lon="8.935017">
        <ele>1793.8</ele>
        <time>2022-09-11T14:25:10Z</time>
      </trkpt>
      <trkpt lat="42.255482" lon="8.935048">
        <ele>1793.0</ele>
        <time>2022-09-11T14:25:18Z</time>
      </trkpt>
      <trkpt lat="42.255482" lon="8.93509">
        <ele>1792.6</ele>
        <time>2022-09-11T14:25:25Z</time>
      </trkpt>
      <trkpt lat="42.255503" lon="8.935147">
        <ele>1790.6</ele>
        <time>2022-09-11T14:25:41Z</time>
      </trkpt>
      <trkpt lat="42.2555" lon="8.93517">
        <ele>1789.4</ele>
        <time>2022-09-11T14:25:46Z</time>
      </trkpt>
      <trkpt lat="42.255395" lon="8.935297">
        <ele>1786.8</ele>
        <time>2022-09-11T14:26:08Z</time>
      </trkpt>
      <trkpt lat="42.255368" lon="8.93531">
        <ele>1785.6</ele>
        <time>2022-09-11T14:26:15Z</time>
      </trkpt>
      <trkpt lat="42.255342" lon="8.93537">
        <ele>1785.4</ele>
        <time>2022-09-11T14:26:21Z</time>
      </trkpt>
      <trkpt lat="42.255338" lon="8.935445">
        <ele>1785.0</ele>
        <time>2022-09-11T14:26:27Z</time>
      </trkpt>
      <trkpt lat="42.255465" lon="8.93556">
        <ele>1783.4</ele>
        <time>2022-09-11T14:26:48Z</time>
      </trkpt>
      <trkpt lat="42.255503" lon="8.935582">
        <ele>1782.2</ele>
        <time>2022-09-11T14:26:58Z</time>
      </trkpt>
      <trkpt lat="42.255502" lon="8.935612">
        <ele>1781.8</ele>
        <time>2022-09-11T14:27:02Z</time>
      </trkpt>
      <trkpt lat="42.255533" lon="8.935723">
        <ele>1780.0</ele>
        <time>2022-09-11T14:27:16Z</time>
      </trkpt>
      <trkpt lat="42.255583" lon="8.935948">
        <ele>1776.6</ele>
        <time>2022-09-11T14:27:41Z</time>
      </trkpt>
      <trkpt lat="42.25559" lon="8.936038">
        <ele>1775.2</ele>
        <time>2022-09-11T14:27:52Z</time>
      </trkpt>
      <trkpt lat="42.255678" lon="8.936353">
        <ele>1771.6</ele>
        <time>2022-09-11T14:28:18Z</time>
      </trkpt>
      <trkpt lat="42.255705" lon="8.936445">
        <ele>1770.4</ele>
        <time>2022-09-11T14:28:25Z</time>
      </trkpt>
      <trkpt lat="42.25573" lon="8.936523">
        <ele>1770.0</ele>
        <time>2022-09-11T14:28:31Z</time>
      </trkpt>
      <trkpt lat="42.255748" lon="8.936538">
        <ele>1770.0</ele>
        <time>2022-09-11T14:28:33Z</time>
      </trkpt>
      <trkpt lat="42.25583" lon="8.936578">
        <ele>1768.4</ele>
        <time>2022-09-11T14:28:43Z</time>
      </trkpt>
      <trkpt lat="42.25586" lon="8.936598">
        <ele>1768.2</ele>
        <time>2022-09-11T14:28:47Z</time>
      </trkpt>
      <trkpt lat="42.25595" lon="8.93678">
        <ele>1762.2</ele>
        <time>2022-09-11T14:29:24Z</time>
      </trkpt>
      <trkpt lat="42.255968" lon="8.936805">
        <ele>1761.4</ele>
        <time>2022-09-11T14:29:27Z</time>
      </trkpt>
      <trkpt lat="42.25602" lon="8.936907">
        <ele>1760.2</ele>
        <time>2022-09-11T14:29:36Z</time>
      </trkpt>
      <trkpt lat="42.256063" lon="8.936947">
        <ele>1759.2</ele>
        <time>2022-09-11T14:29:42Z</time>
      </trkpt>
      <trkpt lat="42.256097" lon="8.936957">
        <ele>1758.4</ele>
        <time>2022-09-11T14:29:46Z</time>
      </trkpt>
      <trkpt lat="42.25617" lon="8.936958">
        <ele>1756.6</ele>
        <time>2022-09-11T14:29:56Z</time>
      </trkpt>
      <trkpt lat="42.256183" lon="8.937083">
        <ele>1755.8</ele>
        <time>2022-09-11T14:30:04Z</time>
      </trkpt>
      <trkpt lat="42.2562" lon="8.9371">
        <ele>1755.4</ele>
        <time>2022-09-11T14:30:06Z</time>
      </trkpt>
      <trkpt lat="42.256245" lon="8.937132">
        <ele>1754.6</ele>
        <time>2022-09-11T14:30:12Z</time>
      </trkpt>
      <trkpt lat="42.256323" lon="8.9372">
        <ele>1753.2</ele>
        <time>2022-09-11T14:30:21Z</time>
      </trkpt>
      <trkpt lat="42.256415" lon="8.93725">
        <ele>1751.8</ele>
        <time>2022-09-11T14:30:31Z</time>
      </trkpt>
      <trkpt lat="42.256523" lon="8.937353">
        <ele>1750.0</ele>
        <time>2022-09-11T14:30:45Z</time>
      </trkpt>
      <trkpt lat="42.256535" lon="8.937352">
        <ele>1750.0</ele>
        <time>2022-09-11T14:30:45Z</time>
      </trkpt>
      <trkpt lat="42.256567" lon="8.937402">
        <ele>1748.8</ele>
        <time>2022-09-11T14:30:53Z</time>
      </trkpt>
      <trkpt lat="42.256607" lon="8.937443">
        <ele>1747.6</ele>
        <time>2022-09-11T14:31:00Z</time>
      </trkpt>
      <trkpt lat="42.256645" lon="8.93748">
        <ele>1746.6</ele>
        <time>2022-09-11T14:31:07Z</time>
      </trkpt>
      <trkpt lat="42.256687" lon="8.937573">
        <ele>1744.8</ele>
        <time>2022-09-11T14:31:18Z</time>
      </trkpt>
      <trkpt lat="42.256748" lon="8.93765">
        <ele>1743.0</ele>
        <time>2022-09-11T14:31:29Z</time>
      </trkpt>
      <trkpt lat="42.25677" lon="8.937692">
        <ele>1741.8</ele>
        <time>2022-09-11T14:31:35Z</time>
      </trkpt>
      <trkpt lat="42.25677" lon="8.937782">
        <ele>1740.8</ele>
        <time>2022-09-11T14:31:44Z</time>
      </trkpt>
      <trkpt lat="42.256768" lon="8.93779">
        <ele>1740.4</ele>
        <time>2022-09-11T14:31:45Z</time>
      </trkpt>
      <trkpt lat="42.256818" lon="8.937915">
        <ele>1738.6</ele>
        <time>2022-09-11T14:31:59Z</time>
      </trkpt>
      <trkpt lat="42.25682" lon="8.937957">
        <ele>1738.0</ele>
        <time>2022-09-11T14:32:03Z</time>
      </trkpt>
      <trkpt lat="42.256767" lon="8.93806">
        <ele>1737.4</ele>
        <time>2022-09-11T14:32:17Z</time>
      </trkpt>
      <trkpt lat="42.256758" lon="8.938077">
        <ele>1737.4</ele>
        <time>2022-09-11T14:32:19Z</time>
      </trkpt>
      <trkpt lat="42.256762" lon="8.938145">
        <ele>1736.4</ele>
        <time>2022-09-11T14:32:26Z</time>
      </trkpt>
      <trkpt lat="42.256765" lon="8.938162">
        <ele>1736.2</ele>
        <time>2022-09-11T14:32:28Z</time>
      </trkpt>
      <trkpt lat="42.2568" lon="8.938222">
        <ele>1736.0</ele>
        <time>2022-09-11T14:32:33Z</time>
      </trkpt>
      <trkpt lat="42.25678" lon="8.938297">
        <ele>1735.6</ele>
        <time>2022-09-11T14:32:38Z</time>
      </trkpt>
      <trkpt lat="42.256827" lon="8.93841">
        <ele>1735.0</ele>
        <time>2022-09-11T14:32:46Z</time>
      </trkpt>
      <trkpt lat="42.256898" lon="8.938507">
        <ele>1734.8</ele>
        <time>2022-09-11T14:32:54Z</time>
      </trkpt>
      <trkpt lat="42.256948" lon="8.93857">
        <ele>1734.4</ele>
        <time>2022-09-11T14:32:59Z</time>
      </trkpt>
      <trkpt lat="42.257057" lon="8.938972">
        <ele>1734.6</ele>
        <time>2022-09-11T14:33:31Z</time>
      </trkpt>
      <trkpt lat="42.257073" lon="8.939045">
        <ele>1734.8</ele>
        <time>2022-09-11T14:33:37Z</time>
      </trkpt>
      <trkpt lat="42.257097" lon="8.939113">
        <ele>1735.0</ele>
        <time>2022-09-11T14:33:41Z</time>
      </trkpt>
      <trkpt lat="42.257118" lon="8.939203">
        <ele>1735.0</ele>
        <time>2022-09-11T14:33:46Z</time>
      </trkpt>
      <trkpt lat="42.257125" lon="8.939258">
        <ele>1735.4</ele>
        <time>2022-09-11T14:33:49Z</time>
      </trkpt>
      <trkpt lat="42.257118" lon="8.939312">
        <ele>1735.4</ele>
        <time>2022-09-11T14:33:52Z</time>
      </trkpt>
      <trkpt lat="42.257098" lon="8.939357">
        <ele>1735.6</ele>
        <time>2022-09-11T14:33:55Z</time>
      </trkpt>
      <trkpt lat="42.257068" lon="8.93939">
        <ele>1735.8</ele>
        <time>2022-09-11T14:33:58Z</time>
      </trkpt>
      <trkpt lat="42.25699" lon="8.93946">
        <ele>1736.0</ele>
        <time>2022-09-11T14:34:06Z</time>
      </trkpt>
      <trkpt lat="42.256745" lon="8.939732">
        <ele>1735.6</ele>
        <time>2022-09-11T14:34:39Z</time>
      </trkpt>
      <trkpt lat="42.256732" lon="8.93985">
        <ele>1735.6</ele>
        <time>2022-09-11T14:34:47Z</time>
      </trkpt>
      <trkpt lat="42.256738" lon="8.940008">
        <ele>1736.0</ele>
        <time>2022-09-11T14:35:00Z</time>
      </trkpt>
      <trkpt lat="42.256753" lon="8.940113">
        <ele>1736.2</ele>
        <time>2022-09-11T14:35:07Z</time>
      </trkpt>
      <trkpt lat="42.256755" lon="8.940218">
        <ele>1736.2</ele>
        <time>2022-09-11T14:35:14Z</time>
      </trkpt>
      <trkpt lat="42.256748" lon="8.94032">
        <ele>1736.6</ele>
        <time>2022-09-11T14:35:21Z</time>
      </trkpt>
      <trkpt lat="42.256738" lon="8.94064">
        <ele>1736.0</ele>
        <time>2022-09-11T14:35:43Z</time>
      </trkpt>
      <trkpt lat="42.25672" lon="8.940737">
        <ele>1735.8</ele>
        <time>2022-09-11T14:35:50Z</time>
      </trkpt>
      <trkpt lat="42.256708" lon="8.940815">
        <ele>1735.8</ele>
        <time>2022-09-11T14:35:55Z</time>
      </trkpt>
      <trkpt lat="42.256707" lon="8.940897">
        <ele>1735.6</ele>
        <time>2022-09-11T14:36:01Z</time>
      </trkpt>
      <trkpt lat="42.25665" lon="8.940995">
        <ele>1735.4</ele>
        <time>2022-09-11T14:36:10Z</time>
      </trkpt>
      <trkpt lat="42.256592" lon="8.941088">
        <ele>1735.4</ele>
        <time>2022-09-11T14:36:19Z</time>
      </trkpt>
      <trkpt lat="42.256498" lon="8.941188">
        <ele>1735.2</ele>
        <time>2022-09-11T14:36:32Z</time>
      </trkpt>
      <trkpt lat="42.256415" lon="8.941245">
        <ele>1735.0</ele>
        <time>2022-09-11T14:36:40Z</time>
      </trkpt>
      <trkpt lat="42.256275" lon="8.941448">
        <ele>1735.0</ele>
        <time>2022-09-11T14:36:56Z</time>
      </trkpt>
      <trkpt lat="42.256218" lon="8.941533">
        <ele>1735.0</ele>
        <time>2022-09-11T14:37:02Z</time>
      </trkpt>
      <trkpt lat="42.256028" lon="8.941733">
        <ele>1735.6</ele>
        <time>2022-09-11T14:37:21Z</time>
      </trkpt>
      <trkpt lat="42.255928" lon="8.94184">
        <ele>1735.4</ele>
        <time>2022-09-11T14:37:36Z</time>
      </trkpt>
      <trkpt lat="42.255898" lon="8.941913">
        <ele>1735.4</ele>
        <time>2022-09-11T14:37:43Z</time>
      </trkpt>
      <trkpt lat="42.255872" lon="8.941935">
        <ele>1735.4</ele>
        <time>2022-09-11T14:37:47Z</time>
      </trkpt>
      <trkpt lat="42.255792" lon="8.94195">
        <ele>1735.8</ele>
        <time>2022-09-11T14:38:02Z</time>
      </trkpt>
      <trkpt lat="42.25579" lon="8.94195">
        <ele>1735.8</ele>
        <time>2022-09-11T14:38:03Z</time>
      </trkpt>
      <trkpt lat="42.255772" lon="8.94195">
        <ele>1735.2</ele>
        <time>2022-09-11T14:38:08Z</time>
      </trkpt>
      <trkpt lat="42.255715" lon="8.94191">
        <ele>1735.2</ele>
        <time>2022-09-11T14:38:13Z</time>
      </trkpt>
      <trkpt lat="42.255697" lon="8.94191">
        <ele>1735.0</ele>
        <time>2022-09-11T14:38:14Z</time>
      </trkpt>
      <trkpt lat="42.255623" lon="8.941975">
        <ele>1735.0</ele>
        <time>2022-09-11T14:38:21Z</time>
      </trkpt>
      <trkpt lat="42.255528" lon="8.942005">
        <ele>1734.4</ele>
        <time>2022-09-11T14:38:32Z</time>
      </trkpt>
      <trkpt lat="42.255462" lon="8.942028">
        <ele>1734.0</ele>
        <time>2022-09-11T14:41:10Z</time>
      </trkpt>
      <trkpt lat="42.255412" lon="8.942038">
        <ele>1733.6</ele>
        <time>2022-09-11T14:42:51Z</time>
      </trkpt>
      <trkpt lat="42.255365" lon="8.942063">
        <ele>1733.6</ele>
        <time>2022-09-11T14:43:00Z</time>
      </trkpt>
      <trkpt lat="42.255338" lon="8.942083">
        <ele>1733.2</ele>
        <time>2022-09-11T14:43:34Z</time>
      </trkpt>
      <trkpt lat="42.255353" lon="8.942097">
        <ele>1735.2</ele>
        <time>2022-09-11T14:44:32Z</time>
      </trkpt>
      <trkpt lat="42.25536" lon="8.942097">
        <ele>1735.2</ele>
        <time>2022-09-11T14:44:39Z</time>
      </trkpt>
      <trkpt lat="42.255357" lon="8.942138">
        <ele>1735.2</ele>
        <time>2022-09-11T14:44:44Z</time>
      </trkpt>
      <trkpt lat="42.255315" lon="8.942265">
        <ele>1735.2</ele>
        <time>2022-09-11T14:44:52Z</time>
      </trkpt>
      <trkpt lat="42.2553" lon="8.942297">
        <ele>1735.2</ele>
        <time>2022-09-11T14:44:55Z</time>
      </trkpt>
      <trkpt lat="42.255295" lon="8.942297">
        <ele>1735.2</ele>
        <time>2022-09-11T14:44:59Z</time>
      </trkpt>
      <trkpt lat="42.255317" lon="8.942283">
        <ele>1735.4</ele>
        <time>2022-09-11T14:45:11Z</time>
      </trkpt>
      <trkpt lat="42.255342" lon="8.942257">
        <ele>1735.8</ele>
        <time>2022-09-11T14:45:19Z</time>
      </trkpt>
      <trkpt lat="42.255345" lon="8.942252">
        <ele>1735.8</ele>
        <time>2022-09-11T14:45:19Z</time>
      </trkpt>
      <trkpt lat="42.255292" lon="8.94223">
        <ele>1736.6</ele>
        <time>2022-09-11T14:45:26Z</time>
      </trkpt>
      <trkpt lat="42.255238" lon="8.942288">
        <ele>1737.2</ele>
        <time>2022-09-11T14:45:33Z</time>
      </trkpt>
      <trkpt lat="42.255175" lon="8.942358">
        <ele>1737.8</ele>
        <time>2022-09-11T14:45:42Z</time>
      </trkpt>
      <trkpt lat="42.255065" lon="8.942485">
        <ele>1737.6</ele>
        <time>2022-09-11T14:45:53Z</time>
      </trkpt>
      <trkpt lat="42.254987" lon="8.942548">
        <ele>1737.6</ele>
        <time>2022-09-11T14:46:01Z</time>
      </trkpt>
      <trkpt lat="42.254647" lon="8.942773">
        <ele>1736.6</ele>
        <time>2022-09-11T14:46:42Z</time>
      </trkpt>
      <trkpt lat="42.254573" lon="8.942848">
        <ele>1736.6</ele>
        <time>2022-09-11T14:46:50Z</time>
      </trkpt>
      <trkpt lat="42.25456" lon="8.94287">
        <ele>1736.6</ele>
        <time>2022-09-11T14:46:53Z</time>
      </trkpt>
      <trkpt lat="42.25452" lon="8.943298">
        <ele>1737.0</ele>
        <time>2022-09-11T14:47:33Z</time>
      </trkpt>
      <trkpt lat="42.254522" lon="8.943322">
        <ele>1737.0</ele>
        <time>2022-09-11T14:47:35Z</time>
      </trkpt>
      <trkpt lat="42.25452" lon="8.943613">
        <ele>1736.4</ele>
        <time>2022-09-11T14:47:55Z</time>
      </trkpt>
      <trkpt lat="42.254498" lon="8.943718">
        <ele>1736.4</ele>
        <time>2022-09-11T14:48:03Z</time>
      </trkpt>
      <trkpt lat="42.254468" lon="8.943818">
        <ele>1737.0</ele>
        <time>2022-09-11T14:48:16Z</time>
      </trkpt>
      <trkpt lat="42.254455" lon="8.943847">
        <ele>1737.0</ele>
        <time>2022-09-11T14:48:19Z</time>
      </trkpt>
      <trkpt lat="42.254347" lon="8.943955">
        <ele>1737.0</ele>
        <time>2022-09-11T14:48:29Z</time>
      </trkpt>
      <trkpt lat="42.254175" lon="8.944145">
        <ele>1736.6</ele>
        <time>2022-09-11T14:48:46Z</time>
      </trkpt>
      <trkpt lat="42.254007" lon="8.94429">
        <ele>1736.0</ele>
        <time>2022-09-11T14:49:00Z</time>
      </trkpt>
      <trkpt lat="42.253987" lon="8.944373">
        <ele>1735.8</ele>
        <time>2022-09-11T14:49:06Z</time>
      </trkpt>
      <trkpt lat="42.253972" lon="8.944448">
        <ele>1735.8</ele>
        <time>2022-09-11T14:49:10Z</time>
      </trkpt>
      <trkpt lat="42.253965" lon="8.944565">
        <ele>1736.0</ele>
        <time>2022-09-11T14:49:16Z</time>
      </trkpt>
      <trkpt lat="42.253875" lon="8.944833">
        <ele>1737.2</ele>
        <time>2022-09-11T14:49:34Z</time>
      </trkpt>
      <trkpt lat="42.253875" lon="8.944902">
        <ele>1737.2</ele>
        <time>2022-09-11T14:49:40Z</time>
      </trkpt>
      <trkpt lat="42.253863" lon="8.944933">
        <ele>1737.2</ele>
        <time>2022-09-11T14:49:45Z</time>
      </trkpt>
      <trkpt lat="42.253815" lon="8.945">
        <ele>1737.0</ele>
        <time>2022-09-11T14:49:58Z</time>
      </trkpt>
      <trkpt lat="42.253807" lon="8.945187">
        <ele>1737.0</ele>
        <time>2022-09-11T14:50:14Z</time>
      </trkpt>
      <trkpt lat="42.253783" lon="8.945272">
        <ele>1736.6</ele>
        <time>2022-09-11T14:50:21Z</time>
      </trkpt>
      <trkpt lat="42.253778" lon="8.945283">
        <ele>1736.6</ele>
        <time>2022-09-11T14:50:22Z</time>
      </trkpt>
      <trkpt lat="42.253758" lon="8.945377">
        <ele>1736.4</ele>
        <time>2022-09-11T14:50:31Z</time>
      </trkpt>
      <trkpt lat="42.253742" lon="8.945417">
        <ele>1736.4</ele>
        <time>2022-09-11T14:50:35Z</time>
      </trkpt>
      <trkpt lat="42.253668" lon="8.945518">
        <ele>1736.8</ele>
        <time>2022-09-11T14:50:49Z</time>
      </trkpt>
      <trkpt lat="42.253657" lon="8.945557">
        <ele>1736.8</ele>
        <time>2022-09-11T14:50:53Z</time>
      </trkpt>
      <trkpt lat="42.253658" lon="8.945653">
        <ele>1736.6</ele>
        <time>2022-09-11T14:51:02Z</time>
      </trkpt>
      <trkpt lat="42.253638" lon="8.945747">
        <ele>1736.8</ele>
        <time>2022-09-11T14:51:14Z</time>
      </trkpt>
      <trkpt lat="42.25361" lon="8.945787">
        <ele>1736.2</ele>
        <time>2022-09-11T14:51:21Z</time>
      </trkpt>
      <trkpt lat="42.253555" lon="8.945832">
        <ele>1736.2</ele>
        <time>2022-09-11T14:51:27Z</time>
      </trkpt>
      <trkpt lat="42.253475" lon="8.945887">
        <ele>1735.8</ele>
        <time>2022-09-11T14:51:33Z</time>
      </trkpt>
      <trkpt lat="42.25343" lon="8.945895">
        <ele>1735.6</ele>
        <time>2022-09-11T14:51:36Z</time>
      </trkpt>
      <trkpt lat="42.253355" lon="8.945893">
        <ele>1735.4</ele>
        <time>2022-09-11T14:51:43Z</time>
      </trkpt>
      <trkpt lat="42.253292" lon="8.945932">
        <ele>1735.4</ele>
        <time>2022-09-11T14:51:52Z</time>
      </trkpt>
      <trkpt lat="42.253217" lon="8.946003">
        <ele>1735.6</ele>
        <time>2022-09-11T14:52:12Z</time>
      </trkpt>
      <trkpt lat="42.253215" lon="8.946007">
        <ele>1735.6</ele>
        <time>2022-09-11T14:52:13Z</time>
      </trkpt>
      <trkpt lat="42.25311" lon="8.946365">
        <ele>1735.6</ele>
        <time>2022-09-11T14:52:32Z</time>
      </trkpt>
      <trkpt lat="42.253058" lon="8.946457">
        <ele>1736.2</ele>
        <time>2022-09-11T14:52:38Z</time>
      </trkpt>
      <trkpt lat="42.252955" lon="8.94662">
        <ele>1736.2</ele>
        <time>2022-09-11T14:52:48Z</time>
      </trkpt>
      <trkpt lat="42.252902" lon="8.9467">
        <ele>1736.4</ele>
        <time>2022-09-11T14:52:53Z</time>
      </trkpt>
      <trkpt lat="42.252873" lon="8.946852">
        <ele>1736.2</ele>
        <time>2022-09-11T14:53:03Z</time>
      </trkpt>
      <trkpt lat="42.252858" lon="8.946983">
        <ele>1736.4</ele>
        <time>2022-09-11T14:53:13Z</time>
      </trkpt>
      <trkpt lat="42.252843" lon="8.947188">
        <ele>1736.4</ele>
        <time>2022-09-11T14:53:28Z</time>
      </trkpt>
      <trkpt lat="42.25283" lon="8.947278">
        <ele>1736.6</ele>
        <time>2022-09-11T14:53:34Z</time>
      </trkpt>
      <trkpt lat="42.252825" lon="8.947293">
        <ele>1736.6</ele>
        <time>2022-09-11T14:53:35Z</time>
      </trkpt>
      <trkpt lat="42.252867" lon="8.947472">
        <ele>1736.6</ele>
        <time>2022-09-11T14:53:47Z</time>
      </trkpt>
      <trkpt lat="42.252883" lon="8.947818">
        <ele>1736.8</ele>
        <time>2022-09-11T14:54:11Z</time>
      </trkpt>
      <trkpt lat="42.25289" lon="8.947867">
        <ele>1736.8</ele>
        <time>2022-09-11T14:54:16Z</time>
      </trkpt>
      <trkpt lat="42.252917" lon="8.947975">
        <ele>1736.8</ele>
        <time>2022-09-11T14:54:22Z</time>
      </trkpt>
      <trkpt lat="42.253143" lon="8.948503">
        <ele>1736.8</ele>
        <time>2022-09-11T14:54:54Z</time>
      </trkpt>
      <trkpt lat="42.253147" lon="8.948522">
        <ele>1736.8</ele>
        <time>2022-09-11T14:54:55Z</time>
      </trkpt>
      <trkpt lat="42.253098" lon="8.948573">
        <ele>1737.2</ele>
        <time>2022-09-11T14:55:06Z</time>
      </trkpt>
      <trkpt lat="42.253052" lon="8.948595">
        <ele>1737.2</ele>
        <time>2022-09-11T14:55:11Z</time>
      </trkpt>
      <trkpt lat="42.253008" lon="8.948663">
        <ele>1737.4</ele>
        <time>2022-09-11T14:55:16Z</time>
      </trkpt>
      <trkpt lat="42.25294" lon="8.948903">
        <ele>1737.2</ele>
        <time>2022-09-11T14:55:33Z</time>
      </trkpt>
      <trkpt lat="42.252935" lon="8.948953">
        <ele>1737.2</ele>
        <time>2022-09-11T14:55:35Z</time>
      </trkpt>
      <trkpt lat="42.252942" lon="8.949128">
        <ele>1737.2</ele>
        <time>2022-09-11T14:55:41Z</time>
      </trkpt>
      <trkpt lat="42.252902" lon="8.949243">
        <ele>1737.2</ele>
        <time>2022-09-11T14:55:55Z</time>
      </trkpt>
      <trkpt lat="42.252915" lon="8.949358">
        <ele>1737.2</ele>
        <time>2022-09-11T14:56:02Z</time>
      </trkpt>
      <trkpt lat="42.252987" lon="8.94946">
        <ele>1737.0</ele>
        <time>2022-09-11T14:56:11Z</time>
      </trkpt>
      <trkpt lat="42.253073" lon="8.949528">
        <ele>1737.0</ele>
        <time>2022-09-11T14:56:21Z</time>
      </trkpt>
      <trkpt lat="42.25313" lon="8.949568">
        <ele>1737.0</ele>
        <time>2022-09-11T14:56:27Z</time>
      </trkpt>
      <trkpt lat="42.253157" lon="8.949607">
        <ele>1737.0</ele>
        <time>2022-09-11T14:56:32Z</time>
      </trkpt>
      <trkpt lat="42.25311" lon="8.949703">
        <ele>1736.8</ele>
        <time>2022-09-11T14:56:39Z</time>
      </trkpt>
      <trkpt lat="42.253095" lon="8.94987">
        <ele>1736.4</ele>
        <time>2022-09-11T14:56:49Z</time>
      </trkpt>
      <trkpt lat="42.253092" lon="8.949922">
        <ele>1736.8</ele>
        <time>2022-09-11T14:56:52Z</time>
      </trkpt>
      <trkpt lat="42.25311" lon="8.950432">
        <ele>1737.4</ele>
        <time>2022-09-11T14:57:26Z</time>
      </trkpt>
      <trkpt lat="42.253115" lon="8.950448">
        <ele>1737.4</ele>
        <time>2022-09-11T14:57:28Z</time>
      </trkpt>
      <trkpt lat="42.253137" lon="8.95054">
        <ele>1737.4</ele>
        <time>2022-09-11T14:57:33Z</time>
      </trkpt>
      <trkpt lat="42.253158" lon="8.950653">
        <ele>1737.8</ele>
        <time>2022-09-11T14:57:39Z</time>
      </trkpt>
      <trkpt lat="42.25312" lon="8.950803">
        <ele>1738.2</ele>
        <time>2022-09-11T14:57:56Z</time>
      </trkpt>
      <trkpt lat="42.25324" lon="8.95101">
        <ele>1738.2</ele>
        <time>2022-09-11T14:58:09Z</time>
      </trkpt>
      <trkpt lat="42.253348" lon="8.951152">
        <ele>1738.2</ele>
        <time>2022-09-11T14:58:20Z</time>
      </trkpt>
      <trkpt lat="42.253367" lon="8.951185">
        <ele>1738.2</ele>
        <time>2022-09-11T14:58:22Z</time>
      </trkpt>
      <trkpt lat="42.253375" lon="8.951202">
        <ele>1738.2</ele>
        <time>2022-09-11T14:58:23Z</time>
      </trkpt>
      <trkpt lat="42.25349" lon="8.95129">
        <ele>1738.2</ele>
        <time>2022-09-11T14:58:38Z</time>
      </trkpt>
      <trkpt lat="42.253525" lon="8.951323">
        <ele>1738.0</ele>
        <time>2022-09-11T14:58:44Z</time>
      </trkpt>
      <trkpt lat="42.253532" lon="8.951353">
        <ele>1738.0</ele>
        <time>2022-09-11T14:58:47Z</time>
      </trkpt>
      <trkpt lat="42.253533" lon="8.951443">
        <ele>1738.2</ele>
        <time>2022-09-11T14:58:55Z</time>
      </trkpt>
      <trkpt lat="42.253537" lon="8.951452">
        <ele>1738.2</ele>
        <time>2022-09-11T14:58:56Z</time>
      </trkpt>
      <trkpt lat="42.25353" lon="8.951517">
        <ele>1738.2</ele>
        <time>2022-09-11T14:59:00Z</time>
      </trkpt>
      <trkpt lat="42.253492" lon="8.951943">
        <ele>1738.6</ele>
        <time>2022-09-11T14:59:27Z</time>
      </trkpt>
      <trkpt lat="42.253438" lon="8.952005">
        <ele>1738.6</ele>
        <time>2022-09-11T14:59:35Z</time>
      </trkpt>
      <trkpt lat="42.253448" lon="8.952233">
        <ele>1738.6</ele>
        <time>2022-09-11T14:59:53Z</time>
      </trkpt>
      <trkpt lat="42.253418" lon="8.952333">
        <ele>1738.4</ele>
        <time>2022-09-11T15:00:01Z</time>
      </trkpt>
      <trkpt lat="42.253372" lon="8.952462">
        <ele>1738.4</ele>
        <time>2022-09-11T15:00:12Z</time>
      </trkpt>
      <trkpt lat="42.253365" lon="8.952478">
        <ele>1738.2</ele>
        <time>2022-09-11T15:00:16Z</time>
      </trkpt>
      <trkpt lat="42.253343" lon="8.952492">
        <ele>1738.2</ele>
        <time>2022-09-11T15:00:20Z</time>
      </trkpt>
      <trkpt lat="42.253315" lon="8.95263">
        <ele>1738.2</ele>
        <time>2022-09-11T15:00:26Z</time>
      </trkpt>
      <trkpt lat="42.253298" lon="8.952723">
        <ele>1738.2</ele>
        <time>2022-09-11T15:00:30Z</time>
      </trkpt>
      <trkpt lat="42.253285" lon="8.95315">
        <ele>1738.2</ele>
        <time>2022-09-11T15:00:55Z</time>
      </trkpt>
      <trkpt lat="42.253293" lon="8.95316">
        <ele>1738.2</ele>
        <time>2022-09-11T15:00:56Z</time>
      </trkpt>
      <trkpt lat="42.253303" lon="8.95317">
        <ele>1738.2</ele>
        <time>2022-09-11T15:00:58Z</time>
      </trkpt>
      <trkpt lat="42.253482" lon="8.953295">
        <ele>1738.2</ele>
        <time>2022-09-11T15:01:12Z</time>
      </trkpt>
      <trkpt lat="42.253552" lon="8.953323">
        <ele>1738.2</ele>
        <time>2022-09-11T15:01:17Z</time>
      </trkpt>
      <trkpt lat="42.253623" lon="8.953348">
        <ele>1738.2</ele>
        <time>2022-09-11T15:01:22Z</time>
      </trkpt>
      <trkpt lat="42.253693" lon="8.953375">
        <ele>1738.0</ele>
        <time>2022-09-11T15:01:27Z</time>
      </trkpt>
      <trkpt lat="42.253697" lon="8.953492">
        <ele>1738.2</ele>
        <time>2022-09-11T15:01:37Z</time>
      </trkpt>
      <trkpt lat="42.253725" lon="8.953643">
        <ele>1738.2</ele>
        <time>2022-09-11T15:01:51Z</time>
      </trkpt>
      <trkpt lat="42.253728" lon="8.953665">
        <ele>1738.2</ele>
        <time>2022-09-11T15:01:52Z</time>
      </trkpt>
      <trkpt lat="42.253717" lon="8.9538">
        <ele>1738.8</ele>
        <time>2022-09-11T15:01:59Z</time>
      </trkpt>
      <trkpt lat="42.253727" lon="8.953817">
        <ele>1738.8</ele>
        <time>2022-09-11T15:02:00Z</time>
      </trkpt>
      <trkpt lat="42.25377" lon="8.953877">
        <ele>1739.0</ele>
        <time>2022-09-11T15:02:04Z</time>
      </trkpt>
      <trkpt lat="42.253835" lon="8.954023">
        <ele>1739.4</ele>
        <time>2022-09-11T15:02:14Z</time>
      </trkpt>
      <trkpt lat="42.253845" lon="8.954038">
        <ele>1739.4</ele>
        <time>2022-09-11T15:02:15Z</time>
      </trkpt>
      <trkpt lat="42.253867" lon="8.954072">
        <ele>1739.0</ele>
        <time>2022-09-11T15:02:17Z</time>
      </trkpt>
      <trkpt lat="42.253868" lon="8.954088">
        <ele>1739.0</ele>
        <time>2022-09-11T15:02:18Z</time>
      </trkpt>
      <trkpt lat="42.253882" lon="8.954135">
        <ele>1739.0</ele>
        <time>2022-09-11T15:02:22Z</time>
      </trkpt>
      <trkpt lat="42.253887" lon="8.95415">
        <ele>1739.0</ele>
        <time>2022-09-11T15:02:23Z</time>
      </trkpt>
      <trkpt lat="42.253985" lon="8.954305">
        <ele>1739.0</ele>
        <time>2022-09-11T15:02:40Z</time>
      </trkpt>
      <trkpt lat="42.254085" lon="8.954503">
        <ele>1739.2</ele>
        <time>2022-09-11T15:02:58Z</time>
      </trkpt>
      <trkpt lat="42.2541" lon="8.954583">
        <ele>1739.8</ele>
        <time>2022-09-11T15:03:07Z</time>
      </trkpt>
      <trkpt lat="42.254165" lon="8.954715">
        <ele>1739.8</ele>
        <time>2022-09-11T15:03:20Z</time>
      </trkpt>
      <trkpt lat="42.254315" lon="8.954983">
        <ele>1740.0</ele>
        <time>2022-09-11T15:03:46Z</time>
      </trkpt>
      <trkpt lat="42.254453" lon="8.95519">
        <ele>1740.0</ele>
        <time>2022-09-11T15:04:05Z</time>
      </trkpt>
      <trkpt lat="42.25455" lon="8.955305">
        <ele>1740.0</ele>
        <time>2022-09-11T15:04:16Z</time>
      </trkpt>
      <trkpt lat="42.254592" lon="8.955425">
        <ele>1739.8</ele>
        <time>2022-09-11T15:04:24Z</time>
      </trkpt>
      <trkpt lat="42.25463" lon="8.95561">
        <ele>1740.2</ele>
        <time>2022-09-11T15:04:38Z</time>
      </trkpt>
      <trkpt lat="42.254865" lon="8.956027">
        <ele>1740.8</ele>
        <time>2022-09-11T15:05:16Z</time>
      </trkpt>
      <trkpt lat="42.25488" lon="8.956045">
        <ele>1740.8</ele>
        <time>2022-09-11T15:05:18Z</time>
      </trkpt>
      <trkpt lat="42.255105" lon="8.9564">
        <ele>1741.4</ele>
        <time>2022-09-11T15:05:52Z</time>
      </trkpt>
      <trkpt lat="42.255145" lon="8.956447">
        <ele>1741.4</ele>
        <time>2022-09-11T15:05:57Z</time>
      </trkpt>
      <trkpt lat="42.255225" lon="8.956508">
        <ele>1741.4</ele>
        <time>2022-09-11T15:06:05Z</time>
      </trkpt>
      <trkpt lat="42.255378" lon="8.9566">
        <ele>1741.2</ele>
        <time>2022-09-11T15:06:19Z</time>
      </trkpt>
      <trkpt lat="42.255403" lon="8.95664">
        <ele>1741.2</ele>
        <time>2022-09-11T15:06:22Z</time>
      </trkpt>
      <trkpt lat="42.255458" lon="8.956755">
        <ele>1741.6</ele>
        <time>2022-09-11T15:06:30Z</time>
      </trkpt>
      <trkpt lat="42.255487" lon="8.956783">
        <ele>1741.6</ele>
        <time>2022-09-11T15:06:33Z</time>
      </trkpt>
      <trkpt lat="42.255497" lon="8.956787">
        <ele>1741.8</ele>
        <time>2022-09-11T15:06:35Z</time>
      </trkpt>
      <trkpt lat="42.255557" lon="8.956813">
        <ele>1741.8</ele>
        <time>2022-09-11T15:06:42Z</time>
      </trkpt>
      <trkpt lat="42.255572" lon="8.956847">
        <ele>1741.8</ele>
        <time>2022-09-11T15:06:46Z</time>
      </trkpt>
      <trkpt lat="42.255557" lon="8.956913">
        <ele>1741.8</ele>
        <time>2022-09-11T15:06:52Z</time>
      </trkpt>
      <trkpt lat="42.255577" lon="8.957065">
        <ele>1742.6</ele>
        <time>2022-09-11T15:07:07Z</time>
      </trkpt>
      <trkpt lat="42.255685" lon="8.957255">
        <ele>1742.6</ele>
        <time>2022-09-11T15:07:24Z</time>
      </trkpt>
      <trkpt lat="42.255788" lon="8.957377">
        <ele>1742.6</ele>
        <time>2022-09-11T15:07:34Z</time>
      </trkpt>
      <trkpt lat="42.255935" lon="8.957518">
        <ele>1742.6</ele>
        <time>2022-09-11T15:07:46Z</time>
      </trkpt>
      <trkpt lat="42.255958" lon="8.95755">
        <ele>1742.4</ele>
        <time>2022-09-11T15:07:48Z</time>
      </trkpt>
      <trkpt lat="42.256078" lon="8.957602">
        <ele>1742.0</ele>
        <time>2022-09-11T15:07:58Z</time>
      </trkpt>
      <trkpt lat="42.256177" lon="8.957675">
        <ele>1741.6</ele>
        <time>2022-09-11T15:08:10Z</time>
      </trkpt>
      <trkpt lat="42.256238" lon="8.957702">
        <ele>1741.4</ele>
        <time>2022-09-11T15:08:17Z</time>
      </trkpt>
      <trkpt lat="42.256252" lon="8.957763">
        <ele>1741.4</ele>
        <time>2022-09-11T15:08:22Z</time>
      </trkpt>
      <trkpt lat="42.25626" lon="8.957863">
        <ele>1741.8</ele>
        <time>2022-09-11T15:08:29Z</time>
      </trkpt>
      <trkpt lat="42.256222" lon="8.957918">
        <ele>1741.4</ele>
        <time>2022-09-11T15:08:35Z</time>
      </trkpt>
      <trkpt lat="42.25621" lon="8.958048">
        <ele>1740.2</ele>
        <time>2022-09-11T15:08:44Z</time>
      </trkpt>
      <trkpt lat="42.256205" lon="8.958067">
        <ele>1740.2</ele>
        <time>2022-09-11T15:08:45Z</time>
      </trkpt>
      <trkpt lat="42.256192" lon="8.958098">
        <ele>1740.0</ele>
        <time>2022-09-11T15:08:47Z</time>
      </trkpt>
      <trkpt lat="42.256143" lon="8.95817">
        <ele>1739.8</ele>
        <time>2022-09-11T15:08:52Z</time>
      </trkpt>
      <trkpt lat="42.255887" lon="8.95848">
        <ele>1740.0</ele>
        <time>2022-09-11T15:09:18Z</time>
      </trkpt>
      <trkpt lat="42.255857" lon="8.958597">
        <ele>1740.4</ele>
        <time>2022-09-11T15:09:30Z</time>
      </trkpt>
      <trkpt lat="42.255815" lon="8.958705">
        <ele>1740.4</ele>
        <time>2022-09-11T15:09:40Z</time>
      </trkpt>
      <trkpt lat="42.255802" lon="8.958742">
        <ele>1740.2</ele>
        <time>2022-09-11T15:09:43Z</time>
      </trkpt>
      <trkpt lat="42.255798" lon="8.958752">
        <ele>1740.2</ele>
        <time>2022-09-11T15:09:44Z</time>
      </trkpt>
      <trkpt lat="42.25579" lon="8.958772">
        <ele>1740.2</ele>
        <time>2022-09-11T15:09:46Z</time>
      </trkpt>
      <trkpt lat="42.255772" lon="8.958802">
        <ele>1740.4</ele>
        <time>2022-09-11T15:09:50Z</time>
      </trkpt>
      <trkpt lat="42.25573" lon="8.95882">
        <ele>1740.0</ele>
        <time>2022-09-11T15:09:58Z</time>
      </trkpt>
      <trkpt lat="42.255725" lon="8.958817">
        <ele>1740.0</ele>
        <time>2022-09-11T15:09:58Z</time>
      </trkpt>
      <trkpt lat="42.25564" lon="8.958695">
        <ele>1739.2</ele>
        <time>2022-09-11T15:10:07Z</time>
      </trkpt>
      <trkpt lat="42.255428" lon="8.95853">
        <ele>1736.2</ele>
        <time>2022-09-11T15:10:24Z</time>
      </trkpt>
      <trkpt lat="42.255337" lon="8.958427">
        <ele>1735.2</ele>
        <time>2022-09-11T15:10:34Z</time>
      </trkpt>
      <trkpt lat="42.25529" lon="8.958368">
        <ele>1734.2</ele>
        <time>2022-09-11T15:10:38Z</time>
      </trkpt>
      <trkpt lat="42.255278" lon="8.958355">
        <ele>1734.0</ele>
        <time>2022-09-11T15:10:39Z</time>
      </trkpt>
      <trkpt lat="42.25521" lon="8.95828">
        <ele>1733.2</ele>
        <time>2022-09-11T15:10:46Z</time>
      </trkpt>
      <trkpt lat="42.255128" lon="8.95818">
        <ele>1732.4</ele>
        <time>2022-09-11T15:10:54Z</time>
      </trkpt>
      <trkpt lat="42.255025" lon="8.9581">
        <ele>1730.8</ele>
        <time>2022-09-11T15:11:06Z</time>
      </trkpt>
      <trkpt lat="42.25494" lon="8.958032">
        <ele>1730.6</ele>
        <time>2022-09-11T15:11:16Z</time>
      </trkpt>
      <trkpt lat="42.254905" lon="8.958022">
        <ele>1730.4</ele>
        <time>2022-09-11T15:11:19Z</time>
      </trkpt>
      <trkpt lat="42.254877" lon="8.95803">
        <ele>1729.8</ele>
        <time>2022-09-11T15:11:22Z</time>
      </trkpt>
      <trkpt lat="42.254812" lon="8.957973">
        <ele>1728.8</ele>
        <time>2022-09-11T15:11:29Z</time>
      </trkpt>
      <trkpt lat="42.254707" lon="8.95786">
        <ele>1727.4</ele>
        <time>2022-09-11T15:11:44Z</time>
      </trkpt>
      <trkpt lat="42.254683" lon="8.957778">
        <ele>1727.2</ele>
        <time>2022-09-11T15:11:50Z</time>
      </trkpt>
      <trkpt lat="42.254673" lon="8.957702">
        <ele>1727.2</ele>
        <time>2022-09-11T15:11:58Z</time>
      </trkpt>
      <trkpt lat="42.254648" lon="8.957635">
        <ele>1727.2</ele>
        <time>2022-09-11T15:12:03Z</time>
      </trkpt>
      <trkpt lat="42.2546" lon="8.95758">
        <ele>1727.4</ele>
        <time>2022-09-11T15:12:08Z</time>
      </trkpt>
      <trkpt lat="42.254548" lon="8.957587">
        <ele>1727.4</ele>
        <time>2022-09-11T15:12:13Z</time>
      </trkpt>
      <trkpt lat="42.254345" lon="8.957632">
        <ele>1727.0</ele>
        <time>2022-09-11T15:12:29Z</time>
      </trkpt>
      <trkpt lat="42.254332" lon="8.957647">
        <ele>1727.0</ele>
        <time>2022-09-11T15:12:29Z</time>
      </trkpt>
      <trkpt lat="42.254193" lon="8.957698">
        <ele>1726.0</ele>
        <time>2022-09-11T15:12:40Z</time>
      </trkpt>
      <trkpt lat="42.254105" lon="8.9577">
        <ele>1725.0</ele>
        <time>2022-09-11T15:12:46Z</time>
      </trkpt>
      <trkpt lat="42.254022" lon="8.957692">
        <ele>1723.6</ele>
        <time>2022-09-11T15:12:54Z</time>
      </trkpt>
      <trkpt lat="42.253972" lon="8.957708">
        <ele>1723.4</ele>
        <time>2022-09-11T15:12:58Z</time>
      </trkpt>
      <trkpt lat="42.25396" lon="8.957715">
        <ele>1723.4</ele>
        <time>2022-09-11T15:12:59Z</time>
      </trkpt>
      <trkpt lat="42.253858" lon="8.957787">
        <ele>1722.6</ele>
        <time>2022-09-11T15:13:10Z</time>
      </trkpt>
      <trkpt lat="42.253852" lon="8.957793">
        <ele>1722.6</ele>
        <time>2022-09-11T15:13:11Z</time>
      </trkpt>
      <trkpt lat="42.253893" lon="8.957957">
        <ele>1722.0</ele>
        <time>2022-09-11T15:13:21Z</time>
      </trkpt>
      <trkpt lat="42.253967" lon="8.958068">
        <ele>1722.4</ele>
        <time>2022-09-11T15:13:29Z</time>
      </trkpt>
      <trkpt lat="42.253972" lon="8.95813">
        <ele>1722.6</ele>
        <time>2022-09-11T15:13:33Z</time>
      </trkpt>
      <trkpt lat="42.253935" lon="8.958142">
        <ele>1722.6</ele>
        <time>2022-09-11T15:13:36Z</time>
      </trkpt>
      <trkpt lat="42.253867" lon="8.958068">
        <ele>1723.0</ele>
        <time>2022-09-11T15:13:41Z</time>
      </trkpt>
      <trkpt lat="42.253867" lon="8.957997">
        <ele>1723.2</ele>
        <time>2022-09-11T15:13:50Z</time>
      </trkpt>
      <trkpt lat="42.25387" lon="8.957923">
        <ele>1722.8</ele>
        <time>2022-09-11T15:13:58Z</time>
      </trkpt>
      <trkpt lat="42.253885" lon="8.957857">
        <ele>1722.2</ele>
        <time>2022-09-11T15:14:05Z</time>
      </trkpt>
      <trkpt lat="42.25392" lon="8.957803">
        <ele>1722.4</ele>
        <time>2022-09-11T15:14:13Z</time>
      </trkpt>
      <trkpt lat="42.2539" lon="8.957788">
        <ele>1722.4</ele>
        <time>2022-09-11T15:14:16Z</time>
      </trkpt>
      <trkpt lat="42.25383" lon="8.957732">
        <ele>1722.8</ele>
        <time>2022-09-11T15:14:25Z</time>
      </trkpt>
      <trkpt lat="42.253752" lon="8.957623">
        <ele>1722.6</ele>
        <time>2022-09-11T15:14:37Z</time>
      </trkpt>
      <trkpt lat="42.253713" lon="8.957582">
        <ele>1723.2</ele>
        <time>2022-09-11T15:14:43Z</time>
      </trkpt>
      <trkpt lat="42.253648" lon="8.957563">
        <ele>1723.8</ele>
        <time>2022-09-11T15:14:51Z</time>
      </trkpt>
      <trkpt lat="42.25364" lon="8.957567">
        <ele>1723.8</ele>
        <time>2022-09-11T15:14:52Z</time>
      </trkpt>
      <trkpt lat="42.253567" lon="8.957683">
        <ele>1724.6</ele>
        <time>2022-09-11T15:15:07Z</time>
      </trkpt>
      <trkpt lat="42.253362" lon="8.95807">
        <ele>1724.4</ele>
        <time>2022-09-11T15:15:46Z</time>
      </trkpt>
      <trkpt lat="42.253292" lon="8.958243">
        <ele>1725.2</ele>
        <time>2022-09-11T15:16:01Z</time>
      </trkpt>
      <trkpt lat="42.253232" lon="8.9584">
        <ele>1725.0</ele>
        <time>2022-09-11T15:16:14Z</time>
      </trkpt>
      <trkpt lat="42.25319" lon="8.95846">
        <ele>1725.0</ele>
        <time>2022-09-11T15:16:18Z</time>
      </trkpt>
      <trkpt lat="42.253042" lon="8.958502">
        <ele>1725.2</ele>
        <time>2022-09-11T15:16:27Z</time>
      </trkpt>
      <trkpt lat="42.253015" lon="8.958527">
        <ele>1725.4</ele>
        <time>2022-09-11T15:16:30Z</time>
      </trkpt>
      <trkpt lat="42.252963" lon="8.958622">
        <ele>1726.0</ele>
        <time>2022-09-11T15:16:38Z</time>
      </trkpt>
      <trkpt lat="42.252905" lon="8.958778">
        <ele>1726.2</ele>
        <time>2022-09-11T15:16:50Z</time>
      </trkpt>
      <trkpt lat="42.252877" lon="8.958938">
        <ele>1725.4</ele>
        <time>2022-09-11T15:17:01Z</time>
      </trkpt>
      <trkpt lat="42.252837" lon="8.959067">
        <ele>1724.4</ele>
        <time>2022-09-11T15:17:11Z</time>
      </trkpt>
      <trkpt lat="42.252787" lon="8.959188">
        <ele>1723.8</ele>
        <time>2022-09-11T15:17:19Z</time>
      </trkpt>
      <trkpt lat="42.252735" lon="8.959217">
        <ele>1722.8</ele>
        <time>2022-09-11T15:17:23Z</time>
      </trkpt>
      <trkpt lat="42.252723" lon="8.959223">
        <ele>1722.6</ele>
        <time>2022-09-11T15:17:24Z</time>
      </trkpt>
      <trkpt lat="42.25265" lon="8.959257">
        <ele>1722.4</ele>
        <time>2022-09-11T15:17:31Z</time>
      </trkpt>
      <trkpt lat="42.25261" lon="8.95933">
        <ele>1721.8</ele>
        <time>2022-09-11T15:17:39Z</time>
      </trkpt>
      <trkpt lat="42.25257" lon="8.959373">
        <ele>1721.2</ele>
        <time>2022-09-11T15:17:43Z</time>
      </trkpt>
      <trkpt lat="42.252522" lon="8.959438">
        <ele>1721.2</ele>
        <time>2022-09-11T15:17:48Z</time>
      </trkpt>
      <trkpt lat="42.252498" lon="8.95948">
        <ele>1721.0</ele>
        <time>2022-09-11T15:17:51Z</time>
      </trkpt>
      <trkpt lat="42.252227" lon="8.959785">
        <ele>1719.8</ele>
        <time>2022-09-11T15:18:16Z</time>
      </trkpt>
      <trkpt lat="42.252137" lon="8.959903">
        <ele>1719.6</ele>
        <time>2022-09-11T15:18:25Z</time>
      </trkpt>
      <trkpt lat="42.25213" lon="8.959913">
        <ele>1719.6</ele>
        <time>2022-09-11T15:18:26Z</time>
      </trkpt>
      <trkpt lat="42.252028" lon="8.960047">
        <ele>1719.4</ele>
        <time>2022-09-11T15:18:41Z</time>
      </trkpt>
      <trkpt lat="42.25198" lon="8.960087">
        <ele>1719.4</ele>
        <time>2022-09-11T15:18:49Z</time>
      </trkpt>
      <trkpt lat="42.251942" lon="8.9601">
        <ele>1719.4</ele>
        <time>2022-09-11T15:18:55Z</time>
      </trkpt>
      <trkpt lat="42.251853" lon="8.960185">
        <ele>1719.6</ele>
        <time>2022-09-11T15:19:16Z</time>
      </trkpt>
      <trkpt lat="42.251747" lon="8.960258">
        <ele>1718.8</ele>
        <time>2022-09-11T15:19:28Z</time>
      </trkpt>
      <trkpt lat="42.251612" lon="8.960275">
        <ele>1717.4</ele>
        <time>2022-09-11T15:19:40Z</time>
      </trkpt>
      <trkpt lat="42.251562" lon="8.960333">
        <ele>1716.6</ele>
        <time>2022-09-11T15:19:45Z</time>
      </trkpt>
      <trkpt lat="42.251553" lon="8.960348">
        <ele>1716.6</ele>
        <time>2022-09-11T15:19:46Z</time>
      </trkpt>
      <trkpt lat="42.251543" lon="8.960435">
        <ele>1715.4</ele>
        <time>2022-09-11T15:19:53Z</time>
      </trkpt>
      <trkpt lat="42.25153" lon="8.960507">
        <ele>1715.0</ele>
        <time>2022-09-11T15:19:58Z</time>
      </trkpt>
      <trkpt lat="42.251492" lon="8.960557">
        <ele>1714.4</ele>
        <time>2022-09-11T15:20:03Z</time>
      </trkpt>
      <trkpt lat="42.251457" lon="8.960595">
        <ele>1713.8</ele>
        <time>2022-09-11T15:20:07Z</time>
      </trkpt>
      <trkpt lat="42.251448" lon="8.960605">
        <ele>1713.8</ele>
        <time>2022-09-11T15:20:08Z</time>
      </trkpt>
      <trkpt lat="42.251413" lon="8.960648">
        <ele>1713.4</ele>
        <time>2022-09-11T15:20:12Z</time>
      </trkpt>
      <trkpt lat="42.251405" lon="8.960663">
        <ele>1713.4</ele>
        <time>2022-09-11T15:20:13Z</time>
      </trkpt>
      <trkpt lat="42.251373" lon="8.960725">
        <ele>1713.0</ele>
        <time>2022-09-11T15:20:17Z</time>
      </trkpt>
      <trkpt lat="42.251318" lon="8.960777">
        <ele>1712.6</ele>
        <time>2022-09-11T15:20:22Z</time>
      </trkpt>
      <trkpt lat="42.25118" lon="8.960893">
        <ele>1711.6</ele>
        <time>2022-09-11T15:20:36Z</time>
      </trkpt>
      <trkpt lat="42.251107" lon="8.960922">
        <ele>1711.2</ele>
        <time>2022-09-11T15:20:44Z</time>
      </trkpt>
      <trkpt lat="42.251097" lon="8.96093">
        <ele>1711.2</ele>
        <time>2022-09-11T15:20:45Z</time>
      </trkpt>
      <trkpt lat="42.251078" lon="8.96098">
        <ele>1710.8</ele>
        <time>2022-09-11T15:20:49Z</time>
      </trkpt>
      <trkpt lat="42.251077" lon="8.960993">
        <ele>1710.6</ele>
        <time>2022-09-11T15:20:50Z</time>
      </trkpt>
      <trkpt lat="42.251065" lon="8.961075">
        <ele>1709.8</ele>
        <time>2022-09-11T15:20:56Z</time>
      </trkpt>
      <trkpt lat="42.251067" lon="8.961118">
        <ele>1709.4</ele>
        <time>2022-09-11T15:20:59Z</time>
      </trkpt>
      <trkpt lat="42.251062" lon="8.961145">
        <ele>1709.0</ele>
        <time>2022-09-11T15:21:01Z</time>
      </trkpt>
      <trkpt lat="42.25104" lon="8.96121">
        <ele>1708.4</ele>
        <time>2022-09-11T15:21:06Z</time>
      </trkpt>
      <trkpt lat="42.251022" lon="8.961242">
        <ele>1708.0</ele>
        <time>2022-09-11T15:21:09Z</time>
      </trkpt>
      <trkpt lat="42.250933" lon="8.961342">
        <ele>1706.0</ele>
        <time>2022-09-11T15:21:21Z</time>
      </trkpt>
      <trkpt lat="42.250892" lon="8.961437">
        <ele>1704.6</ele>
        <time>2022-09-11T15:21:31Z</time>
      </trkpt>
      <trkpt lat="42.250885" lon="8.961445">
        <ele>1704.4</ele>
        <time>2022-09-11T15:21:32Z</time>
      </trkpt>
      <trkpt lat="42.250863" lon="8.961485">
        <ele>1703.6</ele>
        <time>2022-09-11T15:21:38Z</time>
      </trkpt>
      <trkpt lat="42.250862" lon="8.96156">
        <ele>1702.0</ele>
        <time>2022-09-11T15:21:47Z</time>
      </trkpt>
      <trkpt lat="42.250837" lon="8.961658">
        <ele>1700.2</ele>
        <time>2022-09-11T15:22:00Z</time>
      </trkpt>
      <trkpt lat="42.250783" lon="8.96166">
        <ele>1698.0</ele>
        <time>2022-09-11T15:22:17Z</time>
      </trkpt>
      <trkpt lat="42.25075" lon="8.961643">
        <ele>1696.8</ele>
        <time>2022-09-11T15:22:22Z</time>
      </trkpt>
      <trkpt lat="42.250723" lon="8.961618">
        <ele>1696.4</ele>
        <time>2022-09-11T15:22:27Z</time>
      </trkpt>
      <trkpt lat="42.250697" lon="8.961572">
        <ele>1695.0</ele>
        <time>2022-09-11T15:22:35Z</time>
      </trkpt>
      <trkpt lat="42.25066" lon="8.96157">
        <ele>1694.2</ele>
        <time>2022-09-11T15:22:39Z</time>
      </trkpt>
      <trkpt lat="42.250642" lon="8.961573">
        <ele>1694.0</ele>
        <time>2022-09-11T15:22:41Z</time>
      </trkpt>
      <trkpt lat="42.250638" lon="8.961593">
        <ele>1694.0</ele>
        <time>2022-09-11T15:22:42Z</time>
      </trkpt>
      <trkpt lat="42.250622" lon="8.961645">
        <ele>1693.6</ele>
        <time>2022-09-11T15:22:45Z</time>
      </trkpt>
      <trkpt lat="42.250552" lon="8.961742">
        <ele>1692.4</ele>
        <time>2022-09-11T15:22:53Z</time>
      </trkpt>
      <trkpt lat="42.250495" lon="8.961848">
        <ele>1691.6</ele>
        <time>2022-09-11T15:23:01Z</time>
      </trkpt>
      <trkpt lat="42.250362" lon="8.961997">
        <ele>1689.6</ele>
        <time>2022-09-11T15:23:16Z</time>
      </trkpt>
      <trkpt lat="42.250318" lon="8.962032">
        <ele>1688.8</ele>
        <time>2022-09-11T15:23:20Z</time>
      </trkpt>
      <trkpt lat="42.250283" lon="8.962013">
        <ele>1688.2</ele>
        <time>2022-09-11T15:23:23Z</time>
      </trkpt>
      <trkpt lat="42.250273" lon="8.962">
        <ele>1688.2</ele>
        <time>2022-09-11T15:23:23Z</time>
      </trkpt>
      <trkpt lat="42.250215" lon="8.961965">
        <ele>1687.4</ele>
        <time>2022-09-11T15:23:28Z</time>
      </trkpt>
      <trkpt lat="42.250203" lon="8.961962">
        <ele>1687.0</ele>
        <time>2022-09-11T15:23:30Z</time>
      </trkpt>
      <trkpt lat="42.250183" lon="8.961968">
        <ele>1687.0</ele>
        <time>2022-09-11T15:23:32Z</time>
      </trkpt>
      <trkpt lat="42.250135" lon="8.962022">
        <ele>1685.6</ele>
        <time>2022-09-11T15:23:39Z</time>
      </trkpt>
      <trkpt lat="42.250108" lon="8.962057">
        <ele>1684.8</ele>
        <time>2022-09-11T15:23:44Z</time>
      </trkpt>
      <trkpt lat="42.250107" lon="8.962132">
        <ele>1683.0</ele>
        <time>2022-09-11T15:23:56Z</time>
      </trkpt>
      <trkpt lat="42.250105" lon="8.962138">
        <ele>1682.8</ele>
        <time>2022-09-11T15:23:58Z</time>
      </trkpt>
      <trkpt lat="42.250087" lon="8.962173">
        <ele>1682.2</ele>
        <time>2022-09-11T15:24:02Z</time>
      </trkpt>
      <trkpt lat="42.250063" lon="8.9622">
        <ele>1682.0</ele>
        <time>2022-09-11T15:24:06Z</time>
      </trkpt>
      <trkpt lat="42.250015" lon="8.962193">
        <ele>1680.8</ele>
        <time>2022-09-11T15:24:13Z</time>
      </trkpt>
      <trkpt lat="42.24995" lon="8.96222">
        <ele>1679.2</ele>
        <time>2022-09-11T15:24:24Z</time>
      </trkpt>
      <trkpt lat="42.24993" lon="8.962255">
        <ele>1678.2</ele>
        <time>2022-09-11T15:24:31Z</time>
      </trkpt>
      <trkpt lat="42.24985" lon="8.962268">
        <ele>1675.6</ele>
        <time>2022-09-11T15:24:48Z</time>
      </trkpt>
      <trkpt lat="42.24981" lon="8.962282">
        <ele>1674.6</ele>
        <time>2022-09-11T15:24:54Z</time>
      </trkpt>
      <trkpt lat="42.249727" lon="8.962228">
        <ele>1673.8</ele>
        <time>2022-09-11T15:25:04Z</time>
      </trkpt>
      <trkpt lat="42.249677" lon="8.962217">
        <ele>1673.0</ele>
        <time>2022-09-11T15:25:10Z</time>
      </trkpt>
      <trkpt lat="42.249562" lon="8.962103">
        <ele>1671.0</ele>
        <time>2022-09-11T15:25:25Z</time>
      </trkpt>
      <trkpt lat="42.24956" lon="8.962095">
        <ele>1671.0</ele>
        <time>2022-09-11T15:25:25Z</time>
      </trkpt>
      <trkpt lat="42.249527" lon="8.96198">
        <ele>1669.8</ele>
        <time>2022-09-11T15:25:39Z</time>
      </trkpt>
      <trkpt lat="42.249502" lon="8.961948">
        <ele>1669.0</ele>
        <time>2022-09-11T15:25:44Z</time>
      </trkpt>
      <trkpt lat="42.249392" lon="8.961907">
        <ele>1667.8</ele>
        <time>2022-09-11T15:25:58Z</time>
      </trkpt>
      <trkpt lat="42.249385" lon="8.961902">
        <ele>1667.4</ele>
        <time>2022-09-11T15:26:00Z</time>
      </trkpt>
      <trkpt lat="42.249347" lon="8.961863">
        <ele>1666.4</ele>
        <time>2022-09-11T15:26:06Z</time>
      </trkpt>
      <trkpt lat="42.24934" lon="8.961752">
        <ele>1665.0</ele>
        <time>2022-09-11T15:26:53Z</time>
      </trkpt>
      <trkpt lat="42.249325" lon="8.96183">
        <ele>1665.0</ele>
        <time>2022-09-11T15:27:10Z</time>
      </trkpt>
      <trkpt lat="42.249312" lon="8.961913">
        <ele>1665.0</ele>
        <time>2022-09-11T15:27:20Z</time>
      </trkpt>
      <trkpt lat="42.24928" lon="8.961933">
        <ele>1665.6</ele>
        <time>2022-09-11T15:27:27Z</time>
      </trkpt>
      <trkpt lat="42.249268" lon="8.961935">
        <ele>1665.6</ele>
        <time>2022-09-11T15:27:29Z</time>
      </trkpt>
      <trkpt lat="42.248995" lon="8.962012">
        <ele>1661.4</ele>
        <time>2022-09-11T15:28:02Z</time>
      </trkpt>
      <trkpt lat="42.248963" lon="8.961977">
        <ele>1660.6</ele>
        <time>2022-09-11T15:28:07Z</time>
      </trkpt>
      <trkpt lat="42.248908" lon="8.96186">
        <ele>1658.6</ele>
        <time>2022-09-11T15:28:23Z</time>
      </trkpt>
      <trkpt lat="42.248818" lon="8.961797">
        <ele>1658.2</ele>
        <time>2022-09-11T15:28:37Z</time>
      </trkpt>
      <trkpt lat="42.248762" lon="8.961737">
        <ele>1656.8</ele>
        <time>2022-09-11T15:28:49Z</time>
      </trkpt>
      <trkpt lat="42.248747" lon="8.96172">
        <ele>1656.2</ele>
        <time>2022-09-11T15:28:52Z</time>
      </trkpt>
      <trkpt lat="42.248717" lon="8.961772">
        <ele>1655.6</ele>
        <time>2022-09-11T15:28:58Z</time>
      </trkpt>
      <trkpt lat="42.248695" lon="8.961852">
        <ele>1654.6</ele>
        <time>2022-09-11T15:29:05Z</time>
      </trkpt>
      <trkpt lat="42.24865" lon="8.961902">
        <ele>1654.0</ele>
        <time>2022-09-11T15:29:10Z</time>
      </trkpt>
      <trkpt lat="42.248597" lon="8.961928">
        <ele>1653.8</ele>
        <time>2022-09-11T15:29:14Z</time>
      </trkpt>
      <trkpt lat="42.248637" lon="8.96194">
        <ele>1651.8</ele>
        <time>2022-09-11T15:29:47Z</time>
      </trkpt>
      <trkpt lat="42.248608" lon="8.961893">
        <ele>1651.6</ele>
        <time>2022-09-11T15:29:57Z</time>
      </trkpt>
      <trkpt lat="42.24857" lon="8.961867">
        <ele>1651.0</ele>
        <time>2022-09-11T15:30:02Z</time>
      </trkpt>
      <trkpt lat="42.24851" lon="8.961765">
        <ele>1649.6</ele>
        <time>2022-09-11T15:30:21Z</time>
      </trkpt>
      <trkpt lat="42.248473" lon="8.961735">
        <ele>1649.6</ele>
        <time>2022-09-11T15:30:25Z</time>
      </trkpt>
      <trkpt lat="42.248435" lon="8.961742">
        <ele>1649.6</ele>
        <time>2022-09-11T15:30:28Z</time>
      </trkpt>
      <trkpt lat="42.248427" lon="8.961808">
        <ele>1649.6</ele>
        <time>2022-09-11T15:30:32Z</time>
      </trkpt>
      <trkpt lat="42.248422" lon="8.961863">
        <ele>1649.4</ele>
        <time>2022-09-11T15:30:36Z</time>
      </trkpt>
      <trkpt lat="42.248362" lon="8.96191">
        <ele>1648.6</ele>
        <time>2022-09-11T15:30:44Z</time>
      </trkpt>
      <trkpt lat="42.248188" lon="8.962013">
        <ele>1646.2</ele>
        <time>2022-09-11T15:31:02Z</time>
      </trkpt>
      <trkpt lat="42.248047" lon="8.962008">
        <ele>1645.2</ele>
        <time>2022-09-11T15:31:12Z</time>
      </trkpt>
      <trkpt lat="42.248032" lon="8.96201">
        <ele>1645.2</ele>
        <time>2022-09-11T15:31:13Z</time>
      </trkpt>
      <trkpt lat="42.247923" lon="8.962053">
        <ele>1644.6</ele>
        <time>2022-09-11T15:31:26Z</time>
      </trkpt>
      <trkpt lat="42.247882" lon="8.962085">
        <ele>1643.0</ele>
        <time>2022-09-11T15:31:41Z</time>
      </trkpt>
      <trkpt lat="42.247875" lon="8.96214">
        <ele>1641.2</ele>
        <time>2022-09-11T15:32:03Z</time>
      </trkpt>
      <trkpt lat="42.247867" lon="8.962167">
        <ele>1639.6</ele>
        <time>2022-09-11T15:32:14Z</time>
      </trkpt>
      <trkpt lat="42.247815" lon="8.962182">
        <ele>1636.6</ele>
        <time>2022-09-11T15:32:35Z</time>
      </trkpt>
      <trkpt lat="42.247777" lon="8.962202">
        <ele>1633.4</ele>
        <time>2022-09-11T15:32:53Z</time>
      </trkpt>
      <trkpt lat="42.247772" lon="8.9622">
        <ele>1633.0</ele>
        <time>2022-09-11T15:32:56Z</time>
      </trkpt>
      <trkpt lat="42.247597" lon="8.962288">
        <ele>1631.0</ele>
        <time>2022-09-11T15:33:13Z</time>
      </trkpt>
      <trkpt lat="42.247557" lon="8.962327">
        <ele>1630.4</ele>
        <time>2022-09-11T15:33:17Z</time>
      </trkpt>
      <trkpt lat="42.247483" lon="8.962462">
        <ele>1629.4</ele>
        <time>2022-09-11T15:33:27Z</time>
      </trkpt>
      <trkpt lat="42.24745" lon="8.962513">
        <ele>1629.2</ele>
        <time>2022-09-11T15:33:31Z</time>
      </trkpt>
      <trkpt lat="42.247403" lon="8.96257">
        <ele>1628.6</ele>
        <time>2022-09-11T15:33:37Z</time>
      </trkpt>
      <trkpt lat="42.247355" lon="8.962602">
        <ele>1628.4</ele>
        <time>2022-09-11T15:33:42Z</time>
      </trkpt>
      <trkpt lat="42.247288" lon="8.962652">
        <ele>1627.8</ele>
        <time>2022-09-11T15:33:49Z</time>
      </trkpt>
      <trkpt lat="42.247233" lon="8.96269">
        <ele>1627.6</ele>
        <time>2022-09-11T15:33:55Z</time>
      </trkpt>
      <trkpt lat="42.247135" lon="8.962705">
        <ele>1627.0</ele>
        <time>2022-09-11T15:34:05Z</time>
      </trkpt>
      <trkpt lat="42.247103" lon="8.962702">
        <ele>1626.6</ele>
        <time>2022-09-11T15:34:10Z</time>
      </trkpt>
      <trkpt lat="42.247052" lon="8.962762">
        <ele>1625.6</ele>
        <time>2022-09-11T15:34:23Z</time>
      </trkpt>
      <trkpt lat="42.247023" lon="8.962783">
        <ele>1625.4</ele>
        <time>2022-09-11T15:34:31Z</time>
      </trkpt>
      <trkpt lat="42.246987" lon="8.962883">
        <ele>1624.6</ele>
        <time>2022-09-11T15:34:44Z</time>
      </trkpt>
      <trkpt lat="42.246928" lon="8.962865">
        <ele>1624.0</ele>
        <time>2022-09-11T15:34:51Z</time>
      </trkpt>
      <trkpt lat="42.246872" lon="8.962915">
        <ele>1623.4</ele>
        <time>2022-09-11T15:34:59Z</time>
      </trkpt>
      <trkpt lat="42.246833" lon="8.96291">
        <ele>1623.2</ele>
        <time>2022-09-11T15:35:03Z</time>
      </trkpt>
      <trkpt lat="42.2468" lon="8.962885">
        <ele>1622.6</ele>
        <time>2022-09-11T15:35:08Z</time>
      </trkpt>
      <trkpt lat="42.246752" lon="8.962843">
        <ele>1621.8</ele>
        <time>2022-09-11T15:35:16Z</time>
      </trkpt>
      <trkpt lat="42.246745" lon="8.962842">
        <ele>1621.4</ele>
        <time>2022-09-11T15:35:17Z</time>
      </trkpt>
      <trkpt lat="42.246677" lon="8.962875">
        <ele>1619.8</ele>
        <time>2022-09-11T15:35:25Z</time>
      </trkpt>
      <trkpt lat="42.24664" lon="8.962948">
        <ele>1619.0</ele>
        <time>2022-09-11T15:35:32Z</time>
      </trkpt>
      <trkpt lat="42.246578" lon="8.963122">
        <ele>1617.6</ele>
        <time>2022-09-11T15:35:46Z</time>
      </trkpt>
      <trkpt lat="42.246505" lon="8.963288">
        <ele>1617.2</ele>
        <time>2022-09-11T15:35:59Z</time>
      </trkpt>
      <trkpt lat="42.246488" lon="8.96335">
        <ele>1617.0</ele>
        <time>2022-09-11T15:36:05Z</time>
      </trkpt>
      <trkpt lat="42.246312" lon="8.963587">
        <ele>1615.0</ele>
        <time>2022-09-11T15:36:37Z</time>
      </trkpt>
      <trkpt lat="42.246283" lon="8.96367">
        <ele>1614.8</ele>
        <time>2022-09-11T15:36:44Z</time>
      </trkpt>
      <trkpt lat="42.24626" lon="8.963763">
        <ele>1614.0</ele>
        <time>2022-09-11T15:36:52Z</time>
      </trkpt>
      <trkpt lat="42.246252" lon="8.963768">
        <ele>1614.0</ele>
        <time>2022-09-11T15:36:53Z</time>
      </trkpt>
      <trkpt lat="42.24615" lon="8.963805">
        <ele>1613.4</ele>
        <time>2022-09-11T15:37:04Z</time>
      </trkpt>
      <trkpt lat="42.246128" lon="8.963818">
        <ele>1613.4</ele>
        <time>2022-09-11T15:37:08Z</time>
      </trkpt>
      <trkpt lat="42.246085" lon="8.963923">
        <ele>1612.2</ele>
        <time>2022-09-11T15:37:20Z</time>
      </trkpt>
      <trkpt lat="42.246058" lon="8.964013">
        <ele>1611.2</ele>
        <time>2022-09-11T15:37:29Z</time>
      </trkpt>
      <trkpt lat="42.246002" lon="8.964127">
        <ele>1610.8</ele>
        <time>2022-09-11T15:37:42Z</time>
      </trkpt>
      <trkpt lat="42.245918" lon="8.964192">
        <ele>1610.4</ele>
        <time>2022-09-11T15:37:51Z</time>
      </trkpt>
      <trkpt lat="42.245862" lon="8.964247">
        <ele>1609.6</ele>
        <time>2022-09-11T15:37:59Z</time>
      </trkpt>
      <trkpt lat="42.245788" lon="8.964353">
        <ele>1609.2</ele>
        <time>2022-09-11T15:38:10Z</time>
      </trkpt>
      <trkpt lat="42.245715" lon="8.964435">
        <ele>1609.0</ele>
        <time>2022-09-11T15:38:18Z</time>
      </trkpt>
      <trkpt lat="42.245657" lon="8.96441">
        <ele>1608.4</ele>
        <time>2022-09-11T15:38:23Z</time>
      </trkpt>
      <trkpt lat="42.245635" lon="8.964412">
        <ele>1608.2</ele>
        <time>2022-09-11T15:38:26Z</time>
      </trkpt>
      <trkpt lat="42.245622" lon="8.964435">
        <ele>1607.8</ele>
        <time>2022-09-11T15:38:30Z</time>
      </trkpt>
      <trkpt lat="42.245615" lon="8.964535">
        <ele>1606.8</ele>
        <time>2022-09-11T15:38:40Z</time>
      </trkpt>
      <trkpt lat="42.245563" lon="8.964652">
        <ele>1605.2</ele>
        <time>2022-09-11T15:38:53Z</time>
      </trkpt>
      <trkpt lat="42.245558" lon="8.96466">
        <ele>1605.2</ele>
        <time>2022-09-11T15:38:54Z</time>
      </trkpt>
      <trkpt lat="42.245492" lon="8.964768">
        <ele>1604.6</ele>
        <time>2022-09-11T15:39:07Z</time>
      </trkpt>
      <trkpt lat="42.245475" lon="8.964802">
        <ele>1604.2</ele>
        <time>2022-09-11T15:39:12Z</time>
      </trkpt>
      <trkpt lat="42.245445" lon="8.964972">
        <ele>1604.0</ele>
        <time>2022-09-11T15:39:27Z</time>
      </trkpt>
      <trkpt lat="42.245432" lon="8.965053">
        <ele>1603.2</ele>
        <time>2022-09-11T15:39:34Z</time>
      </trkpt>
      <trkpt lat="42.245425" lon="8.96524">
        <ele>1603.4</ele>
        <time>2022-09-11T15:39:53Z</time>
      </trkpt>
      <trkpt lat="42.245408" lon="8.965285">
        <ele>1603.2</ele>
        <time>2022-09-11T15:39:58Z</time>
      </trkpt>
      <trkpt lat="42.245353" lon="8.965372">
        <ele>1602.6</ele>
        <time>2022-09-11T15:40:11Z</time>
      </trkpt>
      <trkpt lat="42.245365" lon="8.96543">
        <ele>1602.4</ele>
        <time>2022-09-11T15:40:17Z</time>
      </trkpt>
      <trkpt lat="42.245358" lon="8.965455">
        <ele>1602.2</ele>
        <time>2022-09-11T15:40:20Z</time>
      </trkpt>
      <trkpt lat="42.24531" lon="8.965508">
        <ele>1602.2</ele>
        <time>2022-09-11T15:40:32Z</time>
      </trkpt>
      <trkpt lat="42.245298" lon="8.965508">
        <ele>1602.2</ele>
        <time>2022-09-11T15:40:33Z</time>
      </trkpt>
      <trkpt lat="42.245235" lon="8.965517">
        <ele>1602.2</ele>
        <time>2022-09-11T15:40:39Z</time>
      </trkpt>
      <trkpt lat="42.245185" lon="8.965567">
        <ele>1602.0</ele>
        <time>2022-09-11T15:40:43Z</time>
      </trkpt>
      <trkpt lat="42.245132" lon="8.965623">
        <ele>1602.0</ele>
        <time>2022-09-11T15:40:47Z</time>
      </trkpt>
      <trkpt lat="42.245117" lon="8.965635">
        <ele>1601.8</ele>
        <time>2022-09-11T15:40:48Z</time>
      </trkpt>
      <trkpt lat="42.244943" lon="8.96577">
        <ele>1600.8</ele>
        <time>2022-09-11T15:41:01Z</time>
      </trkpt>
      <trkpt lat="42.244842" lon="8.965875">
        <ele>1600.6</ele>
        <time>2022-09-11T15:41:10Z</time>
      </trkpt>
      <trkpt lat="42.24483" lon="8.965887">
        <ele>1600.6</ele>
        <time>2022-09-11T15:41:11Z</time>
      </trkpt>
      <trkpt lat="42.244767" lon="8.965932">
        <ele>1600.4</ele>
        <time>2022-09-11T15:41:16Z</time>
      </trkpt>
      <trkpt lat="42.244753" lon="8.96594">
        <ele>1600.4</ele>
        <time>2022-09-11T15:41:17Z</time>
      </trkpt>
      <trkpt lat="42.24467" lon="8.966012">
        <ele>1600.4</ele>
        <time>2022-09-11T15:41:25Z</time>
      </trkpt>
      <trkpt lat="42.24457" lon="8.966123">
        <ele>1600.4</ele>
        <time>2022-09-11T15:41:37Z</time>
      </trkpt>
      <trkpt lat="42.24449" lon="8.966242">
        <ele>1599.6</ele>
        <time>2022-09-11T15:41:50Z</time>
      </trkpt>
      <trkpt lat="42.244392" lon="8.96623">
        <ele>1599.6</ele>
        <time>2022-09-11T15:41:56Z</time>
      </trkpt>
      <trkpt lat="42.244385" lon="8.966268">
        <ele>1599.6</ele>
        <time>2022-09-11T15:41:59Z</time>
      </trkpt>
      <trkpt lat="42.244393" lon="8.96636">
        <ele>1599.2</ele>
        <time>2022-09-11T15:42:05Z</time>
      </trkpt>
      <trkpt lat="42.24435" lon="8.966485">
        <ele>1599.0</ele>
        <time>2022-09-11T15:42:15Z</time>
      </trkpt>
      <trkpt lat="42.244327" lon="8.96656">
        <ele>1599.4</ele>
        <time>2022-09-11T15:42:21Z</time>
      </trkpt>
      <trkpt lat="42.244305" lon="8.966617">
        <ele>1599.6</ele>
        <time>2022-09-11T15:42:26Z</time>
      </trkpt>
      <trkpt lat="42.244245" lon="8.966725">
        <ele>1599.8</ele>
        <time>2022-09-11T15:42:37Z</time>
      </trkpt>
      <trkpt lat="42.244167" lon="8.966805">
        <ele>1600.0</ele>
        <time>2022-09-11T15:42:48Z</time>
      </trkpt>
      <trkpt lat="42.244093" lon="8.966872">
        <ele>1600.0</ele>
        <time>2022-09-11T15:43:01Z</time>
      </trkpt>
      <trkpt lat="42.243978" lon="8.967087">
        <ele>1600.0</ele>
        <time>2022-09-11T15:43:19Z</time>
      </trkpt>
      <trkpt lat="42.243942" lon="8.967085">
        <ele>1600.0</ele>
        <time>2022-09-11T15:43:22Z</time>
      </trkpt>
      <trkpt lat="42.243882" lon="8.967087">
        <ele>1599.8</ele>
        <time>2022-09-11T15:43:26Z</time>
      </trkpt>
      <trkpt lat="42.243953" lon="8.967177">
        <ele>1599.8</ele>
        <time>2022-09-11T15:43:33Z</time>
      </trkpt>
      <trkpt lat="42.243907" lon="8.967222">
        <ele>1599.8</ele>
        <time>2022-09-11T15:43:38Z</time>
      </trkpt>
      <trkpt lat="42.243837" lon="8.967258">
        <ele>1599.8</ele>
        <time>2022-09-11T15:43:43Z</time>
      </trkpt>
      <trkpt lat="42.243768" lon="8.96727">
        <ele>1599.8</ele>
        <time>2022-09-11T15:43:48Z</time>
      </trkpt>
      <trkpt lat="42.243743" lon="8.96727">
        <ele>1599.8</ele>
        <time>2022-09-11T15:43:50Z</time>
      </trkpt>
      <trkpt lat="42.24373" lon="8.967303">
        <ele>1599.8</ele>
        <time>2022-09-11T15:43:52Z</time>
      </trkpt>
      <trkpt lat="42.243705" lon="8.967547">
        <ele>1599.8</ele>
        <time>2022-09-11T15:44:10Z</time>
      </trkpt>
      <trkpt lat="42.243652" lon="8.9676">
        <ele>1599.8</ele>
        <time>2022-09-11T15:44:35Z</time>
      </trkpt>
      <trkpt lat="42.243635" lon="8.967615">
        <ele>1599.8</ele>
        <time>2022-09-11T15:44:39Z</time>
      </trkpt>
      <trkpt lat="42.243398" lon="8.96781">
        <ele>1599.6</ele>
        <time>2022-09-11T15:45:19Z</time>
      </trkpt>
      <trkpt lat="42.243317" lon="8.967862">
        <ele>1599.6</ele>
        <time>2022-09-11T15:45:26Z</time>
      </trkpt>
      <trkpt lat="42.243302" lon="8.96788">
        <ele>1599.6</ele>
        <time>2022-09-11T15:45:28Z</time>
      </trkpt>
      <trkpt lat="42.243162" lon="8.968225">
        <ele>1599.2</ele>
        <time>2022-09-11T15:45:46Z</time>
      </trkpt>
      <trkpt lat="42.243153" lon="8.968262">
        <ele>1598.8</ele>
        <time>2022-09-11T15:45:48Z</time>
      </trkpt>
      <trkpt lat="42.243098" lon="8.96829">
        <ele>1598.6</ele>
        <time>2022-09-11T15:45:52Z</time>
      </trkpt>
      <trkpt lat="42.242958" lon="8.968328">
        <ele>1598.4</ele>
        <time>2022-09-11T15:46:01Z</time>
      </trkpt>
      <trkpt lat="42.242948" lon="8.968338">
        <ele>1598.4</ele>
        <time>2022-09-11T15:46:03Z</time>
      </trkpt>
      <trkpt lat="42.242928" lon="8.968393">
        <ele>1598.8</ele>
        <time>2022-09-11T15:46:07Z</time>
      </trkpt>
      <trkpt lat="42.242907" lon="8.968445">
        <ele>1598.4</ele>
        <time>2022-09-11T15:46:11Z</time>
      </trkpt>
      <trkpt lat="42.2429" lon="8.968457">
        <ele>1598.4</ele>
        <time>2022-09-11T15:46:11Z</time>
      </trkpt>
      <trkpt lat="42.242882" lon="8.96847">
        <ele>1598.4</ele>
        <time>2022-09-11T15:46:13Z</time>
      </trkpt>
      <trkpt lat="42.24282" lon="8.968485">
        <ele>1597.8</ele>
        <time>2022-09-11T15:46:21Z</time>
      </trkpt>
      <trkpt lat="42.242792" lon="8.968503">
        <ele>1597.8</ele>
        <time>2022-09-11T15:46:24Z</time>
      </trkpt>
      <trkpt lat="42.242777" lon="8.968522">
        <ele>1597.8</ele>
        <time>2022-09-11T15:46:26Z</time>
      </trkpt>
      <trkpt lat="42.242747" lon="8.968568">
        <ele>1597.6</ele>
        <time>2022-09-11T15:46:31Z</time>
      </trkpt>
      <trkpt lat="42.242653" lon="8.968758">
        <ele>1597.4</ele>
        <time>2022-09-11T15:46:52Z</time>
      </trkpt>
      <trkpt lat="42.242618" lon="8.968788">
        <ele>1597.6</ele>
        <time>2022-09-11T15:47:00Z</time>
      </trkpt>
      <trkpt lat="42.242582" lon="8.968798">
        <ele>1597.8</ele>
        <time>2022-09-11T15:47:06Z</time>
      </trkpt>
      <trkpt lat="42.242545" lon="8.968815">
        <ele>1598.0</ele>
        <time>2022-09-11T15:47:13Z</time>
      </trkpt>
      <trkpt lat="42.2425" lon="8.968848">
        <ele>1598.4</ele>
        <time>2022-09-11T15:47:22Z</time>
      </trkpt>
      <trkpt lat="42.242425" lon="8.968845">
        <ele>1599.8</ele>
        <time>2022-09-11T15:47:34Z</time>
      </trkpt>
      <trkpt lat="42.242392" lon="8.96886">
        <ele>1599.8</ele>
        <time>2022-09-11T15:47:43Z</time>
      </trkpt>
      <trkpt lat="42.242358" lon="8.969">
        <ele>1600.0</ele>
        <time>2022-09-11T15:47:55Z</time>
      </trkpt>
      <trkpt lat="42.242297" lon="8.96908">
        <ele>1600.0</ele>
        <time>2022-09-11T15:48:02Z</time>
      </trkpt>
      <trkpt lat="42.242267" lon="8.969345">
        <ele>1598.4</ele>
        <time>2022-09-11T15:48:21Z</time>
      </trkpt>
      <trkpt lat="42.242258" lon="8.969353">
        <ele>1598.4</ele>
        <time>2022-09-11T15:48:22Z</time>
      </trkpt>
      <trkpt lat="42.242177" lon="8.969445">
        <ele>1598.6</ele>
        <time>2022-09-11T15:48:35Z</time>
      </trkpt>
      <trkpt lat="42.2421" lon="8.96961">
        <ele>1599.6</ele>
        <time>2022-09-11T15:48:54Z</time>
      </trkpt>
      <trkpt lat="42.242075" lon="8.969712">
        <ele>1600.4</ele>
        <time>2022-09-11T15:49:06Z</time>
      </trkpt>
      <trkpt lat="42.24206" lon="8.969753">
        <ele>1600.6</ele>
        <time>2022-09-11T15:49:11Z</time>
      </trkpt>
      <trkpt lat="42.242062" lon="8.969795">
        <ele>1601.2</ele>
        <time>2022-09-11T15:49:16Z</time>
      </trkpt>
      <trkpt lat="42.242072" lon="8.969843">
        <ele>1601.0</ele>
        <time>2022-09-11T15:49:24Z</time>
      </trkpt>
      <trkpt lat="42.242063" lon="8.969875">
        <ele>1600.8</ele>
        <time>2022-09-11T15:49:29Z</time>
      </trkpt>
      <trkpt lat="42.242007" lon="8.969967">
        <ele>1601.6</ele>
        <time>2022-09-11T15:49:43Z</time>
      </trkpt>
      <trkpt lat="42.241995" lon="8.969982">
        <ele>1601.8</ele>
        <time>2022-09-11T15:49:45Z</time>
      </trkpt>
      <trkpt lat="42.241972" lon="8.970035">
        <ele>1602.4</ele>
        <time>2022-09-11T15:49:51Z</time>
      </trkpt>
      <trkpt lat="42.241948" lon="8.970087">
        <ele>1602.6</ele>
        <time>2022-09-11T15:49:58Z</time>
      </trkpt>
      <trkpt lat="42.241873" lon="8.970175">
        <ele>1602.4</ele>
        <time>2022-09-11T15:50:09Z</time>
      </trkpt>
      <trkpt lat="42.241842" lon="8.970208">
        <ele>1601.8</ele>
        <time>2022-09-11T15:50:13Z</time>
      </trkpt>
      <trkpt lat="42.241798" lon="8.970228">
        <ele>1601.2</ele>
        <time>2022-09-11T15:50:17Z</time>
      </trkpt>
      <trkpt lat="42.241763" lon="8.970235">
        <ele>1601.0</ele>
        <time>2022-09-11T15:50:20Z</time>
      </trkpt>
      <trkpt lat="42.241695" lon="8.970288">
        <ele>1600.8</ele>
        <time>2022-09-11T15:50:29Z</time>
      </trkpt>
      <trkpt lat="42.241628" lon="8.970302">
        <ele>1600.4</ele>
        <time>2022-09-11T15:50:39Z</time>
      </trkpt>
      <trkpt lat="42.241593" lon="8.970347">
        <ele>1600.0</ele>
        <time>2022-09-11T15:50:52Z</time>
      </trkpt>
      <trkpt lat="42.241475" lon="8.970487">
        <ele>1599.6</ele>
        <time>2022-09-11T15:51:03Z</time>
      </trkpt>
      <trkpt lat="42.241438" lon="8.97053">
        <ele>1599.6</ele>
        <time>2022-09-11T15:51:06Z</time>
      </trkpt>
      <trkpt lat="42.24142" lon="8.970567">
        <ele>1599.6</ele>
        <time>2022-09-11T15:51:08Z</time>
      </trkpt>
      <trkpt lat="42.2414" lon="8.970625">
        <ele>1599.8</ele>
        <time>2022-09-11T15:51:11Z</time>
      </trkpt>
      <trkpt lat="42.241393" lon="8.970645">
        <ele>1599.8</ele>
        <time>2022-09-11T15:51:12Z</time>
      </trkpt>
      <trkpt lat="42.241345" lon="8.970787">
        <ele>1600.2</ele>
        <time>2022-09-11T15:51:19Z</time>
      </trkpt>
      <trkpt lat="42.241337" lon="8.970805">
        <ele>1600.2</ele>
        <time>2022-09-11T15:51:20Z</time>
      </trkpt>
      <trkpt lat="42.241327" lon="8.970822">
        <ele>1600.2</ele>
        <time>2022-09-11T15:51:22Z</time>
      </trkpt>
      <trkpt lat="42.241297" lon="8.970875">
        <ele>1600.2</ele>
        <time>2022-09-11T15:51:25Z</time>
      </trkpt>
      <trkpt lat="42.241285" lon="8.97089">
        <ele>1600.2</ele>
        <time>2022-09-11T15:51:26Z</time>
      </trkpt>
      <trkpt lat="42.24123" lon="8.970953">
        <ele>1600.4</ele>
        <time>2022-09-11T15:51:33Z</time>
      </trkpt>
      <trkpt lat="42.241183" lon="8.97101">
        <ele>1600.4</ele>
        <time>2022-09-11T15:51:40Z</time>
      </trkpt>
      <trkpt lat="42.241138" lon="8.971095">
        <ele>1599.6</ele>
        <time>2022-09-11T15:51:50Z</time>
      </trkpt>
      <trkpt lat="42.241042" lon="8.971207">
        <ele>1598.8</ele>
        <time>2022-09-11T15:52:05Z</time>
      </trkpt>
      <trkpt lat="42.240983" lon="8.971297">
        <ele>1597.6</ele>
        <time>2022-09-11T15:52:17Z</time>
      </trkpt>
      <trkpt lat="42.240928" lon="8.971312">
        <ele>1597.4</ele>
        <time>2022-09-11T15:52:25Z</time>
      </trkpt>
      <trkpt lat="42.240832" lon="8.97138">
        <ele>1596.4</ele>
        <time>2022-09-11T15:52:40Z</time>
      </trkpt>
      <trkpt lat="42.240778" lon="8.971417">
        <ele>1596.2</ele>
        <time>2022-09-11T15:52:49Z</time>
      </trkpt>
      <trkpt lat="42.240737" lon="8.97147">
        <ele>1596.0</ele>
        <time>2022-09-11T15:52:57Z</time>
      </trkpt>
      <trkpt lat="42.2407" lon="8.971532">
        <ele>1595.4</ele>
        <time>2022-09-11T15:53:04Z</time>
      </trkpt>
      <trkpt lat="42.240637" lon="8.97158">
        <ele>1595.0</ele>
        <time>2022-09-11T15:53:12Z</time>
      </trkpt>
      <trkpt lat="42.240572" lon="8.97165">
        <ele>1595.2</ele>
        <time>2022-09-11T15:53:19Z</time>
      </trkpt>
      <trkpt lat="42.240432" lon="8.971808">
        <ele>1595.8</ele>
        <time>2022-09-11T15:53:36Z</time>
      </trkpt>
      <trkpt lat="42.240422" lon="8.971815">
        <ele>1595.8</ele>
        <time>2022-09-11T15:53:37Z</time>
      </trkpt>
      <trkpt lat="42.240365" lon="8.971837">
        <ele>1596.2</ele>
        <time>2022-09-11T15:53:44Z</time>
      </trkpt>
      <trkpt lat="42.239897" lon="8.972202">
        <ele>1599.0</ele>
        <time>2022-09-11T15:54:35Z</time>
      </trkpt>
      <trkpt lat="42.2399" lon="8.972223">
        <ele>1599.0</ele>
        <time>2022-09-11T15:54:38Z</time>
      </trkpt>
      <trkpt lat="42.239902" lon="8.972265">
        <ele>1599.0</ele>
        <time>2022-09-11T15:54:45Z</time>
      </trkpt>
      <trkpt lat="42.239902" lon="8.972282">
        <ele>1599.0</ele>
        <time>2022-09-11T15:54:47Z</time>
      </trkpt>
      <trkpt lat="42.239903" lon="8.972298">
        <ele>1599.0</ele>
        <time>2022-09-11T15:54:49Z</time>
      </trkpt>
      <trkpt lat="42.239893" lon="8.972442">
        <ele>1599.0</ele>
        <time>2022-09-11T15:55:04Z</time>
      </trkpt>
      <trkpt lat="42.239888" lon="8.972478">
        <ele>1599.6</ele>
        <time>2022-09-11T15:55:08Z</time>
      </trkpt>
      <trkpt lat="42.239882" lon="8.972532">
        <ele>1599.6</ele>
        <time>2022-09-11T15:55:15Z</time>
      </trkpt>
      <trkpt lat="42.239807" lon="8.972643">
        <ele>1599.4</ele>
        <time>2022-09-11T15:55:26Z</time>
      </trkpt>
      <trkpt lat="42.239793" lon="8.972665">
        <ele>1599.4</ele>
        <time>2022-09-11T15:55:28Z</time>
      </trkpt>
      <trkpt lat="42.239748" lon="8.972737">
        <ele>1599.4</ele>
        <time>2022-09-11T15:55:35Z</time>
      </trkpt>
      <trkpt lat="42.239737" lon="8.972767">
        <ele>1599.2</ele>
        <time>2022-09-11T15:55:40Z</time>
      </trkpt>
      <trkpt lat="42.239728" lon="8.972805">
        <ele>1598.6</ele>
        <time>2022-09-11T15:55:48Z</time>
      </trkpt>
      <trkpt lat="42.239718" lon="8.972833">
        <ele>1598.4</ele>
        <time>2022-09-11T15:55:51Z</time>
      </trkpt>
      <trkpt lat="42.239687" lon="8.972922">
        <ele>1598.0</ele>
        <time>2022-09-11T15:55:59Z</time>
      </trkpt>
      <trkpt lat="42.239668" lon="8.972937">
        <ele>1598.0</ele>
        <time>2022-09-11T15:56:01Z</time>
      </trkpt>
      <trkpt lat="42.23957" lon="8.973008">
        <ele>1598.0</ele>
        <time>2022-09-11T15:56:10Z</time>
      </trkpt>
      <trkpt lat="42.23953" lon="8.97305">
        <ele>1598.2</ele>
        <time>2022-09-11T15:56:15Z</time>
      </trkpt>
      <trkpt lat="42.239448" lon="8.973093">
        <ele>1598.2</ele>
        <time>2022-09-11T15:56:23Z</time>
      </trkpt>
      <trkpt lat="42.23916" lon="8.973207">
        <ele>1596.0</ele>
        <time>2022-09-11T15:56:53Z</time>
      </trkpt>
      <trkpt lat="42.239152" lon="8.973212">
        <ele>1596.0</ele>
        <time>2022-09-11T15:56:54Z</time>
      </trkpt>
      <trkpt lat="42.239137" lon="8.973235">
        <ele>1595.8</ele>
        <time>2022-09-11T15:56:56Z</time>
      </trkpt>
      <trkpt lat="42.238968" lon="8.97352">
        <ele>1596.2</ele>
        <time>2022-09-11T15:57:23Z</time>
      </trkpt>
      <trkpt lat="42.238918" lon="8.973585">
        <ele>1596.8</ele>
        <time>2022-09-11T15:57:31Z</time>
      </trkpt>
      <trkpt lat="42.238908" lon="8.973605">
        <ele>1597.2</ele>
        <time>2022-09-11T15:57:33Z</time>
      </trkpt>
      <trkpt lat="42.238837" lon="8.973678">
        <ele>1597.2</ele>
        <time>2022-09-11T15:57:43Z</time>
      </trkpt>
      <trkpt lat="42.238723" lon="8.973708">
        <ele>1597.4</ele>
        <time>2022-09-11T15:57:57Z</time>
      </trkpt>
      <trkpt lat="42.238633" lon="8.973725">
        <ele>1596.8</ele>
        <time>2022-09-11T15:58:09Z</time>
      </trkpt>
      <trkpt lat="42.238488" lon="8.973837">
        <ele>1596.6</ele>
        <time>2022-09-11T15:58:26Z</time>
      </trkpt>
      <trkpt lat="42.238428" lon="8.973882">
        <ele>1596.6</ele>
        <time>2022-09-11T15:58:32Z</time>
      </trkpt>
      <trkpt lat="42.238405" lon="8.973887">
        <ele>1596.6</ele>
        <time>2022-09-11T15:58:34Z</time>
      </trkpt>
      <trkpt lat="42.238368" lon="8.973893">
        <ele>1596.6</ele>
        <time>2022-09-11T15:58:37Z</time>
      </trkpt>
      <trkpt lat="42.238308" lon="8.973903">
        <ele>1597.0</ele>
        <time>2022-09-11T15:58:43Z</time>
      </trkpt>
      <trkpt lat="42.238183" lon="8.973958">
        <ele>1597.2</ele>
        <time>2022-09-11T15:58:54Z</time>
      </trkpt>
      <trkpt lat="42.238143" lon="8.973982">
        <ele>1597.4</ele>
        <time>2022-09-11T15:58:58Z</time>
      </trkpt>
      <trkpt lat="42.238125" lon="8.973998">
        <ele>1597.4</ele>
        <time>2022-09-11T15:59:00Z</time>
      </trkpt>
      <trkpt lat="42.238055" lon="8.97407">
        <ele>1597.6</ele>
        <time>2022-09-11T15:59:08Z</time>
      </trkpt>
      <trkpt lat="42.23791" lon="8.974155">
        <ele>1597.6</ele>
        <time>2022-09-11T15:59:21Z</time>
      </trkpt>
      <trkpt lat="42.237902" lon="8.974163">
        <ele>1597.6</ele>
        <time>2022-09-11T15:59:22Z</time>
      </trkpt>
      <trkpt lat="42.237823" lon="8.97423">
        <ele>1598.0</ele>
        <time>2022-09-11T15:59:32Z</time>
      </trkpt>
      <trkpt lat="42.23777" lon="8.974278">
        <ele>1598.4</ele>
        <time>2022-09-11T15:59:40Z</time>
      </trkpt>
      <trkpt lat="42.237675" lon="8.974388">
        <ele>1598.6</ele>
        <time>2022-09-11T15:59:55Z</time>
      </trkpt>
      <trkpt lat="42.237628" lon="8.974457">
        <ele>1598.8</ele>
        <time>2022-09-11T16:00:04Z</time>
      </trkpt>
      <trkpt lat="42.237492" lon="8.974553">
        <ele>1599.4</ele>
        <time>2022-09-11T16:00:20Z</time>
      </trkpt>
      <trkpt lat="42.237433" lon="8.97455">
        <ele>1600.0</ele>
        <time>2022-09-11T16:00:26Z</time>
      </trkpt>
      <trkpt lat="42.237405" lon="8.974545">
        <ele>1600.2</ele>
        <time>2022-09-11T16:00:29Z</time>
      </trkpt>
      <trkpt lat="42.237337" lon="8.974583">
        <ele>1601.0</ele>
        <time>2022-09-11T16:00:37Z</time>
      </trkpt>
      <trkpt lat="42.23732" lon="8.974587">
        <ele>1601.4</ele>
        <time>2022-09-11T16:00:40Z</time>
      </trkpt>
      <trkpt lat="42.237278" lon="8.974583">
        <ele>1601.6</ele>
        <time>2022-09-11T16:00:45Z</time>
      </trkpt>
      <trkpt lat="42.237237" lon="8.974573">
        <ele>1602.4</ele>
        <time>2022-09-11T16:00:51Z</time>
      </trkpt>
      <trkpt lat="42.237225" lon="8.974533">
        <ele>1602.4</ele>
        <time>2022-09-11T16:00:55Z</time>
      </trkpt>
      <trkpt lat="42.23721" lon="8.974485">
        <ele>1603.2</ele>
        <time>2022-09-11T16:01:00Z</time>
      </trkpt>
      <trkpt lat="42.237167" lon="8.974433">
        <ele>1602.0</ele>
        <time>2022-09-11T16:01:09Z</time>
      </trkpt>
      <trkpt lat="42.237153" lon="8.974413">
        <ele>1601.4</ele>
        <time>2022-09-11T16:01:12Z</time>
      </trkpt>
      <trkpt lat="42.237133" lon="8.97438">
        <ele>1600.6</ele>
        <time>2022-09-11T16:01:17Z</time>
      </trkpt>
      <trkpt lat="42.237118" lon="8.974327">
        <ele>1599.6</ele>
        <time>2022-09-11T16:01:25Z</time>
      </trkpt>
      <trkpt lat="42.237115" lon="8.97432">
        <ele>1599.6</ele>
        <time>2022-09-11T16:01:26Z</time>
      </trkpt>
      <trkpt lat="42.2371" lon="8.974293">
        <ele>1599.4</ele>
        <time>2022-09-11T16:01:31Z</time>
      </trkpt>
      <trkpt lat="42.237078" lon="8.974278">
        <ele>1599.2</ele>
        <time>2022-09-11T16:01:36Z</time>
      </trkpt>
      <trkpt lat="42.237065" lon="8.97427">
        <ele>1598.4</ele>
        <time>2022-09-11T16:01:39Z</time>
      </trkpt>
      <trkpt lat="42.237043" lon="8.974228">
        <ele>1597.6</ele>
        <time>2022-09-11T16:01:45Z</time>
      </trkpt>
      <trkpt lat="42.237022" lon="8.974205">
        <ele>1597.4</ele>
        <time>2022-09-11T16:01:49Z</time>
      </trkpt>
      <trkpt lat="42.237008" lon="8.974202">
        <ele>1597.2</ele>
        <time>2022-09-11T16:01:52Z</time>
      </trkpt>
      <trkpt lat="42.236985" lon="8.974208">
        <ele>1596.8</ele>
        <time>2022-09-11T16:01:56Z</time>
      </trkpt>
      <trkpt lat="42.236983" lon="8.974232">
        <ele>1596.8</ele>
        <time>2022-09-11T16:01:58Z</time>
      </trkpt>
      <trkpt lat="42.236973" lon="8.974278">
        <ele>1596.0</ele>
        <time>2022-09-11T16:02:02Z</time>
      </trkpt>
      <trkpt lat="42.236938" lon="8.974335">
        <ele>1595.2</ele>
        <time>2022-09-11T16:02:08Z</time>
      </trkpt>
      <trkpt lat="42.236925" lon="8.974348">
        <ele>1594.8</ele>
        <time>2022-09-11T16:02:10Z</time>
      </trkpt>
      <trkpt lat="42.236795" lon="8.974447">
        <ele>1593.0</ele>
        <time>2022-09-11T16:02:27Z</time>
      </trkpt>
      <trkpt lat="42.236778" lon="8.974445">
        <ele>1592.8</ele>
        <time>2022-09-11T16:02:29Z</time>
      </trkpt>
      <trkpt lat="42.236742" lon="8.974422">
        <ele>1592.4</ele>
        <time>2022-09-11T16:02:46Z</time>
      </trkpt>
      <trkpt lat="42.236738" lon="8.974415">
        <ele>1592.4</ele>
        <time>2022-09-11T16:02:47Z</time>
      </trkpt>
      <trkpt lat="42.236702" lon="8.974375">
        <ele>1592.6</ele>
        <time>2022-09-11T16:03:02Z</time>
      </trkpt>
      <trkpt lat="42.236688" lon="8.974377">
        <ele>1592.6</ele>
        <time>2022-09-11T16:03:05Z</time>
      </trkpt>
      <trkpt lat="42.23667" lon="8.974403">
        <ele>1592.6</ele>
        <time>2022-09-11T16:03:12Z</time>
      </trkpt>
      <trkpt lat="42.23668" lon="8.974442">
        <ele>1592.6</ele>
        <time>2022-09-11T16:03:18Z</time>
      </trkpt>
      <trkpt lat="42.236678" lon="8.974462">
        <ele>1592.6</ele>
        <time>2022-09-11T16:03:21Z</time>
      </trkpt>
      <trkpt lat="42.236638" lon="8.9745">
        <ele>1592.2</ele>
        <time>2022-09-11T16:03:36Z</time>
      </trkpt>
      <trkpt lat="42.236628" lon="8.974522">
        <ele>1591.8</ele>
        <time>2022-09-11T16:03:44Z</time>
      </trkpt>
      <trkpt lat="42.236583" lon="8.974472">
        <ele>1589.8</ele>
        <time>2022-09-11T16:03:59Z</time>
      </trkpt>
      <trkpt lat="42.236572" lon="8.974442">
        <ele>1589.8</ele>
        <time>2022-09-11T16:04:03Z</time>
      </trkpt>
      <trkpt lat="42.236567" lon="8.97442">
        <ele>1589.8</ele>
        <time>2022-09-11T16:04:06Z</time>
      </trkpt>
      <trkpt lat="42.23654" lon="8.974447">
        <ele>1589.8</ele>
        <time>2022-09-11T16:04:17Z</time>
      </trkpt>
      <trkpt lat="42.236528" lon="8.97446">
        <ele>1589.4</ele>
        <time>2022-09-11T16:04:20Z</time>
      </trkpt>
      <trkpt lat="42.236512" lon="8.974453">
        <ele>1588.8</ele>
        <time>2022-09-11T16:04:23Z</time>
      </trkpt>
      <trkpt lat="42.23647" lon="8.974438">
        <ele>1588.0</ele>
        <time>2022-09-11T16:04:30Z</time>
      </trkpt>
      <trkpt lat="42.23641" lon="8.974432">
        <ele>1585.8</ele>
        <time>2022-09-11T16:04:39Z</time>
      </trkpt>
      <trkpt lat="42.236395" lon="8.974437">
        <ele>1585.0</ele>
        <time>2022-09-11T16:04:42Z</time>
      </trkpt>
      <trkpt lat="42.236383" lon="8.974452">
        <ele>1584.8</ele>
        <time>2022-09-11T16:04:44Z</time>
      </trkpt>
      <trkpt lat="42.236292" lon="8.974587">
        <ele>1582.2</ele>
        <time>2022-09-11T16:04:59Z</time>
      </trkpt>
      <trkpt lat="42.23626" lon="8.974627">
        <ele>1581.6</ele>
        <time>2022-09-11T16:05:04Z</time>
      </trkpt>
      <trkpt lat="42.23622" lon="8.974648">
        <ele>1580.4</ele>
        <time>2022-09-11T16:05:10Z</time>
      </trkpt>
      <trkpt lat="42.236202" lon="8.974678">
        <ele>1579.4</ele>
        <time>2022-09-11T16:05:13Z</time>
      </trkpt>
      <trkpt lat="42.236198" lon="8.974745">
        <ele>1578.6</ele>
        <time>2022-09-11T16:05:18Z</time>
      </trkpt>
      <trkpt lat="42.236193" lon="8.97485">
        <ele>1577.4</ele>
        <time>2022-09-11T16:05:25Z</time>
      </trkpt>
      <trkpt lat="42.236173" lon="8.974867">
        <ele>1577.0</ele>
        <time>2022-09-11T16:05:27Z</time>
      </trkpt>
      <trkpt lat="42.236098" lon="8.974858">
        <ele>1574.4</ele>
        <time>2022-09-11T16:06:10Z</time>
      </trkpt>
      <trkpt lat="42.23605" lon="8.974822">
        <ele>1572.8</ele>
        <time>2022-09-11T16:06:24Z</time>
      </trkpt>
      <trkpt lat="42.235997" lon="8.974777">
        <ele>1572.2</ele>
        <time>2022-09-11T16:06:29Z</time>
      </trkpt>
      <trkpt lat="42.23596" lon="8.974772">
        <ele>1571.8</ele>
        <time>2022-09-11T16:06:31Z</time>
      </trkpt>
      <trkpt lat="42.235663" lon="8.97478">
        <ele>1569.2</ele>
        <time>2022-09-11T16:06:48Z</time>
      </trkpt>
      <trkpt lat="42.235657" lon="8.97479">
        <ele>1568.8</ele>
        <time>2022-09-11T16:06:49Z</time>
      </trkpt>
      <trkpt lat="42.23565" lon="8.974797">
        <ele>1568.6</ele>
        <time>2022-09-11T16:06:50Z</time>
      </trkpt>
      <trkpt lat="42.235633" lon="8.974813">
        <ele>1568.6</ele>
        <time>2022-09-11T16:06:52Z</time>
      </trkpt>
      <trkpt lat="42.235525" lon="8.97489">
        <ele>1566.6</ele>
        <time>2022-09-11T16:07:05Z</time>
      </trkpt>
      <trkpt lat="42.235497" lon="8.974918">
        <ele>1565.8</ele>
        <time>2022-09-11T16:07:11Z</time>
      </trkpt>
      <trkpt lat="42.23548" lon="8.974952">
        <ele>1564.6</ele>
        <time>2022-09-11T16:07:17Z</time>
      </trkpt>
      <trkpt lat="42.235442" lon="8.974977">
        <ele>1563.4</ele>
        <time>2022-09-11T16:07:25Z</time>
      </trkpt>
      <trkpt lat="42.235423" lon="8.974997">
        <ele>1562.8</ele>
        <time>2022-09-11T16:07:29Z</time>
      </trkpt>
      <trkpt lat="42.235417" lon="8.975012">
        <ele>1562.6</ele>
        <time>2022-09-11T16:07:31Z</time>
      </trkpt>
      <trkpt lat="42.2354" lon="8.975027">
        <ele>1562.2</ele>
        <time>2022-09-11T16:07:34Z</time>
      </trkpt>
      <trkpt lat="42.23539" lon="8.97504">
        <ele>1562.2</ele>
        <time>2022-09-11T16:07:36Z</time>
      </trkpt>
      <trkpt lat="42.235382" lon="8.975052">
        <ele>1562.0</ele>
        <time>2022-09-11T16:07:38Z</time>
      </trkpt>
      <trkpt lat="42.235367" lon="8.975077">
        <ele>1561.6</ele>
        <time>2022-09-11T16:07:42Z</time>
      </trkpt>
      <trkpt lat="42.235267" lon="8.975095">
        <ele>1558.8</ele>
        <time>2022-09-11T16:08:11Z</time>
      </trkpt>
      <trkpt lat="42.235232" lon="8.975107">
        <ele>1557.2</ele>
        <time>2022-09-11T16:08:18Z</time>
      </trkpt>
      <trkpt lat="42.23522" lon="8.97511">
        <ele>1557.2</ele>
        <time>2022-09-11T16:08:20Z</time>
      </trkpt>
      <trkpt lat="42.235193" lon="8.97511">
        <ele>1556.4</ele>
        <time>2022-09-11T16:08:25Z</time>
      </trkpt>
      <trkpt lat="42.23517" lon="8.975112">
        <ele>1556.0</ele>
        <time>2022-09-11T16:08:27Z</time>
      </trkpt>
      <trkpt lat="42.23515" lon="8.975125">
        <ele>1555.6</ele>
        <time>2022-09-11T16:08:29Z</time>
      </trkpt>
      <trkpt lat="42.23513" lon="8.975142">
        <ele>1555.6</ele>
        <time>2022-09-11T16:08:31Z</time>
      </trkpt>
      <trkpt lat="42.235087" lon="8.975173">
        <ele>1554.4</ele>
        <time>2022-09-11T16:08:36Z</time>
      </trkpt>
      <trkpt lat="42.235043" lon="8.97521">
        <ele>1553.4</ele>
        <time>2022-09-11T16:08:43Z</time>
      </trkpt>
      <trkpt lat="42.234932" lon="8.975347">
        <ele>1551.4</ele>
        <time>2022-09-11T16:08:59Z</time>
      </trkpt>
      <trkpt lat="42.234867" lon="8.975367">
        <ele>1550.8</ele>
        <time>2022-09-11T16:09:05Z</time>
      </trkpt>
      <trkpt lat="42.234665" lon="8.975507">
        <ele>1548.4</ele>
        <time>2022-09-11T16:09:25Z</time>
      </trkpt>
      <trkpt lat="42.234577" lon="8.975545">
        <ele>1547.6</ele>
        <time>2022-09-11T16:09:33Z</time>
      </trkpt>
      <trkpt lat="42.234522" lon="8.975528">
        <ele>1547.4</ele>
        <time>2022-09-11T16:09:39Z</time>
      </trkpt>
      <trkpt lat="42.23444" lon="8.975512">
        <ele>1546.8</ele>
        <time>2022-09-11T16:09:46Z</time>
      </trkpt>
      <trkpt lat="42.234427" lon="8.97551">
        <ele>1546.8</ele>
        <time>2022-09-11T16:09:47Z</time>
      </trkpt>
      <trkpt lat="42.234412" lon="8.975522">
        <ele>1546.8</ele>
        <time>2022-09-11T16:09:49Z</time>
      </trkpt>
      <trkpt lat="42.23438" lon="8.975567">
        <ele>1546.8</ele>
        <time>2022-09-11T16:09:54Z</time>
      </trkpt>
      <trkpt lat="42.234343" lon="8.975573">
        <ele>1546.4</ele>
        <time>2022-09-11T16:09:58Z</time>
      </trkpt>
      <trkpt lat="42.234317" lon="8.975578">
        <ele>1546.4</ele>
        <time>2022-09-11T16:10:01Z</time>
      </trkpt>
      <trkpt lat="42.23427" lon="8.975615">
        <ele>1546.2</ele>
        <time>2022-09-11T16:10:07Z</time>
      </trkpt>
      <trkpt lat="42.234235" lon="8.975618">
        <ele>1545.6</ele>
        <time>2022-09-11T16:10:11Z</time>
      </trkpt>
      <trkpt lat="42.234158" lon="8.97561">
        <ele>1545.2</ele>
        <time>2022-09-11T16:10:20Z</time>
      </trkpt>
      <trkpt lat="42.234142" lon="8.975617">
        <ele>1545.0</ele>
        <time>2022-09-11T16:10:23Z</time>
      </trkpt>
      <trkpt lat="42.234068" lon="8.975668">
        <ele>1543.8</ele>
        <time>2022-09-11T16:10:37Z</time>
      </trkpt>
      <trkpt lat="42.234065" lon="8.975668">
        <ele>1543.8</ele>
        <time>2022-09-11T16:10:38Z</time>
      </trkpt>
      <trkpt lat="42.23401" lon="8.975675">
        <ele>1543.8</ele>
        <time>2022-09-11T16:10:46Z</time>
      </trkpt>
      <trkpt lat="42.233928" lon="8.975758">
        <ele>1544.6</ele>
        <time>2022-09-11T16:10:58Z</time>
      </trkpt>
      <trkpt lat="42.23391" lon="8.975765">
        <ele>1544.6</ele>
        <time>2022-09-11T16:11:01Z</time>
      </trkpt>
      <trkpt lat="42.233843" lon="8.9758">
        <ele>1544.8</ele>
        <time>2022-09-11T16:11:09Z</time>
      </trkpt>
      <trkpt lat="42.233815" lon="8.975833">
        <ele>1544.8</ele>
        <time>2022-09-11T16:11:13Z</time>
      </trkpt>
      <trkpt lat="42.23369" lon="8.975878">
        <ele>1543.8</ele>
        <time>2022-09-11T16:11:30Z</time>
      </trkpt>
      <trkpt lat="42.233577" lon="8.975905">
        <ele>1544.6</ele>
        <time>2022-09-11T16:11:46Z</time>
      </trkpt>
      <trkpt lat="42.233547" lon="8.976075">
        <ele>1544.0</ele>
        <time>2022-09-11T16:11:59Z</time>
      </trkpt>
      <trkpt lat="42.233512" lon="8.976143">
        <ele>1544.0</ele>
        <time>2022-09-11T16:12:04Z</time>
      </trkpt>
      <trkpt lat="42.233235" lon="8.976087">
        <ele>1543.4</ele>
        <time>2022-09-11T16:12:27Z</time>
      </trkpt>
      <trkpt lat="42.233208" lon="8.976097">
        <ele>1543.4</ele>
        <time>2022-09-11T16:12:29Z</time>
      </trkpt>
      <trkpt lat="42.23318" lon="8.976098">
        <ele>1543.4</ele>
        <time>2022-09-11T16:12:31Z</time>
      </trkpt>
      <trkpt lat="42.233085" lon="8.976047">
        <ele>1543.2</ele>
        <time>2022-09-11T16:12:42Z</time>
      </trkpt>
      <trkpt lat="42.233055" lon="8.976052">
        <ele>1543.2</ele>
        <time>2022-09-11T16:12:44Z</time>
      </trkpt>
      <trkpt lat="42.232978" lon="8.976073">
        <ele>1543.2</ele>
        <time>2022-09-11T16:12:49Z</time>
      </trkpt>
      <trkpt lat="42.232895" lon="8.976127">
        <ele>1543.2</ele>
        <time>2022-09-11T16:12:55Z</time>
      </trkpt>
      <trkpt lat="42.232868" lon="8.976145">
        <ele>1543.2</ele>
        <time>2022-09-11T16:12:57Z</time>
      </trkpt>
      <trkpt lat="42.232785" lon="8.976217">
        <ele>1543.2</ele>
        <time>2022-09-11T16:13:05Z</time>
      </trkpt>
      <trkpt lat="42.232747" lon="8.976247">
        <ele>1543.2</ele>
        <time>2022-09-11T16:13:08Z</time>
      </trkpt>
      <trkpt lat="42.23272" lon="8.976262">
        <ele>1543.2</ele>
        <time>2022-09-11T16:13:10Z</time>
      </trkpt>
      <trkpt lat="42.23265" lon="8.976297">
        <ele>1543.4</ele>
        <time>2022-09-11T16:13:15Z</time>
      </trkpt>
      <trkpt lat="42.2326" lon="8.976332">
        <ele>1543.4</ele>
        <time>2022-09-11T16:13:19Z</time>
      </trkpt>
      <trkpt lat="42.232577" lon="8.976338">
        <ele>1543.4</ele>
        <time>2022-09-11T16:13:21Z</time>
      </trkpt>
      <trkpt lat="42.232183" lon="8.976422">
        <ele>1543.2</ele>
        <time>2022-09-11T16:13:53Z</time>
      </trkpt>
      <trkpt lat="42.232158" lon="8.976417">
        <ele>1543.2</ele>
        <time>2022-09-11T16:13:55Z</time>
      </trkpt>
      <trkpt lat="42.232133" lon="8.97641">
        <ele>1543.2</ele>
        <time>2022-09-11T16:13:57Z</time>
      </trkpt>
      <trkpt lat="42.232108" lon="8.976405">
        <ele>1543.2</ele>
        <time>2022-09-11T16:13:59Z</time>
      </trkpt>
      <trkpt lat="42.232097" lon="8.976403">
        <ele>1543.2</ele>
        <time>2022-09-11T16:14:01Z</time>
      </trkpt>
      <trkpt lat="42.231923" lon="8.976587">
        <ele>1542.4</ele>
        <time>2022-09-11T16:14:20Z</time>
      </trkpt>
      <trkpt lat="42.23189" lon="8.976657">
        <ele>1542.8</ele>
        <time>2022-09-11T16:14:26Z</time>
      </trkpt>
      <trkpt lat="42.231797" lon="8.976867">
        <ele>1542.8</ele>
        <time>2022-09-11T16:14:41Z</time>
      </trkpt>
      <trkpt lat="42.231775" lon="8.976877">
        <ele>1542.8</ele>
        <time>2022-09-11T16:14:43Z</time>
      </trkpt>
      <trkpt lat="42.231598" lon="8.976962">
        <ele>1543.0</ele>
        <time>2022-09-11T16:15:00Z</time>
      </trkpt>
      <trkpt lat="42.231587" lon="8.976968">
        <ele>1543.0</ele>
        <time>2022-09-11T16:15:01Z</time>
      </trkpt>
      <trkpt lat="42.23141" lon="8.977073">
        <ele>1542.6</ele>
        <time>2022-09-11T16:15:17Z</time>
      </trkpt>
      <trkpt lat="42.231315" lon="8.977103">
        <ele>1542.6</ele>
        <time>2022-09-11T16:15:24Z</time>
      </trkpt>
      <trkpt lat="42.2313" lon="8.977105">
        <ele>1542.6</ele>
        <time>2022-09-11T16:15:25Z</time>
      </trkpt>
      <trkpt lat="42.231165" lon="8.977132">
        <ele>1542.8</ele>
        <time>2022-09-11T16:15:37Z</time>
      </trkpt>
      <trkpt lat="42.231058" lon="8.977098">
        <ele>1543.0</ele>
        <time>2022-09-11T16:15:49Z</time>
      </trkpt>
      <trkpt lat="42.231043" lon="8.977097">
        <ele>1543.0</ele>
        <time>2022-09-11T16:15:51Z</time>
      </trkpt>
      <trkpt lat="42.230942" lon="8.977115">
        <ele>1543.4</ele>
        <time>2022-09-11T16:16:02Z</time>
      </trkpt>
      <trkpt lat="42.23089" lon="8.977102">
        <ele>1543.6</ele>
        <time>2022-09-11T16:16:07Z</time>
      </trkpt>
      <trkpt lat="42.23076" lon="8.977145">
        <ele>1543.6</ele>
        <time>2022-09-11T16:16:19Z</time>
      </trkpt>
      <trkpt lat="42.230635" lon="8.977322">
        <ele>1544.6</ele>
        <time>2022-09-11T16:16:33Z</time>
      </trkpt>
      <trkpt lat="42.230622" lon="8.977352">
        <ele>1544.6</ele>
        <time>2022-09-11T16:16:35Z</time>
      </trkpt>
      <trkpt lat="42.230605" lon="8.977377">
        <ele>1544.6</ele>
        <time>2022-09-11T16:16:37Z</time>
      </trkpt>
      <trkpt lat="42.230555" lon="8.977423">
        <ele>1544.8</ele>
        <time>2022-09-11T16:16:42Z</time>
      </trkpt>
      <trkpt lat="42.23045" lon="8.977502">
        <ele>1545.0</ele>
        <time>2022-09-11T16:16:53Z</time>
      </trkpt>
      <trkpt lat="42.230378" lon="8.977565">
        <ele>1545.0</ele>
        <time>2022-09-11T16:17:00Z</time>
      </trkpt>
      <trkpt lat="42.23037" lon="8.977577">
        <ele>1545.0</ele>
        <time>2022-09-11T16:17:01Z</time>
      </trkpt>
      <trkpt lat="42.230352" lon="8.977588">
        <ele>1545.0</ele>
        <time>2022-09-11T16:17:03Z</time>
      </trkpt>
      <trkpt lat="42.230333" lon="8.9776">
        <ele>1544.8</ele>
        <time>2022-09-11T16:17:05Z</time>
      </trkpt>
      <trkpt lat="42.230265" lon="8.977627">
        <ele>1545.0</ele>
        <time>2022-09-11T16:17:12Z</time>
      </trkpt>
      <trkpt lat="42.230167" lon="8.977675">
        <ele>1545.0</ele>
        <time>2022-09-11T16:17:21Z</time>
      </trkpt>
      <trkpt lat="42.230115" lon="8.977705">
        <ele>1545.0</ele>
        <time>2022-09-11T16:17:26Z</time>
      </trkpt>
      <trkpt lat="42.230057" lon="8.977718">
        <ele>1545.2</ele>
        <time>2022-09-11T16:17:32Z</time>
      </trkpt>
      <trkpt lat="42.230038" lon="8.97772">
        <ele>1545.0</ele>
        <time>2022-09-11T16:17:34Z</time>
      </trkpt>
      <trkpt lat="42.230022" lon="8.97772">
        <ele>1545.0</ele>
        <time>2022-09-11T16:17:36Z</time>
      </trkpt>
      <trkpt lat="42.230003" lon="8.977718">
        <ele>1544.8</ele>
        <time>2022-09-11T16:17:38Z</time>
      </trkpt>
      <trkpt lat="42.229985" lon="8.977717">
        <ele>1544.8</ele>
        <time>2022-09-11T16:17:40Z</time>
      </trkpt>
      <trkpt lat="42.22987" lon="8.977678">
        <ele>1544.6</ele>
        <time>2022-09-11T16:18:02Z</time>
      </trkpt>
      <trkpt lat="42.229842" lon="8.977688">
        <ele>1544.6</ele>
        <time>2022-09-11T16:18:04Z</time>
      </trkpt>
      <trkpt lat="42.229735" lon="8.97771">
        <ele>1545.0</ele>
        <time>2022-09-11T16:18:13Z</time>
      </trkpt>
      <trkpt lat="42.229713" lon="8.977702">
        <ele>1544.6</ele>
        <time>2022-09-11T16:18:15Z</time>
      </trkpt>
      <trkpt lat="42.229617" lon="8.977657">
        <ele>1544.6</ele>
        <time>2022-09-11T16:18:24Z</time>
      </trkpt>
      <trkpt lat="42.229568" lon="8.977633">
        <ele>1544.6</ele>
        <time>2022-09-11T16:18:28Z</time>
      </trkpt>
      <trkpt lat="42.229505" lon="8.977645">
        <ele>1544.6</ele>
        <time>2022-09-11T16:18:32Z</time>
      </trkpt>
      <trkpt lat="42.229323" lon="8.977607">
        <ele>1544.0</ele>
        <time>2022-09-11T16:18:47Z</time>
      </trkpt>
      <trkpt lat="42.229217" lon="8.97759">
        <ele>1544.0</ele>
        <time>2022-09-11T16:18:57Z</time>
      </trkpt>
      <trkpt lat="42.229047" lon="8.977605">
        <ele>1544.6</ele>
        <time>2022-09-11T16:19:12Z</time>
      </trkpt>
      <trkpt lat="42.229023" lon="8.97761">
        <ele>1544.6</ele>
        <time>2022-09-11T16:19:14Z</time>
      </trkpt>
      <trkpt lat="42.22901" lon="8.97763">
        <ele>1544.6</ele>
        <time>2022-09-11T16:19:16Z</time>
      </trkpt>
      <trkpt lat="42.228968" lon="8.977673">
        <ele>1544.6</ele>
        <time>2022-09-11T16:19:22Z</time>
      </trkpt>
      <trkpt lat="42.22886" lon="8.977768">
        <ele>1545.0</ele>
        <time>2022-09-11T16:19:34Z</time>
      </trkpt>
      <trkpt lat="42.22869" lon="8.977942">
        <ele>1545.0</ele>
        <time>2022-09-11T16:19:55Z</time>
      </trkpt>
      <trkpt lat="42.22859" lon="8.977895">
        <ele>1545.0</ele>
        <time>2022-09-11T16:20:03Z</time>
      </trkpt>
      <trkpt lat="42.228465" lon="8.977883">
        <ele>1544.8</ele>
        <time>2022-09-11T16:20:14Z</time>
      </trkpt>
      <trkpt lat="42.228222" lon="8.977765">
        <ele>1544.4</ele>
        <time>2022-09-11T16:20:37Z</time>
      </trkpt>
      <trkpt lat="42.228107" lon="8.977773">
        <ele>1544.8</ele>
        <time>2022-09-11T16:20:49Z</time>
      </trkpt>
      <trkpt lat="42.22809" lon="8.977777">
        <ele>1544.8</ele>
        <time>2022-09-11T16:20:51Z</time>
      </trkpt>
      <trkpt lat="42.228047" lon="8.977775">
        <ele>1544.8</ele>
        <time>2022-09-11T16:20:57Z</time>
      </trkpt>
      <trkpt lat="42.228003" lon="8.977755">
        <ele>1544.6</ele>
        <time>2022-09-11T16:21:04Z</time>
      </trkpt>
      <trkpt lat="42.22799" lon="8.977753">
        <ele>1544.4</ele>
        <time>2022-09-11T16:21:07Z</time>
      </trkpt>
      <trkpt lat="42.227928" lon="8.977777">
        <ele>1544.4</ele>
        <time>2022-09-11T16:21:16Z</time>
      </trkpt>
      <trkpt lat="42.22792" lon="8.977782">
        <ele>1544.4</ele>
        <time>2022-09-11T16:21:17Z</time>
      </trkpt>
      <trkpt lat="42.227862" lon="8.977762">
        <ele>1544.6</ele>
        <time>2022-09-11T16:21:22Z</time>
      </trkpt>
      <trkpt lat="42.22784" lon="8.977753">
        <ele>1544.8</ele>
        <time>2022-09-11T16:21:24Z</time>
      </trkpt>
      <trkpt lat="42.227742" lon="8.977715">
        <ele>1545.2</ele>
        <time>2022-09-11T16:21:39Z</time>
      </trkpt>
      <trkpt lat="42.227682" lon="8.97771">
        <ele>1545.8</ele>
        <time>2022-09-11T16:21:46Z</time>
      </trkpt>
      <trkpt lat="42.22755" lon="8.977768">
        <ele>1546.8</ele>
        <time>2022-09-11T16:21:59Z</time>
      </trkpt>
      <trkpt lat="42.227537" lon="8.977765">
        <ele>1547.0</ele>
        <time>2022-09-11T16:22:00Z</time>
      </trkpt>
      <trkpt lat="42.227482" lon="8.977785">
        <ele>1547.2</ele>
        <time>2022-09-11T16:22:06Z</time>
      </trkpt>
      <trkpt lat="42.227442" lon="8.977847">
        <ele>1548.2</ele>
        <time>2022-09-11T16:22:14Z</time>
      </trkpt>
      <trkpt lat="42.22743" lon="8.977875">
        <ele>1548.4</ele>
        <time>2022-09-11T16:22:19Z</time>
      </trkpt>
      <trkpt lat="42.227372" lon="8.977967">
        <ele>1549.2</ele>
        <time>2022-09-11T16:22:30Z</time>
      </trkpt>
      <trkpt lat="42.227353" lon="8.977978">
        <ele>1549.4</ele>
        <time>2022-09-11T16:22:32Z</time>
      </trkpt>
      <trkpt lat="42.22729" lon="8.978023">
        <ele>1549.8</ele>
        <time>2022-09-11T16:22:40Z</time>
      </trkpt>
      <trkpt lat="42.227173" lon="8.978093">
        <ele>1550.6</ele>
        <time>2022-09-11T16:22:56Z</time>
      </trkpt>
      <trkpt lat="42.227097" lon="8.978133">
        <ele>1551.6</ele>
        <time>2022-09-11T16:23:06Z</time>
      </trkpt>
      <trkpt lat="42.227035" lon="8.978237">
        <ele>1553.4</ele>
        <time>2022-09-11T16:23:20Z</time>
      </trkpt>
      <trkpt lat="42.227032" lon="8.978243">
        <ele>1553.4</ele>
        <time>2022-09-11T16:23:21Z</time>
      </trkpt>
      <trkpt lat="42.226992" lon="8.978282">
        <ele>1555.0</ele>
        <time>2022-09-11T16:23:33Z</time>
      </trkpt>
      <trkpt lat="42.226922" lon="8.978247">
        <ele>1557.4</ele>
        <time>2022-09-11T16:23:53Z</time>
      </trkpt>
      <trkpt lat="42.226912" lon="8.978237">
        <ele>1558.0</ele>
        <time>2022-09-11T16:23:56Z</time>
      </trkpt>
      <trkpt lat="42.226902" lon="8.978228">
        <ele>1558.2</ele>
        <time>2022-09-11T16:23:59Z</time>
      </trkpt>
      <trkpt lat="42.226872" lon="8.978228">
        <ele>1559.2</ele>
        <time>2022-09-11T16:24:07Z</time>
      </trkpt>
      <trkpt lat="42.226858" lon="8.978238">
        <ele>1559.8</ele>
        <time>2022-09-11T16:24:11Z</time>
      </trkpt>
      <trkpt lat="42.226837" lon="8.978277">
        <ele>1560.4</ele>
        <time>2022-09-11T16:24:20Z</time>
      </trkpt>
      <trkpt lat="42.226822" lon="8.978257">
        <ele>1561.2</ele>
        <time>2022-09-11T16:24:28Z</time>
      </trkpt>
      <trkpt lat="42.226815" lon="8.97821">
        <ele>1562.2</ele>
        <time>2022-09-11T16:24:38Z</time>
      </trkpt>
      <trkpt lat="42.226793" lon="8.978223">
        <ele>1562.6</ele>
        <time>2022-09-11T16:24:43Z</time>
      </trkpt>
      <trkpt lat="42.22677" lon="8.978248">
        <ele>1564.2</ele>
        <time>2022-09-11T16:24:53Z</time>
      </trkpt>
      <trkpt lat="42.226748" lon="8.978272">
        <ele>1566.8</ele>
        <time>2022-09-11T16:25:18Z</time>
      </trkpt>
      <trkpt lat="42.226745" lon="8.978277">
        <ele>1567.2</ele>
        <time>2022-09-11T16:25:22Z</time>
      </trkpt>
      <trkpt lat="42.22669" lon="8.978315">
        <ele>1567.6</ele>
        <time>2022-09-11T16:25:28Z</time>
      </trkpt>
      <trkpt lat="42.226677" lon="8.978323">
        <ele>1567.6</ele>
        <time>2022-09-11T16:25:29Z</time>
      </trkpt>
      <trkpt lat="42.226663" lon="8.978332">
        <ele>1567.6</ele>
        <time>2022-09-11T16:25:30Z</time>
      </trkpt>
      <trkpt lat="42.226435" lon="8.978475">
        <ele>1567.0</ele>
        <time>2022-09-11T16:25:46Z</time>
      </trkpt>
      <trkpt lat="42.226418" lon="8.978477">
        <ele>1567.0</ele>
        <time>2022-09-11T16:25:46Z</time>
      </trkpt>
      <trkpt lat="42.226335" lon="8.978497">
        <ele>1567.0</ele>
        <time>2022-09-11T16:25:51Z</time>
      </trkpt>
      <trkpt lat="42.226322" lon="8.97851">
        <ele>1567.0</ele>
        <time>2022-09-11T16:25:52Z</time>
      </trkpt>
      <trkpt lat="42.226205" lon="8.978627">
        <ele>1567.4</ele>
        <time>2022-09-11T16:26:02Z</time>
      </trkpt>
      <trkpt lat="42.226168" lon="8.978608">
        <ele>1568.0</ele>
        <time>2022-09-11T16:26:08Z</time>
      </trkpt>
      <trkpt lat="42.226128" lon="8.978572">
        <ele>1568.6</ele>
        <time>2022-09-11T16:26:14Z</time>
      </trkpt>
      <trkpt lat="42.226113" lon="8.978562">
        <ele>1568.6</ele>
        <time>2022-09-11T16:26:16Z</time>
      </trkpt>
      <trkpt lat="42.22607" lon="8.978575">
        <ele>1569.0</ele>
        <time>2022-09-11T16:26:22Z</time>
      </trkpt>
      <trkpt lat="42.22602" lon="8.97862">
        <ele>1570.4</ele>
        <time>2022-09-11T16:26:36Z</time>
      </trkpt>
      <trkpt lat="42.225997" lon="8.978635">
        <ele>1571.8</ele>
        <time>2022-09-11T16:26:48Z</time>
      </trkpt>
      <trkpt lat="42.225987" lon="8.978653">
        <ele>1572.0</ele>
        <time>2022-09-11T16:26:53Z</time>
      </trkpt>
      <trkpt lat="42.225983" lon="8.978657">
        <ele>1572.0</ele>
        <time>2022-09-11T16:26:54Z</time>
      </trkpt>
      <trkpt lat="42.225948" lon="8.978697">
        <ele>1572.6</ele>
        <time>2022-09-11T16:27:01Z</time>
      </trkpt>
      <trkpt lat="42.225787" lon="8.978848">
        <ele>1574.4</ele>
        <time>2022-09-11T16:27:25Z</time>
      </trkpt>
      <trkpt lat="42.225722" lon="8.978915">
        <ele>1574.4</ele>
        <time>2022-09-11T16:27:32Z</time>
      </trkpt>
      <trkpt lat="42.225655" lon="8.979037">
        <ele>1574.6</ele>
        <time>2022-09-11T16:27:38Z</time>
      </trkpt>
      <trkpt lat="42.225632" lon="8.97908">
        <ele>1574.6</ele>
        <time>2022-09-11T16:27:40Z</time>
      </trkpt>
      <trkpt lat="42.225617" lon="8.979098">
        <ele>1574.6</ele>
        <time>2022-09-11T16:27:41Z</time>
      </trkpt>
      <trkpt lat="42.225565" lon="8.97914">
        <ele>1574.6</ele>
        <time>2022-09-11T16:27:44Z</time>
      </trkpt>
      <trkpt lat="42.225527" lon="8.979158">
        <ele>1574.6</ele>
        <time>2022-09-11T16:27:47Z</time>
      </trkpt>
      <trkpt lat="42.225515" lon="8.979158">
        <ele>1574.6</ele>
        <time>2022-09-11T16:27:48Z</time>
      </trkpt>
      <trkpt lat="42.225457" lon="8.979168">
        <ele>1574.6</ele>
        <time>2022-09-11T16:27:53Z</time>
      </trkpt>
      <trkpt lat="42.22532" lon="8.97921">
        <ele>1574.4</ele>
        <time>2022-09-11T16:28:07Z</time>
      </trkpt>
      <trkpt lat="42.225228" lon="8.979192">
        <ele>1575.2</ele>
        <time>2022-09-11T16:28:17Z</time>
      </trkpt>
      <trkpt lat="42.225138" lon="8.97917">
        <ele>1575.8</ele>
        <time>2022-09-11T16:28:28Z</time>
      </trkpt>
      <trkpt lat="42.22508" lon="8.979172">
        <ele>1576.0</ele>
        <time>2022-09-11T16:28:35Z</time>
      </trkpt>
      <trkpt lat="42.225" lon="8.979202">
        <ele>1576.2</ele>
        <time>2022-09-11T16:28:48Z</time>
      </trkpt>
      <trkpt lat="42.224992" lon="8.979213">
        <ele>1576.4</ele>
        <time>2022-09-11T16:28:52Z</time>
      </trkpt>
      <trkpt lat="42.224922" lon="8.979213">
        <ele>1577.0</ele>
        <time>2022-09-11T16:29:01Z</time>
      </trkpt>
      <trkpt lat="42.224863" lon="8.979208">
        <ele>1577.8</ele>
        <time>2022-09-11T16:29:10Z</time>
      </trkpt>
      <trkpt lat="42.224845" lon="8.97922">
        <ele>1578.2</ele>
        <time>2022-09-11T16:29:13Z</time>
      </trkpt>
      <trkpt lat="42.224718" lon="8.979293">
        <ele>1579.0</ele>
        <time>2022-09-11T16:29:32Z</time>
      </trkpt>
      <trkpt lat="42.224642" lon="8.979343">
        <ele>1579.4</ele>
        <time>2022-09-11T16:29:41Z</time>
      </trkpt>
      <trkpt lat="42.224627" lon="8.979353">
        <ele>1579.4</ele>
        <time>2022-09-11T16:29:43Z</time>
      </trkpt>
      <trkpt lat="42.224537" lon="8.979412">
        <ele>1579.4</ele>
        <time>2022-09-11T16:29:55Z</time>
      </trkpt>
      <trkpt lat="42.2245" lon="8.979393">
        <ele>1579.6</ele>
        <time>2022-09-11T16:29:59Z</time>
      </trkpt>
      <trkpt lat="42.224477" lon="8.97941">
        <ele>1579.6</ele>
        <time>2022-09-11T16:30:02Z</time>
      </trkpt>
      <trkpt lat="42.2244" lon="8.979472">
        <ele>1579.6</ele>
        <time>2022-09-11T16:30:12Z</time>
      </trkpt>
      <trkpt lat="42.224357" lon="8.979452">
        <ele>1580.2</ele>
        <time>2022-09-11T16:30:18Z</time>
      </trkpt>
      <trkpt lat="42.224343" lon="8.979438">
        <ele>1580.4</ele>
        <time>2022-09-11T16:30:21Z</time>
      </trkpt>
      <trkpt lat="42.22433" lon="8.979425">
        <ele>1580.4</ele>
        <time>2022-09-11T16:30:23Z</time>
      </trkpt>
      <trkpt lat="42.224257" lon="8.979455">
        <ele>1581.2</ele>
        <time>2022-09-11T16:30:46Z</time>
      </trkpt>
      <trkpt lat="42.224115" lon="8.979553">
        <ele>1581.4</ele>
        <time>2022-09-11T16:30:58Z</time>
      </trkpt>
      <trkpt lat="42.224047" lon="8.979635">
        <ele>1581.4</ele>
        <time>2022-09-11T16:31:08Z</time>
      </trkpt>
      <trkpt lat="42.223948" lon="8.979767">
        <ele>1581.4</ele>
        <time>2022-09-11T16:31:26Z</time>
      </trkpt>
      <trkpt lat="42.223895" lon="8.979823">
        <ele>1582.0</ele>
        <time>2022-09-11T16:31:35Z</time>
      </trkpt>
      <trkpt lat="42.223882" lon="8.979807">
        <ele>1582.0</ele>
        <time>2022-09-11T16:31:38Z</time>
      </trkpt>
      <trkpt lat="42.22386" lon="8.979738">
        <ele>1583.0</ele>
        <time>2022-09-11T16:31:47Z</time>
      </trkpt>
      <trkpt lat="42.223848" lon="8.979718">
        <ele>1583.0</ele>
        <time>2022-09-11T16:31:50Z</time>
      </trkpt>
      <trkpt lat="42.223795" lon="8.979672">
        <ele>1581.8</ele>
        <time>2022-09-11T16:32:09Z</time>
      </trkpt>
      <trkpt lat="42.223792" lon="8.97967">
        <ele>1581.6</ele>
        <time>2022-09-11T16:32:10Z</time>
      </trkpt>
      <trkpt lat="42.223772" lon="8.979672">
        <ele>1581.4</ele>
        <time>2022-09-11T16:32:14Z</time>
      </trkpt>
      <trkpt lat="42.223722" lon="8.979672">
        <ele>1580.0</ele>
        <time>2022-09-11T16:32:22Z</time>
      </trkpt>
      <trkpt lat="42.223523" lon="8.979732">
        <ele>1578.6</ele>
        <time>2022-09-11T16:32:48Z</time>
      </trkpt>
      <trkpt lat="42.223457" lon="8.979725">
        <ele>1578.4</ele>
        <time>2022-09-11T16:32:57Z</time>
      </trkpt>
      <trkpt lat="42.223328" lon="8.97971">
        <ele>1577.4</ele>
        <time>2022-09-11T16:33:10Z</time>
      </trkpt>
      <trkpt lat="42.223245" lon="8.97972">
        <ele>1577.6</ele>
        <time>2022-09-11T16:33:18Z</time>
      </trkpt>
      <trkpt lat="42.223225" lon="8.979707">
        <ele>1578.0</ele>
        <time>2022-09-11T16:33:20Z</time>
      </trkpt>
      <trkpt lat="42.223203" lon="8.979695">
        <ele>1578.2</ele>
        <time>2022-09-11T16:33:22Z</time>
      </trkpt>
      <trkpt lat="42.222968" lon="8.979673">
        <ele>1580.0</ele>
        <time>2022-09-11T16:33:44Z</time>
      </trkpt>
      <trkpt lat="42.22295" lon="8.979665">
        <ele>1580.0</ele>
        <time>2022-09-11T16:33:47Z</time>
      </trkpt>
      <trkpt lat="42.222855" lon="8.979635">
        <ele>1579.4</ele>
        <time>2022-09-11T16:34:01Z</time>
      </trkpt>
      <trkpt lat="42.222733" lon="8.979585">
        <ele>1576.8</ele>
        <time>2022-09-11T16:34:18Z</time>
      </trkpt>
      <trkpt lat="42.222672" lon="8.97958">
        <ele>1576.0</ele>
        <time>2022-09-11T16:34:26Z</time>
      </trkpt>
      <trkpt lat="42.222617" lon="8.97956">
        <ele>1575.2</ele>
        <time>2022-09-11T16:34:34Z</time>
      </trkpt>
      <trkpt lat="42.222602" lon="8.979553">
        <ele>1575.2</ele>
        <time>2022-09-11T16:34:36Z</time>
      </trkpt>
      <trkpt lat="42.222587" lon="8.97955">
        <ele>1575.0</ele>
        <time>2022-09-11T16:34:38Z</time>
      </trkpt>
      <trkpt lat="42.222552" lon="8.979607">
        <ele>1574.8</ele>
        <time>2022-09-11T16:34:45Z</time>
      </trkpt>
      <trkpt lat="42.222493" lon="8.979703">
        <ele>1575.0</ele>
        <time>2022-09-11T16:34:57Z</time>
      </trkpt>
      <trkpt lat="42.222482" lon="8.979713">
        <ele>1575.2</ele>
        <time>2022-09-11T16:35:00Z</time>
      </trkpt>
      <trkpt lat="42.222465" lon="8.97973">
        <ele>1575.2</ele>
        <time>2022-09-11T16:35:03Z</time>
      </trkpt>
      <trkpt lat="42.222457" lon="8.979745">
        <ele>1575.4</ele>
        <time>2022-09-11T16:35:05Z</time>
      </trkpt>
      <trkpt lat="42.222443" lon="8.979768">
        <ele>1575.8</ele>
        <time>2022-09-11T16:35:08Z</time>
      </trkpt>
      <trkpt lat="42.222393" lon="8.979802">
        <ele>1576.6</ele>
        <time>2022-09-11T16:35:17Z</time>
      </trkpt>
      <trkpt lat="42.222367" lon="8.979827">
        <ele>1576.2</ele>
        <time>2022-09-11T16:35:22Z</time>
      </trkpt>
      <trkpt lat="42.222348" lon="8.979818">
        <ele>1576.2</ele>
        <time>2022-09-11T16:35:25Z</time>
      </trkpt>
      <trkpt lat="42.222303" lon="8.979785">
        <ele>1576.2</ele>
        <time>2022-09-11T16:35:33Z</time>
      </trkpt>
      <trkpt lat="42.222297" lon="8.979787">
        <ele>1576.2</ele>
        <time>2022-09-11T16:35:34Z</time>
      </trkpt>
      <trkpt lat="42.222267" lon="8.979762">
        <ele>1576.2</ele>
        <time>2022-09-11T16:35:38Z</time>
      </trkpt>
      <trkpt lat="42.222172" lon="8.97971">
        <ele>1575.4</ele>
        <time>2022-09-11T16:35:51Z</time>
      </trkpt>
      <trkpt lat="42.222128" lon="8.979693">
        <ele>1575.2</ele>
        <time>2022-09-11T16:35:56Z</time>
      </trkpt>
      <trkpt lat="42.222095" lon="8.979702">
        <ele>1575.2</ele>
        <time>2022-09-11T16:36:00Z</time>
      </trkpt>
      <trkpt lat="42.22194" lon="8.979808">
        <ele>1576.2</ele>
        <time>2022-09-11T16:36:20Z</time>
      </trkpt>
      <trkpt lat="42.22186" lon="8.979778">
        <ele>1576.4</ele>
        <time>2022-09-11T16:36:30Z</time>
      </trkpt>
      <trkpt lat="42.22185" lon="8.979787">
        <ele>1576.4</ele>
        <time>2022-09-11T16:36:33Z</time>
      </trkpt>
      <trkpt lat="42.221842" lon="8.979798">
        <ele>1576.4</ele>
        <time>2022-09-11T16:36:35Z</time>
      </trkpt>
      <trkpt lat="42.221813" lon="8.979837">
        <ele>1577.4</ele>
        <time>2022-09-11T16:36:43Z</time>
      </trkpt>
      <trkpt lat="42.221777" lon="8.979833">
        <ele>1578.0</ele>
        <time>2022-09-11T16:36:50Z</time>
      </trkpt>
      <trkpt lat="42.221757" lon="8.979842">
        <ele>1578.0</ele>
        <time>2022-09-11T16:36:55Z</time>
      </trkpt>
      <trkpt lat="42.221728" lon="8.97985">
        <ele>1578.2</ele>
        <time>2022-09-11T16:37:03Z</time>
      </trkpt>
      <trkpt lat="42.221693" lon="8.979868">
        <ele>1578.6</ele>
        <time>2022-09-11T16:37:13Z</time>
      </trkpt>
      <trkpt lat="42.221627" lon="8.97989">
        <ele>1579.0</ele>
        <time>2022-09-11T16:37:24Z</time>
      </trkpt>
      <trkpt lat="42.221603" lon="8.979898">
        <ele>1579.2</ele>
        <time>2022-09-11T16:37:28Z</time>
      </trkpt>
      <trkpt lat="42.221465" lon="8.979928">
        <ele>1580.0</ele>
        <time>2022-09-11T16:37:51Z</time>
      </trkpt>
      <trkpt lat="42.22145" lon="8.979943">
        <ele>1579.4</ele>
        <time>2022-09-11T16:37:55Z</time>
      </trkpt>
      <trkpt lat="42.221433" lon="8.979958">
        <ele>1579.0</ele>
        <time>2022-09-11T16:37:58Z</time>
      </trkpt>
      <trkpt lat="42.221417" lon="8.979973">
        <ele>1579.0</ele>
        <time>2022-09-11T16:38:01Z</time>
      </trkpt>
      <trkpt lat="42.22136" lon="8.980025">
        <ele>1578.8</ele>
        <time>2022-09-11T16:38:10Z</time>
      </trkpt>
      <trkpt lat="42.22132" lon="8.98007">
        <ele>1578.2</ele>
        <time>2022-09-11T16:38:17Z</time>
      </trkpt>
      <trkpt lat="42.221287" lon="8.980083">
        <ele>1578.0</ele>
        <time>2022-09-11T16:38:22Z</time>
      </trkpt>
      <trkpt lat="42.221177" lon="8.980102">
        <ele>1578.2</ele>
        <time>2022-09-11T16:38:34Z</time>
      </trkpt>
      <trkpt lat="42.221143" lon="8.980115">
        <ele>1578.6</ele>
        <time>2022-09-11T16:38:38Z</time>
      </trkpt>
      <trkpt lat="42.221077" lon="8.980158">
        <ele>1579.2</ele>
        <time>2022-09-11T16:38:46Z</time>
      </trkpt>
      <trkpt lat="42.221068" lon="8.98016">
        <ele>1579.2</ele>
        <time>2022-09-11T16:38:47Z</time>
      </trkpt>
      <trkpt lat="42.220977" lon="8.980198">
        <ele>1580.6</ele>
        <time>2022-09-11T16:39:00Z</time>
      </trkpt>
      <trkpt lat="42.220953" lon="8.980215">
        <ele>1581.0</ele>
        <time>2022-09-11T16:39:04Z</time>
      </trkpt>
      <trkpt lat="42.220893" lon="8.980265">
        <ele>1581.6</ele>
        <time>2022-09-11T16:39:16Z</time>
      </trkpt>
      <trkpt lat="42.220843" lon="8.980285">
        <ele>1581.6</ele>
        <time>2022-09-11T16:39:25Z</time>
      </trkpt>
      <trkpt lat="42.220748" lon="8.980298">
        <ele>1580.4</ele>
        <time>2022-09-11T16:39:39Z</time>
      </trkpt>
      <trkpt lat="42.22073" lon="8.980307">
        <ele>1579.8</ele>
        <time>2022-09-11T16:39:43Z</time>
      </trkpt>
      <trkpt lat="42.220712" lon="8.980313">
        <ele>1579.6</ele>
        <time>2022-09-11T16:39:46Z</time>
      </trkpt>
      <trkpt lat="42.220695" lon="8.980323">
        <ele>1579.6</ele>
        <time>2022-09-11T16:39:49Z</time>
      </trkpt>
      <trkpt lat="42.22067" lon="8.980342">
        <ele>1579.4</ele>
        <time>2022-09-11T16:39:54Z</time>
      </trkpt>
      <trkpt lat="42.220642" lon="8.980323">
        <ele>1579.4</ele>
        <time>2022-09-11T16:40:00Z</time>
      </trkpt>
      <trkpt lat="42.220647" lon="8.980315">
        <ele>1579.2</ele>
        <time>2022-09-11T16:40:02Z</time>
      </trkpt>
      <trkpt lat="42.220647" lon="8.980287">
        <ele>1579.4</ele>
        <time>2022-09-11T16:40:05Z</time>
      </trkpt>
      <trkpt lat="42.220652" lon="8.980247">
        <ele>1579.6</ele>
        <time>2022-09-11T16:40:09Z</time>
      </trkpt>
      <trkpt lat="42.220643" lon="8.980232">
        <ele>1579.8</ele>
        <time>2022-09-11T16:40:30Z</time>
      </trkpt>
      <trkpt lat="42.220642" lon="8.980233">
        <ele>1579.8</ele>
        <time>2022-09-11T16:40:32Z</time>
      </trkpt>
      <trkpt lat="42.220482" lon="8.98051">
        <ele>1591.0</ele>
        <time>2022-09-11T16:42:12Z</time>
      </trkpt>
      <trkpt lat="42.220472" lon="8.980528">
        <ele>1591.2</ele>
        <time>2022-09-11T16:42:13Z</time>
      </trkpt>
      <trkpt lat="42.220417" lon="8.980693">
        <ele>1591.4</ele>
        <time>2022-09-11T16:42:20Z</time>
      </trkpt>
      <trkpt lat="42.220402" lon="8.980817">
        <ele>1592.2</ele>
        <time>2022-09-11T16:42:24Z</time>
      </trkpt>
      <trkpt lat="42.220383" lon="8.980947">
        <ele>1592.6</ele>
        <time>2022-09-11T16:42:28Z</time>
      </trkpt>
      <trkpt lat="42.220353" lon="8.98097">
        <ele>1593.0</ele>
        <time>2022-09-11T16:42:31Z</time>
      </trkpt>
      <trkpt lat="42.22029" lon="8.980955">
        <ele>1593.6</ele>
        <time>2022-09-11T16:42:35Z</time>
      </trkpt>
      <trkpt lat="42.220242" lon="8.980938">
        <ele>1593.6</ele>
        <time>2022-09-11T16:42:38Z</time>
      </trkpt>
      <trkpt lat="42.220197" lon="8.98092">
        <ele>1593.6</ele>
        <time>2022-09-11T16:42:42Z</time>
      </trkpt>
      <trkpt lat="42.220158" lon="8.980863">
        <ele>1593.6</ele>
        <time>2022-09-11T16:42:47Z</time>
      </trkpt>
      <trkpt lat="42.220122" lon="8.980787">
        <ele>1593.2</ele>
        <time>2022-09-11T16:42:54Z</time>
      </trkpt>
      <trkpt lat="42.220083" lon="8.980705">
        <ele>1593.0</ele>
        <time>2022-09-11T16:43:00Z</time>
      </trkpt>
      <trkpt lat="42.220075" lon="8.980675">
        <ele>1593.0</ele>
        <time>2022-09-11T16:43:02Z</time>
      </trkpt>
      <trkpt lat="42.220048" lon="8.980605">
        <ele>1593.0</ele>
        <time>2022-09-11T16:43:07Z</time>
      </trkpt>
      <trkpt lat="42.22001" lon="8.980575">
        <ele>1593.2</ele>
        <time>2022-09-11T16:43:11Z</time>
      </trkpt>
      <trkpt lat="42.219977" lon="8.980565">
        <ele>1593.4</ele>
        <time>2022-09-11T16:43:14Z</time>
      </trkpt>
      <trkpt lat="42.219962" lon="8.980575">
        <ele>1593.4</ele>
        <time>2022-09-11T16:43:16Z</time>
      </trkpt>
      <trkpt lat="42.219938" lon="8.9806">
        <ele>1593.8</ele>
        <time>2022-09-11T16:43:20Z</time>
      </trkpt>
      <trkpt lat="42.219895" lon="8.980615">
        <ele>1594.6</ele>
        <time>2022-09-11T16:43:26Z</time>
      </trkpt>
      <trkpt lat="42.219868" lon="8.980603">
        <ele>1595.0</ele>
        <time>2022-09-11T16:43:30Z</time>
      </trkpt>
      <trkpt lat="42.21984" lon="8.980565">
        <ele>1595.6</ele>
        <time>2022-09-11T16:43:37Z</time>
      </trkpt>
      <trkpt lat="42.219857" lon="8.980517">
        <ele>1596.4</ele>
        <time>2022-09-11T16:43:43Z</time>
      </trkpt>
      <trkpt lat="42.219857" lon="8.980482">
        <ele>1596.6</ele>
        <time>2022-09-11T16:43:48Z</time>
      </trkpt>
      <trkpt lat="42.219848" lon="8.980465">
        <ele>1596.8</ele>
        <time>2022-09-11T16:43:51Z</time>
      </trkpt>
      <trkpt lat="42.219833" lon="8.980457">
        <ele>1597.4</ele>
        <time>2022-09-11T16:43:55Z</time>
      </trkpt>
      <trkpt lat="42.21982" lon="8.980495">
        <ele>1598.4</ele>
        <time>2022-09-11T16:44:02Z</time>
      </trkpt>
      <trkpt lat="42.219808" lon="8.980535">
        <ele>1599.8</ele>
        <time>2022-09-11T16:44:09Z</time>
      </trkpt>
      <trkpt lat="42.219797" lon="8.980553">
        <ele>1600.2</ele>
        <time>2022-09-11T16:44:13Z</time>
      </trkpt>
      <trkpt lat="42.219762" lon="8.980577">
        <ele>1600.6</ele>
        <time>2022-09-11T16:44:19Z</time>
      </trkpt>
      <trkpt lat="42.21975" lon="8.980712">
        <ele>1605.8</ele>
        <time>2022-09-12T04:34:44Z</time>
      </trkpt>
      <trkpt lat="42.219647" lon="8.98088">
        <ele>1605.8</ele>
        <time>2022-09-12T04:34:58Z</time>
      </trkpt>
      <trkpt lat="42.219465" lon="8.981045">
        <ele>1605.8</ele>
        <time>2022-09-12T04:35:11Z</time>
      </trkpt>
      <trkpt lat="42.219602" lon="8.981035">
        <ele>1606.4</ele>
        <time>2022-09-12T04:35:39Z</time>
      </trkpt>
      <trkpt lat="42.219638" lon="8.98111">
        <ele>1606.2</ele>
        <time>2022-09-12T04:36:08Z</time>
      </trkpt>
      <trkpt lat="42.219643" lon="8.981077">
        <ele>1606.4</ele>
        <time>2022-09-12T04:36:17Z</time>
      </trkpt>
      <trkpt lat="42.21964" lon="8.98113">
        <ele>1606.4</ele>
        <time>2022-09-12T04:36:22Z</time>
      </trkpt>
      <trkpt lat="42.219658" lon="8.981228">
        <ele>1606.2</ele>
        <time>2022-09-12T04:36:34Z</time>
      </trkpt>
      <trkpt lat="42.219638" lon="8.981288">
        <ele>1605.8</ele>
        <time>2022-09-12T04:36:40Z</time>
      </trkpt>
      <trkpt lat="42.219668" lon="8.98134">
        <ele>1605.0</ele>
        <time>2022-09-12T04:36:47Z</time>
      </trkpt>
      <trkpt lat="42.219772" lon="8.98128">
        <ele>1605.0</ele>
        <time>2022-09-12T04:37:03Z</time>
      </trkpt>
      <trkpt lat="42.219858" lon="8.981252">
        <ele>1605.2</ele>
        <time>2022-09-12T04:37:11Z</time>
      </trkpt>
      <trkpt lat="42.219868" lon="8.981293">
        <ele>1604.6</ele>
        <time>2022-09-12T04:37:58Z</time>
      </trkpt>
      <trkpt lat="42.219888" lon="8.981343">
        <ele>1604.6</ele>
        <time>2022-09-12T04:38:17Z</time>
      </trkpt>
      <trkpt lat="42.219915" lon="8.981412">
        <ele>1607.6</ele>
        <time>2022-09-12T04:38:42Z</time>
      </trkpt>
      <trkpt lat="42.219832" lon="8.981508">
        <ele>1607.8</ele>
        <time>2022-09-12T04:38:52Z</time>
      </trkpt>
      <trkpt lat="42.219752" lon="8.981605">
        <ele>1608.0</ele>
        <time>2022-09-12T04:38:59Z</time>
      </trkpt>
      <trkpt lat="42.219737" lon="8.981615">
        <ele>1608.0</ele>
        <time>2022-09-12T04:39:00Z</time>
      </trkpt>
      <trkpt lat="42.219687" lon="8.981655">
        <ele>1608.8</ele>
        <time>2022-09-12T04:39:05Z</time>
      </trkpt>
      <trkpt lat="42.219578" lon="8.981713">
        <ele>1608.6</ele>
        <time>2022-09-12T04:39:16Z</time>
      </trkpt>
      <trkpt lat="42.21951" lon="8.981763">
        <ele>1608.0</ele>
        <time>2022-09-12T04:39:25Z</time>
      </trkpt>
      <trkpt lat="42.219473" lon="8.981833">
        <ele>1608.2</ele>
        <time>2022-09-12T04:39:31Z</time>
      </trkpt>
      <trkpt lat="42.219398" lon="8.981855">
        <ele>1609.4</ele>
        <time>2022-09-12T04:39:39Z</time>
      </trkpt>
      <trkpt lat="42.21937" lon="8.981853">
        <ele>1609.6</ele>
        <time>2022-09-12T04:39:42Z</time>
      </trkpt>
      <trkpt lat="42.21934" lon="8.981902">
        <ele>1610.0</ele>
        <time>2022-09-12T04:39:48Z</time>
      </trkpt>
      <trkpt lat="42.219228" lon="8.982038">
        <ele>1610.8</ele>
        <time>2022-09-12T04:40:05Z</time>
      </trkpt>
      <trkpt lat="42.219195" lon="8.982078">
        <ele>1611.0</ele>
        <time>2022-09-12T04:40:10Z</time>
      </trkpt>
      <trkpt lat="42.219125" lon="8.982128">
        <ele>1611.2</ele>
        <time>2022-09-12T04:40:19Z</time>
      </trkpt>
      <trkpt lat="42.21906" lon="8.98219">
        <ele>1612.0</ele>
        <time>2022-09-12T04:40:29Z</time>
      </trkpt>
      <trkpt lat="42.219052" lon="8.982195">
        <ele>1612.0</ele>
        <time>2022-09-12T04:40:30Z</time>
      </trkpt>
      <trkpt lat="42.219007" lon="8.982205">
        <ele>1613.8</ele>
        <time>2022-09-12T04:40:41Z</time>
      </trkpt>
      <trkpt lat="42.218905" lon="8.982183">
        <ele>1615.0</ele>
        <time>2022-09-12T04:41:00Z</time>
      </trkpt>
      <trkpt lat="42.2189" lon="8.982187">
        <ele>1615.4</ele>
        <time>2022-09-12T04:41:01Z</time>
      </trkpt>
      <trkpt lat="42.218857" lon="8.982162">
        <ele>1616.4</ele>
        <time>2022-09-12T04:41:09Z</time>
      </trkpt>
      <trkpt lat="42.218813" lon="8.98212">
        <ele>1617.4</ele>
        <time>2022-09-12T04:41:18Z</time>
      </trkpt>
      <trkpt lat="42.218777" lon="8.982117">
        <ele>1618.6</ele>
        <time>2022-09-12T04:41:27Z</time>
      </trkpt>
      <trkpt lat="42.2187" lon="8.98209">
        <ele>1620.2</ele>
        <time>2022-09-12T04:41:43Z</time>
      </trkpt>
      <trkpt lat="42.21866" lon="8.982122">
        <ele>1621.0</ele>
        <time>2022-09-12T04:41:51Z</time>
      </trkpt>
      <trkpt lat="42.218615" lon="8.982088">
        <ele>1622.8</ele>
        <time>2022-09-12T04:42:01Z</time>
      </trkpt>
      <trkpt lat="42.21861" lon="8.982088">
        <ele>1623.0</ele>
        <time>2022-09-12T04:42:02Z</time>
      </trkpt>
      <trkpt lat="42.218588" lon="8.982143">
        <ele>1624.0</ele>
        <time>2022-09-12T04:42:08Z</time>
      </trkpt>
      <trkpt lat="42.218495" lon="8.982262">
        <ele>1625.6</ele>
        <time>2022-09-12T04:42:22Z</time>
      </trkpt>
      <trkpt lat="42.218457" lon="8.9823">
        <ele>1626.4</ele>
        <time>2022-09-12T04:42:27Z</time>
      </trkpt>
      <trkpt lat="42.218417" lon="8.982402">
        <ele>1627.4</ele>
        <time>2022-09-12T04:42:35Z</time>
      </trkpt>
      <trkpt lat="42.218385" lon="8.982503">
        <ele>1628.6</ele>
        <time>2022-09-12T04:42:43Z</time>
      </trkpt>
      <trkpt lat="42.218385" lon="8.982548">
        <ele>1629.2</ele>
        <time>2022-09-12T04:42:48Z</time>
      </trkpt>
      <trkpt lat="42.218345" lon="8.982613">
        <ele>1630.0</ele>
        <time>2022-09-12T04:42:54Z</time>
      </trkpt>
      <trkpt lat="42.218297" lon="8.982657">
        <ele>1630.4</ele>
        <time>2022-09-12T04:43:00Z</time>
      </trkpt>
      <trkpt lat="42.218237" lon="8.98268">
        <ele>1631.2</ele>
        <time>2022-09-12T04:43:07Z</time>
      </trkpt>
      <trkpt lat="42.218162" lon="8.982727">
        <ele>1632.4</ele>
        <time>2022-09-12T04:43:16Z</time>
      </trkpt>
      <trkpt lat="42.21811" lon="8.982752">
        <ele>1633.4</ele>
        <time>2022-09-12T04:43:23Z</time>
      </trkpt>
      <trkpt lat="42.218063" lon="8.982803">
        <ele>1633.6</ele>
        <time>2022-09-12T04:43:29Z</time>
      </trkpt>
      <trkpt lat="42.217923" lon="8.982792">
        <ele>1634.8</ele>
        <time>2022-09-12T04:43:44Z</time>
      </trkpt>
      <trkpt lat="42.217817" lon="8.982772">
        <ele>1635.2</ele>
        <time>2022-09-12T04:43:55Z</time>
      </trkpt>
      <trkpt lat="42.21777" lon="8.982787">
        <ele>1635.2</ele>
        <time>2022-09-12T04:44:00Z</time>
      </trkpt>
      <trkpt lat="42.217728" lon="8.982825">
        <ele>1635.2</ele>
        <time>2022-09-12T04:44:05Z</time>
      </trkpt>
      <trkpt lat="42.217718" lon="8.982815">
        <ele>1635.2</ele>
        <time>2022-09-12T04:44:06Z</time>
      </trkpt>
      <trkpt lat="42.217637" lon="8.982828">
        <ele>1636.0</ele>
        <time>2022-09-12T04:44:15Z</time>
      </trkpt>
      <trkpt lat="42.217463" lon="8.982905">
        <ele>1638.2</ele>
        <time>2022-09-12T04:44:35Z</time>
      </trkpt>
      <trkpt lat="42.217413" lon="8.982947">
        <ele>1639.2</ele>
        <time>2022-09-12T04:44:41Z</time>
      </trkpt>
      <trkpt lat="42.2174" lon="8.982963">
        <ele>1639.8</ele>
        <time>2022-09-12T04:44:45Z</time>
      </trkpt>
      <trkpt lat="42.217362" lon="8.982997">
        <ele>1640.6</ele>
        <time>2022-09-12T04:44:51Z</time>
      </trkpt>
      <trkpt lat="42.2173" lon="8.983035">
        <ele>1641.4</ele>
        <time>2022-09-12T04:45:01Z</time>
      </trkpt>
      <trkpt lat="42.217275" lon="8.983058">
        <ele>1641.8</ele>
        <time>2022-09-12T04:45:06Z</time>
      </trkpt>
      <trkpt lat="42.217213" lon="8.983072">
        <ele>1641.6</ele>
        <time>2022-09-12T04:45:17Z</time>
      </trkpt>
      <trkpt lat="42.217172" lon="8.983105">
        <ele>1642.4</ele>
        <time>2022-09-12T04:45:27Z</time>
      </trkpt>
      <trkpt lat="42.217153" lon="8.983113">
        <ele>1643.8</ele>
        <time>2022-09-12T04:45:37Z</time>
      </trkpt>
      <trkpt lat="42.217118" lon="8.983167">
        <ele>1645.2</ele>
        <time>2022-09-12T04:45:51Z</time>
      </trkpt>
      <trkpt lat="42.217073" lon="8.983213">
        <ele>1644.4</ele>
        <time>2022-09-12T04:46:02Z</time>
      </trkpt>
      <trkpt lat="42.217042" lon="8.98328">
        <ele>1645.2</ele>
        <time>2022-09-12T04:46:12Z</time>
      </trkpt>
      <trkpt lat="42.217062" lon="8.983317">
        <ele>1646.4</ele>
        <time>2022-09-12T04:46:19Z</time>
      </trkpt>
      <trkpt lat="42.217078" lon="8.983343">
        <ele>1647.4</ele>
        <time>2022-09-12T04:46:25Z</time>
      </trkpt>
      <trkpt lat="42.217075" lon="8.983318">
        <ele>1648.0</ele>
        <time>2022-09-12T04:46:30Z</time>
      </trkpt>
      <trkpt lat="42.217055" lon="8.983302">
        <ele>1649.0</ele>
        <time>2022-09-12T04:46:37Z</time>
      </trkpt>
      <trkpt lat="42.217033" lon="8.983317">
        <ele>1649.6</ele>
        <time>2022-09-12T04:46:44Z</time>
      </trkpt>
      <trkpt lat="42.216983" lon="8.983293">
        <ele>1650.2</ele>
        <time>2022-09-12T04:47:03Z</time>
      </trkpt>
      <trkpt lat="42.21698" lon="8.983338">
        <ele>1650.2</ele>
        <time>2022-09-12T04:47:18Z</time>
      </trkpt>
      <trkpt lat="42.21693" lon="8.983388">
        <ele>1650.4</ele>
        <time>2022-09-12T04:47:46Z</time>
      </trkpt>
      <trkpt lat="42.21688" lon="8.983365">
        <ele>1650.2</ele>
        <time>2022-09-12T04:48:02Z</time>
      </trkpt>
      <trkpt lat="42.216865" lon="8.98339">
        <ele>1650.4</ele>
        <time>2022-09-12T04:48:08Z</time>
      </trkpt>
      <trkpt lat="42.216842" lon="8.98343">
        <ele>1650.4</ele>
        <time>2022-09-12T04:48:16Z</time>
      </trkpt>
      <trkpt lat="42.216823" lon="8.98346">
        <ele>1650.4</ele>
        <time>2022-09-12T04:48:20Z</time>
      </trkpt>
      <trkpt lat="42.21681" lon="8.98351">
        <ele>1650.2</ele>
        <time>2022-09-12T04:48:32Z</time>
      </trkpt>
      <trkpt lat="42.216793" lon="8.983525">
        <ele>1649.8</ele>
        <time>2022-09-12T04:48:46Z</time>
      </trkpt>
      <trkpt lat="42.216792" lon="8.983527">
        <ele>1649.8</ele>
        <time>2022-09-12T04:48:47Z</time>
      </trkpt>
      <trkpt lat="42.216805" lon="8.983467">
        <ele>1649.6</ele>
        <time>2022-09-12T04:48:58Z</time>
      </trkpt>
      <trkpt lat="42.216832" lon="8.983433">
        <ele>1649.6</ele>
        <time>2022-09-12T04:49:05Z</time>
      </trkpt>
      <trkpt lat="42.216907" lon="8.983397">
        <ele>1649.2</ele>
        <time>2022-09-12T04:49:41Z</time>
      </trkpt>
      <trkpt lat="42.217033" lon="8.983367">
        <ele>1648.6</ele>
        <time>2022-09-12T04:50:17Z</time>
      </trkpt>
      <trkpt lat="42.217115" lon="8.983368">
        <ele>1648.2</ele>
        <time>2022-09-12T04:50:48Z</time>
      </trkpt>
      <trkpt lat="42.217608" lon="8.983353">
        <ele>1649.4</ele>
        <time>2022-09-12T04:53:59Z</time>
      </trkpt>
      <trkpt lat="42.217458" lon="8.983313">
        <ele>1648.0</ele>
        <time>2022-09-12T04:54:12Z</time>
      </trkpt>
      <trkpt lat="42.217042" lon="8.983367">
        <ele>1645.6</ele>
        <time>2022-09-12T04:54:31Z</time>
      </trkpt>
      <trkpt lat="42.216938" lon="8.983373">
        <ele>1645.0</ele>
        <time>2022-09-12T04:54:36Z</time>
      </trkpt>
      <trkpt lat="42.216878" lon="8.983387">
        <ele>1645.0</ele>
        <time>2022-09-12T04:54:39Z</time>
      </trkpt>
      <trkpt lat="42.216777" lon="8.983453">
        <ele>1646.2</ele>
        <time>2022-09-12T04:54:52Z</time>
      </trkpt>
      <trkpt lat="42.216728" lon="8.983515">
        <ele>1646.4</ele>
        <time>2022-09-12T04:54:58Z</time>
      </trkpt>
      <trkpt lat="42.216675" lon="8.983563">
        <ele>1646.4</ele>
        <time>2022-09-12T04:55:04Z</time>
      </trkpt>
      <trkpt lat="42.21664" lon="8.983577">
        <ele>1646.6</ele>
        <time>2022-09-12T04:55:08Z</time>
      </trkpt>
      <trkpt lat="42.216582" lon="8.983585">
        <ele>1647.4</ele>
        <time>2022-09-12T04:55:19Z</time>
      </trkpt>
      <trkpt lat="42.21653" lon="8.983602">
        <ele>1648.2</ele>
        <time>2022-09-12T04:55:27Z</time>
      </trkpt>
      <trkpt lat="42.216423" lon="8.983675">
        <ele>1648.6</ele>
        <time>2022-09-12T04:55:40Z</time>
      </trkpt>
      <trkpt lat="42.216373" lon="8.983673">
        <ele>1648.6</ele>
        <time>2022-09-12T04:55:46Z</time>
      </trkpt>
      <trkpt lat="42.216332" lon="8.983675">
        <ele>1649.4</ele>
        <time>2022-09-12T04:55:51Z</time>
      </trkpt>
      <trkpt lat="42.216317" lon="8.98368">
        <ele>1649.4</ele>
        <time>2022-09-12T04:55:53Z</time>
      </trkpt>
      <trkpt lat="42.2162" lon="8.983622">
        <ele>1650.8</ele>
        <time>2022-09-12T04:56:11Z</time>
      </trkpt>
      <trkpt lat="42.216157" lon="8.983643">
        <ele>1651.6</ele>
        <time>2022-09-12T04:56:17Z</time>
      </trkpt>
      <trkpt lat="42.216127" lon="8.983673">
        <ele>1652.2</ele>
        <time>2022-09-12T04:56:22Z</time>
      </trkpt>
      <trkpt lat="42.21609" lon="8.983713">
        <ele>1652.8</ele>
        <time>2022-09-12T04:56:28Z</time>
      </trkpt>
      <trkpt lat="42.21606" lon="8.983725">
        <ele>1653.2</ele>
        <time>2022-09-12T04:56:32Z</time>
      </trkpt>
      <trkpt lat="42.215978" lon="8.983682">
        <ele>1654.2</ele>
        <time>2022-09-12T04:56:46Z</time>
      </trkpt>
      <trkpt lat="42.2159" lon="8.983728">
        <ele>1655.6</ele>
        <time>2022-09-12T04:56:58Z</time>
      </trkpt>
      <trkpt lat="42.21585" lon="8.983755">
        <ele>1656.6</ele>
        <time>2022-09-12T04:57:06Z</time>
      </trkpt>
      <trkpt lat="42.215845" lon="8.98376">
        <ele>1656.6</ele>
        <time>2022-09-12T04:57:07Z</time>
      </trkpt>
      <trkpt lat="42.215838" lon="8.983802">
        <ele>1657.4</ele>
        <time>2022-09-12T04:57:15Z</time>
      </trkpt>
      <trkpt lat="42.215845" lon="8.983887">
        <ele>1659.6</ele>
        <time>2022-09-12T04:57:30Z</time>
      </trkpt>
      <trkpt lat="42.215842" lon="8.983908">
        <ele>1660.0</ele>
        <time>2022-09-12T04:57:34Z</time>
      </trkpt>
      <trkpt lat="42.215873" lon="8.983917">
        <ele>1661.0</ele>
        <time>2022-09-12T04:57:39Z</time>
      </trkpt>
      <trkpt lat="42.215907" lon="8.983933">
        <ele>1661.6</ele>
        <time>2022-09-12T04:57:44Z</time>
      </trkpt>
      <trkpt lat="42.215928" lon="8.984018">
        <ele>1662.8</ele>
        <time>2022-09-12T04:57:51Z</time>
      </trkpt>
      <trkpt lat="42.216007" lon="8.98412">
        <ele>1665.4</ele>
        <time>2022-09-12T04:58:04Z</time>
      </trkpt>
      <trkpt lat="42.216013" lon="8.984155">
        <ele>1665.8</ele>
        <time>2022-09-12T04:58:07Z</time>
      </trkpt>
      <trkpt lat="42.21588" lon="8.984083">
        <ele>1669.4</ele>
        <time>2022-09-12T04:58:29Z</time>
      </trkpt>
      <trkpt lat="42.215822" lon="8.984093">
        <ele>1670.8</ele>
        <time>2022-09-12T04:58:37Z</time>
      </trkpt>
      <trkpt lat="42.215698" lon="8.984105">
        <ele>1673.0</ele>
        <time>2022-09-12T04:58:55Z</time>
      </trkpt>
      <trkpt lat="42.215645" lon="8.984117">
        <ele>1674.8</ele>
        <time>2022-09-12T04:59:07Z</time>
      </trkpt>
      <trkpt lat="42.215468" lon="8.98409">
        <ele>1677.8</ele>
        <time>2022-09-12T04:59:22Z</time>
      </trkpt>
      <trkpt lat="42.215455" lon="8.984085">
        <ele>1678.0</ele>
        <time>2022-09-12T04:59:23Z</time>
      </trkpt>
      <trkpt lat="42.215435" lon="8.984062">
        <ele>1678.2</ele>
        <time>2022-09-12T04:59:28Z</time>
      </trkpt>
      <trkpt lat="42.215413" lon="8.98403">
        <ele>1678.4</ele>
        <time>2022-09-12T04:59:34Z</time>
      </trkpt>
      <trkpt lat="42.215383" lon="8.98403">
        <ele>1678.2</ele>
        <time>2022-09-12T04:59:40Z</time>
      </trkpt>
      <trkpt lat="42.215255" lon="8.984115">
        <ele>1683.6</ele>
        <time>2022-09-12T05:00:15Z</time>
      </trkpt>
      <trkpt lat="42.21525" lon="8.984153">
        <ele>1684.4</ele>
        <time>2022-09-12T05:00:23Z</time>
      </trkpt>
      <trkpt lat="42.215227" lon="8.984195">
        <ele>1685.6</ele>
        <time>2022-09-12T05:00:33Z</time>
      </trkpt>
      <trkpt lat="42.21522" lon="8.984195">
        <ele>1686.2</ele>
        <time>2022-09-12T05:00:36Z</time>
      </trkpt>
      <trkpt lat="42.215193" lon="8.984203">
        <ele>1687.8</ele>
        <time>2022-09-12T05:00:47Z</time>
      </trkpt>
      <trkpt lat="42.21518" lon="8.984225">
        <ele>1688.4</ele>
        <time>2022-09-12T05:00:51Z</time>
      </trkpt>
      <trkpt lat="42.215153" lon="8.984228">
        <ele>1689.2</ele>
        <time>2022-09-12T05:00:59Z</time>
      </trkpt>
      <trkpt lat="42.21514" lon="8.984258">
        <ele>1689.8</ele>
        <time>2022-09-12T05:01:05Z</time>
      </trkpt>
      <trkpt lat="42.215017" lon="8.98412">
        <ele>1693.8</ele>
        <time>2022-09-12T05:01:30Z</time>
      </trkpt>
      <trkpt lat="42.214985" lon="8.98419">
        <ele>1696.0</ele>
        <time>2022-09-12T05:01:44Z</time>
      </trkpt>
      <trkpt lat="42.214955" lon="8.984157">
        <ele>1697.0</ele>
        <time>2022-09-12T05:01:52Z</time>
      </trkpt>
      <trkpt lat="42.214947" lon="8.98417">
        <ele>1697.2</ele>
        <time>2022-09-12T05:01:55Z</time>
      </trkpt>
      <trkpt lat="42.214935" lon="8.98408">
        <ele>1700.8</ele>
        <time>2022-09-12T05:02:21Z</time>
      </trkpt>
      <trkpt lat="42.21493" lon="8.98404">
        <ele>1702.0</ele>
        <time>2022-09-12T05:02:28Z</time>
      </trkpt>
      <trkpt lat="42.214937" lon="8.984033">
        <ele>1702.4</ele>
        <time>2022-09-12T05:02:30Z</time>
      </trkpt>
      <trkpt lat="42.214922" lon="8.984045">
        <ele>1703.0</ele>
        <time>2022-09-12T05:02:35Z</time>
      </trkpt>
      <trkpt lat="42.214905" lon="8.984155">
        <ele>1704.8</ele>
        <time>2022-09-12T05:02:47Z</time>
      </trkpt>
      <trkpt lat="42.214875" lon="8.984197">
        <ele>1705.4</ele>
        <time>2022-09-12T05:02:51Z</time>
      </trkpt>
      <trkpt lat="42.214735" lon="8.984337">
        <ele>1707.6</ele>
        <time>2022-09-12T05:03:08Z</time>
      </trkpt>
      <trkpt lat="42.214727" lon="8.98434">
        <ele>1707.8</ele>
        <time>2022-09-12T05:03:10Z</time>
      </trkpt>
      <trkpt lat="42.214675" lon="8.984312">
        <ele>1708.8</ele>
        <time>2022-09-12T05:03:15Z</time>
      </trkpt>
      <trkpt lat="42.214643" lon="8.984277">
        <ele>1709.0</ele>
        <time>2022-09-12T05:03:19Z</time>
      </trkpt>
      <trkpt lat="42.214602" lon="8.984217">
        <ele>1708.6</ele>
        <time>2022-09-12T05:03:25Z</time>
      </trkpt>
      <trkpt lat="42.214558" lon="8.984202">
        <ele>1708.8</ele>
        <time>2022-09-12T05:03:29Z</time>
      </trkpt>
      <trkpt lat="42.214503" lon="8.984215">
        <ele>1709.6</ele>
        <time>2022-09-12T05:03:35Z</time>
      </trkpt>
      <trkpt lat="42.214457" lon="8.984223">
        <ele>1710.2</ele>
        <time>2022-09-12T05:03:39Z</time>
      </trkpt>
      <trkpt lat="42.214445" lon="8.984223">
        <ele>1710.2</ele>
        <time>2022-09-12T05:03:40Z</time>
      </trkpt>
      <trkpt lat="42.214468" lon="8.984253">
        <ele>1710.8</ele>
        <time>2022-09-12T05:03:44Z</time>
      </trkpt>
      <trkpt lat="42.214518" lon="8.984287">
        <ele>1714.8</ele>
        <time>2022-09-12T05:04:07Z</time>
      </trkpt>
      <trkpt lat="42.214563" lon="8.984313">
        <ele>1715.2</ele>
        <time>2022-09-12T05:04:18Z</time>
      </trkpt>
      <trkpt lat="42.21455" lon="8.98441">
        <ele>1717.8</ele>
        <time>2022-09-12T05:04:32Z</time>
      </trkpt>
      <trkpt lat="42.214558" lon="8.984423">
        <ele>1718.0</ele>
        <time>2022-09-12T05:04:35Z</time>
      </trkpt>
      <trkpt lat="42.214408" lon="8.984352">
        <ele>1721.4</ele>
        <time>2022-09-12T05:05:04Z</time>
      </trkpt>
      <trkpt lat="42.214332" lon="8.984297">
        <ele>1723.0</ele>
        <time>2022-09-12T05:05:13Z</time>
      </trkpt>
      <trkpt lat="42.214238" lon="8.984258">
        <ele>1724.8</ele>
        <time>2022-09-12T05:05:24Z</time>
      </trkpt>
      <trkpt lat="42.214228" lon="8.98426">
        <ele>1725.0</ele>
        <time>2022-09-12T05:05:25Z</time>
      </trkpt>
      <trkpt lat="42.214212" lon="8.984303">
        <ele>1726.0</ele>
        <time>2022-09-12T05:05:30Z</time>
      </trkpt>
      <trkpt lat="42.214205" lon="8.984345">
        <ele>1726.8</ele>
        <time>2022-09-12T05:05:34Z</time>
      </trkpt>
      <trkpt lat="42.214192" lon="8.98437">
        <ele>1727.4</ele>
        <time>2022-09-12T05:05:37Z</time>
      </trkpt>
      <trkpt lat="42.214167" lon="8.984368">
        <ele>1728.4</ele>
        <time>2022-09-12T05:05:43Z</time>
      </trkpt>
      <trkpt lat="42.214112" lon="8.984318">
        <ele>1730.4</ele>
        <time>2022-09-12T05:06:00Z</time>
      </trkpt>
      <trkpt lat="42.214087" lon="8.984312">
        <ele>1731.6</ele>
        <time>2022-09-12T05:06:05Z</time>
      </trkpt>
      <trkpt lat="42.214062" lon="8.98433">
        <ele>1733.0</ele>
        <time>2022-09-12T05:06:10Z</time>
      </trkpt>
      <trkpt lat="42.214038" lon="8.984388">
        <ele>1734.4</ele>
        <time>2022-09-12T05:06:19Z</time>
      </trkpt>
      <trkpt lat="42.213988" lon="8.98442">
        <ele>1735.6</ele>
        <time>2022-09-12T05:06:29Z</time>
      </trkpt>
      <trkpt lat="42.213967" lon="8.984443">
        <ele>1736.8</ele>
        <time>2022-09-12T05:06:37Z</time>
      </trkpt>
      <trkpt lat="42.213933" lon="8.984452">
        <ele>1738.6</ele>
        <time>2022-09-12T05:06:52Z</time>
      </trkpt>
      <trkpt lat="42.213915" lon="8.984475">
        <ele>1740.0</ele>
        <time>2022-09-12T05:07:06Z</time>
      </trkpt>
      <trkpt lat="42.213905" lon="8.984492">
        <ele>1748.6</ele>
        <time>2022-09-12T05:07:52Z</time>
      </trkpt>
      <trkpt lat="42.213902" lon="8.984493">
        <ele>1748.8</ele>
        <time>2022-09-12T05:07:55Z</time>
      </trkpt>
      <trkpt lat="42.213862" lon="8.984573">
        <ele>1749.6</ele>
        <time>2022-09-12T05:08:04Z</time>
      </trkpt>
      <trkpt lat="42.213833" lon="8.984663">
        <ele>1750.4</ele>
        <time>2022-09-12T05:08:12Z</time>
      </trkpt>
      <trkpt lat="42.213803" lon="8.984655">
        <ele>1751.0</ele>
        <time>2022-09-12T05:08:16Z</time>
      </trkpt>
      <trkpt lat="42.213762" lon="8.984668">
        <ele>1751.0</ele>
        <time>2022-09-12T05:08:21Z</time>
      </trkpt>
      <trkpt lat="42.213713" lon="8.984715">
        <ele>1751.2</ele>
        <time>2022-09-12T05:08:29Z</time>
      </trkpt>
      <trkpt lat="42.213675" lon="8.984785">
        <ele>1752.0</ele>
        <time>2022-09-12T05:08:37Z</time>
      </trkpt>
      <trkpt lat="42.213645" lon="8.984842">
        <ele>1752.6</ele>
        <time>2022-09-12T05:08:43Z</time>
      </trkpt>
      <trkpt lat="42.213638" lon="8.98485">
        <ele>1752.6</ele>
        <time>2022-09-12T05:08:43Z</time>
      </trkpt>
      <trkpt lat="42.213502" lon="8.984858">
        <ele>1754.0</ele>
        <time>2022-09-12T05:09:05Z</time>
      </trkpt>
      <trkpt lat="42.2135" lon="8.984862">
        <ele>1754.6</ele>
        <time>2022-09-12T05:09:08Z</time>
      </trkpt>
      <trkpt lat="42.213492" lon="8.98498">
        <ele>1757.0</ele>
        <time>2022-09-12T05:09:24Z</time>
      </trkpt>
      <trkpt lat="42.213452" lon="8.985057">
        <ele>1757.6</ele>
        <time>2022-09-12T05:09:34Z</time>
      </trkpt>
      <trkpt lat="42.213402" lon="8.98512">
        <ele>1758.2</ele>
        <time>2022-09-12T05:09:43Z</time>
      </trkpt>
      <trkpt lat="42.213373" lon="8.985143">
        <ele>1758.8</ele>
        <time>2022-09-12T05:09:47Z</time>
      </trkpt>
      <trkpt lat="42.213348" lon="8.985115">
        <ele>1760.8</ele>
        <time>2022-09-12T05:10:00Z</time>
      </trkpt>
      <trkpt lat="42.213248" lon="8.985148">
        <ele>1766.2</ele>
        <time>2022-09-12T05:10:33Z</time>
      </trkpt>
      <trkpt lat="42.213247" lon="8.98522">
        <ele>1767.8</ele>
        <time>2022-09-12T05:10:46Z</time>
      </trkpt>
      <trkpt lat="42.213242" lon="8.985223">
        <ele>1768.2</ele>
        <time>2022-09-12T05:10:47Z</time>
      </trkpt>
      <trkpt lat="42.213217" lon="8.985295">
        <ele>1769.4</ele>
        <time>2022-09-12T05:10:55Z</time>
      </trkpt>
      <trkpt lat="42.213232" lon="8.985343">
        <ele>1770.2</ele>
        <time>2022-09-12T05:11:02Z</time>
      </trkpt>
      <trkpt lat="42.21328" lon="8.985365">
        <ele>1771.6</ele>
        <time>2022-09-12T05:11:11Z</time>
      </trkpt>
      <trkpt lat="42.213225" lon="8.985487">
        <ele>1776.4</ele>
        <time>2022-09-12T05:11:50Z</time>
      </trkpt>
      <trkpt lat="42.213145" lon="8.985582">
        <ele>1778.4</ele>
        <time>2022-09-12T05:12:05Z</time>
      </trkpt>
      <trkpt lat="42.213203" lon="8.985958">
        <ele>1777.6</ele>
        <time>2022-09-12T05:12:29Z</time>
      </trkpt>
      <trkpt lat="42.213203" lon="8.986055">
        <ele>1777.2</ele>
        <time>2022-09-12T05:12:38Z</time>
      </trkpt>
      <trkpt lat="42.213217" lon="8.986087">
        <ele>1777.2</ele>
        <time>2022-09-12T05:12:41Z</time>
      </trkpt>
      <trkpt lat="42.2132" lon="8.986158">
        <ele>1777.2</ele>
        <time>2022-09-12T05:12:54Z</time>
      </trkpt>
      <trkpt lat="42.213118" lon="8.986148">
        <ele>1777.0</ele>
        <time>2022-09-12T05:13:14Z</time>
      </trkpt>
      <trkpt lat="42.212962" lon="8.986298">
        <ele>1777.2</ele>
        <time>2022-09-12T05:13:37Z</time>
      </trkpt>
      <trkpt lat="42.212825" lon="8.986315">
        <ele>1777.2</ele>
        <time>2022-09-12T05:13:43Z</time>
      </trkpt>
      <trkpt lat="42.212798" lon="8.98633">
        <ele>1777.2</ele>
        <time>2022-09-12T05:13:44Z</time>
      </trkpt>
      <trkpt lat="42.21275" lon="8.986372">
        <ele>1777.2</ele>
        <time>2022-09-12T05:13:47Z</time>
      </trkpt>
      <trkpt lat="42.21264" lon="8.986503">
        <ele>1777.6</ele>
        <time>2022-09-12T05:13:55Z</time>
      </trkpt>
      <trkpt lat="42.212555" lon="8.986568">
        <ele>1778.0</ele>
        <time>2022-09-12T05:14:01Z</time>
      </trkpt>
      <trkpt lat="42.212528" lon="8.986595">
        <ele>1778.0</ele>
        <time>2022-09-12T05:14:03Z</time>
      </trkpt>
      <trkpt lat="42.212502" lon="8.986658">
        <ele>1778.0</ele>
        <time>2022-09-12T05:14:06Z</time>
      </trkpt>
      <trkpt lat="42.212478" lon="8.986727">
        <ele>1778.0</ele>
        <time>2022-09-12T05:14:09Z</time>
      </trkpt>
      <trkpt lat="42.212413" lon="8.986792">
        <ele>1778.0</ele>
        <time>2022-09-12T05:14:14Z</time>
      </trkpt>
      <trkpt lat="42.21238" lon="8.98685">
        <ele>1778.2</ele>
        <time>2022-09-12T05:14:19Z</time>
      </trkpt>
      <trkpt lat="42.212362" lon="8.986897">
        <ele>1778.2</ele>
        <time>2022-09-12T05:14:24Z</time>
      </trkpt>
      <trkpt lat="42.212363" lon="8.986947">
        <ele>1778.4</ele>
        <time>2022-09-12T05:14:28Z</time>
      </trkpt>
      <trkpt lat="42.212377" lon="8.987043">
        <ele>1778.8</ele>
        <time>2022-09-12T05:14:36Z</time>
      </trkpt>
      <trkpt lat="42.212355" lon="8.987113">
        <ele>1779.2</ele>
        <time>2022-09-12T05:14:43Z</time>
      </trkpt>
      <trkpt lat="42.21237" lon="8.987243">
        <ele>1779.4</ele>
        <time>2022-09-12T05:14:55Z</time>
      </trkpt>
      <trkpt lat="42.212368" lon="8.987255">
        <ele>1779.4</ele>
        <time>2022-09-12T05:14:56Z</time>
      </trkpt>
      <trkpt lat="42.21237" lon="8.987327">
        <ele>1779.4</ele>
        <time>2022-09-12T05:15:01Z</time>
      </trkpt>
      <trkpt lat="42.212355" lon="8.987453">
        <ele>1779.2</ele>
        <time>2022-09-12T05:15:10Z</time>
      </trkpt>
      <trkpt lat="42.212352" lon="8.98748">
        <ele>1779.2</ele>
        <time>2022-09-12T05:15:12Z</time>
      </trkpt>
      <trkpt lat="42.212348" lon="8.987622">
        <ele>1779.2</ele>
        <time>2022-09-12T05:15:23Z</time>
      </trkpt>
      <trkpt lat="42.2123" lon="8.987762">
        <ele>1780.0</ele>
        <time>2022-09-12T05:15:36Z</time>
      </trkpt>
      <trkpt lat="42.212278" lon="8.987787">
        <ele>1780.4</ele>
        <time>2022-09-12T05:15:39Z</time>
      </trkpt>
      <trkpt lat="42.212173" lon="8.987715">
        <ele>1781.8</ele>
        <time>2022-09-12T05:15:50Z</time>
      </trkpt>
      <trkpt lat="42.212087" lon="8.987717">
        <ele>1782.0</ele>
        <time>2022-09-12T05:15:58Z</time>
      </trkpt>
      <trkpt lat="42.212018" lon="8.987743">
        <ele>1781.8</ele>
        <time>2022-09-12T05:16:04Z</time>
      </trkpt>
      <trkpt lat="42.211973" lon="8.987787">
        <ele>1781.6</ele>
        <time>2022-09-12T05:16:09Z</time>
      </trkpt>
      <trkpt lat="42.211913" lon="8.987842">
        <ele>1781.4</ele>
        <time>2022-09-12T05:16:15Z</time>
      </trkpt>
      <trkpt lat="42.211875" lon="8.987863">
        <ele>1781.4</ele>
        <time>2022-09-12T05:16:19Z</time>
      </trkpt>
      <trkpt lat="42.211872" lon="8.987922">
        <ele>1781.6</ele>
        <time>2022-09-12T05:16:24Z</time>
      </trkpt>
      <trkpt lat="42.211847" lon="8.988053">
        <ele>1781.8</ele>
        <time>2022-09-12T05:16:35Z</time>
      </trkpt>
      <trkpt lat="42.211843" lon="8.988145">
        <ele>1781.8</ele>
        <time>2022-09-12T05:16:46Z</time>
      </trkpt>
      <trkpt lat="42.211792" lon="8.988215">
        <ele>1782.6</ele>
        <time>2022-09-12T05:16:57Z</time>
      </trkpt>
      <trkpt lat="42.211747" lon="8.988262">
        <ele>1782.6</ele>
        <time>2022-09-12T05:17:04Z</time>
      </trkpt>
      <trkpt lat="42.211667" lon="8.988392">
        <ele>1783.0</ele>
        <time>2022-09-12T05:17:20Z</time>
      </trkpt>
      <trkpt lat="42.211547" lon="8.9884">
        <ele>1783.8</ele>
        <time>2022-09-12T05:17:34Z</time>
      </trkpt>
      <trkpt lat="42.21145" lon="8.988435">
        <ele>1785.2</ele>
        <time>2022-09-12T05:17:44Z</time>
      </trkpt>
      <trkpt lat="42.211415" lon="8.988473">
        <ele>1785.6</ele>
        <time>2022-09-12T05:17:48Z</time>
      </trkpt>
      <trkpt lat="42.211387" lon="8.988533">
        <ele>1785.8</ele>
        <time>2022-09-12T05:17:53Z</time>
      </trkpt>
      <trkpt lat="42.211398" lon="8.988548">
        <ele>1786.0</ele>
        <time>2022-09-12T05:17:56Z</time>
      </trkpt>
      <trkpt lat="42.211395" lon="8.988585">
        <ele>1786.6</ele>
        <time>2022-09-12T05:18:02Z</time>
      </trkpt>
      <trkpt lat="42.211333" lon="8.988667">
        <ele>1788.0</ele>
        <time>2022-09-12T05:18:17Z</time>
      </trkpt>
      <trkpt lat="42.211338" lon="8.988688">
        <ele>1788.4</ele>
        <time>2022-09-12T05:18:20Z</time>
      </trkpt>
      <trkpt lat="42.211367" lon="8.988705">
        <ele>1789.0</ele>
        <time>2022-09-12T05:18:24Z</time>
      </trkpt>
      <trkpt lat="42.211365" lon="8.988783">
        <ele>1789.8</ele>
        <time>2022-09-12T05:18:31Z</time>
      </trkpt>
      <trkpt lat="42.211347" lon="8.988882">
        <ele>1791.8</ele>
        <time>2022-09-12T05:18:44Z</time>
      </trkpt>
      <trkpt lat="42.211323" lon="8.988923">
        <ele>1794.0</ele>
        <time>2022-09-12T05:19:00Z</time>
      </trkpt>
      <trkpt lat="42.211237" lon="8.988952">
        <ele>1795.4</ele>
        <time>2022-09-12T05:19:13Z</time>
      </trkpt>
      <trkpt lat="42.21123" lon="8.988958">
        <ele>1795.4</ele>
        <time>2022-09-12T05:19:14Z</time>
      </trkpt>
      <trkpt lat="42.211177" lon="8.989007">
        <ele>1796.6</ele>
        <time>2022-09-12T05:19:22Z</time>
      </trkpt>
      <trkpt lat="42.211103" lon="8.989058">
        <ele>1798.0</ele>
        <time>2022-09-12T05:19:34Z</time>
      </trkpt>
      <trkpt lat="42.211063" lon="8.989137">
        <ele>1799.4</ele>
        <time>2022-09-12T05:19:46Z</time>
      </trkpt>
      <trkpt lat="42.21105" lon="8.989163">
        <ele>1799.6</ele>
        <time>2022-09-12T05:19:50Z</time>
      </trkpt>
      <trkpt lat="42.21103" lon="8.989207">
        <ele>1801.0</ele>
        <time>2022-09-12T05:19:59Z</time>
      </trkpt>
      <trkpt lat="42.21101" lon="8.98924">
        <ele>1802.0</ele>
        <time>2022-09-12T05:20:06Z</time>
      </trkpt>
      <trkpt lat="42.211003" lon="8.98929">
        <ele>1803.2</ele>
        <time>2022-09-12T05:20:14Z</time>
      </trkpt>
      <trkpt lat="42.211003" lon="8.989308">
        <ele>1803.4</ele>
        <time>2022-09-12T05:20:17Z</time>
      </trkpt>
      <trkpt lat="42.211082" lon="8.989305">
        <ele>1813.8</ele>
        <time>2022-09-12T05:21:23Z</time>
      </trkpt>
      <trkpt lat="42.211068" lon="8.989332">
        <ele>1814.2</ele>
        <time>2022-09-12T05:21:28Z</time>
      </trkpt>
      <trkpt lat="42.211042" lon="8.989347">
        <ele>1815.0</ele>
        <time>2022-09-12T05:21:33Z</time>
      </trkpt>
      <trkpt lat="42.211032" lon="8.989378">
        <ele>1816.2</ele>
        <time>2022-09-12T05:21:42Z</time>
      </trkpt>
      <trkpt lat="42.211017" lon="8.989393">
        <ele>1817.6</ele>
        <time>2022-09-12T05:21:50Z</time>
      </trkpt>
      <trkpt lat="42.211" lon="8.989443">
        <ele>1818.6</ele>
        <time>2022-09-12T05:22:00Z</time>
      </trkpt>
      <trkpt lat="42.21101" lon="8.989482">
        <ele>1819.6</ele>
        <time>2022-09-12T05:22:08Z</time>
      </trkpt>
      <trkpt lat="42.211012" lon="8.989488">
        <ele>1820.0</ele>
        <time>2022-09-12T05:22:09Z</time>
      </trkpt>
      <trkpt lat="42.211032" lon="8.989495">
        <ele>1821.2</ele>
        <time>2022-09-12T05:22:14Z</time>
      </trkpt>
      <trkpt lat="42.211077" lon="8.989538">
        <ele>1822.8</ele>
        <time>2022-09-12T05:22:28Z</time>
      </trkpt>
      <trkpt lat="42.211105" lon="8.989658">
        <ele>1824.4</ele>
        <time>2022-09-12T05:22:36Z</time>
      </trkpt>
      <trkpt lat="42.211118" lon="8.989665">
        <ele>1824.4</ele>
        <time>2022-09-12T05:22:36Z</time>
      </trkpt>
      <trkpt lat="42.211115" lon="8.989685">
        <ele>1824.4</ele>
        <time>2022-09-12T05:22:37Z</time>
      </trkpt>
      <trkpt lat="42.211113" lon="8.989775">
        <ele>1825.4</ele>
        <time>2022-09-12T05:22:43Z</time>
      </trkpt>
      <trkpt lat="42.211125" lon="8.98981">
        <ele>1825.8</ele>
        <time>2022-09-12T05:22:47Z</time>
      </trkpt>
      <trkpt lat="42.211153" lon="8.989865">
        <ele>1827.2</ele>
        <time>2022-09-12T05:22:53Z</time>
      </trkpt>
      <trkpt lat="42.211172" lon="8.98988">
        <ele>1828.8</ele>
        <time>2022-09-12T05:23:01Z</time>
      </trkpt>
      <trkpt lat="42.21115" lon="8.98987">
        <ele>1832.2</ele>
        <time>2022-09-12T05:23:23Z</time>
      </trkpt>
      <trkpt lat="42.211103" lon="8.989922">
        <ele>1833.2</ele>
        <time>2022-09-12T05:23:30Z</time>
      </trkpt>
      <trkpt lat="42.211107" lon="8.98997">
        <ele>1834.0</ele>
        <time>2022-09-12T05:23:34Z</time>
      </trkpt>
      <trkpt lat="42.211165" lon="8.990098">
        <ele>1835.6</ele>
        <time>2022-09-12T05:23:43Z</time>
      </trkpt>
      <trkpt lat="42.211102" lon="8.990172">
        <ele>1836.4</ele>
        <time>2022-09-12T05:23:51Z</time>
      </trkpt>
      <trkpt lat="42.211093" lon="8.990178">
        <ele>1836.4</ele>
        <time>2022-09-12T05:23:51Z</time>
      </trkpt>
      <trkpt lat="42.210957" lon="8.990175">
        <ele>1838.4</ele>
        <time>2022-09-12T05:24:10Z</time>
      </trkpt>
      <trkpt lat="42.210947" lon="8.990208">
        <ele>1840.6</ele>
        <time>2022-09-12T05:24:25Z</time>
      </trkpt>
      <trkpt lat="42.210967" lon="8.990248">
        <ele>1841.8</ele>
        <time>2022-09-12T05:24:32Z</time>
      </trkpt>
      <trkpt lat="42.210955" lon="8.990382">
        <ele>1843.8</ele>
        <time>2022-09-12T05:24:42Z</time>
      </trkpt>
      <trkpt lat="42.211018" lon="8.990358">
        <ele>1846.2</ele>
        <time>2022-09-12T05:24:59Z</time>
      </trkpt>
      <trkpt lat="42.210998" lon="8.990258">
        <ele>1850.4</ele>
        <time>2022-09-12T05:26:27Z</time>
      </trkpt>
      <trkpt lat="42.210968" lon="8.990295">
        <ele>1852.0</ele>
        <time>2022-09-12T05:26:39Z</time>
      </trkpt>
      <trkpt lat="42.21095" lon="8.990308">
        <ele>1853.0</ele>
        <time>2022-09-12T05:26:43Z</time>
      </trkpt>
      <trkpt lat="42.210942" lon="8.99038">
        <ele>1854.6</ele>
        <time>2022-09-12T05:26:56Z</time>
      </trkpt>
      <trkpt lat="42.210967" lon="8.990417">
        <ele>1856.4</ele>
        <time>2022-09-12T05:27:03Z</time>
      </trkpt>
      <trkpt lat="42.21099" lon="8.990447">
        <ele>1857.8</ele>
        <time>2022-09-12T05:27:08Z</time>
      </trkpt>
      <trkpt lat="42.211" lon="8.990525">
        <ele>1859.4</ele>
        <time>2022-09-12T05:27:22Z</time>
      </trkpt>
      <trkpt lat="42.210943" lon="8.990635">
        <ele>1861.0</ele>
        <time>2022-09-12T05:27:42Z</time>
      </trkpt>
      <trkpt lat="42.210955" lon="8.99075">
        <ele>1860.8</ele>
        <time>2022-09-12T05:27:52Z</time>
      </trkpt>
      <trkpt lat="42.210955" lon="8.990802">
        <ele>1860.0</ele>
        <time>2022-09-12T05:28:02Z</time>
      </trkpt>
      <trkpt lat="42.21097" lon="8.990902">
        <ele>1860.8</ele>
        <time>2022-09-12T05:28:20Z</time>
      </trkpt>
      <trkpt lat="42.210965" lon="8.990947">
        <ele>1862.0</ele>
        <time>2022-09-12T05:28:29Z</time>
      </trkpt>
      <trkpt lat="42.210975" lon="8.990962">
        <ele>1862.6</ele>
        <time>2022-09-12T05:28:34Z</time>
      </trkpt>
      <trkpt lat="42.211002" lon="8.99096">
        <ele>1863.0</ele>
        <time>2022-09-12T05:28:39Z</time>
      </trkpt>
      <trkpt lat="42.211013" lon="8.991">
        <ele>1863.4</ele>
        <time>2022-09-12T05:28:43Z</time>
      </trkpt>
      <trkpt lat="42.210945" lon="8.991052">
        <ele>1864.2</ele>
        <time>2022-09-12T05:28:51Z</time>
      </trkpt>
      <trkpt lat="42.21086" lon="8.991175">
        <ele>1865.2</ele>
        <time>2022-09-12T05:29:06Z</time>
      </trkpt>
      <trkpt lat="42.210837" lon="8.991313">
        <ele>1867.0</ele>
        <time>2022-09-12T05:29:19Z</time>
      </trkpt>
      <trkpt lat="42.210783" lon="8.991473">
        <ele>1870.0</ele>
        <time>2022-09-12T05:29:44Z</time>
      </trkpt>
      <trkpt lat="42.21076" lon="8.991543">
        <ele>1870.4</ele>
        <time>2022-09-12T05:29:53Z</time>
      </trkpt>
      <trkpt lat="42.210762" lon="8.991638">
        <ele>1871.0</ele>
        <time>2022-09-12T05:30:04Z</time>
      </trkpt>
      <trkpt lat="42.21073" lon="8.991697">
        <ele>1872.0</ele>
        <time>2022-09-12T05:30:14Z</time>
      </trkpt>
      <trkpt lat="42.210745" lon="8.991755">
        <ele>1872.8</ele>
        <time>2022-09-12T05:30:21Z</time>
      </trkpt>
      <trkpt lat="42.210775" lon="8.991807">
        <ele>1874.0</ele>
        <time>2022-09-12T05:30:27Z</time>
      </trkpt>
      <trkpt lat="42.210817" lon="8.991872">
        <ele>1875.0</ele>
        <time>2022-09-12T05:30:35Z</time>
      </trkpt>
      <trkpt lat="42.21082" lon="8.99188">
        <ele>1875.0</ele>
        <time>2022-09-12T05:30:35Z</time>
      </trkpt>
      <trkpt lat="42.210835" lon="8.991982">
        <ele>1877.4</ele>
        <time>2022-09-12T05:30:49Z</time>
      </trkpt>
      <trkpt lat="42.210813" lon="8.992043">
        <ele>1878.6</ele>
        <time>2022-09-12T05:30:57Z</time>
      </trkpt>
      <trkpt lat="42.210808" lon="8.992187">
        <ele>1880.6</ele>
        <time>2022-09-12T05:31:11Z</time>
      </trkpt>
      <trkpt lat="42.210768" lon="8.992297">
        <ele>1882.8</ele>
        <time>2022-09-12T05:31:29Z</time>
      </trkpt>
      <trkpt lat="42.210815" lon="8.992373">
        <ele>1883.6</ele>
        <time>2022-09-12T05:31:39Z</time>
      </trkpt>
      <trkpt lat="42.210847" lon="8.992375">
        <ele>1883.2</ele>
        <time>2022-09-12T05:31:45Z</time>
      </trkpt>
      <trkpt lat="42.210808" lon="8.992178">
        <ele>1883.8</ele>
        <time>2022-09-12T05:32:09Z</time>
      </trkpt>
      <trkpt lat="42.210778" lon="8.992112">
        <ele>1884.2</ele>
        <time>2022-09-12T05:32:19Z</time>
      </trkpt>
      <trkpt lat="42.210788" lon="8.992077">
        <ele>1885.2</ele>
        <time>2022-09-12T05:32:24Z</time>
      </trkpt>
      <trkpt lat="42.210792" lon="8.99207">
        <ele>1885.2</ele>
        <time>2022-09-12T05:32:25Z</time>
      </trkpt>
      <trkpt lat="42.210855" lon="8.992068">
        <ele>1886.8</ele>
        <time>2022-09-12T05:32:40Z</time>
      </trkpt>
      <trkpt lat="42.210847" lon="8.992115">
        <ele>1887.0</ele>
        <time>2022-09-12T05:32:43Z</time>
      </trkpt>
      <trkpt lat="42.210817" lon="8.992227">
        <ele>1887.8</ele>
        <time>2022-09-12T05:32:50Z</time>
      </trkpt>
      <trkpt lat="42.210797" lon="8.992312">
        <ele>1888.4</ele>
        <time>2022-09-12T05:32:55Z</time>
      </trkpt>
      <trkpt lat="42.210817" lon="8.99253">
        <ele>1890.2</ele>
        <time>2022-09-12T05:33:08Z</time>
      </trkpt>
      <trkpt lat="42.210843" lon="8.992607">
        <ele>1890.6</ele>
        <time>2022-09-12T05:33:16Z</time>
      </trkpt>
      <trkpt lat="42.210897" lon="8.992685">
        <ele>1893.0</ele>
        <time>2022-09-12T05:33:30Z</time>
      </trkpt>
      <trkpt lat="42.210915" lon="8.992757">
        <ele>1894.0</ele>
        <time>2022-09-12T05:33:42Z</time>
      </trkpt>
      <trkpt lat="42.210913" lon="8.992778">
        <ele>1894.8</ele>
        <time>2022-09-12T05:33:46Z</time>
      </trkpt>
      <trkpt lat="42.21091" lon="8.992782">
        <ele>1895.0</ele>
        <time>2022-09-12T05:33:47Z</time>
      </trkpt>
      <trkpt lat="42.210937" lon="8.992905">
        <ele>1896.2</ele>
        <time>2022-09-12T05:33:59Z</time>
      </trkpt>
      <trkpt lat="42.210968" lon="8.992998">
        <ele>1897.4</ele>
        <time>2022-09-12T05:34:08Z</time>
      </trkpt>
      <trkpt lat="42.211003" lon="8.993045">
        <ele>1898.2</ele>
        <time>2022-09-12T05:34:15Z</time>
      </trkpt>
      <trkpt lat="42.211017" lon="8.99311">
        <ele>1899.4</ele>
        <time>2022-09-12T05:34:23Z</time>
      </trkpt>
      <trkpt lat="42.211007" lon="8.993178">
        <ele>1900.4</ele>
        <time>2022-09-12T05:34:31Z</time>
      </trkpt>
      <trkpt lat="42.21101" lon="8.993215">
        <ele>1900.8</ele>
        <time>2022-09-12T05:34:37Z</time>
      </trkpt>
      <trkpt lat="42.211005" lon="8.993252">
        <ele>1901.4</ele>
        <time>2022-09-12T05:34:44Z</time>
      </trkpt>
      <trkpt lat="42.211018" lon="8.993283">
        <ele>1902.0</ele>
        <time>2022-09-12T05:34:50Z</time>
      </trkpt>
      <trkpt lat="42.210995" lon="8.993353">
        <ele>1903.0</ele>
        <time>2022-09-12T05:35:03Z</time>
      </trkpt>
      <trkpt lat="42.210967" lon="8.993387">
        <ele>1904.0</ele>
        <time>2022-09-12T05:35:11Z</time>
      </trkpt>
      <trkpt lat="42.210963" lon="8.99339">
        <ele>1904.8</ele>
        <time>2022-09-12T05:35:15Z</time>
      </trkpt>
      <trkpt lat="42.210995" lon="8.993367">
        <ele>1907.0</ele>
        <time>2022-09-12T05:35:37Z</time>
      </trkpt>
      <trkpt lat="42.211037" lon="8.993328">
        <ele>1909.4</ele>
        <time>2022-09-12T05:35:48Z</time>
      </trkpt>
      <trkpt lat="42.211048" lon="8.993335">
        <ele>1909.8</ele>
        <time>2022-09-12T05:35:50Z</time>
      </trkpt>
      <trkpt lat="42.211085" lon="8.993392">
        <ele>1911.4</ele>
        <time>2022-09-12T05:35:59Z</time>
      </trkpt>
      <trkpt lat="42.21115" lon="8.993432">
        <ele>1913.2</ele>
        <time>2022-09-12T05:36:10Z</time>
      </trkpt>
      <trkpt lat="42.211153" lon="8.993438">
        <ele>1913.2</ele>
        <time>2022-09-12T05:36:10Z</time>
      </trkpt>
      <trkpt lat="42.211155" lon="8.993492">
        <ele>1914.6</ele>
        <time>2022-09-12T05:36:17Z</time>
      </trkpt>
      <trkpt lat="42.211175" lon="8.99354">
        <ele>1916.2</ele>
        <time>2022-09-12T05:36:27Z</time>
      </trkpt>
      <trkpt lat="42.211177" lon="8.993592">
        <ele>1917.4</ele>
        <time>2022-09-12T05:36:34Z</time>
      </trkpt>
      <trkpt lat="42.211163" lon="8.993653">
        <ele>1919.6</ele>
        <time>2022-09-12T05:36:50Z</time>
      </trkpt>
      <trkpt lat="42.211163" lon="8.993677">
        <ele>1919.6</ele>
        <time>2022-09-12T05:36:53Z</time>
      </trkpt>
      <trkpt lat="42.211183" lon="8.993722">
        <ele>1921.8</ele>
        <time>2022-09-12T05:37:13Z</time>
      </trkpt>
      <trkpt lat="42.211183" lon="8.993727">
        <ele>1921.8</ele>
        <time>2022-09-12T05:37:13Z</time>
      </trkpt>
      <trkpt lat="42.211197" lon="8.993802">
        <ele>1922.6</ele>
        <time>2022-09-12T05:37:20Z</time>
      </trkpt>
      <trkpt lat="42.211198" lon="8.993815">
        <ele>1922.8</ele>
        <time>2022-09-12T05:37:22Z</time>
      </trkpt>
      <trkpt lat="42.211173" lon="8.994017">
        <ele>1924.2</ele>
        <time>2022-09-12T05:37:44Z</time>
      </trkpt>
      <trkpt lat="42.211198" lon="8.994022">
        <ele>1925.0</ele>
        <time>2022-09-12T05:37:51Z</time>
      </trkpt>
      <trkpt lat="42.211227" lon="8.99404">
        <ele>1926.8</ele>
        <time>2022-09-12T05:38:04Z</time>
      </trkpt>
      <trkpt lat="42.211263" lon="8.99409">
        <ele>1929.0</ele>
        <time>2022-09-12T05:38:18Z</time>
      </trkpt>
      <trkpt lat="42.211268" lon="8.994092">
        <ele>1929.4</ele>
        <time>2022-09-12T05:38:20Z</time>
      </trkpt>
      <trkpt lat="42.211292" lon="8.994115">
        <ele>1930.6</ele>
        <time>2022-09-12T05:38:26Z</time>
      </trkpt>
      <trkpt lat="42.211298" lon="8.99413">
        <ele>1930.6</ele>
        <time>2022-09-12T05:38:28Z</time>
      </trkpt>
      <trkpt lat="42.211278" lon="8.994278">
        <ele>1932.4</ele>
        <time>2022-09-12T05:38:44Z</time>
      </trkpt>
      <trkpt lat="42.211275" lon="8.994403">
        <ele>1933.6</ele>
        <time>2022-09-12T05:38:57Z</time>
      </trkpt>
      <trkpt lat="42.2113" lon="8.994492">
        <ele>1934.2</ele>
        <time>2022-09-12T05:39:08Z</time>
      </trkpt>
      <trkpt lat="42.211295" lon="8.9945">
        <ele>1934.4</ele>
        <time>2022-09-12T05:39:09Z</time>
      </trkpt>
      <trkpt lat="42.211292" lon="8.994507">
        <ele>1934.4</ele>
        <time>2022-09-12T05:39:10Z</time>
      </trkpt>
      <trkpt lat="42.211395" lon="8.994652">
        <ele>1937.8</ele>
        <time>2022-09-12T05:39:47Z</time>
      </trkpt>
      <trkpt lat="42.211407" lon="8.994652">
        <ele>1938.2</ele>
        <time>2022-09-12T05:39:49Z</time>
      </trkpt>
      <trkpt lat="42.211435" lon="8.99461">
        <ele>1938.8</ele>
        <time>2022-09-12T05:39:56Z</time>
      </trkpt>
      <trkpt lat="42.211465" lon="8.99466">
        <ele>1940.0</ele>
        <time>2022-09-12T05:40:03Z</time>
      </trkpt>
      <trkpt lat="42.21149" lon="8.994805">
        <ele>1942.2</ele>
        <time>2022-09-12T05:40:18Z</time>
      </trkpt>
      <trkpt lat="42.21149" lon="8.994815">
        <ele>1942.2</ele>
        <time>2022-09-12T05:40:19Z</time>
      </trkpt>
      <trkpt lat="42.21149" lon="8.994842">
        <ele>1942.4</ele>
        <time>2022-09-12T05:40:22Z</time>
      </trkpt>
      <trkpt lat="42.211495" lon="8.994908">
        <ele>1943.0</ele>
        <time>2022-09-12T05:40:32Z</time>
      </trkpt>
      <trkpt lat="42.211482" lon="8.994933">
        <ele>1943.6</ele>
        <time>2022-09-12T05:40:36Z</time>
      </trkpt>
      <trkpt lat="42.21146" lon="8.994968">
        <ele>1944.8</ele>
        <time>2022-09-12T05:40:42Z</time>
      </trkpt>
      <trkpt lat="42.211433" lon="8.995013">
        <ele>1945.8</ele>
        <time>2022-09-12T05:40:50Z</time>
      </trkpt>
      <trkpt lat="42.211473" lon="8.995035">
        <ele>1946.8</ele>
        <time>2022-09-12T05:40:58Z</time>
      </trkpt>
      <trkpt lat="42.211462" lon="8.995087">
        <ele>1948.0</ele>
        <time>2022-09-12T05:41:06Z</time>
      </trkpt>
      <trkpt lat="42.21145" lon="8.995113">
        <ele>1948.8</ele>
        <time>2022-09-12T05:41:10Z</time>
      </trkpt>
      <trkpt lat="42.211505" lon="8.995163">
        <ele>1949.4</ele>
        <time>2022-09-12T05:41:20Z</time>
      </trkpt>
      <trkpt lat="42.211557" lon="8.99522">
        <ele>1949.8</ele>
        <time>2022-09-12T05:41:30Z</time>
      </trkpt>
      <trkpt lat="42.211602" lon="8.995212">
        <ele>1950.8</ele>
        <time>2022-09-12T05:41:36Z</time>
      </trkpt>
      <trkpt lat="42.211608" lon="8.995247">
        <ele>1951.2</ele>
        <time>2022-09-12T05:41:40Z</time>
      </trkpt>
      <trkpt lat="42.211827" lon="8.995358">
        <ele>1952.4</ele>
        <time>2022-09-12T05:42:01Z</time>
      </trkpt>
      <trkpt lat="42.211908" lon="8.995332">
        <ele>1952.8</ele>
        <time>2022-09-12T05:42:08Z</time>
      </trkpt>
      <trkpt lat="42.211943" lon="8.995338">
        <ele>1953.0</ele>
        <time>2022-09-12T05:42:11Z</time>
      </trkpt>
      <trkpt lat="42.21191" lon="8.995407">
        <ele>1953.4</ele>
        <time>2022-09-12T05:42:17Z</time>
      </trkpt>
      <trkpt lat="42.211883" lon="8.995523">
        <ele>1954.4</ele>
        <time>2022-09-12T05:42:30Z</time>
      </trkpt>
      <trkpt lat="42.211857" lon="8.995618">
        <ele>1956.2</ele>
        <time>2022-09-12T05:42:41Z</time>
      </trkpt>
      <trkpt lat="42.21184" lon="8.995663">
        <ele>1957.0</ele>
        <time>2022-09-12T05:42:49Z</time>
      </trkpt>
      <trkpt lat="42.211838" lon="8.995668">
        <ele>1957.0</ele>
        <time>2022-09-12T05:42:50Z</time>
      </trkpt>
      <trkpt lat="42.211778" lon="8.995718">
        <ele>1957.4</ele>
        <time>2022-09-12T05:42:59Z</time>
      </trkpt>
      <trkpt lat="42.211768" lon="8.995725">
        <ele>1957.4</ele>
        <time>2022-09-12T05:43:01Z</time>
      </trkpt>
      <trkpt lat="42.211745" lon="8.99579">
        <ele>1957.6</ele>
        <time>2022-09-12T05:43:11Z</time>
      </trkpt>
      <trkpt lat="42.211752" lon="8.995895">
        <ele>1957.4</ele>
        <time>2022-09-12T05:43:25Z</time>
      </trkpt>
      <trkpt lat="42.211812" lon="8.996082">
        <ele>1957.2</ele>
        <time>2022-09-12T05:43:59Z</time>
      </trkpt>
      <trkpt lat="42.211815" lon="8.996087">
        <ele>1957.2</ele>
        <time>2022-09-12T05:44:00Z</time>
      </trkpt>
      <trkpt lat="42.211795" lon="8.996235">
        <ele>1957.2</ele>
        <time>2022-09-12T05:44:16Z</time>
      </trkpt>
      <trkpt lat="42.211792" lon="8.996298">
        <ele>1956.2</ele>
        <time>2022-09-12T05:44:23Z</time>
      </trkpt>
      <trkpt lat="42.21179" lon="8.996378">
        <ele>1956.0</ele>
        <time>2022-09-12T05:44:31Z</time>
      </trkpt>
      <trkpt lat="42.211758" lon="8.996488">
        <ele>1955.8</ele>
        <time>2022-09-12T05:44:42Z</time>
      </trkpt>
      <trkpt lat="42.21173" lon="8.996522">
        <ele>1955.8</ele>
        <time>2022-09-12T05:44:47Z</time>
      </trkpt>
      <trkpt lat="42.211742" lon="8.996593">
        <ele>1954.8</ele>
        <time>2022-09-12T05:44:56Z</time>
      </trkpt>
      <trkpt lat="42.211755" lon="8.996647">
        <ele>1954.4</ele>
        <time>2022-09-12T05:45:02Z</time>
      </trkpt>
      <trkpt lat="42.21181" lon="8.99677">
        <ele>1952.2</ele>
        <time>2022-09-12T05:45:17Z</time>
      </trkpt>
      <trkpt lat="42.211843" lon="8.996832">
        <ele>1950.4</ele>
        <time>2022-09-12T05:45:25Z</time>
      </trkpt>
      <trkpt lat="42.211857" lon="8.996865">
        <ele>1950.2</ele>
        <time>2022-09-12T05:45:29Z</time>
      </trkpt>
      <trkpt lat="42.211808" lon="8.996947">
        <ele>1950.2</ele>
        <time>2022-09-12T05:45:39Z</time>
      </trkpt>
      <trkpt lat="42.21181" lon="8.996998">
        <ele>1950.0</ele>
        <time>2022-09-12T05:45:45Z</time>
      </trkpt>
      <trkpt lat="42.21174" lon="8.997185">
        <ele>1950.0</ele>
        <time>2022-09-12T05:46:05Z</time>
      </trkpt>
      <trkpt lat="42.211738" lon="8.997197">
        <ele>1950.0</ele>
        <time>2022-09-12T05:46:06Z</time>
      </trkpt>
      <trkpt lat="42.21173" lon="8.99732">
        <ele>1950.0</ele>
        <time>2022-09-12T05:46:14Z</time>
      </trkpt>
      <trkpt lat="42.211718" lon="8.997415">
        <ele>1950.0</ele>
        <time>2022-09-12T05:46:20Z</time>
      </trkpt>
      <trkpt lat="42.211727" lon="8.997532">
        <ele>1950.4</ele>
        <time>2022-09-12T05:46:27Z</time>
      </trkpt>
      <trkpt lat="42.211738" lon="8.99765">
        <ele>1950.6</ele>
        <time>2022-09-12T05:46:34Z</time>
      </trkpt>
      <trkpt lat="42.211727" lon="8.997797">
        <ele>1950.8</ele>
        <time>2022-09-12T05:46:42Z</time>
      </trkpt>
      <trkpt lat="42.211718" lon="8.997835">
        <ele>1951.2</ele>
        <time>2022-09-12T05:46:44Z</time>
      </trkpt>
      <trkpt lat="42.211625" lon="8.997872">
        <ele>1951.6</ele>
        <time>2022-09-12T05:46:56Z</time>
      </trkpt>
      <trkpt lat="42.211522" lon="8.99797">
        <ele>1951.8</ele>
        <time>2022-09-12T05:47:09Z</time>
      </trkpt>
      <trkpt lat="42.211477" lon="8.998068">
        <ele>1952.4</ele>
        <time>2022-09-12T05:47:18Z</time>
      </trkpt>
      <trkpt lat="42.211477" lon="8.998127">
        <ele>1952.6</ele>
        <time>2022-09-12T05:47:23Z</time>
      </trkpt>
      <trkpt lat="42.211508" lon="8.998268">
        <ele>1953.4</ele>
        <time>2022-09-12T05:47:37Z</time>
      </trkpt>
      <trkpt lat="42.211505" lon="8.998278">
        <ele>1953.4</ele>
        <time>2022-09-12T05:47:40Z</time>
      </trkpt>
      <trkpt lat="42.211663" lon="8.998205">
        <ele>1954.0</ele>
        <time>2022-09-12T05:47:52Z</time>
      </trkpt>
      <trkpt lat="42.211248" lon="8.998102">
        <ele>1955.2</ele>
        <time>2022-09-12T05:48:03Z</time>
      </trkpt>
      <trkpt lat="42.211343" lon="8.998308">
        <ele>1956.6</ele>
        <time>2022-09-12T05:48:13Z</time>
      </trkpt>
      <trkpt lat="42.211342" lon="8.998327">
        <ele>1956.8</ele>
        <time>2022-09-12T05:48:14Z</time>
      </trkpt>
      <trkpt lat="42.211323" lon="8.998505">
        <ele>1958.0</ele>
        <time>2022-09-12T05:48:25Z</time>
      </trkpt>
      <trkpt lat="42.211333" lon="8.998558">
        <ele>1958.4</ele>
        <time>2022-09-12T05:48:29Z</time>
      </trkpt>
      <trkpt lat="42.211337" lon="8.99857">
        <ele>1958.4</ele>
        <time>2022-09-12T05:48:30Z</time>
      </trkpt>
      <trkpt lat="42.21147" lon="8.998673">
        <ele>1958.8</ele>
        <time>2022-09-12T05:48:45Z</time>
      </trkpt>
      <trkpt lat="42.211537" lon="8.998702">
        <ele>1959.6</ele>
        <time>2022-09-12T05:48:52Z</time>
      </trkpt>
      <trkpt lat="42.211643" lon="8.998687">
        <ele>1960.6</ele>
        <time>2022-09-12T05:49:04Z</time>
      </trkpt>
      <trkpt lat="42.211653" lon="8.998688">
        <ele>1960.6</ele>
        <time>2022-09-12T05:49:05Z</time>
      </trkpt>
      <trkpt lat="42.211657" lon="8.9987">
        <ele>1960.8</ele>
        <time>2022-09-12T05:49:06Z</time>
      </trkpt>
      <trkpt lat="42.211695" lon="8.998778">
        <ele>1962.2</ele>
        <time>2022-09-12T05:49:18Z</time>
      </trkpt>
      <trkpt lat="42.211808" lon="8.9988">
        <ele>1962.2</ele>
        <time>2022-09-12T05:49:36Z</time>
      </trkpt>
      <trkpt lat="42.211855" lon="8.998813">
        <ele>1962.2</ele>
        <time>2022-09-12T05:49:44Z</time>
      </trkpt>
      <trkpt lat="42.211895" lon="8.99881">
        <ele>1962.4</ele>
        <time>2022-09-12T05:49:50Z</time>
      </trkpt>
      <trkpt lat="42.211902" lon="8.998795">
        <ele>1963.0</ele>
        <time>2022-09-12T05:49:52Z</time>
      </trkpt>
      <trkpt lat="42.211913" lon="8.998757">
        <ele>1965.4</ele>
        <time>2022-09-12T05:50:03Z</time>
      </trkpt>
      <trkpt lat="42.211857" lon="8.998683">
        <ele>1968.4</ele>
        <time>2022-09-12T05:50:21Z</time>
      </trkpt>
      <trkpt lat="42.211858" lon="8.998648">
        <ele>1969.6</ele>
        <time>2022-09-12T05:50:33Z</time>
      </trkpt>
      <trkpt lat="42.21186" lon="8.998645">
        <ele>1969.8</ele>
        <time>2022-09-12T05:50:34Z</time>
      </trkpt>
      <trkpt lat="42.211877" lon="8.998647">
        <ele>1970.6</ele>
        <time>2022-09-12T05:50:39Z</time>
      </trkpt>
      <trkpt lat="42.211895" lon="8.998622">
        <ele>1971.0</ele>
        <time>2022-09-12T05:50:44Z</time>
      </trkpt>
      <trkpt lat="42.211963" lon="8.998558">
        <ele>1971.0</ele>
        <time>2022-09-12T05:50:57Z</time>
      </trkpt>
      <trkpt lat="42.212017" lon="8.998682">
        <ele>1971.0</ele>
        <time>2022-09-12T05:51:08Z</time>
      </trkpt>
      <trkpt lat="42.212047" lon="8.998743">
        <ele>1970.8</ele>
        <time>2022-09-12T05:51:19Z</time>
      </trkpt>
      <trkpt lat="42.212237" lon="8.999338">
        <ele>1970.6</ele>
        <time>2022-09-12T05:53:41Z</time>
      </trkpt>
      <trkpt lat="42.212285" lon="8.999492">
        <ele>1971.0</ele>
        <time>2022-09-12T05:54:17Z</time>
      </trkpt>
      <trkpt lat="42.212087" lon="8.99928">
        <ele>1970.8</ele>
        <time>2022-09-12T05:54:52Z</time>
      </trkpt>
      <trkpt lat="42.212063" lon="8.998977">
        <ele>1970.4</ele>
        <time>2022-09-12T05:55:28Z</time>
      </trkpt>
      <trkpt lat="42.212067" lon="8.99898">
        <ele>1970.4</ele>
        <time>2022-09-12T05:55:29Z</time>
      </trkpt>
      <trkpt lat="42.212083" lon="8.998998">
        <ele>1970.6</ele>
        <time>2022-09-12T05:55:40Z</time>
      </trkpt>
      <trkpt lat="42.212122" lon="8.999022">
        <ele>1970.8</ele>
        <time>2022-09-12T05:56:00Z</time>
      </trkpt>
      <trkpt lat="42.212147" lon="8.99899">
        <ele>1969.8</ele>
        <time>2022-09-12T05:56:18Z</time>
      </trkpt>
      <trkpt lat="42.212148" lon="8.998988">
        <ele>1969.6</ele>
        <time>2022-09-12T05:56:21Z</time>
      </trkpt>
      <trkpt lat="42.21208" lon="8.99903">
        <ele>1967.8</ele>
        <time>2022-09-12T05:56:38Z</time>
      </trkpt>
      <trkpt lat="42.212053" lon="8.999073">
        <ele>1967.8</ele>
        <time>2022-09-12T05:56:43Z</time>
      </trkpt>
      <trkpt lat="42.21204" lon="8.999148">
        <ele>1968.4</ele>
        <time>2022-09-12T05:56:48Z</time>
      </trkpt>
      <trkpt lat="42.212005" lon="8.999172">
        <ele>1968.8</ele>
        <time>2022-09-12T05:56:51Z</time>
      </trkpt>
      <trkpt lat="42.212007" lon="8.999205">
        <ele>1969.2</ele>
        <time>2022-09-12T05:56:56Z</time>
      </trkpt>
      <trkpt lat="42.212042" lon="8.99922">
        <ele>1970.2</ele>
        <time>2022-09-12T05:57:02Z</time>
      </trkpt>
      <trkpt lat="42.212072" lon="8.999177">
        <ele>1971.6</ele>
        <time>2022-09-12T05:57:13Z</time>
      </trkpt>
      <trkpt lat="42.212067" lon="8.999182">
        <ele>1972.0</ele>
        <time>2022-09-12T05:57:15Z</time>
      </trkpt>
      <trkpt lat="42.21213" lon="8.999145">
        <ele>1973.8</ele>
        <time>2022-09-12T05:57:25Z</time>
      </trkpt>
      <trkpt lat="42.212137" lon="8.999142">
        <ele>1974.0</ele>
        <time>2022-09-12T05:57:27Z</time>
      </trkpt>
      <trkpt lat="42.212128" lon="8.999177">
        <ele>1974.6</ele>
        <time>2022-09-12T05:57:31Z</time>
      </trkpt>
      <trkpt lat="42.212073" lon="8.999253">
        <ele>1975.8</ele>
        <time>2022-09-12T05:57:41Z</time>
      </trkpt>
      <trkpt lat="42.212058" lon="8.999292">
        <ele>1976.4</ele>
        <time>2022-09-12T05:57:45Z</time>
      </trkpt>
      <trkpt lat="42.212057" lon="8.999328">
        <ele>1976.8</ele>
        <time>2022-09-12T05:57:49Z</time>
      </trkpt>
      <trkpt lat="42.212073" lon="8.99937">
        <ele>1978.4</ele>
        <time>2022-09-12T05:57:59Z</time>
      </trkpt>
      <trkpt lat="42.212095" lon="8.999377">
        <ele>1980.8</ele>
        <time>2022-09-12T05:58:15Z</time>
      </trkpt>
      <trkpt lat="42.212098" lon="8.999377">
        <ele>1980.8</ele>
        <time>2022-09-12T05:58:16Z</time>
      </trkpt>
      <trkpt lat="42.212138" lon="8.999337">
        <ele>1982.0</ele>
        <time>2022-09-12T05:58:22Z</time>
      </trkpt>
      <trkpt lat="42.21216" lon="8.99936">
        <ele>1983.0</ele>
        <time>2022-09-12T05:58:28Z</time>
      </trkpt>
      <trkpt lat="42.212205" lon="8.999335">
        <ele>1984.2</ele>
        <time>2022-09-12T05:58:35Z</time>
      </trkpt>
      <trkpt lat="42.212218" lon="8.999418">
        <ele>1985.8</ele>
        <time>2022-09-12T05:58:46Z</time>
      </trkpt>
      <trkpt lat="42.212233" lon="8.999438">
        <ele>1986.0</ele>
        <time>2022-09-12T05:58:49Z</time>
      </trkpt>
      <trkpt lat="42.212228" lon="8.999448">
        <ele>1986.2</ele>
        <time>2022-09-12T05:58:50Z</time>
      </trkpt>
      <trkpt lat="42.212228" lon="8.999555">
        <ele>1987.8</ele>
        <time>2022-09-12T05:59:00Z</time>
      </trkpt>
      <trkpt lat="42.212277" lon="8.99965">
        <ele>1989.6</ele>
        <time>2022-09-12T05:59:12Z</time>
      </trkpt>
      <trkpt lat="42.212307" lon="8.999682">
        <ele>1990.2</ele>
        <time>2022-09-12T05:59:16Z</time>
      </trkpt>
      <trkpt lat="42.21235" lon="8.999737">
        <ele>1994.4</ele>
        <time>2022-09-12T05:59:43Z</time>
      </trkpt>
      <trkpt lat="42.212342" lon="8.999767">
        <ele>1995.2</ele>
        <time>2022-09-12T05:59:51Z</time>
      </trkpt>
      <trkpt lat="42.21234" lon="8.99978">
        <ele>1995.8</ele>
        <time>2022-09-12T05:59:56Z</time>
      </trkpt>
      <trkpt lat="42.212388" lon="8.999773">
        <ele>1996.8</ele>
        <time>2022-09-12T06:00:04Z</time>
      </trkpt>
      <trkpt lat="42.212443" lon="8.999733">
        <ele>1997.6</ele>
        <time>2022-09-12T06:00:10Z</time>
      </trkpt>
      <trkpt lat="42.212443" lon="8.999707">
        <ele>1997.6</ele>
        <time>2022-09-12T06:00:12Z</time>
      </trkpt>
      <trkpt lat="42.212432" lon="8.999668">
        <ele>1998.2</ele>
        <time>2022-09-12T06:00:15Z</time>
      </trkpt>
      <trkpt lat="42.212343" lon="8.999493">
        <ele>2000.8</ele>
        <time>2022-09-12T06:00:32Z</time>
      </trkpt>
      <trkpt lat="42.212335" lon="8.999433">
        <ele>2001.8</ele>
        <time>2022-09-12T06:00:38Z</time>
      </trkpt>
      <trkpt lat="42.212358" lon="8.999382">
        <ele>2003.2</ele>
        <time>2022-09-12T06:00:43Z</time>
      </trkpt>
      <trkpt lat="42.21234" lon="8.999303">
        <ele>2006.0</ele>
        <time>2022-09-12T06:00:55Z</time>
      </trkpt>
      <trkpt lat="42.212348" lon="8.999285">
        <ele>2006.4</ele>
        <time>2022-09-12T06:00:57Z</time>
      </trkpt>
      <trkpt lat="42.21236" lon="8.99921">
        <ele>2007.6</ele>
        <time>2022-09-12T06:01:05Z</time>
      </trkpt>
      <trkpt lat="42.212323" lon="8.999155">
        <ele>2009.4</ele>
        <time>2022-09-12T06:01:15Z</time>
      </trkpt>
      <trkpt lat="42.21234" lon="8.999062">
        <ele>2011.6</ele>
        <time>2022-09-12T06:01:27Z</time>
      </trkpt>
      <trkpt lat="42.212332" lon="8.99904">
        <ele>2012.0</ele>
        <time>2022-09-12T06:01:30Z</time>
      </trkpt>
      <trkpt lat="42.212353" lon="8.99916">
        <ele>2012.8</ele>
        <time>2022-09-12T06:01:34Z</time>
      </trkpt>
      <trkpt lat="42.212335" lon="8.999433">
        <ele>2014.2</ele>
        <time>2022-09-12T06:01:43Z</time>
      </trkpt>
      <trkpt lat="42.21232" lon="8.999695">
        <ele>2015.2</ele>
        <time>2022-09-12T06:01:53Z</time>
      </trkpt>
      <trkpt lat="42.212328" lon="8.999955">
        <ele>2015.2</ele>
        <time>2022-09-12T06:02:01Z</time>
      </trkpt>
      <trkpt lat="42.212345" lon="9.0002">
        <ele>2015.4</ele>
        <time>2022-09-12T06:02:08Z</time>
      </trkpt>
      <trkpt lat="42.212113" lon="9.000172">
        <ele>2015.8</ele>
        <time>2022-09-12T06:02:16Z</time>
      </trkpt>
      <trkpt lat="42.212375" lon="9.000298">
        <ele>2017.4</ele>
        <time>2022-09-12T06:02:26Z</time>
      </trkpt>
      <trkpt lat="42.212533" lon="9.000437">
        <ele>2021.0</ele>
        <time>2022-09-12T06:02:48Z</time>
      </trkpt>
      <trkpt lat="42.212498" lon="9.000478">
        <ele>2023.2</ele>
        <time>2022-09-12T06:02:58Z</time>
      </trkpt>
      <trkpt lat="42.212497" lon="9.000502">
        <ele>2024.0</ele>
        <time>2022-09-12T06:03:03Z</time>
      </trkpt>
      <trkpt lat="42.212517" lon="9.000547">
        <ele>2025.8</ele>
        <time>2022-09-12T06:03:12Z</time>
      </trkpt>
      <trkpt lat="42.212515" lon="9.000572">
        <ele>2026.6</ele>
        <time>2022-09-12T06:03:17Z</time>
      </trkpt>
      <trkpt lat="42.2125" lon="9.0006">
        <ele>2028.2</ele>
        <time>2022-09-12T06:03:24Z</time>
      </trkpt>
      <trkpt lat="42.212478" lon="9.000612">
        <ele>2029.0</ele>
        <time>2022-09-12T06:03:30Z</time>
      </trkpt>
      <trkpt lat="42.21247" lon="9.000645">
        <ele>2030.2</ele>
        <time>2022-09-12T06:03:38Z</time>
      </trkpt>
      <trkpt lat="42.212448" lon="9.000683">
        <ele>2031.4</ele>
        <time>2022-09-12T06:03:47Z</time>
      </trkpt>
      <trkpt lat="42.212447" lon="9.000688">
        <ele>2031.6</ele>
        <time>2022-09-12T06:03:48Z</time>
      </trkpt>
      <trkpt lat="42.212408" lon="9.000888">
        <ele>2034.6</ele>
        <time>2022-09-12T06:04:18Z</time>
      </trkpt>
      <trkpt lat="42.212428" lon="9.000968">
        <ele>2035.8</ele>
        <time>2022-09-12T06:04:34Z</time>
      </trkpt>
      <trkpt lat="42.212403" lon="9.001082">
        <ele>2036.8</ele>
        <time>2022-09-12T06:04:44Z</time>
      </trkpt>
      <trkpt lat="42.2124" lon="9.001092">
        <ele>2036.8</ele>
        <time>2022-09-12T06:04:45Z</time>
      </trkpt>
      <trkpt lat="42.21239" lon="9.001142">
        <ele>2037.4</ele>
        <time>2022-09-12T06:04:53Z</time>
      </trkpt>
      <trkpt lat="42.212385" lon="9.0013">
        <ele>2041.2</ele>
        <time>2022-09-12T06:05:22Z</time>
      </trkpt>
      <trkpt lat="42.21243" lon="9.001377">
        <ele>2046.4</ele>
        <time>2022-09-12T06:05:59Z</time>
      </trkpt>
      <trkpt lat="42.212435" lon="9.001387">
        <ele>2046.4</ele>
        <time>2022-09-12T06:06:00Z</time>
      </trkpt>
      <trkpt lat="42.212448" lon="9.001502">
        <ele>2047.6</ele>
        <time>2022-09-12T06:06:09Z</time>
      </trkpt>
      <trkpt lat="42.212448" lon="9.001537">
        <ele>2047.8</ele>
        <time>2022-09-12T06:06:12Z</time>
      </trkpt>
      <trkpt lat="42.212492" lon="9.001593">
        <ele>2050.6</ele>
        <time>2022-09-12T06:06:40Z</time>
      </trkpt>
      <trkpt lat="42.212495" lon="9.001597">
        <ele>2050.8</ele>
        <time>2022-09-12T06:06:41Z</time>
      </trkpt>
      <trkpt lat="42.212497" lon="9.001673">
        <ele>2051.8</ele>
        <time>2022-09-12T06:06:49Z</time>
      </trkpt>
      <trkpt lat="42.212512" lon="9.001845">
        <ele>2053.0</ele>
        <time>2022-09-12T06:07:12Z</time>
      </trkpt>
      <trkpt lat="42.212518" lon="9.0019">
        <ele>2053.2</ele>
        <time>2022-09-12T06:07:15Z</time>
      </trkpt>
      <trkpt lat="42.212515" lon="9.001975">
        <ele>2053.8</ele>
        <time>2022-09-12T06:07:20Z</time>
      </trkpt>
      <trkpt lat="42.212545" lon="9.002152">
        <ele>2057.0</ele>
        <time>2022-09-12T06:07:46Z</time>
      </trkpt>
      <trkpt lat="42.21255" lon="9.002192">
        <ele>2057.2</ele>
        <time>2022-09-12T06:07:50Z</time>
      </trkpt>
      <trkpt lat="42.212522" lon="9.002222">
        <ele>2057.6</ele>
        <time>2022-09-12T06:07:57Z</time>
      </trkpt>
      <trkpt lat="42.212493" lon="9.002268">
        <ele>2058.2</ele>
        <time>2022-09-12T06:08:04Z</time>
      </trkpt>
      <trkpt lat="42.212482" lon="9.002303">
        <ele>2060.0</ele>
        <time>2022-09-12T06:08:14Z</time>
      </trkpt>
      <trkpt lat="42.212465" lon="9.002365">
        <ele>2061.6</ele>
        <time>2022-09-12T06:08:26Z</time>
      </trkpt>
      <trkpt lat="42.212462" lon="9.002368">
        <ele>2062.0</ele>
        <time>2022-09-12T06:08:28Z</time>
      </trkpt>
      <trkpt lat="42.212528" lon="9.00259">
        <ele>2066.6</ele>
        <time>2022-09-12T06:09:10Z</time>
      </trkpt>
      <trkpt lat="42.212272" lon="9.002472">
        <ele>2067.6</ele>
        <time>2022-09-12T06:09:20Z</time>
      </trkpt>
      <trkpt lat="42.212047" lon="9.00264">
        <ele>2074.6</ele>
        <time>2022-09-12T06:11:19Z</time>
      </trkpt>
      <trkpt lat="42.212118" lon="9.002757">
        <ele>2078.0</ele>
        <time>2022-09-12T06:12:04Z</time>
      </trkpt>
      <trkpt lat="42.212093" lon="9.002812">
        <ele>2079.8</ele>
        <time>2022-09-12T06:12:24Z</time>
      </trkpt>
      <trkpt lat="42.212057" lon="9.00285">
        <ele>2080.6</ele>
        <time>2022-09-12T06:12:31Z</time>
      </trkpt>
      <trkpt lat="42.21206" lon="9.002903">
        <ele>2083.6</ele>
        <time>2022-09-12T06:12:56Z</time>
      </trkpt>
      <trkpt lat="42.212062" lon="9.002937">
        <ele>2084.0</ele>
        <time>2022-09-12T06:13:04Z</time>
      </trkpt>
      <trkpt lat="42.212095" lon="9.003053">
        <ele>2089.2</ele>
        <time>2022-09-12T06:13:36Z</time>
      </trkpt>
      <trkpt lat="42.212057" lon="9.003048">
        <ele>2090.0</ele>
        <time>2022-09-12T06:13:41Z</time>
      </trkpt>
      <trkpt lat="42.211985" lon="9.003113">
        <ele>2091.4</ele>
        <time>2022-09-12T06:13:53Z</time>
      </trkpt>
      <trkpt lat="42.211953" lon="9.003112">
        <ele>2092.0</ele>
        <time>2022-09-12T06:14:01Z</time>
      </trkpt>
      <trkpt lat="42.211882" lon="9.003188">
        <ele>2094.4</ele>
        <time>2022-09-12T06:14:21Z</time>
      </trkpt>
      <trkpt lat="42.211857" lon="9.003187">
        <ele>2095.0</ele>
        <time>2022-09-12T06:14:24Z</time>
      </trkpt>
      <trkpt lat="42.211812" lon="9.003213">
        <ele>2096.8</ele>
        <time>2022-09-12T06:14:33Z</time>
      </trkpt>
      <trkpt lat="42.211807" lon="9.00322">
        <ele>2096.8</ele>
        <time>2022-09-12T06:14:34Z</time>
      </trkpt>
      <trkpt lat="42.211895" lon="9.003365">
        <ele>2103.2</ele>
        <time>2022-09-12T06:15:26Z</time>
      </trkpt>
      <trkpt lat="42.211927" lon="9.003377">
        <ele>2104.0</ele>
        <time>2022-09-12T06:15:38Z</time>
      </trkpt>
      <trkpt lat="42.211948" lon="9.003522">
        <ele>2107.4</ele>
        <time>2022-09-12T06:15:54Z</time>
      </trkpt>
      <trkpt lat="42.211947" lon="9.00353">
        <ele>2107.4</ele>
        <time>2022-09-12T06:15:55Z</time>
      </trkpt>
      <trkpt lat="42.212002" lon="9.00358">
        <ele>2110.2</ele>
        <time>2022-09-12T06:16:22Z</time>
      </trkpt>
      <trkpt lat="42.212012" lon="9.003608">
        <ele>2110.6</ele>
        <time>2022-09-12T06:16:33Z</time>
      </trkpt>
      <trkpt lat="42.212047" lon="9.003623">
        <ele>2113.6</ele>
        <time>2022-09-12T06:16:55Z</time>
      </trkpt>
      <trkpt lat="42.212047" lon="9.003657">
        <ele>2116.6</ele>
        <time>2022-09-12T06:17:16Z</time>
      </trkpt>
      <trkpt lat="42.212038" lon="9.003662">
        <ele>2117.0</ele>
        <time>2022-09-12T06:17:17Z</time>
      </trkpt>
      <trkpt lat="42.211963" lon="9.003688">
        <ele>2118.2</ele>
        <time>2022-09-12T06:17:25Z</time>
      </trkpt>
      <trkpt lat="42.211923" lon="9.003723">
        <ele>2118.8</ele>
        <time>2022-09-12T06:17:29Z</time>
      </trkpt>
      <trkpt lat="42.211807" lon="9.003767">
        <ele>2119.2</ele>
        <time>2022-09-12T06:17:43Z</time>
      </trkpt>
      <trkpt lat="42.211782" lon="9.00381">
        <ele>2120.4</ele>
        <time>2022-09-12T06:17:54Z</time>
      </trkpt>
      <trkpt lat="42.211785" lon="9.00386">
        <ele>2120.6</ele>
        <time>2022-09-12T06:18:00Z</time>
      </trkpt>
      <trkpt lat="42.211793" lon="9.003882">
        <ele>2120.8</ele>
        <time>2022-09-12T06:18:03Z</time>
      </trkpt>
      <trkpt lat="42.211797" lon="9.003882">
        <ele>2120.8</ele>
        <time>2022-09-12T06:18:03Z</time>
      </trkpt>
      <trkpt lat="42.211852" lon="9.003868">
        <ele>2123.0</ele>
        <time>2022-09-12T06:18:18Z</time>
      </trkpt>
      <trkpt lat="42.211907" lon="9.004002">
        <ele>2129.8</ele>
        <time>2022-09-12T06:19:16Z</time>
      </trkpt>
      <trkpt lat="42.211907" lon="9.004063">
        <ele>2131.4</ele>
        <time>2022-09-12T06:19:32Z</time>
      </trkpt>
      <trkpt lat="42.211917" lon="9.004092">
        <ele>2134.2</ele>
        <time>2022-09-12T06:19:53Z</time>
      </trkpt>
      <trkpt lat="42.211895" lon="9.004167">
        <ele>2135.2</ele>
        <time>2022-09-12T06:20:00Z</time>
      </trkpt>
      <trkpt lat="42.211913" lon="9.004202">
        <ele>2136.6</ele>
        <time>2022-09-12T06:20:07Z</time>
      </trkpt>
      <trkpt lat="42.211947" lon="9.004233">
        <ele>2138.0</ele>
        <time>2022-09-12T06:20:23Z</time>
      </trkpt>
      <trkpt lat="42.211942" lon="9.00426">
        <ele>2140.4</ele>
        <time>2022-09-12T06:20:43Z</time>
      </trkpt>
      <trkpt lat="42.211908" lon="9.004285">
        <ele>2141.8</ele>
        <time>2022-09-12T06:20:53Z</time>
      </trkpt>
      <trkpt lat="42.211883" lon="9.00431">
        <ele>2142.6</ele>
        <time>2022-09-12T06:21:00Z</time>
      </trkpt>
      <trkpt lat="42.211873" lon="9.004347">
        <ele>2143.6</ele>
        <time>2022-09-12T06:21:08Z</time>
      </trkpt>
      <trkpt lat="42.21187" lon="9.004382">
        <ele>2145.2</ele>
        <time>2022-09-12T06:21:18Z</time>
      </trkpt>
      <trkpt lat="42.211857" lon="9.004417">
        <ele>2146.8</ele>
        <time>2022-09-12T06:21:27Z</time>
      </trkpt>
      <trkpt lat="42.21185" lon="9.00449">
        <ele>2150.6</ele>
        <time>2022-09-12T06:22:06Z</time>
      </trkpt>
      <trkpt lat="42.211868" lon="9.004518">
        <ele>2152.2</ele>
        <time>2022-09-12T06:22:22Z</time>
      </trkpt>
      <trkpt lat="42.211823" lon="9.004527">
        <ele>2155.2</ele>
        <time>2022-09-12T06:22:58Z</time>
      </trkpt>
      <trkpt lat="42.211813" lon="9.004528">
        <ele>2155.2</ele>
        <time>2022-09-12T06:22:59Z</time>
      </trkpt>
      <trkpt lat="42.211792" lon="9.004632">
        <ele>2157.4</ele>
        <time>2022-09-12T06:23:14Z</time>
      </trkpt>
      <trkpt lat="42.211787" lon="9.004648">
        <ele>2158.0</ele>
        <time>2022-09-12T06:23:17Z</time>
      </trkpt>
      <trkpt lat="42.211787" lon="9.004732">
        <ele>2159.8</ele>
        <time>2022-09-12T06:23:37Z</time>
      </trkpt>
      <trkpt lat="42.211805" lon="9.00482">
        <ele>2166.2</ele>
        <time>2022-09-12T06:24:17Z</time>
      </trkpt>
      <trkpt lat="42.211772" lon="9.004897">
        <ele>2167.8</ele>
        <time>2022-09-12T06:24:35Z</time>
      </trkpt>
      <trkpt lat="42.211715" lon="9.004985">
        <ele>2169.2</ele>
        <time>2022-09-12T06:24:44Z</time>
      </trkpt>
      <trkpt lat="42.211718" lon="9.00507">
        <ele>2171.0</ele>
        <time>2022-09-12T06:24:52Z</time>
      </trkpt>
      <trkpt lat="42.211723" lon="9.005123">
        <ele>2172.4</ele>
        <time>2022-09-12T06:25:03Z</time>
      </trkpt>
      <trkpt lat="42.211715" lon="9.005135">
        <ele>2172.8</ele>
        <time>2022-09-12T06:25:06Z</time>
      </trkpt>
      <trkpt lat="42.211728" lon="9.005218">
        <ele>2174.0</ele>
        <time>2022-09-12T06:25:17Z</time>
      </trkpt>
      <trkpt lat="42.211732" lon="9.005227">
        <ele>2174.0</ele>
        <time>2022-09-12T06:25:17Z</time>
      </trkpt>
      <trkpt lat="42.211728" lon="9.005277">
        <ele>2175.2</ele>
        <time>2022-09-12T06:25:25Z</time>
      </trkpt>
      <trkpt lat="42.211705" lon="9.005348">
        <ele>2183.4</ele>
        <time>2022-09-12T06:26:09Z</time>
      </trkpt>
      <trkpt lat="42.211747" lon="9.005407">
        <ele>2184.8</ele>
        <time>2022-09-12T06:26:19Z</time>
      </trkpt>
      <trkpt lat="42.211732" lon="9.005433">
        <ele>2185.4</ele>
        <time>2022-09-12T06:26:22Z</time>
      </trkpt>
      <trkpt lat="42.211692" lon="9.005468">
        <ele>2187.0</ele>
        <time>2022-09-12T06:26:28Z</time>
      </trkpt>
      <trkpt lat="42.211667" lon="9.005513">
        <ele>2188.2</ele>
        <time>2022-09-12T06:26:33Z</time>
      </trkpt>
      <trkpt lat="42.211725" lon="9.005547">
        <ele>2189.4</ele>
        <time>2022-09-12T06:26:40Z</time>
      </trkpt>
      <trkpt lat="42.21173" lon="9.005592">
        <ele>2190.2</ele>
        <time>2022-09-12T06:26:46Z</time>
      </trkpt>
      <trkpt lat="42.211702" lon="9.005653">
        <ele>2191.4</ele>
        <time>2022-09-12T06:26:53Z</time>
      </trkpt>
      <trkpt lat="42.211702" lon="9.005705">
        <ele>2192.6</ele>
        <time>2022-09-12T06:26:59Z</time>
      </trkpt>
      <trkpt lat="42.211682" lon="9.005765">
        <ele>2195.6</ele>
        <time>2022-09-12T06:27:13Z</time>
      </trkpt>
      <trkpt lat="42.2117" lon="9.005798">
        <ele>2196.8</ele>
        <time>2022-09-12T06:27:20Z</time>
      </trkpt>
      <trkpt lat="42.21174" lon="9.005838">
        <ele>2198.6</ele>
        <time>2022-09-12T06:27:30Z</time>
      </trkpt>
      <trkpt lat="42.211745" lon="9.005853">
        <ele>2198.8</ele>
        <time>2022-09-12T06:27:33Z</time>
      </trkpt>
      <trkpt lat="42.211702" lon="9.005947">
        <ele>2200.2</ele>
        <time>2022-09-12T06:27:45Z</time>
      </trkpt>
      <trkpt lat="42.211687" lon="9.005997">
        <ele>2201.2</ele>
        <time>2022-09-12T06:27:51Z</time>
      </trkpt>
      <trkpt lat="42.211637" lon="9.00588">
        <ele>2202.4</ele>
        <time>2022-09-12T06:27:59Z</time>
      </trkpt>
      <trkpt lat="42.2116" lon="9.005885">
        <ele>2203.2</ele>
        <time>2022-09-12T06:28:04Z</time>
      </trkpt>
      <trkpt lat="42.211683" lon="9.005985">
        <ele>2204.8</ele>
        <time>2022-09-12T06:28:15Z</time>
      </trkpt>
      <trkpt lat="42.211668" lon="9.006052">
        <ele>2205.8</ele>
        <time>2022-09-12T06:28:22Z</time>
      </trkpt>
      <trkpt lat="42.211625" lon="9.006178">
        <ele>2207.6</ele>
        <time>2022-09-12T06:28:31Z</time>
      </trkpt>
      <trkpt lat="42.211625" lon="9.006365">
        <ele>2209.6</ele>
        <time>2022-09-12T06:28:42Z</time>
      </trkpt>
      <trkpt lat="42.211628" lon="9.006412">
        <ele>2210.6</ele>
        <time>2022-09-12T06:28:47Z</time>
      </trkpt>
      <trkpt lat="42.211602" lon="9.00637">
        <ele>2211.6</ele>
        <time>2022-09-12T06:28:51Z</time>
      </trkpt>
      <trkpt lat="42.211593" lon="9.005885">
        <ele>2215.4</ele>
        <time>2022-09-12T06:31:13Z</time>
      </trkpt>
      <trkpt lat="42.211558" lon="9.005855">
        <ele>2215.2</ele>
        <time>2022-09-12T06:31:21Z</time>
      </trkpt>
      <trkpt lat="42.211487" lon="9.005665">
        <ele>2215.4</ele>
        <time>2022-09-12T06:31:45Z</time>
      </trkpt>
      <trkpt lat="42.211502" lon="9.005665">
        <ele>2215.2</ele>
        <time>2022-09-12T06:31:50Z</time>
      </trkpt>
      <trkpt lat="42.211583" lon="9.005673">
        <ele>2214.4</ele>
        <time>2022-09-12T06:32:53Z</time>
      </trkpt>
      <trkpt lat="42.211612" lon="9.00567">
        <ele>2214.4</ele>
        <time>2022-09-12T06:32:58Z</time>
      </trkpt>
      <trkpt lat="42.211643" lon="9.00568">
        <ele>2214.2</ele>
        <time>2022-09-12T06:33:08Z</time>
      </trkpt>
      <trkpt lat="42.21176" lon="9.005712">
        <ele>2214.4</ele>
        <time>2022-09-12T06:34:08Z</time>
      </trkpt>
      <trkpt lat="42.211817" lon="9.005952">
        <ele>2215.8</ele>
        <time>2022-09-12T06:43:57Z</time>
      </trkpt>
      <trkpt lat="42.211782" lon="9.005972">
        <ele>2215.6</ele>
        <time>2022-09-12T06:44:15Z</time>
      </trkpt>
      <trkpt lat="42.211743" lon="9.005987">
        <ele>2215.6</ele>
        <time>2022-09-12T06:44:22Z</time>
      </trkpt>
      <trkpt lat="42.211688" lon="9.005988">
        <ele>2215.8</ele>
        <time>2022-09-12T06:44:38Z</time>
      </trkpt>
      <trkpt lat="42.211685" lon="9.005987">
        <ele>2215.8</ele>
        <time>2022-09-12T06:44:38Z</time>
      </trkpt>
      <trkpt lat="42.211618" lon="9.00595">
        <ele>2216.0</ele>
        <time>2022-09-12T06:45:08Z</time>
      </trkpt>
      <trkpt lat="42.21156" lon="9.005952">
        <ele>2215.6</ele>
        <time>2022-09-12T06:45:47Z</time>
      </trkpt>
      <trkpt lat="42.211558" lon="9.005987">
        <ele>2215.6</ele>
        <time>2022-09-12T06:45:54Z</time>
      </trkpt>
      <trkpt lat="42.211483" lon="9.006015">
        <ele>2216.0</ele>
        <time>2022-09-12T06:47:00Z</time>
      </trkpt>
      <trkpt lat="42.21125" lon="9.006118">
        <ele>2216.8</ele>
        <time>2022-09-12T06:48:45Z</time>
      </trkpt>
      <trkpt lat="42.211175" lon="9.00613">
        <ele>2219.0</ele>
        <time>2022-09-12T06:54:20Z</time>
      </trkpt>
      <trkpt lat="42.211278" lon="9.00602">
        <ele>2219.0</ele>
        <time>2022-09-12T06:54:55Z</time>
      </trkpt>
      <trkpt lat="42.211622" lon="9.005902">
        <ele>2219.4</ele>
        <time>2022-09-12T07:03:28Z</time>
      </trkpt>
      <trkpt lat="42.211622" lon="9.005947">
        <ele>2219.6</ele>
        <time>2022-09-12T07:04:12Z</time>
      </trkpt>
      <trkpt lat="42.211625" lon="9.005968">
        <ele>2219.6</ele>
        <time>2022-09-12T07:04:15Z</time>
      </trkpt>
      <trkpt lat="42.211512" lon="9.006053">
        <ele>2213.6</ele>
        <time>2022-09-12T07:06:24Z</time>
      </trkpt>
      <trkpt lat="42.211448" lon="9.00613">
        <ele>2212.4</ele>
        <time>2022-09-12T07:06:33Z</time>
      </trkpt>
      <trkpt lat="42.21138" lon="9.006132">
        <ele>2211.8</ele>
        <time>2022-09-12T07:06:40Z</time>
      </trkpt>
      <trkpt lat="42.211338" lon="9.00623">
        <ele>2210.2</ele>
        <time>2022-09-12T07:06:50Z</time>
      </trkpt>
      <trkpt lat="42.211332" lon="9.006238">
        <ele>2210.0</ele>
        <time>2022-09-12T07:06:51Z</time>
      </trkpt>
      <trkpt lat="42.211328" lon="9.006293">
        <ele>2208.4</ele>
        <time>2022-09-12T07:06:59Z</time>
      </trkpt>
      <trkpt lat="42.21131" lon="9.006315">
        <ele>2207.6</ele>
        <time>2022-09-12T07:07:03Z</time>
      </trkpt>
      <trkpt lat="42.211252" lon="9.006343">
        <ele>2208.0</ele>
        <time>2022-09-12T07:07:14Z</time>
      </trkpt>
      <trkpt lat="42.211202" lon="9.006382">
        <ele>2208.4</ele>
        <time>2022-09-12T07:07:25Z</time>
      </trkpt>
      <trkpt lat="42.211155" lon="9.006427">
        <ele>2207.6</ele>
        <time>2022-09-12T07:07:38Z</time>
      </trkpt>
      <trkpt lat="42.211075" lon="9.006493">
        <ele>2206.4</ele>
        <time>2022-09-12T07:07:56Z</time>
      </trkpt>
      <trkpt lat="42.21104" lon="9.006522">
        <ele>2205.2</ele>
        <time>2022-09-12T07:08:05Z</time>
      </trkpt>
      <trkpt lat="42.211035" lon="9.006525">
        <ele>2205.2</ele>
        <time>2022-09-12T07:08:05Z</time>
      </trkpt>
      <trkpt lat="42.210987" lon="9.006612">
        <ele>2203.0</ele>
        <time>2022-09-12T07:08:17Z</time>
      </trkpt>
      <trkpt lat="42.210897" lon="9.006723">
        <ele>2200.6</ele>
        <time>2022-09-12T07:08:32Z</time>
      </trkpt>
      <trkpt lat="42.210828" lon="9.006773">
        <ele>2198.2</ele>
        <time>2022-09-12T07:08:42Z</time>
      </trkpt>
      <trkpt lat="42.210765" lon="9.006858">
        <ele>2197.0</ele>
        <time>2022-09-12T07:08:53Z</time>
      </trkpt>
      <trkpt lat="42.210718" lon="9.006885">
        <ele>2196.6</ele>
        <time>2022-09-12T07:09:00Z</time>
      </trkpt>
      <trkpt lat="42.210645" lon="9.006883">
        <ele>2196.0</ele>
        <time>2022-09-12T07:09:10Z</time>
      </trkpt>
      <trkpt lat="42.210598" lon="9.00686">
        <ele>2196.2</ele>
        <time>2022-09-12T07:09:17Z</time>
      </trkpt>
      <trkpt lat="42.210487" lon="9.006872">
        <ele>2196.0</ele>
        <time>2022-09-12T07:09:37Z</time>
      </trkpt>
      <trkpt lat="42.210448" lon="9.00686">
        <ele>2195.2</ele>
        <time>2022-09-12T07:09:43Z</time>
      </trkpt>
      <trkpt lat="42.210418" lon="9.006892">
        <ele>2194.4</ele>
        <time>2022-09-12T07:09:48Z</time>
      </trkpt>
      <trkpt lat="42.210368" lon="9.006922">
        <ele>2194.4</ele>
        <time>2022-09-12T07:09:55Z</time>
      </trkpt>
      <trkpt lat="42.210347" lon="9.00699">
        <ele>2195.2</ele>
        <time>2022-09-12T07:10:01Z</time>
      </trkpt>
      <trkpt lat="42.21033" lon="9.007022">
        <ele>2194.8</ele>
        <time>2022-09-12T07:10:05Z</time>
      </trkpt>
      <trkpt lat="42.210267" lon="9.00708">
        <ele>2194.6</ele>
        <time>2022-09-12T07:10:14Z</time>
      </trkpt>
      <trkpt lat="42.210258" lon="9.007082">
        <ele>2194.6</ele>
        <time>2022-09-12T07:10:15Z</time>
      </trkpt>
      <trkpt lat="42.210215" lon="9.007078">
        <ele>2194.6</ele>
        <time>2022-09-12T07:10:20Z</time>
      </trkpt>
      <trkpt lat="42.210125" lon="9.007102">
        <ele>2194.0</ele>
        <time>2022-09-12T07:10:31Z</time>
      </trkpt>
      <trkpt lat="42.210088" lon="9.007118">
        <ele>2193.0</ele>
        <time>2022-09-12T07:10:36Z</time>
      </trkpt>
      <trkpt lat="42.210012" lon="9.00709">
        <ele>2191.0</ele>
        <time>2022-09-12T07:10:46Z</time>
      </trkpt>
      <trkpt lat="42.209985" lon="9.007095">
        <ele>2188.2</ele>
        <time>2022-09-12T07:10:58Z</time>
      </trkpt>
      <trkpt lat="42.209957" lon="9.007143">
        <ele>2186.8</ele>
        <time>2022-09-12T07:11:03Z</time>
      </trkpt>
      <trkpt lat="42.20991" lon="9.007208">
        <ele>2186.6</ele>
        <time>2022-09-12T07:11:10Z</time>
      </trkpt>
      <trkpt lat="42.209893" lon="9.007288">
        <ele>2186.0</ele>
        <time>2022-09-12T07:11:19Z</time>
      </trkpt>
      <trkpt lat="42.209905" lon="9.007443">
        <ele>2182.8</ele>
        <time>2022-09-12T07:11:33Z</time>
      </trkpt>
      <trkpt lat="42.209903" lon="9.007455">
        <ele>2182.8</ele>
        <time>2022-09-12T07:11:34Z</time>
      </trkpt>
      <trkpt lat="42.209862" lon="9.007512">
        <ele>2181.2</ele>
        <time>2022-09-12T07:11:40Z</time>
      </trkpt>
      <trkpt lat="42.209793" lon="9.007542">
        <ele>2179.8</ele>
        <time>2022-09-12T07:11:47Z</time>
      </trkpt>
      <trkpt lat="42.209752" lon="9.00756">
        <ele>2178.4</ele>
        <time>2022-09-12T07:11:52Z</time>
      </trkpt>
      <trkpt lat="42.209693" lon="9.007607">
        <ele>2177.0</ele>
        <time>2022-09-12T07:11:58Z</time>
      </trkpt>
      <trkpt lat="42.209627" lon="9.007622">
        <ele>2176.0</ele>
        <time>2022-09-12T07:12:04Z</time>
      </trkpt>
      <trkpt lat="42.209505" lon="9.007718">
        <ele>2174.4</ele>
        <time>2022-09-12T07:12:17Z</time>
      </trkpt>
      <trkpt lat="42.209493" lon="9.007725">
        <ele>2174.4</ele>
        <time>2022-09-12T07:12:18Z</time>
      </trkpt>
      <trkpt lat="42.209455" lon="9.007793">
        <ele>2174.2</ele>
        <time>2022-09-12T07:12:26Z</time>
      </trkpt>
      <trkpt lat="42.209432" lon="9.007847">
        <ele>2174.2</ele>
        <time>2022-09-12T07:12:32Z</time>
      </trkpt>
      <trkpt lat="42.209402" lon="9.007903">
        <ele>2174.4</ele>
        <time>2022-09-12T07:12:40Z</time>
      </trkpt>
      <trkpt lat="42.20937" lon="9.007955">
        <ele>2173.2</ele>
        <time>2022-09-12T07:13:00Z</time>
      </trkpt>
      <trkpt lat="42.209342" lon="9.00801">
        <ele>2172.6</ele>
        <time>2022-09-12T07:13:07Z</time>
      </trkpt>
      <trkpt lat="42.209338" lon="9.00802">
        <ele>2171.2</ele>
        <time>2022-09-12T07:13:12Z</time>
      </trkpt>
      <trkpt lat="42.209323" lon="9.008135">
        <ele>2166.8</ele>
        <time>2022-09-12T07:13:31Z</time>
      </trkpt>
      <trkpt lat="42.209345" lon="9.008265">
        <ele>2164.8</ele>
        <time>2022-09-12T07:13:40Z</time>
      </trkpt>
      <trkpt lat="42.209012" lon="9.00845">
        <ele>2163.0</ele>
        <time>2022-09-12T07:13:50Z</time>
      </trkpt>
      <trkpt lat="42.209012" lon="9.008503">
        <ele>2163.0</ele>
        <time>2022-09-12T07:13:50Z</time>
      </trkpt>
      <trkpt lat="42.209047" lon="9.008523">
        <ele>2162.2</ele>
        <time>2022-09-12T07:13:56Z</time>
      </trkpt>
      <trkpt lat="42.209102" lon="9.00855">
        <ele>2161.4</ele>
        <time>2022-09-12T07:14:01Z</time>
      </trkpt>
      <trkpt lat="42.209113" lon="9.008577">
        <ele>2160.6</ele>
        <time>2022-09-12T07:14:03Z</time>
      </trkpt>
      <trkpt lat="42.209147" lon="9.008712">
        <ele>2160.0</ele>
        <time>2022-09-12T07:14:14Z</time>
      </trkpt>
      <trkpt lat="42.20918" lon="9.008727">
        <ele>2158.0</ele>
        <time>2022-09-12T07:14:28Z</time>
      </trkpt>
      <trkpt lat="42.209262" lon="9.00867">
        <ele>2157.2</ele>
        <time>2022-09-12T07:15:28Z</time>
      </trkpt>
      <trkpt lat="42.209257" lon="9.008627">
        <ele>2157.0</ele>
        <time>2022-09-12T07:15:38Z</time>
      </trkpt>
      <trkpt lat="42.209222" lon="9.00861">
        <ele>2156.6</ele>
        <time>2022-09-12T07:15:49Z</time>
      </trkpt>
      <trkpt lat="42.208988" lon="9.00861">
        <ele>2147.4</ele>
        <time>2022-09-12T07:17:17Z</time>
      </trkpt>
      <trkpt lat="42.209045" lon="9.008823">
        <ele>2135.4</ele>
        <time>2022-09-12T07:18:37Z</time>
      </trkpt>
      <trkpt lat="42.209038" lon="9.008838">
        <ele>2134.4</ele>
        <time>2022-09-12T07:18:44Z</time>
      </trkpt>
      <trkpt lat="42.208943" lon="9.0092">
        <ele>2133.4</ele>
        <time>2022-09-12T07:18:58Z</time>
      </trkpt>
      <trkpt lat="42.208932" lon="9.00921">
        <ele>2133.4</ele>
        <time>2022-09-12T07:18:58Z</time>
      </trkpt>
      <trkpt lat="42.20877" lon="9.009318">
        <ele>2133.6</ele>
        <time>2022-09-12T07:19:14Z</time>
      </trkpt>
      <trkpt lat="42.208727" lon="9.00936">
        <ele>2135.2</ele>
        <time>2022-09-12T07:19:34Z</time>
      </trkpt>
      <trkpt lat="42.208703" lon="9.009353">
        <ele>2135.4</ele>
        <time>2022-09-12T07:19:50Z</time>
      </trkpt>
      <trkpt lat="42.208703" lon="9.009358">
        <ele>2135.0</ele>
        <time>2022-09-12T07:19:51Z</time>
      </trkpt>
      <trkpt lat="42.208692" lon="9.009427">
        <ele>2134.2</ele>
        <time>2022-09-12T07:19:57Z</time>
      </trkpt>
      <trkpt lat="42.208657" lon="9.009422">
        <ele>2133.0</ele>
        <time>2022-09-12T07:20:03Z</time>
      </trkpt>
      <trkpt lat="42.208615" lon="9.009373">
        <ele>2131.8</ele>
        <time>2022-09-12T07:20:15Z</time>
      </trkpt>
      <trkpt lat="42.208563" lon="9.009452">
        <ele>2128.4</ele>
        <time>2022-09-12T07:20:36Z</time>
      </trkpt>
      <trkpt lat="42.208508" lon="9.009505">
        <ele>2125.6</ele>
        <time>2022-09-12T07:20:56Z</time>
      </trkpt>
      <trkpt lat="42.20844" lon="9.009497">
        <ele>2125.4</ele>
        <time>2022-09-12T07:21:02Z</time>
      </trkpt>
      <trkpt lat="42.208432" lon="9.009517">
        <ele>2125.4</ele>
        <time>2022-09-12T07:21:02Z</time>
      </trkpt>
      <trkpt lat="42.208477" lon="9.009655">
        <ele>2124.8</ele>
        <time>2022-09-12T07:21:08Z</time>
      </trkpt>
      <trkpt lat="42.208517" lon="9.00973">
        <ele>2123.6</ele>
        <time>2022-09-12T07:21:14Z</time>
      </trkpt>
      <trkpt lat="42.20855" lon="9.009713">
        <ele>2123.4</ele>
        <time>2022-09-12T07:21:18Z</time>
      </trkpt>
      <trkpt lat="42.20861" lon="9.00975">
        <ele>2123.0</ele>
        <time>2022-09-12T07:21:27Z</time>
      </trkpt>
      <trkpt lat="42.208617" lon="9.009783">
        <ele>2122.6</ele>
        <time>2022-09-12T07:21:30Z</time>
      </trkpt>
      <trkpt lat="42.208607" lon="9.009855">
        <ele>2121.2</ele>
        <time>2022-09-12T07:21:35Z</time>
      </trkpt>
      <trkpt lat="42.208635" lon="9.010047">
        <ele>2116.6</ele>
        <time>2022-09-12T07:21:52Z</time>
      </trkpt>
      <trkpt lat="42.208635" lon="9.010055">
        <ele>2116.2</ele>
        <time>2022-09-12T07:21:53Z</time>
      </trkpt>
      <trkpt lat="42.208623" lon="9.010098">
        <ele>2114.6</ele>
        <time>2022-09-12T07:22:00Z</time>
      </trkpt>
      <trkpt lat="42.208577" lon="9.010158">
        <ele>2110.0</ele>
        <time>2022-09-12T07:22:17Z</time>
      </trkpt>
      <trkpt lat="42.208528" lon="9.010245">
        <ele>2105.0</ele>
        <time>2022-09-12T07:22:35Z</time>
      </trkpt>
      <trkpt lat="42.208528" lon="9.010253">
        <ele>2104.6</ele>
        <time>2022-09-12T07:22:38Z</time>
      </trkpt>
      <trkpt lat="42.208547" lon="9.010355">
        <ele>2105.2</ele>
        <time>2022-09-12T07:22:49Z</time>
      </trkpt>
      <trkpt lat="42.20856" lon="9.010453">
        <ele>2105.2</ele>
        <time>2022-09-12T07:22:58Z</time>
      </trkpt>
      <trkpt lat="42.20857" lon="9.010523">
        <ele>2105.0</ele>
        <time>2022-09-12T07:23:05Z</time>
      </trkpt>
      <trkpt lat="42.208588" lon="9.01058">
        <ele>2104.8</ele>
        <time>2022-09-12T07:23:11Z</time>
      </trkpt>
      <trkpt lat="42.208595" lon="9.010772">
        <ele>2102.8</ele>
        <time>2022-09-12T07:23:29Z</time>
      </trkpt>
      <trkpt lat="42.208568" lon="9.010795">
        <ele>2103.2</ele>
        <time>2022-09-12T07:23:34Z</time>
      </trkpt>
      <trkpt lat="42.208582" lon="9.010903">
        <ele>2103.8</ele>
        <time>2022-09-12T07:23:47Z</time>
      </trkpt>
      <trkpt lat="42.208588" lon="9.010913">
        <ele>2103.8</ele>
        <time>2022-09-12T07:23:47Z</time>
      </trkpt>
      <trkpt lat="42.20859" lon="9.010927">
        <ele>2103.8</ele>
        <time>2022-09-12T07:23:48Z</time>
      </trkpt>
      <trkpt lat="42.208592" lon="9.011023">
        <ele>2102.8</ele>
        <time>2022-09-12T07:23:57Z</time>
      </trkpt>
      <trkpt lat="42.208582" lon="9.01106">
        <ele>2102.6</ele>
        <time>2022-09-12T07:24:00Z</time>
      </trkpt>
      <trkpt lat="42.208602" lon="9.01114">
        <ele>2102.0</ele>
        <time>2022-09-12T07:24:07Z</time>
      </trkpt>
      <trkpt lat="42.208612" lon="9.011207">
        <ele>2101.8</ele>
        <time>2022-09-12T07:24:17Z</time>
      </trkpt>
      <trkpt lat="42.20863" lon="9.011257">
        <ele>2100.6</ele>
        <time>2022-09-12T07:24:30Z</time>
      </trkpt>
      <trkpt lat="42.208632" lon="9.01126">
        <ele>2099.6</ele>
        <time>2022-09-12T07:24:34Z</time>
      </trkpt>
      <trkpt lat="42.20855" lon="9.011197">
        <ele>2097.2</ele>
        <time>2022-09-12T07:24:59Z</time>
      </trkpt>
      <trkpt lat="42.208447" lon="9.011227">
        <ele>2090.6</ele>
        <time>2022-09-12T07:25:36Z</time>
      </trkpt>
      <trkpt lat="42.208418" lon="9.011355">
        <ele>2084.0</ele>
        <time>2022-09-12T07:26:20Z</time>
      </trkpt>
      <trkpt lat="42.208398" lon="9.01126">
        <ele>2082.4</ele>
        <time>2022-09-12T07:26:48Z</time>
      </trkpt>
      <trkpt lat="42.208392" lon="9.011213">
        <ele>2083.0</ele>
        <time>2022-09-12T07:27:00Z</time>
      </trkpt>
      <trkpt lat="42.208413" lon="9.011203">
        <ele>2083.2</ele>
        <time>2022-09-12T07:27:03Z</time>
      </trkpt>
      <trkpt lat="42.208297" lon="9.011312">
        <ele>2086.2</ele>
        <time>2022-09-12T07:27:17Z</time>
      </trkpt>
      <trkpt lat="42.208292" lon="9.01145">
        <ele>2087.8</ele>
        <time>2022-09-12T07:27:29Z</time>
      </trkpt>
      <trkpt lat="42.208213" lon="9.011662">
        <ele>2087.8</ele>
        <time>2022-09-12T07:28:04Z</time>
      </trkpt>
      <trkpt lat="42.208212" lon="9.011705">
        <ele>2088.0</ele>
        <time>2022-09-12T07:28:12Z</time>
      </trkpt>
      <trkpt lat="42.208172" lon="9.011737">
        <ele>2089.6</ele>
        <time>2022-09-12T07:28:18Z</time>
      </trkpt>
      <trkpt lat="42.208083" lon="9.011748">
        <ele>2090.2</ele>
        <time>2022-09-12T07:28:28Z</time>
      </trkpt>
      <trkpt lat="42.20803" lon="9.0118">
        <ele>2091.4</ele>
        <time>2022-09-12T07:28:44Z</time>
      </trkpt>
      <trkpt lat="42.207973" lon="9.011822">
        <ele>2090.0</ele>
        <time>2022-09-12T07:28:55Z</time>
      </trkpt>
      <trkpt lat="42.207962" lon="9.01178">
        <ele>2089.4</ele>
        <time>2022-09-12T07:29:00Z</time>
      </trkpt>
      <trkpt lat="42.20792" lon="9.011755">
        <ele>2088.8</ele>
        <time>2022-09-12T07:29:04Z</time>
      </trkpt>
      <trkpt lat="42.20783" lon="9.011857">
        <ele>2088.0</ele>
        <time>2022-09-12T07:29:14Z</time>
      </trkpt>
      <trkpt lat="42.20782" lon="9.011862">
        <ele>2088.0</ele>
        <time>2022-09-12T07:29:15Z</time>
      </trkpt>
      <trkpt lat="42.207658" lon="9.011875">
        <ele>2081.4</ele>
        <time>2022-09-12T07:30:17Z</time>
      </trkpt>
      <trkpt lat="42.207668" lon="9.011882">
        <ele>2081.0</ele>
        <time>2022-09-12T07:30:19Z</time>
      </trkpt>
      <trkpt lat="42.208082" lon="9.012183">
        <ele>2073.0</ele>
        <time>2022-09-12T07:31:05Z</time>
      </trkpt>
      <trkpt lat="42.208077" lon="9.012183">
        <ele>2072.4</ele>
        <time>2022-09-12T07:31:08Z</time>
      </trkpt>
      <trkpt lat="42.20795" lon="9.012307">
        <ele>2068.2</ele>
        <time>2022-09-12T07:31:37Z</time>
      </trkpt>
      <trkpt lat="42.207953" lon="9.01237">
        <ele>2067.2</ele>
        <time>2022-09-12T07:31:49Z</time>
      </trkpt>
      <trkpt lat="42.20797" lon="9.012552">
        <ele>2070.8</ele>
        <time>2022-09-12T07:32:44Z</time>
      </trkpt>
      <trkpt lat="42.207985" lon="9.012582">
        <ele>2071.8</ele>
        <time>2022-09-12T07:32:48Z</time>
      </trkpt>
      <trkpt lat="42.207988" lon="9.012762">
        <ele>2075.6</ele>
        <time>2022-09-12T07:33:10Z</time>
      </trkpt>
      <trkpt lat="42.207968" lon="9.0127">
        <ele>2076.0</ele>
        <time>2022-09-12T07:33:15Z</time>
      </trkpt>
      <trkpt lat="42.208057" lon="9.012712">
        <ele>2076.8</ele>
        <time>2022-09-12T07:35:10Z</time>
      </trkpt>
      <trkpt lat="42.208103" lon="9.012878">
        <ele>2077.0</ele>
        <time>2022-09-12T07:35:30Z</time>
      </trkpt>
      <trkpt lat="42.208008" lon="9.013023">
        <ele>2075.2</ele>
        <time>2022-09-12T07:35:46Z</time>
      </trkpt>
      <trkpt lat="42.20796" lon="9.013102">
        <ele>2075.4</ele>
        <time>2022-09-12T07:35:54Z</time>
      </trkpt>
      <trkpt lat="42.207975" lon="9.013245">
        <ele>2076.2</ele>
        <time>2022-09-12T07:36:14Z</time>
      </trkpt>
      <trkpt lat="42.207922" lon="9.013227">
        <ele>2074.8</ele>
        <time>2022-09-12T07:36:25Z</time>
      </trkpt>
      <trkpt lat="42.207918" lon="9.01324">
        <ele>2074.0</ele>
        <time>2022-09-12T07:36:28Z</time>
      </trkpt>
      <trkpt lat="42.207917" lon="9.013332">
        <ele>2074.0</ele>
        <time>2022-09-12T07:36:35Z</time>
      </trkpt>
      <trkpt lat="42.207917" lon="9.013445">
        <ele>2075.0</ele>
        <time>2022-09-12T07:36:43Z</time>
      </trkpt>
      <trkpt lat="42.207893" lon="9.01357">
        <ele>2074.8</ele>
        <time>2022-09-12T07:36:51Z</time>
      </trkpt>
      <trkpt lat="42.20789" lon="9.013588">
        <ele>2074.8</ele>
        <time>2022-09-12T07:36:52Z</time>
      </trkpt>
      <trkpt lat="42.207798" lon="9.013727">
        <ele>2075.4</ele>
        <time>2022-09-12T07:37:18Z</time>
      </trkpt>
      <trkpt lat="42.207793" lon="9.01382">
        <ele>2076.0</ele>
        <time>2022-09-12T07:37:32Z</time>
      </trkpt>
      <trkpt lat="42.207788" lon="9.013878">
        <ele>2076.4</ele>
        <time>2022-09-12T07:37:41Z</time>
      </trkpt>
      <trkpt lat="42.207787" lon="9.013898">
        <ele>2076.6</ele>
        <time>2022-09-12T07:37:44Z</time>
      </trkpt>
      <trkpt lat="42.207757" lon="9.013965">
        <ele>2077.4</ele>
        <time>2022-09-12T07:37:55Z</time>
      </trkpt>
      <trkpt lat="42.207728" lon="9.013993">
        <ele>2077.4</ele>
        <time>2022-09-12T07:38:02Z</time>
      </trkpt>
      <trkpt lat="42.20769" lon="9.013988">
        <ele>2078.2</ele>
        <time>2022-09-12T07:38:08Z</time>
      </trkpt>
      <trkpt lat="42.20767" lon="9.01403">
        <ele>2078.6</ele>
        <time>2022-09-12T07:38:14Z</time>
      </trkpt>
      <trkpt lat="42.207615" lon="9.014188">
        <ele>2077.8</ele>
        <time>2022-09-12T07:38:39Z</time>
      </trkpt>
      <trkpt lat="42.207605" lon="9.014207">
        <ele>2077.8</ele>
        <time>2022-09-12T07:38:43Z</time>
      </trkpt>
      <trkpt lat="42.207582" lon="9.014275">
        <ele>2076.6</ele>
        <time>2022-09-12T07:39:05Z</time>
      </trkpt>
      <trkpt lat="42.20751" lon="9.01432">
        <ele>2076.6</ele>
        <time>2022-09-12T07:39:13Z</time>
      </trkpt>
      <trkpt lat="42.207468" lon="9.014415">
        <ele>2076.6</ele>
        <time>2022-09-12T07:39:19Z</time>
      </trkpt>
      <trkpt lat="42.207455" lon="9.01452">
        <ele>2076.4</ele>
        <time>2022-09-12T07:39:25Z</time>
      </trkpt>
      <trkpt lat="42.207445" lon="9.014572">
        <ele>2076.0</ele>
        <time>2022-09-12T07:39:31Z</time>
      </trkpt>
      <trkpt lat="42.207438" lon="9.01464">
        <ele>2076.2</ele>
        <time>2022-09-12T07:39:39Z</time>
      </trkpt>
      <trkpt lat="42.2074" lon="9.014788">
        <ele>2078.4</ele>
        <time>2022-09-12T07:39:59Z</time>
      </trkpt>
      <trkpt lat="42.207388" lon="9.01481">
        <ele>2078.6</ele>
        <time>2022-09-12T07:40:04Z</time>
      </trkpt>
      <trkpt lat="42.207353" lon="9.014848">
        <ele>2077.4</ele>
        <time>2022-09-12T07:40:13Z</time>
      </trkpt>
      <trkpt lat="42.207312" lon="9.01487">
        <ele>2075.2</ele>
        <time>2022-09-12T07:40:38Z</time>
      </trkpt>
      <trkpt lat="42.207288" lon="9.014957">
        <ele>2072.6</ele>
        <time>2022-09-12T07:41:11Z</time>
      </trkpt>
      <trkpt lat="42.207238" lon="9.01504">
        <ele>2068.0</ele>
        <time>2022-09-12T07:41:51Z</time>
      </trkpt>
      <trkpt lat="42.207158" lon="9.015162">
        <ele>2067.8</ele>
        <time>2022-09-12T07:42:00Z</time>
      </trkpt>
      <trkpt lat="42.207082" lon="9.015312">
        <ele>2067.6</ele>
        <time>2022-09-12T07:42:08Z</time>
      </trkpt>
      <trkpt lat="42.207005" lon="9.015313">
        <ele>2067.4</ele>
        <time>2022-09-12T07:42:13Z</time>
      </trkpt>
      <trkpt lat="42.206955" lon="9.015375">
        <ele>2067.0</ele>
        <time>2022-09-12T07:42:18Z</time>
      </trkpt>
      <trkpt lat="42.206923" lon="9.015453">
        <ele>2066.4</ele>
        <time>2022-09-12T07:42:22Z</time>
      </trkpt>
      <trkpt lat="42.206917" lon="9.015473">
        <ele>2066.4</ele>
        <time>2022-09-12T07:42:23Z</time>
      </trkpt>
      <trkpt lat="42.206903" lon="9.015518">
        <ele>2065.8</ele>
        <time>2022-09-12T07:42:27Z</time>
      </trkpt>
      <trkpt lat="42.20683" lon="9.015543">
        <ele>2064.8</ele>
        <time>2022-09-12T07:42:37Z</time>
      </trkpt>
      <trkpt lat="42.20681" lon="9.015578">
        <ele>2063.4</ele>
        <time>2022-09-12T07:42:44Z</time>
      </trkpt>
      <trkpt lat="42.206805" lon="9.015632">
        <ele>2062.2</ele>
        <time>2022-09-12T07:42:53Z</time>
      </trkpt>
      <trkpt lat="42.206797" lon="9.015658">
        <ele>2061.6</ele>
        <time>2022-09-12T07:42:58Z</time>
      </trkpt>
      <trkpt lat="42.206768" lon="9.015668">
        <ele>2060.8</ele>
        <time>2022-09-12T07:43:06Z</time>
      </trkpt>
      <trkpt lat="42.206757" lon="9.015702">
        <ele>2059.8</ele>
        <time>2022-09-12T07:43:12Z</time>
      </trkpt>
      <trkpt lat="42.206755" lon="9.015708">
        <ele>2059.6</ele>
        <time>2022-09-12T07:43:14Z</time>
      </trkpt>
      <trkpt lat="42.206713" lon="9.015723">
        <ele>2058.8</ele>
        <time>2022-09-12T07:43:21Z</time>
      </trkpt>
      <trkpt lat="42.206672" lon="9.015732">
        <ele>2057.2</ele>
        <time>2022-09-12T07:43:28Z</time>
      </trkpt>
      <trkpt lat="42.20656" lon="9.015822">
        <ele>2053.0</ele>
        <time>2022-09-12T07:43:49Z</time>
      </trkpt>
      <trkpt lat="42.206538" lon="9.015855">
        <ele>2052.0</ele>
        <time>2022-09-12T07:43:54Z</time>
      </trkpt>
      <trkpt lat="42.206525" lon="9.015825">
        <ele>2051.2</ele>
        <time>2022-09-12T07:44:00Z</time>
      </trkpt>
      <trkpt lat="42.206538" lon="9.01577">
        <ele>2051.0</ele>
        <time>2022-09-12T07:44:07Z</time>
      </trkpt>
      <trkpt lat="42.206522" lon="9.015742">
        <ele>2050.4</ele>
        <time>2022-09-12T07:44:12Z</time>
      </trkpt>
      <trkpt lat="42.206473" lon="9.015733">
        <ele>2048.2</ele>
        <time>2022-09-12T07:44:20Z</time>
      </trkpt>
      <trkpt lat="42.20643" lon="9.015725">
        <ele>2047.4</ele>
        <time>2022-09-12T07:44:28Z</time>
      </trkpt>
      <trkpt lat="42.206415" lon="9.015692">
        <ele>2046.6</ele>
        <time>2022-09-12T07:44:35Z</time>
      </trkpt>
      <trkpt lat="42.206408" lon="9.01569">
        <ele>2046.0</ele>
        <time>2022-09-12T07:44:36Z</time>
      </trkpt>
      <trkpt lat="42.206328" lon="9.015777">
        <ele>2043.2</ele>
        <time>2022-09-12T07:44:50Z</time>
      </trkpt>
      <trkpt lat="42.206208" lon="9.015893">
        <ele>2040.6</ele>
        <time>2022-09-12T07:45:10Z</time>
      </trkpt>
      <trkpt lat="42.206147" lon="9.01602">
        <ele>2038.2</ele>
        <time>2022-09-12T07:45:24Z</time>
      </trkpt>
      <trkpt lat="42.206145" lon="9.01608">
        <ele>2036.6</ele>
        <time>2022-09-12T07:45:32Z</time>
      </trkpt>
      <trkpt lat="42.206112" lon="9.016258">
        <ele>2034.8</ele>
        <time>2022-09-12T07:45:44Z</time>
      </trkpt>
      <trkpt lat="42.206097" lon="9.016307">
        <ele>2034.6</ele>
        <time>2022-09-12T07:45:47Z</time>
      </trkpt>
      <trkpt lat="42.205987" lon="9.016515">
        <ele>2033.8</ele>
        <time>2022-09-12T07:46:03Z</time>
      </trkpt>
      <trkpt lat="42.205955" lon="9.016618">
        <ele>2032.6</ele>
        <time>2022-09-12T07:46:16Z</time>
      </trkpt>
      <trkpt lat="42.20593" lon="9.016632">
        <ele>2031.4</ele>
        <time>2022-09-12T07:46:22Z</time>
      </trkpt>
      <trkpt lat="42.20587" lon="9.016578">
        <ele>2030.6</ele>
        <time>2022-09-12T07:46:31Z</time>
      </trkpt>
      <trkpt lat="42.205812" lon="9.016583">
        <ele>2030.6</ele>
        <time>2022-09-12T07:46:35Z</time>
      </trkpt>
      <trkpt lat="42.205663" lon="9.016622">
        <ele>2028.8</ele>
        <time>2022-09-12T07:46:45Z</time>
      </trkpt>
      <trkpt lat="42.205497" lon="9.016708">
        <ele>2026.4</ele>
        <time>2022-09-12T07:46:59Z</time>
      </trkpt>
      <trkpt lat="42.205492" lon="9.016718">
        <ele>2025.8</ele>
        <time>2022-09-12T07:47:02Z</time>
      </trkpt>
      <trkpt lat="42.20554" lon="9.017013">
        <ele>2028.2</ele>
        <time>2022-09-12T07:47:27Z</time>
      </trkpt>
      <trkpt lat="42.205538" lon="9.017062">
        <ele>2028.6</ele>
        <time>2022-09-12T07:47:31Z</time>
      </trkpt>
      <trkpt lat="42.205522" lon="9.017143">
        <ele>2029.6</ele>
        <time>2022-09-12T07:47:38Z</time>
      </trkpt>
      <trkpt lat="42.20546" lon="9.017197">
        <ele>2030.4</ele>
        <time>2022-09-12T07:47:46Z</time>
      </trkpt>
      <trkpt lat="42.205382" lon="9.017242">
        <ele>2030.6</ele>
        <time>2022-09-12T07:47:56Z</time>
      </trkpt>
      <trkpt lat="42.205362" lon="9.01728">
        <ele>2030.6</ele>
        <time>2022-09-12T07:48:00Z</time>
      </trkpt>
      <trkpt lat="42.205338" lon="9.017327">
        <ele>2031.2</ele>
        <time>2022-09-12T07:48:05Z</time>
      </trkpt>
      <trkpt lat="42.205303" lon="9.017362">
        <ele>2031.6</ele>
        <time>2022-09-12T07:48:10Z</time>
      </trkpt>
      <trkpt lat="42.205212" lon="9.017375">
        <ele>2031.6</ele>
        <time>2022-09-12T07:48:23Z</time>
      </trkpt>
      <trkpt lat="42.205215" lon="9.017408">
        <ele>2031.4</ele>
        <time>2022-09-12T07:48:29Z</time>
      </trkpt>
      <trkpt lat="42.205205" lon="9.017443">
        <ele>2031.6</ele>
        <time>2022-09-12T07:48:34Z</time>
      </trkpt>
      <trkpt lat="42.205198" lon="9.017485">
        <ele>2031.6</ele>
        <time>2022-09-12T07:48:39Z</time>
      </trkpt>
      <trkpt lat="42.205205" lon="9.017557">
        <ele>2031.0</ele>
        <time>2022-09-12T07:48:47Z</time>
      </trkpt>
      <trkpt lat="42.205202" lon="9.017572">
        <ele>2031.2</ele>
        <time>2022-09-12T07:48:49Z</time>
      </trkpt>
      <trkpt lat="42.205173" lon="9.017587">
        <ele>2031.4</ele>
        <time>2022-09-12T07:48:54Z</time>
      </trkpt>
      <trkpt lat="42.205135" lon="9.017655">
        <ele>2031.4</ele>
        <time>2022-09-12T07:49:03Z</time>
      </trkpt>
      <trkpt lat="42.205112" lon="9.017732">
        <ele>2032.0</ele>
        <time>2022-09-12T07:49:11Z</time>
      </trkpt>
      <trkpt lat="42.205072" lon="9.017828">
        <ele>2033.0</ele>
        <time>2022-09-12T07:49:21Z</time>
      </trkpt>
      <trkpt lat="42.205045" lon="9.017903">
        <ele>2033.2</ele>
        <time>2022-09-12T07:49:29Z</time>
      </trkpt>
      <trkpt lat="42.204995" lon="9.017968">
        <ele>2033.0</ele>
        <time>2022-09-12T07:49:38Z</time>
      </trkpt>
      <trkpt lat="42.204902" lon="9.018195">
        <ele>2034.8</ele>
        <time>2022-09-12T07:50:02Z</time>
      </trkpt>
      <trkpt lat="42.204837" lon="9.018275">
        <ele>2035.2</ele>
        <time>2022-09-12T07:50:11Z</time>
      </trkpt>
      <trkpt lat="42.204772" lon="9.01834">
        <ele>2035.4</ele>
        <time>2022-09-12T07:50:20Z</time>
      </trkpt>
      <trkpt lat="42.204748" lon="9.018438">
        <ele>2035.4</ele>
        <time>2022-09-12T07:50:30Z</time>
      </trkpt>
      <trkpt lat="42.204732" lon="9.018507">
        <ele>2035.6</ele>
        <time>2022-09-12T07:50:41Z</time>
      </trkpt>
      <trkpt lat="42.20472" lon="9.018562">
        <ele>2035.4</ele>
        <time>2022-09-12T07:50:58Z</time>
      </trkpt>
      <trkpt lat="42.204712" lon="9.018663">
        <ele>2034.8</ele>
        <time>2022-09-12T07:51:22Z</time>
      </trkpt>
      <trkpt lat="42.204518" lon="9.018845">
        <ele>2034.4</ele>
        <time>2022-09-12T07:51:35Z</time>
      </trkpt>
      <trkpt lat="42.204457" lon="9.018923">
        <ele>2034.2</ele>
        <time>2022-09-12T07:51:38Z</time>
      </trkpt>
      <trkpt lat="42.204362" lon="9.019188">
        <ele>2033.8</ele>
        <time>2022-09-12T07:51:49Z</time>
      </trkpt>
      <trkpt lat="42.204317" lon="9.019275">
        <ele>2033.8</ele>
        <time>2022-09-12T07:51:53Z</time>
      </trkpt>
      <trkpt lat="42.204347" lon="9.01936">
        <ele>2034.0</ele>
        <time>2022-09-12T07:52:00Z</time>
      </trkpt>
      <trkpt lat="42.204363" lon="9.019392">
        <ele>2034.0</ele>
        <time>2022-09-12T07:52:04Z</time>
      </trkpt>
      <trkpt lat="42.204332" lon="9.019422">
        <ele>2034.0</ele>
        <time>2022-09-12T07:52:09Z</time>
      </trkpt>
      <trkpt lat="42.204322" lon="9.01946">
        <ele>2033.2</ele>
        <time>2022-09-12T07:52:14Z</time>
      </trkpt>
      <trkpt lat="42.20432" lon="9.01952">
        <ele>2034.0</ele>
        <time>2022-09-12T07:52:20Z</time>
      </trkpt>
      <trkpt lat="42.204343" lon="9.019633">
        <ele>2033.0</ele>
        <time>2022-09-12T07:52:31Z</time>
      </trkpt>
      <trkpt lat="42.204343" lon="9.019643">
        <ele>2032.4</ele>
        <time>2022-09-12T07:52:32Z</time>
      </trkpt>
      <trkpt lat="42.204333" lon="9.019788">
        <ele>2030.6</ele>
        <time>2022-09-12T07:52:47Z</time>
      </trkpt>
      <trkpt lat="42.204328" lon="9.019827">
        <ele>2028.8</ele>
        <time>2022-09-12T07:52:56Z</time>
      </trkpt>
      <trkpt lat="42.2043" lon="9.019933">
        <ele>2026.8</ele>
        <time>2022-09-12T07:53:08Z</time>
      </trkpt>
      <trkpt lat="42.204255" lon="9.020053">
        <ele>2025.6</ele>
        <time>2022-09-12T07:53:19Z</time>
      </trkpt>
      <trkpt lat="42.2042" lon="9.020095">
        <ele>2025.2</ele>
        <time>2022-09-12T07:53:28Z</time>
      </trkpt>
      <trkpt lat="42.204172" lon="9.0201">
        <ele>2025.2</ele>
        <time>2022-09-12T07:53:32Z</time>
      </trkpt>
      <trkpt lat="42.20414" lon="9.020107">
        <ele>2025.8</ele>
        <time>2022-09-12T07:53:39Z</time>
      </trkpt>
      <trkpt lat="42.20408" lon="9.020147">
        <ele>2023.2</ele>
        <time>2022-09-12T07:53:50Z</time>
      </trkpt>
      <trkpt lat="42.204047" lon="9.020173">
        <ele>2023.0</ele>
        <time>2022-09-12T07:53:57Z</time>
      </trkpt>
      <trkpt lat="42.204018" lon="9.020185">
        <ele>2022.4</ele>
        <time>2022-09-12T07:54:02Z</time>
      </trkpt>
      <trkpt lat="42.204012" lon="9.02025">
        <ele>2021.6</ele>
        <time>2022-09-12T07:54:07Z</time>
      </trkpt>
      <trkpt lat="42.204003" lon="9.020322">
        <ele>2021.6</ele>
        <time>2022-09-12T07:54:14Z</time>
      </trkpt>
      <trkpt lat="42.203952" lon="9.020415">
        <ele>2019.6</ele>
        <time>2022-09-12T07:54:25Z</time>
      </trkpt>
      <trkpt lat="42.203943" lon="9.020467">
        <ele>2018.8</ele>
        <time>2022-09-12T07:54:31Z</time>
      </trkpt>
      <trkpt lat="42.203948" lon="9.020502">
        <ele>2019.2</ele>
        <time>2022-09-12T07:54:37Z</time>
      </trkpt>
      <trkpt lat="42.2039" lon="9.020562">
        <ele>2019.2</ele>
        <time>2022-09-12T07:55:18Z</time>
      </trkpt>
      <trkpt lat="42.203843" lon="9.020622">
        <ele>2021.2</ele>
        <time>2022-09-12T07:55:43Z</time>
      </trkpt>
      <trkpt lat="42.203837" lon="9.020637">
        <ele>2021.2</ele>
        <time>2022-09-12T07:55:44Z</time>
      </trkpt>
      <trkpt lat="42.203832" lon="9.020653">
        <ele>2021.4</ele>
        <time>2022-09-12T07:55:45Z</time>
      </trkpt>
      <trkpt lat="42.203772" lon="9.020873">
        <ele>2022.6</ele>
        <time>2022-09-12T07:55:55Z</time>
      </trkpt>
      <trkpt lat="42.203667" lon="9.02116">
        <ele>2022.0</ele>
        <time>2022-09-12T07:56:07Z</time>
      </trkpt>
      <trkpt lat="42.203628" lon="9.021282">
        <ele>2023.0</ele>
        <time>2022-09-12T07:56:12Z</time>
      </trkpt>
      <trkpt lat="42.203605" lon="9.02132">
        <ele>2023.0</ele>
        <time>2022-09-12T07:56:14Z</time>
      </trkpt>
      <trkpt lat="42.203565" lon="9.021358">
        <ele>2023.2</ele>
        <time>2022-09-12T07:56:17Z</time>
      </trkpt>
      <trkpt lat="42.203527" lon="9.021357">
        <ele>2023.4</ele>
        <time>2022-09-12T07:56:21Z</time>
      </trkpt>
      <trkpt lat="42.2035" lon="9.021378">
        <ele>2022.4</ele>
        <time>2022-09-12T07:56:25Z</time>
      </trkpt>
      <trkpt lat="42.203432" lon="9.021445">
        <ele>2024.0</ele>
        <time>2022-09-12T07:56:41Z</time>
      </trkpt>
      <trkpt lat="42.203378" lon="9.021465">
        <ele>2026.4</ele>
        <time>2022-09-12T07:56:59Z</time>
      </trkpt>
      <trkpt lat="42.203337" lon="9.021448">
        <ele>2026.0</ele>
        <time>2022-09-12T07:57:19Z</time>
      </trkpt>
      <trkpt lat="42.20331" lon="9.021432">
        <ele>2028.2</ele>
        <time>2022-09-12T07:57:37Z</time>
      </trkpt>
      <trkpt lat="42.203247" lon="9.021498">
        <ele>2029.4</ele>
        <time>2022-09-12T07:57:46Z</time>
      </trkpt>
      <trkpt lat="42.20317" lon="9.021545">
        <ele>2031.0</ele>
        <time>2022-09-12T07:57:56Z</time>
      </trkpt>
      <trkpt lat="42.203103" lon="9.021603">
        <ele>2032.2</ele>
        <time>2022-09-12T07:58:03Z</time>
      </trkpt>
      <trkpt lat="42.203093" lon="9.02162">
        <ele>2032.4</ele>
        <time>2022-09-12T07:58:04Z</time>
      </trkpt>
      <trkpt lat="42.203083" lon="9.021777">
        <ele>2033.6</ele>
        <time>2022-09-12T07:58:12Z</time>
      </trkpt>
      <trkpt lat="42.203063" lon="9.0218">
        <ele>2034.0</ele>
        <time>2022-09-12T07:58:14Z</time>
      </trkpt>
      <trkpt lat="42.203005" lon="9.021833">
        <ele>2035.0</ele>
        <time>2022-09-12T07:58:20Z</time>
      </trkpt>
      <trkpt lat="42.203083" lon="9.021895">
        <ele>2036.2</ele>
        <time>2022-09-12T07:58:31Z</time>
      </trkpt>
      <trkpt lat="42.203132" lon="9.021942">
        <ele>2037.2</ele>
        <time>2022-09-12T07:58:39Z</time>
      </trkpt>
      <trkpt lat="42.203138" lon="9.022022">
        <ele>2037.4</ele>
        <time>2022-09-12T07:58:47Z</time>
      </trkpt>
      <trkpt lat="42.203147" lon="9.022095">
        <ele>2037.0</ele>
        <time>2022-09-12T07:58:55Z</time>
      </trkpt>
      <trkpt lat="42.203133" lon="9.022152">
        <ele>2036.8</ele>
        <time>2022-09-12T07:59:25Z</time>
      </trkpt>
      <trkpt lat="42.203138" lon="9.021963">
        <ele>2034.6</ele>
        <time>2022-09-12T08:03:10Z</time>
      </trkpt>
      <trkpt lat="42.203162" lon="9.022005">
        <ele>2033.6</ele>
        <time>2022-09-12T08:03:14Z</time>
      </trkpt>
      <trkpt lat="42.203188" lon="9.022078">
        <ele>2032.0</ele>
        <time>2022-09-12T08:03:21Z</time>
      </trkpt>
      <trkpt lat="42.203217" lon="9.022107">
        <ele>2030.0</ele>
        <time>2022-09-12T08:03:26Z</time>
      </trkpt>
      <trkpt lat="42.203212" lon="9.022145">
        <ele>2029.6</ele>
        <time>2022-09-12T08:03:31Z</time>
      </trkpt>
      <trkpt lat="42.203207" lon="9.022197">
        <ele>2028.0</ele>
        <time>2022-09-12T08:03:37Z</time>
      </trkpt>
      <trkpt lat="42.203228" lon="9.022252">
        <ele>2027.0</ele>
        <time>2022-09-12T08:03:46Z</time>
      </trkpt>
      <trkpt lat="42.203253" lon="9.022313">
        <ele>2025.8</ele>
        <time>2022-09-12T08:04:00Z</time>
      </trkpt>
      <trkpt lat="42.203252" lon="9.022377">
        <ele>2026.0</ele>
        <time>2022-09-12T08:04:11Z</time>
      </trkpt>
      <trkpt lat="42.20325" lon="9.022428">
        <ele>2026.6</ele>
        <time>2022-09-12T08:04:22Z</time>
      </trkpt>
      <trkpt lat="42.203252" lon="9.022433">
        <ele>2026.6</ele>
        <time>2022-09-12T08:04:22Z</time>
      </trkpt>
      <trkpt lat="42.203348" lon="9.022522">
        <ele>2028.0</ele>
        <time>2022-09-12T08:04:38Z</time>
      </trkpt>
      <trkpt lat="42.20339" lon="9.022595">
        <ele>2029.0</ele>
        <time>2022-09-12T08:04:55Z</time>
      </trkpt>
      <trkpt lat="42.203383" lon="9.022677">
        <ele>2028.8</ele>
        <time>2022-09-12T08:05:03Z</time>
      </trkpt>
      <trkpt lat="42.20339" lon="9.022815">
        <ele>2029.6</ele>
        <time>2022-09-12T08:05:10Z</time>
      </trkpt>
      <trkpt lat="42.203437" lon="9.022897">
        <ele>2029.6</ele>
        <time>2022-09-12T08:05:13Z</time>
      </trkpt>
      <trkpt lat="42.203507" lon="9.023085">
        <ele>2029.8</ele>
        <time>2022-09-12T08:05:24Z</time>
      </trkpt>
      <trkpt lat="42.20351" lon="9.023158">
        <ele>2029.0</ele>
        <time>2022-09-12T08:05:33Z</time>
      </trkpt>
      <trkpt lat="42.203498" lon="9.023225">
        <ele>2031.2</ele>
        <time>2022-09-12T08:05:46Z</time>
      </trkpt>
      <trkpt lat="42.203508" lon="9.023335">
        <ele>2035.6</ele>
        <time>2022-09-12T08:06:07Z</time>
      </trkpt>
      <trkpt lat="42.203498" lon="9.023395">
        <ele>2036.4</ele>
        <time>2022-09-12T08:06:18Z</time>
      </trkpt>
      <trkpt lat="42.203502" lon="9.023457">
        <ele>2040.4</ele>
        <time>2022-09-12T08:06:33Z</time>
      </trkpt>
      <trkpt lat="42.203502" lon="9.023467">
        <ele>2040.0</ele>
        <time>2022-09-12T08:06:34Z</time>
      </trkpt>
      <trkpt lat="42.203575" lon="9.02352">
        <ele>2039.4</ele>
        <time>2022-09-12T08:06:46Z</time>
      </trkpt>
      <trkpt lat="42.203593" lon="9.023522">
        <ele>2039.8</ele>
        <time>2022-09-12T08:06:50Z</time>
      </trkpt>
      <trkpt lat="42.203627" lon="9.023482">
        <ele>2038.2</ele>
        <time>2022-09-12T08:07:00Z</time>
      </trkpt>
      <trkpt lat="42.203747" lon="9.02347">
        <ele>2033.6</ele>
        <time>2022-09-12T08:07:32Z</time>
      </trkpt>
      <trkpt lat="42.203747" lon="9.023463">
        <ele>2033.6</ele>
        <time>2022-09-12T08:07:33Z</time>
      </trkpt>
      <trkpt lat="42.203748" lon="9.023428">
        <ele>2033.8</ele>
        <time>2022-09-12T08:07:40Z</time>
      </trkpt>
      <trkpt lat="42.203775" lon="9.0234">
        <ele>2032.6</ele>
        <time>2022-09-12T08:07:51Z</time>
      </trkpt>
      <trkpt lat="42.203787" lon="9.023398">
        <ele>2032.4</ele>
        <time>2022-09-12T08:07:54Z</time>
      </trkpt>
      <trkpt lat="42.203848" lon="9.023447">
        <ele>2032.2</ele>
        <time>2022-09-12T08:08:14Z</time>
      </trkpt>
      <trkpt lat="42.203882" lon="9.023547">
        <ele>2032.8</ele>
        <time>2022-09-12T08:08:24Z</time>
      </trkpt>
      <trkpt lat="42.203892" lon="9.0236">
        <ele>2033.8</ele>
        <time>2022-09-12T08:08:29Z</time>
      </trkpt>
      <trkpt lat="42.203927" lon="9.023632">
        <ele>2035.0</ele>
        <time>2022-09-12T08:08:37Z</time>
      </trkpt>
      <trkpt lat="42.203963" lon="9.023675">
        <ele>2035.4</ele>
        <time>2022-09-12T08:08:44Z</time>
      </trkpt>
      <trkpt lat="42.203967" lon="9.023685">
        <ele>2035.4</ele>
        <time>2022-09-12T08:08:45Z</time>
      </trkpt>
      <trkpt lat="42.204023" lon="9.023768">
        <ele>2036.2</ele>
        <time>2022-09-12T08:08:56Z</time>
      </trkpt>
      <trkpt lat="42.204033" lon="9.023912">
        <ele>2037.4</ele>
        <time>2022-09-12T08:09:10Z</time>
      </trkpt>
      <trkpt lat="42.204075" lon="9.023947">
        <ele>2039.4</ele>
        <time>2022-09-12T08:09:19Z</time>
      </trkpt>
      <trkpt lat="42.204107" lon="9.023977">
        <ele>2039.2</ele>
        <time>2022-09-12T08:09:24Z</time>
      </trkpt>
      <trkpt lat="42.204112" lon="9.023985">
        <ele>2039.0</ele>
        <time>2022-09-12T08:09:25Z</time>
      </trkpt>
      <trkpt lat="42.204165" lon="9.024048">
        <ele>2038.4</ele>
        <time>2022-09-12T08:09:35Z</time>
      </trkpt>
      <trkpt lat="42.204198" lon="9.024112">
        <ele>2038.0</ele>
        <time>2022-09-12T08:09:44Z</time>
      </trkpt>
      <trkpt lat="42.204293" lon="9.024212">
        <ele>2039.6</ele>
        <time>2022-09-12T08:10:06Z</time>
      </trkpt>
      <trkpt lat="42.204325" lon="9.024238">
        <ele>2039.8</ele>
        <time>2022-09-12T08:10:10Z</time>
      </trkpt>
      <trkpt lat="42.20436" lon="9.024357">
        <ele>2041.8</ele>
        <time>2022-09-12T08:10:24Z</time>
      </trkpt>
      <trkpt lat="42.204423" lon="9.024418">
        <ele>2042.4</ele>
        <time>2022-09-12T08:10:42Z</time>
      </trkpt>
      <trkpt lat="42.204465" lon="9.024477">
        <ele>2043.2</ele>
        <time>2022-09-12T08:10:49Z</time>
      </trkpt>
      <trkpt lat="42.204612" lon="9.024477">
        <ele>2043.8</ele>
        <time>2022-09-12T08:11:07Z</time>
      </trkpt>
      <trkpt lat="42.204662" lon="9.024557">
        <ele>2044.8</ele>
        <time>2022-09-12T08:11:16Z</time>
      </trkpt>
      <trkpt lat="42.204755" lon="9.024603">
        <ele>2044.2</ele>
        <time>2022-09-12T08:11:27Z</time>
      </trkpt>
      <trkpt lat="42.20483" lon="9.024698">
        <ele>2042.2</ele>
        <time>2022-09-12T08:11:40Z</time>
      </trkpt>
      <trkpt lat="42.204853" lon="9.02476">
        <ele>2041.4</ele>
        <time>2022-09-12T08:11:47Z</time>
      </trkpt>
      <trkpt lat="42.204952" lon="9.024855">
        <ele>2040.2</ele>
        <time>2022-09-12T08:12:03Z</time>
      </trkpt>
      <trkpt lat="42.205057" lon="9.02493">
        <ele>2040.0</ele>
        <time>2022-09-12T08:12:26Z</time>
      </trkpt>
      <trkpt lat="42.205115" lon="9.024942">
        <ele>2038.6</ele>
        <time>2022-09-12T08:12:34Z</time>
      </trkpt>
      <trkpt lat="42.205133" lon="9.024947">
        <ele>2037.8</ele>
        <time>2022-09-12T08:12:37Z</time>
      </trkpt>
      <trkpt lat="42.205257" lon="9.02504">
        <ele>2035.6</ele>
        <time>2022-09-12T08:12:54Z</time>
      </trkpt>
      <trkpt lat="42.205302" lon="9.025115">
        <ele>2036.0</ele>
        <time>2022-09-12T08:13:03Z</time>
      </trkpt>
      <trkpt lat="42.205303" lon="9.02519">
        <ele>2036.4</ele>
        <time>2022-09-12T08:13:09Z</time>
      </trkpt>
      <trkpt lat="42.205315" lon="9.02521">
        <ele>2036.4</ele>
        <time>2022-09-12T08:13:11Z</time>
      </trkpt>
      <trkpt lat="42.205428" lon="9.025243">
        <ele>2037.2</ele>
        <time>2022-09-12T08:13:26Z</time>
      </trkpt>
      <trkpt lat="42.205555" lon="9.025237">
        <ele>2038.0</ele>
        <time>2022-09-12T08:13:43Z</time>
      </trkpt>
      <trkpt lat="42.205635" lon="9.025255">
        <ele>2037.0</ele>
        <time>2022-09-12T08:13:54Z</time>
      </trkpt>
      <trkpt lat="42.205693" lon="9.02526">
        <ele>2037.8</ele>
        <time>2022-09-12T08:14:01Z</time>
      </trkpt>
      <trkpt lat="42.20579" lon="9.02531">
        <ele>2038.8</ele>
        <time>2022-09-12T08:14:11Z</time>
      </trkpt>
      <trkpt lat="42.205833" lon="9.025437">
        <ele>2039.4</ele>
        <time>2022-09-12T08:14:18Z</time>
      </trkpt>
      <trkpt lat="42.205872" lon="9.025497">
        <ele>2040.6</ele>
        <time>2022-09-12T08:14:28Z</time>
      </trkpt>
      <trkpt lat="42.20599" lon="9.025423">
        <ele>2039.8</ele>
        <time>2022-09-12T08:14:56Z</time>
      </trkpt>
      <trkpt lat="42.206003" lon="9.02541">
        <ele>2039.6</ele>
        <time>2022-09-12T08:14:58Z</time>
      </trkpt>
      <trkpt lat="42.206038" lon="9.02541">
        <ele>2038.8</ele>
        <time>2022-09-12T08:15:03Z</time>
      </trkpt>
      <trkpt lat="42.206107" lon="9.02543">
        <ele>2038.4</ele>
        <time>2022-09-12T08:15:12Z</time>
      </trkpt>
      <trkpt lat="42.206215" lon="9.025372">
        <ele>2036.4</ele>
        <time>2022-09-12T08:15:33Z</time>
      </trkpt>
      <trkpt lat="42.206255" lon="9.025402">
        <ele>2037.6</ele>
        <time>2022-09-12T08:15:44Z</time>
      </trkpt>
      <trkpt lat="42.206285" lon="9.025382">
        <ele>2038.4</ele>
        <time>2022-09-12T08:15:49Z</time>
      </trkpt>
      <trkpt lat="42.206322" lon="9.025393">
        <ele>2039.4</ele>
        <time>2022-09-12T08:17:17Z</time>
      </trkpt>
      <trkpt lat="42.206497" lon="9.025468">
        <ele>2038.0</ele>
        <time>2022-09-12T08:17:57Z</time>
      </trkpt>
      <trkpt lat="42.20653" lon="9.025497">
        <ele>2037.0</ele>
        <time>2022-09-12T08:17:59Z</time>
      </trkpt>
      <trkpt lat="42.206543" lon="9.025515">
        <ele>2036.8</ele>
        <time>2022-09-12T08:18:00Z</time>
      </trkpt>
      <trkpt lat="42.206588" lon="9.025562">
        <ele>2036.0</ele>
        <time>2022-09-12T08:18:04Z</time>
      </trkpt>
      <trkpt lat="42.206638" lon="9.025632">
        <ele>2035.0</ele>
        <time>2022-09-12T08:18:10Z</time>
      </trkpt>
      <trkpt lat="42.20668" lon="9.025678">
        <ele>2034.2</ele>
        <time>2022-09-12T08:18:15Z</time>
      </trkpt>
      <trkpt lat="42.206715" lon="9.025705">
        <ele>2034.2</ele>
        <time>2022-09-12T08:18:19Z</time>
      </trkpt>
      <trkpt lat="42.206783" lon="9.025742">
        <ele>2033.4</ele>
        <time>2022-09-12T08:18:28Z</time>
      </trkpt>
      <trkpt lat="42.206797" lon="9.025757">
        <ele>2033.4</ele>
        <time>2022-09-12T08:18:30Z</time>
      </trkpt>
      <trkpt lat="42.206827" lon="9.025817">
        <ele>2033.2</ele>
        <time>2022-09-12T08:18:37Z</time>
      </trkpt>
      <trkpt lat="42.206862" lon="9.02587">
        <ele>2034.0</ele>
        <time>2022-09-12T08:18:45Z</time>
      </trkpt>
      <trkpt lat="42.206865" lon="9.025937">
        <ele>2034.0</ele>
        <time>2022-09-12T08:18:52Z</time>
      </trkpt>
      <trkpt lat="42.206833" lon="9.026008">
        <ele>2034.8</ele>
        <time>2022-09-12T08:19:00Z</time>
      </trkpt>
      <trkpt lat="42.206815" lon="9.026047">
        <ele>2035.6</ele>
        <time>2022-09-12T08:19:06Z</time>
      </trkpt>
      <trkpt lat="42.206815" lon="9.026055">
        <ele>2036.2</ele>
        <time>2022-09-12T08:19:10Z</time>
      </trkpt>
      <trkpt lat="42.206838" lon="9.026108">
        <ele>2035.0</ele>
        <time>2022-09-12T08:19:25Z</time>
      </trkpt>
      <trkpt lat="42.206847" lon="9.0262">
        <ele>2036.8</ele>
        <time>2022-09-12T08:19:36Z</time>
      </trkpt>
      <trkpt lat="42.206872" lon="9.026257">
        <ele>2038.2</ele>
        <time>2022-09-12T08:19:44Z</time>
      </trkpt>
      <trkpt lat="42.206857" lon="9.026245">
        <ele>2038.8</ele>
        <time>2022-09-12T08:19:50Z</time>
      </trkpt>
      <trkpt lat="42.206843" lon="9.026277">
        <ele>2039.8</ele>
        <time>2022-09-12T08:19:55Z</time>
      </trkpt>
      <trkpt lat="42.20683" lon="9.026363">
        <ele>2041.0</ele>
        <time>2022-09-12T08:20:05Z</time>
      </trkpt>
      <trkpt lat="42.206838" lon="9.026445">
        <ele>2042.4</ele>
        <time>2022-09-12T08:20:15Z</time>
      </trkpt>
      <trkpt lat="42.206862" lon="9.026513">
        <ele>2043.0</ele>
        <time>2022-09-12T08:20:20Z</time>
      </trkpt>
      <trkpt lat="42.206973" lon="9.026642">
        <ele>2043.6</ele>
        <time>2022-09-12T08:20:31Z</time>
      </trkpt>
      <trkpt lat="42.206982" lon="9.02667">
        <ele>2043.4</ele>
        <time>2022-09-12T08:20:33Z</time>
      </trkpt>
      <trkpt lat="42.207017" lon="9.026662">
        <ele>2042.8</ele>
        <time>2022-09-12T08:20:38Z</time>
      </trkpt>
      <trkpt lat="42.207033" lon="9.026665">
        <ele>2042.4</ele>
        <time>2022-09-12T08:20:47Z</time>
      </trkpt>
      <trkpt lat="42.207135" lon="9.026642">
        <ele>2046.6</ele>
        <time>2022-09-12T08:21:14Z</time>
      </trkpt>
      <trkpt lat="42.207128" lon="9.026647">
        <ele>2047.0</ele>
        <time>2022-09-12T08:21:15Z</time>
      </trkpt>
      <trkpt lat="42.207135" lon="9.026758">
        <ele>2049.4</ele>
        <time>2022-09-12T08:21:38Z</time>
      </trkpt>
      <trkpt lat="42.20717" lon="9.026807">
        <ele>2048.4</ele>
        <time>2022-09-12T08:21:45Z</time>
      </trkpt>
      <trkpt lat="42.207172" lon="9.026818">
        <ele>2048.4</ele>
        <time>2022-09-12T08:21:46Z</time>
      </trkpt>
      <trkpt lat="42.207182" lon="9.026885">
        <ele>2048.0</ele>
        <time>2022-09-12T08:21:55Z</time>
      </trkpt>
      <trkpt lat="42.20721" lon="9.026967">
        <ele>2049.4</ele>
        <time>2022-09-12T08:22:04Z</time>
      </trkpt>
      <trkpt lat="42.20721" lon="9.027088">
        <ele>2048.0</ele>
        <time>2022-09-12T08:22:18Z</time>
      </trkpt>
      <trkpt lat="42.2073" lon="9.027227">
        <ele>2045.2</ele>
        <time>2022-09-12T08:22:37Z</time>
      </trkpt>
      <trkpt lat="42.207337" lon="9.027422">
        <ele>2046.2</ele>
        <time>2022-09-12T08:22:59Z</time>
      </trkpt>
      <trkpt lat="42.20734" lon="9.027432">
        <ele>2046.8</ele>
        <time>2022-09-12T08:23:02Z</time>
      </trkpt>
      <trkpt lat="42.207372" lon="9.027463">
        <ele>2047.6</ele>
        <time>2022-09-12T08:23:07Z</time>
      </trkpt>
      <trkpt lat="42.207393" lon="9.027492">
        <ele>2048.6</ele>
        <time>2022-09-12T08:23:11Z</time>
      </trkpt>
      <trkpt lat="42.207465" lon="9.027502">
        <ele>2051.0</ele>
        <time>2022-09-12T08:23:29Z</time>
      </trkpt>
      <trkpt lat="42.20753" lon="9.027495">
        <ele>2051.4</ele>
        <time>2022-09-12T08:23:41Z</time>
      </trkpt>
      <trkpt lat="42.207553" lon="9.027488">
        <ele>2052.2</ele>
        <time>2022-09-12T08:23:52Z</time>
      </trkpt>
      <trkpt lat="42.207575" lon="9.027498">
        <ele>2052.2</ele>
        <time>2022-09-12T08:23:56Z</time>
      </trkpt>
      <trkpt lat="42.207578" lon="9.027512">
        <ele>2052.2</ele>
        <time>2022-09-12T08:23:57Z</time>
      </trkpt>
      <trkpt lat="42.207595" lon="9.027567">
        <ele>2052.2</ele>
        <time>2022-09-12T08:24:00Z</time>
      </trkpt>
      <trkpt lat="42.207587" lon="9.027583">
        <ele>2052.2</ele>
        <time>2022-09-12T08:24:01Z</time>
      </trkpt>
      <trkpt lat="42.20756" lon="9.02759">
        <ele>2052.2</ele>
        <time>2022-09-12T08:24:03Z</time>
      </trkpt>
      <trkpt lat="42.207545" lon="9.027555">
        <ele>2052.2</ele>
        <time>2022-09-12T08:24:05Z</time>
      </trkpt>
      <trkpt lat="42.207545" lon="9.027505">
        <ele>2051.6</ele>
        <time>2022-09-12T08:24:15Z</time>
      </trkpt>
      <trkpt lat="42.207575" lon="9.027468">
        <ele>2050.8</ele>
        <time>2022-09-12T08:24:20Z</time>
      </trkpt>
      <trkpt lat="42.207623" lon="9.02752">
        <ele>2049.4</ele>
        <time>2022-09-12T08:24:30Z</time>
      </trkpt>
      <trkpt lat="42.207708" lon="9.027387">
        <ele>2046.4</ele>
        <time>2022-09-12T08:24:57Z</time>
      </trkpt>
      <trkpt lat="42.207752" lon="9.027352">
        <ele>2045.6</ele>
        <time>2022-09-12T08:25:06Z</time>
      </trkpt>
      <trkpt lat="42.207867" lon="9.027422">
        <ele>2043.6</ele>
        <time>2022-09-12T08:25:25Z</time>
      </trkpt>
      <trkpt lat="42.207898" lon="9.027462">
        <ele>2043.6</ele>
        <time>2022-09-12T08:25:29Z</time>
      </trkpt>
      <trkpt lat="42.20795" lon="9.027473">
        <ele>2043.8</ele>
        <time>2022-09-12T08:25:35Z</time>
      </trkpt>
      <trkpt lat="42.207967" lon="9.027455">
        <ele>2044.4</ele>
        <time>2022-09-12T08:25:40Z</time>
      </trkpt>
      <trkpt lat="42.207995" lon="9.027443">
        <ele>2044.8</ele>
        <time>2022-09-12T08:25:48Z</time>
      </trkpt>
      <trkpt lat="42.208013" lon="9.027453">
        <ele>2045.2</ele>
        <time>2022-09-12T08:25:54Z</time>
      </trkpt>
      <trkpt lat="42.208028" lon="9.027467">
        <ele>2046.0</ele>
        <time>2022-09-12T08:26:09Z</time>
      </trkpt>
      <trkpt lat="42.208055" lon="9.027448">
        <ele>2046.2</ele>
        <time>2022-09-12T08:26:17Z</time>
      </trkpt>
      <trkpt lat="42.20807" lon="9.02739">
        <ele>2045.6</ele>
        <time>2022-09-12T08:27:21Z</time>
      </trkpt>
      <trkpt lat="42.20808" lon="9.027358">
        <ele>2045.6</ele>
        <time>2022-09-12T08:27:26Z</time>
      </trkpt>
      <trkpt lat="42.208175" lon="9.02729">
        <ele>2044.6</ele>
        <time>2022-09-12T08:27:36Z</time>
      </trkpt>
      <trkpt lat="42.208185" lon="9.027292">
        <ele>2044.4</ele>
        <time>2022-09-12T08:27:37Z</time>
      </trkpt>
      <trkpt lat="42.208183" lon="9.027383">
        <ele>2044.2</ele>
        <time>2022-09-12T08:27:43Z</time>
      </trkpt>
      <trkpt lat="42.208177" lon="9.027475">
        <ele>2044.2</ele>
        <time>2022-09-12T08:27:51Z</time>
      </trkpt>
      <trkpt lat="42.208223" lon="9.02759">
        <ele>2044.4</ele>
        <time>2022-09-12T08:28:02Z</time>
      </trkpt>
      <trkpt lat="42.208232" lon="9.027613">
        <ele>2044.4</ele>
        <time>2022-09-12T08:28:04Z</time>
      </trkpt>
      <trkpt lat="42.208362" lon="9.027673">
        <ele>2042.2</ele>
        <time>2022-09-12T08:28:38Z</time>
      </trkpt>
      <trkpt lat="42.208393" lon="9.027645">
        <ele>2040.4</ele>
        <time>2022-09-12T08:28:48Z</time>
      </trkpt>
      <trkpt lat="42.208432" lon="9.027642">
        <ele>2038.2</ele>
        <time>2022-09-12T08:29:00Z</time>
      </trkpt>
      <trkpt lat="42.20847" lon="9.02764">
        <ele>2037.2</ele>
        <time>2022-09-12T08:29:05Z</time>
      </trkpt>
      <trkpt lat="42.208552" lon="9.02767">
        <ele>2035.4</ele>
        <time>2022-09-12T08:29:14Z</time>
      </trkpt>
      <trkpt lat="42.208577" lon="9.027723">
        <ele>2034.8</ele>
        <time>2022-09-12T08:29:19Z</time>
      </trkpt>
      <trkpt lat="42.208627" lon="9.027745">
        <ele>2034.6</ele>
        <time>2022-09-12T08:29:27Z</time>
      </trkpt>
      <trkpt lat="42.208642" lon="9.027755">
        <ele>2035.8</ele>
        <time>2022-09-12T08:29:44Z</time>
      </trkpt>
      <trkpt lat="42.208655" lon="9.027755">
        <ele>2036.4</ele>
        <time>2022-09-12T08:29:48Z</time>
      </trkpt>
      <trkpt lat="42.208675" lon="9.027717">
        <ele>2036.4</ele>
        <time>2022-09-12T08:30:00Z</time>
      </trkpt>
      <trkpt lat="42.208688" lon="9.027712">
        <ele>2035.8</ele>
        <time>2022-09-12T08:30:04Z</time>
      </trkpt>
      <trkpt lat="42.208698" lon="9.027738">
        <ele>2035.8</ele>
        <time>2022-09-12T08:30:09Z</time>
      </trkpt>
      <trkpt lat="42.208683" lon="9.027775">
        <ele>2037.2</ele>
        <time>2022-09-12T08:30:18Z</time>
      </trkpt>
      <trkpt lat="42.208708" lon="9.02782">
        <ele>2041.0</ele>
        <time>2022-09-12T08:30:43Z</time>
      </trkpt>
      <trkpt lat="42.208707" lon="9.027823">
        <ele>2041.0</ele>
        <time>2022-09-12T08:30:43Z</time>
      </trkpt>
      <trkpt lat="42.208703" lon="9.027845">
        <ele>2041.6</ele>
        <time>2022-09-12T08:30:50Z</time>
      </trkpt>
      <trkpt lat="42.208723" lon="9.027857">
        <ele>2043.6</ele>
        <time>2022-09-12T08:31:10Z</time>
      </trkpt>
      <trkpt lat="42.208743" lon="9.027832">
        <ele>2043.6</ele>
        <time>2022-09-12T08:31:17Z</time>
      </trkpt>
      <trkpt lat="42.208773" lon="9.027783">
        <ele>2042.8</ele>
        <time>2022-09-12T08:31:25Z</time>
      </trkpt>
      <trkpt lat="42.208785" lon="9.027792">
        <ele>2042.8</ele>
        <time>2022-09-12T08:31:32Z</time>
      </trkpt>
      <trkpt lat="42.208792" lon="9.02782">
        <ele>2043.2</ele>
        <time>2022-09-12T08:31:33Z</time>
      </trkpt>
      <trkpt lat="42.20882" lon="9.027853">
        <ele>2043.4</ele>
        <time>2022-09-12T08:31:35Z</time>
      </trkpt>
      <trkpt lat="42.208895" lon="9.02791">
        <ele>2044.0</ele>
        <time>2022-09-12T08:31:39Z</time>
      </trkpt>
      <trkpt lat="42.209078" lon="9.02808">
        <ele>2046.2</ele>
        <time>2022-09-12T08:32:00Z</time>
      </trkpt>
      <trkpt lat="42.209078" lon="9.028155">
        <ele>2046.6</ele>
        <time>2022-09-12T08:32:06Z</time>
      </trkpt>
      <trkpt lat="42.209103" lon="9.028178">
        <ele>2047.2</ele>
        <time>2022-09-12T08:32:09Z</time>
      </trkpt>
      <trkpt lat="42.209192" lon="9.028287">
        <ele>2047.8</ele>
        <time>2022-09-12T08:32:32Z</time>
      </trkpt>
      <trkpt lat="42.209192" lon="9.02829">
        <ele>2048.0</ele>
        <time>2022-09-12T08:32:35Z</time>
      </trkpt>
      <trkpt lat="42.209222" lon="9.028277">
        <ele>2048.4</ele>
        <time>2022-09-12T08:32:48Z</time>
      </trkpt>
      <trkpt lat="42.209248" lon="9.028255">
        <ele>2049.0</ele>
        <time>2022-09-12T08:32:55Z</time>
      </trkpt>
      <trkpt lat="42.209235" lon="9.028302">
        <ele>2049.8</ele>
        <time>2022-09-12T08:33:01Z</time>
      </trkpt>
      <trkpt lat="42.209263" lon="9.0283">
        <ele>2054.0</ele>
        <time>2022-09-12T08:33:29Z</time>
      </trkpt>
      <trkpt lat="42.209282" lon="9.028342">
        <ele>2056.6</ele>
        <time>2022-09-12T08:33:53Z</time>
      </trkpt>
      <trkpt lat="42.209275" lon="9.028425">
        <ele>2058.2</ele>
        <time>2022-09-12T08:34:09Z</time>
      </trkpt>
      <trkpt lat="42.209265" lon="9.02845">
        <ele>2057.2</ele>
        <time>2022-09-12T08:34:15Z</time>
      </trkpt>
      <trkpt lat="42.209155" lon="9.028417">
        <ele>2062.2</ele>
        <time>2022-09-12T08:34:54Z</time>
      </trkpt>
      <trkpt lat="42.209118" lon="9.028457">
        <ele>2063.8</ele>
        <time>2022-09-12T08:35:00Z</time>
      </trkpt>
      <trkpt lat="42.209108" lon="9.028477">
        <ele>2064.4</ele>
        <time>2022-09-12T08:35:02Z</time>
      </trkpt>
      <trkpt lat="42.209138" lon="9.028612">
        <ele>2067.2</ele>
        <time>2022-09-12T08:35:21Z</time>
      </trkpt>
      <trkpt lat="42.209107" lon="9.028747">
        <ele>2069.0</ele>
        <time>2022-09-12T08:35:37Z</time>
      </trkpt>
      <trkpt lat="42.209102" lon="9.02876">
        <ele>2069.0</ele>
        <time>2022-09-12T08:35:37Z</time>
      </trkpt>
      <trkpt lat="42.209048" lon="9.028717">
        <ele>2069.8</ele>
        <time>2022-09-12T08:35:44Z</time>
      </trkpt>
      <trkpt lat="42.20904" lon="9.028718">
        <ele>2071.8</ele>
        <time>2022-09-12T08:35:57Z</time>
      </trkpt>
      <trkpt lat="42.20903" lon="9.028685">
        <ele>2072.8</ele>
        <time>2022-09-12T08:36:04Z</time>
      </trkpt>
      <trkpt lat="42.209037" lon="9.02862">
        <ele>2074.4</ele>
        <time>2022-09-12T08:36:12Z</time>
      </trkpt>
      <trkpt lat="42.209032" lon="9.02863">
        <ele>2074.4</ele>
        <time>2022-09-12T08:36:13Z</time>
      </trkpt>
      <trkpt lat="42.209045" lon="9.028695">
        <ele>2075.6</ele>
        <time>2022-09-12T08:36:20Z</time>
      </trkpt>
      <trkpt lat="42.209053" lon="9.028737">
        <ele>2077.0</ele>
        <time>2022-09-12T08:36:26Z</time>
      </trkpt>
      <trkpt lat="42.209017" lon="9.028827">
        <ele>2082.0</ele>
        <time>2022-09-12T08:36:57Z</time>
      </trkpt>
      <trkpt lat="42.209027" lon="9.02885">
        <ele>2086.6</ele>
        <time>2022-09-12T08:37:25Z</time>
      </trkpt>
      <trkpt lat="42.209038" lon="9.028873">
        <ele>2087.6</ele>
        <time>2022-09-12T08:37:39Z</time>
      </trkpt>
      <trkpt lat="42.209037" lon="9.028875">
        <ele>2088.0</ele>
        <time>2022-09-12T08:37:40Z</time>
      </trkpt>
      <trkpt lat="42.209023" lon="9.028943">
        <ele>2090.2</ele>
        <time>2022-09-12T08:37:52Z</time>
      </trkpt>
      <trkpt lat="42.208982" lon="9.029022">
        <ele>2092.4</ele>
        <time>2022-09-12T08:38:09Z</time>
      </trkpt>
      <trkpt lat="42.208977" lon="9.029165">
        <ele>2097.6</ele>
        <time>2022-09-12T08:38:59Z</time>
      </trkpt>
      <trkpt lat="42.208967" lon="9.029195">
        <ele>2098.4</ele>
        <time>2022-09-12T08:39:06Z</time>
      </trkpt>
      <trkpt lat="42.208973" lon="9.029267">
        <ele>2100.0</ele>
        <time>2022-09-12T08:39:15Z</time>
      </trkpt>
      <trkpt lat="42.209005" lon="9.029305">
        <ele>2101.4</ele>
        <time>2022-09-12T08:39:26Z</time>
      </trkpt>
      <trkpt lat="42.209017" lon="9.029315">
        <ele>2102.0</ele>
        <time>2022-09-12T08:39:30Z</time>
      </trkpt>
      <trkpt lat="42.20902" lon="9.02934">
        <ele>2103.4</ele>
        <time>2022-09-12T08:39:38Z</time>
      </trkpt>
      <trkpt lat="42.209018" lon="9.029368">
        <ele>2104.2</ele>
        <time>2022-09-12T08:39:41Z</time>
      </trkpt>
      <trkpt lat="42.209012" lon="9.029373">
        <ele>2104.2</ele>
        <time>2022-09-12T08:39:42Z</time>
      </trkpt>
      <trkpt lat="42.208957" lon="9.029375">
        <ele>2107.4</ele>
        <time>2022-09-12T08:40:07Z</time>
      </trkpt>
      <trkpt lat="42.208847" lon="9.029443">
        <ele>2112.2</ele>
        <time>2022-09-12T08:40:40Z</time>
      </trkpt>
      <trkpt lat="42.208797" lon="9.029302">
        <ele>2118.2</ele>
        <time>2022-09-12T08:41:20Z</time>
      </trkpt>
      <trkpt lat="42.208775" lon="9.029368">
        <ele>2119.6</ele>
        <time>2022-09-12T08:41:31Z</time>
      </trkpt>
      <trkpt lat="42.208773" lon="9.029378">
        <ele>2120.0</ele>
        <time>2022-09-12T08:41:32Z</time>
      </trkpt>
      <trkpt lat="42.20883" lon="9.029478">
        <ele>2122.0</ele>
        <time>2022-09-12T08:41:51Z</time>
      </trkpt>
      <trkpt lat="42.208823" lon="9.029488">
        <ele>2122.4</ele>
        <time>2022-09-12T08:41:54Z</time>
      </trkpt>
      <trkpt lat="42.20879" lon="9.02949">
        <ele>2124.4</ele>
        <time>2022-09-12T08:42:02Z</time>
      </trkpt>
      <trkpt lat="42.208777" lon="9.029535">
        <ele>2125.2</ele>
        <time>2022-09-12T08:42:09Z</time>
      </trkpt>
      <trkpt lat="42.208735" lon="9.029615">
        <ele>2126.8</ele>
        <time>2022-09-12T08:42:22Z</time>
      </trkpt>
      <trkpt lat="42.208715" lon="9.029642">
        <ele>2127.4</ele>
        <time>2022-09-12T08:42:28Z</time>
      </trkpt>
      <trkpt lat="42.20869" lon="9.029708">
        <ele>2129.2</ele>
        <time>2022-09-12T08:42:39Z</time>
      </trkpt>
      <trkpt lat="42.208677" lon="9.029738">
        <ele>2131.4</ele>
        <time>2022-09-12T08:42:49Z</time>
      </trkpt>
      <trkpt lat="42.208655" lon="9.029762">
        <ele>2132.0</ele>
        <time>2022-09-12T08:42:59Z</time>
      </trkpt>
      <trkpt lat="42.208602" lon="9.02982">
        <ele>2134.0</ele>
        <time>2022-09-12T08:43:16Z</time>
      </trkpt>
      <trkpt lat="42.2086" lon="9.029822">
        <ele>2134.0</ele>
        <time>2022-09-12T08:43:18Z</time>
      </trkpt>
      <trkpt lat="42.208528" lon="9.029835">
        <ele>2134.0</ele>
        <time>2022-09-12T08:43:33Z</time>
      </trkpt>
      <trkpt lat="42.208465" lon="9.029905">
        <ele>2136.4</ele>
        <time>2022-09-12T08:43:52Z</time>
      </trkpt>
      <trkpt lat="42.208392" lon="9.029942">
        <ele>2137.4</ele>
        <time>2022-09-12T08:43:59Z</time>
      </trkpt>
      <trkpt lat="42.208387" lon="9.029962">
        <ele>2138.0</ele>
        <time>2022-09-12T08:44:02Z</time>
      </trkpt>
      <trkpt lat="42.208365" lon="9.030002">
        <ele>2138.8</ele>
        <time>2022-09-12T08:44:14Z</time>
      </trkpt>
      <trkpt lat="42.208347" lon="9.03003">
        <ele>2139.2</ele>
        <time>2022-09-12T08:44:19Z</time>
      </trkpt>
      <trkpt lat="42.20833" lon="9.030093">
        <ele>2139.0</ele>
        <time>2022-09-12T08:44:26Z</time>
      </trkpt>
      <trkpt lat="42.208287" lon="9.030168">
        <ele>2139.4</ele>
        <time>2022-09-12T08:44:35Z</time>
      </trkpt>
      <trkpt lat="42.208283" lon="9.030225">
        <ele>2139.0</ele>
        <time>2022-09-12T08:44:40Z</time>
      </trkpt>
      <trkpt lat="42.208288" lon="9.030337">
        <ele>2138.4</ele>
        <time>2022-09-12T08:44:52Z</time>
      </trkpt>
      <trkpt lat="42.20827" lon="9.03039">
        <ele>2138.8</ele>
        <time>2022-09-12T08:44:57Z</time>
      </trkpt>
      <trkpt lat="42.20822" lon="9.03051">
        <ele>2139.0</ele>
        <time>2022-09-12T08:45:08Z</time>
      </trkpt>
      <trkpt lat="42.208195" lon="9.030587">
        <ele>2139.8</ele>
        <time>2022-09-12T08:45:15Z</time>
      </trkpt>
      <trkpt lat="42.208165" lon="9.030722">
        <ele>2141.2</ele>
        <time>2022-09-12T08:45:28Z</time>
      </trkpt>
      <trkpt lat="42.208172" lon="9.030742">
        <ele>2141.6</ele>
        <time>2022-09-12T08:45:31Z</time>
      </trkpt>
      <trkpt lat="42.208177" lon="9.03075">
        <ele>2141.6</ele>
        <time>2022-09-12T08:45:32Z</time>
      </trkpt>
      <trkpt lat="42.208173" lon="9.030893">
        <ele>2142.2</ele>
        <time>2022-09-12T08:45:44Z</time>
      </trkpt>
      <trkpt lat="42.208202" lon="9.031017">
        <ele>2142.4</ele>
        <time>2022-09-12T08:45:57Z</time>
      </trkpt>
      <trkpt lat="42.20825" lon="9.031138">
        <ele>2142.8</ele>
        <time>2022-09-12T08:46:08Z</time>
      </trkpt>
      <trkpt lat="42.20823" lon="9.0312">
        <ele>2143.2</ele>
        <time>2022-09-12T08:46:15Z</time>
      </trkpt>
      <trkpt lat="42.208197" lon="9.031285">
        <ele>2145.2</ele>
        <time>2022-09-12T08:46:26Z</time>
      </trkpt>
      <trkpt lat="42.20819" lon="9.031377">
        <ele>2147.2</ele>
        <time>2022-09-12T08:46:41Z</time>
      </trkpt>
      <trkpt lat="42.208157" lon="9.031447">
        <ele>2148.2</ele>
        <time>2022-09-12T08:46:51Z</time>
      </trkpt>
      <trkpt lat="42.208117" lon="9.031555">
        <ele>2151.0</ele>
        <time>2022-09-12T08:47:07Z</time>
      </trkpt>
      <trkpt lat="42.208135" lon="9.031593">
        <ele>2151.8</ele>
        <time>2022-09-12T08:47:15Z</time>
      </trkpt>
      <trkpt lat="42.208175" lon="9.031657">
        <ele>2153.4</ele>
        <time>2022-09-12T08:47:27Z</time>
      </trkpt>
      <trkpt lat="42.20819" lon="9.0317">
        <ele>2152.8</ele>
        <time>2022-09-12T08:47:34Z</time>
      </trkpt>
      <trkpt lat="42.208195" lon="9.031665">
        <ele>2154.8</ele>
        <time>2022-09-12T08:48:08Z</time>
      </trkpt>
      <trkpt lat="42.208193" lon="9.031587">
        <ele>2155.0</ele>
        <time>2022-09-12T08:48:15Z</time>
      </trkpt>
      <trkpt lat="42.208205" lon="9.031558">
        <ele>2155.6</ele>
        <time>2022-09-12T08:48:22Z</time>
      </trkpt>
      <trkpt lat="42.208243" lon="9.031617">
        <ele>2155.2</ele>
        <time>2022-09-12T08:48:37Z</time>
      </trkpt>
      <trkpt lat="42.20827" lon="9.031603">
        <ele>2155.8</ele>
        <time>2022-09-12T08:48:47Z</time>
      </trkpt>
      <trkpt lat="42.208277" lon="9.031593">
        <ele>2156.4</ele>
        <time>2022-09-12T08:48:50Z</time>
      </trkpt>
      <trkpt lat="42.208172" lon="9.03193">
        <ele>2157.2</ele>
        <time>2022-09-12T08:49:12Z</time>
      </trkpt>
      <trkpt lat="42.208057" lon="9.032283">
        <ele>2156.6</ele>
        <time>2022-09-12T08:49:28Z</time>
      </trkpt>
      <trkpt lat="42.208057" lon="9.032397">
        <ele>2157.4</ele>
        <time>2022-09-12T08:49:37Z</time>
      </trkpt>
      <trkpt lat="42.208042" lon="9.03247">
        <ele>2157.6</ele>
        <time>2022-09-12T08:49:43Z</time>
      </trkpt>
      <trkpt lat="42.208007" lon="9.032545">
        <ele>2158.4</ele>
        <time>2022-09-12T08:49:50Z</time>
      </trkpt>
      <trkpt lat="42.207983" lon="9.032697">
        <ele>2159.4</ele>
        <time>2022-09-12T08:50:04Z</time>
      </trkpt>
      <trkpt lat="42.207978" lon="9.032728">
        <ele>2160.0</ele>
        <time>2022-09-12T08:50:08Z</time>
      </trkpt>
      <trkpt lat="42.207978" lon="9.032762">
        <ele>2160.0</ele>
        <time>2022-09-12T08:50:11Z</time>
      </trkpt>
      <trkpt lat="42.20793" lon="9.032905">
        <ele>2160.2</ele>
        <time>2022-09-12T08:50:21Z</time>
      </trkpt>
      <trkpt lat="42.207962" lon="9.033083">
        <ele>2157.6</ele>
        <time>2022-09-12T08:50:48Z</time>
      </trkpt>
      <trkpt lat="42.207957" lon="9.033122">
        <ele>2157.4</ele>
        <time>2022-09-12T08:50:51Z</time>
      </trkpt>
      <trkpt lat="42.207977" lon="9.033182">
        <ele>2155.6</ele>
        <time>2022-09-12T08:51:00Z</time>
      </trkpt>
      <trkpt lat="42.207982" lon="9.033228">
        <ele>2155.4</ele>
        <time>2022-09-12T08:51:05Z</time>
      </trkpt>
      <trkpt lat="42.207987" lon="9.033305">
        <ele>2155.6</ele>
        <time>2022-09-12T08:51:13Z</time>
      </trkpt>
      <trkpt lat="42.208003" lon="9.033367">
        <ele>2155.6</ele>
        <time>2022-09-12T08:51:20Z</time>
      </trkpt>
      <trkpt lat="42.207992" lon="9.033447">
        <ele>2153.8</ele>
        <time>2022-09-12T08:51:29Z</time>
      </trkpt>
      <trkpt lat="42.207968" lon="9.033568">
        <ele>2155.4</ele>
        <time>2022-09-12T08:51:54Z</time>
      </trkpt>
      <trkpt lat="42.20797" lon="9.033575">
        <ele>2155.6</ele>
        <time>2022-09-12T08:51:55Z</time>
      </trkpt>
      <trkpt lat="42.207998" lon="9.033637">
        <ele>2156.0</ele>
        <time>2022-09-12T08:52:05Z</time>
      </trkpt>
      <trkpt lat="42.207997" lon="9.033685">
        <ele>2155.2</ele>
        <time>2022-09-12T08:52:10Z</time>
      </trkpt>
      <trkpt lat="42.207962" lon="9.033785">
        <ele>2154.8</ele>
        <time>2022-09-12T08:52:20Z</time>
      </trkpt>
      <trkpt lat="42.207957" lon="9.033833">
        <ele>2155.0</ele>
        <time>2022-09-12T08:52:25Z</time>
      </trkpt>
      <trkpt lat="42.20794" lon="9.033902">
        <ele>2155.0</ele>
        <time>2022-09-12T08:52:31Z</time>
      </trkpt>
      <trkpt lat="42.207928" lon="9.033983">
        <ele>2154.8</ele>
        <time>2022-09-12T08:52:44Z</time>
      </trkpt>
      <trkpt lat="42.2079" lon="9.034028">
        <ele>2155.0</ele>
        <time>2022-09-12T08:52:51Z</time>
      </trkpt>
      <trkpt lat="42.207853" lon="9.034073">
        <ele>2156.2</ele>
        <time>2022-09-12T08:52:59Z</time>
      </trkpt>
      <trkpt lat="42.207843" lon="9.034105">
        <ele>2156.4</ele>
        <time>2022-09-12T08:53:03Z</time>
      </trkpt>
      <trkpt lat="42.207837" lon="9.034145">
        <ele>2157.0</ele>
        <time>2022-09-12T08:53:08Z</time>
      </trkpt>
      <trkpt lat="42.20783" lon="9.034202">
        <ele>2157.2</ele>
        <time>2022-09-12T08:53:14Z</time>
      </trkpt>
      <trkpt lat="42.207822" lon="9.034303">
        <ele>2157.6</ele>
        <time>2022-09-12T08:53:24Z</time>
      </trkpt>
      <trkpt lat="42.207813" lon="9.034508">
        <ele>2158.2</ele>
        <time>2022-09-12T08:53:48Z</time>
      </trkpt>
      <trkpt lat="42.207822" lon="9.034668">
        <ele>2159.2</ele>
        <time>2022-09-12T08:54:27Z</time>
      </trkpt>
      <trkpt lat="42.20782" lon="9.034668">
        <ele>2159.2</ele>
        <time>2022-09-12T08:54:28Z</time>
      </trkpt>
      <trkpt lat="42.20781" lon="9.034732">
        <ele>2161.2</ele>
        <time>2022-09-12T08:54:45Z</time>
      </trkpt>
      <trkpt lat="42.207795" lon="9.034767">
        <ele>2160.2</ele>
        <time>2022-09-12T08:55:06Z</time>
      </trkpt>
      <trkpt lat="42.207783" lon="9.034775">
        <ele>2160.8</ele>
        <time>2022-09-12T08:55:16Z</time>
      </trkpt>
      <trkpt lat="42.207775" lon="9.034783">
        <ele>2161.4</ele>
        <time>2022-09-12T08:55:27Z</time>
      </trkpt>
      <trkpt lat="42.207777" lon="9.034845">
        <ele>2162.0</ele>
        <time>2022-09-12T08:55:38Z</time>
      </trkpt>
      <trkpt lat="42.207798" lon="9.034928">
        <ele>2162.8</ele>
        <time>2022-09-12T08:55:51Z</time>
      </trkpt>
      <trkpt lat="42.207813" lon="9.035197">
        <ele>2163.4</ele>
        <time>2022-09-12T08:56:00Z</time>
      </trkpt>
      <trkpt lat="42.207837" lon="9.035457">
        <ele>2163.8</ele>
        <time>2022-09-12T08:56:08Z</time>
      </trkpt>
      <trkpt lat="42.20784" lon="9.035553">
        <ele>2164.6</ele>
        <time>2022-09-12T08:56:17Z</time>
      </trkpt>
      <trkpt lat="42.207805" lon="9.035612">
        <ele>2167.4</ele>
        <time>2022-09-12T08:56:36Z</time>
      </trkpt>
      <trkpt lat="42.207807" lon="9.03563">
        <ele>2167.8</ele>
        <time>2022-09-12T08:56:39Z</time>
      </trkpt>
      <trkpt lat="42.207773" lon="9.035715">
        <ele>2168.4</ele>
        <time>2022-09-12T08:56:48Z</time>
      </trkpt>
      <trkpt lat="42.207753" lon="9.035718">
        <ele>2169.0</ele>
        <time>2022-09-12T08:56:51Z</time>
      </trkpt>
      <trkpt lat="42.207738" lon="9.035732">
        <ele>2170.2</ele>
        <time>2022-09-12T08:56:58Z</time>
      </trkpt>
      <trkpt lat="42.20772" lon="9.035805">
        <ele>2170.8</ele>
        <time>2022-09-12T08:57:06Z</time>
      </trkpt>
      <trkpt lat="42.207692" lon="9.035808">
        <ele>2172.0</ele>
        <time>2022-09-12T08:57:12Z</time>
      </trkpt>
      <trkpt lat="42.207597" lon="9.035878">
        <ele>2176.2</ele>
        <time>2022-09-12T08:57:36Z</time>
      </trkpt>
      <trkpt lat="42.207597" lon="9.03588">
        <ele>2176.2</ele>
        <time>2022-09-12T08:57:37Z</time>
      </trkpt>
      <trkpt lat="42.207617" lon="9.035912">
        <ele>2179.4</ele>
        <time>2022-09-12T08:57:59Z</time>
      </trkpt>
      <trkpt lat="42.207642" lon="9.035937">
        <ele>2182.2</ele>
        <time>2022-09-12T08:58:17Z</time>
      </trkpt>
      <trkpt lat="42.207667" lon="9.036025">
        <ele>2183.6</ele>
        <time>2022-09-12T08:58:32Z</time>
      </trkpt>
      <trkpt lat="42.207655" lon="9.036105">
        <ele>2184.2</ele>
        <time>2022-09-12T08:58:41Z</time>
      </trkpt>
      <trkpt lat="42.20765" lon="9.036113">
        <ele>2184.2</ele>
        <time>2022-09-12T08:58:42Z</time>
      </trkpt>
      <trkpt lat="42.207602" lon="9.03614">
        <ele>2184.6</ele>
        <time>2022-09-12T08:58:49Z</time>
      </trkpt>
      <trkpt lat="42.207425" lon="9.036347">
        <ele>2182.6</ele>
        <time>2022-09-12T08:59:22Z</time>
      </trkpt>
      <trkpt lat="42.207373" lon="9.03638">
        <ele>2183.8</ele>
        <time>2022-09-12T08:59:32Z</time>
      </trkpt>
      <trkpt lat="42.20736" lon="9.03646">
        <ele>2184.0</ele>
        <time>2022-09-12T08:59:40Z</time>
      </trkpt>
      <trkpt lat="42.207347" lon="9.036643">
        <ele>2184.8</ele>
        <time>2022-09-12T08:59:54Z</time>
      </trkpt>
      <trkpt lat="42.207333" lon="9.03673">
        <ele>2185.8</ele>
        <time>2022-09-12T09:00:02Z</time>
      </trkpt>
      <trkpt lat="42.207262" lon="9.036988">
        <ele>2188.0</ele>
        <time>2022-09-12T09:00:26Z</time>
      </trkpt>
      <trkpt lat="42.207202" lon="9.03704">
        <ele>2188.8</ele>
        <time>2022-09-12T09:00:35Z</time>
      </trkpt>
      <trkpt lat="42.207172" lon="9.037072">
        <ele>2190.0</ele>
        <time>2022-09-12T09:00:40Z</time>
      </trkpt>
      <trkpt lat="42.207127" lon="9.037182">
        <ele>2191.6</ele>
        <time>2022-09-12T09:00:52Z</time>
      </trkpt>
      <trkpt lat="42.207085" lon="9.037257">
        <ele>2192.0</ele>
        <time>2022-09-12T09:01:02Z</time>
      </trkpt>
      <trkpt lat="42.207005" lon="9.037335">
        <ele>2193.4</ele>
        <time>2022-09-12T09:01:17Z</time>
      </trkpt>
      <trkpt lat="42.206962" lon="9.037373">
        <ele>2194.4</ele>
        <time>2022-09-12T09:01:25Z</time>
      </trkpt>
      <trkpt lat="42.20693" lon="9.037392">
        <ele>2195.2</ele>
        <time>2022-09-12T09:01:29Z</time>
      </trkpt>
      <trkpt lat="42.206868" lon="9.0374">
        <ele>2196.8</ele>
        <time>2022-09-12T09:01:38Z</time>
      </trkpt>
      <trkpt lat="42.206842" lon="9.03744">
        <ele>2198.0</ele>
        <time>2022-09-12T09:01:45Z</time>
      </trkpt>
      <trkpt lat="42.206823" lon="9.037452">
        <ele>2198.4</ele>
        <time>2022-09-12T09:01:47Z</time>
      </trkpt>
      <trkpt lat="42.206768" lon="9.037428">
        <ele>2199.0</ele>
        <time>2022-09-12T09:01:53Z</time>
      </trkpt>
      <trkpt lat="42.206745" lon="9.03743">
        <ele>2199.2</ele>
        <time>2022-09-12T09:01:56Z</time>
      </trkpt>
      <trkpt lat="42.206695" lon="9.037428">
        <ele>2198.6</ele>
        <time>2022-09-12T09:02:25Z</time>
      </trkpt>
      <trkpt lat="42.206677" lon="9.037457">
        <ele>2200.0</ele>
        <time>2022-09-12T09:03:05Z</time>
      </trkpt>
      <trkpt lat="42.206655" lon="9.037582">
        <ele>2199.0</ele>
        <time>2022-09-12T09:03:48Z</time>
      </trkpt>
      <trkpt lat="42.206652" lon="9.037613">
        <ele>2199.0</ele>
        <time>2022-09-12T09:05:17Z</time>
      </trkpt>
      <trkpt lat="42.206627" lon="9.037627">
        <ele>2196.6</ele>
        <time>2022-09-12T09:05:54Z</time>
      </trkpt>
      <trkpt lat="42.206622" lon="9.037625">
        <ele>2196.6</ele>
        <time>2022-09-12T09:05:55Z</time>
      </trkpt>
      <trkpt lat="42.20664" lon="9.03773">
        <ele>2195.8</ele>
        <time>2022-09-12T09:06:11Z</time>
      </trkpt>
      <trkpt lat="42.206663" lon="9.037782">
        <ele>2196.6</ele>
        <time>2022-09-12T09:06:18Z</time>
      </trkpt>
      <trkpt lat="42.206668" lon="9.03784">
        <ele>2196.2</ele>
        <time>2022-09-12T09:06:27Z</time>
      </trkpt>
      <trkpt lat="42.206673" lon="9.037887">
        <ele>2195.4</ele>
        <time>2022-09-12T09:06:34Z</time>
      </trkpt>
      <trkpt lat="42.206673" lon="9.0379">
        <ele>2195.0</ele>
        <time>2022-09-12T09:06:36Z</time>
      </trkpt>
      <trkpt lat="42.20665" lon="9.037915">
        <ele>2193.8</ele>
        <time>2022-09-12T09:06:43Z</time>
      </trkpt>
      <trkpt lat="42.20663" lon="9.03794">
        <ele>2193.6</ele>
        <time>2022-09-12T09:06:48Z</time>
      </trkpt>
      <trkpt lat="42.206595" lon="9.037955">
        <ele>2192.2</ele>
        <time>2022-09-12T09:06:59Z</time>
      </trkpt>
      <trkpt lat="42.20657" lon="9.037978">
        <ele>2191.4</ele>
        <time>2022-09-12T09:07:08Z</time>
      </trkpt>
      <trkpt lat="42.206553" lon="9.038013">
        <ele>2190.0</ele>
        <time>2022-09-12T09:07:17Z</time>
      </trkpt>
      <trkpt lat="42.206548" lon="9.038018">
        <ele>2189.8</ele>
        <time>2022-09-12T09:07:20Z</time>
      </trkpt>
      <trkpt lat="42.206553" lon="9.03807">
        <ele>2189.0</ele>
        <time>2022-09-12T09:07:32Z</time>
      </trkpt>
      <trkpt lat="42.206527" lon="9.038055">
        <ele>2188.2</ele>
        <time>2022-09-12T09:07:44Z</time>
      </trkpt>
      <trkpt lat="42.206517" lon="9.038088">
        <ele>2187.4</ele>
        <time>2022-09-12T09:07:55Z</time>
      </trkpt>
      <trkpt lat="42.206473" lon="9.038128">
        <ele>2183.0</ele>
        <time>2022-09-12T09:08:23Z</time>
      </trkpt>
      <trkpt lat="42.206445" lon="9.038175">
        <ele>2182.2</ele>
        <time>2022-09-12T09:08:34Z</time>
      </trkpt>
      <trkpt lat="42.206373" lon="9.03825">
        <ele>2178.0</ele>
        <time>2022-09-12T09:08:54Z</time>
      </trkpt>
      <trkpt lat="42.20637" lon="9.038255">
        <ele>2178.0</ele>
        <time>2022-09-12T09:08:55Z</time>
      </trkpt>
      <trkpt lat="42.206392" lon="9.038343">
        <ele>2175.2</ele>
        <time>2022-09-12T09:09:06Z</time>
      </trkpt>
      <trkpt lat="42.206412" lon="9.03841">
        <ele>2174.2</ele>
        <time>2022-09-12T09:09:17Z</time>
      </trkpt>
      <trkpt lat="42.206412" lon="9.038525">
        <ele>2173.0</ele>
        <time>2022-09-12T09:09:33Z</time>
      </trkpt>
      <trkpt lat="42.206372" lon="9.038543">
        <ele>2172.6</ele>
        <time>2022-09-12T09:09:39Z</time>
      </trkpt>
      <trkpt lat="42.20632" lon="9.038542">
        <ele>2172.2</ele>
        <time>2022-09-12T09:09:44Z</time>
      </trkpt>
      <trkpt lat="42.206263" lon="9.038513">
        <ele>2171.8</ele>
        <time>2022-09-12T09:09:50Z</time>
      </trkpt>
      <trkpt lat="42.206237" lon="9.038575">
        <ele>2171.8</ele>
        <time>2022-09-12T09:09:56Z</time>
      </trkpt>
      <trkpt lat="42.206227" lon="9.038707">
        <ele>2170.8</ele>
        <time>2022-09-12T09:10:07Z</time>
      </trkpt>
      <trkpt lat="42.206228" lon="9.038738">
        <ele>2170.8</ele>
        <time>2022-09-12T09:10:09Z</time>
      </trkpt>
      <trkpt lat="42.20619" lon="9.038767">
        <ele>2170.6</ele>
        <time>2022-09-12T09:10:14Z</time>
      </trkpt>
      <trkpt lat="42.206118" lon="9.03881">
        <ele>2170.0</ele>
        <time>2022-09-12T09:10:22Z</time>
      </trkpt>
      <trkpt lat="42.206068" lon="9.038868">
        <ele>2169.2</ele>
        <time>2022-09-12T09:10:29Z</time>
      </trkpt>
      <trkpt lat="42.206047" lon="9.038887">
        <ele>2169.0</ele>
        <time>2022-09-12T09:10:33Z</time>
      </trkpt>
      <trkpt lat="42.205998" lon="9.03888">
        <ele>2167.8</ele>
        <time>2022-09-12T09:10:39Z</time>
      </trkpt>
      <trkpt lat="42.205882" lon="9.038952">
        <ele>2166.0</ele>
        <time>2022-09-12T09:10:53Z</time>
      </trkpt>
      <trkpt lat="42.205823" lon="9.039005">
        <ele>2165.2</ele>
        <time>2022-09-12T09:11:01Z</time>
      </trkpt>
      <trkpt lat="42.205763" lon="9.039098">
        <ele>2163.6</ele>
        <time>2022-09-12T09:11:12Z</time>
      </trkpt>
      <trkpt lat="42.205735" lon="9.03917">
        <ele>2162.2</ele>
        <time>2022-09-12T09:11:20Z</time>
      </trkpt>
      <trkpt lat="42.205715" lon="9.039272">
        <ele>2162.6</ele>
        <time>2022-09-12T09:11:38Z</time>
      </trkpt>
      <trkpt lat="42.205642" lon="9.039468">
        <ele>2163.6</ele>
        <time>2022-09-12T09:12:00Z</time>
      </trkpt>
      <trkpt lat="42.205642" lon="9.039492">
        <ele>2164.0</ele>
        <time>2022-09-12T09:12:02Z</time>
      </trkpt>
      <trkpt lat="42.205618" lon="9.039543">
        <ele>2164.0</ele>
        <time>2022-09-12T09:12:09Z</time>
      </trkpt>
      <trkpt lat="42.205592" lon="9.039582">
        <ele>2164.2</ele>
        <time>2022-09-12T09:12:17Z</time>
      </trkpt>
      <trkpt lat="42.20558" lon="9.039672">
        <ele>2163.8</ele>
        <time>2022-09-12T09:12:29Z</time>
      </trkpt>
      <trkpt lat="42.205578" lon="9.039707">
        <ele>2163.2</ele>
        <time>2022-09-12T09:12:34Z</time>
      </trkpt>
      <trkpt lat="42.205517" lon="9.039813">
        <ele>2160.0</ele>
        <time>2022-09-12T09:13:05Z</time>
      </trkpt>
      <trkpt lat="42.205442" lon="9.040008">
        <ele>2155.2</ele>
        <time>2022-09-12T09:13:40Z</time>
      </trkpt>
      <trkpt lat="42.20543" lon="9.04007">
        <ele>2154.0</ele>
        <time>2022-09-12T09:13:52Z</time>
      </trkpt>
      <trkpt lat="42.205373" lon="9.040172">
        <ele>2153.8</ele>
        <time>2022-09-12T09:14:00Z</time>
      </trkpt>
      <trkpt lat="42.205342" lon="9.04026">
        <ele>2152.6</ele>
        <time>2022-09-12T09:14:05Z</time>
      </trkpt>
      <trkpt lat="42.205305" lon="9.040295">
        <ele>2152.6</ele>
        <time>2022-09-12T09:14:08Z</time>
      </trkpt>
      <trkpt lat="42.205282" lon="9.04029">
        <ele>2152.4</ele>
        <time>2022-09-12T09:14:11Z</time>
      </trkpt>
      <trkpt lat="42.205273" lon="9.040263">
        <ele>2151.6</ele>
        <time>2022-09-12T09:14:15Z</time>
      </trkpt>
      <trkpt lat="42.205238" lon="9.040258">
        <ele>2150.6</ele>
        <time>2022-09-12T09:14:20Z</time>
      </trkpt>
      <trkpt lat="42.205157" lon="9.040322">
        <ele>2149.2</ele>
        <time>2022-09-12T09:14:32Z</time>
      </trkpt>
      <trkpt lat="42.2051" lon="9.040387">
        <ele>2148.2</ele>
        <time>2022-09-12T09:14:41Z</time>
      </trkpt>
      <trkpt lat="42.205093" lon="9.040395">
        <ele>2148.2</ele>
        <time>2022-09-12T09:14:42Z</time>
      </trkpt>
      <trkpt lat="42.204997" lon="9.040548">
        <ele>2146.2</ele>
        <time>2022-09-12T09:14:58Z</time>
      </trkpt>
      <trkpt lat="42.204937" lon="9.040678">
        <ele>2145.6</ele>
        <time>2022-09-12T09:15:10Z</time>
      </trkpt>
      <trkpt lat="42.204857" lon="9.04073">
        <ele>2146.2</ele>
        <time>2022-09-12T09:15:18Z</time>
      </trkpt>
      <trkpt lat="42.20481" lon="9.040737">
        <ele>2146.2</ele>
        <time>2022-09-12T09:15:22Z</time>
      </trkpt>
      <trkpt lat="42.204775" lon="9.040783">
        <ele>2146.2</ele>
        <time>2022-09-12T09:15:27Z</time>
      </trkpt>
      <trkpt lat="42.204745" lon="9.040863">
        <ele>2146.2</ele>
        <time>2022-09-12T09:15:38Z</time>
      </trkpt>
      <trkpt lat="42.204775" lon="9.040978">
        <ele>2145.4</ele>
        <time>2022-09-12T09:15:51Z</time>
      </trkpt>
      <trkpt lat="42.204825" lon="9.04113">
        <ele>2143.2</ele>
        <time>2022-09-12T09:16:10Z</time>
      </trkpt>
      <trkpt lat="42.204833" lon="9.041158">
        <ele>2142.8</ele>
        <time>2022-09-12T09:16:13Z</time>
      </trkpt>
      <trkpt lat="42.204795" lon="9.041253">
        <ele>2142.2</ele>
        <time>2022-09-12T09:16:22Z</time>
      </trkpt>
      <trkpt lat="42.204752" lon="9.041388">
        <ele>2140.6</ele>
        <time>2022-09-12T09:16:36Z</time>
      </trkpt>
      <trkpt lat="42.204732" lon="9.041457">
        <ele>2139.6</ele>
        <time>2022-09-12T09:16:42Z</time>
      </trkpt>
      <trkpt lat="42.204712" lon="9.0416">
        <ele>2138.6</ele>
        <time>2022-09-12T09:16:55Z</time>
      </trkpt>
      <trkpt lat="42.204703" lon="9.041607">
        <ele>2138.6</ele>
        <time>2022-09-12T09:16:56Z</time>
      </trkpt>
      <trkpt lat="42.204658" lon="9.041673">
        <ele>2138.2</ele>
        <time>2022-09-12T09:17:05Z</time>
      </trkpt>
      <trkpt lat="42.20452" lon="9.041777">
        <ele>2136.4</ele>
        <time>2022-09-12T09:17:28Z</time>
      </trkpt>
      <trkpt lat="42.204493" lon="9.041832">
        <ele>2136.2</ele>
        <time>2022-09-12T09:17:36Z</time>
      </trkpt>
      <trkpt lat="42.20445" lon="9.041858">
        <ele>2136.4</ele>
        <time>2022-09-12T09:17:41Z</time>
      </trkpt>
      <trkpt lat="42.20441" lon="9.041857">
        <ele>2137.0</ele>
        <time>2022-09-12T09:17:46Z</time>
      </trkpt>
      <trkpt lat="42.204415" lon="9.041845">
        <ele>2137.0</ele>
        <time>2022-09-12T09:17:47Z</time>
      </trkpt>
      <trkpt lat="42.20444" lon="9.041777">
        <ele>2137.0</ele>
        <time>2022-09-12T09:17:56Z</time>
      </trkpt>
      <trkpt lat="42.20439" lon="9.041783">
        <ele>2137.0</ele>
        <time>2022-09-12T09:18:03Z</time>
      </trkpt>
      <trkpt lat="42.204317" lon="9.041807">
        <ele>2136.2</ele>
        <time>2022-09-12T09:18:12Z</time>
      </trkpt>
      <trkpt lat="42.204308" lon="9.041808">
        <ele>2135.8</ele>
        <time>2022-09-12T09:18:13Z</time>
      </trkpt>
      <trkpt lat="42.204302" lon="9.041837">
        <ele>2135.2</ele>
        <time>2022-09-12T09:18:17Z</time>
      </trkpt>
      <trkpt lat="42.204297" lon="9.041908">
        <ele>2133.6</ele>
        <time>2022-09-12T09:18:27Z</time>
      </trkpt>
      <trkpt lat="42.204253" lon="9.04199">
        <ele>2134.6</ele>
        <time>2022-09-12T09:18:37Z</time>
      </trkpt>
      <trkpt lat="42.204245" lon="9.042043">
        <ele>2134.0</ele>
        <time>2022-09-12T09:18:43Z</time>
      </trkpt>
      <trkpt lat="42.204237" lon="9.042122">
        <ele>2132.8</ele>
        <time>2022-09-12T09:18:53Z</time>
      </trkpt>
      <trkpt lat="42.204213" lon="9.042172">
        <ele>2130.8</ele>
        <time>2022-09-12T09:19:05Z</time>
      </trkpt>
      <trkpt lat="42.204208" lon="9.042192">
        <ele>2130.4</ele>
        <time>2022-09-12T09:19:11Z</time>
      </trkpt>
      <trkpt lat="42.204158" lon="9.04226">
        <ele>2128.6</ele>
        <time>2022-09-12T09:19:25Z</time>
      </trkpt>
      <trkpt lat="42.204075" lon="9.042358">
        <ele>2125.8</ele>
        <time>2022-09-12T09:19:45Z</time>
      </trkpt>
      <trkpt lat="42.203993" lon="9.042483">
        <ele>2123.6</ele>
        <time>2022-09-12T09:19:56Z</time>
      </trkpt>
      <trkpt lat="42.203953" lon="9.042608">
        <ele>2122.6</ele>
        <time>2022-09-12T09:20:04Z</time>
      </trkpt>
      <trkpt lat="42.20388" lon="9.042725">
        <ele>2121.8</ele>
        <time>2022-09-12T09:20:13Z</time>
      </trkpt>
      <trkpt lat="42.203845" lon="9.042807">
        <ele>2121.6</ele>
        <time>2022-09-12T09:20:20Z</time>
      </trkpt>
      <trkpt lat="42.203813" lon="9.042863">
        <ele>2121.0</ele>
        <time>2022-09-12T09:20:25Z</time>
      </trkpt>
      <trkpt lat="42.203788" lon="9.042885">
        <ele>2121.0</ele>
        <time>2022-09-12T09:20:28Z</time>
      </trkpt>
      <trkpt lat="42.203715" lon="9.042917">
        <ele>2119.2</ele>
        <time>2022-09-12T09:20:36Z</time>
      </trkpt>
      <trkpt lat="42.203627" lon="9.04299">
        <ele>2116.2</ele>
        <time>2022-09-12T09:20:52Z</time>
      </trkpt>
      <trkpt lat="42.203618" lon="9.043037">
        <ele>2114.8</ele>
        <time>2022-09-12T09:20:58Z</time>
      </trkpt>
      <trkpt lat="42.20362" lon="9.043052">
        <ele>2114.6</ele>
        <time>2022-09-12T09:21:00Z</time>
      </trkpt>
      <trkpt lat="42.203535" lon="9.043083">
        <ele>2110.4</ele>
        <time>2022-09-12T09:21:22Z</time>
      </trkpt>
      <trkpt lat="42.203532" lon="9.04309">
        <ele>2110.0</ele>
        <time>2022-09-12T09:21:23Z</time>
      </trkpt>
      <trkpt lat="42.203493" lon="9.043197">
        <ele>2107.6</ele>
        <time>2022-09-12T09:21:39Z</time>
      </trkpt>
      <trkpt lat="42.203425" lon="9.043362">
        <ele>2108.2</ele>
        <time>2022-09-12T09:21:51Z</time>
      </trkpt>
      <trkpt lat="42.203387" lon="9.043373">
        <ele>2109.0</ele>
        <time>2022-09-12T09:21:55Z</time>
      </trkpt>
      <trkpt lat="42.203313" lon="9.043417">
        <ele>2108.6</ele>
        <time>2022-09-12T09:22:04Z</time>
      </trkpt>
      <trkpt lat="42.203243" lon="9.043478">
        <ele>2107.0</ele>
        <time>2022-09-12T09:22:18Z</time>
      </trkpt>
      <trkpt lat="42.203185" lon="9.043517">
        <ele>2106.0</ele>
        <time>2022-09-12T09:22:28Z</time>
      </trkpt>
      <trkpt lat="42.203148" lon="9.043552">
        <ele>2106.0</ele>
        <time>2022-09-12T09:22:34Z</time>
      </trkpt>
      <trkpt lat="42.203043" lon="9.043717">
        <ele>2103.8</ele>
        <time>2022-09-12T09:22:55Z</time>
      </trkpt>
      <trkpt lat="42.203027" lon="9.043738">
        <ele>2103.6</ele>
        <time>2022-09-12T09:22:58Z</time>
      </trkpt>
      <trkpt lat="42.202953" lon="9.043777">
        <ele>2103.4</ele>
        <time>2022-09-12T09:23:10Z</time>
      </trkpt>
      <trkpt lat="42.202915" lon="9.043813">
        <ele>2102.6</ele>
        <time>2022-09-12T09:23:18Z</time>
      </trkpt>
      <trkpt lat="42.20288" lon="9.043842">
        <ele>2100.6</ele>
        <time>2022-09-12T09:23:27Z</time>
      </trkpt>
      <trkpt lat="42.20283" lon="9.04389">
        <ele>2099.2</ele>
        <time>2022-09-12T09:23:33Z</time>
      </trkpt>
      <trkpt lat="42.20274" lon="9.043895">
        <ele>2098.0</ele>
        <time>2022-09-12T09:23:41Z</time>
      </trkpt>
      <trkpt lat="42.202693" lon="9.04389">
        <ele>2097.2</ele>
        <time>2022-09-12T09:23:45Z</time>
      </trkpt>
      <trkpt lat="42.20261" lon="9.043843">
        <ele>2094.8</ele>
        <time>2022-09-12T09:23:56Z</time>
      </trkpt>
      <trkpt lat="42.20261" lon="9.04387">
        <ele>2094.2</ele>
        <time>2022-09-12T09:23:59Z</time>
      </trkpt>
      <trkpt lat="42.202615" lon="9.043915">
        <ele>2093.8</ele>
        <time>2022-09-12T09:24:04Z</time>
      </trkpt>
      <trkpt lat="42.202632" lon="9.043985">
        <ele>2092.4</ele>
        <time>2022-09-12T09:24:20Z</time>
      </trkpt>
      <trkpt lat="42.202628" lon="9.043982">
        <ele>2091.8</ele>
        <time>2022-09-12T09:24:23Z</time>
      </trkpt>
      <trkpt lat="42.202662" lon="9.043925">
        <ele>2090.4</ele>
        <time>2022-09-12T09:24:30Z</time>
      </trkpt>
      <trkpt lat="42.202663" lon="9.043928">
        <ele>2090.2</ele>
        <time>2022-09-12T09:24:31Z</time>
      </trkpt>
      <trkpt lat="42.202637" lon="9.043933">
        <ele>2090.0</ele>
        <time>2022-09-12T09:24:37Z</time>
      </trkpt>
      <trkpt lat="42.202602" lon="9.043897">
        <ele>2088.8</ele>
        <time>2022-09-12T09:24:44Z</time>
      </trkpt>
      <trkpt lat="42.202575" lon="9.043907">
        <ele>2087.8</ele>
        <time>2022-09-12T09:24:50Z</time>
      </trkpt>
      <trkpt lat="42.20256" lon="9.04399">
        <ele>2083.6</ele>
        <time>2022-09-12T09:25:10Z</time>
      </trkpt>
      <trkpt lat="42.202558" lon="9.044">
        <ele>2083.6</ele>
        <time>2022-09-12T09:25:12Z</time>
      </trkpt>
      <trkpt lat="42.202492" lon="9.044077">
        <ele>2083.2</ele>
        <time>2022-09-12T09:25:24Z</time>
      </trkpt>
      <trkpt lat="42.202415" lon="9.044148">
        <ele>2083.6</ele>
        <time>2022-09-12T09:25:35Z</time>
      </trkpt>
      <trkpt lat="42.202297" lon="9.044208">
        <ele>2082.6</ele>
        <time>2022-09-12T09:25:51Z</time>
      </trkpt>
      <trkpt lat="42.202288" lon="9.044213">
        <ele>2082.8</ele>
        <time>2022-09-12T09:25:53Z</time>
      </trkpt>
      <trkpt lat="42.20224" lon="9.044228">
        <ele>2083.2</ele>
        <time>2022-09-12T09:25:59Z</time>
      </trkpt>
      <trkpt lat="42.202183" lon="9.04424">
        <ele>2084.0</ele>
        <time>2022-09-12T09:26:06Z</time>
      </trkpt>
      <trkpt lat="42.202137" lon="9.044235">
        <ele>2085.2</ele>
        <time>2022-09-12T09:26:12Z</time>
      </trkpt>
      <trkpt lat="42.202042" lon="9.04428">
        <ele>2085.6</ele>
        <time>2022-09-12T09:26:23Z</time>
      </trkpt>
      <trkpt lat="42.202037" lon="9.044287">
        <ele>2085.6</ele>
        <time>2022-09-12T09:26:25Z</time>
      </trkpt>
      <trkpt lat="42.201992" lon="9.044375">
        <ele>2086.2</ele>
        <time>2022-09-12T09:26:33Z</time>
      </trkpt>
      <trkpt lat="42.201885" lon="9.044495">
        <ele>2086.4</ele>
        <time>2022-09-12T09:26:47Z</time>
      </trkpt>
      <trkpt lat="42.201752" lon="9.044633">
        <ele>2086.2</ele>
        <time>2022-09-12T09:27:11Z</time>
      </trkpt>
      <trkpt lat="42.201733" lon="9.044675">
        <ele>2085.4</ele>
        <time>2022-09-12T09:27:15Z</time>
      </trkpt>
      <trkpt lat="42.20168" lon="9.044703">
        <ele>2085.2</ele>
        <time>2022-09-12T09:27:22Z</time>
      </trkpt>
      <trkpt lat="42.201532" lon="9.044762">
        <ele>2085.4</ele>
        <time>2022-09-12T09:27:34Z</time>
      </trkpt>
      <trkpt lat="42.201455" lon="9.044807">
        <ele>2085.2</ele>
        <time>2022-09-12T09:27:41Z</time>
      </trkpt>
      <trkpt lat="42.201352" lon="9.044835">
        <ele>2084.8</ele>
        <time>2022-09-12T09:27:50Z</time>
      </trkpt>
      <trkpt lat="42.201293" lon="9.044858">
        <ele>2084.0</ele>
        <time>2022-09-12T09:27:55Z</time>
      </trkpt>
      <trkpt lat="42.201283" lon="9.044867">
        <ele>2083.2</ele>
        <time>2022-09-12T09:27:57Z</time>
      </trkpt>
      <trkpt lat="42.201217" lon="9.044963">
        <ele>2082.0</ele>
        <time>2022-09-12T09:28:07Z</time>
      </trkpt>
      <trkpt lat="42.201117" lon="9.045117">
        <ele>2079.4</ele>
        <time>2022-09-12T09:28:23Z</time>
      </trkpt>
      <trkpt lat="42.201072" lon="9.045183">
        <ele>2077.6</ele>
        <time>2022-09-12T09:28:35Z</time>
      </trkpt>
      <trkpt lat="42.201063" lon="9.045193">
        <ele>2077.6</ele>
        <time>2022-09-12T09:28:37Z</time>
      </trkpt>
      <trkpt lat="42.201033" lon="9.04528">
        <ele>2074.8</ele>
        <time>2022-09-12T09:28:54Z</time>
      </trkpt>
      <trkpt lat="42.201023" lon="9.045363">
        <ele>2073.0</ele>
        <time>2022-09-12T09:29:05Z</time>
      </trkpt>
      <trkpt lat="42.201007" lon="9.045508">
        <ele>2072.6</ele>
        <time>2022-09-12T09:29:17Z</time>
      </trkpt>
      <trkpt lat="42.201002" lon="9.04552">
        <ele>2072.4</ele>
        <time>2022-09-12T09:29:18Z</time>
      </trkpt>
      <trkpt lat="42.200862" lon="9.045553">
        <ele>2069.0</ele>
        <time>2022-09-12T09:29:33Z</time>
      </trkpt>
      <trkpt lat="42.200793" lon="9.045528">
        <ele>2066.8</ele>
        <time>2022-09-12T09:29:41Z</time>
      </trkpt>
      <trkpt lat="42.200725" lon="9.045558">
        <ele>2065.4</ele>
        <time>2022-09-12T09:29:48Z</time>
      </trkpt>
      <trkpt lat="42.200685" lon="9.045573">
        <ele>2064.2</ele>
        <time>2022-09-12T09:29:52Z</time>
      </trkpt>
      <trkpt lat="42.200582" lon="9.045577">
        <ele>2060.8</ele>
        <time>2022-09-12T09:30:06Z</time>
      </trkpt>
      <trkpt lat="42.200552" lon="9.045573">
        <ele>2058.2</ele>
        <time>2022-09-12T09:30:17Z</time>
      </trkpt>
      <trkpt lat="42.200532" lon="9.045602">
        <ele>2056.0</ele>
        <time>2022-09-12T09:30:26Z</time>
      </trkpt>
      <trkpt lat="42.200512" lon="9.04565">
        <ele>2054.0</ele>
        <time>2022-09-12T09:30:38Z</time>
      </trkpt>
      <trkpt lat="42.200485" lon="9.045672">
        <ele>2051.8</ele>
        <time>2022-09-12T09:30:51Z</time>
      </trkpt>
      <trkpt lat="42.200483" lon="9.045673">
        <ele>2051.6</ele>
        <time>2022-09-12T09:30:52Z</time>
      </trkpt>
      <trkpt lat="42.200428" lon="9.045732">
        <ele>2050.6</ele>
        <time>2022-09-12T09:31:05Z</time>
      </trkpt>
      <trkpt lat="42.200343" lon="9.045825">
        <ele>2047.0</ele>
        <time>2022-09-12T09:31:24Z</time>
      </trkpt>
      <trkpt lat="42.200275" lon="9.045893">
        <ele>2046.0</ele>
        <time>2022-09-12T09:31:30Z</time>
      </trkpt>
      <trkpt lat="42.200175" lon="9.045998">
        <ele>2045.2</ele>
        <time>2022-09-12T09:31:37Z</time>
      </trkpt>
      <trkpt lat="42.200127" lon="9.046118">
        <ele>2044.4</ele>
        <time>2022-09-12T09:31:42Z</time>
      </trkpt>
      <trkpt lat="42.200013" lon="9.046248">
        <ele>2044.2</ele>
        <time>2022-09-12T09:31:57Z</time>
      </trkpt>
      <trkpt lat="42.199993" lon="9.0463">
        <ele>2044.2</ele>
        <time>2022-09-12T09:32:03Z</time>
      </trkpt>
      <trkpt lat="42.199982" lon="9.04637">
        <ele>2044.8</ele>
        <time>2022-09-12T09:32:09Z</time>
      </trkpt>
      <trkpt lat="42.199968" lon="9.046433">
        <ele>2045.6</ele>
        <time>2022-09-12T09:32:15Z</time>
      </trkpt>
      <trkpt lat="42.199958" lon="9.046512">
        <ele>2046.6</ele>
        <time>2022-09-12T09:32:22Z</time>
      </trkpt>
      <trkpt lat="42.199963" lon="9.046518">
        <ele>2046.6</ele>
        <time>2022-09-12T09:32:23Z</time>
      </trkpt>
      <trkpt lat="42.199948" lon="9.046662">
        <ele>2047.2</ele>
        <time>2022-09-12T09:36:17Z</time>
      </trkpt>
      <trkpt lat="42.199965" lon="9.046697">
        <ele>2047.0</ele>
        <time>2022-09-12T09:36:22Z</time>
      </trkpt>
      <trkpt lat="42.200075" lon="9.046733">
        <ele>2039.4</ele>
        <time>2022-09-12T09:37:04Z</time>
      </trkpt>
      <trkpt lat="42.200075" lon="9.04676">
        <ele>2038.4</ele>
        <time>2022-09-12T09:37:11Z</time>
      </trkpt>
      <trkpt lat="42.200073" lon="9.04679">
        <ele>2036.4</ele>
        <time>2022-09-12T09:37:21Z</time>
      </trkpt>
      <trkpt lat="42.200097" lon="9.046817">
        <ele>2034.2</ele>
        <time>2022-09-12T09:37:32Z</time>
      </trkpt>
      <trkpt lat="42.200097" lon="9.046823">
        <ele>2034.0</ele>
        <time>2022-09-12T09:37:33Z</time>
      </trkpt>
      <trkpt lat="42.199993" lon="9.04687">
        <ele>2031.8</ele>
        <time>2022-09-12T09:37:46Z</time>
      </trkpt>
      <trkpt lat="42.199995" lon="9.04691">
        <ele>2030.4</ele>
        <time>2022-09-12T09:37:53Z</time>
      </trkpt>
      <trkpt lat="42.199927" lon="9.046937">
        <ele>2028.2</ele>
        <time>2022-09-12T09:38:03Z</time>
      </trkpt>
      <trkpt lat="42.199853" lon="9.046895">
        <ele>2026.2</ele>
        <time>2022-09-12T09:38:14Z</time>
      </trkpt>
      <trkpt lat="42.199842" lon="9.046893">
        <ele>2026.2</ele>
        <time>2022-09-12T09:38:15Z</time>
      </trkpt>
      <trkpt lat="42.199842" lon="9.046925">
        <ele>2025.8</ele>
        <time>2022-09-12T09:38:19Z</time>
      </trkpt>
      <trkpt lat="42.199857" lon="9.046947">
        <ele>2025.8</ele>
        <time>2022-09-12T09:38:23Z</time>
      </trkpt>
      <trkpt lat="42.199873" lon="9.046932">
        <ele>2025.2</ele>
        <time>2022-09-12T09:38:28Z</time>
      </trkpt>
      <trkpt lat="42.1999" lon="9.046927">
        <ele>2023.4</ele>
        <time>2022-09-12T09:38:41Z</time>
      </trkpt>
      <trkpt lat="42.199928" lon="9.046907">
        <ele>2022.0</ele>
        <time>2022-09-12T09:38:48Z</time>
      </trkpt>
      <trkpt lat="42.199915" lon="9.046972">
        <ele>2020.6</ele>
        <time>2022-09-12T09:38:57Z</time>
      </trkpt>
      <trkpt lat="42.199878" lon="9.047038">
        <ele>2018.2</ele>
        <time>2022-09-12T09:39:09Z</time>
      </trkpt>
      <trkpt lat="42.199875" lon="9.047045">
        <ele>2018.2</ele>
        <time>2022-09-12T09:39:10Z</time>
      </trkpt>
      <trkpt lat="42.199797" lon="9.047007">
        <ele>2016.0</ele>
        <time>2022-09-12T09:39:20Z</time>
      </trkpt>
      <trkpt lat="42.199742" lon="9.04705">
        <ele>2014.6</ele>
        <time>2022-09-12T09:39:29Z</time>
      </trkpt>
      <trkpt lat="42.199653" lon="9.047065">
        <ele>2012.6</ele>
        <time>2022-09-12T09:39:40Z</time>
      </trkpt>
      <trkpt lat="42.199585" lon="9.047077">
        <ele>2010.4</ele>
        <time>2022-09-12T09:39:49Z</time>
      </trkpt>
      <trkpt lat="42.199528" lon="9.047088">
        <ele>2009.0</ele>
        <time>2022-09-12T09:39:56Z</time>
      </trkpt>
      <trkpt lat="42.199512" lon="9.047095">
        <ele>2008.6</ele>
        <time>2022-09-12T09:39:59Z</time>
      </trkpt>
      <trkpt lat="42.199527" lon="9.04714">
        <ele>2006.8</ele>
        <time>2022-09-12T09:40:10Z</time>
      </trkpt>
      <trkpt lat="42.199567" lon="9.047158">
        <ele>2005.6</ele>
        <time>2022-09-12T09:40:17Z</time>
      </trkpt>
      <trkpt lat="42.199533" lon="9.04717">
        <ele>2004.6</ele>
        <time>2022-09-12T09:40:23Z</time>
      </trkpt>
      <trkpt lat="42.199503" lon="9.047192">
        <ele>2003.6</ele>
        <time>2022-09-12T09:40:32Z</time>
      </trkpt>
      <trkpt lat="42.19946" lon="9.047245">
        <ele>2000.2</ele>
        <time>2022-09-12T09:40:53Z</time>
      </trkpt>
      <trkpt lat="42.199402" lon="9.047252">
        <ele>1998.6</ele>
        <time>2022-09-12T09:41:03Z</time>
      </trkpt>
      <trkpt lat="42.199397" lon="9.047252">
        <ele>1998.4</ele>
        <time>2022-09-12T09:41:04Z</time>
      </trkpt>
      <trkpt lat="42.19935" lon="9.047258">
        <ele>1996.4</ele>
        <time>2022-09-12T09:41:12Z</time>
      </trkpt>
      <trkpt lat="42.19934" lon="9.047305">
        <ele>1995.4</ele>
        <time>2022-09-12T09:41:18Z</time>
      </trkpt>
      <trkpt lat="42.19933" lon="9.047333">
        <ele>1994.2</ele>
        <time>2022-09-12T09:41:23Z</time>
      </trkpt>
      <trkpt lat="42.199298" lon="9.047332">
        <ele>1993.4</ele>
        <time>2022-09-12T09:41:28Z</time>
      </trkpt>
      <trkpt lat="42.199227" lon="9.047368">
        <ele>1991.2</ele>
        <time>2022-09-12T09:41:42Z</time>
      </trkpt>
      <trkpt lat="42.199192" lon="9.047393">
        <ele>1989.2</ele>
        <time>2022-09-12T09:41:55Z</time>
      </trkpt>
      <trkpt lat="42.199182" lon="9.047442">
        <ele>1987.4</ele>
        <time>2022-09-12T09:42:05Z</time>
      </trkpt>
      <trkpt lat="42.199175" lon="9.047482">
        <ele>1985.2</ele>
        <time>2022-09-12T09:42:15Z</time>
      </trkpt>
      <trkpt lat="42.199175" lon="9.047483">
        <ele>1984.8</ele>
        <time>2022-09-12T09:42:16Z</time>
      </trkpt>
      <trkpt lat="42.199242" lon="9.047583">
        <ele>1981.8</ele>
        <time>2022-09-12T09:42:31Z</time>
      </trkpt>
      <trkpt lat="42.199275" lon="9.047648">
        <ele>1980.6</ele>
        <time>2022-09-12T09:42:45Z</time>
      </trkpt>
      <trkpt lat="42.19926" lon="9.047658">
        <ele>1980.2</ele>
        <time>2022-09-12T09:42:49Z</time>
      </trkpt>
      <trkpt lat="42.19924" lon="9.047683">
        <ele>1977.6</ele>
        <time>2022-09-12T09:43:03Z</time>
      </trkpt>
      <trkpt lat="42.19917" lon="9.047663">
        <ele>1975.0</ele>
        <time>2022-09-12T09:43:13Z</time>
      </trkpt>
      <trkpt lat="42.199165" lon="9.0477">
        <ele>1974.4</ele>
        <time>2022-09-12T09:43:17Z</time>
      </trkpt>
      <trkpt lat="42.19926" lon="9.047885">
        <ele>1970.8</ele>
        <time>2022-09-12T09:43:42Z</time>
      </trkpt>
      <trkpt lat="42.199283" lon="9.047942">
        <ele>1969.4</ele>
        <time>2022-09-12T09:43:51Z</time>
      </trkpt>
      <trkpt lat="42.199298" lon="9.048003">
        <ele>1967.4</ele>
        <time>2022-09-12T09:44:05Z</time>
      </trkpt>
      <trkpt lat="42.199293" lon="9.048005">
        <ele>1967.4</ele>
        <time>2022-09-12T09:44:06Z</time>
      </trkpt>
      <trkpt lat="42.199245" lon="9.048033">
        <ele>1965.4</ele>
        <time>2022-09-12T09:44:18Z</time>
      </trkpt>
      <trkpt lat="42.19917" lon="9.048055">
        <ele>1962.2</ele>
        <time>2022-09-12T09:44:32Z</time>
      </trkpt>
      <trkpt lat="42.199062" lon="9.048003">
        <ele>1958.4</ele>
        <time>2022-09-12T09:44:55Z</time>
      </trkpt>
      <trkpt lat="42.199055" lon="9.048002">
        <ele>1958.0</ele>
        <time>2022-09-12T09:44:57Z</time>
      </trkpt>
      <trkpt lat="42.199015" lon="9.048067">
        <ele>1956.4</ele>
        <time>2022-09-12T09:45:08Z</time>
      </trkpt>
      <trkpt lat="42.198993" lon="9.04812">
        <ele>1955.0</ele>
        <time>2022-09-12T09:45:15Z</time>
      </trkpt>
      <trkpt lat="42.198982" lon="9.048197">
        <ele>1954.2</ele>
        <time>2022-09-12T09:45:23Z</time>
      </trkpt>
      <trkpt lat="42.198977" lon="9.048202">
        <ele>1954.2</ele>
        <time>2022-09-12T09:45:23Z</time>
      </trkpt>
      <trkpt lat="42.198898" lon="9.048267">
        <ele>1951.4</ele>
        <time>2022-09-12T09:45:42Z</time>
      </trkpt>
      <trkpt lat="42.19883" lon="9.048338">
        <ele>1950.2</ele>
        <time>2022-09-12T09:45:50Z</time>
      </trkpt>
      <trkpt lat="42.198817" lon="9.048402">
        <ele>1949.6</ele>
        <time>2022-09-12T09:45:56Z</time>
      </trkpt>
      <trkpt lat="42.198835" lon="9.048448">
        <ele>1946.6</ele>
        <time>2022-09-12T09:46:10Z</time>
      </trkpt>
      <trkpt lat="42.198918" lon="9.04854">
        <ele>1945.0</ele>
        <time>2022-09-12T09:46:38Z</time>
      </trkpt>
      <trkpt lat="42.198927" lon="9.048545">
        <ele>1944.6</ele>
        <time>2022-09-12T09:46:40Z</time>
      </trkpt>
      <trkpt lat="42.198955" lon="9.048603">
        <ele>1943.2</ele>
        <time>2022-09-12T09:46:52Z</time>
      </trkpt>
      <trkpt lat="42.198892" lon="9.048692">
        <ele>1940.2</ele>
        <time>2022-09-12T09:47:10Z</time>
      </trkpt>
      <trkpt lat="42.198883" lon="9.04877">
        <ele>1937.8</ele>
        <time>2022-09-12T09:47:25Z</time>
      </trkpt>
      <trkpt lat="42.198885" lon="9.048782">
        <ele>1937.4</ele>
        <time>2022-09-12T09:47:27Z</time>
      </trkpt>
      <trkpt lat="42.198787" lon="9.04888">
        <ele>1935.8</ele>
        <time>2022-09-12T09:47:46Z</time>
      </trkpt>
      <trkpt lat="42.198783" lon="9.048902">
        <ele>1935.8</ele>
        <time>2022-09-12T09:47:48Z</time>
      </trkpt>
      <trkpt lat="42.198713" lon="9.048893">
        <ele>1935.2</ele>
        <time>2022-09-12T09:48:21Z</time>
      </trkpt>
      <trkpt lat="42.198725" lon="9.048862">
        <ele>1931.2</ele>
        <time>2022-09-12T09:59:09Z</time>
      </trkpt>
      <trkpt lat="42.19874" lon="9.048837">
        <ele>1931.2</ele>
        <time>2022-09-12T09:59:14Z</time>
      </trkpt>
      <trkpt lat="42.198742" lon="9.04883">
        <ele>1931.2</ele>
        <time>2022-09-12T09:59:16Z</time>
      </trkpt>
      <trkpt lat="42.198768" lon="9.048732">
        <ele>1931.0</ele>
        <time>2022-09-12T09:59:27Z</time>
      </trkpt>
      <trkpt lat="42.198787" lon="9.048812">
        <ele>1930.4</ele>
        <time>2022-09-12T09:59:41Z</time>
      </trkpt>
      <trkpt lat="42.198803" lon="9.048832">
        <ele>1928.6</ele>
        <time>2022-09-12T09:59:48Z</time>
      </trkpt>
      <trkpt lat="42.198958" lon="9.049045">
        <ele>1910.6</ele>
        <time>2022-09-12T10:01:10Z</time>
      </trkpt>
      <trkpt lat="42.19896" lon="9.049317">
        <ele>1908.2</ele>
        <time>2022-09-12T10:01:22Z</time>
      </trkpt>
      <trkpt lat="42.199032" lon="9.049492">
        <ele>1907.0</ele>
        <time>2022-09-12T10:01:30Z</time>
      </trkpt>
      <trkpt lat="42.199035" lon="9.049675">
        <ele>1905.8</ele>
        <time>2022-09-12T10:01:38Z</time>
      </trkpt>
      <trkpt lat="42.19901" lon="9.049748">
        <ele>1904.8</ele>
        <time>2022-09-12T10:01:44Z</time>
      </trkpt>
      <trkpt lat="42.198953" lon="9.049845">
        <ele>1903.6</ele>
        <time>2022-09-12T10:01:54Z</time>
      </trkpt>
      <trkpt lat="42.1989" lon="9.04997">
        <ele>1900.6</ele>
        <time>2022-09-12T10:02:11Z</time>
      </trkpt>
      <trkpt lat="42.198755" lon="9.05002">
        <ele>1896.4</ele>
        <time>2022-09-12T10:02:36Z</time>
      </trkpt>
      <trkpt lat="42.198758" lon="9.050023">
        <ele>1896.4</ele>
        <time>2022-09-12T10:02:37Z</time>
      </trkpt>
      <trkpt lat="42.198793" lon="9.05003">
        <ele>1895.6</ele>
        <time>2022-09-12T10:02:44Z</time>
      </trkpt>
      <trkpt lat="42.198823" lon="9.050038">
        <ele>1895.0</ele>
        <time>2022-09-12T10:02:51Z</time>
      </trkpt>
      <trkpt lat="42.198848" lon="9.050053">
        <ele>1893.0</ele>
        <time>2022-09-12T10:03:03Z</time>
      </trkpt>
      <trkpt lat="42.198862" lon="9.050062">
        <ele>1891.4</ele>
        <time>2022-09-12T10:03:09Z</time>
      </trkpt>
      <trkpt lat="42.198855" lon="9.05005">
        <ele>1890.6</ele>
        <time>2022-09-12T10:03:13Z</time>
      </trkpt>
      <trkpt lat="42.198805" lon="9.050033">
        <ele>1889.0</ele>
        <time>2022-09-12T10:03:23Z</time>
      </trkpt>
      <trkpt lat="42.198773" lon="9.05004">
        <ele>1888.6</ele>
        <time>2022-09-12T10:03:28Z</time>
      </trkpt>
      <trkpt lat="42.198757" lon="9.05008">
        <ele>1887.4</ele>
        <time>2022-09-12T10:03:34Z</time>
      </trkpt>
      <trkpt lat="42.198745" lon="9.050113">
        <ele>1887.2</ele>
        <time>2022-09-12T10:03:38Z</time>
      </trkpt>
      <trkpt lat="42.198697" lon="9.05017">
        <ele>1885.0</ele>
        <time>2022-09-12T10:03:48Z</time>
      </trkpt>
      <trkpt lat="42.198693" lon="9.050177">
        <ele>1885.0</ele>
        <time>2022-09-12T10:03:49Z</time>
      </trkpt>
      <trkpt lat="42.198692" lon="9.05023">
        <ele>1883.8</ele>
        <time>2022-09-12T10:03:57Z</time>
      </trkpt>
      <trkpt lat="42.198698" lon="9.050317">
        <ele>1882.8</ele>
        <time>2022-09-12T10:04:14Z</time>
      </trkpt>
      <trkpt lat="42.198685" lon="9.050358">
        <ele>1881.6</ele>
        <time>2022-09-12T10:04:22Z</time>
      </trkpt>
      <trkpt lat="42.198635" lon="9.050418">
        <ele>1879.2</ele>
        <time>2022-09-12T10:04:37Z</time>
      </trkpt>
      <trkpt lat="42.198623" lon="9.050492">
        <ele>1878.4</ele>
        <time>2022-09-12T10:04:42Z</time>
      </trkpt>
      <trkpt lat="42.19856" lon="9.050745">
        <ele>1874.6</ele>
        <time>2022-09-12T10:04:59Z</time>
      </trkpt>
      <trkpt lat="42.198573" lon="9.05088">
        <ele>1873.0</ele>
        <time>2022-09-12T10:05:09Z</time>
      </trkpt>
      <trkpt lat="42.198553" lon="9.050925">
        <ele>1872.6</ele>
        <time>2022-09-12T10:05:14Z</time>
      </trkpt>
      <trkpt lat="42.198485" lon="9.05097">
        <ele>1871.0</ele>
        <time>2022-09-12T10:05:24Z</time>
      </trkpt>
      <trkpt lat="42.198442" lon="9.050967">
        <ele>1870.2</ele>
        <time>2022-09-12T10:05:30Z</time>
      </trkpt>
      <trkpt lat="42.198417" lon="9.051005">
        <ele>1869.4</ele>
        <time>2022-09-12T10:05:35Z</time>
      </trkpt>
      <trkpt lat="42.198412" lon="9.051047">
        <ele>1868.4</ele>
        <time>2022-09-12T10:05:40Z</time>
      </trkpt>
      <trkpt lat="42.19842" lon="9.051123">
        <ele>1866.4</ele>
        <time>2022-09-12T10:05:49Z</time>
      </trkpt>
      <trkpt lat="42.198408" lon="9.051217">
        <ele>1863.6</ele>
        <time>2022-09-12T10:06:00Z</time>
      </trkpt>
      <trkpt lat="42.19842" lon="9.0513">
        <ele>1861.6</ele>
        <time>2022-09-12T10:06:15Z</time>
      </trkpt>
      <trkpt lat="42.198417" lon="9.051307">
        <ele>1861.6</ele>
        <time>2022-09-12T10:06:16Z</time>
      </trkpt>
      <trkpt lat="42.198387" lon="9.051332">
        <ele>1859.8</ele>
        <time>2022-09-12T10:06:26Z</time>
      </trkpt>
      <trkpt lat="42.198333" lon="9.051305">
        <ele>1858.2</ele>
        <time>2022-09-12T10:06:40Z</time>
      </trkpt>
      <trkpt lat="42.198303" lon="9.05131">
        <ele>1857.2</ele>
        <time>2022-09-12T10:06:48Z</time>
      </trkpt>
      <trkpt lat="42.198175" lon="9.051388">
        <ele>1848.4</ele>
        <time>2022-09-12T10:07:35Z</time>
      </trkpt>
      <trkpt lat="42.198172" lon="9.05139">
        <ele>1848.2</ele>
        <time>2022-09-12T10:07:36Z</time>
      </trkpt>
      <trkpt lat="42.198102" lon="9.051493">
        <ele>1844.8</ele>
        <time>2022-09-12T10:07:57Z</time>
      </trkpt>
      <trkpt lat="42.198105" lon="9.051585">
        <ele>1844.4</ele>
        <time>2022-09-12T10:08:04Z</time>
      </trkpt>
      <trkpt lat="42.198105" lon="9.0517">
        <ele>1844.4</ele>
        <time>2022-09-12T10:08:12Z</time>
      </trkpt>
      <trkpt lat="42.198105" lon="9.051732">
        <ele>1844.4</ele>
        <time>2022-09-12T10:08:14Z</time>
      </trkpt>
      <trkpt lat="42.19812" lon="9.051688">
        <ele>1844.0</ele>
        <time>2022-09-12T10:08:20Z</time>
      </trkpt>
      <trkpt lat="42.198142" lon="9.05167">
        <ele>1843.8</ele>
        <time>2022-09-12T10:08:25Z</time>
      </trkpt>
      <trkpt lat="42.198173" lon="9.051672">
        <ele>1843.4</ele>
        <time>2022-09-12T10:08:30Z</time>
      </trkpt>
      <trkpt lat="42.198202" lon="9.051685">
        <ele>1843.2</ele>
        <time>2022-09-12T10:08:34Z</time>
      </trkpt>
      <trkpt lat="42.19822" lon="9.051738">
        <ele>1842.8</ele>
        <time>2022-09-12T10:08:40Z</time>
      </trkpt>
      <trkpt lat="42.198193" lon="9.05186">
        <ele>1842.4</ele>
        <time>2022-09-12T10:08:53Z</time>
      </trkpt>
      <trkpt lat="42.19818" lon="9.052028">
        <ele>1842.0</ele>
        <time>2022-09-12T10:10:22Z</time>
      </trkpt>
      <trkpt lat="42.198112" lon="9.052058">
        <ele>1841.6</ele>
        <time>2022-09-12T10:10:41Z</time>
      </trkpt>
      <trkpt lat="42.19809" lon="9.05207">
        <ele>1841.6</ele>
        <time>2022-09-12T10:10:48Z</time>
      </trkpt>
      <trkpt lat="42.198077" lon="9.052068">
        <ele>1841.6</ele>
        <time>2022-09-12T10:10:50Z</time>
      </trkpt>
      <trkpt lat="42.198047" lon="9.052067">
        <ele>1841.8</ele>
        <time>2022-09-12T10:10:54Z</time>
      </trkpt>
      <trkpt lat="42.198007" lon="9.05209">
        <ele>1842.4</ele>
        <time>2022-09-12T10:11:00Z</time>
      </trkpt>
      <trkpt lat="42.197985" lon="9.052047">
        <ele>1842.6</ele>
        <time>2022-09-12T10:11:05Z</time>
      </trkpt>
      <trkpt lat="42.197988" lon="9.052035">
        <ele>1843.0</ele>
        <time>2022-09-12T10:11:06Z</time>
      </trkpt>
      <trkpt lat="42.19798" lon="9.051957">
        <ele>1842.6</ele>
        <time>2022-09-12T10:11:15Z</time>
      </trkpt>
      <trkpt lat="42.197533" lon="9.049958">
        <ele>1851.0</ele>
        <time>2022-09-12T10:21:09Z</time>
      </trkpt>
      <trkpt lat="42.197537" lon="9.049927">
        <ele>1851.2</ele>
        <time>2022-09-12T10:21:15Z</time>
      </trkpt>
      <trkpt lat="42.197472" lon="9.049785">
        <ele>1849.2</ele>
        <time>2022-09-12T10:22:19Z</time>
      </trkpt>
      <trkpt lat="42.197422" lon="9.049723">
        <ele>1848.8</ele>
        <time>2022-09-12T10:22:31Z</time>
      </trkpt>
      <trkpt lat="42.19737" lon="9.049692">
        <ele>1848.8</ele>
        <time>2022-09-12T10:22:40Z</time>
      </trkpt>
      <trkpt lat="42.197345" lon="9.049605">
        <ele>1849.8</ele>
        <time>2022-09-12T10:22:56Z</time>
      </trkpt>
      <trkpt lat="42.197343" lon="9.049555">
        <ele>1851.0</ele>
        <time>2022-09-12T10:23:10Z</time>
      </trkpt>
      <trkpt lat="42.197342" lon="9.049552">
        <ele>1851.0</ele>
        <time>2022-09-12T10:23:10Z</time>
      </trkpt>
      <trkpt lat="42.19743" lon="9.049555">
        <ele>1851.6</ele>
        <time>2022-09-12T10:23:21Z</time>
      </trkpt>
      <trkpt lat="42.197438" lon="9.04955">
        <ele>1851.6</ele>
        <time>2022-09-12T10:23:22Z</time>
      </trkpt>
      <trkpt lat="42.197452" lon="9.04953">
        <ele>1853.2</ele>
        <time>2022-09-12T10:23:32Z</time>
      </trkpt>
      <trkpt lat="42.197468" lon="9.049435">
        <ele>1852.8</ele>
        <time>2022-09-12T10:23:45Z</time>
      </trkpt>
      <trkpt lat="42.197465" lon="9.049423">
        <ele>1852.8</ele>
        <time>2022-09-12T10:23:46Z</time>
      </trkpt>
      <trkpt lat="42.197442" lon="9.049327">
        <ele>1852.2</ele>
        <time>2022-09-12T10:23:54Z</time>
      </trkpt>
      <trkpt lat="42.19744" lon="9.049268">
        <ele>1853.0</ele>
        <time>2022-09-12T10:24:02Z</time>
      </trkpt>
      <trkpt lat="42.19745" lon="9.049187">
        <ele>1854.2</ele>
        <time>2022-09-12T10:24:14Z</time>
      </trkpt>
      <trkpt lat="42.19747" lon="9.049102">
        <ele>1855.2</ele>
        <time>2022-09-12T10:24:22Z</time>
      </trkpt>
      <trkpt lat="42.19747" lon="9.049062">
        <ele>1855.4</ele>
        <time>2022-09-12T10:24:25Z</time>
      </trkpt>
      <trkpt lat="42.197422" lon="9.049052">
        <ele>1855.0</ele>
        <time>2022-09-12T10:24:33Z</time>
      </trkpt>
      <trkpt lat="42.197338" lon="9.049018">
        <ele>1854.2</ele>
        <time>2022-09-12T10:24:48Z</time>
      </trkpt>
      <trkpt lat="42.197292" lon="9.04902">
        <ele>1853.4</ele>
        <time>2022-09-12T10:24:58Z</time>
      </trkpt>
      <trkpt lat="42.197235" lon="9.049037">
        <ele>1851.8</ele>
        <time>2022-09-12T10:25:10Z</time>
      </trkpt>
      <trkpt lat="42.197225" lon="9.048995">
        <ele>1850.4</ele>
        <time>2022-09-12T10:25:30Z</time>
      </trkpt>
      <trkpt lat="42.19722" lon="9.048907">
        <ele>1848.6</ele>
        <time>2022-09-12T10:25:48Z</time>
      </trkpt>
      <trkpt lat="42.19722" lon="9.048902">
        <ele>1848.6</ele>
        <time>2022-09-12T10:25:49Z</time>
      </trkpt>
      <trkpt lat="42.197167" lon="9.048883">
        <ele>1846.8</ele>
        <time>2022-09-12T10:26:06Z</time>
      </trkpt>
      <trkpt lat="42.19712" lon="9.048837">
        <ele>1846.6</ele>
        <time>2022-09-12T10:26:24Z</time>
      </trkpt>
      <trkpt lat="42.197078" lon="9.048872">
        <ele>1845.2</ele>
        <time>2022-09-12T10:26:35Z</time>
      </trkpt>
      <trkpt lat="42.196875" lon="9.049073">
        <ele>1838.8</ele>
        <time>2022-09-12T10:27:35Z</time>
      </trkpt>
      <trkpt lat="42.19685" lon="9.049048">
        <ele>1838.0</ele>
        <time>2022-09-12T10:27:41Z</time>
      </trkpt>
      <trkpt lat="42.196825" lon="9.048968">
        <ele>1836.0</ele>
        <time>2022-09-12T10:27:52Z</time>
      </trkpt>
      <trkpt lat="42.196823" lon="9.048958">
        <ele>1836.0</ele>
        <time>2022-09-12T10:27:53Z</time>
      </trkpt>
      <trkpt lat="42.196785" lon="9.04896">
        <ele>1835.6</ele>
        <time>2022-09-12T10:27:56Z</time>
      </trkpt>
      <trkpt lat="42.196738" lon="9.048932">
        <ele>1835.0</ele>
        <time>2022-09-12T10:28:00Z</time>
      </trkpt>
      <trkpt lat="42.1967" lon="9.04882">
        <ele>1835.4</ele>
        <time>2022-09-12T10:28:10Z</time>
      </trkpt>
      <trkpt lat="42.196663" lon="9.048695">
        <ele>1836.0</ele>
        <time>2022-09-12T10:28:22Z</time>
      </trkpt>
      <trkpt lat="42.196638" lon="9.048635">
        <ele>1835.6</ele>
        <time>2022-09-12T10:28:27Z</time>
      </trkpt>
      <trkpt lat="42.196627" lon="9.04863">
        <ele>1835.2</ele>
        <time>2022-09-12T10:28:28Z</time>
      </trkpt>
      <trkpt lat="42.196603" lon="9.048693">
        <ele>1834.4</ele>
        <time>2022-09-12T10:28:35Z</time>
      </trkpt>
      <trkpt lat="42.196587" lon="9.048708">
        <ele>1833.4</ele>
        <time>2022-09-12T10:28:39Z</time>
      </trkpt>
      <trkpt lat="42.196465" lon="9.04886">
        <ele>1830.8</ele>
        <time>2022-09-12T10:28:57Z</time>
      </trkpt>
      <trkpt lat="42.19639" lon="9.048835">
        <ele>1828.8</ele>
        <time>2022-09-12T10:29:08Z</time>
      </trkpt>
      <trkpt lat="42.19638" lon="9.048873">
        <ele>1828.4</ele>
        <time>2022-09-12T10:29:12Z</time>
      </trkpt>
      <trkpt lat="42.196368" lon="9.048943">
        <ele>1827.6</ele>
        <time>2022-09-12T10:29:19Z</time>
      </trkpt>
      <trkpt lat="42.196373" lon="9.04895">
        <ele>1827.4</ele>
        <time>2022-09-12T10:29:20Z</time>
      </trkpt>
      <trkpt lat="42.196387" lon="9.048983">
        <ele>1826.8</ele>
        <time>2022-09-12T10:29:26Z</time>
      </trkpt>
      <trkpt lat="42.19636" lon="9.04902">
        <ele>1824.4</ele>
        <time>2022-09-12T10:29:33Z</time>
      </trkpt>
      <trkpt lat="42.196298" lon="9.049085">
        <ele>1822.2</ele>
        <time>2022-09-12T10:29:50Z</time>
      </trkpt>
      <trkpt lat="42.19627" lon="9.049125">
        <ele>1819.4</ele>
        <time>2022-09-12T10:29:59Z</time>
      </trkpt>
      <trkpt lat="42.196252" lon="9.049142">
        <ele>1818.8</ele>
        <time>2022-09-12T10:30:04Z</time>
      </trkpt>
      <trkpt lat="42.196225" lon="9.049162">
        <ele>1817.4</ele>
        <time>2022-09-12T10:30:18Z</time>
      </trkpt>
      <trkpt lat="42.196167" lon="9.049205">
        <ele>1816.8</ele>
        <time>2022-09-12T10:30:34Z</time>
      </trkpt>
      <trkpt lat="42.196125" lon="9.049213">
        <ele>1816.4</ele>
        <time>2022-09-12T10:30:40Z</time>
      </trkpt>
      <trkpt lat="42.196095" lon="9.049263">
        <ele>1815.8</ele>
        <time>2022-09-12T10:30:47Z</time>
      </trkpt>
      <trkpt lat="42.196075" lon="9.049332">
        <ele>1814.0</ele>
        <time>2022-09-12T10:30:56Z</time>
      </trkpt>
      <trkpt lat="42.19602" lon="9.049345">
        <ele>1812.2</ele>
        <time>2022-09-12T10:31:09Z</time>
      </trkpt>
      <trkpt lat="42.195985" lon="9.049338">
        <ele>1808.8</ele>
        <time>2022-09-12T10:31:50Z</time>
      </trkpt>
      <trkpt lat="42.195957" lon="9.049278">
        <ele>1809.8</ele>
        <time>2022-09-12T10:31:59Z</time>
      </trkpt>
      <trkpt lat="42.195922" lon="9.049233">
        <ele>1809.0</ele>
        <time>2022-09-12T10:32:04Z</time>
      </trkpt>
      <trkpt lat="42.195913" lon="9.049258">
        <ele>1809.0</ele>
        <time>2022-09-12T10:32:07Z</time>
      </trkpt>
      <trkpt lat="42.195898" lon="9.049327">
        <ele>1807.4</ele>
        <time>2022-09-12T10:32:27Z</time>
      </trkpt>
      <trkpt lat="42.195882" lon="9.049357">
        <ele>1806.6</ele>
        <time>2022-09-12T10:32:33Z</time>
      </trkpt>
      <trkpt lat="42.195837" lon="9.049347">
        <ele>1805.8</ele>
        <time>2022-09-12T10:32:40Z</time>
      </trkpt>
      <trkpt lat="42.195798" lon="9.049328">
        <ele>1804.8</ele>
        <time>2022-09-12T10:32:51Z</time>
      </trkpt>
      <trkpt lat="42.195792" lon="9.049288">
        <ele>1803.8</ele>
        <time>2022-09-12T10:32:58Z</time>
      </trkpt>
      <trkpt lat="42.195787" lon="9.049253">
        <ele>1803.6</ele>
        <time>2022-09-12T10:33:08Z</time>
      </trkpt>
      <trkpt lat="42.195773" lon="9.049222">
        <ele>1804.8</ele>
        <time>2022-09-12T10:33:27Z</time>
      </trkpt>
      <trkpt lat="42.195765" lon="9.049227">
        <ele>1805.2</ele>
        <time>2022-09-12T10:33:28Z</time>
      </trkpt>
      <trkpt lat="42.195727" lon="9.049253">
        <ele>1805.8</ele>
        <time>2022-09-12T10:33:35Z</time>
      </trkpt>
      <trkpt lat="42.195637" lon="9.049292">
        <ele>1806.0</ele>
        <time>2022-09-12T10:34:08Z</time>
      </trkpt>
      <trkpt lat="42.195597" lon="9.049333">
        <ele>1805.4</ele>
        <time>2022-09-12T10:34:18Z</time>
      </trkpt>
      <trkpt lat="42.19557" lon="9.049352">
        <ele>1804.2</ele>
        <time>2022-09-12T10:34:22Z</time>
      </trkpt>
      <trkpt lat="42.195508" lon="9.049348">
        <ele>1803.4</ele>
        <time>2022-09-12T10:34:29Z</time>
      </trkpt>
      <trkpt lat="42.195412" lon="9.049387">
        <ele>1800.0</ele>
        <time>2022-09-12T10:34:57Z</time>
      </trkpt>
      <trkpt lat="42.195408" lon="9.049385">
        <ele>1799.8</ele>
        <time>2022-09-12T10:34:58Z</time>
      </trkpt>
      <trkpt lat="42.195238" lon="9.049535">
        <ele>1797.0</ele>
        <time>2022-09-12T10:35:28Z</time>
      </trkpt>
      <trkpt lat="42.195095" lon="9.049725">
        <ele>1795.4</ele>
        <time>2022-09-12T10:35:39Z</time>
      </trkpt>
      <trkpt lat="42.194935" lon="9.049728">
        <ele>1793.4</ele>
        <time>2022-09-12T10:35:51Z</time>
      </trkpt>
      <trkpt lat="42.194837" lon="9.049693">
        <ele>1790.8</ele>
        <time>2022-09-12T10:36:17Z</time>
      </trkpt>
      <trkpt lat="42.194857" lon="9.049587">
        <ele>1790.6</ele>
        <time>2022-09-12T10:36:28Z</time>
      </trkpt>
      <trkpt lat="42.194893" lon="9.049503">
        <ele>1790.0</ele>
        <time>2022-09-12T10:36:39Z</time>
      </trkpt>
      <trkpt lat="42.194887" lon="9.049497">
        <ele>1790.2</ele>
        <time>2022-09-12T10:36:40Z</time>
      </trkpt>
      <trkpt lat="42.194843" lon="9.049465">
        <ele>1790.2</ele>
        <time>2022-09-12T10:36:46Z</time>
      </trkpt>
      <trkpt lat="42.194788" lon="9.049497">
        <ele>1790.0</ele>
        <time>2022-09-12T10:36:54Z</time>
      </trkpt>
      <trkpt lat="42.194752" lon="9.049567">
        <ele>1788.6</ele>
        <time>2022-09-12T10:37:03Z</time>
      </trkpt>
      <trkpt lat="42.194688" lon="9.049633">
        <ele>1789.0</ele>
        <time>2022-09-12T10:37:52Z</time>
      </trkpt>
      <trkpt lat="42.194662" lon="9.049632">
        <ele>1786.8</ele>
        <time>2022-09-12T10:38:06Z</time>
      </trkpt>
      <trkpt lat="42.194593" lon="9.049565">
        <ele>1784.6</ele>
        <time>2022-09-12T10:38:33Z</time>
      </trkpt>
      <trkpt lat="42.194567" lon="9.04954">
        <ele>1784.6</ele>
        <time>2022-09-12T10:38:36Z</time>
      </trkpt>
      <trkpt lat="42.194532" lon="9.049535">
        <ele>1784.4</ele>
        <time>2022-09-12T10:38:39Z</time>
      </trkpt>
      <trkpt lat="42.19443" lon="9.049498">
        <ele>1784.2</ele>
        <time>2022-09-12T10:38:49Z</time>
      </trkpt>
      <trkpt lat="42.194393" lon="9.04949">
        <ele>1784.2</ele>
        <time>2022-09-12T10:38:52Z</time>
      </trkpt>
      <trkpt lat="42.194262" lon="9.049417">
        <ele>1785.0</ele>
        <time>2022-09-12T10:39:04Z</time>
      </trkpt>
      <trkpt lat="42.194245" lon="9.049398">
        <ele>1784.6</ele>
        <time>2022-09-12T10:39:06Z</time>
      </trkpt>
      <trkpt lat="42.194188" lon="9.049252">
        <ele>1784.6</ele>
        <time>2022-09-12T10:39:25Z</time>
      </trkpt>
      <trkpt lat="42.194173" lon="9.049228">
        <ele>1785.8</ele>
        <time>2022-09-12T10:39:31Z</time>
      </trkpt>
      <trkpt lat="42.194158" lon="9.049202">
        <ele>1786.0</ele>
        <time>2022-09-12T10:39:47Z</time>
      </trkpt>
      <trkpt lat="42.194095" lon="9.049157">
        <ele>1786.2</ele>
        <time>2022-09-12T10:40:23Z</time>
      </trkpt>
      <trkpt lat="42.194077" lon="9.049132">
        <ele>1785.8</ele>
        <time>2022-09-12T10:40:27Z</time>
      </trkpt>
      <trkpt lat="42.194045" lon="9.049135">
        <ele>1785.8</ele>
        <time>2022-09-12T10:40:32Z</time>
      </trkpt>
      <trkpt lat="42.193973" lon="9.049095">
        <ele>1786.2</ele>
        <time>2022-09-12T10:40:50Z</time>
      </trkpt>
      <trkpt lat="42.193888" lon="9.049048">
        <ele>1786.4</ele>
        <time>2022-09-12T10:41:07Z</time>
      </trkpt>
      <trkpt lat="42.193842" lon="9.04901">
        <ele>1788.0</ele>
        <time>2022-09-12T10:41:15Z</time>
      </trkpt>
      <trkpt lat="42.193768" lon="9.048992">
        <ele>1788.8</ele>
        <time>2022-09-12T10:41:31Z</time>
      </trkpt>
      <trkpt lat="42.193715" lon="9.049002">
        <ele>1790.0</ele>
        <time>2022-09-12T10:41:41Z</time>
      </trkpt>
      <trkpt lat="42.19371" lon="9.049002">
        <ele>1790.2</ele>
        <time>2022-09-12T10:41:43Z</time>
      </trkpt>
      <trkpt lat="42.193662" lon="9.048995">
        <ele>1790.0</ele>
        <time>2022-09-12T10:41:51Z</time>
      </trkpt>
      <trkpt lat="42.193642" lon="9.04898">
        <ele>1790.0</ele>
        <time>2022-09-12T10:41:55Z</time>
      </trkpt>
      <trkpt lat="42.193637" lon="9.048932">
        <ele>1791.6</ele>
        <time>2022-09-12T10:42:08Z</time>
      </trkpt>
      <trkpt lat="42.193635" lon="9.048905">
        <ele>1793.2</ele>
        <time>2022-09-12T10:42:17Z</time>
      </trkpt>
      <trkpt lat="42.193598" lon="9.048867">
        <ele>1795.8</ele>
        <time>2022-09-12T10:42:42Z</time>
      </trkpt>
      <trkpt lat="42.193592" lon="9.048828">
        <ele>1796.6</ele>
        <time>2022-09-12T10:42:53Z</time>
      </trkpt>
      <trkpt lat="42.193548" lon="9.04879">
        <ele>1795.6</ele>
        <time>2022-09-12T10:43:12Z</time>
      </trkpt>
      <trkpt lat="42.193303" lon="9.048587">
        <ele>1792.2</ele>
        <time>2022-09-12T10:45:03Z</time>
      </trkpt>
      <trkpt lat="42.19336" lon="9.048653">
        <ele>1791.6</ele>
        <time>2022-09-12T10:45:39Z</time>
      </trkpt>
      <trkpt lat="42.193355" lon="9.048697">
        <ele>1791.4</ele>
        <time>2022-09-12T10:45:49Z</time>
      </trkpt>
      <trkpt lat="42.193352" lon="9.048835">
        <ele>1791.0</ele>
        <time>2022-09-12T10:46:10Z</time>
      </trkpt>
      <trkpt lat="42.193352" lon="9.048857">
        <ele>1790.8</ele>
        <time>2022-09-12T10:46:15Z</time>
      </trkpt>
      <trkpt lat="42.193343" lon="9.048828">
        <ele>1789.2</ele>
        <time>2022-09-12T10:46:34Z</time>
      </trkpt>
      <trkpt lat="42.192998" lon="9.049057">
        <ele>1789.8</ele>
        <time>2022-09-12T10:46:57Z</time>
      </trkpt>
      <trkpt lat="42.192763" lon="9.049165">
        <ele>1815.0</ele>
        <time>2022-09-12T10:50:49Z</time>
      </trkpt>
      <trkpt lat="42.192557" lon="9.049225">
        <ele>1816.2</ele>
        <time>2022-09-12T10:50:59Z</time>
      </trkpt>
      <trkpt lat="42.19256" lon="9.049238">
        <ele>1816.4</ele>
        <time>2022-09-12T10:51:00Z</time>
      </trkpt>
      <trkpt lat="42.192557" lon="9.049272">
        <ele>1816.8</ele>
        <time>2022-09-12T10:51:02Z</time>
      </trkpt>
      <trkpt lat="42.192522" lon="9.049288">
        <ele>1817.4</ele>
        <time>2022-09-12T10:51:05Z</time>
      </trkpt>
      <trkpt lat="42.19241" lon="9.049268">
        <ele>1819.2</ele>
        <time>2022-09-12T10:51:14Z</time>
      </trkpt>
      <trkpt lat="42.192328" lon="9.049245">
        <ele>1819.8</ele>
        <time>2022-09-12T10:51:20Z</time>
      </trkpt>
      <trkpt lat="42.192263" lon="9.049278">
        <ele>1821.6</ele>
        <time>2022-09-12T10:51:31Z</time>
      </trkpt>
      <trkpt lat="42.192257" lon="9.049277">
        <ele>1821.6</ele>
        <time>2022-09-12T10:51:32Z</time>
      </trkpt>
      <trkpt lat="42.192168" lon="9.049375">
        <ele>1824.0</ele>
        <time>2022-09-12T10:51:49Z</time>
      </trkpt>
      <trkpt lat="42.192133" lon="9.049367">
        <ele>1825.0</ele>
        <time>2022-09-12T10:51:55Z</time>
      </trkpt>
      <trkpt lat="42.19207" lon="9.049363">
        <ele>1827.2</ele>
        <time>2022-09-12T10:52:09Z</time>
      </trkpt>
      <trkpt lat="42.192013" lon="9.049392">
        <ele>1828.4</ele>
        <time>2022-09-12T10:52:18Z</time>
      </trkpt>
      <trkpt lat="42.191943" lon="9.049442">
        <ele>1830.2</ele>
        <time>2022-09-12T10:52:30Z</time>
      </trkpt>
      <trkpt lat="42.1919" lon="9.049472">
        <ele>1830.8</ele>
        <time>2022-09-12T10:52:39Z</time>
      </trkpt>
      <trkpt lat="42.191802" lon="9.04949">
        <ele>1835.2</ele>
        <time>2022-09-12T10:53:12Z</time>
      </trkpt>
      <trkpt lat="42.191715" lon="9.04952">
        <ele>1840.8</ele>
        <time>2022-09-12T10:53:52Z</time>
      </trkpt>
      <trkpt lat="42.191713" lon="9.049538">
        <ele>1841.4</ele>
        <time>2022-09-12T10:53:55Z</time>
      </trkpt>
      <trkpt lat="42.191687" lon="9.049578">
        <ele>1843.2</ele>
        <time>2022-09-12T10:54:02Z</time>
      </trkpt>
      <trkpt lat="42.191653" lon="9.049603">
        <ele>1844.2</ele>
        <time>2022-09-12T10:54:08Z</time>
      </trkpt>
      <trkpt lat="42.191565" lon="9.04973">
        <ele>1846.2</ele>
        <time>2022-09-12T10:54:21Z</time>
      </trkpt>
      <trkpt lat="42.191522" lon="9.049743">
        <ele>1847.6</ele>
        <time>2022-09-12T10:54:34Z</time>
      </trkpt>
      <trkpt lat="42.191497" lon="9.04974">
        <ele>1848.8</ele>
        <time>2022-09-12T10:54:43Z</time>
      </trkpt>
      <trkpt lat="42.191495" lon="9.049737">
        <ele>1849.0</ele>
        <time>2022-09-12T10:54:44Z</time>
      </trkpt>
      <trkpt lat="42.19146" lon="9.049788">
        <ele>1850.8</ele>
        <time>2022-09-12T10:54:53Z</time>
      </trkpt>
      <trkpt lat="42.19143" lon="9.049943">
        <ele>1852.2</ele>
        <time>2022-09-12T10:55:57Z</time>
      </trkpt>
      <trkpt lat="42.191412" lon="9.049973">
        <ele>1852.6</ele>
        <time>2022-09-12T10:56:04Z</time>
      </trkpt>
      <trkpt lat="42.19141" lon="9.049987">
        <ele>1852.8</ele>
        <time>2022-09-12T10:56:06Z</time>
      </trkpt>
      <trkpt lat="42.191393" lon="9.04996">
        <ele>1853.0</ele>
        <time>2022-09-12T10:56:10Z</time>
      </trkpt>
      <trkpt lat="42.191485" lon="9.049817">
        <ele>1855.4</ele>
        <time>2022-09-12T10:56:58Z</time>
      </trkpt>
      <trkpt lat="42.191493" lon="9.049792">
        <ele>1855.6</ele>
        <time>2022-09-12T10:57:04Z</time>
      </trkpt>
      <trkpt lat="42.191462" lon="9.049693">
        <ele>1857.0</ele>
        <time>2022-09-12T10:57:17Z</time>
      </trkpt>
      <trkpt lat="42.19146" lon="9.049685">
        <ele>1857.0</ele>
        <time>2022-09-12T10:57:17Z</time>
      </trkpt>
      <trkpt lat="42.191187" lon="9.050037">
        <ele>1867.6</ele>
        <time>2022-09-12T11:00:37Z</time>
      </trkpt>
      <trkpt lat="42.19104" lon="9.050092">
        <ele>1868.6</ele>
        <time>2022-09-12T11:00:58Z</time>
      </trkpt>
      <trkpt lat="42.19095" lon="9.050315">
        <ele>1866.6</ele>
        <time>2022-09-12T11:01:10Z</time>
      </trkpt>
      <trkpt lat="42.190897" lon="9.050368">
        <ele>1866.4</ele>
        <time>2022-09-12T11:01:12Z</time>
      </trkpt>
      <trkpt lat="42.190852" lon="9.050412">
        <ele>1866.4</ele>
        <time>2022-09-12T11:01:17Z</time>
      </trkpt>
      <trkpt lat="42.190768" lon="9.050508">
        <ele>1866.4</ele>
        <time>2022-09-12T11:01:29Z</time>
      </trkpt>
      <trkpt lat="42.190743" lon="9.050517">
        <ele>1866.4</ele>
        <time>2022-09-12T11:01:32Z</time>
      </trkpt>
      <trkpt lat="42.190692" lon="9.050592">
        <ele>1868.0</ele>
        <time>2022-09-12T11:01:44Z</time>
      </trkpt>
      <trkpt lat="42.190688" lon="9.0506">
        <ele>1868.2</ele>
        <time>2022-09-12T11:01:45Z</time>
      </trkpt>
      <trkpt lat="42.190702" lon="9.050652">
        <ele>1869.2</ele>
        <time>2022-09-12T11:01:52Z</time>
      </trkpt>
      <trkpt lat="42.19065" lon="9.05065">
        <ele>1871.6</ele>
        <time>2022-09-12T11:02:07Z</time>
      </trkpt>
      <trkpt lat="42.19061" lon="9.050625">
        <ele>1872.4</ele>
        <time>2022-09-12T11:02:10Z</time>
      </trkpt>
      <trkpt lat="42.190585" lon="9.050602">
        <ele>1873.0</ele>
        <time>2022-09-12T11:02:12Z</time>
      </trkpt>
      <trkpt lat="42.190695" lon="9.050543">
        <ele>1874.4</ele>
        <time>2022-09-12T11:02:24Z</time>
      </trkpt>
      <trkpt lat="42.190722" lon="9.050537">
        <ele>1874.6</ele>
        <time>2022-09-12T11:02:27Z</time>
      </trkpt>
      <trkpt lat="42.19078" lon="9.050497">
        <ele>1875.6</ele>
        <time>2022-09-12T11:02:34Z</time>
      </trkpt>
      <trkpt lat="42.19078" lon="9.050452">
        <ele>1876.0</ele>
        <time>2022-09-12T11:02:38Z</time>
      </trkpt>
      <trkpt lat="42.190765" lon="9.050353">
        <ele>1874.6</ele>
        <time>2022-09-12T11:02:56Z</time>
      </trkpt>
      <trkpt lat="42.190755" lon="9.050158">
        <ele>1872.4</ele>
        <time>2022-09-12T11:03:48Z</time>
      </trkpt>
      <trkpt lat="42.190713" lon="9.05025">
        <ele>1871.8</ele>
        <time>2022-09-12T11:03:54Z</time>
      </trkpt>
      <trkpt lat="42.190647" lon="9.050337">
        <ele>1871.6</ele>
        <time>2022-09-12T11:04:00Z</time>
      </trkpt>
      <trkpt lat="42.190538" lon="9.05045">
        <ele>1872.8</ele>
        <time>2022-09-12T11:04:13Z</time>
      </trkpt>
      <trkpt lat="42.190467" lon="9.050588">
        <ele>1873.2</ele>
        <time>2022-09-12T11:04:23Z</time>
      </trkpt>
      <trkpt lat="42.190405" lon="9.050677">
        <ele>1873.0</ele>
        <time>2022-09-12T11:04:30Z</time>
      </trkpt>
      <trkpt lat="42.19035" lon="9.050733">
        <ele>1872.8</ele>
        <time>2022-09-12T11:04:36Z</time>
      </trkpt>
      <trkpt lat="42.190312" lon="9.05075">
        <ele>1872.8</ele>
        <time>2022-09-12T11:04:40Z</time>
      </trkpt>
      <trkpt lat="42.190273" lon="9.050752">
        <ele>1872.4</ele>
        <time>2022-09-12T11:04:47Z</time>
      </trkpt>
      <trkpt lat="42.19024" lon="9.050787">
        <ele>1871.2</ele>
        <time>2022-09-12T11:04:55Z</time>
      </trkpt>
      <trkpt lat="42.19022" lon="9.05084">
        <ele>1871.2</ele>
        <time>2022-09-12T11:05:01Z</time>
      </trkpt>
      <trkpt lat="42.190193" lon="9.050867">
        <ele>1873.4</ele>
        <time>2022-09-12T11:05:19Z</time>
      </trkpt>
      <trkpt lat="42.190157" lon="9.050905">
        <ele>1874.4</ele>
        <time>2022-09-12T11:05:27Z</time>
      </trkpt>
      <trkpt lat="42.190142" lon="9.050907">
        <ele>1874.6</ele>
        <time>2022-09-12T11:05:29Z</time>
      </trkpt>
      <trkpt lat="42.190053" lon="9.050917">
        <ele>1879.2</ele>
        <time>2022-09-12T11:05:59Z</time>
      </trkpt>
      <trkpt lat="42.190013" lon="9.050892">
        <ele>1879.2</ele>
        <time>2022-09-12T11:06:05Z</time>
      </trkpt>
      <trkpt lat="42.189963" lon="9.050882">
        <ele>1879.6</ele>
        <time>2022-09-12T11:06:13Z</time>
      </trkpt>
      <trkpt lat="42.189958" lon="9.050875">
        <ele>1879.6</ele>
        <time>2022-09-12T11:06:14Z</time>
      </trkpt>
      <trkpt lat="42.189947" lon="9.050835">
        <ele>1879.2</ele>
        <time>2022-09-12T11:06:20Z</time>
      </trkpt>
      <trkpt lat="42.189925" lon="9.050813">
        <ele>1880.0</ele>
        <time>2022-09-12T11:06:26Z</time>
      </trkpt>
      <trkpt lat="42.189907" lon="9.050822">
        <ele>1880.8</ele>
        <time>2022-09-12T11:06:31Z</time>
      </trkpt>
      <trkpt lat="42.189875" lon="9.050827">
        <ele>1881.8</ele>
        <time>2022-09-12T11:06:39Z</time>
      </trkpt>
      <trkpt lat="42.189845" lon="9.050812">
        <ele>1884.6</ele>
        <time>2022-09-12T11:06:54Z</time>
      </trkpt>
      <trkpt lat="42.189828" lon="9.050788">
        <ele>1885.4</ele>
        <time>2022-09-12T11:07:07Z</time>
      </trkpt>
      <trkpt lat="42.1898" lon="9.050775">
        <ele>1888.0</ele>
        <time>2022-09-12T11:07:29Z</time>
      </trkpt>
      <trkpt lat="42.189787" lon="9.050753">
        <ele>1886.8</ele>
        <time>2022-09-12T11:07:42Z</time>
      </trkpt>
      <trkpt lat="42.189723" lon="9.050743">
        <ele>1882.8</ele>
        <time>2022-09-12T11:08:29Z</time>
      </trkpt>
      <trkpt lat="42.189655" lon="9.050753">
        <ele>1880.8</ele>
        <time>2022-09-12T11:08:43Z</time>
      </trkpt>
      <trkpt lat="42.189603" lon="9.050755">
        <ele>1880.8</ele>
        <time>2022-09-12T11:08:48Z</time>
      </trkpt>
      <trkpt lat="42.18958" lon="9.05077">
        <ele>1880.8</ele>
        <time>2022-09-12T11:08:52Z</time>
      </trkpt>
      <trkpt lat="42.189532" lon="9.050817">
        <ele>1880.8</ele>
        <time>2022-09-12T11:08:56Z</time>
      </trkpt>
      <trkpt lat="42.18939" lon="9.050887">
        <ele>1881.6</ele>
        <time>2022-09-12T11:09:06Z</time>
      </trkpt>
      <trkpt lat="42.189352" lon="9.050907">
        <ele>1881.6</ele>
        <time>2022-09-12T11:09:09Z</time>
      </trkpt>
      <trkpt lat="42.189328" lon="9.050932">
        <ele>1881.4</ele>
        <time>2022-09-12T11:09:12Z</time>
      </trkpt>
      <trkpt lat="42.18928" lon="9.050962">
        <ele>1881.2</ele>
        <time>2022-09-12T11:09:19Z</time>
      </trkpt>
      <trkpt lat="42.189183" lon="9.050992">
        <ele>1883.8</ele>
        <time>2022-09-12T11:09:31Z</time>
      </trkpt>
      <trkpt lat="42.18915" lon="9.05104">
        <ele>1884.4</ele>
        <time>2022-09-12T11:09:37Z</time>
      </trkpt>
      <trkpt lat="42.18904" lon="9.051118">
        <ele>1886.6</ele>
        <time>2022-09-12T11:09:51Z</time>
      </trkpt>
      <trkpt lat="42.189035" lon="9.051125">
        <ele>1886.6</ele>
        <time>2022-09-12T11:09:51Z</time>
      </trkpt>
      <trkpt lat="42.189033" lon="9.051105">
        <ele>1889.4</ele>
        <time>2022-09-12T11:10:17Z</time>
      </trkpt>
      <trkpt lat="42.189007" lon="9.050967">
        <ele>1894.8</ele>
        <time>2022-09-12T11:10:58Z</time>
      </trkpt>
      <trkpt lat="42.188938" lon="9.051013">
        <ele>1895.4</ele>
        <time>2022-09-12T11:11:08Z</time>
      </trkpt>
      <trkpt lat="42.188765" lon="9.051052">
        <ele>1896.6</ele>
        <time>2022-09-12T11:11:24Z</time>
      </trkpt>
      <trkpt lat="42.188695" lon="9.05108">
        <ele>1897.0</ele>
        <time>2022-09-12T11:11:32Z</time>
      </trkpt>
      <trkpt lat="42.188627" lon="9.051078">
        <ele>1897.0</ele>
        <time>2022-09-12T11:11:42Z</time>
      </trkpt>
      <trkpt lat="42.188618" lon="9.051077">
        <ele>1897.0</ele>
        <time>2022-09-12T11:11:43Z</time>
      </trkpt>
      <trkpt lat="42.188567" lon="9.05108">
        <ele>1897.6</ele>
        <time>2022-09-12T11:11:50Z</time>
      </trkpt>
      <trkpt lat="42.18848" lon="9.051072">
        <ele>1898.0</ele>
        <time>2022-09-12T11:12:01Z</time>
      </trkpt>
      <trkpt lat="42.188418" lon="9.051072">
        <ele>1898.2</ele>
        <time>2022-09-12T11:12:09Z</time>
      </trkpt>
      <trkpt lat="42.188345" lon="9.051057">
        <ele>1898.8</ele>
        <time>2022-09-12T11:12:20Z</time>
      </trkpt>
      <trkpt lat="42.188312" lon="9.051052">
        <ele>1898.4</ele>
        <time>2022-09-12T11:12:25Z</time>
      </trkpt>
      <trkpt lat="42.188242" lon="9.051055">
        <ele>1899.2</ele>
        <time>2022-09-12T11:12:35Z</time>
      </trkpt>
      <trkpt lat="42.188175" lon="9.051042">
        <ele>1900.8</ele>
        <time>2022-09-12T11:12:44Z</time>
      </trkpt>
      <trkpt lat="42.18812" lon="9.05101">
        <ele>1902.2</ele>
        <time>2022-09-12T11:12:54Z</time>
      </trkpt>
      <trkpt lat="42.188073" lon="9.05097">
        <ele>1904.2</ele>
        <time>2022-09-12T11:13:06Z</time>
      </trkpt>
      <trkpt lat="42.188048" lon="9.050948">
        <ele>1904.6</ele>
        <time>2022-09-12T11:13:11Z</time>
      </trkpt>
      <trkpt lat="42.18801" lon="9.05091">
        <ele>1905.4</ele>
        <time>2022-09-12T11:13:18Z</time>
      </trkpt>
      <trkpt lat="42.187948" lon="9.050863">
        <ele>1906.8</ele>
        <time>2022-09-12T11:13:29Z</time>
      </trkpt>
      <trkpt lat="42.18783" lon="9.05078">
        <ele>1908.4</ele>
        <time>2022-09-12T11:13:48Z</time>
      </trkpt>
      <trkpt lat="42.187813" lon="9.050758">
        <ele>1908.8</ele>
        <time>2022-09-12T11:13:52Z</time>
      </trkpt>
      <trkpt lat="42.187755" lon="9.050822">
        <ele>1909.4</ele>
        <time>2022-09-12T11:14:02Z</time>
      </trkpt>
      <trkpt lat="42.187718" lon="9.05087">
        <ele>1911.0</ele>
        <time>2022-09-12T11:14:12Z</time>
      </trkpt>
      <trkpt lat="42.187637" lon="9.05094">
        <ele>1912.0</ele>
        <time>2022-09-12T11:14:30Z</time>
      </trkpt>
      <trkpt lat="42.187607" lon="9.050912">
        <ele>1912.4</ele>
        <time>2022-09-12T11:14:35Z</time>
      </trkpt>
      <trkpt lat="42.18755" lon="9.050885">
        <ele>1913.4</ele>
        <time>2022-09-12T11:14:44Z</time>
      </trkpt>
      <trkpt lat="42.18751" lon="9.050828">
        <ele>1914.6</ele>
        <time>2022-09-12T11:14:51Z</time>
      </trkpt>
      <trkpt lat="42.187385" lon="9.050608">
        <ele>1916.6</ele>
        <time>2022-09-12T11:15:17Z</time>
      </trkpt>
      <trkpt lat="42.187348" lon="9.050567">
        <ele>1917.6</ele>
        <time>2022-09-12T11:15:24Z</time>
      </trkpt>
      <trkpt lat="42.187178" lon="9.050545">
        <ele>1919.4</ele>
        <time>2022-09-12T11:15:43Z</time>
      </trkpt>
      <trkpt lat="42.187178" lon="9.050473">
        <ele>1920.2</ele>
        <time>2022-09-12T11:15:50Z</time>
      </trkpt>
      <trkpt lat="42.187045" lon="9.050423">
        <ele>1920.8</ele>
        <time>2022-09-12T11:16:04Z</time>
      </trkpt>
      <trkpt lat="42.187028" lon="9.050427">
        <ele>1921.2</ele>
        <time>2022-09-12T11:16:06Z</time>
      </trkpt>
      <trkpt lat="42.18699" lon="9.05043">
        <ele>1922.0</ele>
        <time>2022-09-12T11:16:13Z</time>
      </trkpt>
      <trkpt lat="42.186908" lon="9.050422">
        <ele>1924.2</ele>
        <time>2022-09-12T11:16:29Z</time>
      </trkpt>
      <trkpt lat="42.186885" lon="9.050423">
        <ele>1924.8</ele>
        <time>2022-09-12T11:16:35Z</time>
      </trkpt>
      <trkpt lat="42.186848" lon="9.050378">
        <ele>1927.0</ele>
        <time>2022-09-12T11:16:49Z</time>
      </trkpt>
      <trkpt lat="42.186833" lon="9.050378">
        <ele>1927.8</ele>
        <time>2022-09-12T11:16:55Z</time>
      </trkpt>
      <trkpt lat="42.18679" lon="9.050358">
        <ele>1929.8</ele>
        <time>2022-09-12T11:17:08Z</time>
      </trkpt>
      <trkpt lat="42.18674" lon="9.050322">
        <ele>1931.0</ele>
        <time>2022-09-12T11:17:18Z</time>
      </trkpt>
      <trkpt lat="42.186688" lon="9.050337">
        <ele>1932.2</ele>
        <time>2022-09-12T11:17:28Z</time>
      </trkpt>
      <trkpt lat="42.186655" lon="9.05036">
        <ele>1933.0</ele>
        <time>2022-09-12T11:17:33Z</time>
      </trkpt>
      <trkpt lat="42.186603" lon="9.050295">
        <ele>1934.4</ele>
        <time>2022-09-12T11:17:48Z</time>
      </trkpt>
      <trkpt lat="42.186562" lon="9.050193">
        <ele>1936.4</ele>
        <time>2022-09-12T11:18:04Z</time>
      </trkpt>
      <trkpt lat="42.186547" lon="9.050167">
        <ele>1937.0</ele>
        <time>2022-09-12T11:18:10Z</time>
      </trkpt>
      <trkpt lat="42.186543" lon="9.050163">
        <ele>1937.0</ele>
        <time>2022-09-12T11:18:12Z</time>
      </trkpt>
      <trkpt lat="42.18652" lon="9.050103">
        <ele>1938.2</ele>
        <time>2022-09-12T11:18:23Z</time>
      </trkpt>
      <trkpt lat="42.186477" lon="9.050025">
        <ele>1939.2</ele>
        <time>2022-09-12T11:18:37Z</time>
      </trkpt>
      <trkpt lat="42.186463" lon="9.049987">
        <ele>1940.6</ele>
        <time>2022-09-12T11:18:41Z</time>
      </trkpt>
      <trkpt lat="42.186422" lon="9.049967">
        <ele>1941.0</ele>
        <time>2022-09-12T11:18:49Z</time>
      </trkpt>
      <trkpt lat="42.186413" lon="9.049952">
        <ele>1941.2</ele>
        <time>2022-09-12T11:18:55Z</time>
      </trkpt>
      <trkpt lat="42.186378" lon="9.049938">
        <ele>1942.2</ele>
        <time>2022-09-12T11:19:10Z</time>
      </trkpt>
      <trkpt lat="42.186315" lon="9.049942">
        <ele>1944.8</ele>
        <time>2022-09-12T11:19:35Z</time>
      </trkpt>
      <trkpt lat="42.186287" lon="9.049937">
        <ele>1945.2</ele>
        <time>2022-09-12T11:19:41Z</time>
      </trkpt>
      <trkpt lat="42.186192" lon="9.049862">
        <ele>1945.6</ele>
        <time>2022-09-12T11:19:58Z</time>
      </trkpt>
      <trkpt lat="42.18617" lon="9.049843">
        <ele>1945.6</ele>
        <time>2022-09-12T11:20:05Z</time>
      </trkpt>
      <trkpt lat="42.1861" lon="9.04981">
        <ele>1948.6</ele>
        <time>2022-09-12T11:20:24Z</time>
      </trkpt>
      <trkpt lat="42.186083" lon="9.049842">
        <ele>1948.8</ele>
        <time>2022-09-12T11:20:28Z</time>
      </trkpt>
      <trkpt lat="42.186075" lon="9.049838">
        <ele>1948.8</ele>
        <time>2022-09-12T11:20:29Z</time>
      </trkpt>
      <trkpt lat="42.186053" lon="9.049813">
        <ele>1949.4</ele>
        <time>2022-09-12T11:20:33Z</time>
      </trkpt>
      <trkpt lat="42.186035" lon="9.049772">
        <ele>1951.2</ele>
        <time>2022-09-12T11:20:42Z</time>
      </trkpt>
      <trkpt lat="42.185993" lon="9.049733">
        <ele>1952.6</ele>
        <time>2022-09-12T11:20:54Z</time>
      </trkpt>
      <trkpt lat="42.185943" lon="9.049738">
        <ele>1953.4</ele>
        <time>2022-09-12T11:20:59Z</time>
      </trkpt>
      <trkpt lat="42.185907" lon="9.049682">
        <ele>1953.8</ele>
        <time>2022-09-12T11:21:03Z</time>
      </trkpt>
      <trkpt lat="42.185893" lon="9.049607">
        <ele>1954.6</ele>
        <time>2022-09-12T11:21:09Z</time>
      </trkpt>
      <trkpt lat="42.185885" lon="9.049585">
        <ele>1954.8</ele>
        <time>2022-09-12T11:21:12Z</time>
      </trkpt>
      <trkpt lat="42.185835" lon="9.049567">
        <ele>1959.8</ele>
        <time>2022-09-12T11:22:04Z</time>
      </trkpt>
      <trkpt lat="42.185735" lon="9.049437">
        <ele>1969.4</ele>
        <time>2022-09-12T11:23:42Z</time>
      </trkpt>
      <trkpt lat="42.185707" lon="9.049433">
        <ele>1969.6</ele>
        <time>2022-09-12T11:23:45Z</time>
      </trkpt>
      <trkpt lat="42.18558" lon="9.049452">
        <ele>1971.6</ele>
        <time>2022-09-12T11:24:01Z</time>
      </trkpt>
      <trkpt lat="42.185528" lon="9.049435">
        <ele>1973.6</ele>
        <time>2022-09-12T11:24:14Z</time>
      </trkpt>
      <trkpt lat="42.1855" lon="9.049448">
        <ele>1973.8</ele>
        <time>2022-09-12T11:24:19Z</time>
      </trkpt>
      <trkpt lat="42.185468" lon="9.04944">
        <ele>1974.0</ele>
        <time>2022-09-12T11:24:23Z</time>
      </trkpt>
      <trkpt lat="42.18543" lon="9.049398">
        <ele>1974.6</ele>
        <time>2022-09-12T11:24:29Z</time>
      </trkpt>
      <trkpt lat="42.185387" lon="9.049353">
        <ele>1975.4</ele>
        <time>2022-09-12T11:24:37Z</time>
      </trkpt>
      <trkpt lat="42.185353" lon="9.049318">
        <ele>1976.6</ele>
        <time>2022-09-12T11:24:45Z</time>
      </trkpt>
      <trkpt lat="42.185308" lon="9.049265">
        <ele>1980.0</ele>
        <time>2022-09-12T11:25:12Z</time>
      </trkpt>
      <trkpt lat="42.185293" lon="9.049267">
        <ele>1982.6</ele>
        <time>2022-09-12T11:25:25Z</time>
      </trkpt>
      <trkpt lat="42.185225" lon="9.049258">
        <ele>1984.2</ele>
        <time>2022-09-12T11:25:39Z</time>
      </trkpt>
      <trkpt lat="42.185187" lon="9.049245">
        <ele>1984.8</ele>
        <time>2022-09-12T11:25:45Z</time>
      </trkpt>
      <trkpt lat="42.185123" lon="9.049195">
        <ele>1986.6</ele>
        <time>2022-09-12T11:25:56Z</time>
      </trkpt>
      <trkpt lat="42.184998" lon="9.049162">
        <ele>1989.0</ele>
        <time>2022-09-12T11:26:16Z</time>
      </trkpt>
      <trkpt lat="42.184913" lon="9.049105">
        <ele>1991.4</ele>
        <time>2022-09-12T11:26:32Z</time>
      </trkpt>
      <trkpt lat="42.184798" lon="9.049092">
        <ele>1993.4</ele>
        <time>2022-09-12T11:26:48Z</time>
      </trkpt>
      <trkpt lat="42.184738" lon="9.049058">
        <ele>1994.8</ele>
        <time>2022-09-12T11:26:59Z</time>
      </trkpt>
      <trkpt lat="42.184682" lon="9.049022">
        <ele>1996.6</ele>
        <time>2022-09-12T11:27:11Z</time>
      </trkpt>
      <trkpt lat="42.184572" lon="9.049017">
        <ele>1997.6</ele>
        <time>2022-09-12T11:27:31Z</time>
      </trkpt>
      <trkpt lat="42.184527" lon="9.049022">
        <ele>1998.0</ele>
        <time>2022-09-12T11:27:41Z</time>
      </trkpt>
      <trkpt lat="42.184327" lon="9.048803">
        <ele>1996.4</ele>
        <time>2022-09-12T11:28:07Z</time>
      </trkpt>
      <trkpt lat="42.184253" lon="9.048768">
        <ele>1995.8</ele>
        <time>2022-09-12T11:28:13Z</time>
      </trkpt>
      <trkpt lat="42.184213" lon="9.048692">
        <ele>1994.8</ele>
        <time>2022-09-12T11:28:21Z</time>
      </trkpt>
      <trkpt lat="42.184073" lon="9.048705">
        <ele>1994.2</ele>
        <time>2022-09-12T11:28:44Z</time>
      </trkpt>
      <trkpt lat="42.184017" lon="9.048733">
        <ele>1993.2</ele>
        <time>2022-09-12T11:28:54Z</time>
      </trkpt>
      <trkpt lat="42.183988" lon="9.048727">
        <ele>1993.2</ele>
        <time>2022-09-12T11:28:59Z</time>
      </trkpt>
      <trkpt lat="42.18391" lon="9.04854">
        <ele>1992.4</ele>
        <time>2022-09-12T11:29:17Z</time>
      </trkpt>
      <trkpt lat="42.18388" lon="9.048472">
        <ele>1992.2</ele>
        <time>2022-09-12T11:29:25Z</time>
      </trkpt>
      <trkpt lat="42.183833" lon="9.048427">
        <ele>1992.0</ele>
        <time>2022-09-12T11:29:31Z</time>
      </trkpt>
      <trkpt lat="42.183767" lon="9.048382">
        <ele>1990.8</ele>
        <time>2022-09-12T11:29:39Z</time>
      </trkpt>
      <trkpt lat="42.183758" lon="9.048372">
        <ele>1990.8</ele>
        <time>2022-09-12T11:29:40Z</time>
      </trkpt>
      <trkpt lat="42.183647" lon="9.048363">
        <ele>1989.8</ele>
        <time>2022-09-12T11:29:53Z</time>
      </trkpt>
      <trkpt lat="42.183605" lon="9.048323">
        <ele>1989.8</ele>
        <time>2022-09-12T11:29:59Z</time>
      </trkpt>
      <trkpt lat="42.18354" lon="9.048252">
        <ele>1990.0</ele>
        <time>2022-09-12T11:30:07Z</time>
      </trkpt>
      <trkpt lat="42.183472" lon="9.048245">
        <ele>1990.6</ele>
        <time>2022-09-12T11:30:15Z</time>
      </trkpt>
      <trkpt lat="42.18343" lon="9.04824">
        <ele>1991.0</ele>
        <time>2022-09-12T11:30:20Z</time>
      </trkpt>
      <trkpt lat="42.183308" lon="9.04821">
        <ele>1991.0</ele>
        <time>2022-09-12T11:30:33Z</time>
      </trkpt>
      <trkpt lat="42.183227" lon="9.048213">
        <ele>1991.4</ele>
        <time>2022-09-12T11:30:43Z</time>
      </trkpt>
      <trkpt lat="42.183142" lon="9.04824">
        <ele>1991.4</ele>
        <time>2022-09-12T11:30:52Z</time>
      </trkpt>
      <trkpt lat="42.183125" lon="9.048252">
        <ele>1991.4</ele>
        <time>2022-09-12T11:30:54Z</time>
      </trkpt>
      <trkpt lat="42.183098" lon="9.048208">
        <ele>1991.4</ele>
        <time>2022-09-12T11:31:00Z</time>
      </trkpt>
      <trkpt lat="42.183072" lon="9.048193">
        <ele>1991.4</ele>
        <time>2022-09-12T11:31:12Z</time>
      </trkpt>
      <trkpt lat="42.18297" lon="9.04817">
        <ele>1990.8</ele>
        <time>2022-09-12T11:31:26Z</time>
      </trkpt>
      <trkpt lat="42.182923" lon="9.04817">
        <ele>1991.2</ele>
        <time>2022-09-12T11:31:32Z</time>
      </trkpt>
      <trkpt lat="42.182825" lon="9.048195">
        <ele>1990.2</ele>
        <time>2022-09-12T11:31:44Z</time>
      </trkpt>
      <trkpt lat="42.182767" lon="9.048187">
        <ele>1990.2</ele>
        <time>2022-09-12T11:31:51Z</time>
      </trkpt>
      <trkpt lat="42.182743" lon="9.048175">
        <ele>1990.2</ele>
        <time>2022-09-12T11:31:54Z</time>
      </trkpt>
      <trkpt lat="42.182713" lon="9.048147">
        <ele>1990.6</ele>
        <time>2022-09-12T11:32:00Z</time>
      </trkpt>
      <trkpt lat="42.18258" lon="9.0481">
        <ele>1990.2</ele>
        <time>2022-09-12T11:32:19Z</time>
      </trkpt>
      <trkpt lat="42.182517" lon="9.04804">
        <ele>1988.6</ele>
        <time>2022-09-12T11:32:29Z</time>
      </trkpt>
      <trkpt lat="42.182472" lon="9.047955">
        <ele>1988.6</ele>
        <time>2022-09-12T11:32:41Z</time>
      </trkpt>
      <trkpt lat="42.182417" lon="9.047868">
        <ele>1988.4</ele>
        <time>2022-09-12T11:32:51Z</time>
      </trkpt>
      <trkpt lat="42.182408" lon="9.04787">
        <ele>1988.2</ele>
        <time>2022-09-12T11:32:54Z</time>
      </trkpt>
      <trkpt lat="42.182362" lon="9.047882">
        <ele>1987.8</ele>
        <time>2022-09-12T11:33:00Z</time>
      </trkpt>
      <trkpt lat="42.182323" lon="9.04789">
        <ele>1987.6</ele>
        <time>2022-09-12T11:33:05Z</time>
      </trkpt>
      <trkpt lat="42.18217" lon="9.047852">
        <ele>1986.8</ele>
        <time>2022-09-12T11:33:23Z</time>
      </trkpt>
      <trkpt lat="42.18205" lon="9.047837">
        <ele>1986.8</ele>
        <time>2022-09-12T11:33:36Z</time>
      </trkpt>
      <trkpt lat="42.18202" lon="9.047828">
        <ele>1986.8</ele>
        <time>2022-09-12T11:33:41Z</time>
      </trkpt>
      <trkpt lat="42.181962" lon="9.04785">
        <ele>1986.2</ele>
        <time>2022-09-12T11:33:48Z</time>
      </trkpt>
      <trkpt lat="42.18182" lon="9.04788">
        <ele>1987.2</ele>
        <time>2022-09-12T11:34:07Z</time>
      </trkpt>
      <trkpt lat="42.181797" lon="9.047792">
        <ele>1986.8</ele>
        <time>2022-09-12T11:34:14Z</time>
      </trkpt>
      <trkpt lat="42.181738" lon="9.047768">
        <ele>1986.4</ele>
        <time>2022-09-12T11:34:24Z</time>
      </trkpt>
      <trkpt lat="42.181667" lon="9.047793">
        <ele>1986.2</ele>
        <time>2022-09-12T11:34:38Z</time>
      </trkpt>
      <trkpt lat="42.181658" lon="9.047793">
        <ele>1986.2</ele>
        <time>2022-09-12T11:34:39Z</time>
      </trkpt>
      <trkpt lat="42.181618" lon="9.047733">
        <ele>1986.6</ele>
        <time>2022-09-12T11:34:48Z</time>
      </trkpt>
      <trkpt lat="42.181587" lon="9.047712">
        <ele>1986.4</ele>
        <time>2022-09-12T11:34:53Z</time>
      </trkpt>
      <trkpt lat="42.181535" lon="9.047702">
        <ele>1986.4</ele>
        <time>2022-09-12T11:35:01Z</time>
      </trkpt>
      <trkpt lat="42.1815" lon="9.047712">
        <ele>1986.0</ele>
        <time>2022-09-12T11:35:10Z</time>
      </trkpt>
      <trkpt lat="42.181447" lon="9.047707">
        <ele>1985.2</ele>
        <time>2022-09-12T11:35:38Z</time>
      </trkpt>
      <trkpt lat="42.181425" lon="9.047737">
        <ele>1985.8</ele>
        <time>2022-09-12T11:36:47Z</time>
      </trkpt>
      <trkpt lat="42.181338" lon="9.04786">
        <ele>1983.2</ele>
        <time>2022-09-12T11:37:58Z</time>
      </trkpt>
      <trkpt lat="42.181357" lon="9.047793">
        <ele>1985.4</ele>
        <time>2022-09-12T11:38:35Z</time>
      </trkpt>
      <trkpt lat="42.18104" lon="9.047557">
        <ele>1985.8</ele>
        <time>2022-09-12T11:38:50Z</time>
      </trkpt>
      <trkpt lat="42.181012" lon="9.04761">
        <ele>1985.8</ele>
        <time>2022-09-12T11:38:53Z</time>
      </trkpt>
      <trkpt lat="42.180998" lon="9.047633">
        <ele>1985.6</ele>
        <time>2022-09-12T11:38:54Z</time>
      </trkpt>
      <trkpt lat="42.180872" lon="9.047737">
        <ele>1986.4</ele>
        <time>2022-09-12T11:39:02Z</time>
      </trkpt>
      <trkpt lat="42.180818" lon="9.047802">
        <ele>1986.6</ele>
        <time>2022-09-12T11:39:08Z</time>
      </trkpt>
      <trkpt lat="42.180792" lon="9.047872">
        <ele>1986.8</ele>
        <time>2022-09-12T11:39:15Z</time>
      </trkpt>
      <trkpt lat="42.18078" lon="9.04792">
        <ele>1987.8</ele>
        <time>2022-09-12T11:39:25Z</time>
      </trkpt>
      <trkpt lat="42.180745" lon="9.047993">
        <ele>1988.8</ele>
        <time>2022-09-12T11:39:36Z</time>
      </trkpt>
      <trkpt lat="42.18074" lon="9.048015">
        <ele>1989.4</ele>
        <time>2022-09-12T11:39:38Z</time>
      </trkpt>
      <trkpt lat="42.180607" lon="9.048025">
        <ele>1989.4</ele>
        <time>2022-09-12T11:40:18Z</time>
      </trkpt>
      <trkpt lat="42.18056" lon="9.048023">
        <ele>1987.6</ele>
        <time>2022-09-12T11:40:30Z</time>
      </trkpt>
      <trkpt lat="42.180525" lon="9.04798">
        <ele>1987.0</ele>
        <time>2022-09-12T11:40:37Z</time>
      </trkpt>
      <trkpt lat="42.18048" lon="9.047892">
        <ele>1988.8</ele>
        <time>2022-09-12T11:40:50Z</time>
      </trkpt>
      <trkpt lat="42.180465" lon="9.047875">
        <ele>1989.0</ele>
        <time>2022-09-12T11:40:54Z</time>
      </trkpt>
      <trkpt lat="42.180402" lon="9.047923">
        <ele>1990.2</ele>
        <time>2022-09-12T11:41:06Z</time>
      </trkpt>
      <trkpt lat="42.180347" lon="9.047945">
        <ele>1994.2</ele>
        <time>2022-09-12T11:41:21Z</time>
      </trkpt>
      <trkpt lat="42.180305" lon="9.047955">
        <ele>1995.8</ele>
        <time>2022-09-12T11:41:45Z</time>
      </trkpt>
      <trkpt lat="42.180278" lon="9.047982">
        <ele>1995.8</ele>
        <time>2022-09-12T11:41:49Z</time>
      </trkpt>
      <trkpt lat="42.180192" lon="9.048105">
        <ele>1996.0</ele>
        <time>2022-09-12T11:42:04Z</time>
      </trkpt>
      <trkpt lat="42.180123" lon="9.048123">
        <ele>1996.2</ele>
        <time>2022-09-12T11:42:28Z</time>
      </trkpt>
      <trkpt lat="42.180107" lon="9.048182">
        <ele>1995.4</ele>
        <time>2022-09-12T11:42:36Z</time>
      </trkpt>
      <trkpt lat="42.180137" lon="9.04831">
        <ele>1994.6</ele>
        <time>2022-09-12T11:42:46Z</time>
      </trkpt>
      <trkpt lat="42.180118" lon="9.048328">
        <ele>1994.0</ele>
        <time>2022-09-12T11:42:54Z</time>
      </trkpt>
      <trkpt lat="42.180125" lon="9.048442">
        <ele>1992.4</ele>
        <time>2022-09-12T11:43:03Z</time>
      </trkpt>
      <trkpt lat="42.180107" lon="9.048492">
        <ele>1992.2</ele>
        <time>2022-09-12T11:43:07Z</time>
      </trkpt>
      <trkpt lat="42.18008" lon="9.04852">
        <ele>1992.2</ele>
        <time>2022-09-12T11:43:11Z</time>
      </trkpt>
      <trkpt lat="42.179992" lon="9.048387">
        <ele>1993.6</ele>
        <time>2022-09-12T11:43:26Z</time>
      </trkpt>
      <trkpt lat="42.179967" lon="9.048417">
        <ele>1994.8</ele>
        <time>2022-09-12T11:43:36Z</time>
      </trkpt>
      <trkpt lat="42.179808" lon="9.048068">
        <ele>1996.0</ele>
        <time>2022-09-12T11:43:46Z</time>
      </trkpt>
      <trkpt lat="42.179675" lon="9.048617">
        <ele>1997.4</ele>
        <time>2022-09-12T11:43:57Z</time>
      </trkpt>
      <trkpt lat="42.179627" lon="9.048683">
        <ele>1997.4</ele>
        <time>2022-09-12T11:43:58Z</time>
      </trkpt>
      <trkpt lat="42.179592" lon="9.048697">
        <ele>1997.4</ele>
        <time>2022-09-12T11:44:00Z</time>
      </trkpt>
      <trkpt lat="42.1795" lon="9.048692">
        <ele>1997.8</ele>
        <time>2022-09-12T11:44:04Z</time>
      </trkpt>
      <trkpt lat="42.179455" lon="9.04871">
        <ele>1999.4</ele>
        <time>2022-09-12T11:44:16Z</time>
      </trkpt>
      <trkpt lat="42.17943" lon="9.048715">
        <ele>2000.8</ele>
        <time>2022-09-12T11:44:24Z</time>
      </trkpt>
      <trkpt lat="42.179425" lon="9.048718">
        <ele>2004.0</ele>
        <time>2022-09-12T11:44:52Z</time>
      </trkpt>
      <trkpt lat="42.17943" lon="9.048742">
        <ele>2004.0</ele>
        <time>2022-09-12T11:45:09Z</time>
      </trkpt>
      <trkpt lat="42.179447" lon="9.048787">
        <ele>2006.6</ele>
        <time>2022-09-12T11:45:27Z</time>
      </trkpt>
      <trkpt lat="42.179405" lon="9.048803">
        <ele>2008.8</ele>
        <time>2022-09-12T11:45:37Z</time>
      </trkpt>
      <trkpt lat="42.179395" lon="9.048808">
        <ele>2009.0</ele>
        <time>2022-09-12T11:45:38Z</time>
      </trkpt>
      <trkpt lat="42.179148" lon="9.048667">
        <ele>2013.0</ele>
        <time>2022-09-12T11:46:07Z</time>
      </trkpt>
      <trkpt lat="42.179143" lon="9.04861">
        <ele>2014.8</ele>
        <time>2022-09-12T11:46:21Z</time>
      </trkpt>
      <trkpt lat="42.179143" lon="9.048577">
        <ele>2016.4</ele>
        <time>2022-09-12T11:46:29Z</time>
      </trkpt>
      <trkpt lat="42.17913" lon="9.04856">
        <ele>2017.2</ele>
        <time>2022-09-12T11:46:33Z</time>
      </trkpt>
      <trkpt lat="42.17911" lon="9.048562">
        <ele>2017.4</ele>
        <time>2022-09-12T11:46:38Z</time>
      </trkpt>
      <trkpt lat="42.179087" lon="9.048553">
        <ele>2019.4</ele>
        <time>2022-09-12T11:48:00Z</time>
      </trkpt>
      <trkpt lat="42.179058" lon="9.048578">
        <ele>2019.4</ele>
        <time>2022-09-12T11:48:05Z</time>
      </trkpt>
      <trkpt lat="42.179012" lon="9.048623">
        <ele>2019.8</ele>
        <time>2022-09-12T11:48:10Z</time>
      </trkpt>
      <trkpt lat="42.178962" lon="9.048637">
        <ele>2019.8</ele>
        <time>2022-09-12T11:48:15Z</time>
      </trkpt>
      <trkpt lat="42.178955" lon="9.048653">
        <ele>2021.2</ele>
        <time>2022-09-12T11:48:47Z</time>
      </trkpt>
      <trkpt lat="42.179008" lon="9.048832">
        <ele>2030.6</ele>
        <time>2022-09-12T11:52:03Z</time>
      </trkpt>
      <trkpt lat="42.178887" lon="9.049233">
        <ele>2033.6</ele>
        <time>2022-09-12T11:52:26Z</time>
      </trkpt>
      <trkpt lat="42.178867" lon="9.049312">
        <ele>2033.8</ele>
        <time>2022-09-12T11:52:29Z</time>
      </trkpt>
      <trkpt lat="42.17881" lon="9.04929">
        <ele>2034.2</ele>
        <time>2022-09-12T11:52:32Z</time>
      </trkpt>
      <trkpt lat="42.178818" lon="9.048883">
        <ele>2035.0</ele>
        <time>2022-09-12T11:53:22Z</time>
      </trkpt>
      <trkpt lat="42.178817" lon="9.048877">
        <ele>2035.0</ele>
        <time>2022-09-12T11:53:24Z</time>
      </trkpt>
      <trkpt lat="42.17858" lon="9.049063">
        <ele>2052.8</ele>
        <time>2022-09-12T11:58:54Z</time>
      </trkpt>
      <trkpt lat="42.178448" lon="9.049128">
        <ele>2053.6</ele>
        <time>2022-09-12T11:59:00Z</time>
      </trkpt>
      <trkpt lat="42.178292" lon="9.049207">
        <ele>2054.0</ele>
        <time>2022-09-12T11:59:06Z</time>
      </trkpt>
      <trkpt lat="42.178083" lon="9.049378">
        <ele>2054.8</ele>
        <time>2022-09-12T11:59:15Z</time>
      </trkpt>
      <trkpt lat="42.177972" lon="9.04944">
        <ele>2055.6</ele>
        <time>2022-09-12T11:59:22Z</time>
      </trkpt>
      <trkpt lat="42.17794" lon="9.049487">
        <ele>2055.8</ele>
        <time>2022-09-12T11:59:26Z</time>
      </trkpt>
      <trkpt lat="42.177908" lon="9.049505">
        <ele>2056.0</ele>
        <time>2022-09-12T11:59:29Z</time>
      </trkpt>
      <trkpt lat="42.177875" lon="9.049505">
        <ele>2056.6</ele>
        <time>2022-09-12T11:59:32Z</time>
      </trkpt>
      <trkpt lat="42.177838" lon="9.04948">
        <ele>2056.8</ele>
        <time>2022-09-12T11:59:36Z</time>
      </trkpt>
      <trkpt lat="42.17785" lon="9.049395">
        <ele>2058.4</ele>
        <time>2022-09-12T12:00:26Z</time>
      </trkpt>
      <trkpt lat="42.177825" lon="9.049303">
        <ele>2060.8</ele>
        <time>2022-09-12T12:00:56Z</time>
      </trkpt>
      <trkpt lat="42.177805" lon="9.049277">
        <ele>2063.8</ele>
        <time>2022-09-12T12:01:29Z</time>
      </trkpt>
      <trkpt lat="42.177793" lon="9.049285">
        <ele>2064.0</ele>
        <time>2022-09-12T12:01:33Z</time>
      </trkpt>
      <trkpt lat="42.177728" lon="9.049332">
        <ele>2065.0</ele>
        <time>2022-09-12T12:01:40Z</time>
      </trkpt>
      <trkpt lat="42.177627" lon="9.0494">
        <ele>2066.8</ele>
        <time>2022-09-12T12:01:50Z</time>
      </trkpt>
      <trkpt lat="42.17757" lon="9.049465">
        <ele>2067.0</ele>
        <time>2022-09-12T12:01:56Z</time>
      </trkpt>
      <trkpt lat="42.177527" lon="9.049455">
        <ele>2067.0</ele>
        <time>2022-09-12T12:02:02Z</time>
      </trkpt>
      <trkpt lat="42.17742" lon="9.04939">
        <ele>2068.6</ele>
        <time>2022-09-12T12:02:19Z</time>
      </trkpt>
      <trkpt lat="42.177297" lon="9.049345">
        <ele>2070.6</ele>
        <time>2022-09-12T12:02:44Z</time>
      </trkpt>
      <trkpt lat="42.177272" lon="9.049325">
        <ele>2070.6</ele>
        <time>2022-09-12T12:02:51Z</time>
      </trkpt>
      <trkpt lat="42.177237" lon="9.04936">
        <ele>2070.6</ele>
        <time>2022-09-12T12:03:01Z</time>
      </trkpt>
      <trkpt lat="42.17722" lon="9.049405">
        <ele>2070.2</ele>
        <time>2022-09-12T12:03:09Z</time>
      </trkpt>
      <trkpt lat="42.177143" lon="9.04931">
        <ele>2070.0</ele>
        <time>2022-09-12T12:03:32Z</time>
      </trkpt>
      <trkpt lat="42.17712" lon="9.049185">
        <ele>2070.0</ele>
        <time>2022-09-12T12:03:39Z</time>
      </trkpt>
      <trkpt lat="42.177372" lon="9.049107">
        <ele>2059.0</ele>
        <time>2022-09-12T12:15:13Z</time>
      </trkpt>
      <trkpt lat="42.17723" lon="9.04903">
        <ele>2058.6</ele>
        <time>2022-09-12T12:15:25Z</time>
      </trkpt>
      <trkpt lat="42.177202" lon="9.048968">
        <ele>2058.4</ele>
        <time>2022-09-12T12:15:30Z</time>
      </trkpt>
      <trkpt lat="42.177177" lon="9.048953">
        <ele>2058.0</ele>
        <time>2022-09-12T12:15:37Z</time>
      </trkpt>
      <trkpt lat="42.177143" lon="9.048993">
        <ele>2057.4</ele>
        <time>2022-09-12T12:15:45Z</time>
      </trkpt>
      <trkpt lat="42.177077" lon="9.049012">
        <ele>2056.6</ele>
        <time>2022-09-12T12:15:50Z</time>
      </trkpt>
      <trkpt lat="42.177017" lon="9.048967">
        <ele>2056.4</ele>
        <time>2022-09-12T12:15:54Z</time>
      </trkpt>
      <trkpt lat="42.177018" lon="9.048927">
        <ele>2049.8</ele>
        <time>2022-09-12T12:18:34Z</time>
      </trkpt>
      <trkpt lat="42.176983" lon="9.04892">
        <ele>2048.6</ele>
        <time>2022-09-12T12:18:44Z</time>
      </trkpt>
      <trkpt lat="42.17698" lon="9.04891">
        <ele>2048.6</ele>
        <time>2022-09-12T12:18:44Z</time>
      </trkpt>
      <trkpt lat="42.176918" lon="9.048832">
        <ele>2048.2</ele>
        <time>2022-09-12T12:18:52Z</time>
      </trkpt>
      <trkpt lat="42.176843" lon="9.048665">
        <ele>2048.0</ele>
        <time>2022-09-12T12:19:00Z</time>
      </trkpt>
      <trkpt lat="42.176718" lon="9.04858">
        <ele>2047.2</ele>
        <time>2022-09-12T12:19:08Z</time>
      </trkpt>
      <trkpt lat="42.17669" lon="9.04855">
        <ele>2047.0</ele>
        <time>2022-09-12T12:19:10Z</time>
      </trkpt>
      <trkpt lat="42.17665" lon="9.048472">
        <ele>2046.6</ele>
        <time>2022-09-12T12:19:14Z</time>
      </trkpt>
      <trkpt lat="42.176633" lon="9.048568">
        <ele>2046.4</ele>
        <time>2022-09-12T12:19:29Z</time>
      </trkpt>
      <trkpt lat="42.176633" lon="9.048682">
        <ele>2047.6</ele>
        <time>2022-09-12T12:20:10Z</time>
      </trkpt>
      <trkpt lat="42.176588" lon="9.048837">
        <ele>2047.8</ele>
        <time>2022-09-12T12:20:46Z</time>
      </trkpt>
      <trkpt lat="42.176617" lon="9.048752">
        <ele>2047.6</ele>
        <time>2022-09-12T12:21:14Z</time>
      </trkpt>
      <trkpt lat="42.1766" lon="9.04861">
        <ele>2048.4</ele>
        <time>2022-09-12T12:21:56Z</time>
      </trkpt>
      <trkpt lat="42.176228" lon="9.048437">
        <ele>2047.4</ele>
        <time>2022-09-12T12:25:24Z</time>
      </trkpt>
      <trkpt lat="42.176272" lon="9.048448">
        <ele>2047.8</ele>
        <time>2022-09-12T12:25:39Z</time>
      </trkpt>
      <trkpt lat="42.17617" lon="9.048422">
        <ele>2049.0</ele>
        <time>2022-09-12T12:25:45Z</time>
      </trkpt>
      <trkpt lat="42.176068" lon="9.048407">
        <ele>2049.8</ele>
        <time>2022-09-12T12:25:52Z</time>
      </trkpt>
      <trkpt lat="42.175925" lon="9.048335">
        <ele>2050.6</ele>
        <time>2022-09-12T12:26:03Z</time>
      </trkpt>
      <trkpt lat="42.175825" lon="9.048283">
        <ele>2052.0</ele>
        <time>2022-09-12T12:26:11Z</time>
      </trkpt>
      <trkpt lat="42.175748" lon="9.04825">
        <ele>2052.0</ele>
        <time>2022-09-12T12:26:17Z</time>
      </trkpt>
      <trkpt lat="42.17567" lon="9.048215">
        <ele>2052.0</ele>
        <time>2022-09-12T12:26:23Z</time>
      </trkpt>
      <trkpt lat="42.175657" lon="9.048212">
        <ele>2052.0</ele>
        <time>2022-09-12T12:26:23Z</time>
      </trkpt>
      <trkpt lat="42.175528" lon="9.048212">
        <ele>2051.4</ele>
        <time>2022-09-12T12:26:33Z</time>
      </trkpt>
      <trkpt lat="42.175452" lon="9.048163">
        <ele>2050.8</ele>
        <time>2022-09-12T12:26:41Z</time>
      </trkpt>
      <trkpt lat="42.175358" lon="9.048078">
        <ele>2050.6</ele>
        <time>2022-09-12T12:26:52Z</time>
      </trkpt>
      <trkpt lat="42.175335" lon="9.048057">
        <ele>2050.4</ele>
        <time>2022-09-12T12:26:55Z</time>
      </trkpt>
      <trkpt lat="42.175317" lon="9.048025">
        <ele>2048.0</ele>
        <time>2022-09-12T12:27:04Z</time>
      </trkpt>
      <trkpt lat="42.175305" lon="9.048088">
        <ele>2046.8</ele>
        <time>2022-09-12T12:27:11Z</time>
      </trkpt>
      <trkpt lat="42.175302" lon="9.04812">
        <ele>2045.8</ele>
        <time>2022-09-12T12:27:17Z</time>
      </trkpt>
      <trkpt lat="42.17535" lon="9.048238">
        <ele>2040.6</ele>
        <time>2022-09-12T12:27:47Z</time>
      </trkpt>
      <trkpt lat="42.17537" lon="9.048287">
        <ele>2039.0</ele>
        <time>2022-09-12T12:27:59Z</time>
      </trkpt>
      <trkpt lat="42.175377" lon="9.048353">
        <ele>2037.8</ele>
        <time>2022-09-12T12:28:09Z</time>
      </trkpt>
      <trkpt lat="42.175375" lon="9.048358">
        <ele>2037.8</ele>
        <time>2022-09-12T12:28:09Z</time>
      </trkpt>
      <trkpt lat="42.175318" lon="9.048305">
        <ele>2035.6</ele>
        <time>2022-09-12T12:28:22Z</time>
      </trkpt>
      <trkpt lat="42.175297" lon="9.048287">
        <ele>2034.8</ele>
        <time>2022-09-12T12:28:26Z</time>
      </trkpt>
      <trkpt lat="42.175238" lon="9.0483">
        <ele>2032.2</ele>
        <time>2022-09-12T12:28:39Z</time>
      </trkpt>
      <trkpt lat="42.175232" lon="9.048303">
        <ele>2032.2</ele>
        <time>2022-09-12T12:28:39Z</time>
      </trkpt>
      <trkpt lat="42.175208" lon="9.048308">
        <ele>2032.0</ele>
        <time>2022-09-12T12:28:41Z</time>
      </trkpt>
      <trkpt lat="42.175152" lon="9.048295">
        <ele>2030.8</ele>
        <time>2022-09-12T12:28:48Z</time>
      </trkpt>
      <trkpt lat="42.175102" lon="9.048268">
        <ele>2029.2</ele>
        <time>2022-09-12T12:28:57Z</time>
      </trkpt>
      <trkpt lat="42.17496" lon="9.048482">
        <ele>2019.2</ele>
        <time>2022-09-12T12:30:05Z</time>
      </trkpt>
      <trkpt lat="42.174972" lon="9.048455">
        <ele>2004.0</ele>
        <time>2022-09-12T12:31:38Z</time>
      </trkpt>
      <trkpt lat="42.174942" lon="9.048427">
        <ele>2002.6</ele>
        <time>2022-09-12T12:31:50Z</time>
      </trkpt>
      <trkpt lat="42.174947" lon="9.04835">
        <ele>2000.2</ele>
        <time>2022-09-12T12:32:01Z</time>
      </trkpt>
      <trkpt lat="42.174935" lon="9.048345">
        <ele>2000.2</ele>
        <time>2022-09-12T12:32:01Z</time>
      </trkpt>
      <trkpt lat="42.174925" lon="9.048363">
        <ele>2000.0</ele>
        <time>2022-09-12T12:32:03Z</time>
      </trkpt>
      <trkpt lat="42.174855" lon="9.048413">
        <ele>1998.2</ele>
        <time>2022-09-12T12:32:11Z</time>
      </trkpt>
      <trkpt lat="42.17481" lon="9.048428">
        <ele>1997.4</ele>
        <time>2022-09-12T12:32:16Z</time>
      </trkpt>
      <trkpt lat="42.17476" lon="9.048452">
        <ele>1997.0</ele>
        <time>2022-09-12T12:32:24Z</time>
      </trkpt>
      <trkpt lat="42.174673" lon="9.048433">
        <ele>1993.4</ele>
        <time>2022-09-12T12:32:36Z</time>
      </trkpt>
      <trkpt lat="42.174635" lon="9.048468">
        <ele>1991.2</ele>
        <time>2022-09-12T12:32:48Z</time>
      </trkpt>
      <trkpt lat="42.174633" lon="9.04847">
        <ele>1991.2</ele>
        <time>2022-09-12T12:32:49Z</time>
      </trkpt>
      <trkpt lat="42.1746" lon="9.048473">
        <ele>1990.2</ele>
        <time>2022-09-12T12:32:56Z</time>
      </trkpt>
      <trkpt lat="42.174533" lon="9.048458">
        <ele>1988.2</ele>
        <time>2022-09-12T12:33:09Z</time>
      </trkpt>
      <trkpt lat="42.174505" lon="9.048475">
        <ele>1987.2</ele>
        <time>2022-09-12T12:33:15Z</time>
      </trkpt>
      <trkpt lat="42.174478" lon="9.048443">
        <ele>1986.0</ele>
        <time>2022-09-12T12:33:22Z</time>
      </trkpt>
      <trkpt lat="42.174462" lon="9.048495">
        <ele>1985.6</ele>
        <time>2022-09-12T12:33:28Z</time>
      </trkpt>
      <trkpt lat="42.174457" lon="9.048503">
        <ele>1985.6</ele>
        <time>2022-09-12T12:33:28Z</time>
      </trkpt>
      <trkpt lat="42.174402" lon="9.04851">
        <ele>1983.6</ele>
        <time>2022-09-12T12:33:38Z</time>
      </trkpt>
      <trkpt lat="42.174352" lon="9.048477">
        <ele>1982.8</ele>
        <time>2022-09-12T12:33:48Z</time>
      </trkpt>
      <trkpt lat="42.174305" lon="9.048488">
        <ele>1980.6</ele>
        <time>2022-09-12T12:33:57Z</time>
      </trkpt>
      <trkpt lat="42.174263" lon="9.04846">
        <ele>1978.8</ele>
        <time>2022-09-12T12:34:13Z</time>
      </trkpt>
      <trkpt lat="42.17425" lon="9.048457">
        <ele>1978.0</ele>
        <time>2022-09-12T12:34:18Z</time>
      </trkpt>
      <trkpt lat="42.174213" lon="9.048452">
        <ele>1976.2</ele>
        <time>2022-09-12T12:34:31Z</time>
      </trkpt>
      <trkpt lat="42.174187" lon="9.048467">
        <ele>1975.6</ele>
        <time>2022-09-12T12:34:35Z</time>
      </trkpt>
      <trkpt lat="42.174088" lon="9.048597">
        <ele>1970.4</ele>
        <time>2022-09-12T12:35:01Z</time>
      </trkpt>
      <trkpt lat="42.174075" lon="9.048622">
        <ele>1970.0</ele>
        <time>2022-09-12T12:35:07Z</time>
      </trkpt>
      <trkpt lat="42.174003" lon="9.04861">
        <ele>1967.6</ele>
        <time>2022-09-12T12:35:23Z</time>
      </trkpt>
      <trkpt lat="42.173992" lon="9.048635">
        <ele>1966.6</ele>
        <time>2022-09-12T12:35:29Z</time>
      </trkpt>
      <trkpt lat="42.173975" lon="9.048687">
        <ele>1964.4</ele>
        <time>2022-09-12T12:35:44Z</time>
      </trkpt>
      <trkpt lat="42.173932" lon="9.048643">
        <ele>1959.6</ele>
        <time>2022-09-12T12:36:08Z</time>
      </trkpt>
      <trkpt lat="42.173873" lon="9.048643">
        <ele>1950.0</ele>
        <time>2022-09-12T12:37:00Z</time>
      </trkpt>
      <trkpt lat="42.17386" lon="9.048627">
        <ele>1948.0</ele>
        <time>2022-09-12T12:37:11Z</time>
      </trkpt>
      <trkpt lat="42.173722" lon="9.04866">
        <ele>1937.8</ele>
        <time>2022-09-12T12:38:53Z</time>
      </trkpt>
      <trkpt lat="42.173627" lon="9.048612">
        <ele>1936.8</ele>
        <time>2022-09-12T12:39:14Z</time>
      </trkpt>
      <trkpt lat="42.17359" lon="9.048603">
        <ele>1934.6</ele>
        <time>2022-09-12T12:39:36Z</time>
      </trkpt>
      <trkpt lat="42.17353" lon="9.048587">
        <ele>1933.0</ele>
        <time>2022-09-12T12:40:05Z</time>
      </trkpt>
      <trkpt lat="42.173483" lon="9.048553">
        <ele>1929.4</ele>
        <time>2022-09-12T12:40:57Z</time>
      </trkpt>
      <trkpt lat="42.173453" lon="9.04852">
        <ele>1929.0</ele>
        <time>2022-09-12T12:41:06Z</time>
      </trkpt>
      <trkpt lat="42.173453" lon="9.04849">
        <ele>1928.8</ele>
        <time>2022-09-12T12:41:23Z</time>
      </trkpt>
      <trkpt lat="42.173448" lon="9.048522">
        <ele>1927.4</ele>
        <time>2022-09-12T12:41:34Z</time>
      </trkpt>
      <trkpt lat="42.173412" lon="9.048552">
        <ele>1924.8</ele>
        <time>2022-09-12T12:41:53Z</time>
      </trkpt>
      <trkpt lat="42.173405" lon="9.048568">
        <ele>1924.8</ele>
        <time>2022-09-12T12:41:57Z</time>
      </trkpt>
      <trkpt lat="42.173372" lon="9.048598">
        <ele>1922.8</ele>
        <time>2022-09-12T12:42:09Z</time>
      </trkpt>
      <trkpt lat="42.17336" lon="9.048593">
        <ele>1920.2</ele>
        <time>2022-09-12T12:42:25Z</time>
      </trkpt>
      <trkpt lat="42.173368" lon="9.04867">
        <ele>1914.4</ele>
        <time>2022-09-12T12:43:28Z</time>
      </trkpt>
      <trkpt lat="42.173235" lon="9.048732">
        <ele>1914.4</ele>
        <time>2022-09-12T12:43:54Z</time>
      </trkpt>
      <trkpt lat="42.173153" lon="9.048777">
        <ele>1915.2</ele>
        <time>2022-09-12T12:44:02Z</time>
      </trkpt>
      <trkpt lat="42.17293" lon="9.048917">
        <ele>1916.2</ele>
        <time>2022-09-12T12:44:13Z</time>
      </trkpt>
      <trkpt lat="42.172885" lon="9.048945">
        <ele>1916.2</ele>
        <time>2022-09-12T12:44:15Z</time>
      </trkpt>
      <trkpt lat="42.172817" lon="9.049023">
        <ele>1916.6</ele>
        <time>2022-09-12T12:44:19Z</time>
      </trkpt>
      <trkpt lat="42.172793" lon="9.049045">
        <ele>1916.8</ele>
        <time>2022-09-12T12:44:21Z</time>
      </trkpt>
      <trkpt lat="42.172755" lon="9.049055">
        <ele>1916.4</ele>
        <time>2022-09-12T12:44:24Z</time>
      </trkpt>
      <trkpt lat="42.172668" lon="9.049063">
        <ele>1915.6</ele>
        <time>2022-09-12T12:44:32Z</time>
      </trkpt>
      <trkpt lat="42.172633" lon="9.049052">
        <ele>1915.2</ele>
        <time>2022-09-12T12:44:36Z</time>
      </trkpt>
      <trkpt lat="42.172603" lon="9.049035">
        <ele>1915.2</ele>
        <time>2022-09-12T12:44:40Z</time>
      </trkpt>
      <trkpt lat="42.172573" lon="9.048998">
        <ele>1915.2</ele>
        <time>2022-09-12T12:44:45Z</time>
      </trkpt>
      <trkpt lat="42.17254" lon="9.049005">
        <ele>1915.2</ele>
        <time>2022-09-12T12:44:49Z</time>
      </trkpt>
      <trkpt lat="42.17238" lon="9.04913">
        <ele>1914.6</ele>
        <time>2022-09-12T12:45:21Z</time>
      </trkpt>
      <trkpt lat="42.172347" lon="9.04917">
        <ele>1915.0</ele>
        <time>2022-09-12T12:45:30Z</time>
      </trkpt>
      <trkpt lat="42.172267" lon="9.04927">
        <ele>1916.6</ele>
        <time>2022-09-12T12:45:50Z</time>
      </trkpt>
      <trkpt lat="42.172217" lon="9.049335">
        <ele>1916.6</ele>
        <time>2022-09-12T12:46:22Z</time>
      </trkpt>
      <trkpt lat="42.172172" lon="9.04942">
        <ele>1916.6</ele>
        <time>2022-09-12T12:46:46Z</time>
      </trkpt>
      <trkpt lat="42.172168" lon="9.049423">
        <ele>1916.6</ele>
        <time>2022-09-12T12:46:49Z</time>
      </trkpt>
      <trkpt lat="42.17211" lon="9.049465">
        <ele>1914.0</ele>
        <time>2022-09-12T12:47:07Z</time>
      </trkpt>
      <trkpt lat="42.172048" lon="9.049483">
        <ele>1911.8</ele>
        <time>2022-09-12T12:47:20Z</time>
      </trkpt>
      <trkpt lat="42.171885" lon="9.04951">
        <ele>1912.0</ele>
        <time>2022-09-12T12:47:39Z</time>
      </trkpt>
      <trkpt lat="42.171845" lon="9.049522">
        <ele>1912.2</ele>
        <time>2022-09-12T12:47:41Z</time>
      </trkpt>
      <trkpt lat="42.17172" lon="9.049635">
        <ele>1912.2</ele>
        <time>2022-09-12T12:47:50Z</time>
      </trkpt>
      <trkpt lat="42.171665" lon="9.049657">
        <ele>1912.2</ele>
        <time>2022-09-12T12:47:53Z</time>
      </trkpt>
      <trkpt lat="42.171617" lon="9.049713">
        <ele>1912.8</ele>
        <time>2022-09-12T12:47:58Z</time>
      </trkpt>
      <trkpt lat="42.171552" lon="9.049868">
        <ele>1913.4</ele>
        <time>2022-09-12T12:48:09Z</time>
      </trkpt>
      <trkpt lat="42.171532" lon="9.049927">
        <ele>1914.2</ele>
        <time>2022-09-12T12:48:19Z</time>
      </trkpt>
      <trkpt lat="42.171527" lon="9.049978">
        <ele>1913.8</ele>
        <time>2022-09-12T12:48:29Z</time>
      </trkpt>
      <trkpt lat="42.171518" lon="9.050003">
        <ele>1913.2</ele>
        <time>2022-09-12T12:48:35Z</time>
      </trkpt>
      <trkpt lat="42.171512" lon="9.050058">
        <ele>1912.4</ele>
        <time>2022-09-12T12:48:52Z</time>
      </trkpt>
      <trkpt lat="42.171503" lon="9.050082">
        <ele>1911.8</ele>
        <time>2022-09-12T12:48:56Z</time>
      </trkpt>
      <trkpt lat="42.17147" lon="9.050203">
        <ele>1910.0</ele>
        <time>2022-09-12T12:49:20Z</time>
      </trkpt>
      <trkpt lat="42.17139" lon="9.050257">
        <ele>1911.4</ele>
        <time>2022-09-12T12:49:36Z</time>
      </trkpt>
      <trkpt lat="42.171338" lon="9.050248">
        <ele>1911.4</ele>
        <time>2022-09-12T12:49:40Z</time>
      </trkpt>
      <trkpt lat="42.171313" lon="9.050272">
        <ele>1911.4</ele>
        <time>2022-09-12T12:49:42Z</time>
      </trkpt>
      <trkpt lat="42.17116" lon="9.050322">
        <ele>1911.8</ele>
        <time>2022-09-12T12:49:51Z</time>
      </trkpt>
      <trkpt lat="42.171148" lon="9.050345">
        <ele>1912.0</ele>
        <time>2022-09-12T12:49:53Z</time>
      </trkpt>
      <trkpt lat="42.17115" lon="9.050357">
        <ele>1912.0</ele>
        <time>2022-09-12T12:49:54Z</time>
      </trkpt>
      <trkpt lat="42.17122" lon="9.050418">
        <ele>1913.6</ele>
        <time>2022-09-12T12:50:03Z</time>
      </trkpt>
      <trkpt lat="42.171228" lon="9.050487">
        <ele>1914.2</ele>
        <time>2022-09-12T12:50:12Z</time>
      </trkpt>
      <trkpt lat="42.171243" lon="9.050533">
        <ele>1915.0</ele>
        <time>2022-09-12T12:50:25Z</time>
      </trkpt>
      <trkpt lat="42.17125" lon="9.050538">
        <ele>1915.0</ele>
        <time>2022-09-12T12:50:26Z</time>
      </trkpt>
      <trkpt lat="42.171218" lon="9.050583">
        <ele>1915.6</ele>
        <time>2022-09-12T12:50:31Z</time>
      </trkpt>
      <trkpt lat="42.171188" lon="9.0506">
        <ele>1916.2</ele>
        <time>2022-09-12T12:50:34Z</time>
      </trkpt>
      <trkpt lat="42.171158" lon="9.050565">
        <ele>1917.0</ele>
        <time>2022-09-12T12:50:42Z</time>
      </trkpt>
      <trkpt lat="42.171118" lon="9.05041">
        <ele>1921.0</ele>
        <time>2022-09-12T12:51:10Z</time>
      </trkpt>
      <trkpt lat="42.171122" lon="9.050405">
        <ele>1923.0</ele>
        <time>2022-09-12T12:51:19Z</time>
      </trkpt>
      <trkpt lat="42.171098" lon="9.050433">
        <ele>1924.2</ele>
        <time>2022-09-12T12:51:31Z</time>
      </trkpt>
      <trkpt lat="42.171087" lon="9.050485">
        <ele>1924.8</ele>
        <time>2022-09-12T12:51:36Z</time>
      </trkpt>
      <trkpt lat="42.171095" lon="9.050568">
        <ele>1925.2</ele>
        <time>2022-09-12T12:51:44Z</time>
      </trkpt>
      <trkpt lat="42.171088" lon="9.05059">
        <ele>1925.2</ele>
        <time>2022-09-12T12:51:48Z</time>
      </trkpt>
      <trkpt lat="42.171125" lon="9.050695">
        <ele>1925.0</ele>
        <time>2022-09-12T12:51:58Z</time>
      </trkpt>
      <trkpt lat="42.171137" lon="9.050717">
        <ele>1924.4</ele>
        <time>2022-09-12T12:52:00Z</time>
      </trkpt>
      <trkpt lat="42.171182" lon="9.050733">
        <ele>1923.8</ele>
        <time>2022-09-12T12:52:07Z</time>
      </trkpt>
      <trkpt lat="42.171182" lon="9.050738">
        <ele>1923.4</ele>
        <time>2022-09-12T12:52:08Z</time>
      </trkpt>
      <trkpt lat="42.171112" lon="9.050808">
        <ele>1922.4</ele>
        <time>2022-09-12T12:52:42Z</time>
      </trkpt>
      <trkpt lat="42.171105" lon="9.050817">
        <ele>1922.4</ele>
        <time>2022-09-12T12:52:43Z</time>
      </trkpt>
      <trkpt lat="42.171035" lon="9.050885">
        <ele>1923.2</ele>
        <time>2022-09-12T12:52:57Z</time>
      </trkpt>
      <trkpt lat="42.170973" lon="9.050993">
        <ele>1925.4</ele>
        <time>2022-09-12T12:53:18Z</time>
      </trkpt>
      <trkpt lat="42.170905" lon="9.051068">
        <ele>1927.8</ele>
        <time>2022-09-12T12:53:34Z</time>
      </trkpt>
      <trkpt lat="42.170895" lon="9.051072">
        <ele>1928.0</ele>
        <time>2022-09-12T12:53:36Z</time>
      </trkpt>
      <trkpt lat="42.170848" lon="9.051057">
        <ele>1929.2</ele>
        <time>2022-09-12T12:53:44Z</time>
      </trkpt>
      <trkpt lat="42.170835" lon="9.051082">
        <ele>1929.8</ele>
        <time>2022-09-12T12:53:48Z</time>
      </trkpt>
      <trkpt lat="42.170835" lon="9.051122">
        <ele>1930.4</ele>
        <time>2022-09-12T12:53:53Z</time>
      </trkpt>
      <trkpt lat="42.17084" lon="9.051208">
        <ele>1929.4</ele>
        <time>2022-09-12T12:54:04Z</time>
      </trkpt>
      <trkpt lat="42.170833" lon="9.051245">
        <ele>1928.2</ele>
        <time>2022-09-12T12:54:09Z</time>
      </trkpt>
      <trkpt lat="42.170808" lon="9.051268">
        <ele>1927.4</ele>
        <time>2022-09-12T12:54:14Z</time>
      </trkpt>
      <trkpt lat="42.170765" lon="9.051285">
        <ele>1926.8</ele>
        <time>2022-09-12T12:54:22Z</time>
      </trkpt>
      <trkpt lat="42.170718" lon="9.051303">
        <ele>1927.6</ele>
        <time>2022-09-12T12:54:28Z</time>
      </trkpt>
      <trkpt lat="42.170552" lon="9.051392">
        <ele>1928.6</ele>
        <time>2022-09-12T12:54:50Z</time>
      </trkpt>
      <trkpt lat="42.170543" lon="9.051395">
        <ele>1928.6</ele>
        <time>2022-09-12T12:54:51Z</time>
      </trkpt>
      <trkpt lat="42.170493" lon="9.051422">
        <ele>1928.8</ele>
        <time>2022-09-12T12:54:58Z</time>
      </trkpt>
      <trkpt lat="42.170477" lon="9.051463">
        <ele>1929.0</ele>
        <time>2022-09-12T12:55:04Z</time>
      </trkpt>
      <trkpt lat="42.170452" lon="9.051537">
        <ele>1928.2</ele>
        <time>2022-09-12T12:55:15Z</time>
      </trkpt>
      <trkpt lat="42.17042" lon="9.051517">
        <ele>1927.8</ele>
        <time>2022-09-12T12:55:22Z</time>
      </trkpt>
      <trkpt lat="42.170385" lon="9.051493">
        <ele>1928.6</ele>
        <time>2022-09-12T12:55:30Z</time>
      </trkpt>
      <trkpt lat="42.170355" lon="9.051525">
        <ele>1929.4</ele>
        <time>2022-09-12T12:55:40Z</time>
      </trkpt>
      <trkpt lat="42.170352" lon="9.051528">
        <ele>1929.4</ele>
        <time>2022-09-12T12:55:42Z</time>
      </trkpt>
      <trkpt lat="42.170333" lon="9.051563">
        <ele>1930.2</ele>
        <time>2022-09-12T12:55:51Z</time>
      </trkpt>
      <trkpt lat="42.170277" lon="9.05163">
        <ele>1934.2</ele>
        <time>2022-09-12T12:56:21Z</time>
      </trkpt>
      <trkpt lat="42.17029" lon="9.051668">
        <ele>1934.4</ele>
        <time>2022-09-12T12:56:29Z</time>
      </trkpt>
      <trkpt lat="42.17031" lon="9.05169">
        <ele>1934.6</ele>
        <time>2022-09-12T12:56:54Z</time>
      </trkpt>
      <trkpt lat="42.170325" lon="9.051742">
        <ele>1934.0</ele>
        <time>2022-09-12T12:57:14Z</time>
      </trkpt>
      <trkpt lat="42.170328" lon="9.051755">
        <ele>1933.8</ele>
        <time>2022-09-12T12:57:18Z</time>
      </trkpt>
      <trkpt lat="42.170293" lon="9.051772">
        <ele>1934.8</ele>
        <time>2022-09-12T12:57:43Z</time>
      </trkpt>
      <trkpt lat="42.170287" lon="9.051765">
        <ele>1935.2</ele>
        <time>2022-09-12T12:57:44Z</time>
      </trkpt>
      <trkpt lat="42.170255" lon="9.051742">
        <ele>1935.8</ele>
        <time>2022-09-12T12:57:49Z</time>
      </trkpt>
      <trkpt lat="42.169835" lon="9.05141">
        <ele>1957.2</ele>
        <time>2022-09-12T13:01:12Z</time>
      </trkpt>
      <trkpt lat="42.169835" lon="9.051387">
        <ele>1957.4</ele>
        <time>2022-09-12T13:01:16Z</time>
      </trkpt>
      <trkpt lat="42.169867" lon="9.051397">
        <ele>1958.0</ele>
        <time>2022-09-12T13:01:27Z</time>
      </trkpt>
      <trkpt lat="42.16988" lon="9.051442">
        <ele>1958.8</ele>
        <time>2022-09-12T13:01:48Z</time>
      </trkpt>
      <trkpt lat="42.16988" lon="9.051477">
        <ele>1959.4</ele>
        <time>2022-09-12T13:01:57Z</time>
      </trkpt>
      <trkpt lat="42.169867" lon="9.051452">
        <ele>1961.4</ele>
        <time>2022-09-12T13:02:26Z</time>
      </trkpt>
      <trkpt lat="42.169918" lon="9.05142">
        <ele>1963.2</ele>
        <time>2022-09-12T13:03:06Z</time>
      </trkpt>
      <trkpt lat="42.169955" lon="9.05142">
        <ele>1964.0</ele>
        <time>2022-09-12T13:03:12Z</time>
      </trkpt>
      <trkpt lat="42.169993" lon="9.051462">
        <ele>1964.6</ele>
        <time>2022-09-12T13:03:16Z</time>
      </trkpt>
      <trkpt lat="42.170073" lon="9.051587">
        <ele>1965.4</ele>
        <time>2022-09-12T13:03:25Z</time>
      </trkpt>
      <trkpt lat="42.170107" lon="9.051565">
        <ele>1965.8</ele>
        <time>2022-09-12T13:03:29Z</time>
      </trkpt>
      <trkpt lat="42.170127" lon="9.051547">
        <ele>1965.8</ele>
        <time>2022-09-12T13:03:31Z</time>
      </trkpt>
      <trkpt lat="42.170143" lon="9.051472">
        <ele>1966.2</ele>
        <time>2022-09-12T13:03:36Z</time>
      </trkpt>
      <trkpt lat="42.1702" lon="9.051395">
        <ele>1967.0</ele>
        <time>2022-09-12T13:03:43Z</time>
      </trkpt>
      <trkpt lat="42.17021" lon="9.051388">
        <ele>1967.0</ele>
        <time>2022-09-12T13:03:44Z</time>
      </trkpt>
      <trkpt lat="42.17023" lon="9.051405">
        <ele>1967.0</ele>
        <time>2022-09-12T13:03:47Z</time>
      </trkpt>
      <trkpt lat="42.170245" lon="9.051428">
        <ele>1967.2</ele>
        <time>2022-09-12T13:03:49Z</time>
      </trkpt>
      <trkpt lat="42.170293" lon="9.051427">
        <ele>1968.2</ele>
        <time>2022-09-12T13:04:03Z</time>
      </trkpt>
      <trkpt lat="42.170297" lon="9.051428">
        <ele>1968.4</ele>
        <time>2022-09-12T13:04:04Z</time>
      </trkpt>
      <trkpt lat="42.17036" lon="9.051377">
        <ele>1968.4</ele>
        <time>2022-09-12T13:04:14Z</time>
      </trkpt>
      <trkpt lat="42.170383" lon="9.051347">
        <ele>1969.6</ele>
        <time>2022-09-12T13:04:17Z</time>
      </trkpt>
      <trkpt lat="42.170308" lon="9.051353">
        <ele>1970.0</ele>
        <time>2022-09-12T13:04:20Z</time>
      </trkpt>
      <trkpt lat="42.170237" lon="9.051362">
        <ele>1969.6</ele>
        <time>2022-09-12T13:04:23Z</time>
      </trkpt>
      <trkpt lat="42.170167" lon="9.05136">
        <ele>1969.6</ele>
        <time>2022-09-12T13:04:26Z</time>
      </trkpt>
      <trkpt lat="42.1698" lon="9.051347">
        <ele>1967.6</ele>
        <time>2022-09-12T13:04:49Z</time>
      </trkpt>
      <trkpt lat="42.169782" lon="9.05135">
        <ele>1967.6</ele>
        <time>2022-09-12T13:04:51Z</time>
      </trkpt>
      <trkpt lat="42.16986" lon="9.051375">
        <ele>1966.8</ele>
        <time>2022-09-12T13:05:04Z</time>
      </trkpt>
      <trkpt lat="42.16989" lon="9.05142">
        <ele>1965.0</ele>
        <time>2022-09-12T13:05:10Z</time>
      </trkpt>
      <trkpt lat="42.170002" lon="9.051465">
        <ele>1963.4</ele>
        <time>2022-09-12T13:05:23Z</time>
      </trkpt>
      <trkpt lat="42.170072" lon="9.051455">
        <ele>1962.0</ele>
        <time>2022-09-12T13:05:30Z</time>
      </trkpt>
      <trkpt lat="42.170157" lon="9.05146">
        <ele>1961.8</ele>
        <time>2022-09-12T13:05:39Z</time>
      </trkpt>
      <trkpt lat="42.170145" lon="9.05147">
        <ele>1961.4</ele>
        <time>2022-09-12T13:05:40Z</time>
      </trkpt>
      <trkpt lat="42.170072" lon="9.051535">
        <ele>1960.6</ele>
        <time>2022-09-12T13:05:46Z</time>
      </trkpt>
      <trkpt lat="42.17001" lon="9.05156">
        <ele>1959.8</ele>
        <time>2022-09-12T13:05:50Z</time>
      </trkpt>
      <trkpt lat="42.169915" lon="9.051597">
        <ele>1959.2</ele>
        <time>2022-09-12T13:05:56Z</time>
      </trkpt>
      <trkpt lat="42.169835" lon="9.051655">
        <ele>1958.0</ele>
        <time>2022-09-12T13:06:02Z</time>
      </trkpt>
      <trkpt lat="42.169727" lon="9.051717">
        <ele>1957.6</ele>
        <time>2022-09-12T13:06:12Z</time>
      </trkpt>
      <trkpt lat="42.169505" lon="9.051727">
        <ele>1958.0</ele>
        <time>2022-09-12T13:06:38Z</time>
      </trkpt>
      <trkpt lat="42.16942" lon="9.051785">
        <ele>1957.8</ele>
        <time>2022-09-12T13:06:49Z</time>
      </trkpt>
      <trkpt lat="42.169413" lon="9.051792">
        <ele>1957.8</ele>
        <time>2022-09-12T13:06:50Z</time>
      </trkpt>
      <trkpt lat="42.169392" lon="9.051833">
        <ele>1958.0</ele>
        <time>2022-09-12T13:06:58Z</time>
      </trkpt>
      <trkpt lat="42.169362" lon="9.051912">
        <ele>1958.0</ele>
        <time>2022-09-12T13:07:06Z</time>
      </trkpt>
      <trkpt lat="42.16932" lon="9.05201">
        <ele>1957.8</ele>
        <time>2022-09-12T13:07:15Z</time>
      </trkpt>
      <trkpt lat="42.169285" lon="9.05209">
        <ele>1957.8</ele>
        <time>2022-09-12T13:07:22Z</time>
      </trkpt>
      <trkpt lat="42.169258" lon="9.052132">
        <ele>1957.6</ele>
        <time>2022-09-12T13:07:27Z</time>
      </trkpt>
      <trkpt lat="42.169222" lon="9.052217">
        <ele>1956.0</ele>
        <time>2022-09-12T13:07:38Z</time>
      </trkpt>
      <trkpt lat="42.169195" lon="9.052293">
        <ele>1955.4</ele>
        <time>2022-09-12T13:07:46Z</time>
      </trkpt>
      <trkpt lat="42.169158" lon="9.052355">
        <ele>1954.8</ele>
        <time>2022-09-12T13:07:54Z</time>
      </trkpt>
      <trkpt lat="42.169143" lon="9.052392">
        <ele>1954.2</ele>
        <time>2022-09-12T13:07:59Z</time>
      </trkpt>
      <trkpt lat="42.169132" lon="9.052452">
        <ele>1953.4</ele>
        <time>2022-09-12T13:08:06Z</time>
      </trkpt>
      <trkpt lat="42.16909" lon="9.052493">
        <ele>1953.6</ele>
        <time>2022-09-12T13:08:13Z</time>
      </trkpt>
      <trkpt lat="42.169005" lon="9.052575">
        <ele>1952.2</ele>
        <time>2022-09-12T13:08:29Z</time>
      </trkpt>
      <trkpt lat="42.16896" lon="9.052663">
        <ele>1951.8</ele>
        <time>2022-09-12T13:08:44Z</time>
      </trkpt>
      <trkpt lat="42.168927" lon="9.052737">
        <ele>1950.8</ele>
        <time>2022-09-12T13:09:09Z</time>
      </trkpt>
      <trkpt lat="42.168923" lon="9.052745">
        <ele>1950.4</ele>
        <time>2022-09-12T13:09:13Z</time>
      </trkpt>
      <trkpt lat="42.168877" lon="9.052922">
        <ele>1950.4</ele>
        <time>2022-09-12T13:09:28Z</time>
      </trkpt>
      <trkpt lat="42.16885" lon="9.053043">
        <ele>1950.4</ele>
        <time>2022-09-12T13:09:32Z</time>
      </trkpt>
      <trkpt lat="42.168788" lon="9.053252">
        <ele>1950.6</ele>
        <time>2022-09-12T13:09:39Z</time>
      </trkpt>
      <trkpt lat="42.168742" lon="9.053358">
        <ele>1950.6</ele>
        <time>2022-09-12T13:09:44Z</time>
      </trkpt>
      <trkpt lat="42.168527" lon="9.053403">
        <ele>1950.4</ele>
        <time>2022-09-12T13:10:02Z</time>
      </trkpt>
      <trkpt lat="42.16853" lon="9.053415">
        <ele>1950.4</ele>
        <time>2022-09-12T13:10:03Z</time>
      </trkpt>
      <trkpt lat="42.168573" lon="9.053595">
        <ele>1950.6</ele>
        <time>2022-09-12T13:10:18Z</time>
      </trkpt>
      <trkpt lat="42.1686" lon="9.05369">
        <ele>1950.8</ele>
        <time>2022-09-12T13:10:27Z</time>
      </trkpt>
      <trkpt lat="42.16864" lon="9.053792">
        <ele>1951.2</ele>
        <time>2022-09-12T13:10:36Z</time>
      </trkpt>
      <trkpt lat="42.168677" lon="9.053898">
        <ele>1951.8</ele>
        <time>2022-09-12T13:10:46Z</time>
      </trkpt>
      <trkpt lat="42.168683" lon="9.053917">
        <ele>1951.8</ele>
        <time>2022-09-12T13:10:50Z</time>
      </trkpt>
      <trkpt lat="42.168653" lon="9.053672">
        <ele>1952.4</ele>
        <time>2022-09-12T13:11:04Z</time>
      </trkpt>
      <trkpt lat="42.168548" lon="9.053683">
        <ele>1951.8</ele>
        <time>2022-09-12T13:11:12Z</time>
      </trkpt>
      <trkpt lat="42.168535" lon="9.053665">
        <ele>1951.8</ele>
        <time>2022-09-12T13:11:14Z</time>
      </trkpt>
      <trkpt lat="42.16824" lon="9.053622">
        <ele>1951.8</ele>
        <time>2022-09-12T13:11:14Z</time>
      </trkpt>
      <trkpt lat="42.168307" lon="9.05403">
        <ele>1934.8</ele>
        <time>2022-09-12T14:04:39Z</time>
      </trkpt>
      <trkpt lat="42.168197" lon="9.054805">
        <ele>1936.6</ele>
        <time>2022-09-12T14:05:09Z</time>
      </trkpt>
      <trkpt lat="42.168343" lon="9.055095">
        <ele>1937.2</ele>
        <time>2022-09-12T14:05:21Z</time>
      </trkpt>
      <trkpt lat="42.168187" lon="9.055263">
        <ele>1937.8</ele>
        <time>2022-09-12T14:05:32Z</time>
      </trkpt>
      <trkpt lat="42.168158" lon="9.055358">
        <ele>1938.0</ele>
        <time>2022-09-12T14:05:34Z</time>
      </trkpt>
      <trkpt lat="42.168183" lon="9.055525">
        <ele>1938.4</ele>
        <time>2022-09-12T14:05:52Z</time>
      </trkpt>
      <trkpt lat="42.168217" lon="9.055542">
        <ele>1936.8</ele>
        <time>2022-09-12T14:06:08Z</time>
      </trkpt>
      <trkpt lat="42.16824" lon="9.055575">
        <ele>1935.2</ele>
        <time>2022-09-12T14:06:18Z</time>
      </trkpt>
      <trkpt lat="42.1683" lon="9.055658">
        <ele>1934.8</ele>
        <time>2022-09-12T14:06:32Z</time>
      </trkpt>
      <trkpt lat="42.168323" lon="9.055855">
        <ele>1933.0</ele>
        <time>2022-09-12T14:06:45Z</time>
      </trkpt>
      <trkpt lat="42.168347" lon="9.056073">
        <ele>1930.6</ele>
        <time>2022-09-12T14:07:01Z</time>
      </trkpt>
      <trkpt lat="42.168352" lon="9.056233">
        <ele>1929.8</ele>
        <time>2022-09-12T14:07:11Z</time>
      </trkpt>
      <trkpt lat="42.168343" lon="9.056405">
        <ele>1929.0</ele>
        <time>2022-09-12T14:07:22Z</time>
      </trkpt>
      <trkpt lat="42.168378" lon="9.05653">
        <ele>1928.4</ele>
        <time>2022-09-12T14:07:33Z</time>
      </trkpt>
      <trkpt lat="42.168388" lon="9.056638">
        <ele>1928.4</ele>
        <time>2022-09-12T14:07:41Z</time>
      </trkpt>
      <trkpt lat="42.168412" lon="9.056855">
        <ele>1927.2</ele>
        <time>2022-09-12T14:08:04Z</time>
      </trkpt>
      <trkpt lat="42.16842" lon="9.056957">
        <ele>1927.4</ele>
        <time>2022-09-12T14:08:09Z</time>
      </trkpt>
      <trkpt lat="42.168435" lon="9.05703">
        <ele>1927.4</ele>
        <time>2022-09-12T14:08:13Z</time>
      </trkpt>
      <trkpt lat="42.16848" lon="9.05712">
        <ele>1927.4</ele>
        <time>2022-09-12T14:08:20Z</time>
      </trkpt>
      <trkpt lat="42.168482" lon="9.05714">
        <ele>1927.4</ele>
        <time>2022-09-12T14:08:21Z</time>
      </trkpt>
      <trkpt lat="42.168485" lon="9.057168">
        <ele>1928.2</ele>
        <time>2022-09-12T14:08:37Z</time>
      </trkpt>
      <trkpt lat="42.168537" lon="9.057208">
        <ele>1929.6</ele>
        <time>2022-09-12T14:08:58Z</time>
      </trkpt>
      <trkpt lat="42.168565" lon="9.05724">
        <ele>1930.8</ele>
        <time>2022-09-12T14:09:07Z</time>
      </trkpt>
      <trkpt lat="42.168628" lon="9.057325">
        <ele>1931.0</ele>
        <time>2022-09-12T14:09:18Z</time>
      </trkpt>
      <trkpt lat="42.168623" lon="9.057337">
        <ele>1931.0</ele>
        <time>2022-09-12T14:09:19Z</time>
      </trkpt>
      <trkpt lat="42.168585" lon="9.057445">
        <ele>1931.6</ele>
        <time>2022-09-12T14:09:29Z</time>
      </trkpt>
      <trkpt lat="42.168485" lon="9.057592">
        <ele>1932.4</ele>
        <time>2022-09-12T14:09:40Z</time>
      </trkpt>
      <trkpt lat="42.168437" lon="9.057775">
        <ele>1933.8</ele>
        <time>2022-09-12T14:09:51Z</time>
      </trkpt>
      <trkpt lat="42.168403" lon="9.057828">
        <ele>1934.2</ele>
        <time>2022-09-12T14:09:55Z</time>
      </trkpt>
      <trkpt lat="42.168413" lon="9.05791">
        <ele>1934.2</ele>
        <time>2022-09-12T14:10:00Z</time>
      </trkpt>
      <trkpt lat="42.168557" lon="9.058068">
        <ele>1932.0</ele>
        <time>2022-09-12T14:10:22Z</time>
      </trkpt>
      <trkpt lat="42.168662" lon="9.05822">
        <ele>1931.6</ele>
        <time>2022-09-12T14:10:36Z</time>
      </trkpt>
      <trkpt lat="42.16869" lon="9.058343">
        <ele>1932.2</ele>
        <time>2022-09-12T14:10:46Z</time>
      </trkpt>
      <trkpt lat="42.168672" lon="9.058465">
        <ele>1932.0</ele>
        <time>2022-09-12T14:10:54Z</time>
      </trkpt>
      <trkpt lat="42.168648" lon="9.058585">
        <ele>1931.4</ele>
        <time>2022-09-12T14:11:04Z</time>
      </trkpt>
      <trkpt lat="42.168623" lon="9.05867">
        <ele>1932.0</ele>
        <time>2022-09-12T14:11:14Z</time>
      </trkpt>
      <trkpt lat="42.168603" lon="9.058763">
        <ele>1932.0</ele>
        <time>2022-09-12T14:11:22Z</time>
      </trkpt>
      <trkpt lat="42.168535" lon="9.05878">
        <ele>1932.0</ele>
        <time>2022-09-12T14:11:28Z</time>
      </trkpt>
      <trkpt lat="42.168532" lon="9.05886">
        <ele>1931.0</ele>
        <time>2022-09-12T14:11:36Z</time>
      </trkpt>
      <trkpt lat="42.168525" lon="9.058895">
        <ele>1930.6</ele>
        <time>2022-09-12T14:11:40Z</time>
      </trkpt>
      <trkpt lat="42.16853" lon="9.058948">
        <ele>1930.0</ele>
        <time>2022-09-12T14:11:45Z</time>
      </trkpt>
      <trkpt lat="42.16856" lon="9.059007">
        <ele>1929.2</ele>
        <time>2022-09-12T14:11:50Z</time>
      </trkpt>
      <trkpt lat="42.168572" lon="9.05903">
        <ele>1928.8</ele>
        <time>2022-09-12T14:11:52Z</time>
      </trkpt>
      <trkpt lat="42.168555" lon="9.059043">
        <ele>1928.4</ele>
        <time>2022-09-12T14:11:54Z</time>
      </trkpt>
      <trkpt lat="42.168497" lon="9.059073">
        <ele>1928.4</ele>
        <time>2022-09-12T14:12:00Z</time>
      </trkpt>
      <trkpt lat="42.168475" lon="9.059113">
        <ele>1927.8</ele>
        <time>2022-09-12T14:12:05Z</time>
      </trkpt>
      <trkpt lat="42.168463" lon="9.059162">
        <ele>1926.4</ele>
        <time>2022-09-12T14:12:09Z</time>
      </trkpt>
      <trkpt lat="42.168458" lon="9.0592">
        <ele>1925.6</ele>
        <time>2022-09-12T14:12:12Z</time>
      </trkpt>
      <trkpt lat="42.168453" lon="9.059372">
        <ele>1924.8</ele>
        <time>2022-09-12T14:12:22Z</time>
      </trkpt>
      <trkpt lat="42.168433" lon="9.059477">
        <ele>1924.4</ele>
        <time>2022-09-12T14:12:28Z</time>
      </trkpt>
      <trkpt lat="42.168363" lon="9.059823">
        <ele>1921.4</ele>
        <time>2022-09-12T14:12:52Z</time>
      </trkpt>
      <trkpt lat="42.168347" lon="9.059882">
        <ele>1921.0</ele>
        <time>2022-09-12T14:12:56Z</time>
      </trkpt>
      <trkpt lat="42.168342" lon="9.059898">
        <ele>1921.0</ele>
        <time>2022-09-12T14:12:57Z</time>
      </trkpt>
      <trkpt lat="42.168275" lon="9.059955">
        <ele>1920.2</ele>
        <time>2022-09-12T14:13:03Z</time>
      </trkpt>
      <trkpt lat="42.168187" lon="9.059985">
        <ele>1919.6</ele>
        <time>2022-09-12T14:13:11Z</time>
      </trkpt>
      <trkpt lat="42.168102" lon="9.060057">
        <ele>1918.4</ele>
        <time>2022-09-12T14:13:22Z</time>
      </trkpt>
      <trkpt lat="42.168057" lon="9.060063">
        <ele>1917.6</ele>
        <time>2022-09-12T14:13:27Z</time>
      </trkpt>
      <trkpt lat="42.168025" lon="9.06007">
        <ele>1917.0</ele>
        <time>2022-09-12T14:13:30Z</time>
      </trkpt>
      <trkpt lat="42.167855" lon="9.060267">
        <ele>1913.6</ele>
        <time>2022-09-12T14:13:54Z</time>
      </trkpt>
      <trkpt lat="42.167718" lon="9.060512">
        <ele>1912.8</ele>
        <time>2022-09-12T14:14:14Z</time>
      </trkpt>
      <trkpt lat="42.167672" lon="9.060633">
        <ele>1912.6</ele>
        <time>2022-09-12T14:14:26Z</time>
      </trkpt>
      <trkpt lat="42.167568" lon="9.060773">
        <ele>1912.8</ele>
        <time>2022-09-12T14:14:40Z</time>
      </trkpt>
      <trkpt lat="42.1675" lon="9.06086">
        <ele>1913.2</ele>
        <time>2022-09-12T14:14:50Z</time>
      </trkpt>
      <trkpt lat="42.167495" lon="9.060867">
        <ele>1913.2</ele>
        <time>2022-09-12T14:14:50Z</time>
      </trkpt>
      <trkpt lat="42.167367" lon="9.06096">
        <ele>1912.0</ele>
        <time>2022-09-12T14:15:04Z</time>
      </trkpt>
      <trkpt lat="42.167273" lon="9.061082">
        <ele>1909.8</ele>
        <time>2022-09-12T14:15:18Z</time>
      </trkpt>
      <trkpt lat="42.167188" lon="9.061152">
        <ele>1909.4</ele>
        <time>2022-09-12T14:15:25Z</time>
      </trkpt>
      <trkpt lat="42.167128" lon="9.0613">
        <ele>1907.8</ele>
        <time>2022-09-12T14:15:33Z</time>
      </trkpt>
      <trkpt lat="42.167123" lon="9.061317">
        <ele>1907.8</ele>
        <time>2022-09-12T14:15:33Z</time>
      </trkpt>
      <trkpt lat="42.167192" lon="9.061408">
        <ele>1907.0</ele>
        <time>2022-09-12T14:15:42Z</time>
      </trkpt>
      <trkpt lat="42.167232" lon="9.061498">
        <ele>1905.4</ele>
        <time>2022-09-12T14:15:53Z</time>
      </trkpt>
      <trkpt lat="42.167285" lon="9.061553">
        <ele>1904.2</ele>
        <time>2022-09-12T14:16:00Z</time>
      </trkpt>
      <trkpt lat="42.167313" lon="9.061588">
        <ele>1903.2</ele>
        <time>2022-09-12T14:16:04Z</time>
      </trkpt>
      <trkpt lat="42.167363" lon="9.061685">
        <ele>1902.2</ele>
        <time>2022-09-12T14:16:13Z</time>
      </trkpt>
      <trkpt lat="42.16739" lon="9.06176">
        <ele>1901.4</ele>
        <time>2022-09-12T14:16:18Z</time>
      </trkpt>
      <trkpt lat="42.167407" lon="9.061787">
        <ele>1901.2</ele>
        <time>2022-09-12T14:16:21Z</time>
      </trkpt>
      <trkpt lat="42.167335" lon="9.061872">
        <ele>1900.6</ele>
        <time>2022-09-12T14:16:28Z</time>
      </trkpt>
      <trkpt lat="42.167283" lon="9.06191">
        <ele>1900.0</ele>
        <time>2022-09-12T14:16:34Z</time>
      </trkpt>
      <trkpt lat="42.167237" lon="9.062025">
        <ele>1898.6</ele>
        <time>2022-09-12T14:16:43Z</time>
      </trkpt>
      <trkpt lat="42.167127" lon="9.062262">
        <ele>1895.2</ele>
        <time>2022-09-12T14:17:04Z</time>
      </trkpt>
      <trkpt lat="42.167122" lon="9.06225">
        <ele>1894.8</ele>
        <time>2022-09-12T14:17:06Z</time>
      </trkpt>
      <trkpt lat="42.167085" lon="9.062257">
        <ele>1894.6</ele>
        <time>2022-09-12T14:17:11Z</time>
      </trkpt>
      <trkpt lat="42.167082" lon="9.062367">
        <ele>1893.6</ele>
        <time>2022-09-12T14:17:18Z</time>
      </trkpt>
      <trkpt lat="42.167082" lon="9.062503">
        <ele>1891.6</ele>
        <time>2022-09-12T14:17:26Z</time>
      </trkpt>
      <trkpt lat="42.167078" lon="9.062618">
        <ele>1890.8</ele>
        <time>2022-09-12T14:17:32Z</time>
      </trkpt>
      <trkpt lat="42.167073" lon="9.06274">
        <ele>1889.6</ele>
        <time>2022-09-12T14:17:39Z</time>
      </trkpt>
      <trkpt lat="42.16707" lon="9.062872">
        <ele>1889.2</ele>
        <time>2022-09-12T14:17:46Z</time>
      </trkpt>
      <trkpt lat="42.167062" lon="9.062912">
        <ele>1888.6</ele>
        <time>2022-09-12T14:17:50Z</time>
      </trkpt>
      <trkpt lat="42.167045" lon="9.062953">
        <ele>1887.8</ele>
        <time>2022-09-12T14:17:55Z</time>
      </trkpt>
      <trkpt lat="42.167042" lon="9.063032">
        <ele>1886.6</ele>
        <time>2022-09-12T14:18:03Z</time>
      </trkpt>
      <trkpt lat="42.167023" lon="9.063137">
        <ele>1885.4</ele>
        <time>2022-09-12T14:18:14Z</time>
      </trkpt>
      <trkpt lat="42.167037" lon="9.063268">
        <ele>1882.4</ele>
        <time>2022-09-12T14:18:26Z</time>
      </trkpt>
      <trkpt lat="42.167042" lon="9.063323">
        <ele>1881.2</ele>
        <time>2022-09-12T14:18:31Z</time>
      </trkpt>
      <trkpt lat="42.167027" lon="9.063398">
        <ele>1880.4</ele>
        <time>2022-09-12T14:18:38Z</time>
      </trkpt>
      <trkpt lat="42.166992" lon="9.063467">
        <ele>1880.0</ele>
        <time>2022-09-12T14:18:45Z</time>
      </trkpt>
      <trkpt lat="42.166948" lon="9.063537">
        <ele>1879.8</ele>
        <time>2022-09-12T14:18:55Z</time>
      </trkpt>
      <trkpt lat="42.166935" lon="9.063608">
        <ele>1878.4</ele>
        <time>2022-09-12T14:19:03Z</time>
      </trkpt>
      <trkpt lat="42.166918" lon="9.063772">
        <ele>1875.8</ele>
        <time>2022-09-12T14:19:15Z</time>
      </trkpt>
      <trkpt lat="42.16691" lon="9.063858">
        <ele>1874.8</ele>
        <time>2022-09-12T14:19:21Z</time>
      </trkpt>
      <trkpt lat="42.166908" lon="9.063938">
        <ele>1873.2</ele>
        <time>2022-09-12T14:19:28Z</time>
      </trkpt>
      <trkpt lat="42.166895" lon="9.06402">
        <ele>1871.8</ele>
        <time>2022-09-12T14:19:39Z</time>
      </trkpt>
      <trkpt lat="42.166863" lon="9.064138">
        <ele>1869.2</ele>
        <time>2022-09-12T14:19:52Z</time>
      </trkpt>
      <trkpt lat="42.166808" lon="9.064162">
        <ele>1868.4</ele>
        <time>2022-09-12T14:19:59Z</time>
      </trkpt>
      <trkpt lat="42.166765" lon="9.064195">
        <ele>1866.8</ele>
        <time>2022-09-12T14:20:05Z</time>
      </trkpt>
      <trkpt lat="42.166707" lon="9.064178">
        <ele>1865.6</ele>
        <time>2022-09-12T14:20:12Z</time>
      </trkpt>
      <trkpt lat="42.166622" lon="9.064142">
        <ele>1862.4</ele>
        <time>2022-09-12T14:20:24Z</time>
      </trkpt>
      <trkpt lat="42.166618" lon="9.064147">
        <ele>1862.0</ele>
        <time>2022-09-12T14:20:25Z</time>
      </trkpt>
      <trkpt lat="42.166607" lon="9.064173">
        <ele>1861.4</ele>
        <time>2022-09-12T14:20:29Z</time>
      </trkpt>
      <trkpt lat="42.166628" lon="9.064215">
        <ele>1860.8</ele>
        <time>2022-09-12T14:20:33Z</time>
      </trkpt>
      <trkpt lat="42.166688" lon="9.06431">
        <ele>1858.6</ele>
        <time>2022-09-12T14:20:43Z</time>
      </trkpt>
      <trkpt lat="42.16672" lon="9.064345">
        <ele>1857.2</ele>
        <time>2022-09-12T14:20:48Z</time>
      </trkpt>
      <trkpt lat="42.166753" lon="9.064375">
        <ele>1856.2</ele>
        <time>2022-09-12T14:20:53Z</time>
      </trkpt>
      <trkpt lat="42.166775" lon="9.064458">
        <ele>1855.6</ele>
        <time>2022-09-12T14:21:02Z</time>
      </trkpt>
      <trkpt lat="42.16677" lon="9.064465">
        <ele>1855.2</ele>
        <time>2022-09-12T14:21:03Z</time>
      </trkpt>
      <trkpt lat="42.166688" lon="9.064588">
        <ele>1850.8</ele>
        <time>2022-09-12T14:21:18Z</time>
      </trkpt>
      <trkpt lat="42.166638" lon="9.064647">
        <ele>1848.4</ele>
        <time>2022-09-12T14:21:28Z</time>
      </trkpt>
      <trkpt lat="42.166545" lon="9.064668">
        <ele>1845.8</ele>
        <time>2022-09-12T14:21:42Z</time>
      </trkpt>
      <trkpt lat="42.166447" lon="9.06485">
        <ele>1844.0</ele>
        <time>2022-09-12T14:22:02Z</time>
      </trkpt>
      <trkpt lat="42.166442" lon="9.064868">
        <ele>1843.8</ele>
        <time>2022-09-12T14:22:03Z</time>
      </trkpt>
      <trkpt lat="42.166398" lon="9.064952">
        <ele>1843.6</ele>
        <time>2022-09-12T14:22:08Z</time>
      </trkpt>
      <trkpt lat="42.166337" lon="9.064972">
        <ele>1843.4</ele>
        <time>2022-09-12T14:22:13Z</time>
      </trkpt>
      <trkpt lat="42.166212" lon="9.064985">
        <ele>1842.8</ele>
        <time>2022-09-12T14:22:21Z</time>
      </trkpt>
      <trkpt lat="42.166055" lon="9.065123">
        <ele>1841.8</ele>
        <time>2022-09-12T14:22:32Z</time>
      </trkpt>
      <trkpt lat="42.166048" lon="9.06513">
        <ele>1841.8</ele>
        <time>2022-09-12T14:22:32Z</time>
      </trkpt>
      <trkpt lat="42.166022" lon="9.065153">
        <ele>1841.2</ele>
        <time>2022-09-12T14:22:36Z</time>
      </trkpt>
      <trkpt lat="42.165978" lon="9.065173">
        <ele>1841.0</ele>
        <time>2022-09-12T14:22:43Z</time>
      </trkpt>
      <trkpt lat="42.165933" lon="9.065243">
        <ele>1837.8</ele>
        <time>2022-09-12T14:22:52Z</time>
      </trkpt>
      <trkpt lat="42.165877" lon="9.06532">
        <ele>1834.0</ele>
        <time>2022-09-12T14:23:03Z</time>
      </trkpt>
      <trkpt lat="42.165837" lon="9.065367">
        <ele>1832.0</ele>
        <time>2022-09-12T14:23:11Z</time>
      </trkpt>
      <trkpt lat="42.165788" lon="9.065407">
        <ele>1830.0</ele>
        <time>2022-09-12T14:23:20Z</time>
      </trkpt>
      <trkpt lat="42.165743" lon="9.065522">
        <ele>1826.0</ele>
        <time>2022-09-12T14:23:37Z</time>
      </trkpt>
      <trkpt lat="42.165732" lon="9.06552">
        <ele>1826.0</ele>
        <time>2022-09-12T14:23:38Z</time>
      </trkpt>
      <trkpt lat="42.16566" lon="9.065525">
        <ele>1824.4</ele>
        <time>2022-09-12T14:23:46Z</time>
      </trkpt>
      <trkpt lat="42.165613" lon="9.065513">
        <ele>1823.4</ele>
        <time>2022-09-12T14:23:52Z</time>
      </trkpt>
      <trkpt lat="42.165547" lon="9.065475">
        <ele>1821.6</ele>
        <time>2022-09-12T14:24:01Z</time>
      </trkpt>
      <trkpt lat="42.16546" lon="9.065467">
        <ele>1818.4</ele>
        <time>2022-09-12T14:24:12Z</time>
      </trkpt>
      <trkpt lat="42.165267" lon="9.065427">
        <ele>1814.0</ele>
        <time>2022-09-12T14:24:34Z</time>
      </trkpt>
      <trkpt lat="42.16508" lon="9.065327">
        <ele>1808.6</ele>
        <time>2022-09-12T14:24:53Z</time>
      </trkpt>
      <trkpt lat="42.165073" lon="9.06533">
        <ele>1808.6</ele>
        <time>2022-09-12T14:24:54Z</time>
      </trkpt>
      <trkpt lat="42.165032" lon="9.065362">
        <ele>1807.2</ele>
        <time>2022-09-12T14:25:02Z</time>
      </trkpt>
      <trkpt lat="42.165028" lon="9.065398">
        <ele>1804.8</ele>
        <time>2022-09-12T14:25:39Z</time>
      </trkpt>
      <trkpt lat="42.165013" lon="9.065422">
        <ele>1803.0</ele>
        <time>2022-09-12T14:25:46Z</time>
      </trkpt>
      <trkpt lat="42.164975" lon="9.06538">
        <ele>1800.2</ele>
        <time>2022-09-12T14:25:57Z</time>
      </trkpt>
      <trkpt lat="42.164957" lon="9.06538">
        <ele>1800.2</ele>
        <time>2022-09-12T14:26:00Z</time>
      </trkpt>
      <trkpt lat="42.164912" lon="9.065392">
        <ele>1799.6</ele>
        <time>2022-09-12T14:26:07Z</time>
      </trkpt>
      <trkpt lat="42.164867" lon="9.065392">
        <ele>1798.0</ele>
        <time>2022-09-12T14:26:14Z</time>
      </trkpt>
      <trkpt lat="42.16483" lon="9.065417">
        <ele>1797.2</ele>
        <time>2022-09-12T14:26:19Z</time>
      </trkpt>
      <trkpt lat="42.164795" lon="9.06545">
        <ele>1795.4</ele>
        <time>2022-09-12T14:26:24Z</time>
      </trkpt>
      <trkpt lat="42.164738" lon="9.065432">
        <ele>1793.2</ele>
        <time>2022-09-12T14:26:32Z</time>
      </trkpt>
      <trkpt lat="42.164692" lon="9.065412">
        <ele>1791.4</ele>
        <time>2022-09-12T14:26:41Z</time>
      </trkpt>
      <trkpt lat="42.164673" lon="9.065407">
        <ele>1789.4</ele>
        <time>2022-09-12T14:26:47Z</time>
      </trkpt>
      <trkpt lat="42.164642" lon="9.06549">
        <ele>1785.6</ele>
        <time>2022-09-12T14:27:02Z</time>
      </trkpt>
      <trkpt lat="42.164633" lon="9.065488">
        <ele>1785.6</ele>
        <time>2022-09-12T14:27:02Z</time>
      </trkpt>
      <trkpt lat="42.164605" lon="9.065437">
        <ele>1785.0</ele>
        <time>2022-09-12T14:27:07Z</time>
      </trkpt>
      <trkpt lat="42.16458" lon="9.065398">
        <ele>1784.4</ele>
        <time>2022-09-12T14:27:11Z</time>
      </trkpt>
      <trkpt lat="42.164485" lon="9.06541">
        <ele>1782.2</ele>
        <time>2022-09-12T14:27:23Z</time>
      </trkpt>
      <trkpt lat="42.16442" lon="9.065332">
        <ele>1781.6</ele>
        <time>2022-09-12T14:27:30Z</time>
      </trkpt>
      <trkpt lat="42.164367" lon="9.065282">
        <ele>1780.2</ele>
        <time>2022-09-12T14:27:34Z</time>
      </trkpt>
      <trkpt lat="42.164295" lon="9.065173">
        <ele>1778.6</ele>
        <time>2022-09-12T14:27:40Z</time>
      </trkpt>
      <trkpt lat="42.164178" lon="9.065095">
        <ele>1777.6</ele>
        <time>2022-09-12T14:27:48Z</time>
      </trkpt>
      <trkpt lat="42.164168" lon="9.065078">
        <ele>1777.6</ele>
        <time>2022-09-12T14:27:49Z</time>
      </trkpt>
      <trkpt lat="42.16417" lon="9.065175">
        <ele>1776.0</ele>
        <time>2022-09-12T14:27:57Z</time>
      </trkpt>
      <trkpt lat="42.164208" lon="9.065378">
        <ele>1772.8</ele>
        <time>2022-09-12T14:28:11Z</time>
      </trkpt>
      <trkpt lat="42.164312" lon="9.065642">
        <ele>1768.0</ele>
        <time>2022-09-12T14:28:31Z</time>
      </trkpt>
      <trkpt lat="42.164307" lon="9.065687">
        <ele>1767.2</ele>
        <time>2022-09-12T14:28:35Z</time>
      </trkpt>
      <trkpt lat="42.164202" lon="9.065625">
        <ele>1764.4</ele>
        <time>2022-09-12T14:28:46Z</time>
      </trkpt>
      <trkpt lat="42.164142" lon="9.065573">
        <ele>1763.6</ele>
        <time>2022-09-12T14:28:51Z</time>
      </trkpt>
      <trkpt lat="42.16403" lon="9.065518">
        <ele>1762.4</ele>
        <time>2022-09-12T14:28:59Z</time>
      </trkpt>
      <trkpt lat="42.163938" lon="9.065503">
        <ele>1760.6</ele>
        <time>2022-09-12T14:29:05Z</time>
      </trkpt>
      <trkpt lat="42.163888" lon="9.065458">
        <ele>1760.0</ele>
        <time>2022-09-12T14:29:09Z</time>
      </trkpt>
      <trkpt lat="42.163823" lon="9.065377">
        <ele>1758.4</ele>
        <time>2022-09-12T14:29:16Z</time>
      </trkpt>
      <trkpt lat="42.163748" lon="9.065282">
        <ele>1756.4</ele>
        <time>2022-09-12T14:29:23Z</time>
      </trkpt>
      <trkpt lat="42.163663" lon="9.065323">
        <ele>1755.4</ele>
        <time>2022-09-12T14:29:30Z</time>
      </trkpt>
      <trkpt lat="42.163653" lon="9.065365">
        <ele>1755.0</ele>
        <time>2022-09-12T14:29:32Z</time>
      </trkpt>
      <trkpt lat="42.16368" lon="9.065505">
        <ele>1753.4</ele>
        <time>2022-09-12T14:29:38Z</time>
      </trkpt>
      <trkpt lat="42.163672" lon="9.065552">
        <ele>1753.0</ele>
        <time>2022-09-12T14:29:41Z</time>
      </trkpt>
      <trkpt lat="42.163587" lon="9.065658">
        <ele>1752.2</ele>
        <time>2022-09-12T14:29:48Z</time>
      </trkpt>
      <trkpt lat="42.163563" lon="9.065797">
        <ele>1750.6</ele>
        <time>2022-09-12T14:29:54Z</time>
      </trkpt>
      <trkpt lat="42.163505" lon="9.065877">
        <ele>1749.0</ele>
        <time>2022-09-12T14:29:59Z</time>
      </trkpt>
      <trkpt lat="42.163338" lon="9.066037">
        <ele>1747.0</ele>
        <time>2022-09-12T14:30:13Z</time>
      </trkpt>
      <trkpt lat="42.163327" lon="9.066043">
        <ele>1745.6</ele>
        <time>2022-09-12T14:30:15Z</time>
      </trkpt>
      <trkpt lat="42.16326" lon="9.065793">
        <ele>1743.4</ele>
        <time>2022-09-12T14:30:26Z</time>
      </trkpt>
      <trkpt lat="42.163138" lon="9.0657">
        <ele>1740.0</ele>
        <time>2022-09-12T14:30:36Z</time>
      </trkpt>
      <trkpt lat="42.163033" lon="9.06556">
        <ele>1739.0</ele>
        <time>2022-09-12T14:30:44Z</time>
      </trkpt>
      <trkpt lat="42.162985" lon="9.065485">
        <ele>1737.4</ele>
        <time>2022-09-12T14:30:48Z</time>
      </trkpt>
      <trkpt lat="42.162962" lon="9.065407">
        <ele>1735.8</ele>
        <time>2022-09-12T14:30:53Z</time>
      </trkpt>
      <trkpt lat="42.16292" lon="9.065112">
        <ele>1734.4</ele>
        <time>2022-09-12T14:31:04Z</time>
      </trkpt>
      <trkpt lat="42.162913" lon="9.065107">
        <ele>1734.4</ele>
        <time>2022-09-12T14:31:04Z</time>
      </trkpt>
      <trkpt lat="42.162898" lon="9.065102">
        <ele>1734.4</ele>
        <time>2022-09-12T14:31:06Z</time>
      </trkpt>
      <trkpt lat="42.162855" lon="9.065162">
        <ele>1733.2</ele>
        <time>2022-09-12T14:31:12Z</time>
      </trkpt>
      <trkpt lat="42.162823" lon="9.065238">
        <ele>1731.4</ele>
        <time>2022-09-12T14:31:18Z</time>
      </trkpt>
      <trkpt lat="42.162765" lon="9.06541">
        <ele>1728.6</ele>
        <time>2022-09-12T14:31:28Z</time>
      </trkpt>
      <trkpt lat="42.162682" lon="9.065565">
        <ele>1726.0</ele>
        <time>2022-09-12T14:31:43Z</time>
      </trkpt>
      <trkpt lat="42.162657" lon="9.06562">
        <ele>1724.6</ele>
        <time>2022-09-12T14:31:47Z</time>
      </trkpt>
      <trkpt lat="42.162605" lon="9.06566">
        <ele>1722.0</ele>
        <time>2022-09-12T14:31:56Z</time>
      </trkpt>
      <trkpt lat="42.16259" lon="9.065692">
        <ele>1720.2</ele>
        <time>2022-09-12T14:32:01Z</time>
      </trkpt>
      <trkpt lat="42.16261" lon="9.065767">
        <ele>1718.4</ele>
        <time>2022-09-12T14:32:09Z</time>
      </trkpt>
      <trkpt lat="42.162618" lon="9.065762">
        <ele>1718.2</ele>
        <time>2022-09-12T14:32:13Z</time>
      </trkpt>
      <trkpt lat="42.162628" lon="9.065748">
        <ele>1717.4</ele>
        <time>2022-09-12T14:32:19Z</time>
      </trkpt>
      <trkpt lat="42.162628" lon="9.065758">
        <ele>1716.6</ele>
        <time>2022-09-12T14:32:23Z</time>
      </trkpt>
      <trkpt lat="42.162628" lon="9.065772">
        <ele>1715.6</ele>
        <time>2022-09-12T14:32:25Z</time>
      </trkpt>
      <trkpt lat="42.162642" lon="9.06588">
        <ele>1713.6</ele>
        <time>2022-09-12T14:32:34Z</time>
      </trkpt>
      <trkpt lat="42.162648" lon="9.06592">
        <ele>1713.4</ele>
        <time>2022-09-12T14:32:37Z</time>
      </trkpt>
      <trkpt lat="42.162642" lon="9.066003">
        <ele>1711.8</ele>
        <time>2022-09-12T14:32:44Z</time>
      </trkpt>
      <trkpt lat="42.162622" lon="9.066035">
        <ele>1711.2</ele>
        <time>2022-09-12T14:32:48Z</time>
      </trkpt>
      <trkpt lat="42.162477" lon="9.066158">
        <ele>1706.0</ele>
        <time>2022-09-12T14:33:09Z</time>
      </trkpt>
      <trkpt lat="42.162423" lon="9.066155">
        <ele>1705.0</ele>
        <time>2022-09-12T14:33:14Z</time>
      </trkpt>
      <trkpt lat="42.162372" lon="9.066142">
        <ele>1704.0</ele>
        <time>2022-09-12T14:33:19Z</time>
      </trkpt>
      <trkpt lat="42.162323" lon="9.066222">
        <ele>1702.0</ele>
        <time>2022-09-12T14:33:27Z</time>
      </trkpt>
      <trkpt lat="42.162272" lon="9.066202">
        <ele>1701.4</ele>
        <time>2022-09-12T14:33:32Z</time>
      </trkpt>
      <trkpt lat="42.162253" lon="9.066215">
        <ele>1700.8</ele>
        <time>2022-09-12T14:33:35Z</time>
      </trkpt>
      <trkpt lat="42.162138" lon="9.066375">
        <ele>1696.0</ele>
        <time>2022-09-12T14:34:02Z</time>
      </trkpt>
      <trkpt lat="42.162138" lon="9.066392">
        <ele>1696.0</ele>
        <time>2022-09-12T14:34:04Z</time>
      </trkpt>
      <trkpt lat="42.162132" lon="9.066408">
        <ele>1695.0</ele>
        <time>2022-09-12T14:34:09Z</time>
      </trkpt>
      <trkpt lat="42.162113" lon="9.066408">
        <ele>1695.0</ele>
        <time>2022-09-12T14:34:18Z</time>
      </trkpt>
      <trkpt lat="42.162105" lon="9.066405">
        <ele>1692.8</ele>
        <time>2022-09-12T14:34:23Z</time>
      </trkpt>
      <trkpt lat="42.162092" lon="9.066393">
        <ele>1692.4</ele>
        <time>2022-09-12T14:34:27Z</time>
      </trkpt>
      <trkpt lat="42.162053" lon="9.066425">
        <ele>1690.6</ele>
        <time>2022-09-12T14:34:38Z</time>
      </trkpt>
      <trkpt lat="42.162083" lon="9.066357">
        <ele>1688.4</ele>
        <time>2022-09-12T14:35:07Z</time>
      </trkpt>
      <trkpt lat="42.162068" lon="9.066325">
        <ele>1688.2</ele>
        <time>2022-09-12T14:35:17Z</time>
      </trkpt>
      <trkpt lat="42.162077" lon="9.06632">
        <ele>1687.2</ele>
        <time>2022-09-12T14:35:24Z</time>
      </trkpt>
      <trkpt lat="42.162023" lon="9.06636">
        <ele>1687.6</ele>
        <time>2022-09-12T14:35:35Z</time>
      </trkpt>
      <trkpt lat="42.162003" lon="9.066352">
        <ele>1687.6</ele>
        <time>2022-09-12T14:35:38Z</time>
      </trkpt>
      <trkpt lat="42.162023" lon="9.066218">
        <ele>1687.0</ele>
        <time>2022-09-12T14:35:55Z</time>
      </trkpt>
      <trkpt lat="42.161205" lon="9.065932">
        <ele>1679.2</ele>
        <time>2022-09-12T14:36:36Z</time>
      </trkpt>
      <trkpt lat="42.16123" lon="9.065962">
        <ele>1678.8</ele>
        <time>2022-09-12T14:37:01Z</time>
      </trkpt>
      <trkpt lat="42.161188" lon="9.06601">
        <ele>1676.2</ele>
        <time>2022-09-12T14:38:17Z</time>
      </trkpt>
      <trkpt lat="42.161118" lon="9.066038">
        <ele>1672.8</ele>
        <time>2022-09-12T14:38:44Z</time>
      </trkpt>
      <trkpt lat="42.16108" lon="9.06603">
        <ele>1672.2</ele>
        <time>2022-09-12T14:38:49Z</time>
      </trkpt>
      <trkpt lat="42.161048" lon="9.065998">
        <ele>1670.2</ele>
        <time>2022-09-12T14:38:54Z</time>
      </trkpt>
      <trkpt lat="42.16098" lon="9.065948">
        <ele>1668.2</ele>
        <time>2022-09-12T14:39:04Z</time>
      </trkpt>
      <trkpt lat="42.160968" lon="9.065917">
        <ele>1668.0</ele>
        <time>2022-09-12T14:39:08Z</time>
      </trkpt>
      <trkpt lat="42.16096" lon="9.065853">
        <ele>1666.8</ele>
        <time>2022-09-12T14:39:16Z</time>
      </trkpt>
      <trkpt lat="42.160945" lon="9.065832">
        <ele>1666.0</ele>
        <time>2022-09-12T14:39:19Z</time>
      </trkpt>
      <trkpt lat="42.160883" lon="9.065885">
        <ele>1663.6</ele>
        <time>2022-09-12T14:39:32Z</time>
      </trkpt>
      <trkpt lat="42.160865" lon="9.065895">
        <ele>1663.0</ele>
        <time>2022-09-12T14:39:37Z</time>
      </trkpt>
      <trkpt lat="42.160828" lon="9.065898">
        <ele>1662.4</ele>
        <time>2022-09-12T14:39:46Z</time>
      </trkpt>
      <trkpt lat="42.160817" lon="9.065908">
        <ele>1661.2</ele>
        <time>2022-09-12T14:39:49Z</time>
      </trkpt>
      <trkpt lat="42.160732" lon="9.065957">
        <ele>1658.6</ele>
        <time>2022-09-12T14:40:04Z</time>
      </trkpt>
      <trkpt lat="42.16067" lon="9.065927">
        <ele>1657.0</ele>
        <time>2022-09-12T14:40:15Z</time>
      </trkpt>
      <trkpt lat="42.160633" lon="9.065923">
        <ele>1656.0</ele>
        <time>2022-09-12T14:40:18Z</time>
      </trkpt>
      <trkpt lat="42.160573" lon="9.065933">
        <ele>1654.6</ele>
        <time>2022-09-12T14:40:24Z</time>
      </trkpt>
      <trkpt lat="42.16055" lon="9.065935">
        <ele>1654.2</ele>
        <time>2022-09-12T14:40:26Z</time>
      </trkpt>
      <trkpt lat="42.160395" lon="9.066155">
        <ele>1650.0</ele>
        <time>2022-09-12T14:40:49Z</time>
      </trkpt>
      <trkpt lat="42.160347" lon="9.066202">
        <ele>1648.6</ele>
        <time>2022-09-12T14:40:56Z</time>
      </trkpt>
      <trkpt lat="42.1603" lon="9.066233">
        <ele>1648.0</ele>
        <time>2022-09-12T14:41:03Z</time>
      </trkpt>
      <trkpt lat="42.160292" lon="9.066233">
        <ele>1647.6</ele>
        <time>2022-09-12T14:41:04Z</time>
      </trkpt>
      <trkpt lat="42.16024" lon="9.066148">
        <ele>1645.8</ele>
        <time>2022-09-12T14:41:14Z</time>
      </trkpt>
      <trkpt lat="42.160223" lon="9.066095">
        <ele>1643.6</ele>
        <time>2022-09-12T14:41:20Z</time>
      </trkpt>
      <trkpt lat="42.160192" lon="9.066087">
        <ele>1642.8</ele>
        <time>2022-09-12T14:41:44Z</time>
      </trkpt>
      <trkpt lat="42.160187" lon="9.066117">
        <ele>1641.8</ele>
        <time>2022-09-12T14:41:58Z</time>
      </trkpt>
      <trkpt lat="42.160182" lon="9.066118">
        <ele>1641.2</ele>
        <time>2022-09-12T14:41:59Z</time>
      </trkpt>
      <trkpt lat="42.16014" lon="9.066132">
        <ele>1640.0</ele>
        <time>2022-09-12T14:42:06Z</time>
      </trkpt>
      <trkpt lat="42.160048" lon="9.066138">
        <ele>1637.8</ele>
        <time>2022-09-12T14:42:18Z</time>
      </trkpt>
      <trkpt lat="42.159988" lon="9.066192">
        <ele>1636.4</ele>
        <time>2022-09-12T14:42:27Z</time>
      </trkpt>
      <trkpt lat="42.159968" lon="9.066227">
        <ele>1635.8</ele>
        <time>2022-09-12T14:42:32Z</time>
      </trkpt>
      <trkpt lat="42.15993" lon="9.066295">
        <ele>1634.0</ele>
        <time>2022-09-12T14:42:39Z</time>
      </trkpt>
      <trkpt lat="42.159905" lon="9.066348">
        <ele>1633.4</ele>
        <time>2022-09-12T14:42:45Z</time>
      </trkpt>
      <trkpt lat="42.15989" lon="9.066388">
        <ele>1632.6</ele>
        <time>2022-09-12T14:42:50Z</time>
      </trkpt>
      <trkpt lat="42.15986" lon="9.06643">
        <ele>1630.6</ele>
        <time>2022-09-12T14:42:57Z</time>
      </trkpt>
      <trkpt lat="42.15982" lon="9.06647">
        <ele>1629.0</ele>
        <time>2022-09-12T14:43:07Z</time>
      </trkpt>
      <trkpt lat="42.1598" lon="9.06648">
        <ele>1628.0</ele>
        <time>2022-09-12T14:43:12Z</time>
      </trkpt>
      <trkpt lat="42.159712" lon="9.06661">
        <ele>1625.4</ele>
        <time>2022-09-12T14:43:29Z</time>
      </trkpt>
      <trkpt lat="42.159638" lon="9.066467">
        <ele>1622.4</ele>
        <time>2022-09-12T14:43:44Z</time>
      </trkpt>
      <trkpt lat="42.159622" lon="9.06644">
        <ele>1622.2</ele>
        <time>2022-09-12T14:43:47Z</time>
      </trkpt>
      <trkpt lat="42.159597" lon="9.066485">
        <ele>1621.2</ele>
        <time>2022-09-12T14:43:53Z</time>
      </trkpt>
      <trkpt lat="42.159587" lon="9.066548">
        <ele>1619.6</ele>
        <time>2022-09-12T14:43:59Z</time>
      </trkpt>
      <trkpt lat="42.15951" lon="9.066622">
        <ele>1618.6</ele>
        <time>2022-09-12T14:44:08Z</time>
      </trkpt>
      <trkpt lat="42.159493" lon="9.066662">
        <ele>1617.2</ele>
        <time>2022-09-12T14:44:12Z</time>
      </trkpt>
      <trkpt lat="42.159503" lon="9.066695">
        <ele>1616.4</ele>
        <time>2022-09-12T14:44:17Z</time>
      </trkpt>
      <trkpt lat="42.159467" lon="9.06673">
        <ele>1614.0</ele>
        <time>2022-09-12T14:44:32Z</time>
      </trkpt>
      <trkpt lat="42.159462" lon="9.066735">
        <ele>1613.8</ele>
        <time>2022-09-12T14:44:33Z</time>
      </trkpt>
      <trkpt lat="42.159417" lon="9.066695">
        <ele>1612.2</ele>
        <time>2022-09-12T14:44:43Z</time>
      </trkpt>
      <trkpt lat="42.159387" lon="9.0667">
        <ele>1610.8</ele>
        <time>2022-09-12T14:44:48Z</time>
      </trkpt>
      <trkpt lat="42.159362" lon="9.06674">
        <ele>1609.8</ele>
        <time>2022-09-12T14:44:54Z</time>
      </trkpt>
      <trkpt lat="42.159327" lon="9.066822">
        <ele>1609.0</ele>
        <time>2022-09-12T14:45:07Z</time>
      </trkpt>
      <trkpt lat="42.159293" lon="9.066797">
        <ele>1608.2</ele>
        <time>2022-09-12T14:45:19Z</time>
      </trkpt>
      <trkpt lat="42.159233" lon="9.066725">
        <ele>1605.6</ele>
        <time>2022-09-12T14:45:34Z</time>
      </trkpt>
      <trkpt lat="42.159223" lon="9.066725">
        <ele>1605.6</ele>
        <time>2022-09-12T14:45:35Z</time>
      </trkpt>
      <trkpt lat="42.159183" lon="9.066752">
        <ele>1603.0</ele>
        <time>2022-09-12T14:45:40Z</time>
      </trkpt>
      <trkpt lat="42.159138" lon="9.066783">
        <ele>1601.4</ele>
        <time>2022-09-12T14:45:47Z</time>
      </trkpt>
      <trkpt lat="42.159058" lon="9.066822">
        <ele>1598.4</ele>
        <time>2022-09-12T14:45:59Z</time>
      </trkpt>
      <trkpt lat="42.159043" lon="9.066868">
        <ele>1595.6</ele>
        <time>2022-09-12T14:46:06Z</time>
      </trkpt>
      <trkpt lat="42.15901" lon="9.066903">
        <ele>1594.2</ele>
        <time>2022-09-12T14:46:13Z</time>
      </trkpt>
      <trkpt lat="42.158985" lon="9.066907">
        <ele>1593.8</ele>
        <time>2022-09-12T14:46:17Z</time>
      </trkpt>
      <trkpt lat="42.158975" lon="9.066888">
        <ele>1592.8</ele>
        <time>2022-09-12T14:46:22Z</time>
      </trkpt>
      <trkpt lat="42.158935" lon="9.066855">
        <ele>1592.0</ele>
        <time>2022-09-12T14:46:28Z</time>
      </trkpt>
      <trkpt lat="42.158837" lon="9.066993">
        <ele>1587.2</ele>
        <time>2022-09-12T14:46:51Z</time>
      </trkpt>
      <trkpt lat="42.158813" lon="9.06698">
        <ele>1586.2</ele>
        <time>2022-09-12T14:46:56Z</time>
      </trkpt>
      <trkpt lat="42.158732" lon="9.066913">
        <ele>1583.6</ele>
        <time>2022-09-12T14:47:11Z</time>
      </trkpt>
      <trkpt lat="42.158727" lon="9.06691">
        <ele>1583.2</ele>
        <time>2022-09-12T14:47:13Z</time>
      </trkpt>
      <trkpt lat="42.158722" lon="9.066953">
        <ele>1581.0</ele>
        <time>2022-09-12T14:47:22Z</time>
      </trkpt>
      <trkpt lat="42.158682" lon="9.06731">
        <ele>1579.2</ele>
        <time>2022-09-12T14:47:33Z</time>
      </trkpt>
      <trkpt lat="42.158863" lon="9.066848">
        <ele>1577.4</ele>
        <time>2022-09-12T14:47:44Z</time>
      </trkpt>
      <trkpt lat="42.158835" lon="9.066842">
        <ele>1577.4</ele>
        <time>2022-09-12T14:47:44Z</time>
      </trkpt>
      <trkpt lat="42.15878" lon="9.066862">
        <ele>1576.4</ele>
        <time>2022-09-12T14:47:48Z</time>
      </trkpt>
      <trkpt lat="42.158735" lon="9.0669">
        <ele>1575.6</ele>
        <time>2022-09-12T14:47:52Z</time>
      </trkpt>
      <trkpt lat="42.158677" lon="9.066952">
        <ele>1574.8</ele>
        <time>2022-09-12T14:47:57Z</time>
      </trkpt>
      <trkpt lat="42.15865" lon="9.066938">
        <ele>1574.8</ele>
        <time>2022-09-12T14:47:59Z</time>
      </trkpt>
      <trkpt lat="42.158587" lon="9.066895">
        <ele>1573.8</ele>
        <time>2022-09-12T14:48:04Z</time>
      </trkpt>
      <trkpt lat="42.158565" lon="9.066915">
        <ele>1573.8</ele>
        <time>2022-09-12T14:48:06Z</time>
      </trkpt>
      <trkpt lat="42.158502" lon="9.067012">
        <ele>1572.4</ele>
        <time>2022-09-12T14:48:14Z</time>
      </trkpt>
      <trkpt lat="42.158492" lon="9.067005">
        <ele>1572.2</ele>
        <time>2022-09-12T14:48:15Z</time>
      </trkpt>
      <trkpt lat="42.15841" lon="9.067038">
        <ele>1571.2</ele>
        <time>2022-09-12T14:48:24Z</time>
      </trkpt>
      <trkpt lat="42.158372" lon="9.067063">
        <ele>1570.0</ele>
        <time>2022-09-12T14:48:29Z</time>
      </trkpt>
      <trkpt lat="42.158302" lon="9.067103">
        <ele>1566.2</ele>
        <time>2022-09-12T14:48:43Z</time>
      </trkpt>
      <trkpt lat="42.158157" lon="9.067255">
        <ele>1559.8</ele>
        <time>2022-09-12T14:49:35Z</time>
      </trkpt>
      <trkpt lat="42.158075" lon="9.06728">
        <ele>1559.8</ele>
        <time>2022-09-12T14:49:43Z</time>
      </trkpt>
      <trkpt lat="42.158045" lon="9.067322">
        <ele>1560.0</ele>
        <time>2022-09-12T14:49:48Z</time>
      </trkpt>
      <trkpt lat="42.158023" lon="9.067358">
        <ele>1559.2</ele>
        <time>2022-09-12T14:49:54Z</time>
      </trkpt>
      <trkpt lat="42.158002" lon="9.067372">
        <ele>1558.0</ele>
        <time>2022-09-12T14:50:01Z</time>
      </trkpt>
      <trkpt lat="42.158012" lon="9.067392">
        <ele>1557.0</ele>
        <time>2022-09-12T14:50:06Z</time>
      </trkpt>
      <trkpt lat="42.158092" lon="9.0674">
        <ele>1554.8</ele>
        <time>2022-09-12T14:50:15Z</time>
      </trkpt>
      <trkpt lat="42.158125" lon="9.067413">
        <ele>1554.2</ele>
        <time>2022-09-12T14:50:20Z</time>
      </trkpt>
      <trkpt lat="42.158153" lon="9.06741">
        <ele>1552.8</ele>
        <time>2022-09-12T14:50:27Z</time>
      </trkpt>
      <trkpt lat="42.158267" lon="9.067375">
        <ele>1550.2</ele>
        <time>2022-09-12T14:50:43Z</time>
      </trkpt>
      <trkpt lat="42.158278" lon="9.067302">
        <ele>1550.0</ele>
        <time>2022-09-12T14:50:49Z</time>
      </trkpt>
      <trkpt lat="42.15824" lon="9.067293">
        <ele>1549.0</ele>
        <time>2022-09-12T14:50:53Z</time>
      </trkpt>
      <trkpt lat="42.158202" lon="9.067305">
        <ele>1547.4</ele>
        <time>2022-09-12T14:50:58Z</time>
      </trkpt>
      <trkpt lat="42.158158" lon="9.06733">
        <ele>1545.8</ele>
        <time>2022-09-12T14:51:05Z</time>
      </trkpt>
      <trkpt lat="42.158125" lon="9.067342">
        <ele>1545.4</ele>
        <time>2022-09-12T14:51:11Z</time>
      </trkpt>
      <trkpt lat="42.158098" lon="9.06739">
        <ele>1544.0</ele>
        <time>2022-09-12T14:51:18Z</time>
      </trkpt>
      <trkpt lat="42.158093" lon="9.067408">
        <ele>1543.8</ele>
        <time>2022-09-12T14:51:20Z</time>
      </trkpt>
      <trkpt lat="42.158118" lon="9.067438">
        <ele>1543.2</ele>
        <time>2022-09-12T14:51:25Z</time>
      </trkpt>
      <trkpt lat="42.158238" lon="9.06756">
        <ele>1537.2</ele>
        <time>2022-09-12T14:51:51Z</time>
      </trkpt>
      <trkpt lat="42.158237" lon="9.067575">
        <ele>1537.0</ele>
        <time>2022-09-12T14:51:53Z</time>
      </trkpt>
      <trkpt lat="42.158187" lon="9.067567">
        <ele>1536.6</ele>
        <time>2022-09-12T14:51:58Z</time>
      </trkpt>
      <trkpt lat="42.15814" lon="9.06755">
        <ele>1536.4</ele>
        <time>2022-09-12T14:52:03Z</time>
      </trkpt>
      <trkpt lat="42.158103" lon="9.067557">
        <ele>1536.0</ele>
        <time>2022-09-12T14:52:06Z</time>
      </trkpt>
      <trkpt lat="42.158077" lon="9.067572">
        <ele>1535.8</ele>
        <time>2022-09-12T14:52:08Z</time>
      </trkpt>
      <trkpt lat="42.158005" lon="9.067823">
        <ele>1532.6</ele>
        <time>2022-09-12T14:52:24Z</time>
      </trkpt>
      <trkpt lat="42.157993" lon="9.06783">
        <ele>1532.2</ele>
        <time>2022-09-12T14:52:25Z</time>
      </trkpt>
      <trkpt lat="42.157953" lon="9.067827">
        <ele>1531.8</ele>
        <time>2022-09-12T14:52:30Z</time>
      </trkpt>
      <trkpt lat="42.157932" lon="9.067845">
        <ele>1531.2</ele>
        <time>2022-09-12T14:52:33Z</time>
      </trkpt>
      <trkpt lat="42.15791" lon="9.067863">
        <ele>1531.0</ele>
        <time>2022-09-12T14:52:36Z</time>
      </trkpt>
      <trkpt lat="42.157873" lon="9.067803">
        <ele>1529.8</ele>
        <time>2022-09-12T14:52:44Z</time>
      </trkpt>
      <trkpt lat="42.15785" lon="9.067792">
        <ele>1529.4</ele>
        <time>2022-09-12T14:52:48Z</time>
      </trkpt>
      <trkpt lat="42.15782" lon="9.067837">
        <ele>1528.0</ele>
        <time>2022-09-12T14:52:54Z</time>
      </trkpt>
      <trkpt lat="42.157777" lon="9.067825">
        <ele>1527.0</ele>
        <time>2022-09-12T14:53:04Z</time>
      </trkpt>
      <trkpt lat="42.157755" lon="9.067852">
        <ele>1525.4</ele>
        <time>2022-09-12T14:53:11Z</time>
      </trkpt>
      <trkpt lat="42.157735" lon="9.067833">
        <ele>1524.0</ele>
        <time>2022-09-12T14:53:17Z</time>
      </trkpt>
      <trkpt lat="42.15774" lon="9.067902">
        <ele>1522.0</ele>
        <time>2022-09-12T14:53:26Z</time>
      </trkpt>
      <trkpt lat="42.157757" lon="9.067933">
        <ele>1521.2</ele>
        <time>2022-09-12T14:53:30Z</time>
      </trkpt>
      <trkpt lat="42.157713" lon="9.067917">
        <ele>1519.8</ele>
        <time>2022-09-12T14:53:44Z</time>
      </trkpt>
      <trkpt lat="42.157703" lon="9.06795">
        <ele>1519.8</ele>
        <time>2022-09-12T14:53:49Z</time>
      </trkpt>
      <trkpt lat="42.157693" lon="9.06797">
        <ele>1515.0</ele>
        <time>2022-09-12T14:54:51Z</time>
      </trkpt>
      <trkpt lat="42.157668" lon="9.067992">
        <ele>1512.8</ele>
        <time>2022-09-12T14:54:59Z</time>
      </trkpt>
      <trkpt lat="42.157662" lon="9.068037">
        <ele>1510.8</ele>
        <time>2022-09-12T14:55:06Z</time>
      </trkpt>
      <trkpt lat="42.157675" lon="9.068095">
        <ele>1509.2</ele>
        <time>2022-09-12T14:55:12Z</time>
      </trkpt>
      <trkpt lat="42.15765" lon="9.068133">
        <ele>1508.6</ele>
        <time>2022-09-12T14:55:16Z</time>
      </trkpt>
      <trkpt lat="42.1575" lon="9.068303">
        <ele>1505.4</ele>
        <time>2022-09-12T14:55:38Z</time>
      </trkpt>
      <trkpt lat="42.157478" lon="9.06837">
        <ele>1503.4</ele>
        <time>2022-09-12T14:55:57Z</time>
      </trkpt>
      <trkpt lat="42.157378" lon="9.068458">
        <ele>1502.0</ele>
        <time>2022-09-12T14:56:37Z</time>
      </trkpt>
      <trkpt lat="42.157373" lon="9.068462">
        <ele>1502.0</ele>
        <time>2022-09-12T14:56:38Z</time>
      </trkpt>
      <trkpt lat="42.157393" lon="9.068405">
        <ele>1501.6</ele>
        <time>2022-09-12T14:56:46Z</time>
      </trkpt>
      <trkpt lat="42.157417" lon="9.068323">
        <ele>1501.6</ele>
        <time>2022-09-12T14:56:57Z</time>
      </trkpt>
      <trkpt lat="42.157462" lon="9.06816">
        <ele>1500.4</ele>
        <time>2022-09-12T14:57:45Z</time>
      </trkpt>
      <trkpt lat="42.15753" lon="9.068187">
        <ele>1500.8</ele>
        <time>2022-09-12T14:58:13Z</time>
      </trkpt>
      <trkpt lat="42.157597" lon="9.068235">
        <ele>1500.0</ele>
        <time>2022-09-12T14:58:25Z</time>
      </trkpt>
      <trkpt lat="42.157608" lon="9.068245">
        <ele>1500.4</ele>
        <time>2022-09-12T14:58:31Z</time>
      </trkpt>
      <trkpt lat="42.157577" lon="9.06823">
        <ele>1500.2</ele>
        <time>2022-09-12T14:58:44Z</time>
      </trkpt>
      <trkpt lat="42.157427" lon="9.06841">
        <ele>1495.0</ele>
        <time>2022-09-12T14:59:20Z</time>
      </trkpt>
      <trkpt lat="42.157338" lon="9.068462">
        <ele>1493.2</ele>
        <time>2022-09-12T14:59:30Z</time>
      </trkpt>
      <trkpt lat="42.157287" lon="9.068467">
        <ele>1492.8</ele>
        <time>2022-09-12T14:59:33Z</time>
      </trkpt>
      <trkpt lat="42.157158" lon="9.06854">
        <ele>1492.0</ele>
        <time>2022-09-12T14:59:41Z</time>
      </trkpt>
      <trkpt lat="42.157108" lon="9.06855">
        <ele>1491.0</ele>
        <time>2022-09-12T14:59:45Z</time>
      </trkpt>
      <trkpt lat="42.15701" lon="9.068537">
        <ele>1489.8</ele>
        <time>2022-09-12T14:59:52Z</time>
      </trkpt>
      <trkpt lat="42.156975" lon="9.068558">
        <ele>1489.0</ele>
        <time>2022-09-12T14:59:55Z</time>
      </trkpt>
      <trkpt lat="42.15688" lon="9.06864">
        <ele>1487.8</ele>
        <time>2022-09-12T15:00:05Z</time>
      </trkpt>
      <trkpt lat="42.156808" lon="9.068677">
        <ele>1486.0</ele>
        <time>2022-09-12T15:00:13Z</time>
      </trkpt>
      <trkpt lat="42.156813" lon="9.068675">
        <ele>1485.8</ele>
        <time>2022-09-12T15:00:14Z</time>
      </trkpt>
      <trkpt lat="42.156893" lon="9.068653">
        <ele>1482.6</ele>
        <time>2022-09-12T15:00:29Z</time>
      </trkpt>
      <trkpt lat="42.156938" lon="9.0687">
        <ele>1480.2</ele>
        <time>2022-09-12T15:00:36Z</time>
      </trkpt>
      <trkpt lat="42.156993" lon="9.068773">
        <ele>1478.0</ele>
        <time>2022-09-12T15:00:45Z</time>
      </trkpt>
      <trkpt lat="42.157022" lon="9.068797">
        <ele>1476.6</ele>
        <time>2022-09-12T15:00:50Z</time>
      </trkpt>
      <trkpt lat="42.156923" lon="9.068865">
        <ele>1471.4</ele>
        <time>2022-09-12T15:01:21Z</time>
      </trkpt>
      <trkpt lat="42.156873" lon="9.06891">
        <ele>1469.6</ele>
        <time>2022-09-12T15:01:31Z</time>
      </trkpt>
      <trkpt lat="42.15678" lon="9.069018">
        <ele>1465.2</ele>
        <time>2022-09-12T15:01:52Z</time>
      </trkpt>
      <trkpt lat="42.156738" lon="9.06906">
        <ele>1463.6</ele>
        <time>2022-09-12T15:02:00Z</time>
      </trkpt>
      <trkpt lat="42.156608" lon="9.069157">
        <ele>1460.6</ele>
        <time>2022-09-12T15:02:18Z</time>
      </trkpt>
      <trkpt lat="42.156515" lon="9.069287">
        <ele>1457.4</ele>
        <time>2022-09-12T15:02:33Z</time>
      </trkpt>
      <trkpt lat="42.156507" lon="9.069415">
        <ele>1454.6</ele>
        <time>2022-09-12T15:02:47Z</time>
      </trkpt>
      <trkpt lat="42.156412" lon="9.069387">
        <ele>1452.2</ele>
        <time>2022-09-12T15:02:57Z</time>
      </trkpt>
      <trkpt lat="42.156017" lon="9.06947">
        <ele>1449.4</ele>
        <time>2022-09-12T15:03:08Z</time>
      </trkpt>
      <trkpt lat="42.15612" lon="9.069462">
        <ele>1447.4</ele>
        <time>2022-09-12T15:03:17Z</time>
      </trkpt>
      <trkpt lat="42.156125" lon="9.06943">
        <ele>1446.6</ele>
        <time>2022-09-12T15:03:19Z</time>
      </trkpt>
      <trkpt lat="42.15612" lon="9.069613">
        <ele>1444.8</ele>
        <time>2022-09-12T15:03:27Z</time>
      </trkpt>
      <trkpt lat="42.15614" lon="9.069887">
        <ele>1438.8</ele>
        <time>2022-09-12T15:03:55Z</time>
      </trkpt>
      <trkpt lat="42.156077" lon="9.069932">
        <ele>1438.2</ele>
        <time>2022-09-12T15:04:02Z</time>
      </trkpt>
      <trkpt lat="42.156017" lon="9.069968">
        <ele>1436.6</ele>
        <time>2022-09-12T15:04:09Z</time>
      </trkpt>
      <trkpt lat="42.155937" lon="9.069993">
        <ele>1435.2</ele>
        <time>2022-09-12T15:04:17Z</time>
      </trkpt>
      <trkpt lat="42.1556" lon="9.070127">
        <ele>1434.6</ele>
        <time>2022-09-12T15:04:38Z</time>
      </trkpt>
      <trkpt lat="42.155542" lon="9.070158">
        <ele>1435.0</ele>
        <time>2022-09-12T15:04:45Z</time>
      </trkpt>
      <trkpt lat="42.155517" lon="9.070202">
        <ele>1435.6</ele>
        <time>2022-09-12T15:04:49Z</time>
      </trkpt>
      <trkpt lat="42.155512" lon="9.070293">
        <ele>1436.2</ele>
        <time>2022-09-12T15:04:55Z</time>
      </trkpt>
      <trkpt lat="42.155528" lon="9.070635">
        <ele>1438.2</ele>
        <time>2022-09-12T15:05:16Z</time>
      </trkpt>
      <trkpt lat="42.155525" lon="9.070648">
        <ele>1438.6</ele>
        <time>2022-09-12T15:05:17Z</time>
      </trkpt>
      <trkpt lat="42.15548" lon="9.070792">
        <ele>1440.2</ele>
        <time>2022-09-12T15:05:30Z</time>
      </trkpt>
      <trkpt lat="42.155437" lon="9.071047">
        <ele>1444.0</ele>
        <time>2022-09-12T15:05:57Z</time>
      </trkpt>
      <trkpt lat="42.155422" lon="9.071135">
        <ele>1445.2</ele>
        <time>2022-09-12T15:06:06Z</time>
      </trkpt>
      <trkpt lat="42.15542" lon="9.071218">
        <ele>1447.0</ele>
        <time>2022-09-12T15:06:16Z</time>
      </trkpt>
      <trkpt lat="42.155443" lon="9.071348">
        <ele>1449.2</ele>
        <time>2022-09-12T15:06:31Z</time>
      </trkpt>
      <trkpt lat="42.155437" lon="9.071505">
        <ele>1452.4</ele>
        <time>2022-09-12T15:06:48Z</time>
      </trkpt>
      <trkpt lat="42.15542" lon="9.071627">
        <ele>1455.0</ele>
        <time>2022-09-12T15:07:01Z</time>
      </trkpt>
      <trkpt lat="42.155447" lon="9.071727">
        <ele>1456.4</ele>
        <time>2022-09-12T15:07:12Z</time>
      </trkpt>
      <trkpt lat="42.155428" lon="9.071868">
        <ele>1458.0</ele>
        <time>2022-09-12T15:07:29Z</time>
      </trkpt>
      <trkpt lat="42.15543" lon="9.071915">
        <ele>1458.6</ele>
        <time>2022-09-12T15:07:33Z</time>
      </trkpt>
      <trkpt lat="42.155435" lon="9.072065">
        <ele>1461.0</ele>
        <time>2022-09-12T15:07:49Z</time>
      </trkpt>
      <trkpt lat="42.155392" lon="9.072147">
        <ele>1462.6</ele>
        <time>2022-09-12T15:07:58Z</time>
      </trkpt>
      <trkpt lat="42.155367" lon="9.072252">
        <ele>1464.8</ele>
        <time>2022-09-12T15:08:10Z</time>
      </trkpt>
      <trkpt lat="42.155358" lon="9.07225">
        <ele>1464.8</ele>
        <time>2022-09-12T15:08:12Z</time>
      </trkpt>
      <trkpt lat="42.155312" lon="9.072243">
        <ele>1466.2</ele>
        <time>2022-09-12T15:08:25Z</time>
      </trkpt>
      <trkpt lat="42.155282" lon="9.072227">
        <ele>1466.2</ele>
        <time>2022-09-12T15:08:32Z</time>
      </trkpt>
      <trkpt lat="42.155257" lon="9.072207">
        <ele>1466.8</ele>
        <time>2022-09-12T15:08:38Z</time>
      </trkpt>
      <trkpt lat="42.155203" lon="9.072218">
        <ele>1467.0</ele>
        <time>2022-09-12T15:08:51Z</time>
      </trkpt>
      <trkpt lat="42.155175" lon="9.072242">
        <ele>1466.8</ele>
        <time>2022-09-12T15:09:22Z</time>
      </trkpt>
      <trkpt lat="42.155015" lon="9.072305">
        <ele>1464.2</ele>
        <time>2022-09-12T15:09:38Z</time>
      </trkpt>
      <trkpt lat="42.154983" lon="9.072317">
        <ele>1463.6</ele>
        <time>2022-09-12T15:09:40Z</time>
      </trkpt>
      <trkpt lat="42.154895" lon="9.072313">
        <ele>1462.8</ele>
        <time>2022-09-12T15:09:45Z</time>
      </trkpt>
      <trkpt lat="42.154697" lon="9.072302">
        <ele>1461.8</ele>
        <time>2022-09-12T15:09:58Z</time>
      </trkpt>
      <trkpt lat="42.154685" lon="9.072303">
        <ele>1461.8</ele>
        <time>2022-09-12T15:10:00Z</time>
      </trkpt>
      <trkpt lat="42.154623" lon="9.072283">
        <ele>1461.0</ele>
        <time>2022-09-12T15:10:06Z</time>
      </trkpt>
      <trkpt lat="42.154525" lon="9.072258">
        <ele>1459.6</ele>
        <time>2022-09-12T15:10:16Z</time>
      </trkpt>
      <trkpt lat="42.154435" lon="9.072217">
        <ele>1457.4</ele>
        <time>2022-09-12T15:10:27Z</time>
      </trkpt>
      <trkpt lat="42.15434" lon="9.07222">
        <ele>1456.0</ele>
        <time>2022-09-12T15:10:37Z</time>
      </trkpt>
      <trkpt lat="42.154185" lon="9.072348">
        <ele>1451.8</ele>
        <time>2022-09-12T15:10:59Z</time>
      </trkpt>
      <trkpt lat="42.154105" lon="9.072438">
        <ele>1448.2</ele>
        <time>2022-09-12T15:11:12Z</time>
      </trkpt>
      <trkpt lat="42.154065" lon="9.072502">
        <ele>1446.8</ele>
        <time>2022-09-12T15:11:20Z</time>
      </trkpt>
      <trkpt lat="42.154055" lon="9.072567">
        <ele>1444.8</ele>
        <time>2022-09-12T15:11:29Z</time>
      </trkpt>
      <trkpt lat="42.154002" lon="9.072757">
        <ele>1439.2</ele>
        <time>2022-09-12T15:11:56Z</time>
      </trkpt>
      <trkpt lat="42.154" lon="9.072822">
        <ele>1439.0</ele>
        <time>2022-09-12T15:12:04Z</time>
      </trkpt>
      <trkpt lat="42.153952" lon="9.072845">
        <ele>1438.6</ele>
        <time>2022-09-12T15:12:10Z</time>
      </trkpt>
      <trkpt lat="42.153903" lon="9.072867">
        <ele>1436.0</ele>
        <time>2022-09-12T15:12:17Z</time>
      </trkpt>
      <trkpt lat="42.153875" lon="9.072893">
        <ele>1434.8</ele>
        <time>2022-09-12T15:12:23Z</time>
      </trkpt>
      <trkpt lat="42.153897" lon="9.072917">
        <ele>1432.8</ele>
        <time>2022-09-12T15:12:34Z</time>
      </trkpt>
      <trkpt lat="42.153863" lon="9.072932">
        <ele>1427.2</ele>
        <time>2022-09-12T15:12:59Z</time>
      </trkpt>
      <trkpt lat="42.153837" lon="9.072988">
        <ele>1425.0</ele>
        <time>2022-09-12T15:13:10Z</time>
      </trkpt>
      <trkpt lat="42.153812" lon="9.073063">
        <ele>1421.0</ele>
        <time>2022-09-12T15:13:31Z</time>
      </trkpt>
      <trkpt lat="42.153812" lon="9.073063">
        <ele>1421.0</ele>
        <time>2022-09-12T15:13:32Z</time>
      </trkpt>
      <trkpt lat="42.153715" lon="9.073068">
        <ele>1417.6</ele>
        <time>2022-09-12T15:13:54Z</time>
      </trkpt>
      <trkpt lat="42.153695" lon="9.07312">
        <ele>1416.4</ele>
        <time>2022-09-12T15:14:01Z</time>
      </trkpt>
      <trkpt lat="42.153668" lon="9.073158">
        <ele>1414.4</ele>
        <time>2022-09-12T15:14:22Z</time>
      </trkpt>
      <trkpt lat="42.153637" lon="9.073188">
        <ele>1413.6</ele>
        <time>2022-09-12T15:14:27Z</time>
      </trkpt>
      <trkpt lat="42.153608" lon="9.073245">
        <ele>1412.8</ele>
        <time>2022-09-12T15:14:35Z</time>
      </trkpt>
      <trkpt lat="42.15366" lon="9.073288">
        <ele>1410.0</ele>
        <time>2022-09-12T15:14:49Z</time>
      </trkpt>
      <trkpt lat="42.153655" lon="9.073307">
        <ele>1409.2</ele>
        <time>2022-09-12T15:14:58Z</time>
      </trkpt>
      <trkpt lat="42.153667" lon="9.073358">
        <ele>1408.2</ele>
        <time>2022-09-12T15:15:06Z</time>
      </trkpt>
      <trkpt lat="42.153697" lon="9.07339">
        <ele>1407.4</ele>
        <time>2022-09-12T15:15:14Z</time>
      </trkpt>
      <trkpt lat="42.153753" lon="9.073445">
        <ele>1405.6</ele>
        <time>2022-09-12T15:15:38Z</time>
      </trkpt>
      <trkpt lat="42.153755" lon="9.073447">
        <ele>1405.2</ele>
        <time>2022-09-12T15:15:39Z</time>
      </trkpt>
      <trkpt lat="42.153747" lon="9.07345">
        <ele>1403.2</ele>
        <time>2022-09-12T15:15:59Z</time>
      </trkpt>
      <trkpt lat="42.153733" lon="9.073433">
        <ele>1403.2</ele>
        <time>2022-09-12T15:16:17Z</time>
      </trkpt>
      <trkpt lat="42.153715" lon="9.07343">
        <ele>1403.2</ele>
        <time>2022-09-12T15:16:20Z</time>
      </trkpt>
      <trkpt lat="42.153672" lon="9.073443">
        <ele>1403.0</ele>
        <time>2022-09-12T15:16:27Z</time>
      </trkpt>
      <trkpt lat="42.153657" lon="9.073463">
        <ele>1402.8</ele>
        <time>2022-09-12T15:16:30Z</time>
      </trkpt>
      <trkpt lat="42.15367" lon="9.073543">
        <ele>1401.6</ele>
        <time>2022-09-12T15:16:38Z</time>
      </trkpt>
      <trkpt lat="42.153673" lon="9.073553">
        <ele>1401.6</ele>
        <time>2022-09-12T15:16:39Z</time>
      </trkpt>
      <trkpt lat="42.153718" lon="9.073595">
        <ele>1401.0</ele>
        <time>2022-09-12T15:16:46Z</time>
      </trkpt>
      <trkpt lat="42.153757" lon="9.073608">
        <ele>1400.4</ele>
        <time>2022-09-12T15:16:52Z</time>
      </trkpt>
      <trkpt lat="42.15379" lon="9.073618">
        <ele>1399.8</ele>
        <time>2022-09-12T15:16:58Z</time>
      </trkpt>
      <trkpt lat="42.153837" lon="9.073637">
        <ele>1398.8</ele>
        <time>2022-09-12T15:17:08Z</time>
      </trkpt>
      <trkpt lat="42.153902" lon="9.073653">
        <ele>1397.2</ele>
        <time>2022-09-12T15:17:23Z</time>
      </trkpt>
      <trkpt lat="42.153923" lon="9.07365">
        <ele>1397.2</ele>
        <time>2022-09-12T15:17:27Z</time>
      </trkpt>
      <trkpt lat="42.15408" lon="9.07366">
        <ele>1396.8</ele>
        <time>2022-09-12T15:17:41Z</time>
      </trkpt>
      <trkpt lat="42.15412" lon="9.073732">
        <ele>1396.6</ele>
        <time>2022-09-12T15:17:47Z</time>
      </trkpt>
      <trkpt lat="42.154143" lon="9.073833">
        <ele>1395.2</ele>
        <time>2022-09-12T15:17:54Z</time>
      </trkpt>
      <trkpt lat="42.154153" lon="9.073955">
        <ele>1392.8</ele>
        <time>2022-09-12T15:18:04Z</time>
      </trkpt>
      <trkpt lat="42.154115" lon="9.073972">
        <ele>1392.0</ele>
        <time>2022-09-12T15:18:08Z</time>
      </trkpt>
      <trkpt lat="42.154032" lon="9.073977">
        <ele>1391.4</ele>
        <time>2022-09-12T15:18:14Z</time>
      </trkpt>
      <trkpt lat="42.153937" lon="9.074017">
        <ele>1391.2</ele>
        <time>2022-09-12T15:18:22Z</time>
      </trkpt>
      <trkpt lat="42.153848" lon="9.074057">
        <ele>1390.0</ele>
        <time>2022-09-12T15:18:33Z</time>
      </trkpt>
      <trkpt lat="42.153807" lon="9.074017">
        <ele>1389.2</ele>
        <time>2022-09-12T15:18:43Z</time>
      </trkpt>
      <trkpt lat="42.15379" lon="9.073972">
        <ele>1389.2</ele>
        <time>2022-09-12T15:18:49Z</time>
      </trkpt>
      <trkpt lat="42.153773" lon="9.073942">
        <ele>1389.2</ele>
        <time>2022-09-12T15:18:53Z</time>
      </trkpt>
      <trkpt lat="42.153645" lon="9.073932">
        <ele>1390.6</ele>
        <time>2022-09-12T15:19:03Z</time>
      </trkpt>
      <trkpt lat="42.15358" lon="9.073918">
        <ele>1391.0</ele>
        <time>2022-09-12T15:19:09Z</time>
      </trkpt>
      <trkpt lat="42.153493" lon="9.073965">
        <ele>1391.6</ele>
        <time>2022-09-12T15:19:16Z</time>
      </trkpt>
      <trkpt lat="42.153387" lon="9.07402">
        <ele>1391.6</ele>
        <time>2022-09-12T15:19:25Z</time>
      </trkpt>
      <trkpt lat="42.153362" lon="9.074025">
        <ele>1391.6</ele>
        <time>2022-09-12T15:19:27Z</time>
      </trkpt>
      <trkpt lat="42.153352" lon="9.07402">
        <ele>1391.6</ele>
        <time>2022-09-12T15:19:27Z</time>
      </trkpt>
      <trkpt lat="42.153292" lon="9.073728">
        <ele>1384.8</ele>
        <time>2022-09-13T04:51:15Z</time>
      </trkpt>
      <trkpt lat="42.153223" lon="9.07369">
        <ele>1385.6</ele>
        <time>2022-09-13T04:51:56Z</time>
      </trkpt>
      <trkpt lat="42.153183" lon="9.073615">
        <ele>1386.8</ele>
        <time>2022-09-13T04:52:08Z</time>
      </trkpt>
      <trkpt lat="42.153147" lon="9.07352">
        <ele>1388.0</ele>
        <time>2022-09-13T04:52:17Z</time>
      </trkpt>
      <trkpt lat="42.153117" lon="9.073505">
        <ele>1388.2</ele>
        <time>2022-09-13T04:52:21Z</time>
      </trkpt>
      <trkpt lat="42.153068" lon="9.07353">
        <ele>1389.2</ele>
        <time>2022-09-13T04:52:29Z</time>
      </trkpt>
      <trkpt lat="42.152997" lon="9.073582">
        <ele>1390.2</ele>
        <time>2022-09-13T04:52:41Z</time>
      </trkpt>
      <trkpt lat="42.15299" lon="9.073585">
        <ele>1390.2</ele>
        <time>2022-09-13T04:52:42Z</time>
      </trkpt>
      <trkpt lat="42.152963" lon="9.073573">
        <ele>1390.6</ele>
        <time>2022-09-13T04:52:46Z</time>
      </trkpt>
      <trkpt lat="42.152953" lon="9.073553">
        <ele>1391.0</ele>
        <time>2022-09-13T04:52:49Z</time>
      </trkpt>
      <trkpt lat="42.152967" lon="9.073495">
        <ele>1392.2</ele>
        <time>2022-09-13T04:52:56Z</time>
      </trkpt>
      <trkpt lat="42.152952" lon="9.073425">
        <ele>1393.6</ele>
        <time>2022-09-13T04:53:03Z</time>
      </trkpt>
      <trkpt lat="42.152952" lon="9.073305">
        <ele>1395.4</ele>
        <time>2022-09-13T04:53:16Z</time>
      </trkpt>
      <trkpt lat="42.152953" lon="9.073298">
        <ele>1395.4</ele>
        <time>2022-09-13T04:53:16Z</time>
      </trkpt>
      <trkpt lat="42.153035" lon="9.073307">
        <ele>1396.6</ele>
        <time>2022-09-13T04:53:31Z</time>
      </trkpt>
      <trkpt lat="42.15306" lon="9.073327">
        <ele>1397.4</ele>
        <time>2022-09-13T04:53:39Z</time>
      </trkpt>
      <trkpt lat="42.153088" lon="9.073327">
        <ele>1398.2</ele>
        <time>2022-09-13T04:53:45Z</time>
      </trkpt>
      <trkpt lat="42.153077" lon="9.0733">
        <ele>1398.8</ele>
        <time>2022-09-13T04:53:50Z</time>
      </trkpt>
      <trkpt lat="42.153047" lon="9.073263">
        <ele>1401.2</ele>
        <time>2022-09-13T04:54:13Z</time>
      </trkpt>
      <trkpt lat="42.152972" lon="9.073203">
        <ele>1404.0</ele>
        <time>2022-09-13T04:54:37Z</time>
      </trkpt>
      <trkpt lat="42.15295" lon="9.073195">
        <ele>1405.6</ele>
        <time>2022-09-13T04:55:00Z</time>
      </trkpt>
      <trkpt lat="42.152923" lon="9.073118">
        <ele>1407.8</ele>
        <time>2022-09-13T04:55:17Z</time>
      </trkpt>
      <trkpt lat="42.152902" lon="9.073105">
        <ele>1408.4</ele>
        <time>2022-09-13T04:55:20Z</time>
      </trkpt>
      <trkpt lat="42.15285" lon="9.07308">
        <ele>1409.2</ele>
        <time>2022-09-13T04:55:26Z</time>
      </trkpt>
      <trkpt lat="42.152833" lon="9.073078">
        <ele>1409.6</ele>
        <time>2022-09-13T04:55:28Z</time>
      </trkpt>
      <trkpt lat="42.152767" lon="9.073135">
        <ele>1411.6</ele>
        <time>2022-09-13T04:55:43Z</time>
      </trkpt>
      <trkpt lat="42.152693" lon="9.073183">
        <ele>1413.4</ele>
        <time>2022-09-13T04:55:56Z</time>
      </trkpt>
      <trkpt lat="42.152633" lon="9.073202">
        <ele>1413.8</ele>
        <time>2022-09-13T04:56:03Z</time>
      </trkpt>
      <trkpt lat="42.152608" lon="9.073185">
        <ele>1414.4</ele>
        <time>2022-09-13T04:56:06Z</time>
      </trkpt>
      <trkpt lat="42.15254" lon="9.073193">
        <ele>1415.4</ele>
        <time>2022-09-13T04:56:14Z</time>
      </trkpt>
      <trkpt lat="42.152523" lon="9.073123">
        <ele>1415.4</ele>
        <time>2022-09-13T04:56:20Z</time>
      </trkpt>
      <trkpt lat="42.152505" lon="9.072892">
        <ele>1419.0</ele>
        <time>2022-09-13T04:56:46Z</time>
      </trkpt>
      <trkpt lat="42.152502" lon="9.072885">
        <ele>1419.2</ele>
        <time>2022-09-13T04:56:47Z</time>
      </trkpt>
      <trkpt lat="42.152463" lon="9.072872">
        <ele>1420.2</ele>
        <time>2022-09-13T04:56:54Z</time>
      </trkpt>
      <trkpt lat="42.152375" lon="9.07292">
        <ele>1423.2</ele>
        <time>2022-09-13T04:57:15Z</time>
      </trkpt>
      <trkpt lat="42.152362" lon="9.072933">
        <ele>1423.8</ele>
        <time>2022-09-13T04:57:23Z</time>
      </trkpt>
      <trkpt lat="42.152278" lon="9.072922">
        <ele>1426.0</ele>
        <time>2022-09-13T04:57:41Z</time>
      </trkpt>
      <trkpt lat="42.152225" lon="9.072928">
        <ele>1427.6</ele>
        <time>2022-09-13T04:57:53Z</time>
      </trkpt>
      <trkpt lat="42.152202" lon="9.07292">
        <ele>1428.4</ele>
        <time>2022-09-13T04:57:58Z</time>
      </trkpt>
      <trkpt lat="42.152175" lon="9.072942">
        <ele>1429.4</ele>
        <time>2022-09-13T04:58:09Z</time>
      </trkpt>
      <trkpt lat="42.15215" lon="9.07294">
        <ele>1430.6</ele>
        <time>2022-09-13T04:58:17Z</time>
      </trkpt>
      <trkpt lat="42.152135" lon="9.072912">
        <ele>1430.8</ele>
        <time>2022-09-13T04:58:22Z</time>
      </trkpt>
      <trkpt lat="42.152155" lon="9.072888">
        <ele>1431.4</ele>
        <time>2022-09-13T04:58:25Z</time>
      </trkpt>
      <trkpt lat="42.152118" lon="9.072827">
        <ele>1431.8</ele>
        <time>2022-09-13T04:58:31Z</time>
      </trkpt>
      <trkpt lat="42.152047" lon="9.072783">
        <ele>1432.4</ele>
        <time>2022-09-13T04:58:36Z</time>
      </trkpt>
      <trkpt lat="42.152222" lon="9.072585">
        <ele>1433.6</ele>
        <time>2022-09-13T04:58:55Z</time>
      </trkpt>
      <trkpt lat="42.152305" lon="9.072542">
        <ele>1433.6</ele>
        <time>2022-09-13T04:59:03Z</time>
      </trkpt>
      <trkpt lat="42.152447" lon="9.072403">
        <ele>1435.6</ele>
        <time>2022-09-13T04:59:22Z</time>
      </trkpt>
      <trkpt lat="42.15249" lon="9.072383">
        <ele>1436.4</ele>
        <time>2022-09-13T04:59:27Z</time>
      </trkpt>
      <trkpt lat="42.152578" lon="9.07246">
        <ele>1437.8</ele>
        <time>2022-09-13T05:00:11Z</time>
      </trkpt>
      <trkpt lat="42.152643" lon="9.072488">
        <ele>1438.8</ele>
        <time>2022-09-13T05:00:32Z</time>
      </trkpt>
      <trkpt lat="42.15265" lon="9.072487">
        <ele>1440.6</ele>
        <time>2022-09-13T05:00:48Z</time>
      </trkpt>
      <trkpt lat="42.152658" lon="9.072488">
        <ele>1440.8</ele>
        <time>2022-09-13T05:00:50Z</time>
      </trkpt>
      <trkpt lat="42.152715" lon="9.072427">
        <ele>1442.6</ele>
        <time>2022-09-13T05:00:57Z</time>
      </trkpt>
      <trkpt lat="42.152822" lon="9.072333">
        <ele>1443.6</ele>
        <time>2022-09-13T05:01:05Z</time>
      </trkpt>
      <trkpt lat="42.152872" lon="9.072263">
        <ele>1444.6</ele>
        <time>2022-09-13T05:01:11Z</time>
      </trkpt>
      <trkpt lat="42.152913" lon="9.072177">
        <ele>1445.0</ele>
        <time>2022-09-13T05:01:17Z</time>
      </trkpt>
      <trkpt lat="42.152955" lon="9.072098">
        <ele>1446.0</ele>
        <time>2022-09-13T05:01:23Z</time>
      </trkpt>
      <trkpt lat="42.153007" lon="9.072017">
        <ele>1447.2</ele>
        <time>2022-09-13T05:01:30Z</time>
      </trkpt>
      <trkpt lat="42.153015" lon="9.071992">
        <ele>1447.4</ele>
        <time>2022-09-13T05:01:32Z</time>
      </trkpt>
      <trkpt lat="42.153038" lon="9.071987">
        <ele>1448.4</ele>
        <time>2022-09-13T05:01:43Z</time>
      </trkpt>
      <trkpt lat="42.15307" lon="9.072002">
        <ele>1451.0</ele>
        <time>2022-09-13T05:01:58Z</time>
      </trkpt>
      <trkpt lat="42.153113" lon="9.072063">
        <ele>1453.2</ele>
        <time>2022-09-13T05:02:13Z</time>
      </trkpt>
      <trkpt lat="42.153113" lon="9.07207">
        <ele>1453.6</ele>
        <time>2022-09-13T05:02:14Z</time>
      </trkpt>
      <trkpt lat="42.153225" lon="9.072053">
        <ele>1455.4</ele>
        <time>2022-09-13T05:02:31Z</time>
      </trkpt>
      <trkpt lat="42.15327" lon="9.072025">
        <ele>1456.0</ele>
        <time>2022-09-13T05:02:39Z</time>
      </trkpt>
      <trkpt lat="42.153317" lon="9.071962">
        <ele>1457.2</ele>
        <time>2022-09-13T05:02:46Z</time>
      </trkpt>
      <trkpt lat="42.153363" lon="9.071897">
        <ele>1458.6</ele>
        <time>2022-09-13T05:02:52Z</time>
      </trkpt>
      <trkpt lat="42.153407" lon="9.07186">
        <ele>1458.6</ele>
        <time>2022-09-13T05:02:56Z</time>
      </trkpt>
      <trkpt lat="42.153577" lon="9.07198">
        <ele>1461.8</ele>
        <time>2022-09-13T05:03:26Z</time>
      </trkpt>
      <trkpt lat="42.153597" lon="9.071888">
        <ele>1463.4</ele>
        <time>2022-09-13T05:03:35Z</time>
      </trkpt>
      <trkpt lat="42.153608" lon="9.071852">
        <ele>1464.2</ele>
        <time>2022-09-13T05:03:40Z</time>
      </trkpt>
      <trkpt lat="42.153633" lon="9.071837">
        <ele>1465.4</ele>
        <time>2022-09-13T05:03:48Z</time>
      </trkpt>
      <trkpt lat="42.153633" lon="9.071823">
        <ele>1465.4</ele>
        <time>2022-09-13T05:03:49Z</time>
      </trkpt>
      <trkpt lat="42.153633" lon="9.071753">
        <ele>1466.8</ele>
        <time>2022-09-13T05:03:55Z</time>
      </trkpt>
      <trkpt lat="42.153572" lon="9.071655">
        <ele>1467.8</ele>
        <time>2022-09-13T05:04:30Z</time>
      </trkpt>
      <trkpt lat="42.1535" lon="9.07163">
        <ele>1469.6</ele>
        <time>2022-09-13T05:04:51Z</time>
      </trkpt>
      <trkpt lat="42.153412" lon="9.07156">
        <ele>1469.0</ele>
        <time>2022-09-13T05:05:07Z</time>
      </trkpt>
      <trkpt lat="42.153398" lon="9.071553">
        <ele>1469.2</ele>
        <time>2022-09-13T05:05:08Z</time>
      </trkpt>
      <trkpt lat="42.153363" lon="9.071525">
        <ele>1469.4</ele>
        <time>2022-09-13T05:05:11Z</time>
      </trkpt>
      <trkpt lat="42.153268" lon="9.071427">
        <ele>1470.8</ele>
        <time>2022-09-13T05:05:21Z</time>
      </trkpt>
      <trkpt lat="42.153243" lon="9.07141">
        <ele>1471.0</ele>
        <time>2022-09-13T05:05:23Z</time>
      </trkpt>
      <trkpt lat="42.153163" lon="9.071375">
        <ele>1471.6</ele>
        <time>2022-09-13T05:05:29Z</time>
      </trkpt>
      <trkpt lat="42.153082" lon="9.071307">
        <ele>1472.6</ele>
        <time>2022-09-13T05:05:36Z</time>
      </trkpt>
      <trkpt lat="42.15306" lon="9.071328">
        <ele>1473.0</ele>
        <time>2022-09-13T05:05:39Z</time>
      </trkpt>
      <trkpt lat="42.153025" lon="9.071418">
        <ele>1474.0</ele>
        <time>2022-09-13T05:05:48Z</time>
      </trkpt>
      <trkpt lat="42.152967" lon="9.071473">
        <ele>1475.6</ele>
        <time>2022-09-13T05:06:00Z</time>
      </trkpt>
      <trkpt lat="42.152922" lon="9.071512">
        <ele>1475.4</ele>
        <time>2022-09-13T05:06:10Z</time>
      </trkpt>
      <trkpt lat="42.15279" lon="9.071545">
        <ele>1475.6</ele>
        <time>2022-09-13T05:06:25Z</time>
      </trkpt>
      <trkpt lat="42.152737" lon="9.071527">
        <ele>1475.6</ele>
        <time>2022-09-13T05:06:31Z</time>
      </trkpt>
      <trkpt lat="42.152702" lon="9.071502">
        <ele>1475.8</ele>
        <time>2022-09-13T05:06:37Z</time>
      </trkpt>
      <trkpt lat="42.152522" lon="9.071458">
        <ele>1477.8</ele>
        <time>2022-09-13T05:06:55Z</time>
      </trkpt>
      <trkpt lat="42.152487" lon="9.071467">
        <ele>1478.2</ele>
        <time>2022-09-13T05:07:00Z</time>
      </trkpt>
      <trkpt lat="42.152415" lon="9.071503">
        <ele>1479.2</ele>
        <time>2022-09-13T05:07:10Z</time>
      </trkpt>
      <trkpt lat="42.152335" lon="9.071555">
        <ele>1481.4</ele>
        <time>2022-09-13T05:07:28Z</time>
      </trkpt>
      <trkpt lat="42.152303" lon="9.071547">
        <ele>1482.2</ele>
        <time>2022-09-13T05:07:35Z</time>
      </trkpt>
      <trkpt lat="42.152298" lon="9.071547">
        <ele>1482.4</ele>
        <time>2022-09-13T05:07:36Z</time>
      </trkpt>
      <trkpt lat="42.152183" lon="9.071505">
        <ele>1483.6</ele>
        <time>2022-09-13T05:07:47Z</time>
      </trkpt>
      <trkpt lat="42.152088" lon="9.071347">
        <ele>1486.0</ele>
        <time>2022-09-13T05:08:05Z</time>
      </trkpt>
      <trkpt lat="42.152068" lon="9.071308">
        <ele>1486.8</ele>
        <time>2022-09-13T05:08:11Z</time>
      </trkpt>
      <trkpt lat="42.152048" lon="9.071283">
        <ele>1488.2</ele>
        <time>2022-09-13T05:08:20Z</time>
      </trkpt>
      <trkpt lat="42.152042" lon="9.071253">
        <ele>1489.2</ele>
        <time>2022-09-13T05:08:26Z</time>
      </trkpt>
      <trkpt lat="42.152022" lon="9.071227">
        <ele>1490.2</ele>
        <time>2022-09-13T05:08:30Z</time>
      </trkpt>
      <trkpt lat="42.152008" lon="9.071257">
        <ele>1490.6</ele>
        <time>2022-09-13T05:08:34Z</time>
      </trkpt>
      <trkpt lat="42.151985" lon="9.071287">
        <ele>1491.2</ele>
        <time>2022-09-13T05:08:40Z</time>
      </trkpt>
      <trkpt lat="42.151973" lon="9.071335">
        <ele>1492.0</ele>
        <time>2022-09-13T05:08:46Z</time>
      </trkpt>
      <trkpt lat="42.151955" lon="9.071412">
        <ele>1493.2</ele>
        <time>2022-09-13T05:08:53Z</time>
      </trkpt>
      <trkpt lat="42.15194" lon="9.071447">
        <ele>1493.8</ele>
        <time>2022-09-13T05:08:57Z</time>
      </trkpt>
      <trkpt lat="42.151925" lon="9.07145">
        <ele>1494.4</ele>
        <time>2022-09-13T05:09:03Z</time>
      </trkpt>
      <trkpt lat="42.151935" lon="9.071422">
        <ele>1495.0</ele>
        <time>2022-09-13T05:09:07Z</time>
      </trkpt>
      <trkpt lat="42.151912" lon="9.071365">
        <ele>1495.8</ele>
        <time>2022-09-13T05:09:12Z</time>
      </trkpt>
      <trkpt lat="42.151852" lon="9.071272">
        <ele>1497.2</ele>
        <time>2022-09-13T05:09:22Z</time>
      </trkpt>
      <trkpt lat="42.151848" lon="9.071247">
        <ele>1497.6</ele>
        <time>2022-09-13T05:09:24Z</time>
      </trkpt>
      <trkpt lat="42.151857" lon="9.07115">
        <ele>1498.4</ele>
        <time>2022-09-13T05:09:32Z</time>
      </trkpt>
      <trkpt lat="42.151848" lon="9.071118">
        <ele>1498.8</ele>
        <time>2022-09-13T05:09:35Z</time>
      </trkpt>
      <trkpt lat="42.15176" lon="9.070983">
        <ele>1502.4</ele>
        <time>2022-09-13T05:10:01Z</time>
      </trkpt>
      <trkpt lat="42.151763" lon="9.070948">
        <ele>1502.6</ele>
        <time>2022-09-13T05:10:04Z</time>
      </trkpt>
      <trkpt lat="42.151775" lon="9.070908">
        <ele>1502.8</ele>
        <time>2022-09-13T05:10:07Z</time>
      </trkpt>
      <trkpt lat="42.15178" lon="9.070872">
        <ele>1503.0</ele>
        <time>2022-09-13T05:10:11Z</time>
      </trkpt>
      <trkpt lat="42.151775" lon="9.070852">
        <ele>1503.4</ele>
        <time>2022-09-13T05:10:14Z</time>
      </trkpt>
      <trkpt lat="42.151743" lon="9.070873">
        <ele>1504.6</ele>
        <time>2022-09-13T05:10:21Z</time>
      </trkpt>
      <trkpt lat="42.151673" lon="9.070882">
        <ele>1506.6</ele>
        <time>2022-09-13T05:10:34Z</time>
      </trkpt>
      <trkpt lat="42.151672" lon="9.07078">
        <ele>1508.8</ele>
        <time>2022-09-13T05:10:51Z</time>
      </trkpt>
      <trkpt lat="42.151635" lon="9.070693">
        <ele>1512.0</ele>
        <time>2022-09-13T05:11:08Z</time>
      </trkpt>
      <trkpt lat="42.151625" lon="9.070655">
        <ele>1513.4</ele>
        <time>2022-09-13T05:11:13Z</time>
      </trkpt>
      <trkpt lat="42.151517" lon="9.07055">
        <ele>1518.8</ele>
        <time>2022-09-13T05:11:46Z</time>
      </trkpt>
      <trkpt lat="42.151465" lon="9.070537">
        <ele>1520.4</ele>
        <time>2022-09-13T05:12:03Z</time>
      </trkpt>
      <trkpt lat="42.151462" lon="9.070593">
        <ele>1524.2</ele>
        <time>2022-09-13T05:12:28Z</time>
      </trkpt>
      <trkpt lat="42.151455" lon="9.07064">
        <ele>1527.6</ele>
        <time>2022-09-13T05:12:51Z</time>
      </trkpt>
      <trkpt lat="42.151453" lon="9.07064">
        <ele>1527.6</ele>
        <time>2022-09-13T05:12:52Z</time>
      </trkpt>
      <trkpt lat="42.15136" lon="9.070667">
        <ele>1534.4</ele>
        <time>2022-09-13T05:13:36Z</time>
      </trkpt>
      <trkpt lat="42.151278" lon="9.070668">
        <ele>1539.4</ele>
        <time>2022-09-13T05:14:11Z</time>
      </trkpt>
      <trkpt lat="42.15091" lon="9.070617">
        <ele>1541.0</ele>
        <time>2022-09-13T05:14:21Z</time>
      </trkpt>
      <trkpt lat="42.150772" lon="9.070637">
        <ele>1542.8</ele>
        <time>2022-09-13T05:14:31Z</time>
      </trkpt>
      <trkpt lat="42.150768" lon="9.070612">
        <ele>1542.8</ele>
        <time>2022-09-13T05:14:31Z</time>
      </trkpt>
      <trkpt lat="42.150723" lon="9.07054">
        <ele>1542.8</ele>
        <time>2022-09-13T05:14:32Z</time>
      </trkpt>
      <trkpt lat="42.150627" lon="9.070445">
        <ele>1544.4</ele>
        <time>2022-09-13T05:14:40Z</time>
      </trkpt>
      <trkpt lat="42.15057" lon="9.070447">
        <ele>1545.8</ele>
        <time>2022-09-13T05:14:45Z</time>
      </trkpt>
      <trkpt lat="42.150525" lon="9.070487">
        <ele>1546.2</ele>
        <time>2022-09-13T05:14:50Z</time>
      </trkpt>
      <trkpt lat="42.150305" lon="9.070422">
        <ele>1551.4</ele>
        <time>2022-09-13T05:15:29Z</time>
      </trkpt>
      <trkpt lat="42.15032" lon="9.070478">
        <ele>1553.4</ele>
        <time>2022-09-13T05:15:38Z</time>
      </trkpt>
      <trkpt lat="42.150365" lon="9.070577">
        <ele>1554.6</ele>
        <time>2022-09-13T05:15:50Z</time>
      </trkpt>
      <trkpt lat="42.15033" lon="9.070647">
        <ele>1557.0</ele>
        <time>2022-09-13T05:16:04Z</time>
      </trkpt>
      <trkpt lat="42.150313" lon="9.070777">
        <ele>1560.0</ele>
        <time>2022-09-13T05:16:23Z</time>
      </trkpt>
      <trkpt lat="42.150313" lon="9.070785">
        <ele>1560.0</ele>
        <time>2022-09-13T05:16:24Z</time>
      </trkpt>
      <trkpt lat="42.150287" lon="9.07075">
        <ele>1561.4</ele>
        <time>2022-09-13T05:16:35Z</time>
      </trkpt>
      <trkpt lat="42.150243" lon="9.070708">
        <ele>1562.6</ele>
        <time>2022-09-13T05:16:46Z</time>
      </trkpt>
      <trkpt lat="42.150238" lon="9.07059">
        <ele>1566.4</ele>
        <time>2022-09-13T05:17:06Z</time>
      </trkpt>
      <trkpt lat="42.150205" lon="9.070585">
        <ele>1567.6</ele>
        <time>2022-09-13T05:17:12Z</time>
      </trkpt>
      <trkpt lat="42.150218" lon="9.070475">
        <ele>1570.4</ele>
        <time>2022-09-13T05:17:31Z</time>
      </trkpt>
      <trkpt lat="42.150195" lon="9.070413">
        <ele>1571.2</ele>
        <time>2022-09-13T05:17:36Z</time>
      </trkpt>
      <trkpt lat="42.150058" lon="9.070312">
        <ele>1572.0</ele>
        <time>2022-09-13T05:17:49Z</time>
      </trkpt>
      <trkpt lat="42.15001" lon="9.070288">
        <ele>1573.2</ele>
        <time>2022-09-13T05:17:55Z</time>
      </trkpt>
      <trkpt lat="42.149957" lon="9.070228">
        <ele>1573.6</ele>
        <time>2022-09-13T05:18:02Z</time>
      </trkpt>
      <trkpt lat="42.149883" lon="9.070192">
        <ele>1574.6</ele>
        <time>2022-09-13T05:18:11Z</time>
      </trkpt>
      <trkpt lat="42.149865" lon="9.070193">
        <ele>1575.6</ele>
        <time>2022-09-13T05:18:15Z</time>
      </trkpt>
      <trkpt lat="42.14984" lon="9.07023">
        <ele>1577.2</ele>
        <time>2022-09-13T05:18:22Z</time>
      </trkpt>
      <trkpt lat="42.149835" lon="9.070252">
        <ele>1577.6</ele>
        <time>2022-09-13T05:18:25Z</time>
      </trkpt>
      <trkpt lat="42.149862" lon="9.070322">
        <ele>1579.0</ele>
        <time>2022-09-13T05:18:34Z</time>
      </trkpt>
      <trkpt lat="42.14988" lon="9.070428">
        <ele>1583.0</ele>
        <time>2022-09-13T05:19:01Z</time>
      </trkpt>
      <trkpt lat="42.149895" lon="9.070577">
        <ele>1585.0</ele>
        <time>2022-09-13T05:19:16Z</time>
      </trkpt>
      <trkpt lat="42.149902" lon="9.0706">
        <ele>1585.2</ele>
        <time>2022-09-13T05:19:18Z</time>
      </trkpt>
      <trkpt lat="42.1498" lon="9.07065">
        <ele>1586.6</ele>
        <time>2022-09-13T05:19:34Z</time>
      </trkpt>
      <trkpt lat="42.14965" lon="9.070562">
        <ele>1589.6</ele>
        <time>2022-09-13T05:19:57Z</time>
      </trkpt>
      <trkpt lat="42.14964" lon="9.070562">
        <ele>1590.6</ele>
        <time>2022-09-13T05:19:59Z</time>
      </trkpt>
      <trkpt lat="42.149573" lon="9.070598">
        <ele>1591.8</ele>
        <time>2022-09-13T05:20:08Z</time>
      </trkpt>
      <trkpt lat="42.149498" lon="9.070617">
        <ele>1592.0</ele>
        <time>2022-09-13T05:20:16Z</time>
      </trkpt>
      <trkpt lat="42.149382" lon="9.070728">
        <ele>1592.4</ele>
        <time>2022-09-13T05:20:29Z</time>
      </trkpt>
      <trkpt lat="42.149215" lon="9.070773">
        <ele>1595.6</ele>
        <time>2022-09-13T05:21:13Z</time>
      </trkpt>
      <trkpt lat="42.14921" lon="9.070777">
        <ele>1596.0</ele>
        <time>2022-09-13T05:21:14Z</time>
      </trkpt>
      <trkpt lat="42.149132" lon="9.070807">
        <ele>1596.4</ele>
        <time>2022-09-13T05:21:21Z</time>
      </trkpt>
      <trkpt lat="42.149097" lon="9.070813">
        <ele>1596.4</ele>
        <time>2022-09-13T05:21:23Z</time>
      </trkpt>
      <trkpt lat="42.14883" lon="9.07083">
        <ele>1598.4</ele>
        <time>2022-09-13T05:21:39Z</time>
      </trkpt>
      <trkpt lat="42.14879" lon="9.070877">
        <ele>1599.0</ele>
        <time>2022-09-13T05:21:43Z</time>
      </trkpt>
      <trkpt lat="42.14878" lon="9.070905">
        <ele>1599.4</ele>
        <time>2022-09-13T05:21:45Z</time>
      </trkpt>
      <trkpt lat="42.14878" lon="9.070932">
        <ele>1600.2</ele>
        <time>2022-09-13T05:21:48Z</time>
      </trkpt>
      <trkpt lat="42.148788" lon="9.071005">
        <ele>1601.0</ele>
        <time>2022-09-13T05:21:54Z</time>
      </trkpt>
      <trkpt lat="42.148763" lon="9.07109">
        <ele>1602.2</ele>
        <time>2022-09-13T05:22:01Z</time>
      </trkpt>
      <trkpt lat="42.148758" lon="9.071102">
        <ele>1602.4</ele>
        <time>2022-09-13T05:22:02Z</time>
      </trkpt>
      <trkpt lat="42.148733" lon="9.071205">
        <ele>1605.2</ele>
        <time>2022-09-13T05:22:17Z</time>
      </trkpt>
      <trkpt lat="42.148715" lon="9.07117">
        <ele>1606.8</ele>
        <time>2022-09-13T05:22:30Z</time>
      </trkpt>
      <trkpt lat="42.148727" lon="9.071182">
        <ele>1607.4</ele>
        <time>2022-09-13T05:22:36Z</time>
      </trkpt>
      <trkpt lat="42.148718" lon="9.071183">
        <ele>1608.6</ele>
        <time>2022-09-13T05:22:40Z</time>
      </trkpt>
      <trkpt lat="42.148705" lon="9.071147">
        <ele>1609.8</ele>
        <time>2022-09-13T05:22:48Z</time>
      </trkpt>
      <trkpt lat="42.148672" lon="9.07107">
        <ele>1612.4</ele>
        <time>2022-09-13T05:23:19Z</time>
      </trkpt>
      <trkpt lat="42.148625" lon="9.071023">
        <ele>1614.2</ele>
        <time>2022-09-13T05:23:29Z</time>
      </trkpt>
      <trkpt lat="42.148607" lon="9.07099">
        <ele>1615.4</ele>
        <time>2022-09-13T05:23:35Z</time>
      </trkpt>
      <trkpt lat="42.148542" lon="9.071015">
        <ele>1616.8</ele>
        <time>2022-09-13T05:23:45Z</time>
      </trkpt>
      <trkpt lat="42.148517" lon="9.071013">
        <ele>1617.2</ele>
        <time>2022-09-13T05:23:47Z</time>
      </trkpt>
      <trkpt lat="42.148472" lon="9.07098">
        <ele>1617.8</ele>
        <time>2022-09-13T05:23:51Z</time>
      </trkpt>
      <trkpt lat="42.148423" lon="9.070927">
        <ele>1618.4</ele>
        <time>2022-09-13T05:23:56Z</time>
      </trkpt>
      <trkpt lat="42.148407" lon="9.070882">
        <ele>1618.8</ele>
        <time>2022-09-13T05:23:59Z</time>
      </trkpt>
      <trkpt lat="42.148412" lon="9.070855">
        <ele>1619.2</ele>
        <time>2022-09-13T05:24:01Z</time>
      </trkpt>
      <trkpt lat="42.148427" lon="9.070825">
        <ele>1619.4</ele>
        <time>2022-09-13T05:24:04Z</time>
      </trkpt>
      <trkpt lat="42.148417" lon="9.070863">
        <ele>1619.6</ele>
        <time>2022-09-13T05:24:07Z</time>
      </trkpt>
      <trkpt lat="42.148387" lon="9.071042">
        <ele>1622.8</ele>
        <time>2022-09-13T05:24:28Z</time>
      </trkpt>
      <trkpt lat="42.148327" lon="9.071117">
        <ele>1624.4</ele>
        <time>2022-09-13T05:24:54Z</time>
      </trkpt>
      <trkpt lat="42.14832" lon="9.07123">
        <ele>1629.2</ele>
        <time>2022-09-13T05:25:23Z</time>
      </trkpt>
      <trkpt lat="42.14831" lon="9.071233">
        <ele>1630.4</ele>
        <time>2022-09-13T05:25:28Z</time>
      </trkpt>
      <trkpt lat="42.148247" lon="9.071193">
        <ele>1632.4</ele>
        <time>2022-09-13T05:25:43Z</time>
      </trkpt>
      <trkpt lat="42.14817" lon="9.071212">
        <ele>1636.2</ele>
        <time>2022-09-13T05:26:02Z</time>
      </trkpt>
      <trkpt lat="42.148132" lon="9.071232">
        <ele>1637.0</ele>
        <time>2022-09-13T05:26:10Z</time>
      </trkpt>
      <trkpt lat="42.148103" lon="9.07123">
        <ele>1637.8</ele>
        <time>2022-09-13T05:26:15Z</time>
      </trkpt>
      <trkpt lat="42.148003" lon="9.071323">
        <ele>1640.8</ele>
        <time>2022-09-13T05:26:39Z</time>
      </trkpt>
      <trkpt lat="42.147965" lon="9.071343">
        <ele>1642.0</ele>
        <time>2022-09-13T05:26:46Z</time>
      </trkpt>
      <trkpt lat="42.147828" lon="9.07136">
        <ele>1643.6</ele>
        <time>2022-09-13T05:27:05Z</time>
      </trkpt>
      <trkpt lat="42.147737" lon="9.071373">
        <ele>1645.4</ele>
        <time>2022-09-13T05:27:21Z</time>
      </trkpt>
      <trkpt lat="42.147687" lon="9.071395">
        <ele>1647.0</ele>
        <time>2022-09-13T05:27:30Z</time>
      </trkpt>
      <trkpt lat="42.14763" lon="9.071405">
        <ele>1647.8</ele>
        <time>2022-09-13T05:27:38Z</time>
      </trkpt>
      <trkpt lat="42.1476" lon="9.071422">
        <ele>1648.4</ele>
        <time>2022-09-13T05:27:42Z</time>
      </trkpt>
      <trkpt lat="42.14758" lon="9.071442">
        <ele>1649.0</ele>
        <time>2022-09-13T05:27:47Z</time>
      </trkpt>
      <trkpt lat="42.14741" lon="9.071383">
        <ele>1653.8</ele>
        <time>2022-09-13T05:28:15Z</time>
      </trkpt>
      <trkpt lat="42.147405" lon="9.071385">
        <ele>1653.8</ele>
        <time>2022-09-13T05:28:15Z</time>
      </trkpt>
      <trkpt lat="42.147375" lon="9.071398">
        <ele>1655.0</ele>
        <time>2022-09-13T05:28:26Z</time>
      </trkpt>
      <trkpt lat="42.147368" lon="9.071397">
        <ele>1655.8</ele>
        <time>2022-09-13T05:28:28Z</time>
      </trkpt>
      <trkpt lat="42.147367" lon="9.071463">
        <ele>1659.2</ele>
        <time>2022-09-13T05:28:49Z</time>
      </trkpt>
      <trkpt lat="42.147367" lon="9.07153">
        <ele>1660.8</ele>
        <time>2022-09-13T05:28:58Z</time>
      </trkpt>
      <trkpt lat="42.147367" lon="9.071578">
        <ele>1663.0</ele>
        <time>2022-09-13T05:29:08Z</time>
      </trkpt>
      <trkpt lat="42.147377" lon="9.071648">
        <ele>1665.6</ele>
        <time>2022-09-13T05:29:23Z</time>
      </trkpt>
      <trkpt lat="42.147375" lon="9.071645">
        <ele>1666.0</ele>
        <time>2022-09-13T05:29:24Z</time>
      </trkpt>
      <trkpt lat="42.147358" lon="9.071682">
        <ele>1667.6</ele>
        <time>2022-09-13T05:29:30Z</time>
      </trkpt>
      <trkpt lat="42.147362" lon="9.071727">
        <ele>1668.0</ele>
        <time>2022-09-13T05:29:34Z</time>
      </trkpt>
      <trkpt lat="42.147365" lon="9.071748">
        <ele>1668.4</ele>
        <time>2022-09-13T05:29:36Z</time>
      </trkpt>
      <trkpt lat="42.1474" lon="9.071815">
        <ele>1669.6</ele>
        <time>2022-09-13T05:29:45Z</time>
      </trkpt>
      <trkpt lat="42.147373" lon="9.071812">
        <ele>1670.2</ele>
        <time>2022-09-13T05:29:49Z</time>
      </trkpt>
      <trkpt lat="42.147355" lon="9.071807">
        <ele>1670.8</ele>
        <time>2022-09-13T05:29:52Z</time>
      </trkpt>
      <trkpt lat="42.14733" lon="9.071827">
        <ele>1671.8</ele>
        <time>2022-09-13T05:29:57Z</time>
      </trkpt>
      <trkpt lat="42.14731" lon="9.071883">
        <ele>1672.4</ele>
        <time>2022-09-13T05:30:05Z</time>
      </trkpt>
      <trkpt lat="42.14723" lon="9.071898">
        <ele>1675.8</ele>
        <time>2022-09-13T05:30:19Z</time>
      </trkpt>
      <trkpt lat="42.14722" lon="9.071913">
        <ele>1676.4</ele>
        <time>2022-09-13T05:30:25Z</time>
      </trkpt>
      <trkpt lat="42.147235" lon="9.071937">
        <ele>1677.4</ele>
        <time>2022-09-13T05:30:36Z</time>
      </trkpt>
      <trkpt lat="42.147242" lon="9.071943">
        <ele>1677.4</ele>
        <time>2022-09-13T05:30:37Z</time>
      </trkpt>
      <trkpt lat="42.147222" lon="9.07197">
        <ele>1678.8</ele>
        <time>2022-09-13T05:30:44Z</time>
      </trkpt>
      <trkpt lat="42.147173" lon="9.071967">
        <ele>1681.0</ele>
        <time>2022-09-13T05:30:54Z</time>
      </trkpt>
      <trkpt lat="42.147168" lon="9.071968">
        <ele>1681.0</ele>
        <time>2022-09-13T05:30:55Z</time>
      </trkpt>
      <trkpt lat="42.147082" lon="9.07201">
        <ele>1684.0</ele>
        <time>2022-09-13T05:31:13Z</time>
      </trkpt>
      <trkpt lat="42.147108" lon="9.07202">
        <ele>1688.4</ele>
        <time>2022-09-13T05:31:35Z</time>
      </trkpt>
      <trkpt lat="42.147035" lon="9.07203">
        <ele>1691.2</ele>
        <time>2022-09-13T05:31:53Z</time>
      </trkpt>
      <trkpt lat="42.147032" lon="9.072027">
        <ele>1691.6</ele>
        <time>2022-09-13T05:31:54Z</time>
      </trkpt>
      <trkpt lat="42.146968" lon="9.071998">
        <ele>1692.8</ele>
        <time>2022-09-13T05:32:04Z</time>
      </trkpt>
      <trkpt lat="42.14693" lon="9.071997">
        <ele>1694.0</ele>
        <time>2022-09-13T05:32:10Z</time>
      </trkpt>
      <trkpt lat="42.14687" lon="9.072015">
        <ele>1694.8</ele>
        <time>2022-09-13T05:32:16Z</time>
      </trkpt>
      <trkpt lat="42.146837" lon="9.072032">
        <ele>1695.0</ele>
        <time>2022-09-13T05:32:20Z</time>
      </trkpt>
      <trkpt lat="42.146808" lon="9.07207">
        <ele>1695.8</ele>
        <time>2022-09-13T05:32:26Z</time>
      </trkpt>
      <trkpt lat="42.14676" lon="9.072092">
        <ele>1698.6</ele>
        <time>2022-09-13T05:32:37Z</time>
      </trkpt>
      <trkpt lat="42.146735" lon="9.072135">
        <ele>1699.0</ele>
        <time>2022-09-13T05:32:46Z</time>
      </trkpt>
      <trkpt lat="42.146737" lon="9.072185">
        <ele>1700.2</ele>
        <time>2022-09-13T05:32:55Z</time>
      </trkpt>
      <trkpt lat="42.146727" lon="9.072197">
        <ele>1700.8</ele>
        <time>2022-09-13T05:32:58Z</time>
      </trkpt>
      <trkpt lat="42.146648" lon="9.072215">
        <ele>1704.4</ele>
        <time>2022-09-13T05:33:16Z</time>
      </trkpt>
      <trkpt lat="42.146643" lon="9.072222">
        <ele>1704.8</ele>
        <time>2022-09-13T05:33:17Z</time>
      </trkpt>
      <trkpt lat="42.146638" lon="9.072257">
        <ele>1706.4</ele>
        <time>2022-09-13T05:33:33Z</time>
      </trkpt>
      <trkpt lat="42.14659" lon="9.072253">
        <ele>1708.2</ele>
        <time>2022-09-13T05:33:43Z</time>
      </trkpt>
      <trkpt lat="42.146587" lon="9.072257">
        <ele>1708.2</ele>
        <time>2022-09-13T05:33:44Z</time>
      </trkpt>
      <trkpt lat="42.146592" lon="9.07232">
        <ele>1708.8</ele>
        <time>2022-09-13T05:33:50Z</time>
      </trkpt>
      <trkpt lat="42.146667" lon="9.072413">
        <ele>1712.6</ele>
        <time>2022-09-13T05:34:14Z</time>
      </trkpt>
      <trkpt lat="42.146667" lon="9.072417">
        <ele>1712.8</ele>
        <time>2022-09-13T05:34:16Z</time>
      </trkpt>
      <trkpt lat="42.146637" lon="9.072423">
        <ele>1715.2</ele>
        <time>2022-09-13T05:34:26Z</time>
      </trkpt>
      <trkpt lat="42.1466" lon="9.072415">
        <ele>1716.8</ele>
        <time>2022-09-13T05:34:36Z</time>
      </trkpt>
      <trkpt lat="42.146558" lon="9.072443">
        <ele>1718.2</ele>
        <time>2022-09-13T05:34:49Z</time>
      </trkpt>
      <trkpt lat="42.146522" lon="9.072483">
        <ele>1720.2</ele>
        <time>2022-09-13T05:35:03Z</time>
      </trkpt>
      <trkpt lat="42.146518" lon="9.072488">
        <ele>1720.2</ele>
        <time>2022-09-13T05:35:07Z</time>
      </trkpt>
      <trkpt lat="42.146498" lon="9.072508">
        <ele>1722.4</ele>
        <time>2022-09-13T05:35:15Z</time>
      </trkpt>
      <trkpt lat="42.146493" lon="9.072558">
        <ele>1723.0</ele>
        <time>2022-09-13T05:35:23Z</time>
      </trkpt>
      <trkpt lat="42.146458" lon="9.072582">
        <ele>1724.4</ele>
        <time>2022-09-13T05:35:32Z</time>
      </trkpt>
      <trkpt lat="42.146433" lon="9.072645">
        <ele>1726.0</ele>
        <time>2022-09-13T05:35:44Z</time>
      </trkpt>
      <trkpt lat="42.146402" lon="9.072662">
        <ele>1727.2</ele>
        <time>2022-09-13T05:35:52Z</time>
      </trkpt>
      <trkpt lat="42.146377" lon="9.072662">
        <ele>1728.2</ele>
        <time>2022-09-13T05:36:00Z</time>
      </trkpt>
      <trkpt lat="42.146342" lon="9.07268">
        <ele>1729.4</ele>
        <time>2022-09-13T05:36:07Z</time>
      </trkpt>
      <trkpt lat="42.14632" lon="9.072683">
        <ele>1730.0</ele>
        <time>2022-09-13T05:36:10Z</time>
      </trkpt>
      <trkpt lat="42.146285" lon="9.07266">
        <ele>1730.6</ele>
        <time>2022-09-13T05:36:16Z</time>
      </trkpt>
      <trkpt lat="42.14626" lon="9.072668">
        <ele>1732.6</ele>
        <time>2022-09-13T05:36:23Z</time>
      </trkpt>
      <trkpt lat="42.146238" lon="9.072683">
        <ele>1734.2</ele>
        <time>2022-09-13T05:36:34Z</time>
      </trkpt>
      <trkpt lat="42.146252" lon="9.072763">
        <ele>1735.8</ele>
        <time>2022-09-13T05:36:49Z</time>
      </trkpt>
      <trkpt lat="42.146218" lon="9.072797">
        <ele>1736.6</ele>
        <time>2022-09-13T05:37:00Z</time>
      </trkpt>
      <trkpt lat="42.146175" lon="9.072823">
        <ele>1739.0</ele>
        <time>2022-09-13T05:37:13Z</time>
      </trkpt>
      <trkpt lat="42.146177" lon="9.072875">
        <ele>1739.6</ele>
        <time>2022-09-13T05:37:23Z</time>
      </trkpt>
      <trkpt lat="42.14618" lon="9.07291">
        <ele>1740.4</ele>
        <time>2022-09-13T05:37:28Z</time>
      </trkpt>
      <trkpt lat="42.146212" lon="9.072915">
        <ele>1743.2</ele>
        <time>2022-09-13T05:37:40Z</time>
      </trkpt>
      <trkpt lat="42.146128" lon="9.072922">
        <ele>1745.8</ele>
        <time>2022-09-13T05:37:56Z</time>
      </trkpt>
      <trkpt lat="42.146072" lon="9.072912">
        <ele>1746.4</ele>
        <time>2022-09-13T05:38:00Z</time>
      </trkpt>
      <trkpt lat="42.146058" lon="9.072852">
        <ele>1747.2</ele>
        <time>2022-09-13T05:38:07Z</time>
      </trkpt>
      <trkpt lat="42.146022" lon="9.072875">
        <ele>1752.0</ele>
        <time>2022-09-13T05:38:39Z</time>
      </trkpt>
      <trkpt lat="42.14602" lon="9.072877">
        <ele>1752.2</ele>
        <time>2022-09-13T05:38:40Z</time>
      </trkpt>
      <trkpt lat="42.145978" lon="9.07286">
        <ele>1754.0</ele>
        <time>2022-09-13T05:38:52Z</time>
      </trkpt>
      <trkpt lat="42.145955" lon="9.072895">
        <ele>1754.8</ele>
        <time>2022-09-13T05:38:58Z</time>
      </trkpt>
      <trkpt lat="42.145933" lon="9.072942">
        <ele>1755.2</ele>
        <time>2022-09-13T05:39:09Z</time>
      </trkpt>
      <trkpt lat="42.1459" lon="9.072862">
        <ele>1758.0</ele>
        <time>2022-09-13T05:39:26Z</time>
      </trkpt>
      <trkpt lat="42.145887" lon="9.072878">
        <ele>1758.4</ele>
        <time>2022-09-13T05:39:28Z</time>
      </trkpt>
      <trkpt lat="42.145915" lon="9.072968">
        <ele>1759.2</ele>
        <time>2022-09-13T05:39:36Z</time>
      </trkpt>
      <trkpt lat="42.145918" lon="9.073">
        <ele>1759.8</ele>
        <time>2022-09-13T05:39:39Z</time>
      </trkpt>
      <trkpt lat="42.145907" lon="9.073065">
        <ele>1761.6</ele>
        <time>2022-09-13T05:39:48Z</time>
      </trkpt>
      <trkpt lat="42.145865" lon="9.073082">
        <ele>1763.4</ele>
        <time>2022-09-13T05:39:54Z</time>
      </trkpt>
      <trkpt lat="42.145743" lon="9.073078">
        <ele>1764.8</ele>
        <time>2022-09-13T05:40:12Z</time>
      </trkpt>
      <trkpt lat="42.14573" lon="9.073078">
        <ele>1764.8</ele>
        <time>2022-09-13T05:40:14Z</time>
      </trkpt>
      <trkpt lat="42.145717" lon="9.073108">
        <ele>1764.8</ele>
        <time>2022-09-13T05:40:18Z</time>
      </trkpt>
      <trkpt lat="42.145727" lon="9.073167">
        <ele>1765.2</ele>
        <time>2022-09-13T05:40:26Z</time>
      </trkpt>
      <trkpt lat="42.145685" lon="9.073223">
        <ele>1767.0</ele>
        <time>2022-09-13T05:40:37Z</time>
      </trkpt>
      <trkpt lat="42.145598" lon="9.07316">
        <ele>1773.0</ele>
        <time>2022-09-13T05:41:15Z</time>
      </trkpt>
      <trkpt lat="42.145528" lon="9.073088">
        <ele>1775.8</ele>
        <time>2022-09-13T05:41:33Z</time>
      </trkpt>
      <trkpt lat="42.145503" lon="9.073095">
        <ele>1776.6</ele>
        <time>2022-09-13T05:41:43Z</time>
      </trkpt>
      <trkpt lat="42.145458" lon="9.073082">
        <ele>1779.6</ele>
        <time>2022-09-13T05:42:02Z</time>
      </trkpt>
      <trkpt lat="42.145448" lon="9.073057">
        <ele>1779.8</ele>
        <time>2022-09-13T05:42:06Z</time>
      </trkpt>
      <trkpt lat="42.14546" lon="9.07301">
        <ele>1780.6</ele>
        <time>2022-09-13T05:42:12Z</time>
      </trkpt>
      <trkpt lat="42.145452" lon="9.072973">
        <ele>1781.6</ele>
        <time>2022-09-13T05:42:19Z</time>
      </trkpt>
      <trkpt lat="42.14543" lon="9.072887">
        <ele>1784.4</ele>
        <time>2022-09-13T05:42:38Z</time>
      </trkpt>
      <trkpt lat="42.145428" lon="9.07284">
        <ele>1785.2</ele>
        <time>2022-09-13T05:42:44Z</time>
      </trkpt>
      <trkpt lat="42.145395" lon="9.072822">
        <ele>1786.0</ele>
        <time>2022-09-13T05:42:48Z</time>
      </trkpt>
      <trkpt lat="42.14531" lon="9.072822">
        <ele>1787.6</ele>
        <time>2022-09-13T05:42:56Z</time>
      </trkpt>
      <trkpt lat="42.145267" lon="9.07284">
        <ele>1788.0</ele>
        <time>2022-09-13T05:43:00Z</time>
      </trkpt>
      <trkpt lat="42.145263" lon="9.072927">
        <ele>1789.0</ele>
        <time>2022-09-13T05:43:08Z</time>
      </trkpt>
      <trkpt lat="42.145227" lon="9.072933">
        <ele>1791.0</ele>
        <time>2022-09-13T05:43:22Z</time>
      </trkpt>
      <trkpt lat="42.145215" lon="9.072967">
        <ele>1792.8</ele>
        <time>2022-09-13T05:43:28Z</time>
      </trkpt>
      <trkpt lat="42.14518" lon="9.07301">
        <ele>1794.2</ele>
        <time>2022-09-13T05:43:37Z</time>
      </trkpt>
      <trkpt lat="42.14512" lon="9.073057">
        <ele>1796.2</ele>
        <time>2022-09-13T05:43:46Z</time>
      </trkpt>
      <trkpt lat="42.145085" lon="9.073142">
        <ele>1797.2</ele>
        <time>2022-09-13T05:43:54Z</time>
      </trkpt>
      <trkpt lat="42.14502" lon="9.073173">
        <ele>1799.4</ele>
        <time>2022-09-13T05:44:04Z</time>
      </trkpt>
      <trkpt lat="42.145013" lon="9.073172">
        <ele>1799.4</ele>
        <time>2022-09-13T05:44:05Z</time>
      </trkpt>
      <trkpt lat="42.14498" lon="9.073132">
        <ele>1800.4</ele>
        <time>2022-09-13T05:44:12Z</time>
      </trkpt>
      <trkpt lat="42.14491" lon="9.073015">
        <ele>1803.8</ele>
        <time>2022-09-13T05:44:28Z</time>
      </trkpt>
      <trkpt lat="42.144802" lon="9.072948">
        <ele>1805.8</ele>
        <time>2022-09-13T05:44:40Z</time>
      </trkpt>
      <trkpt lat="42.144787" lon="9.072952">
        <ele>1806.6</ele>
        <time>2022-09-13T05:44:42Z</time>
      </trkpt>
      <trkpt lat="42.144725" lon="9.072985">
        <ele>1807.0</ele>
        <time>2022-09-13T05:44:46Z</time>
      </trkpt>
      <trkpt lat="42.144745" lon="9.073117">
        <ele>1807.4</ele>
        <time>2022-09-13T05:44:54Z</time>
      </trkpt>
      <trkpt lat="42.144717" lon="9.073165">
        <ele>1809.6</ele>
        <time>2022-09-13T05:45:06Z</time>
      </trkpt>
      <trkpt lat="42.144687" lon="9.073193">
        <ele>1810.4</ele>
        <time>2022-09-13T05:45:13Z</time>
      </trkpt>
      <trkpt lat="42.144675" lon="9.073208">
        <ele>1811.8</ele>
        <time>2022-09-13T05:45:23Z</time>
      </trkpt>
      <trkpt lat="42.14467" lon="9.073223">
        <ele>1813.6</ele>
        <time>2022-09-13T05:45:31Z</time>
      </trkpt>
      <trkpt lat="42.144668" lon="9.073227">
        <ele>1813.6</ele>
        <time>2022-09-13T05:45:33Z</time>
      </trkpt>
      <trkpt lat="42.14463" lon="9.073213">
        <ele>1813.8</ele>
        <time>2022-09-13T05:45:42Z</time>
      </trkpt>
      <trkpt lat="42.144597" lon="9.073198">
        <ele>1814.6</ele>
        <time>2022-09-13T05:45:49Z</time>
      </trkpt>
      <trkpt lat="42.14455" lon="9.073157">
        <ele>1815.4</ele>
        <time>2022-09-13T05:45:59Z</time>
      </trkpt>
      <trkpt lat="42.144425" lon="9.07314">
        <ele>1819.8</ele>
        <time>2022-09-13T05:46:29Z</time>
      </trkpt>
      <trkpt lat="42.144425" lon="9.073142">
        <ele>1820.0</ele>
        <time>2022-09-13T05:46:30Z</time>
      </trkpt>
      <trkpt lat="42.14437" lon="9.073235">
        <ele>1822.0</ele>
        <time>2022-09-13T05:46:47Z</time>
      </trkpt>
      <trkpt lat="42.144337" lon="9.073287">
        <ele>1824.0</ele>
        <time>2022-09-13T05:46:57Z</time>
      </trkpt>
      <trkpt lat="42.144307" lon="9.0733">
        <ele>1824.8</ele>
        <time>2022-09-13T05:47:03Z</time>
      </trkpt>
      <trkpt lat="42.144218" lon="9.073343">
        <ele>1826.4</ele>
        <time>2022-09-13T05:47:15Z</time>
      </trkpt>
      <trkpt lat="42.144182" lon="9.073342">
        <ele>1827.4</ele>
        <time>2022-09-13T05:47:20Z</time>
      </trkpt>
      <trkpt lat="42.144137" lon="9.073388">
        <ele>1829.2</ele>
        <time>2022-09-13T05:47:28Z</time>
      </trkpt>
      <trkpt lat="42.144027" lon="9.07345">
        <ele>1830.8</ele>
        <time>2022-09-13T05:47:43Z</time>
      </trkpt>
      <trkpt lat="42.14402" lon="9.073453">
        <ele>1831.4</ele>
        <time>2022-09-13T05:47:46Z</time>
      </trkpt>
      <trkpt lat="42.143777" lon="9.07359">
        <ele>1832.8</ele>
        <time>2022-09-13T05:48:13Z</time>
      </trkpt>
      <trkpt lat="42.143738" lon="9.07358">
        <ele>1834.2</ele>
        <time>2022-09-13T05:48:17Z</time>
      </trkpt>
      <trkpt lat="42.143703" lon="9.07356">
        <ele>1835.4</ele>
        <time>2022-09-13T05:48:21Z</time>
      </trkpt>
      <trkpt lat="42.143665" lon="9.073557">
        <ele>1834.0</ele>
        <time>2022-09-13T05:48:26Z</time>
      </trkpt>
      <trkpt lat="42.143563" lon="9.073625">
        <ele>1831.2</ele>
        <time>2022-09-13T05:48:43Z</time>
      </trkpt>
      <trkpt lat="42.143497" lon="9.073612">
        <ele>1830.0</ele>
        <time>2022-09-13T05:48:52Z</time>
      </trkpt>
      <trkpt lat="42.143457" lon="9.073622">
        <ele>1830.6</ele>
        <time>2022-09-13T05:48:56Z</time>
      </trkpt>
      <trkpt lat="42.143383" lon="9.073655">
        <ele>1831.0</ele>
        <time>2022-09-13T05:49:04Z</time>
      </trkpt>
      <trkpt lat="42.143282" lon="9.07366">
        <ele>1831.2</ele>
        <time>2022-09-13T05:49:16Z</time>
      </trkpt>
      <trkpt lat="42.14327" lon="9.073675">
        <ele>1831.8</ele>
        <time>2022-09-13T05:49:19Z</time>
      </trkpt>
      <trkpt lat="42.143062" lon="9.073657">
        <ele>1835.0</ele>
        <time>2022-09-13T05:49:55Z</time>
      </trkpt>
      <trkpt lat="42.143007" lon="9.073597">
        <ele>1836.0</ele>
        <time>2022-09-13T05:50:07Z</time>
      </trkpt>
      <trkpt lat="42.14292" lon="9.073533">
        <ele>1838.4</ele>
        <time>2022-09-13T05:50:23Z</time>
      </trkpt>
      <trkpt lat="42.1429" lon="9.073533">
        <ele>1839.0</ele>
        <time>2022-09-13T05:50:26Z</time>
      </trkpt>
      <trkpt lat="42.142725" lon="9.07355">
        <ele>1841.6</ele>
        <time>2022-09-13T05:50:46Z</time>
      </trkpt>
      <trkpt lat="42.142682" lon="9.073635">
        <ele>1843.8</ele>
        <time>2022-09-13T05:50:54Z</time>
      </trkpt>
      <trkpt lat="42.142615" lon="9.073838">
        <ele>1846.0</ele>
        <time>2022-09-13T05:51:09Z</time>
      </trkpt>
      <trkpt lat="42.142607" lon="9.07384">
        <ele>1846.4</ele>
        <time>2022-09-13T05:51:10Z</time>
      </trkpt>
      <trkpt lat="42.142567" lon="9.073865">
        <ele>1847.0</ele>
        <time>2022-09-13T05:51:15Z</time>
      </trkpt>
      <trkpt lat="42.1425" lon="9.07395">
        <ele>1849.0</ele>
        <time>2022-09-13T05:51:27Z</time>
      </trkpt>
      <trkpt lat="42.142463" lon="9.074008">
        <ele>1851.2</ele>
        <time>2022-09-13T05:51:34Z</time>
      </trkpt>
      <trkpt lat="42.142428" lon="9.074078">
        <ele>1851.8</ele>
        <time>2022-09-13T05:51:47Z</time>
      </trkpt>
      <trkpt lat="42.142423" lon="9.074083">
        <ele>1852.6</ele>
        <time>2022-09-13T05:51:48Z</time>
      </trkpt>
      <trkpt lat="42.142412" lon="9.074103">
        <ele>1852.0</ele>
        <time>2022-09-13T05:51:56Z</time>
      </trkpt>
      <trkpt lat="42.142365" lon="9.074118">
        <ele>1854.6</ele>
        <time>2022-09-13T05:52:10Z</time>
      </trkpt>
      <trkpt lat="42.142342" lon="9.074163">
        <ele>1855.2</ele>
        <time>2022-09-13T05:52:17Z</time>
      </trkpt>
      <trkpt lat="42.142303" lon="9.074162">
        <ele>1856.2</ele>
        <time>2022-09-13T05:52:24Z</time>
      </trkpt>
      <trkpt lat="42.142233" lon="9.074127">
        <ele>1857.2</ele>
        <time>2022-09-13T05:52:37Z</time>
      </trkpt>
      <trkpt lat="42.142152" lon="9.07413">
        <ele>1859.6</ele>
        <time>2022-09-13T05:52:54Z</time>
      </trkpt>
      <trkpt lat="42.142143" lon="9.074125">
        <ele>1859.6</ele>
        <time>2022-09-13T05:52:56Z</time>
      </trkpt>
      <trkpt lat="42.142108" lon="9.074105">
        <ele>1859.8</ele>
        <time>2022-09-13T05:53:00Z</time>
      </trkpt>
      <trkpt lat="42.142085" lon="9.074127">
        <ele>1860.4</ele>
        <time>2022-09-13T05:53:03Z</time>
      </trkpt>
      <trkpt lat="42.142077" lon="9.074177">
        <ele>1861.6</ele>
        <time>2022-09-13T05:53:08Z</time>
      </trkpt>
      <trkpt lat="42.14205" lon="9.074198">
        <ele>1862.4</ele>
        <time>2022-09-13T05:53:12Z</time>
      </trkpt>
      <trkpt lat="42.142015" lon="9.074207">
        <ele>1863.8</ele>
        <time>2022-09-13T05:53:18Z</time>
      </trkpt>
      <trkpt lat="42.14201" lon="9.074212">
        <ele>1864.2</ele>
        <time>2022-09-13T05:53:19Z</time>
      </trkpt>
      <trkpt lat="42.141997" lon="9.07424">
        <ele>1864.4</ele>
        <time>2022-09-13T05:53:23Z</time>
      </trkpt>
      <trkpt lat="42.141987" lon="9.074312">
        <ele>1865.6</ele>
        <time>2022-09-13T05:53:38Z</time>
      </trkpt>
      <trkpt lat="42.141967" lon="9.074337">
        <ele>1867.2</ele>
        <time>2022-09-13T05:53:49Z</time>
      </trkpt>
      <trkpt lat="42.141952" lon="9.074402">
        <ele>1868.4</ele>
        <time>2022-09-13T05:53:58Z</time>
      </trkpt>
      <trkpt lat="42.141948" lon="9.074442">
        <ele>1869.4</ele>
        <time>2022-09-13T05:54:01Z</time>
      </trkpt>
      <trkpt lat="42.141947" lon="9.0745">
        <ele>1870.4</ele>
        <time>2022-09-13T05:54:05Z</time>
      </trkpt>
      <trkpt lat="42.141912" lon="9.074568">
        <ele>1871.6</ele>
        <time>2022-09-13T05:54:10Z</time>
      </trkpt>
      <trkpt lat="42.141883" lon="9.074577">
        <ele>1872.4</ele>
        <time>2022-09-13T05:54:13Z</time>
      </trkpt>
      <trkpt lat="42.141858" lon="9.074542">
        <ele>1873.4</ele>
        <time>2022-09-13T05:54:19Z</time>
      </trkpt>
      <trkpt lat="42.141847" lon="9.074515">
        <ele>1874.0</ele>
        <time>2022-09-13T05:54:22Z</time>
      </trkpt>
      <trkpt lat="42.141775" lon="9.07444">
        <ele>1875.8</ele>
        <time>2022-09-13T05:54:34Z</time>
      </trkpt>
      <trkpt lat="42.14173" lon="9.074408">
        <ele>1877.4</ele>
        <time>2022-09-13T05:54:47Z</time>
      </trkpt>
      <trkpt lat="42.141718" lon="9.07438">
        <ele>1878.0</ele>
        <time>2022-09-13T05:54:54Z</time>
      </trkpt>
      <trkpt lat="42.141663" lon="9.074425">
        <ele>1879.6</ele>
        <time>2022-09-13T05:55:03Z</time>
      </trkpt>
      <trkpt lat="42.14161" lon="9.07436">
        <ele>1883.2</ele>
        <time>2022-09-13T05:55:24Z</time>
      </trkpt>
      <trkpt lat="42.141542" lon="9.074358">
        <ele>1884.2</ele>
        <time>2022-09-13T05:55:35Z</time>
      </trkpt>
      <trkpt lat="42.141498" lon="9.074392">
        <ele>1884.8</ele>
        <time>2022-09-13T05:55:43Z</time>
      </trkpt>
      <trkpt lat="42.141488" lon="9.074402">
        <ele>1885.2</ele>
        <time>2022-09-13T05:55:45Z</time>
      </trkpt>
      <trkpt lat="42.141417" lon="9.074383">
        <ele>1886.2</ele>
        <time>2022-09-13T05:55:56Z</time>
      </trkpt>
      <trkpt lat="42.141348" lon="9.07437">
        <ele>1887.2</ele>
        <time>2022-09-13T05:56:03Z</time>
      </trkpt>
      <trkpt lat="42.141293" lon="9.074387">
        <ele>1887.6</ele>
        <time>2022-09-13T05:56:10Z</time>
      </trkpt>
      <trkpt lat="42.141242" lon="9.074462">
        <ele>1888.4</ele>
        <time>2022-09-13T05:56:20Z</time>
      </trkpt>
      <trkpt lat="42.141238" lon="9.074472">
        <ele>1888.4</ele>
        <time>2022-09-13T05:56:21Z</time>
      </trkpt>
      <trkpt lat="42.141222" lon="9.074608">
        <ele>1891.2</ele>
        <time>2022-09-13T05:56:36Z</time>
      </trkpt>
      <trkpt lat="42.141245" lon="9.074642">
        <ele>1892.2</ele>
        <time>2022-09-13T05:56:41Z</time>
      </trkpt>
      <trkpt lat="42.14124" lon="9.07469">
        <ele>1893.2</ele>
        <time>2022-09-13T05:56:46Z</time>
      </trkpt>
      <trkpt lat="42.141218" lon="9.074717">
        <ele>1894.0</ele>
        <time>2022-09-13T05:56:50Z</time>
      </trkpt>
      <trkpt lat="42.141183" lon="9.074733">
        <ele>1895.8</ele>
        <time>2022-09-13T05:56:55Z</time>
      </trkpt>
      <trkpt lat="42.141177" lon="9.074728">
        <ele>1896.0</ele>
        <time>2022-09-13T05:56:57Z</time>
      </trkpt>
      <trkpt lat="42.141105" lon="9.074718">
        <ele>1899.4</ele>
        <time>2022-09-13T05:57:21Z</time>
      </trkpt>
      <trkpt lat="42.141073" lon="9.074707">
        <ele>1900.2</ele>
        <time>2022-09-13T05:57:28Z</time>
      </trkpt>
      <trkpt lat="42.141023" lon="9.07469">
        <ele>1901.2</ele>
        <time>2022-09-13T05:57:36Z</time>
      </trkpt>
      <trkpt lat="42.140963" lon="9.074687">
        <ele>1902.2</ele>
        <time>2022-09-13T05:57:44Z</time>
      </trkpt>
      <trkpt lat="42.140933" lon="9.074718">
        <ele>1902.8</ele>
        <time>2022-09-13T05:57:49Z</time>
      </trkpt>
      <trkpt lat="42.140895" lon="9.074763">
        <ele>1903.2</ele>
        <time>2022-09-13T05:57:54Z</time>
      </trkpt>
      <trkpt lat="42.140845" lon="9.074773">
        <ele>1905.0</ele>
        <time>2022-09-13T05:58:02Z</time>
      </trkpt>
      <trkpt lat="42.140813" lon="9.074768">
        <ele>1905.0</ele>
        <time>2022-09-13T05:58:06Z</time>
      </trkpt>
      <trkpt lat="42.140707" lon="9.074785">
        <ele>1906.4</ele>
        <time>2022-09-13T05:58:14Z</time>
      </trkpt>
      <trkpt lat="42.140668" lon="9.074798">
        <ele>1907.0</ele>
        <time>2022-09-13T05:58:18Z</time>
      </trkpt>
      <trkpt lat="42.140602" lon="9.074902">
        <ele>1907.8</ele>
        <time>2022-09-13T05:58:30Z</time>
      </trkpt>
      <trkpt lat="42.1406" lon="9.074893">
        <ele>1912.6</ele>
        <time>2022-09-13T05:59:10Z</time>
      </trkpt>
      <trkpt lat="42.140493" lon="9.074925">
        <ele>1915.6</ele>
        <time>2022-09-13T05:59:27Z</time>
      </trkpt>
      <trkpt lat="42.140443" lon="9.074933">
        <ele>1918.8</ele>
        <time>2022-09-13T05:59:44Z</time>
      </trkpt>
      <trkpt lat="42.140295" lon="9.07496">
        <ele>1923.0</ele>
        <time>2022-09-13T06:00:13Z</time>
      </trkpt>
      <trkpt lat="42.140278" lon="9.074972">
        <ele>1923.2</ele>
        <time>2022-09-13T06:00:16Z</time>
      </trkpt>
      <trkpt lat="42.1402" lon="9.075088">
        <ele>1926.2</ele>
        <time>2022-09-13T06:00:37Z</time>
      </trkpt>
      <trkpt lat="42.140165" lon="9.075113">
        <ele>1927.8</ele>
        <time>2022-09-13T06:00:45Z</time>
      </trkpt>
      <trkpt lat="42.140148" lon="9.075178">
        <ele>1930.6</ele>
        <time>2022-09-13T06:01:08Z</time>
      </trkpt>
      <trkpt lat="42.140145" lon="9.075177">
        <ele>1931.2</ele>
        <time>2022-09-13T06:01:11Z</time>
      </trkpt>
      <trkpt lat="42.140115" lon="9.075165">
        <ele>1932.6</ele>
        <time>2022-09-13T06:01:18Z</time>
      </trkpt>
      <trkpt lat="42.140095" lon="9.075185">
        <ele>1932.6</ele>
        <time>2022-09-13T06:01:23Z</time>
      </trkpt>
      <trkpt lat="42.140072" lon="9.075238">
        <ele>1935.0</ele>
        <time>2022-09-13T06:01:42Z</time>
      </trkpt>
      <trkpt lat="42.140042" lon="9.075223">
        <ele>1936.8</ele>
        <time>2022-09-13T06:01:49Z</time>
      </trkpt>
      <trkpt lat="42.140028" lon="9.075248">
        <ele>1937.6</ele>
        <time>2022-09-13T06:01:55Z</time>
      </trkpt>
      <trkpt lat="42.140025" lon="9.07526">
        <ele>1937.8</ele>
        <time>2022-09-13T06:01:57Z</time>
      </trkpt>
      <trkpt lat="42.140018" lon="9.075293">
        <ele>1938.4</ele>
        <time>2022-09-13T06:02:02Z</time>
      </trkpt>
      <trkpt lat="42.139993" lon="9.075327">
        <ele>1940.0</ele>
        <time>2022-09-13T06:02:09Z</time>
      </trkpt>
      <trkpt lat="42.139965" lon="9.07536">
        <ele>1941.6</ele>
        <time>2022-09-13T06:02:16Z</time>
      </trkpt>
      <trkpt lat="42.139917" lon="9.075388">
        <ele>1943.2</ele>
        <time>2022-09-13T06:02:32Z</time>
      </trkpt>
      <trkpt lat="42.139887" lon="9.07537">
        <ele>1943.8</ele>
        <time>2022-09-13T06:02:40Z</time>
      </trkpt>
      <trkpt lat="42.139855" lon="9.075298">
        <ele>1943.6</ele>
        <time>2022-09-13T06:02:50Z</time>
      </trkpt>
      <trkpt lat="42.139797" lon="9.075277">
        <ele>1944.2</ele>
        <time>2022-09-13T06:02:57Z</time>
      </trkpt>
      <trkpt lat="42.139775" lon="9.075288">
        <ele>1944.6</ele>
        <time>2022-09-13T06:03:00Z</time>
      </trkpt>
      <trkpt lat="42.139728" lon="9.07536">
        <ele>1945.2</ele>
        <time>2022-09-13T06:03:10Z</time>
      </trkpt>
      <trkpt lat="42.13972" lon="9.075405">
        <ele>1947.0</ele>
        <time>2022-09-13T06:03:23Z</time>
      </trkpt>
      <trkpt lat="42.139715" lon="9.075403">
        <ele>1947.8</ele>
        <time>2022-09-13T06:03:25Z</time>
      </trkpt>
      <trkpt lat="42.139658" lon="9.07539">
        <ele>1949.2</ele>
        <time>2022-09-13T06:03:40Z</time>
      </trkpt>
      <trkpt lat="42.139625" lon="9.075415">
        <ele>1949.4</ele>
        <time>2022-09-13T06:03:48Z</time>
      </trkpt>
      <trkpt lat="42.139618" lon="9.075472">
        <ele>1951.6</ele>
        <time>2022-09-13T06:04:06Z</time>
      </trkpt>
      <trkpt lat="42.1396" lon="9.075497">
        <ele>1953.0</ele>
        <time>2022-09-13T06:04:13Z</time>
      </trkpt>
      <trkpt lat="42.139567" lon="9.075508">
        <ele>1953.6</ele>
        <time>2022-09-13T06:04:18Z</time>
      </trkpt>
      <trkpt lat="42.139463" lon="9.075483">
        <ele>1954.8</ele>
        <time>2022-09-13T06:04:30Z</time>
      </trkpt>
      <trkpt lat="42.139435" lon="9.07549">
        <ele>1954.8</ele>
        <time>2022-09-13T06:04:33Z</time>
      </trkpt>
      <trkpt lat="42.139405" lon="9.075498">
        <ele>1955.0</ele>
        <time>2022-09-13T06:04:38Z</time>
      </trkpt>
      <trkpt lat="42.139363" lon="9.075532">
        <ele>1955.6</ele>
        <time>2022-09-13T06:04:45Z</time>
      </trkpt>
      <trkpt lat="42.139347" lon="9.075567">
        <ele>1955.8</ele>
        <time>2022-09-13T06:04:50Z</time>
      </trkpt>
      <trkpt lat="42.139318" lon="9.075615">
        <ele>1957.4</ele>
        <time>2022-09-13T06:05:00Z</time>
      </trkpt>
      <trkpt lat="42.139298" lon="9.075605">
        <ele>1957.6</ele>
        <time>2022-09-13T06:05:04Z</time>
      </trkpt>
      <trkpt lat="42.139287" lon="9.07559">
        <ele>1959.0</ele>
        <time>2022-09-13T06:05:09Z</time>
      </trkpt>
      <trkpt lat="42.139255" lon="9.075582">
        <ele>1960.4</ele>
        <time>2022-09-13T06:05:21Z</time>
      </trkpt>
      <trkpt lat="42.139218" lon="9.075543">
        <ele>1963.0</ele>
        <time>2022-09-13T06:05:33Z</time>
      </trkpt>
      <trkpt lat="42.139188" lon="9.075522">
        <ele>1964.2</ele>
        <time>2022-09-13T06:05:42Z</time>
      </trkpt>
      <trkpt lat="42.139082" lon="9.075597">
        <ele>1969.8</ele>
        <time>2022-09-13T06:06:29Z</time>
      </trkpt>
      <trkpt lat="42.139053" lon="9.075638">
        <ele>1971.6</ele>
        <time>2022-09-13T06:06:39Z</time>
      </trkpt>
      <trkpt lat="42.138985" lon="9.075727">
        <ele>1974.2</ele>
        <time>2022-09-13T06:06:54Z</time>
      </trkpt>
      <trkpt lat="42.138953" lon="9.07577">
        <ele>1974.4</ele>
        <time>2022-09-13T06:06:58Z</time>
      </trkpt>
      <trkpt lat="42.138862" lon="9.075738">
        <ele>1975.6</ele>
        <time>2022-09-13T06:07:11Z</time>
      </trkpt>
      <trkpt lat="42.13881" lon="9.075745">
        <ele>1975.4</ele>
        <time>2022-09-13T06:07:22Z</time>
      </trkpt>
      <trkpt lat="42.138773" lon="9.075682">
        <ele>1975.8</ele>
        <time>2022-09-13T06:07:35Z</time>
      </trkpt>
      <trkpt lat="42.13871" lon="9.075597">
        <ele>1977.0</ele>
        <time>2022-09-13T06:07:50Z</time>
      </trkpt>
      <trkpt lat="42.138668" lon="9.0756">
        <ele>1978.0</ele>
        <time>2022-09-13T06:07:56Z</time>
      </trkpt>
      <trkpt lat="42.138602" lon="9.07565">
        <ele>1980.0</ele>
        <time>2022-09-13T06:08:06Z</time>
      </trkpt>
      <trkpt lat="42.138572" lon="9.075663">
        <ele>1981.0</ele>
        <time>2022-09-13T06:08:10Z</time>
      </trkpt>
      <trkpt lat="42.138495" lon="9.075738">
        <ele>1984.0</ele>
        <time>2022-09-13T06:08:28Z</time>
      </trkpt>
      <trkpt lat="42.13849" lon="9.075743">
        <ele>1984.8</ele>
        <time>2022-09-13T06:08:30Z</time>
      </trkpt>
      <trkpt lat="42.138473" lon="9.075717">
        <ele>1987.4</ele>
        <time>2022-09-13T06:08:44Z</time>
      </trkpt>
      <trkpt lat="42.138457" lon="9.075725">
        <ele>1989.4</ele>
        <time>2022-09-13T06:08:55Z</time>
      </trkpt>
      <trkpt lat="42.138367" lon="9.075655">
        <ele>1991.8</ele>
        <time>2022-09-13T06:09:09Z</time>
      </trkpt>
      <trkpt lat="42.13829" lon="9.075625">
        <ele>1993.2</ele>
        <time>2022-09-13T06:09:18Z</time>
      </trkpt>
      <trkpt lat="42.138193" lon="9.075698">
        <ele>1995.0</ele>
        <time>2022-09-13T06:09:30Z</time>
      </trkpt>
      <trkpt lat="42.13814" lon="9.075735">
        <ele>1995.8</ele>
        <time>2022-09-13T06:09:37Z</time>
      </trkpt>
      <trkpt lat="42.138132" lon="9.075778">
        <ele>1996.4</ele>
        <time>2022-09-13T06:09:41Z</time>
      </trkpt>
      <trkpt lat="42.138132" lon="9.07579">
        <ele>1996.4</ele>
        <time>2022-09-13T06:09:42Z</time>
      </trkpt>
      <trkpt lat="42.138112" lon="9.075817">
        <ele>1997.8</ele>
        <time>2022-09-13T06:09:54Z</time>
      </trkpt>
      <trkpt lat="42.138087" lon="9.07583">
        <ele>1999.4</ele>
        <time>2022-09-13T06:10:02Z</time>
      </trkpt>
      <trkpt lat="42.138068" lon="9.075865">
        <ele>2000.4</ele>
        <time>2022-09-13T06:10:10Z</time>
      </trkpt>
      <trkpt lat="42.13807" lon="9.07593">
        <ele>2001.6</ele>
        <time>2022-09-13T06:10:20Z</time>
      </trkpt>
      <trkpt lat="42.13807" lon="9.075967">
        <ele>2002.0</ele>
        <time>2022-09-13T06:10:25Z</time>
      </trkpt>
      <trkpt lat="42.138053" lon="9.075983">
        <ele>2002.8</ele>
        <time>2022-09-13T06:10:30Z</time>
      </trkpt>
      <trkpt lat="42.137985" lon="9.076005">
        <ele>2005.0</ele>
        <time>2022-09-13T06:10:50Z</time>
      </trkpt>
      <trkpt lat="42.137982" lon="9.076002">
        <ele>2005.0</ele>
        <time>2022-09-13T06:10:51Z</time>
      </trkpt>
      <trkpt lat="42.13798" lon="9.076003">
        <ele>2005.4</ele>
        <time>2022-09-13T06:10:53Z</time>
      </trkpt>
      <trkpt lat="42.137932" lon="9.075905">
        <ele>2007.8</ele>
        <time>2022-09-13T06:11:10Z</time>
      </trkpt>
      <trkpt lat="42.137905" lon="9.075787">
        <ele>2008.8</ele>
        <time>2022-09-13T06:11:26Z</time>
      </trkpt>
      <trkpt lat="42.1379" lon="9.075755">
        <ele>2008.8</ele>
        <time>2022-09-13T06:11:28Z</time>
      </trkpt>
      <trkpt lat="42.137883" lon="9.075722">
        <ele>2008.2</ele>
        <time>2022-09-13T06:11:34Z</time>
      </trkpt>
      <trkpt lat="42.13786" lon="9.075723">
        <ele>2007.8</ele>
        <time>2022-09-13T06:11:39Z</time>
      </trkpt>
      <trkpt lat="42.137825" lon="9.075753">
        <ele>2008.6</ele>
        <time>2022-09-13T06:11:47Z</time>
      </trkpt>
      <trkpt lat="42.13778" lon="9.075722">
        <ele>2011.4</ele>
        <time>2022-09-13T06:11:58Z</time>
      </trkpt>
      <trkpt lat="42.137748" lon="9.07569">
        <ele>2013.4</ele>
        <time>2022-09-13T06:12:06Z</time>
      </trkpt>
      <trkpt lat="42.137723" lon="9.075712">
        <ele>2015.2</ele>
        <time>2022-09-13T06:12:15Z</time>
      </trkpt>
      <trkpt lat="42.137703" lon="9.075745">
        <ele>2014.6</ele>
        <time>2022-09-13T06:12:39Z</time>
      </trkpt>
      <trkpt lat="42.137648" lon="9.075762">
        <ele>2015.2</ele>
        <time>2022-09-13T06:12:59Z</time>
      </trkpt>
      <trkpt lat="42.137645" lon="9.075773">
        <ele>2015.2</ele>
        <time>2022-09-13T06:13:03Z</time>
      </trkpt>
      <trkpt lat="42.137633" lon="9.075795">
        <ele>2016.2</ele>
        <time>2022-09-13T06:13:08Z</time>
      </trkpt>
      <trkpt lat="42.137598" lon="9.07582">
        <ele>2017.4</ele>
        <time>2022-09-13T06:13:14Z</time>
      </trkpt>
      <trkpt lat="42.137633" lon="9.075917">
        <ele>2020.2</ele>
        <time>2022-09-13T06:13:29Z</time>
      </trkpt>
      <trkpt lat="42.137618" lon="9.07595">
        <ele>2021.0</ele>
        <time>2022-09-13T06:13:34Z</time>
      </trkpt>
      <trkpt lat="42.13759" lon="9.075975">
        <ele>2022.4</ele>
        <time>2022-09-13T06:13:42Z</time>
      </trkpt>
      <trkpt lat="42.137572" lon="9.075965">
        <ele>2023.2</ele>
        <time>2022-09-13T06:13:47Z</time>
      </trkpt>
      <trkpt lat="42.137567" lon="9.075987">
        <ele>2023.8</ele>
        <time>2022-09-13T06:13:51Z</time>
      </trkpt>
      <trkpt lat="42.137572" lon="9.07605">
        <ele>2027.0</ele>
        <time>2022-09-13T06:14:12Z</time>
      </trkpt>
      <trkpt lat="42.137568" lon="9.076055">
        <ele>2027.8</ele>
        <time>2022-09-13T06:14:16Z</time>
      </trkpt>
      <trkpt lat="42.137537" lon="9.076152">
        <ele>2029.4</ele>
        <time>2022-09-13T06:14:30Z</time>
      </trkpt>
      <trkpt lat="42.137527" lon="9.076148">
        <ele>2030.2</ele>
        <time>2022-09-13T06:14:37Z</time>
      </trkpt>
      <trkpt lat="42.137515" lon="9.076145">
        <ele>2031.6</ele>
        <time>2022-09-13T06:14:48Z</time>
      </trkpt>
      <trkpt lat="42.137457" lon="9.076092">
        <ele>2034.0</ele>
        <time>2022-09-13T06:15:03Z</time>
      </trkpt>
      <trkpt lat="42.137405" lon="9.076068">
        <ele>2037.4</ele>
        <time>2022-09-13T06:15:26Z</time>
      </trkpt>
      <trkpt lat="42.137367" lon="9.076067">
        <ele>2039.6</ele>
        <time>2022-09-13T06:15:38Z</time>
      </trkpt>
      <trkpt lat="42.137333" lon="9.07601">
        <ele>2042.0</ele>
        <time>2022-09-13T06:15:52Z</time>
      </trkpt>
      <trkpt lat="42.13735" lon="9.075998">
        <ele>2042.6</ele>
        <time>2022-09-13T06:15:55Z</time>
      </trkpt>
      <trkpt lat="42.137388" lon="9.075958">
        <ele>2043.2</ele>
        <time>2022-09-13T06:16:02Z</time>
      </trkpt>
      <trkpt lat="42.13741" lon="9.075952">
        <ele>2043.4</ele>
        <time>2022-09-13T06:16:05Z</time>
      </trkpt>
      <trkpt lat="42.137427" lon="9.075995">
        <ele>2045.0</ele>
        <time>2022-09-13T06:16:12Z</time>
      </trkpt>
      <trkpt lat="42.137497" lon="9.076173">
        <ele>2049.2</ele>
        <time>2022-09-13T06:16:37Z</time>
      </trkpt>
      <trkpt lat="42.137485" lon="9.076165">
        <ele>2049.6</ele>
        <time>2022-09-13T06:16:38Z</time>
      </trkpt>
      <trkpt lat="42.137445" lon="9.07614">
        <ele>2050.0</ele>
        <time>2022-09-13T06:16:41Z</time>
      </trkpt>
      <trkpt lat="42.137332" lon="9.076197">
        <ele>2051.6</ele>
        <time>2022-09-13T06:16:56Z</time>
      </trkpt>
      <trkpt lat="42.137252" lon="9.076167">
        <ele>2054.8</ele>
        <time>2022-09-13T06:17:16Z</time>
      </trkpt>
      <trkpt lat="42.13721" lon="9.076175">
        <ele>2055.6</ele>
        <time>2022-09-13T06:17:23Z</time>
      </trkpt>
      <trkpt lat="42.137152" lon="9.076117">
        <ele>2056.2</ele>
        <time>2022-09-13T06:17:31Z</time>
      </trkpt>
      <trkpt lat="42.137083" lon="9.076093">
        <ele>2057.0</ele>
        <time>2022-09-13T06:17:38Z</time>
      </trkpt>
      <trkpt lat="42.137005" lon="9.076072">
        <ele>2057.8</ele>
        <time>2022-09-13T06:17:45Z</time>
      </trkpt>
      <trkpt lat="42.136952" lon="9.076135">
        <ele>2059.4</ele>
        <time>2022-09-13T06:17:58Z</time>
      </trkpt>
      <trkpt lat="42.136905" lon="9.076213">
        <ele>2064.6</ele>
        <time>2022-09-13T06:18:29Z</time>
      </trkpt>
      <trkpt lat="42.136922" lon="9.076262">
        <ele>2066.4</ele>
        <time>2022-09-13T06:18:39Z</time>
      </trkpt>
      <trkpt lat="42.136928" lon="9.076298">
        <ele>2068.0</ele>
        <time>2022-09-13T06:18:47Z</time>
      </trkpt>
      <trkpt lat="42.136985" lon="9.076382">
        <ele>2071.2</ele>
        <time>2022-09-13T06:19:04Z</time>
      </trkpt>
      <trkpt lat="42.136985" lon="9.076387">
        <ele>2071.2</ele>
        <time>2022-09-13T06:19:06Z</time>
      </trkpt>
      <trkpt lat="42.136968" lon="9.076392">
        <ele>2072.8</ele>
        <time>2022-09-13T06:19:13Z</time>
      </trkpt>
      <trkpt lat="42.136957" lon="9.076388">
        <ele>2074.0</ele>
        <time>2022-09-13T06:19:18Z</time>
      </trkpt>
      <trkpt lat="42.13695" lon="9.076455">
        <ele>2075.2</ele>
        <time>2022-09-13T06:19:28Z</time>
      </trkpt>
      <trkpt lat="42.13694" lon="9.076468">
        <ele>2076.8</ele>
        <time>2022-09-13T06:19:35Z</time>
      </trkpt>
      <trkpt lat="42.136905" lon="9.076478">
        <ele>2078.0</ele>
        <time>2022-09-13T06:19:42Z</time>
      </trkpt>
      <trkpt lat="42.136887" lon="9.076515">
        <ele>2078.4</ele>
        <time>2022-09-13T06:19:46Z</time>
      </trkpt>
      <trkpt lat="42.136897" lon="9.07654">
        <ele>2078.8</ele>
        <time>2022-09-13T06:19:48Z</time>
      </trkpt>
      <trkpt lat="42.136937" lon="9.076562">
        <ele>2080.2</ele>
        <time>2022-09-13T06:19:58Z</time>
      </trkpt>
      <trkpt lat="42.13693" lon="9.076583">
        <ele>2080.8</ele>
        <time>2022-09-13T06:20:04Z</time>
      </trkpt>
      <trkpt lat="42.136918" lon="9.0766">
        <ele>2082.2</ele>
        <time>2022-09-13T06:20:09Z</time>
      </trkpt>
      <trkpt lat="42.136948" lon="9.076637">
        <ele>2083.2</ele>
        <time>2022-09-13T06:20:16Z</time>
      </trkpt>
      <trkpt lat="42.136933" lon="9.076665">
        <ele>2084.4</ele>
        <time>2022-09-13T06:20:22Z</time>
      </trkpt>
      <trkpt lat="42.136917" lon="9.076677">
        <ele>2085.4</ele>
        <time>2022-09-13T06:20:26Z</time>
      </trkpt>
      <trkpt lat="42.136908" lon="9.076717">
        <ele>2086.6</ele>
        <time>2022-09-13T06:20:32Z</time>
      </trkpt>
      <trkpt lat="42.136927" lon="9.076732">
        <ele>2087.2</ele>
        <time>2022-09-13T06:20:39Z</time>
      </trkpt>
      <trkpt lat="42.137035" lon="9.076797">
        <ele>2090.0</ele>
        <time>2022-09-13T06:20:56Z</time>
      </trkpt>
      <trkpt lat="42.137038" lon="9.076803">
        <ele>2090.0</ele>
        <time>2022-09-13T06:20:56Z</time>
      </trkpt>
      <trkpt lat="42.137042" lon="9.076843">
        <ele>2090.6</ele>
        <time>2022-09-13T06:21:02Z</time>
      </trkpt>
      <trkpt lat="42.13699" lon="9.076853">
        <ele>2094.8</ele>
        <time>2022-09-13T06:21:27Z</time>
      </trkpt>
      <trkpt lat="42.13696" lon="9.076872">
        <ele>2096.2</ele>
        <time>2022-09-13T06:21:35Z</time>
      </trkpt>
      <trkpt lat="42.136922" lon="9.076928">
        <ele>2098.4</ele>
        <time>2022-09-13T06:21:45Z</time>
      </trkpt>
      <trkpt lat="42.136918" lon="9.076957">
        <ele>2099.6</ele>
        <time>2022-09-13T06:21:54Z</time>
      </trkpt>
      <trkpt lat="42.136893" lon="9.07699">
        <ele>2101.6</ele>
        <time>2022-09-13T06:22:04Z</time>
      </trkpt>
      <trkpt lat="42.136838" lon="9.077005">
        <ele>2102.2</ele>
        <time>2022-09-13T06:22:14Z</time>
      </trkpt>
      <trkpt lat="42.136823" lon="9.077012">
        <ele>2102.2</ele>
        <time>2022-09-13T06:22:19Z</time>
      </trkpt>
      <trkpt lat="42.1368" lon="9.077147">
        <ele>2104.6</ele>
        <time>2022-09-13T06:22:40Z</time>
      </trkpt>
      <trkpt lat="42.136752" lon="9.07718">
        <ele>2104.8</ele>
        <time>2022-09-13T06:22:48Z</time>
      </trkpt>
      <trkpt lat="42.136735" lon="9.077175">
        <ele>2104.8</ele>
        <time>2022-09-13T06:22:50Z</time>
      </trkpt>
      <trkpt lat="42.136753" lon="9.077185">
        <ele>2105.0</ele>
        <time>2022-09-13T06:22:54Z</time>
      </trkpt>
      <trkpt lat="42.136788" lon="9.077155">
        <ele>2105.2</ele>
        <time>2022-09-13T06:23:07Z</time>
      </trkpt>
      <trkpt lat="42.136817" lon="9.077003">
        <ele>2104.6</ele>
        <time>2022-09-13T06:24:28Z</time>
      </trkpt>
      <trkpt lat="42.137002" lon="9.076128">
        <ele>2104.0</ele>
        <time>2022-09-13T06:29:15Z</time>
      </trkpt>
      <trkpt lat="42.137057" lon="9.076325">
        <ele>2104.2</ele>
        <time>2022-09-13T06:29:33Z</time>
      </trkpt>
      <trkpt lat="42.137045" lon="9.076582">
        <ele>2105.2</ele>
        <time>2022-09-13T06:30:00Z</time>
      </trkpt>
      <trkpt lat="42.136918" lon="9.076837">
        <ele>2104.8</ele>
        <time>2022-09-13T06:30:26Z</time>
      </trkpt>
      <trkpt lat="42.136828" lon="9.077087">
        <ele>2105.0</ele>
        <time>2022-09-13T06:30:48Z</time>
      </trkpt>
      <trkpt lat="42.136687" lon="9.079162">
        <ele>2043.4</ele>
        <time>2022-09-13T07:01:04Z</time>
      </trkpt>
      <trkpt lat="42.136673" lon="9.079192">
        <ele>2043.2</ele>
        <time>2022-09-13T07:01:07Z</time>
      </trkpt>
      <trkpt lat="42.136698" lon="9.079237">
        <ele>2043.2</ele>
        <time>2022-09-13T07:01:11Z</time>
      </trkpt>
      <trkpt lat="42.13676" lon="9.079328">
        <ele>2044.0</ele>
        <time>2022-09-13T07:01:20Z</time>
      </trkpt>
      <trkpt lat="42.136773" lon="9.079383">
        <ele>2045.2</ele>
        <time>2022-09-13T07:01:25Z</time>
      </trkpt>
      <trkpt lat="42.136778" lon="9.079432">
        <ele>2045.4</ele>
        <time>2022-09-13T07:01:30Z</time>
      </trkpt>
      <trkpt lat="42.136783" lon="9.079477">
        <ele>2045.2</ele>
        <time>2022-09-13T07:01:35Z</time>
      </trkpt>
      <trkpt lat="42.136792" lon="9.079505">
        <ele>2044.8</ele>
        <time>2022-09-13T07:01:38Z</time>
      </trkpt>
      <trkpt lat="42.136778" lon="9.079393">
        <ele>2043.0</ele>
        <time>2022-09-13T07:01:53Z</time>
      </trkpt>
      <trkpt lat="42.136918" lon="9.079372">
        <ele>2042.6</ele>
        <time>2022-09-13T07:02:04Z</time>
      </trkpt>
      <trkpt lat="42.136742" lon="9.079848">
        <ele>2042.4</ele>
        <time>2022-09-13T07:02:17Z</time>
      </trkpt>
      <trkpt lat="42.136818" lon="9.079837">
        <ele>2042.8</ele>
        <time>2022-09-13T07:02:28Z</time>
      </trkpt>
      <trkpt lat="42.136845" lon="9.079972">
        <ele>2043.0</ele>
        <time>2022-09-13T07:02:29Z</time>
      </trkpt>
      <trkpt lat="42.136835" lon="9.08002">
        <ele>2043.4</ele>
        <time>2022-09-13T07:02:32Z</time>
      </trkpt>
      <trkpt lat="42.136793" lon="9.080118">
        <ele>2043.0</ele>
        <time>2022-09-13T07:02:39Z</time>
      </trkpt>
      <trkpt lat="42.136827" lon="9.080218">
        <ele>2042.6</ele>
        <time>2022-09-13T07:02:47Z</time>
      </trkpt>
      <trkpt lat="42.13683" lon="9.080322">
        <ele>2042.4</ele>
        <time>2022-09-13T07:02:54Z</time>
      </trkpt>
      <trkpt lat="42.136828" lon="9.080418">
        <ele>2041.6</ele>
        <time>2022-09-13T07:03:01Z</time>
      </trkpt>
      <trkpt lat="42.13685" lon="9.080493">
        <ele>2041.0</ele>
        <time>2022-09-13T07:03:07Z</time>
      </trkpt>
      <trkpt lat="42.13689" lon="9.080538">
        <ele>2040.6</ele>
        <time>2022-09-13T07:03:12Z</time>
      </trkpt>
      <trkpt lat="42.13694" lon="9.080563">
        <ele>2040.6</ele>
        <time>2022-09-13T07:03:18Z</time>
      </trkpt>
      <trkpt lat="42.137027" lon="9.0806">
        <ele>2041.8</ele>
        <time>2022-09-13T07:03:26Z</time>
      </trkpt>
      <trkpt lat="42.137083" lon="9.080703">
        <ele>2041.8</ele>
        <time>2022-09-13T07:03:35Z</time>
      </trkpt>
      <trkpt lat="42.137202" lon="9.080867">
        <ele>2042.2</ele>
        <time>2022-09-13T07:03:51Z</time>
      </trkpt>
      <trkpt lat="42.137197" lon="9.08088">
        <ele>2042.2</ele>
        <time>2022-09-13T07:03:52Z</time>
      </trkpt>
      <trkpt lat="42.137148" lon="9.080947">
        <ele>2042.8</ele>
        <time>2022-09-13T07:04:08Z</time>
      </trkpt>
      <trkpt lat="42.137093" lon="9.080993">
        <ele>2039.8</ele>
        <time>2022-09-13T07:04:21Z</time>
      </trkpt>
      <trkpt lat="42.137028" lon="9.08103">
        <ele>2035.8</ele>
        <time>2022-09-13T07:04:47Z</time>
      </trkpt>
      <trkpt lat="42.136937" lon="9.081095">
        <ele>2028.4</ele>
        <time>2022-09-13T07:05:24Z</time>
      </trkpt>
      <trkpt lat="42.13699" lon="9.08121">
        <ele>2024.8</ele>
        <time>2022-09-13T07:05:42Z</time>
      </trkpt>
      <trkpt lat="42.137028" lon="9.081325">
        <ele>2023.8</ele>
        <time>2022-09-13T07:05:51Z</time>
      </trkpt>
      <trkpt lat="42.137033" lon="9.081545">
        <ele>2021.2</ele>
        <time>2022-09-13T07:06:02Z</time>
      </trkpt>
      <trkpt lat="42.137062" lon="9.081697">
        <ele>2018.6</ele>
        <time>2022-09-13T07:06:10Z</time>
      </trkpt>
      <trkpt lat="42.137135" lon="9.081882">
        <ele>2017.2</ele>
        <time>2022-09-13T07:06:22Z</time>
      </trkpt>
      <trkpt lat="42.13714" lon="9.081895">
        <ele>2017.2</ele>
        <time>2022-09-13T07:06:23Z</time>
      </trkpt>
      <trkpt lat="42.137172" lon="9.081992">
        <ele>2017.2</ele>
        <time>2022-09-13T07:06:32Z</time>
      </trkpt>
      <trkpt lat="42.137258" lon="9.082288">
        <ele>2016.4</ele>
        <time>2022-09-13T07:06:53Z</time>
      </trkpt>
      <trkpt lat="42.137305" lon="9.082437">
        <ele>2016.6</ele>
        <time>2022-09-13T07:07:05Z</time>
      </trkpt>
      <trkpt lat="42.137305" lon="9.082478">
        <ele>2016.2</ele>
        <time>2022-09-13T07:07:08Z</time>
      </trkpt>
      <trkpt lat="42.137338" lon="9.082395">
        <ele>2016.0</ele>
        <time>2022-09-13T07:07:17Z</time>
      </trkpt>
      <trkpt lat="42.137475" lon="9.08219">
        <ele>2013.6</ele>
        <time>2022-09-13T07:07:45Z</time>
      </trkpt>
      <trkpt lat="42.137527" lon="9.082135">
        <ele>2012.4</ele>
        <time>2022-09-13T07:07:58Z</time>
      </trkpt>
      <trkpt lat="42.13753" lon="9.08213">
        <ele>2012.4</ele>
        <time>2022-09-13T07:07:58Z</time>
      </trkpt>
      <trkpt lat="42.137463" lon="9.082247">
        <ele>2011.0</ele>
        <time>2022-09-13T07:08:05Z</time>
      </trkpt>
      <trkpt lat="42.137397" lon="9.08233">
        <ele>2010.2</ele>
        <time>2022-09-13T07:08:11Z</time>
      </trkpt>
      <trkpt lat="42.137355" lon="9.08239">
        <ele>2008.8</ele>
        <time>2022-09-13T07:08:17Z</time>
      </trkpt>
      <trkpt lat="42.137315" lon="9.08248">
        <ele>2008.2</ele>
        <time>2022-09-13T07:08:22Z</time>
      </trkpt>
      <trkpt lat="42.137063" lon="9.083185">
        <ele>2006.0</ele>
        <time>2022-09-13T07:09:14Z</time>
      </trkpt>
      <trkpt lat="42.137097" lon="9.083192">
        <ele>2006.0</ele>
        <time>2022-09-13T07:09:34Z</time>
      </trkpt>
      <trkpt lat="42.137172" lon="9.083217">
        <ele>2008.0</ele>
        <time>2022-09-13T07:10:32Z</time>
      </trkpt>
      <trkpt lat="42.137185" lon="9.083267">
        <ele>2010.2</ele>
        <time>2022-09-13T07:10:55Z</time>
      </trkpt>
      <trkpt lat="42.137227" lon="9.083318">
        <ele>2010.2</ele>
        <time>2022-09-13T07:11:01Z</time>
      </trkpt>
      <trkpt lat="42.137235" lon="9.083367">
        <ele>2009.0</ele>
        <time>2022-09-13T07:11:06Z</time>
      </trkpt>
      <trkpt lat="42.137228" lon="9.083397">
        <ele>2008.8</ele>
        <time>2022-09-13T07:11:08Z</time>
      </trkpt>
      <trkpt lat="42.137205" lon="9.083423">
        <ele>2008.4</ele>
        <time>2022-09-13T07:11:11Z</time>
      </trkpt>
      <trkpt lat="42.1372" lon="9.083535">
        <ele>2006.8</ele>
        <time>2022-09-13T07:11:19Z</time>
      </trkpt>
      <trkpt lat="42.13717" lon="9.083633">
        <ele>2005.0</ele>
        <time>2022-09-13T07:11:27Z</time>
      </trkpt>
      <trkpt lat="42.137162" lon="9.08377">
        <ele>2002.8</ele>
        <time>2022-09-13T07:11:37Z</time>
      </trkpt>
      <trkpt lat="42.137122" lon="9.08385">
        <ele>2001.4</ele>
        <time>2022-09-13T07:11:43Z</time>
      </trkpt>
      <trkpt lat="42.137093" lon="9.083908">
        <ele>2000.6</ele>
        <time>2022-09-13T07:11:47Z</time>
      </trkpt>
      <trkpt lat="42.137102" lon="9.084073">
        <ele>1999.0</ele>
        <time>2022-09-13T07:11:56Z</time>
      </trkpt>
      <trkpt lat="42.137127" lon="9.084167">
        <ele>1997.8</ele>
        <time>2022-09-13T07:12:02Z</time>
      </trkpt>
      <trkpt lat="42.137163" lon="9.084295">
        <ele>1994.6</ele>
        <time>2022-09-13T07:12:21Z</time>
      </trkpt>
      <trkpt lat="42.13716" lon="9.0843">
        <ele>1994.2</ele>
        <time>2022-09-13T07:12:22Z</time>
      </trkpt>
      <trkpt lat="42.13711" lon="9.084385">
        <ele>1991.8</ele>
        <time>2022-09-13T07:12:37Z</time>
      </trkpt>
      <trkpt lat="42.137132" lon="9.084565">
        <ele>1987.6</ele>
        <time>2022-09-13T07:13:04Z</time>
      </trkpt>
      <trkpt lat="42.13713" lon="9.084568">
        <ele>1987.6</ele>
        <time>2022-09-13T07:13:04Z</time>
      </trkpt>
      <trkpt lat="42.137065" lon="9.084613">
        <ele>1981.6</ele>
        <time>2022-09-13T07:13:38Z</time>
      </trkpt>
      <trkpt lat="42.137028" lon="9.084872">
        <ele>1979.2</ele>
        <time>2022-09-13T07:13:50Z</time>
      </trkpt>
      <trkpt lat="42.13688" lon="9.08466">
        <ele>1977.4</ele>
        <time>2022-09-13T07:14:01Z</time>
      </trkpt>
      <trkpt lat="42.136875" lon="9.084668">
        <ele>1976.6</ele>
        <time>2022-09-13T07:14:07Z</time>
      </trkpt>
      <trkpt lat="42.136858" lon="9.084705">
        <ele>1976.0</ele>
        <time>2022-09-13T07:14:11Z</time>
      </trkpt>
      <trkpt lat="42.136853" lon="9.084782">
        <ele>1975.4</ele>
        <time>2022-09-13T07:14:17Z</time>
      </trkpt>
      <trkpt lat="42.136877" lon="9.08484">
        <ele>1973.4</ele>
        <time>2022-09-13T07:14:22Z</time>
      </trkpt>
      <trkpt lat="42.136888" lon="9.08488">
        <ele>1973.2</ele>
        <time>2022-09-13T07:14:25Z</time>
      </trkpt>
      <trkpt lat="42.136877" lon="9.084927">
        <ele>1972.0</ele>
        <time>2022-09-13T07:14:29Z</time>
      </trkpt>
      <trkpt lat="42.136862" lon="9.08497">
        <ele>1971.8</ele>
        <time>2022-09-13T07:14:33Z</time>
      </trkpt>
      <trkpt lat="42.13687" lon="9.08491">
        <ele>1970.2</ele>
        <time>2022-09-13T07:14:40Z</time>
      </trkpt>
      <trkpt lat="42.136877" lon="9.084867">
        <ele>1969.8</ele>
        <time>2022-09-13T07:14:45Z</time>
      </trkpt>
      <trkpt lat="42.136892" lon="9.084853">
        <ele>1969.0</ele>
        <time>2022-09-13T07:14:48Z</time>
      </trkpt>
      <trkpt lat="42.136942" lon="9.08475">
        <ele>1968.6</ele>
        <time>2022-09-13T07:15:10Z</time>
      </trkpt>
      <trkpt lat="42.136898" lon="9.084693">
        <ele>1967.8</ele>
        <time>2022-09-13T07:15:22Z</time>
      </trkpt>
      <trkpt lat="42.136908" lon="9.084657">
        <ele>1965.6</ele>
        <time>2022-09-13T07:15:35Z</time>
      </trkpt>
      <trkpt lat="42.136852" lon="9.084622">
        <ele>1964.2</ele>
        <time>2022-09-13T07:15:49Z</time>
      </trkpt>
      <trkpt lat="42.136852" lon="9.084612">
        <ele>1964.2</ele>
        <time>2022-09-13T07:15:51Z</time>
      </trkpt>
      <trkpt lat="42.136815" lon="9.08462">
        <ele>1961.8</ele>
        <time>2022-09-13T07:16:05Z</time>
      </trkpt>
      <trkpt lat="42.13678" lon="9.08451">
        <ele>1960.2</ele>
        <time>2022-09-13T07:16:13Z</time>
      </trkpt>
      <trkpt lat="42.136738" lon="9.084477">
        <ele>1959.4</ele>
        <time>2022-09-13T07:16:16Z</time>
      </trkpt>
      <trkpt lat="42.13671" lon="9.084463">
        <ele>1959.4</ele>
        <time>2022-09-13T07:16:18Z</time>
      </trkpt>
      <trkpt lat="42.136648" lon="9.084515">
        <ele>1958.8</ele>
        <time>2022-09-13T07:16:23Z</time>
      </trkpt>
      <trkpt lat="42.136635" lon="9.084528">
        <ele>1958.8</ele>
        <time>2022-09-13T07:16:25Z</time>
      </trkpt>
      <trkpt lat="42.136637" lon="9.084607">
        <ele>1958.4</ele>
        <time>2022-09-13T07:16:28Z</time>
      </trkpt>
      <trkpt lat="42.136623" lon="9.084722">
        <ele>1957.4</ele>
        <time>2022-09-13T07:16:33Z</time>
      </trkpt>
      <trkpt lat="42.136607" lon="9.084803">
        <ele>1957.0</ele>
        <time>2022-09-13T07:16:37Z</time>
      </trkpt>
      <trkpt lat="42.136568" lon="9.084855">
        <ele>1956.6</ele>
        <time>2022-09-13T07:16:41Z</time>
      </trkpt>
      <trkpt lat="42.136523" lon="9.084912">
        <ele>1955.4</ele>
        <time>2022-09-13T07:16:46Z</time>
      </trkpt>
      <trkpt lat="42.13651" lon="9.084957">
        <ele>1955.0</ele>
        <time>2022-09-13T07:16:49Z</time>
      </trkpt>
      <trkpt lat="42.136483" lon="9.085207">
        <ele>1952.8</ele>
        <time>2022-09-13T07:17:01Z</time>
      </trkpt>
      <trkpt lat="42.136472" lon="9.085218">
        <ele>1952.4</ele>
        <time>2022-09-13T07:17:02Z</time>
      </trkpt>
      <trkpt lat="42.136453" lon="9.085208">
        <ele>1951.8</ele>
        <time>2022-09-13T07:17:04Z</time>
      </trkpt>
      <trkpt lat="42.136423" lon="9.085175">
        <ele>1950.6</ele>
        <time>2022-09-13T07:17:09Z</time>
      </trkpt>
      <trkpt lat="42.136395" lon="9.085185">
        <ele>1950.0</ele>
        <time>2022-09-13T07:17:13Z</time>
      </trkpt>
      <trkpt lat="42.136352" lon="9.085218">
        <ele>1948.4</ele>
        <time>2022-09-13T07:17:20Z</time>
      </trkpt>
      <trkpt lat="42.136325" lon="9.08528">
        <ele>1947.6</ele>
        <time>2022-09-13T07:17:29Z</time>
      </trkpt>
      <trkpt lat="42.136273" lon="9.085263">
        <ele>1945.8</ele>
        <time>2022-09-13T07:17:37Z</time>
      </trkpt>
      <trkpt lat="42.13626" lon="9.085292">
        <ele>1944.8</ele>
        <time>2022-09-13T07:17:42Z</time>
      </trkpt>
      <trkpt lat="42.136263" lon="9.085328">
        <ele>1944.6</ele>
        <time>2022-09-13T07:17:46Z</time>
      </trkpt>
      <trkpt lat="42.136313" lon="9.085455">
        <ele>1943.4</ele>
        <time>2022-09-13T07:17:59Z</time>
      </trkpt>
      <trkpt lat="42.136307" lon="9.085465">
        <ele>1943.0</ele>
        <time>2022-09-13T07:18:00Z</time>
      </trkpt>
      <trkpt lat="42.136262" lon="9.08546">
        <ele>1941.4</ele>
        <time>2022-09-13T07:18:04Z</time>
      </trkpt>
      <trkpt lat="42.136158" lon="9.085438">
        <ele>1937.6</ele>
        <time>2022-09-13T07:18:14Z</time>
      </trkpt>
      <trkpt lat="42.136085" lon="9.085423">
        <ele>1937.0</ele>
        <time>2022-09-13T07:18:21Z</time>
      </trkpt>
      <trkpt lat="42.13596" lon="9.085365">
        <ele>1936.8</ele>
        <time>2022-09-13T07:18:33Z</time>
      </trkpt>
      <trkpt lat="42.135907" lon="9.085315">
        <ele>1936.2</ele>
        <time>2022-09-13T07:18:39Z</time>
      </trkpt>
      <trkpt lat="42.135898" lon="9.085307">
        <ele>1936.2</ele>
        <time>2022-09-13T07:18:39Z</time>
      </trkpt>
      <trkpt lat="42.1359" lon="9.085313">
        <ele>1935.0</ele>
        <time>2022-09-13T07:18:49Z</time>
      </trkpt>
      <trkpt lat="42.13602" lon="9.085295">
        <ele>1934.0</ele>
        <time>2022-09-13T07:19:08Z</time>
      </trkpt>
      <trkpt lat="42.136057" lon="9.085238">
        <ele>1934.2</ele>
        <time>2022-09-13T07:19:17Z</time>
      </trkpt>
      <trkpt lat="42.136078" lon="9.085215">
        <ele>1933.6</ele>
        <time>2022-09-13T07:19:22Z</time>
      </trkpt>
      <trkpt lat="42.13609" lon="9.085208">
        <ele>1933.4</ele>
        <time>2022-09-13T07:19:25Z</time>
      </trkpt>
      <trkpt lat="42.136062" lon="9.085093">
        <ele>1930.8</ele>
        <time>2022-09-13T07:19:37Z</time>
      </trkpt>
      <trkpt lat="42.136045" lon="9.085005">
        <ele>1929.6</ele>
        <time>2022-09-13T07:19:48Z</time>
      </trkpt>
      <trkpt lat="42.135972" lon="9.084755">
        <ele>1925.4</ele>
        <time>2022-09-13T07:20:13Z</time>
      </trkpt>
      <trkpt lat="42.135977" lon="9.084667">
        <ele>1925.4</ele>
        <time>2022-09-13T07:20:20Z</time>
      </trkpt>
      <trkpt lat="42.13596" lon="9.084628">
        <ele>1925.0</ele>
        <time>2022-09-13T07:20:24Z</time>
      </trkpt>
      <trkpt lat="42.135912" lon="9.084578">
        <ele>1924.8</ele>
        <time>2022-09-13T07:20:32Z</time>
      </trkpt>
      <trkpt lat="42.135905" lon="9.084575">
        <ele>1924.4</ele>
        <time>2022-09-13T07:20:33Z</time>
      </trkpt>
      <trkpt lat="42.135827" lon="9.084528">
        <ele>1922.4</ele>
        <time>2022-09-13T07:20:46Z</time>
      </trkpt>
      <trkpt lat="42.135788" lon="9.084512">
        <ele>1921.6</ele>
        <time>2022-09-13T07:20:52Z</time>
      </trkpt>
      <trkpt lat="42.135727" lon="9.084487">
        <ele>1919.6</ele>
        <time>2022-09-13T07:21:02Z</time>
      </trkpt>
      <trkpt lat="42.135668" lon="9.08446">
        <ele>1917.4</ele>
        <time>2022-09-13T07:21:16Z</time>
      </trkpt>
      <trkpt lat="42.135563" lon="9.084557">
        <ele>1913.4</ele>
        <time>2022-09-13T07:21:50Z</time>
      </trkpt>
      <trkpt lat="42.13556" lon="9.084555">
        <ele>1913.4</ele>
        <time>2022-09-13T07:21:51Z</time>
      </trkpt>
      <trkpt lat="42.1355" lon="9.084503">
        <ele>1906.8</ele>
        <time>2022-09-13T07:22:19Z</time>
      </trkpt>
      <trkpt lat="42.135463" lon="9.084507">
        <ele>1904.0</ele>
        <time>2022-09-13T07:22:33Z</time>
      </trkpt>
      <trkpt lat="42.135463" lon="9.0845">
        <ele>1903.4</ele>
        <time>2022-09-13T07:22:36Z</time>
      </trkpt>
      <trkpt lat="42.135577" lon="9.08423">
        <ele>1899.8</ele>
        <time>2022-09-13T07:23:09Z</time>
      </trkpt>
      <trkpt lat="42.135597" lon="9.084165">
        <ele>1898.0</ele>
        <time>2022-09-13T07:23:16Z</time>
      </trkpt>
      <trkpt lat="42.135548" lon="9.08417">
        <ele>1897.0</ele>
        <time>2022-09-13T07:23:20Z</time>
      </trkpt>
      <trkpt lat="42.135435" lon="9.084278">
        <ele>1894.6</ele>
        <time>2022-09-13T07:23:34Z</time>
      </trkpt>
      <trkpt lat="42.135288" lon="9.084342">
        <ele>1890.4</ele>
        <time>2022-09-13T07:23:57Z</time>
      </trkpt>
      <trkpt lat="42.135272" lon="9.084278">
        <ele>1891.0</ele>
        <time>2022-09-13T07:24:04Z</time>
      </trkpt>
      <trkpt lat="42.135147" lon="9.084242">
        <ele>1889.6</ele>
        <time>2022-09-13T07:24:21Z</time>
      </trkpt>
      <trkpt lat="42.135143" lon="9.084238">
        <ele>1889.6</ele>
        <time>2022-09-13T07:24:22Z</time>
      </trkpt>
      <trkpt lat="42.135108" lon="9.084213">
        <ele>1888.8</ele>
        <time>2022-09-13T07:24:30Z</time>
      </trkpt>
      <trkpt lat="42.135085" lon="9.08424">
        <ele>1886.6</ele>
        <time>2022-09-13T07:24:40Z</time>
      </trkpt>
      <trkpt lat="42.135065" lon="9.084272">
        <ele>1883.8</ele>
        <time>2022-09-13T07:24:55Z</time>
      </trkpt>
      <trkpt lat="42.13504" lon="9.084308">
        <ele>1881.4</ele>
        <time>2022-09-13T07:25:11Z</time>
      </trkpt>
      <trkpt lat="42.135013" lon="9.084438">
        <ele>1877.4</ele>
        <time>2022-09-13T07:25:36Z</time>
      </trkpt>
      <trkpt lat="42.135017" lon="9.084242">
        <ele>1872.8</ele>
        <time>2022-09-13T07:26:00Z</time>
      </trkpt>
      <trkpt lat="42.134963" lon="9.084793">
        <ele>1870.4</ele>
        <time>2022-09-13T07:26:16Z</time>
      </trkpt>
      <trkpt lat="42.134853" lon="9.085242">
        <ele>1868.0</ele>
        <time>2022-09-13T07:26:28Z</time>
      </trkpt>
      <trkpt lat="42.134777" lon="9.085195">
        <ele>1868.0</ele>
        <time>2022-09-13T07:26:28Z</time>
      </trkpt>
      <trkpt lat="42.134763" lon="9.085117">
        <ele>1866.2</ele>
        <time>2022-09-13T07:26:33Z</time>
      </trkpt>
      <trkpt lat="42.134755" lon="9.085063">
        <ele>1865.6</ele>
        <time>2022-09-13T07:26:36Z</time>
      </trkpt>
      <trkpt lat="42.134707" lon="9.085002">
        <ele>1865.0</ele>
        <time>2022-09-13T07:26:42Z</time>
      </trkpt>
      <trkpt lat="42.134715" lon="9.084975">
        <ele>1864.8</ele>
        <time>2022-09-13T07:26:44Z</time>
      </trkpt>
      <trkpt lat="42.134762" lon="9.084885">
        <ele>1863.2</ele>
        <time>2022-09-13T07:26:52Z</time>
      </trkpt>
      <trkpt lat="42.134752" lon="9.084828">
        <ele>1862.8</ele>
        <time>2022-09-13T07:26:57Z</time>
      </trkpt>
      <trkpt lat="42.134643" lon="9.084832">
        <ele>1860.8</ele>
        <time>2022-09-13T07:27:06Z</time>
      </trkpt>
      <trkpt lat="42.134633" lon="9.084842">
        <ele>1860.2</ele>
        <time>2022-09-13T07:27:08Z</time>
      </trkpt>
      <trkpt lat="42.134638" lon="9.08491">
        <ele>1860.2</ele>
        <time>2022-09-13T07:27:12Z</time>
      </trkpt>
      <trkpt lat="42.134647" lon="9.084973">
        <ele>1859.4</ele>
        <time>2022-09-13T07:27:16Z</time>
      </trkpt>
      <trkpt lat="42.134637" lon="9.085028">
        <ele>1858.4</ele>
        <time>2022-09-13T07:27:20Z</time>
      </trkpt>
      <trkpt lat="42.13462" lon="9.085047">
        <ele>1857.8</ele>
        <time>2022-09-13T07:27:22Z</time>
      </trkpt>
      <trkpt lat="42.134572" lon="9.085065">
        <ele>1856.2</ele>
        <time>2022-09-13T07:27:29Z</time>
      </trkpt>
      <trkpt lat="42.13456" lon="9.0851">
        <ele>1855.2</ele>
        <time>2022-09-13T07:27:34Z</time>
      </trkpt>
      <trkpt lat="42.134515" lon="9.085105">
        <ele>1854.0</ele>
        <time>2022-09-13T07:27:38Z</time>
      </trkpt>
      <trkpt lat="42.13449" lon="9.08508">
        <ele>1853.2</ele>
        <time>2022-09-13T07:27:41Z</time>
      </trkpt>
      <trkpt lat="42.13447" lon="9.08494">
        <ele>1851.0</ele>
        <time>2022-09-13T07:27:51Z</time>
      </trkpt>
      <trkpt lat="42.134497" lon="9.084803">
        <ele>1849.8</ele>
        <time>2022-09-13T07:28:05Z</time>
      </trkpt>
      <trkpt lat="42.134465" lon="9.084763">
        <ele>1849.8</ele>
        <time>2022-09-13T07:28:10Z</time>
      </trkpt>
      <trkpt lat="42.134447" lon="9.084755">
        <ele>1849.4</ele>
        <time>2022-09-13T07:28:13Z</time>
      </trkpt>
      <trkpt lat="42.134445" lon="9.084777">
        <ele>1849.2</ele>
        <time>2022-09-13T07:28:16Z</time>
      </trkpt>
      <trkpt lat="42.13447" lon="9.084823">
        <ele>1848.8</ele>
        <time>2022-09-13T07:28:22Z</time>
      </trkpt>
      <trkpt lat="42.134425" lon="9.084917">
        <ele>1845.6</ele>
        <time>2022-09-13T07:28:39Z</time>
      </trkpt>
      <trkpt lat="42.134405" lon="9.084922">
        <ele>1845.0</ele>
        <time>2022-09-13T07:28:43Z</time>
      </trkpt>
      <trkpt lat="42.134388" lon="9.084927">
        <ele>1844.2</ele>
        <time>2022-09-13T07:28:46Z</time>
      </trkpt>
      <trkpt lat="42.134382" lon="9.084952">
        <ele>1843.2</ele>
        <time>2022-09-13T07:28:51Z</time>
      </trkpt>
      <trkpt lat="42.13435" lon="9.084925">
        <ele>1842.4</ele>
        <time>2022-09-13T07:28:57Z</time>
      </trkpt>
      <trkpt lat="42.134372" lon="9.08487">
        <ele>1841.2</ele>
        <time>2022-09-13T07:29:05Z</time>
      </trkpt>
      <trkpt lat="42.134358" lon="9.084822">
        <ele>1839.8</ele>
        <time>2022-09-13T07:29:11Z</time>
      </trkpt>
      <trkpt lat="42.134352" lon="9.084772">
        <ele>1838.0</ele>
        <time>2022-09-13T07:29:17Z</time>
      </trkpt>
      <trkpt lat="42.134297" lon="9.084708">
        <ele>1836.2</ele>
        <time>2022-09-13T07:29:29Z</time>
      </trkpt>
      <trkpt lat="42.134263" lon="9.084702">
        <ele>1835.0</ele>
        <time>2022-09-13T07:29:35Z</time>
      </trkpt>
      <trkpt lat="42.134223" lon="9.0847">
        <ele>1834.4</ele>
        <time>2022-09-13T07:29:44Z</time>
      </trkpt>
      <trkpt lat="42.13422" lon="9.084717">
        <ele>1834.4</ele>
        <time>2022-09-13T07:29:45Z</time>
      </trkpt>
      <trkpt lat="42.134175" lon="9.08487">
        <ele>1832.2</ele>
        <time>2022-09-13T07:29:56Z</time>
      </trkpt>
      <trkpt lat="42.134153" lon="9.084943">
        <ele>1831.0</ele>
        <time>2022-09-13T07:30:02Z</time>
      </trkpt>
      <trkpt lat="42.134137" lon="9.085182">
        <ele>1829.4</ele>
        <time>2022-09-13T07:30:09Z</time>
      </trkpt>
      <trkpt lat="42.134125" lon="9.085238">
        <ele>1829.4</ele>
        <time>2022-09-13T07:30:10Z</time>
      </trkpt>
      <trkpt lat="42.134098" lon="9.085252">
        <ele>1829.4</ele>
        <time>2022-09-13T07:30:10Z</time>
      </trkpt>
      <trkpt lat="42.133843" lon="9.085223">
        <ele>1827.4</ele>
        <time>2022-09-13T07:30:19Z</time>
      </trkpt>
      <trkpt lat="42.133817" lon="9.085227">
        <ele>1827.4</ele>
        <time>2022-09-13T07:30:20Z</time>
      </trkpt>
      <trkpt lat="42.13377" lon="9.085275">
        <ele>1826.8</ele>
        <time>2022-09-13T07:30:22Z</time>
      </trkpt>
      <trkpt lat="42.133665" lon="9.085417">
        <ele>1825.2</ele>
        <time>2022-09-13T07:30:29Z</time>
      </trkpt>
      <trkpt lat="42.133632" lon="9.085468">
        <ele>1825.0</ele>
        <time>2022-09-13T07:30:32Z</time>
      </trkpt>
      <trkpt lat="42.133477" lon="9.085538">
        <ele>1822.2</ele>
        <time>2022-09-13T07:30:45Z</time>
      </trkpt>
      <trkpt lat="42.133467" lon="9.085562">
        <ele>1821.8</ele>
        <time>2022-09-13T07:30:47Z</time>
      </trkpt>
      <trkpt lat="42.133467" lon="9.085605">
        <ele>1821.2</ele>
        <time>2022-09-13T07:30:50Z</time>
      </trkpt>
      <trkpt lat="42.133485" lon="9.08575">
        <ele>1819.8</ele>
        <time>2022-09-13T07:31:01Z</time>
      </trkpt>
      <trkpt lat="42.133633" lon="9.085903">
        <ele>1817.4</ele>
        <time>2022-09-13T07:31:20Z</time>
      </trkpt>
      <trkpt lat="42.133762" lon="9.085988">
        <ele>1813.0</ele>
        <time>2022-09-13T07:31:48Z</time>
      </trkpt>
      <trkpt lat="42.133767" lon="9.085993">
        <ele>1812.8</ele>
        <time>2022-09-13T07:31:49Z</time>
      </trkpt>
      <trkpt lat="42.133793" lon="9.085995">
        <ele>1810.2</ele>
        <time>2022-09-13T07:32:00Z</time>
      </trkpt>
      <trkpt lat="42.133822" lon="9.085992">
        <ele>1806.2</ele>
        <time>2022-09-13T07:32:18Z</time>
      </trkpt>
      <trkpt lat="42.133853" lon="9.085997">
        <ele>1804.8</ele>
        <time>2022-09-13T07:32:25Z</time>
      </trkpt>
      <trkpt lat="42.133875" lon="9.085993">
        <ele>1804.2</ele>
        <time>2022-09-13T07:32:30Z</time>
      </trkpt>
      <trkpt lat="42.133875" lon="9.08599">
        <ele>1803.6</ele>
        <time>2022-09-13T07:32:32Z</time>
      </trkpt>
      <trkpt lat="42.133802" lon="9.085883">
        <ele>1801.2</ele>
        <time>2022-09-13T07:32:48Z</time>
      </trkpt>
      <trkpt lat="42.13376" lon="9.085838">
        <ele>1800.0</ele>
        <time>2022-09-13T07:32:56Z</time>
      </trkpt>
      <trkpt lat="42.133755" lon="9.085828">
        <ele>1799.4</ele>
        <time>2022-09-13T07:32:57Z</time>
      </trkpt>
      <trkpt lat="42.133755" lon="9.085678">
        <ele>1798.4</ele>
        <time>2022-09-13T07:33:07Z</time>
      </trkpt>
      <trkpt lat="42.133728" lon="9.085597">
        <ele>1798.2</ele>
        <time>2022-09-13T07:33:13Z</time>
      </trkpt>
      <trkpt lat="42.133678" lon="9.085475">
        <ele>1796.8</ele>
        <time>2022-09-13T07:33:22Z</time>
      </trkpt>
      <trkpt lat="42.13366" lon="9.085417">
        <ele>1796.4</ele>
        <time>2022-09-13T07:33:27Z</time>
      </trkpt>
      <trkpt lat="42.133638" lon="9.085313">
        <ele>1795.4</ele>
        <time>2022-09-13T07:33:34Z</time>
      </trkpt>
      <trkpt lat="42.133627" lon="9.08529">
        <ele>1795.2</ele>
        <time>2022-09-13T07:33:36Z</time>
      </trkpt>
      <trkpt lat="42.133593" lon="9.085362">
        <ele>1794.2</ele>
        <time>2022-09-13T07:33:42Z</time>
      </trkpt>
      <trkpt lat="42.133608" lon="9.085343">
        <ele>1792.6</ele>
        <time>2022-09-13T07:33:47Z</time>
      </trkpt>
      <trkpt lat="42.133602" lon="9.08533">
        <ele>1792.4</ele>
        <time>2022-09-13T07:33:51Z</time>
      </trkpt>
      <trkpt lat="42.133563" lon="9.085338">
        <ele>1791.6</ele>
        <time>2022-09-13T07:34:01Z</time>
      </trkpt>
      <trkpt lat="42.133545" lon="9.085345">
        <ele>1790.8</ele>
        <time>2022-09-13T07:34:06Z</time>
      </trkpt>
      <trkpt lat="42.133555" lon="9.08534">
        <ele>1790.4</ele>
        <time>2022-09-13T07:34:10Z</time>
      </trkpt>
      <trkpt lat="42.133543" lon="9.085298">
        <ele>1789.6</ele>
        <time>2022-09-13T07:34:14Z</time>
      </trkpt>
      <trkpt lat="42.133503" lon="9.085383">
        <ele>1788.2</ele>
        <time>2022-09-13T07:34:26Z</time>
      </trkpt>
      <trkpt lat="42.133475" lon="9.085412">
        <ele>1787.4</ele>
        <time>2022-09-13T07:34:31Z</time>
      </trkpt>
      <trkpt lat="42.13348" lon="9.085448">
        <ele>1786.6</ele>
        <time>2022-09-13T07:34:35Z</time>
      </trkpt>
      <trkpt lat="42.133487" lon="9.085483">
        <ele>1785.8</ele>
        <time>2022-09-13T07:34:39Z</time>
      </trkpt>
      <trkpt lat="42.133467" lon="9.085533">
        <ele>1784.6</ele>
        <time>2022-09-13T07:34:45Z</time>
      </trkpt>
      <trkpt lat="42.13344" lon="9.085552">
        <ele>1783.6</ele>
        <time>2022-09-13T07:34:50Z</time>
      </trkpt>
      <trkpt lat="42.13342" lon="9.085523">
        <ele>1783.0</ele>
        <time>2022-09-13T07:34:53Z</time>
      </trkpt>
      <trkpt lat="42.133387" lon="9.085448">
        <ele>1781.4</ele>
        <time>2022-09-13T07:35:00Z</time>
      </trkpt>
      <trkpt lat="42.133387" lon="9.085437">
        <ele>1781.4</ele>
        <time>2022-09-13T07:35:01Z</time>
      </trkpt>
      <trkpt lat="42.133383" lon="9.085205">
        <ele>1779.0</ele>
        <time>2022-09-13T07:35:29Z</time>
      </trkpt>
      <trkpt lat="42.133362" lon="9.08514">
        <ele>1779.2</ele>
        <time>2022-09-13T07:35:40Z</time>
      </trkpt>
      <trkpt lat="42.133352" lon="9.085102">
        <ele>1779.0</ele>
        <time>2022-09-13T07:35:45Z</time>
      </trkpt>
      <trkpt lat="42.133252" lon="9.085048">
        <ele>1775.4</ele>
        <time>2022-09-13T07:36:04Z</time>
      </trkpt>
      <trkpt lat="42.133245" lon="9.08504">
        <ele>1775.4</ele>
        <time>2022-09-13T07:36:05Z</time>
      </trkpt>
      <trkpt lat="42.133188" lon="9.084885">
        <ele>1771.6</ele>
        <time>2022-09-13T07:36:25Z</time>
      </trkpt>
      <trkpt lat="42.1332" lon="9.084813">
        <ele>1770.4</ele>
        <time>2022-09-13T07:36:36Z</time>
      </trkpt>
      <trkpt lat="42.13321" lon="9.084743">
        <ele>1769.4</ele>
        <time>2022-09-13T07:36:45Z</time>
      </trkpt>
      <trkpt lat="42.133198" lon="9.0847">
        <ele>1767.8</ele>
        <time>2022-09-13T07:36:53Z</time>
      </trkpt>
      <trkpt lat="42.133145" lon="9.08467">
        <ele>1765.8</ele>
        <time>2022-09-13T07:37:05Z</time>
      </trkpt>
      <trkpt lat="42.13312" lon="9.084702">
        <ele>1765.0</ele>
        <time>2022-09-13T07:37:10Z</time>
      </trkpt>
      <trkpt lat="42.133027" lon="9.084773">
        <ele>1761.8</ele>
        <time>2022-09-13T07:37:26Z</time>
      </trkpt>
      <trkpt lat="42.132975" lon="9.084882">
        <ele>1760.0</ele>
        <time>2022-09-13T07:37:36Z</time>
      </trkpt>
      <trkpt lat="42.132858" lon="9.085025">
        <ele>1757.4</ele>
        <time>2022-09-13T07:37:54Z</time>
      </trkpt>
      <trkpt lat="42.132862" lon="9.085017">
        <ele>1757.0</ele>
        <time>2022-09-13T07:37:55Z</time>
      </trkpt>
      <trkpt lat="42.132928" lon="9.084875">
        <ele>1753.6</ele>
        <time>2022-09-13T07:38:12Z</time>
      </trkpt>
      <trkpt lat="42.132975" lon="9.084765">
        <ele>1750.2</ele>
        <time>2022-09-13T07:38:30Z</time>
      </trkpt>
      <trkpt lat="42.13302" lon="9.084695">
        <ele>1747.0</ele>
        <time>2022-09-13T07:38:44Z</time>
      </trkpt>
      <trkpt lat="42.133023" lon="9.084692">
        <ele>1746.8</ele>
        <time>2022-09-13T07:38:45Z</time>
      </trkpt>
      <trkpt lat="42.132948" lon="9.084733">
        <ele>1746.2</ele>
        <time>2022-09-13T07:38:57Z</time>
      </trkpt>
      <trkpt lat="42.13269" lon="9.084872">
        <ele>1741.6</ele>
        <time>2022-09-13T07:39:33Z</time>
      </trkpt>
      <trkpt lat="42.132682" lon="9.084953">
        <ele>1740.0</ele>
        <time>2022-09-13T07:39:40Z</time>
      </trkpt>
      <trkpt lat="42.132637" lon="9.085073">
        <ele>1738.0</ele>
        <time>2022-09-13T07:39:50Z</time>
      </trkpt>
      <trkpt lat="42.132577" lon="9.085177">
        <ele>1736.8</ele>
        <time>2022-09-13T07:40:00Z</time>
      </trkpt>
      <trkpt lat="42.132507" lon="9.085255">
        <ele>1736.2</ele>
        <time>2022-09-13T07:40:07Z</time>
      </trkpt>
      <trkpt lat="42.132232" lon="9.085442">
        <ele>1734.2</ele>
        <time>2022-09-13T07:40:28Z</time>
      </trkpt>
      <trkpt lat="42.132225" lon="9.085433">
        <ele>1733.4</ele>
        <time>2022-09-13T07:40:30Z</time>
      </trkpt>
      <trkpt lat="42.132193" lon="9.085362">
        <ele>1732.2</ele>
        <time>2022-09-13T07:40:36Z</time>
      </trkpt>
      <trkpt lat="42.132153" lon="9.085237">
        <ele>1731.2</ele>
        <time>2022-09-13T07:40:45Z</time>
      </trkpt>
      <trkpt lat="42.132135" lon="9.08514">
        <ele>1730.6</ele>
        <time>2022-09-13T07:40:51Z</time>
      </trkpt>
      <trkpt lat="42.132077" lon="9.085063">
        <ele>1731.2</ele>
        <time>2022-09-13T07:40:58Z</time>
      </trkpt>
      <trkpt lat="42.132053" lon="9.085042">
        <ele>1730.6</ele>
        <time>2022-09-13T07:41:03Z</time>
      </trkpt>
      <trkpt lat="42.131995" lon="9.084973">
        <ele>1728.6</ele>
        <time>2022-09-13T07:41:11Z</time>
      </trkpt>
      <trkpt lat="42.131963" lon="9.08495">
        <ele>1728.2</ele>
        <time>2022-09-13T07:41:15Z</time>
      </trkpt>
      <trkpt lat="42.131923" lon="9.084967">
        <ele>1727.0</ele>
        <time>2022-09-13T07:41:21Z</time>
      </trkpt>
      <trkpt lat="42.131887" lon="9.085005">
        <ele>1726.2</ele>
        <time>2022-09-13T07:41:29Z</time>
      </trkpt>
      <trkpt lat="42.131858" lon="9.08497">
        <ele>1724.4</ele>
        <time>2022-09-13T07:41:36Z</time>
      </trkpt>
      <trkpt lat="42.131825" lon="9.084975">
        <ele>1723.2</ele>
        <time>2022-09-13T07:41:44Z</time>
      </trkpt>
      <trkpt lat="42.1318" lon="9.084945">
        <ele>1722.8</ele>
        <time>2022-09-13T07:41:50Z</time>
      </trkpt>
      <trkpt lat="42.13181" lon="9.084888">
        <ele>1722.4</ele>
        <time>2022-09-13T07:41:58Z</time>
      </trkpt>
      <trkpt lat="42.13185" lon="9.084832">
        <ele>1721.2</ele>
        <time>2022-09-13T07:42:06Z</time>
      </trkpt>
      <trkpt lat="42.131807" lon="9.084722">
        <ele>1719.4</ele>
        <time>2022-09-13T07:42:22Z</time>
      </trkpt>
      <trkpt lat="42.131815" lon="9.084717">
        <ele>1719.4</ele>
        <time>2022-09-13T07:42:23Z</time>
      </trkpt>
      <trkpt lat="42.131852" lon="9.084675">
        <ele>1718.0</ele>
        <time>2022-09-13T07:42:30Z</time>
      </trkpt>
      <trkpt lat="42.131835" lon="9.084643">
        <ele>1718.0</ele>
        <time>2022-09-13T07:42:34Z</time>
      </trkpt>
      <trkpt lat="42.131707" lon="9.084968">
        <ele>1716.4</ele>
        <time>2022-09-13T07:42:49Z</time>
      </trkpt>
      <trkpt lat="42.131687" lon="9.084798">
        <ele>1715.2</ele>
        <time>2022-09-13T07:43:03Z</time>
      </trkpt>
      <trkpt lat="42.131325" lon="9.084567">
        <ele>1713.4</ele>
        <time>2022-09-13T07:43:14Z</time>
      </trkpt>
      <trkpt lat="42.1314" lon="9.084552">
        <ele>1713.4</ele>
        <time>2022-09-13T07:43:14Z</time>
      </trkpt>
      <trkpt lat="42.13154" lon="9.084537">
        <ele>1712.6</ele>
        <time>2022-09-13T07:43:21Z</time>
      </trkpt>
      <trkpt lat="42.131568" lon="9.084568">
        <ele>1712.2</ele>
        <time>2022-09-13T07:43:23Z</time>
      </trkpt>
      <trkpt lat="42.131587" lon="9.084675">
        <ele>1711.0</ele>
        <time>2022-09-13T07:43:28Z</time>
      </trkpt>
      <trkpt lat="42.131595" lon="9.084748">
        <ele>1710.6</ele>
        <time>2022-09-13T07:43:31Z</time>
      </trkpt>
      <trkpt lat="42.131618" lon="9.084765">
        <ele>1710.6</ele>
        <time>2022-09-13T07:43:32Z</time>
      </trkpt>
      <trkpt lat="42.131697" lon="9.084743">
        <ele>1707.6</ele>
        <time>2022-09-13T07:43:57Z</time>
      </trkpt>
      <trkpt lat="42.131698" lon="9.084737">
        <ele>1707.4</ele>
        <time>2022-09-13T07:43:58Z</time>
      </trkpt>
      <trkpt lat="42.131638" lon="9.084775">
        <ele>1706.2</ele>
        <time>2022-09-13T07:44:06Z</time>
      </trkpt>
      <trkpt lat="42.13155" lon="9.084802">
        <ele>1704.2</ele>
        <time>2022-09-13T07:44:15Z</time>
      </trkpt>
      <trkpt lat="42.131447" lon="9.084857">
        <ele>1703.6</ele>
        <time>2022-09-13T07:44:25Z</time>
      </trkpt>
      <trkpt lat="42.131418" lon="9.084887">
        <ele>1703.6</ele>
        <time>2022-09-13T07:44:28Z</time>
      </trkpt>
      <trkpt lat="42.13141" lon="9.084932">
        <ele>1703.6</ele>
        <time>2022-09-13T07:44:31Z</time>
      </trkpt>
      <trkpt lat="42.131462" lon="9.08499">
        <ele>1702.6</ele>
        <time>2022-09-13T07:44:40Z</time>
      </trkpt>
      <trkpt lat="42.13146" lon="9.085028">
        <ele>1701.4</ele>
        <time>2022-09-13T07:44:44Z</time>
      </trkpt>
      <trkpt lat="42.131452" lon="9.085113">
        <ele>1700.0</ele>
        <time>2022-09-13T07:44:54Z</time>
      </trkpt>
      <trkpt lat="42.131468" lon="9.08514">
        <ele>1699.2</ele>
        <time>2022-09-13T07:44:58Z</time>
      </trkpt>
      <trkpt lat="42.131495" lon="9.085173">
        <ele>1698.0</ele>
        <time>2022-09-13T07:45:04Z</time>
      </trkpt>
      <trkpt lat="42.131532" lon="9.085345">
        <ele>1693.6</ele>
        <time>2022-09-13T07:45:28Z</time>
      </trkpt>
      <trkpt lat="42.131535" lon="9.085352">
        <ele>1693.6</ele>
        <time>2022-09-13T07:45:29Z</time>
      </trkpt>
      <trkpt lat="42.131507" lon="9.085402">
        <ele>1691.8</ele>
        <time>2022-09-13T07:45:38Z</time>
      </trkpt>
      <trkpt lat="42.131493" lon="9.085432">
        <ele>1690.8</ele>
        <time>2022-09-13T07:45:44Z</time>
      </trkpt>
      <trkpt lat="42.131497" lon="9.085485">
        <ele>1689.8</ele>
        <time>2022-09-13T07:45:52Z</time>
      </trkpt>
      <trkpt lat="42.131492" lon="9.085557">
        <ele>1688.0</ele>
        <time>2022-09-13T07:46:05Z</time>
      </trkpt>
      <trkpt lat="42.131512" lon="9.085568">
        <ele>1684.4</ele>
        <time>2022-09-13T07:46:23Z</time>
      </trkpt>
      <trkpt lat="42.131545" lon="9.085577">
        <ele>1681.8</ele>
        <time>2022-09-13T07:46:46Z</time>
      </trkpt>
      <trkpt lat="42.131558" lon="9.085622">
        <ele>1677.6</ele>
        <time>2022-09-13T07:47:10Z</time>
      </trkpt>
      <trkpt lat="42.131695" lon="9.0868">
        <ele>1671.2</ele>
        <time>2022-09-13T07:47:44Z</time>
      </trkpt>
      <trkpt lat="42.13148" lon="9.086483">
        <ele>1664.6</ele>
        <time>2022-09-13T07:48:21Z</time>
      </trkpt>
      <trkpt lat="42.131475" lon="9.086475">
        <ele>1663.6</ele>
        <time>2022-09-13T07:48:27Z</time>
      </trkpt>
      <trkpt lat="42.131445" lon="9.086437">
        <ele>1663.4</ele>
        <time>2022-09-13T07:48:32Z</time>
      </trkpt>
      <trkpt lat="42.1314" lon="9.086403">
        <ele>1662.0</ele>
        <time>2022-09-13T07:48:39Z</time>
      </trkpt>
      <trkpt lat="42.131373" lon="9.086338">
        <ele>1660.4</ele>
        <time>2022-09-13T07:48:46Z</time>
      </trkpt>
      <trkpt lat="42.131357" lon="9.086295">
        <ele>1659.6</ele>
        <time>2022-09-13T07:48:52Z</time>
      </trkpt>
      <trkpt lat="42.13131" lon="9.086238">
        <ele>1657.4</ele>
        <time>2022-09-13T07:49:04Z</time>
      </trkpt>
      <trkpt lat="42.131245" lon="9.086132">
        <ele>1654.6</ele>
        <time>2022-09-13T07:49:24Z</time>
      </trkpt>
      <trkpt lat="42.131238" lon="9.08613">
        <ele>1654.4</ele>
        <time>2022-09-13T07:49:25Z</time>
      </trkpt>
      <trkpt lat="42.131205" lon="9.086115">
        <ele>1653.6</ele>
        <time>2022-09-13T07:49:30Z</time>
      </trkpt>
      <trkpt lat="42.131168" lon="9.086057">
        <ele>1652.2</ele>
        <time>2022-09-13T07:49:40Z</time>
      </trkpt>
      <trkpt lat="42.131113" lon="9.086017">
        <ele>1651.0</ele>
        <time>2022-09-13T07:49:49Z</time>
      </trkpt>
      <trkpt lat="42.131045" lon="9.086005">
        <ele>1649.2</ele>
        <time>2022-09-13T07:49:58Z</time>
      </trkpt>
      <trkpt lat="42.130903" lon="9.086027">
        <ele>1646.6</ele>
        <time>2022-09-13T07:50:15Z</time>
      </trkpt>
      <trkpt lat="42.130897" lon="9.08603">
        <ele>1646.2</ele>
        <time>2022-09-13T07:50:16Z</time>
      </trkpt>
      <trkpt lat="42.130807" lon="9.086048">
        <ele>1644.4</ele>
        <time>2022-09-13T07:50:28Z</time>
      </trkpt>
      <trkpt lat="42.130742" lon="9.08603">
        <ele>1643.4</ele>
        <time>2022-09-13T07:50:35Z</time>
      </trkpt>
      <trkpt lat="42.130685" lon="9.086022">
        <ele>1642.8</ele>
        <time>2022-09-13T07:50:41Z</time>
      </trkpt>
      <trkpt lat="42.13062" lon="9.086017">
        <ele>1641.6</ele>
        <time>2022-09-13T07:50:48Z</time>
      </trkpt>
      <trkpt lat="42.130613" lon="9.086017">
        <ele>1641.6</ele>
        <time>2022-09-13T07:50:49Z</time>
      </trkpt>
      <trkpt lat="42.130543" lon="9.086017">
        <ele>1640.0</ele>
        <time>2022-09-13T07:51:00Z</time>
      </trkpt>
      <trkpt lat="42.130497" lon="9.086">
        <ele>1639.0</ele>
        <time>2022-09-13T07:51:07Z</time>
      </trkpt>
      <trkpt lat="42.130477" lon="9.08597">
        <ele>1638.6</ele>
        <time>2022-09-13T07:51:11Z</time>
      </trkpt>
      <trkpt lat="42.130442" lon="9.085903">
        <ele>1637.4</ele>
        <time>2022-09-13T07:51:19Z</time>
      </trkpt>
      <trkpt lat="42.130368" lon="9.085905">
        <ele>1636.4</ele>
        <time>2022-09-13T07:51:30Z</time>
      </trkpt>
      <trkpt lat="42.13036" lon="9.08591">
        <ele>1636.2</ele>
        <time>2022-09-13T07:51:32Z</time>
      </trkpt>
      <trkpt lat="42.130252" lon="9.08596">
        <ele>1634.8</ele>
        <time>2022-09-13T07:51:45Z</time>
      </trkpt>
      <trkpt lat="42.130167" lon="9.085937">
        <ele>1633.6</ele>
        <time>2022-09-13T07:51:55Z</time>
      </trkpt>
      <trkpt lat="42.13007" lon="9.085978">
        <ele>1632.8</ele>
        <time>2022-09-13T07:52:06Z</time>
      </trkpt>
      <trkpt lat="42.129977" lon="9.085995">
        <ele>1631.4</ele>
        <time>2022-09-13T07:52:19Z</time>
      </trkpt>
      <trkpt lat="42.129907" lon="9.086028">
        <ele>1630.6</ele>
        <time>2022-09-13T07:52:31Z</time>
      </trkpt>
      <trkpt lat="42.129833" lon="9.086088">
        <ele>1629.8</ele>
        <time>2022-09-13T07:52:41Z</time>
      </trkpt>
      <trkpt lat="42.129823" lon="9.086087">
        <ele>1629.6</ele>
        <time>2022-09-13T07:52:42Z</time>
      </trkpt>
      <trkpt lat="42.129755" lon="9.086075">
        <ele>1629.2</ele>
        <time>2022-09-13T07:52:49Z</time>
      </trkpt>
      <trkpt lat="42.129707" lon="9.086105">
        <ele>1628.4</ele>
        <time>2022-09-13T07:52:54Z</time>
      </trkpt>
      <trkpt lat="42.12964" lon="9.086157">
        <ele>1627.4</ele>
        <time>2022-09-13T07:53:03Z</time>
      </trkpt>
      <trkpt lat="42.129597" lon="9.086173">
        <ele>1627.0</ele>
        <time>2022-09-13T07:53:09Z</time>
      </trkpt>
      <trkpt lat="42.129537" lon="9.086148">
        <ele>1625.8</ele>
        <time>2022-09-13T07:53:22Z</time>
      </trkpt>
      <trkpt lat="42.129483" lon="9.086178">
        <ele>1625.8</ele>
        <time>2022-09-13T07:53:29Z</time>
      </trkpt>
      <trkpt lat="42.129447" lon="9.086218">
        <ele>1626.0</ele>
        <time>2022-09-13T07:53:34Z</time>
      </trkpt>
      <trkpt lat="42.129438" lon="9.086225">
        <ele>1626.0</ele>
        <time>2022-09-13T07:53:36Z</time>
      </trkpt>
      <trkpt lat="42.129387" lon="9.086275">
        <ele>1626.0</ele>
        <time>2022-09-13T07:53:43Z</time>
      </trkpt>
      <trkpt lat="42.129338" lon="9.086343">
        <ele>1626.0</ele>
        <time>2022-09-13T07:53:51Z</time>
      </trkpt>
      <trkpt lat="42.129352" lon="9.08639">
        <ele>1625.2</ele>
        <time>2022-09-13T07:53:56Z</time>
      </trkpt>
      <trkpt lat="42.129363" lon="9.086443">
        <ele>1624.0</ele>
        <time>2022-09-13T07:54:02Z</time>
      </trkpt>
      <trkpt lat="42.129357" lon="9.086487">
        <ele>1622.8</ele>
        <time>2022-09-13T07:54:07Z</time>
      </trkpt>
      <trkpt lat="42.129328" lon="9.086577">
        <ele>1620.4</ele>
        <time>2022-09-13T07:54:23Z</time>
      </trkpt>
      <trkpt lat="42.12932" lon="9.086612">
        <ele>1618.6</ele>
        <time>2022-09-13T07:54:31Z</time>
      </trkpt>
      <trkpt lat="42.129308" lon="9.086642">
        <ele>1617.4</ele>
        <time>2022-09-13T07:54:37Z</time>
      </trkpt>
      <trkpt lat="42.129323" lon="9.086718">
        <ele>1613.0</ele>
        <time>2022-09-13T07:54:53Z</time>
      </trkpt>
      <trkpt lat="42.129323" lon="9.086727">
        <ele>1612.4</ele>
        <time>2022-09-13T07:54:56Z</time>
      </trkpt>
      <trkpt lat="42.129323" lon="9.086735">
        <ele>1612.2</ele>
        <time>2022-09-13T07:54:57Z</time>
      </trkpt>
      <trkpt lat="42.129295" lon="9.086795">
        <ele>1609.8</ele>
        <time>2022-09-13T07:55:13Z</time>
      </trkpt>
      <trkpt lat="42.129223" lon="9.086777">
        <ele>1607.0</ele>
        <time>2022-09-13T07:55:27Z</time>
      </trkpt>
      <trkpt lat="42.129188" lon="9.086785">
        <ele>1605.2</ele>
        <time>2022-09-13T07:55:37Z</time>
      </trkpt>
      <trkpt lat="42.129147" lon="9.086785">
        <ele>1602.8</ele>
        <time>2022-09-13T07:55:50Z</time>
      </trkpt>
      <trkpt lat="42.129108" lon="9.086805">
        <ele>1601.0</ele>
        <time>2022-09-13T07:55:58Z</time>
      </trkpt>
      <trkpt lat="42.12907" lon="9.08687">
        <ele>1598.2</ele>
        <time>2022-09-13T07:56:12Z</time>
      </trkpt>
      <trkpt lat="42.129065" lon="9.086872">
        <ele>1598.0</ele>
        <time>2022-09-13T07:56:13Z</time>
      </trkpt>
      <trkpt lat="42.129037" lon="9.0869">
        <ele>1596.6</ele>
        <time>2022-09-13T07:56:22Z</time>
      </trkpt>
      <trkpt lat="42.129025" lon="9.087025">
        <ele>1594.2</ele>
        <time>2022-09-13T07:56:40Z</time>
      </trkpt>
      <trkpt lat="42.128997" lon="9.087122">
        <ele>1591.6</ele>
        <time>2022-09-13T07:56:57Z</time>
      </trkpt>
      <trkpt lat="42.128907" lon="9.087153">
        <ele>1591.2</ele>
        <time>2022-09-13T07:57:17Z</time>
      </trkpt>
      <trkpt lat="42.128875" lon="9.087183">
        <ele>1591.2</ele>
        <time>2022-09-13T07:57:21Z</time>
      </trkpt>
      <trkpt lat="42.128847" lon="9.087225">
        <ele>1591.0</ele>
        <time>2022-09-13T07:57:26Z</time>
      </trkpt>
      <trkpt lat="42.12884" lon="9.087223">
        <ele>1591.0</ele>
        <time>2022-09-13T07:57:28Z</time>
      </trkpt>
      <trkpt lat="42.128792" lon="9.087227">
        <ele>1590.2</ele>
        <time>2022-09-13T07:57:35Z</time>
      </trkpt>
      <trkpt lat="42.128735" lon="9.087238">
        <ele>1589.8</ele>
        <time>2022-09-13T07:57:44Z</time>
      </trkpt>
      <trkpt lat="42.12869" lon="9.087247">
        <ele>1589.2</ele>
        <time>2022-09-13T07:57:51Z</time>
      </trkpt>
      <trkpt lat="42.128652" lon="9.087253">
        <ele>1588.4</ele>
        <time>2022-09-13T07:57:57Z</time>
      </trkpt>
      <trkpt lat="42.12861" lon="9.08725">
        <ele>1587.2</ele>
        <time>2022-09-13T07:58:04Z</time>
      </trkpt>
      <trkpt lat="42.128558" lon="9.087262">
        <ele>1585.2</ele>
        <time>2022-09-13T07:58:10Z</time>
      </trkpt>
      <trkpt lat="42.128452" lon="9.087327">
        <ele>1584.0</ele>
        <time>2022-09-13T07:58:23Z</time>
      </trkpt>
      <trkpt lat="42.128327" lon="9.087443">
        <ele>1582.2</ele>
        <time>2022-09-13T07:58:41Z</time>
      </trkpt>
      <trkpt lat="42.12828" lon="9.087457">
        <ele>1581.8</ele>
        <time>2022-09-13T07:58:47Z</time>
      </trkpt>
      <trkpt lat="42.128145" lon="9.087498">
        <ele>1577.6</ele>
        <time>2022-09-13T07:59:09Z</time>
      </trkpt>
      <trkpt lat="42.12814" lon="9.0875">
        <ele>1577.6</ele>
        <time>2022-09-13T07:59:10Z</time>
      </trkpt>
      <trkpt lat="42.128102" lon="9.087503">
        <ele>1576.0</ele>
        <time>2022-09-13T07:59:18Z</time>
      </trkpt>
      <trkpt lat="42.128048" lon="9.087463">
        <ele>1574.4</ele>
        <time>2022-09-13T07:59:29Z</time>
      </trkpt>
      <trkpt lat="42.127972" lon="9.087433">
        <ele>1573.2</ele>
        <time>2022-09-13T07:59:41Z</time>
      </trkpt>
      <trkpt lat="42.127928" lon="9.08742">
        <ele>1572.0</ele>
        <time>2022-09-13T07:59:48Z</time>
      </trkpt>
      <trkpt lat="42.127868" lon="9.087412">
        <ele>1571.4</ele>
        <time>2022-09-13T07:59:56Z</time>
      </trkpt>
      <trkpt lat="42.127818" lon="9.087393">
        <ele>1569.8</ele>
        <time>2022-09-13T08:00:03Z</time>
      </trkpt>
      <trkpt lat="42.127693" lon="9.087432">
        <ele>1567.6</ele>
        <time>2022-09-13T08:00:18Z</time>
      </trkpt>
      <trkpt lat="42.127607" lon="9.087455">
        <ele>1566.8</ele>
        <time>2022-09-13T08:00:30Z</time>
      </trkpt>
      <trkpt lat="42.127602" lon="9.08745">
        <ele>1566.8</ele>
        <time>2022-09-13T08:00:32Z</time>
      </trkpt>
      <trkpt lat="42.127552" lon="9.087417">
        <ele>1566.0</ele>
        <time>2022-09-13T08:00:43Z</time>
      </trkpt>
      <trkpt lat="42.127395" lon="9.087363">
        <ele>1563.2</ele>
        <time>2022-09-13T08:01:11Z</time>
      </trkpt>
      <trkpt lat="42.127348" lon="9.08732">
        <ele>1562.4</ele>
        <time>2022-09-13T08:01:18Z</time>
      </trkpt>
      <trkpt lat="42.127325" lon="9.087275">
        <ele>1561.2</ele>
        <time>2022-09-13T08:01:24Z</time>
      </trkpt>
      <trkpt lat="42.127317" lon="9.087237">
        <ele>1559.8</ele>
        <time>2022-09-13T08:01:30Z</time>
      </trkpt>
      <trkpt lat="42.127182" lon="9.087208">
        <ele>1556.6</ele>
        <time>2022-09-13T08:01:49Z</time>
      </trkpt>
      <trkpt lat="42.127117" lon="9.087215">
        <ele>1554.6</ele>
        <time>2022-09-13T08:01:56Z</time>
      </trkpt>
      <trkpt lat="42.12705" lon="9.087232">
        <ele>1553.8</ele>
        <time>2022-09-13T08:02:03Z</time>
      </trkpt>
      <trkpt lat="42.126687" lon="9.087152">
        <ele>1546.6</ele>
        <time>2022-09-13T08:02:47Z</time>
      </trkpt>
      <trkpt lat="42.126567" lon="9.087142">
        <ele>1544.0</ele>
        <time>2022-09-13T08:03:04Z</time>
      </trkpt>
      <trkpt lat="42.12646" lon="9.08716">
        <ele>1541.8</ele>
        <time>2022-09-13T08:03:18Z</time>
      </trkpt>
      <trkpt lat="42.126353" lon="9.087157">
        <ele>1540.0</ele>
        <time>2022-09-13T08:03:30Z</time>
      </trkpt>
      <trkpt lat="42.126253" lon="9.087162">
        <ele>1538.8</ele>
        <time>2022-09-13T08:03:41Z</time>
      </trkpt>
      <trkpt lat="42.126105" lon="9.087125">
        <ele>1537.4</ele>
        <time>2022-09-13T08:03:59Z</time>
      </trkpt>
      <trkpt lat="42.126075" lon="9.087125">
        <ele>1536.0</ele>
        <time>2022-09-13T08:04:05Z</time>
      </trkpt>
      <trkpt lat="42.126022" lon="9.087068">
        <ele>1534.8</ele>
        <time>2022-09-13T08:04:13Z</time>
      </trkpt>
      <trkpt lat="42.125978" lon="9.087115">
        <ele>1534.2</ele>
        <time>2022-09-13T08:04:19Z</time>
      </trkpt>
      <trkpt lat="42.125945" lon="9.087212">
        <ele>1533.8</ele>
        <time>2022-09-13T08:04:27Z</time>
      </trkpt>
      <trkpt lat="42.12588" lon="9.08746">
        <ele>1533.4</ele>
        <time>2022-09-13T08:04:48Z</time>
      </trkpt>
      <trkpt lat="42.125873" lon="9.087465">
        <ele>1533.4</ele>
        <time>2022-09-13T08:04:49Z</time>
      </trkpt>
      <trkpt lat="42.12578" lon="9.087548">
        <ele>1533.0</ele>
        <time>2022-09-13T08:05:02Z</time>
      </trkpt>
      <trkpt lat="42.125723" lon="9.087585">
        <ele>1533.0</ele>
        <time>2022-09-13T08:05:09Z</time>
      </trkpt>
      <trkpt lat="42.125545" lon="9.087608">
        <ele>1531.0</ele>
        <time>2022-09-13T08:05:28Z</time>
      </trkpt>
      <trkpt lat="42.125465" lon="9.087622">
        <ele>1529.6</ele>
        <time>2022-09-13T08:05:36Z</time>
      </trkpt>
      <trkpt lat="42.125388" lon="9.087632">
        <ele>1528.6</ele>
        <time>2022-09-13T08:05:46Z</time>
      </trkpt>
      <trkpt lat="42.125345" lon="9.087697">
        <ele>1528.2</ele>
        <time>2022-09-13T08:05:53Z</time>
      </trkpt>
      <trkpt lat="42.125198" lon="9.08799">
        <ele>1527.2</ele>
        <time>2022-09-13T08:06:27Z</time>
      </trkpt>
      <trkpt lat="42.12519" lon="9.087995">
        <ele>1527.2</ele>
        <time>2022-09-13T08:06:28Z</time>
      </trkpt>
      <trkpt lat="42.125125" lon="9.088047">
        <ele>1525.8</ele>
        <time>2022-09-13T08:06:37Z</time>
      </trkpt>
      <trkpt lat="42.125042" lon="9.088147">
        <ele>1523.6</ele>
        <time>2022-09-13T08:06:51Z</time>
      </trkpt>
      <trkpt lat="42.125018" lon="9.088195">
        <ele>1522.8</ele>
        <time>2022-09-13T08:06:56Z</time>
      </trkpt>
      <trkpt lat="42.125033" lon="9.088295">
        <ele>1521.8</ele>
        <time>2022-09-13T08:07:05Z</time>
      </trkpt>
      <trkpt lat="42.125005" lon="9.08835">
        <ele>1521.4</ele>
        <time>2022-09-13T08:07:11Z</time>
      </trkpt>
      <trkpt lat="42.125013" lon="9.088505">
        <ele>1519.2</ele>
        <time>2022-09-13T08:07:27Z</time>
      </trkpt>
      <trkpt lat="42.12508" lon="9.088717">
        <ele>1514.4</ele>
        <time>2022-09-13T08:07:52Z</time>
      </trkpt>
      <trkpt lat="42.125068" lon="9.088785">
        <ele>1512.8</ele>
        <time>2022-09-13T08:07:59Z</time>
      </trkpt>
      <trkpt lat="42.125043" lon="9.08884">
        <ele>1512.0</ele>
        <time>2022-09-13T08:08:04Z</time>
      </trkpt>
      <trkpt lat="42.125035" lon="9.088837">
        <ele>1511.8</ele>
        <time>2022-09-13T08:08:05Z</time>
      </trkpt>
      <trkpt lat="42.124993" lon="9.088823">
        <ele>1510.8</ele>
        <time>2022-09-13T08:08:10Z</time>
      </trkpt>
      <trkpt lat="42.124945" lon="9.088875">
        <ele>1509.4</ele>
        <time>2022-09-13T08:08:18Z</time>
      </trkpt>
      <trkpt lat="42.124923" lon="9.089027">
        <ele>1507.4</ele>
        <time>2022-09-13T08:08:30Z</time>
      </trkpt>
      <trkpt lat="42.124897" lon="9.089082">
        <ele>1506.8</ele>
        <time>2022-09-13T08:08:35Z</time>
      </trkpt>
      <trkpt lat="42.124838" lon="9.089137">
        <ele>1506.4</ele>
        <time>2022-09-13T08:08:43Z</time>
      </trkpt>
      <trkpt lat="42.124805" lon="9.089122">
        <ele>1505.8</ele>
        <time>2022-09-13T08:08:47Z</time>
      </trkpt>
      <trkpt lat="42.124768" lon="9.089095">
        <ele>1505.0</ele>
        <time>2022-09-13T08:08:53Z</time>
      </trkpt>
      <trkpt lat="42.124688" lon="9.089097">
        <ele>1503.0</ele>
        <time>2022-09-13T08:09:06Z</time>
      </trkpt>
      <trkpt lat="42.124653" lon="9.089098">
        <ele>1502.2</ele>
        <time>2022-09-13T08:09:12Z</time>
      </trkpt>
      <trkpt lat="42.124623" lon="9.089092">
        <ele>1501.8</ele>
        <time>2022-09-13T08:09:17Z</time>
      </trkpt>
      <trkpt lat="42.124555" lon="9.08913">
        <ele>1501.2</ele>
        <time>2022-09-13T08:09:27Z</time>
      </trkpt>
      <trkpt lat="42.124442" lon="9.089132">
        <ele>1499.4</ele>
        <time>2022-09-13T08:09:42Z</time>
      </trkpt>
      <trkpt lat="42.124438" lon="9.089147">
        <ele>1499.2</ele>
        <time>2022-09-13T08:09:43Z</time>
      </trkpt>
      <trkpt lat="42.124428" lon="9.08926">
        <ele>1498.4</ele>
        <time>2022-09-13T08:09:50Z</time>
      </trkpt>
      <trkpt lat="42.124422" lon="9.089357">
        <ele>1498.2</ele>
        <time>2022-09-13T08:09:56Z</time>
      </trkpt>
      <trkpt lat="42.124397" lon="9.089457">
        <ele>1497.4</ele>
        <time>2022-09-13T08:10:02Z</time>
      </trkpt>
      <trkpt lat="42.124402" lon="9.089633">
        <ele>1496.2</ele>
        <time>2022-09-13T08:10:12Z</time>
      </trkpt>
      <trkpt lat="42.124397" lon="9.08973">
        <ele>1495.0</ele>
        <time>2022-09-13T08:10:17Z</time>
      </trkpt>
      <trkpt lat="42.124417" lon="9.089822">
        <ele>1494.2</ele>
        <time>2022-09-13T08:10:22Z</time>
      </trkpt>
      <trkpt lat="42.124395" lon="9.089813">
        <ele>1493.8</ele>
        <time>2022-09-13T08:10:25Z</time>
      </trkpt>
      <trkpt lat="42.124363" lon="9.089762">
        <ele>1493.4</ele>
        <time>2022-09-13T08:10:32Z</time>
      </trkpt>
      <trkpt lat="42.124292" lon="9.089717">
        <ele>1491.8</ele>
        <time>2022-09-13T08:10:46Z</time>
      </trkpt>
      <trkpt lat="42.124263" lon="9.089698">
        <ele>1490.6</ele>
        <time>2022-09-13T08:10:51Z</time>
      </trkpt>
      <trkpt lat="42.124217" lon="9.089635">
        <ele>1489.4</ele>
        <time>2022-09-13T08:11:00Z</time>
      </trkpt>
      <trkpt lat="42.124143" lon="9.089623">
        <ele>1487.6</ele>
        <time>2022-09-13T08:11:11Z</time>
      </trkpt>
      <trkpt lat="42.124137" lon="9.089622">
        <ele>1487.6</ele>
        <time>2022-09-13T08:11:12Z</time>
      </trkpt>
      <trkpt lat="42.124128" lon="9.089743">
        <ele>1484.6</ele>
        <time>2022-09-13T08:11:26Z</time>
      </trkpt>
      <trkpt lat="42.12392" lon="9.090055">
        <ele>1483.0</ele>
        <time>2022-09-13T08:11:38Z</time>
      </trkpt>
      <trkpt lat="42.123668" lon="9.090087">
        <ele>1481.4</ele>
        <time>2022-09-13T08:11:49Z</time>
      </trkpt>
      <trkpt lat="42.123715" lon="9.09011">
        <ele>1479.6</ele>
        <time>2022-09-13T08:12:01Z</time>
      </trkpt>
      <trkpt lat="42.123688" lon="9.090103">
        <ele>1479.6</ele>
        <time>2022-09-13T08:12:01Z</time>
      </trkpt>
      <trkpt lat="42.123588" lon="9.090233">
        <ele>1476.4</ele>
        <time>2022-09-13T08:12:26Z</time>
      </trkpt>
      <trkpt lat="42.123498" lon="9.090288">
        <ele>1474.8</ele>
        <time>2022-09-13T08:12:39Z</time>
      </trkpt>
      <trkpt lat="42.12347" lon="9.090342">
        <ele>1474.2</ele>
        <time>2022-09-13T08:12:45Z</time>
      </trkpt>
      <trkpt lat="42.123443" lon="9.090367">
        <ele>1473.6</ele>
        <time>2022-09-13T08:12:49Z</time>
      </trkpt>
      <trkpt lat="42.123378" lon="9.090363">
        <ele>1473.0</ele>
        <time>2022-09-13T08:12:57Z</time>
      </trkpt>
      <trkpt lat="42.123333" lon="9.090392">
        <ele>1472.2</ele>
        <time>2022-09-13T08:13:03Z</time>
      </trkpt>
      <trkpt lat="42.123267" lon="9.09044">
        <ele>1471.2</ele>
        <time>2022-09-13T08:13:10Z</time>
      </trkpt>
      <trkpt lat="42.12319" lon="9.090443">
        <ele>1470.4</ele>
        <time>2022-09-13T08:13:17Z</time>
      </trkpt>
      <trkpt lat="42.123158" lon="9.090465">
        <ele>1470.2</ele>
        <time>2022-09-13T08:13:20Z</time>
      </trkpt>
      <trkpt lat="42.123098" lon="9.090472">
        <ele>1468.8</ele>
        <time>2022-09-13T08:13:27Z</time>
      </trkpt>
      <trkpt lat="42.123047" lon="9.09047">
        <ele>1468.0</ele>
        <time>2022-09-13T08:13:34Z</time>
      </trkpt>
      <trkpt lat="42.122958" lon="9.090427">
        <ele>1463.4</ele>
        <time>2022-09-13T08:14:07Z</time>
      </trkpt>
      <trkpt lat="42.122948" lon="9.090447">
        <ele>1461.6</ele>
        <time>2022-09-13T08:14:20Z</time>
      </trkpt>
      <trkpt lat="42.122913" lon="9.090445">
        <ele>1459.4</ele>
        <time>2022-09-13T08:14:37Z</time>
      </trkpt>
      <trkpt lat="42.122903" lon="9.090453">
        <ele>1459.0</ele>
        <time>2022-09-13T08:14:38Z</time>
      </trkpt>
      <trkpt lat="42.122708" lon="9.090662">
        <ele>1456.4</ele>
        <time>2022-09-13T08:14:56Z</time>
      </trkpt>
      <trkpt lat="42.122648" lon="9.09075">
        <ele>1456.2</ele>
        <time>2022-09-13T08:15:00Z</time>
      </trkpt>
      <trkpt lat="42.122537" lon="9.09079">
        <ele>1455.6</ele>
        <time>2022-09-13T08:15:05Z</time>
      </trkpt>
      <trkpt lat="42.122502" lon="9.090828">
        <ele>1455.2</ele>
        <time>2022-09-13T08:15:07Z</time>
      </trkpt>
      <trkpt lat="42.122405" lon="9.091038">
        <ele>1454.0</ele>
        <time>2022-09-13T08:15:15Z</time>
      </trkpt>
      <trkpt lat="42.122395" lon="9.09104">
        <ele>1453.8</ele>
        <time>2022-09-13T08:15:17Z</time>
      </trkpt>
      <trkpt lat="42.122337" lon="9.090995">
        <ele>1453.2</ele>
        <time>2022-09-13T08:15:24Z</time>
      </trkpt>
      <trkpt lat="42.122272" lon="9.091005">
        <ele>1452.2</ele>
        <time>2022-09-13T08:15:33Z</time>
      </trkpt>
      <trkpt lat="42.122242" lon="9.090998">
        <ele>1451.8</ele>
        <time>2022-09-13T08:15:37Z</time>
      </trkpt>
      <trkpt lat="42.122238" lon="9.091018">
        <ele>1451.4</ele>
        <time>2022-09-13T08:15:40Z</time>
      </trkpt>
      <trkpt lat="42.122252" lon="9.091062">
        <ele>1450.0</ele>
        <time>2022-09-13T08:15:47Z</time>
      </trkpt>
      <trkpt lat="42.12229" lon="9.091103">
        <ele>1448.8</ele>
        <time>2022-09-13T08:16:05Z</time>
      </trkpt>
      <trkpt lat="42.122282" lon="9.091107">
        <ele>1449.2</ele>
        <time>2022-09-13T08:16:08Z</time>
      </trkpt>
      <trkpt lat="42.122258" lon="9.091157">
        <ele>1448.6</ele>
        <time>2022-09-13T08:16:15Z</time>
      </trkpt>
      <trkpt lat="42.12225" lon="9.091262">
        <ele>1447.4</ele>
        <time>2022-09-13T08:16:24Z</time>
      </trkpt>
      <trkpt lat="42.122225" lon="9.091343">
        <ele>1447.4</ele>
        <time>2022-09-13T08:16:32Z</time>
      </trkpt>
      <trkpt lat="42.122192" lon="9.091545">
        <ele>1447.6</ele>
        <time>2022-09-13T08:16:47Z</time>
      </trkpt>
      <trkpt lat="42.122183" lon="9.091552">
        <ele>1447.6</ele>
        <time>2022-09-13T08:16:48Z</time>
      </trkpt>
      <trkpt lat="42.122127" lon="9.091528">
        <ele>1447.0</ele>
        <time>2022-09-13T08:16:54Z</time>
      </trkpt>
      <trkpt lat="42.121977" lon="9.091532">
        <ele>1445.6</ele>
        <time>2022-09-13T08:17:08Z</time>
      </trkpt>
      <trkpt lat="42.121888" lon="9.091487">
        <ele>1444.8</ele>
        <time>2022-09-13T08:17:19Z</time>
      </trkpt>
      <trkpt lat="42.121803" lon="9.091495">
        <ele>1443.6</ele>
        <time>2022-09-13T08:17:27Z</time>
      </trkpt>
      <trkpt lat="42.121772" lon="9.0915">
        <ele>1443.2</ele>
        <time>2022-09-13T08:17:30Z</time>
      </trkpt>
      <trkpt lat="42.121735" lon="9.091535">
        <ele>1443.0</ele>
        <time>2022-09-13T08:17:34Z</time>
      </trkpt>
      <trkpt lat="42.121768" lon="9.091552">
        <ele>1442.8</ele>
        <time>2022-09-13T08:17:37Z</time>
      </trkpt>
      <trkpt lat="42.121788" lon="9.091593">
        <ele>1442.6</ele>
        <time>2022-09-13T08:17:41Z</time>
      </trkpt>
      <trkpt lat="42.121808" lon="9.09178">
        <ele>1441.2</ele>
        <time>2022-09-13T08:17:53Z</time>
      </trkpt>
      <trkpt lat="42.121825" lon="9.091915">
        <ele>1440.6</ele>
        <time>2022-09-13T08:18:02Z</time>
      </trkpt>
      <trkpt lat="42.121863" lon="9.092012">
        <ele>1440.0</ele>
        <time>2022-09-13T08:18:09Z</time>
      </trkpt>
      <trkpt lat="42.121868" lon="9.092025">
        <ele>1440.0</ele>
        <time>2022-09-13T08:18:10Z</time>
      </trkpt>
      <trkpt lat="42.121813" lon="9.092017">
        <ele>1440.0</ele>
        <time>2022-09-13T08:18:14Z</time>
      </trkpt>
      <trkpt lat="42.121745" lon="9.092082">
        <ele>1440.4</ele>
        <time>2022-09-13T08:18:24Z</time>
      </trkpt>
      <trkpt lat="42.121653" lon="9.092077">
        <ele>1440.6</ele>
        <time>2022-09-13T08:18:38Z</time>
      </trkpt>
      <trkpt lat="42.121572" lon="9.091943">
        <ele>1441.4</ele>
        <time>2022-09-13T08:19:23Z</time>
      </trkpt>
      <trkpt lat="42.121532" lon="9.09195">
        <ele>1440.8</ele>
        <time>2022-09-13T08:19:31Z</time>
      </trkpt>
      <trkpt lat="42.121408" lon="9.091982">
        <ele>1440.0</ele>
        <time>2022-09-13T08:19:47Z</time>
      </trkpt>
      <trkpt lat="42.121345" lon="9.092013">
        <ele>1440.2</ele>
        <time>2022-09-13T08:19:53Z</time>
      </trkpt>
      <trkpt lat="42.121303" lon="9.092055">
        <ele>1440.6</ele>
        <time>2022-09-13T08:19:58Z</time>
      </trkpt>
      <trkpt lat="42.121255" lon="9.09215">
        <ele>1439.8</ele>
        <time>2022-09-13T08:20:07Z</time>
      </trkpt>
      <trkpt lat="42.12125" lon="9.092162">
        <ele>1439.4</ele>
        <time>2022-09-13T08:20:08Z</time>
      </trkpt>
      <trkpt lat="42.12122" lon="9.09222">
        <ele>1438.6</ele>
        <time>2022-09-13T08:20:16Z</time>
      </trkpt>
      <trkpt lat="42.12122" lon="9.092295">
        <ele>1437.2</ele>
        <time>2022-09-13T08:20:23Z</time>
      </trkpt>
      <trkpt lat="42.121203" lon="9.092355">
        <ele>1436.0</ele>
        <time>2022-09-13T08:20:32Z</time>
      </trkpt>
      <trkpt lat="42.121193" lon="9.092387">
        <ele>1435.6</ele>
        <time>2022-09-13T08:20:37Z</time>
      </trkpt>
      <trkpt lat="42.121202" lon="9.092468">
        <ele>1434.4</ele>
        <time>2022-09-13T08:20:45Z</time>
      </trkpt>
      <trkpt lat="42.121197" lon="9.092543">
        <ele>1433.0</ele>
        <time>2022-09-13T08:20:53Z</time>
      </trkpt>
      <trkpt lat="42.1212" lon="9.092553">
        <ele>1433.0</ele>
        <time>2022-09-13T08:20:54Z</time>
      </trkpt>
      <trkpt lat="42.121262" lon="9.092587">
        <ele>1430.8</ele>
        <time>2022-09-13T08:21:06Z</time>
      </trkpt>
      <trkpt lat="42.121243" lon="9.092698">
        <ele>1427.8</ele>
        <time>2022-09-13T08:21:15Z</time>
      </trkpt>
      <trkpt lat="42.121237" lon="9.092815">
        <ele>1426.0</ele>
        <time>2022-09-13T08:21:27Z</time>
      </trkpt>
      <trkpt lat="42.121233" lon="9.092888">
        <ele>1424.8</ele>
        <time>2022-09-13T08:21:34Z</time>
      </trkpt>
      <trkpt lat="42.12121" lon="9.093033">
        <ele>1423.4</ele>
        <time>2022-09-13T08:21:46Z</time>
      </trkpt>
      <trkpt lat="42.121203" lon="9.093037">
        <ele>1423.4</ele>
        <time>2022-09-13T08:21:47Z</time>
      </trkpt>
      <trkpt lat="42.121163" lon="9.093057">
        <ele>1422.8</ele>
        <time>2022-09-13T08:21:53Z</time>
      </trkpt>
      <trkpt lat="42.121118" lon="9.093107">
        <ele>1421.2</ele>
        <time>2022-09-13T08:22:01Z</time>
      </trkpt>
      <trkpt lat="42.121095" lon="9.093157">
        <ele>1420.6</ele>
        <time>2022-09-13T08:22:08Z</time>
      </trkpt>
      <trkpt lat="42.121072" lon="9.09324">
        <ele>1419.0</ele>
        <time>2022-09-13T08:22:17Z</time>
      </trkpt>
      <trkpt lat="42.121013" lon="9.093308">
        <ele>1417.6</ele>
        <time>2022-09-13T08:22:25Z</time>
      </trkpt>
      <trkpt lat="42.121005" lon="9.093318">
        <ele>1417.6</ele>
        <time>2022-09-13T08:22:26Z</time>
      </trkpt>
      <trkpt lat="42.120973" lon="9.093353">
        <ele>1417.2</ele>
        <time>2022-09-13T08:22:30Z</time>
      </trkpt>
      <trkpt lat="42.120972" lon="9.093535">
        <ele>1417.0</ele>
        <time>2022-09-13T08:22:44Z</time>
      </trkpt>
      <trkpt lat="42.120988" lon="9.093617">
        <ele>1416.8</ele>
        <time>2022-09-13T08:22:53Z</time>
      </trkpt>
      <trkpt lat="42.120937" lon="9.093848">
        <ele>1413.0</ele>
        <time>2022-09-13T08:23:12Z</time>
      </trkpt>
      <trkpt lat="42.12095" lon="9.093932">
        <ele>1412.4</ele>
        <time>2022-09-13T08:23:18Z</time>
      </trkpt>
      <trkpt lat="42.12097" lon="9.09398">
        <ele>1411.8</ele>
        <time>2022-09-13T08:23:22Z</time>
      </trkpt>
      <trkpt lat="42.121012" lon="9.094017">
        <ele>1410.8</ele>
        <time>2022-09-13T08:23:28Z</time>
      </trkpt>
      <trkpt lat="42.121032" lon="9.09404">
        <ele>1410.2</ele>
        <time>2022-09-13T08:23:31Z</time>
      </trkpt>
      <trkpt lat="42.121042" lon="9.094083">
        <ele>1409.6</ele>
        <time>2022-09-13T08:23:35Z</time>
      </trkpt>
      <trkpt lat="42.121058" lon="9.094162">
        <ele>1409.2</ele>
        <time>2022-09-13T08:23:43Z</time>
      </trkpt>
      <trkpt lat="42.121052" lon="9.094193">
        <ele>1409.2</ele>
        <time>2022-09-13T08:23:46Z</time>
      </trkpt>
      <trkpt lat="42.121033" lon="9.094237">
        <ele>1408.8</ele>
        <time>2022-09-13T08:23:51Z</time>
      </trkpt>
      <trkpt lat="42.121028" lon="9.09437">
        <ele>1407.4</ele>
        <time>2022-09-13T08:24:00Z</time>
      </trkpt>
      <trkpt lat="42.120982" lon="9.094355">
        <ele>1407.4</ele>
        <time>2022-09-13T08:24:05Z</time>
      </trkpt>
      <trkpt lat="42.120972" lon="9.094463">
        <ele>1406.0</ele>
        <time>2022-09-13T08:24:13Z</time>
      </trkpt>
      <trkpt lat="42.120953" lon="9.094488">
        <ele>1406.0</ele>
        <time>2022-09-13T08:24:16Z</time>
      </trkpt>
      <trkpt lat="42.1209" lon="9.094455">
        <ele>1405.8</ele>
        <time>2022-09-13T08:24:36Z</time>
      </trkpt>
      <trkpt lat="42.120903" lon="9.0945">
        <ele>1404.0</ele>
        <time>2022-09-13T08:24:49Z</time>
      </trkpt>
      <trkpt lat="42.120958" lon="9.094598">
        <ele>1402.6</ele>
        <time>2022-09-13T08:25:08Z</time>
      </trkpt>
      <trkpt lat="42.12099" lon="9.094672">
        <ele>1399.8</ele>
        <time>2022-09-13T08:25:23Z</time>
      </trkpt>
      <trkpt lat="42.120993" lon="9.094685">
        <ele>1399.4</ele>
        <time>2022-09-13T08:25:25Z</time>
      </trkpt>
      <trkpt lat="42.121025" lon="9.094722">
        <ele>1397.6</ele>
        <time>2022-09-13T08:25:35Z</time>
      </trkpt>
      <trkpt lat="42.121098" lon="9.094743">
        <ele>1396.0</ele>
        <time>2022-09-13T08:25:50Z</time>
      </trkpt>
      <trkpt lat="42.121052" lon="9.094853">
        <ele>1393.6</ele>
        <time>2022-09-13T08:26:04Z</time>
      </trkpt>
      <trkpt lat="42.121052" lon="9.094867">
        <ele>1393.6</ele>
        <time>2022-09-13T08:26:05Z</time>
      </trkpt>
      <trkpt lat="42.121027" lon="9.094893">
        <ele>1393.0</ele>
        <time>2022-09-13T08:26:11Z</time>
      </trkpt>
      <trkpt lat="42.121043" lon="9.094937">
        <ele>1392.6</ele>
        <time>2022-09-13T08:26:18Z</time>
      </trkpt>
      <trkpt lat="42.121092" lon="9.09501">
        <ele>1392.0</ele>
        <time>2022-09-13T08:26:30Z</time>
      </trkpt>
      <trkpt lat="42.121115" lon="9.09506">
        <ele>1392.2</ele>
        <time>2022-09-13T08:26:38Z</time>
      </trkpt>
      <trkpt lat="42.121107" lon="9.095098">
        <ele>1391.8</ele>
        <time>2022-09-13T08:26:44Z</time>
      </trkpt>
      <trkpt lat="42.121112" lon="9.09511">
        <ele>1391.8</ele>
        <time>2022-09-13T08:26:46Z</time>
      </trkpt>
      <trkpt lat="42.1211" lon="9.095145">
        <ele>1392.6</ele>
        <time>2022-09-13T08:26:56Z</time>
      </trkpt>
      <trkpt lat="42.121082" lon="9.095142">
        <ele>1392.4</ele>
        <time>2022-09-13T08:26:58Z</time>
      </trkpt>
      <trkpt lat="42.121048" lon="9.095113">
        <ele>1392.4</ele>
        <time>2022-09-13T08:27:02Z</time>
      </trkpt>
      <trkpt lat="42.120997" lon="9.095057">
        <ele>1392.4</ele>
        <time>2022-09-13T08:27:09Z</time>
      </trkpt>
      <trkpt lat="42.120955" lon="9.095053">
        <ele>1392.4</ele>
        <time>2022-09-13T08:27:14Z</time>
      </trkpt>
      <trkpt lat="42.120923" lon="9.09506">
        <ele>1391.6</ele>
        <time>2022-09-13T08:27:19Z</time>
      </trkpt>
      <trkpt lat="42.120893" lon="9.095097">
        <ele>1391.0</ele>
        <time>2022-09-13T08:27:24Z</time>
      </trkpt>
      <trkpt lat="42.120897" lon="9.09513">
        <ele>1390.8</ele>
        <time>2022-09-13T08:27:27Z</time>
      </trkpt>
      <trkpt lat="42.120902" lon="9.09514">
        <ele>1390.6</ele>
        <time>2022-09-13T08:27:28Z</time>
      </trkpt>
      <trkpt lat="42.120963" lon="9.095183">
        <ele>1389.6</ele>
        <time>2022-09-13T08:27:36Z</time>
      </trkpt>
      <trkpt lat="42.120997" lon="9.095213">
        <ele>1389.4</ele>
        <time>2022-09-13T08:27:42Z</time>
      </trkpt>
      <trkpt lat="42.121217" lon="9.095312">
        <ele>1388.8</ele>
        <time>2022-09-13T08:28:00Z</time>
      </trkpt>
      <trkpt lat="42.121212" lon="9.095363">
        <ele>1388.6</ele>
        <time>2022-09-13T08:28:03Z</time>
      </trkpt>
      <trkpt lat="42.121205" lon="9.095378">
        <ele>1388.6</ele>
        <time>2022-09-13T08:28:04Z</time>
      </trkpt>
      <trkpt lat="42.121165" lon="9.095378">
        <ele>1388.6</ele>
        <time>2022-09-13T08:28:07Z</time>
      </trkpt>
      <trkpt lat="42.121092" lon="9.095323">
        <ele>1388.6</ele>
        <time>2022-09-13T08:28:13Z</time>
      </trkpt>
      <trkpt lat="42.121233" lon="9.095193">
        <ele>1388.8</ele>
        <time>2022-09-13T08:28:20Z</time>
      </trkpt>
      <trkpt lat="42.121255" lon="9.095125">
        <ele>1389.2</ele>
        <time>2022-09-13T08:28:22Z</time>
      </trkpt>
      <trkpt lat="42.121232" lon="9.095125">
        <ele>1389.4</ele>
        <time>2022-09-13T08:28:23Z</time>
      </trkpt>
      <trkpt lat="42.121157" lon="9.095162">
        <ele>1389.4</ele>
        <time>2022-09-13T08:28:27Z</time>
      </trkpt>
      <trkpt lat="42.121098" lon="9.0952">
        <ele>1389.4</ele>
        <time>2022-09-13T08:28:31Z</time>
      </trkpt>
      <trkpt lat="42.121283" lon="9.095078">
        <ele>1332.4</ele>
        <time>2022-09-13T09:30:10Z</time>
      </trkpt>
      <trkpt lat="42.121213" lon="9.095197">
        <ele>1305.6</ele>
        <time>2022-09-13T09:31:38Z</time>
      </trkpt>
      <trkpt lat="42.121087" lon="9.09567">
        <ele>1306.6</ele>
        <time>2022-09-13T09:31:51Z</time>
      </trkpt>
      <trkpt lat="42.121045" lon="9.095648">
        <ele>1306.6</ele>
        <time>2022-09-13T09:31:52Z</time>
      </trkpt>
      <trkpt lat="42.121005" lon="9.09565">
        <ele>1307.6</ele>
        <time>2022-09-13T09:31:56Z</time>
      </trkpt>
      <trkpt lat="42.120847" lon="9.095735">
        <ele>1311.2</ele>
        <time>2022-09-13T09:32:11Z</time>
      </trkpt>
      <trkpt lat="42.120792" lon="9.09578">
        <ele>1312.8</ele>
        <time>2022-09-13T09:32:16Z</time>
      </trkpt>
      <trkpt lat="42.120638" lon="9.095855">
        <ele>1318.6</ele>
        <time>2022-09-13T09:32:29Z</time>
      </trkpt>
      <trkpt lat="42.120585" lon="9.095868">
        <ele>1320.4</ele>
        <time>2022-09-13T09:32:34Z</time>
      </trkpt>
      <trkpt lat="42.120523" lon="9.095883">
        <ele>1322.4</ele>
        <time>2022-09-13T09:32:41Z</time>
      </trkpt>
      <trkpt lat="42.120482" lon="9.095768">
        <ele>1323.6</ele>
        <time>2022-09-13T09:32:50Z</time>
      </trkpt>
      <trkpt lat="42.120458" lon="9.095745">
        <ele>1323.8</ele>
        <time>2022-09-13T09:32:53Z</time>
      </trkpt>
      <trkpt lat="42.120432" lon="9.095795">
        <ele>1324.2</ele>
        <time>2022-09-13T09:32:57Z</time>
      </trkpt>
      <trkpt lat="42.120392" lon="9.09593">
        <ele>1324.2</ele>
        <time>2022-09-13T09:33:05Z</time>
      </trkpt>
      <trkpt lat="42.120358" lon="9.096075">
        <ele>1325.4</ele>
        <time>2022-09-13T09:33:15Z</time>
      </trkpt>
      <trkpt lat="42.120342" lon="9.096088">
        <ele>1326.4</ele>
        <time>2022-09-13T09:33:19Z</time>
      </trkpt>
      <trkpt lat="42.120312" lon="9.096067">
        <ele>1327.4</ele>
        <time>2022-09-13T09:33:24Z</time>
      </trkpt>
      <trkpt lat="42.120247" lon="9.096052">
        <ele>1330.6</ele>
        <time>2022-09-13T09:33:33Z</time>
      </trkpt>
      <trkpt lat="42.120222" lon="9.096105">
        <ele>1332.0</ele>
        <time>2022-09-13T09:33:38Z</time>
      </trkpt>
      <trkpt lat="42.120205" lon="9.096137">
        <ele>1334.0</ele>
        <time>2022-09-13T09:33:41Z</time>
      </trkpt>
      <trkpt lat="42.120185" lon="9.09616">
        <ele>1336.2</ele>
        <time>2022-09-13T09:33:47Z</time>
      </trkpt>
      <trkpt lat="42.120165" lon="9.096178">
        <ele>1338.4</ele>
        <time>2022-09-13T09:33:51Z</time>
      </trkpt>
      <trkpt lat="42.120152" lon="9.096213">
        <ele>1339.8</ele>
        <time>2022-09-13T09:33:54Z</time>
      </trkpt>
      <trkpt lat="42.120148" lon="9.096262">
        <ele>1340.6</ele>
        <time>2022-09-13T09:33:57Z</time>
      </trkpt>
      <trkpt lat="42.120163" lon="9.096452">
        <ele>1344.0</ele>
        <time>2022-09-13T09:34:06Z</time>
      </trkpt>
      <trkpt lat="42.120142" lon="9.09657">
        <ele>1348.6</ele>
        <time>2022-09-13T09:34:15Z</time>
      </trkpt>
      <trkpt lat="42.120167" lon="9.096693">
        <ele>1353.8</ele>
        <time>2022-09-13T09:34:23Z</time>
      </trkpt>
      <trkpt lat="42.12017" lon="9.096788">
        <ele>1358.0</ele>
        <time>2022-09-13T09:34:30Z</time>
      </trkpt>
      <trkpt lat="42.120162" lon="9.096878">
        <ele>1361.8</ele>
        <time>2022-09-13T09:34:37Z</time>
      </trkpt>
      <trkpt lat="42.120167" lon="9.097043">
        <ele>1367.6</ele>
        <time>2022-09-13T09:34:48Z</time>
      </trkpt>
      <trkpt lat="42.120153" lon="9.097208">
        <ele>1373.6</ele>
        <time>2022-09-13T09:35:00Z</time>
      </trkpt>
      <trkpt lat="42.12014" lon="9.0973">
        <ele>1378.2</ele>
        <time>2022-09-13T09:35:07Z</time>
      </trkpt>
      <trkpt lat="42.120122" lon="9.09741">
        <ele>1383.0</ele>
        <time>2022-09-13T09:35:16Z</time>
      </trkpt>
      <trkpt lat="42.120108" lon="9.097463">
        <ele>1385.2</ele>
        <time>2022-09-13T09:35:20Z</time>
      </trkpt>
      <trkpt lat="42.119963" lon="9.097488">
        <ele>1390.8</ele>
        <time>2022-09-13T09:35:31Z</time>
      </trkpt>
      <trkpt lat="42.119922" lon="9.097522">
        <ele>1393.4</ele>
        <time>2022-09-13T09:35:36Z</time>
      </trkpt>
      <trkpt lat="42.119857" lon="9.097603">
        <ele>1397.4</ele>
        <time>2022-09-13T09:35:44Z</time>
      </trkpt>
      <trkpt lat="42.119803" lon="9.097908">
        <ele>1404.6</ele>
        <time>2022-09-13T09:36:07Z</time>
      </trkpt>
      <trkpt lat="42.119797" lon="9.09795">
        <ele>1405.2</ele>
        <time>2022-09-13T09:36:10Z</time>
      </trkpt>
      <trkpt lat="42.11979" lon="9.097963">
        <ele>1405.4</ele>
        <time>2022-09-13T09:36:11Z</time>
      </trkpt>
      <trkpt lat="42.119753" lon="9.097977">
        <ele>1406.0</ele>
        <time>2022-09-13T09:36:16Z</time>
      </trkpt>
      <trkpt lat="42.119713" lon="9.09798">
        <ele>1406.6</ele>
        <time>2022-09-13T09:36:20Z</time>
      </trkpt>
      <trkpt lat="42.11966" lon="9.097977">
        <ele>1407.0</ele>
        <time>2022-09-13T09:36:25Z</time>
      </trkpt>
      <trkpt lat="42.119633" lon="9.097998">
        <ele>1407.4</ele>
        <time>2022-09-13T09:36:28Z</time>
      </trkpt>
      <trkpt lat="42.119597" lon="9.098048">
        <ele>1407.6</ele>
        <time>2022-09-13T09:36:34Z</time>
      </trkpt>
      <trkpt lat="42.119547" lon="9.098032">
        <ele>1407.6</ele>
        <time>2022-09-13T09:36:40Z</time>
      </trkpt>
      <trkpt lat="42.119393" lon="9.09807">
        <ele>1407.6</ele>
        <time>2022-09-13T09:36:57Z</time>
      </trkpt>
      <trkpt lat="42.11939" lon="9.098083">
        <ele>1407.6</ele>
        <time>2022-09-13T09:36:58Z</time>
      </trkpt>
      <trkpt lat="42.119368" lon="9.098152">
        <ele>1408.4</ele>
        <time>2022-09-13T09:37:03Z</time>
      </trkpt>
      <trkpt lat="42.119267" lon="9.098288">
        <ele>1410.2</ele>
        <time>2022-09-13T09:37:17Z</time>
      </trkpt>
      <trkpt lat="42.119273" lon="9.098338">
        <ele>1410.8</ele>
        <time>2022-09-13T09:37:25Z</time>
      </trkpt>
      <trkpt lat="42.119327" lon="9.098377">
        <ele>1411.2</ele>
        <time>2022-09-13T09:37:34Z</time>
      </trkpt>
      <trkpt lat="42.119435" lon="9.098452">
        <ele>1416.8</ele>
        <time>2022-09-13T09:38:00Z</time>
      </trkpt>
      <trkpt lat="42.119435" lon="9.098453">
        <ele>1417.0</ele>
        <time>2022-09-13T09:38:01Z</time>
      </trkpt>
      <trkpt lat="42.119437" lon="9.098465">
        <ele>1419.4</ele>
        <time>2022-09-13T09:38:17Z</time>
      </trkpt>
      <trkpt lat="42.119395" lon="9.098468">
        <ele>1424.8</ele>
        <time>2022-09-13T09:39:29Z</time>
      </trkpt>
      <trkpt lat="42.119305" lon="9.098838">
        <ele>1425.4</ele>
        <time>2022-09-13T09:39:46Z</time>
      </trkpt>
      <trkpt lat="42.119225" lon="9.0994">
        <ele>1425.6</ele>
        <time>2022-09-13T09:39:57Z</time>
      </trkpt>
      <trkpt lat="42.119038" lon="9.099757">
        <ele>1425.0</ele>
        <time>2022-09-13T09:40:09Z</time>
      </trkpt>
      <trkpt lat="42.119023" lon="9.099768">
        <ele>1425.0</ele>
        <time>2022-09-13T09:40:09Z</time>
      </trkpt>
      <trkpt lat="42.118973" lon="9.09976">
        <ele>1425.0</ele>
        <time>2022-09-13T09:40:09Z</time>
      </trkpt>
      <trkpt lat="42.118865" lon="9.099688">
        <ele>1424.4</ele>
        <time>2022-09-13T09:40:16Z</time>
      </trkpt>
      <trkpt lat="42.118812" lon="9.099682">
        <ele>1423.8</ele>
        <time>2022-09-13T09:40:19Z</time>
      </trkpt>
      <trkpt lat="42.118795" lon="9.099682">
        <ele>1423.6</ele>
        <time>2022-09-13T09:40:20Z</time>
      </trkpt>
      <trkpt lat="42.11878" lon="9.099695">
        <ele>1423.0</ele>
        <time>2022-09-13T09:40:21Z</time>
      </trkpt>
      <trkpt lat="42.118772" lon="9.099742">
        <ele>1422.8</ele>
        <time>2022-09-13T09:40:23Z</time>
      </trkpt>
      <trkpt lat="42.118778" lon="9.099785">
        <ele>1422.0</ele>
        <time>2022-09-13T09:40:25Z</time>
      </trkpt>
      <trkpt lat="42.118818" lon="9.09988">
        <ele>1420.6</ele>
        <time>2022-09-13T09:40:30Z</time>
      </trkpt>
      <trkpt lat="42.11884" lon="9.099948">
        <ele>1419.6</ele>
        <time>2022-09-13T09:40:34Z</time>
      </trkpt>
      <trkpt lat="42.118868" lon="9.100068">
        <ele>1419.2</ele>
        <time>2022-09-13T09:40:43Z</time>
      </trkpt>
      <trkpt lat="42.118872" lon="9.100138">
        <ele>1416.4</ele>
        <time>2022-09-13T09:40:56Z</time>
      </trkpt>
      <trkpt lat="42.118918" lon="9.100225">
        <ele>1401.0</ele>
        <time>2022-09-13T09:41:30Z</time>
      </trkpt>
      <trkpt lat="42.118918" lon="9.100228">
        <ele>1400.6</ele>
        <time>2022-09-13T09:41:31Z</time>
      </trkpt>
      <trkpt lat="42.118905" lon="9.100292">
        <ele>1395.6</ele>
        <time>2022-09-13T09:41:49Z</time>
      </trkpt>
      <trkpt lat="42.118895" lon="9.100368">
        <ele>1394.8</ele>
        <time>2022-09-13T09:41:57Z</time>
      </trkpt>
      <trkpt lat="42.118902" lon="9.100428">
        <ele>1394.6</ele>
        <time>2022-09-13T09:42:03Z</time>
      </trkpt>
      <trkpt lat="42.118947" lon="9.100533">
        <ele>1394.4</ele>
        <time>2022-09-13T09:42:13Z</time>
      </trkpt>
      <trkpt lat="42.118957" lon="9.100618">
        <ele>1394.6</ele>
        <time>2022-09-13T09:42:20Z</time>
      </trkpt>
      <trkpt lat="42.119" lon="9.100748">
        <ele>1394.6</ele>
        <time>2022-09-13T09:42:35Z</time>
      </trkpt>
      <trkpt lat="42.11904" lon="9.100912">
        <ele>1391.0</ele>
        <time>2022-09-13T09:42:58Z</time>
      </trkpt>
      <trkpt lat="42.119045" lon="9.100915">
        <ele>1390.2</ele>
        <time>2022-09-13T09:43:01Z</time>
      </trkpt>
      <trkpt lat="42.119063" lon="9.10096">
        <ele>1388.0</ele>
        <time>2022-09-13T09:43:09Z</time>
      </trkpt>
      <trkpt lat="42.119093" lon="9.101117">
        <ele>1381.4</ele>
        <time>2022-09-13T09:43:34Z</time>
      </trkpt>
      <trkpt lat="42.119152" lon="9.10128">
        <ele>1380.2</ele>
        <time>2022-09-13T09:44:00Z</time>
      </trkpt>
      <trkpt lat="42.119577" lon="9.102198">
        <ele>1377.0</ele>
        <time>2022-09-13T09:44:19Z</time>
      </trkpt>
      <trkpt lat="42.119578" lon="9.10222">
        <ele>1375.6</ele>
        <time>2022-09-13T09:44:24Z</time>
      </trkpt>
      <trkpt lat="42.11958" lon="9.102317">
        <ele>1374.4</ele>
        <time>2022-09-13T09:44:28Z</time>
      </trkpt>
      <trkpt lat="42.119568" lon="9.102462">
        <ele>1372.8</ele>
        <time>2022-09-13T09:44:33Z</time>
      </trkpt>
      <trkpt lat="42.119547" lon="9.102675">
        <ele>1370.8</ele>
        <time>2022-09-13T09:44:39Z</time>
      </trkpt>
      <trkpt lat="42.119552" lon="9.102758">
        <ele>1370.6</ele>
        <time>2022-09-13T09:44:41Z</time>
      </trkpt>
      <trkpt lat="42.119592" lon="9.102967">
        <ele>1369.0</ele>
        <time>2022-09-13T09:44:46Z</time>
      </trkpt>
      <trkpt lat="42.119617" lon="9.103135">
        <ele>1367.8</ele>
        <time>2022-09-13T09:44:51Z</time>
      </trkpt>
      <trkpt lat="42.11961" lon="9.103247">
        <ele>1365.0</ele>
        <time>2022-09-13T09:45:06Z</time>
      </trkpt>
      <trkpt lat="42.11964" lon="9.103445">
        <ele>1365.2</ele>
        <time>2022-09-13T09:45:32Z</time>
      </trkpt>
      <trkpt lat="42.119642" lon="9.103453">
        <ele>1365.2</ele>
        <time>2022-09-13T09:45:33Z</time>
      </trkpt>
      <trkpt lat="42.119647" lon="9.103635">
        <ele>1363.0</ele>
        <time>2022-09-13T09:45:59Z</time>
      </trkpt>
      <trkpt lat="42.11964" lon="9.103883">
        <ele>1359.6</ele>
        <time>2022-09-13T09:46:25Z</time>
      </trkpt>
      <trkpt lat="42.119455" lon="9.10441">
        <ele>1358.2</ele>
        <time>2022-09-13T09:46:39Z</time>
      </trkpt>
      <trkpt lat="42.11943" lon="9.10494">
        <ele>1355.4</ele>
        <time>2022-09-13T09:46:57Z</time>
      </trkpt>
      <trkpt lat="42.119423" lon="9.104955">
        <ele>1355.2</ele>
        <time>2022-09-13T09:47:00Z</time>
      </trkpt>
      <trkpt lat="42.11939" lon="9.105035">
        <ele>1354.6</ele>
        <time>2022-09-13T09:47:07Z</time>
      </trkpt>
      <trkpt lat="42.119398" lon="9.105088">
        <ele>1354.4</ele>
        <time>2022-09-13T09:47:10Z</time>
      </trkpt>
      <trkpt lat="42.119423" lon="9.105242">
        <ele>1354.0</ele>
        <time>2022-09-13T09:47:20Z</time>
      </trkpt>
      <trkpt lat="42.119425" lon="9.10527">
        <ele>1353.8</ele>
        <time>2022-09-13T09:47:22Z</time>
      </trkpt>
      <trkpt lat="42.119417" lon="9.105333">
        <ele>1353.8</ele>
        <time>2022-09-13T09:47:27Z</time>
      </trkpt>
      <trkpt lat="42.119425" lon="9.105393">
        <ele>1353.8</ele>
        <time>2022-09-13T09:47:32Z</time>
      </trkpt>
      <trkpt lat="42.11937" lon="9.105548">
        <ele>1353.0</ele>
        <time>2022-09-13T09:47:52Z</time>
      </trkpt>
      <trkpt lat="42.119373" lon="9.105548">
        <ele>1353.0</ele>
        <time>2022-09-13T09:47:53Z</time>
      </trkpt>
      <trkpt lat="42.119435" lon="9.105627">
        <ele>1350.8</ele>
        <time>2022-09-13T09:48:08Z</time>
      </trkpt>
      <trkpt lat="42.119452" lon="9.105675">
        <ele>1350.4</ele>
        <time>2022-09-13T09:48:12Z</time>
      </trkpt>
      <trkpt lat="42.119492" lon="9.10579">
        <ele>1350.2</ele>
        <time>2022-09-13T09:48:22Z</time>
      </trkpt>
      <trkpt lat="42.119485" lon="9.105797">
        <ele>1350.4</ele>
        <time>2022-09-13T09:48:23Z</time>
      </trkpt>
      <trkpt lat="42.119405" lon="9.105893">
        <ele>1351.8</ele>
        <time>2022-09-13T09:48:34Z</time>
      </trkpt>
      <trkpt lat="42.119377" lon="9.105917">
        <ele>1351.8</ele>
        <time>2022-09-13T09:48:38Z</time>
      </trkpt>
      <trkpt lat="42.119357" lon="9.106002">
        <ele>1350.6</ele>
        <time>2022-09-13T09:48:46Z</time>
      </trkpt>
      <trkpt lat="42.119607" lon="9.106817">
        <ele>1294.2</ele>
        <time>2022-09-13T09:52:27Z</time>
      </trkpt>
      <trkpt lat="42.119573" lon="9.106835">
        <ele>1293.2</ele>
        <time>2022-09-13T09:52:31Z</time>
      </trkpt>
      <trkpt lat="42.119422" lon="9.10677">
        <ele>1287.8</ele>
        <time>2022-09-13T09:52:44Z</time>
      </trkpt>
      <trkpt lat="42.119347" lon="9.106778">
        <ele>1285.4</ele>
        <time>2022-09-13T09:52:50Z</time>
      </trkpt>
      <trkpt lat="42.119247" lon="9.106852">
        <ele>1281.8</ele>
        <time>2022-09-13T09:52:59Z</time>
      </trkpt>
      <trkpt lat="42.119165" lon="9.106898">
        <ele>1279.4</ele>
        <time>2022-09-13T09:53:06Z</time>
      </trkpt>
      <trkpt lat="42.11911" lon="9.106945">
        <ele>1277.8</ele>
        <time>2022-09-13T09:53:11Z</time>
      </trkpt>
      <trkpt lat="42.119022" lon="9.107072">
        <ele>1274.0</ele>
        <time>2022-09-13T09:53:21Z</time>
      </trkpt>
      <trkpt lat="42.118978" lon="9.10713">
        <ele>1271.8</ele>
        <time>2022-09-13T09:53:26Z</time>
      </trkpt>
      <trkpt lat="42.118932" lon="9.107123">
        <ele>1269.0</ele>
        <time>2022-09-13T09:53:30Z</time>
      </trkpt>
      <trkpt lat="42.118772" lon="9.107045">
        <ele>1252.8</ele>
        <time>2022-09-13T09:53:44Z</time>
      </trkpt>
      <trkpt lat="42.118765" lon="9.107035">
        <ele>1251.2</ele>
        <time>2022-09-13T09:53:45Z</time>
      </trkpt>
      <trkpt lat="42.11872" lon="9.106978">
        <ele>1237.4</ele>
        <time>2022-09-13T09:53:52Z</time>
      </trkpt>
      <trkpt lat="42.118682" lon="9.106985">
        <ele>1224.8</ele>
        <time>2022-09-13T09:53:57Z</time>
      </trkpt>
      <trkpt lat="42.118653" lon="9.107027">
        <ele>1207.6</ele>
        <time>2022-09-13T09:54:02Z</time>
      </trkpt>
      <trkpt lat="42.118663" lon="9.107072">
        <ele>1199.4</ele>
        <time>2022-09-13T09:54:05Z</time>
      </trkpt>
      <trkpt lat="42.118713" lon="9.107157">
        <ele>1187.8</ele>
        <time>2022-09-13T09:54:10Z</time>
      </trkpt>
      <trkpt lat="42.118722" lon="9.107237">
        <ele>1178.0</ele>
        <time>2022-09-13T09:54:15Z</time>
      </trkpt>
      <trkpt lat="42.118665" lon="9.107308">
        <ele>1162.0</ele>
        <time>2022-09-13T09:54:23Z</time>
      </trkpt>
      <trkpt lat="42.11867" lon="9.107408">
        <ele>1152.4</ele>
        <time>2022-09-13T09:54:29Z</time>
      </trkpt>
      <trkpt lat="42.118597" lon="9.107558">
        <ele>1141.6</ele>
        <time>2022-09-13T09:54:43Z</time>
      </trkpt>
      <trkpt lat="42.11858" lon="9.107593">
        <ele>1140.0</ele>
        <time>2022-09-13T09:54:46Z</time>
      </trkpt>
      <trkpt lat="42.118532" lon="9.107595">
        <ele>1137.4</ele>
        <time>2022-09-13T09:54:51Z</time>
      </trkpt>
      <trkpt lat="42.118442" lon="9.107563">
        <ele>1132.0</ele>
        <time>2022-09-13T09:55:00Z</time>
      </trkpt>
      <trkpt lat="42.118395" lon="9.107493">
        <ele>1130.0</ele>
        <time>2022-09-13T09:55:07Z</time>
      </trkpt>
      <trkpt lat="42.118387" lon="9.107488">
        <ele>1129.4</ele>
        <time>2022-09-13T09:55:09Z</time>
      </trkpt>
      <trkpt lat="42.118353" lon="9.107483">
        <ele>1129.0</ele>
        <time>2022-09-13T09:55:13Z</time>
      </trkpt>
      <trkpt lat="42.118325" lon="9.107515">
        <ele>1129.0</ele>
        <time>2022-09-13T09:55:17Z</time>
      </trkpt>
      <trkpt lat="42.118273" lon="9.107625">
        <ele>1127.6</ele>
        <time>2022-09-13T09:55:27Z</time>
      </trkpt>
      <trkpt lat="42.118238" lon="9.107702">
        <ele>1126.2</ele>
        <time>2022-09-13T09:55:34Z</time>
      </trkpt>
      <trkpt lat="42.118193" lon="9.107785">
        <ele>1124.6</ele>
        <time>2022-09-13T09:55:43Z</time>
      </trkpt>
      <trkpt lat="42.118113" lon="9.107875">
        <ele>1119.4</ele>
        <time>2022-09-13T09:55:57Z</time>
      </trkpt>
      <trkpt lat="42.118058" lon="9.10799">
        <ele>1112.8</ele>
        <time>2022-09-13T09:56:20Z</time>
      </trkpt>
      <trkpt lat="42.118055" lon="9.108073">
        <ele>1111.4</ele>
        <time>2022-09-13T09:56:28Z</time>
      </trkpt>
      <trkpt lat="42.118058" lon="9.10808">
        <ele>1111.0</ele>
        <time>2022-09-13T09:56:29Z</time>
      </trkpt>
      <trkpt lat="42.118095" lon="9.108152">
        <ele>1108.6</ele>
        <time>2022-09-13T09:56:40Z</time>
      </trkpt>
      <trkpt lat="42.118133" lon="9.108162">
        <ele>1107.0</ele>
        <time>2022-09-13T09:56:46Z</time>
      </trkpt>
      <trkpt lat="42.118098" lon="9.108302">
        <ele>1104.6</ele>
        <time>2022-09-13T09:57:00Z</time>
      </trkpt>
      <trkpt lat="42.118115" lon="9.108347">
        <ele>1103.8</ele>
        <time>2022-09-13T09:57:07Z</time>
      </trkpt>
      <trkpt lat="42.118133" lon="9.108363">
        <ele>1101.4</ele>
        <time>2022-09-13T09:57:18Z</time>
      </trkpt>
      <trkpt lat="42.118137" lon="9.108398">
        <ele>1098.8</ele>
        <time>2022-09-13T09:57:31Z</time>
      </trkpt>
      <trkpt lat="42.118157" lon="9.108383">
        <ele>1097.2</ele>
        <time>2022-09-13T09:57:39Z</time>
      </trkpt>
      <trkpt lat="42.118153" lon="9.108393">
        <ele>1094.6</ele>
        <time>2022-09-13T09:57:56Z</time>
      </trkpt>
      <trkpt lat="42.118155" lon="9.108428">
        <ele>1091.0</ele>
        <time>2022-09-13T09:58:12Z</time>
      </trkpt>
      <trkpt lat="42.11817" lon="9.108445">
        <ele>1088.6</ele>
        <time>2022-09-13T09:58:22Z</time>
      </trkpt>
      <trkpt lat="42.118168" lon="9.108447">
        <ele>1088.6</ele>
        <time>2022-09-13T09:58:24Z</time>
      </trkpt>
      <trkpt lat="42.118123" lon="9.108448">
        <ele>1085.4</ele>
        <time>2022-09-13T09:58:37Z</time>
      </trkpt>
      <trkpt lat="42.118117" lon="9.108457">
        <ele>1083.8</ele>
        <time>2022-09-13T09:58:45Z</time>
      </trkpt>
      <trkpt lat="42.1181" lon="9.108477">
        <ele>1082.4</ele>
        <time>2022-09-13T09:58:54Z</time>
      </trkpt>
      <trkpt lat="42.118085" lon="9.108492">
        <ele>1081.0</ele>
        <time>2022-09-13T09:59:02Z</time>
      </trkpt>
      <trkpt lat="42.117935" lon="9.108542">
        <ele>1075.8</ele>
        <time>2022-09-13T09:59:31Z</time>
      </trkpt>
      <trkpt lat="42.117935" lon="9.10855">
        <ele>1075.8</ele>
        <time>2022-09-13T09:59:32Z</time>
      </trkpt>
      <trkpt lat="42.118007" lon="9.108697">
        <ele>1073.6</ele>
        <time>2022-09-13T09:59:54Z</time>
      </trkpt>
      <trkpt lat="42.118035" lon="9.108757">
        <ele>1071.6</ele>
        <time>2022-09-13T10:00:04Z</time>
      </trkpt>
      <trkpt lat="42.11806" lon="9.108907">
        <ele>1068.0</ele>
        <time>2022-09-13T10:00:23Z</time>
      </trkpt>
      <trkpt lat="42.11806" lon="9.108972">
        <ele>1065.4</ele>
        <time>2022-09-13T10:00:37Z</time>
      </trkpt>
      <trkpt lat="42.118062" lon="9.109097">
        <ele>1062.8</ele>
        <time>2022-09-13T10:00:52Z</time>
      </trkpt>
      <trkpt lat="42.11804" lon="9.109068">
        <ele>1062.4</ele>
        <time>2022-09-13T10:00:56Z</time>
      </trkpt>
      <trkpt lat="42.118033" lon="9.10906">
        <ele>1062.4</ele>
        <time>2022-09-13T10:00:57Z</time>
      </trkpt>
      <trkpt lat="42.118002" lon="9.109015">
        <ele>1061.8</ele>
        <time>2022-09-13T10:01:03Z</time>
      </trkpt>
      <trkpt lat="42.117955" lon="9.108982">
        <ele>1061.8</ele>
        <time>2022-09-13T10:01:10Z</time>
      </trkpt>
      <trkpt lat="42.1179" lon="9.108962">
        <ele>1060.8</ele>
        <time>2022-09-13T10:01:16Z</time>
      </trkpt>
      <trkpt lat="42.117843" lon="9.108985">
        <ele>1059.8</ele>
        <time>2022-09-13T10:01:22Z</time>
      </trkpt>
      <trkpt lat="42.117838" lon="9.109042">
        <ele>1057.4</ele>
        <time>2022-09-13T10:01:41Z</time>
      </trkpt>
      <trkpt lat="42.117853" lon="9.10907">
        <ele>1057.4</ele>
        <time>2022-09-13T10:01:46Z</time>
      </trkpt>
      <trkpt lat="42.117802" lon="9.109127">
        <ele>1055.8</ele>
        <time>2022-09-13T10:01:58Z</time>
      </trkpt>
      <trkpt lat="42.117797" lon="9.10913">
        <ele>1055.8</ele>
        <time>2022-09-13T10:01:59Z</time>
      </trkpt>
      <trkpt lat="42.117737" lon="9.109178">
        <ele>1055.4</ele>
        <time>2022-09-13T10:02:11Z</time>
      </trkpt>
      <trkpt lat="42.117682" lon="9.109215">
        <ele>1053.8</ele>
        <time>2022-09-13T10:02:22Z</time>
      </trkpt>
      <trkpt lat="42.117603" lon="9.109282">
        <ele>1051.4</ele>
        <time>2022-09-13T10:02:36Z</time>
      </trkpt>
      <trkpt lat="42.11756" lon="9.109327">
        <ele>1051.4</ele>
        <time>2022-09-13T10:02:45Z</time>
      </trkpt>
      <trkpt lat="42.117528" lon="9.109372">
        <ele>1050.6</ele>
        <time>2022-09-13T10:02:52Z</time>
      </trkpt>
      <trkpt lat="42.11747" lon="9.1094">
        <ele>1049.4</ele>
        <time>2022-09-13T10:03:01Z</time>
      </trkpt>
      <trkpt lat="42.117467" lon="9.109407">
        <ele>1049.4</ele>
        <time>2022-09-13T10:03:02Z</time>
      </trkpt>
      <trkpt lat="42.117457" lon="9.109463">
        <ele>1049.2</ele>
        <time>2022-09-13T10:03:10Z</time>
      </trkpt>
      <trkpt lat="42.117475" lon="9.109532">
        <ele>1048.2</ele>
        <time>2022-09-13T10:03:20Z</time>
      </trkpt>
      <trkpt lat="42.117438" lon="9.109562">
        <ele>1047.4</ele>
        <time>2022-09-13T10:03:28Z</time>
      </trkpt>
      <trkpt lat="42.117403" lon="9.109573">
        <ele>1046.8</ele>
        <time>2022-09-13T10:03:33Z</time>
      </trkpt>
      <trkpt lat="42.117363" lon="9.109613">
        <ele>1046.2</ele>
        <time>2022-09-13T10:03:39Z</time>
      </trkpt>
      <trkpt lat="42.11728" lon="9.109663">
        <ele>1045.4</ele>
        <time>2022-09-13T10:03:49Z</time>
      </trkpt>
      <trkpt lat="42.117308" lon="9.109712">
        <ele>1044.2</ele>
        <time>2022-09-13T10:03:55Z</time>
      </trkpt>
      <trkpt lat="42.117338" lon="9.109748">
        <ele>1044.4</ele>
        <time>2022-09-13T10:03:59Z</time>
      </trkpt>
      <trkpt lat="42.117328" lon="9.1098">
        <ele>1044.4</ele>
        <time>2022-09-13T10:04:05Z</time>
      </trkpt>
      <trkpt lat="42.117285" lon="9.109825">
        <ele>1043.8</ele>
        <time>2022-09-13T10:04:19Z</time>
      </trkpt>
      <trkpt lat="42.117193" lon="9.109885">
        <ele>1041.2</ele>
        <time>2022-09-13T10:04:39Z</time>
      </trkpt>
      <trkpt lat="42.117187" lon="9.109892">
        <ele>1041.2</ele>
        <time>2022-09-13T10:04:41Z</time>
      </trkpt>
      <trkpt lat="42.117098" lon="9.109985">
        <ele>1041.2</ele>
        <time>2022-09-13T10:04:53Z</time>
      </trkpt>
      <trkpt lat="42.117058" lon="9.110038">
        <ele>1041.2</ele>
        <time>2022-09-13T10:04:59Z</time>
      </trkpt>
      <trkpt lat="42.117023" lon="9.110098">
        <ele>1041.0</ele>
        <time>2022-09-13T10:05:04Z</time>
      </trkpt>
      <trkpt lat="42.116962" lon="9.110225">
        <ele>1040.0</ele>
        <time>2022-09-13T10:05:13Z</time>
      </trkpt>
      <trkpt lat="42.116883" lon="9.110347">
        <ele>1038.6</ele>
        <time>2022-09-13T10:05:23Z</time>
      </trkpt>
      <trkpt lat="42.116873" lon="9.110412">
        <ele>1038.0</ele>
        <time>2022-09-13T10:05:27Z</time>
      </trkpt>
      <trkpt lat="42.116882" lon="9.110468">
        <ele>1037.6</ele>
        <time>2022-09-13T10:05:31Z</time>
      </trkpt>
      <trkpt lat="42.116878" lon="9.110477">
        <ele>1037.4</ele>
        <time>2022-09-13T10:05:32Z</time>
      </trkpt>
      <trkpt lat="42.116837" lon="9.110558">
        <ele>1037.0</ele>
        <time>2022-09-13T10:05:45Z</time>
      </trkpt>
      <trkpt lat="42.11681" lon="9.110597">
        <ele>1035.6</ele>
        <time>2022-09-13T10:05:54Z</time>
      </trkpt>
      <trkpt lat="42.116793" lon="9.110597">
        <ele>1035.2</ele>
        <time>2022-09-13T10:05:59Z</time>
      </trkpt>
      <trkpt lat="42.116778" lon="9.110513">
        <ele>1031.2</ele>
        <time>2022-09-13T10:06:29Z</time>
      </trkpt>
      <trkpt lat="42.116715" lon="9.110533">
        <ele>1030.4</ele>
        <time>2022-09-13T10:06:48Z</time>
      </trkpt>
      <trkpt lat="42.116628" lon="9.110637">
        <ele>1029.2</ele>
        <time>2022-09-13T10:07:27Z</time>
      </trkpt>
      <trkpt lat="42.116448" lon="9.110793">
        <ele>1027.0</ele>
        <time>2022-09-13T10:08:01Z</time>
      </trkpt>
      <trkpt lat="42.116415" lon="9.110855">
        <ele>1026.8</ele>
        <time>2022-09-13T10:08:13Z</time>
      </trkpt>
      <trkpt lat="42.116352" lon="9.111047">
        <ele>1024.0</ele>
        <time>2022-09-13T10:08:44Z</time>
      </trkpt>
      <trkpt lat="42.116327" lon="9.111185">
        <ele>1022.0</ele>
        <time>2022-09-13T10:09:05Z</time>
      </trkpt>
      <trkpt lat="42.116327" lon="9.1112">
        <ele>1022.0</ele>
        <time>2022-09-13T10:09:06Z</time>
      </trkpt>
      <trkpt lat="42.116337" lon="9.111505">
        <ele>1021.6</ele>
        <time>2022-09-13T10:09:27Z</time>
      </trkpt>
      <trkpt lat="42.116385" lon="9.111643">
        <ele>1021.2</ele>
        <time>2022-09-13T10:09:36Z</time>
      </trkpt>
      <trkpt lat="42.116442" lon="9.111723">
        <ele>1021.2</ele>
        <time>2022-09-13T10:09:43Z</time>
      </trkpt>
      <trkpt lat="42.116408" lon="9.111902">
        <ele>1021.4</ele>
        <time>2022-09-13T10:10:24Z</time>
      </trkpt>
      <trkpt lat="42.11636" lon="9.11178">
        <ele>1021.0</ele>
        <time>2022-09-13T10:10:38Z</time>
      </trkpt>
      <trkpt lat="42.116357" lon="9.111783">
        <ele>1021.2</ele>
        <time>2022-09-13T10:10:41Z</time>
      </trkpt>
      <trkpt lat="42.116428" lon="9.111898">
        <ele>1021.2</ele>
        <time>2022-09-13T10:11:13Z</time>
      </trkpt>
      <trkpt lat="42.116485" lon="9.111942">
        <ele>1021.6</ele>
        <time>2022-09-13T10:11:23Z</time>
      </trkpt>
      <trkpt lat="42.11655" lon="9.112155">
        <ele>1023.4</ele>
        <time>2022-09-13T10:11:49Z</time>
      </trkpt>
      <trkpt lat="42.11658" lon="9.11234">
        <ele>1023.2</ele>
        <time>2022-09-13T10:12:16Z</time>
      </trkpt>
      <trkpt lat="42.116582" lon="9.112352">
        <ele>1023.2</ele>
        <time>2022-09-13T10:12:19Z</time>
      </trkpt>
      <trkpt lat="42.116607" lon="9.112485">
        <ele>1023.0</ele>
        <time>2022-09-13T10:12:29Z</time>
      </trkpt>
      <trkpt lat="42.1167" lon="9.112662">
        <ele>1023.0</ele>
        <time>2022-09-13T10:12:43Z</time>
      </trkpt>
      <trkpt lat="42.116877" lon="9.112962">
        <ele>1023.0</ele>
        <time>2022-09-13T10:12:55Z</time>
      </trkpt>
      <trkpt lat="42.116953" lon="9.113122">
        <ele>1022.6</ele>
        <time>2022-09-13T10:13:00Z</time>
      </trkpt>
      <trkpt lat="42.117138" lon="9.113747">
        <ele>1021.8</ele>
        <time>2022-09-13T10:13:19Z</time>
      </trkpt>
      <trkpt lat="42.11714" lon="9.113757">
        <ele>1021.8</ele>
        <time>2022-09-13T10:13:20Z</time>
      </trkpt>
      <trkpt lat="42.117178" lon="9.113982">
        <ele>1017.8</ele>
        <time>2022-09-13T10:13:48Z</time>
      </trkpt>
      <trkpt lat="42.117235" lon="9.114115">
        <ele>1016.8</ele>
        <time>2022-09-13T10:14:09Z</time>
      </trkpt>
      <trkpt lat="42.11726" lon="9.114205">
        <ele>1015.0</ele>
        <time>2022-09-13T10:14:26Z</time>
      </trkpt>
      <trkpt lat="42.117262" lon="9.11421">
        <ele>1014.8</ele>
        <time>2022-09-13T10:14:29Z</time>
      </trkpt>
      <trkpt lat="42.117272" lon="9.114275">
        <ele>1013.4</ele>
        <time>2022-09-13T10:14:40Z</time>
      </trkpt>
      <trkpt lat="42.117278" lon="9.114358">
        <ele>1012.2</ele>
        <time>2022-09-13T10:14:53Z</time>
      </trkpt>
      <trkpt lat="42.117302" lon="9.114408">
        <ele>1012.6</ele>
        <time>2022-09-13T10:15:25Z</time>
      </trkpt>
      <trkpt lat="42.117287" lon="9.114548">
        <ele>1010.6</ele>
        <time>2022-09-13T10:15:47Z</time>
      </trkpt>
      <trkpt lat="42.117278" lon="9.11467">
        <ele>1008.6</ele>
        <time>2022-09-13T10:16:04Z</time>
      </trkpt>
      <trkpt lat="42.117248" lon="9.114798">
        <ele>1006.8</ele>
        <time>2022-09-13T10:16:25Z</time>
      </trkpt>
      <trkpt lat="42.11727" lon="9.114883">
        <ele>1006.2</ele>
        <time>2022-09-13T10:16:37Z</time>
      </trkpt>
      <trkpt lat="42.11727" lon="9.11495">
        <ele>1006.4</ele>
        <time>2022-09-13T10:16:41Z</time>
      </trkpt>
      <trkpt lat="42.117262" lon="9.114963">
        <ele>1006.4</ele>
        <time>2022-09-13T10:16:42Z</time>
      </trkpt>
      <trkpt lat="42.117067" lon="9.115338">
        <ele>1002.8</ele>
        <time>2022-09-13T10:17:07Z</time>
      </trkpt>
      <trkpt lat="42.116903" lon="9.115418">
        <ele>1002.8</ele>
        <time>2022-09-13T10:17:13Z</time>
      </trkpt>
      <trkpt lat="42.116885" lon="9.115447">
        <ele>1002.8</ele>
        <time>2022-09-13T10:17:14Z</time>
      </trkpt>
      <trkpt lat="42.116868" lon="9.115525">
        <ele>1002.6</ele>
        <time>2022-09-13T10:17:16Z</time>
      </trkpt>
      <trkpt lat="42.116867" lon="9.115712">
        <ele>1001.8</ele>
        <time>2022-09-13T10:17:21Z</time>
      </trkpt>
      <trkpt lat="42.116897" lon="9.11597">
        <ele>1001.4</ele>
        <time>2022-09-13T10:17:29Z</time>
      </trkpt>
      <trkpt lat="42.116933" lon="9.116457">
        <ele>999.8</ele>
        <time>2022-09-13T10:17:47Z</time>
      </trkpt>
      <trkpt lat="42.116948" lon="9.116688">
        <ele>998.6</ele>
        <time>2022-09-13T10:18:04Z</time>
      </trkpt>
      <trkpt lat="42.116947" lon="9.116805">
        <ele>998.4</ele>
        <time>2022-09-13T10:18:13Z</time>
      </trkpt>
      <trkpt lat="42.11695" lon="9.116805">
        <ele>998.0</ele>
        <time>2022-09-13T10:18:14Z</time>
      </trkpt>
      <trkpt lat="42.116983" lon="9.11679">
        <ele>997.0</ele>
        <time>2022-09-13T10:18:29Z</time>
      </trkpt>
      <trkpt lat="42.116978" lon="9.116795">
        <ele>996.4</ele>
        <time>2022-09-13T10:18:41Z</time>
      </trkpt>
      <trkpt lat="42.116973" lon="9.116787">
        <ele>994.2</ele>
        <time>2022-09-13T10:18:56Z</time>
      </trkpt>
      <trkpt lat="42.116977" lon="9.116777">
        <ele>994.0</ele>
        <time>2022-09-13T10:19:10Z</time>
      </trkpt>
      <trkpt lat="42.116957" lon="9.116747">
        <ele>992.2</ele>
        <time>2022-09-13T10:19:42Z</time>
      </trkpt>
      <trkpt lat="42.119298" lon="9.122185">
        <ele>968.8</ele>
        <time>2022-09-13T10:26:15Z</time>
      </trkpt>
      <trkpt lat="42.11912" lon="9.12208">
        <ele>968.2</ele>
        <time>2022-09-13T10:26:29Z</time>
      </trkpt>
      <trkpt lat="42.119138" lon="9.122103">
        <ele>969.2</ele>
        <time>2022-09-13T10:26:37Z</time>
      </trkpt>
      <trkpt lat="42.119187" lon="9.122128">
        <ele>969.4</ele>
        <time>2022-09-13T10:26:43Z</time>
      </trkpt>
      <trkpt lat="42.119045" lon="9.122298">
        <ele>969.6</ele>
        <time>2022-09-13T10:27:13Z</time>
      </trkpt>
      <trkpt lat="42.119072" lon="9.12234">
        <ele>968.6</ele>
        <time>2022-09-13T10:27:27Z</time>
      </trkpt>
      <trkpt lat="42.119107" lon="9.122372">
        <ele>967.8</ele>
        <time>2022-09-13T10:27:40Z</time>
      </trkpt>
      <trkpt lat="42.119195" lon="9.122417">
        <ele>967.4</ele>
        <time>2022-09-13T10:28:14Z</time>
      </trkpt>
      <trkpt lat="42.119322" lon="9.122497">
        <ele>965.0</ele>
        <time>2022-09-13T10:28:48Z</time>
      </trkpt>
      <trkpt lat="42.119455" lon="9.122612">
        <ele>963.0</ele>
        <time>2022-09-13T10:29:20Z</time>
      </trkpt>
      <trkpt lat="42.119487" lon="9.122675">
        <ele>961.8</ele>
        <time>2022-09-13T10:29:40Z</time>
      </trkpt>
      <trkpt lat="42.119542" lon="9.122837">
        <ele>961.0</ele>
        <time>2022-09-13T10:30:14Z</time>
      </trkpt>
      <trkpt lat="42.119697" lon="9.123178">
        <ele>959.8</ele>
        <time>2022-09-13T10:30:29Z</time>
      </trkpt>
      <trkpt lat="42.119832" lon="9.123353">
        <ele>959.2</ele>
        <time>2022-09-13T10:30:34Z</time>
      </trkpt>
      <trkpt lat="42.119948" lon="9.123517">
        <ele>959.0</ele>
        <time>2022-09-13T10:30:36Z</time>
      </trkpt>
      <trkpt lat="42.120015" lon="9.123615">
        <ele>958.6</ele>
        <time>2022-09-13T10:30:38Z</time>
      </trkpt>
      <trkpt lat="42.120275" lon="9.124237">
        <ele>958.4</ele>
        <time>2022-09-13T10:30:43Z</time>
      </trkpt>
      <trkpt lat="42.12064" lon="9.125347">
        <ele>957.8</ele>
        <time>2022-09-13T10:31:06Z</time>
      </trkpt>
      <trkpt lat="42.120645" lon="9.125345">
        <ele>957.8</ele>
        <time>2022-09-13T10:31:07Z</time>
      </trkpt>
      <trkpt lat="42.120678" lon="9.125327">
        <ele>957.8</ele>
        <time>2022-09-13T10:31:17Z</time>
      </trkpt>
      <trkpt lat="42.120648" lon="9.125297">
        <ele>957.8</ele>
        <time>2022-09-13T10:31:27Z</time>
      </trkpt>
      <trkpt lat="42.120563" lon="9.125188">
        <ele>956.6</ele>
        <time>2022-09-13T10:31:49Z</time>
      </trkpt>
      <trkpt lat="42.120552" lon="9.125142">
        <ele>954.8</ele>
        <time>2022-09-13T10:32:04Z</time>
      </trkpt>
      <trkpt lat="42.120562" lon="9.125073">
        <ele>953.2</ele>
        <time>2022-09-13T10:32:19Z</time>
      </trkpt>
      <trkpt lat="42.120673" lon="9.126145">
        <ele>951.0</ele>
        <time>2022-09-13T10:32:43Z</time>
      </trkpt>
      <trkpt lat="42.120645" lon="9.126313">
        <ele>950.0</ele>
        <time>2022-09-13T10:32:59Z</time>
      </trkpt>
      <trkpt lat="42.120798" lon="9.126335">
        <ele>949.2</ele>
        <time>2022-09-13T10:33:14Z</time>
      </trkpt>
      <trkpt lat="42.120952" lon="9.126492">
        <ele>948.0</ele>
        <time>2022-09-13T10:33:29Z</time>
      </trkpt>
      <trkpt lat="42.121008" lon="9.12677">
        <ele>946.4</ele>
        <time>2022-09-13T10:33:47Z</time>
      </trkpt>
      <trkpt lat="42.121023" lon="9.126877">
        <ele>945.6</ele>
        <time>2022-09-13T10:33:55Z</time>
      </trkpt>
      <trkpt lat="42.121033" lon="9.12709">
        <ele>944.2</ele>
        <time>2022-09-13T10:34:12Z</time>
      </trkpt>
      <trkpt lat="42.121037" lon="9.127168">
        <ele>943.4</ele>
        <time>2022-09-13T10:34:20Z</time>
      </trkpt>
      <trkpt lat="42.121052" lon="9.127293">
        <ele>942.8</ele>
        <time>2022-09-13T10:34:32Z</time>
      </trkpt>
      <trkpt lat="42.12105" lon="9.127305">
        <ele>942.8</ele>
        <time>2022-09-13T10:34:33Z</time>
      </trkpt>
      <trkpt lat="42.121063" lon="9.127525">
        <ele>942.0</ele>
        <time>2022-09-13T10:34:45Z</time>
      </trkpt>
      <trkpt lat="42.121133" lon="9.127613">
        <ele>940.4</ele>
        <time>2022-09-13T10:34:56Z</time>
      </trkpt>
      <trkpt lat="42.121188" lon="9.127652">
        <ele>939.8</ele>
        <time>2022-09-13T10:35:03Z</time>
      </trkpt>
      <trkpt lat="42.121337" lon="9.127703">
        <ele>939.4</ele>
        <time>2022-09-13T10:35:21Z</time>
      </trkpt>
      <trkpt lat="42.121413" lon="9.127705">
        <ele>939.4</ele>
        <time>2022-09-13T10:35:28Z</time>
      </trkpt>
      <trkpt lat="42.121425" lon="9.127708">
        <ele>939.4</ele>
        <time>2022-09-13T10:35:29Z</time>
      </trkpt>
      <trkpt lat="42.121512" lon="9.127737">
        <ele>938.6</ele>
        <time>2022-09-13T10:35:36Z</time>
      </trkpt>
      <trkpt lat="42.121578" lon="9.127813">
        <ele>938.2</ele>
        <time>2022-09-13T10:35:41Z</time>
      </trkpt>
      <trkpt lat="42.121883" lon="9.128178">
        <ele>937.0</ele>
        <time>2022-09-13T10:36:04Z</time>
      </trkpt>
      <trkpt lat="42.121923" lon="9.12822">
        <ele>937.0</ele>
        <time>2022-09-13T10:36:07Z</time>
      </trkpt>
      <trkpt lat="42.121957" lon="9.128287">
        <ele>936.8</ele>
        <time>2022-09-13T10:36:10Z</time>
      </trkpt>
      <trkpt lat="42.121943" lon="9.128427">
        <ele>936.2</ele>
        <time>2022-09-13T10:36:41Z</time>
      </trkpt>
      <trkpt lat="42.12197" lon="9.128483">
        <ele>936.6</ele>
        <time>2022-09-13T10:36:49Z</time>
      </trkpt>
      <trkpt lat="42.12213" lon="9.128523">
        <ele>935.0</ele>
        <time>2022-09-13T10:37:11Z</time>
      </trkpt>
      <trkpt lat="42.122137" lon="9.128527">
        <ele>935.0</ele>
        <time>2022-09-13T10:37:12Z</time>
      </trkpt>
      <trkpt lat="42.122248" lon="9.128543">
        <ele>934.2</ele>
        <time>2022-09-13T10:37:25Z</time>
      </trkpt>
      <trkpt lat="42.122483" lon="9.128558">
        <ele>933.2</ele>
        <time>2022-09-13T10:37:44Z</time>
      </trkpt>
      <trkpt lat="42.122552" lon="9.128577">
        <ele>933.2</ele>
        <time>2022-09-13T10:37:48Z</time>
      </trkpt>
      <trkpt lat="42.122652" lon="9.128607">
        <ele>933.0</ele>
        <time>2022-09-13T10:37:54Z</time>
      </trkpt>
      <trkpt lat="42.122748" lon="9.128677">
        <ele>932.4</ele>
        <time>2022-09-13T10:38:02Z</time>
      </trkpt>
      <trkpt lat="42.122798" lon="9.128683">
        <ele>932.2</ele>
        <time>2022-09-13T10:38:06Z</time>
      </trkpt>
      <trkpt lat="42.123038" lon="9.128587">
        <ele>932.0</ele>
        <time>2022-09-13T10:38:34Z</time>
      </trkpt>
      <trkpt lat="42.123085" lon="9.128552">
        <ele>932.0</ele>
        <time>2022-09-13T10:38:42Z</time>
      </trkpt>
      <trkpt lat="42.123202" lon="9.128455">
        <ele>932.0</ele>
        <time>2022-09-13T10:38:58Z</time>
      </trkpt>
      <trkpt lat="42.123358" lon="9.128385">
        <ele>931.6</ele>
        <time>2022-09-13T10:39:11Z</time>
      </trkpt>
      <trkpt lat="42.123513" lon="9.128337">
        <ele>931.0</ele>
        <time>2022-09-13T10:39:21Z</time>
      </trkpt>
      <trkpt lat="42.123707" lon="9.128215">
        <ele>930.0</ele>
        <time>2022-09-13T10:39:37Z</time>
      </trkpt>
      <trkpt lat="42.123758" lon="9.128203">
        <ele>929.6</ele>
        <time>2022-09-13T10:39:41Z</time>
      </trkpt>
      <trkpt lat="42.123803" lon="9.128208">
        <ele>929.4</ele>
        <time>2022-09-13T10:39:45Z</time>
      </trkpt>
      <trkpt lat="42.123935" lon="9.128247">
        <ele>928.6</ele>
        <time>2022-09-13T10:40:00Z</time>
      </trkpt>
      <trkpt lat="42.124038" lon="9.128282">
        <ele>927.2</ele>
        <time>2022-09-13T10:40:16Z</time>
      </trkpt>
      <trkpt lat="42.124057" lon="9.128293">
        <ele>926.8</ele>
        <time>2022-09-13T10:40:21Z</time>
      </trkpt>
      <trkpt lat="42.123892" lon="9.128352">
        <ele>924.6</ele>
        <time>2022-09-13T10:40:52Z</time>
      </trkpt>
      <trkpt lat="42.124227" lon="9.128267">
        <ele>923.4</ele>
        <time>2022-09-13T10:41:05Z</time>
      </trkpt>
      <trkpt lat="42.124703" lon="9.1284">
        <ele>923.0</ele>
        <time>2022-09-13T10:41:17Z</time>
      </trkpt>
      <trkpt lat="42.125027" lon="9.128787">
        <ele>922.4</ele>
        <time>2022-09-13T10:41:30Z</time>
      </trkpt>
      <trkpt lat="42.125125" lon="9.12878">
        <ele>922.2</ele>
        <time>2022-09-13T10:41:34Z</time>
      </trkpt>
      <trkpt lat="42.12539" lon="9.128745">
        <ele>921.0</ele>
        <time>2022-09-13T10:41:54Z</time>
      </trkpt>
      <trkpt lat="42.125638" lon="9.128727">
        <ele>919.8</ele>
        <time>2022-09-13T10:42:13Z</time>
      </trkpt>
      <trkpt lat="42.12567" lon="9.128775">
        <ele>919.4</ele>
        <time>2022-09-13T10:42:16Z</time>
      </trkpt>
      <trkpt lat="42.125823" lon="9.128908">
        <ele>917.8</ele>
        <time>2022-09-13T10:42:30Z</time>
      </trkpt>
      <trkpt lat="42.125897" lon="9.128967">
        <ele>917.0</ele>
        <time>2022-09-13T10:42:40Z</time>
      </trkpt>
      <trkpt lat="42.125992" lon="9.129065">
        <ele>916.6</ele>
        <time>2022-09-13T10:42:52Z</time>
      </trkpt>
      <trkpt lat="42.126098" lon="9.129112">
        <ele>916.0</ele>
        <time>2022-09-13T10:43:03Z</time>
      </trkpt>
      <trkpt lat="42.12615" lon="9.129137">
        <ele>915.6</ele>
        <time>2022-09-13T10:43:08Z</time>
      </trkpt>
      <trkpt lat="42.126273" lon="9.128998">
        <ele>915.0</ele>
        <time>2022-09-13T10:43:23Z</time>
      </trkpt>
      <trkpt lat="42.126353" lon="9.128937">
        <ele>914.8</ele>
        <time>2022-09-13T10:43:34Z</time>
      </trkpt>
      <trkpt lat="42.126395" lon="9.128898">
        <ele>914.8</ele>
        <time>2022-09-13T10:43:39Z</time>
      </trkpt>
      <trkpt lat="42.12644" lon="9.128943">
        <ele>914.8</ele>
        <time>2022-09-13T10:43:44Z</time>
      </trkpt>
      <trkpt lat="42.126448" lon="9.129012">
        <ele>914.6</ele>
        <time>2022-09-13T10:43:49Z</time>
      </trkpt>
      <trkpt lat="42.12644" lon="9.129072">
        <ele>914.2</ele>
        <time>2022-09-13T10:43:54Z</time>
      </trkpt>
      <trkpt lat="42.126458" lon="9.129175">
        <ele>913.0</ele>
        <time>2022-09-13T10:44:04Z</time>
      </trkpt>
      <trkpt lat="42.126483" lon="9.129238">
        <ele>912.2</ele>
        <time>2022-09-13T10:44:11Z</time>
      </trkpt>
      <trkpt lat="42.126527" lon="9.129352">
        <ele>908.6</ele>
        <time>2022-09-13T10:44:34Z</time>
      </trkpt>
      <trkpt lat="42.12629" lon="9.129718">
        <ele>908.0</ele>
        <time>2022-09-13T10:44:59Z</time>
      </trkpt>
      <trkpt lat="42.126145" lon="9.129517">
        <ele>907.8</ele>
        <time>2022-09-13T10:45:12Z</time>
      </trkpt>
      <trkpt lat="42.126493" lon="9.129747">
        <ele>907.6</ele>
        <time>2022-09-13T10:45:28Z</time>
      </trkpt>
      <trkpt lat="42.126518" lon="9.129772">
        <ele>907.6</ele>
        <time>2022-09-13T10:45:28Z</time>
      </trkpt>
      <trkpt lat="42.126648" lon="9.129948">
        <ele>909.0</ele>
        <time>2022-09-13T10:45:41Z</time>
      </trkpt>
      <trkpt lat="42.126763" lon="9.12997">
        <ele>909.8</ele>
        <time>2022-09-13T10:45:49Z</time>
      </trkpt>
      <trkpt lat="42.126827" lon="9.130097">
        <ele>910.4</ele>
        <time>2022-09-13T10:45:58Z</time>
      </trkpt>
      <trkpt lat="42.126868" lon="9.130133">
        <ele>910.8</ele>
        <time>2022-09-13T10:46:01Z</time>
      </trkpt>
      <trkpt lat="42.126872" lon="9.13018">
        <ele>910.8</ele>
        <time>2022-09-13T10:46:04Z</time>
      </trkpt>
      <trkpt lat="42.126862" lon="9.130215">
        <ele>910.8</ele>
        <time>2022-09-13T10:46:06Z</time>
      </trkpt>
      <trkpt lat="42.12682" lon="9.130262">
        <ele>910.8</ele>
        <time>2022-09-13T10:46:09Z</time>
      </trkpt>
      <trkpt lat="42.12674" lon="9.130305">
        <ele>910.8</ele>
        <time>2022-09-13T10:46:14Z</time>
      </trkpt>
      <trkpt lat="42.126408" lon="9.130455">
        <ele>909.8</ele>
        <time>2022-09-13T10:46:31Z</time>
      </trkpt>
      <trkpt lat="42.126232" lon="9.130517">
        <ele>909.8</ele>
        <time>2022-09-13T10:46:39Z</time>
      </trkpt>
      <trkpt lat="42.126168" lon="9.13053">
        <ele>909.8</ele>
        <time>2022-09-13T10:46:42Z</time>
      </trkpt>
      <trkpt lat="42.126093" lon="9.13064">
        <ele>909.8</ele>
        <time>2022-09-13T10:46:52Z</time>
      </trkpt>
      <trkpt lat="42.12605" lon="9.130707">
        <ele>909.8</ele>
        <time>2022-09-13T10:46:58Z</time>
      </trkpt>
      <trkpt lat="42.12596" lon="9.130795">
        <ele>910.0</ele>
        <time>2022-09-13T10:47:10Z</time>
      </trkpt>
      <trkpt lat="42.125863" lon="9.130832">
        <ele>910.4</ele>
        <time>2022-09-13T10:47:20Z</time>
      </trkpt>
      <trkpt lat="42.125765" lon="9.130857">
        <ele>911.6</ele>
        <time>2022-09-13T10:47:30Z</time>
      </trkpt>
      <trkpt lat="42.12572" lon="9.130883">
        <ele>912.0</ele>
        <time>2022-09-13T10:47:36Z</time>
      </trkpt>
      <trkpt lat="42.1257" lon="9.13097">
        <ele>913.4</ele>
        <time>2022-09-13T10:47:47Z</time>
      </trkpt>
      <trkpt lat="42.125732" lon="9.131012">
        <ele>913.4</ele>
        <time>2022-09-13T10:47:54Z</time>
      </trkpt>
      <trkpt lat="42.125885" lon="9.131107">
        <ele>910.8</ele>
        <time>2022-09-13T10:48:21Z</time>
      </trkpt>
      <trkpt lat="42.125973" lon="9.13105">
        <ele>909.0</ele>
        <time>2022-09-13T10:48:35Z</time>
      </trkpt>
      <trkpt lat="42.125983" lon="9.131047">
        <ele>908.6</ele>
        <time>2022-09-13T10:48:36Z</time>
      </trkpt>
      <trkpt lat="42.126203" lon="9.130747">
        <ele>907.8</ele>
        <time>2022-09-13T10:48:53Z</time>
      </trkpt>
      <trkpt lat="42.126297" lon="9.130797">
        <ele>908.0</ele>
        <time>2022-09-13T10:49:08Z</time>
      </trkpt>
      <trkpt lat="42.12661" lon="9.130933">
        <ele>908.4</ele>
        <time>2022-09-13T10:49:22Z</time>
      </trkpt>
      <trkpt lat="42.126832" lon="9.131012">
        <ele>908.6</ele>
        <time>2022-09-13T10:49:35Z</time>
      </trkpt>
      <trkpt lat="42.126902" lon="9.131113">
        <ele>908.4</ele>
        <time>2022-09-13T10:49:38Z</time>
      </trkpt>
      <trkpt lat="42.12697" lon="9.131217">
        <ele>908.4</ele>
        <time>2022-09-13T10:49:46Z</time>
      </trkpt>
      <trkpt lat="42.127022" lon="9.131348">
        <ele>908.0</ele>
        <time>2022-09-13T10:49:56Z</time>
      </trkpt>
      <trkpt lat="42.127077" lon="9.131468">
        <ele>907.2</ele>
        <time>2022-09-13T10:50:05Z</time>
      </trkpt>
      <trkpt lat="42.127125" lon="9.13157">
        <ele>906.4</ele>
        <time>2022-09-13T10:50:13Z</time>
      </trkpt>
      <trkpt lat="42.127125" lon="9.131693">
        <ele>906.0</ele>
        <time>2022-09-13T10:50:22Z</time>
      </trkpt>
      <trkpt lat="42.127107" lon="9.131795">
        <ele>905.6</ele>
        <time>2022-09-13T10:50:30Z</time>
      </trkpt>
      <trkpt lat="42.127107" lon="9.131812">
        <ele>905.6</ele>
        <time>2022-09-13T10:50:32Z</time>
      </trkpt>
      <trkpt lat="42.127095" lon="9.131975">
        <ele>905.6</ele>
        <time>2022-09-13T10:50:42Z</time>
      </trkpt>
      <trkpt lat="42.127072" lon="9.132247">
        <ele>905.0</ele>
        <time>2022-09-13T10:50:58Z</time>
      </trkpt>
      <trkpt lat="42.12709" lon="9.13233">
        <ele>904.8</ele>
        <time>2022-09-13T10:51:03Z</time>
      </trkpt>
      <trkpt lat="42.127125" lon="9.13242">
        <ele>904.6</ele>
        <time>2022-09-13T10:51:09Z</time>
      </trkpt>
      <trkpt lat="42.1272" lon="9.132607">
        <ele>903.2</ele>
        <time>2022-09-13T10:51:23Z</time>
      </trkpt>
      <trkpt lat="42.12722" lon="9.132732">
        <ele>902.6</ele>
        <time>2022-09-13T10:51:33Z</time>
      </trkpt>
      <trkpt lat="42.12725" lon="9.132988">
        <ele>900.8</ele>
        <time>2022-09-13T10:51:56Z</time>
      </trkpt>
      <trkpt lat="42.12712" lon="9.132778">
        <ele>895.6</ele>
        <time>2022-09-13T10:56:30Z</time>
      </trkpt>
      <trkpt lat="42.12746" lon="9.13251">
        <ele>894.4</ele>
        <time>2022-09-13T10:56:42Z</time>
      </trkpt>
      <trkpt lat="42.12753" lon="9.132615">
        <ele>893.6</ele>
        <time>2022-09-13T10:56:55Z</time>
      </trkpt>
      <trkpt lat="42.12753" lon="9.13264">
        <ele>893.6</ele>
        <time>2022-09-13T10:56:55Z</time>
      </trkpt>
      <trkpt lat="42.127513" lon="9.132742">
        <ele>893.2</ele>
        <time>2022-09-13T10:57:03Z</time>
      </trkpt>
      <trkpt lat="42.127548" lon="9.13277">
        <ele>892.8</ele>
        <time>2022-09-13T10:57:07Z</time>
      </trkpt>
      <trkpt lat="42.127598" lon="9.13281">
        <ele>892.6</ele>
        <time>2022-09-13T10:57:13Z</time>
      </trkpt>
      <trkpt lat="42.127622" lon="9.13286">
        <ele>892.4</ele>
        <time>2022-09-13T10:57:16Z</time>
      </trkpt>
      <trkpt lat="42.12763" lon="9.132957">
        <ele>891.6</ele>
        <time>2022-09-13T10:57:25Z</time>
      </trkpt>
      <trkpt lat="42.12763" lon="9.13298">
        <ele>891.4</ele>
        <time>2022-09-13T10:57:27Z</time>
      </trkpt>
      <trkpt lat="42.12761" lon="9.133148">
        <ele>890.4</ele>
        <time>2022-09-13T10:57:38Z</time>
      </trkpt>
      <trkpt lat="42.127633" lon="9.133202">
        <ele>889.6</ele>
        <time>2022-09-13T10:57:44Z</time>
      </trkpt>
      <trkpt lat="42.127665" lon="9.133222">
        <ele>888.6</ele>
        <time>2022-09-13T10:57:52Z</time>
      </trkpt>
      <trkpt lat="42.127697" lon="9.133195">
        <ele>887.8</ele>
        <time>2022-09-13T10:58:00Z</time>
      </trkpt>
      <trkpt lat="42.127725" lon="9.133133">
        <ele>886.6</ele>
        <time>2022-09-13T10:58:10Z</time>
      </trkpt>
      <trkpt lat="42.12774" lon="9.133077">
        <ele>885.8</ele>
        <time>2022-09-13T10:58:19Z</time>
      </trkpt>
      <trkpt lat="42.127767" lon="9.133058">
        <ele>886.6</ele>
        <time>2022-09-13T10:58:32Z</time>
      </trkpt>
      <trkpt lat="42.127805" lon="9.132997">
        <ele>886.0</ele>
        <time>2022-09-13T10:58:54Z</time>
      </trkpt>
      <trkpt lat="42.127972" lon="9.132888">
        <ele>885.8</ele>
        <time>2022-09-13T10:59:23Z</time>
      </trkpt>
      <trkpt lat="42.128575" lon="9.13276">
        <ele>886.0</ele>
        <time>2022-09-13T10:59:48Z</time>
      </trkpt>
      <trkpt lat="42.128362" lon="9.13278">
        <ele>886.4</ele>
        <time>2022-09-13T11:00:04Z</time>
      </trkpt>
      <trkpt lat="42.128118" lon="9.132632">
        <ele>887.0</ele>
        <time>2022-09-13T11:00:18Z</time>
      </trkpt>
      <trkpt lat="42.12785" lon="9.132747">
        <ele>887.0</ele>
        <time>2022-09-13T11:00:31Z</time>
      </trkpt>
      <trkpt lat="42.12796" lon="9.133045">
        <ele>887.0</ele>
        <time>2022-09-13T11:00:44Z</time>
      </trkpt>
      <trkpt lat="42.128077" lon="9.13312">
        <ele>887.4</ele>
        <time>2022-09-13T11:00:58Z</time>
      </trkpt>
      <trkpt lat="42.127918" lon="9.133028">
        <ele>887.6</ele>
        <time>2022-09-13T11:01:12Z</time>
      </trkpt>
      <trkpt lat="42.127943" lon="9.132757">
        <ele>885.4</ele>
        <time>2022-09-13T11:02:49Z</time>
      </trkpt>
      <trkpt lat="42.128237" lon="9.131912">
        <ele>886.8</ele>
        <time>2022-09-13T11:14:06Z</time>
      </trkpt>
      <trkpt lat="42.128208" lon="9.132062">
        <ele>886.6</ele>
        <time>2022-09-13T11:14:14Z</time>
      </trkpt>
      <trkpt lat="42.128165" lon="9.132328">
        <ele>886.4</ele>
        <time>2022-09-13T11:14:30Z</time>
      </trkpt>
      <trkpt lat="42.128173" lon="9.132508">
        <ele>886.6</ele>
        <time>2022-09-13T11:14:39Z</time>
      </trkpt>
      <trkpt lat="42.128158" lon="9.132587">
        <ele>886.6</ele>
        <time>2022-09-13T11:14:42Z</time>
      </trkpt>
      <trkpt lat="42.127722" lon="9.132813">
        <ele>903.6</ele>
        <time>2022-09-13T11:32:30Z</time>
      </trkpt>
      <trkpt lat="42.12773" lon="9.132872">
        <ele>904.4</ele>
        <time>2022-09-13T11:32:35Z</time>
      </trkpt>
      <trkpt lat="42.127773" lon="9.133047">
        <ele>906.0</ele>
        <time>2022-09-13T11:32:49Z</time>
      </trkpt>
      <trkpt lat="42.127777" lon="9.133185">
        <ele>906.8</ele>
        <time>2022-09-13T11:32:58Z</time>
      </trkpt>
      <trkpt lat="42.127763" lon="9.133272">
        <ele>907.8</ele>
        <time>2022-09-13T11:33:04Z</time>
      </trkpt>
      <trkpt lat="42.127745" lon="9.133318">
        <ele>908.0</ele>
        <time>2022-09-13T11:33:08Z</time>
      </trkpt>
      <trkpt lat="42.127725" lon="9.133338">
        <ele>908.2</ele>
        <time>2022-09-13T11:33:11Z</time>
      </trkpt>
      <trkpt lat="42.127685" lon="9.133318">
        <ele>909.2</ele>
        <time>2022-09-13T11:33:16Z</time>
      </trkpt>
      <trkpt lat="42.127553" lon="9.133223">
        <ele>911.4</ele>
        <time>2022-09-13T11:33:34Z</time>
      </trkpt>
      <trkpt lat="42.127465" lon="9.132792">
        <ele>913.2</ele>
        <time>2022-09-13T11:33:58Z</time>
      </trkpt>
      <trkpt lat="42.127388" lon="9.132507">
        <ele>914.4</ele>
        <time>2022-09-13T11:34:18Z</time>
      </trkpt>
      <trkpt lat="42.12736" lon="9.132397">
        <ele>914.8</ele>
        <time>2022-09-13T11:34:25Z</time>
      </trkpt>
      <trkpt lat="42.127283" lon="9.132328">
        <ele>915.6</ele>
        <time>2022-09-13T11:34:36Z</time>
      </trkpt>
      <trkpt lat="42.12736" lon="9.1323">
        <ele>915.8</ele>
        <time>2022-09-13T11:34:45Z</time>
      </trkpt>
      <trkpt lat="42.127387" lon="9.132383">
        <ele>916.8</ele>
        <time>2022-09-13T11:34:58Z</time>
      </trkpt>
      <trkpt lat="42.12739" lon="9.132523">
        <ele>916.6</ele>
        <time>2022-09-13T11:35:05Z</time>
      </trkpt>
      <trkpt lat="42.127373" lon="9.13255">
        <ele>916.6</ele>
        <time>2022-09-13T11:35:08Z</time>
      </trkpt>
      <trkpt lat="42.127297" lon="9.132662">
        <ele>916.4</ele>
        <time>2022-09-13T11:35:23Z</time>
      </trkpt>
      <trkpt lat="42.127233" lon="9.132782">
        <ele>918.0</ele>
        <time>2022-09-13T11:35:40Z</time>
      </trkpt>
      <trkpt lat="42.127187" lon="9.13283">
        <ele>918.6</ele>
        <time>2022-09-13T11:35:46Z</time>
      </trkpt>
      <trkpt lat="42.1271" lon="9.132882">
        <ele>919.8</ele>
        <time>2022-09-13T11:35:56Z</time>
      </trkpt>
      <trkpt lat="42.127097" lon="9.132885">
        <ele>919.8</ele>
        <time>2022-09-13T11:35:57Z</time>
      </trkpt>
      <trkpt lat="42.127082" lon="9.132892">
        <ele>920.2</ele>
        <time>2022-09-13T11:36:01Z</time>
      </trkpt>
      <trkpt lat="42.127052" lon="9.132882">
        <ele>920.6</ele>
        <time>2022-09-13T11:36:10Z</time>
      </trkpt>
      <trkpt lat="42.127052" lon="9.132895">
        <ele>921.6</ele>
        <time>2022-09-13T11:36:17Z</time>
      </trkpt>
      <trkpt lat="42.127047" lon="9.132897">
        <ele>922.0</ele>
        <time>2022-09-13T11:36:21Z</time>
      </trkpt>
      <trkpt lat="42.127032" lon="9.13289">
        <ele>922.4</ele>
        <time>2022-09-13T11:36:26Z</time>
      </trkpt>
      <trkpt lat="42.127003" lon="9.132952">
        <ele>922.8</ele>
        <time>2022-09-13T11:36:31Z</time>
      </trkpt>
      <trkpt lat="42.126933" lon="9.133068">
        <ele>923.8</ele>
        <time>2022-09-13T11:36:41Z</time>
      </trkpt>
      <trkpt lat="42.126888" lon="9.133152">
        <ele>924.8</ele>
        <time>2022-09-13T11:36:48Z</time>
      </trkpt>
      <trkpt lat="42.12682" lon="9.133245">
        <ele>925.6</ele>
        <time>2022-09-13T11:36:58Z</time>
      </trkpt>
      <trkpt lat="42.126718" lon="9.13335">
        <ele>926.2</ele>
        <time>2022-09-13T11:37:08Z</time>
      </trkpt>
      <trkpt lat="42.126618" lon="9.133438">
        <ele>926.4</ele>
        <time>2022-09-13T11:37:16Z</time>
      </trkpt>
      <trkpt lat="42.126547" lon="9.133488">
        <ele>926.4</ele>
        <time>2022-09-13T11:37:21Z</time>
      </trkpt>
      <trkpt lat="42.126328" lon="9.13363">
        <ele>926.4</ele>
        <time>2022-09-13T11:37:37Z</time>
      </trkpt>
      <trkpt lat="42.126292" lon="9.133658">
        <ele>926.4</ele>
        <time>2022-09-13T11:37:41Z</time>
      </trkpt>
      <trkpt lat="42.126283" lon="9.133732">
        <ele>926.2</ele>
        <time>2022-09-13T11:37:47Z</time>
      </trkpt>
      <trkpt lat="42.126285" lon="9.133827">
        <ele>926.2</ele>
        <time>2022-09-13T11:37:55Z</time>
      </trkpt>
      <trkpt lat="42.126313" lon="9.133965">
        <ele>926.2</ele>
        <time>2022-09-13T11:38:10Z</time>
      </trkpt>
      <trkpt lat="42.126348" lon="9.134092">
        <ele>927.0</ele>
        <time>2022-09-13T11:38:30Z</time>
      </trkpt>
      <trkpt lat="42.126345" lon="9.134155">
        <ele>928.0</ele>
        <time>2022-09-13T11:38:42Z</time>
      </trkpt>
      <trkpt lat="42.126325" lon="9.134175">
        <ele>928.4</ele>
        <time>2022-09-13T11:38:47Z</time>
      </trkpt>
      <trkpt lat="42.126282" lon="9.134167">
        <ele>928.6</ele>
        <time>2022-09-13T11:38:54Z</time>
      </trkpt>
      <trkpt lat="42.12629" lon="9.134207">
        <ele>929.4</ele>
        <time>2022-09-13T11:38:59Z</time>
      </trkpt>
      <trkpt lat="42.126273" lon="9.134255">
        <ele>930.4</ele>
        <time>2022-09-13T11:39:05Z</time>
      </trkpt>
      <trkpt lat="42.12622" lon="9.13435">
        <ele>931.8</ele>
        <time>2022-09-13T11:39:20Z</time>
      </trkpt>
      <trkpt lat="42.126205" lon="9.13437">
        <ele>935.0</ele>
        <time>2022-09-13T11:39:58Z</time>
      </trkpt>
      <trkpt lat="42.126125" lon="9.134355">
        <ele>940.6</ele>
        <time>2022-09-13T11:40:44Z</time>
      </trkpt>
      <trkpt lat="42.126097" lon="9.134395">
        <ele>943.4</ele>
        <time>2022-09-13T11:41:04Z</time>
      </trkpt>
      <trkpt lat="42.125965" lon="9.134465">
        <ele>950.2</ele>
        <time>2022-09-13T11:42:12Z</time>
      </trkpt>
      <trkpt lat="42.125928" lon="9.134475">
        <ele>952.4</ele>
        <time>2022-09-13T11:42:26Z</time>
      </trkpt>
      <trkpt lat="42.125852" lon="9.134483">
        <ele>958.2</ele>
        <time>2022-09-13T11:43:03Z</time>
      </trkpt>
      <trkpt lat="42.125728" lon="9.134493">
        <ele>966.2</ele>
        <time>2022-09-13T11:44:05Z</time>
      </trkpt>
      <trkpt lat="42.125688" lon="9.134458">
        <ele>968.2</ele>
        <time>2022-09-13T11:44:23Z</time>
      </trkpt>
      <trkpt lat="42.125322" lon="9.13486">
        <ele>970.2</ele>
        <time>2022-09-13T11:44:36Z</time>
      </trkpt>
      <trkpt lat="42.124818" lon="9.135068">
        <ele>972.6</ele>
        <time>2022-09-13T11:44:51Z</time>
      </trkpt>
      <trkpt lat="42.124733" lon="9.134988">
        <ele>972.2</ele>
        <time>2022-09-13T11:44:56Z</time>
      </trkpt>
      <trkpt lat="42.124647" lon="9.134898">
        <ele>972.8</ele>
        <time>2022-09-13T11:45:00Z</time>
      </trkpt>
      <trkpt lat="42.124623" lon="9.134888">
        <ele>972.8</ele>
        <time>2022-09-13T11:45:01Z</time>
      </trkpt>
      <trkpt lat="42.124598" lon="9.134895">
        <ele>973.2</ele>
        <time>2022-09-13T11:45:02Z</time>
      </trkpt>
      <trkpt lat="42.124558" lon="9.134927">
        <ele>973.4</ele>
        <time>2022-09-13T11:45:04Z</time>
      </trkpt>
      <trkpt lat="42.12453" lon="9.13497">
        <ele>973.4</ele>
        <time>2022-09-13T11:45:06Z</time>
      </trkpt>
      <trkpt lat="42.12445" lon="9.135123">
        <ele>974.4</ele>
        <time>2022-09-13T11:45:13Z</time>
      </trkpt>
      <trkpt lat="42.124428" lon="9.13519">
        <ele>975.2</ele>
        <time>2022-09-13T11:45:16Z</time>
      </trkpt>
      <trkpt lat="42.124388" lon="9.135318">
        <ele>976.0</ele>
        <time>2022-09-13T11:45:23Z</time>
      </trkpt>
      <trkpt lat="42.12434" lon="9.13538">
        <ele>976.8</ele>
        <time>2022-09-13T11:45:29Z</time>
      </trkpt>
      <trkpt lat="42.124305" lon="9.135457">
        <ele>977.2</ele>
        <time>2022-09-13T11:45:35Z</time>
      </trkpt>
      <trkpt lat="42.124262" lon="9.135592">
        <ele>978.4</ele>
        <time>2022-09-13T11:45:48Z</time>
      </trkpt>
      <trkpt lat="42.124272" lon="9.135583">
        <ele>978.4</ele>
        <time>2022-09-13T11:45:49Z</time>
      </trkpt>
      <trkpt lat="42.124395" lon="9.135505">
        <ele>979.8</ele>
        <time>2022-09-13T11:45:59Z</time>
      </trkpt>
      <trkpt lat="42.124667" lon="9.13539">
        <ele>982.6</ele>
        <time>2022-09-13T11:46:22Z</time>
      </trkpt>
      <trkpt lat="42.12474" lon="9.135367">
        <ele>983.6</ele>
        <time>2022-09-13T11:46:30Z</time>
      </trkpt>
      <trkpt lat="42.124875" lon="9.13549">
        <ele>985.0</ele>
        <time>2022-09-13T11:46:58Z</time>
      </trkpt>
      <trkpt lat="42.12498" lon="9.135552">
        <ele>986.6</ele>
        <time>2022-09-13T11:47:19Z</time>
      </trkpt>
      <trkpt lat="42.12504" lon="9.135697">
        <ele>989.0</ele>
        <time>2022-09-13T11:47:47Z</time>
      </trkpt>
      <trkpt lat="42.127262" lon="9.138003">
        <ele>1007.4</ele>
        <time>2022-09-13T11:51:41Z</time>
      </trkpt>
      <trkpt lat="42.127455" lon="9.138157">
        <ele>1008.4</ele>
        <time>2022-09-13T11:51:51Z</time>
      </trkpt>
      <trkpt lat="42.127565" lon="9.13826">
        <ele>1008.6</ele>
        <time>2022-09-13T11:51:57Z</time>
      </trkpt>
      <trkpt lat="42.127592" lon="9.1383">
        <ele>1008.8</ele>
        <time>2022-09-13T11:51:59Z</time>
      </trkpt>
      <trkpt lat="42.127595" lon="9.13835">
        <ele>1008.8</ele>
        <time>2022-09-13T11:52:01Z</time>
      </trkpt>
      <trkpt lat="42.127577" lon="9.138437">
        <ele>1008.8</ele>
        <time>2022-09-13T11:52:05Z</time>
      </trkpt>
      <trkpt lat="42.127495" lon="9.138588">
        <ele>1009.0</ele>
        <time>2022-09-13T11:52:15Z</time>
      </trkpt>
      <trkpt lat="42.127477" lon="9.138662">
        <ele>1009.0</ele>
        <time>2022-09-13T11:52:20Z</time>
      </trkpt>
      <trkpt lat="42.127457" lon="9.138727">
        <ele>1009.0</ele>
        <time>2022-09-13T11:52:25Z</time>
      </trkpt>
      <trkpt lat="42.127473" lon="9.138762">
        <ele>1008.8</ele>
        <time>2022-09-13T11:52:29Z</time>
      </trkpt>
      <trkpt lat="42.127493" lon="9.138775">
        <ele>1008.8</ele>
        <time>2022-09-13T11:52:33Z</time>
      </trkpt>
      <trkpt lat="42.12755" lon="9.138753">
        <ele>1009.0</ele>
        <time>2022-09-13T11:52:41Z</time>
      </trkpt>
      <trkpt lat="42.127688" lon="9.1387">
        <ele>1010.8</ele>
        <time>2022-09-13T11:53:00Z</time>
      </trkpt>
      <trkpt lat="42.127747" lon="9.138687">
        <ele>1011.6</ele>
        <time>2022-09-13T11:53:06Z</time>
      </trkpt>
      <trkpt lat="42.127808" lon="9.138688">
        <ele>1012.4</ele>
        <time>2022-09-13T11:53:12Z</time>
      </trkpt>
      <trkpt lat="42.127968" lon="9.138725">
        <ele>1014.2</ele>
        <time>2022-09-13T11:53:28Z</time>
      </trkpt>
      <trkpt lat="42.12797" lon="9.13875">
        <ele>1014.6</ele>
        <time>2022-09-13T11:53:29Z</time>
      </trkpt>
      <trkpt lat="42.127978" lon="9.138952">
        <ele>1015.8</ele>
        <time>2022-09-13T11:53:37Z</time>
      </trkpt>
      <trkpt lat="42.127972" lon="9.139055">
        <ele>1016.4</ele>
        <time>2022-09-13T11:53:41Z</time>
      </trkpt>
      <trkpt lat="42.12794" lon="9.139278">
        <ele>1017.0</ele>
        <time>2022-09-13T11:53:50Z</time>
      </trkpt>
      <trkpt lat="42.127952" lon="9.139358">
        <ele>1016.8</ele>
        <time>2022-09-13T11:53:54Z</time>
      </trkpt>
      <trkpt lat="42.128018" lon="9.139668">
        <ele>1016.8</ele>
        <time>2022-09-13T11:54:07Z</time>
      </trkpt>
      <trkpt lat="42.128043" lon="9.139938">
        <ele>1017.0</ele>
        <time>2022-09-13T11:54:18Z</time>
      </trkpt>
      <trkpt lat="42.128047" lon="9.139952">
        <ele>1017.0</ele>
        <time>2022-09-13T11:54:19Z</time>
      </trkpt>
      <trkpt lat="42.128077" lon="9.140067">
        <ele>1017.2</ele>
        <time>2022-09-13T11:54:28Z</time>
      </trkpt>
      <trkpt lat="42.128122" lon="9.140142">
        <ele>1017.2</ele>
        <time>2022-09-13T11:54:35Z</time>
      </trkpt>
      <trkpt lat="42.12818" lon="9.140198">
        <ele>1017.4</ele>
        <time>2022-09-13T11:54:42Z</time>
      </trkpt>
      <trkpt lat="42.128357" lon="9.14032">
        <ele>1018.2</ele>
        <time>2022-09-13T11:55:02Z</time>
      </trkpt>
      <trkpt lat="42.128548" lon="9.140442">
        <ele>1019.4</ele>
        <time>2022-09-13T11:55:26Z</time>
      </trkpt>
      <trkpt lat="42.128565" lon="9.14056">
        <ele>1019.6</ele>
        <time>2022-09-13T11:55:35Z</time>
      </trkpt>
      <trkpt lat="42.12862" lon="9.141135">
        <ele>1020.0</ele>
        <time>2022-09-13T11:56:17Z</time>
      </trkpt>
      <trkpt lat="42.128658" lon="9.141285">
        <ele>1020.0</ele>
        <time>2022-09-13T11:56:29Z</time>
      </trkpt>
      <trkpt lat="42.128722" lon="9.14146">
        <ele>1020.6</ele>
        <time>2022-09-13T11:56:45Z</time>
      </trkpt>
      <trkpt lat="42.128728" lon="9.141463">
        <ele>1020.6</ele>
        <time>2022-09-13T11:56:46Z</time>
      </trkpt>
      <trkpt lat="42.128753" lon="9.1415">
        <ele>1021.2</ele>
        <time>2022-09-13T11:57:06Z</time>
      </trkpt>
      <trkpt lat="42.128787" lon="9.141518">
        <ele>1020.8</ele>
        <time>2022-09-13T11:57:30Z</time>
      </trkpt>
      <trkpt lat="42.128825" lon="9.141532">
        <ele>1021.0</ele>
        <time>2022-09-13T11:57:39Z</time>
      </trkpt>
      <trkpt lat="42.128898" lon="9.141558">
        <ele>1021.6</ele>
        <time>2022-09-13T11:57:58Z</time>
      </trkpt>
      <trkpt lat="42.12894" lon="9.141598">
        <ele>1021.8</ele>
        <time>2022-09-13T11:58:07Z</time>
      </trkpt>
      <trkpt lat="42.12901" lon="9.141723">
        <ele>1023.2</ele>
        <time>2022-09-13T11:58:41Z</time>
      </trkpt>
      <trkpt lat="42.12905" lon="9.141892">
        <ele>1023.4</ele>
        <time>2022-09-13T11:58:57Z</time>
      </trkpt>
      <trkpt lat="42.129112" lon="9.142087">
        <ele>1024.0</ele>
        <time>2022-09-13T11:59:11Z</time>
      </trkpt>
      <trkpt lat="42.129175" lon="9.142185">
        <ele>1024.2</ele>
        <time>2022-09-13T11:59:20Z</time>
      </trkpt>
      <trkpt lat="42.129233" lon="9.14223">
        <ele>1024.4</ele>
        <time>2022-09-13T11:59:26Z</time>
      </trkpt>
      <trkpt lat="42.12924" lon="9.142233">
        <ele>1024.4</ele>
        <time>2022-09-13T11:59:27Z</time>
      </trkpt>
      <trkpt lat="42.1293" lon="9.142268">
        <ele>1024.8</ele>
        <time>2022-09-13T11:59:36Z</time>
      </trkpt>
      <trkpt lat="42.129362" lon="9.142232">
        <ele>1025.0</ele>
        <time>2022-09-13T11:59:46Z</time>
      </trkpt>
      <trkpt lat="42.129465" lon="9.142165">
        <ele>1025.6</ele>
        <time>2022-09-13T12:01:15Z</time>
      </trkpt>
      <trkpt lat="42.129663" lon="9.141977">
        <ele>1025.6</ele>
        <time>2022-09-13T12:01:43Z</time>
      </trkpt>
      <trkpt lat="42.129595" lon="9.14202">
        <ele>1025.6</ele>
        <time>2022-09-13T12:01:55Z</time>
      </trkpt>
      <trkpt lat="42.12918" lon="9.142105">
        <ele>1026.0</ele>
        <time>2022-09-13T12:03:04Z</time>
      </trkpt>
      <trkpt lat="42.129178" lon="9.142133">
        <ele>1026.2</ele>
        <time>2022-09-13T12:03:25Z</time>
      </trkpt>
      <trkpt lat="42.129135" lon="9.142083">
        <ele>1027.8</ele>
        <time>2022-09-13T12:08:21Z</time>
      </trkpt>
      <trkpt lat="42.129095" lon="9.142005">
        <ele>1027.8</ele>
        <time>2022-09-13T12:08:34Z</time>
      </trkpt>
      <trkpt lat="42.129078" lon="9.141973">
        <ele>1027.8</ele>
        <time>2022-09-13T12:08:39Z</time>
      </trkpt>
      <trkpt lat="42.129043" lon="9.141935">
        <ele>1027.8</ele>
        <time>2022-09-13T12:08:58Z</time>
      </trkpt>
      <trkpt lat="42.129025" lon="9.14188">
        <ele>1028.0</ele>
        <time>2022-09-13T12:09:20Z</time>
      </trkpt>
      <trkpt lat="42.129092" lon="9.141762">
        <ele>1028.6</ele>
        <time>2022-09-13T12:09:43Z</time>
      </trkpt>
      <trkpt lat="42.130547" lon="9.139983">
        <ele>1029.4</ele>
        <time>2022-09-13T12:16:52Z</time>
      </trkpt>
      <trkpt lat="42.12997" lon="9.140997">
        <ele>1029.6</ele>
        <time>2022-09-13T12:17:09Z</time>
      </trkpt>
      <trkpt lat="42.129613" lon="9.14161">
        <ele>1030.8</ele>
        <time>2022-09-13T12:17:23Z</time>
      </trkpt>
      <trkpt lat="42.129518" lon="9.141805">
        <ele>1031.0</ele>
        <time>2022-09-13T12:17:27Z</time>
      </trkpt>
      <trkpt lat="42.129408" lon="9.14209">
        <ele>1031.2</ele>
        <time>2022-09-13T12:17:32Z</time>
      </trkpt>
      <trkpt lat="42.12948" lon="9.142077">
        <ele>1031.2</ele>
        <time>2022-09-13T12:17:36Z</time>
      </trkpt>
      <trkpt lat="42.129753" lon="9.142042">
        <ele>1031.8</ele>
        <time>2022-09-13T12:17:51Z</time>
      </trkpt>
      <trkpt lat="42.130072" lon="9.14195">
        <ele>1032.4</ele>
        <time>2022-09-13T12:18:08Z</time>
      </trkpt>
      <trkpt lat="42.130195" lon="9.141937">
        <ele>1032.6</ele>
        <time>2022-09-13T12:18:14Z</time>
      </trkpt>
      <trkpt lat="42.130295" lon="9.141908">
        <ele>1032.6</ele>
        <time>2022-09-13T12:18:23Z</time>
      </trkpt>
      <trkpt lat="42.130518" lon="9.14179">
        <ele>1034.2</ele>
        <time>2022-09-13T12:18:44Z</time>
      </trkpt>
      <trkpt lat="42.130615" lon="9.14173">
        <ele>1035.2</ele>
        <time>2022-09-13T12:18:54Z</time>
      </trkpt>
      <trkpt lat="42.130673" lon="9.141713">
        <ele>1035.8</ele>
        <time>2022-09-13T12:19:02Z</time>
      </trkpt>
      <trkpt lat="42.130698" lon="9.141657">
        <ele>1036.2</ele>
        <time>2022-09-13T12:19:07Z</time>
      </trkpt>
      <trkpt lat="42.130755" lon="9.14162">
        <ele>1036.6</ele>
        <time>2022-09-13T12:19:13Z</time>
      </trkpt>
      <trkpt lat="42.13087" lon="9.141575">
        <ele>1037.4</ele>
        <time>2022-09-13T12:19:24Z</time>
      </trkpt>
      <trkpt lat="42.130922" lon="9.141545">
        <ele>1038.0</ele>
        <time>2022-09-13T12:19:29Z</time>
      </trkpt>
      <trkpt lat="42.131012" lon="9.141585">
        <ele>1038.2</ele>
        <time>2022-09-13T12:19:36Z</time>
      </trkpt>
      <trkpt lat="42.131025" lon="9.1416">
        <ele>1038.4</ele>
        <time>2022-09-13T12:19:37Z</time>
      </trkpt>
      <trkpt lat="42.131095" lon="9.141632">
        <ele>1038.6</ele>
        <time>2022-09-13T12:19:41Z</time>
      </trkpt>
      <trkpt lat="42.131102" lon="9.14167">
        <ele>1038.6</ele>
        <time>2022-09-13T12:19:43Z</time>
      </trkpt>
      <trkpt lat="42.131085" lon="9.141702">
        <ele>1038.8</ele>
        <time>2022-09-13T12:19:45Z</time>
      </trkpt>
      <trkpt lat="42.131025" lon="9.141755">
        <ele>1038.8</ele>
        <time>2022-09-13T12:19:50Z</time>
      </trkpt>
      <trkpt lat="42.130988" lon="9.141733">
        <ele>1039.0</ele>
        <time>2022-09-13T12:19:53Z</time>
      </trkpt>
      <trkpt lat="42.130945" lon="9.141687">
        <ele>1039.4</ele>
        <time>2022-09-13T12:19:57Z</time>
      </trkpt>
      <trkpt lat="42.130882" lon="9.14174">
        <ele>1039.6</ele>
        <time>2022-09-13T12:20:02Z</time>
      </trkpt>
      <trkpt lat="42.130817" lon="9.141817">
        <ele>1039.6</ele>
        <time>2022-09-13T12:20:08Z</time>
      </trkpt>
      <trkpt lat="42.130718" lon="9.141988">
        <ele>1040.2</ele>
        <time>2022-09-13T12:20:22Z</time>
      </trkpt>
      <trkpt lat="42.13066" lon="9.142107">
        <ele>1040.6</ele>
        <time>2022-09-13T12:20:30Z</time>
      </trkpt>
      <trkpt lat="42.130573" lon="9.142252">
        <ele>1041.4</ele>
        <time>2022-09-13T12:20:41Z</time>
      </trkpt>
      <trkpt lat="42.130498" lon="9.142345">
        <ele>1043.0</ele>
        <time>2022-09-13T12:20:51Z</time>
      </trkpt>
      <trkpt lat="42.130447" lon="9.14238">
        <ele>1043.6</ele>
        <time>2022-09-13T12:20:57Z</time>
      </trkpt>
      <trkpt lat="42.130402" lon="9.142375">
        <ele>1044.2</ele>
        <time>2022-09-13T12:21:04Z</time>
      </trkpt>
      <trkpt lat="42.130273" lon="9.142352">
        <ele>1046.0</ele>
        <time>2022-09-13T12:21:22Z</time>
      </trkpt>
      <trkpt lat="42.13027" lon="9.142345">
        <ele>1046.0</ele>
        <time>2022-09-13T12:21:23Z</time>
      </trkpt>
      <trkpt lat="42.130227" lon="9.142245">
        <ele>1048.2</ele>
        <time>2022-09-13T12:21:40Z</time>
      </trkpt>
      <trkpt lat="42.130375" lon="9.142125">
        <ele>1052.2</ele>
        <time>2022-09-13T12:22:21Z</time>
      </trkpt>
      <trkpt lat="42.13034" lon="9.142227">
        <ele>1052.0</ele>
        <time>2022-09-13T12:22:36Z</time>
      </trkpt>
      <trkpt lat="42.130303" lon="9.14233">
        <ele>1053.0</ele>
        <time>2022-09-13T12:22:46Z</time>
      </trkpt>
      <trkpt lat="42.130253" lon="9.142465">
        <ele>1054.6</ele>
        <time>2022-09-13T12:22:58Z</time>
      </trkpt>
      <trkpt lat="42.130248" lon="9.142492">
        <ele>1054.8</ele>
        <time>2022-09-13T12:23:00Z</time>
      </trkpt>
      <trkpt lat="42.1303" lon="9.142495">
        <ele>1055.0</ele>
        <time>2022-09-13T12:23:06Z</time>
      </trkpt>
      <trkpt lat="42.13044" lon="9.142482">
        <ele>1058.0</ele>
        <time>2022-09-13T12:23:32Z</time>
      </trkpt>
      <trkpt lat="42.130563" lon="9.14249">
        <ele>1060.8</ele>
        <time>2022-09-13T12:23:54Z</time>
      </trkpt>
      <trkpt lat="42.1307" lon="9.142513">
        <ele>1062.4</ele>
        <time>2022-09-13T12:24:06Z</time>
      </trkpt>
      <trkpt lat="42.130832" lon="9.142377">
        <ele>1064.2</ele>
        <time>2022-09-13T12:24:22Z</time>
      </trkpt>
      <trkpt lat="42.130912" lon="9.142357">
        <ele>1065.8</ele>
        <time>2022-09-13T12:24:33Z</time>
      </trkpt>
      <trkpt lat="42.130968" lon="9.142387">
        <ele>1067.0</ele>
        <time>2022-09-13T12:24:44Z</time>
      </trkpt>
      <trkpt lat="42.130953" lon="9.14243">
        <ele>1068.0</ele>
        <time>2022-09-13T12:24:49Z</time>
      </trkpt>
      <trkpt lat="42.130795" lon="9.142728">
        <ele>1074.6</ele>
        <time>2022-09-13T12:25:48Z</time>
      </trkpt>
      <trkpt lat="42.130793" lon="9.142732">
        <ele>1074.6</ele>
        <time>2022-09-13T12:25:49Z</time>
      </trkpt>
      <trkpt lat="42.13076" lon="9.142947">
        <ele>1080.4</ele>
        <time>2022-09-13T12:26:36Z</time>
      </trkpt>
      <trkpt lat="42.13071" lon="9.143015">
        <ele>1082.4</ele>
        <time>2022-09-13T12:26:55Z</time>
      </trkpt>
      <trkpt lat="42.130648" lon="9.143227">
        <ele>1086.2</ele>
        <time>2022-09-13T12:27:35Z</time>
      </trkpt>
      <trkpt lat="42.130327" lon="9.143928">
        <ele>1087.6</ele>
        <time>2022-09-13T12:27:46Z</time>
      </trkpt>
      <trkpt lat="42.130175" lon="9.144108">
        <ele>1088.0</ele>
        <time>2022-09-13T12:27:49Z</time>
      </trkpt>
      <trkpt lat="42.130167" lon="9.144085">
        <ele>1088.0</ele>
        <time>2022-09-13T12:27:50Z</time>
      </trkpt>
      <trkpt lat="42.13013" lon="9.143967">
        <ele>1089.4</ele>
        <time>2022-09-13T12:27:58Z</time>
      </trkpt>
      <trkpt lat="42.130098" lon="9.143858">
        <ele>1091.0</ele>
        <time>2022-09-13T12:28:07Z</time>
      </trkpt>
      <trkpt lat="42.130025" lon="9.143695">
        <ele>1093.0</ele>
        <time>2022-09-13T12:28:24Z</time>
      </trkpt>
      <trkpt lat="42.129972" lon="9.143622">
        <ele>1094.6</ele>
        <time>2022-09-13T12:28:39Z</time>
      </trkpt>
      <trkpt lat="42.129943" lon="9.143555">
        <ele>1096.2</ele>
        <time>2022-09-13T12:28:50Z</time>
      </trkpt>
      <trkpt lat="42.129957" lon="9.144375">
        <ele>1109.0</ele>
        <time>2022-09-13T12:31:45Z</time>
      </trkpt>
      <trkpt lat="42.130057" lon="9.144485">
        <ele>1111.2</ele>
        <time>2022-09-13T12:32:05Z</time>
      </trkpt>
      <trkpt lat="42.130362" lon="9.144455">
        <ele>1113.2</ele>
        <time>2022-09-13T12:32:21Z</time>
      </trkpt>
      <trkpt lat="42.130408" lon="9.144425">
        <ele>1114.0</ele>
        <time>2022-09-13T12:32:26Z</time>
      </trkpt>
      <trkpt lat="42.130495" lon="9.14438">
        <ele>1115.4</ele>
        <time>2022-09-13T12:32:38Z</time>
      </trkpt>
      <trkpt lat="42.130572" lon="9.14432">
        <ele>1116.8</ele>
        <time>2022-09-13T12:32:50Z</time>
      </trkpt>
      <trkpt lat="42.130635" lon="9.144275">
        <ele>1117.4</ele>
        <time>2022-09-13T12:33:00Z</time>
      </trkpt>
      <trkpt lat="42.130705" lon="9.144262">
        <ele>1118.6</ele>
        <time>2022-09-13T12:33:12Z</time>
      </trkpt>
      <trkpt lat="42.130827" lon="9.144245">
        <ele>1123.4</ele>
        <time>2022-09-13T12:33:44Z</time>
      </trkpt>
      <trkpt lat="42.13076" lon="9.144315">
        <ele>1124.4</ele>
        <time>2022-09-13T12:33:54Z</time>
      </trkpt>
      <trkpt lat="42.131287" lon="9.144343">
        <ele>1127.0</ele>
        <time>2022-09-13T12:34:17Z</time>
      </trkpt>
      <trkpt lat="42.131295" lon="9.14434">
        <ele>1127.8</ele>
        <time>2022-09-13T12:34:24Z</time>
      </trkpt>
      <trkpt lat="42.131368" lon="9.144323">
        <ele>1129.0</ele>
        <time>2022-09-13T12:34:32Z</time>
      </trkpt>
      <trkpt lat="42.13141" lon="9.144337">
        <ele>1129.2</ele>
        <time>2022-09-13T12:34:36Z</time>
      </trkpt>
      <trkpt lat="42.131472" lon="9.14438">
        <ele>1129.8</ele>
        <time>2022-09-13T12:34:43Z</time>
      </trkpt>
      <trkpt lat="42.13155" lon="9.144462">
        <ele>1131.0</ele>
        <time>2022-09-13T12:34:54Z</time>
      </trkpt>
      <trkpt lat="42.131578" lon="9.144502">
        <ele>1131.6</ele>
        <time>2022-09-13T12:34:59Z</time>
      </trkpt>
      <trkpt lat="42.131588" lon="9.144508">
        <ele>1131.6</ele>
        <time>2022-09-13T12:35:00Z</time>
      </trkpt>
      <trkpt lat="42.131667" lon="9.14458">
        <ele>1132.2</ele>
        <time>2022-09-13T12:35:08Z</time>
      </trkpt>
      <trkpt lat="42.131683" lon="9.144618">
        <ele>1132.6</ele>
        <time>2022-09-13T12:35:11Z</time>
      </trkpt>
      <trkpt lat="42.131657" lon="9.144677">
        <ele>1133.8</ele>
        <time>2022-09-13T12:35:17Z</time>
      </trkpt>
      <trkpt lat="42.131612" lon="9.144747">
        <ele>1135.4</ele>
        <time>2022-09-13T12:35:25Z</time>
      </trkpt>
      <trkpt lat="42.131563" lon="9.144907">
        <ele>1138.0</ele>
        <time>2022-09-13T12:35:46Z</time>
      </trkpt>
      <trkpt lat="42.13162" lon="9.144928">
        <ele>1139.2</ele>
        <time>2022-09-13T12:35:57Z</time>
      </trkpt>
      <trkpt lat="42.131635" lon="9.14497">
        <ele>1140.4</ele>
        <time>2022-09-13T12:36:07Z</time>
      </trkpt>
      <trkpt lat="42.131638" lon="9.14503">
        <ele>1143.0</ele>
        <time>2022-09-13T12:36:25Z</time>
      </trkpt>
      <trkpt lat="42.131653" lon="9.145083">
        <ele>1145.0</ele>
        <time>2022-09-13T12:36:41Z</time>
      </trkpt>
      <trkpt lat="42.131482" lon="9.145198">
        <ele>1148.4</ele>
        <time>2022-09-13T12:37:03Z</time>
      </trkpt>
      <trkpt lat="42.13148" lon="9.145215">
        <ele>1148.4</ele>
        <time>2022-09-13T12:37:04Z</time>
      </trkpt>
      <trkpt lat="42.131472" lon="9.145263">
        <ele>1148.8</ele>
        <time>2022-09-13T12:37:07Z</time>
      </trkpt>
      <trkpt lat="42.131388" lon="9.14534">
        <ele>1150.8</ele>
        <time>2022-09-13T12:37:23Z</time>
      </trkpt>
      <trkpt lat="42.131343" lon="9.145377">
        <ele>1151.6</ele>
        <time>2022-09-13T12:37:29Z</time>
      </trkpt>
      <trkpt lat="42.1313" lon="9.145408">
        <ele>1152.4</ele>
        <time>2022-09-13T12:37:36Z</time>
      </trkpt>
      <trkpt lat="42.131265" lon="9.145498">
        <ele>1153.6</ele>
        <time>2022-09-13T12:37:56Z</time>
      </trkpt>
      <trkpt lat="42.131233" lon="9.145618">
        <ele>1156.2</ele>
        <time>2022-09-13T12:38:24Z</time>
      </trkpt>
      <trkpt lat="42.131237" lon="9.145625">
        <ele>1156.4</ele>
        <time>2022-09-13T12:38:26Z</time>
      </trkpt>
      <trkpt lat="42.13134" lon="9.145708">
        <ele>1160.2</ele>
        <time>2022-09-13T12:38:48Z</time>
      </trkpt>
      <trkpt lat="42.13118" lon="9.145857">
        <ele>1163.2</ele>
        <time>2022-09-13T12:39:13Z</time>
      </trkpt>
      <trkpt lat="42.13116" lon="9.145928">
        <ele>1164.2</ele>
        <time>2022-09-13T12:39:20Z</time>
      </trkpt>
      <trkpt lat="42.13114" lon="9.146032">
        <ele>1165.2</ele>
        <time>2022-09-13T12:39:30Z</time>
      </trkpt>
      <trkpt lat="42.131145" lon="9.146142">
        <ele>1167.6</ele>
        <time>2022-09-13T12:39:43Z</time>
      </trkpt>
      <trkpt lat="42.13115" lon="9.146145">
        <ele>1167.6</ele>
        <time>2022-09-13T12:39:44Z</time>
      </trkpt>
      <trkpt lat="42.131182" lon="9.14618">
        <ele>1168.8</ele>
        <time>2022-09-13T12:39:52Z</time>
      </trkpt>
      <trkpt lat="42.1312" lon="9.146278">
        <ele>1169.8</ele>
        <time>2022-09-13T12:40:11Z</time>
      </trkpt>
      <trkpt lat="42.131222" lon="9.146327">
        <ele>1171.0</ele>
        <time>2022-09-13T12:40:22Z</time>
      </trkpt>
      <trkpt lat="42.131202" lon="9.146367">
        <ele>1172.0</ele>
        <time>2022-09-13T12:40:33Z</time>
      </trkpt>
      <trkpt lat="42.131182" lon="9.146447">
        <ele>1174.6</ele>
        <time>2022-09-13T12:40:55Z</time>
      </trkpt>
      <trkpt lat="42.13117" lon="9.146532">
        <ele>1176.4</ele>
        <time>2022-09-13T12:41:09Z</time>
      </trkpt>
      <trkpt lat="42.131112" lon="9.146572">
        <ele>1178.0</ele>
        <time>2022-09-13T12:41:24Z</time>
      </trkpt>
      <trkpt lat="42.131038" lon="9.146597">
        <ele>1180.8</ele>
        <time>2022-09-13T12:41:48Z</time>
      </trkpt>
      <trkpt lat="42.13095" lon="9.146605">
        <ele>1183.4</ele>
        <time>2022-09-13T12:42:18Z</time>
      </trkpt>
      <trkpt lat="42.130937" lon="9.146647">
        <ele>1184.6</ele>
        <time>2022-09-13T12:42:29Z</time>
      </trkpt>
      <trkpt lat="42.1308" lon="9.146687">
        <ele>1190.4</ele>
        <time>2022-09-13T12:43:15Z</time>
      </trkpt>
      <trkpt lat="42.1308" lon="9.146637">
        <ele>1190.6</ele>
        <time>2022-09-13T12:43:24Z</time>
      </trkpt>
      <trkpt lat="42.13077" lon="9.146577">
        <ele>1191.2</ele>
        <time>2022-09-13T12:43:31Z</time>
      </trkpt>
      <trkpt lat="42.130758" lon="9.14658">
        <ele>1191.4</ele>
        <time>2022-09-13T12:43:33Z</time>
      </trkpt>
      <trkpt lat="42.130638" lon="9.146615">
        <ele>1192.2</ele>
        <time>2022-09-13T12:43:42Z</time>
      </trkpt>
      <trkpt lat="42.130553" lon="9.14663">
        <ele>1192.4</ele>
        <time>2022-09-13T12:43:48Z</time>
      </trkpt>
      <trkpt lat="42.130527" lon="9.146652">
        <ele>1192.6</ele>
        <time>2022-09-13T12:43:49Z</time>
      </trkpt>
      <trkpt lat="42.130515" lon="9.146695">
        <ele>1192.6</ele>
        <time>2022-09-13T12:43:51Z</time>
      </trkpt>
      <trkpt lat="42.130498" lon="9.146868">
        <ele>1193.8</ele>
        <time>2022-09-13T12:44:01Z</time>
      </trkpt>
      <trkpt lat="42.130472" lon="9.146962">
        <ele>1194.2</ele>
        <time>2022-09-13T12:44:06Z</time>
      </trkpt>
      <trkpt lat="42.130452" lon="9.146988">
        <ele>1194.4</ele>
        <time>2022-09-13T12:44:08Z</time>
      </trkpt>
      <trkpt lat="42.130428" lon="9.147003">
        <ele>1194.6</ele>
        <time>2022-09-13T12:44:10Z</time>
      </trkpt>
      <trkpt lat="42.130372" lon="9.147018">
        <ele>1195.8</ele>
        <time>2022-09-13T12:44:18Z</time>
      </trkpt>
      <trkpt lat="42.13026" lon="9.147103">
        <ele>1199.2</ele>
        <time>2022-09-13T12:44:41Z</time>
      </trkpt>
      <trkpt lat="42.13019" lon="9.147162">
        <ele>1201.4</ele>
        <time>2022-09-13T12:44:56Z</time>
      </trkpt>
      <trkpt lat="42.130072" lon="9.14724">
        <ele>1205.0</ele>
        <time>2022-09-13T12:45:24Z</time>
      </trkpt>
      <trkpt lat="42.13007" lon="9.147242">
        <ele>1205.4</ele>
        <time>2022-09-13T12:45:25Z</time>
      </trkpt>
      <trkpt lat="42.130032" lon="9.147305">
        <ele>1206.8</ele>
        <time>2022-09-13T12:45:47Z</time>
      </trkpt>
      <trkpt lat="42.129988" lon="9.147387">
        <ele>1209.6</ele>
        <time>2022-09-13T12:46:25Z</time>
      </trkpt>
      <trkpt lat="42.129953" lon="9.147402">
        <ele>1210.4</ele>
        <time>2022-09-13T12:46:38Z</time>
      </trkpt>
      <trkpt lat="42.129893" lon="9.14738">
        <ele>1212.6</ele>
        <time>2022-09-13T12:47:09Z</time>
      </trkpt>
      <trkpt lat="42.129853" lon="9.147373">
        <ele>1213.6</ele>
        <time>2022-09-13T12:47:26Z</time>
      </trkpt>
      <trkpt lat="42.129845" lon="9.147378">
        <ele>1213.6</ele>
        <time>2022-09-13T12:47:27Z</time>
      </trkpt>
      <trkpt lat="42.129598" lon="9.147478">
        <ele>1216.4</ele>
        <time>2022-09-13T12:48:05Z</time>
      </trkpt>
      <trkpt lat="42.129517" lon="9.147512">
        <ele>1217.8</ele>
        <time>2022-09-13T12:48:16Z</time>
      </trkpt>
      <trkpt lat="42.129363" lon="9.147677">
        <ele>1219.0</ele>
        <time>2022-09-13T12:48:31Z</time>
      </trkpt>
      <trkpt lat="42.129275" lon="9.147727">
        <ele>1219.0</ele>
        <time>2022-09-13T12:48:35Z</time>
      </trkpt>
      <trkpt lat="42.1291" lon="9.14782">
        <ele>1219.8</ele>
        <time>2022-09-13T12:48:42Z</time>
      </trkpt>
      <trkpt lat="42.128967" lon="9.1479">
        <ele>1221.0</ele>
        <time>2022-09-13T12:48:48Z</time>
      </trkpt>
      <trkpt lat="42.128775" lon="9.148">
        <ele>1221.8</ele>
        <time>2022-09-13T12:48:55Z</time>
      </trkpt>
      <trkpt lat="42.128585" lon="9.14816">
        <ele>1222.8</ele>
        <time>2022-09-13T12:49:03Z</time>
      </trkpt>
      <trkpt lat="42.128498" lon="9.148207">
        <ele>1223.2</ele>
        <time>2022-09-13T12:49:07Z</time>
      </trkpt>
      <trkpt lat="42.128437" lon="9.1482">
        <ele>1223.4</ele>
        <time>2022-09-13T12:49:10Z</time>
      </trkpt>
      <trkpt lat="42.128192" lon="9.148163">
        <ele>1225.0</ele>
        <time>2022-09-13T12:49:25Z</time>
      </trkpt>
      <trkpt lat="42.128195" lon="9.148173">
        <ele>1225.0</ele>
        <time>2022-09-13T12:49:26Z</time>
      </trkpt>
      <trkpt lat="42.128235" lon="9.148308">
        <ele>1226.6</ele>
        <time>2022-09-13T12:49:42Z</time>
      </trkpt>
      <trkpt lat="42.128233" lon="9.148457">
        <ele>1228.4</ele>
        <time>2022-09-13T12:49:58Z</time>
      </trkpt>
      <trkpt lat="42.12822" lon="9.1485">
        <ele>1229.0</ele>
        <time>2022-09-13T12:50:02Z</time>
      </trkpt>
      <trkpt lat="42.128188" lon="9.14852">
        <ele>1229.4</ele>
        <time>2022-09-13T12:50:08Z</time>
      </trkpt>
      <trkpt lat="42.12813" lon="9.148545">
        <ele>1230.4</ele>
        <time>2022-09-13T12:50:17Z</time>
      </trkpt>
      <trkpt lat="42.128078" lon="9.148568">
        <ele>1231.4</ele>
        <time>2022-09-13T12:50:25Z</time>
      </trkpt>
      <trkpt lat="42.12799" lon="9.148582">
        <ele>1232.8</ele>
        <time>2022-09-13T12:50:38Z</time>
      </trkpt>
      <trkpt lat="42.127778" lon="9.148558">
        <ele>1235.4</ele>
        <time>2022-09-13T12:51:08Z</time>
      </trkpt>
      <trkpt lat="42.127772" lon="9.14856">
        <ele>1235.4</ele>
        <time>2022-09-13T12:51:10Z</time>
      </trkpt>
      <trkpt lat="42.127698" lon="9.148562">
        <ele>1237.2</ele>
        <time>2022-09-13T12:51:25Z</time>
      </trkpt>
      <trkpt lat="42.127632" lon="9.148523">
        <ele>1238.2</ele>
        <time>2022-09-13T12:51:36Z</time>
      </trkpt>
      <trkpt lat="42.12756" lon="9.148478">
        <ele>1239.0</ele>
        <time>2022-09-13T12:51:45Z</time>
      </trkpt>
      <trkpt lat="42.127415" lon="9.148425">
        <ele>1242.0</ele>
        <time>2022-09-13T12:52:10Z</time>
      </trkpt>
      <trkpt lat="42.125955" lon="9.147973">
        <ele>1252.6</ele>
        <time>2022-09-13T12:53:51Z</time>
      </trkpt>
      <trkpt lat="42.125958" lon="9.147843">
        <ele>1252.6</ele>
        <time>2022-09-13T12:53:58Z</time>
      </trkpt>
      <trkpt lat="42.125943" lon="9.147695">
        <ele>1253.4</ele>
        <time>2022-09-13T12:54:06Z</time>
      </trkpt>
      <trkpt lat="42.125953" lon="9.147348">
        <ele>1256.2</ele>
        <time>2022-09-13T12:54:29Z</time>
      </trkpt>
      <trkpt lat="42.125967" lon="9.147297">
        <ele>1256.8</ele>
        <time>2022-09-13T12:54:36Z</time>
      </trkpt>
      <trkpt lat="42.125997" lon="9.147233">
        <ele>1258.4</ele>
        <time>2022-09-13T12:54:51Z</time>
      </trkpt>
      <trkpt lat="42.12607" lon="9.147077">
        <ele>1261.2</ele>
        <time>2022-09-13T12:55:16Z</time>
      </trkpt>
      <trkpt lat="42.126207" lon="9.146895">
        <ele>1264.4</ele>
        <time>2022-09-13T12:55:55Z</time>
      </trkpt>
      <trkpt lat="42.126205" lon="9.146902">
        <ele>1264.4</ele>
        <time>2022-09-13T12:55:56Z</time>
      </trkpt>
      <trkpt lat="42.126203" lon="9.146943">
        <ele>1265.8</ele>
        <time>2022-09-13T12:56:11Z</time>
      </trkpt>
      <trkpt lat="42.12622" lon="9.147057">
        <ele>1268.4</ele>
        <time>2022-09-13T12:56:46Z</time>
      </trkpt>
      <trkpt lat="42.12625" lon="9.147172">
        <ele>1270.4</ele>
        <time>2022-09-13T12:57:08Z</time>
      </trkpt>
      <trkpt lat="42.126275" lon="9.147192">
        <ele>1270.8</ele>
        <time>2022-09-13T12:57:13Z</time>
      </trkpt>
      <trkpt lat="42.126328" lon="9.147237">
        <ele>1271.4</ele>
        <time>2022-09-13T12:57:21Z</time>
      </trkpt>
      <trkpt lat="42.126355" lon="9.147283">
        <ele>1272.0</ele>
        <time>2022-09-13T12:57:25Z</time>
      </trkpt>
      <trkpt lat="42.12406" lon="9.14807">
        <ele>1282.4</ele>
        <time>2022-09-13T13:08:15Z</time>
      </trkpt>
      <trkpt lat="42.121813" lon="9.150222">
        <ele>1280.6</ele>
        <time>2022-09-13T13:08:35Z</time>
      </trkpt>
      <trkpt lat="42.121777" lon="9.15027">
        <ele>1281.0</ele>
        <time>2022-09-13T13:08:37Z</time>
      </trkpt>
      <trkpt lat="42.121742" lon="9.150295">
        <ele>1281.2</ele>
        <time>2022-09-13T13:08:38Z</time>
      </trkpt>
      <trkpt lat="42.121533" lon="9.15052">
        <ele>1281.2</ele>
        <time>2022-09-13T13:08:42Z</time>
      </trkpt>
      <trkpt lat="42.12138" lon="9.150625">
        <ele>1281.4</ele>
        <time>2022-09-13T13:08:44Z</time>
      </trkpt>
      <trkpt lat="42.121202" lon="9.150687">
        <ele>1281.8</ele>
        <time>2022-09-13T13:08:46Z</time>
      </trkpt>
      <trkpt lat="42.120655" lon="9.150822">
        <ele>1282.4</ele>
        <time>2022-09-13T13:09:06Z</time>
      </trkpt>
      <trkpt lat="42.120553" lon="9.150805">
        <ele>1283.0</ele>
        <time>2022-09-13T13:09:17Z</time>
      </trkpt>
      <trkpt lat="42.120555" lon="9.150797">
        <ele>1283.0</ele>
        <time>2022-09-13T13:09:18Z</time>
      </trkpt>
      <trkpt lat="42.120562" lon="9.150747">
        <ele>1283.2</ele>
        <time>2022-09-13T13:09:24Z</time>
      </trkpt>
      <trkpt lat="42.120577" lon="9.150672">
        <ele>1284.0</ele>
        <time>2022-09-13T13:09:31Z</time>
      </trkpt>
      <trkpt lat="42.120583" lon="9.150627">
        <ele>1285.0</ele>
        <time>2022-09-13T13:09:38Z</time>
      </trkpt>
      <trkpt lat="42.120587" lon="9.150608">
        <ele>1285.0</ele>
        <time>2022-09-13T13:09:43Z</time>
      </trkpt>
      <trkpt lat="42.120597" lon="9.150617">
        <ele>1285.2</ele>
        <time>2022-09-13T13:09:49Z</time>
      </trkpt>
      <trkpt lat="42.120607" lon="9.150625">
        <ele>1285.8</ele>
        <time>2022-09-13T13:09:56Z</time>
      </trkpt>
      <trkpt lat="42.120613" lon="9.150615">
        <ele>1286.6</ele>
        <time>2022-09-13T13:10:02Z</time>
      </trkpt>
      <trkpt lat="42.120793" lon="9.15042">
        <ele>1291.6</ele>
        <time>2022-09-13T13:10:45Z</time>
      </trkpt>
      <trkpt lat="42.120832" lon="9.150505">
        <ele>1294.4</ele>
        <time>2022-09-13T13:11:10Z</time>
      </trkpt>
      <trkpt lat="42.120835" lon="9.150545">
        <ele>1296.0</ele>
        <time>2022-09-13T13:11:25Z</time>
      </trkpt>
      <trkpt lat="42.120822" lon="9.150562">
        <ele>1298.0</ele>
        <time>2022-09-13T13:11:44Z</time>
      </trkpt>
      <trkpt lat="42.120812" lon="9.150575">
        <ele>1301.0</ele>
        <time>2022-09-13T13:12:12Z</time>
      </trkpt>
      <trkpt lat="42.120798" lon="9.150587">
        <ele>1307.4</ele>
        <time>2022-09-13T13:13:03Z</time>
      </trkpt>
      <trkpt lat="42.120643" lon="9.150503">
        <ele>1315.4</ele>
        <time>2022-09-13T13:14:12Z</time>
      </trkpt>
      <trkpt lat="42.12056" lon="9.150472">
        <ele>1322.0</ele>
        <time>2022-09-13T13:14:59Z</time>
      </trkpt>
      <trkpt lat="42.12057" lon="9.150562">
        <ele>1326.0</ele>
        <time>2022-09-13T13:15:28Z</time>
      </trkpt>
      <trkpt lat="42.12056" lon="9.150558">
        <ele>1326.4</ele>
        <time>2022-09-13T13:15:29Z</time>
      </trkpt>
      <trkpt lat="42.12025" lon="9.150523">
        <ele>1329.2</ele>
        <time>2022-09-13T13:15:49Z</time>
      </trkpt>
      <trkpt lat="42.120143" lon="9.150508">
        <ele>1330.2</ele>
        <time>2022-09-13T13:15:54Z</time>
      </trkpt>
      <trkpt lat="42.119947" lon="9.150443">
        <ele>1331.2</ele>
        <time>2022-09-13T13:16:05Z</time>
      </trkpt>
      <trkpt lat="42.119785" lon="9.150368">
        <ele>1333.0</ele>
        <time>2022-09-13T13:16:17Z</time>
      </trkpt>
      <trkpt lat="42.119778" lon="9.150368">
        <ele>1333.0</ele>
        <time>2022-09-13T13:16:18Z</time>
      </trkpt>
      <trkpt lat="42.119685" lon="9.150377">
        <ele>1335.8</ele>
        <time>2022-09-13T13:16:38Z</time>
      </trkpt>
      <trkpt lat="42.11961" lon="9.150368">
        <ele>1339.2</ele>
        <time>2022-09-13T13:17:02Z</time>
      </trkpt>
      <trkpt lat="42.119572" lon="9.150363">
        <ele>1340.8</ele>
        <time>2022-09-13T13:17:13Z</time>
      </trkpt>
      <trkpt lat="42.119562" lon="9.150352">
        <ele>1341.2</ele>
        <time>2022-09-13T13:17:15Z</time>
      </trkpt>
      <trkpt lat="42.119418" lon="9.150198">
        <ele>1343.4</ele>
        <time>2022-09-13T13:17:28Z</time>
      </trkpt>
      <trkpt lat="42.119043" lon="9.149898">
        <ele>1346.0</ele>
        <time>2022-09-13T13:17:51Z</time>
      </trkpt>
      <trkpt lat="42.119037" lon="9.149898">
        <ele>1346.4</ele>
        <time>2022-09-13T13:17:52Z</time>
      </trkpt>
      <trkpt lat="42.118943" lon="9.149907">
        <ele>1349.0</ele>
        <time>2022-09-13T13:18:12Z</time>
      </trkpt>
      <trkpt lat="42.118913" lon="9.149917">
        <ele>1350.8</ele>
        <time>2022-09-13T13:18:23Z</time>
      </trkpt>
      <trkpt lat="42.118885" lon="9.149917">
        <ele>1352.4</ele>
        <time>2022-09-13T13:18:34Z</time>
      </trkpt>
      <trkpt lat="42.118868" lon="9.149925">
        <ele>1353.0</ele>
        <time>2022-09-13T13:18:40Z</time>
      </trkpt>
      <trkpt lat="42.118835" lon="9.149923">
        <ele>1356.2</ele>
        <time>2022-09-13T13:18:59Z</time>
      </trkpt>
      <trkpt lat="42.118777" lon="9.149908">
        <ele>1357.0</ele>
        <time>2022-09-13T13:19:10Z</time>
      </trkpt>
      <trkpt lat="42.118768" lon="9.149907">
        <ele>1357.4</ele>
        <time>2022-09-13T13:19:12Z</time>
      </trkpt>
      <trkpt lat="42.118658" lon="9.149893">
        <ele>1358.8</ele>
        <time>2022-09-13T13:19:25Z</time>
      </trkpt>
      <trkpt lat="42.118558" lon="9.149905">
        <ele>1360.6</ele>
        <time>2022-09-13T13:19:38Z</time>
      </trkpt>
      <trkpt lat="42.118517" lon="9.149917">
        <ele>1361.4</ele>
        <time>2022-09-13T13:19:44Z</time>
      </trkpt>
      <trkpt lat="42.11846" lon="9.149925">
        <ele>1362.0</ele>
        <time>2022-09-13T13:19:52Z</time>
      </trkpt>
      <trkpt lat="42.118392" lon="9.149975">
        <ele>1363.6</ele>
        <time>2022-09-13T13:20:05Z</time>
      </trkpt>
      <trkpt lat="42.11831" lon="9.15004">
        <ele>1365.6</ele>
        <time>2022-09-13T13:20:27Z</time>
      </trkpt>
      <trkpt lat="42.118307" lon="9.15004">
        <ele>1365.6</ele>
        <time>2022-09-13T13:20:28Z</time>
      </trkpt>
      <trkpt lat="42.118258" lon="9.149995">
        <ele>1367.4</ele>
        <time>2022-09-13T13:20:41Z</time>
      </trkpt>
      <trkpt lat="42.118162" lon="9.149937">
        <ele>1368.6</ele>
        <time>2022-09-13T13:20:57Z</time>
      </trkpt>
      <trkpt lat="42.11807" lon="9.149815">
        <ele>1370.2</ele>
        <time>2022-09-13T13:21:11Z</time>
      </trkpt>
      <trkpt lat="42.118077" lon="9.1498">
        <ele>1370.2</ele>
        <time>2022-09-13T13:21:12Z</time>
      </trkpt>
      <trkpt lat="42.118135" lon="9.149657">
        <ele>1371.2</ele>
        <time>2022-09-13T13:21:21Z</time>
      </trkpt>
      <trkpt lat="42.118178" lon="9.14958">
        <ele>1371.8</ele>
        <time>2022-09-13T13:21:26Z</time>
      </trkpt>
      <trkpt lat="42.118267" lon="9.149477">
        <ele>1372.8</ele>
        <time>2022-09-13T13:21:34Z</time>
      </trkpt>
      <trkpt lat="42.118357" lon="9.149413">
        <ele>1373.6</ele>
        <time>2022-09-13T13:21:42Z</time>
      </trkpt>
      <trkpt lat="42.118362" lon="9.149407">
        <ele>1374.0</ele>
        <time>2022-09-13T13:21:43Z</time>
      </trkpt>
      <trkpt lat="42.118438" lon="9.149325">
        <ele>1375.0</ele>
        <time>2022-09-13T13:21:57Z</time>
      </trkpt>
      <trkpt lat="42.118537" lon="9.149282">
        <ele>1376.6</ele>
        <time>2022-09-13T13:22:14Z</time>
      </trkpt>
      <trkpt lat="42.118645" lon="9.149267">
        <ele>1378.6</ele>
        <time>2022-09-13T13:22:40Z</time>
      </trkpt>
      <trkpt lat="42.118723" lon="9.149257">
        <ele>1381.4</ele>
        <time>2022-09-13T13:23:09Z</time>
      </trkpt>
      <trkpt lat="42.118788" lon="9.149262">
        <ele>1383.4</ele>
        <time>2022-09-13T13:23:32Z</time>
      </trkpt>
      <trkpt lat="42.118793" lon="9.149268">
        <ele>1383.4</ele>
        <time>2022-09-13T13:23:33Z</time>
      </trkpt>
      <trkpt lat="42.118862" lon="9.14923">
        <ele>1384.6</ele>
        <time>2022-09-13T13:23:42Z</time>
      </trkpt>
      <trkpt lat="42.118955" lon="9.14918">
        <ele>1386.0</ele>
        <time>2022-09-13T13:23:53Z</time>
      </trkpt>
      <trkpt lat="42.11907" lon="9.149142">
        <ele>1387.6</ele>
        <time>2022-09-13T13:24:06Z</time>
      </trkpt>
      <trkpt lat="42.11913" lon="9.149125">
        <ele>1388.4</ele>
        <time>2022-09-13T13:24:13Z</time>
      </trkpt>
      <trkpt lat="42.1192" lon="9.149103">
        <ele>1390.0</ele>
        <time>2022-09-13T13:24:22Z</time>
      </trkpt>
      <trkpt lat="42.119185" lon="9.149105">
        <ele>1390.0</ele>
        <time>2022-09-13T13:24:23Z</time>
      </trkpt>
      <trkpt lat="42.119072" lon="9.149105">
        <ele>1391.0</ele>
        <time>2022-09-13T13:24:30Z</time>
      </trkpt>
      <trkpt lat="42.118965" lon="9.14908">
        <ele>1391.8</ele>
        <time>2022-09-13T13:24:38Z</time>
      </trkpt>
      <trkpt lat="42.118488" lon="9.149067">
        <ele>1395.4</ele>
        <time>2022-09-13T13:25:07Z</time>
      </trkpt>
      <trkpt lat="42.118402" lon="9.149075">
        <ele>1397.2</ele>
        <time>2022-09-13T13:25:18Z</time>
      </trkpt>
      <trkpt lat="42.118203" lon="9.149042">
        <ele>1400.2</ele>
        <time>2022-09-13T13:25:41Z</time>
      </trkpt>
      <trkpt lat="42.118083" lon="9.149083">
        <ele>1402.0</ele>
        <time>2022-09-13T13:25:55Z</time>
      </trkpt>
      <trkpt lat="42.117912" lon="9.149113">
        <ele>1404.0</ele>
        <time>2022-09-13T13:26:17Z</time>
      </trkpt>
      <trkpt lat="42.117865" lon="9.149167">
        <ele>1405.2</ele>
        <time>2022-09-13T13:26:25Z</time>
      </trkpt>
      <trkpt lat="42.117692" lon="9.149407">
        <ele>1410.4</ele>
        <time>2022-09-13T13:27:02Z</time>
      </trkpt>
      <trkpt lat="42.11766" lon="9.149487">
        <ele>1412.0</ele>
        <time>2022-09-13T13:27:15Z</time>
      </trkpt>
      <trkpt lat="42.117588" lon="9.14964">
        <ele>1413.4</ele>
        <time>2022-09-13T13:27:30Z</time>
      </trkpt>
      <trkpt lat="42.117518" lon="9.149802">
        <ele>1416.0</ele>
        <time>2022-09-13T13:27:50Z</time>
      </trkpt>
      <trkpt lat="42.117473" lon="9.14991">
        <ele>1418.4</ele>
        <time>2022-09-13T13:28:06Z</time>
      </trkpt>
      <trkpt lat="42.117308" lon="9.149985">
        <ele>1420.8</ele>
        <time>2022-09-13T13:28:29Z</time>
      </trkpt>
      <trkpt lat="42.116903" lon="9.150342">
        <ele>1424.0</ele>
        <time>2022-09-13T13:28:53Z</time>
      </trkpt>
      <trkpt lat="42.116927" lon="9.1504">
        <ele>1424.2</ele>
        <time>2022-09-13T13:28:56Z</time>
      </trkpt>
      <trkpt lat="42.116952" lon="9.150508">
        <ele>1426.2</ele>
        <time>2022-09-13T13:29:07Z</time>
      </trkpt>
      <trkpt lat="42.11705" lon="9.15082">
        <ele>1429.2</ele>
        <time>2022-09-13T13:29:32Z</time>
      </trkpt>
      <trkpt lat="42.117053" lon="9.150863">
        <ele>1429.4</ele>
        <time>2022-09-13T13:29:36Z</time>
      </trkpt>
      <trkpt lat="42.11702" lon="9.150858">
        <ele>1430.2</ele>
        <time>2022-09-13T13:29:40Z</time>
      </trkpt>
      <trkpt lat="42.116947" lon="9.150798">
        <ele>1431.6</ele>
        <time>2022-09-13T13:29:51Z</time>
      </trkpt>
      <trkpt lat="42.116908" lon="9.150735">
        <ele>1433.2</ele>
        <time>2022-09-13T13:30:00Z</time>
      </trkpt>
      <trkpt lat="42.116857" lon="9.150413">
        <ele>1436.0</ele>
        <time>2022-09-13T13:30:28Z</time>
      </trkpt>
      <trkpt lat="42.116795" lon="9.150288">
        <ele>1438.4</ele>
        <time>2022-09-13T13:30:44Z</time>
      </trkpt>
      <trkpt lat="42.116758" lon="9.150248">
        <ele>1439.2</ele>
        <time>2022-09-13T13:30:53Z</time>
      </trkpt>
      <trkpt lat="42.116695" lon="9.15016">
        <ele>1441.0</ele>
        <time>2022-09-13T13:31:06Z</time>
      </trkpt>
      <trkpt lat="42.116675" lon="9.150097">
        <ele>1442.6</ele>
        <time>2022-09-13T13:31:14Z</time>
      </trkpt>
      <trkpt lat="42.11663" lon="9.14999">
        <ele>1443.8</ele>
        <time>2022-09-13T13:31:25Z</time>
      </trkpt>
      <trkpt lat="42.116628" lon="9.149932">
        <ele>1444.6</ele>
        <time>2022-09-13T13:31:31Z</time>
      </trkpt>
      <trkpt lat="42.116598" lon="9.149865">
        <ele>1445.8</ele>
        <time>2022-09-13T13:31:40Z</time>
      </trkpt>
      <trkpt lat="42.116588" lon="9.149675">
        <ele>1448.2</ele>
        <time>2022-09-13T13:32:01Z</time>
      </trkpt>
      <trkpt lat="42.116667" lon="9.149533">
        <ele>1449.2</ele>
        <time>2022-09-13T13:32:15Z</time>
      </trkpt>
      <trkpt lat="42.116723" lon="9.149495">
        <ele>1449.8</ele>
        <time>2022-09-13T13:32:21Z</time>
      </trkpt>
      <trkpt lat="42.116858" lon="9.149178">
        <ele>1451.6</ele>
        <time>2022-09-13T13:32:43Z</time>
      </trkpt>
      <trkpt lat="42.116885" lon="9.14911">
        <ele>1451.8</ele>
        <time>2022-09-13T13:32:47Z</time>
      </trkpt>
      <trkpt lat="42.116967" lon="9.14909">
        <ele>1452.4</ele>
        <time>2022-09-13T13:32:53Z</time>
      </trkpt>
      <trkpt lat="42.11702" lon="9.148843">
        <ele>1453.6</ele>
        <time>2022-09-13T13:33:08Z</time>
      </trkpt>
      <trkpt lat="42.117027" lon="9.14884">
        <ele>1453.6</ele>
        <time>2022-09-13T13:33:09Z</time>
      </trkpt>
      <trkpt lat="42.117025" lon="9.148827">
        <ele>1454.6</ele>
        <time>2022-09-13T13:33:14Z</time>
      </trkpt>
      <trkpt lat="42.116948" lon="9.14885">
        <ele>1456.2</ele>
        <time>2022-09-13T13:33:25Z</time>
      </trkpt>
      <trkpt lat="42.116945" lon="9.148818">
        <ele>1457.2</ele>
        <time>2022-09-13T13:33:29Z</time>
      </trkpt>
      <trkpt lat="42.116942" lon="9.148795">
        <ele>1457.2</ele>
        <time>2022-09-13T13:33:32Z</time>
      </trkpt>
      <trkpt lat="42.116875" lon="9.1488">
        <ele>1458.6</ele>
        <time>2022-09-13T13:33:42Z</time>
      </trkpt>
      <trkpt lat="42.116837" lon="9.148802">
        <ele>1459.8</ele>
        <time>2022-09-13T13:33:49Z</time>
      </trkpt>
      <trkpt lat="42.116782" lon="9.14878">
        <ele>1461.2</ele>
        <time>2022-09-13T13:34:02Z</time>
      </trkpt>
      <trkpt lat="42.116783" lon="9.148798">
        <ele>1461.2</ele>
        <time>2022-09-13T13:34:03Z</time>
      </trkpt>
      <trkpt lat="42.116772" lon="9.148922">
        <ele>1461.6</ele>
        <time>2022-09-13T13:34:11Z</time>
      </trkpt>
      <trkpt lat="42.116717" lon="9.149132">
        <ele>1463.2</ele>
        <time>2022-09-13T13:34:23Z</time>
      </trkpt>
      <trkpt lat="42.116682" lon="9.14927">
        <ele>1464.2</ele>
        <time>2022-09-13T13:34:30Z</time>
      </trkpt>
      <trkpt lat="42.116662" lon="9.149403">
        <ele>1464.6</ele>
        <time>2022-09-13T13:34:36Z</time>
      </trkpt>
      <trkpt lat="42.116588" lon="9.149783">
        <ele>1468.2</ele>
        <time>2022-09-13T13:34:55Z</time>
      </trkpt>
      <trkpt lat="42.11658" lon="9.149787">
        <ele>1468.6</ele>
        <time>2022-09-13T13:34:57Z</time>
      </trkpt>
      <trkpt lat="42.116473" lon="9.149833">
        <ele>1471.6</ele>
        <time>2022-09-13T13:35:16Z</time>
      </trkpt>
      <trkpt lat="42.116407" lon="9.149862">
        <ele>1473.6</ele>
        <time>2022-09-13T13:35:35Z</time>
      </trkpt>
      <trkpt lat="42.116275" lon="9.149913">
        <ele>1475.0</ele>
        <time>2022-09-13T13:35:53Z</time>
      </trkpt>
      <trkpt lat="42.116267" lon="9.149925">
        <ele>1475.0</ele>
        <time>2022-09-13T13:35:54Z</time>
      </trkpt>
      <trkpt lat="42.116195" lon="9.150028">
        <ele>1475.4</ele>
        <time>2022-09-13T13:36:03Z</time>
      </trkpt>
      <trkpt lat="42.116058" lon="9.150217">
        <ele>1477.6</ele>
        <time>2022-09-13T13:36:20Z</time>
      </trkpt>
      <trkpt lat="42.11598" lon="9.150347">
        <ele>1481.4</ele>
        <time>2022-09-13T13:36:40Z</time>
      </trkpt>
      <trkpt lat="42.115977" lon="9.15035">
        <ele>1481.8</ele>
        <time>2022-09-13T13:36:41Z</time>
      </trkpt>
      <trkpt lat="42.115918" lon="9.150398">
        <ele>1484.0</ele>
        <time>2022-09-13T13:36:55Z</time>
      </trkpt>
      <trkpt lat="42.115798" lon="9.15044">
        <ele>1487.6</ele>
        <time>2022-09-13T13:37:22Z</time>
      </trkpt>
      <trkpt lat="42.11579" lon="9.150448">
        <ele>1487.8</ele>
        <time>2022-09-13T13:37:23Z</time>
      </trkpt>
      <trkpt lat="42.115695" lon="9.150573">
        <ele>1490.0</ele>
        <time>2022-09-13T13:37:36Z</time>
      </trkpt>
      <trkpt lat="42.115622" lon="9.150743">
        <ele>1492.2</ele>
        <time>2022-09-13T13:37:48Z</time>
      </trkpt>
      <trkpt lat="42.11555" lon="9.150877">
        <ele>1493.2</ele>
        <time>2022-09-13T13:37:56Z</time>
      </trkpt>
      <trkpt lat="42.115468" lon="9.151037">
        <ele>1494.4</ele>
        <time>2022-09-13T13:38:06Z</time>
      </trkpt>
      <trkpt lat="42.115462" lon="9.15105">
        <ele>1494.4</ele>
        <time>2022-09-13T13:38:07Z</time>
      </trkpt>
      <trkpt lat="42.115413" lon="9.151113">
        <ele>1494.8</ele>
        <time>2022-09-13T13:38:13Z</time>
      </trkpt>
      <trkpt lat="42.115305" lon="9.151238">
        <ele>1496.4</ele>
        <time>2022-09-13T13:38:26Z</time>
      </trkpt>
      <trkpt lat="42.115213" lon="9.151337">
        <ele>1497.4</ele>
        <time>2022-09-13T13:38:36Z</time>
      </trkpt>
      <trkpt lat="42.115077" lon="9.151492">
        <ele>1499.6</ele>
        <time>2022-09-13T13:38:51Z</time>
      </trkpt>
      <trkpt lat="42.115072" lon="9.151498">
        <ele>1499.6</ele>
        <time>2022-09-13T13:38:52Z</time>
      </trkpt>
      <trkpt lat="42.115028" lon="9.15156">
        <ele>1500.6</ele>
        <time>2022-09-13T13:39:02Z</time>
      </trkpt>
      <trkpt lat="42.114987" lon="9.15161">
        <ele>1501.8</ele>
        <time>2022-09-13T13:39:12Z</time>
      </trkpt>
      <trkpt lat="42.114968" lon="9.151667">
        <ele>1503.4</ele>
        <time>2022-09-13T13:39:21Z</time>
      </trkpt>
      <trkpt lat="42.114955" lon="9.151738">
        <ele>1505.2</ele>
        <time>2022-09-13T13:39:36Z</time>
      </trkpt>
      <trkpt lat="42.114948" lon="9.151745">
        <ele>1505.2</ele>
        <time>2022-09-13T13:39:37Z</time>
      </trkpt>
      <trkpt lat="42.114867" lon="9.151757">
        <ele>1507.0</ele>
        <time>2022-09-13T13:39:47Z</time>
      </trkpt>
      <trkpt lat="42.1148" lon="9.151875">
        <ele>1508.0</ele>
        <time>2022-09-13T13:39:57Z</time>
      </trkpt>
      <trkpt lat="42.114725" lon="9.152022">
        <ele>1509.0</ele>
        <time>2022-09-13T13:40:10Z</time>
      </trkpt>
      <trkpt lat="42.114608" lon="9.152218">
        <ele>1511.2</ele>
        <time>2022-09-13T13:40:26Z</time>
      </trkpt>
      <trkpt lat="42.1146" lon="9.152235">
        <ele>1511.4</ele>
        <time>2022-09-13T13:40:27Z</time>
      </trkpt>
      <trkpt lat="42.114567" lon="9.152323">
        <ele>1512.4</ele>
        <time>2022-09-13T13:40:34Z</time>
      </trkpt>
      <trkpt lat="42.11453" lon="9.152403">
        <ele>1513.0</ele>
        <time>2022-09-13T13:40:43Z</time>
      </trkpt>
      <trkpt lat="42.114522" lon="9.152517">
        <ele>1514.0</ele>
        <time>2022-09-13T13:40:54Z</time>
      </trkpt>
      <trkpt lat="42.114525" lon="9.152625">
        <ele>1515.8</ele>
        <time>2022-09-13T13:41:07Z</time>
      </trkpt>
      <trkpt lat="42.114567" lon="9.15302">
        <ele>1520.0</ele>
        <time>2022-09-13T13:41:45Z</time>
      </trkpt>
      <trkpt lat="42.114572" lon="9.153028">
        <ele>1520.0</ele>
        <time>2022-09-13T13:41:46Z</time>
      </trkpt>
      <trkpt lat="42.114637" lon="9.153113">
        <ele>1521.4</ele>
        <time>2022-09-13T13:41:57Z</time>
      </trkpt>
      <trkpt lat="42.114683" lon="9.153233">
        <ele>1522.0</ele>
        <time>2022-09-13T13:42:07Z</time>
      </trkpt>
      <trkpt lat="42.11472" lon="9.153258">
        <ele>1522.8</ele>
        <time>2022-09-13T13:42:12Z</time>
      </trkpt>
      <trkpt lat="42.11474" lon="9.153228">
        <ele>1523.4</ele>
        <time>2022-09-13T13:42:17Z</time>
      </trkpt>
      <trkpt lat="42.114798" lon="9.153217">
        <ele>1524.4</ele>
        <time>2022-09-13T13:42:27Z</time>
      </trkpt>
      <trkpt lat="42.114823" lon="9.153223">
        <ele>1525.4</ele>
        <time>2022-09-13T13:42:32Z</time>
      </trkpt>
      <trkpt lat="42.114832" lon="9.153268">
        <ele>1525.6</ele>
        <time>2022-09-13T13:42:37Z</time>
      </trkpt>
      <trkpt lat="42.114835" lon="9.153335">
        <ele>1526.6</ele>
        <time>2022-09-13T13:42:46Z</time>
      </trkpt>
      <trkpt lat="42.114842" lon="9.153398">
        <ele>1528.4</ele>
        <time>2022-09-13T13:42:54Z</time>
      </trkpt>
      <trkpt lat="42.114837" lon="9.153443">
        <ele>1529.4</ele>
        <time>2022-09-13T13:42:59Z</time>
      </trkpt>
      <trkpt lat="42.114768" lon="9.153428">
        <ele>1530.6</ele>
        <time>2022-09-13T13:43:09Z</time>
      </trkpt>
      <trkpt lat="42.11469" lon="9.153407">
        <ele>1533.2</ele>
        <time>2022-09-13T13:43:29Z</time>
      </trkpt>
      <trkpt lat="42.114622" lon="9.153387">
        <ele>1534.6</ele>
        <time>2022-09-13T13:43:39Z</time>
      </trkpt>
      <trkpt lat="42.11444" lon="9.15329">
        <ele>1535.8</ele>
        <time>2022-09-13T13:43:49Z</time>
      </trkpt>
      <trkpt lat="42.114418" lon="9.153277">
        <ele>1536.2</ele>
        <time>2022-09-13T13:43:50Z</time>
      </trkpt>
      <trkpt lat="42.11434" lon="9.153297">
        <ele>1537.0</ele>
        <time>2022-09-13T13:43:58Z</time>
      </trkpt>
      <trkpt lat="42.114265" lon="9.15333">
        <ele>1537.8</ele>
        <time>2022-09-13T13:44:08Z</time>
      </trkpt>
      <trkpt lat="42.114248" lon="9.153315">
        <ele>1538.0</ele>
        <time>2022-09-13T13:44:11Z</time>
      </trkpt>
      <trkpt lat="42.114233" lon="9.153267">
        <ele>1538.4</ele>
        <time>2022-09-13T13:44:17Z</time>
      </trkpt>
      <trkpt lat="42.114223" lon="9.153243">
        <ele>1538.8</ele>
        <time>2022-09-13T13:44:21Z</time>
      </trkpt>
      <trkpt lat="42.114135" lon="9.153287">
        <ele>1541.6</ele>
        <time>2022-09-13T13:44:42Z</time>
      </trkpt>
      <trkpt lat="42.11413" lon="9.153292">
        <ele>1541.6</ele>
        <time>2022-09-13T13:44:43Z</time>
      </trkpt>
      <trkpt lat="42.11414" lon="9.153335">
        <ele>1542.4</ele>
        <time>2022-09-13T13:44:50Z</time>
      </trkpt>
      <trkpt lat="42.114198" lon="9.15341">
        <ele>1544.6</ele>
        <time>2022-09-13T13:45:03Z</time>
      </trkpt>
      <trkpt lat="42.114207" lon="9.153457">
        <ele>1546.0</ele>
        <time>2022-09-13T13:45:09Z</time>
      </trkpt>
      <trkpt lat="42.11441" lon="9.153562">
        <ele>1547.2</ele>
        <time>2022-09-13T13:45:33Z</time>
      </trkpt>
      <trkpt lat="42.11454" lon="9.153847">
        <ele>1550.6</ele>
        <time>2022-09-13T13:46:01Z</time>
      </trkpt>
      <trkpt lat="42.11458" lon="9.153927">
        <ele>1551.6</ele>
        <time>2022-09-13T13:46:13Z</time>
      </trkpt>
      <trkpt lat="42.114573" lon="9.153972">
        <ele>1551.8</ele>
        <time>2022-09-13T13:46:17Z</time>
      </trkpt>
      <trkpt lat="42.114548" lon="9.154">
        <ele>1553.0</ele>
        <time>2022-09-13T13:46:21Z</time>
      </trkpt>
      <trkpt lat="42.114498" lon="9.154018">
        <ele>1553.8</ele>
        <time>2022-09-13T13:46:26Z</time>
      </trkpt>
      <trkpt lat="42.114288" lon="9.153998">
        <ele>1559.4</ele>
        <time>2022-09-13T13:47:03Z</time>
      </trkpt>
      <trkpt lat="42.114225" lon="9.154008">
        <ele>1560.4</ele>
        <time>2022-09-13T13:47:08Z</time>
      </trkpt>
      <trkpt lat="42.114242" lon="9.15396">
        <ele>1561.8</ele>
        <time>2022-09-13T13:47:17Z</time>
      </trkpt>
      <trkpt lat="42.114252" lon="9.15389">
        <ele>1563.4</ele>
        <time>2022-09-13T13:47:27Z</time>
      </trkpt>
      <trkpt lat="42.114257" lon="9.15385">
        <ele>1564.2</ele>
        <time>2022-09-13T13:47:31Z</time>
      </trkpt>
      <trkpt lat="42.114228" lon="9.153808">
        <ele>1564.8</ele>
        <time>2022-09-13T13:47:34Z</time>
      </trkpt>
      <trkpt lat="42.114182" lon="9.153782">
        <ele>1565.4</ele>
        <time>2022-09-13T13:47:37Z</time>
      </trkpt>
      <trkpt lat="42.11413" lon="9.153767">
        <ele>1566.0</ele>
        <time>2022-09-13T13:47:40Z</time>
      </trkpt>
      <trkpt lat="42.114095" lon="9.153763">
        <ele>1566.4</ele>
        <time>2022-09-13T13:47:42Z</time>
      </trkpt>
      <trkpt lat="42.114135" lon="9.153782">
        <ele>1566.6</ele>
        <time>2022-09-13T13:47:46Z</time>
      </trkpt>
      <trkpt lat="42.11415" lon="9.153807">
        <ele>1567.0</ele>
        <time>2022-09-13T13:47:48Z</time>
      </trkpt>
      <trkpt lat="42.114177" lon="9.153877">
        <ele>1568.2</ele>
        <time>2022-09-13T13:47:54Z</time>
      </trkpt>
      <trkpt lat="42.114217" lon="9.153918">
        <ele>1569.2</ele>
        <time>2022-09-13T13:48:01Z</time>
      </trkpt>
      <trkpt lat="42.114222" lon="9.15396">
        <ele>1569.6</ele>
        <time>2022-09-13T13:48:04Z</time>
      </trkpt>
      <trkpt lat="42.11421" lon="9.15406">
        <ele>1570.4</ele>
        <time>2022-09-13T13:48:10Z</time>
      </trkpt>
      <trkpt lat="42.114237" lon="9.154138">
        <ele>1571.2</ele>
        <time>2022-09-13T13:48:16Z</time>
      </trkpt>
      <trkpt lat="42.114247" lon="9.154165">
        <ele>1571.6</ele>
        <time>2022-09-13T13:48:18Z</time>
      </trkpt>
      <trkpt lat="42.114317" lon="9.154265">
        <ele>1573.4</ele>
        <time>2022-09-13T13:48:31Z</time>
      </trkpt>
      <trkpt lat="42.114323" lon="9.15439">
        <ele>1575.6</ele>
        <time>2022-09-13T13:48:48Z</time>
      </trkpt>
      <trkpt lat="42.11434" lon="9.154458">
        <ele>1577.4</ele>
        <time>2022-09-13T13:49:11Z</time>
      </trkpt>
      <trkpt lat="42.114342" lon="9.154467">
        <ele>1577.2</ele>
        <time>2022-09-13T13:49:12Z</time>
      </trkpt>
      <trkpt lat="42.114395" lon="9.154615">
        <ele>1577.4</ele>
        <time>2022-09-13T13:49:30Z</time>
      </trkpt>
      <trkpt lat="42.114407" lon="9.15483">
        <ele>1580.4</ele>
        <time>2022-09-13T13:49:43Z</time>
      </trkpt>
      <trkpt lat="42.114398" lon="9.15502">
        <ele>1583.8</ele>
        <time>2022-09-13T13:50:08Z</time>
      </trkpt>
      <trkpt lat="42.114397" lon="9.155038">
        <ele>1584.0</ele>
        <time>2022-09-13T13:50:11Z</time>
      </trkpt>
      <trkpt lat="42.114425" lon="9.155095">
        <ele>1584.4</ele>
        <time>2022-09-13T13:50:20Z</time>
      </trkpt>
      <trkpt lat="42.11446" lon="9.155173">
        <ele>1585.2</ele>
        <time>2022-09-13T13:50:31Z</time>
      </trkpt>
      <trkpt lat="42.114493" lon="9.15521">
        <ele>1586.4</ele>
        <time>2022-09-13T13:50:38Z</time>
      </trkpt>
      <trkpt lat="42.114523" lon="9.15526">
        <ele>1587.6</ele>
        <time>2022-09-13T13:50:47Z</time>
      </trkpt>
      <trkpt lat="42.114553" lon="9.155368">
        <ele>1590.8</ele>
        <time>2022-09-13T13:51:04Z</time>
      </trkpt>
      <trkpt lat="42.114555" lon="9.155445">
        <ele>1592.2</ele>
        <time>2022-09-13T13:51:13Z</time>
      </trkpt>
      <trkpt lat="42.114545" lon="9.155493">
        <ele>1593.4</ele>
        <time>2022-09-13T13:51:18Z</time>
      </trkpt>
      <trkpt lat="42.11457" lon="9.155537">
        <ele>1594.2</ele>
        <time>2022-09-13T13:51:23Z</time>
      </trkpt>
      <trkpt lat="42.114603" lon="9.155582">
        <ele>1593.8</ele>
        <time>2022-09-13T13:51:29Z</time>
      </trkpt>
      <trkpt lat="42.114637" lon="9.15568">
        <ele>1594.0</ele>
        <time>2022-09-13T13:51:39Z</time>
      </trkpt>
      <trkpt lat="42.114665" lon="9.155818">
        <ele>1596.2</ele>
        <time>2022-09-13T13:51:53Z</time>
      </trkpt>
      <trkpt lat="42.114672" lon="9.155922">
        <ele>1598.0</ele>
        <time>2022-09-13T13:52:03Z</time>
      </trkpt>
      <trkpt lat="42.114653" lon="9.156008">
        <ele>1598.8</ele>
        <time>2022-09-13T13:52:10Z</time>
      </trkpt>
      <trkpt lat="42.114627" lon="9.15608">
        <ele>1599.6</ele>
        <time>2022-09-13T13:52:16Z</time>
      </trkpt>
      <trkpt lat="42.114562" lon="9.156192">
        <ele>1602.8</ele>
        <time>2022-09-13T13:52:27Z</time>
      </trkpt>
      <trkpt lat="42.114523" lon="9.15626">
        <ele>1604.2</ele>
        <time>2022-09-13T13:52:33Z</time>
      </trkpt>
      <trkpt lat="42.114503" lon="9.156332">
        <ele>1605.0</ele>
        <time>2022-09-13T13:52:39Z</time>
      </trkpt>
      <trkpt lat="42.11448" lon="9.156445">
        <ele>1605.2</ele>
        <time>2022-09-13T13:52:47Z</time>
      </trkpt>
      <trkpt lat="42.114492" lon="9.156507">
        <ele>1605.6</ele>
        <time>2022-09-13T13:52:53Z</time>
      </trkpt>
      <trkpt lat="42.114468" lon="9.156632">
        <ele>1607.6</ele>
        <time>2022-09-13T13:53:08Z</time>
      </trkpt>
      <trkpt lat="42.114425" lon="9.156668">
        <ele>1609.4</ele>
        <time>2022-09-13T13:53:19Z</time>
      </trkpt>
      <trkpt lat="42.114402" lon="9.156728">
        <ele>1611.8</ele>
        <time>2022-09-13T13:53:31Z</time>
      </trkpt>
      <trkpt lat="42.114373" lon="9.156755">
        <ele>1613.4</ele>
        <time>2022-09-13T13:53:39Z</time>
      </trkpt>
      <trkpt lat="42.114343" lon="9.156775">
        <ele>1614.6</ele>
        <time>2022-09-13T13:54:12Z</time>
      </trkpt>
      <trkpt lat="42.114323" lon="9.15686">
        <ele>1616.4</ele>
        <time>2022-09-13T13:54:21Z</time>
      </trkpt>
      <trkpt lat="42.114282" lon="9.156963">
        <ele>1617.4</ele>
        <time>2022-09-13T13:54:31Z</time>
      </trkpt>
      <trkpt lat="42.114203" lon="9.157055">
        <ele>1619.4</ele>
        <time>2022-09-13T13:54:45Z</time>
      </trkpt>
      <trkpt lat="42.114175" lon="9.157095">
        <ele>1620.0</ele>
        <time>2022-09-13T13:54:50Z</time>
      </trkpt>
      <trkpt lat="42.114157" lon="9.157143">
        <ele>1620.4</ele>
        <time>2022-09-13T13:54:55Z</time>
      </trkpt>
      <trkpt lat="42.114068" lon="9.15722">
        <ele>1620.2</ele>
        <time>2022-09-13T13:55:07Z</time>
      </trkpt>
      <trkpt lat="42.11399" lon="9.157308">
        <ele>1620.4</ele>
        <time>2022-09-13T13:55:17Z</time>
      </trkpt>
      <trkpt lat="42.113865" lon="9.157382">
        <ele>1621.4</ele>
        <time>2022-09-13T13:55:32Z</time>
      </trkpt>
      <trkpt lat="42.113818" lon="9.157442">
        <ele>1621.4</ele>
        <time>2022-09-13T13:55:39Z</time>
      </trkpt>
      <trkpt lat="42.113818" lon="9.15753">
        <ele>1621.2</ele>
        <time>2022-09-13T13:55:47Z</time>
      </trkpt>
      <trkpt lat="42.113875" lon="9.157528">
        <ele>1620.6</ele>
        <time>2022-09-13T13:55:53Z</time>
      </trkpt>
      <trkpt lat="42.113947" lon="9.157533">
        <ele>1620.8</ele>
        <time>2022-09-13T13:56:01Z</time>
      </trkpt>
      <trkpt lat="42.114007" lon="9.157538">
        <ele>1620.0</ele>
        <time>2022-09-13T13:56:07Z</time>
      </trkpt>
      <trkpt lat="42.114072" lon="9.157577">
        <ele>1619.2</ele>
        <time>2022-09-13T13:56:14Z</time>
      </trkpt>
      <trkpt lat="42.11411" lon="9.157623">
        <ele>1619.4</ele>
        <time>2022-09-13T13:56:20Z</time>
      </trkpt>
      <trkpt lat="42.114055" lon="9.15765">
        <ele>1619.6</ele>
        <time>2022-09-13T13:56:27Z</time>
      </trkpt>
      <trkpt lat="42.11399" lon="9.15766">
        <ele>1619.0</ele>
        <time>2022-09-13T13:56:35Z</time>
      </trkpt>
      <trkpt lat="42.113877" lon="9.157672">
        <ele>1617.6</ele>
        <time>2022-09-13T13:56:47Z</time>
      </trkpt>
      <trkpt lat="42.113815" lon="9.157675">
        <ele>1616.6</ele>
        <time>2022-09-13T13:56:54Z</time>
      </trkpt>
      <trkpt lat="42.113753" lon="9.157708">
        <ele>1615.2</ele>
        <time>2022-09-13T13:57:01Z</time>
      </trkpt>
      <trkpt lat="42.113745" lon="9.157715">
        <ele>1614.8</ele>
        <time>2022-09-13T13:57:02Z</time>
      </trkpt>
      <trkpt lat="42.113705" lon="9.157773">
        <ele>1614.0</ele>
        <time>2022-09-13T13:57:09Z</time>
      </trkpt>
      <trkpt lat="42.113655" lon="9.157802">
        <ele>1612.8</ele>
        <time>2022-09-13T13:57:16Z</time>
      </trkpt>
      <trkpt lat="42.113617" lon="9.157803">
        <ele>1612.6</ele>
        <time>2022-09-13T13:57:20Z</time>
      </trkpt>
      <trkpt lat="42.113553" lon="9.15777">
        <ele>1611.4</ele>
        <time>2022-09-13T13:57:27Z</time>
      </trkpt>
      <trkpt lat="42.113407" lon="9.157817">
        <ele>1609.8</ele>
        <time>2022-09-13T13:57:43Z</time>
      </trkpt>
      <trkpt lat="42.1134" lon="9.157822">
        <ele>1609.6</ele>
        <time>2022-09-13T13:57:44Z</time>
      </trkpt>
      <trkpt lat="42.11335" lon="9.15785">
        <ele>1608.8</ele>
        <time>2022-09-13T13:57:52Z</time>
      </trkpt>
      <trkpt lat="42.113278" lon="9.157888">
        <ele>1607.4</ele>
        <time>2022-09-13T13:58:02Z</time>
      </trkpt>
      <trkpt lat="42.113228" lon="9.157905">
        <ele>1606.6</ele>
        <time>2022-09-13T13:58:09Z</time>
      </trkpt>
      <trkpt lat="42.113153" lon="9.157927">
        <ele>1605.4</ele>
        <time>2022-09-13T13:58:20Z</time>
      </trkpt>
      <trkpt lat="42.113148" lon="9.15793">
        <ele>1605.4</ele>
        <time>2022-09-13T13:58:21Z</time>
      </trkpt>
      <trkpt lat="42.113075" lon="9.157952">
        <ele>1604.6</ele>
        <time>2022-09-13T13:58:32Z</time>
      </trkpt>
      <trkpt lat="42.113007" lon="9.157933">
        <ele>1603.8</ele>
        <time>2022-09-13T13:58:40Z</time>
      </trkpt>
      <trkpt lat="42.112972" lon="9.15793">
        <ele>1603.2</ele>
        <time>2022-09-13T13:58:44Z</time>
      </trkpt>
      <trkpt lat="42.112865" lon="9.157958">
        <ele>1601.8</ele>
        <time>2022-09-13T13:58:57Z</time>
      </trkpt>
      <trkpt lat="42.112828" lon="9.157952">
        <ele>1601.2</ele>
        <time>2022-09-13T13:59:02Z</time>
      </trkpt>
      <trkpt lat="42.11278" lon="9.158005">
        <ele>1599.6</ele>
        <time>2022-09-13T13:59:14Z</time>
      </trkpt>
      <trkpt lat="42.112737" lon="9.157982">
        <ele>1598.4</ele>
        <time>2022-09-13T13:59:20Z</time>
      </trkpt>
      <trkpt lat="42.112682" lon="9.15797">
        <ele>1598.0</ele>
        <time>2022-09-13T13:59:27Z</time>
      </trkpt>
      <trkpt lat="42.112653" lon="9.15794">
        <ele>1597.2</ele>
        <time>2022-09-13T13:59:31Z</time>
      </trkpt>
      <trkpt lat="42.112627" lon="9.157907">
        <ele>1596.8</ele>
        <time>2022-09-13T13:59:35Z</time>
      </trkpt>
      <trkpt lat="42.112607" lon="9.157897">
        <ele>1596.2</ele>
        <time>2022-09-13T13:59:39Z</time>
      </trkpt>
      <trkpt lat="42.112497" lon="9.157938">
        <ele>1594.8</ele>
        <time>2022-09-13T13:59:51Z</time>
      </trkpt>
      <trkpt lat="42.112378" lon="9.15801">
        <ele>1592.8</ele>
        <time>2022-09-13T14:00:04Z</time>
      </trkpt>
      <trkpt lat="42.112297" lon="9.15802">
        <ele>1592.0</ele>
        <time>2022-09-13T14:00:12Z</time>
      </trkpt>
      <trkpt lat="42.112262" lon="9.158048">
        <ele>1591.8</ele>
        <time>2022-09-13T14:00:16Z</time>
      </trkpt>
      <trkpt lat="42.11221" lon="9.158077">
        <ele>1590.8</ele>
        <time>2022-09-13T14:00:25Z</time>
      </trkpt>
      <trkpt lat="42.112128" lon="9.158073">
        <ele>1589.2</ele>
        <time>2022-09-13T14:00:35Z</time>
      </trkpt>
      <trkpt lat="42.112082" lon="9.15807">
        <ele>1588.4</ele>
        <time>2022-09-13T14:00:42Z</time>
      </trkpt>
      <trkpt lat="42.112032" lon="9.15807">
        <ele>1587.8</ele>
        <time>2022-09-13T14:00:50Z</time>
      </trkpt>
      <trkpt lat="42.111972" lon="9.158042">
        <ele>1587.4</ele>
        <time>2022-09-13T14:01:00Z</time>
      </trkpt>
      <trkpt lat="42.11187" lon="9.157905">
        <ele>1584.8</ele>
        <time>2022-09-13T14:01:19Z</time>
      </trkpt>
      <trkpt lat="42.11181" lon="9.157797">
        <ele>1583.6</ele>
        <time>2022-09-13T14:01:30Z</time>
      </trkpt>
      <trkpt lat="42.111767" lon="9.157755">
        <ele>1583.2</ele>
        <time>2022-09-13T14:01:36Z</time>
      </trkpt>
      <trkpt lat="42.111703" lon="9.157733">
        <ele>1582.0</ele>
        <time>2022-09-13T14:01:44Z</time>
      </trkpt>
      <trkpt lat="42.111653" lon="9.157717">
        <ele>1580.4</ele>
        <time>2022-09-13T14:01:51Z</time>
      </trkpt>
      <trkpt lat="42.111642" lon="9.157705">
        <ele>1580.2</ele>
        <time>2022-09-13T14:01:53Z</time>
      </trkpt>
      <trkpt lat="42.11154" lon="9.157713">
        <ele>1578.0</ele>
        <time>2022-09-13T14:02:10Z</time>
      </trkpt>
      <trkpt lat="42.111477" lon="9.15775">
        <ele>1576.4</ele>
        <time>2022-09-13T14:02:18Z</time>
      </trkpt>
      <trkpt lat="42.111423" lon="9.157813">
        <ele>1575.2</ele>
        <time>2022-09-13T14:02:26Z</time>
      </trkpt>
      <trkpt lat="42.111417" lon="9.15781">
        <ele>1575.2</ele>
        <time>2022-09-13T14:02:26Z</time>
      </trkpt>
      <trkpt lat="42.111373" lon="9.15774">
        <ele>1574.4</ele>
        <time>2022-09-13T14:02:37Z</time>
      </trkpt>
      <trkpt lat="42.111293" lon="9.157705">
        <ele>1572.0</ele>
        <time>2022-09-13T14:02:51Z</time>
      </trkpt>
      <trkpt lat="42.111197" lon="9.157643">
        <ele>1571.0</ele>
        <time>2022-09-13T14:03:07Z</time>
      </trkpt>
      <trkpt lat="42.111177" lon="9.157657">
        <ele>1570.2</ele>
        <time>2022-09-13T14:03:11Z</time>
      </trkpt>
      <trkpt lat="42.111158" lon="9.157687">
        <ele>1569.6</ele>
        <time>2022-09-13T14:03:16Z</time>
      </trkpt>
      <trkpt lat="42.111152" lon="9.157688">
        <ele>1569.0</ele>
        <time>2022-09-13T14:03:18Z</time>
      </trkpt>
      <trkpt lat="42.111063" lon="9.157615">
        <ele>1567.4</ele>
        <time>2022-09-13T14:03:28Z</time>
      </trkpt>
      <trkpt lat="42.110988" lon="9.157475">
        <ele>1566.2</ele>
        <time>2022-09-13T14:03:39Z</time>
      </trkpt>
      <trkpt lat="42.110863" lon="9.157307">
        <ele>1564.6</ele>
        <time>2022-09-13T14:03:52Z</time>
      </trkpt>
      <trkpt lat="42.110818" lon="9.157218">
        <ele>1564.2</ele>
        <time>2022-09-13T14:03:57Z</time>
      </trkpt>
      <trkpt lat="42.110803" lon="9.157203">
        <ele>1563.8</ele>
        <time>2022-09-13T14:03:59Z</time>
      </trkpt>
      <trkpt lat="42.11068" lon="9.15711">
        <ele>1563.0</ele>
        <time>2022-09-13T14:04:14Z</time>
      </trkpt>
      <trkpt lat="42.110605" lon="9.157057">
        <ele>1562.6</ele>
        <time>2022-09-13T14:04:23Z</time>
      </trkpt>
      <trkpt lat="42.11041" lon="9.15696">
        <ele>1560.8</ele>
        <time>2022-09-13T14:04:42Z</time>
      </trkpt>
      <trkpt lat="42.1104" lon="9.156955">
        <ele>1560.8</ele>
        <time>2022-09-13T14:04:42Z</time>
      </trkpt>
      <trkpt lat="42.110195" lon="9.156763">
        <ele>1558.0</ele>
        <time>2022-09-13T14:05:28Z</time>
      </trkpt>
      <trkpt lat="42.110185" lon="9.156753">
        <ele>1557.8</ele>
        <time>2022-09-13T14:05:29Z</time>
      </trkpt>
      <trkpt lat="42.110087" lon="9.156753">
        <ele>1557.4</ele>
        <time>2022-09-13T14:05:37Z</time>
      </trkpt>
      <trkpt lat="42.10996" lon="9.156772">
        <ele>1556.6</ele>
        <time>2022-09-13T14:05:47Z</time>
      </trkpt>
      <trkpt lat="42.109767" lon="9.156813">
        <ele>1555.0</ele>
        <time>2022-09-13T14:05:59Z</time>
      </trkpt>
      <trkpt lat="42.109632" lon="9.156823">
        <ele>1554.6</ele>
        <time>2022-09-13T14:06:07Z</time>
      </trkpt>
      <trkpt lat="42.10955" lon="9.156848">
        <ele>1554.6</ele>
        <time>2022-09-13T14:06:11Z</time>
      </trkpt>
      <trkpt lat="42.109478" lon="9.156907">
        <ele>1554.4</ele>
        <time>2022-09-13T14:06:15Z</time>
      </trkpt>
      <trkpt lat="42.109347" lon="9.157053">
        <ele>1553.8</ele>
        <time>2022-09-13T14:06:23Z</time>
      </trkpt>
      <trkpt lat="42.109245" lon="9.157177">
        <ele>1553.0</ele>
        <time>2022-09-13T14:06:30Z</time>
      </trkpt>
      <trkpt lat="42.109187" lon="9.157218">
        <ele>1552.4</ele>
        <time>2022-09-13T14:06:37Z</time>
      </trkpt>
      <trkpt lat="42.109133" lon="9.157243">
        <ele>1552.4</ele>
        <time>2022-09-13T14:06:59Z</time>
      </trkpt>
      <trkpt lat="42.109123" lon="9.157198">
        <ele>1552.8</ele>
        <time>2022-09-13T14:07:14Z</time>
      </trkpt>
      <trkpt lat="42.10912" lon="9.157122">
        <ele>1555.4</ele>
        <time>2022-09-13T14:07:25Z</time>
      </trkpt>
      <trkpt lat="42.109113" lon="9.157118">
        <ele>1555.4</ele>
        <time>2022-09-13T14:07:26Z</time>
      </trkpt>
      <trkpt lat="42.109088" lon="9.15709">
        <ele>1557.2</ele>
        <time>2022-09-13T14:07:33Z</time>
      </trkpt>
      <trkpt lat="42.109103" lon="9.157007">
        <ele>1558.2</ele>
        <time>2022-09-13T14:07:39Z</time>
      </trkpt>
      <trkpt lat="42.109167" lon="9.156888">
        <ele>1559.2</ele>
        <time>2022-09-13T14:07:46Z</time>
      </trkpt>
      <trkpt lat="42.109197" lon="9.156872">
        <ele>1559.4</ele>
        <time>2022-09-13T14:07:48Z</time>
      </trkpt>
      <trkpt lat="42.10941" lon="9.15687">
        <ele>1568.4</ele>
        <time>2022-09-13T14:50:29Z</time>
      </trkpt>
      <trkpt lat="42.109215" lon="9.157018">
        <ele>1565.0</ele>
        <time>2022-09-13T14:50:48Z</time>
      </trkpt>
      <trkpt lat="42.109615" lon="9.157298">
        <ele>1562.0</ele>
        <time>2022-09-13T14:51:00Z</time>
      </trkpt>
      <trkpt lat="42.109343" lon="9.157362">
        <ele>1560.8</ele>
        <time>2022-09-13T14:51:10Z</time>
      </trkpt>
      <trkpt lat="42.109118" lon="9.15743">
        <ele>1559.4</ele>
        <time>2022-09-13T14:51:20Z</time>
      </trkpt>
      <trkpt lat="42.109182" lon="9.157382">
        <ele>1559.4</ele>
        <time>2022-09-13T14:51:21Z</time>
      </trkpt>
      <trkpt lat="42.109052" lon="9.157507">
        <ele>1558.8</ele>
        <time>2022-09-13T14:51:25Z</time>
      </trkpt>
      <trkpt lat="42.109003" lon="9.157567">
        <ele>1558.4</ele>
        <time>2022-09-13T14:51:29Z</time>
      </trkpt>
      <trkpt lat="42.108942" lon="9.1577">
        <ele>1557.2</ele>
        <time>2022-09-13T14:51:37Z</time>
      </trkpt>
      <trkpt lat="42.10892" lon="9.157713">
        <ele>1557.2</ele>
        <time>2022-09-13T14:51:39Z</time>
      </trkpt>
      <trkpt lat="42.108708" lon="9.157753">
        <ele>1556.2</ele>
        <time>2022-09-13T14:51:58Z</time>
      </trkpt>
      <trkpt lat="42.108598" lon="9.157783">
        <ele>1555.4</ele>
        <time>2022-09-13T14:52:08Z</time>
      </trkpt>
      <trkpt lat="42.108578" lon="9.157767">
        <ele>1554.4</ele>
        <time>2022-09-13T14:52:22Z</time>
      </trkpt>
      <trkpt lat="42.10864" lon="9.157798">
        <ele>1553.2</ele>
        <time>2022-09-13T14:52:34Z</time>
      </trkpt>
      <trkpt lat="42.108733" lon="9.157877">
        <ele>1553.0</ele>
        <time>2022-09-13T14:52:50Z</time>
      </trkpt>
      <trkpt lat="42.108748" lon="9.157962">
        <ele>1552.8</ele>
        <time>2022-09-13T14:52:59Z</time>
      </trkpt>
      <trkpt lat="42.108742" lon="9.157983">
        <ele>1553.0</ele>
        <time>2022-09-13T14:53:05Z</time>
      </trkpt>
      <trkpt lat="42.10874" lon="9.158002">
        <ele>1553.0</ele>
        <time>2022-09-13T14:53:09Z</time>
      </trkpt>
      <trkpt lat="42.108755" lon="9.158097">
        <ele>1552.0</ele>
        <time>2022-09-13T14:53:20Z</time>
      </trkpt>
      <trkpt lat="42.10878" lon="9.158153">
        <ele>1550.8</ele>
        <time>2022-09-13T14:53:26Z</time>
      </trkpt>
      <trkpt lat="42.108803" lon="9.158183">
        <ele>1550.6</ele>
        <time>2022-09-13T14:53:30Z</time>
      </trkpt>
      <trkpt lat="42.108875" lon="9.158382">
        <ele>1550.6</ele>
        <time>2022-09-13T14:53:47Z</time>
      </trkpt>
      <trkpt lat="42.108935" lon="9.158458">
        <ele>1550.6</ele>
        <time>2022-09-13T14:53:53Z</time>
      </trkpt>
      <trkpt lat="42.109035" lon="9.158555">
        <ele>1550.8</ele>
        <time>2022-09-13T14:54:01Z</time>
      </trkpt>
      <trkpt lat="42.10915" lon="9.15871">
        <ele>1551.2</ele>
        <time>2022-09-13T14:54:12Z</time>
      </trkpt>
      <trkpt lat="42.109132" lon="9.158748">
        <ele>1551.4</ele>
        <time>2022-09-13T14:54:15Z</time>
      </trkpt>
      <trkpt lat="42.10905" lon="9.158858">
        <ele>1551.6</ele>
        <time>2022-09-13T14:54:22Z</time>
      </trkpt>
      <trkpt lat="42.108987" lon="9.158893">
        <ele>1552.0</ele>
        <time>2022-09-13T14:54:26Z</time>
      </trkpt>
      <trkpt lat="42.108887" lon="9.158908">
        <ele>1552.2</ele>
        <time>2022-09-13T14:54:31Z</time>
      </trkpt>
      <trkpt lat="42.108723" lon="9.158937">
        <ele>1552.4</ele>
        <time>2022-09-13T14:54:37Z</time>
      </trkpt>
      <trkpt lat="42.108643" lon="9.158987">
        <ele>1552.4</ele>
        <time>2022-09-13T14:54:40Z</time>
      </trkpt>
      <trkpt lat="42.108765" lon="9.15908">
        <ele>1553.4</ele>
        <time>2022-09-13T14:54:52Z</time>
      </trkpt>
      <trkpt lat="42.109103" lon="9.159348">
        <ele>1553.6</ele>
        <time>2022-09-13T14:55:04Z</time>
      </trkpt>
      <trkpt lat="42.108872" lon="9.159427">
        <ele>1553.6</ele>
        <time>2022-09-13T14:55:15Z</time>
      </trkpt>
      <trkpt lat="42.10844" lon="9.15962">
        <ele>1553.6</ele>
        <time>2022-09-13T14:55:26Z</time>
      </trkpt>
      <trkpt lat="42.10851" lon="9.159903">
        <ele>1554.0</ele>
        <time>2022-09-13T14:55:35Z</time>
      </trkpt>
      <trkpt lat="42.108567" lon="9.160105">
        <ele>1554.2</ele>
        <time>2022-09-13T14:55:45Z</time>
      </trkpt>
      <trkpt lat="42.10861" lon="9.160242">
        <ele>1554.2</ele>
        <time>2022-09-13T14:55:54Z</time>
      </trkpt>
      <trkpt lat="42.108653" lon="9.160335">
        <ele>1554.4</ele>
        <time>2022-09-13T14:56:01Z</time>
      </trkpt>
      <trkpt lat="42.108673" lon="9.160372">
        <ele>1554.6</ele>
        <time>2022-09-13T14:56:04Z</time>
      </trkpt>
      <trkpt lat="42.108303" lon="9.160308">
        <ele>1555.2</ele>
        <time>2022-09-13T14:56:21Z</time>
      </trkpt>
      <trkpt lat="42.108477" lon="9.160413">
        <ele>1555.4</ele>
        <time>2022-09-13T14:56:33Z</time>
      </trkpt>
      <trkpt lat="42.10889" lon="9.16051">
        <ele>1556.4</ele>
        <time>2022-09-13T14:56:45Z</time>
      </trkpt>
      <trkpt lat="42.10833" lon="9.160658">
        <ele>1556.6</ele>
        <time>2022-09-13T14:56:56Z</time>
      </trkpt>
      <trkpt lat="42.108393" lon="9.160727">
        <ele>1556.6</ele>
        <time>2022-09-13T14:56:56Z</time>
      </trkpt>
      <trkpt lat="42.108455" lon="9.160793">
        <ele>1556.6</ele>
        <time>2022-09-13T14:56:58Z</time>
      </trkpt>
      <trkpt lat="42.108628" lon="9.161097">
        <ele>1556.2</ele>
        <time>2022-09-13T14:57:08Z</time>
      </trkpt>
      <trkpt lat="42.1087" lon="9.16118">
        <ele>1556.2</ele>
        <time>2022-09-13T14:57:12Z</time>
      </trkpt>
      <trkpt lat="42.108763" lon="9.161218">
        <ele>1556.2</ele>
        <time>2022-09-13T14:57:15Z</time>
      </trkpt>
      <trkpt lat="42.108882" lon="9.161263">
        <ele>1556.2</ele>
        <time>2022-09-13T14:57:20Z</time>
      </trkpt>
      <trkpt lat="42.109073" lon="9.161325">
        <ele>1555.8</ele>
        <time>2022-09-13T14:57:29Z</time>
      </trkpt>
      <trkpt lat="42.109148" lon="9.161387">
        <ele>1555.8</ele>
        <time>2022-09-13T14:57:33Z</time>
      </trkpt>
      <trkpt lat="42.109183" lon="9.161423">
        <ele>1555.8</ele>
        <time>2022-09-13T14:57:35Z</time>
      </trkpt>
      <trkpt lat="42.109028" lon="9.16146">
        <ele>1556.0</ele>
        <time>2022-09-13T14:57:41Z</time>
      </trkpt>
      <trkpt lat="42.10898" lon="9.16148">
        <ele>1556.2</ele>
        <time>2022-09-13T14:57:43Z</time>
      </trkpt>
      <trkpt lat="42.10886" lon="9.16154">
        <ele>1556.4</ele>
        <time>2022-09-13T14:57:49Z</time>
      </trkpt>
      <trkpt lat="42.108608" lon="9.16159">
        <ele>1557.2</ele>
        <time>2022-09-13T14:57:58Z</time>
      </trkpt>
      <trkpt lat="42.108242" lon="9.161732">
        <ele>1557.8</ele>
        <time>2022-09-13T14:58:16Z</time>
      </trkpt>
      <trkpt lat="42.108145" lon="9.161765">
        <ele>1558.0</ele>
        <time>2022-09-13T14:58:23Z</time>
      </trkpt>
      <trkpt lat="42.108323" lon="9.161863">
        <ele>1558.0</ele>
        <time>2022-09-13T14:58:33Z</time>
      </trkpt>
      <trkpt lat="42.108637" lon="9.162068">
        <ele>1558.6</ele>
        <time>2022-09-13T14:58:55Z</time>
      </trkpt>
      <trkpt lat="42.108815" lon="9.162193">
        <ele>1558.6</ele>
        <time>2022-09-13T14:59:07Z</time>
      </trkpt>
      <trkpt lat="42.108657" lon="9.162222">
        <ele>1558.4</ele>
        <time>2022-09-13T14:59:16Z</time>
      </trkpt>
      <trkpt lat="42.108563" lon="9.16224">
        <ele>1558.4</ele>
        <time>2022-09-13T14:59:21Z</time>
      </trkpt>
      <trkpt lat="42.108498" lon="9.162265">
        <ele>1558.4</ele>
        <time>2022-09-13T14:59:24Z</time>
      </trkpt>
      <trkpt lat="42.108123" lon="9.162607">
        <ele>1559.0</ele>
        <time>2022-09-13T14:59:44Z</time>
      </trkpt>
      <trkpt lat="42.108077" lon="9.162667">
        <ele>1559.0</ele>
        <time>2022-09-13T14:59:47Z</time>
      </trkpt>
      <trkpt lat="42.108012" lon="9.162782">
        <ele>1558.6</ele>
        <time>2022-09-13T14:59:52Z</time>
      </trkpt>
      <trkpt lat="42.108137" lon="9.162882">
        <ele>1558.2</ele>
        <time>2022-09-13T14:59:57Z</time>
      </trkpt>
      <trkpt lat="42.108322" lon="9.163013">
        <ele>1557.8</ele>
        <time>2022-09-13T15:00:04Z</time>
      </trkpt>
      <trkpt lat="42.108362" lon="9.163055">
        <ele>1557.6</ele>
        <time>2022-09-13T15:00:07Z</time>
      </trkpt>
      <trkpt lat="42.108505" lon="9.163212">
        <ele>1558.0</ele>
        <time>2022-09-13T15:00:15Z</time>
      </trkpt>
      <trkpt lat="42.108755" lon="9.16341">
        <ele>1558.4</ele>
        <time>2022-09-13T15:00:27Z</time>
      </trkpt>
      <trkpt lat="42.108973" lon="9.163587">
        <ele>1558.4</ele>
        <time>2022-09-13T15:00:38Z</time>
      </trkpt>
      <trkpt lat="42.109" lon="9.163607">
        <ele>1558.4</ele>
        <time>2022-09-13T15:00:41Z</time>
      </trkpt>
      <trkpt lat="42.109102" lon="9.163732">
        <ele>1558.6</ele>
        <time>2022-09-13T15:00:57Z</time>
      </trkpt>
      <trkpt lat="42.109138" lon="9.163778">
        <ele>1558.6</ele>
        <time>2022-09-13T15:01:02Z</time>
      </trkpt>
      <trkpt lat="42.109187" lon="9.163827">
        <ele>1558.2</ele>
        <time>2022-09-13T15:01:08Z</time>
      </trkpt>
      <trkpt lat="42.109242" lon="9.163887">
        <ele>1557.4</ele>
        <time>2022-09-13T15:01:16Z</time>
      </trkpt>
      <trkpt lat="42.109337" lon="9.163935">
        <ele>1556.2</ele>
        <time>2022-09-13T15:01:29Z</time>
      </trkpt>
      <trkpt lat="42.109355" lon="9.163942">
        <ele>1556.0</ele>
        <time>2022-09-13T15:01:32Z</time>
      </trkpt>
      <trkpt lat="42.109312" lon="9.163995">
        <ele>1555.6</ele>
        <time>2022-09-13T15:01:36Z</time>
      </trkpt>
      <trkpt lat="42.109223" lon="9.164113">
        <ele>1554.8</ele>
        <time>2022-09-13T15:01:44Z</time>
      </trkpt>
      <trkpt lat="42.109105" lon="9.164243">
        <ele>1553.4</ele>
        <time>2022-09-13T15:01:53Z</time>
      </trkpt>
      <trkpt lat="42.108995" lon="9.164345">
        <ele>1552.6</ele>
        <time>2022-09-13T15:02:01Z</time>
      </trkpt>
      <trkpt lat="42.108928" lon="9.164427">
        <ele>1551.8</ele>
        <time>2022-09-13T15:02:07Z</time>
      </trkpt>
      <trkpt lat="42.108857" lon="9.164533">
        <ele>1551.8</ele>
        <time>2022-09-13T15:02:15Z</time>
      </trkpt>
      <trkpt lat="42.108903" lon="9.164558">
        <ele>1551.4</ele>
        <time>2022-09-13T15:02:19Z</time>
      </trkpt>
      <trkpt lat="42.109175" lon="9.164772">
        <ele>1549.2</ele>
        <time>2022-09-13T15:02:44Z</time>
      </trkpt>
      <trkpt lat="42.10921" lon="9.164815">
        <ele>1548.6</ele>
        <time>2022-09-13T15:02:48Z</time>
      </trkpt>
      <trkpt lat="42.109303" lon="9.164992">
        <ele>1547.0</ele>
        <time>2022-09-13T15:03:03Z</time>
      </trkpt>
      <trkpt lat="42.10931" lon="9.165007">
        <ele>1547.0</ele>
        <time>2022-09-13T15:03:04Z</time>
      </trkpt>
      <trkpt lat="42.109135" lon="9.16513">
        <ele>1546.2</ele>
        <time>2022-09-13T15:03:15Z</time>
      </trkpt>
      <trkpt lat="42.109088" lon="9.165165">
        <ele>1546.0</ele>
        <time>2022-09-13T15:03:18Z</time>
      </trkpt>
      <trkpt lat="42.109023" lon="9.165212">
        <ele>1546.0</ele>
        <time>2022-09-13T15:03:22Z</time>
      </trkpt>
      <trkpt lat="42.10897" lon="9.165267">
        <ele>1545.8</ele>
        <time>2022-09-13T15:03:27Z</time>
      </trkpt>
      <trkpt lat="42.108808" lon="9.165503">
        <ele>1545.4</ele>
        <time>2022-09-13T15:03:42Z</time>
      </trkpt>
      <trkpt lat="42.108768" lon="9.165547">
        <ele>1545.4</ele>
        <time>2022-09-13T15:03:45Z</time>
      </trkpt>
      <trkpt lat="42.108948" lon="9.165655">
        <ele>1545.6</ele>
        <time>2022-09-13T15:03:56Z</time>
      </trkpt>
      <trkpt lat="42.10911" lon="9.165737">
        <ele>1546.6</ele>
        <time>2022-09-13T15:04:05Z</time>
      </trkpt>
      <trkpt lat="42.109262" lon="9.16582">
        <ele>1547.2</ele>
        <time>2022-09-13T15:04:15Z</time>
      </trkpt>
      <trkpt lat="42.10943" lon="9.165933">
        <ele>1547.8</ele>
        <time>2022-09-13T15:04:25Z</time>
      </trkpt>
      <trkpt lat="42.109473" lon="9.165972">
        <ele>1548.0</ele>
        <time>2022-09-13T15:04:28Z</time>
      </trkpt>
      <trkpt lat="42.109465" lon="9.166042">
        <ele>1548.2</ele>
        <time>2022-09-13T15:04:32Z</time>
      </trkpt>
      <trkpt lat="42.109472" lon="9.166293">
        <ele>1548.4</ele>
        <time>2022-09-13T15:04:48Z</time>
      </trkpt>
      <trkpt lat="42.109467" lon="9.166578">
        <ele>1548.4</ele>
        <time>2022-09-13T15:05:10Z</time>
      </trkpt>
      <trkpt lat="42.109478" lon="9.16666">
        <ele>1548.6</ele>
        <time>2022-09-13T15:05:17Z</time>
      </trkpt>
      <trkpt lat="42.109475" lon="9.166702">
        <ele>1548.8</ele>
        <time>2022-09-13T15:05:21Z</time>
      </trkpt>
      <trkpt lat="42.109713" lon="9.166835">
        <ele>1549.8</ele>
        <time>2022-09-13T15:05:36Z</time>
      </trkpt>
      <trkpt lat="42.109463" lon="9.166955">
        <ele>1550.0</ele>
        <time>2022-09-13T15:05:47Z</time>
      </trkpt>
      <trkpt lat="42.109633" lon="9.167068">
        <ele>1550.0</ele>
        <time>2022-09-13T15:05:59Z</time>
      </trkpt>
      <trkpt lat="42.109727" lon="9.167263">
        <ele>1550.4</ele>
        <time>2022-09-13T15:06:10Z</time>
      </trkpt>
      <trkpt lat="42.109522" lon="9.167375">
        <ele>1550.4</ele>
        <time>2022-09-13T15:06:17Z</time>
      </trkpt>
      <trkpt lat="42.109353" lon="9.16743">
        <ele>1550.4</ele>
        <time>2022-09-13T15:06:26Z</time>
      </trkpt>
      <trkpt lat="42.108935" lon="9.167537">
        <ele>1550.2</ele>
        <time>2022-09-13T15:06:47Z</time>
      </trkpt>
      <trkpt lat="42.109093" lon="9.167832">
        <ele>1550.6</ele>
        <time>2022-09-13T15:07:02Z</time>
      </trkpt>
      <trkpt lat="42.109148" lon="9.167925">
        <ele>1550.6</ele>
        <time>2022-09-13T15:07:07Z</time>
      </trkpt>
      <trkpt lat="42.109192" lon="9.167997">
        <ele>1550.6</ele>
        <time>2022-09-13T15:07:13Z</time>
      </trkpt>
      <trkpt lat="42.109285" lon="9.168145">
        <ele>1550.6</ele>
        <time>2022-09-13T15:07:26Z</time>
      </trkpt>
      <trkpt lat="42.109295" lon="9.168162">
        <ele>1550.6</ele>
        <time>2022-09-13T15:07:28Z</time>
      </trkpt>
      <trkpt lat="42.109282" lon="9.168183">
        <ele>1550.6</ele>
        <time>2022-09-13T15:07:31Z</time>
      </trkpt>
      <trkpt lat="42.109257" lon="9.168187">
        <ele>1550.6</ele>
        <time>2022-09-13T15:07:33Z</time>
      </trkpt>
      <trkpt lat="42.109055" lon="9.16813">
        <ele>1551.4</ele>
        <time>2022-09-13T15:07:48Z</time>
      </trkpt>
      <trkpt lat="42.109003" lon="9.168127">
        <ele>1551.8</ele>
        <time>2022-09-13T15:07:52Z</time>
      </trkpt>
      <trkpt lat="42.108902" lon="9.168097">
        <ele>1552.2</ele>
        <time>2022-09-13T15:08:00Z</time>
      </trkpt>
      <trkpt lat="42.108888" lon="9.168092">
        <ele>1552.2</ele>
        <time>2022-09-13T15:08:02Z</time>
      </trkpt>
      <trkpt lat="42.108873" lon="9.167922">
        <ele>1553.2</ele>
        <time>2022-09-13T15:08:14Z</time>
      </trkpt>
      <trkpt lat="42.108765" lon="9.167593">
        <ele>1551.0</ele>
        <time>2022-09-13T15:08:45Z</time>
      </trkpt>
      <trkpt lat="42.108738" lon="9.167555">
        <ele>1550.6</ele>
        <time>2022-09-13T15:08:49Z</time>
      </trkpt>
      <trkpt lat="42.108667" lon="9.167527">
        <ele>1550.0</ele>
        <time>2022-09-13T15:08:57Z</time>
      </trkpt>
      <trkpt lat="42.108602" lon="9.167505">
        <ele>1549.4</ele>
        <time>2022-09-13T15:09:10Z</time>
      </trkpt>
      <trkpt lat="42.108558" lon="9.167503">
        <ele>1549.0</ele>
        <time>2022-09-13T15:09:20Z</time>
      </trkpt>
      <trkpt lat="42.108523" lon="9.167512">
        <ele>1547.8</ele>
        <time>2022-09-13T15:09:31Z</time>
      </trkpt>
      <trkpt lat="42.108453" lon="9.16753">
        <ele>1546.6</ele>
        <time>2022-09-13T15:10:08Z</time>
      </trkpt>
      <trkpt lat="42.108452" lon="9.16753">
        <ele>1546.4</ele>
        <time>2022-09-13T15:10:09Z</time>
      </trkpt>
      <trkpt lat="42.108305" lon="9.167455">
        <ele>1544.2</ele>
        <time>2022-09-13T15:10:37Z</time>
      </trkpt>
      <trkpt lat="42.108187" lon="9.167382">
        <ele>1543.4</ele>
        <time>2022-09-13T15:10:44Z</time>
      </trkpt>
      <trkpt lat="42.108062" lon="9.167302">
        <ele>1542.8</ele>
        <time>2022-09-13T15:10:53Z</time>
      </trkpt>
      <trkpt lat="42.108012" lon="9.16731">
        <ele>1542.6</ele>
        <time>2022-09-13T15:10:58Z</time>
      </trkpt>
      <trkpt lat="42.107953" lon="9.167322">
        <ele>1542.4</ele>
        <time>2022-09-13T15:11:05Z</time>
      </trkpt>
      <trkpt lat="42.107898" lon="9.167282">
        <ele>1542.0</ele>
        <time>2022-09-13T15:11:13Z</time>
      </trkpt>
      <trkpt lat="42.107828" lon="9.167208">
        <ele>1541.0</ele>
        <time>2022-09-13T15:11:24Z</time>
      </trkpt>
      <trkpt lat="42.107832" lon="9.167152">
        <ele>1540.6</ele>
        <time>2022-09-13T15:11:29Z</time>
      </trkpt>
      <trkpt lat="42.107815" lon="9.167112">
        <ele>1540.2</ele>
        <time>2022-09-13T15:11:34Z</time>
      </trkpt>
      <trkpt lat="42.10769" lon="9.16714">
        <ele>1538.8</ele>
        <time>2022-09-13T15:11:46Z</time>
      </trkpt>
      <trkpt lat="42.107625" lon="9.167162">
        <ele>1537.8</ele>
        <time>2022-09-13T15:11:54Z</time>
      </trkpt>
      <trkpt lat="42.107402" lon="9.16716">
        <ele>1537.6</ele>
        <time>2022-09-13T15:12:22Z</time>
      </trkpt>
      <trkpt lat="42.107367" lon="9.167162">
        <ele>1537.6</ele>
        <time>2022-09-13T15:12:26Z</time>
      </trkpt>
      <trkpt lat="42.107242" lon="9.167223">
        <ele>1536.4</ele>
        <time>2022-09-13T15:12:37Z</time>
      </trkpt>
      <trkpt lat="42.107205" lon="9.167282">
        <ele>1536.0</ele>
        <time>2022-09-13T15:12:41Z</time>
      </trkpt>
      <trkpt lat="42.107152" lon="9.167422">
        <ele>1534.2</ele>
        <time>2022-09-13T15:12:50Z</time>
      </trkpt>
      <trkpt lat="42.107127" lon="9.167523">
        <ele>1533.4</ele>
        <time>2022-09-13T15:13:09Z</time>
      </trkpt>
      <trkpt lat="42.107033" lon="9.16756">
        <ele>1533.2</ele>
        <time>2022-09-13T15:13:30Z</time>
      </trkpt>
      <trkpt lat="42.106935" lon="9.167522">
        <ele>1531.8</ele>
        <time>2022-09-13T15:13:45Z</time>
      </trkpt>
      <trkpt lat="42.106872" lon="9.167497">
        <ele>1530.8</ele>
        <time>2022-09-13T15:13:53Z</time>
      </trkpt>
      <trkpt lat="42.1067" lon="9.167475">
        <ele>1529.0</ele>
        <time>2022-09-13T15:14:11Z</time>
      </trkpt>
      <trkpt lat="42.106637" lon="9.167417">
        <ele>1528.2</ele>
        <time>2022-09-13T15:14:16Z</time>
      </trkpt>
      <trkpt lat="42.106553" lon="9.167507">
        <ele>1527.8</ele>
        <time>2022-09-13T15:14:23Z</time>
      </trkpt>
      <trkpt lat="42.106515" lon="9.1675">
        <ele>1527.6</ele>
        <time>2022-09-13T15:14:26Z</time>
      </trkpt>
      <trkpt lat="42.106393" lon="9.167458">
        <ele>1526.6</ele>
        <time>2022-09-13T15:14:37Z</time>
      </trkpt>
      <trkpt lat="42.106377" lon="9.1675">
        <ele>1526.0</ele>
        <time>2022-09-13T15:14:41Z</time>
      </trkpt>
      <trkpt lat="42.106382" lon="9.16755">
        <ele>1525.8</ele>
        <time>2022-09-13T15:14:45Z</time>
      </trkpt>
      <trkpt lat="42.106398" lon="9.16758">
        <ele>1525.6</ele>
        <time>2022-09-13T15:14:48Z</time>
      </trkpt>
      <trkpt lat="42.106408" lon="9.167697">
        <ele>1524.0</ele>
        <time>2022-09-13T15:14:56Z</time>
      </trkpt>
      <trkpt lat="42.106375" lon="9.167758">
        <ele>1523.6</ele>
        <time>2022-09-13T15:15:01Z</time>
      </trkpt>
      <trkpt lat="42.106333" lon="9.167803">
        <ele>1522.6</ele>
        <time>2022-09-13T15:15:07Z</time>
      </trkpt>
      <trkpt lat="42.10627" lon="9.167853">
        <ele>1521.8</ele>
        <time>2022-09-13T15:15:14Z</time>
      </trkpt>
      <trkpt lat="42.106268" lon="9.167895">
        <ele>1521.2</ele>
        <time>2022-09-13T15:15:17Z</time>
      </trkpt>
      <trkpt lat="42.1063" lon="9.168055">
        <ele>1518.6</ele>
        <time>2022-09-13T15:15:31Z</time>
      </trkpt>
      <trkpt lat="42.106295" lon="9.168068">
        <ele>1518.6</ele>
        <time>2022-09-13T15:15:32Z</time>
      </trkpt>
      <trkpt lat="42.106228" lon="9.168157">
        <ele>1517.8</ele>
        <time>2022-09-13T15:15:40Z</time>
      </trkpt>
      <trkpt lat="42.106088" lon="9.16836">
        <ele>1517.8</ele>
        <time>2022-09-13T15:15:56Z</time>
      </trkpt>
      <trkpt lat="42.106047" lon="9.168458">
        <ele>1517.2</ele>
        <time>2022-09-13T15:16:03Z</time>
      </trkpt>
      <trkpt lat="42.10601" lon="9.168563">
        <ele>1516.4</ele>
        <time>2022-09-13T15:16:09Z</time>
      </trkpt>
      <trkpt lat="42.105978" lon="9.16862">
        <ele>1515.6</ele>
        <time>2022-09-13T15:16:14Z</time>
      </trkpt>
      <trkpt lat="42.105958" lon="9.168705">
        <ele>1514.4</ele>
        <time>2022-09-13T15:16:23Z</time>
      </trkpt>
      <trkpt lat="42.105955" lon="9.168857">
        <ele>1512.8</ele>
        <time>2022-09-13T15:16:37Z</time>
      </trkpt>
      <trkpt lat="42.105938" lon="9.16885">
        <ele>1512.4</ele>
        <time>2022-09-13T15:16:41Z</time>
      </trkpt>
      <trkpt lat="42.105927" lon="9.168862">
        <ele>1512.2</ele>
        <time>2022-09-13T15:16:45Z</time>
      </trkpt>
      <trkpt lat="42.105902" lon="9.168963">
        <ele>1512.2</ele>
        <time>2022-09-13T15:16:56Z</time>
      </trkpt>
      <trkpt lat="42.105893" lon="9.168968">
        <ele>1512.0</ele>
        <time>2022-09-13T15:16:58Z</time>
      </trkpt>
      <trkpt lat="42.105867" lon="9.169005">
        <ele>1511.6</ele>
        <time>2022-09-13T15:17:01Z</time>
      </trkpt>
      <trkpt lat="42.105813" lon="9.169082">
        <ele>1511.4</ele>
        <time>2022-09-13T15:17:06Z</time>
      </trkpt>
      <trkpt lat="42.10575" lon="9.169235">
        <ele>1510.6</ele>
        <time>2022-09-13T15:17:14Z</time>
      </trkpt>
      <trkpt lat="42.10568" lon="9.169517">
        <ele>1510.6</ele>
        <time>2022-09-13T15:17:29Z</time>
      </trkpt>
      <trkpt lat="42.105662" lon="9.169545">
        <ele>1511.0</ele>
        <time>2022-09-13T15:17:32Z</time>
      </trkpt>
      <trkpt lat="42.105618" lon="9.169542">
        <ele>1511.0</ele>
        <time>2022-09-13T15:17:35Z</time>
      </trkpt>
      <trkpt lat="42.10562" lon="9.169568">
        <ele>1511.2</ele>
        <time>2022-09-13T15:17:37Z</time>
      </trkpt>
      <trkpt lat="42.105588" lon="9.169593">
        <ele>1512.0</ele>
        <time>2022-09-13T15:17:41Z</time>
      </trkpt>
      <trkpt lat="42.105573" lon="9.16962">
        <ele>1512.2</ele>
        <time>2022-09-13T15:17:44Z</time>
      </trkpt>
      <trkpt lat="42.105545" lon="9.169653">
        <ele>1512.8</ele>
        <time>2022-09-13T15:17:50Z</time>
      </trkpt>
      <trkpt lat="42.10553" lon="9.169682">
        <ele>1513.0</ele>
        <time>2022-09-13T15:17:54Z</time>
      </trkpt>
      <trkpt lat="42.10554" lon="9.169715">
        <ele>1513.2</ele>
        <time>2022-09-13T15:17:58Z</time>
      </trkpt>
      <trkpt lat="42.105578" lon="9.169802">
        <ele>1514.0</ele>
        <time>2022-09-13T15:18:08Z</time>
      </trkpt>
      <trkpt lat="42.105595" lon="9.16985">
        <ele>1514.6</ele>
        <time>2022-09-13T15:18:14Z</time>
      </trkpt>
      <trkpt lat="42.105547" lon="9.170082">
        <ele>1516.2</ele>
        <time>2022-09-13T15:18:28Z</time>
      </trkpt>
      <trkpt lat="42.105458" lon="9.17024">
        <ele>1517.6</ele>
        <time>2022-09-13T15:18:37Z</time>
      </trkpt>
      <trkpt lat="42.105395" lon="9.170358">
        <ele>1518.2</ele>
        <time>2022-09-13T15:18:43Z</time>
      </trkpt>
      <trkpt lat="42.105315" lon="9.170467">
        <ele>1519.2</ele>
        <time>2022-09-13T15:18:49Z</time>
      </trkpt>
      <trkpt lat="42.105212" lon="9.17059">
        <ele>1519.8</ele>
        <time>2022-09-13T15:18:57Z</time>
      </trkpt>
      <trkpt lat="42.105187" lon="9.1706">
        <ele>1520.0</ele>
        <time>2022-09-13T15:19:00Z</time>
      </trkpt>
      <trkpt lat="42.105137" lon="9.170623">
        <ele>1520.0</ele>
        <time>2022-09-13T15:19:04Z</time>
      </trkpt>
      <trkpt lat="42.105067" lon="9.170682">
        <ele>1520.4</ele>
        <time>2022-09-13T15:19:10Z</time>
      </trkpt>
      <trkpt lat="42.104977" lon="9.170777">
        <ele>1521.4</ele>
        <time>2022-09-13T15:19:18Z</time>
      </trkpt>
      <trkpt lat="42.104873" lon="9.170865">
        <ele>1521.8</ele>
        <time>2022-09-13T15:19:27Z</time>
      </trkpt>
      <trkpt lat="42.103387" lon="9.171818">
        <ele>1521.4</ele>
        <time>2022-09-13T15:21:53Z</time>
      </trkpt>
      <trkpt lat="42.103363" lon="9.171862">
        <ele>1521.2</ele>
        <time>2022-09-13T15:21:57Z</time>
      </trkpt>
      <trkpt lat="42.103353" lon="9.171885">
        <ele>1521.0</ele>
        <time>2022-09-13T15:21:59Z</time>
      </trkpt>
      <trkpt lat="42.103337" lon="9.172">
        <ele>1520.8</ele>
        <time>2022-09-13T15:22:10Z</time>
      </trkpt>
      <trkpt lat="42.103262" lon="9.172132">
        <ele>1520.4</ele>
        <time>2022-09-13T15:22:31Z</time>
      </trkpt>
      <trkpt lat="42.103262" lon="9.172138">
        <ele>1520.0</ele>
        <time>2022-09-13T15:22:33Z</time>
      </trkpt>
      <trkpt lat="42.10326" lon="9.172207">
        <ele>1519.8</ele>
        <time>2022-09-13T15:22:43Z</time>
      </trkpt>
      <trkpt lat="42.103267" lon="9.172265">
        <ele>1520.0</ele>
        <time>2022-09-13T15:22:52Z</time>
      </trkpt>
      <trkpt lat="42.1033" lon="9.172355">
        <ele>1520.2</ele>
        <time>2022-09-13T15:23:08Z</time>
      </trkpt>
      <trkpt lat="42.103057" lon="9.172478">
        <ele>1521.2</ele>
        <time>2022-09-13T15:23:34Z</time>
      </trkpt>
      <trkpt lat="42.102878" lon="9.172517">
        <ele>1521.6</ele>
        <time>2022-09-13T15:23:55Z</time>
      </trkpt>
      <trkpt lat="42.102837" lon="9.172523">
        <ele>1521.6</ele>
        <time>2022-09-13T15:24:00Z</time>
      </trkpt>
      <trkpt lat="42.102788" lon="9.172502">
        <ele>1521.6</ele>
        <time>2022-09-13T15:24:06Z</time>
      </trkpt>
      <trkpt lat="42.102758" lon="9.172475">
        <ele>1521.6</ele>
        <time>2022-09-13T15:24:10Z</time>
      </trkpt>
      <trkpt lat="42.102665" lon="9.172325">
        <ele>1521.8</ele>
        <time>2022-09-13T15:24:26Z</time>
      </trkpt>
      <trkpt lat="42.102595" lon="9.172262">
        <ele>1522.0</ele>
        <time>2022-09-13T15:24:36Z</time>
      </trkpt>
      <trkpt lat="42.102563" lon="9.172222">
        <ele>1522.2</ele>
        <time>2022-09-13T15:24:41Z</time>
      </trkpt>
      <trkpt lat="42.102502" lon="9.17208">
        <ele>1522.6</ele>
        <time>2022-09-13T15:24:53Z</time>
      </trkpt>
      <trkpt lat="42.102497" lon="9.172065">
        <ele>1522.8</ele>
        <time>2022-09-13T15:24:54Z</time>
      </trkpt>
      <trkpt lat="42.102537" lon="9.171925">
        <ele>1523.0</ele>
        <time>2022-09-13T15:25:03Z</time>
      </trkpt>
      <trkpt lat="42.102577" lon="9.171783">
        <ele>1523.6</ele>
        <time>2022-09-13T15:25:12Z</time>
      </trkpt>
      <trkpt lat="42.102632" lon="9.171598">
        <ele>1524.2</ele>
        <time>2022-09-13T15:25:22Z</time>
      </trkpt>
      <trkpt lat="42.102703" lon="9.171293">
        <ele>1525.2</ele>
        <time>2022-09-13T15:25:39Z</time>
      </trkpt>
      <trkpt lat="42.102622" lon="9.171175">
        <ele>1526.0</ele>
        <time>2022-09-13T15:25:48Z</time>
      </trkpt>
      <trkpt lat="42.102577" lon="9.171105">
        <ele>1526.2</ele>
        <time>2022-09-13T15:25:53Z</time>
      </trkpt>
      <trkpt lat="42.102572" lon="9.171088">
        <ele>1526.2</ele>
        <time>2022-09-13T15:25:55Z</time>
      </trkpt>
      <trkpt lat="42.102595" lon="9.17102">
        <ele>1526.4</ele>
        <time>2022-09-13T15:26:00Z</time>
      </trkpt>
      <trkpt lat="42.102507" lon="9.170765">
        <ele>1527.2</ele>
        <time>2022-09-13T15:26:20Z</time>
      </trkpt>
      <trkpt lat="42.10251" lon="9.170727">
        <ele>1527.6</ele>
        <time>2022-09-13T15:26:24Z</time>
      </trkpt>
      <trkpt lat="42.102555" lon="9.170668">
        <ele>1528.6</ele>
        <time>2022-09-13T15:26:33Z</time>
      </trkpt>
      <trkpt lat="42.102558" lon="9.170592">
        <ele>1529.6</ele>
        <time>2022-09-13T15:26:46Z</time>
      </trkpt>
      <trkpt lat="42.10256" lon="9.17059">
        <ele>1529.8</ele>
        <time>2022-09-13T15:26:47Z</time>
      </trkpt>
      <trkpt lat="42.102588" lon="9.170578">
        <ele>1531.6</ele>
        <time>2022-09-13T15:27:08Z</time>
      </trkpt>
      <trkpt lat="42.102613" lon="9.170618">
        <ele>1534.0</ele>
        <time>2022-09-13T15:27:45Z</time>
      </trkpt>
      <trkpt lat="42.102632" lon="9.170642">
        <ele>1534.0</ele>
        <time>2022-09-13T15:27:59Z</time>
      </trkpt>
      <trkpt lat="42.102675" lon="9.170733">
        <ele>1537.4</ele>
        <time>2022-09-13T15:28:33Z</time>
      </trkpt>
      <trkpt lat="42.102678" lon="9.170738">
        <ele>1537.4</ele>
        <time>2022-09-13T15:28:34Z</time>
      </trkpt>
      <trkpt lat="42.102708" lon="9.170765">
        <ele>1538.0</ele>
        <time>2022-09-13T15:29:05Z</time>
      </trkpt>
      <trkpt lat="42.1027" lon="9.170733">
        <ele>1540.8</ele>
        <time>2022-09-13T15:30:01Z</time>
      </trkpt>
      <trkpt lat="42.102797" lon="9.170725">
        <ele>1540.4</ele>
        <time>2022-09-13T15:30:43Z</time>
      </trkpt>
      <trkpt lat="42.103828" lon="9.167785">
        <ele>1541.8</ele>
        <time>2022-09-13T15:31:17Z</time>
      </trkpt>
      <trkpt lat="42.103858" lon="9.167747">
        <ele>1541.8</ele>
        <time>2022-09-13T15:31:19Z</time>
      </trkpt>
      <trkpt lat="42.104053" lon="9.167505">
        <ele>1542.2</ele>
        <time>2022-09-13T15:31:23Z</time>
      </trkpt>
      <trkpt lat="42.10441" lon="9.166952">
        <ele>1543.0</ele>
        <time>2022-09-13T15:31:31Z</time>
      </trkpt>
      <trkpt lat="42.104502" lon="9.166817">
        <ele>1543.4</ele>
        <time>2022-09-13T15:31:39Z</time>
      </trkpt>
      <trkpt lat="42.104535" lon="9.166757">
        <ele>1543.8</ele>
        <time>2022-09-13T15:31:46Z</time>
      </trkpt>
      <trkpt lat="42.10458" lon="9.166718">
        <ele>1543.8</ele>
        <time>2022-09-13T15:31:53Z</time>
      </trkpt>
      <trkpt lat="42.104643" lon="9.166667">
        <ele>1544.6</ele>
        <time>2022-09-13T15:32:05Z</time>
      </trkpt>
      <trkpt lat="42.104715" lon="9.16659">
        <ele>1546.4</ele>
        <time>2022-09-13T15:32:22Z</time>
      </trkpt>
      <trkpt lat="42.104767" lon="9.166508">
        <ele>1547.0</ele>
        <time>2022-09-13T15:32:41Z</time>
      </trkpt>
      <trkpt lat="42.104793" lon="9.166502">
        <ele>1547.4</ele>
        <time>2022-09-13T15:32:50Z</time>
      </trkpt>
      <trkpt lat="42.104788" lon="9.166502">
        <ele>1547.4</ele>
        <time>2022-09-13T15:32:51Z</time>
      </trkpt>
      <trkpt lat="42.104685" lon="9.166488">
        <ele>1549.6</ele>
        <time>2022-09-13T15:33:14Z</time>
      </trkpt>
      <trkpt lat="42.104252" lon="9.1671">
        <ele>1549.8</ele>
        <time>2022-09-13T15:34:56Z</time>
      </trkpt>
      <trkpt lat="42.104123" lon="9.167215">
        <ele>1549.6</ele>
        <time>2022-09-13T15:35:36Z</time>
      </trkpt>
      <trkpt lat="42.104152" lon="9.166822">
        <ele>1549.4</ele>
        <time>2022-09-13T15:35:56Z</time>
      </trkpt>
      <trkpt lat="42.104132" lon="9.166617">
        <ele>1549.4</ele>
        <time>2022-09-13T15:36:01Z</time>
      </trkpt>
      <trkpt lat="42.104103" lon="9.166468">
        <ele>1549.4</ele>
        <time>2022-09-13T15:36:05Z</time>
      </trkpt>
      <trkpt lat="42.10405" lon="9.166267">
        <ele>1549.4</ele>
        <time>2022-09-13T15:36:11Z</time>
      </trkpt>
      <trkpt lat="42.104018" lon="9.166182">
        <ele>1549.4</ele>
        <time>2022-09-13T15:36:14Z</time>
      </trkpt>
      <trkpt lat="42.10395" lon="9.166002">
        <ele>1549.2</ele>
        <time>2022-09-13T15:36:22Z</time>
      </trkpt>
      <trkpt lat="42.103815" lon="9.165942">
        <ele>1548.0</ele>
        <time>2022-09-13T15:36:36Z</time>
      </trkpt>
      <trkpt lat="42.103765" lon="9.165913">
        <ele>1547.4</ele>
        <time>2022-09-13T15:36:42Z</time>
      </trkpt>
      <trkpt lat="42.103672" lon="9.165845">
        <ele>1547.0</ele>
        <time>2022-09-13T15:36:54Z</time>
      </trkpt>
      <trkpt lat="42.103598" lon="9.165797">
        <ele>1546.6</ele>
        <time>2022-09-13T15:37:03Z</time>
      </trkpt>
      <trkpt lat="42.103542" lon="9.165712">
        <ele>1546.4</ele>
        <time>2022-09-13T15:37:12Z</time>
      </trkpt>
      <trkpt lat="42.103458" lon="9.165615">
        <ele>1546.0</ele>
        <time>2022-09-13T15:37:22Z</time>
      </trkpt>
      <trkpt lat="42.103285" lon="9.165398">
        <ele>1545.2</ele>
        <time>2022-09-13T15:37:41Z</time>
      </trkpt>
      <trkpt lat="42.103152" lon="9.165262">
        <ele>1545.4</ele>
        <time>2022-09-13T15:37:56Z</time>
      </trkpt>
      <trkpt lat="42.103123" lon="9.165265">
        <ele>1545.4</ele>
        <time>2022-09-13T15:38:01Z</time>
      </trkpt>
      <trkpt lat="42.1031" lon="9.165273">
        <ele>1545.4</ele>
        <time>2022-09-13T15:38:08Z</time>
      </trkpt>
      <trkpt lat="42.10307" lon="9.165293">
        <ele>1545.4</ele>
        <time>2022-09-13T15:38:18Z</time>
      </trkpt>
      <trkpt lat="42.10304" lon="9.165333">
        <ele>1545.8</ele>
        <time>2022-09-13T15:38:26Z</time>
      </trkpt>
      <trkpt lat="42.103017" lon="9.16537">
        <ele>1546.4</ele>
        <time>2022-09-13T15:38:35Z</time>
      </trkpt>
      <trkpt lat="42.103003" lon="9.16538">
        <ele>1546.8</ele>
        <time>2022-09-13T15:38:40Z</time>
      </trkpt>
      <trkpt lat="42.103005" lon="9.165378">
        <ele>1547.0</ele>
        <time>2022-09-13T15:38:42Z</time>
      </trkpt>
      <trkpt lat="42.102997" lon="9.165398">
        <ele>1547.4</ele>
        <time>2022-09-13T15:38:46Z</time>
      </trkpt>
      <trkpt lat="42.102955" lon="9.165432">
        <ele>1548.6</ele>
        <time>2022-09-13T15:38:54Z</time>
      </trkpt>
      <trkpt lat="42.102932" lon="9.165445">
        <ele>1549.0</ele>
        <time>2022-09-13T15:38:58Z</time>
      </trkpt>
      <trkpt lat="42.102872" lon="9.165412">
        <ele>1550.0</ele>
        <time>2022-09-13T15:39:06Z</time>
      </trkpt>
      <trkpt lat="42.102855" lon="9.165417">
        <ele>1550.2</ele>
        <time>2022-09-13T15:39:10Z</time>
      </trkpt>
      <trkpt lat="42.102772" lon="9.165447">
        <ele>1552.2</ele>
        <time>2022-09-13T15:39:25Z</time>
      </trkpt>
      <trkpt lat="42.102772" lon="9.165435">
        <ele>1552.2</ele>
        <time>2022-09-13T15:39:26Z</time>
      </trkpt>
      <trkpt lat="42.102773" lon="9.165392">
        <ele>1552.8</ele>
        <time>2022-09-13T15:39:30Z</time>
      </trkpt>
      <trkpt lat="42.102735" lon="9.165273">
        <ele>1554.4</ele>
        <time>2022-09-13T15:39:41Z</time>
      </trkpt>
      <trkpt lat="42.102675" lon="9.165173">
        <ele>1556.4</ele>
        <time>2022-09-13T15:39:55Z</time>
      </trkpt>
      <trkpt lat="42.102652" lon="9.165123">
        <ele>1556.6</ele>
        <time>2022-09-13T15:40:02Z</time>
      </trkpt>
      <trkpt lat="42.102635" lon="9.165008">
        <ele>1558.2</ele>
        <time>2022-09-13T15:40:22Z</time>
      </trkpt>
      <trkpt lat="42.102607" lon="9.164957">
        <ele>1558.8</ele>
        <time>2022-09-13T15:40:40Z</time>
      </trkpt>
      <trkpt lat="42.102562" lon="9.164942">
        <ele>1558.0</ele>
        <time>2022-09-13T15:40:55Z</time>
      </trkpt>
      <trkpt lat="42.102553" lon="9.164928">
        <ele>1557.8</ele>
        <time>2022-09-13T15:40:58Z</time>
      </trkpt>
      <trkpt lat="42.102403" lon="9.164723">
        <ele>1557.6</ele>
        <time>2022-09-13T15:41:12Z</time>
      </trkpt>
      <trkpt lat="42.102332" lon="9.164512">
        <ele>1557.2</ele>
        <time>2022-09-13T15:41:23Z</time>
      </trkpt>
      <trkpt lat="42.102278" lon="9.164305">
        <ele>1556.6</ele>
        <time>2022-09-13T15:41:33Z</time>
      </trkpt>
      <trkpt lat="42.102267" lon="9.16423">
        <ele>1556.4</ele>
        <time>2022-09-13T15:41:37Z</time>
      </trkpt>
      <trkpt lat="42.102165" lon="9.164027">
        <ele>1554.6</ele>
        <time>2022-09-13T15:41:58Z</time>
      </trkpt>
      <trkpt lat="42.102187" lon="9.163948">
        <ele>1553.2</ele>
        <time>2022-09-13T15:42:08Z</time>
      </trkpt>
      <trkpt lat="42.10218" lon="9.163865">
        <ele>1552.2</ele>
        <time>2022-09-13T15:42:23Z</time>
      </trkpt>
      <trkpt lat="42.102175" lon="9.163803">
        <ele>1551.4</ele>
        <time>2022-09-13T15:42:37Z</time>
      </trkpt>
      <trkpt lat="42.102163" lon="9.163742">
        <ele>1550.4</ele>
        <time>2022-09-13T15:42:46Z</time>
      </trkpt>
      <trkpt lat="42.102167" lon="9.163722">
        <ele>1550.2</ele>
        <time>2022-09-13T15:42:49Z</time>
      </trkpt>
      <trkpt lat="42.102215" lon="9.163578">
        <ele>1550.0</ele>
        <time>2022-09-13T15:42:58Z</time>
      </trkpt>
      <trkpt lat="42.102238" lon="9.1635">
        <ele>1549.8</ele>
        <time>2022-09-13T15:43:02Z</time>
      </trkpt>
      <trkpt lat="42.102242" lon="9.163458">
        <ele>1549.8</ele>
        <time>2022-09-13T15:43:03Z</time>
      </trkpt>
      <trkpt lat="42.102232" lon="9.163393">
        <ele>1549.6</ele>
        <time>2022-09-13T15:43:06Z</time>
      </trkpt>
      <trkpt lat="42.102213" lon="9.163268">
        <ele>1549.4</ele>
        <time>2022-09-13T15:43:14Z</time>
      </trkpt>
      <trkpt lat="42.102203" lon="9.163165">
        <ele>1549.2</ele>
        <time>2022-09-13T15:43:19Z</time>
      </trkpt>
      <trkpt lat="42.102175" lon="9.163007">
        <ele>1549.8</ele>
        <time>2022-09-13T15:43:27Z</time>
      </trkpt>
      <trkpt lat="42.10214" lon="9.1629">
        <ele>1549.8</ele>
        <time>2022-09-13T15:43:36Z</time>
      </trkpt>
      <trkpt lat="42.102105" lon="9.162793">
        <ele>1549.4</ele>
        <time>2022-09-13T15:43:46Z</time>
      </trkpt>
      <trkpt lat="42.102077" lon="9.162682">
        <ele>1548.8</ele>
        <time>2022-09-13T15:43:56Z</time>
      </trkpt>
      <trkpt lat="42.102072" lon="9.162648">
        <ele>1548.8</ele>
        <time>2022-09-13T15:43:58Z</time>
      </trkpt>
      <trkpt lat="42.102085" lon="9.162565">
        <ele>1548.8</ele>
        <time>2022-09-13T15:44:03Z</time>
      </trkpt>
      <trkpt lat="42.102083" lon="9.16248">
        <ele>1548.8</ele>
        <time>2022-09-13T15:44:08Z</time>
      </trkpt>
      <trkpt lat="42.102078" lon="9.162465">
        <ele>1548.8</ele>
        <time>2022-09-13T15:44:09Z</time>
      </trkpt>
      <trkpt lat="42.102123" lon="9.162352">
        <ele>1548.0</ele>
        <time>2022-09-13T15:44:19Z</time>
      </trkpt>
      <trkpt lat="42.102172" lon="9.162283">
        <ele>1547.4</ele>
        <time>2022-09-13T15:44:27Z</time>
      </trkpt>
      <trkpt lat="42.102175" lon="9.162238">
        <ele>1547.4</ele>
        <time>2022-09-13T15:44:32Z</time>
      </trkpt>
      <trkpt lat="42.102148" lon="9.162063">
        <ele>1546.8</ele>
        <time>2022-09-13T15:45:02Z</time>
      </trkpt>
      <trkpt lat="42.10213" lon="9.162033">
        <ele>1546.8</ele>
        <time>2022-09-13T15:45:07Z</time>
      </trkpt>
      <trkpt lat="42.102052" lon="9.162093">
        <ele>1547.4</ele>
        <time>2022-09-13T15:45:19Z</time>
      </trkpt>
      <trkpt lat="42.101993" lon="9.1622">
        <ele>1546.8</ele>
        <time>2022-09-13T15:45:27Z</time>
      </trkpt>
      <trkpt lat="42.101933" lon="9.16223">
        <ele>1546.6</ele>
        <time>2022-09-13T15:45:31Z</time>
      </trkpt>
      <trkpt lat="42.10184" lon="9.16223">
        <ele>1546.6</ele>
        <time>2022-09-13T15:45:36Z</time>
      </trkpt>
      <trkpt lat="42.101587" lon="9.162225">
        <ele>1547.4</ele>
        <time>2022-09-13T15:45:51Z</time>
      </trkpt>
      <trkpt lat="42.101623" lon="9.162152">
        <ele>1547.2</ele>
        <time>2022-09-13T15:45:56Z</time>
      </trkpt>
      <trkpt lat="42.101623" lon="9.162133">
        <ele>1547.2</ele>
        <time>2022-09-13T15:45:57Z</time>
      </trkpt>
      <trkpt lat="42.101613" lon="9.161945">
        <ele>1547.0</ele>
        <time>2022-09-13T15:46:07Z</time>
      </trkpt>
      <trkpt lat="42.101597" lon="9.16184">
        <ele>1546.8</ele>
        <time>2022-09-13T15:46:12Z</time>
      </trkpt>
      <trkpt lat="42.10154" lon="9.1617">
        <ele>1547.0</ele>
        <time>2022-09-13T15:46:20Z</time>
      </trkpt>
      <trkpt lat="42.101532" lon="9.161577">
        <ele>1547.0</ele>
        <time>2022-09-13T15:46:28Z</time>
      </trkpt>
      <trkpt lat="42.101522" lon="9.16158">
        <ele>1547.0</ele>
        <time>2022-09-13T15:46:29Z</time>
      </trkpt>
      <trkpt lat="42.101403" lon="9.161665">
        <ele>1546.6</ele>
        <time>2022-09-13T15:46:40Z</time>
      </trkpt>
      <trkpt lat="42.101297" lon="9.161852">
        <ele>1546.8</ele>
        <time>2022-09-13T15:46:53Z</time>
      </trkpt>
      <trkpt lat="42.10125" lon="9.161823">
        <ele>1546.8</ele>
        <time>2022-09-13T15:46:58Z</time>
      </trkpt>
      <trkpt lat="42.10119" lon="9.161767">
        <ele>1546.8</ele>
        <time>2022-09-13T15:47:07Z</time>
      </trkpt>
      <trkpt lat="42.10115" lon="9.161818">
        <ele>1546.4</ele>
        <time>2022-09-13T15:47:13Z</time>
      </trkpt>
      <trkpt lat="42.101102" lon="9.161807">
        <ele>1546.2</ele>
        <time>2022-09-13T15:47:17Z</time>
      </trkpt>
      <trkpt lat="42.10106" lon="9.161738">
        <ele>1545.8</ele>
        <time>2022-09-13T15:47:21Z</time>
      </trkpt>
      <trkpt lat="42.101022" lon="9.161673">
        <ele>1546.0</ele>
        <time>2022-09-13T15:47:25Z</time>
      </trkpt>
      <trkpt lat="42.100953" lon="9.16167">
        <ele>1547.0</ele>
        <time>2022-09-13T15:47:33Z</time>
      </trkpt>
      <trkpt lat="42.100937" lon="9.161688">
        <ele>1547.2</ele>
        <time>2022-09-13T15:47:36Z</time>
      </trkpt>
      <trkpt lat="42.100942" lon="9.161727">
        <ele>1547.2</ele>
        <time>2022-09-13T15:47:40Z</time>
      </trkpt>
      <trkpt lat="42.100915" lon="9.161728">
        <ele>1547.0</ele>
        <time>2022-09-13T15:47:43Z</time>
      </trkpt>
      <trkpt lat="42.10089" lon="9.161693">
        <ele>1546.6</ele>
        <time>2022-09-13T15:47:47Z</time>
      </trkpt>
      <trkpt lat="42.100767" lon="9.161365">
        <ele>1546.2</ele>
        <time>2022-09-13T15:48:12Z</time>
      </trkpt>
      <trkpt lat="42.100743" lon="9.16116">
        <ele>1546.2</ele>
        <time>2022-09-13T15:48:27Z</time>
      </trkpt>
      <trkpt lat="42.10075" lon="9.161035">
        <ele>1546.0</ele>
        <time>2022-09-13T15:48:37Z</time>
      </trkpt>
      <trkpt lat="42.100745" lon="9.160875">
        <ele>1546.8</ele>
        <time>2022-09-13T15:48:49Z</time>
      </trkpt>
      <trkpt lat="42.100733" lon="9.160648">
        <ele>1547.8</ele>
        <time>2022-09-13T15:49:08Z</time>
      </trkpt>
      <trkpt lat="42.100733" lon="9.160573">
        <ele>1547.6</ele>
        <time>2022-09-13T15:49:18Z</time>
      </trkpt>
      <trkpt lat="42.10072" lon="9.160478">
        <ele>1547.0</ele>
        <time>2022-09-13T15:49:30Z</time>
      </trkpt>
      <trkpt lat="42.10072" lon="9.16047">
        <ele>1547.0</ele>
        <time>2022-09-13T15:49:31Z</time>
      </trkpt>
      <trkpt lat="42.100688" lon="9.160352">
        <ele>1546.6</ele>
        <time>2022-09-13T15:49:43Z</time>
      </trkpt>
      <trkpt lat="42.100658" lon="9.160262">
        <ele>1545.8</ele>
        <time>2022-09-13T15:49:51Z</time>
      </trkpt>
      <trkpt lat="42.100645" lon="9.160115">
        <ele>1546.2</ele>
        <time>2022-09-13T15:50:06Z</time>
      </trkpt>
      <trkpt lat="42.100637" lon="9.160065">
        <ele>1546.2</ele>
        <time>2022-09-13T15:50:11Z</time>
      </trkpt>
      <trkpt lat="42.100625" lon="9.159973">
        <ele>1545.8</ele>
        <time>2022-09-13T15:50:20Z</time>
      </trkpt>
      <trkpt lat="42.100608" lon="9.159815">
        <ele>1546.6</ele>
        <time>2022-09-13T15:50:36Z</time>
      </trkpt>
      <trkpt lat="42.10059" lon="9.159777">
        <ele>1547.0</ele>
        <time>2022-09-13T15:50:40Z</time>
      </trkpt>
      <trkpt lat="42.100505" lon="9.159712">
        <ele>1547.6</ele>
        <time>2022-09-13T15:50:52Z</time>
      </trkpt>
      <trkpt lat="42.100428" lon="9.159653">
        <ele>1547.4</ele>
        <time>2022-09-13T15:51:03Z</time>
      </trkpt>
      <trkpt lat="42.100367" lon="9.159587">
        <ele>1546.6</ele>
        <time>2022-09-13T15:51:14Z</time>
      </trkpt>
      <trkpt lat="42.100313" lon="9.159425">
        <ele>1546.6</ele>
        <time>2022-09-13T15:51:26Z</time>
      </trkpt>
      <trkpt lat="42.10021" lon="9.159183">
        <ele>1546.2</ele>
        <time>2022-09-13T15:51:44Z</time>
      </trkpt>
      <trkpt lat="42.10018" lon="9.158887">
        <ele>1545.4</ele>
        <time>2022-09-13T15:52:03Z</time>
      </trkpt>
      <trkpt lat="42.100183" lon="9.158843">
        <ele>1545.4</ele>
        <time>2022-09-13T15:52:03Z</time>
      </trkpt>
      <trkpt lat="42.100157" lon="9.158745">
        <ele>1545.4</ele>
        <time>2022-09-13T15:52:10Z</time>
      </trkpt>
      <trkpt lat="42.100122" lon="9.158705">
        <ele>1545.4</ele>
        <time>2022-09-13T15:52:14Z</time>
      </trkpt>
      <trkpt lat="42.100028" lon="9.158688">
        <ele>1545.4</ele>
        <time>2022-09-13T15:52:22Z</time>
      </trkpt>
      <trkpt lat="42.099955" lon="9.158638">
        <ele>1546.4</ele>
        <time>2022-09-13T15:52:30Z</time>
      </trkpt>
      <trkpt lat="42.099857" lon="9.158575">
        <ele>1548.0</ele>
        <time>2022-09-13T15:52:45Z</time>
      </trkpt>
      <trkpt lat="42.099835" lon="9.158497">
        <ele>1548.0</ele>
        <time>2022-09-13T15:52:52Z</time>
      </trkpt>
      <trkpt lat="42.099812" lon="9.158477">
        <ele>1548.2</ele>
        <time>2022-09-13T15:52:55Z</time>
      </trkpt>
      <trkpt lat="42.099765" lon="9.158487">
        <ele>1548.2</ele>
        <time>2022-09-13T15:53:00Z</time>
      </trkpt>
      <trkpt lat="42.0997" lon="9.158502">
        <ele>1548.4</ele>
        <time>2022-09-13T15:53:07Z</time>
      </trkpt>
      <trkpt lat="42.099657" lon="9.158503">
        <ele>1548.4</ele>
        <time>2022-09-13T15:53:12Z</time>
      </trkpt>
      <trkpt lat="42.099468" lon="9.158308">
        <ele>1551.2</ele>
        <time>2022-09-13T15:53:38Z</time>
      </trkpt>
      <trkpt lat="42.09946" lon="9.1583">
        <ele>1551.2</ele>
        <time>2022-09-13T15:53:39Z</time>
      </trkpt>
      <trkpt lat="42.099365" lon="9.158192">
        <ele>1551.6</ele>
        <time>2022-09-13T15:53:50Z</time>
      </trkpt>
      <trkpt lat="42.099333" lon="9.158128">
        <ele>1552.0</ele>
        <time>2022-09-13T15:53:57Z</time>
      </trkpt>
      <trkpt lat="42.0993" lon="9.158023">
        <ele>1552.6</ele>
        <time>2022-09-13T15:54:05Z</time>
      </trkpt>
      <trkpt lat="42.099258" lon="9.157962">
        <ele>1552.8</ele>
        <time>2022-09-13T15:54:11Z</time>
      </trkpt>
      <trkpt lat="42.099108" lon="9.15788">
        <ele>1552.8</ele>
        <time>2022-09-13T15:54:26Z</time>
      </trkpt>
      <trkpt lat="42.099098" lon="9.157873">
        <ele>1552.8</ele>
        <time>2022-09-13T15:54:27Z</time>
      </trkpt>
      <trkpt lat="42.099067" lon="9.15785">
        <ele>1553.0</ele>
        <time>2022-09-13T15:54:30Z</time>
      </trkpt>
      <trkpt lat="42.09887" lon="9.157562">
        <ele>1553.8</ele>
        <time>2022-09-13T15:55:01Z</time>
      </trkpt>
      <trkpt lat="42.098828" lon="9.157495">
        <ele>1553.6</ele>
        <time>2022-09-13T15:55:08Z</time>
      </trkpt>
      <trkpt lat="42.098758" lon="9.157367">
        <ele>1553.0</ele>
        <time>2022-09-13T15:55:19Z</time>
      </trkpt>
      <trkpt lat="42.098755" lon="9.157352">
        <ele>1553.0</ele>
        <time>2022-09-13T15:55:20Z</time>
      </trkpt>
      <trkpt lat="42.098715" lon="9.157302">
        <ele>1553.2</ele>
        <time>2022-09-13T15:55:27Z</time>
      </trkpt>
      <trkpt lat="42.098642" lon="9.157218">
        <ele>1553.2</ele>
        <time>2022-09-13T15:55:36Z</time>
      </trkpt>
      <trkpt lat="42.098572" lon="9.157123">
        <ele>1552.4</ele>
        <time>2022-09-13T15:55:46Z</time>
      </trkpt>
      <trkpt lat="42.098445" lon="9.157045">
        <ele>1549.8</ele>
        <time>2022-09-13T15:56:20Z</time>
      </trkpt>
      <trkpt lat="42.098325" lon="9.156963">
        <ele>1549.2</ele>
        <time>2022-09-13T15:56:29Z</time>
      </trkpt>
      <trkpt lat="42.09825" lon="9.156847">
        <ele>1548.6</ele>
        <time>2022-09-13T15:56:39Z</time>
      </trkpt>
      <trkpt lat="42.098223" lon="9.156782">
        <ele>1548.4</ele>
        <time>2022-09-13T15:56:43Z</time>
      </trkpt>
      <trkpt lat="42.098175" lon="9.15648">
        <ele>1548.8</ele>
        <time>2022-09-13T15:56:58Z</time>
      </trkpt>
      <trkpt lat="42.09809" lon="9.15635">
        <ele>1548.6</ele>
        <time>2022-09-13T15:57:27Z</time>
      </trkpt>
      <trkpt lat="42.097997" lon="9.156202">
        <ele>1549.4</ele>
        <time>2022-09-13T15:57:44Z</time>
      </trkpt>
      <trkpt lat="42.09783" lon="9.15586">
        <ele>1551.6</ele>
        <time>2022-09-13T15:58:21Z</time>
      </trkpt>
      <trkpt lat="42.097545" lon="9.15602">
        <ele>1552.0</ele>
        <time>2022-09-13T15:58:31Z</time>
      </trkpt>
      <trkpt lat="42.09757" lon="9.15555">
        <ele>1554.6</ele>
        <time>2022-09-13T15:59:01Z</time>
      </trkpt>
      <trkpt lat="42.097562" lon="9.155538">
        <ele>1554.6</ele>
        <time>2022-09-13T15:59:05Z</time>
      </trkpt>
      <trkpt lat="42.09746" lon="9.155375">
        <ele>1554.8</ele>
        <time>2022-09-13T15:59:19Z</time>
      </trkpt>
      <trkpt lat="42.09744" lon="9.155318">
        <ele>1555.0</ele>
        <time>2022-09-13T15:59:26Z</time>
      </trkpt>
      <trkpt lat="42.097372" lon="9.155292">
        <ele>1555.0</ele>
        <time>2022-09-13T15:59:31Z</time>
      </trkpt>
      <trkpt lat="42.097293" lon="9.15532">
        <ele>1555.0</ele>
        <time>2022-09-13T15:59:38Z</time>
      </trkpt>
      <trkpt lat="42.097225" lon="9.155372">
        <ele>1555.4</ele>
        <time>2022-09-13T15:59:45Z</time>
      </trkpt>
      <trkpt lat="42.097175" lon="9.155358">
        <ele>1555.6</ele>
        <time>2022-09-13T15:59:51Z</time>
      </trkpt>
      <trkpt lat="42.097068" lon="9.155318">
        <ele>1556.6</ele>
        <time>2022-09-13T16:00:07Z</time>
      </trkpt>
      <trkpt lat="42.097028" lon="9.15535">
        <ele>1556.8</ele>
        <time>2022-09-13T16:00:14Z</time>
      </trkpt>
      <trkpt lat="42.097037" lon="9.155392">
        <ele>1556.8</ele>
        <time>2022-09-13T16:00:20Z</time>
      </trkpt>
      <trkpt lat="42.09701" lon="9.155403">
        <ele>1556.8</ele>
        <time>2022-09-13T16:00:45Z</time>
      </trkpt>
      <trkpt lat="42.096928" lon="9.155342">
        <ele>1556.4</ele>
        <time>2022-09-13T16:01:04Z</time>
      </trkpt>
      <trkpt lat="42.09691" lon="9.155327">
        <ele>1556.4</ele>
        <time>2022-09-13T16:01:09Z</time>
      </trkpt>
      <trkpt lat="42.096882" lon="9.155332">
        <ele>1556.8</ele>
        <time>2022-09-13T16:01:14Z</time>
      </trkpt>
      <trkpt lat="42.0968" lon="9.155322">
        <ele>1557.0</ele>
        <time>2022-09-13T16:01:25Z</time>
      </trkpt>
      <trkpt lat="42.096678" lon="9.155323">
        <ele>1558.0</ele>
        <time>2022-09-13T16:01:41Z</time>
      </trkpt>
      <trkpt lat="42.096613" lon="9.155318">
        <ele>1558.4</ele>
        <time>2022-09-13T16:01:50Z</time>
      </trkpt>
      <trkpt lat="42.096588" lon="9.1553">
        <ele>1558.6</ele>
        <time>2022-09-13T16:01:56Z</time>
      </trkpt>
      <trkpt lat="42.096547" lon="9.15524">
        <ele>1559.2</ele>
        <time>2022-09-13T16:02:04Z</time>
      </trkpt>
      <trkpt lat="42.096538" lon="9.155205">
        <ele>1559.4</ele>
        <time>2022-09-13T16:02:08Z</time>
      </trkpt>
      <trkpt lat="42.096535" lon="9.155128">
        <ele>1559.2</ele>
        <time>2022-09-13T16:02:20Z</time>
      </trkpt>
      <trkpt lat="42.096527" lon="9.155022">
        <ele>1558.6</ele>
        <time>2022-09-13T16:02:31Z</time>
      </trkpt>
      <trkpt lat="42.096513" lon="9.15495">
        <ele>1558.6</ele>
        <time>2022-09-13T16:02:37Z</time>
      </trkpt>
      <trkpt lat="42.096438" lon="9.154642">
        <ele>1559.4</ele>
        <time>2022-09-13T16:02:54Z</time>
      </trkpt>
      <trkpt lat="42.09641" lon="9.154585">
        <ele>1559.4</ele>
        <time>2022-09-13T16:02:58Z</time>
      </trkpt>
      <trkpt lat="42.096208" lon="9.15448">
        <ele>1560.6</ele>
        <time>2022-09-13T16:03:21Z</time>
      </trkpt>
      <trkpt lat="42.096163" lon="9.154483">
        <ele>1560.4</ele>
        <time>2022-09-13T16:03:27Z</time>
      </trkpt>
      <trkpt lat="42.09609" lon="9.154525">
        <ele>1560.6</ele>
        <time>2022-09-13T16:03:41Z</time>
      </trkpt>
      <trkpt lat="42.09606" lon="9.154557">
        <ele>1560.6</ele>
        <time>2022-09-13T16:03:47Z</time>
      </trkpt>
      <trkpt lat="42.09605" lon="9.15457">
        <ele>1560.6</ele>
        <time>2022-09-13T16:03:49Z</time>
      </trkpt>
      <trkpt lat="42.095992" lon="9.154577">
        <ele>1560.8</ele>
        <time>2022-09-13T16:03:56Z</time>
      </trkpt>
      <trkpt lat="42.095948" lon="9.154567">
        <ele>1560.6</ele>
        <time>2022-09-13T16:04:14Z</time>
      </trkpt>
      <trkpt lat="42.095942" lon="9.154572">
        <ele>1561.0</ele>
        <time>2022-09-13T16:04:43Z</time>
      </trkpt>
      <trkpt lat="42.095837" lon="9.154613">
        <ele>1561.6</ele>
        <time>2022-09-13T16:04:55Z</time>
      </trkpt>
      <trkpt lat="42.095682" lon="9.154613">
        <ele>1562.2</ele>
        <time>2022-09-13T16:05:08Z</time>
      </trkpt>
      <trkpt lat="42.09532" lon="9.154598">
        <ele>1563.2</ele>
        <time>2022-09-13T16:05:34Z</time>
      </trkpt>
      <trkpt lat="42.095303" lon="9.154595">
        <ele>1563.2</ele>
        <time>2022-09-13T16:05:35Z</time>
      </trkpt>
      <trkpt lat="42.095265" lon="9.154437">
        <ele>1564.0</ele>
        <time>2022-09-13T16:05:48Z</time>
      </trkpt>
      <trkpt lat="42.095208" lon="9.154197">
        <ele>1565.2</ele>
        <time>2022-09-13T16:06:10Z</time>
      </trkpt>
      <trkpt lat="42.095187" lon="9.15414">
        <ele>1565.6</ele>
        <time>2022-09-13T16:06:17Z</time>
      </trkpt>
      <trkpt lat="42.09521" lon="9.15393">
        <ele>1566.8</ele>
        <time>2022-09-13T16:06:52Z</time>
      </trkpt>
      <trkpt lat="42.095222" lon="9.153783">
        <ele>1565.6</ele>
        <time>2022-09-13T16:07:26Z</time>
      </trkpt>
      <trkpt lat="42.09518" lon="9.15387">
        <ele>1563.8</ele>
        <time>2022-09-13T16:07:45Z</time>
      </trkpt>
      <trkpt lat="42.095152" lon="9.153942">
        <ele>1564.8</ele>
        <time>2022-09-13T16:07:55Z</time>
      </trkpt>
      <trkpt lat="42.095135" lon="9.154053">
        <ele>1564.4</ele>
        <time>2022-09-13T16:08:10Z</time>
      </trkpt>
      <trkpt lat="42.0951" lon="9.15414">
        <ele>1563.6</ele>
        <time>2022-09-13T16:08:26Z</time>
      </trkpt>
      <trkpt lat="42.094953" lon="9.15447">
        <ele>1556.4</ele>
        <time>2022-09-13T16:09:31Z</time>
      </trkpt>
      <trkpt lat="42.094547" lon="9.15482">
        <ele>1553.8</ele>
        <time>2022-09-13T16:09:50Z</time>
      </trkpt>
      <trkpt lat="42.094635" lon="9.155288">
        <ele>1552.0</ele>
        <time>2022-09-13T16:10:02Z</time>
      </trkpt>
      <trkpt lat="42.094552" lon="9.155577">
        <ele>1550.0</ele>
        <time>2022-09-13T16:10:14Z</time>
      </trkpt>
      <trkpt lat="42.0945" lon="9.1559">
        <ele>1547.6</ele>
        <time>2022-09-13T16:10:27Z</time>
      </trkpt>
      <trkpt lat="42.094435" lon="9.156037">
        <ele>1547.2</ele>
        <time>2022-09-13T16:10:30Z</time>
      </trkpt>
      <trkpt lat="42.094397" lon="9.15614">
        <ele>1546.6</ele>
        <time>2022-09-13T16:10:36Z</time>
      </trkpt>
      <trkpt lat="42.094387" lon="9.156193">
        <ele>1546.6</ele>
        <time>2022-09-13T16:10:39Z</time>
      </trkpt>
      <trkpt lat="42.094372" lon="9.156265">
        <ele>1545.6</ele>
        <time>2022-09-13T16:10:43Z</time>
      </trkpt>
      <trkpt lat="42.094343" lon="9.156357">
        <ele>1544.6</ele>
        <time>2022-09-13T16:10:49Z</time>
      </trkpt>
      <trkpt lat="42.094285" lon="9.15649">
        <ele>1543.2</ele>
        <time>2022-09-13T16:10:59Z</time>
      </trkpt>
      <trkpt lat="42.094258" lon="9.156565">
        <ele>1542.6</ele>
        <time>2022-09-13T16:11:06Z</time>
      </trkpt>
      <trkpt lat="42.094218" lon="9.156695">
        <ele>1541.2</ele>
        <time>2022-09-13T16:11:18Z</time>
      </trkpt>
      <trkpt lat="42.094167" lon="9.156773">
        <ele>1540.0</ele>
        <time>2022-09-13T16:11:31Z</time>
      </trkpt>
      <trkpt lat="42.094152" lon="9.156785">
        <ele>1539.4</ele>
        <time>2022-09-13T16:11:34Z</time>
      </trkpt>
      <trkpt lat="42.094142" lon="9.15671">
        <ele>1538.8</ele>
        <time>2022-09-13T16:11:41Z</time>
      </trkpt>
      <trkpt lat="42.094133" lon="9.156562">
        <ele>1537.2</ele>
        <time>2022-09-13T16:11:57Z</time>
      </trkpt>
      <trkpt lat="42.094148" lon="9.156125">
        <ele>1533.0</ele>
        <time>2022-09-13T16:12:34Z</time>
      </trkpt>
      <trkpt lat="42.094097" lon="9.15608">
        <ele>1532.6</ele>
        <time>2022-09-13T16:12:40Z</time>
      </trkpt>
      <trkpt lat="42.094085" lon="9.156088">
        <ele>1531.0</ele>
        <time>2022-09-13T16:12:52Z</time>
      </trkpt>
      <trkpt lat="42.09399" lon="9.156263">
        <ele>1529.0</ele>
        <time>2022-09-13T16:13:04Z</time>
      </trkpt>
      <trkpt lat="42.093582" lon="9.156658">
        <ele>1527.4</ele>
        <time>2022-09-13T16:13:17Z</time>
      </trkpt>
      <trkpt lat="42.093598" lon="9.15683">
        <ele>1526.4</ele>
        <time>2022-09-13T16:13:23Z</time>
      </trkpt>
      <trkpt lat="42.093592" lon="9.15688">
        <ele>1525.8</ele>
        <time>2022-09-13T16:13:25Z</time>
      </trkpt>
      <trkpt lat="42.093583" lon="9.156903">
        <ele>1525.8</ele>
        <time>2022-09-13T16:13:26Z</time>
      </trkpt>
      <trkpt lat="42.093452" lon="9.156938">
        <ele>1525.4</ele>
        <time>2022-09-13T16:13:33Z</time>
      </trkpt>
      <trkpt lat="42.093302" lon="9.157005">
        <ele>1523.6</ele>
        <time>2022-09-13T16:13:46Z</time>
      </trkpt>
      <trkpt lat="42.09328" lon="9.157013">
        <ele>1523.0</ele>
        <time>2022-09-13T16:13:49Z</time>
      </trkpt>
      <trkpt lat="42.093232" lon="9.156998">
        <ele>1522.2</ele>
        <time>2022-09-13T16:13:55Z</time>
      </trkpt>
      <trkpt lat="42.09318" lon="9.157003">
        <ele>1521.2</ele>
        <time>2022-09-13T16:14:00Z</time>
      </trkpt>
      <trkpt lat="42.093098" lon="9.157038">
        <ele>1520.8</ele>
        <time>2022-09-13T16:14:07Z</time>
      </trkpt>
      <trkpt lat="42.092957" lon="9.15715">
        <ele>1520.0</ele>
        <time>2022-09-13T16:14:19Z</time>
      </trkpt>
      <trkpt lat="42.092847" lon="9.157257">
        <ele>1518.6</ele>
        <time>2022-09-13T16:14:29Z</time>
      </trkpt>
      <trkpt lat="42.092757" lon="9.157332">
        <ele>1517.4</ele>
        <time>2022-09-13T16:14:36Z</time>
      </trkpt>
      <trkpt lat="42.092685" lon="9.157413">
        <ele>1516.8</ele>
        <time>2022-09-13T16:14:42Z</time>
      </trkpt>
      <trkpt lat="42.092673" lon="9.157427">
        <ele>1516.6</ele>
        <time>2022-09-13T16:14:43Z</time>
      </trkpt>
      <trkpt lat="42.092612" lon="9.157608">
        <ele>1515.4</ele>
        <time>2022-09-13T16:15:00Z</time>
      </trkpt>
      <trkpt lat="42.092608" lon="9.157665">
        <ele>1515.0</ele>
        <time>2022-09-13T16:15:06Z</time>
      </trkpt>
      <trkpt lat="42.092585" lon="9.157732">
        <ele>1514.2</ele>
        <time>2022-09-13T16:15:14Z</time>
      </trkpt>
      <trkpt lat="42.092558" lon="9.157823">
        <ele>1513.2</ele>
        <time>2022-09-13T16:15:25Z</time>
      </trkpt>
      <trkpt lat="42.092545" lon="9.157853">
        <ele>1512.4</ele>
        <time>2022-09-13T16:15:31Z</time>
      </trkpt>
      <trkpt lat="42.092412" lon="9.157893">
        <ele>1506.2</ele>
        <time>2022-09-13T16:16:41Z</time>
      </trkpt>
      <trkpt lat="42.092067" lon="9.158015">
        <ele>1504.4</ele>
        <time>2022-09-13T16:17:00Z</time>
      </trkpt>
      <trkpt lat="42.09195" lon="9.158052">
        <ele>1504.2</ele>
        <time>2022-09-13T16:17:05Z</time>
      </trkpt>
      <trkpt lat="42.091842" lon="9.158103">
        <ele>1504.0</ele>
        <time>2022-09-13T16:17:10Z</time>
      </trkpt>
      <trkpt lat="42.091397" lon="9.158232">
        <ele>1502.2</ele>
        <time>2022-09-13T16:17:37Z</time>
      </trkpt>
      <trkpt lat="42.091338" lon="9.158388">
        <ele>1501.6</ele>
        <time>2022-09-13T16:17:53Z</time>
      </trkpt>
      <trkpt lat="42.09127" lon="9.158487">
        <ele>1501.2</ele>
        <time>2022-09-13T16:18:04Z</time>
      </trkpt>
      <trkpt lat="42.091252" lon="9.158465">
        <ele>1501.2</ele>
        <time>2022-09-13T16:18:07Z</time>
      </trkpt>
      <trkpt lat="42.091217" lon="9.158418">
        <ele>1501.2</ele>
        <time>2022-09-13T16:18:13Z</time>
      </trkpt>
      <trkpt lat="42.09119" lon="9.158443">
        <ele>1502.0</ele>
        <time>2022-09-13T16:18:19Z</time>
      </trkpt>
      <trkpt lat="42.091157" lon="9.158452">
        <ele>1501.8</ele>
        <time>2022-09-13T16:18:30Z</time>
      </trkpt>
      <trkpt lat="42.091152" lon="9.158393">
        <ele>1501.8</ele>
        <time>2022-09-13T16:18:35Z</time>
      </trkpt>
      <trkpt lat="42.091148" lon="9.158357">
        <ele>1501.6</ele>
        <time>2022-09-13T16:18:39Z</time>
      </trkpt>
      <trkpt lat="42.091108" lon="9.158313">
        <ele>1501.0</ele>
        <time>2022-09-13T16:18:45Z</time>
      </trkpt>
      <trkpt lat="42.09106" lon="9.15827">
        <ele>1500.0</ele>
        <time>2022-09-13T16:18:51Z</time>
      </trkpt>
      <trkpt lat="42.091002" lon="9.15815">
        <ele>1499.0</ele>
        <time>2022-09-13T16:19:02Z</time>
      </trkpt>
      <trkpt lat="42.090975" lon="9.158067">
        <ele>1498.0</ele>
        <time>2022-09-13T16:19:08Z</time>
      </trkpt>
      <trkpt lat="42.09091" lon="9.157843">
        <ele>1497.0</ele>
        <time>2022-09-13T16:19:25Z</time>
      </trkpt>
      <trkpt lat="42.09091" lon="9.157832">
        <ele>1496.8</ele>
        <time>2022-09-13T16:19:26Z</time>
      </trkpt>
      <trkpt lat="42.090883" lon="9.15771">
        <ele>1495.8</ele>
        <time>2022-09-13T16:19:39Z</time>
      </trkpt>
      <trkpt lat="42.09087" lon="9.157655">
        <ele>1494.8</ele>
        <time>2022-09-13T16:19:49Z</time>
      </trkpt>
      <trkpt lat="42.090887" lon="9.157578">
        <ele>1493.6</ele>
        <time>2022-09-13T16:20:08Z</time>
      </trkpt>
      <trkpt lat="42.090913" lon="9.157517">
        <ele>1493.0</ele>
        <time>2022-09-13T16:20:20Z</time>
      </trkpt>
      <trkpt lat="42.09085" lon="9.15738">
        <ele>1493.2</ele>
        <time>2022-09-13T16:20:31Z</time>
      </trkpt>
      <trkpt lat="42.090795" lon="9.157145">
        <ele>1493.2</ele>
        <time>2022-09-13T16:20:43Z</time>
      </trkpt>
      <trkpt lat="42.090777" lon="9.156982">
        <ele>1493.2</ele>
        <time>2022-09-13T16:20:51Z</time>
      </trkpt>
      <trkpt lat="42.090743" lon="9.156697">
        <ele>1495.6</ele>
        <time>2022-09-13T16:21:04Z</time>
      </trkpt>
      <trkpt lat="42.090757" lon="9.156547">
        <ele>1496.2</ele>
        <time>2022-09-13T16:21:11Z</time>
      </trkpt>
      <trkpt lat="42.090748" lon="9.156533">
        <ele>1496.6</ele>
        <time>2022-09-13T16:21:12Z</time>
      </trkpt>
      <trkpt lat="42.090747" lon="9.156452">
        <ele>1497.2</ele>
        <time>2022-09-13T16:21:17Z</time>
      </trkpt>
      <trkpt lat="42.090715" lon="9.156402">
        <ele>1497.0</ele>
        <time>2022-09-13T16:21:22Z</time>
      </trkpt>
      <trkpt lat="42.09069" lon="9.156362">
        <ele>1496.0</ele>
        <time>2022-09-13T16:21:26Z</time>
      </trkpt>
      <trkpt lat="42.090777" lon="9.156298">
        <ele>1494.8</ele>
        <time>2022-09-13T16:21:38Z</time>
      </trkpt>
      <trkpt lat="42.090808" lon="9.156292">
        <ele>1494.2</ele>
        <time>2022-09-13T16:22:03Z</time>
      </trkpt>
      <trkpt lat="42.090868" lon="9.156198">
        <ele>1492.4</ele>
        <time>2022-09-13T16:22:21Z</time>
      </trkpt>
      <trkpt lat="42.090888" lon="9.156178">
        <ele>1492.2</ele>
        <time>2022-09-13T16:22:25Z</time>
      </trkpt>
      <trkpt lat="42.09091" lon="9.156095">
        <ele>1491.8</ele>
        <time>2022-09-13T16:22:32Z</time>
      </trkpt>
      <trkpt lat="42.090967" lon="9.155862">
        <ele>1491.2</ele>
        <time>2022-09-13T16:22:46Z</time>
      </trkpt>
      <trkpt lat="42.091015" lon="9.155772">
        <ele>1491.0</ele>
        <time>2022-09-13T16:22:54Z</time>
      </trkpt>
      <trkpt lat="42.091078" lon="9.155657">
        <ele>1490.2</ele>
        <time>2022-09-13T16:23:06Z</time>
      </trkpt>
      <trkpt lat="42.091095" lon="9.155592">
        <ele>1489.4</ele>
        <time>2022-09-13T16:23:13Z</time>
      </trkpt>
      <trkpt lat="42.09112" lon="9.155367">
        <ele>1488.0</ele>
        <time>2022-09-13T16:23:42Z</time>
      </trkpt>
      <trkpt lat="42.090908" lon="9.155058">
        <ele>1488.0</ele>
        <time>2022-09-13T16:24:05Z</time>
      </trkpt>
      <trkpt lat="42.090813" lon="9.154867">
        <ele>1486.8</ele>
        <time>2022-09-13T16:24:16Z</time>
      </trkpt>
      <trkpt lat="42.090713" lon="9.154713">
        <ele>1484.8</ele>
        <time>2022-09-13T16:24:31Z</time>
      </trkpt>
      <trkpt lat="42.090693" lon="9.154668">
        <ele>1484.0</ele>
        <time>2022-09-13T16:24:36Z</time>
      </trkpt>
      <trkpt lat="42.090698" lon="9.154657">
        <ele>1484.0</ele>
        <time>2022-09-13T16:24:37Z</time>
      </trkpt>
      <trkpt lat="42.090797" lon="9.154415">
        <ele>1482.2</ele>
        <time>2022-09-13T16:24:57Z</time>
      </trkpt>
      <trkpt lat="42.090818" lon="9.154355">
        <ele>1481.6</ele>
        <time>2022-09-13T16:25:03Z</time>
      </trkpt>
      <trkpt lat="42.090878" lon="9.154127">
        <ele>1480.6</ele>
        <time>2022-09-13T16:25:26Z</time>
      </trkpt>
      <trkpt lat="42.090765" lon="9.153903">
        <ele>1479.4</ele>
        <time>2022-09-13T16:25:44Z</time>
      </trkpt>
      <trkpt lat="42.090723" lon="9.153882">
        <ele>1477.8</ele>
        <time>2022-09-13T16:26:15Z</time>
      </trkpt>
      <trkpt lat="42.090667" lon="9.153802">
        <ele>1477.0</ele>
        <time>2022-09-13T16:26:33Z</time>
      </trkpt>
      <trkpt lat="42.090617" lon="9.153732">
        <ele>1476.2</ele>
        <time>2022-09-13T16:26:39Z</time>
      </trkpt>
      <trkpt lat="42.090567" lon="9.1536">
        <ele>1475.8</ele>
        <time>2022-09-13T16:26:47Z</time>
      </trkpt>
      <trkpt lat="42.090563" lon="9.153582">
        <ele>1475.8</ele>
        <time>2022-09-13T16:26:49Z</time>
      </trkpt>
      <trkpt lat="42.090617" lon="9.153388">
        <ele>1475.4</ele>
        <time>2022-09-13T16:27:04Z</time>
      </trkpt>
      <trkpt lat="42.090617" lon="9.153335">
        <ele>1475.0</ele>
        <time>2022-09-13T16:27:08Z</time>
      </trkpt>
      <trkpt lat="42.090595" lon="9.15327">
        <ele>1474.8</ele>
        <time>2022-09-13T16:27:13Z</time>
      </trkpt>
      <trkpt lat="42.090538" lon="9.15314">
        <ele>1472.6</ele>
        <time>2022-09-13T16:27:25Z</time>
      </trkpt>
      <trkpt lat="42.09053" lon="9.153135">
        <ele>1472.4</ele>
        <time>2022-09-13T16:27:27Z</time>
      </trkpt>
      <trkpt lat="42.090558" lon="9.153147">
        <ele>1471.4</ele>
        <time>2022-09-13T16:27:32Z</time>
      </trkpt>
      <trkpt lat="42.090682" lon="9.153127">
        <ele>1468.2</ele>
        <time>2022-09-13T16:27:54Z</time>
      </trkpt>
      <trkpt lat="42.090843" lon="9.153167">
        <ele>1465.0</ele>
        <time>2022-09-13T16:28:22Z</time>
      </trkpt>
      <trkpt lat="42.090867" lon="9.153195">
        <ele>1463.6</ele>
        <time>2022-09-13T16:28:27Z</time>
      </trkpt>
      <trkpt lat="42.090865" lon="9.153263">
        <ele>1462.0</ele>
        <time>2022-09-13T16:28:34Z</time>
      </trkpt>
      <trkpt lat="42.090845" lon="9.153357">
        <ele>1460.6</ele>
        <time>2022-09-13T16:28:43Z</time>
      </trkpt>
      <trkpt lat="42.090822" lon="9.153395">
        <ele>1459.4</ele>
        <time>2022-09-13T16:28:50Z</time>
      </trkpt>
      <trkpt lat="42.090798" lon="9.153468">
        <ele>1459.0</ele>
        <time>2022-09-13T16:29:00Z</time>
      </trkpt>
      <trkpt lat="42.090798" lon="9.153487">
        <ele>1458.8</ele>
        <time>2022-09-13T16:29:02Z</time>
      </trkpt>
      <trkpt lat="42.090588" lon="9.153517">
        <ele>1458.2</ele>
        <time>2022-09-13T16:29:26Z</time>
      </trkpt>
      <trkpt lat="42.090342" lon="9.153702">
        <ele>1459.8</ele>
        <time>2022-09-13T16:29:48Z</time>
      </trkpt>
      <trkpt lat="42.090217" lon="9.153757">
        <ele>1460.0</ele>
        <time>2022-09-13T16:29:54Z</time>
      </trkpt>
      <trkpt lat="42.090045" lon="9.153817">
        <ele>1460.8</ele>
        <time>2022-09-13T16:30:01Z</time>
      </trkpt>
      <trkpt lat="42.08995" lon="9.153945">
        <ele>1461.4</ele>
        <time>2022-09-13T16:30:10Z</time>
      </trkpt>
      <trkpt lat="42.089882" lon="9.154018">
        <ele>1461.4</ele>
        <time>2022-09-13T16:30:18Z</time>
      </trkpt>
      <trkpt lat="42.089843" lon="9.154047">
        <ele>1461.2</ele>
        <time>2022-09-13T16:30:21Z</time>
      </trkpt>
      <trkpt lat="42.089818" lon="9.154032">
        <ele>1461.2</ele>
        <time>2022-09-13T16:30:22Z</time>
      </trkpt>
      <trkpt lat="42.089763" lon="9.153972">
        <ele>1461.4</ele>
        <time>2022-09-13T16:30:27Z</time>
      </trkpt>
      <trkpt lat="42.089642" lon="9.154045">
        <ele>1462.4</ele>
        <time>2022-09-13T16:30:37Z</time>
      </trkpt>
      <trkpt lat="42.089413" lon="9.154093">
        <ele>1463.4</ele>
        <time>2022-09-13T16:30:56Z</time>
      </trkpt>
      <trkpt lat="42.089405" lon="9.154107">
        <ele>1463.4</ele>
        <time>2022-09-13T16:30:57Z</time>
      </trkpt>
      <trkpt lat="42.08928" lon="9.15427">
        <ele>1464.4</ele>
        <time>2022-09-13T16:31:11Z</time>
      </trkpt>
      <trkpt lat="42.08906" lon="9.15449">
        <ele>1465.4</ele>
        <time>2022-09-13T16:31:32Z</time>
      </trkpt>
      <trkpt lat="42.088923" lon="9.154607">
        <ele>1466.6</ele>
        <time>2022-09-13T16:31:44Z</time>
      </trkpt>
      <trkpt lat="42.088913" lon="9.154613">
        <ele>1466.8</ele>
        <time>2022-09-13T16:31:46Z</time>
      </trkpt>
      <trkpt lat="42.088827" lon="9.15466">
        <ele>1467.6</ele>
        <time>2022-09-13T16:31:55Z</time>
      </trkpt>
      <trkpt lat="42.088565" lon="9.154765">
        <ele>1469.2</ele>
        <time>2022-09-13T16:32:22Z</time>
      </trkpt>
      <trkpt lat="42.088477" lon="9.154793">
        <ele>1469.6</ele>
        <time>2022-09-13T16:32:31Z</time>
      </trkpt>
      <trkpt lat="42.0884" lon="9.154843">
        <ele>1468.8</ele>
        <time>2022-09-13T16:32:40Z</time>
      </trkpt>
      <trkpt lat="42.08839" lon="9.154847">
        <ele>1468.4</ele>
        <time>2022-09-13T16:32:42Z</time>
      </trkpt>
      <trkpt lat="42.088298" lon="9.154863">
        <ele>1467.8</ele>
        <time>2022-09-13T16:32:51Z</time>
      </trkpt>
      <trkpt lat="42.088" lon="9.154868">
        <ele>1468.0</ele>
        <time>2022-09-13T16:33:18Z</time>
      </trkpt>
      <trkpt lat="42.087802" lon="9.15481">
        <ele>1468.2</ele>
        <time>2022-09-13T16:33:33Z</time>
      </trkpt>
      <trkpt lat="42.087793" lon="9.154823">
        <ele>1468.2</ele>
        <time>2022-09-13T16:33:34Z</time>
      </trkpt>
      <trkpt lat="42.087718" lon="9.15495">
        <ele>1468.4</ele>
        <time>2022-09-13T16:33:44Z</time>
      </trkpt>
      <trkpt lat="42.08764" lon="9.155073">
        <ele>1468.4</ele>
        <time>2022-09-13T16:33:52Z</time>
      </trkpt>
      <trkpt lat="42.087603" lon="9.155143">
        <ele>1468.4</ele>
        <time>2022-09-13T16:33:56Z</time>
      </trkpt>
      <trkpt lat="42.087525" lon="9.155335">
        <ele>1468.2</ele>
        <time>2022-09-13T16:34:06Z</time>
      </trkpt>
      <trkpt lat="42.087458" lon="9.155513">
        <ele>1467.6</ele>
        <time>2022-09-13T16:34:15Z</time>
      </trkpt>
      <trkpt lat="42.087322" lon="9.155758">
        <ele>1466.4</ele>
        <time>2022-09-13T16:34:31Z</time>
      </trkpt>
      <trkpt lat="42.087315" lon="9.155775">
        <ele>1466.4</ele>
        <time>2022-09-13T16:34:32Z</time>
      </trkpt>
      <trkpt lat="42.08728" lon="9.155998">
        <ele>1466.0</ele>
        <time>2022-09-13T16:34:45Z</time>
      </trkpt>
      <trkpt lat="42.087263" lon="9.156082">
        <ele>1465.6</ele>
        <time>2022-09-13T16:34:50Z</time>
      </trkpt>
      <trkpt lat="42.087153" lon="9.156308">
        <ele>1465.4</ele>
        <time>2022-09-13T16:35:07Z</time>
      </trkpt>
      <trkpt lat="42.087098" lon="9.156363">
        <ele>1465.8</ele>
        <time>2022-09-13T16:35:15Z</time>
      </trkpt>
      <trkpt lat="42.086998" lon="9.156428">
        <ele>1466.2</ele>
        <time>2022-09-13T16:35:26Z</time>
      </trkpt>
      <trkpt lat="42.086942" lon="9.156352">
        <ele>1466.6</ele>
        <time>2022-09-13T16:35:32Z</time>
      </trkpt>
      <trkpt lat="42.086932" lon="9.156347">
        <ele>1466.6</ele>
        <time>2022-09-13T16:35:33Z</time>
      </trkpt>
      <trkpt lat="42.086847" lon="9.156303">
        <ele>1467.4</ele>
        <time>2022-09-13T16:35:41Z</time>
      </trkpt>
      <trkpt lat="42.086797" lon="9.156252">
        <ele>1467.4</ele>
        <time>2022-09-13T16:35:46Z</time>
      </trkpt>
      <trkpt lat="42.086712" lon="9.156168">
        <ele>1467.6</ele>
        <time>2022-09-13T16:35:54Z</time>
      </trkpt>
      <trkpt lat="42.086635" lon="9.156115">
        <ele>1468.4</ele>
        <time>2022-09-13T16:36:19Z</time>
      </trkpt>
      <trkpt lat="42.086615" lon="9.156078">
        <ele>1468.2</ele>
        <time>2022-09-13T16:36:28Z</time>
      </trkpt>
      <trkpt lat="42.086577" lon="9.15595">
        <ele>1468.4</ele>
        <time>2022-09-13T16:36:53Z</time>
      </trkpt>
      <trkpt lat="42.086535" lon="9.15587">
        <ele>1468.6</ele>
        <time>2022-09-13T16:37:03Z</time>
      </trkpt>
      <trkpt lat="42.086445" lon="9.155613">
        <ele>1469.4</ele>
        <time>2022-09-13T16:37:27Z</time>
      </trkpt>
      <trkpt lat="42.08644" lon="9.155597">
        <ele>1469.4</ele>
        <time>2022-09-13T16:37:28Z</time>
      </trkpt>
      <trkpt lat="42.086313" lon="9.15523">
        <ele>1468.4</ele>
        <time>2022-09-13T16:37:51Z</time>
      </trkpt>
      <trkpt lat="42.086242" lon="9.154945">
        <ele>1467.6</ele>
        <time>2022-09-13T16:38:03Z</time>
      </trkpt>
      <trkpt lat="42.08621" lon="9.154777">
        <ele>1467.2</ele>
        <time>2022-09-13T16:38:09Z</time>
      </trkpt>
      <trkpt lat="42.086172" lon="9.154677">
        <ele>1467.2</ele>
        <time>2022-09-13T16:38:12Z</time>
      </trkpt>
      <trkpt lat="42.086033" lon="9.154418">
        <ele>1467.0</ele>
        <time>2022-09-13T16:38:20Z</time>
      </trkpt>
      <trkpt lat="42.085943" lon="9.154258">
        <ele>1467.0</ele>
        <time>2022-09-13T16:38:25Z</time>
      </trkpt>
      <trkpt lat="42.085893" lon="9.15422">
        <ele>1467.0</ele>
        <time>2022-09-13T16:38:26Z</time>
      </trkpt>
      <trkpt lat="42.08581" lon="9.154205">
        <ele>1467.0</ele>
        <time>2022-09-13T16:38:30Z</time>
      </trkpt>
      <trkpt lat="42.085727" lon="9.15422">
        <ele>1467.0</ele>
        <time>2022-09-13T16:38:34Z</time>
      </trkpt>
      <trkpt lat="42.085732" lon="9.154253">
        <ele>1467.0</ele>
        <time>2022-09-13T16:38:34Z</time>
      </trkpt>
      <trkpt lat="42.085753" lon="9.15435">
        <ele>1467.0</ele>
        <time>2022-09-13T16:38:37Z</time>
      </trkpt>
      <trkpt lat="42.085792" lon="9.154493">
        <ele>1467.2</ele>
        <time>2022-09-13T16:38:42Z</time>
      </trkpt>
      <trkpt lat="42.085787" lon="9.154583">
        <ele>1467.8</ele>
        <time>2022-09-13T16:38:47Z</time>
      </trkpt>
      <trkpt lat="42.085768" lon="9.154718">
        <ele>1468.4</ele>
        <time>2022-09-13T16:38:52Z</time>
      </trkpt>
      <trkpt lat="42.08575" lon="9.154777">
        <ele>1469.2</ele>
        <time>2022-09-13T16:38:55Z</time>
      </trkpt>
      <trkpt lat="42.085712" lon="9.154795">
        <ele>1470.2</ele>
        <time>2022-09-13T16:39:00Z</time>
      </trkpt>
      <trkpt lat="42.085688" lon="9.154687">
        <ele>1471.6</ele>
        <time>2022-09-13T16:39:07Z</time>
      </trkpt>
      <trkpt lat="42.085633" lon="9.154675">
        <ele>1473.4</ele>
        <time>2022-09-13T16:39:17Z</time>
      </trkpt>
      <trkpt lat="42.085623" lon="9.154652">
        <ele>1474.0</ele>
        <time>2022-09-13T16:39:20Z</time>
      </trkpt>
      <trkpt lat="42.085582" lon="9.154758">
        <ele>1475.4</ele>
        <time>2022-09-13T16:39:29Z</time>
      </trkpt>
      <trkpt lat="42.085572" lon="9.154683">
        <ele>1476.4</ele>
        <time>2022-09-13T16:39:36Z</time>
      </trkpt>
      <trkpt lat="42.085552" lon="9.154717">
        <ele>1477.2</ele>
        <time>2022-09-13T16:39:40Z</time>
      </trkpt>
      <trkpt lat="42.085547" lon="9.15471">
        <ele>1477.4</ele>
        <time>2022-09-13T16:39:42Z</time>
      </trkpt>
      <trkpt lat="42.085525" lon="9.15467">
        <ele>1478.4</ele>
        <time>2022-09-13T16:39:48Z</time>
      </trkpt>
      <trkpt lat="42.085498" lon="9.154603">
        <ele>1479.2</ele>
        <time>2022-09-13T16:39:58Z</time>
      </trkpt>
      <trkpt lat="42.085473" lon="9.154555">
        <ele>1480.8</ele>
        <time>2022-09-13T16:40:06Z</time>
      </trkpt>
      <trkpt lat="42.08542" lon="9.154418">
        <ele>1482.8</ele>
        <time>2022-09-13T16:40:21Z</time>
      </trkpt>
      <trkpt lat="42.085383" lon="9.154343">
        <ele>1484.0</ele>
        <time>2022-09-13T16:40:30Z</time>
      </trkpt>
      <trkpt lat="42.085403" lon="9.15432">
        <ele>1484.6</ele>
        <time>2022-09-13T16:40:34Z</time>
      </trkpt>
      <trkpt lat="42.085465" lon="9.154273">
        <ele>1486.2</ele>
        <time>2022-09-13T16:40:44Z</time>
      </trkpt>
      <trkpt lat="42.085482" lon="9.154237">
        <ele>1487.2</ele>
        <time>2022-09-13T16:40:49Z</time>
      </trkpt>
      <trkpt lat="42.08548" lon="9.154238">
        <ele>1487.2</ele>
        <time>2022-09-13T16:40:49Z</time>
      </trkpt>
      <trkpt lat="42.085288" lon="9.15433">
        <ele>1493.0</ele>
        <time>2022-09-13T16:41:26Z</time>
      </trkpt>
      <trkpt lat="42.085263" lon="9.1544">
        <ele>1494.4</ele>
        <time>2022-09-13T16:41:36Z</time>
      </trkpt>
      <trkpt lat="42.085215" lon="9.15441">
        <ele>1495.4</ele>
        <time>2022-09-13T16:41:44Z</time>
      </trkpt>
      <trkpt lat="42.085183" lon="9.154445">
        <ele>1496.8</ele>
        <time>2022-09-13T16:41:52Z</time>
      </trkpt>
      <trkpt lat="42.085145" lon="9.154542">
        <ele>1498.8</ele>
        <time>2022-09-13T16:42:03Z</time>
      </trkpt>
      <trkpt lat="42.085107" lon="9.154622">
        <ele>1500.2</ele>
        <time>2022-09-13T16:42:13Z</time>
      </trkpt>
      <trkpt lat="42.085033" lon="9.154612">
        <ele>1501.4</ele>
        <time>2022-09-13T16:42:21Z</time>
      </trkpt>
      <trkpt lat="42.084935" lon="9.15463">
        <ele>1503.2</ele>
        <time>2022-09-13T16:42:33Z</time>
      </trkpt>
      <trkpt lat="42.084928" lon="9.154628">
        <ele>1503.2</ele>
        <time>2022-09-13T16:42:33Z</time>
      </trkpt>
      <trkpt lat="42.084895" lon="9.154613">
        <ele>1504.2</ele>
        <time>2022-09-13T16:42:39Z</time>
      </trkpt>
      <trkpt lat="42.084915" lon="9.15449">
        <ele>1506.2</ele>
        <time>2022-09-13T16:42:52Z</time>
      </trkpt>
      <trkpt lat="42.084928" lon="9.154423">
        <ele>1507.0</ele>
        <time>2022-09-13T16:42:58Z</time>
      </trkpt>
      <trkpt lat="42.084893" lon="9.154352">
        <ele>1509.2</ele>
        <time>2022-09-13T16:43:07Z</time>
      </trkpt>
      <trkpt lat="42.08487" lon="9.154312">
        <ele>1509.6</ele>
        <time>2022-09-13T16:43:13Z</time>
      </trkpt>
      <trkpt lat="42.084885" lon="9.15423">
        <ele>1510.4</ele>
        <time>2022-09-13T16:43:22Z</time>
      </trkpt>
      <trkpt lat="42.084845" lon="9.154187">
        <ele>1512.0</ele>
        <time>2022-09-13T16:43:31Z</time>
      </trkpt>
      <trkpt lat="42.08485" lon="9.154192">
        <ele>1512.0</ele>
        <time>2022-09-13T16:43:32Z</time>
      </trkpt>
      <trkpt lat="42.084857" lon="9.154223">
        <ele>1512.8</ele>
        <time>2022-09-13T16:43:38Z</time>
      </trkpt>
      <trkpt lat="42.084805" lon="9.154303">
        <ele>1516.6</ele>
        <time>2022-09-13T16:44:09Z</time>
      </trkpt>
      <trkpt lat="42.084792" lon="9.154337">
        <ele>1517.6</ele>
        <time>2022-09-13T16:44:18Z</time>
      </trkpt>
      <trkpt lat="42.084757" lon="9.154372">
        <ele>1519.4</ele>
        <time>2022-09-13T16:44:33Z</time>
      </trkpt>
      <trkpt lat="42.084775" lon="9.154435">
        <ele>1521.4</ele>
        <time>2022-09-13T16:44:48Z</time>
      </trkpt>
      <trkpt lat="42.08476" lon="9.154447">
        <ele>1521.8</ele>
        <time>2022-09-13T16:44:55Z</time>
      </trkpt>
      <trkpt lat="42.084738" lon="9.154198">
        <ele>1525.4</ele>
        <time>2022-09-13T16:45:23Z</time>
      </trkpt>
      <trkpt lat="42.084637" lon="9.154105">
        <ele>1527.6</ele>
        <time>2022-09-13T16:45:43Z</time>
      </trkpt>
      <trkpt lat="42.084542" lon="9.154025">
        <ele>1529.8</ele>
        <time>2022-09-13T16:45:59Z</time>
      </trkpt>
      <trkpt lat="42.084538" lon="9.154035">
        <ele>1529.8</ele>
        <time>2022-09-13T16:46:00Z</time>
      </trkpt>
      <trkpt lat="42.084493" lon="9.15438">
        <ele>1534.4</ele>
        <time>2022-09-13T16:46:33Z</time>
      </trkpt>
      <trkpt lat="42.08446" lon="9.154358">
        <ele>1535.8</ele>
        <time>2022-09-13T16:46:41Z</time>
      </trkpt>
      <trkpt lat="42.08434" lon="9.154427">
        <ele>1539.0</ele>
        <time>2022-09-13T16:47:05Z</time>
      </trkpt>
      <trkpt lat="42.084282" lon="9.154443">
        <ele>1541.0</ele>
        <time>2022-09-13T16:47:18Z</time>
      </trkpt>
      <trkpt lat="42.084175" lon="9.154518">
        <ele>1544.2</ele>
        <time>2022-09-13T16:47:43Z</time>
      </trkpt>
      <trkpt lat="42.08417" lon="9.154522">
        <ele>1544.2</ele>
        <time>2022-09-13T16:47:44Z</time>
      </trkpt>
      <trkpt lat="42.084127" lon="9.154552">
        <ele>1544.0</ele>
        <time>2022-09-13T16:47:52Z</time>
      </trkpt>
      <trkpt lat="42.08405" lon="9.154588">
        <ele>1545.4</ele>
        <time>2022-09-13T16:48:22Z</time>
      </trkpt>
      <trkpt lat="42.084003" lon="9.1546">
        <ele>1546.6</ele>
        <time>2022-09-13T16:48:31Z</time>
      </trkpt>
      <trkpt lat="42.083935" lon="9.154597">
        <ele>1548.4</ele>
        <time>2022-09-13T16:48:42Z</time>
      </trkpt>
      <trkpt lat="42.083917" lon="9.154585">
        <ele>1549.2</ele>
        <time>2022-09-13T16:48:46Z</time>
      </trkpt>
      <trkpt lat="42.083912" lon="9.154655">
        <ele>1552.0</ele>
        <time>2022-09-13T16:49:09Z</time>
      </trkpt>
      <trkpt lat="42.083907" lon="9.154713">
        <ele>1552.4</ele>
        <time>2022-09-13T16:49:16Z</time>
      </trkpt>
      <trkpt lat="42.083885" lon="9.154783">
        <ele>1553.6</ele>
        <time>2022-09-13T16:49:25Z</time>
      </trkpt>
      <trkpt lat="42.083898" lon="9.154818">
        <ele>1554.0</ele>
        <time>2022-09-13T16:49:29Z</time>
      </trkpt>
      <trkpt lat="42.083895" lon="9.154915">
        <ele>1555.2</ele>
        <time>2022-09-13T16:49:39Z</time>
      </trkpt>
      <trkpt lat="42.083892" lon="9.155068">
        <ele>1556.2</ele>
        <time>2022-09-13T16:49:57Z</time>
      </trkpt>
      <trkpt lat="42.083733" lon="9.155038">
        <ele>1556.2</ele>
        <time>2022-09-13T16:50:11Z</time>
      </trkpt>
      <trkpt lat="42.083517" lon="9.154823">
        <ele>1560.2</ele>
        <time>2022-09-13T16:51:15Z</time>
      </trkpt>
      <trkpt lat="42.083473" lon="9.154402">
        <ele>1562.2</ele>
        <time>2022-09-13T16:51:33Z</time>
      </trkpt>
      <trkpt lat="42.083422" lon="9.154488">
        <ele>1562.6</ele>
        <time>2022-09-13T16:51:37Z</time>
      </trkpt>
      <trkpt lat="42.083358" lon="9.154565">
        <ele>1562.8</ele>
        <time>2022-09-13T16:51:44Z</time>
      </trkpt>
      <trkpt lat="42.083262" lon="9.154688">
        <ele>1564.0</ele>
        <time>2022-09-13T16:51:55Z</time>
      </trkpt>
      <trkpt lat="42.083213" lon="9.154802">
        <ele>1564.8</ele>
        <time>2022-09-13T16:52:04Z</time>
      </trkpt>
      <trkpt lat="42.083158" lon="9.154852">
        <ele>1565.4</ele>
        <time>2022-09-13T16:52:12Z</time>
      </trkpt>
      <trkpt lat="42.083145" lon="9.154897">
        <ele>1566.8</ele>
        <time>2022-09-13T16:52:24Z</time>
      </trkpt>
      <trkpt lat="42.083145" lon="9.154973">
        <ele>1566.8</ele>
        <time>2022-09-13T16:52:49Z</time>
      </trkpt>
      <trkpt lat="42.083095" lon="9.155052">
        <ele>1569.4</ele>
        <time>2022-09-13T16:53:15Z</time>
      </trkpt>
      <trkpt lat="42.083087" lon="9.155098">
        <ele>1570.0</ele>
        <time>2022-09-13T16:53:23Z</time>
      </trkpt>
      <trkpt lat="42.08307" lon="9.155175">
        <ele>1571.0</ele>
        <time>2022-09-13T16:53:30Z</time>
      </trkpt>
      <trkpt lat="42.08304" lon="9.155287">
        <ele>1572.2</ele>
        <time>2022-09-13T16:53:39Z</time>
      </trkpt>
      <trkpt lat="42.083037" lon="9.155298">
        <ele>1572.2</ele>
        <time>2022-09-13T16:53:40Z</time>
      </trkpt>
      <trkpt lat="42.082997" lon="9.155398">
        <ele>1573.4</ele>
        <time>2022-09-13T16:53:50Z</time>
      </trkpt>
      <trkpt lat="42.082965" lon="9.155457">
        <ele>1573.8</ele>
        <time>2022-09-13T16:53:57Z</time>
      </trkpt>
      <trkpt lat="42.082898" lon="9.155615">
        <ele>1575.4</ele>
        <time>2022-09-13T16:54:14Z</time>
      </trkpt>
      <trkpt lat="42.082872" lon="9.155792">
        <ele>1576.6</ele>
        <time>2022-09-13T16:54:29Z</time>
      </trkpt>
      <trkpt lat="42.082848" lon="9.155782">
        <ele>1576.6</ele>
        <time>2022-09-13T16:54:33Z</time>
      </trkpt>
      <trkpt lat="42.082813" lon="9.155733">
        <ele>1577.8</ele>
        <time>2022-09-13T16:54:42Z</time>
      </trkpt>
      <trkpt lat="42.082775" lon="9.155718">
        <ele>1578.8</ele>
        <time>2022-09-13T16:54:51Z</time>
      </trkpt>
      <trkpt lat="42.082752" lon="9.155682">
        <ele>1579.0</ele>
        <time>2022-09-13T16:54:56Z</time>
      </trkpt>
      <trkpt lat="42.082657" lon="9.155468">
        <ele>1581.2</ele>
        <time>2022-09-13T16:55:24Z</time>
      </trkpt>
      <trkpt lat="42.082655" lon="9.155482">
        <ele>1581.2</ele>
        <time>2022-09-13T16:55:24Z</time>
      </trkpt>
      <trkpt lat="42.082628" lon="9.155572">
        <ele>1581.4</ele>
        <time>2022-09-13T16:55:31Z</time>
      </trkpt>
      <trkpt lat="42.082577" lon="9.155703">
        <ele>1583.0</ele>
        <time>2022-09-13T16:55:44Z</time>
      </trkpt>
      <trkpt lat="42.082527" lon="9.155812">
        <ele>1584.0</ele>
        <time>2022-09-13T16:55:53Z</time>
      </trkpt>
      <trkpt lat="42.082527" lon="9.155855">
        <ele>1584.4</ele>
        <time>2022-09-13T16:55:56Z</time>
      </trkpt>
      <trkpt lat="42.08256" lon="9.155988">
        <ele>1585.4</ele>
        <time>2022-09-13T16:56:06Z</time>
      </trkpt>
      <trkpt lat="42.082573" lon="9.156017">
        <ele>1585.4</ele>
        <time>2022-09-13T16:56:10Z</time>
      </trkpt>
      <trkpt lat="42.082512" lon="9.155915">
        <ele>1585.8</ele>
        <time>2022-09-13T16:56:23Z</time>
      </trkpt>
      <trkpt lat="42.082482" lon="9.155648">
        <ele>1586.4</ele>
        <time>2022-09-13T16:56:53Z</time>
      </trkpt>
      <trkpt lat="42.08244" lon="9.15558">
        <ele>1586.8</ele>
        <time>2022-09-13T16:56:58Z</time>
      </trkpt>
      <trkpt lat="42.082392" lon="9.155622">
        <ele>1588.0</ele>
        <time>2022-09-13T16:57:05Z</time>
      </trkpt>
      <trkpt lat="42.082357" lon="9.155627">
        <ele>1588.6</ele>
        <time>2022-09-13T16:57:11Z</time>
      </trkpt>
      <trkpt lat="42.082325" lon="9.155647">
        <ele>1589.4</ele>
        <time>2022-09-13T16:57:20Z</time>
      </trkpt>
      <trkpt lat="42.08229" lon="9.155727">
        <ele>1591.4</ele>
        <time>2022-09-13T16:57:34Z</time>
      </trkpt>
      <trkpt lat="42.082252" lon="9.15579">
        <ele>1591.2</ele>
        <time>2022-09-13T16:57:45Z</time>
      </trkpt>
      <trkpt lat="42.082203" lon="9.15584">
        <ele>1591.6</ele>
        <time>2022-09-13T16:57:54Z</time>
      </trkpt>
      <trkpt lat="42.082145" lon="9.155872">
        <ele>1592.8</ele>
        <time>2022-09-13T16:58:05Z</time>
      </trkpt>
      <trkpt lat="42.082145" lon="9.155883">
        <ele>1592.8</ele>
        <time>2022-09-13T16:58:07Z</time>
      </trkpt>
      <trkpt lat="42.08215" lon="9.155853">
        <ele>1593.6</ele>
        <time>2022-09-13T16:58:12Z</time>
      </trkpt>
      <trkpt lat="42.082152" lon="9.155783">
        <ele>1592.0</ele>
        <time>2022-09-13T16:58:39Z</time>
      </trkpt>
      <trkpt lat="42.082167" lon="9.155475">
        <ele>1592.2</ele>
        <time>2022-09-13T16:59:22Z</time>
      </trkpt>
      <trkpt lat="42.081628" lon="9.155607">
        <ele>1591.8</ele>
        <time>2022-09-13T17:00:59Z</time>
      </trkpt>
      <trkpt lat="42.081662" lon="9.155592">
        <ele>1593.2</ele>
        <time>2022-09-13T17:01:27Z</time>
      </trkpt>
      <trkpt lat="42.08168" lon="9.155612">
        <ele>1593.4</ele>
        <time>2022-09-13T17:01:38Z</time>
      </trkpt>
      <trkpt lat="42.081683" lon="9.15561">
        <ele>1593.4</ele>
        <time>2022-09-13T17:01:39Z</time>
      </trkpt>
      <trkpt lat="42.081702" lon="9.155577">
        <ele>1594.4</ele>
        <time>2022-09-13T17:01:48Z</time>
      </trkpt>
      <trkpt lat="42.081705" lon="9.15557">
        <ele>1595.0</ele>
        <time>2022-09-13T17:01:55Z</time>
      </trkpt>
      <trkpt lat="42.081698" lon="9.155572">
        <ele>1595.6</ele>
        <time>2022-09-13T17:02:02Z</time>
      </trkpt>
      <trkpt lat="42.081685" lon="9.155508">
        <ele>1598.2</ele>
        <time>2022-09-13T17:02:30Z</time>
      </trkpt>
      <trkpt lat="42.08158" lon="9.155575">
        <ele>1599.8</ele>
        <time>2022-09-13T17:02:47Z</time>
      </trkpt>
      <trkpt lat="42.081473" lon="9.155702">
        <ele>1601.2</ele>
        <time>2022-09-13T17:03:02Z</time>
      </trkpt>
      <trkpt lat="42.081363" lon="9.155722">
        <ele>1601.8</ele>
        <time>2022-09-13T17:03:15Z</time>
      </trkpt>
      <trkpt lat="42.081333" lon="9.155735">
        <ele>1602.4</ele>
        <time>2022-09-13T17:03:20Z</time>
      </trkpt>
      <trkpt lat="42.081287" lon="9.1557">
        <ele>1603.4</ele>
        <time>2022-09-13T17:03:27Z</time>
      </trkpt>
      <trkpt lat="42.081285" lon="9.155707">
        <ele>1603.4</ele>
        <time>2022-09-13T17:03:28Z</time>
      </trkpt>
      <trkpt lat="42.081268" lon="9.155758">
        <ele>1604.6</ele>
        <time>2022-09-13T17:03:36Z</time>
      </trkpt>
      <trkpt lat="42.081247" lon="9.155803">
        <ele>1605.6</ele>
        <time>2022-09-13T17:03:44Z</time>
      </trkpt>
      <trkpt lat="42.08124" lon="9.155873">
        <ele>1607.2</ele>
        <time>2022-09-13T17:04:02Z</time>
      </trkpt>
      <trkpt lat="42.081212" lon="9.155915">
        <ele>1608.6</ele>
        <time>2022-09-13T17:04:19Z</time>
      </trkpt>
      <trkpt lat="42.081215" lon="9.155908">
        <ele>1608.6</ele>
        <time>2022-09-13T17:04:20Z</time>
      </trkpt>
      <trkpt lat="42.08123" lon="9.155847">
        <ele>1609.0</ele>
        <time>2022-09-13T17:04:27Z</time>
      </trkpt>
      <trkpt lat="42.081238" lon="9.155738">
        <ele>1610.0</ele>
        <time>2022-09-13T17:04:40Z</time>
      </trkpt>
      <trkpt lat="42.081265" lon="9.155702">
        <ele>1610.8</ele>
        <time>2022-09-13T17:04:47Z</time>
      </trkpt>
      <trkpt lat="42.081242" lon="9.155612">
        <ele>1612.4</ele>
        <time>2022-09-13T17:05:00Z</time>
      </trkpt>
      <trkpt lat="42.081215" lon="9.155548">
        <ele>1613.4</ele>
        <time>2022-09-13T17:05:10Z</time>
      </trkpt>
      <trkpt lat="42.081157" lon="9.155482">
        <ele>1615.2</ele>
        <time>2022-09-13T17:05:22Z</time>
      </trkpt>
      <trkpt lat="42.081083" lon="9.155413">
        <ele>1617.6</ele>
        <time>2022-09-13T17:05:39Z</time>
      </trkpt>
      <trkpt lat="42.08102" lon="9.155358">
        <ele>1620.0</ele>
        <time>2022-09-13T17:05:59Z</time>
      </trkpt>
      <trkpt lat="42.081018" lon="9.155348">
        <ele>1620.4</ele>
        <time>2022-09-13T17:06:02Z</time>
      </trkpt>
      <trkpt lat="42.080992" lon="9.155318">
        <ele>1622.6</ele>
        <time>2022-09-13T17:06:14Z</time>
      </trkpt>
      <trkpt lat="42.080872" lon="9.155332">
        <ele>1625.2</ele>
        <time>2022-09-13T17:06:31Z</time>
      </trkpt>
      <trkpt lat="42.080852" lon="9.155265">
        <ele>1625.8</ele>
        <time>2022-09-13T17:06:41Z</time>
      </trkpt>
      <trkpt lat="42.080703" lon="9.154423">
        <ele>1626.8</ele>
        <time>2022-09-13T17:06:55Z</time>
      </trkpt>
      <trkpt lat="42.080688" lon="9.154568">
        <ele>1627.6</ele>
        <time>2022-09-13T17:07:06Z</time>
      </trkpt>
      <trkpt lat="42.080567" lon="9.154517">
        <ele>1628.2</ele>
        <time>2022-09-13T17:07:18Z</time>
      </trkpt>
      <trkpt lat="42.080465" lon="9.154453">
        <ele>1628.2</ele>
        <time>2022-09-13T17:07:24Z</time>
      </trkpt>
      <trkpt lat="42.080392" lon="9.154387">
        <ele>1628.4</ele>
        <time>2022-09-13T17:07:35Z</time>
      </trkpt>
      <trkpt lat="42.080237" lon="9.154223">
        <ele>1629.6</ele>
        <time>2022-09-13T17:08:03Z</time>
      </trkpt>
      <trkpt lat="42.080183" lon="9.154183">
        <ele>1630.6</ele>
        <time>2022-09-13T17:08:12Z</time>
      </trkpt>
      <trkpt lat="42.080132" lon="9.154175">
        <ele>1631.2</ele>
        <time>2022-09-13T17:08:21Z</time>
      </trkpt>
      <trkpt lat="42.08012" lon="9.154177">
        <ele>1631.2</ele>
        <time>2022-09-13T17:08:23Z</time>
      </trkpt>
      <trkpt lat="42.08017" lon="9.154098">
        <ele>1631.2</ele>
        <time>2022-09-13T17:08:30Z</time>
      </trkpt>
      <trkpt lat="42.080178" lon="9.154063">
        <ele>1631.2</ele>
        <time>2022-09-13T17:08:32Z</time>
      </trkpt>
      <trkpt lat="42.080172" lon="9.154023">
        <ele>1631.2</ele>
        <time>2022-09-13T17:08:34Z</time>
      </trkpt>
      <trkpt lat="42.080045" lon="9.153883">
        <ele>1631.4</ele>
        <time>2022-09-13T17:08:45Z</time>
      </trkpt>
      <trkpt lat="42.08004" lon="9.153832">
        <ele>1631.2</ele>
        <time>2022-09-13T17:08:48Z</time>
      </trkpt>
      <trkpt lat="42.080033" lon="9.153688">
        <ele>1629.0</ele>
        <time>2022-09-13T17:08:58Z</time>
      </trkpt>
      <trkpt lat="42.08003" lon="9.15368">
        <ele>1628.8</ele>
        <time>2022-09-13T17:09:00Z</time>
      </trkpt>
      <trkpt lat="42.079963" lon="9.153677">
        <ele>1628.2</ele>
        <time>2022-09-13T17:09:07Z</time>
      </trkpt>
      <trkpt lat="42.079907" lon="9.153822">
        <ele>1627.4</ele>
        <time>2022-09-13T17:09:33Z</time>
      </trkpt>
      <trkpt lat="42.079877" lon="9.153812">
        <ele>1627.4</ele>
        <time>2022-09-13T17:09:46Z</time>
      </trkpt>
      <trkpt lat="42.079865" lon="9.153787">
        <ele>1625.2</ele>
        <time>2022-09-13T17:10:05Z</time>
      </trkpt>
      <trkpt lat="42.079883" lon="9.153768">
        <ele>1623.8</ele>
        <time>2022-09-13T17:10:13Z</time>
      </trkpt>
      <trkpt lat="42.079857" lon="9.153692">
        <ele>1624.2</ele>
        <time>2022-09-13T17:10:20Z</time>
      </trkpt>
      <trkpt lat="42.07975" lon="9.153605">
        <ele>1624.0</ele>
        <time>2022-09-13T17:10:30Z</time>
      </trkpt>
      <trkpt lat="42.079652" lon="9.153417">
        <ele>1622.6</ele>
        <time>2022-09-13T17:10:44Z</time>
      </trkpt>
      <trkpt lat="42.079592" lon="9.153338">
        <ele>1621.4</ele>
        <time>2022-09-13T17:10:52Z</time>
      </trkpt>
      <trkpt lat="42.079458" lon="9.153228">
        <ele>1619.0</ele>
        <time>2022-09-13T17:11:09Z</time>
      </trkpt>
      <trkpt lat="42.079428" lon="9.153197">
        <ele>1618.6</ele>
        <time>2022-09-13T17:11:13Z</time>
      </trkpt>
      <trkpt lat="42.07935" lon="9.153015">
        <ele>1616.6</ele>
        <time>2022-09-13T17:11:27Z</time>
      </trkpt>
      <trkpt lat="42.0793" lon="9.152922">
        <ele>1615.6</ele>
        <time>2022-09-13T17:11:33Z</time>
      </trkpt>
      <trkpt lat="42.079278" lon="9.152805">
        <ele>1615.2</ele>
        <time>2022-09-13T17:11:59Z</time>
      </trkpt>
      <trkpt lat="42.079158" lon="9.152718">
        <ele>1614.4</ele>
        <time>2022-09-13T17:12:21Z</time>
      </trkpt>
      <trkpt lat="42.079087" lon="9.1527">
        <ele>1615.0</ele>
        <time>2022-09-13T17:12:26Z</time>
      </trkpt>
      <trkpt lat="42.079103" lon="9.152817">
        <ele>1615.0</ele>
        <time>2022-09-13T17:12:32Z</time>
      </trkpt>
      <trkpt lat="42.079053" lon="9.152822">
        <ele>1614.2</ele>
        <time>2022-09-13T17:13:09Z</time>
      </trkpt>
      <trkpt lat="42.07903" lon="9.15279">
        <ele>1614.2</ele>
        <time>2022-09-13T17:13:38Z</time>
      </trkpt>
      <trkpt lat="42.079015" lon="9.1528">
        <ele>1614.2</ele>
        <time>2022-09-13T17:13:55Z</time>
      </trkpt>
      <trkpt lat="42.079012" lon="9.152805">
        <ele>1614.2</ele>
        <time>2022-09-13T17:13:56Z</time>
      </trkpt>
      <trkpt lat="42.079002" lon="9.152692">
        <ele>1613.4</ele>
        <time>2022-09-13T17:15:02Z</time>
      </trkpt>
      <trkpt lat="42.078967" lon="9.152663">
        <ele>1612.6</ele>
        <time>2022-09-13T17:15:39Z</time>
      </trkpt>
      <trkpt lat="42.078937" lon="9.152592">
        <ele>1612.2</ele>
        <time>2022-09-13T17:15:53Z</time>
      </trkpt>
      <trkpt lat="42.078932" lon="9.152585">
        <ele>1611.8</ele>
        <time>2022-09-13T17:15:55Z</time>
      </trkpt>
      <trkpt lat="42.078878" lon="9.152512">
        <ele>1611.6</ele>
        <time>2022-09-13T17:16:03Z</time>
      </trkpt>
      <trkpt lat="42.078767" lon="9.152442">
        <ele>1609.6</ele>
        <time>2022-09-13T17:16:14Z</time>
      </trkpt>
      <trkpt lat="42.078683" lon="9.152397">
        <ele>1608.6</ele>
        <time>2022-09-13T17:16:22Z</time>
      </trkpt>
      <trkpt lat="42.078632" lon="9.152298">
        <ele>1608.4</ele>
        <time>2022-09-13T17:16:31Z</time>
      </trkpt>
      <trkpt lat="42.078568" lon="9.152273">
        <ele>1607.4</ele>
        <time>2022-09-13T17:16:38Z</time>
      </trkpt>
      <trkpt lat="42.078402" lon="9.152145">
        <ele>1606.4</ele>
        <time>2022-09-13T17:16:55Z</time>
      </trkpt>
      <trkpt lat="42.078392" lon="9.152062">
        <ele>1606.4</ele>
        <time>2022-09-13T17:17:01Z</time>
      </trkpt>
      <trkpt lat="42.078378" lon="9.151947">
        <ele>1606.2</ele>
        <time>2022-09-13T17:17:09Z</time>
      </trkpt>
      <trkpt lat="42.078353" lon="9.151793">
        <ele>1605.8</ele>
        <time>2022-09-13T17:17:22Z</time>
      </trkpt>
      <trkpt lat="42.078345" lon="9.151687">
        <ele>1606.6</ele>
        <time>2022-09-13T17:17:31Z</time>
      </trkpt>
      <trkpt lat="42.078323" lon="9.15163">
        <ele>1607.6</ele>
        <time>2022-09-13T17:17:36Z</time>
      </trkpt>
      <trkpt lat="42.078293" lon="9.151595">
        <ele>1608.0</ele>
        <time>2022-09-13T17:17:41Z</time>
      </trkpt>
      <trkpt lat="42.078257" lon="9.151532">
        <ele>1608.8</ele>
        <time>2022-09-13T17:17:50Z</time>
      </trkpt>
      <trkpt lat="42.078243" lon="9.151487">
        <ele>1609.6</ele>
        <time>2022-09-13T17:17:56Z</time>
      </trkpt>
      <trkpt lat="42.078207" lon="9.151458">
        <ele>1611.2</ele>
        <time>2022-09-13T17:18:07Z</time>
      </trkpt>
      <trkpt lat="42.078135" lon="9.151425">
        <ele>1609.0</ele>
        <time>2022-09-13T17:18:26Z</time>
      </trkpt>
      <trkpt lat="42.078107" lon="9.151405">
        <ele>1608.4</ele>
        <time>2022-09-13T17:18:31Z</time>
      </trkpt>
      <trkpt lat="42.07801" lon="9.151403">
        <ele>1606.8</ele>
        <time>2022-09-13T17:18:41Z</time>
      </trkpt>
      <trkpt lat="42.077947" lon="9.15137">
        <ele>1606.8</ele>
        <time>2022-09-13T17:18:47Z</time>
      </trkpt>
      <trkpt lat="42.077897" lon="9.15137">
        <ele>1606.8</ele>
        <time>2022-09-13T17:18:52Z</time>
      </trkpt>
      <trkpt lat="42.07788" lon="9.151312">
        <ele>1606.2</ele>
        <time>2022-09-13T17:18:57Z</time>
      </trkpt>
      <trkpt lat="42.077888" lon="9.151242">
        <ele>1606.0</ele>
        <time>2022-09-13T17:19:03Z</time>
      </trkpt>
      <trkpt lat="42.077877" lon="9.15119">
        <ele>1606.2</ele>
        <time>2022-09-13T17:19:08Z</time>
      </trkpt>
      <trkpt lat="42.077867" lon="9.151143">
        <ele>1605.2</ele>
        <time>2022-09-13T17:19:14Z</time>
      </trkpt>
      <trkpt lat="42.077873" lon="9.151032">
        <ele>1604.6</ele>
        <time>2022-09-13T17:19:26Z</time>
      </trkpt>
      <trkpt lat="42.07788" lon="9.15102">
        <ele>1604.6</ele>
        <time>2022-09-13T17:19:27Z</time>
      </trkpt>
      <trkpt lat="42.077887" lon="9.150958">
        <ele>1604.6</ele>
        <time>2022-09-13T17:19:31Z</time>
      </trkpt>
      <trkpt lat="42.077893" lon="9.150923">
        <ele>1605.0</ele>
        <time>2022-09-13T17:19:34Z</time>
      </trkpt>
      <trkpt lat="42.077862" lon="9.15084">
        <ele>1606.0</ele>
        <time>2022-09-13T17:19:42Z</time>
      </trkpt>
      <trkpt lat="42.077815" lon="9.150773">
        <ele>1606.6</ele>
        <time>2022-09-13T17:19:48Z</time>
      </trkpt>
      <trkpt lat="42.07781" lon="9.150693">
        <ele>1606.4</ele>
        <time>2022-09-13T17:19:52Z</time>
      </trkpt>
      <trkpt lat="42.077805" lon="9.150627">
        <ele>1606.6</ele>
        <time>2022-09-13T17:19:55Z</time>
      </trkpt>
      <trkpt lat="42.077775" lon="9.15048">
        <ele>1607.4</ele>
        <time>2022-09-13T17:20:02Z</time>
      </trkpt>
      <trkpt lat="42.077735" lon="9.150387">
        <ele>1608.0</ele>
        <time>2022-09-13T17:20:07Z</time>
      </trkpt>
      <trkpt lat="42.077717" lon="9.1503">
        <ele>1609.0</ele>
        <time>2022-09-13T17:20:15Z</time>
      </trkpt>
      <trkpt lat="42.077707" lon="9.150262">
        <ele>1609.4</ele>
        <time>2022-09-13T17:20:20Z</time>
      </trkpt>
      <trkpt lat="42.077678" lon="9.150235">
        <ele>1609.2</ele>
        <time>2022-09-13T17:20:27Z</time>
      </trkpt>
      <trkpt lat="42.077513" lon="9.150217">
        <ele>1604.2</ele>
        <time>2022-09-13T17:21:00Z</time>
      </trkpt>
      <trkpt lat="42.077507" lon="9.150217">
        <ele>1604.2</ele>
        <time>2022-09-13T17:21:01Z</time>
      </trkpt>
      <trkpt lat="42.077508" lon="9.150157">
        <ele>1603.8</ele>
        <time>2022-09-13T17:21:08Z</time>
      </trkpt>
      <trkpt lat="42.077532" lon="9.150072">
        <ele>1603.4</ele>
        <time>2022-09-13T17:21:17Z</time>
      </trkpt>
      <trkpt lat="42.077593" lon="9.149927">
        <ele>1603.8</ele>
        <time>2022-09-13T17:21:36Z</time>
      </trkpt>
      <trkpt lat="42.077585" lon="9.149882">
        <ele>1603.4</ele>
        <time>2022-09-13T17:21:43Z</time>
      </trkpt>
      <trkpt lat="42.07755" lon="9.149875">
        <ele>1602.6</ele>
        <time>2022-09-13T17:21:50Z</time>
      </trkpt>
      <trkpt lat="42.077527" lon="9.149845">
        <ele>1601.4</ele>
        <time>2022-09-13T17:21:57Z</time>
      </trkpt>
      <trkpt lat="42.077463" lon="9.149862">
        <ele>1601.0</ele>
        <time>2022-09-13T17:22:09Z</time>
      </trkpt>
      <trkpt lat="42.077445" lon="9.149835">
        <ele>1600.6</ele>
        <time>2022-09-13T17:22:14Z</time>
      </trkpt>
      <trkpt lat="42.077422" lon="9.149902">
        <ele>1598.8</ele>
        <time>2022-09-13T17:22:25Z</time>
      </trkpt>
      <trkpt lat="42.077392" lon="9.150007">
        <ele>1598.4</ele>
        <time>2022-09-13T17:22:42Z</time>
      </trkpt>
      <trkpt lat="42.07735" lon="9.150068">
        <ele>1597.8</ele>
        <time>2022-09-13T17:22:54Z</time>
      </trkpt>
      <trkpt lat="42.077335" lon="9.150093">
        <ele>1597.8</ele>
        <time>2022-09-13T17:22:57Z</time>
      </trkpt>
      <trkpt lat="42.077095" lon="9.15021">
        <ele>1597.8</ele>
        <time>2022-09-13T17:22:57Z</time>
      </trkpt>
      <trkpt lat="42.0777679" lon="9.1505384">
        <ele>1624.2</ele>
      </trkpt>
      <trkpt lat="42.0776783" lon="9.1503721">
        <ele>1622</ele>
      </trkpt>
      <trkpt lat="42.0776126" lon="9.1502032">
        <ele>1617.8</ele>
      </trkpt>
      <trkpt lat="42.0775589" lon="9.1500878">
        <ele>1614.2</ele>
      </trkpt>
      <trkpt lat="42.077525" lon="9.1500181">
        <ele>1612.2</ele>
      </trkpt>
      <trkpt lat="42.0774434" lon="9.1500154">
        <ele>1608.2</ele>
      </trkpt>
      <trkpt lat="42.077314" lon="9.1501254">
        <ele>1603</ele>
      </trkpt>
      <trkpt lat="42.0772682" lon="9.150171">
        <ele>1600</ele>
      </trkpt>
      <trkpt lat="42.0770512" lon="9.1502756">
        <ele>1595.5</ele>
      </trkpt>
      <trkpt lat="42.0768999" lon="9.1501415">
        <ele>1594.2</ele>
      </trkpt>
      <trkpt lat="42.0766391" lon="9.1500261">
        <ele>1594</ele>
      </trkpt>
      <trkpt lat="42.0765137" lon="9.1503051">
        <ele>1594</ele>
      </trkpt>
      <trkpt lat="42.0763325" lon="9.1500288">
        <ele>1602.5</ele>
      </trkpt>
      <trkpt lat="42.0762987" lon="9.150002">
        <ele>1604</ele>
      </trkpt>
      <trkpt lat="42.0762808" lon="9.1500342">
        <ele>1604.8</ele>
      </trkpt>
      <trkpt lat="42.0762887" lon="9.1500825">
        <ele>1604.2</ele>
      </trkpt>
      <trkpt lat="42.0762589" lon="9.1500905">
        <ele>1605.5</ele>
      </trkpt>
      <trkpt lat="42.0761872" lon="9.1500342">
        <ele>1608.2</ele>
      </trkpt>
      <trkpt lat="42.0760359" lon="9.150112">
        <ele>1614.2</ele>
      </trkpt>
      <trkpt lat="42.076004" lon="9.1500288">
        <ele>1615.5</ele>
      </trkpt>
      <trkpt lat="42.0759443" lon="9.1500744">
        <ele>1618.2</ele>
      </trkpt>
      <trkpt lat="42.0758647" lon="9.1500396">
        <ele>1622.2</ele>
      </trkpt>
      <trkpt lat="42.0758109" lon="9.1501549">
        <ele>1625.5</ele>
      </trkpt>
      <trkpt lat="42.0757552" lon="9.1500771">
        <ele>1628.2</ele>
      </trkpt>
      <trkpt lat="42.0756855" lon="9.1501361">
        <ele>1632.5</ele>
      </trkpt>
      <trkpt lat="42.075564" lon="9.1499484">
        <ele>1637.8</ele>
      </trkpt>
      <trkpt lat="42.0753829" lon="9.1495568">
        <ele>1643.5</ele>
      </trkpt>
      <trkpt lat="42.0753351" lon="9.1493046">
        <ele>1644.5</ele>
      </trkpt>
      <trkpt lat="42.0753331" lon="9.1487092">
        <ele>1652.5</ele>
      </trkpt>
      <trkpt lat="42.0751559" lon="9.1480869">
        <ele>1667.2</ele>
      </trkpt>
      <trkpt lat="42.0750524" lon="9.1480547">
        <ele>1674</ele>
      </trkpt>
      <trkpt lat="42.0749707" lon="9.1479877">
        <ele>1679</ele>
      </trkpt>
      <trkpt lat="42.0748931" lon="9.1477168">
        <ele>1685.2</ele>
      </trkpt>
      <trkpt lat="42.0748015" lon="9.1475505">
        <ele>1691</ele>
      </trkpt>
      <trkpt lat="42.0747358" lon="9.1475531">
        <ele>1694.2</ele>
      </trkpt>
      <trkpt lat="42.0746562" lon="9.147647">
        <ele>1697.8</ele>
      </trkpt>
      <trkpt lat="42.0745009" lon="9.1479313">
        <ele>1705</ele>
      </trkpt>
      <trkpt lat="42.0744113" lon="9.1484383">
        <ele>1706.4</ele>
      </trkpt>
      <trkpt lat="42.0743436" lon="9.1487306">
        <ele>1707.2</ele>
      </trkpt>
      <trkpt lat="42.0742898" lon="9.1489103">
        <ele>1707</ele>
      </trkpt>
      <trkpt lat="42.0741783" lon="9.1488567">
        <ele>1712</ele>
      </trkpt>
      <trkpt lat="42.0741425" lon="9.1486797">
        <ele>1715.8</ele>
      </trkpt>
      <trkpt lat="42.0741425" lon="9.1484624">
        <ele>1719.2</ele>
      </trkpt>
      <trkpt lat="42.0740987" lon="9.1483337">
        <ele>1723</ele>
      </trkpt>
      <trkpt lat="42.0740768" lon="9.1481593">
        <ele>1726.2</ele>
      </trkpt>
      <trkpt lat="42.0740012" lon="9.147985">
        <ele>1729.5</ele>
      </trkpt>
      <trkpt lat="42.074043" lon="9.1478509">
        <ele>1730</ele>
      </trkpt>
      <trkpt lat="42.0739932" lon="9.1476926">
        <ele>1732</ele>
      </trkpt>
      <trkpt lat="42.0738996" lon="9.1475075">
        <ele>1734.5</ele>
      </trkpt>
      <trkpt lat="42.0737702" lon="9.14736">
        <ele>1736.2</ele>
      </trkpt>
      <trkpt lat="42.0736667" lon="9.1472501">
        <ele>1738.8</ele>
      </trkpt>
      <trkpt lat="42.0732764" lon="9.1466573">
        <ele>1758</ele>
      </trkpt>
      <trkpt lat="42.0731012" lon="9.1463649">
        <ele>1768.2</ele>
      </trkpt>
      <trkpt lat="42.0731371" lon="9.1461155">
        <ele>1778.2</ele>
      </trkpt>
      <trkpt lat="42.0732267" lon="9.1458955">
        <ele>1787.2</ele>
      </trkpt>
      <trkpt lat="42.0733322" lon="9.1454449">
        <ele>1805.8</ele>
      </trkpt>
      <trkpt lat="42.0733262" lon="9.1453725">
        <ele>1807.8</ele>
      </trkpt>
      <trkpt lat="42.073376" lon="9.145343">
        <ele>1808.5</ele>
      </trkpt>
      <trkpt lat="42.0733859" lon="9.1452625">
        <ele>1810</ele>
      </trkpt>
      <trkpt lat="42.0733382" lon="9.1451579">
        <ele>1812</ele>
      </trkpt>
      <trkpt lat="42.0732605" lon="9.1450989">
        <ele>1813.2</ele>
      </trkpt>
      <trkpt lat="42.0732545" lon="9.1449729">
        <ele>1816.5</ele>
      </trkpt>
      <trkpt lat="42.0732167" lon="9.144879">
        <ele>1819.2</ele>
      </trkpt>
      <trkpt lat="42.073143" lon="9.1448012">
        <ele>1823</ele>
      </trkpt>
      <trkpt lat="42.073163" lon="9.1447449">
        <ele>1824.5</ele>
      </trkpt>
      <trkpt lat="42.073153" lon="9.1446403">
        <ele>1828.2</ele>
      </trkpt>
      <trkpt lat="42.0731052" lon="9.1446295">
        <ele>1830</ele>
      </trkpt>
      <trkpt lat="42.0730773" lon="9.1445839">
        <ele>1832.2</ele>
      </trkpt>
      <trkpt lat="42.0730754" lon="9.1445196">
        <ele>1834.5</ele>
      </trkpt>
      <trkpt lat="42.0730355" lon="9.1445088">
        <ele>1835.8</ele>
      </trkpt>
      <trkpt lat="42.0730176" lon="9.1444606">
        <ele>1837.8</ele>
      </trkpt>
      <trkpt lat="42.0729181" lon="9.144356">
        <ele>1843</ele>
      </trkpt>
      <trkpt lat="42.0729041" lon="9.1442943">
        <ele>1845.2</ele>
      </trkpt>
      <trkpt lat="42.0728285" lon="9.1442674">
        <ele>1845.8</ele>
      </trkpt>
      <trkpt lat="42.0726274" lon="9.1439724">
        <ele>1855</ele>
      </trkpt>
      <trkpt lat="42.0725458" lon="9.1437793">
        <ele>1862.2</ele>
      </trkpt>
      <trkpt lat="42.0723686" lon="9.1436559">
        <ele>1865.2</ele>
      </trkpt>
      <trkpt lat="42.0723267" lon="9.1435459">
        <ele>1869.5</ele>
      </trkpt>
      <trkpt lat="42.0722451" lon="9.1434386">
        <ele>1872.2</ele>
      </trkpt>
      <trkpt lat="42.0721973" lon="9.1433099">
        <ele>1874.8</ele>
      </trkpt>
      <trkpt lat="42.0721933" lon="9.1432348">
        <ele>1876.2</ele>
      </trkpt>
      <trkpt lat="42.0721515" lon="9.1431355">
        <ele>1878</ele>
      </trkpt>
      <trkpt lat="42.0721376" lon="9.1430122">
        <ele>1881</ele>
      </trkpt>
      <trkpt lat="42.0720619" lon="9.1429022">
        <ele>1883</ele>
      </trkpt>
      <trkpt lat="42.0720022" lon="9.1428834">
        <ele>1883.4</ele>
      </trkpt>
      <trkpt lat="42.0719106" lon="9.1428217">
        <ele>1884</ele>
      </trkpt>
      <trkpt lat="42.0717991" lon="9.1427332">
        <ele>1885.5</ele>
      </trkpt>
      <trkpt lat="42.0717832" lon="9.1426447">
        <ele>1887.8</ele>
      </trkpt>
      <trkpt lat="42.0717812" lon="9.1424999">
        <ele>1889.8</ele>
      </trkpt>
      <trkpt lat="42.0717255" lon="9.1423684">
        <ele>1890.8</ele>
      </trkpt>
      <trkpt lat="42.0717016" lon="9.1421673">
        <ele>1892.2</ele>
      </trkpt>
      <trkpt lat="42.0716996" lon="9.1420653">
        <ele>1893</ele>
      </trkpt>
      <trkpt lat="42.0717414" lon="9.14195">
        <ele>1894</ele>
      </trkpt>
      <trkpt lat="42.0717135" lon="9.1419151">
        <ele>1894.2</ele>
      </trkpt>
      <trkpt lat="42.0716757" lon="9.1419017">
        <ele>1894.3</ele>
      </trkpt>
      <trkpt lat="42.0715901" lon="9.141899">
        <ele>1894.5</ele>
      </trkpt>
      <trkpt lat="42.0714726" lon="9.1418776">
        <ele>1894.8</ele>
      </trkpt>
      <trkpt lat="42.0714009" lon="9.141891">
        <ele>1895</ele>
      </trkpt>
      <trkpt lat="42.0713312" lon="9.1418105">
        <ele>1896.2</ele>
      </trkpt>
      <trkpt lat="42.0712158" lon="9.1416764">
        <ele>1898.2</ele>
      </trkpt>
      <trkpt lat="42.0710804" lon="9.1416442">
        <ele>1899.8</ele>
      </trkpt>
      <trkpt lat="42.0708355" lon="9.1415048">
        <ele>1904.2</ele>
      </trkpt>
      <trkpt lat="42.0707817" lon="9.1414109">
        <ele>1906</ele>
      </trkpt>
      <trkpt lat="42.0706662" lon="9.1413385">
        <ele>1908.8</ele>
      </trkpt>
      <trkpt lat="42.0705985" lon="9.1413036">
        <ele>1910.5</ele>
      </trkpt>
      <trkpt lat="42.0705209" lon="9.1413438">
        <ele>1911.5</ele>
      </trkpt>
      <trkpt lat="42.0704492" lon="9.1411909">
        <ele>1914.5</ele>
      </trkpt>
      <trkpt lat="42.0705149" lon="9.140971">
        <ele>1916.5</ele>
      </trkpt>
      <trkpt lat="42.0705926" lon="9.1405526">
        <ele>1920.5</ele>
      </trkpt>
      <trkpt lat="42.0705448" lon="9.1403461">
        <ele>1925.8</ele>
      </trkpt>
      <trkpt lat="42.0705906" lon="9.1398847">
        <ele>1931.5</ele>
      </trkpt>
      <trkpt lat="42.070499" lon="9.1394475">
        <ele>1944.5</ele>
      </trkpt>
      <trkpt lat="42.070497" lon="9.1389728">
        <ele>1952.5</ele>
      </trkpt>
      <trkpt lat="42.0704472" lon="9.1388279">
        <ele>1957.2</ele>
      </trkpt>
      <trkpt lat="42.0704651" lon="9.1385409">
        <ele>1962.5</ele>
      </trkpt>
      <trkpt lat="42.0704751" lon="9.1383559">
        <ele>1966.2</ele>
      </trkpt>
      <trkpt lat="42.0704811" lon="9.1379777">
        <ele>1974.2</ele>
      </trkpt>
      <trkpt lat="42.0702561" lon="9.1376022">
        <ele>1987.5</ele>
      </trkpt>
      <trkpt lat="42.0700271" lon="9.1373581">
        <ele>1998.5</ele>
      </trkpt>
      <trkpt lat="42.0698399" lon="9.1370872">
        <ele>2010.2</ele>
      </trkpt>
      <trkpt lat="42.0697921" lon="9.1367868">
        <ele>2017.2</ele>
      </trkpt>
      <trkpt lat="42.0696866" lon="9.1364032">
        <ele>2024.2</ele>
      </trkpt>
      <trkpt lat="42.0694975" lon="9.1361994">
        <ele>2028.5</ele>
      </trkpt>
      <trkpt lat="42.0693103" lon="9.1355878">
        <ele>2038.5</ele>
      </trkpt>
      <trkpt lat="42.069161" lon="9.1352767">
        <ele>2044</ele>
      </trkpt>
      <trkpt lat="42.0690096" lon="9.1351184">
        <ele>2047</ele>
      </trkpt>
      <trkpt lat="42.0688145" lon="9.135097">
        <ele>2047.5</ele>
      </trkpt>
      <trkpt lat="42.0687627" lon="9.1351372">
        <ele>2048.5</ele>
      </trkpt>
      <trkpt lat="42.0686911" lon="9.1350889">
        <ele>2049.8</ele>
      </trkpt>
      <trkpt lat="42.0686572" lon="9.1349468">
        <ele>2052.2</ele>
      </trkpt>
      <trkpt lat="42.0685597" lon="9.1350085">
        <ele>2055</ele>
      </trkpt>
      <trkpt lat="42.0685318" lon="9.1349012">
        <ele>2057.5</ele>
      </trkpt>
      <trkpt lat="42.0683108" lon="9.1349575">
        <ele>2066.8</ele>
      </trkpt>
      <trkpt lat="42.0682769" lon="9.1348556">
        <ele>2070</ele>
      </trkpt>
      <trkpt lat="42.0682032" lon="9.1347671">
        <ele>2075</ele>
      </trkpt>
      <trkpt lat="42.0680619" lon="9.1347295">
        <ele>2081.5</ele>
      </trkpt>
      <trkpt lat="42.0679942" lon="9.1344398">
        <ele>2088.5</ele>
      </trkpt>
      <trkpt lat="42.0677134" lon="9.1342521">
        <ele>2095.8</ele>
      </trkpt>
      <trkpt lat="42.0674964" lon="9.1342092">
        <ele>2099</ele>
      </trkpt>
      <trkpt lat="42.0672535" lon="9.1339087">
        <ele>2100.5</ele>
      </trkpt>
      <trkpt lat="42.0671121" lon="9.1335654">
        <ele>2101.4</ele>
      </trkpt>
      <trkpt lat="42.0671021" lon="9.1335386">
        <ele>2101.5</ele>
      </trkpt>
      <trkpt lat="42.0671121" lon="9.1333508">
        <ele>2103</ele>
      </trkpt>
      <trkpt lat="42.0672395" lon="9.1330585">
        <ele>2107.5</ele>
      </trkpt>
      <trkpt lat="42.0672336" lon="9.1329512">
        <ele>2108.5</ele>
      </trkpt>
      <trkpt lat="42.0672933" lon="9.1327903">
        <ele>2111</ele>
      </trkpt>
      <trkpt lat="42.067363" lon="9.1325596">
        <ele>2114.5</ele>
      </trkpt>
      <trkpt lat="42.0673789" lon="9.132337">
        <ele>2117</ele>
      </trkpt>
      <trkpt lat="42.0674128" lon="9.1322377">
        <ele>2118.5</ele>
      </trkpt>
      <trkpt lat="42.0674506" lon="9.1320258">
        <ele>2121</ele>
      </trkpt>
      <trkpt lat="42.0676477" lon="9.1316906">
        <ele>2125.8</ele>
      </trkpt>
      <trkpt lat="42.0677692" lon="9.1313741">
        <ele>2130.2</ele>
      </trkpt>
      <trkpt lat="42.0679603" lon="9.1311193">
        <ele>2138</ele>
      </trkpt>
      <trkpt lat="42.0679305" lon="9.1308913">
        <ele>2144.8</ele>
      </trkpt>
      <trkpt lat="42.0676398" lon="9.1305292">
        <ele>2156.2</ele>
      </trkpt>
      <trkpt lat="42.0676776" lon="9.1303548">
        <ele>2162.5</ele>
      </trkpt>
      <trkpt lat="42.0676159" lon="9.1302583">
        <ele>2164.8</ele>
      </trkpt>
      <trkpt lat="42.067574" lon="9.1301993">
        <ele>2166</ele>
      </trkpt>
      <trkpt lat="42.067594" lon="9.1299739">
        <ele>2173.2</ele>
      </trkpt>
      <trkpt lat="42.06758" lon="9.1298586">
        <ele>2176.2</ele>
      </trkpt>
      <trkpt lat="42.0675063" lon="9.1297647">
        <ele>2178.2</ele>
      </trkpt>
      <trkpt lat="42.0673331" lon="9.1296065">
        <ele>2183</ele>
      </trkpt>
      <trkpt lat="42.0672833" lon="9.1295046">
        <ele>2186.8</ele>
      </trkpt>
      <trkpt lat="42.0671659" lon="9.1294107">
        <ele>2190.2</ele>
      </trkpt>
      <trkpt lat="42.0670046" lon="9.1293383">
        <ele>2194</ele>
      </trkpt>
      <trkpt lat="42.0669847" lon="9.1292444">
        <ele>2198.8</ele>
      </trkpt>
      <trkpt lat="42.0668732" lon="9.1291532">
        <ele>2204.5</ele>
      </trkpt>
      <trkpt lat="42.0668114" lon="9.1291693">
        <ele>2204.8</ele>
      </trkpt>
      <trkpt lat="42.066686" lon="9.1290969">
        <ele>2210.2</ele>
      </trkpt>
      <trkpt lat="42.0665227" lon="9.129121">
        <ele>2212.5</ele>
      </trkpt>
      <trkpt lat="42.066453" lon="9.1290405">
        <ele>2216.8</ele>
      </trkpt>
      <trkpt lat="42.066453" lon="9.128893">
        <ele>2222.5</ele>
      </trkpt>
      <trkpt lat="42.0664012" lon="9.1288957">
        <ele>2223</ele>
      </trkpt>
      <trkpt lat="42.0663754" lon="9.1288823">
        <ele>2223.8</ele>
      </trkpt>
      <trkpt lat="42.0663176" lon="9.1286811">
        <ele>2232.2</ele>
      </trkpt>
      <trkpt lat="42.0663256" lon="9.1286302">
        <ele>2234.2</ele>
      </trkpt>
      <trkpt lat="42.0663754" lon="9.1285846">
        <ele>2235.5</ele>
      </trkpt>
      <trkpt lat="42.0663634" lon="9.1285443">
        <ele>2237.3</ele>
      </trkpt>
      <trkpt lat="42.0663594" lon="9.1285202">
        <ele>2238.2</ele>
      </trkpt>
      <trkpt lat="42.0663196" lon="9.128437">
        <ele>2241</ele>
      </trkpt>
      <trkpt lat="42.0662121" lon="9.1284505">
        <ele>2241.8</ele>
      </trkpt>
      <trkpt lat="42.0658935" lon="9.1286168">
        <ele>2239</ele>
      </trkpt>
      <trkpt lat="42.0654614" lon="9.1289037">
        <ele>2236.5</ele>
      </trkpt>
      <trkpt lat="42.06532" lon="9.1288903">
        <ele>2241.2</ele>
      </trkpt>
      <trkpt lat="42.0645992" lon="9.1293088">
        <ele>2251</ele>
      </trkpt>
      <trkpt lat="42.0643782" lon="9.1293758">
        <ele>2252.2</ele>
      </trkpt>
      <trkpt lat="42.0640854" lon="9.1295797">
        <ele>2253</ele>
      </trkpt>
      <trkpt lat="42.0634482" lon="9.1295716">
        <ele>2251</ele>
      </trkpt>
      <trkpt lat="42.0631276" lon="9.1296789">
        <ele>2252</ele>
      </trkpt>
      <trkpt lat="42.063038" lon="9.1296977">
        <ele>2252.2</ele>
      </trkpt>
      <trkpt lat="42.0629206" lon="9.1297272">
        <ele>2252.8</ele>
      </trkpt>
      <trkpt lat="42.0628409" lon="9.1298103">
        <ele>2253</ele>
      </trkpt>
      <trkpt lat="42.0627573" lon="9.1299713">
        <ele>2248.8</ele>
      </trkpt>
      <trkpt lat="42.0625283" lon="9.1301081">
        <ele>2245.8</ele>
      </trkpt>
      <trkpt lat="42.0623968" lon="9.1302878">
        <ele>2243</ele>
      </trkpt>
      <trkpt lat="42.0622734" lon="9.130328">
        <ele>2245.5</ele>
      </trkpt>
      <trkpt lat="42.0620424" lon="9.1303468">
        <ele>2252.2</ele>
      </trkpt>
      <trkpt lat="42.0620006" lon="9.1304192">
        <ele>2253</ele>
      </trkpt>
      <trkpt lat="42.0618811" lon="9.1304085">
        <ele>2257</ele>
      </trkpt>
      <trkpt lat="42.0618293" lon="9.1305372">
        <ele>2258.8</ele>
      </trkpt>
      <trkpt lat="42.0616441" lon="9.1307625">
        <ele>2264</ele>
      </trkpt>
      <trkpt lat="42.0613852" lon="9.130851">
        <ele>2271</ele>
      </trkpt>
      <trkpt lat="42.0609392" lon="9.1311944">
        <ele>2287.5</ele>
      </trkpt>
      <trkpt lat="42.060748" lon="9.1316074">
        <ele>2301</ele>
      </trkpt>
      <trkpt lat="42.0605887" lon="9.1319668">
        <ele>2301.5</ele>
      </trkpt>
      <trkpt lat="42.0604493" lon="9.1325676">
        <ele>2303</ele>
      </trkpt>
      <trkpt lat="42.0603975" lon="9.1327795">
        <ele>2306.5</ele>
      </trkpt>
      <trkpt lat="42.0601785" lon="9.1327876">
        <ele>2321</ele>
      </trkpt>
      <trkpt lat="42.0600809" lon="9.1330773">
        <ele>2330.2</ele>
      </trkpt>
      <trkpt lat="42.0599554" lon="9.1333213">
        <ele>2333.8</ele>
      </trkpt>
      <trkpt lat="42.0598479" lon="9.1334796">
        <ele>2331</ele>
      </trkpt>
      <trkpt lat="42.059826" lon="9.1336083">
        <ele>2327.2</ele>
      </trkpt>
      <trkpt lat="42.0597663" lon="9.1336861">
        <ele>2326</ele>
      </trkpt>
      <trkpt lat="42.0597125" lon="9.133729">
        <ele>2325</ele>
      </trkpt>
      <trkpt lat="42.0596408" lon="9.1337156">
        <ele>2325.7</ele>
      </trkpt>
      <trkpt lat="42.0594775" lon="9.1337156">
        <ele>2327.2</ele>
      </trkpt>
      <trkpt lat="42.059374" lon="9.1335922">
        <ele>2330.5</ele>
      </trkpt>
      <trkpt lat="42.0592764" lon="9.1335011">
        <ele>2331.8</ele>
      </trkpt>
      <trkpt lat="42.0592286" lon="9.1333455">
        <ele>2334.8</ele>
      </trkpt>
      <trkpt lat="42.0592883" lon="9.1332114">
        <ele>2337.5</ele>
      </trkpt>
      <trkpt lat="42.059133" lon="9.1329217">
        <ele>2335.8</ele>
      </trkpt>
      <trkpt lat="42.0589498" lon="9.1328412">
        <ele>2337</ele>
      </trkpt>
      <trkpt lat="42.0588183" lon="9.1327474">
        <ele>2336.8</ele>
      </trkpt>
      <trkpt lat="42.05844" lon="9.132219">
        <ele>2329.5</ele>
      </trkpt>
      <trkpt lat="42.0582488" lon="9.1320044">
        <ele>2331.8</ele>
      </trkpt>
      <trkpt lat="42.0579939" lon="9.1318059">
        <ele>2330.2</ele>
      </trkpt>
      <trkpt lat="42.0575617" lon="9.1313875">
        <ele>2325.8</ele>
      </trkpt>
      <trkpt lat="42.0575458" lon="9.1310656">
        <ele>2322.5</ele>
      </trkpt>
      <trkpt lat="42.0573586" lon="9.1309234">
        <ele>2321.2</ele>
      </trkpt>
      <trkpt lat="42.0571196" lon="9.1309369">
        <ele>2319</ele>
      </trkpt>
      <trkpt lat="42.0568767" lon="9.1311702">
        <ele>2320.8</ele>
      </trkpt>
      <trkpt lat="42.0564326" lon="9.1315806">
        <ele>2316.5</ele>
      </trkpt>
      <trkpt lat="42.0561876" lon="9.1315565">
        <ele>2305</ele>
      </trkpt>
      <trkpt lat="42.0560004" lon="9.1315216">
        <ele>2295.8</ele>
      </trkpt>
      <trkpt lat="42.0558769" lon="9.1313553">
        <ele>2288.8</ele>
      </trkpt>
      <trkpt lat="42.0555882" lon="9.1314197">
        <ele>2269.2</ele>
      </trkpt>
      <trkpt lat="42.0554786" lon="9.1312909">
        <ele>2262.5</ele>
      </trkpt>
      <trkpt lat="42.0552416" lon="9.1311648">
        <ele>2257.8</ele>
      </trkpt>
      <trkpt lat="42.0550604" lon="9.1309315">
        <ele>2263.5</ele>
      </trkpt>
      <trkpt lat="42.054698" lon="9.1311058">
        <ele>2261.8</ele>
      </trkpt>
      <trkpt lat="42.0545526" lon="9.1311622">
        <ele>2256.5</ele>
      </trkpt>
      <trkpt lat="42.0544351" lon="9.1311997">
        <ele>2252</ele>
      </trkpt>
      <trkpt lat="42.0541981" lon="9.1310683">
        <ele>2255.2</ele>
      </trkpt>
      <trkpt lat="42.0540766" lon="9.1309664">
        <ele>2258.5</ele>
      </trkpt>
      <trkpt lat="42.0539093" lon="9.1310924">
        <ele>2249.5</ele>
      </trkpt>
      <trkpt lat="42.0537778" lon="9.1312239">
        <ele>2243</ele>
      </trkpt>
      <trkpt lat="42.0535847" lon="9.131299">
        <ele>2244.2</ele>
      </trkpt>
      <trkpt lat="42.0535667" lon="9.1313955">
        <ele>2242.8</ele>
      </trkpt>
      <trkpt lat="42.053499" lon="9.1315377">
        <ele>2241.5</ele>
      </trkpt>
      <trkpt lat="42.0533755" lon="9.1316155">
        <ele>2241.8</ele>
      </trkpt>
      <trkpt lat="42.0533019" lon="9.1317818">
        <ele>2236.2</ele>
      </trkpt>
      <trkpt lat="42.0531206" lon="9.1319051">
        <ele>2232.2</ele>
      </trkpt>
      <trkpt lat="42.0528518" lon="9.13194">
        <ele>2231.2</ele>
      </trkpt>
      <trkpt lat="42.052804" lon="9.1320634">
        <ele>2232.4</ele>
      </trkpt>
      <trkpt lat="42.052782" lon="9.1322458">
        <ele>2234</ele>
      </trkpt>
      <trkpt lat="42.0526187" lon="9.1324899">
        <ele>2236.8</ele>
      </trkpt>
      <trkpt lat="42.0521188" lon="9.1329727">
        <ele>2244</ele>
      </trkpt>
      <trkpt lat="42.0520292" lon="9.1332382">
        <ele>2246.2</ele>
      </trkpt>
      <trkpt lat="42.0518759" lon="9.1335198">
        <ele>2254.2</ele>
      </trkpt>
      <trkpt lat="42.0518201" lon="9.1338015">
        <ele>2259</ele>
      </trkpt>
      <trkpt lat="42.0515373" lon="9.1346276">
        <ele>2255.8</ele>
      </trkpt>
      <trkpt lat="42.0513062" lon="9.134869">
        <ele>2254.2</ele>
      </trkpt>
      <trkpt lat="42.051131" lon="9.1351211">
        <ele>2253.2</ele>
      </trkpt>
      <trkpt lat="42.0510374" lon="9.135223">
        <ele>2252.2</ele>
      </trkpt>
      <trkpt lat="42.0510035" lon="9.1353357">
        <ele>2252.4</ele>
      </trkpt>
      <trkpt lat="42.0509816" lon="9.1354886">
        <ele>2252.5</ele>
      </trkpt>
      <trkpt lat="42.0509079" lon="9.1357005">
        <ele>2251</ele>
      </trkpt>
      <trkpt lat="42.0508023" lon="9.1359606">
        <ele>2248.2</ele>
      </trkpt>
      <trkpt lat="42.0507526" lon="9.1362128">
        <ele>2247.2</ele>
      </trkpt>
      <trkpt lat="42.0506749" lon="9.1364032">
        <ele>2245.8</ele>
      </trkpt>
      <trkpt lat="42.0506171" lon="9.1367278">
        <ele>2245</ele>
      </trkpt>
      <trkpt lat="42.0504737" lon="9.1370094">
        <ele>2237.8</ele>
      </trkpt>
      <trkpt lat="42.0503702" lon="9.1372052">
        <ele>2235</ele>
      </trkpt>
      <trkpt lat="42.0502367" lon="9.1375512">
        <ele>2233.2</ele>
      </trkpt>
      <trkpt lat="42.0500674" lon="9.1377899">
        <ele>2228</ele>
      </trkpt>
      <trkpt lat="42.0499101" lon="9.1380313">
        <ele>2221</ele>
      </trkpt>
      <trkpt lat="42.0498145" lon="9.1382325">
        <ele>2219.2</ele>
      </trkpt>
      <trkpt lat="42.0496452" lon="9.1384202">
        <ele>2223.2</ele>
      </trkpt>
      <trkpt lat="42.0495456" lon="9.1384685">
        <ele>2224.8</ele>
      </trkpt>
      <trkpt lat="42.0494082" lon="9.1386187">
        <ele>2223.8</ele>
      </trkpt>
      <trkpt lat="42.0493783" lon="9.1386724">
        <ele>2223.2</ele>
      </trkpt>
      <trkpt lat="42.0493305" lon="9.1387126">
        <ele>2222.8</ele>
      </trkpt>
      <trkpt lat="42.0491114" lon="9.1388038">
        <ele>2221.5</ele>
      </trkpt>
      <trkpt lat="42.0487051" lon="9.1392007">
        <ele>2224.5</ele>
      </trkpt>
      <trkpt lat="42.0484023" lon="9.139528">
        <ele>2221.8</ele>
      </trkpt>
      <trkpt lat="42.0480677" lon="9.1398552">
        <ele>2220.4</ele>
      </trkpt>
      <trkpt lat="42.0476972" lon="9.1401556">
        <ele>2219</ele>
      </trkpt>
      <trkpt lat="42.0472471" lon="9.1403809">
        <ele>2213.8</ele>
      </trkpt>
      <trkpt lat="42.0464723" lon="9.1411239">
        <ele>2205</ele>
      </trkpt>
      <trkpt lat="42.0461018" lon="9.1410327">
        <ele>2203.8</ele>
      </trkpt>
      <trkpt lat="42.0459624" lon="9.1410542">
        <ele>2203.2</ele>
      </trkpt>
      <trkpt lat="42.0458269" lon="9.1411293">
        <ele>2202.6</ele>
      </trkpt>
      <trkpt lat="42.0457293" lon="9.1411319">
        <ele>2202.2</ele>
      </trkpt>
      <trkpt lat="42.0456019" lon="9.1411185">
        <ele>2200.5</ele>
      </trkpt>
      <trkpt lat="42.0455182" lon="9.1411722">
        <ele>2200.6</ele>
      </trkpt>
      <trkpt lat="42.0453489" lon="9.1412634">
        <ele>2200.8</ele>
      </trkpt>
      <trkpt lat="42.0451577" lon="9.1412526">
        <ele>2199</ele>
      </trkpt>
      <trkpt lat="42.0449465" lon="9.1412392">
        <ele>2196.5</ele>
      </trkpt>
      <trkpt lat="42.0447374" lon="9.1411883">
        <ele>2193.2</ele>
      </trkpt>
      <trkpt lat="42.044584" lon="9.141148">
        <ele>2191.5</ele>
      </trkpt>
      <trkpt lat="42.0444824" lon="9.1411829">
        <ele>2192</ele>
      </trkpt>
      <trkpt lat="42.044335" lon="9.1412553">
        <ele>2193.8</ele>
      </trkpt>
      <trkpt lat="42.0440462" lon="9.141486">
        <ele>2199.2</ele>
      </trkpt>
      <trkpt lat="42.043849" lon="9.1414699">
        <ele>2196</ele>
      </trkpt>
      <trkpt lat="42.0437096" lon="9.1414484">
        <ele>2192.2</ele>
      </trkpt>
      <trkpt lat="42.0435662" lon="9.1414887">
        <ele>2189.5</ele>
      </trkpt>
      <trkpt lat="42.043359" lon="9.141596">
        <ele>2185.5</ele>
      </trkpt>
      <trkpt lat="42.0431538" lon="9.1417918">
        <ele>2179.2</ele>
      </trkpt>
      <trkpt lat="42.0429308" lon="9.1422236">
        <ele>2174.5</ele>
      </trkpt>
      <trkpt lat="42.0426419" lon="9.1425911">
        <ele>2162.8</ele>
      </trkpt>
      <trkpt lat="42.042373" lon="9.1427869">
        <ele>2152.2</ele>
      </trkpt>
      <trkpt lat="42.0421698" lon="9.1430014">
        <ele>2142.8</ele>
      </trkpt>
      <trkpt lat="42.0420244" lon="9.1431785">
        <ele>2135.8</ele>
      </trkpt>
      <trkpt lat="42.0418192" lon="9.1433555">
        <ele>2126.2</ele>
      </trkpt>
      <trkpt lat="42.0417495" lon="9.1433689">
        <ele>2123.2</ele>
      </trkpt>
      <trkpt lat="42.0416738" lon="9.143334">
        <ele>2120</ele>
      </trkpt>
      <trkpt lat="42.0412655" lon="9.1430283">
        <ele>2101.5</ele>
      </trkpt>
      <trkpt lat="42.0411838" lon="9.1429988">
        <ele>2097.5</ele>
      </trkpt>
      <trkpt lat="42.0410205" lon="9.1429934">
        <ele>2089.2</ele>
      </trkpt>
      <trkpt lat="42.0407994" lon="9.1429076">
        <ele>2077.5</ele>
      </trkpt>
      <trkpt lat="42.0406241" lon="9.1429237">
        <ele>2068</ele>
      </trkpt>
      <trkpt lat="42.0405125" lon="9.14298">
        <ele>2062</ele>
      </trkpt>
      <trkpt lat="42.0404049" lon="9.1430631">
        <ele>2056.2</ele>
      </trkpt>
      <trkpt lat="42.0402535" lon="9.1431543">
        <ele>2048.8</ele>
      </trkpt>
      <trkpt lat="42.0402057" lon="9.1432455">
        <ele>2046.2</ele>
      </trkpt>
      <trkpt lat="42.040134" lon="9.1433421">
        <ele>2042.8</ele>
      </trkpt>
      <trkpt lat="42.0401041" lon="9.1434038">
        <ele>2041.2</ele>
      </trkpt>
      <trkpt lat="42.040132" lon="9.1436157">
        <ele>2042.5</ele>
      </trkpt>
      <trkpt lat="42.040152" lon="9.1436478">
        <ele>2043.5</ele>
      </trkpt>
      <trkpt lat="42.0402794" lon="9.143782">
        <ele>2050</ele>
      </trkpt>
      <trkpt lat="42.0401978" lon="9.1439161">
        <ele>2046.2</ele>
      </trkpt>
      <trkpt lat="42.0401281" lon="9.1441199">
        <ele>2044</ele>
      </trkpt>
      <trkpt lat="42.0401041" lon="9.1444123">
        <ele>2044.8</ele>
      </trkpt>
      <trkpt lat="42.0400822" lon="9.1447261">
        <ele>2045</ele>
      </trkpt>
      <trkpt lat="42.0401041" lon="9.1449755">
        <ele>2047</ele>
      </trkpt>
      <trkpt lat="42.0400603" lon="9.1450989">
        <ele>2045.5</ele>
      </trkpt>
      <trkpt lat="42.0400105" lon="9.1451821">
        <ele>2043.8</ele>
      </trkpt>
      <trkpt lat="42.0399129" lon="9.1452143">
        <ele>2039.8</ele>
      </trkpt>
      <trkpt lat="42.0398512" lon="9.1451794">
        <ele>2036.8</ele>
      </trkpt>
      <trkpt lat="42.0397516" lon="9.1451097">
        <ele>2032</ele>
      </trkpt>
      <trkpt lat="42.0396699" lon="9.1451553">
        <ele>2029</ele>
      </trkpt>
      <trkpt lat="42.0395125" lon="9.1452599">
        <ele>2022.5</ele>
      </trkpt>
      <trkpt lat="42.0393034" lon="9.1452545">
        <ele>2011.8</ele>
      </trkpt>
      <trkpt lat="42.03913" lon="9.1452733">
        <ele>2004</ele>
      </trkpt>
      <trkpt lat="42.0389806" lon="9.145225">
        <ele>1994.8</ele>
      </trkpt>
      <trkpt lat="42.038903" lon="9.1452599">
        <ele>1989.5</ele>
      </trkpt>
      <trkpt lat="42.0387277" lon="9.1452196">
        <ele>1975.5</ele>
      </trkpt>
      <trkpt lat="42.0386022" lon="9.1451097">
        <ele>1965.2</ele>
      </trkpt>
      <trkpt lat="42.0384089" lon="9.144879">
        <ele>1952.8</ele>
      </trkpt>
      <trkpt lat="42.038146" lon="9.1446725">
        <ele>1938.2</ele>
      </trkpt>
      <trkpt lat="42.0380663" lon="9.144659">
        <ele>1933.8</ele>
      </trkpt>
      <trkpt lat="42.0379946" lon="9.1447341">
        <ele>1928.8</ele>
      </trkpt>
      <trkpt lat="42.0379408" lon="9.1447476">
        <ele>1925.5</ele>
      </trkpt>
      <trkpt lat="42.0378571" lon="9.1446885">
        <ele>1921.5</ele>
      </trkpt>
      <trkpt lat="42.0377894" lon="9.1446725">
        <ele>1917.8</ele>
      </trkpt>
      <trkpt lat="42.0377316" lon="9.1446966">
        <ele>1914.5</ele>
      </trkpt>
      <trkpt lat="42.0375981" lon="9.1447744">
        <ele>1907</ele>
      </trkpt>
      <trkpt lat="42.0375384" lon="9.1447368">
        <ele>1904.8</ele>
      </trkpt>
      <trkpt lat="42.0374408" lon="9.1445974">
        <ele>1902</ele>
      </trkpt>
      <trkpt lat="42.0373173" lon="9.1445518">
        <ele>1897</ele>
      </trkpt>
      <trkpt lat="42.0371041" lon="9.1445222">
        <ele>1888</ele>
      </trkpt>
      <trkpt lat="42.0369965" lon="9.1445866">
        <ele>1883.2</ele>
      </trkpt>
      <trkpt lat="42.0369328" lon="9.1447073">
        <ele>1879.5</ele>
      </trkpt>
      <trkpt lat="42.036875" lon="9.1448683">
        <ele>1875.5</ele>
      </trkpt>
      <trkpt lat="42.0368013" lon="9.1449085">
        <ele>1872.2</ele>
      </trkpt>
      <trkpt lat="42.036624" lon="9.1447824">
        <ele>1867.8</ele>
      </trkpt>
      <trkpt lat="42.0364925" lon="9.1448253">
        <ele>1863</ele>
      </trkpt>
      <trkpt lat="42.0364308" lon="9.1448414">
        <ele>1860.5</ele>
      </trkpt>
      <trkpt lat="42.0363431" lon="9.1448012">
        <ele>1857.5</ele>
      </trkpt>
      <trkpt lat="42.0362156" lon="9.1446725">
        <ele>1852.5</ele>
      </trkpt>
      <trkpt lat="42.0361379" lon="9.1447154">
        <ele>1848</ele>
      </trkpt>
      <trkpt lat="42.0360901" lon="9.1448548">
        <ele>1844.5</ele>
      </trkpt>
      <trkpt lat="42.0360543" lon="9.1449943">
        <ele>1841.5</ele>
      </trkpt>
      <trkpt lat="42.0359726" lon="9.1451526">
        <ele>1836.8</ele>
      </trkpt>
      <trkpt lat="42.0359048" lon="9.1451848">
        <ele>1833.5</ele>
      </trkpt>
      <trkpt lat="42.0358351" lon="9.145166">
        <ele>1830.2</ele>
      </trkpt>
      <trkpt lat="42.0357554" lon="9.1450882">
        <ele>1826.2</ele>
      </trkpt>
      <trkpt lat="42.0356259" lon="9.144938">
        <ele>1820.8</ele>
      </trkpt>
      <trkpt lat="42.0354905" lon="9.1448548">
        <ele>1816</ele>
      </trkpt>
      <trkpt lat="42.035369" lon="9.1447154">
        <ele>1811.5</ele>
      </trkpt>
      <trkpt lat="42.0352753" lon="9.1446">
        <ele>1808</ele>
      </trkpt>
      <trkpt lat="42.0351837" lon="9.1445249">
        <ele>1804.5</ele>
      </trkpt>
      <trkpt lat="42.0350861" lon="9.1444257">
        <ele>1800.5</ele>
      </trkpt>
      <trkpt lat="42.0349725" lon="9.144305">
        <ele>1796.2</ele>
      </trkpt>
      <trkpt lat="42.0348291" lon="9.1441709">
        <ele>1793</ele>
      </trkpt>
      <trkpt lat="42.0347295" lon="9.1441038">
        <ele>1791.5</ele>
      </trkpt>
      <trkpt lat="42.0346319" lon="9.1440555">
        <ele>1790</ele>
      </trkpt>
      <trkpt lat="42.0345601" lon="9.1440368">
        <ele>1788.8</ele>
      </trkpt>
      <trkpt lat="42.0338688" lon="9.1442943">
        <ele>1779</ele>
      </trkpt>
      <trkpt lat="42.0335341" lon="9.1442809">
        <ele>1775</ele>
      </trkpt>
      <trkpt lat="42.0332552" lon="9.1444311">
        <ele>1772.5</ele>
      </trkpt>
      <trkpt lat="42.0329026" lon="9.1446778">
        <ele>1768</ele>
      </trkpt>
      <trkpt lat="42.0327612" lon="9.1448388">
        <ele>1765.8</ele>
      </trkpt>
      <trkpt lat="42.0326476" lon="9.1450185">
        <ele>1762.8</ele>
      </trkpt>
      <trkpt lat="42.0325819" lon="9.1451365">
        <ele>1760.8</ele>
      </trkpt>
      <trkpt lat="42.0325201" lon="9.1453698">
        <ele>1758.2</ele>
      </trkpt>
      <trkpt lat="42.0324922" lon="9.1455764">
        <ele>1756.8</ele>
      </trkpt>
      <trkpt lat="42.0324364" lon="9.1458446">
        <ele>1753.2</ele>
      </trkpt>
      <trkpt lat="42.0324085" lon="9.1459036">
        <ele>1752</ele>
      </trkpt>
      <trkpt lat="42.0323448" lon="9.1459626">
        <ele>1750.2</ele>
      </trkpt>
      <trkpt lat="42.0322671" lon="9.1459545">
        <ele>1749.5</ele>
      </trkpt>
      <trkpt lat="42.0322073" lon="9.1459063">
        <ele>1749.8</ele>
      </trkpt>
      <trkpt lat="42.0320459" lon="9.1460538">
        <ele>1747.2</ele>
      </trkpt>
      <trkpt lat="42.0318128" lon="9.146271">
        <ele>1746</ele>
      </trkpt>
      <trkpt lat="42.0316933" lon="9.1464669">
        <ele>1744.2</ele>
      </trkpt>
      <trkpt lat="42.0316774" lon="9.1466734">
        <ele>1742.8</ele>
      </trkpt>
      <trkpt lat="42.0316335" lon="9.1468021">
        <ele>1742</ele>
      </trkpt>
      <trkpt lat="42.0315857" lon="9.1470033">
        <ele>1741</ele>
      </trkpt>
      <trkpt lat="42.0315778" lon="9.1471535">
        <ele>1740.5</ele>
      </trkpt>
      <trkpt lat="42.0315917" lon="9.1472796">
        <ele>1740</ele>
      </trkpt>
      <trkpt lat="42.0315698" lon="9.1473278">
        <ele>1739.8</ele>
      </trkpt>
      <trkpt lat="42.0315299" lon="9.1472903">
        <ele>1740</ele>
      </trkpt>
      <trkpt lat="42.0314403" lon="9.147242">
        <ele>1739.8</ele>
      </trkpt>
      <trkpt lat="42.0310418" lon="9.1471186">
        <ele>1737</ele>
      </trkpt>
      <trkpt lat="42.0309024" lon="9.1469818">
        <ele>1736</ele>
      </trkpt>
      <trkpt lat="42.0308585" lon="9.1469684">
        <ele>1735.2</ele>
      </trkpt>
      <trkpt lat="42.0308167" lon="9.1470596">
        <ele>1734.2</ele>
      </trkpt>
      <trkpt lat="42.0307589" lon="9.1470033">
        <ele>1733.2</ele>
      </trkpt>
      <trkpt lat="42.0307111" lon="9.147014">
        <ele>1732</ele>
      </trkpt>
      <trkpt lat="42.0306573" lon="9.1469738">
        <ele>1730.5</ele>
      </trkpt>
      <trkpt lat="42.0306254" lon="9.1469952">
        <ele>1729.2</ele>
      </trkpt>
      <trkpt lat="42.0305358" lon="9.1470408">
        <ele>1725.5</ele>
      </trkpt>
      <trkpt lat="42.0303545" lon="9.147301">
        <ele>1717</ele>
      </trkpt>
      <trkpt lat="42.030223" lon="9.1474485">
        <ele>1710.8</ele>
      </trkpt>
      <trkpt lat="42.0301991" lon="9.1476363">
        <ele>1708.2</ele>
      </trkpt>
      <trkpt lat="42.0301234" lon="9.147757">
        <ele>1704.2</ele>
      </trkpt>
      <trkpt lat="42.0299819" lon="9.1477087">
        <ele>1699.5</ele>
      </trkpt>
      <trkpt lat="42.0299082" lon="9.1477731">
        <ele>1696</ele>
      </trkpt>
      <trkpt lat="42.0297528" lon="9.1477248">
        <ele>1690</ele>
      </trkpt>
      <trkpt lat="42.0295755" lon="9.1476497">
        <ele>1683.8</ele>
      </trkpt>
      <trkpt lat="42.0294918" lon="9.1479367">
        <ele>1677.5</ele>
      </trkpt>
      <trkpt lat="42.0292467" lon="9.1480386">
        <ele>1668</ele>
      </trkpt>
      <trkpt lat="42.0290774" lon="9.1481835">
        <ele>1662.5</ele>
      </trkpt>
      <trkpt lat="42.0289579" lon="9.1482425">
        <ele>1659</ele>
      </trkpt>
      <trkpt lat="42.02891" lon="9.1480279">
        <ele>1659.5</ele>
      </trkpt>
      <trkpt lat="42.0286431" lon="9.1480064">
        <ele>1654.8</ele>
      </trkpt>
      <trkpt lat="42.0285454" lon="9.1481003">
        <ele>1652.8</ele>
      </trkpt>
      <trkpt lat="42.0284199" lon="9.1483873">
        <ele>1648.5</ele>
      </trkpt>
      <trkpt lat="42.0282884" lon="9.1486529">
        <ele>1644.5</ele>
      </trkpt>
      <trkpt lat="42.0280214" lon="9.1486233">
        <ele>1642</ele>
      </trkpt>
      <trkpt lat="42.027882" lon="9.1487387">
        <ele>1640</ele>
      </trkpt>
      <trkpt lat="42.0278581" lon="9.1488567">
        <ele>1638</ele>
      </trkpt>
      <trkpt lat="42.0278541" lon="9.1489801">
        <ele>1636</ele>
      </trkpt>
      <trkpt lat="42.0274875" lon="9.1493449">
        <ele>1626.5</ele>
      </trkpt>
      <trkpt lat="42.027344" lon="9.1495809">
        <ele>1617.2</ele>
      </trkpt>
      <trkpt lat="42.0272583" lon="9.1496024">
        <ele>1616</ele>
      </trkpt>
      <trkpt lat="42.0271488" lon="9.1497526">
        <ele>1611.8</ele>
      </trkpt>
      <trkpt lat="42.027097" lon="9.1497526">
        <ele>1612.2</ele>
      </trkpt>
      <trkpt lat="42.0270531" lon="9.1497231">
        <ele>1613.8</ele>
      </trkpt>
      <trkpt lat="42.0268917" lon="9.1498786">
        <ele>1613</ele>
      </trkpt>
      <trkpt lat="42.0269077" lon="9.1500208">
        <ele>1608.5</ele>
      </trkpt>
      <trkpt lat="42.0268379" lon="9.1501817">
        <ele>1605.5</ele>
      </trkpt>
      <trkpt lat="42.0268439" lon="9.1503453">
        <ele>1601.2</ele>
      </trkpt>
      <trkpt lat="42.0267064" lon="9.1504794">
        <ele>1600.2</ele>
      </trkpt>
      <trkpt lat="42.0267383" lon="9.150686">
        <ele>1594.5</ele>
      </trkpt>
      <trkpt lat="42.0268379" lon="9.1506994">
        <ele>1592.8</ele>
      </trkpt>
      <trkpt lat="42.0268638" lon="9.1507557">
        <ele>1591</ele>
      </trkpt>
      <trkpt lat="42.026834" lon="9.1507906">
        <ele>1590.8</ele>
      </trkpt>
      <trkpt lat="42.0268599" lon="9.1508684">
        <ele>1588.5</ele>
      </trkpt>
      <trkpt lat="42.0268858" lon="9.1511527">
        <ele>1581.2</ele>
      </trkpt>
      <trkpt lat="42.0268758" lon="9.1512385">
        <ele>1579.2</ele>
      </trkpt>
      <trkpt lat="42.0269216" lon="9.1513082">
        <ele>1577.2</ele>
      </trkpt>
      <trkpt lat="42.0269535" lon="9.1511875">
        <ele>1579.5</ele>
      </trkpt>
      <trkpt lat="42.0269754" lon="9.1512519">
        <ele>1578</ele>
      </trkpt>
      <trkpt lat="42.0269435" lon="9.1514289">
        <ele>1574.8</ele>
      </trkpt>
      <trkpt lat="42.0269435" lon="9.1514879">
        <ele>1573.8</ele>
      </trkpt>
      <trkpt lat="42.0269535" lon="9.1515282">
        <ele>1573</ele>
      </trkpt>
      <trkpt lat="42.0270432" lon="9.151614">
        <ele>1571.2</ele>
      </trkpt>
      <trkpt lat="42.027091" lon="9.1517481">
        <ele>1569</ele>
      </trkpt>
      <trkpt lat="42.0271328" lon="9.1519466">
        <ele>1566.8</ele>
      </trkpt>
      <trkpt lat="42.0271627" lon="9.1522309">
        <ele>1563.2</ele>
      </trkpt>
      <trkpt lat="42.0271607" lon="9.152365">
        <ele>1561.2</ele>
      </trkpt>
      <trkpt lat="42.0271328" lon="9.1525635">
        <ele>1556.5</ele>
      </trkpt>
      <trkpt lat="42.0271129" lon="9.1526118">
        <ele>1555</ele>
      </trkpt>
      <trkpt lat="42.0270651" lon="9.1526654">
        <ele>1553.2</ele>
      </trkpt>
      <trkpt lat="42.0265291" lon="9.1535828">
        <ele>1537</ele>
      </trkpt>
      <trkpt lat="42.0264972" lon="9.1536713">
        <ele>1535.5</ele>
      </trkpt>
      <trkpt lat="42.0264853" lon="9.1538349">
        <ele>1532.8</ele>
      </trkpt>
      <trkpt lat="42.0264853" lon="9.154197">
        <ele>1527</ele>
      </trkpt>
      <trkpt lat="42.0265072" lon="9.1544062">
        <ele>1523.8</ele>
      </trkpt>
      <trkpt lat="42.0264873" lon="9.1551787">
        <ele>1513.8</ele>
      </trkpt>
      <trkpt lat="42.0266706" lon="9.1561094">
        <ele>1489.5</ele>
      </trkpt>
      <trkpt lat="42.0266487" lon="9.1561443">
        <ele>1488.2</ele>
      </trkpt>
      <trkpt lat="42.0266586" lon="9.1561604">
        <ele>1487.8</ele>
      </trkpt>
      <trkpt lat="42.0266606" lon="9.1562301">
        <ele>1485.8</ele>
      </trkpt>
      <trkpt lat="42.0266606" lon="9.1564259">
        <ele>1480.2</ele>
      </trkpt>
      <trkpt lat="42.0266367" lon="9.156509">
        <ele>1478.2</ele>
      </trkpt>
      <trkpt lat="42.0266267" lon="9.1565681">
        <ele>1477</ele>
      </trkpt>
      <trkpt lat="42.0266666" lon="9.1567129">
        <ele>1472.5</ele>
      </trkpt>
      <trkpt lat="42.0267842" lon="9.1568202">
        <ele>1467.8</ele>
      </trkpt>
      <trkpt lat="42.0267642" lon="9.1568765">
        <ele>1466.2</ele>
      </trkpt>
      <trkpt lat="42.0268001" lon="9.1569462">
        <ele>1463.8</ele>
      </trkpt>
      <trkpt lat="42.0267144" lon="9.1570884">
        <ele>1459</ele>
      </trkpt>
      <trkpt lat="42.0266407" lon="9.1571233">
        <ele>1459.2</ele>
      </trkpt>
      <trkpt lat="42.0266088" lon="9.1572493">
        <ele>1456.2</ele>
      </trkpt>
      <trkpt lat="42.0266128" lon="9.1573969">
        <ele>1451.8</ele>
      </trkpt>
      <trkpt lat="42.0266527" lon="9.1574505">
        <ele>1449</ele>
      </trkpt>
      <trkpt lat="42.0266527" lon="9.1575176">
        <ele>1446.8</ele>
      </trkpt>
      <trkpt lat="42.0266248" lon="9.1575578">
        <ele>1446</ele>
      </trkpt>
      <trkpt lat="42.0266248" lon="9.1576409">
        <ele>1443.5</ele>
      </trkpt>
      <trkpt lat="42.0265969" lon="9.1576651">
        <ele>1442.7</ele>
      </trkpt>
      <trkpt lat="42.0266367" lon="9.1577026">
        <ele>1441.5</ele>
      </trkpt>
      <trkpt lat="42.0266347" lon="9.1577616">
        <ele>1439.8</ele>
      </trkpt>
      <trkpt lat="42.0265829" lon="9.1579628">
        <ele>1435.5</ele>
      </trkpt>
      <trkpt lat="42.0265371" lon="9.1580459">
        <ele>1434.5</ele>
      </trkpt>
      <trkpt lat="42.026559" lon="9.1581157">
        <ele>1432.5</ele>
      </trkpt>
      <trkpt lat="42.0265032" lon="9.158223">
        <ele>1430.8</ele>
      </trkpt>
      <trkpt lat="42.0265192" lon="9.1583651">
        <ele>1427.5</ele>
      </trkpt>
      <trkpt lat="42.0264853" lon="9.1584054">
        <ele>1426.8</ele>
      </trkpt>
      <trkpt lat="42.0265092" lon="9.1584697">
        <ele>1425.2</ele>
      </trkpt>
      <trkpt lat="42.0264614" lon="9.1584376">
        <ele>1426</ele>
      </trkpt>
      <trkpt lat="42.0264076" lon="9.1584376">
        <ele>1426.2</ele>
      </trkpt>
      <trkpt lat="42.0263259" lon="9.1583893">
        <ele>1428</ele>
      </trkpt>
      <trkpt lat="42.0262741" lon="9.1583893">
        <ele>1428.5</ele>
      </trkpt>
      <trkpt lat="42.0262442" lon="9.1584617">
        <ele>1426.5</ele>
      </trkpt>
      <trkpt lat="42.0262024" lon="9.1584697">
        <ele>1426.8</ele>
      </trkpt>
      <trkpt lat="42.0262143" lon="9.1585475">
        <ele>1424.5</ele>
      </trkpt>
      <trkpt lat="42.0262143" lon="9.1586119">
        <ele>1423</ele>
      </trkpt>
      <trkpt lat="42.0262621" lon="9.1586199">
        <ele>1422.2</ele>
      </trkpt>
      <trkpt lat="42.0263717" lon="9.1587433">
        <ele>1419.2</ele>
      </trkpt>
      <trkpt lat="42.0263777" lon="9.1588184">
        <ele>1418.8</ele>
      </trkpt>
      <trkpt lat="42.0264315" lon="9.1589177">
        <ele>1418.2</ele>
      </trkpt>
      <trkpt lat="42.0264773" lon="9.1589686">
        <ele>1417.8</ele>
      </trkpt>
      <trkpt lat="42.0265132" lon="9.1590035">
        <ele>1417.2</ele>
      </trkpt>
      <trkpt lat="42.0265012" lon="9.1590786">
        <ele>1417</ele>
      </trkpt>
      <trkpt lat="42.0264494" lon="9.1590545">
        <ele>1418</ele>
      </trkpt>
      <trkpt lat="42.0264474" lon="9.1590035">
        <ele>1418.2</ele>
      </trkpt>
      <trkpt lat="42.0263777" lon="9.1589284">
        <ele>1418.8</ele>
      </trkpt>
      <trkpt lat="42.0263378" lon="9.1589659">
        <ele>1419.5</ele>
      </trkpt>
      <trkpt lat="42.0263378" lon="9.1590303">
        <ele>1420</ele>
      </trkpt>
      <trkpt lat="42.0263717" lon="9.1591617">
        <ele>1419.5</ele>
      </trkpt>
      <trkpt lat="42.0264415" lon="9.1593441">
        <ele>1417.2</ele>
      </trkpt>
      <trkpt lat="42.0264255" lon="9.1594085">
        <ele>1417.5</ele>
      </trkpt>
      <trkpt lat="42.0263677" lon="9.1594648">
        <ele>1419.5</ele>
      </trkpt>
      <trkpt lat="42.0264215" lon="9.1595721">
        <ele>1417</ele>
      </trkpt>
      <trkpt lat="42.0265032" lon="9.1596526">
        <ele>1413.5</ele>
      </trkpt>
      <trkpt lat="42.0265152" lon="9.1597331">
        <ele>1412.8</ele>
      </trkpt>
      <trkpt lat="42.0264952" lon="9.1597787">
        <ele>1413.5</ele>
      </trkpt>
      <trkpt lat="42.0265909" lon="9.1599369">
        <ele>1410</ele>
      </trkpt>
      <trkpt lat="42.0265052" lon="9.1600898">
        <ele>1412.2</ele>
      </trkpt>
      <trkpt lat="42.0265311" lon="9.1603929">
        <ele>1410</ele>
      </trkpt>
      <trkpt lat="42.0265929" lon="9.160417">
        <ele>1407.8</ele>
      </trkpt>
      <trkpt lat="42.027089" lon="9.1611627">
        <ele>1396</ele>
      </trkpt>
      <trkpt lat="42.0272823" lon="9.1616026">
        <ele>1390.8</ele>
      </trkpt>
      <trkpt lat="42.0274576" lon="9.162308">
        <ele>1384.2</ele>
      </trkpt>
      <trkpt lat="42.0274875" lon="9.1623858">
        <ele>1383</ele>
      </trkpt>
      <trkpt lat="42.0274436" lon="9.1627318">
        <ele>1383.8</ele>
      </trkpt>
      <trkpt lat="42.0274456" lon="9.1633835">
        <ele>1382</ele>
      </trkpt>
      <trkpt lat="42.0274118" lon="9.1636571">
        <ele>1382.8</ele>
      </trkpt>
      <trkpt lat="42.0272424" lon="9.1638744">
        <ele>1390.8</ele>
      </trkpt>
      <trkpt lat="42.0272364" lon="9.1641694">
        <ele>1390</ele>
      </trkpt>
      <trkpt lat="42.0271528" lon="9.1648588">
        <ele>1398</ele>
      </trkpt>
      <trkpt lat="42.0272763" lon="9.1660631">
        <ele>1397.5</ele>
      </trkpt>
      <trkpt lat="42.0272882" lon="9.16749">
        <ele>1405.8</ele>
      </trkpt>
      <trkpt lat="42.0272603" lon="9.1676804">
        <ele>1406.8</ele>
      </trkpt>
      <trkpt lat="42.027077" lon="9.168056">
        <ele>1420</ele>
      </trkpt>
      <trkpt lat="42.0272305" lon="9.1689357">
        <ele>1414</ele>
      </trkpt>
      <trkpt lat="42.0271787" lon="9.1695151">
        <ele>1421</ele>
      </trkpt>
      <trkpt lat="42.0273361" lon="9.1704941">
        <ele>1421.2</ele>
      </trkpt>
      <trkpt lat="42.0272862" lon="9.1708025">
        <ele>1423.5</ele>
      </trkpt>
      <trkpt lat="42.0271009" lon="9.1711244">
        <ele>1426.2</ele>
      </trkpt>
      <trkpt lat="42.0271368" lon="9.1714731">
        <ele>1424</ele>
      </trkpt>
      <trkpt lat="42.0272703" lon="9.1717386">
        <ele>1421.8</ele>
      </trkpt>
      <trkpt lat="42.0273201" lon="9.172031">
        <ele>1420.8</ele>
      </trkpt>
      <trkpt lat="42.027346" lon="9.1723126">
        <ele>1420.5</ele>
      </trkpt>
      <trkpt lat="42.0274018" lon="9.1724682">
        <ele>1418.5</ele>
      </trkpt>
      <trkpt lat="42.0276847" lon="9.1737986">
        <ele>1419.2</ele>
      </trkpt>
      <trkpt lat="42.0276528" lon="9.1746193">
        <ele>1413.5</ele>
      </trkpt>
      <trkpt lat="42.0275074" lon="9.1753542">
        <ele>1405.2</ele>
      </trkpt>
      <trkpt lat="42.027362" lon="9.1767383">
        <ele>1394.5</ele>
      </trkpt>
      <trkpt lat="42.0271866" lon="9.1780686">
        <ele>1380.5</ele>
      </trkpt>
      <trkpt lat="42.0272663" lon="9.1788518">
        <ele>1375</ele>
      </trkpt>
      <trkpt lat="42.0275373" lon="9.179635">
        <ele>1376.8</ele>
      </trkpt>
      <trkpt lat="42.027338" lon="9.1807777">
        <ele>1358.2</ele>
      </trkpt>
      <trkpt lat="42.0273978" lon="9.1811907">
        <ele>1357</ele>
      </trkpt>
      <trkpt lat="42.027346" lon="9.1818291">
        <ele>1349.8</ele>
      </trkpt>
      <trkpt lat="42.0271747" lon="9.1826981">
        <ele>1337.5</ele>
      </trkpt>
      <trkpt lat="42.0270153" lon="9.183484">
        <ele>1325</ele>
      </trkpt>
      <trkpt lat="42.0270392" lon="9.1841733">
        <ele>1316.2</ele>
      </trkpt>
      <trkpt lat="42.027344" lon="9.1852328">
        <ele>1304.8</ele>
      </trkpt>
      <trkpt lat="42.0279637" lon="9.187046">
        <ele>1287</ele>
      </trkpt>
      <trkpt lat="42.0288363" lon="9.1901413">
        <ele>1269</ele>
      </trkpt>
      <trkpt lat="42.0289778" lon="9.1905382">
        <ele>1272</ele>
      </trkpt>
      <trkpt lat="42.0291491" lon="9.1908306">
        <ele>1280.2</ele>
      </trkpt>
      <trkpt lat="42.029185" lon="9.1911551">
        <ele>1284.2</ele>
      </trkpt>
      <trkpt lat="42.0289997" lon="9.1921932">
        <ele>1284</ele>
      </trkpt>
      <trkpt lat="42.0286331" lon="9.19314">
        <ele>1282</ele>
      </trkpt>
      <trkpt lat="42.0283044" lon="9.1936174">
        <ele>1282.8</ele>
      </trkpt>
      <trkpt lat="42.0281071" lon="9.1940653">
        <ele>1286</ele>
      </trkpt>
      <trkpt lat="42.0280314" lon="9.1943577">
        <ele>1289</ele>
      </trkpt>
      <trkpt lat="42.0280832" lon="9.1946581">
        <ele>1291.5</ele>
      </trkpt>
      <trkpt lat="42.0281988" lon="9.1948083">
        <ele>1291</ele>
      </trkpt>
      <trkpt lat="42.0282486" lon="9.194929">
        <ele>1289.5</ele>
      </trkpt>
      <trkpt lat="42.0276568" lon="9.1953903">
        <ele>1302.5</ele>
      </trkpt>
      <trkpt lat="42.0267025" lon="9.1962406">
        <ele>1319.2</ele>
      </trkpt>
      <trkpt lat="42.02631" lon="9.1967556">
        <ele>1326.8</ele>
      </trkpt>
      <trkpt lat="42.0259234" lon="9.1971338">
        <ele>1334.2</ele>
      </trkpt>
      <trkpt lat="42.0257899" lon="9.1972786">
        <ele>1336.5</ele>
      </trkpt>
      <trkpt lat="42.0253197" lon="9.1975924">
        <ele>1338.5</ele>
      </trkpt>
      <trkpt lat="42.0248435" lon="9.1976756">
        <ele>1335.5</ele>
      </trkpt>
      <trkpt lat="42.0244848" lon="9.1977668">
        <ele>1336.5</ele>
      </trkpt>
      <trkpt lat="42.0243513" lon="9.1979438">
        <ele>1340.5</ele>
      </trkpt>
      <trkpt lat="42.024184" lon="9.1984615">
        <ele>1352.8</ele>
      </trkpt>
      <trkpt lat="42.0241242" lon="9.1990167">
        <ele>1364.5</ele>
      </trkpt>
      <trkpt lat="42.024186" lon="9.1991776">
        <ele>1369.2</ele>
      </trkpt>
      <trkpt lat="42.0250926" lon="9.1994619">
        <ele>1390</ele>
      </trkpt>
      <trkpt lat="42.0259633" lon="9.2002612">
        <ele>1421</ele>
      </trkpt>
      <trkpt lat="42.0262183" lon="9.2006716">
        <ele>1427</ele>
      </trkpt>
      <trkpt lat="42.0263219" lon="9.2007709">
        <ele>1428.8</ele>
      </trkpt>
      <trkpt lat="42.0264833" lon="9.2008057">
        <ele>1432</ele>
      </trkpt>
      <trkpt lat="42.0265291" lon="9.2008808">
        <ele>1433.2</ele>
      </trkpt>
      <trkpt lat="42.0267622" lon="9.2010686">
        <ele>1439.2</ele>
      </trkpt>
      <trkpt lat="42.0269316" lon="9.2015058">
        <ele>1447.2</ele>
      </trkpt>
      <trkpt lat="42.0269754" lon="9.2019805">
        <ele>1450</ele>
      </trkpt>
      <trkpt lat="42.0268001" lon="9.2022353">
        <ele>1452</ele>
      </trkpt>
      <trkpt lat="42.0266487" lon="9.202458">
        <ele>1456.2</ele>
      </trkpt>
      <trkpt lat="42.0265331" lon="9.2026886">
        <ele>1462</ele>
      </trkpt>
      <trkpt lat="42.026559" lon="9.2028871">
        <ele>1468</ele>
      </trkpt>
      <trkpt lat="42.0263817" lon="9.2034048">
        <ele>1478</ele>
      </trkpt>
      <trkpt lat="42.0263777" lon="9.2037266">
        <ele>1484</ele>
      </trkpt>
      <trkpt lat="42.0261804" lon="9.2042041">
        <ele>1487.8</ele>
      </trkpt>
      <trkpt lat="42.0261725" lon="9.2045152">
        <ele>1489.8</ele>
      </trkpt>
      <trkpt lat="42.0261227" lon="9.2045742">
        <ele>1489.2</ele>
      </trkpt>
      <trkpt lat="42.0261525" lon="9.20488">
        <ele>1492</ele>
      </trkpt>
      <trkpt lat="42.0262203" lon="9.2048854">
        <ele>1493.2</ele>
      </trkpt>
      <trkpt lat="42.0263896" lon="9.205277">
        <ele>1493</ele>
      </trkpt>
      <trkpt lat="42.0263956" lon="9.205521">
        <ele>1490</ele>
      </trkpt>
      <trkpt lat="42.0265989" lon="9.2058161">
        <ele>1485.8</ele>
      </trkpt>
      <trkpt lat="42.0271308" lon="9.2059153">
        <ele>1486.3</ele>
      </trkpt>
      <trkpt lat="42.0271886" lon="9.2061326">
        <ele>1486.5</ele>
      </trkpt>
      <trkpt lat="42.0272922" lon="9.2063177">
        <ele>1488.2</ele>
      </trkpt>
      <trkpt lat="42.0271647" lon="9.2065671">
        <ele>1487</ele>
      </trkpt>
      <trkpt lat="42.0269914" lon="9.2066985">
        <ele>1485.2</ele>
      </trkpt>
      <trkpt lat="42.0269495" lon="9.2068648">
        <ele>1484</ele>
      </trkpt>
      <trkpt lat="42.0266188" lon="9.2071331">
        <ele>1481</ele>
      </trkpt>
      <trkpt lat="42.0262701" lon="9.2080021">
        <ele>1484</ele>
      </trkpt>
      <trkpt lat="42.0258537" lon="9.2083749">
        <ele>1482</ele>
      </trkpt>
      <trkpt lat="42.0259075" lon="9.2091072">
        <ele>1491.8</ele>
      </trkpt>
      <trkpt lat="42.0257979" lon="9.2091823">
        <ele>1489.2</ele>
      </trkpt>
      <trkpt lat="42.0255867" lon="9.2091957">
        <ele>1486.5</ele>
      </trkpt>
      <trkpt lat="42.0253038" lon="9.209311">
        <ele>1488.2</ele>
      </trkpt>
      <trkpt lat="42.0252779" lon="9.2093593">
        <ele>1489.2</ele>
      </trkpt>
      <trkpt lat="42.0249909" lon="9.2096061">
        <ele>1494</ele>
      </trkpt>
      <trkpt lat="42.0247977" lon="9.2098662">
        <ele>1497.5</ele>
      </trkpt>
      <trkpt lat="42.0246901" lon="9.2100728">
        <ele>1499.8</ele>
      </trkpt>
      <trkpt lat="42.0245904" lon="9.2101371">
        <ele>1500</ele>
      </trkpt>
      <trkpt lat="42.024447" lon="9.2101505">
        <ele>1499.5</ele>
      </trkpt>
      <trkpt lat="42.0243394" lon="9.2099306">
        <ele>1497.5</ele>
      </trkpt>
      <trkpt lat="42.024174" lon="9.2097831">
        <ele>1499.8</ele>
      </trkpt>
      <trkpt lat="42.0240545" lon="9.2098045">
        <ele>1503.8</ele>
      </trkpt>
      <trkpt lat="42.0238891" lon="9.2099226">
        <ele>1511.2</ele>
      </trkpt>
      <trkpt lat="42.0235723" lon="9.2099279">
        <ele>1515.2</ele>
      </trkpt>
      <trkpt lat="42.0233411" lon="9.2102417">
        <ele>1520.2</ele>
      </trkpt>
      <trkpt lat="42.0228171" lon="9.210054">
        <ele>1519.2</ele>
      </trkpt>
      <trkpt lat="42.0224863" lon="9.2095819">
        <ele>1519.5</ele>
      </trkpt>
      <trkpt lat="42.0221097" lon="9.2090213">
        <ele>1533.8</ele>
      </trkpt>
      <trkpt lat="42.0216295" lon="9.2094827">
        <ele>1560.8</ele>
      </trkpt>
      <trkpt lat="42.0214143" lon="9.2094237">
        <ele>1569.2</ele>
      </trkpt>
      <trkpt lat="42.0211712" lon="9.2097187">
        <ele>1582.5</ele>
      </trkpt>
      <trkpt lat="42.0209461" lon="9.2103705">
        <ele>1595</ele>
      </trkpt>
      <trkpt lat="42.0205993" lon="9.2107755">
        <ele>1613</ele>
      </trkpt>
      <trkpt lat="42.0203443" lon="9.2113817">
        <ele>1623</ele>
      </trkpt>
      <trkpt lat="42.0201889" lon="9.2116365">
        <ele>1629</ele>
      </trkpt>
      <trkpt lat="42.0201809" lon="9.2119315">
        <ele>1636.8</ele>
      </trkpt>
      <trkpt lat="42.0201131" lon="9.2120066">
        <ele>1639.2</ele>
      </trkpt>
      <trkpt lat="42.0200972" lon="9.2121381">
        <ele>1642.5</ele>
      </trkpt>
      <trkpt lat="42.0199139" lon="9.2122507">
        <ele>1645.2</ele>
      </trkpt>
      <trkpt lat="42.0198023" lon="9.212527">
        <ele>1651.5</ele>
      </trkpt>
      <trkpt lat="42.0197983" lon="9.2129534">
        <ele>1661.2</ele>
      </trkpt>
      <trkpt lat="42.0194875" lon="9.2137206">
        <ele>1668.8</ele>
      </trkpt>
      <trkpt lat="42.0195771" lon="9.2139164">
        <ele>1682.2</ele>
      </trkpt>
      <trkpt lat="42.0194058" lon="9.214367">
        <ele>1686.8</ele>
      </trkpt>
      <trkpt lat="42.0192981" lon="9.214485">
        <ele>1684</ele>
      </trkpt>
      <trkpt lat="42.0193001" lon="9.2146191">
        <ele>1689.5</ele>
      </trkpt>
      <trkpt lat="42.0189175" lon="9.2157376">
        <ele>1712.8</ele>
      </trkpt>
      <trkpt lat="42.01879" lon="9.2159092">
        <ele>1713.8</ele>
      </trkpt>
      <trkpt lat="42.0186067" lon="9.2166549">
        <ele>1731.5</ele>
      </trkpt>
      <trkpt lat="42.0186186" lon="9.2168614">
        <ele>1738.2</ele>
      </trkpt>
      <trkpt lat="42.0183975" lon="9.2171055">
        <ele>1742.5</ele>
      </trkpt>
      <trkpt lat="42.0185071" lon="9.2171806">
        <ele>1746.8</ele>
      </trkpt>
      <trkpt lat="42.0184194" lon="9.2173228">
        <ele>1750.8</ele>
      </trkpt>
      <trkpt lat="42.0186167" lon="9.217371">
        <ele>1756.2</ele>
      </trkpt>
      <trkpt lat="42.0185868" lon="9.2174622">
        <ele>1758.5</ele>
      </trkpt>
      <trkpt lat="42.0188498" lon="9.2175159">
        <ele>1769.2</ele>
      </trkpt>
      <trkpt lat="42.018529" lon="9.2181328">
        <ele>1781.2</ele>
      </trkpt>
      <trkpt lat="42.018517" lon="9.2182642">
        <ele>1785.5</ele>
      </trkpt>
      <trkpt lat="42.0185907" lon="9.2182562">
        <ele>1787.2</ele>
      </trkpt>
      <trkpt lat="42.018529" lon="9.2184091">
        <ele>1790.5</ele>
      </trkpt>
      <trkpt lat="42.0186266" lon="9.2184627">
        <ele>1795.2</ele>
      </trkpt>
      <trkpt lat="42.018535" lon="9.2186478">
        <ele>1799</ele>
      </trkpt>
      <trkpt lat="42.0186007" lon="9.218688">
        <ele>1802.5</ele>
      </trkpt>
      <trkpt lat="42.0185609" lon="9.2188302">
        <ele>1806.5</ele>
      </trkpt>
      <trkpt lat="42.0186924" lon="9.2188731">
        <ele>1813</ele>
      </trkpt>
      <trkpt lat="42.0186645" lon="9.2189294">
        <ele>1814.2</ele>
      </trkpt>
      <trkpt lat="42.0188299" lon="9.2190045">
        <ele>1823.5</ele>
      </trkpt>
      <trkpt lat="42.0186426" lon="9.2193264">
        <ele>1828.2</ele>
      </trkpt>
      <trkpt lat="42.0184473" lon="9.2195544">
        <ele>1831.8</ele>
      </trkpt>
      <trkpt lat="42.018509" lon="9.2196429">
        <ele>1835.2</ele>
      </trkpt>
      <trkpt lat="42.0180188" lon="9.2204878">
        <ele>1846.8</ele>
      </trkpt>
      <trkpt lat="42.0178973" lon="9.2205387">
        <ele>1844.5</ele>
      </trkpt>
      <trkpt lat="42.0172656" lon="9.2205951">
        <ele>1843.2</ele>
      </trkpt>
      <trkpt lat="42.0169009" lon="9.2205924">
        <ele>1844.2</ele>
      </trkpt>
      <trkpt lat="42.016614" lon="9.2204127">
        <ele>1846</ele>
      </trkpt>
      <trkpt lat="42.0161098" lon="9.2201605">
        <ele>1845.8</ele>
      </trkpt>
      <trkpt lat="42.0155857" lon="9.2199996">
        <ele>1846.5</ele>
      </trkpt>
      <trkpt lat="42.0153864" lon="9.2198923">
        <ele>1846.2</ele>
      </trkpt>
      <trkpt lat="42.014964" lon="9.219785">
        <ele>1843.8</ele>
      </trkpt>
      <trkpt lat="42.0148005" lon="9.2196563">
        <ele>1846</ele>
      </trkpt>
      <trkpt lat="42.0146292" lon="9.2195839">
        <ele>1847</ele>
      </trkpt>
      <trkpt lat="42.014398" lon="9.2195624">
        <ele>1845.2</ele>
      </trkpt>
      <trkpt lat="42.0141728" lon="9.2194363">
        <ele>1846.2</ele>
      </trkpt>
      <trkpt lat="42.0139058" lon="9.2192352">
        <ele>1847.5</ele>
      </trkpt>
      <trkpt lat="42.0136886" lon="9.2192164">
        <ele>1846.2</ele>
      </trkpt>
      <trkpt lat="42.0134594" lon="9.2191494">
        <ele>1848</ele>
      </trkpt>
      <trkpt lat="42.0132441" lon="9.2190555">
        <ele>1849.5</ele>
      </trkpt>
      <trkpt lat="42.0128615" lon="9.2189857">
        <ele>1853</ele>
      </trkpt>
      <trkpt lat="42.0125566" lon="9.2189938">
        <ele>1855</ele>
      </trkpt>
      <trkpt lat="42.0117614" lon="9.2186558">
        <ele>1863.8</ele>
      </trkpt>
      <trkpt lat="42.0113848" lon="9.2185673">
        <ele>1865.8</ele>
      </trkpt>
      <trkpt lat="42.011046" lon="9.2186451">
        <ele>1865.5</ele>
      </trkpt>
      <trkpt lat="42.010755" lon="9.2186907">
        <ele>1862</ele>
      </trkpt>
      <trkpt lat="42.0103923" lon="9.2185754">
        <ele>1855.8</ele>
      </trkpt>
      <trkpt lat="42.0102468" lon="9.2184761">
        <ele>1853.2</ele>
      </trkpt>
      <trkpt lat="42.0101811" lon="9.2185217">
        <ele>1851.5</ele>
      </trkpt>
      <trkpt lat="42.0100914" lon="9.2183983">
        <ele>1850.5</ele>
      </trkpt>
      <trkpt lat="42.0097187" lon="9.2182991">
        <ele>1842.8</ele>
      </trkpt>
      <trkpt lat="42.0095872" lon="9.2182857">
        <ele>1839.5</ele>
      </trkpt>
      <trkpt lat="42.009334" lon="9.2181462">
        <ele>1835.2</ele>
      </trkpt>
      <trkpt lat="42.0092862" lon="9.2182294">
        <ele>1832.8</ele>
      </trkpt>
      <trkpt lat="42.0091886" lon="9.2182267">
        <ele>1830.2</ele>
      </trkpt>
      <trkpt lat="42.0090829" lon="9.2181435">
        <ele>1828.8</ele>
      </trkpt>
      <trkpt lat="42.0089394" lon="9.218165">
        <ele>1825</ele>
      </trkpt>
      <trkpt lat="42.0088238" lon="9.2180899">
        <ele>1823.2</ele>
      </trkpt>
      <trkpt lat="42.0087182" lon="9.2180818">
        <ele>1820.8</ele>
      </trkpt>
      <trkpt lat="42.0085946" lon="9.2180711">
        <ele>1817.5</ele>
      </trkpt>
      <trkpt lat="42.0085528" lon="9.2181945">
        <ele>1814.6</ele>
      </trkpt>
      <trkpt lat="42.008317" lon="9.21811">
        <ele>1809.0</ele>
        <time>2022-09-15T04:26:01Z</time>
      </trkpt>
      <trkpt lat="42.008317" lon="9.21811">
        <ele>1810.0</ele>
        <time>2022-09-15T04:26:06Z</time>
      </trkpt>
      <trkpt lat="42.008343" lon="9.217877">
        <ele>1810.4</ele>
        <time>2022-09-15T04:26:19Z</time>
      </trkpt>
      <trkpt lat="42.008337" lon="9.21784">
        <ele>1810.8</ele>
        <time>2022-09-15T04:26:21Z</time>
      </trkpt>
      <trkpt lat="42.008327" lon="9.21778">
        <ele>1813.4</ele>
        <time>2022-09-15T04:26:26Z</time>
      </trkpt>
      <trkpt lat="42.008302" lon="9.217708">
        <ele>1812.2</ele>
        <time>2022-09-15T04:26:33Z</time>
      </trkpt>
      <trkpt lat="42.008257" lon="9.217622">
        <ele>1812.6</ele>
        <time>2022-09-15T04:26:42Z</time>
      </trkpt>
      <trkpt lat="42.008237" lon="9.217567">
        <ele>1811.6</ele>
        <time>2022-09-15T04:26:47Z</time>
      </trkpt>
      <trkpt lat="42.008175" lon="9.217547">
        <ele>1812.8</ele>
        <time>2022-09-15T04:26:54Z</time>
      </trkpt>
      <trkpt lat="42.008127" lon="9.217517">
        <ele>1814.0</ele>
        <time>2022-09-15T04:27:00Z</time>
      </trkpt>
      <trkpt lat="42.008067" lon="9.217433">
        <ele>1812.4</ele>
        <time>2022-09-15T04:27:09Z</time>
      </trkpt>
      <trkpt lat="42.008037" lon="9.217382">
        <ele>1810.8</ele>
        <time>2022-09-15T04:27:15Z</time>
      </trkpt>
      <trkpt lat="42.007995" lon="9.217308">
        <ele>1812.2</ele>
        <time>2022-09-15T04:27:22Z</time>
      </trkpt>
      <trkpt lat="42.007932" lon="9.217237">
        <ele>1812.4</ele>
        <time>2022-09-15T04:27:30Z</time>
      </trkpt>
      <trkpt lat="42.007878" lon="9.217162">
        <ele>1812.2</ele>
        <time>2022-09-15T04:27:37Z</time>
      </trkpt>
      <trkpt lat="42.007858" lon="9.217097">
        <ele>1811.2</ele>
        <time>2022-09-15T04:27:42Z</time>
      </trkpt>
      <trkpt lat="42.007828" lon="9.217007">
        <ele>1810.6</ele>
        <time>2022-09-15T04:27:49Z</time>
      </trkpt>
      <trkpt lat="42.007808" lon="9.216932">
        <ele>1811.4</ele>
        <time>2022-09-15T04:27:55Z</time>
      </trkpt>
      <trkpt lat="42.007763" lon="9.21687">
        <ele>1812.6</ele>
        <time>2022-09-15T04:28:01Z</time>
      </trkpt>
      <trkpt lat="42.007737" lon="9.216708">
        <ele>1812.2</ele>
        <time>2022-09-15T04:28:15Z</time>
      </trkpt>
      <trkpt lat="42.007717" lon="9.216628">
        <ele>1812.0</ele>
        <time>2022-09-15T04:28:22Z</time>
      </trkpt>
      <trkpt lat="42.00769" lon="9.21655">
        <ele>1812.4</ele>
        <time>2022-09-15T04:28:30Z</time>
      </trkpt>
      <trkpt lat="42.00768" lon="9.21649">
        <ele>1812.0</ele>
        <time>2022-09-15T04:28:36Z</time>
      </trkpt>
      <trkpt lat="42.007677" lon="9.216482">
        <ele>1812.0</ele>
        <time>2022-09-15T04:28:37Z</time>
      </trkpt>
      <trkpt lat="42.00767" lon="9.216382">
        <ele>1813.2</ele>
        <time>2022-09-15T04:28:44Z</time>
      </trkpt>
      <trkpt lat="42.007635" lon="9.21629">
        <ele>1814.4</ele>
        <time>2022-09-15T04:28:51Z</time>
      </trkpt>
      <trkpt lat="42.007555" lon="9.216235">
        <ele>1815.8</ele>
        <time>2022-09-15T04:28:59Z</time>
      </trkpt>
      <trkpt lat="42.007443" lon="9.216135">
        <ele>1816.2</ele>
        <time>2022-09-15T04:29:08Z</time>
      </trkpt>
      <trkpt lat="42.007317" lon="9.21598">
        <ele>1814.6</ele>
        <time>2022-09-15T04:29:19Z</time>
      </trkpt>
      <trkpt lat="42.00729" lon="9.215877">
        <ele>1816.8</ele>
        <time>2022-09-15T04:29:29Z</time>
      </trkpt>
      <trkpt lat="42.007247" lon="9.215782">
        <ele>1819.8</ele>
        <time>2022-09-15T04:29:40Z</time>
      </trkpt>
      <trkpt lat="42.007235" lon="9.21573">
        <ele>1818.8</ele>
        <time>2022-09-15T04:29:45Z</time>
      </trkpt>
      <trkpt lat="42.007222" lon="9.215707">
        <ele>1818.8</ele>
        <time>2022-09-15T04:29:48Z</time>
      </trkpt>
      <trkpt lat="42.007208" lon="9.21565">
        <ele>1818.8</ele>
        <time>2022-09-15T04:29:53Z</time>
      </trkpt>
      <trkpt lat="42.00716" lon="9.215605">
        <ele>1820.6</ele>
        <time>2022-09-15T04:30:00Z</time>
      </trkpt>
      <trkpt lat="42.007147" lon="9.21553">
        <ele>1821.0</ele>
        <time>2022-09-15T04:30:09Z</time>
      </trkpt>
      <trkpt lat="42.007107" lon="9.215465">
        <ele>1823.6</ele>
        <time>2022-09-15T04:30:19Z</time>
      </trkpt>
      <trkpt lat="42.007103" lon="9.215457">
        <ele>1824.6</ele>
        <time>2022-09-15T04:30:20Z</time>
      </trkpt>
      <trkpt lat="42.007078" lon="9.21541">
        <ele>1824.6</ele>
        <time>2022-09-15T04:30:26Z</time>
      </trkpt>
      <trkpt lat="42.007005" lon="9.215312">
        <ele>1825.4</ele>
        <time>2022-09-15T04:30:39Z</time>
      </trkpt>
      <trkpt lat="42.006928" lon="9.215227">
        <ele>1824.4</ele>
        <time>2022-09-15T04:30:52Z</time>
      </trkpt>
      <trkpt lat="42.006923" lon="9.215175">
        <ele>1824.2</ele>
        <time>2022-09-15T04:30:58Z</time>
      </trkpt>
      <trkpt lat="42.006928" lon="9.215035">
        <ele>1824.6</ele>
        <time>2022-09-15T04:31:09Z</time>
      </trkpt>
      <trkpt lat="42.00691" lon="9.21498">
        <ele>1823.8</ele>
        <time>2022-09-15T04:31:14Z</time>
      </trkpt>
      <trkpt lat="42.006835" lon="9.21492">
        <ele>1825.8</ele>
        <time>2022-09-15T04:31:24Z</time>
      </trkpt>
      <trkpt lat="42.006732" lon="9.214795">
        <ele>1826.2</ele>
        <time>2022-09-15T04:31:37Z</time>
      </trkpt>
      <trkpt lat="42.006723" lon="9.214787">
        <ele>1826.2</ele>
        <time>2022-09-15T04:31:38Z</time>
      </trkpt>
      <trkpt lat="42.006642" lon="9.214808">
        <ele>1827.0</ele>
        <time>2022-09-15T04:31:51Z</time>
      </trkpt>
      <trkpt lat="42.006532" lon="9.21485">
        <ele>1827.6</ele>
        <time>2022-09-15T04:32:08Z</time>
      </trkpt>
      <trkpt lat="42.00648" lon="9.214912">
        <ele>1828.4</ele>
        <time>2022-09-15T04:32:17Z</time>
      </trkpt>
      <trkpt lat="42.006445" lon="9.214965">
        <ele>1830.0</ele>
        <time>2022-09-15T04:32:23Z</time>
      </trkpt>
      <trkpt lat="42.006413" lon="9.215008">
        <ele>1830.4</ele>
        <time>2022-09-15T04:32:29Z</time>
      </trkpt>
      <trkpt lat="42.00637" lon="9.214883">
        <ele>1832.2</ele>
        <time>2022-09-15T04:32:45Z</time>
      </trkpt>
      <trkpt lat="42.006343" lon="9.214857">
        <ele>1832.2</ele>
        <time>2022-09-15T04:32:51Z</time>
      </trkpt>
      <trkpt lat="42.006287" lon="9.214817">
        <ele>1833.2</ele>
        <time>2022-09-15T04:33:05Z</time>
      </trkpt>
      <trkpt lat="42.006215" lon="9.214737">
        <ele>1835.2</ele>
        <time>2022-09-15T04:33:17Z</time>
      </trkpt>
      <trkpt lat="42.00618" lon="9.214717">
        <ele>1836.0</ele>
        <time>2022-09-15T04:33:22Z</time>
      </trkpt>
      <trkpt lat="42.006133" lon="9.214673">
        <ele>1835.2</ele>
        <time>2022-09-15T04:33:30Z</time>
      </trkpt>
      <trkpt lat="42.006043" lon="9.214628">
        <ele>1835.8</ele>
        <time>2022-09-15T04:33:43Z</time>
      </trkpt>
      <trkpt lat="42.006008" lon="9.214575">
        <ele>1837.4</ele>
        <time>2022-09-15T04:33:50Z</time>
      </trkpt>
      <trkpt lat="42.005958" lon="9.214458">
        <ele>1837.2</ele>
        <time>2022-09-15T04:34:04Z</time>
      </trkpt>
      <trkpt lat="42.005953" lon="9.21445">
        <ele>1837.2</ele>
        <time>2022-09-15T04:34:06Z</time>
      </trkpt>
      <trkpt lat="42.005907" lon="9.214395">
        <ele>1837.4</ele>
        <time>2022-09-15T04:34:14Z</time>
      </trkpt>
      <trkpt lat="42.005832" lon="9.214412">
        <ele>1838.4</ele>
        <time>2022-09-15T04:34:23Z</time>
      </trkpt>
      <trkpt lat="42.005763" lon="9.214373">
        <ele>1840.2</ele>
        <time>2022-09-15T04:34:32Z</time>
      </trkpt>
      <trkpt lat="42.00571" lon="9.214367">
        <ele>1841.2</ele>
        <time>2022-09-15T04:34:38Z</time>
      </trkpt>
      <trkpt lat="42.005642" lon="9.214288">
        <ele>1843.2</ele>
        <time>2022-09-15T04:34:49Z</time>
      </trkpt>
      <trkpt lat="42.005583" lon="9.2142">
        <ele>1846.4</ele>
        <time>2022-09-15T04:34:59Z</time>
      </trkpt>
      <trkpt lat="42.005518" lon="9.214177">
        <ele>1844.8</ele>
        <time>2022-09-15T04:35:07Z</time>
      </trkpt>
      <trkpt lat="42.005428" lon="9.214145">
        <ele>1844.8</ele>
        <time>2022-09-15T04:35:17Z</time>
      </trkpt>
      <trkpt lat="42.00542" lon="9.214138">
        <ele>1844.8</ele>
        <time>2022-09-15T04:35:17Z</time>
      </trkpt>
      <trkpt lat="42.005193" lon="9.213955">
        <ele>1847.8</ele>
        <time>2022-09-15T04:35:44Z</time>
      </trkpt>
      <trkpt lat="42.005048" lon="9.21385">
        <ele>1849.4</ele>
        <time>2022-09-15T04:35:58Z</time>
      </trkpt>
      <trkpt lat="42.005008" lon="9.21388">
        <ele>1849.8</ele>
        <time>2022-09-15T04:36:02Z</time>
      </trkpt>
      <trkpt lat="42.004945" lon="9.213938">
        <ele>1852.0</ele>
        <time>2022-09-15T04:36:09Z</time>
      </trkpt>
      <trkpt lat="42.004833" lon="9.214003">
        <ele>1855.0</ele>
        <time>2022-09-15T04:36:20Z</time>
      </trkpt>
      <trkpt lat="42.004733" lon="9.214052">
        <ele>1856.4</ele>
        <time>2022-09-15T04:36:30Z</time>
      </trkpt>
      <trkpt lat="42.00467" lon="9.214145">
        <ele>1856.4</ele>
        <time>2022-09-15T04:36:39Z</time>
      </trkpt>
      <trkpt lat="42.004615" lon="9.214173">
        <ele>1856.4</ele>
        <time>2022-09-15T04:36:46Z</time>
      </trkpt>
      <trkpt lat="42.004582" lon="9.214188">
        <ele>1859.2</ele>
        <time>2022-09-15T04:36:50Z</time>
      </trkpt>
      <trkpt lat="42.004467" lon="9.214063">
        <ele>1853.8</ele>
        <time>2022-09-15T04:37:07Z</time>
      </trkpt>
      <trkpt lat="42.004407" lon="9.213987">
        <ele>1853.4</ele>
        <time>2022-09-15T04:37:17Z</time>
      </trkpt>
      <trkpt lat="42.004375" lon="9.21403">
        <ele>1854.2</ele>
        <time>2022-09-15T04:37:21Z</time>
      </trkpt>
      <trkpt lat="42.004318" lon="9.21419">
        <ele>1854.2</ele>
        <time>2022-09-15T04:37:32Z</time>
      </trkpt>
      <trkpt lat="42.004268" lon="9.214297">
        <ele>1855.6</ele>
        <time>2022-09-15T04:37:40Z</time>
      </trkpt>
      <trkpt lat="42.004227" lon="9.214352">
        <ele>1854.8</ele>
        <time>2022-09-15T04:37:45Z</time>
      </trkpt>
      <trkpt lat="42.004188" lon="9.214388">
        <ele>1859.6</ele>
        <time>2022-09-15T04:37:50Z</time>
      </trkpt>
      <trkpt lat="42.004147" lon="9.214472">
        <ele>1859.0</ele>
        <time>2022-09-15T04:37:59Z</time>
      </trkpt>
      <trkpt lat="42.004062" lon="9.21451">
        <ele>1859.6</ele>
        <time>2022-09-15T04:38:09Z</time>
      </trkpt>
      <trkpt lat="42.003997" lon="9.214543">
        <ele>1859.6</ele>
        <time>2022-09-15T04:38:16Z</time>
      </trkpt>
      <trkpt lat="42.00396" lon="9.214607">
        <ele>1860.2</ele>
        <time>2022-09-15T04:38:22Z</time>
      </trkpt>
      <trkpt lat="42.003953" lon="9.214593">
        <ele>1860.0</ele>
        <time>2022-09-15T04:38:24Z</time>
      </trkpt>
      <trkpt lat="42.003912" lon="9.2145">
        <ele>1861.6</ele>
        <time>2022-09-15T04:38:31Z</time>
      </trkpt>
      <trkpt lat="42.00387" lon="9.21438">
        <ele>1863.0</ele>
        <time>2022-09-15T04:38:39Z</time>
      </trkpt>
      <trkpt lat="42.003927" lon="9.21416">
        <ele>1866.2</ele>
        <time>2022-09-15T04:38:56Z</time>
      </trkpt>
      <trkpt lat="42.003947" lon="9.214103">
        <ele>1868.4</ele>
        <time>2022-09-15T04:39:01Z</time>
      </trkpt>
      <trkpt lat="42.003933" lon="9.214065">
        <ele>1869.0</ele>
        <time>2022-09-15T04:39:05Z</time>
      </trkpt>
      <trkpt lat="42.0039" lon="9.214028">
        <ele>1868.6</ele>
        <time>2022-09-15T04:39:09Z</time>
      </trkpt>
      <trkpt lat="42.003848" lon="9.214057">
        <ele>1868.0</ele>
        <time>2022-09-15T04:39:16Z</time>
      </trkpt>
      <trkpt lat="42.003815" lon="9.21406">
        <ele>1868.2</ele>
        <time>2022-09-15T04:39:22Z</time>
      </trkpt>
      <trkpt lat="42.00375" lon="9.214123">
        <ele>1869.4</ele>
        <time>2022-09-15T04:39:30Z</time>
      </trkpt>
      <trkpt lat="42.003697" lon="9.214173">
        <ele>1870.8</ele>
        <time>2022-09-15T04:39:37Z</time>
      </trkpt>
      <trkpt lat="42.003693" lon="9.214172">
        <ele>1871.0</ele>
        <time>2022-09-15T04:39:41Z</time>
      </trkpt>
      <trkpt lat="42.003722" lon="9.21418">
        <ele>1873.0</ele>
        <time>2022-09-15T04:39:49Z</time>
      </trkpt>
      <trkpt lat="42.003735" lon="9.214158">
        <ele>1877.0</ele>
        <time>2022-09-15T04:40:06Z</time>
      </trkpt>
      <trkpt lat="42.003727" lon="9.214162">
        <ele>1877.6</ele>
        <time>2022-09-15T04:40:07Z</time>
      </trkpt>
      <trkpt lat="42.003593" lon="9.214185">
        <ele>1880.2</ele>
        <time>2022-09-15T04:40:24Z</time>
      </trkpt>
      <trkpt lat="42.00353" lon="9.214267">
        <ele>1881.2</ele>
        <time>2022-09-15T04:40:43Z</time>
      </trkpt>
      <trkpt lat="42.0035" lon="9.214282">
        <ele>1882.6</ele>
        <time>2022-09-15T04:40:48Z</time>
      </trkpt>
      <trkpt lat="42.00348" lon="9.21432">
        <ele>1884.6</ele>
        <time>2022-09-15T04:40:54Z</time>
      </trkpt>
      <trkpt lat="42.003458" lon="9.214378">
        <ele>1882.8</ele>
        <time>2022-09-15T04:41:02Z</time>
      </trkpt>
      <trkpt lat="42.003435" lon="9.214403">
        <ele>1882.4</ele>
        <time>2022-09-15T04:41:08Z</time>
      </trkpt>
      <trkpt lat="42.00339" lon="9.214372">
        <ele>1884.2</ele>
        <time>2022-09-15T04:41:18Z</time>
      </trkpt>
      <trkpt lat="42.00335" lon="9.214377">
        <ele>1884.2</ele>
        <time>2022-09-15T04:41:24Z</time>
      </trkpt>
      <trkpt lat="42.003328" lon="9.214392">
        <ele>1884.0</ele>
        <time>2022-09-15T04:41:28Z</time>
      </trkpt>
      <trkpt lat="42.003302" lon="9.214425">
        <ele>1886.0</ele>
        <time>2022-09-15T04:41:35Z</time>
      </trkpt>
      <trkpt lat="42.003287" lon="9.21443">
        <ele>1887.2</ele>
        <time>2022-09-15T04:41:40Z</time>
      </trkpt>
      <trkpt lat="42.003287" lon="9.214392">
        <ele>1887.4</ele>
        <time>2022-09-15T04:41:47Z</time>
      </trkpt>
      <trkpt lat="42.00321" lon="9.214342">
        <ele>1896.0</ele>
        <time>2022-09-15T04:42:11Z</time>
      </trkpt>
      <trkpt lat="42.003185" lon="9.214405">
        <ele>1891.8</ele>
        <time>2022-09-15T04:42:20Z</time>
      </trkpt>
      <trkpt lat="42.003152" lon="9.214428">
        <ele>1893.0</ele>
        <time>2022-09-15T04:42:26Z</time>
      </trkpt>
      <trkpt lat="42.003138" lon="9.214432">
        <ele>1894.6</ele>
        <time>2022-09-15T04:42:29Z</time>
      </trkpt>
      <trkpt lat="42.003073" lon="9.214447">
        <ele>1898.2</ele>
        <time>2022-09-15T04:42:41Z</time>
      </trkpt>
      <trkpt lat="42.003038" lon="9.214467">
        <ele>1899.6</ele>
        <time>2022-09-15T04:42:49Z</time>
      </trkpt>
      <trkpt lat="42.003017" lon="9.214502">
        <ele>1897.8</ele>
        <time>2022-09-15T04:43:15Z</time>
      </trkpt>
      <trkpt lat="42.003012" lon="9.214527">
        <ele>1898.0</ele>
        <time>2022-09-15T04:43:20Z</time>
      </trkpt>
      <trkpt lat="42.002982" lon="9.214593">
        <ele>1899.8</ele>
        <time>2022-09-15T04:43:31Z</time>
      </trkpt>
      <trkpt lat="42.002973" lon="9.214652">
        <ele>1900.4</ele>
        <time>2022-09-15T04:43:39Z</time>
      </trkpt>
      <trkpt lat="42.00295" lon="9.214722">
        <ele>1902.4</ele>
        <time>2022-09-15T04:43:48Z</time>
      </trkpt>
      <trkpt lat="42.002935" lon="9.214832">
        <ele>1905.4</ele>
        <time>2022-09-15T04:44:01Z</time>
      </trkpt>
      <trkpt lat="42.00288" lon="9.214878">
        <ele>1905.6</ele>
        <time>2022-09-15T04:44:19Z</time>
      </trkpt>
      <trkpt lat="42.002867" lon="9.214895">
        <ele>1905.2</ele>
        <time>2022-09-15T04:44:22Z</time>
      </trkpt>
      <trkpt lat="42.002712" lon="9.214892">
        <ele>1907.0</ele>
        <time>2022-09-15T04:44:36Z</time>
      </trkpt>
      <trkpt lat="42.002595" lon="9.214842">
        <ele>1909.2</ele>
        <time>2022-09-15T04:44:46Z</time>
      </trkpt>
      <trkpt lat="42.002435" lon="9.214963">
        <ele>1909.8</ele>
        <time>2022-09-15T04:44:58Z</time>
      </trkpt>
      <trkpt lat="42.002447" lon="9.214967">
        <ele>1909.4</ele>
        <time>2022-09-15T04:44:59Z</time>
      </trkpt>
      <trkpt lat="42.002515" lon="9.214985">
        <ele>1910.0</ele>
        <time>2022-09-15T04:45:05Z</time>
      </trkpt>
      <trkpt lat="42.002557" lon="9.215037">
        <ele>1909.0</ele>
        <time>2022-09-15T04:45:11Z</time>
      </trkpt>
      <trkpt lat="42.002568" lon="9.215082">
        <ele>1909.2</ele>
        <time>2022-09-15T04:45:19Z</time>
      </trkpt>
      <trkpt lat="42.00257" lon="9.215092">
        <ele>1908.8</ele>
        <time>2022-09-15T04:45:20Z</time>
      </trkpt>
      <trkpt lat="42.00259" lon="9.215138">
        <ele>1908.4</ele>
        <time>2022-09-15T04:45:24Z</time>
      </trkpt>
      <trkpt lat="42.002665" lon="9.215147">
        <ele>1909.4</ele>
        <time>2022-09-15T04:45:34Z</time>
      </trkpt>
      <trkpt lat="42.002728" lon="9.215148">
        <ele>1909.0</ele>
        <time>2022-09-15T04:45:40Z</time>
      </trkpt>
      <trkpt lat="42.002813" lon="9.215075">
        <ele>1912.6</ele>
        <time>2022-09-15T04:45:48Z</time>
      </trkpt>
      <trkpt lat="42.002858" lon="9.215085">
        <ele>1912.0</ele>
        <time>2022-09-15T04:45:52Z</time>
      </trkpt>
      <trkpt lat="42.002923" lon="9.215122">
        <ele>1912.8</ele>
        <time>2022-09-15T04:45:58Z</time>
      </trkpt>
      <trkpt lat="42.002963" lon="9.215143">
        <ele>1914.8</ele>
        <time>2022-09-15T04:46:02Z</time>
      </trkpt>
      <trkpt lat="42.002893" lon="9.215083">
        <ele>1915.6</ele>
        <time>2022-09-15T04:46:08Z</time>
      </trkpt>
      <trkpt lat="42.002865" lon="9.21502">
        <ele>1916.6</ele>
        <time>2022-09-15T04:46:14Z</time>
      </trkpt>
      <trkpt lat="42.002852" lon="9.21498">
        <ele>1916.2</ele>
        <time>2022-09-15T04:46:18Z</time>
      </trkpt>
      <trkpt lat="42.002808" lon="9.214935">
        <ele>1916.8</ele>
        <time>2022-09-15T04:46:23Z</time>
      </trkpt>
      <trkpt lat="42.002733" lon="9.214932">
        <ele>1919.0</ele>
        <time>2022-09-15T04:46:28Z</time>
      </trkpt>
      <trkpt lat="42.00254" lon="9.214928">
        <ele>1920.6</ele>
        <time>2022-09-15T04:46:39Z</time>
      </trkpt>
      <trkpt lat="42.002433" lon="9.214908">
        <ele>1921.0</ele>
        <time>2022-09-15T04:46:46Z</time>
      </trkpt>
      <trkpt lat="42.002362" lon="9.214898">
        <ele>1922.2</ele>
        <time>2022-09-15T04:46:51Z</time>
      </trkpt>
      <trkpt lat="42.002198" lon="9.214948">
        <ele>1923.8</ele>
        <time>2022-09-15T04:47:00Z</time>
      </trkpt>
      <trkpt lat="42.002175" lon="9.214958">
        <ele>1924.6</ele>
        <time>2022-09-15T04:47:02Z</time>
      </trkpt>
      <trkpt lat="42.00216" lon="9.21504">
        <ele>1924.6</ele>
        <time>2022-09-15T04:47:08Z</time>
      </trkpt>
      <trkpt lat="42.00216" lon="9.215178">
        <ele>1926.6</ele>
        <time>2022-09-15T04:47:19Z</time>
      </trkpt>
      <trkpt lat="42.002158" lon="9.215203">
        <ele>1927.0</ele>
        <time>2022-09-15T04:47:20Z</time>
      </trkpt>
      <trkpt lat="42.002132" lon="9.215243">
        <ele>1927.4</ele>
        <time>2022-09-15T04:47:24Z</time>
      </trkpt>
      <trkpt lat="42.0021" lon="9.215278">
        <ele>1923.4</ele>
        <time>2022-09-15T04:47:30Z</time>
      </trkpt>
      <trkpt lat="42.002087" lon="9.215332">
        <ele>1925.8</ele>
        <time>2022-09-15T04:47:36Z</time>
      </trkpt>
      <trkpt lat="42.002085" lon="9.215428">
        <ele>1928.6</ele>
        <time>2022-09-15T04:47:49Z</time>
      </trkpt>
      <trkpt lat="42.002088" lon="9.215435">
        <ele>1929.6</ele>
        <time>2022-09-15T04:47:50Z</time>
      </trkpt>
      <trkpt lat="42.002003" lon="9.21553">
        <ele>1924.6</ele>
        <time>2022-09-15T04:48:05Z</time>
      </trkpt>
      <trkpt lat="42.001912" lon="9.215623">
        <ele>1924.2</ele>
        <time>2022-09-15T04:48:18Z</time>
      </trkpt>
      <trkpt lat="42.001882" lon="9.215705">
        <ele>1929.0</ele>
        <time>2022-09-15T04:48:32Z</time>
      </trkpt>
      <trkpt lat="42.001902" lon="9.215768">
        <ele>1928.6</ele>
        <time>2022-09-15T04:48:49Z</time>
      </trkpt>
      <trkpt lat="42.00184" lon="9.215748">
        <ele>1927.8</ele>
        <time>2022-09-15T04:49:01Z</time>
      </trkpt>
      <trkpt lat="42.001787" lon="9.215735">
        <ele>1928.6</ele>
        <time>2022-09-15T04:49:08Z</time>
      </trkpt>
      <trkpt lat="42.001743" lon="9.215725">
        <ele>1928.8</ele>
        <time>2022-09-15T04:49:15Z</time>
      </trkpt>
      <trkpt lat="42.001723" lon="9.215757">
        <ele>1929.6</ele>
        <time>2022-09-15T04:49:35Z</time>
      </trkpt>
      <trkpt lat="42.00172" lon="9.21577">
        <ele>1928.8</ele>
        <time>2022-09-15T04:49:39Z</time>
      </trkpt>
      <trkpt lat="42.001723" lon="9.215905">
        <ele>1930.8</ele>
        <time>2022-09-15T04:50:09Z</time>
      </trkpt>
      <trkpt lat="42.001733" lon="9.215932">
        <ele>1929.4</ele>
        <time>2022-09-15T04:50:21Z</time>
      </trkpt>
      <trkpt lat="42.001803" lon="9.21596">
        <ele>1934.2</ele>
        <time>2022-09-15T04:51:20Z</time>
      </trkpt>
      <trkpt lat="42.001552" lon="9.216992">
        <ele>1940.0</ele>
        <time>2022-09-15T04:58:30Z</time>
      </trkpt>
      <trkpt lat="42.001697" lon="9.216008">
        <ele>1946.2</ele>
        <time>2022-09-15T04:59:14Z</time>
      </trkpt>
      <trkpt lat="42.001203" lon="9.216028">
        <ele>1947.8</ele>
        <time>2022-09-15T04:59:24Z</time>
      </trkpt>
      <trkpt lat="42.001173" lon="9.216037">
        <ele>1947.8</ele>
        <time>2022-09-15T04:59:24Z</time>
      </trkpt>
      <trkpt lat="42.000977" lon="9.216015">
        <ele>1947.2</ele>
        <time>2022-09-15T04:59:37Z</time>
      </trkpt>
      <trkpt lat="42.000885" lon="9.215993">
        <ele>1949.4</ele>
        <time>2022-09-15T04:59:46Z</time>
      </trkpt>
      <trkpt lat="42.00084" lon="9.216023">
        <ele>1951.0</ele>
        <time>2022-09-15T04:59:52Z</time>
      </trkpt>
      <trkpt lat="42.000802" lon="9.216047">
        <ele>1951.6</ele>
        <time>2022-09-15T04:59:58Z</time>
      </trkpt>
      <trkpt lat="42.000782" lon="9.21611">
        <ele>1953.6</ele>
        <time>2022-09-15T05:00:03Z</time>
      </trkpt>
      <trkpt lat="42.000787" lon="9.21614">
        <ele>1953.2</ele>
        <time>2022-09-15T05:00:06Z</time>
      </trkpt>
      <trkpt lat="42.000795" lon="9.216183">
        <ele>1954.4</ele>
        <time>2022-09-15T05:00:09Z</time>
      </trkpt>
      <trkpt lat="42.000795" lon="9.216198">
        <ele>1954.4</ele>
        <time>2022-09-15T05:00:10Z</time>
      </trkpt>
      <trkpt lat="42.000765" lon="9.21618">
        <ele>1954.4</ele>
        <time>2022-09-15T05:00:13Z</time>
      </trkpt>
      <trkpt lat="42.000722" lon="9.216153">
        <ele>1954.2</ele>
        <time>2022-09-15T05:00:17Z</time>
      </trkpt>
      <trkpt lat="42.000697" lon="9.21615">
        <ele>1954.4</ele>
        <time>2022-09-15T05:00:19Z</time>
      </trkpt>
      <trkpt lat="42.000587" lon="9.216158">
        <ele>1955.0</ele>
        <time>2022-09-15T05:00:28Z</time>
      </trkpt>
      <trkpt lat="42.000522" lon="9.216093">
        <ele>1955.4</ele>
        <time>2022-09-15T05:00:36Z</time>
      </trkpt>
      <trkpt lat="42.000473" lon="9.21607">
        <ele>1956.6</ele>
        <time>2022-09-15T05:00:41Z</time>
      </trkpt>
      <trkpt lat="42.000447" lon="9.216048">
        <ele>1956.6</ele>
        <time>2022-09-15T05:00:44Z</time>
      </trkpt>
      <trkpt lat="42.00038" lon="9.215973">
        <ele>1958.8</ele>
        <time>2022-09-15T05:00:55Z</time>
      </trkpt>
      <trkpt lat="42.000358" lon="9.215968">
        <ele>1960.8</ele>
        <time>2022-09-15T05:01:18Z</time>
      </trkpt>
      <trkpt lat="42.000382" lon="9.216028">
        <ele>1963.6</ele>
        <time>2022-09-15T05:01:36Z</time>
      </trkpt>
      <trkpt lat="42.000422" lon="9.216127">
        <ele>1967.4</ele>
        <time>2022-09-15T05:02:07Z</time>
      </trkpt>
      <trkpt lat="42.00041" lon="9.216147">
        <ele>1968.4</ele>
        <time>2022-09-15T05:02:20Z</time>
      </trkpt>
      <trkpt lat="42.000392" lon="9.216157">
        <ele>1969.8</ele>
        <time>2022-09-15T05:02:29Z</time>
      </trkpt>
      <trkpt lat="42.000427" lon="9.216222">
        <ele>1971.0</ele>
        <time>2022-09-15T05:02:38Z</time>
      </trkpt>
      <trkpt lat="42.000392" lon="9.216217">
        <ele>1973.0</ele>
        <time>2022-09-15T05:02:49Z</time>
      </trkpt>
      <trkpt lat="42.000377" lon="9.216198">
        <ele>1974.8</ele>
        <time>2022-09-15T05:02:59Z</time>
      </trkpt>
      <trkpt lat="42.00036" lon="9.216217">
        <ele>1978.8</ele>
        <time>2022-09-15T05:03:18Z</time>
      </trkpt>
      <trkpt lat="42.000355" lon="9.216282">
        <ele>1979.6</ele>
        <time>2022-09-15T05:03:38Z</time>
      </trkpt>
      <trkpt lat="42.000352" lon="9.216277">
        <ele>1979.6</ele>
        <time>2022-09-15T05:03:39Z</time>
      </trkpt>
      <trkpt lat="42.000325" lon="9.21627">
        <ele>1980.2</ele>
        <time>2022-09-15T05:03:45Z</time>
      </trkpt>
      <trkpt lat="42.000295" lon="9.216312">
        <ele>1979.6</ele>
        <time>2022-09-15T05:03:51Z</time>
      </trkpt>
      <trkpt lat="42.00027" lon="9.216367">
        <ele>1978.2</ele>
        <time>2022-09-15T05:03:57Z</time>
      </trkpt>
      <trkpt lat="42.000238" lon="9.216362">
        <ele>1977.8</ele>
        <time>2022-09-15T05:04:03Z</time>
      </trkpt>
      <trkpt lat="42.00021" lon="9.216335">
        <ele>1976.2</ele>
        <time>2022-09-15T05:04:10Z</time>
      </trkpt>
      <trkpt lat="42.000207" lon="9.216323">
        <ele>1976.0</ele>
        <time>2022-09-15T05:04:11Z</time>
      </trkpt>
      <trkpt lat="42.00021" lon="9.216242">
        <ele>1975.0</ele>
        <time>2022-09-15T05:04:18Z</time>
      </trkpt>
      <trkpt lat="42.000188" lon="9.216192">
        <ele>1974.4</ele>
        <time>2022-09-15T05:04:23Z</time>
      </trkpt>
      <trkpt lat="42.000172" lon="9.216145">
        <ele>1974.4</ele>
        <time>2022-09-15T05:04:29Z</time>
      </trkpt>
      <trkpt lat="42.000153" lon="9.21607">
        <ele>1973.0</ele>
        <time>2022-09-15T05:04:36Z</time>
      </trkpt>
      <trkpt lat="42.000087" lon="9.215852">
        <ele>1971.2</ele>
        <time>2022-09-15T05:04:56Z</time>
      </trkpt>
      <trkpt lat="42.00009" lon="9.215852">
        <ele>1970.6</ele>
        <time>2022-09-15T05:04:57Z</time>
      </trkpt>
      <trkpt lat="42.000118" lon="9.215855">
        <ele>1970.4</ele>
        <time>2022-09-15T05:05:01Z</time>
      </trkpt>
      <trkpt lat="42.000187" lon="9.215858">
        <ele>1969.2</ele>
        <time>2022-09-15T05:05:10Z</time>
      </trkpt>
      <trkpt lat="42.00029" lon="9.215942">
        <ele>1971.0</ele>
        <time>2022-09-15T05:05:30Z</time>
      </trkpt>
      <trkpt lat="42.000292" lon="9.215938">
        <ele>1971.0</ele>
        <time>2022-09-15T05:05:31Z</time>
      </trkpt>
      <trkpt lat="42.000207" lon="9.215957">
        <ele>1970.4</ele>
        <time>2022-09-15T05:05:38Z</time>
      </trkpt>
      <trkpt lat="42.000118" lon="9.215988">
        <ele>1969.2</ele>
        <time>2022-09-15T05:05:54Z</time>
      </trkpt>
      <trkpt lat="42.000058" lon="9.215993">
        <ele>1968.2</ele>
        <time>2022-09-15T05:06:03Z</time>
      </trkpt>
      <trkpt lat="41.99999" lon="9.216002">
        <ele>1969.2</ele>
        <time>2022-09-15T05:06:12Z</time>
      </trkpt>
      <trkpt lat="41.999932" lon="9.216025">
        <ele>1968.0</ele>
        <time>2022-09-15T05:06:21Z</time>
      </trkpt>
      <trkpt lat="41.999858" lon="9.21606">
        <ele>1966.6</ele>
        <time>2022-09-15T05:06:33Z</time>
      </trkpt>
      <trkpt lat="41.999845" lon="9.216052">
        <ele>1966.6</ele>
        <time>2022-09-15T05:06:34Z</time>
      </trkpt>
      <trkpt lat="41.9998" lon="9.215988">
        <ele>1966.8</ele>
        <time>2022-09-15T05:06:43Z</time>
      </trkpt>
      <trkpt lat="41.999772" lon="9.215817">
        <ele>1968.6</ele>
        <time>2022-09-15T05:06:58Z</time>
      </trkpt>
      <trkpt lat="41.999727" lon="9.215813">
        <ele>1970.0</ele>
        <time>2022-09-15T05:07:03Z</time>
      </trkpt>
      <trkpt lat="41.999602" lon="9.215838">
        <ele>1971.6</ele>
        <time>2022-09-15T05:07:16Z</time>
      </trkpt>
      <trkpt lat="41.99952" lon="9.215822">
        <ele>1969.6</ele>
        <time>2022-09-15T05:07:24Z</time>
      </trkpt>
      <trkpt lat="41.999482" lon="9.21581">
        <ele>1968.0</ele>
        <time>2022-09-15T05:07:30Z</time>
      </trkpt>
      <trkpt lat="41.999438" lon="9.215753">
        <ele>1967.4</ele>
        <time>2022-09-15T05:07:43Z</time>
      </trkpt>
      <trkpt lat="41.999432" lon="9.215788">
        <ele>1966.8</ele>
        <time>2022-09-15T05:07:50Z</time>
      </trkpt>
      <trkpt lat="41.99943" lon="9.215855">
        <ele>1965.6</ele>
        <time>2022-09-15T05:08:01Z</time>
      </trkpt>
      <trkpt lat="41.999413" lon="9.215862">
        <ele>1964.4</ele>
        <time>2022-09-15T05:08:08Z</time>
      </trkpt>
      <trkpt lat="41.999397" lon="9.215865">
        <ele>1963.4</ele>
        <time>2022-09-15T05:08:18Z</time>
      </trkpt>
      <trkpt lat="41.999377" lon="9.215872">
        <ele>1960.8</ele>
        <time>2022-09-15T05:08:36Z</time>
      </trkpt>
      <trkpt lat="41.999247" lon="9.215967">
        <ele>1949.4</ele>
        <time>2022-09-15T05:09:59Z</time>
      </trkpt>
      <trkpt lat="41.99931" lon="9.215862">
        <ele>1948.4</ele>
        <time>2022-09-15T05:10:50Z</time>
      </trkpt>
      <trkpt lat="41.999202" lon="9.21588">
        <ele>1949.6</ele>
        <time>2022-09-15T05:11:00Z</time>
      </trkpt>
      <trkpt lat="41.999075" lon="9.215982">
        <ele>1951.2</ele>
        <time>2022-09-15T05:11:13Z</time>
      </trkpt>
      <trkpt lat="41.998888" lon="9.216083">
        <ele>1950.4</ele>
        <time>2022-09-15T05:11:25Z</time>
      </trkpt>
      <trkpt lat="41.998878" lon="9.2161">
        <ele>1950.6</ele>
        <time>2022-09-15T05:11:26Z</time>
      </trkpt>
      <trkpt lat="41.99879" lon="9.216108">
        <ele>1950.6</ele>
        <time>2022-09-15T05:11:35Z</time>
      </trkpt>
      <trkpt lat="41.998688" lon="9.216178">
        <ele>1950.0</ele>
        <time>2022-09-15T05:11:47Z</time>
      </trkpt>
      <trkpt lat="41.998613" lon="9.216207">
        <ele>1950.0</ele>
        <time>2022-09-15T05:11:58Z</time>
      </trkpt>
      <trkpt lat="41.998568" lon="9.21621">
        <ele>1950.2</ele>
        <time>2022-09-15T05:12:03Z</time>
      </trkpt>
      <trkpt lat="41.998565" lon="9.21614">
        <ele>1950.8</ele>
        <time>2022-09-15T05:12:07Z</time>
      </trkpt>
      <trkpt lat="41.99849" lon="9.216012">
        <ele>1950.4</ele>
        <time>2022-09-15T05:12:16Z</time>
      </trkpt>
      <trkpt lat="41.998485" lon="9.215855">
        <ele>1950.4</ele>
        <time>2022-09-15T05:12:25Z</time>
      </trkpt>
      <trkpt lat="41.998487" lon="9.215802">
        <ele>1950.4</ele>
        <time>2022-09-15T05:12:28Z</time>
      </trkpt>
      <trkpt lat="41.998522" lon="9.215687">
        <ele>1949.8</ele>
        <time>2022-09-15T05:12:34Z</time>
      </trkpt>
      <trkpt lat="41.998513" lon="9.21567">
        <ele>1949.8</ele>
        <time>2022-09-15T05:12:35Z</time>
      </trkpt>
      <trkpt lat="41.998558" lon="9.215998">
        <ele>1948.0</ele>
        <time>2022-09-15T05:12:51Z</time>
      </trkpt>
      <trkpt lat="41.998575" lon="9.216087">
        <ele>1947.0</ele>
        <time>2022-09-15T05:12:56Z</time>
      </trkpt>
      <trkpt lat="41.998558" lon="9.21616">
        <ele>1946.6</ele>
        <time>2022-09-15T05:13:01Z</time>
      </trkpt>
      <trkpt lat="41.99854" lon="9.216207">
        <ele>1946.2</ele>
        <time>2022-09-15T05:13:04Z</time>
      </trkpt>
      <trkpt lat="41.998508" lon="9.216175">
        <ele>1946.6</ele>
        <time>2022-09-15T05:13:08Z</time>
      </trkpt>
      <trkpt lat="41.998523" lon="9.216075">
        <ele>1947.4</ele>
        <time>2022-09-15T05:13:17Z</time>
      </trkpt>
      <trkpt lat="41.998523" lon="9.21602">
        <ele>1948.0</ele>
        <time>2022-09-15T05:13:22Z</time>
      </trkpt>
      <trkpt lat="41.998482" lon="9.215993">
        <ele>1948.8</ele>
        <time>2022-09-15T05:13:27Z</time>
      </trkpt>
      <trkpt lat="41.99845" lon="9.21597">
        <ele>1949.6</ele>
        <time>2022-09-15T05:13:31Z</time>
      </trkpt>
      <trkpt lat="41.9984" lon="9.215915">
        <ele>1949.6</ele>
        <time>2022-09-15T05:13:38Z</time>
      </trkpt>
      <trkpt lat="41.998355" lon="9.215912">
        <ele>1950.2</ele>
        <time>2022-09-15T05:13:44Z</time>
      </trkpt>
      <trkpt lat="41.998327" lon="9.215937">
        <ele>1950.2</ele>
        <time>2022-09-15T05:13:52Z</time>
      </trkpt>
      <trkpt lat="41.998323" lon="9.21594">
        <ele>1950.0</ele>
        <time>2022-09-15T05:13:54Z</time>
      </trkpt>
      <trkpt lat="41.998337" lon="9.216012">
        <ele>1949.0</ele>
        <time>2022-09-15T05:14:03Z</time>
      </trkpt>
      <trkpt lat="41.99835" lon="9.216052">
        <ele>1948.2</ele>
        <time>2022-09-15T05:14:09Z</time>
      </trkpt>
      <trkpt lat="41.998342" lon="9.216083">
        <ele>1947.6</ele>
        <time>2022-09-15T05:14:14Z</time>
      </trkpt>
      <trkpt lat="41.998348" lon="9.216155">
        <ele>1947.4</ele>
        <time>2022-09-15T05:14:24Z</time>
      </trkpt>
      <trkpt lat="41.998358" lon="9.216173">
        <ele>1947.4</ele>
        <time>2022-09-15T05:14:27Z</time>
      </trkpt>
      <trkpt lat="41.998337" lon="9.216185">
        <ele>1946.8</ele>
        <time>2022-09-15T05:14:32Z</time>
      </trkpt>
      <trkpt lat="41.998303" lon="9.216232">
        <ele>1945.8</ele>
        <time>2022-09-15T05:14:39Z</time>
      </trkpt>
      <trkpt lat="41.998258" lon="9.216213">
        <ele>1945.4</ele>
        <time>2022-09-15T05:14:45Z</time>
      </trkpt>
      <trkpt lat="41.998222" lon="9.216208">
        <ele>1945.4</ele>
        <time>2022-09-15T05:14:51Z</time>
      </trkpt>
      <trkpt lat="41.998132" lon="9.216228">
        <ele>1944.8</ele>
        <time>2022-09-15T05:15:10Z</time>
      </trkpt>
      <trkpt lat="41.998098" lon="9.216228">
        <ele>1943.6</ele>
        <time>2022-09-15T05:15:18Z</time>
      </trkpt>
      <trkpt lat="41.998103" lon="9.216155">
        <ele>1944.0</ele>
        <time>2022-09-15T05:15:42Z</time>
      </trkpt>
      <trkpt lat="41.998087" lon="9.2162">
        <ele>1943.6</ele>
        <time>2022-09-15T05:15:51Z</time>
      </trkpt>
      <trkpt lat="41.998037" lon="9.216243">
        <ele>1943.0</ele>
        <time>2022-09-15T05:15:59Z</time>
      </trkpt>
      <trkpt lat="41.997923" lon="9.216327">
        <ele>1939.0</ele>
        <time>2022-09-15T05:18:06Z</time>
      </trkpt>
      <trkpt lat="41.99782" lon="9.216373">
        <ele>1941.2</ele>
        <time>2022-09-15T05:18:23Z</time>
      </trkpt>
      <trkpt lat="41.997712" lon="9.21642">
        <ele>1943.2</ele>
        <time>2022-09-15T05:18:41Z</time>
      </trkpt>
      <trkpt lat="41.997645" lon="9.216452">
        <ele>1944.8</ele>
        <time>2022-09-15T05:18:52Z</time>
      </trkpt>
      <trkpt lat="41.997595" lon="9.216505">
        <ele>1946.2</ele>
        <time>2022-09-15T05:19:00Z</time>
      </trkpt>
      <trkpt lat="41.997567" lon="9.216537">
        <ele>1947.8</ele>
        <time>2022-09-15T05:19:05Z</time>
      </trkpt>
      <trkpt lat="41.997533" lon="9.216562">
        <ele>1948.0</ele>
        <time>2022-09-15T05:19:10Z</time>
      </trkpt>
      <trkpt lat="41.997507" lon="9.216567">
        <ele>1951.2</ele>
        <time>2022-09-15T05:19:23Z</time>
      </trkpt>
      <trkpt lat="41.997485" lon="9.216593">
        <ele>1953.8</ele>
        <time>2022-09-15T05:19:39Z</time>
      </trkpt>
      <trkpt lat="41.997443" lon="9.216612">
        <ele>1955.8</ele>
        <time>2022-09-15T05:19:56Z</time>
      </trkpt>
      <trkpt lat="41.997313" lon="9.21671">
        <ele>1957.8</ele>
        <time>2022-09-15T05:20:12Z</time>
      </trkpt>
      <trkpt lat="41.997305" lon="9.216705">
        <ele>1957.8</ele>
        <time>2022-09-15T05:20:13Z</time>
      </trkpt>
      <trkpt lat="41.99724" lon="9.216685">
        <ele>1958.4</ele>
        <time>2022-09-15T05:20:22Z</time>
      </trkpt>
      <trkpt lat="41.997163" lon="9.216688">
        <ele>1959.6</ele>
        <time>2022-09-15T05:20:34Z</time>
      </trkpt>
      <trkpt lat="41.99713" lon="9.2167">
        <ele>1960.8</ele>
        <time>2022-09-15T05:20:41Z</time>
      </trkpt>
      <trkpt lat="41.997053" lon="9.216682">
        <ele>1963.6</ele>
        <time>2022-09-15T05:21:05Z</time>
      </trkpt>
      <trkpt lat="41.997032" lon="9.216665">
        <ele>1964.8</ele>
        <time>2022-09-15T05:21:16Z</time>
      </trkpt>
      <trkpt lat="41.996862" lon="9.21669">
        <ele>1985.2</ele>
        <time>2022-09-15T05:22:55Z</time>
      </trkpt>
      <trkpt lat="41.996868" lon="9.21675">
        <ele>1985.0</ele>
        <time>2022-09-15T05:23:08Z</time>
      </trkpt>
      <trkpt lat="41.996853" lon="9.216748">
        <ele>1985.0</ele>
        <time>2022-09-15T05:23:12Z</time>
      </trkpt>
      <trkpt lat="41.996835" lon="9.216743">
        <ele>1984.6</ele>
        <time>2022-09-15T05:23:17Z</time>
      </trkpt>
      <trkpt lat="41.996838" lon="9.216848">
        <ele>1984.8</ele>
        <time>2022-09-15T05:23:27Z</time>
      </trkpt>
      <trkpt lat="41.996828" lon="9.21686">
        <ele>1985.2</ele>
        <time>2022-09-15T05:23:30Z</time>
      </trkpt>
      <trkpt lat="41.996805" lon="9.216813">
        <ele>1986.8</ele>
        <time>2022-09-15T05:23:39Z</time>
      </trkpt>
      <trkpt lat="41.996797" lon="9.216817">
        <ele>1987.0</ele>
        <time>2022-09-15T05:23:41Z</time>
      </trkpt>
      <trkpt lat="41.996798" lon="9.216863">
        <ele>1987.6</ele>
        <time>2022-09-15T05:23:46Z</time>
      </trkpt>
      <trkpt lat="41.996777" lon="9.21705">
        <ele>1989.4</ele>
        <time>2022-09-15T05:24:04Z</time>
      </trkpt>
      <trkpt lat="41.996768" lon="9.217157">
        <ele>1988.6</ele>
        <time>2022-09-15T05:24:15Z</time>
      </trkpt>
      <trkpt lat="41.99674" lon="9.21719">
        <ele>1988.6</ele>
        <time>2022-09-15T05:24:20Z</time>
      </trkpt>
      <trkpt lat="41.996702" lon="9.217195">
        <ele>1989.8</ele>
        <time>2022-09-15T05:24:25Z</time>
      </trkpt>
      <trkpt lat="41.996695" lon="9.217223">
        <ele>1990.2</ele>
        <time>2022-09-15T05:24:31Z</time>
      </trkpt>
      <trkpt lat="41.996693" lon="9.217255">
        <ele>1990.2</ele>
        <time>2022-09-15T05:24:35Z</time>
      </trkpt>
      <trkpt lat="41.99662" lon="9.21724">
        <ele>1991.2</ele>
        <time>2022-09-15T05:24:49Z</time>
      </trkpt>
      <trkpt lat="41.996565" lon="9.217272">
        <ele>1994.2</ele>
        <time>2022-09-15T05:25:02Z</time>
      </trkpt>
      <trkpt lat="41.996545" lon="9.217313">
        <ele>1993.4</ele>
        <time>2022-09-15T05:25:09Z</time>
      </trkpt>
      <trkpt lat="41.99649" lon="9.217302">
        <ele>1992.8</ele>
        <time>2022-09-15T05:25:20Z</time>
      </trkpt>
      <trkpt lat="41.996487" lon="9.217307">
        <ele>1992.8</ele>
        <time>2022-09-15T05:25:21Z</time>
      </trkpt>
      <trkpt lat="41.996472" lon="9.217337">
        <ele>1993.6</ele>
        <time>2022-09-15T05:25:28Z</time>
      </trkpt>
      <trkpt lat="41.996438" lon="9.217468">
        <ele>1991.2</ele>
        <time>2022-09-15T05:25:51Z</time>
      </trkpt>
      <trkpt lat="41.996442" lon="9.217498">
        <ele>1991.2</ele>
        <time>2022-09-15T05:25:56Z</time>
      </trkpt>
      <trkpt lat="41.996455" lon="9.217562">
        <ele>1991.8</ele>
        <time>2022-09-15T05:26:09Z</time>
      </trkpt>
      <trkpt lat="41.996447" lon="9.217737">
        <ele>1987.0</ele>
        <time>2022-09-15T05:26:27Z</time>
      </trkpt>
      <trkpt lat="41.996492" lon="9.217822">
        <ele>1983.8</ele>
        <time>2022-09-15T05:26:47Z</time>
      </trkpt>
      <trkpt lat="41.996497" lon="9.217822">
        <ele>1983.8</ele>
        <time>2022-09-15T05:26:48Z</time>
      </trkpt>
      <trkpt lat="41.996552" lon="9.21788">
        <ele>1981.8</ele>
        <time>2022-09-15T05:26:59Z</time>
      </trkpt>
      <trkpt lat="41.996538" lon="9.217942">
        <ele>1981.2</ele>
        <time>2022-09-15T05:27:06Z</time>
      </trkpt>
      <trkpt lat="41.996468" lon="9.218007">
        <ele>1981.2</ele>
        <time>2022-09-15T05:27:13Z</time>
      </trkpt>
      <trkpt lat="41.996418" lon="9.218045">
        <ele>1981.2</ele>
        <time>2022-09-15T05:27:17Z</time>
      </trkpt>
      <trkpt lat="41.9963" lon="9.218137">
        <ele>1981.6</ele>
        <time>2022-09-15T05:27:32Z</time>
      </trkpt>
      <trkpt lat="41.996247" lon="9.218207">
        <ele>1981.4</ele>
        <time>2022-09-15T05:27:39Z</time>
      </trkpt>
      <trkpt lat="41.9962" lon="9.218263">
        <ele>1980.8</ele>
        <time>2022-09-15T05:27:46Z</time>
      </trkpt>
      <trkpt lat="41.996192" lon="9.218268">
        <ele>1980.6</ele>
        <time>2022-09-15T05:27:47Z</time>
      </trkpt>
      <trkpt lat="41.996072" lon="9.218277">
        <ele>1980.2</ele>
        <time>2022-09-15T05:28:01Z</time>
      </trkpt>
      <trkpt lat="41.996022" lon="9.218277">
        <ele>1979.2</ele>
        <time>2022-09-15T05:28:07Z</time>
      </trkpt>
      <trkpt lat="41.995963" lon="9.218265">
        <ele>1978.8</ele>
        <time>2022-09-15T05:28:14Z</time>
      </trkpt>
      <trkpt lat="41.995932" lon="9.218267">
        <ele>1978.6</ele>
        <time>2022-09-15T05:28:18Z</time>
      </trkpt>
      <trkpt lat="41.995915" lon="9.218228">
        <ele>1979.2</ele>
        <time>2022-09-15T05:28:23Z</time>
      </trkpt>
      <trkpt lat="41.995883" lon="9.218108">
        <ele>1977.6</ele>
        <time>2022-09-15T05:28:37Z</time>
      </trkpt>
      <trkpt lat="41.995865" lon="9.2181">
        <ele>1978.8</ele>
        <time>2022-09-15T05:28:40Z</time>
      </trkpt>
      <trkpt lat="41.995812" lon="9.218127">
        <ele>1979.0</ele>
        <time>2022-09-15T05:28:50Z</time>
      </trkpt>
      <trkpt lat="41.995785" lon="9.21812">
        <ele>1978.2</ele>
        <time>2022-09-15T05:28:57Z</time>
      </trkpt>
      <trkpt lat="41.995728" lon="9.218053">
        <ele>1973.8</ele>
        <time>2022-09-15T05:29:13Z</time>
      </trkpt>
      <trkpt lat="41.995722" lon="9.218047">
        <ele>1973.4</ele>
        <time>2022-09-15T05:29:14Z</time>
      </trkpt>
      <trkpt lat="41.995638" lon="9.217892">
        <ele>1973.8</ele>
        <time>2022-09-15T05:29:37Z</time>
      </trkpt>
      <trkpt lat="41.995615" lon="9.217732">
        <ele>1973.0</ele>
        <time>2022-09-15T05:29:47Z</time>
      </trkpt>
      <trkpt lat="41.995593" lon="9.217703">
        <ele>1971.6</ele>
        <time>2022-09-15T05:29:50Z</time>
      </trkpt>
      <trkpt lat="41.995538" lon="9.21775">
        <ele>1968.4</ele>
        <time>2022-09-15T05:29:58Z</time>
      </trkpt>
      <trkpt lat="41.995498" lon="9.217742">
        <ele>1970.0</ele>
        <time>2022-09-15T05:30:03Z</time>
      </trkpt>
      <trkpt lat="41.99546" lon="9.217742">
        <ele>1968.0</ele>
        <time>2022-09-15T05:30:09Z</time>
      </trkpt>
      <trkpt lat="41.99537" lon="9.21776">
        <ele>1965.8</ele>
        <time>2022-09-15T05:30:27Z</time>
      </trkpt>
      <trkpt lat="41.995357" lon="9.217792">
        <ele>1964.4</ele>
        <time>2022-09-15T05:30:37Z</time>
      </trkpt>
      <trkpt lat="41.995357" lon="9.217845">
        <ele>1962.0</ele>
        <time>2022-09-15T05:30:56Z</time>
      </trkpt>
      <trkpt lat="41.995353" lon="9.217847">
        <ele>1961.4</ele>
        <time>2022-09-15T05:30:57Z</time>
      </trkpt>
      <trkpt lat="41.995317" lon="9.21783">
        <ele>1959.8</ele>
        <time>2022-09-15T05:31:13Z</time>
      </trkpt>
      <trkpt lat="41.995248" lon="9.217828">
        <ele>1956.2</ele>
        <time>2022-09-15T05:31:51Z</time>
      </trkpt>
      <trkpt lat="41.995187" lon="9.217843">
        <ele>1951.4</ele>
        <time>2022-09-15T05:32:19Z</time>
      </trkpt>
      <trkpt lat="41.995172" lon="9.217882">
        <ele>1951.4</ele>
        <time>2022-09-15T05:32:22Z</time>
      </trkpt>
      <trkpt lat="41.995137" lon="9.217952">
        <ele>1949.6</ele>
        <time>2022-09-15T05:32:28Z</time>
      </trkpt>
      <trkpt lat="41.995092" lon="9.217982">
        <ele>1947.4</ele>
        <time>2022-09-15T05:32:33Z</time>
      </trkpt>
      <trkpt lat="41.995022" lon="9.217995">
        <ele>1946.8</ele>
        <time>2022-09-15T05:32:41Z</time>
      </trkpt>
      <trkpt lat="41.994982" lon="9.217977">
        <ele>1946.6</ele>
        <time>2022-09-15T05:32:46Z</time>
      </trkpt>
      <trkpt lat="41.994972" lon="9.217923">
        <ele>1946.8</ele>
        <time>2022-09-15T05:32:51Z</time>
      </trkpt>
      <trkpt lat="41.994968" lon="9.217792">
        <ele>1943.4</ele>
        <time>2022-09-15T05:33:03Z</time>
      </trkpt>
      <trkpt lat="41.994962" lon="9.217783">
        <ele>1942.8</ele>
        <time>2022-09-15T05:33:04Z</time>
      </trkpt>
      <trkpt lat="41.994915" lon="9.217828">
        <ele>1941.4</ele>
        <time>2022-09-15T05:33:11Z</time>
      </trkpt>
      <trkpt lat="41.994878" lon="9.217832">
        <ele>1941.8</ele>
        <time>2022-09-15T05:33:17Z</time>
      </trkpt>
      <trkpt lat="41.99483" lon="9.217807">
        <ele>1941.4</ele>
        <time>2022-09-15T05:33:24Z</time>
      </trkpt>
      <trkpt lat="41.99481" lon="9.217838">
        <ele>1940.6</ele>
        <time>2022-09-15T05:33:28Z</time>
      </trkpt>
      <trkpt lat="41.994793" lon="9.217867">
        <ele>1939.0</ele>
        <time>2022-09-15T05:33:32Z</time>
      </trkpt>
      <trkpt lat="41.994763" lon="9.217867">
        <ele>1939.0</ele>
        <time>2022-09-15T05:33:38Z</time>
      </trkpt>
      <trkpt lat="41.994665" lon="9.217833">
        <ele>1934.6</ele>
        <time>2022-09-15T05:34:00Z</time>
      </trkpt>
      <trkpt lat="41.994657" lon="9.217837">
        <ele>1935.0</ele>
        <time>2022-09-15T05:34:01Z</time>
      </trkpt>
      <trkpt lat="41.994608" lon="9.217855">
        <ele>1934.2</ele>
        <time>2022-09-15T05:34:07Z</time>
      </trkpt>
      <trkpt lat="41.994523" lon="9.21787">
        <ele>1933.8</ele>
        <time>2022-09-15T05:34:16Z</time>
      </trkpt>
      <trkpt lat="41.994445" lon="9.217917">
        <ele>1930.4</ele>
        <time>2022-09-15T05:34:25Z</time>
      </trkpt>
      <trkpt lat="41.994413" lon="9.218012">
        <ele>1928.8</ele>
        <time>2022-09-15T05:34:33Z</time>
      </trkpt>
      <trkpt lat="41.994405" lon="9.218017">
        <ele>1928.8</ele>
        <time>2022-09-15T05:34:34Z</time>
      </trkpt>
      <trkpt lat="41.994395" lon="9.217937">
        <ele>1929.4</ele>
        <time>2022-09-15T05:34:39Z</time>
      </trkpt>
      <trkpt lat="41.994407" lon="9.217827">
        <ele>1927.6</ele>
        <time>2022-09-15T05:34:45Z</time>
      </trkpt>
      <trkpt lat="41.994398" lon="9.21777">
        <ele>1928.0</ele>
        <time>2022-09-15T05:34:51Z</time>
      </trkpt>
      <trkpt lat="41.994392" lon="9.217727">
        <ele>1927.6</ele>
        <time>2022-09-15T05:34:57Z</time>
      </trkpt>
      <trkpt lat="41.994395" lon="9.217677">
        <ele>1929.0</ele>
        <time>2022-09-15T05:35:00Z</time>
      </trkpt>
      <trkpt lat="41.994327" lon="9.217607">
        <ele>1925.6</ele>
        <time>2022-09-15T05:35:12Z</time>
      </trkpt>
      <trkpt lat="41.994253" lon="9.21759">
        <ele>1922.2</ele>
        <time>2022-09-15T05:35:24Z</time>
      </trkpt>
      <trkpt lat="41.994202" lon="9.217598">
        <ele>1920.6</ele>
        <time>2022-09-15T05:35:31Z</time>
      </trkpt>
      <trkpt lat="41.99419" lon="9.217597">
        <ele>1920.6</ele>
        <time>2022-09-15T05:35:32Z</time>
      </trkpt>
      <trkpt lat="41.99412" lon="9.217557">
        <ele>1920.2</ele>
        <time>2022-09-15T05:35:41Z</time>
      </trkpt>
      <trkpt lat="41.994015" lon="9.217547">
        <ele>1919.6</ele>
        <time>2022-09-15T05:35:55Z</time>
      </trkpt>
      <trkpt lat="41.993988" lon="9.217472">
        <ele>1919.0</ele>
        <time>2022-09-15T05:36:05Z</time>
      </trkpt>
      <trkpt lat="41.993995" lon="9.217443">
        <ele>1920.0</ele>
        <time>2022-09-15T05:36:09Z</time>
      </trkpt>
      <trkpt lat="41.993985" lon="9.217415">
        <ele>1917.6</ele>
        <time>2022-09-15T05:36:13Z</time>
      </trkpt>
      <trkpt lat="41.993932" lon="9.2174">
        <ele>1917.2</ele>
        <time>2022-09-15T05:36:19Z</time>
      </trkpt>
      <trkpt lat="41.993767" lon="9.217418">
        <ele>1917.8</ele>
        <time>2022-09-15T05:36:39Z</time>
      </trkpt>
      <trkpt lat="41.993727" lon="9.217422">
        <ele>1912.2</ele>
        <time>2022-09-15T05:36:46Z</time>
      </trkpt>
      <trkpt lat="41.993673" lon="9.217403">
        <ele>1916.2</ele>
        <time>2022-09-15T05:36:54Z</time>
      </trkpt>
      <trkpt lat="41.993622" lon="9.217383">
        <ele>1909.8</ele>
        <time>2022-09-15T05:37:01Z</time>
      </trkpt>
      <trkpt lat="41.993332" lon="9.2174">
        <ele>1910.8</ele>
        <time>2022-09-15T05:37:26Z</time>
      </trkpt>
      <trkpt lat="41.993273" lon="9.217412">
        <ele>1910.8</ele>
        <time>2022-09-15T05:37:31Z</time>
      </trkpt>
      <trkpt lat="41.993168" lon="9.217392">
        <ele>1910.6</ele>
        <time>2022-09-15T05:37:40Z</time>
      </trkpt>
      <trkpt lat="41.993138" lon="9.217343">
        <ele>1911.8</ele>
        <time>2022-09-15T05:37:45Z</time>
      </trkpt>
      <trkpt lat="41.99308" lon="9.217293">
        <ele>1912.8</ele>
        <time>2022-09-15T05:37:52Z</time>
      </trkpt>
      <trkpt lat="41.993032" lon="9.217273">
        <ele>1913.6</ele>
        <time>2022-09-15T05:37:56Z</time>
      </trkpt>
      <trkpt lat="41.992923" lon="9.217342">
        <ele>1910.0</ele>
        <time>2022-09-15T05:38:04Z</time>
      </trkpt>
      <trkpt lat="41.99286" lon="9.217333">
        <ele>1909.4</ele>
        <time>2022-09-15T05:38:09Z</time>
      </trkpt>
      <trkpt lat="41.992848" lon="9.21733">
        <ele>1909.0</ele>
        <time>2022-09-15T05:38:10Z</time>
      </trkpt>
      <trkpt lat="41.992687" lon="9.217498">
        <ele>1908.6</ele>
        <time>2022-09-15T05:38:29Z</time>
      </trkpt>
      <trkpt lat="41.99261" lon="9.217505">
        <ele>1906.6</ele>
        <time>2022-09-15T05:38:36Z</time>
      </trkpt>
      <trkpt lat="41.992562" lon="9.217532">
        <ele>1906.2</ele>
        <time>2022-09-15T05:38:43Z</time>
      </trkpt>
      <trkpt lat="41.992502" lon="9.217513">
        <ele>1909.0</ele>
        <time>2022-09-15T05:38:51Z</time>
      </trkpt>
      <trkpt lat="41.992433" lon="9.21749">
        <ele>1908.2</ele>
        <time>2022-09-15T05:38:57Z</time>
      </trkpt>
      <trkpt lat="41.992402" lon="9.217483">
        <ele>1907.0</ele>
        <time>2022-09-15T05:39:00Z</time>
      </trkpt>
      <trkpt lat="41.992338" lon="9.21752">
        <ele>1906.0</ele>
        <time>2022-09-15T05:39:05Z</time>
      </trkpt>
      <trkpt lat="41.992227" lon="9.217565">
        <ele>1906.0</ele>
        <time>2022-09-15T05:39:14Z</time>
      </trkpt>
      <trkpt lat="41.992183" lon="9.21759">
        <ele>1905.8</ele>
        <time>2022-09-15T05:39:18Z</time>
      </trkpt>
      <trkpt lat="41.99211" lon="9.217643">
        <ele>1905.0</ele>
        <time>2022-09-15T05:39:25Z</time>
      </trkpt>
      <trkpt lat="41.992068" lon="9.217678">
        <ele>1906.8</ele>
        <time>2022-09-15T05:39:30Z</time>
      </trkpt>
      <trkpt lat="41.99203" lon="9.217742">
        <ele>1905.2</ele>
        <time>2022-09-15T05:39:35Z</time>
      </trkpt>
      <trkpt lat="41.99201" lon="9.21781">
        <ele>1906.6</ele>
        <time>2022-09-15T05:39:41Z</time>
      </trkpt>
      <trkpt lat="41.992" lon="9.217937">
        <ele>1905.2</ele>
        <time>2022-09-15T05:39:51Z</time>
      </trkpt>
      <trkpt lat="41.991868" lon="9.218127">
        <ele>1904.6</ele>
        <time>2022-09-15T05:40:10Z</time>
      </trkpt>
      <trkpt lat="41.991858" lon="9.218133">
        <ele>1903.2</ele>
        <time>2022-09-15T05:40:13Z</time>
      </trkpt>
      <trkpt lat="41.991852" lon="9.218183">
        <ele>1901.4</ele>
        <time>2022-09-15T05:40:17Z</time>
      </trkpt>
      <trkpt lat="41.991813" lon="9.218298">
        <ele>1907.4</ele>
        <time>2022-09-15T05:40:27Z</time>
      </trkpt>
      <trkpt lat="41.991767" lon="9.21838">
        <ele>1909.0</ele>
        <time>2022-09-15T05:40:37Z</time>
      </trkpt>
      <trkpt lat="41.991708" lon="9.218412">
        <ele>1908.0</ele>
        <time>2022-09-15T05:40:47Z</time>
      </trkpt>
      <trkpt lat="41.991685" lon="9.21841">
        <ele>1907.4</ele>
        <time>2022-09-15T05:40:52Z</time>
      </trkpt>
      <trkpt lat="41.991675" lon="9.218405">
        <ele>1907.0</ele>
        <time>2022-09-15T05:40:54Z</time>
      </trkpt>
      <trkpt lat="41.991643" lon="9.218358">
        <ele>1906.8</ele>
        <time>2022-09-15T05:41:02Z</time>
      </trkpt>
      <trkpt lat="41.991628" lon="9.218302">
        <ele>1909.0</ele>
        <time>2022-09-15T05:41:15Z</time>
      </trkpt>
      <trkpt lat="41.991665" lon="9.218298">
        <ele>1911.8</ele>
        <time>2022-09-15T05:41:21Z</time>
      </trkpt>
      <trkpt lat="41.991652" lon="9.218268">
        <ele>1910.2</ele>
        <time>2022-09-15T05:41:27Z</time>
      </trkpt>
      <trkpt lat="41.991635" lon="9.21829">
        <ele>1909.8</ele>
        <time>2022-09-15T05:41:32Z</time>
      </trkpt>
      <trkpt lat="41.991605" lon="9.218327">
        <ele>1904.8</ele>
        <time>2022-09-15T05:41:43Z</time>
      </trkpt>
      <trkpt lat="41.991518" lon="9.218258">
        <ele>1906.4</ele>
        <time>2022-09-15T05:41:52Z</time>
      </trkpt>
      <trkpt lat="41.99143" lon="9.21823">
        <ele>1906.2</ele>
        <time>2022-09-15T05:41:59Z</time>
      </trkpt>
      <trkpt lat="41.991448" lon="9.218208">
        <ele>1906.2</ele>
        <time>2022-09-15T05:42:06Z</time>
      </trkpt>
      <trkpt lat="41.991495" lon="9.218193">
        <ele>1904.6</ele>
        <time>2022-09-15T05:42:14Z</time>
      </trkpt>
      <trkpt lat="41.991445" lon="9.218233">
        <ele>1901.6</ele>
        <time>2022-09-15T05:42:57Z</time>
      </trkpt>
      <trkpt lat="41.991395" lon="9.218267">
        <ele>1901.0</ele>
        <time>2022-09-15T05:43:12Z</time>
      </trkpt>
      <trkpt lat="41.991397" lon="9.218383">
        <ele>1900.8</ele>
        <time>2022-09-15T05:43:23Z</time>
      </trkpt>
      <trkpt lat="41.991418" lon="9.21845">
        <ele>1900.4</ele>
        <time>2022-09-15T05:43:29Z</time>
      </trkpt>
      <trkpt lat="41.991427" lon="9.218462">
        <ele>1901.0</ele>
        <time>2022-09-15T05:43:30Z</time>
      </trkpt>
      <trkpt lat="41.991397" lon="9.218507">
        <ele>1899.4</ele>
        <time>2022-09-15T05:43:34Z</time>
      </trkpt>
      <trkpt lat="41.991417" lon="9.218545">
        <ele>1898.4</ele>
        <time>2022-09-15T05:43:38Z</time>
      </trkpt>
      <trkpt lat="41.991437" lon="9.218568">
        <ele>1897.6</ele>
        <time>2022-09-15T05:43:41Z</time>
      </trkpt>
      <trkpt lat="41.99131" lon="9.218622">
        <ele>1896.2</ele>
        <time>2022-09-15T05:43:54Z</time>
      </trkpt>
      <trkpt lat="41.991135" lon="9.218605">
        <ele>1889.2</ele>
        <time>2022-09-15T05:44:08Z</time>
      </trkpt>
      <trkpt lat="41.991085" lon="9.218585">
        <ele>1890.6</ele>
        <time>2022-09-15T05:44:13Z</time>
      </trkpt>
      <trkpt lat="41.991033" lon="9.218535">
        <ele>1887.6</ele>
        <time>2022-09-15T05:44:21Z</time>
      </trkpt>
      <trkpt lat="41.990902" lon="9.218477">
        <ele>1889.8</ele>
        <time>2022-09-15T05:44:31Z</time>
      </trkpt>
      <trkpt lat="41.990885" lon="9.21847">
        <ele>1890.2</ele>
        <time>2022-09-15T05:44:33Z</time>
      </trkpt>
      <trkpt lat="41.990763" lon="9.218447">
        <ele>1895.4</ele>
        <time>2022-09-15T05:44:43Z</time>
      </trkpt>
      <trkpt lat="41.990613" lon="9.21838">
        <ele>1893.8</ele>
        <time>2022-09-15T05:44:56Z</time>
      </trkpt>
      <trkpt lat="41.990517" lon="9.218343">
        <ele>1894.6</ele>
        <time>2022-09-15T05:45:05Z</time>
      </trkpt>
      <trkpt lat="41.99049" lon="9.218318">
        <ele>1894.4</ele>
        <time>2022-09-15T05:45:08Z</time>
      </trkpt>
      <trkpt lat="41.990428" lon="9.218253">
        <ele>1891.4</ele>
        <time>2022-09-15T05:45:16Z</time>
      </trkpt>
      <trkpt lat="41.990317" lon="9.21816">
        <ele>1895.4</ele>
        <time>2022-09-15T05:45:39Z</time>
      </trkpt>
      <trkpt lat="41.990517" lon="9.218503">
        <ele>1893.4</ele>
        <time>2022-09-15T05:46:19Z</time>
      </trkpt>
      <trkpt lat="41.990475" lon="9.218543">
        <ele>1890.6</ele>
        <time>2022-09-15T05:46:34Z</time>
      </trkpt>
      <trkpt lat="41.990145" lon="9.218467">
        <ele>1893.8</ele>
        <time>2022-09-15T05:46:44Z</time>
      </trkpt>
      <trkpt lat="41.990017" lon="9.218493">
        <ele>1889.8</ele>
        <time>2022-09-15T05:46:57Z</time>
      </trkpt>
      <trkpt lat="41.990057" lon="9.218647">
        <ele>1885.4</ele>
        <time>2022-09-15T05:47:07Z</time>
      </trkpt>
      <trkpt lat="41.989917" lon="9.218658">
        <ele>1882.0</ele>
        <time>2022-09-15T05:47:19Z</time>
      </trkpt>
      <trkpt lat="41.989878" lon="9.218668">
        <ele>1883.4</ele>
        <time>2022-09-15T05:47:24Z</time>
      </trkpt>
      <trkpt lat="41.989793" lon="9.218655">
        <ele>1877.6</ele>
        <time>2022-09-15T05:47:36Z</time>
      </trkpt>
      <trkpt lat="41.989725" lon="9.218667">
        <ele>1876.6</ele>
        <time>2022-09-15T05:47:50Z</time>
      </trkpt>
      <trkpt lat="41.989698" lon="9.218703">
        <ele>1877.8</ele>
        <time>2022-09-15T05:47:56Z</time>
      </trkpt>
      <trkpt lat="41.989663" lon="9.218722">
        <ele>1874.6</ele>
        <time>2022-09-15T05:48:03Z</time>
      </trkpt>
      <trkpt lat="41.989657" lon="9.218763">
        <ele>1874.2</ele>
        <time>2022-09-15T05:48:13Z</time>
      </trkpt>
      <trkpt lat="41.98969" lon="9.218842">
        <ele>1865.0</ele>
        <time>2022-09-15T05:49:01Z</time>
      </trkpt>
      <trkpt lat="41.989642" lon="9.218968">
        <ele>1853.2</ele>
        <time>2022-09-15T05:50:33Z</time>
      </trkpt>
      <trkpt lat="41.98956" lon="9.219058">
        <ele>1850.0</ele>
        <time>2022-09-15T05:50:57Z</time>
      </trkpt>
      <trkpt lat="41.989537" lon="9.219073">
        <ele>1849.4</ele>
        <time>2022-09-15T05:51:00Z</time>
      </trkpt>
      <trkpt lat="41.989337" lon="9.219197">
        <ele>1847.0</ele>
        <time>2022-09-15T05:51:17Z</time>
      </trkpt>
      <trkpt lat="41.989223" lon="9.219227">
        <ele>1846.8</ele>
        <time>2022-09-15T05:51:25Z</time>
      </trkpt>
      <trkpt lat="41.989117" lon="9.219302">
        <ele>1845.8</ele>
        <time>2022-09-15T05:51:34Z</time>
      </trkpt>
      <trkpt lat="41.989103" lon="9.21931">
        <ele>1845.4</ele>
        <time>2022-09-15T05:51:35Z</time>
      </trkpt>
      <trkpt lat="41.989063" lon="9.219332">
        <ele>1844.2</ele>
        <time>2022-09-15T05:51:41Z</time>
      </trkpt>
      <trkpt lat="41.989005" lon="9.219352">
        <ele>1843.2</ele>
        <time>2022-09-15T05:51:51Z</time>
      </trkpt>
      <trkpt lat="41.988917" lon="9.219432">
        <ele>1844.0</ele>
        <time>2022-09-15T05:52:13Z</time>
      </trkpt>
      <trkpt lat="41.988897" lon="9.2195">
        <ele>1840.4</ele>
        <time>2022-09-15T05:52:25Z</time>
      </trkpt>
      <trkpt lat="41.988867" lon="9.219515">
        <ele>1840.8</ele>
        <time>2022-09-15T05:52:30Z</time>
      </trkpt>
      <trkpt lat="41.988807" lon="9.21953">
        <ele>1839.6</ele>
        <time>2022-09-15T05:52:39Z</time>
      </trkpt>
      <trkpt lat="41.988775" lon="9.219535">
        <ele>1837.8</ele>
        <time>2022-09-15T05:52:54Z</time>
      </trkpt>
      <trkpt lat="41.988718" lon="9.219527">
        <ele>1835.8</ele>
        <time>2022-09-15T05:53:13Z</time>
      </trkpt>
      <trkpt lat="41.988652" lon="9.21955">
        <ele>1836.6</ele>
        <time>2022-09-15T05:53:48Z</time>
      </trkpt>
      <trkpt lat="41.988532" lon="9.21962">
        <ele>1832.0</ele>
        <time>2022-09-15T05:54:16Z</time>
      </trkpt>
      <trkpt lat="41.98849" lon="9.21973">
        <ele>1831.4</ele>
        <time>2022-09-15T05:54:24Z</time>
      </trkpt>
      <trkpt lat="41.988463" lon="9.219772">
        <ele>1831.6</ele>
        <time>2022-09-15T05:54:27Z</time>
      </trkpt>
      <trkpt lat="41.988408" lon="9.219855">
        <ele>1831.8</ele>
        <time>2022-09-15T05:54:33Z</time>
      </trkpt>
      <trkpt lat="41.988387" lon="9.219897">
        <ele>1833.0</ele>
        <time>2022-09-15T05:54:37Z</time>
      </trkpt>
      <trkpt lat="41.988318" lon="9.219922">
        <ele>1831.8</ele>
        <time>2022-09-15T05:54:42Z</time>
      </trkpt>
      <trkpt lat="41.988295" lon="9.21996">
        <ele>1832.6</ele>
        <time>2022-09-15T05:54:45Z</time>
      </trkpt>
      <trkpt lat="41.988282" lon="9.220002">
        <ele>1832.2</ele>
        <time>2022-09-15T05:54:48Z</time>
      </trkpt>
      <trkpt lat="41.988247" lon="9.220013">
        <ele>1832.0</ele>
        <time>2022-09-15T05:54:53Z</time>
      </trkpt>
      <trkpt lat="41.98804" lon="9.21998">
        <ele>1828.0</ele>
        <time>2022-09-15T05:55:19Z</time>
      </trkpt>
      <trkpt lat="41.987993" lon="9.21996">
        <ele>1827.8</ele>
        <time>2022-09-15T05:55:23Z</time>
      </trkpt>
      <trkpt lat="41.987923" lon="9.219922">
        <ele>1825.8</ele>
        <time>2022-09-15T05:55:30Z</time>
      </trkpt>
      <trkpt lat="41.987913" lon="9.21992">
        <ele>1825.0</ele>
        <time>2022-09-15T05:55:31Z</time>
      </trkpt>
      <trkpt lat="41.987843" lon="9.219918">
        <ele>1823.4</ele>
        <time>2022-09-15T05:55:37Z</time>
      </trkpt>
      <trkpt lat="41.987793" lon="9.219892">
        <ele>1822.0</ele>
        <time>2022-09-15T05:55:43Z</time>
      </trkpt>
      <trkpt lat="41.987705" lon="9.219803">
        <ele>1815.6</ele>
        <time>2022-09-15T05:55:58Z</time>
      </trkpt>
      <trkpt lat="41.987692" lon="9.219803">
        <ele>1817.2</ele>
        <time>2022-09-15T05:56:11Z</time>
      </trkpt>
      <trkpt lat="41.987697" lon="9.21975">
        <ele>1816.0</ele>
        <time>2022-09-15T05:56:27Z</time>
      </trkpt>
      <trkpt lat="41.987703" lon="9.219693">
        <ele>1817.6</ele>
        <time>2022-09-15T05:56:31Z</time>
      </trkpt>
      <trkpt lat="41.987752" lon="9.219532">
        <ele>1816.8</ele>
        <time>2022-09-15T05:56:41Z</time>
      </trkpt>
      <trkpt lat="41.98776" lon="9.219483">
        <ele>1816.4</ele>
        <time>2022-09-15T05:56:43Z</time>
      </trkpt>
      <trkpt lat="41.987597" lon="9.219472">
        <ele>1815.0</ele>
        <time>2022-09-15T05:56:53Z</time>
      </trkpt>
      <trkpt lat="41.987295" lon="9.219393">
        <ele>1810.2</ele>
        <time>2022-09-15T05:57:16Z</time>
      </trkpt>
      <trkpt lat="41.987203" lon="9.21937">
        <ele>1809.6</ele>
        <time>2022-09-15T05:57:29Z</time>
      </trkpt>
      <trkpt lat="41.987167" lon="9.219357">
        <ele>1806.0</ele>
        <time>2022-09-15T05:57:36Z</time>
      </trkpt>
      <trkpt lat="41.987137" lon="9.219373">
        <ele>1806.8</ele>
        <time>2022-09-15T05:57:41Z</time>
      </trkpt>
      <trkpt lat="41.987027" lon="9.219477">
        <ele>1810.6</ele>
        <time>2022-09-15T05:58:06Z</time>
      </trkpt>
      <trkpt lat="41.986993" lon="9.219467">
        <ele>1810.6</ele>
        <time>2022-09-15T05:58:10Z</time>
      </trkpt>
      <trkpt lat="41.986928" lon="9.219373">
        <ele>1804.8</ele>
        <time>2022-09-15T05:58:20Z</time>
      </trkpt>
      <trkpt lat="41.986898" lon="9.219338">
        <ele>1802.6</ele>
        <time>2022-09-15T05:58:25Z</time>
      </trkpt>
      <trkpt lat="41.986693" lon="9.219182">
        <ele>1797.6</ele>
        <time>2022-09-15T05:58:54Z</time>
      </trkpt>
      <trkpt lat="41.986685" lon="9.219172">
        <ele>1796.4</ele>
        <time>2022-09-15T05:58:56Z</time>
      </trkpt>
      <trkpt lat="41.98667" lon="9.219217">
        <ele>1794.6</ele>
        <time>2022-09-15T05:59:06Z</time>
      </trkpt>
      <trkpt lat="41.986658" lon="9.219247">
        <ele>1794.8</ele>
        <time>2022-09-15T05:59:12Z</time>
      </trkpt>
      <trkpt lat="41.986615" lon="9.219267">
        <ele>1792.4</ele>
        <time>2022-09-15T05:59:20Z</time>
      </trkpt>
      <trkpt lat="41.986568" lon="9.219298">
        <ele>1791.8</ele>
        <time>2022-09-15T05:59:27Z</time>
      </trkpt>
      <trkpt lat="41.98654" lon="9.219288">
        <ele>1791.6</ele>
        <time>2022-09-15T05:59:31Z</time>
      </trkpt>
      <trkpt lat="41.986542" lon="9.219255">
        <ele>1790.4</ele>
        <time>2022-09-15T05:59:35Z</time>
      </trkpt>
      <trkpt lat="41.986545" lon="9.219247">
        <ele>1790.6</ele>
        <time>2022-09-15T05:59:36Z</time>
      </trkpt>
      <trkpt lat="41.986572" lon="9.219215">
        <ele>1790.4</ele>
        <time>2022-09-15T05:59:41Z</time>
      </trkpt>
      <trkpt lat="41.986557" lon="9.219117">
        <ele>1790.6</ele>
        <time>2022-09-15T05:59:48Z</time>
      </trkpt>
      <trkpt lat="41.986578" lon="9.219047">
        <ele>1788.8</ele>
        <time>2022-09-15T05:59:54Z</time>
      </trkpt>
      <trkpt lat="41.986577" lon="9.218918">
        <ele>1785.8</ele>
        <time>2022-09-15T06:00:02Z</time>
      </trkpt>
      <trkpt lat="41.986587" lon="9.218877">
        <ele>1784.4</ele>
        <time>2022-09-15T06:00:05Z</time>
      </trkpt>
      <trkpt lat="41.986582" lon="9.21883">
        <ele>1783.8</ele>
        <time>2022-09-15T06:00:09Z</time>
      </trkpt>
      <trkpt lat="41.986553" lon="9.218788">
        <ele>1781.8</ele>
        <time>2022-09-15T06:00:14Z</time>
      </trkpt>
      <trkpt lat="41.986513" lon="9.218785">
        <ele>1783.8</ele>
        <time>2022-09-15T06:00:21Z</time>
      </trkpt>
      <trkpt lat="41.986405" lon="9.218858">
        <ele>1777.6</ele>
        <time>2022-09-15T06:00:56Z</time>
      </trkpt>
      <trkpt lat="41.986387" lon="9.218847">
        <ele>1775.4</ele>
        <time>2022-09-15T06:01:04Z</time>
      </trkpt>
      <trkpt lat="41.986383" lon="9.21884">
        <ele>1773.0</ele>
        <time>2022-09-15T06:01:06Z</time>
      </trkpt>
      <trkpt lat="41.986353" lon="9.218817">
        <ele>1773.2</ele>
        <time>2022-09-15T06:01:11Z</time>
      </trkpt>
      <trkpt lat="41.986332" lon="9.218818">
        <ele>1774.6</ele>
        <time>2022-09-15T06:01:14Z</time>
      </trkpt>
      <trkpt lat="41.9863" lon="9.218845">
        <ele>1774.6</ele>
        <time>2022-09-15T06:01:19Z</time>
      </trkpt>
      <trkpt lat="41.986277" lon="9.218875">
        <ele>1772.8</ele>
        <time>2022-09-15T06:01:26Z</time>
      </trkpt>
      <trkpt lat="41.98621" lon="9.218888">
        <ele>1770.6</ele>
        <time>2022-09-15T06:01:40Z</time>
      </trkpt>
      <trkpt lat="41.986155" lon="9.218878">
        <ele>1767.4</ele>
        <time>2022-09-15T06:01:52Z</time>
      </trkpt>
      <trkpt lat="41.986087" lon="9.218877">
        <ele>1764.4</ele>
        <time>2022-09-15T06:02:04Z</time>
      </trkpt>
      <trkpt lat="41.9859" lon="9.218877">
        <ele>1756.4</ele>
        <time>2022-09-15T06:02:36Z</time>
      </trkpt>
      <trkpt lat="41.985815" lon="9.218975">
        <ele>1757.2</ele>
        <time>2022-09-15T06:02:55Z</time>
      </trkpt>
      <trkpt lat="41.985777" lon="9.218997">
        <ele>1759.4</ele>
        <time>2022-09-15T06:03:03Z</time>
      </trkpt>
      <trkpt lat="41.985772" lon="9.219002">
        <ele>1759.4</ele>
        <time>2022-09-15T06:03:04Z</time>
      </trkpt>
      <trkpt lat="41.985755" lon="9.219085">
        <ele>1766.2</ele>
        <time>2022-09-15T06:03:18Z</time>
      </trkpt>
      <trkpt lat="41.985748" lon="9.219088">
        <ele>1766.6</ele>
        <time>2022-09-15T06:03:19Z</time>
      </trkpt>
      <trkpt lat="41.985728" lon="9.219077">
        <ele>1769.4</ele>
        <time>2022-09-15T06:03:23Z</time>
      </trkpt>
      <trkpt lat="41.985672" lon="9.219082">
        <ele>1769.2</ele>
        <time>2022-09-15T06:03:40Z</time>
      </trkpt>
      <trkpt lat="41.985613" lon="9.219085">
        <ele>1769.6</ele>
        <time>2022-09-15T06:04:17Z</time>
      </trkpt>
      <trkpt lat="41.985572" lon="9.219112">
        <ele>1765.4</ele>
        <time>2022-09-15T06:04:42Z</time>
      </trkpt>
      <trkpt lat="41.985543" lon="9.219138">
        <ele>1761.6</ele>
        <time>2022-09-15T06:04:49Z</time>
      </trkpt>
      <trkpt lat="41.985542" lon="9.219145">
        <ele>1761.6</ele>
        <time>2022-09-15T06:04:50Z</time>
      </trkpt>
      <trkpt lat="41.985592" lon="9.219227">
        <ele>1759.4</ele>
        <time>2022-09-15T06:05:11Z</time>
      </trkpt>
      <trkpt lat="41.985598" lon="9.219263">
        <ele>1756.0</ele>
        <time>2022-09-15T06:05:17Z</time>
      </trkpt>
      <trkpt lat="41.985575" lon="9.219287">
        <ele>1755.8</ele>
        <time>2022-09-15T06:05:22Z</time>
      </trkpt>
      <trkpt lat="41.985532" lon="9.2193">
        <ele>1755.8</ele>
        <time>2022-09-15T06:05:30Z</time>
      </trkpt>
      <trkpt lat="41.985505" lon="9.219337">
        <ele>1753.0</ele>
        <time>2022-09-15T06:05:54Z</time>
      </trkpt>
      <trkpt lat="41.985438" lon="9.219362">
        <ele>1741.4</ele>
        <time>2022-09-15T06:06:21Z</time>
      </trkpt>
      <trkpt lat="41.985437" lon="9.219363">
        <ele>1741.4</ele>
        <time>2022-09-15T06:06:22Z</time>
      </trkpt>
      <trkpt lat="41.985245" lon="9.219287">
        <ele>1733.8</ele>
        <time>2022-09-15T06:07:22Z</time>
      </trkpt>
      <trkpt lat="41.985202" lon="9.219257">
        <ele>1729.8</ele>
        <time>2022-09-15T06:07:32Z</time>
      </trkpt>
      <trkpt lat="41.98509" lon="9.219162">
        <ele>1722.0</ele>
        <time>2022-09-15T06:07:49Z</time>
      </trkpt>
      <trkpt lat="41.985047" lon="9.219167">
        <ele>1723.4</ele>
        <time>2022-09-15T06:07:56Z</time>
      </trkpt>
      <trkpt lat="41.984963" lon="9.219195">
        <ele>1723.2</ele>
        <time>2022-09-15T06:08:07Z</time>
      </trkpt>
      <trkpt lat="41.984958" lon="9.219187">
        <ele>1723.2</ele>
        <time>2022-09-15T06:08:08Z</time>
      </trkpt>
      <trkpt lat="41.984947" lon="9.219162">
        <ele>1722.2</ele>
        <time>2022-09-15T06:08:11Z</time>
      </trkpt>
      <trkpt lat="41.984958" lon="9.219095">
        <ele>1719.0</ele>
        <time>2022-09-15T06:08:17Z</time>
      </trkpt>
      <trkpt lat="41.984988" lon="9.219">
        <ele>1716.6</ele>
        <time>2022-09-15T06:08:28Z</time>
      </trkpt>
      <trkpt lat="41.98499" lon="9.218928">
        <ele>1717.0</ele>
        <time>2022-09-15T06:08:35Z</time>
      </trkpt>
      <trkpt lat="41.985003" lon="9.218877">
        <ele>1712.8</ele>
        <time>2022-09-15T06:08:46Z</time>
      </trkpt>
      <trkpt lat="41.984977" lon="9.218873">
        <ele>1709.8</ele>
        <time>2022-09-15T06:08:55Z</time>
      </trkpt>
      <trkpt lat="41.984905" lon="9.218788">
        <ele>1703.2</ele>
        <time>2022-09-15T06:09:19Z</time>
      </trkpt>
      <trkpt lat="41.984903" lon="9.21879">
        <ele>1702.6</ele>
        <time>2022-09-15T06:09:21Z</time>
      </trkpt>
      <trkpt lat="41.984878" lon="9.218867">
        <ele>1699.4</ele>
        <time>2022-09-15T06:09:43Z</time>
      </trkpt>
      <trkpt lat="41.984835" lon="9.219135">
        <ele>1701.0</ele>
        <time>2022-09-15T06:10:48Z</time>
      </trkpt>
      <trkpt lat="41.984825" lon="9.219137">
        <ele>1700.2</ele>
        <time>2022-09-15T06:11:01Z</time>
      </trkpt>
      <trkpt lat="41.984723" lon="9.219157">
        <ele>1700.2</ele>
        <time>2022-09-15T06:11:13Z</time>
      </trkpt>
      <trkpt lat="41.984678" lon="9.219167">
        <ele>1700.2</ele>
        <time>2022-09-15T06:11:18Z</time>
      </trkpt>
      <trkpt lat="41.984653" lon="9.21916">
        <ele>1699.6</ele>
        <time>2022-09-15T06:11:20Z</time>
      </trkpt>
      <trkpt lat="41.98463" lon="9.219167">
        <ele>1699.8</ele>
        <time>2022-09-15T06:11:22Z</time>
      </trkpt>
      <trkpt lat="41.984563" lon="9.219148">
        <ele>1700.4</ele>
        <time>2022-09-15T06:11:29Z</time>
      </trkpt>
      <trkpt lat="41.984528" lon="9.219172">
        <ele>1700.0</ele>
        <time>2022-09-15T06:11:35Z</time>
      </trkpt>
      <trkpt lat="41.984483" lon="9.21924">
        <ele>1701.4</ele>
        <time>2022-09-15T06:12:01Z</time>
      </trkpt>
      <trkpt lat="41.984432" lon="9.219248">
        <ele>1700.4</ele>
        <time>2022-09-15T06:12:14Z</time>
      </trkpt>
      <trkpt lat="41.984432" lon="9.219238">
        <ele>1700.0</ele>
        <time>2022-09-15T06:12:15Z</time>
      </trkpt>
      <trkpt lat="41.98441" lon="9.219173">
        <ele>1698.4</ele>
        <time>2022-09-15T06:12:23Z</time>
      </trkpt>
      <trkpt lat="41.984372" lon="9.219108">
        <ele>1696.0</ele>
        <time>2022-09-15T06:12:32Z</time>
      </trkpt>
      <trkpt lat="41.984298" lon="9.219067">
        <ele>1696.2</ele>
        <time>2022-09-15T06:12:45Z</time>
      </trkpt>
      <trkpt lat="41.984267" lon="9.219087">
        <ele>1695.6</ele>
        <time>2022-09-15T06:12:51Z</time>
      </trkpt>
      <trkpt lat="41.98422" lon="9.219028">
        <ele>1694.6</ele>
        <time>2022-09-15T06:13:17Z</time>
      </trkpt>
      <trkpt lat="41.984195" lon="9.219007">
        <ele>1693.8</ele>
        <time>2022-09-15T06:13:22Z</time>
      </trkpt>
      <trkpt lat="41.984182" lon="9.21907">
        <ele>1694.4</ele>
        <time>2022-09-15T06:13:46Z</time>
      </trkpt>
      <trkpt lat="41.98416" lon="9.219098">
        <ele>1694.6</ele>
        <time>2022-09-15T06:13:51Z</time>
      </trkpt>
      <trkpt lat="41.984135" lon="9.219118">
        <ele>1695.0</ele>
        <time>2022-09-15T06:13:54Z</time>
      </trkpt>
      <trkpt lat="41.984125" lon="9.219115">
        <ele>1695.0</ele>
        <time>2022-09-15T06:13:55Z</time>
      </trkpt>
      <trkpt lat="41.984033" lon="9.219185">
        <ele>1698.6</ele>
        <time>2022-09-15T06:14:14Z</time>
      </trkpt>
      <trkpt lat="41.984023" lon="9.219175">
        <ele>1701.2</ele>
        <time>2022-09-15T06:14:26Z</time>
      </trkpt>
      <trkpt lat="41.984015" lon="9.219205">
        <ele>1702.2</ele>
        <time>2022-09-15T06:14:33Z</time>
      </trkpt>
      <trkpt lat="41.983985" lon="9.21921">
        <ele>1703.0</ele>
        <time>2022-09-15T06:14:39Z</time>
      </trkpt>
      <trkpt lat="41.983947" lon="9.21913">
        <ele>1705.0</ele>
        <time>2022-09-15T06:14:45Z</time>
      </trkpt>
      <trkpt lat="41.983913" lon="9.2191">
        <ele>1704.8</ele>
        <time>2022-09-15T06:14:49Z</time>
      </trkpt>
      <trkpt lat="41.983862" lon="9.21909">
        <ele>1712.2</ele>
        <time>2022-09-15T06:15:02Z</time>
      </trkpt>
      <trkpt lat="41.983797" lon="9.219085">
        <ele>1710.0</ele>
        <time>2022-09-15T06:15:23Z</time>
      </trkpt>
      <trkpt lat="41.983753" lon="9.21916">
        <ele>1711.4</ele>
        <time>2022-09-15T06:15:30Z</time>
      </trkpt>
      <trkpt lat="41.983697" lon="9.219197">
        <ele>1714.0</ele>
        <time>2022-09-15T06:15:37Z</time>
      </trkpt>
      <trkpt lat="41.983683" lon="9.219218">
        <ele>1713.8</ele>
        <time>2022-09-15T06:15:39Z</time>
      </trkpt>
      <trkpt lat="41.983678" lon="9.219295">
        <ele>1716.8</ele>
        <time>2022-09-15T06:15:48Z</time>
      </trkpt>
      <trkpt lat="41.983692" lon="9.219362">
        <ele>1721.0</ele>
        <time>2022-09-15T06:15:58Z</time>
      </trkpt>
      <trkpt lat="41.983643" lon="9.219477">
        <ele>1718.6</ele>
        <time>2022-09-15T06:16:13Z</time>
      </trkpt>
      <trkpt lat="41.98361" lon="9.219552">
        <ele>1713.8</ele>
        <time>2022-09-15T06:16:23Z</time>
      </trkpt>
      <trkpt lat="41.983605" lon="9.219547">
        <ele>1713.8</ele>
        <time>2022-09-15T06:16:23Z</time>
      </trkpt>
      <trkpt lat="41.98354" lon="9.219512">
        <ele>1710.4</ele>
        <time>2022-09-15T06:16:34Z</time>
      </trkpt>
      <trkpt lat="41.983513" lon="9.21954">
        <ele>1716.0</ele>
        <time>2022-09-15T06:16:47Z</time>
      </trkpt>
      <trkpt lat="41.983502" lon="9.21953">
        <ele>1716.4</ele>
        <time>2022-09-15T06:16:48Z</time>
      </trkpt>
      <trkpt lat="41.983353" lon="9.21951">
        <ele>1709.8</ele>
        <time>2022-09-15T06:17:09Z</time>
      </trkpt>
      <trkpt lat="41.983235" lon="9.219475">
        <ele>1708.6</ele>
        <time>2022-09-15T06:17:24Z</time>
      </trkpt>
      <trkpt lat="41.983172" lon="9.219522">
        <ele>1712.0</ele>
        <time>2022-09-15T06:17:34Z</time>
      </trkpt>
      <trkpt lat="41.983138" lon="9.21955">
        <ele>1712.4</ele>
        <time>2022-09-15T06:17:44Z</time>
      </trkpt>
      <trkpt lat="41.983112" lon="9.219595">
        <ele>1711.4</ele>
        <time>2022-09-15T06:17:52Z</time>
      </trkpt>
      <trkpt lat="41.983103" lon="9.219592">
        <ele>1711.4</ele>
        <time>2022-09-15T06:17:53Z</time>
      </trkpt>
      <trkpt lat="41.983082" lon="9.219535">
        <ele>1709.8</ele>
        <time>2022-09-15T06:18:04Z</time>
      </trkpt>
      <trkpt lat="41.982613" lon="9.219317">
        <ele>1712.4</ele>
        <time>2022-09-15T06:18:15Z</time>
      </trkpt>
      <trkpt lat="41.982778" lon="9.219503">
        <ele>1713.8</ele>
        <time>2022-09-15T06:18:28Z</time>
      </trkpt>
      <trkpt lat="41.98291" lon="9.219483">
        <ele>1714.6</ele>
        <time>2022-09-15T06:18:30Z</time>
      </trkpt>
      <trkpt lat="41.983092" lon="9.219387">
        <ele>1716.2</ele>
        <time>2022-09-15T06:18:45Z</time>
      </trkpt>
      <trkpt lat="41.98315" lon="9.21933">
        <ele>1715.4</ele>
        <time>2022-09-15T06:18:52Z</time>
      </trkpt>
      <trkpt lat="41.983163" lon="9.219312">
        <ele>1715.0</ele>
        <time>2022-09-15T06:18:54Z</time>
      </trkpt>
      <trkpt lat="41.983175" lon="9.219278">
        <ele>1714.4</ele>
        <time>2022-09-15T06:18:58Z</time>
      </trkpt>
      <trkpt lat="41.98316" lon="9.219182">
        <ele>1713.0</ele>
        <time>2022-09-15T06:19:39Z</time>
      </trkpt>
      <trkpt lat="41.983133" lon="9.21919">
        <ele>1713.6</ele>
        <time>2022-09-15T06:19:42Z</time>
      </trkpt>
      <trkpt lat="41.98306" lon="9.219187">
        <ele>1713.0</ele>
        <time>2022-09-15T06:19:50Z</time>
      </trkpt>
      <trkpt lat="41.98304" lon="9.219187">
        <ele>1713.8</ele>
        <time>2022-09-15T06:19:52Z</time>
      </trkpt>
      <trkpt lat="41.982692" lon="9.2193">
        <ele>1718.6</ele>
        <time>2022-09-15T06:20:24Z</time>
      </trkpt>
      <trkpt lat="41.982682" lon="9.2193">
        <ele>1718.6</ele>
        <time>2022-09-15T06:20:25Z</time>
      </trkpt>
      <trkpt lat="41.98263" lon="9.219345">
        <ele>1718.2</ele>
        <time>2022-09-15T06:20:34Z</time>
      </trkpt>
      <trkpt lat="41.982698" lon="9.21934">
        <ele>1716.6</ele>
        <time>2022-09-15T06:21:15Z</time>
      </trkpt>
      <trkpt lat="41.982638" lon="9.219298">
        <ele>1717.8</ele>
        <time>2022-09-15T06:21:28Z</time>
      </trkpt>
      <trkpt lat="41.982578" lon="9.219355">
        <ele>1714.2</ele>
        <time>2022-09-15T06:21:39Z</time>
      </trkpt>
      <trkpt lat="41.982503" lon="9.219448">
        <ele>1708.6</ele>
        <time>2022-09-15T06:21:50Z</time>
      </trkpt>
      <trkpt lat="41.982495" lon="9.219457">
        <ele>1708.2</ele>
        <time>2022-09-15T06:21:51Z</time>
      </trkpt>
      <trkpt lat="41.982423" lon="9.219558">
        <ele>1700.0</ele>
        <time>2022-09-15T06:22:05Z</time>
      </trkpt>
      <trkpt lat="41.982417" lon="9.219563">
        <ele>1700.0</ele>
        <time>2022-09-15T06:22:05Z</time>
      </trkpt>
      <trkpt lat="41.982383" lon="9.219497">
        <ele>1698.0</ele>
        <time>2022-09-15T06:22:16Z</time>
      </trkpt>
      <trkpt lat="41.982357" lon="9.219517">
        <ele>1698.0</ele>
        <time>2022-09-15T06:22:20Z</time>
      </trkpt>
      <trkpt lat="41.98235" lon="9.219635">
        <ele>1702.0</ele>
        <time>2022-09-15T06:22:35Z</time>
      </trkpt>
      <trkpt lat="41.982355" lon="9.21969">
        <ele>1704.6</ele>
        <time>2022-09-15T06:22:49Z</time>
      </trkpt>
      <trkpt lat="41.982355" lon="9.219693">
        <ele>1704.6</ele>
        <time>2022-09-15T06:22:50Z</time>
      </trkpt>
      <trkpt lat="41.982298" lon="9.219792">
        <ele>1701.0</ele>
        <time>2022-09-15T06:23:39Z</time>
      </trkpt>
      <trkpt lat="41.982233" lon="9.219822">
        <ele>1701.6</ele>
        <time>2022-09-15T06:23:53Z</time>
      </trkpt>
      <trkpt lat="41.98221" lon="9.219848">
        <ele>1701.6</ele>
        <time>2022-09-15T06:23:57Z</time>
      </trkpt>
      <trkpt lat="41.98216" lon="9.219983">
        <ele>1701.0</ele>
        <time>2022-09-15T06:24:13Z</time>
      </trkpt>
      <trkpt lat="41.982148" lon="9.219998">
        <ele>1701.4</ele>
        <time>2022-09-15T06:24:16Z</time>
      </trkpt>
      <trkpt lat="41.982158" lon="9.220052">
        <ele>1703.8</ele>
        <time>2022-09-15T06:24:28Z</time>
      </trkpt>
      <trkpt lat="41.982112" lon="9.220193">
        <ele>1706.8</ele>
        <time>2022-09-15T06:25:00Z</time>
      </trkpt>
      <trkpt lat="41.982108" lon="9.220197">
        <ele>1707.0</ele>
        <time>2022-09-15T06:25:01Z</time>
      </trkpt>
      <trkpt lat="41.982083" lon="9.220228">
        <ele>1713.0</ele>
        <time>2022-09-15T06:25:09Z</time>
      </trkpt>
      <trkpt lat="41.981855" lon="9.220252">
        <ele>1703.4</ele>
        <time>2022-09-15T06:26:03Z</time>
      </trkpt>
      <trkpt lat="41.981835" lon="9.220283">
        <ele>1702.2</ele>
        <time>2022-09-15T06:26:14Z</time>
      </trkpt>
      <trkpt lat="41.981827" lon="9.220317">
        <ele>1702.4</ele>
        <time>2022-09-15T06:26:17Z</time>
      </trkpt>
      <trkpt lat="41.981782" lon="9.220358">
        <ele>1700.0</ele>
        <time>2022-09-15T06:26:21Z</time>
      </trkpt>
      <trkpt lat="41.981738" lon="9.220398">
        <ele>1699.0</ele>
        <time>2022-09-15T06:26:47Z</time>
      </trkpt>
      <trkpt lat="41.98153" lon="9.220533">
        <ele>1690.6</ele>
        <time>2022-09-15T06:27:57Z</time>
      </trkpt>
      <trkpt lat="41.98149" lon="9.220585">
        <ele>1689.8</ele>
        <time>2022-09-15T06:28:04Z</time>
      </trkpt>
      <trkpt lat="41.981482" lon="9.220628">
        <ele>1689.8</ele>
        <time>2022-09-15T06:28:06Z</time>
      </trkpt>
      <trkpt lat="41.98145" lon="9.220993">
        <ele>1689.8</ele>
        <time>2022-09-15T06:28:27Z</time>
      </trkpt>
      <trkpt lat="41.98142" lon="9.221082">
        <ele>1689.4</ele>
        <time>2022-09-15T06:28:34Z</time>
      </trkpt>
      <trkpt lat="41.981407" lon="9.221128">
        <ele>1688.2</ele>
        <time>2022-09-15T06:28:38Z</time>
      </trkpt>
      <trkpt lat="41.981395" lon="9.221205">
        <ele>1686.0</ele>
        <time>2022-09-15T06:28:46Z</time>
      </trkpt>
      <trkpt lat="41.981388" lon="9.221197">
        <ele>1685.6</ele>
        <time>2022-09-15T06:28:47Z</time>
      </trkpt>
      <trkpt lat="41.981315" lon="9.221135">
        <ele>1684.4</ele>
        <time>2022-09-15T06:28:55Z</time>
      </trkpt>
      <trkpt lat="41.981255" lon="9.221137">
        <ele>1686.6</ele>
        <time>2022-09-15T06:29:02Z</time>
      </trkpt>
      <trkpt lat="41.981215" lon="9.221148">
        <ele>1684.0</ele>
        <time>2022-09-15T06:29:07Z</time>
      </trkpt>
      <trkpt lat="41.981158" lon="9.221165">
        <ele>1680.2</ele>
        <time>2022-09-15T06:29:15Z</time>
      </trkpt>
      <trkpt lat="41.981123" lon="9.221167">
        <ele>1679.2</ele>
        <time>2022-09-15T06:29:19Z</time>
      </trkpt>
      <trkpt lat="41.981108" lon="9.221192">
        <ele>1680.6</ele>
        <time>2022-09-15T06:29:23Z</time>
      </trkpt>
      <trkpt lat="41.981062" lon="9.22136">
        <ele>1676.0</ele>
        <time>2022-09-15T06:29:56Z</time>
      </trkpt>
      <trkpt lat="41.981038" lon="9.221398">
        <ele>1675.2</ele>
        <time>2022-09-15T06:30:03Z</time>
      </trkpt>
      <trkpt lat="41.98096" lon="9.221423">
        <ele>1674.2</ele>
        <time>2022-09-15T06:30:20Z</time>
      </trkpt>
      <trkpt lat="41.980895" lon="9.221465">
        <ele>1669.2</ele>
        <time>2022-09-15T06:30:34Z</time>
      </trkpt>
      <trkpt lat="41.98088" lon="9.221468">
        <ele>1668.2</ele>
        <time>2022-09-15T06:30:38Z</time>
      </trkpt>
      <trkpt lat="41.980822" lon="9.221495">
        <ele>1667.2</ele>
        <time>2022-09-15T06:30:45Z</time>
      </trkpt>
      <trkpt lat="41.98076" lon="9.221522">
        <ele>1667.8</ele>
        <time>2022-09-15T06:30:52Z</time>
      </trkpt>
      <trkpt lat="41.980722" lon="9.22158">
        <ele>1668.4</ele>
        <time>2022-09-15T06:30:59Z</time>
      </trkpt>
      <trkpt lat="41.9807" lon="9.221665">
        <ele>1668.0</ele>
        <time>2022-09-15T06:31:07Z</time>
      </trkpt>
      <trkpt lat="41.980685" lon="9.221642">
        <ele>1669.4</ele>
        <time>2022-09-15T06:31:09Z</time>
      </trkpt>
      <trkpt lat="41.980683" lon="9.221598">
        <ele>1669.4</ele>
        <time>2022-09-15T06:31:14Z</time>
      </trkpt>
      <trkpt lat="41.980653" lon="9.22154">
        <ele>1667.8</ele>
        <time>2022-09-15T06:31:20Z</time>
      </trkpt>
      <trkpt lat="41.980612" lon="9.221465">
        <ele>1668.6</ele>
        <time>2022-09-15T06:31:26Z</time>
      </trkpt>
      <trkpt lat="41.980472" lon="9.22125">
        <ele>1667.2</ele>
        <time>2022-09-15T06:31:43Z</time>
      </trkpt>
      <trkpt lat="41.980465" lon="9.221245">
        <ele>1667.2</ele>
        <time>2022-09-15T06:31:44Z</time>
      </trkpt>
      <trkpt lat="41.980408" lon="9.221217">
        <ele>1666.4</ele>
        <time>2022-09-15T06:31:50Z</time>
      </trkpt>
      <trkpt lat="41.980357" lon="9.22122">
        <ele>1669.8</ele>
        <time>2022-09-15T06:31:55Z</time>
      </trkpt>
      <trkpt lat="41.98027" lon="9.221228">
        <ele>1669.0</ele>
        <time>2022-09-15T06:32:06Z</time>
      </trkpt>
      <trkpt lat="41.980165" lon="9.221227">
        <ele>1664.4</ele>
        <time>2022-09-15T06:32:19Z</time>
      </trkpt>
      <trkpt lat="41.980217" lon="9.221422">
        <ele>1656.6</ele>
        <time>2022-09-15T06:32:37Z</time>
      </trkpt>
      <trkpt lat="41.980243" lon="9.221465">
        <ele>1654.0</ele>
        <time>2022-09-15T06:32:42Z</time>
      </trkpt>
      <trkpt lat="41.980233" lon="9.221542">
        <ele>1650.6</ele>
        <time>2022-09-15T06:32:48Z</time>
      </trkpt>
      <trkpt lat="41.980228" lon="9.221555">
        <ele>1650.0</ele>
        <time>2022-09-15T06:32:50Z</time>
      </trkpt>
      <trkpt lat="41.980122" lon="9.221565">
        <ele>1648.2</ele>
        <time>2022-09-15T06:33:01Z</time>
      </trkpt>
      <trkpt lat="41.98002" lon="9.22155">
        <ele>1647.6</ele>
        <time>2022-09-15T06:33:17Z</time>
      </trkpt>
      <trkpt lat="41.980013" lon="9.221522">
        <ele>1647.6</ele>
        <time>2022-09-15T06:33:18Z</time>
      </trkpt>
      <trkpt lat="41.979982" lon="9.221467">
        <ele>1648.2</ele>
        <time>2022-09-15T06:33:21Z</time>
      </trkpt>
      <trkpt lat="41.979928" lon="9.221448">
        <ele>1647.4</ele>
        <time>2022-09-15T06:33:28Z</time>
      </trkpt>
      <trkpt lat="41.980012" lon="9.221433">
        <ele>1648.2</ele>
        <time>2022-09-15T06:33:33Z</time>
      </trkpt>
      <trkpt lat="41.980023" lon="9.221315">
        <ele>1648.4</ele>
        <time>2022-09-15T06:33:41Z</time>
      </trkpt>
      <trkpt lat="41.98002" lon="9.221293">
        <ele>1648.4</ele>
        <time>2022-09-15T06:33:42Z</time>
      </trkpt>
      <trkpt lat="41.98" lon="9.221217">
        <ele>1649.0</ele>
        <time>2022-09-15T06:33:50Z</time>
      </trkpt>
      <trkpt lat="41.979968" lon="9.221295">
        <ele>1647.0</ele>
        <time>2022-09-15T06:34:03Z</time>
      </trkpt>
      <trkpt lat="41.979965" lon="9.221298">
        <ele>1647.0</ele>
        <time>2022-09-15T06:34:03Z</time>
      </trkpt>
      <trkpt lat="41.979918" lon="9.2213">
        <ele>1642.8</ele>
        <time>2022-09-15T06:34:11Z</time>
      </trkpt>
      <trkpt lat="41.97992" lon="9.221305">
        <ele>1642.4</ele>
        <time>2022-09-15T06:34:12Z</time>
      </trkpt>
      <trkpt lat="41.979822" lon="9.221292">
        <ele>1643.2</ele>
        <time>2022-09-15T06:34:25Z</time>
      </trkpt>
      <trkpt lat="41.979765" lon="9.221275">
        <ele>1642.6</ele>
        <time>2022-09-15T06:34:33Z</time>
      </trkpt>
      <trkpt lat="41.97973" lon="9.221253">
        <ele>1642.6</ele>
        <time>2022-09-15T06:34:36Z</time>
      </trkpt>
      <trkpt lat="41.979708" lon="9.221168">
        <ele>1641.6</ele>
        <time>2022-09-15T06:34:42Z</time>
      </trkpt>
      <trkpt lat="41.979645" lon="9.221192">
        <ele>1639.6</ele>
        <time>2022-09-15T06:34:49Z</time>
      </trkpt>
      <trkpt lat="41.979563" lon="9.221187">
        <ele>1635.6</ele>
        <time>2022-09-15T06:34:58Z</time>
      </trkpt>
      <trkpt lat="41.979383" lon="9.221267">
        <ele>1630.6</ele>
        <time>2022-09-15T06:35:19Z</time>
      </trkpt>
      <trkpt lat="41.979273" lon="9.221222">
        <ele>1634.4</ele>
        <time>2022-09-15T06:35:30Z</time>
      </trkpt>
      <trkpt lat="41.97915" lon="9.221207">
        <ele>1637.6</ele>
        <time>2022-09-15T06:35:41Z</time>
      </trkpt>
      <trkpt lat="41.979082" lon="9.221098">
        <ele>1638.6</ele>
        <time>2022-09-15T06:35:49Z</time>
      </trkpt>
      <trkpt lat="41.979068" lon="9.22109">
        <ele>1638.6</ele>
        <time>2022-09-15T06:35:50Z</time>
      </trkpt>
      <trkpt lat="41.979035" lon="9.221075">
        <ele>1639.6</ele>
        <time>2022-09-15T06:35:53Z</time>
      </trkpt>
      <trkpt lat="41.978932" lon="9.22107">
        <ele>1638.0</ele>
        <time>2022-09-15T06:36:02Z</time>
      </trkpt>
      <trkpt lat="41.97879" lon="9.22104">
        <ele>1632.8</ele>
        <time>2022-09-15T06:36:15Z</time>
      </trkpt>
      <trkpt lat="41.978675" lon="9.221107">
        <ele>1630.6</ele>
        <time>2022-09-15T06:36:26Z</time>
      </trkpt>
      <trkpt lat="41.978633" lon="9.221117">
        <ele>1633.0</ele>
        <time>2022-09-15T06:36:30Z</time>
      </trkpt>
      <trkpt lat="41.978612" lon="9.221115">
        <ele>1633.2</ele>
        <time>2022-09-15T06:36:33Z</time>
      </trkpt>
      <trkpt lat="41.978533" lon="9.221248">
        <ele>1636.2</ele>
        <time>2022-09-15T06:36:49Z</time>
      </trkpt>
      <trkpt lat="41.978488" lon="9.221293">
        <ele>1634.6</ele>
        <time>2022-09-15T06:36:54Z</time>
      </trkpt>
      <trkpt lat="41.97842" lon="9.221375">
        <ele>1633.2</ele>
        <time>2022-09-15T06:37:02Z</time>
      </trkpt>
      <trkpt lat="41.978373" lon="9.22148">
        <ele>1634.6</ele>
        <time>2022-09-15T06:37:12Z</time>
      </trkpt>
      <trkpt lat="41.978367" lon="9.221495">
        <ele>1634.6</ele>
        <time>2022-09-15T06:37:15Z</time>
      </trkpt>
      <trkpt lat="41.978312" lon="9.221482">
        <ele>1635.2</ele>
        <time>2022-09-15T06:37:22Z</time>
      </trkpt>
      <trkpt lat="41.978277" lon="9.221477">
        <ele>1635.2</ele>
        <time>2022-09-15T06:37:26Z</time>
      </trkpt>
      <trkpt lat="41.978213" lon="9.22152">
        <ele>1634.6</ele>
        <time>2022-09-15T06:37:33Z</time>
      </trkpt>
      <trkpt lat="41.978143" lon="9.221572">
        <ele>1634.0</ele>
        <time>2022-09-15T06:37:41Z</time>
      </trkpt>
      <trkpt lat="41.978093" lon="9.221563">
        <ele>1632.6</ele>
        <time>2022-09-15T06:37:48Z</time>
      </trkpt>
      <trkpt lat="41.978038" lon="9.221522">
        <ele>1633.2</ele>
        <time>2022-09-15T06:37:55Z</time>
      </trkpt>
      <trkpt lat="41.977988" lon="9.221513">
        <ele>1632.8</ele>
        <time>2022-09-15T06:38:01Z</time>
      </trkpt>
      <trkpt lat="41.97776" lon="9.221332">
        <ele>1628.2</ele>
        <time>2022-09-15T06:38:27Z</time>
      </trkpt>
      <trkpt lat="41.977688" lon="9.221257">
        <ele>1624.8</ele>
        <time>2022-09-15T06:38:37Z</time>
      </trkpt>
      <trkpt lat="41.97768" lon="9.22125">
        <ele>1624.2</ele>
        <time>2022-09-15T06:38:39Z</time>
      </trkpt>
      <trkpt lat="41.977482" lon="9.221118">
        <ele>1620.2</ele>
        <time>2022-09-15T06:39:06Z</time>
      </trkpt>
      <trkpt lat="41.977308" lon="9.221053">
        <ele>1617.6</ele>
        <time>2022-09-15T06:39:19Z</time>
      </trkpt>
      <trkpt lat="41.977152" lon="9.221098">
        <ele>1617.6</ele>
        <time>2022-09-15T06:39:32Z</time>
      </trkpt>
      <trkpt lat="41.97709" lon="9.22115">
        <ele>1617.0</ele>
        <time>2022-09-15T06:39:38Z</time>
      </trkpt>
      <trkpt lat="41.977032" lon="9.221235">
        <ele>1617.0</ele>
        <time>2022-09-15T06:39:47Z</time>
      </trkpt>
      <trkpt lat="41.976838" lon="9.221342">
        <ele>1615.2</ele>
        <time>2022-09-15T06:40:01Z</time>
      </trkpt>
      <trkpt lat="41.976715" lon="9.221382">
        <ele>1617.0</ele>
        <time>2022-09-15T06:40:07Z</time>
      </trkpt>
      <trkpt lat="41.976588" lon="9.22145">
        <ele>1616.0</ele>
        <time>2022-09-15T06:40:32Z</time>
      </trkpt>
      <trkpt lat="41.976515" lon="9.22149">
        <ele>1615.6</ele>
        <time>2022-09-15T06:40:37Z</time>
      </trkpt>
      <trkpt lat="41.976452" lon="9.221545">
        <ele>1613.4</ele>
        <time>2022-09-15T06:40:43Z</time>
      </trkpt>
      <trkpt lat="41.976305" lon="9.221597">
        <ele>1612.2</ele>
        <time>2022-09-15T06:40:56Z</time>
      </trkpt>
      <trkpt lat="41.976257" lon="9.22162">
        <ele>1612.6</ele>
        <time>2022-09-15T06:40:59Z</time>
      </trkpt>
      <trkpt lat="41.976242" lon="9.221683">
        <ele>1612.8</ele>
        <time>2022-09-15T06:41:03Z</time>
      </trkpt>
      <trkpt lat="41.976197" lon="9.221747">
        <ele>1613.2</ele>
        <time>2022-09-15T06:41:09Z</time>
      </trkpt>
      <trkpt lat="41.976107" lon="9.221807">
        <ele>1610.8</ele>
        <time>2022-09-15T06:41:21Z</time>
      </trkpt>
      <trkpt lat="41.976052" lon="9.221855">
        <ele>1610.2</ele>
        <time>2022-09-15T06:41:29Z</time>
      </trkpt>
      <trkpt lat="41.976033" lon="9.221857">
        <ele>1611.4</ele>
        <time>2022-09-15T06:41:31Z</time>
      </trkpt>
      <trkpt lat="41.975972" lon="9.221845">
        <ele>1610.6</ele>
        <time>2022-09-15T06:41:37Z</time>
      </trkpt>
      <trkpt lat="41.97586" lon="9.22185">
        <ele>1614.2</ele>
        <time>2022-09-15T06:41:46Z</time>
      </trkpt>
      <trkpt lat="41.975793" lon="9.221857">
        <ele>1612.6</ele>
        <time>2022-09-15T06:41:53Z</time>
      </trkpt>
      <trkpt lat="41.97573" lon="9.221882">
        <ele>1616.2</ele>
        <time>2022-09-15T06:42:00Z</time>
      </trkpt>
      <trkpt lat="41.975653" lon="9.221917">
        <ele>1616.6</ele>
        <time>2022-09-15T06:42:10Z</time>
      </trkpt>
      <trkpt lat="41.97562" lon="9.221927">
        <ele>1614.6</ele>
        <time>2022-09-15T06:42:14Z</time>
      </trkpt>
      <trkpt lat="41.975482" lon="9.222072">
        <ele>1610.4</ele>
        <time>2022-09-15T06:42:30Z</time>
      </trkpt>
      <trkpt lat="41.975393" lon="9.222117">
        <ele>1610.0</ele>
        <time>2022-09-15T06:42:38Z</time>
      </trkpt>
      <trkpt lat="41.975335" lon="9.222175">
        <ele>1609.8</ele>
        <time>2022-09-15T06:42:43Z</time>
      </trkpt>
      <trkpt lat="41.975257" lon="9.222172">
        <ele>1608.8</ele>
        <time>2022-09-15T06:42:49Z</time>
      </trkpt>
      <trkpt lat="41.975218" lon="9.222177">
        <ele>1608.4</ele>
        <time>2022-09-15T06:42:52Z</time>
      </trkpt>
      <trkpt lat="41.975173" lon="9.22219">
        <ele>1609.6</ele>
        <time>2022-09-15T06:42:56Z</time>
      </trkpt>
      <trkpt lat="41.975148" lon="9.222157">
        <ele>1610.4</ele>
        <time>2022-09-15T06:43:00Z</time>
      </trkpt>
      <trkpt lat="41.975112" lon="9.222068">
        <ele>1610.6</ele>
        <time>2022-09-15T06:43:06Z</time>
      </trkpt>
      <trkpt lat="41.975062" lon="9.222068">
        <ele>1610.8</ele>
        <time>2022-09-15T06:43:10Z</time>
      </trkpt>
      <trkpt lat="41.975012" lon="9.222102">
        <ele>1611.6</ele>
        <time>2022-09-15T06:43:14Z</time>
      </trkpt>
      <trkpt lat="41.974863" lon="9.222213">
        <ele>1612.4</ele>
        <time>2022-09-15T06:43:26Z</time>
      </trkpt>
      <trkpt lat="41.97485" lon="9.222222">
        <ele>1612.4</ele>
        <time>2022-09-15T06:43:27Z</time>
      </trkpt>
      <trkpt lat="41.974767" lon="9.222302">
        <ele>1611.2</ele>
        <time>2022-09-15T06:43:38Z</time>
      </trkpt>
      <trkpt lat="41.974673" lon="9.222313">
        <ele>1612.0</ele>
        <time>2022-09-15T06:43:48Z</time>
      </trkpt>
      <trkpt lat="41.974665" lon="9.222267">
        <ele>1612.2</ele>
        <time>2022-09-15T06:43:52Z</time>
      </trkpt>
      <trkpt lat="41.974667" lon="9.222197">
        <ele>1612.6</ele>
        <time>2022-09-15T06:43:57Z</time>
      </trkpt>
      <trkpt lat="41.974685" lon="9.222222">
        <ele>1612.8</ele>
        <time>2022-09-15T06:44:02Z</time>
      </trkpt>
      <trkpt lat="41.974758" lon="9.222265">
        <ele>1613.6</ele>
        <time>2022-09-15T06:44:14Z</time>
      </trkpt>
      <trkpt lat="41.974805" lon="9.222305">
        <ele>1613.8</ele>
        <time>2022-09-15T06:44:25Z</time>
      </trkpt>
      <trkpt lat="41.974858" lon="9.222358">
        <ele>1613.6</ele>
        <time>2022-09-15T06:44:36Z</time>
      </trkpt>
      <trkpt lat="41.97487" lon="9.222375">
        <ele>1613.6</ele>
        <time>2022-09-15T06:44:38Z</time>
      </trkpt>
      <trkpt lat="41.974873" lon="9.222463">
        <ele>1613.2</ele>
        <time>2022-09-15T06:44:46Z</time>
      </trkpt>
      <trkpt lat="41.974835" lon="9.222503">
        <ele>1613.2</ele>
        <time>2022-09-15T06:45:10Z</time>
      </trkpt>
      <trkpt lat="41.97483" lon="9.222502">
        <ele>1613.6</ele>
        <time>2022-09-15T06:45:11Z</time>
      </trkpt>
      <trkpt lat="41.974548" lon="9.222382">
        <ele>1614.4</ele>
        <time>2022-09-15T06:46:05Z</time>
      </trkpt>
      <trkpt lat="41.974492" lon="9.222357">
        <ele>1615.8</ele>
        <time>2022-09-15T06:46:15Z</time>
      </trkpt>
      <trkpt lat="41.974423" lon="9.222343">
        <ele>1617.6</ele>
        <time>2022-09-15T06:46:24Z</time>
      </trkpt>
      <trkpt lat="41.97439" lon="9.222335">
        <ele>1618.2</ele>
        <time>2022-09-15T06:46:28Z</time>
      </trkpt>
      <trkpt lat="41.974345" lon="9.222323">
        <ele>1619.2</ele>
        <time>2022-09-15T06:46:34Z</time>
      </trkpt>
      <trkpt lat="41.974288" lon="9.222338">
        <ele>1620.0</ele>
        <time>2022-09-15T06:46:42Z</time>
      </trkpt>
      <trkpt lat="41.974198" lon="9.222292">
        <ele>1620.2</ele>
        <time>2022-09-15T06:46:53Z</time>
      </trkpt>
      <trkpt lat="41.974188" lon="9.222288">
        <ele>1620.2</ele>
        <time>2022-09-15T06:46:55Z</time>
      </trkpt>
      <trkpt lat="41.974155" lon="9.222385">
        <ele>1621.2</ele>
        <time>2022-09-15T06:47:02Z</time>
      </trkpt>
      <trkpt lat="41.974123" lon="9.222553">
        <ele>1622.8</ele>
        <time>2022-09-15T06:47:14Z</time>
      </trkpt>
      <trkpt lat="41.97411" lon="9.222667">
        <ele>1623.6</ele>
        <time>2022-09-15T06:47:22Z</time>
      </trkpt>
      <trkpt lat="41.974073" lon="9.222798">
        <ele>1624.0</ele>
        <time>2022-09-15T06:47:33Z</time>
      </trkpt>
      <trkpt lat="41.973837" lon="9.222828">
        <ele>1626.4</ele>
        <time>2022-09-15T06:47:50Z</time>
      </trkpt>
      <trkpt lat="41.973837" lon="9.222815">
        <ele>1628.8</ele>
        <time>2022-09-15T06:48:01Z</time>
      </trkpt>
      <trkpt lat="41.973762" lon="9.223133">
        <ele>1630.8</ele>
        <time>2022-09-15T06:48:12Z</time>
      </trkpt>
      <trkpt lat="41.973498" lon="9.223153">
        <ele>1631.8</ele>
        <time>2022-09-15T06:48:22Z</time>
      </trkpt>
      <trkpt lat="41.973415" lon="9.223237">
        <ele>1632.8</ele>
        <time>2022-09-15T06:48:27Z</time>
      </trkpt>
      <trkpt lat="41.973395" lon="9.223255">
        <ele>1633.2</ele>
        <time>2022-09-15T06:48:29Z</time>
      </trkpt>
      <trkpt lat="41.97332" lon="9.223288">
        <ele>1634.6</ele>
        <time>2022-09-15T06:48:36Z</time>
      </trkpt>
      <trkpt lat="41.973298" lon="9.223292">
        <ele>1635.2</ele>
        <time>2022-09-15T06:48:38Z</time>
      </trkpt>
      <trkpt lat="41.97324" lon="9.223272">
        <ele>1635.2</ele>
        <time>2022-09-15T06:48:44Z</time>
      </trkpt>
      <trkpt lat="41.973185" lon="9.223172">
        <ele>1638.6</ele>
        <time>2022-09-15T06:48:55Z</time>
      </trkpt>
      <trkpt lat="41.973167" lon="9.223142">
        <ele>1640.0</ele>
        <time>2022-09-15T06:49:00Z</time>
      </trkpt>
      <trkpt lat="41.973148" lon="9.22312">
        <ele>1641.4</ele>
        <time>2022-09-15T06:49:04Z</time>
      </trkpt>
      <trkpt lat="41.973112" lon="9.223133">
        <ele>1643.6</ele>
        <time>2022-09-15T06:49:10Z</time>
      </trkpt>
      <trkpt lat="41.97303" lon="9.223238">
        <ele>1649.6</ele>
        <time>2022-09-15T06:49:23Z</time>
      </trkpt>
      <trkpt lat="41.972965" lon="9.223393">
        <ele>1650.0</ele>
        <time>2022-09-15T06:49:37Z</time>
      </trkpt>
      <trkpt lat="41.972938" lon="9.223415">
        <ele>1650.2</ele>
        <time>2022-09-15T06:49:42Z</time>
      </trkpt>
      <trkpt lat="41.972867" lon="9.223405">
        <ele>1645.2</ele>
        <time>2022-09-15T06:49:49Z</time>
      </trkpt>
      <trkpt lat="41.9728" lon="9.223515">
        <ele>1646.6</ele>
        <time>2022-09-15T06:49:59Z</time>
      </trkpt>
      <trkpt lat="41.972678" lon="9.223725">
        <ele>1640.0</ele>
        <time>2022-09-15T06:50:17Z</time>
      </trkpt>
      <trkpt lat="41.972627" lon="9.223787">
        <ele>1637.2</ele>
        <time>2022-09-15T06:50:24Z</time>
      </trkpt>
      <trkpt lat="41.972578" lon="9.223842">
        <ele>1634.4</ele>
        <time>2022-09-15T06:50:32Z</time>
      </trkpt>
      <trkpt lat="41.972478" lon="9.223912">
        <ele>1628.8</ele>
        <time>2022-09-15T06:50:44Z</time>
      </trkpt>
      <trkpt lat="41.972383" lon="9.223925">
        <ele>1626.0</ele>
        <time>2022-09-15T06:50:54Z</time>
      </trkpt>
      <trkpt lat="41.972273" lon="9.223988">
        <ele>1623.4</ele>
        <time>2022-09-15T06:51:06Z</time>
      </trkpt>
      <trkpt lat="41.972177" lon="9.224147">
        <ele>1621.2</ele>
        <time>2022-09-15T06:51:18Z</time>
      </trkpt>
      <trkpt lat="41.972073" lon="9.224237">
        <ele>1618.4</ele>
        <time>2022-09-15T06:51:28Z</time>
      </trkpt>
      <trkpt lat="41.972023" lon="9.224122">
        <ele>1614.4</ele>
        <time>2022-09-15T06:51:35Z</time>
      </trkpt>
      <trkpt lat="41.972008" lon="9.22413">
        <ele>1614.6</ele>
        <time>2022-09-15T06:51:36Z</time>
      </trkpt>
      <trkpt lat="41.97184" lon="9.224245">
        <ele>1612.2</ele>
        <time>2022-09-15T06:51:53Z</time>
      </trkpt>
      <trkpt lat="41.971762" lon="9.22426">
        <ele>1612.8</ele>
        <time>2022-09-15T06:52:00Z</time>
      </trkpt>
      <trkpt lat="41.971667" lon="9.22432">
        <ele>1609.4</ele>
        <time>2022-09-15T06:52:13Z</time>
      </trkpt>
      <trkpt lat="41.971645" lon="9.224335">
        <ele>1609.2</ele>
        <time>2022-09-15T06:52:16Z</time>
      </trkpt>
      <trkpt lat="41.971525" lon="9.224463">
        <ele>1605.8</ele>
        <time>2022-09-15T06:52:33Z</time>
      </trkpt>
      <trkpt lat="41.971458" lon="9.224495">
        <ele>1606.2</ele>
        <time>2022-09-15T06:52:40Z</time>
      </trkpt>
      <trkpt lat="41.971352" lon="9.224527">
        <ele>1605.2</ele>
        <time>2022-09-15T06:52:53Z</time>
      </trkpt>
      <trkpt lat="41.971233" lon="9.224565">
        <ele>1603.6</ele>
        <time>2022-09-15T06:53:06Z</time>
      </trkpt>
      <trkpt lat="41.971172" lon="9.224595">
        <ele>1603.0</ele>
        <time>2022-09-15T06:53:15Z</time>
      </trkpt>
      <trkpt lat="41.971043" lon="9.224535">
        <ele>1603.6</ele>
        <time>2022-09-15T06:53:29Z</time>
      </trkpt>
      <trkpt lat="41.971025" lon="9.224527">
        <ele>1604.6</ele>
        <time>2022-09-15T06:53:31Z</time>
      </trkpt>
      <trkpt lat="41.970882" lon="9.224645">
        <ele>1600.2</ele>
        <time>2022-09-15T06:53:49Z</time>
      </trkpt>
      <trkpt lat="41.970742" lon="9.224735">
        <ele>1598.6</ele>
        <time>2022-09-15T06:54:08Z</time>
      </trkpt>
      <trkpt lat="41.970732" lon="9.224737">
        <ele>1598.2</ele>
        <time>2022-09-15T06:54:09Z</time>
      </trkpt>
      <trkpt lat="41.97057" lon="9.224755">
        <ele>1594.4</ele>
        <time>2022-09-15T06:54:25Z</time>
      </trkpt>
      <trkpt lat="41.970425" lon="9.224752">
        <ele>1592.8</ele>
        <time>2022-09-15T06:54:39Z</time>
      </trkpt>
      <trkpt lat="41.970395" lon="9.224758">
        <ele>1593.0</ele>
        <time>2022-09-15T06:54:42Z</time>
      </trkpt>
      <trkpt lat="41.970335" lon="9.224745">
        <ele>1592.4</ele>
        <time>2022-09-15T06:54:50Z</time>
      </trkpt>
      <trkpt lat="41.97023" lon="9.224707">
        <ele>1588.2</ele>
        <time>2022-09-15T06:55:02Z</time>
      </trkpt>
      <trkpt lat="41.970163" lon="9.224673">
        <ele>1586.8</ele>
        <time>2022-09-15T06:55:11Z</time>
      </trkpt>
      <trkpt lat="41.970095" lon="9.224617">
        <ele>1585.6</ele>
        <time>2022-09-15T06:55:21Z</time>
      </trkpt>
      <trkpt lat="41.970007" lon="9.224578">
        <ele>1583.0</ele>
        <time>2022-09-15T06:55:33Z</time>
      </trkpt>
      <trkpt lat="41.969945" lon="9.224527">
        <ele>1581.8</ele>
        <time>2022-09-15T06:55:44Z</time>
      </trkpt>
      <trkpt lat="41.969823" lon="9.224503">
        <ele>1577.8</ele>
        <time>2022-09-15T06:56:02Z</time>
      </trkpt>
      <trkpt lat="41.969745" lon="9.224477">
        <ele>1575.4</ele>
        <time>2022-09-15T06:56:12Z</time>
      </trkpt>
      <trkpt lat="41.969623" lon="9.224428">
        <ele>1572.8</ele>
        <time>2022-09-15T06:56:30Z</time>
      </trkpt>
      <trkpt lat="41.96958" lon="9.224423">
        <ele>1569.8</ele>
        <time>2022-09-15T06:56:36Z</time>
      </trkpt>
      <trkpt lat="41.969542" lon="9.224397">
        <ele>1570.0</ele>
        <time>2022-09-15T06:56:45Z</time>
      </trkpt>
      <trkpt lat="41.969488" lon="9.224395">
        <ele>1567.8</ele>
        <time>2022-09-15T06:56:53Z</time>
      </trkpt>
      <trkpt lat="41.969338" lon="9.224453">
        <ele>1563.4</ele>
        <time>2022-09-15T06:57:10Z</time>
      </trkpt>
      <trkpt lat="41.96919" lon="9.224512">
        <ele>1560.6</ele>
        <time>2022-09-15T06:57:27Z</time>
      </trkpt>
      <trkpt lat="41.969112" lon="9.224522">
        <ele>1558.6</ele>
        <time>2022-09-15T06:57:35Z</time>
      </trkpt>
      <trkpt lat="41.969003" lon="9.224517">
        <ele>1557.8</ele>
        <time>2022-09-15T06:57:46Z</time>
      </trkpt>
      <trkpt lat="41.968905" lon="9.224587">
        <ele>1557.6</ele>
        <time>2022-09-15T06:57:59Z</time>
      </trkpt>
      <trkpt lat="41.96872" lon="9.224595">
        <ele>1556.0</ele>
        <time>2022-09-15T06:58:18Z</time>
      </trkpt>
      <trkpt lat="41.968645" lon="9.224615">
        <ele>1556.0</ele>
        <time>2022-09-15T06:58:25Z</time>
      </trkpt>
      <trkpt lat="41.968398" lon="9.22461">
        <ele>1556.4</ele>
        <time>2022-09-15T06:58:47Z</time>
      </trkpt>
      <trkpt lat="41.968308" lon="9.22461">
        <ele>1557.0</ele>
        <time>2022-09-15T06:58:58Z</time>
      </trkpt>
      <trkpt lat="41.968187" lon="9.224538">
        <ele>1556.2</ele>
        <time>2022-09-15T06:59:10Z</time>
      </trkpt>
      <trkpt lat="41.968177" lon="9.224532">
        <ele>1556.2</ele>
        <time>2022-09-15T06:59:11Z</time>
      </trkpt>
      <trkpt lat="41.967982" lon="9.224425">
        <ele>1553.4</ele>
        <time>2022-09-15T06:59:28Z</time>
      </trkpt>
      <trkpt lat="41.967888" lon="9.224407">
        <ele>1553.2</ele>
        <time>2022-09-15T06:59:35Z</time>
      </trkpt>
      <trkpt lat="41.967812" lon="9.22439">
        <ele>1553.6</ele>
        <time>2022-09-15T06:59:42Z</time>
      </trkpt>
      <trkpt lat="41.967693" lon="9.224312">
        <ele>1554.0</ele>
        <time>2022-09-15T06:59:56Z</time>
      </trkpt>
      <trkpt lat="41.967685" lon="9.22431">
        <ele>1554.2</ele>
        <time>2022-09-15T06:59:57Z</time>
      </trkpt>
      <trkpt lat="41.967628" lon="9.224377">
        <ele>1553.6</ele>
        <time>2022-09-15T07:00:06Z</time>
      </trkpt>
      <trkpt lat="41.967598" lon="9.224403">
        <ele>1553.6</ele>
        <time>2022-09-15T07:00:09Z</time>
      </trkpt>
      <trkpt lat="41.96752" lon="9.2244">
        <ele>1552.6</ele>
        <time>2022-09-15T07:00:16Z</time>
      </trkpt>
      <trkpt lat="41.967438" lon="9.224368">
        <ele>1551.8</ele>
        <time>2022-09-15T07:00:24Z</time>
      </trkpt>
      <trkpt lat="41.967413" lon="9.224378">
        <ele>1551.6</ele>
        <time>2022-09-15T07:00:27Z</time>
      </trkpt>
      <trkpt lat="41.967407" lon="9.224292">
        <ele>1550.8</ele>
        <time>2022-09-15T07:00:34Z</time>
      </trkpt>
      <trkpt lat="41.967393" lon="9.224218">
        <ele>1551.2</ele>
        <time>2022-09-15T07:00:39Z</time>
      </trkpt>
      <trkpt lat="41.967297" lon="9.224155">
        <ele>1550.4</ele>
        <time>2022-09-15T07:00:49Z</time>
      </trkpt>
      <trkpt lat="41.967123" lon="9.224122">
        <ele>1549.4</ele>
        <time>2022-09-15T07:01:01Z</time>
      </trkpt>
      <trkpt lat="41.966957" lon="9.224047">
        <ele>1549.2</ele>
        <time>2022-09-15T07:01:11Z</time>
      </trkpt>
      <trkpt lat="41.966938" lon="9.22404">
        <ele>1549.2</ele>
        <time>2022-09-15T07:01:12Z</time>
      </trkpt>
      <trkpt lat="41.966893" lon="9.224027">
        <ele>1548.6</ele>
        <time>2022-09-15T07:01:17Z</time>
      </trkpt>
      <trkpt lat="41.966837" lon="9.223983">
        <ele>1548.4</ele>
        <time>2022-09-15T07:01:25Z</time>
      </trkpt>
      <trkpt lat="41.966788" lon="9.22398">
        <ele>1547.2</ele>
        <time>2022-09-15T07:01:31Z</time>
      </trkpt>
      <trkpt lat="41.966732" lon="9.22393">
        <ele>1546.0</ele>
        <time>2022-09-15T07:01:38Z</time>
      </trkpt>
      <trkpt lat="41.966652" lon="9.223908">
        <ele>1544.2</ele>
        <time>2022-09-15T07:01:47Z</time>
      </trkpt>
      <trkpt lat="41.966572" lon="9.223918">
        <ele>1542.4</ele>
        <time>2022-09-15T07:01:58Z</time>
      </trkpt>
      <trkpt lat="41.96634" lon="9.223895">
        <ele>1536.6</ele>
        <time>2022-09-15T07:02:25Z</time>
      </trkpt>
      <trkpt lat="41.966297" lon="9.223903">
        <ele>1535.2</ele>
        <time>2022-09-15T07:02:30Z</time>
      </trkpt>
      <trkpt lat="41.966278" lon="9.22389">
        <ele>1534.4</ele>
        <time>2022-09-15T07:02:33Z</time>
      </trkpt>
      <trkpt lat="41.966215" lon="9.223903">
        <ele>1531.8</ele>
        <time>2022-09-15T07:02:55Z</time>
      </trkpt>
      <trkpt lat="41.966148" lon="9.223878">
        <ele>1532.2</ele>
        <time>2022-09-15T07:03:06Z</time>
      </trkpt>
      <trkpt lat="41.966148" lon="9.22395">
        <ele>1531.2</ele>
        <time>2022-09-15T07:03:17Z</time>
      </trkpt>
      <trkpt lat="41.966148" lon="9.223967">
        <ele>1530.4</ele>
        <time>2022-09-15T07:03:20Z</time>
      </trkpt>
      <trkpt lat="41.966085" lon="9.223943">
        <ele>1529.0</ele>
        <time>2022-09-15T07:03:26Z</time>
      </trkpt>
      <trkpt lat="41.966023" lon="9.223935">
        <ele>1527.8</ele>
        <time>2022-09-15T07:03:30Z</time>
      </trkpt>
      <trkpt lat="41.96593" lon="9.223947">
        <ele>1526.6</ele>
        <time>2022-09-15T07:03:36Z</time>
      </trkpt>
      <trkpt lat="41.965833" lon="9.223903">
        <ele>1525.4</ele>
        <time>2022-09-15T07:03:44Z</time>
      </trkpt>
      <trkpt lat="41.965787" lon="9.223868">
        <ele>1525.4</ele>
        <time>2022-09-15T07:03:48Z</time>
      </trkpt>
      <trkpt lat="41.965767" lon="9.223832">
        <ele>1525.8</ele>
        <time>2022-09-15T07:03:51Z</time>
      </trkpt>
      <trkpt lat="41.965723" lon="9.223698">
        <ele>1523.6</ele>
        <time>2022-09-15T07:03:58Z</time>
      </trkpt>
      <trkpt lat="41.965663" lon="9.223498">
        <ele>1519.6</ele>
        <time>2022-09-15T07:04:08Z</time>
      </trkpt>
      <trkpt lat="41.965638" lon="9.22349">
        <ele>1518.8</ele>
        <time>2022-09-15T07:04:11Z</time>
      </trkpt>
      <trkpt lat="41.965585" lon="9.223512">
        <ele>1518.8</ele>
        <time>2022-09-15T07:04:15Z</time>
      </trkpt>
      <trkpt lat="41.965397" lon="9.223645">
        <ele>1516.4</ele>
        <time>2022-09-15T07:04:30Z</time>
      </trkpt>
      <trkpt lat="41.965347" lon="9.223753">
        <ele>1515.8</ele>
        <time>2022-09-15T07:04:37Z</time>
      </trkpt>
      <trkpt lat="41.965323" lon="9.223768">
        <ele>1515.4</ele>
        <time>2022-09-15T07:04:39Z</time>
      </trkpt>
      <trkpt lat="41.965243" lon="9.223743">
        <ele>1514.6</ele>
        <time>2022-09-15T07:04:47Z</time>
      </trkpt>
      <trkpt lat="41.965225" lon="9.22378">
        <ele>1514.2</ele>
        <time>2022-09-15T07:04:50Z</time>
      </trkpt>
      <trkpt lat="41.965215" lon="9.223868">
        <ele>1514.4</ele>
        <time>2022-09-15T07:04:56Z</time>
      </trkpt>
      <trkpt lat="41.965222" lon="9.223935">
        <ele>1514.8</ele>
        <time>2022-09-15T07:05:01Z</time>
      </trkpt>
      <trkpt lat="41.965192" lon="9.224025">
        <ele>1514.4</ele>
        <time>2022-09-15T07:05:10Z</time>
      </trkpt>
      <trkpt lat="41.965072" lon="9.22418">
        <ele>1511.6</ele>
        <time>2022-09-15T07:05:35Z</time>
      </trkpt>
      <trkpt lat="41.965025" lon="9.224148">
        <ele>1510.6</ele>
        <time>2022-09-15T07:05:41Z</time>
      </trkpt>
      <trkpt lat="41.965015" lon="9.224148">
        <ele>1510.4</ele>
        <time>2022-09-15T07:05:42Z</time>
      </trkpt>
      <trkpt lat="41.964932" lon="9.22415">
        <ele>1507.6</ele>
        <time>2022-09-15T07:05:52Z</time>
      </trkpt>
      <trkpt lat="41.96489" lon="9.224197">
        <ele>1506.2</ele>
        <time>2022-09-15T07:05:59Z</time>
      </trkpt>
      <trkpt lat="41.9648" lon="9.224167">
        <ele>1505.0</ele>
        <time>2022-09-15T07:06:15Z</time>
      </trkpt>
      <trkpt lat="41.964738" lon="9.224172">
        <ele>1505.0</ele>
        <time>2022-09-15T07:06:26Z</time>
      </trkpt>
      <trkpt lat="41.964593" lon="9.224093">
        <ele>1505.6</ele>
        <time>2022-09-15T07:06:44Z</time>
      </trkpt>
      <trkpt lat="41.964542" lon="9.224042">
        <ele>1506.0</ele>
        <time>2022-09-15T07:06:50Z</time>
      </trkpt>
      <trkpt lat="41.964427" lon="9.223907">
        <ele>1509.0</ele>
        <time>2022-09-15T07:07:05Z</time>
      </trkpt>
      <trkpt lat="41.964252" lon="9.22377">
        <ele>1512.4</ele>
        <time>2022-09-15T07:07:29Z</time>
      </trkpt>
      <trkpt lat="41.964277" lon="9.22376">
        <ele>1513.2</ele>
        <time>2022-09-15T07:07:33Z</time>
      </trkpt>
      <trkpt lat="41.964283" lon="9.223738">
        <ele>1514.6</ele>
        <time>2022-09-15T07:07:37Z</time>
      </trkpt>
      <trkpt lat="41.96425" lon="9.223695">
        <ele>1515.6</ele>
        <time>2022-09-15T07:08:14Z</time>
      </trkpt>
      <trkpt lat="41.964235" lon="9.22368">
        <ele>1516.6</ele>
        <time>2022-09-15T07:08:37Z</time>
      </trkpt>
      <trkpt lat="41.964212" lon="9.223763">
        <ele>1516.6</ele>
        <time>2022-09-15T07:09:01Z</time>
      </trkpt>
      <trkpt lat="41.964022" lon="9.224455">
        <ele>1514.6</ele>
        <time>2022-09-15T07:13:08Z</time>
      </trkpt>
      <trkpt lat="41.964038" lon="9.224437">
        <ele>1514.6</ele>
        <time>2022-09-15T07:13:24Z</time>
      </trkpt>
      <trkpt lat="41.96403" lon="9.224382">
        <ele>1515.4</ele>
        <time>2022-09-15T07:13:45Z</time>
      </trkpt>
      <trkpt lat="41.964107" lon="9.22419">
        <ele>1516.0</ele>
        <time>2022-09-15T07:15:14Z</time>
      </trkpt>
      <trkpt lat="41.964073" lon="9.224173">
        <ele>1516.4</ele>
        <time>2022-09-15T07:15:36Z</time>
      </trkpt>
      <trkpt lat="41.963992" lon="9.224">
        <ele>1516.2</ele>
        <time>2022-09-15T07:16:48Z</time>
      </trkpt>
      <trkpt lat="41.96398" lon="9.224055">
        <ele>1516.8</ele>
        <time>2022-09-15T07:17:07Z</time>
      </trkpt>
      <trkpt lat="41.963932" lon="9.224248">
        <ele>1515.2</ele>
        <time>2022-09-15T07:18:06Z</time>
      </trkpt>
      <trkpt lat="41.963917" lon="9.224272">
        <ele>1513.0</ele>
        <time>2022-09-15T07:18:17Z</time>
      </trkpt>
      <trkpt lat="41.963863" lon="9.224272">
        <ele>1511.8</ele>
        <time>2022-09-15T07:18:25Z</time>
      </trkpt>
      <trkpt lat="41.963808" lon="9.224273">
        <ele>1511.2</ele>
        <time>2022-09-15T07:18:30Z</time>
      </trkpt>
      <trkpt lat="41.963735" lon="9.224308">
        <ele>1508.6</ele>
        <time>2022-09-15T07:18:38Z</time>
      </trkpt>
      <trkpt lat="41.963645" lon="9.224318">
        <ele>1505.2</ele>
        <time>2022-09-15T07:18:50Z</time>
      </trkpt>
      <trkpt lat="41.963523" lon="9.224293">
        <ele>1505.8</ele>
        <time>2022-09-15T07:19:06Z</time>
      </trkpt>
      <trkpt lat="41.963522" lon="9.224278">
        <ele>1506.0</ele>
        <time>2022-09-15T07:19:08Z</time>
      </trkpt>
      <trkpt lat="41.963497" lon="9.224162">
        <ele>1507.4</ele>
        <time>2022-09-15T07:19:16Z</time>
      </trkpt>
      <trkpt lat="41.963475" lon="9.224137">
        <ele>1507.4</ele>
        <time>2022-09-15T07:19:20Z</time>
      </trkpt>
      <trkpt lat="41.96339" lon="9.224193">
        <ele>1506.8</ele>
        <time>2022-09-15T07:19:32Z</time>
      </trkpt>
      <trkpt lat="41.963342" lon="9.224193">
        <ele>1505.8</ele>
        <time>2022-09-15T07:19:39Z</time>
      </trkpt>
      <trkpt lat="41.963305" lon="9.224207">
        <ele>1504.4</ele>
        <time>2022-09-15T07:19:44Z</time>
      </trkpt>
      <trkpt lat="41.963152" lon="9.224212">
        <ele>1504.4</ele>
        <time>2022-09-15T07:19:56Z</time>
      </trkpt>
      <trkpt lat="41.96296" lon="9.224128">
        <ele>1506.0</ele>
        <time>2022-09-15T07:20:11Z</time>
      </trkpt>
      <trkpt lat="41.962868" lon="9.224052">
        <ele>1507.4</ele>
        <time>2022-09-15T07:20:20Z</time>
      </trkpt>
      <trkpt lat="41.962837" lon="9.224032">
        <ele>1507.8</ele>
        <time>2022-09-15T07:20:23Z</time>
      </trkpt>
      <trkpt lat="41.962753" lon="9.224075">
        <ele>1508.4</ele>
        <time>2022-09-15T07:20:33Z</time>
      </trkpt>
      <trkpt lat="41.962688" lon="9.224103">
        <ele>1509.2</ele>
        <time>2022-09-15T07:20:42Z</time>
      </trkpt>
      <trkpt lat="41.962622" lon="9.224172">
        <ele>1510.2</ele>
        <time>2022-09-15T07:20:54Z</time>
      </trkpt>
      <trkpt lat="41.962577" lon="9.224225">
        <ele>1509.8</ele>
        <time>2022-09-15T07:21:03Z</time>
      </trkpt>
      <trkpt lat="41.962565" lon="9.224227">
        <ele>1509.8</ele>
        <time>2022-09-15T07:21:04Z</time>
      </trkpt>
      <trkpt lat="41.96251" lon="9.224215">
        <ele>1510.6</ele>
        <time>2022-09-15T07:21:13Z</time>
      </trkpt>
      <trkpt lat="41.962465" lon="9.224213">
        <ele>1511.4</ele>
        <time>2022-09-15T07:21:18Z</time>
      </trkpt>
      <trkpt lat="41.962437" lon="9.22423">
        <ele>1511.6</ele>
        <time>2022-09-15T07:21:21Z</time>
      </trkpt>
      <trkpt lat="41.962358" lon="9.224363">
        <ele>1511.8</ele>
        <time>2022-09-15T07:21:34Z</time>
      </trkpt>
      <trkpt lat="41.962305" lon="9.224457">
        <ele>1512.6</ele>
        <time>2022-09-15T07:21:44Z</time>
      </trkpt>
      <trkpt lat="41.96229" lon="9.224483">
        <ele>1513.0</ele>
        <time>2022-09-15T07:21:48Z</time>
      </trkpt>
      <trkpt lat="41.962213" lon="9.224832">
        <ele>1516.0</ele>
        <time>2022-09-15T07:22:19Z</time>
      </trkpt>
      <trkpt lat="41.96218" lon="9.224898">
        <ele>1516.8</ele>
        <time>2022-09-15T07:22:25Z</time>
      </trkpt>
      <trkpt lat="41.962097" lon="9.224978">
        <ele>1518.6</ele>
        <time>2022-09-15T07:22:34Z</time>
      </trkpt>
      <trkpt lat="41.96206" lon="9.22502">
        <ele>1519.6</ele>
        <time>2022-09-15T07:22:39Z</time>
      </trkpt>
      <trkpt lat="41.96201" lon="9.225092">
        <ele>1521.6</ele>
        <time>2022-09-15T07:22:49Z</time>
      </trkpt>
      <trkpt lat="41.961985" lon="9.225152">
        <ele>1522.2</ele>
        <time>2022-09-15T07:22:55Z</time>
      </trkpt>
      <trkpt lat="41.961963" lon="9.22517">
        <ele>1522.6</ele>
        <time>2022-09-15T07:22:58Z</time>
      </trkpt>
      <trkpt lat="41.961892" lon="9.225182">
        <ele>1523.8</ele>
        <time>2022-09-15T07:23:06Z</time>
      </trkpt>
      <trkpt lat="41.961737" lon="9.225285">
        <ele>1528.4</ele>
        <time>2022-09-15T07:23:27Z</time>
      </trkpt>
      <trkpt lat="41.961715" lon="9.22528">
        <ele>1528.8</ele>
        <time>2022-09-15T07:23:32Z</time>
      </trkpt>
      <trkpt lat="41.96167" lon="9.22526">
        <ele>1530.4</ele>
        <time>2022-09-15T07:23:39Z</time>
      </trkpt>
      <trkpt lat="41.961607" lon="9.225242">
        <ele>1531.6</ele>
        <time>2022-09-15T07:23:47Z</time>
      </trkpt>
      <trkpt lat="41.961562" lon="9.22523">
        <ele>1533.2</ele>
        <time>2022-09-15T07:23:52Z</time>
      </trkpt>
      <trkpt lat="41.961513" lon="9.22524">
        <ele>1535.0</ele>
        <time>2022-09-15T07:23:57Z</time>
      </trkpt>
      <trkpt lat="41.961452" lon="9.225255">
        <ele>1535.2</ele>
        <time>2022-09-15T07:24:04Z</time>
      </trkpt>
      <trkpt lat="41.961328" lon="9.225228">
        <ele>1537.4</ele>
        <time>2022-09-15T07:24:21Z</time>
      </trkpt>
      <trkpt lat="41.961305" lon="9.225228">
        <ele>1538.6</ele>
        <time>2022-09-15T07:24:25Z</time>
      </trkpt>
      <trkpt lat="41.96113" lon="9.225248">
        <ele>1543.0</ele>
        <time>2022-09-15T07:24:51Z</time>
      </trkpt>
      <trkpt lat="41.96112" lon="9.22522">
        <ele>1543.4</ele>
        <time>2022-09-15T07:24:55Z</time>
      </trkpt>
      <trkpt lat="41.961132" lon="9.225192">
        <ele>1544.4</ele>
        <time>2022-09-15T07:25:01Z</time>
      </trkpt>
      <trkpt lat="41.961168" lon="9.225167">
        <ele>1546.8</ele>
        <time>2022-09-15T07:25:12Z</time>
      </trkpt>
      <trkpt lat="41.961162" lon="9.22516">
        <ele>1547.4</ele>
        <time>2022-09-15T07:25:13Z</time>
      </trkpt>
      <trkpt lat="41.961133" lon="9.225158">
        <ele>1548.2</ele>
        <time>2022-09-15T07:25:19Z</time>
      </trkpt>
      <trkpt lat="41.96111" lon="9.225148">
        <ele>1548.8</ele>
        <time>2022-09-15T07:25:25Z</time>
      </trkpt>
      <trkpt lat="41.96109" lon="9.22514">
        <ele>1550.8</ele>
        <time>2022-09-15T07:25:32Z</time>
      </trkpt>
      <trkpt lat="41.961072" lon="9.225183">
        <ele>1551.8</ele>
        <time>2022-09-15T07:25:39Z</time>
      </trkpt>
      <trkpt lat="41.961047" lon="9.225297">
        <ele>1553.0</ele>
        <time>2022-09-15T07:25:49Z</time>
      </trkpt>
      <trkpt lat="41.961043" lon="9.22535">
        <ele>1553.2</ele>
        <time>2022-09-15T07:25:53Z</time>
      </trkpt>
      <trkpt lat="41.96098" lon="9.225633">
        <ele>1553.4</ele>
        <time>2022-09-15T07:26:15Z</time>
      </trkpt>
      <trkpt lat="41.960972" lon="9.225643">
        <ele>1553.4</ele>
        <time>2022-09-15T07:26:17Z</time>
      </trkpt>
      <trkpt lat="41.960898" lon="9.225733">
        <ele>1554.0</ele>
        <time>2022-09-15T07:26:27Z</time>
      </trkpt>
      <trkpt lat="41.960862" lon="9.225803">
        <ele>1555.0</ele>
        <time>2022-09-15T07:26:33Z</time>
      </trkpt>
      <trkpt lat="41.960768" lon="9.225863">
        <ele>1558.6</ele>
        <time>2022-09-15T07:26:47Z</time>
      </trkpt>
      <trkpt lat="41.96065" lon="9.225933">
        <ele>1560.8</ele>
        <time>2022-09-15T07:27:01Z</time>
      </trkpt>
      <trkpt lat="41.960505" lon="9.226032">
        <ele>1563.2</ele>
        <time>2022-09-15T07:27:23Z</time>
      </trkpt>
      <trkpt lat="41.960485" lon="9.226063">
        <ele>1563.8</ele>
        <time>2022-09-15T07:27:28Z</time>
      </trkpt>
      <trkpt lat="41.960465" lon="9.226087">
        <ele>1564.4</ele>
        <time>2022-09-15T07:27:32Z</time>
      </trkpt>
      <trkpt lat="41.960438" lon="9.22619">
        <ele>1566.0</ele>
        <time>2022-09-15T07:27:43Z</time>
      </trkpt>
      <trkpt lat="41.96042" lon="9.22635">
        <ele>1571.4</ele>
        <time>2022-09-15T07:28:01Z</time>
      </trkpt>
      <trkpt lat="41.960417" lon="9.226368">
        <ele>1572.2</ele>
        <time>2022-09-15T07:28:04Z</time>
      </trkpt>
      <trkpt lat="41.960368" lon="9.226412">
        <ele>1573.4</ele>
        <time>2022-09-15T07:28:10Z</time>
      </trkpt>
      <trkpt lat="41.960248" lon="9.226453">
        <ele>1575.2</ele>
        <time>2022-09-15T07:28:26Z</time>
      </trkpt>
      <trkpt lat="41.960078" lon="9.226512">
        <ele>1578.8</ele>
        <time>2022-09-15T07:28:46Z</time>
      </trkpt>
      <trkpt lat="41.959993" lon="9.226643">
        <ele>1580.4</ele>
        <time>2022-09-15T07:29:00Z</time>
      </trkpt>
      <trkpt lat="41.959967" lon="9.226655">
        <ele>1581.2</ele>
        <time>2022-09-15T07:29:04Z</time>
      </trkpt>
      <trkpt lat="41.959942" lon="9.226637">
        <ele>1581.4</ele>
        <time>2022-09-15T07:29:07Z</time>
      </trkpt>
      <trkpt lat="41.95993" lon="9.226582">
        <ele>1582.0</ele>
        <time>2022-09-15T07:29:12Z</time>
      </trkpt>
      <trkpt lat="41.959918" lon="9.22655">
        <ele>1585.8</ele>
        <time>2022-09-15T07:29:27Z</time>
      </trkpt>
      <trkpt lat="41.959827" lon="9.2266">
        <ele>1591.6</ele>
        <time>2022-09-15T07:30:05Z</time>
      </trkpt>
      <trkpt lat="41.959838" lon="9.226542">
        <ele>1595.4</ele>
        <time>2022-09-15T07:30:24Z</time>
      </trkpt>
      <trkpt lat="41.959863" lon="9.226457">
        <ele>1598.2</ele>
        <time>2022-09-15T07:30:46Z</time>
      </trkpt>
      <trkpt lat="41.959867" lon="9.226447">
        <ele>1598.2</ele>
        <time>2022-09-15T07:30:47Z</time>
      </trkpt>
      <trkpt lat="41.959908" lon="9.226362">
        <ele>1599.8</ele>
        <time>2022-09-15T07:30:55Z</time>
      </trkpt>
      <trkpt lat="41.959958" lon="9.226282">
        <ele>1600.4</ele>
        <time>2022-09-15T07:31:02Z</time>
      </trkpt>
      <trkpt lat="41.959997" lon="9.226087">
        <ele>1603.0</ele>
        <time>2022-09-15T07:31:16Z</time>
      </trkpt>
      <trkpt lat="41.959975" lon="9.226082">
        <ele>1603.2</ele>
        <time>2022-09-15T07:31:18Z</time>
      </trkpt>
      <trkpt lat="41.959907" lon="9.22612">
        <ele>1605.0</ele>
        <time>2022-09-15T07:31:26Z</time>
      </trkpt>
      <trkpt lat="41.959865" lon="9.22618">
        <ele>1605.6</ele>
        <time>2022-09-15T07:31:33Z</time>
      </trkpt>
      <trkpt lat="41.959818" lon="9.226248">
        <ele>1606.8</ele>
        <time>2022-09-15T07:31:41Z</time>
      </trkpt>
      <trkpt lat="41.959705" lon="9.226285">
        <ele>1609.4</ele>
        <time>2022-09-15T07:31:58Z</time>
      </trkpt>
      <trkpt lat="41.959698" lon="9.226292">
        <ele>1609.6</ele>
        <time>2022-09-15T07:31:59Z</time>
      </trkpt>
      <trkpt lat="41.959578" lon="9.226365">
        <ele>1611.4</ele>
        <time>2022-09-15T07:32:12Z</time>
      </trkpt>
      <trkpt lat="41.959502" lon="9.226402">
        <ele>1612.2</ele>
        <time>2022-09-15T07:32:20Z</time>
      </trkpt>
      <trkpt lat="41.959395" lon="9.226405">
        <ele>1613.0</ele>
        <time>2022-09-15T07:32:31Z</time>
      </trkpt>
      <trkpt lat="41.959385" lon="9.22641">
        <ele>1613.0</ele>
        <time>2022-09-15T07:32:33Z</time>
      </trkpt>
      <trkpt lat="41.959322" lon="9.226373">
        <ele>1612.4</ele>
        <time>2022-09-15T07:32:44Z</time>
      </trkpt>
      <trkpt lat="41.959297" lon="9.226405">
        <ele>1611.4</ele>
        <time>2022-09-15T07:32:49Z</time>
      </trkpt>
      <trkpt lat="41.959277" lon="9.226425">
        <ele>1610.8</ele>
        <time>2022-09-15T07:32:53Z</time>
      </trkpt>
      <trkpt lat="41.959237" lon="9.226413">
        <ele>1610.2</ele>
        <time>2022-09-15T07:32:59Z</time>
      </trkpt>
      <trkpt lat="41.959207" lon="9.22638">
        <ele>1609.8</ele>
        <time>2022-09-15T07:33:03Z</time>
      </trkpt>
      <trkpt lat="41.959202" lon="9.226363">
        <ele>1609.6</ele>
        <time>2022-09-15T07:33:04Z</time>
      </trkpt>
      <trkpt lat="41.959067" lon="9.226265">
        <ele>1608.8</ele>
        <time>2022-09-15T07:33:16Z</time>
      </trkpt>
      <trkpt lat="41.958972" lon="9.22618">
        <ele>1607.0</ele>
        <time>2022-09-15T07:33:26Z</time>
      </trkpt>
      <trkpt lat="41.958927" lon="9.22616">
        <ele>1606.8</ele>
        <time>2022-09-15T07:33:30Z</time>
      </trkpt>
      <trkpt lat="41.95882" lon="9.22614">
        <ele>1606.0</ele>
        <time>2022-09-15T07:33:40Z</time>
      </trkpt>
      <trkpt lat="41.958772" lon="9.22613">
        <ele>1605.8</ele>
        <time>2022-09-15T07:33:44Z</time>
      </trkpt>
      <trkpt lat="41.958722" lon="9.226132">
        <ele>1605.4</ele>
        <time>2022-09-15T07:33:49Z</time>
      </trkpt>
      <trkpt lat="41.958643" lon="9.22614">
        <ele>1605.8</ele>
        <time>2022-09-15T07:33:56Z</time>
      </trkpt>
      <trkpt lat="41.958468" lon="9.226205">
        <ele>1607.2</ele>
        <time>2022-09-15T07:34:14Z</time>
      </trkpt>
      <trkpt lat="41.95846" lon="9.226208">
        <ele>1607.2</ele>
        <time>2022-09-15T07:34:16Z</time>
      </trkpt>
      <trkpt lat="41.958418" lon="9.226228">
        <ele>1606.4</ele>
        <time>2022-09-15T07:34:20Z</time>
      </trkpt>
      <trkpt lat="41.958318" lon="9.226187">
        <ele>1606.8</ele>
        <time>2022-09-15T07:34:29Z</time>
      </trkpt>
      <trkpt lat="41.958235" lon="9.22615">
        <ele>1606.2</ele>
        <time>2022-09-15T07:34:36Z</time>
      </trkpt>
      <trkpt lat="41.958083" lon="9.226118">
        <ele>1604.2</ele>
        <time>2022-09-15T07:34:48Z</time>
      </trkpt>
      <trkpt lat="41.95806" lon="9.226113">
        <ele>1603.8</ele>
        <time>2022-09-15T07:34:51Z</time>
      </trkpt>
      <trkpt lat="41.957975" lon="9.22604">
        <ele>1603.2</ele>
        <time>2022-09-15T07:34:59Z</time>
      </trkpt>
      <trkpt lat="41.957903" lon="9.225988">
        <ele>1603.2</ele>
        <time>2022-09-15T07:35:06Z</time>
      </trkpt>
      <trkpt lat="41.957828" lon="9.225932">
        <ele>1602.4</ele>
        <time>2022-09-15T07:35:14Z</time>
      </trkpt>
      <trkpt lat="41.9578" lon="9.225917">
        <ele>1602.0</ele>
        <time>2022-09-15T07:35:17Z</time>
      </trkpt>
      <trkpt lat="41.957728" lon="9.225895">
        <ele>1601.0</ele>
        <time>2022-09-15T07:35:26Z</time>
      </trkpt>
      <trkpt lat="41.957662" lon="9.22593">
        <ele>1600.6</ele>
        <time>2022-09-15T07:35:34Z</time>
      </trkpt>
      <trkpt lat="41.957532" lon="9.225947">
        <ele>1603.6</ele>
        <time>2022-09-15T07:35:55Z</time>
      </trkpt>
      <trkpt lat="41.957527" lon="9.22595">
        <ele>1603.6</ele>
        <time>2022-09-15T07:35:56Z</time>
      </trkpt>
      <trkpt lat="41.957493" lon="9.225992">
        <ele>1605.0</ele>
        <time>2022-09-15T07:36:04Z</time>
      </trkpt>
      <trkpt lat="41.957472" lon="9.226038">
        <ele>1607.6</ele>
        <time>2022-09-15T07:36:13Z</time>
      </trkpt>
      <trkpt lat="41.957482" lon="9.226095">
        <ele>1609.4</ele>
        <time>2022-09-15T07:36:25Z</time>
      </trkpt>
      <trkpt lat="41.957433" lon="9.226103">
        <ele>1618.8</ele>
        <time>2022-09-15T07:37:30Z</time>
      </trkpt>
      <trkpt lat="41.957432" lon="9.22611">
        <ele>1619.4</ele>
        <time>2022-09-15T07:37:32Z</time>
      </trkpt>
      <trkpt lat="41.957272" lon="9.226055">
        <ele>1621.2</ele>
        <time>2022-09-15T07:37:49Z</time>
      </trkpt>
      <trkpt lat="41.957202" lon="9.226058">
        <ele>1622.4</ele>
        <time>2022-09-15T07:37:56Z</time>
      </trkpt>
      <trkpt lat="41.957072" lon="9.22611">
        <ele>1624.2</ele>
        <time>2022-09-15T07:38:10Z</time>
      </trkpt>
      <trkpt lat="41.957037" lon="9.226155">
        <ele>1624.4</ele>
        <time>2022-09-15T07:38:15Z</time>
      </trkpt>
      <trkpt lat="41.956972" lon="9.22621">
        <ele>1624.2</ele>
        <time>2022-09-15T07:38:22Z</time>
      </trkpt>
      <trkpt lat="41.956903" lon="9.226205">
        <ele>1623.4</ele>
        <time>2022-09-15T07:38:27Z</time>
      </trkpt>
      <trkpt lat="41.956875" lon="9.226198">
        <ele>1623.4</ele>
        <time>2022-09-15T07:38:30Z</time>
      </trkpt>
      <trkpt lat="41.956848" lon="9.22621">
        <ele>1623.6</ele>
        <time>2022-09-15T07:38:32Z</time>
      </trkpt>
      <trkpt lat="41.95677" lon="9.226282">
        <ele>1623.0</ele>
        <time>2022-09-15T07:38:39Z</time>
      </trkpt>
      <trkpt lat="41.956662" lon="9.226412">
        <ele>1624.0</ele>
        <time>2022-09-15T07:38:51Z</time>
      </trkpt>
      <trkpt lat="41.956655" lon="9.226418">
        <ele>1624.0</ele>
        <time>2022-09-15T07:38:52Z</time>
      </trkpt>
      <trkpt lat="41.956603" lon="9.226467">
        <ele>1625.8</ele>
        <time>2022-09-15T07:38:59Z</time>
      </trkpt>
      <trkpt lat="41.956545" lon="9.226538">
        <ele>1626.8</ele>
        <time>2022-09-15T07:39:10Z</time>
      </trkpt>
      <trkpt lat="41.956452" lon="9.226708">
        <ele>1628.8</ele>
        <time>2022-09-15T07:39:31Z</time>
      </trkpt>
      <trkpt lat="41.95644" lon="9.226728">
        <ele>1629.6</ele>
        <time>2022-09-15T07:39:34Z</time>
      </trkpt>
      <trkpt lat="41.956465" lon="9.226697">
        <ele>1630.4</ele>
        <time>2022-09-15T07:39:40Z</time>
      </trkpt>
      <trkpt lat="41.956472" lon="9.226727">
        <ele>1632.0</ele>
        <time>2022-09-15T07:39:46Z</time>
      </trkpt>
      <trkpt lat="41.956468" lon="9.226802">
        <ele>1634.0</ele>
        <time>2022-09-15T07:39:54Z</time>
      </trkpt>
      <trkpt lat="41.95647" lon="9.226835">
        <ele>1635.0</ele>
        <time>2022-09-15T07:39:59Z</time>
      </trkpt>
      <trkpt lat="41.956403" lon="9.22681">
        <ele>1636.4</ele>
        <time>2022-09-15T07:40:09Z</time>
      </trkpt>
      <trkpt lat="41.956397" lon="9.22681">
        <ele>1636.4</ele>
        <time>2022-09-15T07:40:10Z</time>
      </trkpt>
      <trkpt lat="41.956398" lon="9.226757">
        <ele>1637.8</ele>
        <time>2022-09-15T07:40:20Z</time>
      </trkpt>
      <trkpt lat="41.956367" lon="9.22673">
        <ele>1640.0</ele>
        <time>2022-09-15T07:40:33Z</time>
      </trkpt>
      <trkpt lat="41.956335" lon="9.226703">
        <ele>1641.2</ele>
        <time>2022-09-15T07:40:39Z</time>
      </trkpt>
      <trkpt lat="41.956318" lon="9.226642">
        <ele>1641.6</ele>
        <time>2022-09-15T07:40:42Z</time>
      </trkpt>
      <trkpt lat="41.956308" lon="9.226567">
        <ele>1641.8</ele>
        <time>2022-09-15T07:40:45Z</time>
      </trkpt>
      <trkpt lat="41.956343" lon="9.22654">
        <ele>1642.6</ele>
        <time>2022-09-15T07:40:50Z</time>
      </trkpt>
      <trkpt lat="41.956367" lon="9.226483">
        <ele>1642.6</ele>
        <time>2022-09-15T07:40:55Z</time>
      </trkpt>
      <trkpt lat="41.956443" lon="9.226305">
        <ele>1644.0</ele>
        <time>2022-09-15T07:41:14Z</time>
      </trkpt>
      <trkpt lat="41.956472" lon="9.226262">
        <ele>1645.2</ele>
        <time>2022-09-15T07:41:21Z</time>
      </trkpt>
      <trkpt lat="41.956513" lon="9.226205">
        <ele>1646.2</ele>
        <time>2022-09-15T07:41:31Z</time>
      </trkpt>
      <trkpt lat="41.956497" lon="9.226165">
        <ele>1647.2</ele>
        <time>2022-09-15T07:41:37Z</time>
      </trkpt>
      <trkpt lat="41.956492" lon="9.226162">
        <ele>1647.4</ele>
        <time>2022-09-15T07:41:38Z</time>
      </trkpt>
      <trkpt lat="41.956473" lon="9.226155">
        <ele>1648.0</ele>
        <time>2022-09-15T07:41:41Z</time>
      </trkpt>
      <trkpt lat="41.956353" lon="9.226183">
        <ele>1650.8</ele>
        <time>2022-09-15T07:41:55Z</time>
      </trkpt>
      <trkpt lat="41.95632" lon="9.226172">
        <ele>1651.8</ele>
        <time>2022-09-15T07:42:00Z</time>
      </trkpt>
      <trkpt lat="41.956317" lon="9.22617">
        <ele>1652.8</ele>
        <time>2022-09-15T07:42:05Z</time>
      </trkpt>
      <trkpt lat="41.956335" lon="9.226167">
        <ele>1653.0</ele>
        <time>2022-09-15T07:42:09Z</time>
      </trkpt>
      <trkpt lat="41.956363" lon="9.226127">
        <ele>1653.6</ele>
        <time>2022-09-15T07:42:15Z</time>
      </trkpt>
      <trkpt lat="41.95639" lon="9.226108">
        <ele>1654.2</ele>
        <time>2022-09-15T07:42:19Z</time>
      </trkpt>
      <trkpt lat="41.956387" lon="9.22609">
        <ele>1654.8</ele>
        <time>2022-09-15T07:42:21Z</time>
      </trkpt>
      <trkpt lat="41.956345" lon="9.22607">
        <ele>1655.6</ele>
        <time>2022-09-15T07:42:25Z</time>
      </trkpt>
      <trkpt lat="41.956312" lon="9.226063">
        <ele>1655.8</ele>
        <time>2022-09-15T07:42:28Z</time>
      </trkpt>
      <trkpt lat="41.95618" lon="9.226107">
        <ele>1658.4</ele>
        <time>2022-09-15T07:42:42Z</time>
      </trkpt>
      <trkpt lat="41.95611" lon="9.226157">
        <ele>1661.2</ele>
        <time>2022-09-15T07:42:53Z</time>
      </trkpt>
      <trkpt lat="41.956097" lon="9.226162">
        <ele>1661.2</ele>
        <time>2022-09-15T07:42:54Z</time>
      </trkpt>
      <trkpt lat="41.956087" lon="9.226145">
        <ele>1661.8</ele>
        <time>2022-09-15T07:43:00Z</time>
      </trkpt>
      <trkpt lat="41.956078" lon="9.226093">
        <ele>1663.2</ele>
        <time>2022-09-15T07:43:10Z</time>
      </trkpt>
      <trkpt lat="41.956038" lon="9.226148">
        <ele>1664.6</ele>
        <time>2022-09-15T07:43:19Z</time>
      </trkpt>
      <trkpt lat="41.95605" lon="9.226112">
        <ele>1665.6</ele>
        <time>2022-09-15T07:43:24Z</time>
      </trkpt>
      <trkpt lat="41.956067" lon="9.226083">
        <ele>1666.2</ele>
        <time>2022-09-15T07:43:28Z</time>
      </trkpt>
      <trkpt lat="41.956072" lon="9.226058">
        <ele>1667.2</ele>
        <time>2022-09-15T07:43:31Z</time>
      </trkpt>
      <trkpt lat="41.956043" lon="9.226077">
        <ele>1668.2</ele>
        <time>2022-09-15T07:43:36Z</time>
      </trkpt>
      <trkpt lat="41.956007" lon="9.226102">
        <ele>1669.8</ele>
        <time>2022-09-15T07:43:43Z</time>
      </trkpt>
      <trkpt lat="41.955973" lon="9.226113">
        <ele>1670.6</ele>
        <time>2022-09-15T07:43:49Z</time>
      </trkpt>
      <trkpt lat="41.955962" lon="9.226097">
        <ele>1671.2</ele>
        <time>2022-09-15T07:43:53Z</time>
      </trkpt>
      <trkpt lat="41.955947" lon="9.22606">
        <ele>1672.4</ele>
        <time>2022-09-15T07:44:01Z</time>
      </trkpt>
      <trkpt lat="41.955917" lon="9.226038">
        <ele>1673.8</ele>
        <time>2022-09-15T07:44:09Z</time>
      </trkpt>
      <trkpt lat="41.95591" lon="9.226038">
        <ele>1673.8</ele>
        <time>2022-09-15T07:44:10Z</time>
      </trkpt>
      <trkpt lat="41.955867" lon="9.226038">
        <ele>1674.2</ele>
        <time>2022-09-15T07:44:18Z</time>
      </trkpt>
      <trkpt lat="41.955812" lon="9.22601">
        <ele>1673.2</ele>
        <time>2022-09-15T07:44:27Z</time>
      </trkpt>
      <trkpt lat="41.95576" lon="9.225988">
        <ele>1672.6</ele>
        <time>2022-09-15T07:44:36Z</time>
      </trkpt>
      <trkpt lat="41.955717" lon="9.22592">
        <ele>1671.8</ele>
        <time>2022-09-15T07:44:44Z</time>
      </trkpt>
      <trkpt lat="41.955672" lon="9.225925">
        <ele>1671.8</ele>
        <time>2022-09-15T07:44:51Z</time>
      </trkpt>
      <trkpt lat="41.955638" lon="9.225915">
        <ele>1671.0</ele>
        <time>2022-09-15T07:44:56Z</time>
      </trkpt>
      <trkpt lat="41.955508" lon="9.225948">
        <ele>1666.6</ele>
        <time>2022-09-15T07:45:21Z</time>
      </trkpt>
      <trkpt lat="41.955497" lon="9.225947">
        <ele>1666.4</ele>
        <time>2022-09-15T07:45:24Z</time>
      </trkpt>
      <trkpt lat="41.95538" lon="9.22595">
        <ele>1664.4</ele>
        <time>2022-09-15T07:45:36Z</time>
      </trkpt>
      <trkpt lat="41.955318" lon="9.22594">
        <ele>1663.6</ele>
        <time>2022-09-15T07:45:42Z</time>
      </trkpt>
      <trkpt lat="41.955232" lon="9.225902">
        <ele>1663.6</ele>
        <time>2022-09-15T07:45:51Z</time>
      </trkpt>
      <trkpt lat="41.955153" lon="9.225893">
        <ele>1665.0</ele>
        <time>2022-09-15T07:45:58Z</time>
      </trkpt>
      <trkpt lat="41.955103" lon="9.225938">
        <ele>1666.0</ele>
        <time>2022-09-15T07:46:05Z</time>
      </trkpt>
      <trkpt lat="41.955102" lon="9.22595">
        <ele>1666.0</ele>
        <time>2022-09-15T07:46:06Z</time>
      </trkpt>
      <trkpt lat="41.955093" lon="9.226032">
        <ele>1666.0</ele>
        <time>2022-09-15T07:46:13Z</time>
      </trkpt>
      <trkpt lat="41.955063" lon="9.226052">
        <ele>1666.2</ele>
        <time>2022-09-15T07:46:18Z</time>
      </trkpt>
      <trkpt lat="41.955038" lon="9.226057">
        <ele>1666.8</ele>
        <time>2022-09-15T07:46:22Z</time>
      </trkpt>
      <trkpt lat="41.955003" lon="9.2261">
        <ele>1667.4</ele>
        <time>2022-09-15T07:46:28Z</time>
      </trkpt>
      <trkpt lat="41.954972" lon="9.226142">
        <ele>1668.0</ele>
        <time>2022-09-15T07:46:33Z</time>
      </trkpt>
      <trkpt lat="41.954965" lon="9.226148">
        <ele>1668.0</ele>
        <time>2022-09-15T07:46:34Z</time>
      </trkpt>
      <trkpt lat="41.954932" lon="9.22614">
        <ele>1667.6</ele>
        <time>2022-09-15T07:46:38Z</time>
      </trkpt>
      <trkpt lat="41.954853" lon="9.22606">
        <ele>1666.4</ele>
        <time>2022-09-15T07:46:52Z</time>
      </trkpt>
      <trkpt lat="41.954828" lon="9.226005">
        <ele>1666.8</ele>
        <time>2022-09-15T07:46:58Z</time>
      </trkpt>
      <trkpt lat="41.954798" lon="9.225938">
        <ele>1667.4</ele>
        <time>2022-09-15T07:47:03Z</time>
      </trkpt>
      <trkpt lat="41.954718" lon="9.225833">
        <ele>1668.2</ele>
        <time>2022-09-15T07:47:12Z</time>
      </trkpt>
      <trkpt lat="41.954695" lon="9.22577">
        <ele>1668.6</ele>
        <time>2022-09-15T07:47:17Z</time>
      </trkpt>
      <trkpt lat="41.954677" lon="9.225742">
        <ele>1669.0</ele>
        <time>2022-09-15T07:47:20Z</time>
      </trkpt>
      <trkpt lat="41.954657" lon="9.22577">
        <ele>1669.4</ele>
        <time>2022-09-15T07:47:23Z</time>
      </trkpt>
      <trkpt lat="41.954608" lon="9.225862">
        <ele>1670.8</ele>
        <time>2022-09-15T07:47:31Z</time>
      </trkpt>
      <trkpt lat="41.954562" lon="9.22596">
        <ele>1672.8</ele>
        <time>2022-09-15T07:47:38Z</time>
      </trkpt>
      <trkpt lat="41.954522" lon="9.226167">
        <ele>1673.8</ele>
        <time>2022-09-15T07:47:49Z</time>
      </trkpt>
      <trkpt lat="41.954483" lon="9.226153">
        <ele>1674.4</ele>
        <time>2022-09-15T07:47:53Z</time>
      </trkpt>
      <trkpt lat="41.954322" lon="9.225948">
        <ele>1676.4</ele>
        <time>2022-09-15T07:48:12Z</time>
      </trkpt>
      <trkpt lat="41.954182" lon="9.225802">
        <ele>1677.6</ele>
        <time>2022-09-15T07:48:26Z</time>
      </trkpt>
      <trkpt lat="41.954118" lon="9.225698">
        <ele>1678.8</ele>
        <time>2022-09-15T07:48:34Z</time>
      </trkpt>
      <trkpt lat="41.954138" lon="9.22568">
        <ele>1679.2</ele>
        <time>2022-09-15T07:48:36Z</time>
      </trkpt>
      <trkpt lat="41.954298" lon="9.225638">
        <ele>1681.4</ele>
        <time>2022-09-15T07:48:50Z</time>
      </trkpt>
      <trkpt lat="41.954395" lon="9.225583">
        <ele>1683.0</ele>
        <time>2022-09-15T07:49:01Z</time>
      </trkpt>
      <trkpt lat="41.954377" lon="9.225543">
        <ele>1683.6</ele>
        <time>2022-09-15T07:49:06Z</time>
      </trkpt>
      <trkpt lat="41.954372" lon="9.225537">
        <ele>1684.0</ele>
        <time>2022-09-15T07:49:07Z</time>
      </trkpt>
      <trkpt lat="41.95428" lon="9.22548">
        <ele>1686.4</ele>
        <time>2022-09-15T07:49:20Z</time>
      </trkpt>
      <trkpt lat="41.954193" lon="9.225472">
        <ele>1688.6</ele>
        <time>2022-09-15T07:49:31Z</time>
      </trkpt>
      <trkpt lat="41.954095" lon="9.22546">
        <ele>1690.6</ele>
        <time>2022-09-15T07:49:45Z</time>
      </trkpt>
      <trkpt lat="41.954062" lon="9.225457">
        <ele>1691.4</ele>
        <time>2022-09-15T07:49:50Z</time>
      </trkpt>
      <trkpt lat="41.954023" lon="9.225415">
        <ele>1692.4</ele>
        <time>2022-09-15T07:49:58Z</time>
      </trkpt>
      <trkpt lat="41.953997" lon="9.225388">
        <ele>1694.0</ele>
        <time>2022-09-15T07:50:04Z</time>
      </trkpt>
      <trkpt lat="41.953952" lon="9.225357">
        <ele>1694.8</ele>
        <time>2022-09-15T07:50:14Z</time>
      </trkpt>
      <trkpt lat="41.953875" lon="9.225292">
        <ele>1697.0</ele>
        <time>2022-09-15T07:50:32Z</time>
      </trkpt>
      <trkpt lat="41.953825" lon="9.225335">
        <ele>1698.2</ele>
        <time>2022-09-15T07:50:39Z</time>
      </trkpt>
      <trkpt lat="41.953685" lon="9.225457">
        <ele>1702.0</ele>
        <time>2022-09-15T07:51:01Z</time>
      </trkpt>
      <trkpt lat="41.953652" lon="9.225418">
        <ele>1703.4</ele>
        <time>2022-09-15T07:51:12Z</time>
      </trkpt>
      <trkpt lat="41.953658" lon="9.22539">
        <ele>1704.4</ele>
        <time>2022-09-15T07:51:16Z</time>
      </trkpt>
      <trkpt lat="41.953732" lon="9.225218">
        <ele>1708.8</ele>
        <time>2022-09-15T07:51:33Z</time>
      </trkpt>
      <trkpt lat="41.953872" lon="9.225157">
        <ele>1710.6</ele>
        <time>2022-09-15T07:51:43Z</time>
      </trkpt>
      <trkpt lat="41.953867" lon="9.225148">
        <ele>1710.6</ele>
        <time>2022-09-15T07:51:43Z</time>
      </trkpt>
      <trkpt lat="41.953823" lon="9.225113">
        <ele>1711.6</ele>
        <time>2022-09-15T07:51:52Z</time>
      </trkpt>
      <trkpt lat="41.95375" lon="9.225087">
        <ele>1714.8</ele>
        <time>2022-09-15T07:52:15Z</time>
      </trkpt>
      <trkpt lat="41.953695" lon="9.225082">
        <ele>1715.4</ele>
        <time>2022-09-15T07:52:30Z</time>
      </trkpt>
      <trkpt lat="41.953582" lon="9.224975">
        <ele>1721.4</ele>
        <time>2022-09-15T07:53:06Z</time>
      </trkpt>
      <trkpt lat="41.953577" lon="9.224973">
        <ele>1721.6</ele>
        <time>2022-09-15T07:53:07Z</time>
      </trkpt>
      <trkpt lat="41.953573" lon="9.224905">
        <ele>1724.0</ele>
        <time>2022-09-15T07:53:18Z</time>
      </trkpt>
      <trkpt lat="41.953578" lon="9.224833">
        <ele>1728.2</ele>
        <time>2022-09-15T07:53:46Z</time>
      </trkpt>
      <trkpt lat="41.953612" lon="9.224858">
        <ele>1733.2</ele>
        <time>2022-09-15T07:54:15Z</time>
      </trkpt>
      <trkpt lat="41.953623" lon="9.224822">
        <ele>1735.2</ele>
        <time>2022-09-15T07:54:40Z</time>
      </trkpt>
      <trkpt lat="41.953588" lon="9.224485">
        <ele>1748.0</ele>
        <time>2022-09-15T07:56:11Z</time>
      </trkpt>
      <trkpt lat="41.953578" lon="9.224462">
        <ele>1748.2</ele>
        <time>2022-09-15T07:56:14Z</time>
      </trkpt>
      <trkpt lat="41.953455" lon="9.224293">
        <ele>1750.0</ele>
        <time>2022-09-15T07:56:29Z</time>
      </trkpt>
      <trkpt lat="41.953468" lon="9.22426">
        <ele>1751.6</ele>
        <time>2022-09-15T07:56:36Z</time>
      </trkpt>
      <trkpt lat="41.953543" lon="9.224278">
        <ele>1753.0</ele>
        <time>2022-09-15T07:56:41Z</time>
      </trkpt>
      <trkpt lat="41.953627" lon="9.224328">
        <ele>1753.8</ele>
        <time>2022-09-15T07:56:48Z</time>
      </trkpt>
      <trkpt lat="41.953638" lon="9.224337">
        <ele>1753.8</ele>
        <time>2022-09-15T07:56:49Z</time>
      </trkpt>
      <trkpt lat="41.953687" lon="9.224347">
        <ele>1754.4</ele>
        <time>2022-09-15T07:56:55Z</time>
      </trkpt>
      <trkpt lat="41.953718" lon="9.22436">
        <ele>1755.2</ele>
        <time>2022-09-15T07:56:59Z</time>
      </trkpt>
      <trkpt lat="41.953787" lon="9.224335">
        <ele>1755.8</ele>
        <time>2022-09-15T07:57:06Z</time>
      </trkpt>
      <trkpt lat="41.953857" lon="9.22429">
        <ele>1756.2</ele>
        <time>2022-09-15T07:57:14Z</time>
      </trkpt>
      <trkpt lat="41.953858" lon="9.224238">
        <ele>1756.4</ele>
        <time>2022-09-15T07:57:18Z</time>
      </trkpt>
      <trkpt lat="41.95381" lon="9.22419">
        <ele>1757.6</ele>
        <time>2022-09-15T07:57:26Z</time>
      </trkpt>
      <trkpt lat="41.953745" lon="9.224172">
        <ele>1759.0</ele>
        <time>2022-09-15T07:57:35Z</time>
      </trkpt>
      <trkpt lat="41.95361" lon="9.224143">
        <ele>1761.8</ele>
        <time>2022-09-15T07:57:50Z</time>
      </trkpt>
      <trkpt lat="41.953563" lon="9.22412">
        <ele>1762.8</ele>
        <time>2022-09-15T07:57:56Z</time>
      </trkpt>
      <trkpt lat="41.953503" lon="9.224137">
        <ele>1763.4</ele>
        <time>2022-09-15T07:58:02Z</time>
      </trkpt>
      <trkpt lat="41.953343" lon="9.224228">
        <ele>1766.2</ele>
        <time>2022-09-15T07:58:21Z</time>
      </trkpt>
      <trkpt lat="41.95331" lon="9.224212">
        <ele>1767.2</ele>
        <time>2022-09-15T07:58:25Z</time>
      </trkpt>
      <trkpt lat="41.95331" lon="9.224165">
        <ele>1767.4</ele>
        <time>2022-09-15T07:58:28Z</time>
      </trkpt>
      <trkpt lat="41.953345" lon="9.224075">
        <ele>1769.0</ele>
        <time>2022-09-15T07:58:34Z</time>
      </trkpt>
      <trkpt lat="41.953385" lon="9.223967">
        <ele>1771.2</ele>
        <time>2022-09-15T07:58:41Z</time>
      </trkpt>
      <trkpt lat="41.953407" lon="9.22389">
        <ele>1772.6</ele>
        <time>2022-09-15T07:58:46Z</time>
      </trkpt>
      <trkpt lat="41.953468" lon="9.223853">
        <ele>1773.4</ele>
        <time>2022-09-15T07:58:52Z</time>
      </trkpt>
      <trkpt lat="41.953565" lon="9.223845">
        <ele>1774.8</ele>
        <time>2022-09-15T07:59:00Z</time>
      </trkpt>
      <trkpt lat="41.953675" lon="9.223853">
        <ele>1775.8</ele>
        <time>2022-09-15T07:59:11Z</time>
      </trkpt>
      <trkpt lat="41.95381" lon="9.223843">
        <ele>1778.2</ele>
        <time>2022-09-15T07:59:25Z</time>
      </trkpt>
      <trkpt lat="41.953867" lon="9.223675">
        <ele>1780.0</ele>
        <time>2022-09-15T07:59:43Z</time>
      </trkpt>
      <trkpt lat="41.953862" lon="9.223633">
        <ele>1780.2</ele>
        <time>2022-09-15T07:59:49Z</time>
      </trkpt>
      <trkpt lat="41.95384" lon="9.223655">
        <ele>1780.8</ele>
        <time>2022-09-15T07:59:54Z</time>
      </trkpt>
      <trkpt lat="41.953788" lon="9.223738">
        <ele>1782.2</ele>
        <time>2022-09-15T08:00:10Z</time>
      </trkpt>
      <trkpt lat="41.953767" lon="9.223762">
        <ele>1783.0</ele>
        <time>2022-09-15T08:00:16Z</time>
      </trkpt>
      <trkpt lat="41.953683" lon="9.223657">
        <ele>1790.0</ele>
        <time>2022-09-15T08:00:42Z</time>
      </trkpt>
      <trkpt lat="41.953667" lon="9.223603">
        <ele>1790.0</ele>
        <time>2022-09-15T08:00:49Z</time>
      </trkpt>
      <trkpt lat="41.953647" lon="9.223583">
        <ele>1790.0</ele>
        <time>2022-09-15T08:00:53Z</time>
      </trkpt>
      <trkpt lat="41.953525" lon="9.22356">
        <ele>1793.0</ele>
        <time>2022-09-15T08:01:13Z</time>
      </trkpt>
      <trkpt lat="41.953518" lon="9.223563">
        <ele>1793.0</ele>
        <time>2022-09-15T08:01:13Z</time>
      </trkpt>
      <trkpt lat="41.953467" lon="9.223597">
        <ele>1796.8</ele>
        <time>2022-09-15T08:01:21Z</time>
      </trkpt>
      <trkpt lat="41.953432" lon="9.223648">
        <ele>1797.6</ele>
        <time>2022-09-15T08:01:31Z</time>
      </trkpt>
      <trkpt lat="41.953382" lon="9.223722">
        <ele>1799.0</ele>
        <time>2022-09-15T08:01:41Z</time>
      </trkpt>
      <trkpt lat="41.953323" lon="9.223773">
        <ele>1798.8</ele>
        <time>2022-09-15T08:01:49Z</time>
      </trkpt>
      <trkpt lat="41.953253" lon="9.223687">
        <ele>1800.4</ele>
        <time>2022-09-15T08:02:00Z</time>
      </trkpt>
      <trkpt lat="41.95322" lon="9.223647">
        <ele>1802.0</ele>
        <time>2022-09-15T08:02:05Z</time>
      </trkpt>
      <trkpt lat="41.953168" lon="9.223603">
        <ele>1802.6</ele>
        <time>2022-09-15T08:02:13Z</time>
      </trkpt>
      <trkpt lat="41.953132" lon="9.223568">
        <ele>1804.0</ele>
        <time>2022-09-15T08:02:19Z</time>
      </trkpt>
      <trkpt lat="41.953065" lon="9.22353">
        <ele>1807.2</ele>
        <time>2022-09-15T08:02:30Z</time>
      </trkpt>
      <trkpt lat="41.953023" lon="9.223473">
        <ele>1808.0</ele>
        <time>2022-09-15T08:02:38Z</time>
      </trkpt>
      <trkpt lat="41.952923" lon="9.22339">
        <ele>1812.2</ele>
        <time>2022-09-15T08:02:58Z</time>
      </trkpt>
      <trkpt lat="41.952848" lon="9.223353">
        <ele>1813.2</ele>
        <time>2022-09-15T08:03:11Z</time>
      </trkpt>
      <trkpt lat="41.95277" lon="9.223288">
        <ele>1814.4</ele>
        <time>2022-09-15T08:03:21Z</time>
      </trkpt>
      <trkpt lat="41.952677" lon="9.223267">
        <ele>1817.6</ele>
        <time>2022-09-15T08:03:36Z</time>
      </trkpt>
      <trkpt lat="41.952673" lon="9.223272">
        <ele>1817.6</ele>
        <time>2022-09-15T08:03:37Z</time>
      </trkpt>
      <trkpt lat="41.95264" lon="9.223318">
        <ele>1819.8</ele>
        <time>2022-09-15T08:03:46Z</time>
      </trkpt>
      <trkpt lat="41.952642" lon="9.22327">
        <ele>1820.2</ele>
        <time>2022-09-15T08:03:55Z</time>
      </trkpt>
      <trkpt lat="41.952642" lon="9.223233">
        <ele>1821.6</ele>
        <time>2022-09-15T08:04:03Z</time>
      </trkpt>
      <trkpt lat="41.952605" lon="9.223203">
        <ele>1823.8</ele>
        <time>2022-09-15T08:04:20Z</time>
      </trkpt>
      <trkpt lat="41.95254" lon="9.22329">
        <ele>1826.6</ele>
        <time>2022-09-15T08:04:30Z</time>
      </trkpt>
      <trkpt lat="41.952528" lon="9.22328">
        <ele>1827.0</ele>
        <time>2022-09-15T08:04:32Z</time>
      </trkpt>
      <trkpt lat="41.952537" lon="9.223245">
        <ele>1828.4</ele>
        <time>2022-09-15T08:04:40Z</time>
      </trkpt>
      <trkpt lat="41.95254" lon="9.22324">
        <ele>1829.4</ele>
        <time>2022-09-15T08:04:41Z</time>
      </trkpt>
      <trkpt lat="41.952558" lon="9.223227">
        <ele>1830.4</ele>
        <time>2022-09-15T08:04:45Z</time>
      </trkpt>
      <trkpt lat="41.952573" lon="9.22318">
        <ele>1833.0</ele>
        <time>2022-09-15T08:04:50Z</time>
      </trkpt>
      <trkpt lat="41.952568" lon="9.22312">
        <ele>1835.2</ele>
        <time>2022-09-15T08:04:55Z</time>
      </trkpt>
      <trkpt lat="41.952543" lon="9.223048">
        <ele>1834.6</ele>
        <time>2022-09-15T08:05:01Z</time>
      </trkpt>
      <trkpt lat="41.952495" lon="9.222955">
        <ele>1839.2</ele>
        <time>2022-09-15T08:05:11Z</time>
      </trkpt>
      <trkpt lat="41.95245" lon="9.22292">
        <ele>1837.0</ele>
        <time>2022-09-15T08:05:18Z</time>
      </trkpt>
      <trkpt lat="41.95244" lon="9.222905">
        <ele>1837.0</ele>
        <time>2022-09-15T08:05:19Z</time>
      </trkpt>
      <trkpt lat="41.952397" lon="9.222923">
        <ele>1839.8</ele>
        <time>2022-09-15T08:05:25Z</time>
      </trkpt>
      <trkpt lat="41.952347" lon="9.222965">
        <ele>1841.2</ele>
        <time>2022-09-15T08:05:34Z</time>
      </trkpt>
      <trkpt lat="41.952293" lon="9.222957">
        <ele>1850.2</ele>
        <time>2022-09-15T08:05:43Z</time>
      </trkpt>
      <trkpt lat="41.952232" lon="9.222952">
        <ele>1850.2</ele>
        <time>2022-09-15T08:05:53Z</time>
      </trkpt>
      <trkpt lat="41.952182" lon="9.222935">
        <ele>1851.2</ele>
        <time>2022-09-15T08:06:01Z</time>
      </trkpt>
      <trkpt lat="41.952138" lon="9.222878">
        <ele>1849.2</ele>
        <time>2022-09-15T08:06:08Z</time>
      </trkpt>
      <trkpt lat="41.952018" lon="9.222753">
        <ele>1861.2</ele>
        <time>2022-09-15T08:06:26Z</time>
      </trkpt>
      <trkpt lat="41.95194" lon="9.222583">
        <ele>1856.4</ele>
        <time>2022-09-15T08:06:43Z</time>
      </trkpt>
      <trkpt lat="41.95192" lon="9.222578">
        <ele>1855.4</ele>
        <time>2022-09-15T08:06:46Z</time>
      </trkpt>
      <trkpt lat="41.951903" lon="9.222608">
        <ele>1854.8</ele>
        <time>2022-09-15T08:06:50Z</time>
      </trkpt>
      <trkpt lat="41.951902" lon="9.222627">
        <ele>1856.0</ele>
        <time>2022-09-15T08:06:52Z</time>
      </trkpt>
      <trkpt lat="41.951875" lon="9.222812">
        <ele>1861.8</ele>
        <time>2022-09-15T08:07:10Z</time>
      </trkpt>
      <trkpt lat="41.951878" lon="9.222898">
        <ele>1862.8</ele>
        <time>2022-09-15T08:07:19Z</time>
      </trkpt>
      <trkpt lat="41.95188" lon="9.223042">
        <ele>1867.8</ele>
        <time>2022-09-15T08:07:34Z</time>
      </trkpt>
      <trkpt lat="41.951877" lon="9.223098">
        <ele>1866.8</ele>
        <time>2022-09-15T08:07:41Z</time>
      </trkpt>
      <trkpt lat="41.951873" lon="9.223102">
        <ele>1867.8</ele>
        <time>2022-09-15T08:07:42Z</time>
      </trkpt>
      <trkpt lat="41.951845" lon="9.223122">
        <ele>1870.6</ele>
        <time>2022-09-15T08:07:47Z</time>
      </trkpt>
      <trkpt lat="41.951752" lon="9.223113">
        <ele>1873.2</ele>
        <time>2022-09-15T08:07:59Z</time>
      </trkpt>
      <trkpt lat="41.951775" lon="9.223127">
        <ele>1875.2</ele>
        <time>2022-09-15T08:08:14Z</time>
      </trkpt>
      <trkpt lat="41.951683" lon="9.223085">
        <ele>1878.0</ele>
        <time>2022-09-15T08:08:31Z</time>
      </trkpt>
      <trkpt lat="41.95165" lon="9.223065">
        <ele>1878.6</ele>
        <time>2022-09-15T08:08:35Z</time>
      </trkpt>
      <trkpt lat="41.951663" lon="9.222943">
        <ele>1880.8</ele>
        <time>2022-09-15T08:08:45Z</time>
      </trkpt>
      <trkpt lat="41.95168" lon="9.222788">
        <ele>1882.6</ele>
        <time>2022-09-15T08:08:55Z</time>
      </trkpt>
      <trkpt lat="41.951677" lon="9.222717">
        <ele>1883.0</ele>
        <time>2022-09-15T08:08:59Z</time>
      </trkpt>
      <trkpt lat="41.951657" lon="9.222692">
        <ele>1882.6</ele>
        <time>2022-09-15T08:09:02Z</time>
      </trkpt>
      <trkpt lat="41.95162" lon="9.222722">
        <ele>1881.8</ele>
        <time>2022-09-15T08:09:07Z</time>
      </trkpt>
      <trkpt lat="41.951577" lon="9.222808">
        <ele>1883.0</ele>
        <time>2022-09-15T08:09:15Z</time>
      </trkpt>
      <trkpt lat="41.951565" lon="9.222835">
        <ele>1881.8</ele>
        <time>2022-09-15T08:09:17Z</time>
      </trkpt>
      <trkpt lat="41.951545" lon="9.222885">
        <ele>1883.8</ele>
        <time>2022-09-15T08:09:22Z</time>
      </trkpt>
      <trkpt lat="41.951538" lon="9.222933">
        <ele>1885.2</ele>
        <time>2022-09-15T08:09:26Z</time>
      </trkpt>
      <trkpt lat="41.951542" lon="9.22303">
        <ele>1883.6</ele>
        <time>2022-09-15T08:09:33Z</time>
      </trkpt>
      <trkpt lat="41.951528" lon="9.22302">
        <ele>1885.0</ele>
        <time>2022-09-15T08:09:38Z</time>
      </trkpt>
      <trkpt lat="41.951508" lon="9.222947">
        <ele>1892.4</ele>
        <time>2022-09-15T08:09:54Z</time>
      </trkpt>
      <trkpt lat="41.951517" lon="9.22306">
        <ele>1892.8</ele>
        <time>2022-09-15T08:10:13Z</time>
      </trkpt>
      <trkpt lat="41.951507" lon="9.223067">
        <ele>1894.6</ele>
        <time>2022-09-15T08:10:17Z</time>
      </trkpt>
      <trkpt lat="41.951457" lon="9.223085">
        <ele>1897.8</ele>
        <time>2022-09-15T08:10:25Z</time>
      </trkpt>
      <trkpt lat="41.951415" lon="9.2231">
        <ele>1897.8</ele>
        <time>2022-09-15T08:10:31Z</time>
      </trkpt>
      <trkpt lat="41.951373" lon="9.22312">
        <ele>1899.0</ele>
        <time>2022-09-15T08:10:40Z</time>
      </trkpt>
      <trkpt lat="41.951292" lon="9.223107">
        <ele>1901.4</ele>
        <time>2022-09-15T08:11:01Z</time>
      </trkpt>
      <trkpt lat="41.951287" lon="9.223102">
        <ele>1902.2</ele>
        <time>2022-09-15T08:11:02Z</time>
      </trkpt>
      <trkpt lat="41.951265" lon="9.223035">
        <ele>1903.0</ele>
        <time>2022-09-15T08:11:09Z</time>
      </trkpt>
      <trkpt lat="41.95117" lon="9.222918">
        <ele>1908.6</ele>
        <time>2022-09-15T08:11:27Z</time>
      </trkpt>
      <trkpt lat="41.951142" lon="9.222815">
        <ele>1911.4</ele>
        <time>2022-09-15T08:11:38Z</time>
      </trkpt>
      <trkpt lat="41.951073" lon="9.222647">
        <ele>1915.8</ele>
        <time>2022-09-15T08:11:54Z</time>
      </trkpt>
      <trkpt lat="41.951057" lon="9.222592">
        <ele>1916.6</ele>
        <time>2022-09-15T08:11:59Z</time>
      </trkpt>
      <trkpt lat="41.951045" lon="9.22258">
        <ele>1918.2</ele>
        <time>2022-09-15T08:12:00Z</time>
      </trkpt>
      <trkpt lat="41.950992" lon="9.222567">
        <ele>1921.0</ele>
        <time>2022-09-15T08:12:09Z</time>
      </trkpt>
      <trkpt lat="41.95092" lon="9.222595">
        <ele>1923.0</ele>
        <time>2022-09-15T08:12:20Z</time>
      </trkpt>
      <trkpt lat="41.95089" lon="9.222657">
        <ele>1923.2</ele>
        <time>2022-09-15T08:12:25Z</time>
      </trkpt>
      <trkpt lat="41.950803" lon="9.222732">
        <ele>1922.0</ele>
        <time>2022-09-15T08:12:36Z</time>
      </trkpt>
      <trkpt lat="41.95075" lon="9.222747">
        <ele>1921.6</ele>
        <time>2022-09-15T08:12:42Z</time>
      </trkpt>
      <trkpt lat="41.950705" lon="9.222717">
        <ele>1921.6</ele>
        <time>2022-09-15T08:12:48Z</time>
      </trkpt>
      <trkpt lat="41.950638" lon="9.22266">
        <ele>1924.0</ele>
        <time>2022-09-15T08:12:56Z</time>
      </trkpt>
      <trkpt lat="41.950593" lon="9.222662">
        <ele>1922.4</ele>
        <time>2022-09-15T08:13:02Z</time>
      </trkpt>
      <trkpt lat="41.950523" lon="9.222647">
        <ele>1923.0</ele>
        <time>2022-09-15T08:13:10Z</time>
      </trkpt>
      <trkpt lat="41.950447" lon="9.222605">
        <ele>1924.2</ele>
        <time>2022-09-15T08:13:17Z</time>
      </trkpt>
      <trkpt lat="41.950378" lon="9.222627">
        <ele>1926.4</ele>
        <time>2022-09-15T08:13:25Z</time>
      </trkpt>
      <trkpt lat="41.950353" lon="9.22263">
        <ele>1929.2</ele>
        <time>2022-09-15T08:13:28Z</time>
      </trkpt>
      <trkpt lat="41.950238" lon="9.22259">
        <ele>1929.8</ele>
        <time>2022-09-15T08:13:44Z</time>
      </trkpt>
      <trkpt lat="41.950187" lon="9.22254">
        <ele>1927.8</ele>
        <time>2022-09-15T08:13:51Z</time>
      </trkpt>
      <trkpt lat="41.950145" lon="9.222498">
        <ele>1927.4</ele>
        <time>2022-09-15T08:13:56Z</time>
      </trkpt>
      <trkpt lat="41.950087" lon="9.222472">
        <ele>1933.4</ele>
        <time>2022-09-15T08:14:03Z</time>
      </trkpt>
      <trkpt lat="41.95001" lon="9.222455">
        <ele>1934.2</ele>
        <time>2022-09-15T08:14:10Z</time>
      </trkpt>
      <trkpt lat="41.949893" lon="9.222472">
        <ele>1932.4</ele>
        <time>2022-09-15T08:14:21Z</time>
      </trkpt>
      <trkpt lat="41.949837" lon="9.222452">
        <ele>1934.0</ele>
        <time>2022-09-15T08:14:27Z</time>
      </trkpt>
      <trkpt lat="41.949758" lon="9.222478">
        <ele>1933.4</ele>
        <time>2022-09-15T08:14:35Z</time>
      </trkpt>
      <trkpt lat="41.94965" lon="9.222492">
        <ele>1933.8</ele>
        <time>2022-09-15T08:14:48Z</time>
      </trkpt>
      <trkpt lat="41.949473" lon="9.22246">
        <ele>1927.4</ele>
        <time>2022-09-15T08:15:06Z</time>
      </trkpt>
      <trkpt lat="41.949425" lon="9.222452">
        <ele>1923.6</ele>
        <time>2022-09-15T08:15:10Z</time>
      </trkpt>
      <trkpt lat="41.94915" lon="9.222453">
        <ele>1923.6</ele>
        <time>2022-09-15T08:15:30Z</time>
      </trkpt>
      <trkpt lat="41.948995" lon="9.222487">
        <ele>1927.0</ele>
        <time>2022-09-15T08:15:42Z</time>
      </trkpt>
      <trkpt lat="41.948727" lon="9.222542">
        <ele>1921.6</ele>
        <time>2022-09-15T08:16:11Z</time>
      </trkpt>
      <trkpt lat="41.948662" lon="9.222547">
        <ele>1923.0</ele>
        <time>2022-09-15T08:16:16Z</time>
      </trkpt>
      <trkpt lat="41.948543" lon="9.222575">
        <ele>1923.8</ele>
        <time>2022-09-15T08:16:25Z</time>
      </trkpt>
      <trkpt lat="41.948463" lon="9.222542">
        <ele>1925.4</ele>
        <time>2022-09-15T08:16:31Z</time>
      </trkpt>
      <trkpt lat="41.948388" lon="9.222477">
        <ele>1924.2</ele>
        <time>2022-09-15T08:16:37Z</time>
      </trkpt>
      <trkpt lat="41.948242" lon="9.222303">
        <ele>1919.0</ele>
        <time>2022-09-15T08:16:50Z</time>
      </trkpt>
      <trkpt lat="41.948215" lon="9.222252">
        <ele>1918.2</ele>
        <time>2022-09-15T08:16:53Z</time>
      </trkpt>
      <trkpt lat="41.94815" lon="9.222182">
        <ele>1914.2</ele>
        <time>2022-09-15T08:17:00Z</time>
      </trkpt>
      <trkpt lat="41.948075" lon="9.222103">
        <ele>1915.0</ele>
        <time>2022-09-15T08:17:09Z</time>
      </trkpt>
      <trkpt lat="41.947915" lon="9.221917">
        <ele>1916.4</ele>
        <time>2022-09-15T08:17:29Z</time>
      </trkpt>
      <trkpt lat="41.94789" lon="9.221872">
        <ele>1915.6</ele>
        <time>2022-09-15T08:17:34Z</time>
      </trkpt>
      <trkpt lat="41.947843" lon="9.2218">
        <ele>1916.4</ele>
        <time>2022-09-15T08:17:41Z</time>
      </trkpt>
      <trkpt lat="41.947812" lon="9.221773">
        <ele>1916.0</ele>
        <time>2022-09-15T08:17:45Z</time>
      </trkpt>
      <trkpt lat="41.947782" lon="9.221798">
        <ele>1916.0</ele>
        <time>2022-09-15T08:17:50Z</time>
      </trkpt>
      <trkpt lat="41.947757" lon="9.221813">
        <ele>1916.6</ele>
        <time>2022-09-15T08:17:54Z</time>
      </trkpt>
      <trkpt lat="41.947727" lon="9.221793">
        <ele>1917.4</ele>
        <time>2022-09-15T08:17:58Z</time>
      </trkpt>
      <trkpt lat="41.947628" lon="9.221672">
        <ele>1918.4</ele>
        <time>2022-09-15T08:18:13Z</time>
      </trkpt>
      <trkpt lat="41.947578" lon="9.221492">
        <ele>1920.6</ele>
        <time>2022-09-15T08:18:29Z</time>
      </trkpt>
      <trkpt lat="41.94757" lon="9.221432">
        <ele>1922.0</ele>
        <time>2022-09-15T08:18:34Z</time>
      </trkpt>
      <trkpt lat="41.947507" lon="9.221298">
        <ele>1923.6</ele>
        <time>2022-09-15T08:18:47Z</time>
      </trkpt>
      <trkpt lat="41.947465" lon="9.221227">
        <ele>1924.2</ele>
        <time>2022-09-15T08:18:56Z</time>
      </trkpt>
      <trkpt lat="41.947433" lon="9.221195">
        <ele>1925.2</ele>
        <time>2022-09-15T08:19:04Z</time>
      </trkpt>
      <trkpt lat="41.947383" lon="9.221305">
        <ele>1925.6</ele>
        <time>2022-09-15T08:19:15Z</time>
      </trkpt>
      <trkpt lat="41.947223" lon="9.221467">
        <ele>1930.4</ele>
        <time>2022-09-15T08:19:41Z</time>
      </trkpt>
      <trkpt lat="41.947185" lon="9.221468">
        <ele>1929.6</ele>
        <time>2022-09-15T08:19:45Z</time>
      </trkpt>
      <trkpt lat="41.947072" lon="9.221342">
        <ele>1933.6</ele>
        <time>2022-09-15T08:20:00Z</time>
      </trkpt>
      <trkpt lat="41.947018" lon="9.221247">
        <ele>1932.4</ele>
        <time>2022-09-15T08:20:06Z</time>
      </trkpt>
      <trkpt lat="41.946957" lon="9.221167">
        <ele>1933.0</ele>
        <time>2022-09-15T08:20:11Z</time>
      </trkpt>
      <trkpt lat="41.946838" lon="9.22102">
        <ele>1934.0</ele>
        <time>2022-09-15T08:20:21Z</time>
      </trkpt>
      <trkpt lat="41.94677" lon="9.220898">
        <ele>1933.6</ele>
        <time>2022-09-15T08:20:29Z</time>
      </trkpt>
      <trkpt lat="41.946693" lon="9.220755">
        <ele>1936.4</ele>
        <time>2022-09-15T08:20:43Z</time>
      </trkpt>
      <trkpt lat="41.946625" lon="9.220692">
        <ele>1931.8</ele>
        <time>2022-09-15T08:20:54Z</time>
      </trkpt>
      <trkpt lat="41.946548" lon="9.220622">
        <ele>1931.4</ele>
        <time>2022-09-15T08:21:05Z</time>
      </trkpt>
      <trkpt lat="41.946522" lon="9.22059">
        <ele>1931.6</ele>
        <time>2022-09-15T08:21:09Z</time>
      </trkpt>
      <trkpt lat="41.94641" lon="9.22038">
        <ele>1941.0</ele>
        <time>2022-09-15T08:21:29Z</time>
      </trkpt>
      <trkpt lat="41.946317" lon="9.220307">
        <ele>1944.0</ele>
        <time>2022-09-15T08:21:41Z</time>
      </trkpt>
      <trkpt lat="41.946112" lon="9.220162">
        <ele>1945.0</ele>
        <time>2022-09-15T08:22:01Z</time>
      </trkpt>
      <trkpt lat="41.946058" lon="9.220097">
        <ele>1947.0</ele>
        <time>2022-09-15T08:22:09Z</time>
      </trkpt>
      <trkpt lat="41.946023" lon="9.220055">
        <ele>1945.6</ele>
        <time>2022-09-15T08:22:14Z</time>
      </trkpt>
      <trkpt lat="41.945952" lon="9.220027">
        <ele>1947.8</ele>
        <time>2022-09-15T08:22:22Z</time>
      </trkpt>
      <trkpt lat="41.94588" lon="9.220032">
        <ele>1947.8</ele>
        <time>2022-09-15T08:22:32Z</time>
      </trkpt>
      <trkpt lat="41.945798" lon="9.220048">
        <ele>1949.4</ele>
        <time>2022-09-15T08:22:42Z</time>
      </trkpt>
      <trkpt lat="41.945707" lon="9.22011">
        <ele>1951.4</ele>
        <time>2022-09-15T08:22:53Z</time>
      </trkpt>
      <trkpt lat="41.945682" lon="9.220118">
        <ele>1952.2</ele>
        <time>2022-09-15T08:22:56Z</time>
      </trkpt>
      <trkpt lat="41.945603" lon="9.220102">
        <ele>1963.2</ele>
        <time>2022-09-15T08:23:05Z</time>
      </trkpt>
      <trkpt lat="41.945595" lon="9.220098">
        <ele>1961.4</ele>
        <time>2022-09-15T08:23:07Z</time>
      </trkpt>
      <trkpt lat="41.945542" lon="9.220055">
        <ele>1964.8</ele>
        <time>2022-09-15T08:23:14Z</time>
      </trkpt>
      <trkpt lat="41.945505" lon="9.22">
        <ele>1975.4</ele>
        <time>2022-09-15T08:23:22Z</time>
      </trkpt>
      <trkpt lat="41.94548" lon="9.219957">
        <ele>1970.4</ele>
        <time>2022-09-15T08:23:29Z</time>
      </trkpt>
      <trkpt lat="41.945462" lon="9.21992">
        <ele>1964.6</ele>
        <time>2022-09-15T08:23:34Z</time>
      </trkpt>
      <trkpt lat="41.945445" lon="9.219897">
        <ele>1960.2</ele>
        <time>2022-09-15T08:23:39Z</time>
      </trkpt>
      <trkpt lat="41.945498" lon="9.21996">
        <ele>1963.0</ele>
        <time>2022-09-15T08:23:44Z</time>
      </trkpt>
      <trkpt lat="41.945595" lon="9.219587">
        <ele>1965.4</ele>
        <time>2022-09-15T08:23:50Z</time>
      </trkpt>
      <trkpt lat="41.945817" lon="9.219755">
        <ele>1964.6</ele>
        <time>2022-09-15T08:24:00Z</time>
      </trkpt>
      <trkpt lat="41.945517" lon="9.219898">
        <ele>1969.4</ele>
        <time>2022-09-15T08:24:07Z</time>
      </trkpt>
      <trkpt lat="41.945513" lon="9.21994">
        <ele>1971.8</ele>
        <time>2022-09-15T08:24:10Z</time>
      </trkpt>
      <trkpt lat="41.945528" lon="9.219833">
        <ele>1971.8</ele>
        <time>2022-09-15T08:24:10Z</time>
      </trkpt>
      <trkpt lat="41.945572" lon="9.219672">
        <ele>1969.2</ele>
        <time>2022-09-15T08:24:17Z</time>
      </trkpt>
      <trkpt lat="41.945522" lon="9.21939">
        <ele>1967.2</ele>
        <time>2022-09-15T08:24:37Z</time>
      </trkpt>
      <trkpt lat="41.945495" lon="9.21935">
        <ele>1962.2</ele>
        <time>2022-09-15T08:24:46Z</time>
      </trkpt>
      <trkpt lat="41.945475" lon="9.219292">
        <ele>1958.2</ele>
        <time>2022-09-15T08:24:53Z</time>
      </trkpt>
      <trkpt lat="41.945442" lon="9.21918">
        <ele>1960.4</ele>
        <time>2022-09-15T08:24:59Z</time>
      </trkpt>
      <trkpt lat="41.945427" lon="9.21933">
        <ele>1964.4</ele>
        <time>2022-09-15T08:25:06Z</time>
      </trkpt>
      <trkpt lat="41.945397" lon="9.219332">
        <ele>1966.4</ele>
        <time>2022-09-15T08:25:07Z</time>
      </trkpt>
      <trkpt lat="41.945397" lon="9.219302">
        <ele>1967.6</ele>
        <time>2022-09-15T08:25:09Z</time>
      </trkpt>
      <trkpt lat="41.945422" lon="9.219297">
        <ele>1970.4</ele>
        <time>2022-09-15T08:25:13Z</time>
      </trkpt>
      <trkpt lat="41.945483" lon="9.219328">
        <ele>1974.8</ele>
        <time>2022-09-15T08:25:18Z</time>
      </trkpt>
      <trkpt lat="41.945525" lon="9.21937">
        <ele>1974.2</ele>
        <time>2022-09-15T08:25:22Z</time>
      </trkpt>
      <trkpt lat="41.945537" lon="9.219403">
        <ele>1972.2</ele>
        <time>2022-09-15T08:25:24Z</time>
      </trkpt>
      <trkpt lat="41.945487" lon="9.219392">
        <ele>1958.6</ele>
        <time>2022-09-15T08:25:36Z</time>
      </trkpt>
      <trkpt lat="41.945442" lon="9.21935">
        <ele>1969.8</ele>
        <time>2022-09-15T08:25:45Z</time>
      </trkpt>
      <trkpt lat="41.945417" lon="9.219317">
        <ele>1969.2</ele>
        <time>2022-09-15T08:25:52Z</time>
      </trkpt>
      <trkpt lat="41.945372" lon="9.219312">
        <ele>1966.2</ele>
        <time>2022-09-15T08:25:59Z</time>
      </trkpt>
      <trkpt lat="41.945363" lon="9.219315">
        <ele>1964.8</ele>
        <time>2022-09-15T08:26:00Z</time>
      </trkpt>
      <trkpt lat="41.945248" lon="9.219422">
        <ele>1963.4</ele>
        <time>2022-09-15T08:26:17Z</time>
      </trkpt>
      <trkpt lat="41.945188" lon="9.219457">
        <ele>1969.2</ele>
        <time>2022-09-15T08:26:34Z</time>
      </trkpt>
      <trkpt lat="41.945142" lon="9.219513">
        <ele>1972.6</ele>
        <time>2022-09-15T08:26:45Z</time>
      </trkpt>
      <trkpt lat="41.945137" lon="9.219517">
        <ele>1973.2</ele>
        <time>2022-09-15T08:26:46Z</time>
      </trkpt>
      <trkpt lat="41.945045" lon="9.219428">
        <ele>1977.8</ele>
        <time>2022-09-15T08:27:02Z</time>
      </trkpt>
      <trkpt lat="41.944998" lon="9.219423">
        <ele>1977.0</ele>
        <time>2022-09-15T08:27:08Z</time>
      </trkpt>
      <trkpt lat="41.944933" lon="9.219423">
        <ele>1970.8</ele>
        <time>2022-09-15T08:27:17Z</time>
      </trkpt>
      <trkpt lat="41.944898" lon="9.219408">
        <ele>1971.8</ele>
        <time>2022-09-15T08:27:22Z</time>
      </trkpt>
      <trkpt lat="41.944853" lon="9.219328">
        <ele>1981.4</ele>
        <time>2022-09-15T08:27:34Z</time>
      </trkpt>
      <trkpt lat="41.944788" lon="9.219243">
        <ele>1979.2</ele>
        <time>2022-09-15T08:27:46Z</time>
      </trkpt>
      <trkpt lat="41.944767" lon="9.21919">
        <ele>1983.4</ele>
        <time>2022-09-15T08:27:52Z</time>
      </trkpt>
      <trkpt lat="41.944755" lon="9.219137">
        <ele>1985.0</ele>
        <time>2022-09-15T08:27:59Z</time>
      </trkpt>
      <trkpt lat="41.944725" lon="9.219087">
        <ele>1984.8</ele>
        <time>2022-09-15T08:28:06Z</time>
      </trkpt>
      <trkpt lat="41.944698" lon="9.219047">
        <ele>1986.2</ele>
        <time>2022-09-15T08:28:12Z</time>
      </trkpt>
      <trkpt lat="41.944633" lon="9.219027">
        <ele>1985.4</ele>
        <time>2022-09-15T08:28:23Z</time>
      </trkpt>
      <trkpt lat="41.944617" lon="9.219005">
        <ele>1991.8</ele>
        <time>2022-09-15T08:28:27Z</time>
      </trkpt>
      <trkpt lat="41.944583" lon="9.218947">
        <ele>1994.6</ele>
        <time>2022-09-15T08:28:37Z</time>
      </trkpt>
      <trkpt lat="41.94458" lon="9.21894">
        <ele>1994.6</ele>
        <time>2022-09-15T08:28:38Z</time>
      </trkpt>
      <trkpt lat="41.944592" lon="9.218922">
        <ele>1988.0</ele>
        <time>2022-09-15T08:28:44Z</time>
      </trkpt>
      <trkpt lat="41.944628" lon="9.218918">
        <ele>1984.0</ele>
        <time>2022-09-15T08:28:49Z</time>
      </trkpt>
      <trkpt lat="41.944663" lon="9.218857">
        <ele>1991.4</ele>
        <time>2022-09-15T08:28:59Z</time>
      </trkpt>
      <trkpt lat="41.944753" lon="9.218875">
        <ele>2000.4</ele>
        <time>2022-09-15T08:30:20Z</time>
      </trkpt>
      <trkpt lat="41.944732" lon="9.218923">
        <ele>1975.0</ele>
        <time>2022-09-15T08:30:56Z</time>
      </trkpt>
      <trkpt lat="41.944708" lon="9.218592">
        <ele>1965.0</ele>
        <time>2022-09-15T08:31:10Z</time>
      </trkpt>
      <trkpt lat="41.944587" lon="9.218353">
        <ele>1964.2</ele>
        <time>2022-09-15T08:31:20Z</time>
      </trkpt>
      <trkpt lat="41.944478" lon="9.218203">
        <ele>1968.8</ele>
        <time>2022-09-15T08:31:30Z</time>
      </trkpt>
      <trkpt lat="41.94447" lon="9.218308">
        <ele>1969.6</ele>
        <time>2022-09-15T08:31:41Z</time>
      </trkpt>
      <trkpt lat="41.944453" lon="9.218187">
        <ele>1969.0</ele>
        <time>2022-09-15T08:31:46Z</time>
      </trkpt>
      <trkpt lat="41.944443" lon="9.218105">
        <ele>1963.6</ele>
        <time>2022-09-15T08:31:54Z</time>
      </trkpt>
      <trkpt lat="41.944425" lon="9.218035">
        <ele>1961.2</ele>
        <time>2022-09-15T08:32:03Z</time>
      </trkpt>
      <trkpt lat="41.944403" lon="9.218005">
        <ele>1960.6</ele>
        <time>2022-09-15T08:32:09Z</time>
      </trkpt>
      <trkpt lat="41.944358" lon="9.218015">
        <ele>1962.2</ele>
        <time>2022-09-15T08:32:18Z</time>
      </trkpt>
      <trkpt lat="41.944353" lon="9.218017">
        <ele>1962.8</ele>
        <time>2022-09-15T08:32:19Z</time>
      </trkpt>
      <trkpt lat="41.94428" lon="9.217955">
        <ele>1957.2</ele>
        <time>2022-09-15T08:32:32Z</time>
      </trkpt>
      <trkpt lat="41.944267" lon="9.217918">
        <ele>1951.0</ele>
        <time>2022-09-15T08:32:37Z</time>
      </trkpt>
      <trkpt lat="41.944262" lon="9.217845">
        <ele>1955.0</ele>
        <time>2022-09-15T08:32:50Z</time>
      </trkpt>
      <trkpt lat="41.944207" lon="9.217808">
        <ele>1986.0</ele>
        <time>2022-09-15T08:33:02Z</time>
      </trkpt>
      <trkpt lat="41.944202" lon="9.217803">
        <ele>1986.2</ele>
        <time>2022-09-15T08:33:03Z</time>
      </trkpt>
      <trkpt lat="41.944142" lon="9.217868">
        <ele>1979.2</ele>
        <time>2022-09-15T08:33:16Z</time>
      </trkpt>
      <trkpt lat="41.944082" lon="9.217887">
        <ele>1963.8</ele>
        <time>2022-09-15T08:33:27Z</time>
      </trkpt>
      <trkpt lat="41.944077" lon="9.217892">
        <ele>1961.6</ele>
        <time>2022-09-15T08:33:28Z</time>
      </trkpt>
      <trkpt lat="41.944003" lon="9.217788">
        <ele>1972.2</ele>
        <time>2022-09-15T08:33:39Z</time>
      </trkpt>
      <trkpt lat="41.943962" lon="9.217752">
        <ele>1984.6</ele>
        <time>2022-09-15T08:33:44Z</time>
      </trkpt>
      <trkpt lat="41.94387" lon="9.217722">
        <ele>1963.6</ele>
        <time>2022-09-15T08:33:54Z</time>
      </trkpt>
      <trkpt lat="41.943798" lon="9.2177">
        <ele>1951.4</ele>
        <time>2022-09-15T08:34:01Z</time>
      </trkpt>
      <trkpt lat="41.943728" lon="9.217652">
        <ele>1954.4</ele>
        <time>2022-09-15T08:34:08Z</time>
      </trkpt>
      <trkpt lat="41.943658" lon="9.21757">
        <ele>1953.2</ele>
        <time>2022-09-15T08:34:17Z</time>
      </trkpt>
      <trkpt lat="41.943605" lon="9.217482">
        <ele>1954.4</ele>
        <time>2022-09-15T08:34:24Z</time>
      </trkpt>
      <trkpt lat="41.943585" lon="9.217415">
        <ele>1959.2</ele>
        <time>2022-09-15T08:34:28Z</time>
      </trkpt>
      <trkpt lat="41.943547" lon="9.217388">
        <ele>1958.6</ele>
        <time>2022-09-15T08:34:33Z</time>
      </trkpt>
      <trkpt lat="41.943523" lon="9.217302">
        <ele>1955.2</ele>
        <time>2022-09-15T08:34:41Z</time>
      </trkpt>
      <trkpt lat="41.943502" lon="9.217295">
        <ele>1954.4</ele>
        <time>2022-09-15T08:34:44Z</time>
      </trkpt>
      <trkpt lat="41.943477" lon="9.217312">
        <ele>1958.0</ele>
        <time>2022-09-15T08:34:48Z</time>
      </trkpt>
      <trkpt lat="41.943445" lon="9.217332">
        <ele>1964.4</ele>
        <time>2022-09-15T08:34:53Z</time>
      </trkpt>
      <trkpt lat="41.943378" lon="9.217348">
        <ele>1976.8</ele>
        <time>2022-09-15T08:35:01Z</time>
      </trkpt>
      <trkpt lat="41.943317" lon="9.217367">
        <ele>1966.2</ele>
        <time>2022-09-15T08:35:09Z</time>
      </trkpt>
      <trkpt lat="41.943313" lon="9.217373">
        <ele>1964.8</ele>
        <time>2022-09-15T08:35:11Z</time>
      </trkpt>
      <trkpt lat="41.943285" lon="9.21734">
        <ele>1963.0</ele>
        <time>2022-09-15T08:35:14Z</time>
      </trkpt>
      <trkpt lat="41.943222" lon="9.217113">
        <ele>1961.6</ele>
        <time>2022-09-15T08:35:31Z</time>
      </trkpt>
      <trkpt lat="41.94324" lon="9.216975">
        <ele>1969.0</ele>
        <time>2022-09-15T08:35:42Z</time>
      </trkpt>
      <trkpt lat="41.943297" lon="9.21686">
        <ele>1968.2</ele>
        <time>2022-09-15T08:36:07Z</time>
      </trkpt>
      <trkpt lat="41.943297" lon="9.21686">
        <ele>1966.6</ele>
        <time>2022-09-15T08:36:09Z</time>
      </trkpt>
      <trkpt lat="41.943217" lon="9.216878">
        <ele>1960.0</ele>
        <time>2022-09-15T08:36:31Z</time>
      </trkpt>
      <trkpt lat="41.943157" lon="9.216897">
        <ele>1962.8</ele>
        <time>2022-09-15T08:36:41Z</time>
      </trkpt>
      <trkpt lat="41.94312" lon="9.216893">
        <ele>1962.6</ele>
        <time>2022-09-15T08:36:48Z</time>
      </trkpt>
      <trkpt lat="41.943115" lon="9.21689">
        <ele>1962.6</ele>
        <time>2022-09-15T08:36:49Z</time>
      </trkpt>
      <trkpt lat="41.943083" lon="9.216775">
        <ele>1974.6</ele>
        <time>2022-09-15T08:37:05Z</time>
      </trkpt>
      <trkpt lat="41.94306" lon="9.216673">
        <ele>1976.4</ele>
        <time>2022-09-15T08:37:27Z</time>
      </trkpt>
      <trkpt lat="41.943027" lon="9.216622">
        <ele>1960.2</ele>
        <time>2022-09-15T08:37:49Z</time>
      </trkpt>
      <trkpt lat="41.943028" lon="9.21662">
        <ele>1960.4</ele>
        <time>2022-09-15T08:37:50Z</time>
      </trkpt>
      <trkpt lat="41.942995" lon="9.216492">
        <ele>1966.2</ele>
        <time>2022-09-15T08:37:57Z</time>
      </trkpt>
      <trkpt lat="41.942943" lon="9.216362">
        <ele>1962.8</ele>
        <time>2022-09-15T08:38:03Z</time>
      </trkpt>
      <trkpt lat="41.94284" lon="9.216203">
        <ele>1962.6</ele>
        <time>2022-09-15T08:38:09Z</time>
      </trkpt>
      <trkpt lat="41.942742" lon="9.216068">
        <ele>1960.6</ele>
        <time>2022-09-15T08:38:14Z</time>
      </trkpt>
      <trkpt lat="41.94272" lon="9.215812">
        <ele>1970.4</ele>
        <time>2022-09-15T08:38:23Z</time>
      </trkpt>
      <trkpt lat="41.942712" lon="9.215785">
        <ele>1970.2</ele>
        <time>2022-09-15T08:38:24Z</time>
      </trkpt>
      <trkpt lat="41.942712" lon="9.21576">
        <ele>1970.4</ele>
        <time>2022-09-15T08:38:53Z</time>
      </trkpt>
      <trkpt lat="41.942742" lon="9.21594">
        <ele>1968.4</ele>
        <time>2022-09-15T08:39:59Z</time>
      </trkpt>
      <trkpt lat="41.942642" lon="9.215888">
        <ele>1944.6</ele>
        <time>2022-09-15T08:40:39Z</time>
      </trkpt>
      <trkpt lat="41.942583" lon="9.215867">
        <ele>1942.0</ele>
        <time>2022-09-15T08:40:55Z</time>
      </trkpt>
      <trkpt lat="41.942568" lon="9.21586">
        <ele>1942.4</ele>
        <time>2022-09-15T08:40:56Z</time>
      </trkpt>
      <trkpt lat="41.94248" lon="9.215635">
        <ele>1934.4</ele>
        <time>2022-09-15T08:41:09Z</time>
      </trkpt>
      <trkpt lat="41.942343" lon="9.215378">
        <ele>1936.6</ele>
        <time>2022-09-15T08:41:20Z</time>
      </trkpt>
      <trkpt lat="41.942188" lon="9.215178">
        <ele>1944.4</ele>
        <time>2022-09-15T08:41:31Z</time>
      </trkpt>
      <trkpt lat="41.942135" lon="9.215103">
        <ele>1944.6</ele>
        <time>2022-09-15T08:41:35Z</time>
      </trkpt>
      <trkpt lat="41.94204" lon="9.214917">
        <ele>1935.4</ele>
        <time>2022-09-15T08:41:46Z</time>
      </trkpt>
      <trkpt lat="41.942008" lon="9.214883">
        <ele>1935.8</ele>
        <time>2022-09-15T08:41:50Z</time>
      </trkpt>
      <trkpt lat="41.941932" lon="9.214818">
        <ele>1935.4</ele>
        <time>2022-09-15T08:41:57Z</time>
      </trkpt>
      <trkpt lat="41.941865" lon="9.21471">
        <ele>1937.2</ele>
        <time>2022-09-15T08:42:05Z</time>
      </trkpt>
      <trkpt lat="41.941767" lon="9.214543">
        <ele>1938.8</ele>
        <time>2022-09-15T08:42:17Z</time>
      </trkpt>
      <trkpt lat="41.9416" lon="9.21434">
        <ele>1935.2</ele>
        <time>2022-09-15T08:42:34Z</time>
      </trkpt>
      <trkpt lat="41.941518" lon="9.214177">
        <ele>1931.4</ele>
        <time>2022-09-15T08:42:46Z</time>
      </trkpt>
      <trkpt lat="41.941377" lon="9.21406">
        <ele>1929.6</ele>
        <time>2022-09-15T08:43:00Z</time>
      </trkpt>
      <trkpt lat="41.941313" lon="9.214032">
        <ele>1925.2</ele>
        <time>2022-09-15T08:43:06Z</time>
      </trkpt>
      <trkpt lat="41.941302" lon="9.214027">
        <ele>1925.4</ele>
        <time>2022-09-15T08:43:07Z</time>
      </trkpt>
      <trkpt lat="41.941197" lon="9.213957">
        <ele>1928.4</ele>
        <time>2022-09-15T08:43:18Z</time>
      </trkpt>
      <trkpt lat="41.941115" lon="9.21395">
        <ele>1923.8</ele>
        <time>2022-09-15T08:43:27Z</time>
      </trkpt>
      <trkpt lat="41.941085" lon="9.213908">
        <ele>1926.2</ele>
        <time>2022-09-15T08:43:31Z</time>
      </trkpt>
      <trkpt lat="41.941063" lon="9.213842">
        <ele>1927.2</ele>
        <time>2022-09-15T08:43:36Z</time>
      </trkpt>
      <trkpt lat="41.941032" lon="9.213802">
        <ele>1928.4</ele>
        <time>2022-09-15T08:43:40Z</time>
      </trkpt>
      <trkpt lat="41.940948" lon="9.21379">
        <ele>1924.6</ele>
        <time>2022-09-15T08:43:47Z</time>
      </trkpt>
      <trkpt lat="41.94066" lon="9.213787">
        <ele>1919.0</ele>
        <time>2022-09-15T08:44:15Z</time>
      </trkpt>
      <trkpt lat="41.940618" lon="9.213753">
        <ele>1918.2</ele>
        <time>2022-09-15T08:44:19Z</time>
      </trkpt>
      <trkpt lat="41.940587" lon="9.213732">
        <ele>1918.4</ele>
        <time>2022-09-15T08:44:22Z</time>
      </trkpt>
      <trkpt lat="41.940548" lon="9.213672">
        <ele>1916.0</ele>
        <time>2022-09-15T08:44:27Z</time>
      </trkpt>
      <trkpt lat="41.940457" lon="9.213592">
        <ele>1914.2</ele>
        <time>2022-09-15T08:44:36Z</time>
      </trkpt>
      <trkpt lat="41.940207" lon="9.213387">
        <ele>1915.4</ele>
        <time>2022-09-15T08:45:01Z</time>
      </trkpt>
      <trkpt lat="41.940173" lon="9.21336">
        <ele>1914.8</ele>
        <time>2022-09-15T08:45:04Z</time>
      </trkpt>
      <trkpt lat="41.94007" lon="9.213238">
        <ele>1916.6</ele>
        <time>2022-09-15T08:45:15Z</time>
      </trkpt>
      <trkpt lat="41.939962" lon="9.213213">
        <ele>1919.8</ele>
        <time>2022-09-15T08:45:26Z</time>
      </trkpt>
      <trkpt lat="41.939883" lon="9.213255">
        <ele>1920.0</ele>
        <time>2022-09-15T08:45:34Z</time>
      </trkpt>
      <trkpt lat="41.939812" lon="9.213275">
        <ele>1922.0</ele>
        <time>2022-09-15T08:45:42Z</time>
      </trkpt>
      <trkpt lat="41.939628" lon="9.213362">
        <ele>1921.4</ele>
        <time>2022-09-15T08:46:00Z</time>
      </trkpt>
      <trkpt lat="41.939463" lon="9.21331">
        <ele>1922.8</ele>
        <time>2022-09-15T08:46:27Z</time>
      </trkpt>
      <trkpt lat="41.939347" lon="9.213212">
        <ele>1921.2</ele>
        <time>2022-09-15T08:46:42Z</time>
      </trkpt>
      <trkpt lat="41.939173" lon="9.213142">
        <ele>1920.4</ele>
        <time>2022-09-15T08:47:01Z</time>
      </trkpt>
      <trkpt lat="41.939123" lon="9.213113">
        <ele>1920.2</ele>
        <time>2022-09-15T08:47:08Z</time>
      </trkpt>
      <trkpt lat="41.93891" lon="9.21286">
        <ele>1922.0</ele>
        <time>2022-09-15T08:47:32Z</time>
      </trkpt>
      <trkpt lat="41.93887" lon="9.212783">
        <ele>1919.4</ele>
        <time>2022-09-15T08:47:38Z</time>
      </trkpt>
      <trkpt lat="41.938817" lon="9.212692">
        <ele>1920.6</ele>
        <time>2022-09-15T08:47:45Z</time>
      </trkpt>
      <trkpt lat="41.93879" lon="9.212627">
        <ele>1919.4</ele>
        <time>2022-09-15T08:47:49Z</time>
      </trkpt>
      <trkpt lat="41.938718" lon="9.212482">
        <ele>1913.6</ele>
        <time>2022-09-15T08:48:04Z</time>
      </trkpt>
      <trkpt lat="41.938643" lon="9.212305">
        <ele>1915.4</ele>
        <time>2022-09-15T08:48:18Z</time>
      </trkpt>
      <trkpt lat="41.938617" lon="9.212277">
        <ele>1913.8</ele>
        <time>2022-09-15T08:48:21Z</time>
      </trkpt>
      <trkpt lat="41.938562" lon="9.21222">
        <ele>1913.0</ele>
        <time>2022-09-15T08:48:28Z</time>
      </trkpt>
      <trkpt lat="41.938558" lon="9.21221">
        <ele>1912.0</ele>
        <time>2022-09-15T08:48:29Z</time>
      </trkpt>
      <trkpt lat="41.93852" lon="9.21221">
        <ele>1911.0</ele>
        <time>2022-09-15T08:48:33Z</time>
      </trkpt>
      <trkpt lat="41.938472" lon="9.212177">
        <ele>1911.0</ele>
        <time>2022-09-15T08:48:39Z</time>
      </trkpt>
      <trkpt lat="41.938407" lon="9.212063">
        <ele>1903.4</ele>
        <time>2022-09-15T08:48:51Z</time>
      </trkpt>
      <trkpt lat="41.938367" lon="9.211982">
        <ele>1900.2</ele>
        <time>2022-09-15T08:48:59Z</time>
      </trkpt>
      <trkpt lat="41.938358" lon="9.211992">
        <ele>1900.2</ele>
        <time>2022-09-15T08:49:00Z</time>
      </trkpt>
      <trkpt lat="41.938268" lon="9.212055">
        <ele>1902.4</ele>
        <time>2022-09-15T08:49:12Z</time>
      </trkpt>
      <trkpt lat="41.938243" lon="9.212068">
        <ele>1904.4</ele>
        <time>2022-09-15T08:49:15Z</time>
      </trkpt>
      <trkpt lat="41.938212" lon="9.212095">
        <ele>1903.4</ele>
        <time>2022-09-15T08:49:19Z</time>
      </trkpt>
      <trkpt lat="41.93818" lon="9.212127">
        <ele>1902.4</ele>
        <time>2022-09-15T08:49:23Z</time>
      </trkpt>
      <trkpt lat="41.938153" lon="9.212167">
        <ele>1899.6</ele>
        <time>2022-09-15T08:49:27Z</time>
      </trkpt>
      <trkpt lat="41.938135" lon="9.21222">
        <ele>1899.4</ele>
        <time>2022-09-15T08:49:32Z</time>
      </trkpt>
      <trkpt lat="41.938097" lon="9.212197">
        <ele>1900.8</ele>
        <time>2022-09-15T08:49:37Z</time>
      </trkpt>
      <trkpt lat="41.938052" lon="9.21215">
        <ele>1898.0</ele>
        <time>2022-09-15T08:49:44Z</time>
      </trkpt>
      <trkpt lat="41.937987" lon="9.212152">
        <ele>1897.2</ele>
        <time>2022-09-15T08:49:52Z</time>
      </trkpt>
      <trkpt lat="41.937927" lon="9.212107">
        <ele>1895.8</ele>
        <time>2022-09-15T08:50:00Z</time>
      </trkpt>
      <trkpt lat="41.93786" lon="9.212088">
        <ele>1893.8</ele>
        <time>2022-09-15T08:50:10Z</time>
      </trkpt>
      <trkpt lat="41.937835" lon="9.212087">
        <ele>1893.0</ele>
        <time>2022-09-15T08:50:14Z</time>
      </trkpt>
      <trkpt lat="41.93773" lon="9.21216">
        <ele>1887.6</ele>
        <time>2022-09-15T08:50:30Z</time>
      </trkpt>
      <trkpt lat="41.937692" lon="9.212172">
        <ele>1886.6</ele>
        <time>2022-09-15T08:50:35Z</time>
      </trkpt>
      <trkpt lat="41.937643" lon="9.212183">
        <ele>1881.8</ele>
        <time>2022-09-15T08:50:41Z</time>
      </trkpt>
      <trkpt lat="41.937603" lon="9.212185">
        <ele>1881.8</ele>
        <time>2022-09-15T08:50:46Z</time>
      </trkpt>
      <trkpt lat="41.93756" lon="9.21218">
        <ele>1880.0</ele>
        <time>2022-09-15T08:50:51Z</time>
      </trkpt>
      <trkpt lat="41.937497" lon="9.212188">
        <ele>1879.0</ele>
        <time>2022-09-15T08:50:57Z</time>
      </trkpt>
      <trkpt lat="41.937482" lon="9.212128">
        <ele>1878.4</ele>
        <time>2022-09-15T08:51:02Z</time>
      </trkpt>
      <trkpt lat="41.937468" lon="9.211975">
        <ele>1880.4</ele>
        <time>2022-09-15T08:51:16Z</time>
      </trkpt>
      <trkpt lat="41.93743" lon="9.21193">
        <ele>1878.8</ele>
        <time>2022-09-15T08:51:23Z</time>
      </trkpt>
      <trkpt lat="41.937365" lon="9.211892">
        <ele>1876.2</ele>
        <time>2022-09-15T08:51:31Z</time>
      </trkpt>
      <trkpt lat="41.937363" lon="9.21188">
        <ele>1876.2</ele>
        <time>2022-09-15T08:51:32Z</time>
      </trkpt>
      <trkpt lat="41.937328" lon="9.21186">
        <ele>1874.4</ele>
        <time>2022-09-15T08:51:37Z</time>
      </trkpt>
      <trkpt lat="41.93724" lon="9.211767">
        <ele>1875.2</ele>
        <time>2022-09-15T08:51:52Z</time>
      </trkpt>
      <trkpt lat="41.937207" lon="9.211748">
        <ele>1874.6</ele>
        <time>2022-09-15T08:51:58Z</time>
      </trkpt>
      <trkpt lat="41.937133" lon="9.211663">
        <ele>1870.2</ele>
        <time>2022-09-15T08:52:11Z</time>
      </trkpt>
      <trkpt lat="41.937125" lon="9.211587">
        <ele>1870.6</ele>
        <time>2022-09-15T08:52:16Z</time>
      </trkpt>
      <trkpt lat="41.937147" lon="9.211437">
        <ele>1866.0</ele>
        <time>2022-09-15T08:52:26Z</time>
      </trkpt>
      <trkpt lat="41.937197" lon="9.211312">
        <ele>1863.2</ele>
        <time>2022-09-15T08:52:34Z</time>
      </trkpt>
      <trkpt lat="41.937233" lon="9.210985">
        <ele>1860.2</ele>
        <time>2022-09-15T08:52:50Z</time>
      </trkpt>
      <trkpt lat="41.93725" lon="9.210855">
        <ele>1861.8</ele>
        <time>2022-09-15T08:52:59Z</time>
      </trkpt>
      <trkpt lat="41.937232" lon="9.2108">
        <ele>1860.2</ele>
        <time>2022-09-15T08:53:03Z</time>
      </trkpt>
      <trkpt lat="41.937203" lon="9.210723">
        <ele>1858.6</ele>
        <time>2022-09-15T08:53:09Z</time>
      </trkpt>
      <trkpt lat="41.937155" lon="9.21056">
        <ele>1853.0</ele>
        <time>2022-09-15T08:53:24Z</time>
      </trkpt>
      <trkpt lat="41.937152" lon="9.210435">
        <ele>1851.0</ele>
        <time>2022-09-15T08:53:37Z</time>
      </trkpt>
      <trkpt lat="41.937137" lon="9.210387">
        <ele>1850.2</ele>
        <time>2022-09-15T08:53:42Z</time>
      </trkpt>
      <trkpt lat="41.937048" lon="9.210348">
        <ele>1848.8</ele>
        <time>2022-09-15T08:53:56Z</time>
      </trkpt>
      <trkpt lat="41.936962" lon="9.210378">
        <ele>1847.4</ele>
        <time>2022-09-15T08:54:09Z</time>
      </trkpt>
      <trkpt lat="41.936915" lon="9.21035">
        <ele>1845.0</ele>
        <time>2022-09-15T08:54:17Z</time>
      </trkpt>
      <trkpt lat="41.936893" lon="9.21036">
        <ele>1843.6</ele>
        <time>2022-09-15T08:54:22Z</time>
      </trkpt>
      <trkpt lat="41.936852" lon="9.210298">
        <ele>1842.2</ele>
        <time>2022-09-15T08:54:29Z</time>
      </trkpt>
      <trkpt lat="41.936848" lon="9.210202">
        <ele>1840.0</ele>
        <time>2022-09-15T08:54:37Z</time>
      </trkpt>
      <trkpt lat="41.936808" lon="9.210063">
        <ele>1838.8</ele>
        <time>2022-09-15T08:54:48Z</time>
      </trkpt>
      <trkpt lat="41.936783" lon="9.20998">
        <ele>1836.6</ele>
        <time>2022-09-15T08:54:55Z</time>
      </trkpt>
      <trkpt lat="41.936783" lon="9.20993">
        <ele>1835.2</ele>
        <time>2022-09-15T08:55:01Z</time>
      </trkpt>
      <trkpt lat="41.936792" lon="9.209903">
        <ele>1834.6</ele>
        <time>2022-09-15T08:55:03Z</time>
      </trkpt>
      <trkpt lat="41.936782" lon="9.209813">
        <ele>1832.4</ele>
        <time>2022-09-15T08:55:13Z</time>
      </trkpt>
      <trkpt lat="41.93675" lon="9.209752">
        <ele>1833.6</ele>
        <time>2022-09-15T08:55:22Z</time>
      </trkpt>
      <trkpt lat="41.936708" lon="9.209675">
        <ele>1829.4</ele>
        <time>2022-09-15T08:55:34Z</time>
      </trkpt>
      <trkpt lat="41.936687" lon="9.209642">
        <ele>1825.0</ele>
        <time>2022-09-15T08:55:41Z</time>
      </trkpt>
      <trkpt lat="41.936682" lon="9.20964">
        <ele>1825.0</ele>
        <time>2022-09-15T08:55:41Z</time>
      </trkpt>
      <trkpt lat="41.93666" lon="9.209607">
        <ele>1824.2</ele>
        <time>2022-09-15T08:55:46Z</time>
      </trkpt>
      <trkpt lat="41.93664" lon="9.209427">
        <ele>1829.0</ele>
        <time>2022-09-15T08:56:04Z</time>
      </trkpt>
      <trkpt lat="41.936642" lon="9.209267">
        <ele>1821.6</ele>
        <time>2022-09-15T08:56:20Z</time>
      </trkpt>
      <trkpt lat="41.936638" lon="9.209258">
        <ele>1820.8</ele>
        <time>2022-09-15T08:56:22Z</time>
      </trkpt>
      <trkpt lat="41.9366" lon="9.209213">
        <ele>1819.4</ele>
        <time>2022-09-15T08:56:27Z</time>
      </trkpt>
      <trkpt lat="41.936582" lon="9.209085">
        <ele>1821.2</ele>
        <time>2022-09-15T08:56:37Z</time>
      </trkpt>
      <trkpt lat="41.936567" lon="9.20905">
        <ele>1820.4</ele>
        <time>2022-09-15T08:56:40Z</time>
      </trkpt>
      <trkpt lat="41.936577" lon="9.208985">
        <ele>1819.4</ele>
        <time>2022-09-15T08:56:45Z</time>
      </trkpt>
      <trkpt lat="41.936612" lon="9.208907">
        <ele>1816.6</ele>
        <time>2022-09-15T08:56:52Z</time>
      </trkpt>
      <trkpt lat="41.93662" lon="9.208892">
        <ele>1817.4</ele>
        <time>2022-09-15T08:56:53Z</time>
      </trkpt>
      <trkpt lat="41.93663" lon="9.208837">
        <ele>1817.8</ele>
        <time>2022-09-15T08:56:58Z</time>
      </trkpt>
      <trkpt lat="41.936578" lon="9.208688">
        <ele>1814.6</ele>
        <time>2022-09-15T08:57:11Z</time>
      </trkpt>
      <trkpt lat="41.936565" lon="9.208645">
        <ele>1813.8</ele>
        <time>2022-09-15T08:57:15Z</time>
      </trkpt>
      <trkpt lat="41.936562" lon="9.208593">
        <ele>1814.2</ele>
        <time>2022-09-15T08:57:21Z</time>
      </trkpt>
      <trkpt lat="41.936557" lon="9.208527">
        <ele>1813.0</ele>
        <time>2022-09-15T08:57:28Z</time>
      </trkpt>
      <trkpt lat="41.936553" lon="9.208512">
        <ele>1813.0</ele>
        <time>2022-09-15T08:57:29Z</time>
      </trkpt>
      <trkpt lat="41.936557" lon="9.2084">
        <ele>1813.8</ele>
        <time>2022-09-15T08:57:41Z</time>
      </trkpt>
      <trkpt lat="41.93659" lon="9.20821">
        <ele>1805.6</ele>
        <time>2022-09-15T08:58:14Z</time>
      </trkpt>
      <trkpt lat="41.936585" lon="9.208108">
        <ele>1805.8</ele>
        <time>2022-09-15T08:58:28Z</time>
      </trkpt>
      <trkpt lat="41.936557" lon="9.208082">
        <ele>1804.0</ele>
        <time>2022-09-15T08:58:33Z</time>
      </trkpt>
      <trkpt lat="41.936528" lon="9.208067">
        <ele>1803.6</ele>
        <time>2022-09-15T08:58:37Z</time>
      </trkpt>
      <trkpt lat="41.936387" lon="9.20786">
        <ele>1800.2</ele>
        <time>2022-09-15T08:59:01Z</time>
      </trkpt>
      <trkpt lat="41.936363" lon="9.207828">
        <ele>1797.8</ele>
        <time>2022-09-15T08:59:05Z</time>
      </trkpt>
      <trkpt lat="41.936323" lon="9.207863">
        <ele>1800.4</ele>
        <time>2022-09-15T08:59:12Z</time>
      </trkpt>
      <trkpt lat="41.936287" lon="9.20787">
        <ele>1800.6</ele>
        <time>2022-09-15T08:59:16Z</time>
      </trkpt>
      <trkpt lat="41.936232" lon="9.207915">
        <ele>1797.4</ele>
        <time>2022-09-15T08:59:23Z</time>
      </trkpt>
      <trkpt lat="41.936057" lon="9.207947">
        <ele>1793.4</ele>
        <time>2022-09-15T08:59:44Z</time>
      </trkpt>
      <trkpt lat="41.936058" lon="9.207933">
        <ele>1793.0</ele>
        <time>2022-09-15T08:59:45Z</time>
      </trkpt>
      <trkpt lat="41.936055" lon="9.207868">
        <ele>1791.8</ele>
        <time>2022-09-15T08:59:50Z</time>
      </trkpt>
      <trkpt lat="41.936055" lon="9.207797">
        <ele>1789.6</ele>
        <time>2022-09-15T08:59:56Z</time>
      </trkpt>
      <trkpt lat="41.936077" lon="9.207635">
        <ele>1789.8</ele>
        <time>2022-09-15T09:00:10Z</time>
      </trkpt>
      <trkpt lat="41.936083" lon="9.20754">
        <ele>1786.4</ele>
        <time>2022-09-15T09:00:19Z</time>
      </trkpt>
      <trkpt lat="41.936097" lon="9.207478">
        <ele>1786.4</ele>
        <time>2022-09-15T09:00:24Z</time>
      </trkpt>
      <trkpt lat="41.936075" lon="9.207447">
        <ele>1785.8</ele>
        <time>2022-09-15T09:00:36Z</time>
      </trkpt>
      <trkpt lat="41.936082" lon="9.20743">
        <ele>1782.0</ele>
        <time>2022-09-15T09:00:45Z</time>
      </trkpt>
      <trkpt lat="41.936075" lon="9.2074">
        <ele>1782.2</ele>
        <time>2022-09-15T09:00:49Z</time>
      </trkpt>
      <trkpt lat="41.936052" lon="9.20737">
        <ele>1782.2</ele>
        <time>2022-09-15T09:00:54Z</time>
      </trkpt>
      <trkpt lat="41.936018" lon="9.207382">
        <ele>1782.0</ele>
        <time>2022-09-15T09:00:59Z</time>
      </trkpt>
      <trkpt lat="41.935985" lon="9.207397">
        <ele>1780.8</ele>
        <time>2022-09-15T09:01:05Z</time>
      </trkpt>
      <trkpt lat="41.935917" lon="9.207327">
        <ele>1777.8</ele>
        <time>2022-09-15T09:01:19Z</time>
      </trkpt>
      <trkpt lat="41.935898" lon="9.207335">
        <ele>1777.4</ele>
        <time>2022-09-15T09:01:21Z</time>
      </trkpt>
      <trkpt lat="41.935828" lon="9.207358">
        <ele>1776.0</ele>
        <time>2022-09-15T09:01:29Z</time>
      </trkpt>
      <trkpt lat="41.93581" lon="9.207357">
        <ele>1775.6</ele>
        <time>2022-09-15T09:01:31Z</time>
      </trkpt>
      <trkpt lat="41.93581" lon="9.207313">
        <ele>1774.2</ele>
        <time>2022-09-15T09:01:35Z</time>
      </trkpt>
      <trkpt lat="41.935792" lon="9.207165">
        <ele>1772.4</ele>
        <time>2022-09-15T09:01:54Z</time>
      </trkpt>
      <trkpt lat="41.935745" lon="9.20713">
        <ele>1768.4</ele>
        <time>2022-09-15T09:02:11Z</time>
      </trkpt>
      <trkpt lat="41.935722" lon="9.207095">
        <ele>1764.4</ele>
        <time>2022-09-15T09:02:29Z</time>
      </trkpt>
      <trkpt lat="41.935718" lon="9.207092">
        <ele>1764.2</ele>
        <time>2022-09-15T09:02:31Z</time>
      </trkpt>
      <trkpt lat="41.935703" lon="9.207088">
        <ele>1763.2</ele>
        <time>2022-09-15T09:02:41Z</time>
      </trkpt>
      <trkpt lat="41.935673" lon="9.207112">
        <ele>1760.6</ele>
        <time>2022-09-15T09:02:52Z</time>
      </trkpt>
      <trkpt lat="41.93566" lon="9.207105">
        <ele>1759.6</ele>
        <time>2022-09-15T09:03:01Z</time>
      </trkpt>
      <trkpt lat="41.935648" lon="9.207077">
        <ele>1759.0</ele>
        <time>2022-09-15T09:03:09Z</time>
      </trkpt>
      <trkpt lat="41.935622" lon="9.207092">
        <ele>1758.4</ele>
        <time>2022-09-15T09:03:14Z</time>
      </trkpt>
      <trkpt lat="41.935593" lon="9.207045">
        <ele>1756.8</ele>
        <time>2022-09-15T09:03:19Z</time>
      </trkpt>
      <trkpt lat="41.935558" lon="9.206973">
        <ele>1755.0</ele>
        <time>2022-09-15T09:03:26Z</time>
      </trkpt>
      <trkpt lat="41.93552" lon="9.206938">
        <ele>1754.2</ele>
        <time>2022-09-15T09:03:31Z</time>
      </trkpt>
      <trkpt lat="41.93547" lon="9.20691">
        <ele>1753.6</ele>
        <time>2022-09-15T09:03:36Z</time>
      </trkpt>
      <trkpt lat="41.935445" lon="9.206853">
        <ele>1752.4</ele>
        <time>2022-09-15T09:03:41Z</time>
      </trkpt>
      <trkpt lat="41.93544" lon="9.206827">
        <ele>1751.4</ele>
        <time>2022-09-15T09:03:44Z</time>
      </trkpt>
      <trkpt lat="41.935362" lon="9.206822">
        <ele>1749.4</ele>
        <time>2022-09-15T09:03:54Z</time>
      </trkpt>
      <trkpt lat="41.93534" lon="9.206785">
        <ele>1748.2</ele>
        <time>2022-09-15T09:04:02Z</time>
      </trkpt>
      <trkpt lat="41.935337" lon="9.206692">
        <ele>1744.6</ele>
        <time>2022-09-15T09:04:19Z</time>
      </trkpt>
      <trkpt lat="41.935332" lon="9.206675">
        <ele>1743.6</ele>
        <time>2022-09-15T09:04:22Z</time>
      </trkpt>
      <trkpt lat="41.935352" lon="9.20661">
        <ele>1741.6</ele>
        <time>2022-09-15T09:04:40Z</time>
      </trkpt>
      <trkpt lat="41.935355" lon="9.206567">
        <ele>1742.2</ele>
        <time>2022-09-15T09:04:44Z</time>
      </trkpt>
      <trkpt lat="41.935313" lon="9.206537">
        <ele>1742.2</ele>
        <time>2022-09-15T09:04:49Z</time>
      </trkpt>
      <trkpt lat="41.93532" lon="9.206498">
        <ele>1741.8</ele>
        <time>2022-09-15T09:04:53Z</time>
      </trkpt>
      <trkpt lat="41.935363" lon="9.206442">
        <ele>1741.8</ele>
        <time>2022-09-15T09:04:59Z</time>
      </trkpt>
      <trkpt lat="41.935393" lon="9.206402">
        <ele>1741.4</ele>
        <time>2022-09-15T09:05:04Z</time>
      </trkpt>
      <trkpt lat="41.935367" lon="9.206387">
        <ele>1740.8</ele>
        <time>2022-09-15T09:05:08Z</time>
      </trkpt>
      <trkpt lat="41.935322" lon="9.20638">
        <ele>1739.8</ele>
        <time>2022-09-15T09:05:14Z</time>
      </trkpt>
      <trkpt lat="41.935255" lon="9.206358">
        <ele>1737.8</ele>
        <time>2022-09-15T09:05:23Z</time>
      </trkpt>
      <trkpt lat="41.9352" lon="9.206265">
        <ele>1735.0</ele>
        <time>2022-09-15T09:05:36Z</time>
      </trkpt>
      <trkpt lat="41.93512" lon="9.206282">
        <ele>1733.6</ele>
        <time>2022-09-15T09:05:48Z</time>
      </trkpt>
      <trkpt lat="41.935073" lon="9.206237">
        <ele>1732.8</ele>
        <time>2022-09-15T09:05:55Z</time>
      </trkpt>
      <trkpt lat="41.935047" lon="9.20619">
        <ele>1732.6</ele>
        <time>2022-09-15T09:06:00Z</time>
      </trkpt>
      <trkpt lat="41.935053" lon="9.206107">
        <ele>1732.6</ele>
        <time>2022-09-15T09:06:09Z</time>
      </trkpt>
      <trkpt lat="41.935073" lon="9.206042">
        <ele>1732.2</ele>
        <time>2022-09-15T09:06:17Z</time>
      </trkpt>
      <trkpt lat="41.935063" lon="9.205988">
        <ele>1731.8</ele>
        <time>2022-09-15T09:06:24Z</time>
      </trkpt>
      <trkpt lat="41.935047" lon="9.205962">
        <ele>1731.8</ele>
        <time>2022-09-15T09:06:28Z</time>
      </trkpt>
      <trkpt lat="41.935015" lon="9.205958">
        <ele>1731.6</ele>
        <time>2022-09-15T09:06:34Z</time>
      </trkpt>
      <trkpt lat="41.935012" lon="9.20596">
        <ele>1731.6</ele>
        <time>2022-09-15T09:06:35Z</time>
      </trkpt>
      <trkpt lat="41.935007" lon="9.205963">
        <ele>1731.8</ele>
        <time>2022-09-15T09:06:36Z</time>
      </trkpt>
      <trkpt lat="41.935067" lon="9.205952">
        <ele>1733.8</ele>
        <time>2022-09-15T09:39:37Z</time>
      </trkpt>
      <trkpt lat="41.935093" lon="9.205922">
        <ele>1733.8</ele>
        <time>2022-09-15T09:39:40Z</time>
      </trkpt>
      <trkpt lat="41.935118" lon="9.205762">
        <ele>1733.4</ele>
        <time>2022-09-15T09:39:50Z</time>
      </trkpt>
      <trkpt lat="41.935107" lon="9.205647">
        <ele>1733.6</ele>
        <time>2022-09-15T09:39:57Z</time>
      </trkpt>
      <trkpt lat="41.935077" lon="9.205512">
        <ele>1734.0</ele>
        <time>2022-09-15T09:40:06Z</time>
      </trkpt>
      <trkpt lat="41.93507" lon="9.205502">
        <ele>1734.0</ele>
        <time>2022-09-15T09:40:07Z</time>
      </trkpt>
      <trkpt lat="41.93512" lon="9.205313">
        <ele>1733.6</ele>
        <time>2022-09-15T09:40:23Z</time>
      </trkpt>
      <trkpt lat="41.935127" lon="9.205215">
        <ele>1735.4</ele>
        <time>2022-09-15T09:40:33Z</time>
      </trkpt>
      <trkpt lat="41.935167" lon="9.205218">
        <ele>1736.4</ele>
        <time>2022-09-15T09:40:38Z</time>
      </trkpt>
      <trkpt lat="41.935202" lon="9.20522">
        <ele>1737.2</ele>
        <time>2022-09-15T09:40:42Z</time>
      </trkpt>
      <trkpt lat="41.935225" lon="9.205172">
        <ele>1738.4</ele>
        <time>2022-09-15T09:40:48Z</time>
      </trkpt>
      <trkpt lat="41.935158" lon="9.205058">
        <ele>1740.6</ele>
        <time>2022-09-15T09:41:02Z</time>
      </trkpt>
      <trkpt lat="41.935137" lon="9.204987">
        <ele>1742.6</ele>
        <time>2022-09-15T09:41:09Z</time>
      </trkpt>
      <trkpt lat="41.935118" lon="9.204922">
        <ele>1744.0</ele>
        <time>2022-09-15T09:41:16Z</time>
      </trkpt>
      <trkpt lat="41.93508" lon="9.204833">
        <ele>1745.4</ele>
        <time>2022-09-15T09:41:27Z</time>
      </trkpt>
      <trkpt lat="41.935058" lon="9.204803">
        <ele>1746.6</ele>
        <time>2022-09-15T09:41:33Z</time>
      </trkpt>
      <trkpt lat="41.93506" lon="9.204733">
        <ele>1748.6</ele>
        <time>2022-09-15T09:41:46Z</time>
      </trkpt>
      <trkpt lat="41.935055" lon="9.204693">
        <ele>1749.6</ele>
        <time>2022-09-15T09:41:52Z</time>
      </trkpt>
      <trkpt lat="41.93507" lon="9.204622">
        <ele>1752.6</ele>
        <time>2022-09-15T09:42:07Z</time>
      </trkpt>
      <trkpt lat="41.935072" lon="9.204572">
        <ele>1754.8</ele>
        <time>2022-09-15T09:42:21Z</time>
      </trkpt>
      <trkpt lat="41.935075" lon="9.204567">
        <ele>1755.2</ele>
        <time>2022-09-15T09:42:23Z</time>
      </trkpt>
      <trkpt lat="41.935042" lon="9.204497">
        <ele>1756.2</ele>
        <time>2022-09-15T09:42:32Z</time>
      </trkpt>
      <trkpt lat="41.935017" lon="9.204447">
        <ele>1757.2</ele>
        <time>2022-09-15T09:42:36Z</time>
      </trkpt>
      <trkpt lat="41.935003" lon="9.204362">
        <ele>1758.0</ele>
        <time>2022-09-15T09:42:41Z</time>
      </trkpt>
      <trkpt lat="41.934993" lon="9.20433">
        <ele>1758.0</ele>
        <time>2022-09-15T09:42:42Z</time>
      </trkpt>
      <trkpt lat="41.934965" lon="9.204292">
        <ele>1758.2</ele>
        <time>2022-09-15T09:42:46Z</time>
      </trkpt>
      <trkpt lat="41.934835" lon="9.204182">
        <ele>1758.2</ele>
        <time>2022-09-15T09:42:57Z</time>
      </trkpt>
      <trkpt lat="41.934755" lon="9.204153">
        <ele>1758.8</ele>
        <time>2022-09-15T09:43:05Z</time>
      </trkpt>
      <trkpt lat="41.934728" lon="9.20414">
        <ele>1759.0</ele>
        <time>2022-09-15T09:43:08Z</time>
      </trkpt>
      <trkpt lat="41.93467" lon="9.204095">
        <ele>1757.4</ele>
        <time>2022-09-15T09:43:16Z</time>
      </trkpt>
      <trkpt lat="41.934623" lon="9.204013">
        <ele>1758.2</ele>
        <time>2022-09-15T09:43:27Z</time>
      </trkpt>
      <trkpt lat="41.934608" lon="9.203977">
        <ele>1759.0</ele>
        <time>2022-09-15T09:43:31Z</time>
      </trkpt>
      <trkpt lat="41.934623" lon="9.203955">
        <ele>1759.4</ele>
        <time>2022-09-15T09:43:34Z</time>
      </trkpt>
      <trkpt lat="41.934643" lon="9.203947">
        <ele>1760.0</ele>
        <time>2022-09-15T09:43:37Z</time>
      </trkpt>
      <trkpt lat="41.934665" lon="9.20394">
        <ele>1761.0</ele>
        <time>2022-09-15T09:43:40Z</time>
      </trkpt>
      <trkpt lat="41.934662" lon="9.203832">
        <ele>1765.8</ele>
        <time>2022-09-15T09:44:01Z</time>
      </trkpt>
      <trkpt lat="41.934663" lon="9.203702">
        <ele>1772.2</ele>
        <time>2022-09-15T09:44:35Z</time>
      </trkpt>
      <trkpt lat="41.93461" lon="9.203663">
        <ele>1772.2</ele>
        <time>2022-09-15T09:44:41Z</time>
      </trkpt>
      <trkpt lat="41.934535" lon="9.203633">
        <ele>1772.4</ele>
        <time>2022-09-15T09:44:46Z</time>
      </trkpt>
      <trkpt lat="41.93451" lon="9.203577">
        <ele>1772.6</ele>
        <time>2022-09-15T09:44:49Z</time>
      </trkpt>
      <trkpt lat="41.93448" lon="9.203502">
        <ele>1773.4</ele>
        <time>2022-09-15T09:44:54Z</time>
      </trkpt>
      <trkpt lat="41.934457" lon="9.203477">
        <ele>1774.0</ele>
        <time>2022-09-15T09:44:56Z</time>
      </trkpt>
      <trkpt lat="41.934392" lon="9.203405">
        <ele>1776.4</ele>
        <time>2022-09-15T09:45:08Z</time>
      </trkpt>
      <trkpt lat="41.934317" lon="9.20328">
        <ele>1780.6</ele>
        <time>2022-09-15T09:45:24Z</time>
      </trkpt>
      <trkpt lat="41.934277" lon="9.203247">
        <ele>1780.8</ele>
        <time>2022-09-15T09:45:31Z</time>
      </trkpt>
      <trkpt lat="41.934193" lon="9.203177">
        <ele>1780.2</ele>
        <time>2022-09-15T09:45:45Z</time>
      </trkpt>
      <trkpt lat="41.934107" lon="9.203087">
        <ele>1782.2</ele>
        <time>2022-09-15T09:46:00Z</time>
      </trkpt>
      <trkpt lat="41.934035" lon="9.20303">
        <ele>1781.2</ele>
        <time>2022-09-15T09:46:15Z</time>
      </trkpt>
      <trkpt lat="41.933993" lon="9.203032">
        <ele>1779.2</ele>
        <time>2022-09-15T09:46:23Z</time>
      </trkpt>
      <trkpt lat="41.93397" lon="9.203023">
        <ele>1778.8</ele>
        <time>2022-09-15T09:46:26Z</time>
      </trkpt>
      <trkpt lat="41.933923" lon="9.20294">
        <ele>1779.0</ele>
        <time>2022-09-15T09:46:36Z</time>
      </trkpt>
      <trkpt lat="41.93387" lon="9.202967">
        <ele>1777.6</ele>
        <time>2022-09-15T09:46:43Z</time>
      </trkpt>
      <trkpt lat="41.933847" lon="9.202967">
        <ele>1777.2</ele>
        <time>2022-09-15T09:46:46Z</time>
      </trkpt>
      <trkpt lat="41.933835" lon="9.202933">
        <ele>1777.2</ele>
        <time>2022-09-15T09:46:50Z</time>
      </trkpt>
      <trkpt lat="41.933735" lon="9.202852">
        <ele>1778.6</ele>
        <time>2022-09-15T09:47:03Z</time>
      </trkpt>
      <trkpt lat="41.933678" lon="9.202815">
        <ele>1777.2</ele>
        <time>2022-09-15T09:47:11Z</time>
      </trkpt>
      <trkpt lat="41.933642" lon="9.202745">
        <ele>1777.8</ele>
        <time>2022-09-15T09:47:19Z</time>
      </trkpt>
      <trkpt lat="41.933605" lon="9.202717">
        <ele>1776.8</ele>
        <time>2022-09-15T09:47:24Z</time>
      </trkpt>
      <trkpt lat="41.933588" lon="9.20271">
        <ele>1776.4</ele>
        <time>2022-09-15T09:47:26Z</time>
      </trkpt>
      <trkpt lat="41.933552" lon="9.202705">
        <ele>1777.2</ele>
        <time>2022-09-15T09:47:32Z</time>
      </trkpt>
      <trkpt lat="41.933523" lon="9.202672">
        <ele>1775.4</ele>
        <time>2022-09-15T09:47:39Z</time>
      </trkpt>
      <trkpt lat="41.933508" lon="9.202622">
        <ele>1773.4</ele>
        <time>2022-09-15T09:47:46Z</time>
      </trkpt>
      <trkpt lat="41.933495" lon="9.202605">
        <ele>1773.2</ele>
        <time>2022-09-15T09:47:49Z</time>
      </trkpt>
      <trkpt lat="41.933507" lon="9.202535">
        <ele>1772.4</ele>
        <time>2022-09-15T09:48:00Z</time>
      </trkpt>
      <trkpt lat="41.933483" lon="9.202538">
        <ele>1771.8</ele>
        <time>2022-09-15T09:48:05Z</time>
      </trkpt>
      <trkpt lat="41.933455" lon="9.202518">
        <ele>1770.8</ele>
        <time>2022-09-15T09:48:11Z</time>
      </trkpt>
      <trkpt lat="41.933417" lon="9.202558">
        <ele>1769.2</ele>
        <time>2022-09-15T09:48:19Z</time>
      </trkpt>
      <trkpt lat="41.933387" lon="9.202512">
        <ele>1766.6</ele>
        <time>2022-09-15T09:48:26Z</time>
      </trkpt>
      <trkpt lat="41.933365" lon="9.202467">
        <ele>1763.6</ele>
        <time>2022-09-15T09:48:46Z</time>
      </trkpt>
      <trkpt lat="41.933367" lon="9.202465">
        <ele>1763.6</ele>
        <time>2022-09-15T09:48:46Z</time>
      </trkpt>
      <trkpt lat="41.933302" lon="9.202447">
        <ele>1766.4</ele>
        <time>2022-09-15T09:49:42Z</time>
      </trkpt>
      <trkpt lat="41.933243" lon="9.202475">
        <ele>1760.6</ele>
        <time>2022-09-15T09:50:36Z</time>
      </trkpt>
      <trkpt lat="41.933253" lon="9.202575">
        <ele>1757.6</ele>
        <time>2022-09-15T09:50:41Z</time>
      </trkpt>
      <trkpt lat="41.93319" lon="9.202582">
        <ele>1756.4</ele>
        <time>2022-09-15T09:50:45Z</time>
      </trkpt>
      <trkpt lat="41.933127" lon="9.202572">
        <ele>1755.6</ele>
        <time>2022-09-15T09:50:49Z</time>
      </trkpt>
      <trkpt lat="41.933075" lon="9.202558">
        <ele>1754.6</ele>
        <time>2022-09-15T09:50:54Z</time>
      </trkpt>
      <trkpt lat="41.933018" lon="9.202578">
        <ele>1754.4</ele>
        <time>2022-09-15T09:50:59Z</time>
      </trkpt>
      <trkpt lat="41.932967" lon="9.202557">
        <ele>1754.8</ele>
        <time>2022-09-15T09:51:04Z</time>
      </trkpt>
      <trkpt lat="41.932905" lon="9.202492">
        <ele>1752.8</ele>
        <time>2022-09-15T09:51:12Z</time>
      </trkpt>
      <trkpt lat="41.932845" lon="9.202342">
        <ele>1748.0</ele>
        <time>2022-09-15T09:51:22Z</time>
      </trkpt>
      <trkpt lat="41.932845" lon="9.202325">
        <ele>1747.8</ele>
        <time>2022-09-15T09:51:23Z</time>
      </trkpt>
      <trkpt lat="41.932823" lon="9.202248">
        <ele>1747.2</ele>
        <time>2022-09-15T09:51:29Z</time>
      </trkpt>
      <trkpt lat="41.9328" lon="9.20221">
        <ele>1747.2</ele>
        <time>2022-09-15T09:51:33Z</time>
      </trkpt>
      <trkpt lat="41.932742" lon="9.202188">
        <ele>1746.2</ele>
        <time>2022-09-15T09:51:42Z</time>
      </trkpt>
      <trkpt lat="41.932695" lon="9.202147">
        <ele>1744.0</ele>
        <time>2022-09-15T09:51:54Z</time>
      </trkpt>
      <trkpt lat="41.932625" lon="9.202083">
        <ele>1743.0</ele>
        <time>2022-09-15T09:52:05Z</time>
      </trkpt>
      <trkpt lat="41.932533" lon="9.201897">
        <ele>1742.8</ele>
        <time>2022-09-15T09:52:27Z</time>
      </trkpt>
      <trkpt lat="41.93252" lon="9.201898">
        <ele>1742.8</ele>
        <time>2022-09-15T09:52:28Z</time>
      </trkpt>
      <trkpt lat="41.932498" lon="9.201728">
        <ele>1743.4</ele>
        <time>2022-09-15T09:52:41Z</time>
      </trkpt>
      <trkpt lat="41.932468" lon="9.201675">
        <ele>1744.2</ele>
        <time>2022-09-15T09:52:46Z</time>
      </trkpt>
      <trkpt lat="41.93229" lon="9.201657">
        <ele>1748.4</ele>
        <time>2022-09-15T09:53:16Z</time>
      </trkpt>
      <trkpt lat="41.932273" lon="9.201645">
        <ele>1748.2</ele>
        <time>2022-09-15T09:53:18Z</time>
      </trkpt>
      <trkpt lat="41.932263" lon="9.20161">
        <ele>1748.0</ele>
        <time>2022-09-15T09:53:21Z</time>
      </trkpt>
      <trkpt lat="41.932257" lon="9.201552">
        <ele>1747.8</ele>
        <time>2022-09-15T09:53:25Z</time>
      </trkpt>
      <trkpt lat="41.932273" lon="9.201483">
        <ele>1747.8</ele>
        <time>2022-09-15T09:53:32Z</time>
      </trkpt>
      <trkpt lat="41.932285" lon="9.20144">
        <ele>1749.6</ele>
        <time>2022-09-15T09:53:42Z</time>
      </trkpt>
      <trkpt lat="41.932258" lon="9.201388">
        <ele>1753.0</ele>
        <time>2022-09-15T09:53:49Z</time>
      </trkpt>
      <trkpt lat="41.932237" lon="9.201327">
        <ele>1752.4</ele>
        <time>2022-09-15T09:53:58Z</time>
      </trkpt>
      <trkpt lat="41.932233" lon="9.201322">
        <ele>1752.4</ele>
        <time>2022-09-15T09:53:58Z</time>
      </trkpt>
      <trkpt lat="41.932147" lon="9.201268">
        <ele>1748.6</ele>
        <time>2022-09-15T09:54:12Z</time>
      </trkpt>
      <trkpt lat="41.932097" lon="9.201273">
        <ele>1746.4</ele>
        <time>2022-09-15T09:54:21Z</time>
      </trkpt>
      <trkpt lat="41.932047" lon="9.201223">
        <ele>1744.2</ele>
        <time>2022-09-15T09:54:28Z</time>
      </trkpt>
      <trkpt lat="41.932002" lon="9.201188">
        <ele>1743.0</ele>
        <time>2022-09-15T09:54:34Z</time>
      </trkpt>
      <trkpt lat="41.931967" lon="9.201158">
        <ele>1742.6</ele>
        <time>2022-09-15T09:54:39Z</time>
      </trkpt>
      <trkpt lat="41.931927" lon="9.201068">
        <ele>1741.0</ele>
        <time>2022-09-15T09:54:48Z</time>
      </trkpt>
      <trkpt lat="41.931893" lon="9.200943">
        <ele>1737.6</ele>
        <time>2022-09-15T09:55:03Z</time>
      </trkpt>
      <trkpt lat="41.931863" lon="9.200903">
        <ele>1736.2</ele>
        <time>2022-09-15T09:55:17Z</time>
      </trkpt>
      <trkpt lat="41.931772" lon="9.200817">
        <ele>1738.2</ele>
        <time>2022-09-15T09:55:35Z</time>
      </trkpt>
      <trkpt lat="41.931765" lon="9.200807">
        <ele>1739.0</ele>
        <time>2022-09-15T09:55:36Z</time>
      </trkpt>
      <trkpt lat="41.931717" lon="9.200792">
        <ele>1739.6</ele>
        <time>2022-09-15T09:55:42Z</time>
      </trkpt>
      <trkpt lat="41.931682" lon="9.200837">
        <ele>1737.4</ele>
        <time>2022-09-15T09:55:49Z</time>
      </trkpt>
      <trkpt lat="41.93159" lon="9.200967">
        <ele>1732.4</ele>
        <time>2022-09-15T09:56:08Z</time>
      </trkpt>
      <trkpt lat="41.931567" lon="9.20096">
        <ele>1731.0</ele>
        <time>2022-09-15T09:56:10Z</time>
      </trkpt>
      <trkpt lat="41.93156" lon="9.200942">
        <ele>1729.8</ele>
        <time>2022-09-15T09:56:12Z</time>
      </trkpt>
      <trkpt lat="41.931458" lon="9.20083">
        <ele>1725.2</ele>
        <time>2022-09-15T09:56:30Z</time>
      </trkpt>
      <trkpt lat="41.931495" lon="9.200817">
        <ele>1724.2</ele>
        <time>2022-09-15T09:56:38Z</time>
      </trkpt>
      <trkpt lat="41.9315" lon="9.200773">
        <ele>1725.0</ele>
        <time>2022-09-15T09:56:54Z</time>
      </trkpt>
      <trkpt lat="41.931493" lon="9.200718">
        <ele>1729.2</ele>
        <time>2022-09-15T09:57:18Z</time>
      </trkpt>
      <trkpt lat="41.931487" lon="9.200725">
        <ele>1729.2</ele>
        <time>2022-09-15T09:57:18Z</time>
      </trkpt>
      <trkpt lat="41.931443" lon="9.200752">
        <ele>1730.8</ele>
        <time>2022-09-15T09:57:26Z</time>
      </trkpt>
      <trkpt lat="41.931385" lon="9.200732">
        <ele>1736.2</ele>
        <time>2022-09-15T09:57:46Z</time>
      </trkpt>
      <trkpt lat="41.931362" lon="9.200645">
        <ele>1738.2</ele>
        <time>2022-09-15T09:58:14Z</time>
      </trkpt>
      <trkpt lat="41.931353" lon="9.200642">
        <ele>1738.2</ele>
        <time>2022-09-15T09:58:15Z</time>
      </trkpt>
      <trkpt lat="41.931277" lon="9.200518">
        <ele>1734.8</ele>
        <time>2022-09-15T09:58:23Z</time>
      </trkpt>
      <trkpt lat="41.931205" lon="9.200422">
        <ele>1735.0</ele>
        <time>2022-09-15T09:58:29Z</time>
      </trkpt>
      <trkpt lat="41.931152" lon="9.200372">
        <ele>1735.2</ele>
        <time>2022-09-15T09:58:33Z</time>
      </trkpt>
      <trkpt lat="41.931108" lon="9.200347">
        <ele>1735.2</ele>
        <time>2022-09-15T09:58:36Z</time>
      </trkpt>
      <trkpt lat="41.931015" lon="9.200317">
        <ele>1734.2</ele>
        <time>2022-09-15T09:58:43Z</time>
      </trkpt>
      <trkpt lat="41.931003" lon="9.200303">
        <ele>1734.0</ele>
        <time>2022-09-15T09:58:44Z</time>
      </trkpt>
      <trkpt lat="41.930927" lon="9.200242">
        <ele>1734.2</ele>
        <time>2022-09-15T09:58:55Z</time>
      </trkpt>
      <trkpt lat="41.930872" lon="9.200205">
        <ele>1734.8</ele>
        <time>2022-09-15T09:59:04Z</time>
      </trkpt>
      <trkpt lat="41.930808" lon="9.200158">
        <ele>1736.0</ele>
        <time>2022-09-15T09:59:13Z</time>
      </trkpt>
      <trkpt lat="41.930713" lon="9.200113">
        <ele>1734.8</ele>
        <time>2022-09-15T09:59:25Z</time>
      </trkpt>
      <trkpt lat="41.930615" lon="9.200093">
        <ele>1734.4</ele>
        <time>2022-09-15T09:59:38Z</time>
      </trkpt>
      <trkpt lat="41.930572" lon="9.200093">
        <ele>1735.0</ele>
        <time>2022-09-15T09:59:44Z</time>
      </trkpt>
      <trkpt lat="41.930553" lon="9.200062">
        <ele>1734.6</ele>
        <time>2022-09-15T09:59:50Z</time>
      </trkpt>
      <trkpt lat="41.930533" lon="9.199957">
        <ele>1740.6</ele>
        <time>2022-09-15T10:00:21Z</time>
      </trkpt>
      <trkpt lat="41.930545" lon="9.199928">
        <ele>1737.8</ele>
        <time>2022-09-15T10:00:36Z</time>
      </trkpt>
      <trkpt lat="41.930582" lon="9.199888">
        <ele>1736.4</ele>
        <time>2022-09-15T10:00:55Z</time>
      </trkpt>
      <trkpt lat="41.93058" lon="9.199878">
        <ele>1736.4</ele>
        <time>2022-09-15T10:00:57Z</time>
      </trkpt>
      <trkpt lat="41.930557" lon="9.199873">
        <ele>1734.8</ele>
        <time>2022-09-15T10:01:09Z</time>
      </trkpt>
      <trkpt lat="41.930523" lon="9.199908">
        <ele>1731.8</ele>
        <time>2022-09-15T10:01:23Z</time>
      </trkpt>
      <trkpt lat="41.930483" lon="9.19991">
        <ele>1730.0</ele>
        <time>2022-09-15T10:01:32Z</time>
      </trkpt>
      <trkpt lat="41.930442" lon="9.199918">
        <ele>1728.8</ele>
        <time>2022-09-15T10:01:40Z</time>
      </trkpt>
      <trkpt lat="41.930432" lon="9.199877">
        <ele>1728.2</ele>
        <time>2022-09-15T10:01:44Z</time>
      </trkpt>
      <trkpt lat="41.930432" lon="9.199812">
        <ele>1728.4</ele>
        <time>2022-09-15T10:01:50Z</time>
      </trkpt>
      <trkpt lat="41.930357" lon="9.199745">
        <ele>1729.8</ele>
        <time>2022-09-15T10:02:01Z</time>
      </trkpt>
      <trkpt lat="41.93033" lon="9.199713">
        <ele>1731.0</ele>
        <time>2022-09-15T10:02:06Z</time>
      </trkpt>
      <trkpt lat="41.930297" lon="9.199683">
        <ele>1731.8</ele>
        <time>2022-09-15T10:02:12Z</time>
      </trkpt>
      <trkpt lat="41.930268" lon="9.199665">
        <ele>1732.0</ele>
        <time>2022-09-15T10:02:17Z</time>
      </trkpt>
      <trkpt lat="41.930223" lon="9.199647">
        <ele>1733.4</ele>
        <time>2022-09-15T10:02:28Z</time>
      </trkpt>
      <trkpt lat="41.930235" lon="9.199597">
        <ele>1736.0</ele>
        <time>2022-09-15T10:02:43Z</time>
      </trkpt>
      <trkpt lat="41.930215" lon="9.199622">
        <ele>1737.2</ele>
        <time>2022-09-15T10:03:11Z</time>
      </trkpt>
      <trkpt lat="41.930178" lon="9.199612">
        <ele>1736.0</ele>
        <time>2022-09-15T10:03:29Z</time>
      </trkpt>
      <trkpt lat="41.930172" lon="9.199615">
        <ele>1736.0</ele>
        <time>2022-09-15T10:03:30Z</time>
      </trkpt>
      <trkpt lat="41.930147" lon="9.199623">
        <ele>1735.0</ele>
        <time>2022-09-15T10:03:34Z</time>
      </trkpt>
      <trkpt lat="41.9301" lon="9.199605">
        <ele>1733.8</ele>
        <time>2022-09-15T10:03:38Z</time>
      </trkpt>
      <trkpt lat="41.93011" lon="9.199542">
        <ele>1733.8</ele>
        <time>2022-09-15T10:03:42Z</time>
      </trkpt>
      <trkpt lat="41.930135" lon="9.199455">
        <ele>1733.2</ele>
        <time>2022-09-15T10:03:47Z</time>
      </trkpt>
      <trkpt lat="41.930123" lon="9.199398">
        <ele>1733.2</ele>
        <time>2022-09-15T10:03:50Z</time>
      </trkpt>
      <trkpt lat="41.930095" lon="9.199335">
        <ele>1733.6</ele>
        <time>2022-09-15T10:03:54Z</time>
      </trkpt>
      <trkpt lat="41.93003" lon="9.199233">
        <ele>1733.4</ele>
        <time>2022-09-15T10:04:02Z</time>
      </trkpt>
      <trkpt lat="41.929958" lon="9.199233">
        <ele>1732.4</ele>
        <time>2022-09-15T10:04:08Z</time>
      </trkpt>
      <trkpt lat="41.92988" lon="9.199162">
        <ele>1731.6</ele>
        <time>2022-09-15T10:04:20Z</time>
      </trkpt>
      <trkpt lat="41.92987" lon="9.199152">
        <ele>1731.8</ele>
        <time>2022-09-15T10:04:21Z</time>
      </trkpt>
      <trkpt lat="41.929882" lon="9.199118">
        <ele>1732.0</ele>
        <time>2022-09-15T10:04:25Z</time>
      </trkpt>
      <trkpt lat="41.929927" lon="9.199078">
        <ele>1732.0</ele>
        <time>2022-09-15T10:04:30Z</time>
      </trkpt>
      <trkpt lat="41.930002" lon="9.199012">
        <ele>1731.6</ele>
        <time>2022-09-15T10:04:42Z</time>
      </trkpt>
      <trkpt lat="41.930017" lon="9.198947">
        <ele>1734.8</ele>
        <time>2022-09-15T10:04:48Z</time>
      </trkpt>
      <trkpt lat="41.93002" lon="9.19889">
        <ele>1738.8</ele>
        <time>2022-09-15T10:04:53Z</time>
      </trkpt>
      <trkpt lat="41.930003" lon="9.19886">
        <ele>1737.6</ele>
        <time>2022-09-15T10:04:57Z</time>
      </trkpt>
      <trkpt lat="41.92994" lon="9.198868">
        <ele>1736.8</ele>
        <time>2022-09-15T10:05:07Z</time>
      </trkpt>
      <trkpt lat="41.929867" lon="9.1989">
        <ele>1738.8</ele>
        <time>2022-09-15T10:05:19Z</time>
      </trkpt>
      <trkpt lat="41.929818" lon="9.198918">
        <ele>1740.4</ele>
        <time>2022-09-15T10:05:27Z</time>
      </trkpt>
      <trkpt lat="41.92979" lon="9.198843">
        <ele>1742.8</ele>
        <time>2022-09-15T10:05:34Z</time>
      </trkpt>
      <trkpt lat="41.929773" lon="9.198812">
        <ele>1743.8</ele>
        <time>2022-09-15T10:05:39Z</time>
      </trkpt>
      <trkpt lat="41.92972" lon="9.198828">
        <ele>1740.4</ele>
        <time>2022-09-15T10:05:50Z</time>
      </trkpt>
      <trkpt lat="41.929715" lon="9.198823">
        <ele>1740.0</ele>
        <time>2022-09-15T10:05:51Z</time>
      </trkpt>
      <trkpt lat="41.92964" lon="9.198732">
        <ele>1737.8</ele>
        <time>2022-09-15T10:06:01Z</time>
      </trkpt>
      <trkpt lat="41.929595" lon="9.198585">
        <ele>1736.4</ele>
        <time>2022-09-15T10:06:12Z</time>
      </trkpt>
      <trkpt lat="41.929543" lon="9.198425">
        <ele>1738.4</ele>
        <time>2022-09-15T10:06:24Z</time>
      </trkpt>
      <trkpt lat="41.929517" lon="9.198365">
        <ele>1737.6</ele>
        <time>2022-09-15T10:06:28Z</time>
      </trkpt>
      <trkpt lat="41.929457" lon="9.198232">
        <ele>1740.0</ele>
        <time>2022-09-15T10:06:42Z</time>
      </trkpt>
      <trkpt lat="41.92943" lon="9.198112">
        <ele>1746.0</ele>
        <time>2022-09-15T10:06:53Z</time>
      </trkpt>
      <trkpt lat="41.92933" lon="9.19801">
        <ele>1753.6</ele>
        <time>2022-09-15T10:07:08Z</time>
      </trkpt>
      <trkpt lat="41.929278" lon="9.197993">
        <ele>1749.6</ele>
        <time>2022-09-15T10:07:15Z</time>
      </trkpt>
      <trkpt lat="41.929172" lon="9.197937">
        <ele>1748.0</ele>
        <time>2022-09-15T10:07:30Z</time>
      </trkpt>
      <trkpt lat="41.929122" lon="9.197927">
        <ele>1747.4</ele>
        <time>2022-09-15T10:07:36Z</time>
      </trkpt>
      <trkpt lat="41.92907" lon="9.197908">
        <ele>1747.2</ele>
        <time>2022-09-15T10:07:42Z</time>
      </trkpt>
      <trkpt lat="41.929007" lon="9.19788">
        <ele>1747.2</ele>
        <time>2022-09-15T10:07:49Z</time>
      </trkpt>
      <trkpt lat="41.928937" lon="9.19787">
        <ele>1746.0</ele>
        <time>2022-09-15T10:07:57Z</time>
      </trkpt>
      <trkpt lat="41.928895" lon="9.197867">
        <ele>1746.4</ele>
        <time>2022-09-15T10:08:02Z</time>
      </trkpt>
      <trkpt lat="41.928785" lon="9.197767">
        <ele>1746.4</ele>
        <time>2022-09-15T10:08:17Z</time>
      </trkpt>
      <trkpt lat="41.928747" lon="9.197722">
        <ele>1746.8</ele>
        <time>2022-09-15T10:08:22Z</time>
      </trkpt>
      <trkpt lat="41.928703" lon="9.197742">
        <ele>1747.0</ele>
        <time>2022-09-15T10:08:27Z</time>
      </trkpt>
      <trkpt lat="41.92865" lon="9.197777">
        <ele>1747.0</ele>
        <time>2022-09-15T10:08:34Z</time>
      </trkpt>
      <trkpt lat="41.928645" lon="9.197762">
        <ele>1747.0</ele>
        <time>2022-09-15T10:08:34Z</time>
      </trkpt>
      <trkpt lat="41.928635" lon="9.197593">
        <ele>1749.8</ele>
        <time>2022-09-15T10:08:52Z</time>
      </trkpt>
      <trkpt lat="41.92858" lon="9.197435">
        <ele>1745.4</ele>
        <time>2022-09-15T10:10:27Z</time>
      </trkpt>
      <trkpt lat="41.928537" lon="9.197412">
        <ele>1745.4</ele>
        <time>2022-09-15T10:10:30Z</time>
      </trkpt>
      <trkpt lat="41.92849" lon="9.19734">
        <ele>1747.8</ele>
        <time>2022-09-15T10:11:40Z</time>
      </trkpt>
      <trkpt lat="41.928515" lon="9.197403">
        <ele>1744.0</ele>
        <time>2022-09-15T10:11:53Z</time>
      </trkpt>
      <trkpt lat="41.928517" lon="9.197448">
        <ele>1743.4</ele>
        <time>2022-09-15T10:11:58Z</time>
      </trkpt>
      <trkpt lat="41.928437" lon="9.197492">
        <ele>1744.2</ele>
        <time>2022-09-15T10:12:07Z</time>
      </trkpt>
      <trkpt lat="41.928452" lon="9.197552">
        <ele>1744.4</ele>
        <time>2022-09-15T10:12:18Z</time>
      </trkpt>
      <trkpt lat="41.928467" lon="9.19763">
        <ele>1740.2</ele>
        <time>2022-09-15T10:12:42Z</time>
      </trkpt>
      <trkpt lat="41.928463" lon="9.197615">
        <ele>1740.2</ele>
        <time>2022-09-15T10:12:43Z</time>
      </trkpt>
      <trkpt lat="41.928412" lon="9.19743">
        <ele>1740.4</ele>
        <time>2022-09-15T10:12:55Z</time>
      </trkpt>
      <trkpt lat="41.928385" lon="9.197348">
        <ele>1740.6</ele>
        <time>2022-09-15T10:12:58Z</time>
      </trkpt>
      <trkpt lat="41.928252" lon="9.197075">
        <ele>1740.4</ele>
        <time>2022-09-15T10:13:08Z</time>
      </trkpt>
      <trkpt lat="41.928172" lon="9.196925">
        <ele>1741.6</ele>
        <time>2022-09-15T10:13:15Z</time>
      </trkpt>
      <trkpt lat="41.928142" lon="9.196843">
        <ele>1742.2</ele>
        <time>2022-09-15T10:13:18Z</time>
      </trkpt>
      <trkpt lat="41.928097" lon="9.196683">
        <ele>1742.0</ele>
        <time>2022-09-15T10:13:24Z</time>
      </trkpt>
      <trkpt lat="41.928078" lon="9.196635">
        <ele>1743.0</ele>
        <time>2022-09-15T10:13:28Z</time>
      </trkpt>
      <trkpt lat="41.928022" lon="9.196502">
        <ele>1745.2</ele>
        <time>2022-09-15T10:13:41Z</time>
      </trkpt>
      <trkpt lat="41.927998" lon="9.196463">
        <ele>1746.8</ele>
        <time>2022-09-15T10:13:46Z</time>
      </trkpt>
      <trkpt lat="41.928027" lon="9.196363">
        <ele>1748.4</ele>
        <time>2022-09-15T10:13:57Z</time>
      </trkpt>
      <trkpt lat="41.928033" lon="9.196352">
        <ele>1750.8</ele>
        <time>2022-09-15T10:14:06Z</time>
      </trkpt>
      <trkpt lat="41.927993" lon="9.196355">
        <ele>1752.4</ele>
        <time>2022-09-15T10:14:11Z</time>
      </trkpt>
      <trkpt lat="41.927972" lon="9.196347">
        <ele>1752.8</ele>
        <time>2022-09-15T10:14:14Z</time>
      </trkpt>
      <trkpt lat="41.927892" lon="9.196315">
        <ele>1750.8</ele>
        <time>2022-09-15T10:14:24Z</time>
      </trkpt>
      <trkpt lat="41.927815" lon="9.196247">
        <ele>1751.4</ele>
        <time>2022-09-15T10:14:36Z</time>
      </trkpt>
      <trkpt lat="41.92773" lon="9.196113">
        <ele>1753.6</ele>
        <time>2022-09-15T10:14:47Z</time>
      </trkpt>
      <trkpt lat="41.92762" lon="9.196033">
        <ele>1756.8</ele>
        <time>2022-09-15T10:15:00Z</time>
      </trkpt>
      <trkpt lat="41.927572" lon="9.196038">
        <ele>1757.6</ele>
        <time>2022-09-15T10:15:06Z</time>
      </trkpt>
      <trkpt lat="41.927482" lon="9.196062">
        <ele>1759.6</ele>
        <time>2022-09-15T10:15:20Z</time>
      </trkpt>
      <trkpt lat="41.927462" lon="9.196038">
        <ele>1760.2</ele>
        <time>2022-09-15T10:15:25Z</time>
      </trkpt>
      <trkpt lat="41.927437" lon="9.196015">
        <ele>1762.2</ele>
        <time>2022-09-15T10:15:30Z</time>
      </trkpt>
      <trkpt lat="41.927417" lon="9.196027">
        <ele>1763.8</ele>
        <time>2022-09-15T10:15:34Z</time>
      </trkpt>
      <trkpt lat="41.927392" lon="9.196057">
        <ele>1765.2</ele>
        <time>2022-09-15T10:15:39Z</time>
      </trkpt>
      <trkpt lat="41.92737" lon="9.196065">
        <ele>1765.2</ele>
        <time>2022-09-15T10:15:42Z</time>
      </trkpt>
      <trkpt lat="41.92731" lon="9.196047">
        <ele>1761.6</ele>
        <time>2022-09-15T10:15:50Z</time>
      </trkpt>
      <trkpt lat="41.927245" lon="9.196012">
        <ele>1759.0</ele>
        <time>2022-09-15T10:15:59Z</time>
      </trkpt>
      <trkpt lat="41.927207" lon="9.195997">
        <ele>1758.6</ele>
        <time>2022-09-15T10:16:05Z</time>
      </trkpt>
      <trkpt lat="41.9272" lon="9.195985">
        <ele>1758.6</ele>
        <time>2022-09-15T10:16:06Z</time>
      </trkpt>
      <trkpt lat="41.92716" lon="9.19593">
        <ele>1760.2</ele>
        <time>2022-09-15T10:16:13Z</time>
      </trkpt>
      <trkpt lat="41.927062" lon="9.195812">
        <ele>1760.2</ele>
        <time>2022-09-15T10:16:27Z</time>
      </trkpt>
      <trkpt lat="41.92699" lon="9.19571">
        <ele>1761.8</ele>
        <time>2022-09-15T10:16:38Z</time>
      </trkpt>
      <trkpt lat="41.926985" lon="9.1957">
        <ele>1762.2</ele>
        <time>2022-09-15T10:16:39Z</time>
      </trkpt>
      <trkpt lat="41.926953" lon="9.195678">
        <ele>1762.6</ele>
        <time>2022-09-15T10:16:43Z</time>
      </trkpt>
      <trkpt lat="41.926885" lon="9.195658">
        <ele>1765.4</ele>
        <time>2022-09-15T10:16:52Z</time>
      </trkpt>
      <trkpt lat="41.926833" lon="9.195617">
        <ele>1767.6</ele>
        <time>2022-09-15T10:16:59Z</time>
      </trkpt>
      <trkpt lat="41.92679" lon="9.195588">
        <ele>1768.4</ele>
        <time>2022-09-15T10:17:05Z</time>
      </trkpt>
      <trkpt lat="41.926713" lon="9.195562">
        <ele>1768.6</ele>
        <time>2022-09-15T10:17:16Z</time>
      </trkpt>
      <trkpt lat="41.926665" lon="9.195553">
        <ele>1768.6</ele>
        <time>2022-09-15T10:17:23Z</time>
      </trkpt>
      <trkpt lat="41.926625" lon="9.195562">
        <ele>1768.4</ele>
        <time>2022-09-15T10:17:30Z</time>
      </trkpt>
      <trkpt lat="41.926338" lon="9.195477">
        <ele>1771.0</ele>
        <time>2022-09-15T10:17:59Z</time>
      </trkpt>
      <trkpt lat="41.926307" lon="9.195447">
        <ele>1770.4</ele>
        <time>2022-09-15T10:18:03Z</time>
      </trkpt>
      <trkpt lat="41.926275" lon="9.195387">
        <ele>1770.2</ele>
        <time>2022-09-15T10:18:09Z</time>
      </trkpt>
      <trkpt lat="41.926248" lon="9.195285">
        <ele>1770.2</ele>
        <time>2022-09-15T10:18:17Z</time>
      </trkpt>
      <trkpt lat="41.926232" lon="9.195177">
        <ele>1771.6</ele>
        <time>2022-09-15T10:18:26Z</time>
      </trkpt>
      <trkpt lat="41.92624" lon="9.194918">
        <ele>1776.0</ele>
        <time>2022-09-15T10:18:44Z</time>
      </trkpt>
      <trkpt lat="41.926263" lon="9.194757">
        <ele>1778.0</ele>
        <time>2022-09-15T10:18:58Z</time>
      </trkpt>
      <trkpt lat="41.926282" lon="9.194693">
        <ele>1778.6</ele>
        <time>2022-09-15T10:19:04Z</time>
      </trkpt>
      <trkpt lat="41.926253" lon="9.194612">
        <ele>1776.4</ele>
        <time>2022-09-15T10:19:12Z</time>
      </trkpt>
      <trkpt lat="41.926218" lon="9.194523">
        <ele>1776.6</ele>
        <time>2022-09-15T10:19:21Z</time>
      </trkpt>
      <trkpt lat="41.926207" lon="9.1945">
        <ele>1777.2</ele>
        <time>2022-09-15T10:19:22Z</time>
      </trkpt>
      <trkpt lat="41.926155" lon="9.194462">
        <ele>1778.2</ele>
        <time>2022-09-15T10:19:27Z</time>
      </trkpt>
      <trkpt lat="41.926018" lon="9.19431">
        <ele>1776.4</ele>
        <time>2022-09-15T10:19:43Z</time>
      </trkpt>
      <trkpt lat="41.925935" lon="9.194277">
        <ele>1776.8</ele>
        <time>2022-09-15T10:19:51Z</time>
      </trkpt>
      <trkpt lat="41.925853" lon="9.194232">
        <ele>1776.8</ele>
        <time>2022-09-15T10:20:02Z</time>
      </trkpt>
      <trkpt lat="41.925645" lon="9.19417">
        <ele>1779.6</ele>
        <time>2022-09-15T10:20:23Z</time>
      </trkpt>
      <trkpt lat="41.925628" lon="9.194158">
        <ele>1780.0</ele>
        <time>2022-09-15T10:20:25Z</time>
      </trkpt>
      <trkpt lat="41.925572" lon="9.194095">
        <ele>1780.8</ele>
        <time>2022-09-15T10:20:34Z</time>
      </trkpt>
      <trkpt lat="41.925508" lon="9.19402">
        <ele>1782.2</ele>
        <time>2022-09-15T10:20:44Z</time>
      </trkpt>
      <trkpt lat="41.925398" lon="9.193905">
        <ele>1786.0</ele>
        <time>2022-09-15T10:21:04Z</time>
      </trkpt>
      <trkpt lat="41.925382" lon="9.193885">
        <ele>1786.4</ele>
        <time>2022-09-15T10:21:07Z</time>
      </trkpt>
      <trkpt lat="41.925335" lon="9.19381">
        <ele>1787.4</ele>
        <time>2022-09-15T10:21:16Z</time>
      </trkpt>
      <trkpt lat="41.92533" lon="9.19362">
        <ele>1791.6</ele>
        <time>2022-09-15T10:21:38Z</time>
      </trkpt>
      <trkpt lat="41.925255" lon="9.193575">
        <ele>1793.0</ele>
        <time>2022-09-15T10:21:46Z</time>
      </trkpt>
      <trkpt lat="41.925223" lon="9.193537">
        <ele>1793.2</ele>
        <time>2022-09-15T10:21:52Z</time>
      </trkpt>
      <trkpt lat="41.925145" lon="9.193495">
        <ele>1793.0</ele>
        <time>2022-09-15T10:22:04Z</time>
      </trkpt>
      <trkpt lat="41.925108" lon="9.193468">
        <ele>1794.4</ele>
        <time>2022-09-15T10:22:08Z</time>
      </trkpt>
      <trkpt lat="41.92502" lon="9.193388">
        <ele>1797.8</ele>
        <time>2022-09-15T10:22:18Z</time>
      </trkpt>
      <trkpt lat="41.924932" lon="9.193305">
        <ele>1797.8</ele>
        <time>2022-09-15T10:22:29Z</time>
      </trkpt>
      <trkpt lat="41.924892" lon="9.193268">
        <ele>1798.6</ele>
        <time>2022-09-15T10:22:35Z</time>
      </trkpt>
      <trkpt lat="41.924877" lon="9.193252">
        <ele>1798.2</ele>
        <time>2022-09-15T10:22:37Z</time>
      </trkpt>
      <trkpt lat="41.924845" lon="9.193228">
        <ele>1797.4</ele>
        <time>2022-09-15T10:22:40Z</time>
      </trkpt>
      <trkpt lat="41.924785" lon="9.193112">
        <ele>1796.4</ele>
        <time>2022-09-15T10:22:57Z</time>
      </trkpt>
      <trkpt lat="41.924648" lon="9.193083">
        <ele>1795.8</ele>
        <time>2022-09-15T10:23:13Z</time>
      </trkpt>
      <trkpt lat="41.924625" lon="9.193087">
        <ele>1795.8</ele>
        <time>2022-09-15T10:23:18Z</time>
      </trkpt>
      <trkpt lat="41.92459" lon="9.193072">
        <ele>1795.2</ele>
        <time>2022-09-15T10:23:24Z</time>
      </trkpt>
      <trkpt lat="41.924582" lon="9.193022">
        <ele>1796.2</ele>
        <time>2022-09-15T10:23:53Z</time>
      </trkpt>
      <trkpt lat="41.9246" lon="9.192928">
        <ele>1790.8</ele>
        <time>2022-09-15T10:24:30Z</time>
      </trkpt>
      <trkpt lat="41.924633" lon="9.192787">
        <ele>1786.6</ele>
        <time>2022-09-15T10:25:28Z</time>
      </trkpt>
      <trkpt lat="41.92459" lon="9.192795">
        <ele>1785.6</ele>
        <time>2022-09-15T10:26:05Z</time>
      </trkpt>
      <trkpt lat="41.924542" lon="9.192715">
        <ele>1786.2</ele>
        <time>2022-09-15T10:26:15Z</time>
      </trkpt>
      <trkpt lat="41.92434" lon="9.192522">
        <ele>1786.8</ele>
        <time>2022-09-15T10:26:25Z</time>
      </trkpt>
      <trkpt lat="41.92431" lon="9.192482">
        <ele>1787.2</ele>
        <time>2022-09-15T10:26:27Z</time>
      </trkpt>
      <trkpt lat="41.924267" lon="9.192438">
        <ele>1787.6</ele>
        <time>2022-09-15T10:26:32Z</time>
      </trkpt>
      <trkpt lat="41.92419" lon="9.192273">
        <ele>1789.6</ele>
        <time>2022-09-15T10:26:45Z</time>
      </trkpt>
      <trkpt lat="41.92416" lon="9.192237">
        <ele>1790.2</ele>
        <time>2022-09-15T10:26:48Z</time>
      </trkpt>
      <trkpt lat="41.92413" lon="9.192225">
        <ele>1791.0</ele>
        <time>2022-09-15T10:26:50Z</time>
      </trkpt>
      <trkpt lat="41.92411" lon="9.192223">
        <ele>1792.0</ele>
        <time>2022-09-15T10:26:54Z</time>
      </trkpt>
      <trkpt lat="41.924075" lon="9.192175">
        <ele>1797.8</ele>
        <time>2022-09-15T10:27:07Z</time>
      </trkpt>
      <trkpt lat="41.92407" lon="9.19217">
        <ele>1798.8</ele>
        <time>2022-09-15T10:27:09Z</time>
      </trkpt>
      <trkpt lat="41.924032" lon="9.19213">
        <ele>1799.2</ele>
        <time>2022-09-15T10:27:18Z</time>
      </trkpt>
      <trkpt lat="41.923933" lon="9.191847">
        <ele>1798.0</ele>
        <time>2022-09-15T10:27:50Z</time>
      </trkpt>
      <trkpt lat="41.923888" lon="9.191833">
        <ele>1799.0</ele>
        <time>2022-09-15T10:27:55Z</time>
      </trkpt>
      <trkpt lat="41.92386" lon="9.191817">
        <ele>1798.8</ele>
        <time>2022-09-15T10:27:58Z</time>
      </trkpt>
      <trkpt lat="41.923773" lon="9.19183">
        <ele>1796.8</ele>
        <time>2022-09-15T10:28:11Z</time>
      </trkpt>
      <trkpt lat="41.923717" lon="9.191773">
        <ele>1793.2</ele>
        <time>2022-09-15T10:28:19Z</time>
      </trkpt>
      <trkpt lat="41.923703" lon="9.19176">
        <ele>1793.6</ele>
        <time>2022-09-15T10:28:21Z</time>
      </trkpt>
      <trkpt lat="41.92371" lon="9.191735">
        <ele>1794.8</ele>
        <time>2022-09-15T10:28:25Z</time>
      </trkpt>
      <trkpt lat="41.923653" lon="9.191707">
        <ele>1795.2</ele>
        <time>2022-09-15T10:28:36Z</time>
      </trkpt>
      <trkpt lat="41.92359" lon="9.191685">
        <ele>1794.8</ele>
        <time>2022-09-15T10:28:45Z</time>
      </trkpt>
      <trkpt lat="41.923518" lon="9.19163">
        <ele>1793.4</ele>
        <time>2022-09-15T10:28:58Z</time>
      </trkpt>
      <trkpt lat="41.923508" lon="9.191623">
        <ele>1792.6</ele>
        <time>2022-09-15T10:29:00Z</time>
      </trkpt>
      <trkpt lat="41.923423" lon="9.191615">
        <ele>1791.4</ele>
        <time>2022-09-15T10:29:10Z</time>
      </trkpt>
      <trkpt lat="41.923408" lon="9.191552">
        <ele>1791.8</ele>
        <time>2022-09-15T10:29:18Z</time>
      </trkpt>
      <trkpt lat="41.923387" lon="9.191513">
        <ele>1794.0</ele>
        <time>2022-09-15T10:29:33Z</time>
      </trkpt>
      <trkpt lat="41.92326" lon="9.191495">
        <ele>1793.2</ele>
        <time>2022-09-15T10:29:51Z</time>
      </trkpt>
      <trkpt lat="41.923227" lon="9.19136">
        <ele>1798.2</ele>
        <time>2022-09-15T10:30:08Z</time>
      </trkpt>
      <trkpt lat="41.923208" lon="9.191287">
        <ele>1799.6</ele>
        <time>2022-09-15T10:30:17Z</time>
      </trkpt>
      <trkpt lat="41.92315" lon="9.191208">
        <ele>1798.2</ele>
        <time>2022-09-15T10:30:32Z</time>
      </trkpt>
      <trkpt lat="41.92315" lon="9.191202">
        <ele>1798.0</ele>
        <time>2022-09-15T10:30:34Z</time>
      </trkpt>
      <trkpt lat="41.923132" lon="9.191182">
        <ele>1798.2</ele>
        <time>2022-09-15T10:30:40Z</time>
      </trkpt>
      <trkpt lat="41.923147" lon="9.191117">
        <ele>1799.0</ele>
        <time>2022-09-15T10:30:51Z</time>
      </trkpt>
      <trkpt lat="41.923088" lon="9.191102">
        <ele>1798.6</ele>
        <time>2022-09-15T10:31:01Z</time>
      </trkpt>
      <trkpt lat="41.923068" lon="9.191087">
        <ele>1799.0</ele>
        <time>2022-09-15T10:31:05Z</time>
      </trkpt>
      <trkpt lat="41.923063" lon="9.191053">
        <ele>1800.6</ele>
        <time>2022-09-15T10:31:11Z</time>
      </trkpt>
      <trkpt lat="41.923075" lon="9.191017">
        <ele>1800.0</ele>
        <time>2022-09-15T10:31:19Z</time>
      </trkpt>
      <trkpt lat="41.923072" lon="9.191">
        <ele>1801.6</ele>
        <time>2022-09-15T10:31:29Z</time>
      </trkpt>
      <trkpt lat="41.923048" lon="9.190997">
        <ele>1800.8</ele>
        <time>2022-09-15T10:31:42Z</time>
      </trkpt>
      <trkpt lat="41.923032" lon="9.190993">
        <ele>1803.2</ele>
        <time>2022-09-15T10:31:52Z</time>
      </trkpt>
      <trkpt lat="41.923023" lon="9.19098">
        <ele>1802.8</ele>
        <time>2022-09-15T10:31:54Z</time>
      </trkpt>
      <trkpt lat="41.922998" lon="9.190927">
        <ele>1802.4</ele>
        <time>2022-09-15T10:31:57Z</time>
      </trkpt>
      <trkpt lat="41.922987" lon="9.190882">
        <ele>1802.0</ele>
        <time>2022-09-15T10:31:59Z</time>
      </trkpt>
      <trkpt lat="41.922988" lon="9.190795">
        <ele>1801.2</ele>
        <time>2022-09-15T10:32:03Z</time>
      </trkpt>
      <trkpt lat="41.922972" lon="9.190762">
        <ele>1800.2</ele>
        <time>2022-09-15T10:32:05Z</time>
      </trkpt>
      <trkpt lat="41.922898" lon="9.190668">
        <ele>1798.2</ele>
        <time>2022-09-15T10:32:12Z</time>
      </trkpt>
      <trkpt lat="41.922848" lon="9.19063">
        <ele>1797.0</ele>
        <time>2022-09-15T10:32:16Z</time>
      </trkpt>
      <trkpt lat="41.922812" lon="9.190617">
        <ele>1794.6</ele>
        <time>2022-09-15T10:32:19Z</time>
      </trkpt>
      <trkpt lat="41.922782" lon="9.190685">
        <ele>1792.4</ele>
        <time>2022-09-15T10:32:26Z</time>
      </trkpt>
      <trkpt lat="41.922755" lon="9.190712">
        <ele>1792.8</ele>
        <time>2022-09-15T10:32:30Z</time>
      </trkpt>
      <trkpt lat="41.922735" lon="9.190648">
        <ele>1792.0</ele>
        <time>2022-09-15T10:32:38Z</time>
      </trkpt>
      <trkpt lat="41.922757" lon="9.190607">
        <ele>1791.6</ele>
        <time>2022-09-15T10:32:42Z</time>
      </trkpt>
      <trkpt lat="41.92278" lon="9.190602">
        <ele>1792.4</ele>
        <time>2022-09-15T10:32:45Z</time>
      </trkpt>
      <trkpt lat="41.922792" lon="9.19062">
        <ele>1793.8</ele>
        <time>2022-09-15T10:32:48Z</time>
      </trkpt>
      <trkpt lat="41.922782" lon="9.190637">
        <ele>1793.8</ele>
        <time>2022-09-15T10:32:51Z</time>
      </trkpt>
      <trkpt lat="41.922693" lon="9.190692">
        <ele>1789.6</ele>
        <time>2022-09-15T10:33:07Z</time>
      </trkpt>
      <trkpt lat="41.922685" lon="9.190713">
        <ele>1789.6</ele>
        <time>2022-09-15T10:33:10Z</time>
      </trkpt>
      <trkpt lat="41.922602" lon="9.19055">
        <ele>1790.0</ele>
        <time>2022-09-15T10:33:25Z</time>
      </trkpt>
      <trkpt lat="41.92254" lon="9.190352">
        <ele>1789.8</ele>
        <time>2022-09-15T10:33:40Z</time>
      </trkpt>
      <trkpt lat="41.922488" lon="9.190233">
        <ele>1791.0</ele>
        <time>2022-09-15T10:33:50Z</time>
      </trkpt>
      <trkpt lat="41.922382" lon="9.190288">
        <ele>1791.8</ele>
        <time>2022-09-15T10:34:07Z</time>
      </trkpt>
      <trkpt lat="41.92231" lon="9.190282">
        <ele>1794.2</ele>
        <time>2022-09-15T10:34:18Z</time>
      </trkpt>
      <trkpt lat="41.922283" lon="9.190295">
        <ele>1795.6</ele>
        <time>2022-09-15T10:34:22Z</time>
      </trkpt>
      <trkpt lat="41.922043" lon="9.190253">
        <ele>1805.8</ele>
        <time>2022-09-15T10:34:59Z</time>
      </trkpt>
      <trkpt lat="41.922057" lon="9.190258">
        <ele>1807.6</ele>
        <time>2022-09-15T10:35:02Z</time>
      </trkpt>
      <trkpt lat="41.92208" lon="9.190312">
        <ele>1808.8</ele>
        <time>2022-09-15T10:35:10Z</time>
      </trkpt>
      <trkpt lat="41.9221" lon="9.19035">
        <ele>1808.8</ele>
        <time>2022-09-15T10:35:13Z</time>
      </trkpt>
      <trkpt lat="41.922128" lon="9.19046">
        <ele>1808.0</ele>
        <time>2022-09-15T10:35:46Z</time>
      </trkpt>
      <trkpt lat="41.92213" lon="9.190465">
        <ele>1808.0</ele>
        <time>2022-09-15T10:35:47Z</time>
      </trkpt>
      <trkpt lat="41.92206" lon="9.190445">
        <ele>1810.0</ele>
        <time>2022-09-15T10:36:00Z</time>
      </trkpt>
      <trkpt lat="41.922045" lon="9.19038">
        <ele>1810.8</ele>
        <time>2022-09-15T10:36:06Z</time>
      </trkpt>
      <trkpt lat="41.922033" lon="9.190302">
        <ele>1811.0</ele>
        <time>2022-09-15T10:36:11Z</time>
      </trkpt>
      <trkpt lat="41.92185" lon="9.19009">
        <ele>1833.8</ele>
        <time>2022-09-15T10:36:40Z</time>
      </trkpt>
      <trkpt lat="41.921842" lon="9.190077">
        <ele>1833.8</ele>
        <time>2022-09-15T10:36:41Z</time>
      </trkpt>
      <trkpt lat="41.921812" lon="9.189978">
        <ele>1825.8</ele>
        <time>2022-09-15T10:36:51Z</time>
      </trkpt>
      <trkpt lat="41.921777" lon="9.189907">
        <ele>1825.0</ele>
        <time>2022-09-15T10:37:01Z</time>
      </trkpt>
      <trkpt lat="41.921713" lon="9.18987">
        <ele>1826.0</ele>
        <time>2022-09-15T10:37:11Z</time>
      </trkpt>
      <trkpt lat="41.921663" lon="9.189847">
        <ele>1826.0</ele>
        <time>2022-09-15T10:37:18Z</time>
      </trkpt>
      <trkpt lat="41.92163" lon="9.189688">
        <ele>1826.6</ele>
        <time>2022-09-15T10:37:32Z</time>
      </trkpt>
      <trkpt lat="41.921637" lon="9.189617">
        <ele>1826.4</ele>
        <time>2022-09-15T10:37:38Z</time>
      </trkpt>
      <trkpt lat="41.921595" lon="9.189525">
        <ele>1826.0</ele>
        <time>2022-09-15T10:37:47Z</time>
      </trkpt>
      <trkpt lat="41.921587" lon="9.189515">
        <ele>1826.6</ele>
        <time>2022-09-15T10:37:48Z</time>
      </trkpt>
      <trkpt lat="41.921523" lon="9.189487">
        <ele>1826.8</ele>
        <time>2022-09-15T10:37:57Z</time>
      </trkpt>
      <trkpt lat="41.92143" lon="9.189487">
        <ele>1825.8</ele>
        <time>2022-09-15T10:38:10Z</time>
      </trkpt>
      <trkpt lat="41.921415" lon="9.189512">
        <ele>1827.4</ele>
        <time>2022-09-15T10:39:04Z</time>
      </trkpt>
      <trkpt lat="41.921415" lon="9.189552">
        <ele>1826.6</ele>
        <time>2022-09-15T10:39:34Z</time>
      </trkpt>
      <trkpt lat="41.921407" lon="9.189535">
        <ele>1827.0</ele>
        <time>2022-09-15T10:40:43Z</time>
      </trkpt>
      <trkpt lat="41.921347" lon="9.189417">
        <ele>1829.2</ele>
        <time>2022-09-15T10:40:58Z</time>
      </trkpt>
      <trkpt lat="41.921342" lon="9.189298">
        <ele>1829.0</ele>
        <time>2022-09-15T10:41:04Z</time>
      </trkpt>
      <trkpt lat="41.921293" lon="9.189237">
        <ele>1828.4</ele>
        <time>2022-09-15T10:41:08Z</time>
      </trkpt>
      <trkpt lat="41.9212" lon="9.189182">
        <ele>1829.6</ele>
        <time>2022-09-15T10:41:15Z</time>
      </trkpt>
      <trkpt lat="41.921213" lon="9.189113">
        <ele>1830.6</ele>
        <time>2022-09-15T10:41:22Z</time>
      </trkpt>
      <trkpt lat="41.921208" lon="9.189022">
        <ele>1830.2</ele>
        <time>2022-09-15T10:41:30Z</time>
      </trkpt>
      <trkpt lat="41.921248" lon="9.188958">
        <ele>1825.4</ele>
        <time>2022-09-15T10:41:35Z</time>
      </trkpt>
      <trkpt lat="41.92124" lon="9.18893">
        <ele>1825.0</ele>
        <time>2022-09-15T10:41:37Z</time>
      </trkpt>
      <trkpt lat="41.92122" lon="9.188898">
        <ele>1826.8</ele>
        <time>2022-09-15T10:41:40Z</time>
      </trkpt>
      <trkpt lat="41.92112" lon="9.188847">
        <ele>1825.4</ele>
        <time>2022-09-15T10:41:52Z</time>
      </trkpt>
      <trkpt lat="41.921107" lon="9.18883">
        <ele>1823.0</ele>
        <time>2022-09-15T10:41:54Z</time>
      </trkpt>
      <trkpt lat="41.921047" lon="9.188755">
        <ele>1820.4</ele>
        <time>2022-09-15T10:42:04Z</time>
      </trkpt>
      <trkpt lat="41.921028" lon="9.188727">
        <ele>1820.6</ele>
        <time>2022-09-15T10:42:08Z</time>
      </trkpt>
      <trkpt lat="41.921022" lon="9.188693">
        <ele>1820.4</ele>
        <time>2022-09-15T10:42:13Z</time>
      </trkpt>
      <trkpt lat="41.921065" lon="9.188608">
        <ele>1818.0</ele>
        <time>2022-09-15T10:42:25Z</time>
      </trkpt>
      <trkpt lat="41.921098" lon="9.188573">
        <ele>1814.2</ele>
        <time>2022-09-15T10:42:33Z</time>
      </trkpt>
      <trkpt lat="41.9211" lon="9.188532">
        <ele>1819.0</ele>
        <time>2022-09-15T10:42:41Z</time>
      </trkpt>
      <trkpt lat="41.921077" lon="9.188508">
        <ele>1819.4</ele>
        <time>2022-09-15T10:42:48Z</time>
      </trkpt>
      <trkpt lat="41.921063" lon="9.18849">
        <ele>1815.6</ele>
        <time>2022-09-15T10:42:53Z</time>
      </trkpt>
      <trkpt lat="41.921062" lon="9.188437">
        <ele>1814.2</ele>
        <time>2022-09-15T10:42:59Z</time>
      </trkpt>
      <trkpt lat="41.921038" lon="9.188297">
        <ele>1812.0</ele>
        <time>2022-09-15T10:43:14Z</time>
      </trkpt>
      <trkpt lat="41.921015" lon="9.188073">
        <ele>1810.0</ele>
        <time>2022-09-15T10:43:30Z</time>
      </trkpt>
      <trkpt lat="41.921003" lon="9.187908">
        <ele>1808.6</ele>
        <time>2022-09-15T10:43:49Z</time>
      </trkpt>
      <trkpt lat="41.920935" lon="9.18779">
        <ele>1806.2</ele>
        <time>2022-09-15T10:44:04Z</time>
      </trkpt>
      <trkpt lat="41.920848" lon="9.187668">
        <ele>1807.0</ele>
        <time>2022-09-15T10:44:16Z</time>
      </trkpt>
      <trkpt lat="41.92076" lon="9.187583">
        <ele>1809.4</ele>
        <time>2022-09-15T10:44:31Z</time>
      </trkpt>
      <trkpt lat="41.920688" lon="9.18751">
        <ele>1811.8</ele>
        <time>2022-09-15T10:44:44Z</time>
      </trkpt>
      <trkpt lat="41.920685" lon="9.1875">
        <ele>1812.6</ele>
        <time>2022-09-15T10:44:45Z</time>
      </trkpt>
      <trkpt lat="41.920653" lon="9.187432">
        <ele>1812.6</ele>
        <time>2022-09-15T10:44:52Z</time>
      </trkpt>
      <trkpt lat="41.920503" lon="9.187318">
        <ele>1816.4</ele>
        <time>2022-09-15T10:45:15Z</time>
      </trkpt>
      <trkpt lat="41.920472" lon="9.187298">
        <ele>1817.2</ele>
        <time>2022-09-15T10:45:19Z</time>
      </trkpt>
      <trkpt lat="41.92045" lon="9.187262">
        <ele>1819.4</ele>
        <time>2022-09-15T10:45:24Z</time>
      </trkpt>
      <trkpt lat="41.920438" lon="9.18719">
        <ele>1823.0</ele>
        <time>2022-09-15T10:45:33Z</time>
      </trkpt>
      <trkpt lat="41.92044" lon="9.187133">
        <ele>1819.4</ele>
        <time>2022-09-15T10:45:41Z</time>
      </trkpt>
      <trkpt lat="41.920442" lon="9.187093">
        <ele>1820.6</ele>
        <time>2022-09-15T10:45:46Z</time>
      </trkpt>
      <trkpt lat="41.920433" lon="9.187072">
        <ele>1819.8</ele>
        <time>2022-09-15T10:45:49Z</time>
      </trkpt>
      <trkpt lat="41.920405" lon="9.186998">
        <ele>1819.2</ele>
        <time>2022-09-15T10:45:58Z</time>
      </trkpt>
      <trkpt lat="41.920388" lon="9.18693">
        <ele>1818.2</ele>
        <time>2022-09-15T10:46:06Z</time>
      </trkpt>
      <trkpt lat="41.920385" lon="9.186908">
        <ele>1818.0</ele>
        <time>2022-09-15T10:46:09Z</time>
      </trkpt>
      <trkpt lat="41.920327" lon="9.186865">
        <ele>1818.0</ele>
        <time>2022-09-15T10:46:26Z</time>
      </trkpt>
      <trkpt lat="41.92028" lon="9.186795">
        <ele>1818.0</ele>
        <time>2022-09-15T10:46:36Z</time>
      </trkpt>
      <trkpt lat="41.920207" lon="9.18672">
        <ele>1818.2</ele>
        <time>2022-09-15T10:46:48Z</time>
      </trkpt>
      <trkpt lat="41.920105" lon="9.186558">
        <ele>1820.8</ele>
        <time>2022-09-15T10:47:08Z</time>
      </trkpt>
      <trkpt lat="41.920037" lon="9.186508">
        <ele>1819.0</ele>
        <time>2022-09-15T10:47:19Z</time>
      </trkpt>
      <trkpt lat="41.919967" lon="9.186502">
        <ele>1817.0</ele>
        <time>2022-09-15T10:47:28Z</time>
      </trkpt>
      <trkpt lat="41.919975" lon="9.186463">
        <ele>1816.6</ele>
        <time>2022-09-15T10:47:34Z</time>
      </trkpt>
      <trkpt lat="41.919948" lon="9.186443">
        <ele>1817.6</ele>
        <time>2022-09-15T10:47:43Z</time>
      </trkpt>
      <trkpt lat="41.91988" lon="9.186438">
        <ele>1814.8</ele>
        <time>2022-09-15T10:47:58Z</time>
      </trkpt>
      <trkpt lat="41.919823" lon="9.186447">
        <ele>1813.2</ele>
        <time>2022-09-15T10:48:09Z</time>
      </trkpt>
      <trkpt lat="41.91982" lon="9.186442">
        <ele>1813.6</ele>
        <time>2022-09-15T10:48:10Z</time>
      </trkpt>
      <trkpt lat="41.919863" lon="9.186412">
        <ele>1811.4</ele>
        <time>2022-09-15T10:48:17Z</time>
      </trkpt>
      <trkpt lat="41.919877" lon="9.18637">
        <ele>1809.4</ele>
        <time>2022-09-15T10:48:22Z</time>
      </trkpt>
      <trkpt lat="41.919893" lon="9.186403">
        <ele>1806.8</ele>
        <time>2022-09-15T10:48:33Z</time>
      </trkpt>
      <trkpt lat="41.919917" lon="9.18639">
        <ele>1805.0</ele>
        <time>2022-09-15T10:48:39Z</time>
      </trkpt>
      <trkpt lat="41.919928" lon="9.18635">
        <ele>1802.4</ele>
        <time>2022-09-15T10:48:46Z</time>
      </trkpt>
      <trkpt lat="41.919933" lon="9.186325">
        <ele>1802.0</ele>
        <time>2022-09-15T10:48:51Z</time>
      </trkpt>
      <trkpt lat="41.919907" lon="9.186295">
        <ele>1800.8</ele>
        <time>2022-09-15T10:48:57Z</time>
      </trkpt>
      <trkpt lat="41.91989" lon="9.186277">
        <ele>1799.4</ele>
        <time>2022-09-15T10:49:00Z</time>
      </trkpt>
      <trkpt lat="41.919792" lon="9.18623">
        <ele>1798.2</ele>
        <time>2022-09-15T10:49:16Z</time>
      </trkpt>
      <trkpt lat="41.919712" lon="9.186222">
        <ele>1804.8</ele>
        <time>2022-09-15T10:49:26Z</time>
      </trkpt>
      <trkpt lat="41.919677" lon="9.18621">
        <ele>1809.8</ele>
        <time>2022-09-15T10:49:30Z</time>
      </trkpt>
      <trkpt lat="41.919597" lon="9.186167">
        <ele>1810.6</ele>
        <time>2022-09-15T10:49:39Z</time>
      </trkpt>
      <trkpt lat="41.919563" lon="9.186173">
        <ele>1809.8</ele>
        <time>2022-09-15T10:49:42Z</time>
      </trkpt>
      <trkpt lat="41.919542" lon="9.186188">
        <ele>1808.4</ele>
        <time>2022-09-15T10:49:45Z</time>
      </trkpt>
      <trkpt lat="41.91947" lon="9.186248">
        <ele>1805.0</ele>
        <time>2022-09-15T10:49:52Z</time>
      </trkpt>
      <trkpt lat="41.91941" lon="9.186258">
        <ele>1803.4</ele>
        <time>2022-09-15T10:49:57Z</time>
      </trkpt>
      <trkpt lat="41.919393" lon="9.186255">
        <ele>1803.4</ele>
        <time>2022-09-15T10:49:58Z</time>
      </trkpt>
      <trkpt lat="41.919357" lon="9.186238">
        <ele>1801.6</ele>
        <time>2022-09-15T10:50:12Z</time>
      </trkpt>
      <trkpt lat="41.919348" lon="9.186233">
        <ele>1801.2</ele>
        <time>2022-09-15T10:50:15Z</time>
      </trkpt>
      <trkpt lat="41.919328" lon="9.18623">
        <ele>1801.4</ele>
        <time>2022-09-15T10:50:23Z</time>
      </trkpt>
      <trkpt lat="41.919285" lon="9.186243">
        <ele>1801.2</ele>
        <time>2022-09-15T10:50:35Z</time>
      </trkpt>
      <trkpt lat="41.919215" lon="9.186233">
        <ele>1802.6</ele>
        <time>2022-09-15T10:50:48Z</time>
      </trkpt>
      <trkpt lat="41.919192" lon="9.186208">
        <ele>1802.2</ele>
        <time>2022-09-15T10:50:53Z</time>
      </trkpt>
      <trkpt lat="41.91918" lon="9.186158">
        <ele>1802.8</ele>
        <time>2022-09-15T10:51:00Z</time>
      </trkpt>
      <trkpt lat="41.919195" lon="9.186127">
        <ele>1803.8</ele>
        <time>2022-09-15T10:51:04Z</time>
      </trkpt>
      <trkpt lat="41.919255" lon="9.18608">
        <ele>1806.2</ele>
        <time>2022-09-15T10:51:15Z</time>
      </trkpt>
      <trkpt lat="41.919303" lon="9.185988">
        <ele>1809.0</ele>
        <time>2022-09-15T10:51:52Z</time>
      </trkpt>
      <trkpt lat="41.9193" lon="9.185978">
        <ele>1809.0</ele>
        <time>2022-09-15T10:51:53Z</time>
      </trkpt>
      <trkpt lat="41.919268" lon="9.185943">
        <ele>1809.6</ele>
        <time>2022-09-15T10:52:01Z</time>
      </trkpt>
      <trkpt lat="41.919303" lon="9.185922">
        <ele>1811.0</ele>
        <time>2022-09-15T10:52:06Z</time>
      </trkpt>
      <trkpt lat="41.919355" lon="9.185842">
        <ele>1813.0</ele>
        <time>2022-09-15T10:52:22Z</time>
      </trkpt>
      <trkpt lat="41.919368" lon="9.185842">
        <ele>1813.0</ele>
        <time>2022-09-15T10:52:25Z</time>
      </trkpt>
      <trkpt lat="41.91937" lon="9.185835">
        <ele>1816.2</ele>
        <time>2022-09-15T10:52:46Z</time>
      </trkpt>
      <trkpt lat="41.9193" lon="9.185853">
        <ele>1824.6</ele>
        <time>2022-09-15T10:53:10Z</time>
      </trkpt>
      <trkpt lat="41.919232" lon="9.185877">
        <ele>1823.4</ele>
        <time>2022-09-15T10:53:20Z</time>
      </trkpt>
      <trkpt lat="41.919173" lon="9.185862">
        <ele>1824.4</ele>
        <time>2022-09-15T10:53:24Z</time>
      </trkpt>
      <trkpt lat="41.919142" lon="9.18581">
        <ele>1826.4</ele>
        <time>2022-09-15T10:53:29Z</time>
      </trkpt>
      <trkpt lat="41.919118" lon="9.1858">
        <ele>1827.2</ele>
        <time>2022-09-15T10:53:32Z</time>
      </trkpt>
      <trkpt lat="41.919072" lon="9.185817">
        <ele>1825.8</ele>
        <time>2022-09-15T10:53:39Z</time>
      </trkpt>
      <trkpt lat="41.919047" lon="9.185848">
        <ele>1829.2</ele>
        <time>2022-09-15T10:53:44Z</time>
      </trkpt>
      <trkpt lat="41.91902" lon="9.185832">
        <ele>1827.0</ele>
        <time>2022-09-15T10:53:51Z</time>
      </trkpt>
      <trkpt lat="41.919008" lon="9.185833">
        <ele>1827.8</ele>
        <time>2022-09-15T10:53:53Z</time>
      </trkpt>
      <trkpt lat="41.918967" lon="9.18584">
        <ele>1828.8</ele>
        <time>2022-09-15T10:53:58Z</time>
      </trkpt>
      <trkpt lat="41.918953" lon="9.18583">
        <ele>1829.4</ele>
        <time>2022-09-15T10:54:01Z</time>
      </trkpt>
      <trkpt lat="41.918827" lon="9.185812">
        <ele>1820.6</ele>
        <time>2022-09-15T10:54:26Z</time>
      </trkpt>
      <trkpt lat="41.918802" lon="9.185803">
        <ele>1819.8</ele>
        <time>2022-09-15T10:54:32Z</time>
      </trkpt>
      <trkpt lat="41.918778" lon="9.185777">
        <ele>1818.8</ele>
        <time>2022-09-15T10:54:40Z</time>
      </trkpt>
      <trkpt lat="41.91877" lon="9.18575">
        <ele>1819.0</ele>
        <time>2022-09-15T10:54:44Z</time>
      </trkpt>
      <trkpt lat="41.918763" lon="9.185635">
        <ele>1820.6</ele>
        <time>2022-09-15T10:54:59Z</time>
      </trkpt>
      <trkpt lat="41.91875" lon="9.185607">
        <ele>1820.8</ele>
        <time>2022-09-15T10:55:10Z</time>
      </trkpt>
      <trkpt lat="41.918732" lon="9.185592">
        <ele>1820.8</ele>
        <time>2022-09-15T10:55:16Z</time>
      </trkpt>
      <trkpt lat="41.918707" lon="9.185562">
        <ele>1820.6</ele>
        <time>2022-09-15T10:55:22Z</time>
      </trkpt>
      <trkpt lat="41.918675" lon="9.185508">
        <ele>1821.8</ele>
        <time>2022-09-15T10:55:28Z</time>
      </trkpt>
      <trkpt lat="41.918623" lon="9.185457">
        <ele>1821.6</ele>
        <time>2022-09-15T10:55:36Z</time>
      </trkpt>
      <trkpt lat="41.918575" lon="9.185395">
        <ele>1821.6</ele>
        <time>2022-09-15T10:55:49Z</time>
      </trkpt>
      <trkpt lat="41.918572" lon="9.185388">
        <ele>1822.2</ele>
        <time>2022-09-15T10:55:52Z</time>
      </trkpt>
      <trkpt lat="41.91859" lon="9.185338">
        <ele>1822.4</ele>
        <time>2022-09-15T10:56:04Z</time>
      </trkpt>
      <trkpt lat="41.918498" lon="9.185168">
        <ele>1824.0</ele>
        <time>2022-09-15T10:56:42Z</time>
      </trkpt>
      <trkpt lat="41.918462" lon="9.185117">
        <ele>1824.0</ele>
        <time>2022-09-15T10:56:48Z</time>
      </trkpt>
      <trkpt lat="41.918432" lon="9.185127">
        <ele>1832.2</ele>
        <time>2022-09-15T10:56:51Z</time>
      </trkpt>
      <trkpt lat="41.918365" lon="9.185097">
        <ele>1833.2</ele>
        <time>2022-09-15T10:57:01Z</time>
      </trkpt>
      <trkpt lat="41.918347" lon="9.185055">
        <ele>1831.4</ele>
        <time>2022-09-15T10:57:07Z</time>
      </trkpt>
      <trkpt lat="41.918333" lon="9.184998">
        <ele>1820.0</ele>
        <time>2022-09-15T10:57:15Z</time>
      </trkpt>
      <trkpt lat="41.918352" lon="9.184957">
        <ele>1815.4</ele>
        <time>2022-09-15T10:57:21Z</time>
      </trkpt>
      <trkpt lat="41.918327" lon="9.184835">
        <ele>1810.4</ele>
        <time>2022-09-15T10:57:39Z</time>
      </trkpt>
      <trkpt lat="41.91832" lon="9.184832">
        <ele>1810.0</ele>
        <time>2022-09-15T10:57:40Z</time>
      </trkpt>
      <trkpt lat="41.91829" lon="9.1848">
        <ele>1811.4</ele>
        <time>2022-09-15T10:57:47Z</time>
      </trkpt>
      <trkpt lat="41.918235" lon="9.184765">
        <ele>1831.0</ele>
        <time>2022-09-15T10:57:59Z</time>
      </trkpt>
      <trkpt lat="41.918213" lon="9.184765">
        <ele>1833.4</ele>
        <time>2022-09-15T10:58:03Z</time>
      </trkpt>
      <trkpt lat="41.918165" lon="9.184792">
        <ele>1830.8</ele>
        <time>2022-09-15T10:58:10Z</time>
      </trkpt>
      <trkpt lat="41.918087" lon="9.184778">
        <ele>1820.4</ele>
        <time>2022-09-15T10:58:20Z</time>
      </trkpt>
      <trkpt lat="41.91808" lon="9.184773">
        <ele>1821.0</ele>
        <time>2022-09-15T10:58:21Z</time>
      </trkpt>
      <trkpt lat="41.917963" lon="9.184702">
        <ele>1819.2</ele>
        <time>2022-09-15T10:58:33Z</time>
      </trkpt>
      <trkpt lat="41.917942" lon="9.184733">
        <ele>1816.6</ele>
        <time>2022-09-15T10:58:37Z</time>
      </trkpt>
      <trkpt lat="41.91779" lon="9.18471">
        <ele>1812.8</ele>
        <time>2022-09-15T10:58:55Z</time>
      </trkpt>
      <trkpt lat="41.917727" lon="9.1847">
        <ele>1813.4</ele>
        <time>2022-09-15T10:59:05Z</time>
      </trkpt>
      <trkpt lat="41.917673" lon="9.184668">
        <ele>1813.4</ele>
        <time>2022-09-15T10:59:17Z</time>
      </trkpt>
      <trkpt lat="41.917648" lon="9.184523">
        <ele>1813.4</ele>
        <time>2022-09-15T10:59:28Z</time>
      </trkpt>
      <trkpt lat="41.917625" lon="9.184502">
        <ele>1812.8</ele>
        <time>2022-09-15T10:59:31Z</time>
      </trkpt>
      <trkpt lat="41.917612" lon="9.184495">
        <ele>1812.0</ele>
        <time>2022-09-15T10:59:32Z</time>
      </trkpt>
      <trkpt lat="41.917548" lon="9.184527">
        <ele>1809.2</ele>
        <time>2022-09-15T10:59:37Z</time>
      </trkpt>
      <trkpt lat="41.917455" lon="9.18457">
        <ele>1809.0</ele>
        <time>2022-09-15T10:59:44Z</time>
      </trkpt>
      <trkpt lat="41.917277" lon="9.184578">
        <ele>1812.2</ele>
        <time>2022-09-15T10:59:59Z</time>
      </trkpt>
      <trkpt lat="41.917208" lon="9.184602">
        <ele>1810.6</ele>
        <time>2022-09-15T11:00:05Z</time>
      </trkpt>
      <trkpt lat="41.917133" lon="9.184648">
        <ele>1806.0</ele>
        <time>2022-09-15T11:00:12Z</time>
      </trkpt>
      <trkpt lat="41.917113" lon="9.184663">
        <ele>1805.8</ele>
        <time>2022-09-15T11:00:14Z</time>
      </trkpt>
      <trkpt lat="41.917057" lon="9.184672">
        <ele>1804.2</ele>
        <time>2022-09-15T11:00:21Z</time>
      </trkpt>
      <trkpt lat="41.916995" lon="9.184637">
        <ele>1802.2</ele>
        <time>2022-09-15T11:00:29Z</time>
      </trkpt>
      <trkpt lat="41.916923" lon="9.184577">
        <ele>1801.0</ele>
        <time>2022-09-15T11:00:40Z</time>
      </trkpt>
      <trkpt lat="41.916848" lon="9.18449">
        <ele>1800.8</ele>
        <time>2022-09-15T11:00:51Z</time>
      </trkpt>
      <trkpt lat="41.916808" lon="9.184462">
        <ele>1800.4</ele>
        <time>2022-09-15T11:00:57Z</time>
      </trkpt>
      <trkpt lat="41.91671" lon="9.184318">
        <ele>1797.8</ele>
        <time>2022-09-15T11:01:14Z</time>
      </trkpt>
      <trkpt lat="41.916588" lon="9.184215">
        <ele>1794.6</ele>
        <time>2022-09-15T11:01:30Z</time>
      </trkpt>
      <trkpt lat="41.916545" lon="9.184183">
        <ele>1795.2</ele>
        <time>2022-09-15T11:01:37Z</time>
      </trkpt>
      <trkpt lat="41.916528" lon="9.184177">
        <ele>1796.0</ele>
        <time>2022-09-15T11:01:39Z</time>
      </trkpt>
      <trkpt lat="41.916493" lon="9.18422">
        <ele>1795.4</ele>
        <time>2022-09-15T11:01:46Z</time>
      </trkpt>
      <trkpt lat="41.916347" lon="9.184363">
        <ele>1794.4</ele>
        <time>2022-09-15T11:02:15Z</time>
      </trkpt>
      <trkpt lat="41.916323" lon="9.184382">
        <ele>1793.0</ele>
        <time>2022-09-15T11:02:20Z</time>
      </trkpt>
      <trkpt lat="41.916278" lon="9.184363">
        <ele>1792.0</ele>
        <time>2022-09-15T11:02:27Z</time>
      </trkpt>
      <trkpt lat="41.916233" lon="9.18431">
        <ele>1794.2</ele>
        <time>2022-09-15T11:02:34Z</time>
      </trkpt>
      <trkpt lat="41.916123" lon="9.184155">
        <ele>1794.8</ele>
        <time>2022-09-15T11:02:49Z</time>
      </trkpt>
      <trkpt lat="41.916045" lon="9.184103">
        <ele>1794.2</ele>
        <time>2022-09-15T11:02:57Z</time>
      </trkpt>
      <trkpt lat="41.916007" lon="9.184095">
        <ele>1795.8</ele>
        <time>2022-09-15T11:03:01Z</time>
      </trkpt>
      <trkpt lat="41.91597" lon="9.184102">
        <ele>1794.4</ele>
        <time>2022-09-15T11:03:07Z</time>
      </trkpt>
      <trkpt lat="41.915917" lon="9.18409">
        <ele>1791.8</ele>
        <time>2022-09-15T11:03:13Z</time>
      </trkpt>
      <trkpt lat="41.915758" lon="9.183995">
        <ele>1794.2</ele>
        <time>2022-09-15T11:03:31Z</time>
      </trkpt>
      <trkpt lat="41.915737" lon="9.183962">
        <ele>1794.4</ele>
        <time>2022-09-15T11:03:34Z</time>
      </trkpt>
      <trkpt lat="41.915698" lon="9.1839">
        <ele>1793.0</ele>
        <time>2022-09-15T11:03:41Z</time>
      </trkpt>
      <trkpt lat="41.915683" lon="9.18389">
        <ele>1794.2</ele>
        <time>2022-09-15T11:03:45Z</time>
      </trkpt>
      <trkpt lat="41.915633" lon="9.183818">
        <ele>1795.8</ele>
        <time>2022-09-15T11:03:58Z</time>
      </trkpt>
      <trkpt lat="41.915527" lon="9.183712">
        <ele>1798.8</ele>
        <time>2022-09-15T11:04:23Z</time>
      </trkpt>
      <trkpt lat="41.915488" lon="9.183627">
        <ele>1798.4</ele>
        <time>2022-09-15T11:04:34Z</time>
      </trkpt>
      <trkpt lat="41.915487" lon="9.183618">
        <ele>1798.4</ele>
        <time>2022-09-15T11:04:35Z</time>
      </trkpt>
      <trkpt lat="41.915475" lon="9.183608">
        <ele>1803.2</ele>
        <time>2022-09-15T11:04:49Z</time>
      </trkpt>
      <trkpt lat="41.915733" lon="9.183553">
        <ele>1803.0</ele>
        <time>2022-09-15T11:05:00Z</time>
      </trkpt>
      <trkpt lat="41.91564" lon="9.18341">
        <ele>1800.2</ele>
        <time>2022-09-15T11:05:10Z</time>
      </trkpt>
      <trkpt lat="41.915323" lon="9.183302">
        <ele>1801.8</ele>
        <time>2022-09-15T11:05:21Z</time>
      </trkpt>
      <trkpt lat="41.915278" lon="9.183282">
        <ele>1801.8</ele>
        <time>2022-09-15T11:05:21Z</time>
      </trkpt>
      <trkpt lat="41.915268" lon="9.183275">
        <ele>1802.4</ele>
        <time>2022-09-15T11:05:22Z</time>
      </trkpt>
      <trkpt lat="41.915277" lon="9.183245">
        <ele>1802.4</ele>
        <time>2022-09-15T11:05:24Z</time>
      </trkpt>
      <trkpt lat="41.9153" lon="9.1832">
        <ele>1803.6</ele>
        <time>2022-09-15T11:05:27Z</time>
      </trkpt>
      <trkpt lat="41.915393" lon="9.183188">
        <ele>1809.2</ele>
        <time>2022-09-15T11:05:34Z</time>
      </trkpt>
      <trkpt lat="41.915442" lon="9.183193">
        <ele>1810.6</ele>
        <time>2022-09-15T11:05:38Z</time>
      </trkpt>
      <trkpt lat="41.915428" lon="9.183158">
        <ele>1809.6</ele>
        <time>2022-09-15T11:05:42Z</time>
      </trkpt>
      <trkpt lat="41.915375" lon="9.18307">
        <ele>1805.4</ele>
        <time>2022-09-15T11:05:51Z</time>
      </trkpt>
      <trkpt lat="41.915352" lon="9.18305">
        <ele>1805.8</ele>
        <time>2022-09-15T11:05:54Z</time>
      </trkpt>
      <trkpt lat="41.915333" lon="9.183042">
        <ele>1806.2</ele>
        <time>2022-09-15T11:05:56Z</time>
      </trkpt>
      <trkpt lat="41.915305" lon="9.18306">
        <ele>1806.4</ele>
        <time>2022-09-15T11:05:59Z</time>
      </trkpt>
      <trkpt lat="41.915233" lon="9.183012">
        <ele>1808.2</ele>
        <time>2022-09-15T11:06:08Z</time>
      </trkpt>
      <trkpt lat="41.915198" lon="9.183048">
        <ele>1809.8</ele>
        <time>2022-09-15T11:06:13Z</time>
      </trkpt>
      <trkpt lat="41.915167" lon="9.183105">
        <ele>1811.2</ele>
        <time>2022-09-15T11:06:19Z</time>
      </trkpt>
      <trkpt lat="41.915137" lon="9.183127">
        <ele>1813.4</ele>
        <time>2022-09-15T11:06:23Z</time>
      </trkpt>
      <trkpt lat="41.915083" lon="9.183105">
        <ele>1812.4</ele>
        <time>2022-09-15T11:06:30Z</time>
      </trkpt>
      <trkpt lat="41.915037" lon="9.183117">
        <ele>1814.4</ele>
        <time>2022-09-15T11:06:43Z</time>
      </trkpt>
      <trkpt lat="41.91499" lon="9.183122">
        <ele>1815.4</ele>
        <time>2022-09-15T11:06:55Z</time>
      </trkpt>
      <trkpt lat="41.914997" lon="9.183108">
        <ele>1815.2</ele>
        <time>2022-09-15T11:06:56Z</time>
      </trkpt>
      <trkpt lat="41.915067" lon="9.183037">
        <ele>1818.4</ele>
        <time>2022-09-15T11:07:12Z</time>
      </trkpt>
      <trkpt lat="41.91522" lon="9.182902">
        <ele>1829.4</ele>
        <time>2022-09-15T11:07:41Z</time>
      </trkpt>
      <trkpt lat="41.915228" lon="9.182823">
        <ele>1801.6</ele>
        <time>2022-09-15T11:07:52Z</time>
      </trkpt>
      <trkpt lat="41.915227" lon="9.182817">
        <ele>1799.4</ele>
        <time>2022-09-15T11:07:53Z</time>
      </trkpt>
      <trkpt lat="41.915153" lon="9.18266">
        <ele>1791.4</ele>
        <time>2022-09-15T11:08:08Z</time>
      </trkpt>
      <trkpt lat="41.915128" lon="9.182585">
        <ele>1791.0</ele>
        <time>2022-09-15T11:08:14Z</time>
      </trkpt>
      <trkpt lat="41.915008" lon="9.182358">
        <ele>1797.8</ele>
        <time>2022-09-15T11:08:33Z</time>
      </trkpt>
      <trkpt lat="41.914983" lon="9.182307">
        <ele>1793.8</ele>
        <time>2022-09-15T11:08:38Z</time>
      </trkpt>
      <trkpt lat="41.91496" lon="9.18225">
        <ele>1793.0</ele>
        <time>2022-09-15T11:08:42Z</time>
      </trkpt>
      <trkpt lat="41.914908" lon="9.182182">
        <ele>1792.8</ele>
        <time>2022-09-15T11:08:50Z</time>
      </trkpt>
      <trkpt lat="41.91489" lon="9.182112">
        <ele>1795.2</ele>
        <time>2022-09-15T11:08:58Z</time>
      </trkpt>
      <trkpt lat="41.914838" lon="9.182045">
        <ele>1791.4</ele>
        <time>2022-09-15T11:09:08Z</time>
      </trkpt>
      <trkpt lat="41.914778" lon="9.181997">
        <ele>1787.8</ele>
        <time>2022-09-15T11:09:23Z</time>
      </trkpt>
      <trkpt lat="41.914817" lon="9.181927">
        <ele>1786.2</ele>
        <time>2022-09-15T11:09:35Z</time>
      </trkpt>
      <trkpt lat="41.914817" lon="9.181917">
        <ele>1785.8</ele>
        <time>2022-09-15T11:09:36Z</time>
      </trkpt>
      <trkpt lat="41.914768" lon="9.181738">
        <ele>1780.4</ele>
        <time>2022-09-15T11:09:57Z</time>
      </trkpt>
      <trkpt lat="41.914763" lon="9.181685">
        <ele>1779.2</ele>
        <time>2022-09-15T11:10:04Z</time>
      </trkpt>
      <trkpt lat="41.914778" lon="9.181607">
        <ele>1776.4</ele>
        <time>2022-09-15T11:10:16Z</time>
      </trkpt>
      <trkpt lat="41.914783" lon="9.181562">
        <ele>1773.8</ele>
        <time>2022-09-15T11:10:28Z</time>
      </trkpt>
      <trkpt lat="41.914795" lon="9.181505">
        <ele>1771.6</ele>
        <time>2022-09-15T11:10:41Z</time>
      </trkpt>
      <trkpt lat="41.914775" lon="9.181418">
        <ele>1772.8</ele>
        <time>2022-09-15T11:10:52Z</time>
      </trkpt>
      <trkpt lat="41.914763" lon="9.181363">
        <ele>1771.4</ele>
        <time>2022-09-15T11:10:58Z</time>
      </trkpt>
      <trkpt lat="41.914762" lon="9.181285">
        <ele>1771.2</ele>
        <time>2022-09-15T11:11:07Z</time>
      </trkpt>
      <trkpt lat="41.91474" lon="9.181262">
        <ele>1771.2</ele>
        <time>2022-09-15T11:11:12Z</time>
      </trkpt>
      <trkpt lat="41.91471" lon="9.18118">
        <ele>1766.4</ele>
        <time>2022-09-15T11:11:29Z</time>
      </trkpt>
      <trkpt lat="41.914673" lon="9.18106">
        <ele>1764.0</ele>
        <time>2022-09-15T11:11:51Z</time>
      </trkpt>
      <trkpt lat="41.914675" lon="9.181045">
        <ele>1764.0</ele>
        <time>2022-09-15T11:11:54Z</time>
      </trkpt>
      <trkpt lat="41.914652" lon="9.18101">
        <ele>1763.8</ele>
        <time>2022-09-15T11:12:02Z</time>
      </trkpt>
      <trkpt lat="41.914622" lon="9.18098">
        <ele>1763.8</ele>
        <time>2022-09-15T11:12:09Z</time>
      </trkpt>
      <trkpt lat="41.914632" lon="9.180948">
        <ele>1761.6</ele>
        <time>2022-09-15T11:12:22Z</time>
      </trkpt>
      <trkpt lat="41.914682" lon="9.180847">
        <ele>1753.0</ele>
        <time>2022-09-15T11:13:15Z</time>
      </trkpt>
      <trkpt lat="41.914712" lon="9.180973">
        <ele>1748.2</ele>
        <time>2022-09-15T11:13:47Z</time>
      </trkpt>
      <trkpt lat="41.914555" lon="9.180808">
        <ele>1747.8</ele>
        <time>2022-09-15T11:13:59Z</time>
      </trkpt>
      <trkpt lat="41.91443" lon="9.180727">
        <ele>1749.8</ele>
        <time>2022-09-15T11:14:06Z</time>
      </trkpt>
      <trkpt lat="41.914413" lon="9.180717">
        <ele>1750.0</ele>
        <time>2022-09-15T11:14:07Z</time>
      </trkpt>
      <trkpt lat="41.914327" lon="9.180728">
        <ele>1750.4</ele>
        <time>2022-09-15T11:14:13Z</time>
      </trkpt>
      <trkpt lat="41.914195" lon="9.180723">
        <ele>1750.8</ele>
        <time>2022-09-15T11:14:23Z</time>
      </trkpt>
      <trkpt lat="41.914062" lon="9.18069">
        <ele>1751.8</ele>
        <time>2022-09-15T11:14:34Z</time>
      </trkpt>
      <trkpt lat="41.913987" lon="9.18067">
        <ele>1754.4</ele>
        <time>2022-09-15T11:14:40Z</time>
      </trkpt>
      <trkpt lat="41.913923" lon="9.180635">
        <ele>1754.8</ele>
        <time>2022-09-15T11:14:46Z</time>
      </trkpt>
      <trkpt lat="41.913863" lon="9.180595">
        <ele>1752.4</ele>
        <time>2022-09-15T11:15:01Z</time>
      </trkpt>
      <trkpt lat="41.91386" lon="9.180593">
        <ele>1752.4</ele>
        <time>2022-09-15T11:15:02Z</time>
      </trkpt>
      <trkpt lat="41.913802" lon="9.180547">
        <ele>1748.6</ele>
        <time>2022-09-15T11:15:13Z</time>
      </trkpt>
      <trkpt lat="41.913775" lon="9.18047">
        <ele>1747.0</ele>
        <time>2022-09-15T11:15:21Z</time>
      </trkpt>
      <trkpt lat="41.913743" lon="9.180403">
        <ele>1745.2</ele>
        <time>2022-09-15T11:15:30Z</time>
      </trkpt>
      <trkpt lat="41.913723" lon="9.180408">
        <ele>1744.4</ele>
        <time>2022-09-15T11:15:34Z</time>
      </trkpt>
      <trkpt lat="41.913698" lon="9.18041">
        <ele>1744.2</ele>
        <time>2022-09-15T11:15:41Z</time>
      </trkpt>
      <trkpt lat="41.913695" lon="9.180408">
        <ele>1744.2</ele>
        <time>2022-09-15T11:15:42Z</time>
      </trkpt>
      <trkpt lat="41.913633" lon="9.18032">
        <ele>1744.0</ele>
        <time>2022-09-15T11:15:52Z</time>
      </trkpt>
      <trkpt lat="41.913503" lon="9.180215">
        <ele>1742.8</ele>
        <time>2022-09-15T11:16:10Z</time>
      </trkpt>
      <trkpt lat="41.913432" lon="9.180203">
        <ele>1741.2</ele>
        <time>2022-09-15T11:16:20Z</time>
      </trkpt>
      <trkpt lat="41.9134" lon="9.18016">
        <ele>1741.0</ele>
        <time>2022-09-15T11:16:25Z</time>
      </trkpt>
      <trkpt lat="41.91337" lon="9.180103">
        <ele>1733.8</ele>
        <time>2022-09-15T11:16:32Z</time>
      </trkpt>
      <trkpt lat="41.913312" lon="9.18009">
        <ele>1734.4</ele>
        <time>2022-09-15T11:16:38Z</time>
      </trkpt>
      <trkpt lat="41.913267" lon="9.180075">
        <ele>1736.2</ele>
        <time>2022-09-15T11:16:43Z</time>
      </trkpt>
      <trkpt lat="41.9132" lon="9.18004">
        <ele>1733.6</ele>
        <time>2022-09-15T11:16:56Z</time>
      </trkpt>
      <trkpt lat="41.91318" lon="9.180043">
        <ele>1733.4</ele>
        <time>2022-09-15T11:16:59Z</time>
      </trkpt>
      <trkpt lat="41.913025" lon="9.179935">
        <ele>1726.8</ele>
        <time>2022-09-15T11:17:24Z</time>
      </trkpt>
      <trkpt lat="41.912985" lon="9.179862">
        <ele>1727.6</ele>
        <time>2022-09-15T11:17:35Z</time>
      </trkpt>
      <trkpt lat="41.912967" lon="9.179848">
        <ele>1727.6</ele>
        <time>2022-09-15T11:17:38Z</time>
      </trkpt>
      <trkpt lat="41.912907" lon="9.179818">
        <ele>1729.0</ele>
        <time>2022-09-15T11:17:46Z</time>
      </trkpt>
      <trkpt lat="41.912873" lon="9.179745">
        <ele>1728.4</ele>
        <time>2022-09-15T11:17:54Z</time>
      </trkpt>
      <trkpt lat="41.912853" lon="9.179707">
        <ele>1727.2</ele>
        <time>2022-09-15T11:17:59Z</time>
      </trkpt>
      <trkpt lat="41.912838" lon="9.179692">
        <ele>1726.6</ele>
        <time>2022-09-15T11:18:01Z</time>
      </trkpt>
      <trkpt lat="41.912793" lon="9.179647">
        <ele>1726.0</ele>
        <time>2022-09-15T11:18:07Z</time>
      </trkpt>
      <trkpt lat="41.91274" lon="9.179643">
        <ele>1725.6</ele>
        <time>2022-09-15T11:18:13Z</time>
      </trkpt>
      <trkpt lat="41.912697" lon="9.179647">
        <ele>1725.4</ele>
        <time>2022-09-15T11:18:18Z</time>
      </trkpt>
      <trkpt lat="41.912662" lon="9.179605">
        <ele>1722.6</ele>
        <time>2022-09-15T11:18:37Z</time>
      </trkpt>
      <trkpt lat="41.912667" lon="9.179578">
        <ele>1721.6</ele>
        <time>2022-09-15T11:18:41Z</time>
      </trkpt>
      <trkpt lat="41.91268" lon="9.179483">
        <ele>1717.0</ele>
        <time>2022-09-15T11:18:57Z</time>
      </trkpt>
      <trkpt lat="41.912663" lon="9.179457">
        <ele>1716.6</ele>
        <time>2022-09-15T11:19:02Z</time>
      </trkpt>
      <trkpt lat="41.912613" lon="9.179482">
        <ele>1719.6</ele>
        <time>2022-09-15T11:19:13Z</time>
      </trkpt>
      <trkpt lat="41.912597" lon="9.179463">
        <ele>1719.2</ele>
        <time>2022-09-15T11:19:18Z</time>
      </trkpt>
      <trkpt lat="41.912562" lon="9.179432">
        <ele>1719.2</ele>
        <time>2022-09-15T11:19:26Z</time>
      </trkpt>
      <trkpt lat="41.912537" lon="9.179412">
        <ele>1717.4</ele>
        <time>2022-09-15T11:19:33Z</time>
      </trkpt>
      <trkpt lat="41.912503" lon="9.17935">
        <ele>1715.4</ele>
        <time>2022-09-15T11:19:43Z</time>
      </trkpt>
      <trkpt lat="41.912472" lon="9.179323">
        <ele>1713.4</ele>
        <time>2022-09-15T11:19:52Z</time>
      </trkpt>
      <trkpt lat="41.912453" lon="9.179265">
        <ele>1712.6</ele>
        <time>2022-09-15T11:19:59Z</time>
      </trkpt>
      <trkpt lat="41.912305" lon="9.179065">
        <ele>1709.2</ele>
        <time>2022-09-15T11:20:30Z</time>
      </trkpt>
      <trkpt lat="41.912273" lon="9.179067">
        <ele>1706.4</ele>
        <time>2022-09-15T11:20:36Z</time>
      </trkpt>
      <trkpt lat="41.91221" lon="9.17903">
        <ele>1704.4</ele>
        <time>2022-09-15T11:20:47Z</time>
      </trkpt>
      <trkpt lat="41.912137" lon="9.178953">
        <ele>1704.8</ele>
        <time>2022-09-15T11:21:01Z</time>
      </trkpt>
      <trkpt lat="41.912132" lon="9.178963">
        <ele>1704.2</ele>
        <time>2022-09-15T11:21:04Z</time>
      </trkpt>
      <trkpt lat="41.91214" lon="9.179112">
        <ele>1707.2</ele>
        <time>2022-09-15T11:22:20Z</time>
      </trkpt>
      <trkpt lat="41.912125" lon="9.179122">
        <ele>1707.2</ele>
        <time>2022-09-15T11:22:51Z</time>
      </trkpt>
      <trkpt lat="41.912085" lon="9.179115">
        <ele>1702.6</ele>
        <time>2022-09-15T11:23:11Z</time>
      </trkpt>
      <trkpt lat="41.912062" lon="9.179058">
        <ele>1701.6</ele>
        <time>2022-09-15T11:23:16Z</time>
      </trkpt>
      <trkpt lat="41.912027" lon="9.179027">
        <ele>1700.2</ele>
        <time>2022-09-15T11:23:21Z</time>
      </trkpt>
      <trkpt lat="41.911965" lon="9.178977">
        <ele>1697.4</ele>
        <time>2022-09-15T11:23:28Z</time>
      </trkpt>
      <trkpt lat="41.91195" lon="9.178958">
        <ele>1697.4</ele>
        <time>2022-09-15T11:23:29Z</time>
      </trkpt>
      <trkpt lat="41.911932" lon="9.178925">
        <ele>1697.4</ele>
        <time>2022-09-15T11:23:33Z</time>
      </trkpt>
      <trkpt lat="41.911885" lon="9.178877">
        <ele>1696.4</ele>
        <time>2022-09-15T11:23:41Z</time>
      </trkpt>
      <trkpt lat="41.911905" lon="9.17878">
        <ele>1694.4</ele>
        <time>2022-09-15T11:23:52Z</time>
      </trkpt>
      <trkpt lat="41.911888" lon="9.178743">
        <ele>1694.2</ele>
        <time>2022-09-15T11:23:57Z</time>
      </trkpt>
      <trkpt lat="41.911852" lon="9.178703">
        <ele>1693.6</ele>
        <time>2022-09-15T11:24:07Z</time>
      </trkpt>
      <trkpt lat="41.911813" lon="9.178643">
        <ele>1693.2</ele>
        <time>2022-09-15T11:24:13Z</time>
      </trkpt>
      <trkpt lat="41.911798" lon="9.178587">
        <ele>1692.0</ele>
        <time>2022-09-15T11:24:18Z</time>
      </trkpt>
      <trkpt lat="41.91179" lon="9.178547">
        <ele>1691.2</ele>
        <time>2022-09-15T11:24:22Z</time>
      </trkpt>
      <trkpt lat="41.911712" lon="9.178465">
        <ele>1690.8</ele>
        <time>2022-09-15T11:24:32Z</time>
      </trkpt>
      <trkpt lat="41.91148" lon="9.17827">
        <ele>1689.2</ele>
        <time>2022-09-15T11:24:56Z</time>
      </trkpt>
      <trkpt lat="41.91139" lon="9.178238">
        <ele>1688.6</ele>
        <time>2022-09-15T11:25:03Z</time>
      </trkpt>
      <trkpt lat="41.911307" lon="9.17822">
        <ele>1688.6</ele>
        <time>2022-09-15T11:25:10Z</time>
      </trkpt>
      <trkpt lat="41.911248" lon="9.178273">
        <ele>1687.8</ele>
        <time>2022-09-15T11:25:16Z</time>
      </trkpt>
      <trkpt lat="41.91099" lon="9.178175">
        <ele>1685.8</ele>
        <time>2022-09-15T11:25:31Z</time>
      </trkpt>
      <trkpt lat="41.910937" lon="9.178172">
        <ele>1685.2</ele>
        <time>2022-09-15T11:25:34Z</time>
      </trkpt>
      <trkpt lat="41.910895" lon="9.177847">
        <ele>1686.6</ele>
        <time>2022-09-15T11:26:14Z</time>
      </trkpt>
      <trkpt lat="41.910902" lon="9.177785">
        <ele>1687.2</ele>
        <time>2022-09-15T11:26:17Z</time>
      </trkpt>
      <trkpt lat="41.910878" lon="9.177758">
        <ele>1687.2</ele>
        <time>2022-09-15T11:26:21Z</time>
      </trkpt>
      <trkpt lat="41.91079" lon="9.177697">
        <ele>1687.2</ele>
        <time>2022-09-15T11:26:29Z</time>
      </trkpt>
      <trkpt lat="41.910685" lon="9.177563">
        <ele>1687.0</ele>
        <time>2022-09-15T11:26:40Z</time>
      </trkpt>
      <trkpt lat="41.910672" lon="9.17748">
        <ele>1686.6</ele>
        <time>2022-09-15T11:26:45Z</time>
      </trkpt>
      <trkpt lat="41.910668" lon="9.177327">
        <ele>1686.6</ele>
        <time>2022-09-15T11:26:54Z</time>
      </trkpt>
      <trkpt lat="41.910643" lon="9.177245">
        <ele>1686.8</ele>
        <time>2022-09-15T11:26:59Z</time>
      </trkpt>
      <trkpt lat="41.91066" lon="9.177102">
        <ele>1684.4</ele>
        <time>2022-09-15T11:27:45Z</time>
      </trkpt>
      <trkpt lat="41.910682" lon="9.17705">
        <ele>1681.2</ele>
        <time>2022-09-15T11:28:02Z</time>
      </trkpt>
      <trkpt lat="41.910722" lon="9.177005">
        <ele>1680.2</ele>
        <time>2022-09-15T11:28:19Z</time>
      </trkpt>
      <trkpt lat="41.910738" lon="9.176965">
        <ele>1681.2</ele>
        <time>2022-09-15T11:28:59Z</time>
      </trkpt>
      <trkpt lat="41.91086" lon="9.176592">
        <ele>1675.0</ele>
        <time>2022-09-15T11:30:02Z</time>
      </trkpt>
      <trkpt lat="41.910867" lon="9.176538">
        <ele>1677.4</ele>
        <time>2022-09-15T11:30:07Z</time>
      </trkpt>
      <trkpt lat="41.910855" lon="9.176498">
        <ele>1677.0</ele>
        <time>2022-09-15T11:30:10Z</time>
      </trkpt>
      <trkpt lat="41.91082" lon="9.176483">
        <ele>1675.4</ele>
        <time>2022-09-15T11:30:14Z</time>
      </trkpt>
      <trkpt lat="41.910777" lon="9.176468">
        <ele>1673.6</ele>
        <time>2022-09-15T11:30:18Z</time>
      </trkpt>
      <trkpt lat="41.91074" lon="9.176428">
        <ele>1672.8</ele>
        <time>2022-09-15T11:30:22Z</time>
      </trkpt>
      <trkpt lat="41.9107" lon="9.176332">
        <ele>1671.4</ele>
        <time>2022-09-15T11:30:29Z</time>
      </trkpt>
      <trkpt lat="41.910638" lon="9.176178">
        <ele>1670.0</ele>
        <time>2022-09-15T11:30:40Z</time>
      </trkpt>
      <trkpt lat="41.910618" lon="9.17616">
        <ele>1669.8</ele>
        <time>2022-09-15T11:30:42Z</time>
      </trkpt>
      <trkpt lat="41.91058" lon="9.176137">
        <ele>1669.2</ele>
        <time>2022-09-15T11:30:47Z</time>
      </trkpt>
      <trkpt lat="41.910512" lon="9.176052">
        <ele>1667.6</ele>
        <time>2022-09-15T11:30:57Z</time>
      </trkpt>
      <trkpt lat="41.91043" lon="9.175973">
        <ele>1667.0</ele>
        <time>2022-09-15T11:31:08Z</time>
      </trkpt>
      <trkpt lat="41.910413" lon="9.175915">
        <ele>1665.4</ele>
        <time>2022-09-15T11:31:15Z</time>
      </trkpt>
      <trkpt lat="41.910453" lon="9.175873">
        <ele>1663.6</ele>
        <time>2022-09-15T11:31:23Z</time>
      </trkpt>
      <trkpt lat="41.91049" lon="9.17587">
        <ele>1662.4</ele>
        <time>2022-09-15T11:31:28Z</time>
      </trkpt>
      <trkpt lat="41.910583" lon="9.175873">
        <ele>1660.6</ele>
        <time>2022-09-15T11:32:04Z</time>
      </trkpt>
      <trkpt lat="41.910615" lon="9.175865">
        <ele>1661.2</ele>
        <time>2022-09-15T11:32:27Z</time>
      </trkpt>
      <trkpt lat="41.910647" lon="9.175838">
        <ele>1660.8</ele>
        <time>2022-09-15T11:32:34Z</time>
      </trkpt>
      <trkpt lat="41.910652" lon="9.175832">
        <ele>1660.8</ele>
        <time>2022-09-15T11:32:35Z</time>
      </trkpt>
      <trkpt lat="41.91054" lon="9.1758">
        <ele>1659.2</ele>
        <time>2022-09-15T11:32:43Z</time>
      </trkpt>
      <trkpt lat="41.910483" lon="9.175783">
        <ele>1659.0</ele>
        <time>2022-09-15T11:32:48Z</time>
      </trkpt>
      <trkpt lat="41.910407" lon="9.175792">
        <ele>1659.4</ele>
        <time>2022-09-15T11:32:53Z</time>
      </trkpt>
      <trkpt lat="41.910337" lon="9.175803">
        <ele>1658.8</ele>
        <time>2022-09-15T11:32:58Z</time>
      </trkpt>
      <trkpt lat="41.910215" lon="9.17581">
        <ele>1656.8</ele>
        <time>2022-09-15T11:33:07Z</time>
      </trkpt>
      <trkpt lat="41.910073" lon="9.175842">
        <ele>1655.2</ele>
        <time>2022-09-15T11:33:17Z</time>
      </trkpt>
      <trkpt lat="41.910027" lon="9.175847">
        <ele>1654.6</ele>
        <time>2022-09-15T11:33:23Z</time>
      </trkpt>
      <trkpt lat="41.909925" lon="9.175833">
        <ele>1653.2</ele>
        <time>2022-09-15T11:33:35Z</time>
      </trkpt>
      <trkpt lat="41.909878" lon="9.175845">
        <ele>1652.6</ele>
        <time>2022-09-15T11:33:41Z</time>
      </trkpt>
      <trkpt lat="41.909783" lon="9.175883">
        <ele>1652.4</ele>
        <time>2022-09-15T11:33:53Z</time>
      </trkpt>
      <trkpt lat="41.909738" lon="9.175883">
        <ele>1652.0</ele>
        <time>2022-09-15T11:34:02Z</time>
      </trkpt>
      <trkpt lat="41.909632" lon="9.175952">
        <ele>1650.4</ele>
        <time>2022-09-15T11:34:18Z</time>
      </trkpt>
      <trkpt lat="41.909487" lon="9.176107">
        <ele>1649.0</ele>
        <time>2022-09-15T11:34:43Z</time>
      </trkpt>
      <trkpt lat="41.909398" lon="9.17614">
        <ele>1649.2</ele>
        <time>2022-09-15T11:34:50Z</time>
      </trkpt>
      <trkpt lat="41.909357" lon="9.176167">
        <ele>1649.2</ele>
        <time>2022-09-15T11:34:53Z</time>
      </trkpt>
      <trkpt lat="41.9093" lon="9.176272">
        <ele>1649.0</ele>
        <time>2022-09-15T11:34:59Z</time>
      </trkpt>
      <trkpt lat="41.909297" lon="9.176287">
        <ele>1648.6</ele>
        <time>2022-09-15T11:35:00Z</time>
      </trkpt>
      <trkpt lat="41.909277" lon="9.176342">
        <ele>1648.6</ele>
        <time>2022-09-15T11:35:04Z</time>
      </trkpt>
      <trkpt lat="41.90925" lon="9.176388">
        <ele>1648.6</ele>
        <time>2022-09-15T11:35:08Z</time>
      </trkpt>
      <trkpt lat="41.909158" lon="9.176502">
        <ele>1648.4</ele>
        <time>2022-09-15T11:35:20Z</time>
      </trkpt>
      <trkpt lat="41.909123" lon="9.176518">
        <ele>1648.6</ele>
        <time>2022-09-15T11:35:24Z</time>
      </trkpt>
      <trkpt lat="41.909095" lon="9.17652">
        <ele>1648.6</ele>
        <time>2022-09-15T11:35:28Z</time>
      </trkpt>
      <trkpt lat="41.909077" lon="9.176515">
        <ele>1647.6</ele>
        <time>2022-09-15T11:35:30Z</time>
      </trkpt>
      <trkpt lat="41.909032" lon="9.176465">
        <ele>1646.0</ele>
        <time>2022-09-15T11:35:36Z</time>
      </trkpt>
      <trkpt lat="41.90899" lon="9.176443">
        <ele>1645.6</ele>
        <time>2022-09-15T11:35:41Z</time>
      </trkpt>
      <trkpt lat="41.908948" lon="9.17645">
        <ele>1646.4</ele>
        <time>2022-09-15T11:35:46Z</time>
      </trkpt>
      <trkpt lat="41.908922" lon="9.176445">
        <ele>1646.4</ele>
        <time>2022-09-15T11:35:49Z</time>
      </trkpt>
      <trkpt lat="41.908882" lon="9.17644">
        <ele>1646.2</ele>
        <time>2022-09-15T11:35:54Z</time>
      </trkpt>
      <trkpt lat="41.908863" lon="9.176457">
        <ele>1645.8</ele>
        <time>2022-09-15T11:35:57Z</time>
      </trkpt>
      <trkpt lat="41.908817" lon="9.17652">
        <ele>1643.6</ele>
        <time>2022-09-15T11:36:07Z</time>
      </trkpt>
      <trkpt lat="41.908808" lon="9.176533">
        <ele>1643.4</ele>
        <time>2022-09-15T11:36:09Z</time>
      </trkpt>
      <trkpt lat="41.908772" lon="9.176593">
        <ele>1642.2</ele>
        <time>2022-09-15T11:36:18Z</time>
      </trkpt>
      <trkpt lat="41.908737" lon="9.176653">
        <ele>1640.8</ele>
        <time>2022-09-15T11:36:27Z</time>
      </trkpt>
      <trkpt lat="41.908695" lon="9.176672">
        <ele>1640.0</ele>
        <time>2022-09-15T11:36:34Z</time>
      </trkpt>
      <trkpt lat="41.908658" lon="9.176758">
        <ele>1637.4</ele>
        <time>2022-09-15T11:36:48Z</time>
      </trkpt>
      <trkpt lat="41.90865" lon="9.176787">
        <ele>1636.8</ele>
        <time>2022-09-15T11:36:52Z</time>
      </trkpt>
      <trkpt lat="41.90863" lon="9.176847">
        <ele>1636.0</ele>
        <time>2022-09-15T11:37:01Z</time>
      </trkpt>
      <trkpt lat="41.90861" lon="9.17688">
        <ele>1635.8</ele>
        <time>2022-09-15T11:37:06Z</time>
      </trkpt>
      <trkpt lat="41.908587" lon="9.176925">
        <ele>1635.6</ele>
        <time>2022-09-15T11:37:12Z</time>
      </trkpt>
      <trkpt lat="41.908583" lon="9.176982">
        <ele>1633.2</ele>
        <time>2022-09-15T11:37:19Z</time>
      </trkpt>
      <trkpt lat="41.9086" lon="9.177077">
        <ele>1630.8</ele>
        <time>2022-09-15T11:37:33Z</time>
      </trkpt>
      <trkpt lat="41.908627" lon="9.177107">
        <ele>1630.8</ele>
        <time>2022-09-15T11:37:37Z</time>
      </trkpt>
      <trkpt lat="41.908655" lon="9.177195">
        <ele>1629.8</ele>
        <time>2022-09-15T11:37:45Z</time>
      </trkpt>
      <trkpt lat="41.908648" lon="9.177285">
        <ele>1628.0</ele>
        <time>2022-09-15T11:37:54Z</time>
      </trkpt>
      <trkpt lat="41.908662" lon="9.177317">
        <ele>1627.8</ele>
        <time>2022-09-15T11:37:57Z</time>
      </trkpt>
      <trkpt lat="41.908715" lon="9.177365">
        <ele>1627.8</ele>
        <time>2022-09-15T11:38:03Z</time>
      </trkpt>
      <trkpt lat="41.908685" lon="9.17741">
        <ele>1625.2</ele>
        <time>2022-09-15T11:38:10Z</time>
      </trkpt>
      <trkpt lat="41.908663" lon="9.177463">
        <ele>1624.2</ele>
        <time>2022-09-15T11:38:16Z</time>
      </trkpt>
      <trkpt lat="41.908618" lon="9.177498">
        <ele>1623.0</ele>
        <time>2022-09-15T11:38:23Z</time>
      </trkpt>
      <trkpt lat="41.908567" lon="9.177532">
        <ele>1621.6</ele>
        <time>2022-09-15T11:38:31Z</time>
      </trkpt>
      <trkpt lat="41.908553" lon="9.177563">
        <ele>1620.4</ele>
        <time>2022-09-15T11:38:35Z</time>
      </trkpt>
      <trkpt lat="41.9085" lon="9.177728">
        <ele>1616.8</ele>
        <time>2022-09-15T11:38:54Z</time>
      </trkpt>
      <trkpt lat="41.908495" lon="9.177737">
        <ele>1616.8</ele>
        <time>2022-09-15T11:38:55Z</time>
      </trkpt>
      <trkpt lat="41.908505" lon="9.177785">
        <ele>1615.2</ele>
        <time>2022-09-15T11:39:01Z</time>
      </trkpt>
      <trkpt lat="41.908482" lon="9.17782">
        <ele>1615.2</ele>
        <time>2022-09-15T11:39:06Z</time>
      </trkpt>
      <trkpt lat="41.90842" lon="9.177817">
        <ele>1615.8</ele>
        <time>2022-09-15T11:39:12Z</time>
      </trkpt>
      <trkpt lat="41.908335" lon="9.177812">
        <ele>1614.6</ele>
        <time>2022-09-15T11:39:20Z</time>
      </trkpt>
      <trkpt lat="41.908317" lon="9.177818">
        <ele>1614.4</ele>
        <time>2022-09-15T11:39:21Z</time>
      </trkpt>
      <trkpt lat="41.908302" lon="9.177852">
        <ele>1612.2</ele>
        <time>2022-09-15T11:39:35Z</time>
      </trkpt>
      <trkpt lat="41.9083" lon="9.177855">
        <ele>1612.0</ele>
        <time>2022-09-15T11:39:36Z</time>
      </trkpt>
      <trkpt lat="41.908257" lon="9.177865">
        <ele>1610.8</ele>
        <time>2022-09-15T11:39:45Z</time>
      </trkpt>
      <trkpt lat="41.908218" lon="9.177857">
        <ele>1610.4</ele>
        <time>2022-09-15T11:39:52Z</time>
      </trkpt>
      <trkpt lat="41.908193" lon="9.17781">
        <ele>1609.4</ele>
        <time>2022-09-15T11:39:56Z</time>
      </trkpt>
      <trkpt lat="41.908092" lon="9.177637">
        <ele>1607.4</ele>
        <time>2022-09-15T11:40:10Z</time>
      </trkpt>
      <trkpt lat="41.90803" lon="9.177567">
        <ele>1607.2</ele>
        <time>2022-09-15T11:40:17Z</time>
      </trkpt>
      <trkpt lat="41.907907" lon="9.177548">
        <ele>1607.4</ele>
        <time>2022-09-15T11:40:28Z</time>
      </trkpt>
      <trkpt lat="41.907865" lon="9.177622">
        <ele>1607.0</ele>
        <time>2022-09-15T11:41:10Z</time>
      </trkpt>
      <trkpt lat="41.907755" lon="9.177732">
        <ele>1602.4</ele>
        <time>2022-09-15T11:42:09Z</time>
      </trkpt>
      <trkpt lat="41.907652" lon="9.177697">
        <ele>1602.6</ele>
        <time>2022-09-15T11:42:19Z</time>
      </trkpt>
      <trkpt lat="41.907582" lon="9.177655">
        <ele>1601.8</ele>
        <time>2022-09-15T11:42:23Z</time>
      </trkpt>
      <trkpt lat="41.907558" lon="9.177605">
        <ele>1601.8</ele>
        <time>2022-09-15T11:42:39Z</time>
      </trkpt>
      <trkpt lat="41.907502" lon="9.17756">
        <ele>1600.8</ele>
        <time>2022-09-15T11:42:51Z</time>
      </trkpt>
      <trkpt lat="41.90739" lon="9.177463">
        <ele>1598.6</ele>
        <time>2022-09-15T11:43:06Z</time>
      </trkpt>
      <trkpt lat="41.907367" lon="9.177378">
        <ele>1597.8</ele>
        <time>2022-09-15T11:43:19Z</time>
      </trkpt>
      <trkpt lat="41.907362" lon="9.17737">
        <ele>1597.8</ele>
        <time>2022-09-15T11:43:20Z</time>
      </trkpt>
      <trkpt lat="41.907353" lon="9.177308">
        <ele>1597.4</ele>
        <time>2022-09-15T11:43:28Z</time>
      </trkpt>
      <trkpt lat="41.907307" lon="9.177237">
        <ele>1596.4</ele>
        <time>2022-09-15T11:44:01Z</time>
      </trkpt>
      <trkpt lat="41.907268" lon="9.177222">
        <ele>1594.0</ele>
        <time>2022-09-15T11:44:19Z</time>
      </trkpt>
      <trkpt lat="41.907248" lon="9.177212">
        <ele>1594.0</ele>
        <time>2022-09-15T11:44:29Z</time>
      </trkpt>
      <trkpt lat="41.907245" lon="9.177212">
        <ele>1593.8</ele>
        <time>2022-09-15T11:44:30Z</time>
      </trkpt>
      <trkpt lat="41.906872" lon="9.1772">
        <ele>1592.8</ele>
        <time>2022-09-15T11:44:55Z</time>
      </trkpt>
      <trkpt lat="41.906735" lon="9.177197">
        <ele>1592.2</ele>
        <time>2022-09-15T11:45:06Z</time>
      </trkpt>
      <trkpt lat="41.906637" lon="9.177168">
        <ele>1592.0</ele>
        <time>2022-09-15T11:45:16Z</time>
      </trkpt>
      <trkpt lat="41.90661" lon="9.177167">
        <ele>1592.0</ele>
        <time>2022-09-15T11:45:16Z</time>
      </trkpt>
      <trkpt lat="41.906548" lon="9.177122">
        <ele>1590.4</ele>
        <time>2022-09-15T11:45:24Z</time>
      </trkpt>
      <trkpt lat="41.906532" lon="9.177077">
        <ele>1587.8</ele>
        <time>2022-09-15T11:45:28Z</time>
      </trkpt>
      <trkpt lat="41.906572" lon="9.177023">
        <ele>1592.0</ele>
        <time>2022-09-15T11:45:38Z</time>
      </trkpt>
      <trkpt lat="41.90656" lon="9.176998">
        <ele>1591.6</ele>
        <time>2022-09-15T11:45:41Z</time>
      </trkpt>
      <trkpt lat="41.906538" lon="9.177015">
        <ele>1590.4</ele>
        <time>2022-09-15T11:45:49Z</time>
      </trkpt>
      <trkpt lat="41.906523" lon="9.177157">
        <ele>1590.2</ele>
        <time>2022-09-15T11:46:06Z</time>
      </trkpt>
      <trkpt lat="41.906507" lon="9.17717">
        <ele>1590.6</ele>
        <time>2022-09-15T11:46:14Z</time>
      </trkpt>
      <trkpt lat="41.906492" lon="9.177143">
        <ele>1589.6</ele>
        <time>2022-09-15T11:46:20Z</time>
      </trkpt>
      <trkpt lat="41.906497" lon="9.177108">
        <ele>1589.6</ele>
        <time>2022-09-15T11:46:25Z</time>
      </trkpt>
      <trkpt lat="41.906493" lon="9.177062">
        <ele>1589.2</ele>
        <time>2022-09-15T11:46:31Z</time>
      </trkpt>
      <trkpt lat="41.906443" lon="9.177042">
        <ele>1589.8</ele>
        <time>2022-09-15T11:46:37Z</time>
      </trkpt>
      <trkpt lat="41.906337" lon="9.177022">
        <ele>1589.8</ele>
        <time>2022-09-15T11:46:46Z</time>
      </trkpt>
      <trkpt lat="41.906282" lon="9.177042">
        <ele>1589.4</ele>
        <time>2022-09-15T11:46:51Z</time>
      </trkpt>
      <trkpt lat="41.906227" lon="9.177075">
        <ele>1588.8</ele>
        <time>2022-09-15T11:46:57Z</time>
      </trkpt>
      <trkpt lat="41.906152" lon="9.177077">
        <ele>1588.2</ele>
        <time>2022-09-15T11:47:08Z</time>
      </trkpt>
      <trkpt lat="41.906147" lon="9.177082">
        <ele>1588.2</ele>
        <time>2022-09-15T11:47:09Z</time>
      </trkpt>
      <trkpt lat="41.906095" lon="9.177108">
        <ele>1586.6</ele>
        <time>2022-09-15T11:47:15Z</time>
      </trkpt>
      <trkpt lat="41.906045" lon="9.177113">
        <ele>1587.0</ele>
        <time>2022-09-15T11:47:19Z</time>
      </trkpt>
      <trkpt lat="41.905928" lon="9.17708">
        <ele>1586.6</ele>
        <time>2022-09-15T11:47:28Z</time>
      </trkpt>
      <trkpt lat="41.905845" lon="9.177042">
        <ele>1586.4</ele>
        <time>2022-09-15T11:47:43Z</time>
      </trkpt>
      <trkpt lat="41.905777" lon="9.177143">
        <ele>1587.4</ele>
        <time>2022-09-15T11:48:06Z</time>
      </trkpt>
      <trkpt lat="41.905753" lon="9.177167">
        <ele>1587.2</ele>
        <time>2022-09-15T11:48:10Z</time>
      </trkpt>
      <trkpt lat="41.905735" lon="9.177138">
        <ele>1586.8</ele>
        <time>2022-09-15T11:48:18Z</time>
      </trkpt>
      <trkpt lat="41.905735" lon="9.177132">
        <ele>1586.8</ele>
        <time>2022-09-15T11:48:19Z</time>
      </trkpt>
      <trkpt lat="41.905747" lon="9.17708">
        <ele>1584.4</ele>
        <time>2022-09-15T11:48:25Z</time>
      </trkpt>
      <trkpt lat="41.905795" lon="9.17693">
        <ele>1585.2</ele>
        <time>2022-09-15T11:48:37Z</time>
      </trkpt>
      <trkpt lat="41.905763" lon="9.176852">
        <ele>1584.0</ele>
        <time>2022-09-15T11:48:45Z</time>
      </trkpt>
      <trkpt lat="41.90573" lon="9.176817">
        <ele>1584.6</ele>
        <time>2022-09-15T11:48:54Z</time>
      </trkpt>
      <trkpt lat="41.905713" lon="9.176798">
        <ele>1585.0</ele>
        <time>2022-09-15T11:48:58Z</time>
      </trkpt>
      <trkpt lat="41.905668" lon="9.176702">
        <ele>1582.2</ele>
        <time>2022-09-15T11:49:06Z</time>
      </trkpt>
      <trkpt lat="41.905582" lon="9.176607">
        <ele>1580.6</ele>
        <time>2022-09-15T11:49:16Z</time>
      </trkpt>
      <trkpt lat="41.905548" lon="9.176498">
        <ele>1579.0</ele>
        <time>2022-09-15T11:49:24Z</time>
      </trkpt>
      <trkpt lat="41.905457" lon="9.17635">
        <ele>1576.0</ele>
        <time>2022-09-15T11:49:39Z</time>
      </trkpt>
      <trkpt lat="41.90541" lon="9.176313">
        <ele>1575.6</ele>
        <time>2022-09-15T11:49:43Z</time>
      </trkpt>
      <trkpt lat="41.905388" lon="9.176273">
        <ele>1575.2</ele>
        <time>2022-09-15T11:49:46Z</time>
      </trkpt>
      <trkpt lat="41.905377" lon="9.176227">
        <ele>1574.6</ele>
        <time>2022-09-15T11:49:49Z</time>
      </trkpt>
      <trkpt lat="41.905378" lon="9.17618">
        <ele>1574.4</ele>
        <time>2022-09-15T11:49:52Z</time>
      </trkpt>
      <trkpt lat="41.905363" lon="9.17612">
        <ele>1573.8</ele>
        <time>2022-09-15T11:49:57Z</time>
      </trkpt>
      <trkpt lat="41.905338" lon="9.176063">
        <ele>1574.2</ele>
        <time>2022-09-15T11:50:01Z</time>
      </trkpt>
      <trkpt lat="41.905283" lon="9.17598">
        <ele>1573.8</ele>
        <time>2022-09-15T11:50:08Z</time>
      </trkpt>
      <trkpt lat="41.905268" lon="9.175943">
        <ele>1573.6</ele>
        <time>2022-09-15T11:50:11Z</time>
      </trkpt>
      <trkpt lat="41.905343" lon="9.175935">
        <ele>1572.8</ele>
        <time>2022-09-15T11:50:22Z</time>
      </trkpt>
      <trkpt lat="41.905353" lon="9.175868">
        <ele>1571.4</ele>
        <time>2022-09-15T11:50:31Z</time>
      </trkpt>
      <trkpt lat="41.905363" lon="9.175798">
        <ele>1570.2</ele>
        <time>2022-09-15T11:50:44Z</time>
      </trkpt>
      <trkpt lat="41.905375" lon="9.175747">
        <ele>1568.6</ele>
        <time>2022-09-15T11:50:54Z</time>
      </trkpt>
      <trkpt lat="41.90538" lon="9.175712">
        <ele>1567.8</ele>
        <time>2022-09-15T11:51:00Z</time>
      </trkpt>
      <trkpt lat="41.905412" lon="9.175525">
        <ele>1565.2</ele>
        <time>2022-09-15T11:51:13Z</time>
      </trkpt>
      <trkpt lat="41.905413" lon="9.17535">
        <ele>1564.0</ele>
        <time>2022-09-15T11:51:24Z</time>
      </trkpt>
      <trkpt lat="41.90536" lon="9.175183">
        <ele>1563.4</ele>
        <time>2022-09-15T11:51:34Z</time>
      </trkpt>
      <trkpt lat="41.905355" lon="9.175162">
        <ele>1563.2</ele>
        <time>2022-09-15T11:51:36Z</time>
      </trkpt>
      <trkpt lat="41.90538" lon="9.175033">
        <ele>1561.0</ele>
        <time>2022-09-15T11:51:47Z</time>
      </trkpt>
      <trkpt lat="41.905357" lon="9.1749">
        <ele>1560.2</ele>
        <time>2022-09-15T11:51:58Z</time>
      </trkpt>
      <trkpt lat="41.90536" lon="9.17483">
        <ele>1559.8</ele>
        <time>2022-09-15T11:52:05Z</time>
      </trkpt>
      <trkpt lat="41.90536" lon="9.174762">
        <ele>1558.4</ele>
        <time>2022-09-15T11:52:13Z</time>
      </trkpt>
      <trkpt lat="41.905347" lon="9.174678">
        <ele>1556.2</ele>
        <time>2022-09-15T11:52:24Z</time>
      </trkpt>
      <trkpt lat="41.905308" lon="9.174645">
        <ele>1556.4</ele>
        <time>2022-09-15T11:52:29Z</time>
      </trkpt>
      <trkpt lat="41.90512" lon="9.174548">
        <ele>1554.2</ele>
        <time>2022-09-15T11:52:49Z</time>
      </trkpt>
      <trkpt lat="41.905117" lon="9.174388">
        <ele>1554.0</ele>
        <time>2022-09-15T11:52:58Z</time>
      </trkpt>
      <trkpt lat="41.905077" lon="9.174375">
        <ele>1553.0</ele>
        <time>2022-09-15T11:53:03Z</time>
      </trkpt>
      <trkpt lat="41.905023" lon="9.174367">
        <ele>1552.2</ele>
        <time>2022-09-15T11:53:11Z</time>
      </trkpt>
      <trkpt lat="41.90498" lon="9.174292">
        <ele>1550.4</ele>
        <time>2022-09-15T11:53:24Z</time>
      </trkpt>
      <trkpt lat="41.90488" lon="9.174122">
        <ele>1545.4</ele>
        <time>2022-09-15T11:54:03Z</time>
      </trkpt>
      <trkpt lat="41.904778" lon="9.17409">
        <ele>1542.2</ele>
        <time>2022-09-15T11:54:17Z</time>
      </trkpt>
      <trkpt lat="41.904553" lon="9.173957">
        <ele>1539.8</ele>
        <time>2022-09-15T11:54:41Z</time>
      </trkpt>
      <trkpt lat="41.904518" lon="9.17392">
        <ele>1538.8</ele>
        <time>2022-09-15T11:54:45Z</time>
      </trkpt>
      <trkpt lat="41.904483" lon="9.173887">
        <ele>1538.6</ele>
        <time>2022-09-15T11:54:50Z</time>
      </trkpt>
      <trkpt lat="41.904418" lon="9.173848">
        <ele>1538.0</ele>
        <time>2022-09-15T11:54:59Z</time>
      </trkpt>
      <trkpt lat="41.904343" lon="9.173807">
        <ele>1536.4</ele>
        <time>2022-09-15T11:55:11Z</time>
      </trkpt>
      <trkpt lat="41.904242" lon="9.173735">
        <ele>1532.4</ele>
        <time>2022-09-15T11:55:28Z</time>
      </trkpt>
      <trkpt lat="41.90418" lon="9.173678">
        <ele>1532.0</ele>
        <time>2022-09-15T11:55:38Z</time>
      </trkpt>
      <trkpt lat="41.904147" lon="9.17363">
        <ele>1531.2</ele>
        <time>2022-09-15T11:55:45Z</time>
      </trkpt>
      <trkpt lat="41.90408" lon="9.173497">
        <ele>1530.2</ele>
        <time>2022-09-15T11:56:04Z</time>
      </trkpt>
      <trkpt lat="41.904063" lon="9.173422">
        <ele>1529.4</ele>
        <time>2022-09-15T11:56:16Z</time>
      </trkpt>
      <trkpt lat="41.903955" lon="9.173293">
        <ele>1526.0</ele>
        <time>2022-09-15T11:56:38Z</time>
      </trkpt>
      <trkpt lat="41.903822" lon="9.173193">
        <ele>1523.0</ele>
        <time>2022-09-15T11:57:05Z</time>
      </trkpt>
      <trkpt lat="41.903813" lon="9.173167">
        <ele>1522.4</ele>
        <time>2022-09-15T11:57:10Z</time>
      </trkpt>
      <trkpt lat="41.903812" lon="9.17313">
        <ele>1522.4</ele>
        <time>2022-09-15T11:57:18Z</time>
      </trkpt>
      <trkpt lat="41.903822" lon="9.173108">
        <ele>1521.4</ele>
        <time>2022-09-15T11:57:23Z</time>
      </trkpt>
      <trkpt lat="41.903857" lon="9.173072">
        <ele>1520.0</ele>
        <time>2022-09-15T11:57:29Z</time>
      </trkpt>
      <trkpt lat="41.90386" lon="9.173007">
        <ele>1518.0</ele>
        <time>2022-09-15T11:57:44Z</time>
      </trkpt>
      <trkpt lat="41.903925" lon="9.172937">
        <ele>1516.0</ele>
        <time>2022-09-15T11:58:02Z</time>
      </trkpt>
      <trkpt lat="41.903963" lon="9.172922">
        <ele>1516.0</ele>
        <time>2022-09-15T11:58:07Z</time>
      </trkpt>
      <trkpt lat="41.904" lon="9.17291">
        <ele>1515.8</ele>
        <time>2022-09-15T11:58:12Z</time>
      </trkpt>
      <trkpt lat="41.904003" lon="9.17286">
        <ele>1515.6</ele>
        <time>2022-09-15T11:58:17Z</time>
      </trkpt>
      <trkpt lat="41.904018" lon="9.172828">
        <ele>1515.0</ele>
        <time>2022-09-15T11:58:21Z</time>
      </trkpt>
      <trkpt lat="41.904035" lon="9.1728">
        <ele>1514.2</ele>
        <time>2022-09-15T11:58:25Z</time>
      </trkpt>
      <trkpt lat="41.904022" lon="9.17277">
        <ele>1514.2</ele>
        <time>2022-09-15T11:58:29Z</time>
      </trkpt>
      <trkpt lat="41.90399" lon="9.172745">
        <ele>1513.6</ele>
        <time>2022-09-15T11:58:35Z</time>
      </trkpt>
      <trkpt lat="41.903913" lon="9.172743">
        <ele>1513.4</ele>
        <time>2022-09-15T11:58:50Z</time>
      </trkpt>
      <trkpt lat="41.9039" lon="9.17274">
        <ele>1513.6</ele>
        <time>2022-09-15T11:58:53Z</time>
      </trkpt>
      <trkpt lat="41.903957" lon="9.172622">
        <ele>1512.4</ele>
        <time>2022-09-15T11:59:15Z</time>
      </trkpt>
      <trkpt lat="41.903945" lon="9.172568">
        <ele>1512.4</ele>
        <time>2022-09-15T11:59:21Z</time>
      </trkpt>
      <trkpt lat="41.903915" lon="9.172508">
        <ele>1512.2</ele>
        <time>2022-09-15T11:59:29Z</time>
      </trkpt>
      <trkpt lat="41.903858" lon="9.172422">
        <ele>1512.0</ele>
        <time>2022-09-15T11:59:40Z</time>
      </trkpt>
      <trkpt lat="41.903802" lon="9.17237">
        <ele>1512.2</ele>
        <time>2022-09-15T11:59:49Z</time>
      </trkpt>
      <trkpt lat="41.903765" lon="9.172335">
        <ele>1512.4</ele>
        <time>2022-09-15T11:59:55Z</time>
      </trkpt>
      <trkpt lat="41.903562" lon="9.172305">
        <ele>1509.2</ele>
        <time>2022-09-15T12:00:19Z</time>
      </trkpt>
      <trkpt lat="41.903535" lon="9.172265">
        <ele>1508.8</ele>
        <time>2022-09-15T12:00:25Z</time>
      </trkpt>
      <trkpt lat="41.90339" lon="9.172038">
        <ele>1509.8</ele>
        <time>2022-09-15T12:00:53Z</time>
      </trkpt>
      <trkpt lat="41.903312" lon="9.171973">
        <ele>1509.2</ele>
        <time>2022-09-15T12:01:05Z</time>
      </trkpt>
      <trkpt lat="41.903268" lon="9.17193">
        <ele>1510.2</ele>
        <time>2022-09-15T12:01:12Z</time>
      </trkpt>
      <trkpt lat="41.903235" lon="9.171853">
        <ele>1508.6</ele>
        <time>2022-09-15T12:01:19Z</time>
      </trkpt>
      <trkpt lat="41.903177" lon="9.171735">
        <ele>1508.0</ele>
        <time>2022-09-15T12:01:33Z</time>
      </trkpt>
      <trkpt lat="41.90319" lon="9.171493">
        <ele>1508.8</ele>
        <time>2022-09-15T12:01:47Z</time>
      </trkpt>
      <trkpt lat="41.903177" lon="9.17138">
        <ele>1509.2</ele>
        <time>2022-09-15T12:01:56Z</time>
      </trkpt>
      <trkpt lat="41.90316" lon="9.171338">
        <ele>1509.0</ele>
        <time>2022-09-15T12:02:00Z</time>
      </trkpt>
      <trkpt lat="41.903112" lon="9.17129">
        <ele>1508.0</ele>
        <time>2022-09-15T12:02:08Z</time>
      </trkpt>
      <trkpt lat="41.903067" lon="9.171247">
        <ele>1507.4</ele>
        <time>2022-09-15T12:02:16Z</time>
      </trkpt>
      <trkpt lat="41.903005" lon="9.171153">
        <ele>1506.4</ele>
        <time>2022-09-15T12:02:28Z</time>
      </trkpt>
      <trkpt lat="41.902985" lon="9.17106">
        <ele>1506.2</ele>
        <time>2022-09-15T12:02:36Z</time>
      </trkpt>
      <trkpt lat="41.90298" lon="9.171052">
        <ele>1506.2</ele>
        <time>2022-09-15T12:02:37Z</time>
      </trkpt>
      <trkpt lat="41.902972" lon="9.171017">
        <ele>1505.8</ele>
        <time>2022-09-15T12:02:41Z</time>
      </trkpt>
      <trkpt lat="41.902907" lon="9.170858">
        <ele>1503.2</ele>
        <time>2022-09-15T12:03:04Z</time>
      </trkpt>
      <trkpt lat="41.902887" lon="9.170787">
        <ele>1499.2</ele>
        <time>2022-09-15T12:03:20Z</time>
      </trkpt>
      <trkpt lat="41.902887" lon="9.170782">
        <ele>1499.2</ele>
        <time>2022-09-15T12:03:20Z</time>
      </trkpt>
      <trkpt lat="41.90285" lon="9.170677">
        <ele>1498.0</ele>
        <time>2022-09-15T12:03:31Z</time>
      </trkpt>
      <trkpt lat="41.902773" lon="9.170643">
        <ele>1495.4</ele>
        <time>2022-09-15T12:03:48Z</time>
      </trkpt>
      <trkpt lat="41.902702" lon="9.170582">
        <ele>1490.4</ele>
        <time>2022-09-15T12:04:07Z</time>
      </trkpt>
      <trkpt lat="41.902673" lon="9.170565">
        <ele>1490.4</ele>
        <time>2022-09-15T12:04:11Z</time>
      </trkpt>
      <trkpt lat="41.902602" lon="9.170427">
        <ele>1489.4</ele>
        <time>2022-09-15T12:04:21Z</time>
      </trkpt>
      <trkpt lat="41.902592" lon="9.170413">
        <ele>1489.4</ele>
        <time>2022-09-15T12:04:22Z</time>
      </trkpt>
      <trkpt lat="41.90257" lon="9.170343">
        <ele>1488.4</ele>
        <time>2022-09-15T12:04:28Z</time>
      </trkpt>
      <trkpt lat="41.902545" lon="9.170228">
        <ele>1486.4</ele>
        <time>2022-09-15T12:04:39Z</time>
      </trkpt>
      <trkpt lat="41.902453" lon="9.170093">
        <ele>1485.4</ele>
        <time>2022-09-15T12:04:51Z</time>
      </trkpt>
      <trkpt lat="41.902438" lon="9.170053">
        <ele>1485.2</ele>
        <time>2022-09-15T12:04:54Z</time>
      </trkpt>
      <trkpt lat="41.902422" lon="9.16992">
        <ele>1483.4</ele>
        <time>2022-09-15T12:05:04Z</time>
      </trkpt>
      <trkpt lat="41.902418" lon="9.169908">
        <ele>1483.4</ele>
        <time>2022-09-15T12:05:05Z</time>
      </trkpt>
      <trkpt lat="41.902403" lon="9.169838">
        <ele>1482.2</ele>
        <time>2022-09-15T12:05:11Z</time>
      </trkpt>
      <trkpt lat="41.902385" lon="9.169832">
        <ele>1477.0</ele>
        <time>2022-09-15T12:06:00Z</time>
      </trkpt>
      <trkpt lat="41.902338" lon="9.169702">
        <ele>1475.6</ele>
        <time>2022-09-15T12:06:11Z</time>
      </trkpt>
      <trkpt lat="41.902305" lon="9.169617">
        <ele>1475.4</ele>
        <time>2022-09-15T12:06:16Z</time>
      </trkpt>
      <trkpt lat="41.90218" lon="9.169355">
        <ele>1475.2</ele>
        <time>2022-09-15T12:06:31Z</time>
      </trkpt>
      <trkpt lat="41.902142" lon="9.169247">
        <ele>1475.4</ele>
        <time>2022-09-15T12:06:39Z</time>
      </trkpt>
      <trkpt lat="41.902133" lon="9.169233">
        <ele>1475.6</ele>
        <time>2022-09-15T12:06:40Z</time>
      </trkpt>
      <trkpt lat="41.902108" lon="9.169192">
        <ele>1475.0</ele>
        <time>2022-09-15T12:06:44Z</time>
      </trkpt>
      <trkpt lat="41.902058" lon="9.169103">
        <ele>1474.8</ele>
        <time>2022-09-15T12:06:53Z</time>
      </trkpt>
      <trkpt lat="41.90195" lon="9.169018">
        <ele>1472.6</ele>
        <time>2022-09-15T12:07:07Z</time>
      </trkpt>
      <trkpt lat="41.901925" lon="9.168983">
        <ele>1471.6</ele>
        <time>2022-09-15T12:07:12Z</time>
      </trkpt>
      <trkpt lat="41.901922" lon="9.168942">
        <ele>1471.6</ele>
        <time>2022-09-15T12:07:17Z</time>
      </trkpt>
      <trkpt lat="41.901952" lon="9.168777">
        <ele>1470.2</ele>
        <time>2022-09-15T12:07:34Z</time>
      </trkpt>
      <trkpt lat="41.90195" lon="9.168707">
        <ele>1468.8</ele>
        <time>2022-09-15T12:07:42Z</time>
      </trkpt>
      <trkpt lat="41.901952" lon="9.168657">
        <ele>1467.0</ele>
        <time>2022-09-15T12:08:02Z</time>
      </trkpt>
      <trkpt lat="41.901913" lon="9.168632">
        <ele>1466.0</ele>
        <time>2022-09-15T12:08:13Z</time>
      </trkpt>
      <trkpt lat="41.901913" lon="9.168625">
        <ele>1466.0</ele>
        <time>2022-09-15T12:08:14Z</time>
      </trkpt>
      <trkpt lat="41.901855" lon="9.168693">
        <ele>1464.4</ele>
        <time>2022-09-15T12:08:27Z</time>
      </trkpt>
      <trkpt lat="41.901802" lon="9.168712">
        <ele>1464.2</ele>
        <time>2022-09-15T12:08:36Z</time>
      </trkpt>
      <trkpt lat="41.901772" lon="9.168743">
        <ele>1464.0</ele>
        <time>2022-09-15T12:08:42Z</time>
      </trkpt>
      <trkpt lat="41.901768" lon="9.168752">
        <ele>1464.0</ele>
        <time>2022-09-15T12:08:44Z</time>
      </trkpt>
      <trkpt lat="41.901772" lon="9.16864">
        <ele>1463.6</ele>
        <time>2022-09-15T12:08:51Z</time>
      </trkpt>
      <trkpt lat="41.90174" lon="9.1685">
        <ele>1461.2</ele>
        <time>2022-09-15T12:09:01Z</time>
      </trkpt>
      <trkpt lat="41.901738" lon="9.168303">
        <ele>1459.6</ele>
        <time>2022-09-15T12:09:14Z</time>
      </trkpt>
      <trkpt lat="41.90174" lon="9.1682">
        <ele>1458.6</ele>
        <time>2022-09-15T12:09:21Z</time>
      </trkpt>
      <trkpt lat="41.90174" lon="9.168185">
        <ele>1458.6</ele>
        <time>2022-09-15T12:09:22Z</time>
      </trkpt>
      <trkpt lat="41.901755" lon="9.168092">
        <ele>1456.8</ele>
        <time>2022-09-15T12:09:32Z</time>
      </trkpt>
      <trkpt lat="41.901755" lon="9.16798">
        <ele>1456.2</ele>
        <time>2022-09-15T12:09:43Z</time>
      </trkpt>
      <trkpt lat="41.901755" lon="9.16797">
        <ele>1456.2</ele>
        <time>2022-09-15T12:09:44Z</time>
      </trkpt>
      <trkpt lat="41.901675" lon="9.16785">
        <ele>1451.6</ele>
        <time>2022-09-15T12:26:12Z</time>
      </trkpt>
      <trkpt lat="41.901648" lon="9.167812">
        <ele>1450.6</ele>
        <time>2022-09-15T12:26:18Z</time>
      </trkpt>
      <trkpt lat="41.90158" lon="9.16773">
        <ele>1449.6</ele>
        <time>2022-09-15T12:26:26Z</time>
      </trkpt>
      <trkpt lat="41.90155" lon="9.167663">
        <ele>1449.8</ele>
        <time>2022-09-15T12:26:37Z</time>
      </trkpt>
      <trkpt lat="41.901532" lon="9.167623">
        <ele>1450.0</ele>
        <time>2022-09-15T12:26:42Z</time>
      </trkpt>
      <trkpt lat="41.901643" lon="9.167197">
        <ele>1450.8</ele>
        <time>2022-09-15T12:27:19Z</time>
      </trkpt>
      <trkpt lat="41.90161" lon="9.167088">
        <ele>1450.0</ele>
        <time>2022-09-15T12:27:27Z</time>
      </trkpt>
      <trkpt lat="41.901567" lon="9.166992">
        <ele>1449.4</ele>
        <time>2022-09-15T12:27:33Z</time>
      </trkpt>
      <trkpt lat="41.901567" lon="9.166878">
        <ele>1446.8</ele>
        <time>2022-09-15T12:27:43Z</time>
      </trkpt>
      <trkpt lat="41.901603" lon="9.166838">
        <ele>1445.0</ele>
        <time>2022-09-15T12:27:48Z</time>
      </trkpt>
      <trkpt lat="41.90166" lon="9.166807">
        <ele>1444.0</ele>
        <time>2022-09-15T12:27:54Z</time>
      </trkpt>
      <trkpt lat="41.901665" lon="9.166767">
        <ele>1442.0</ele>
        <time>2022-09-15T12:28:05Z</time>
      </trkpt>
      <trkpt lat="41.901678" lon="9.166722">
        <ele>1440.0</ele>
        <time>2022-09-15T12:28:16Z</time>
      </trkpt>
      <trkpt lat="41.901702" lon="9.166655">
        <ele>1439.8</ele>
        <time>2022-09-15T12:28:22Z</time>
      </trkpt>
      <trkpt lat="41.90166" lon="9.166588">
        <ele>1439.4</ele>
        <time>2022-09-15T12:28:29Z</time>
      </trkpt>
      <trkpt lat="41.901603" lon="9.16652">
        <ele>1438.0</ele>
        <time>2022-09-15T12:28:38Z</time>
      </trkpt>
      <trkpt lat="41.901605" lon="9.166515">
        <ele>1437.0</ele>
        <time>2022-09-15T12:28:40Z</time>
      </trkpt>
      <trkpt lat="41.901642" lon="9.166437">
        <ele>1436.8</ele>
        <time>2022-09-15T12:28:54Z</time>
      </trkpt>
      <trkpt lat="41.901638" lon="9.166412">
        <ele>1436.6</ele>
        <time>2022-09-15T12:28:58Z</time>
      </trkpt>
      <trkpt lat="41.901652" lon="9.166333">
        <ele>1434.2</ele>
        <time>2022-09-15T12:29:21Z</time>
      </trkpt>
      <trkpt lat="41.901653" lon="9.166325">
        <ele>1434.2</ele>
        <time>2022-09-15T12:29:22Z</time>
      </trkpt>
      <trkpt lat="41.901692" lon="9.166148">
        <ele>1433.2</ele>
        <time>2022-09-15T12:29:45Z</time>
      </trkpt>
      <trkpt lat="41.901623" lon="9.166012">
        <ele>1433.0</ele>
        <time>2022-09-15T12:29:57Z</time>
      </trkpt>
      <trkpt lat="41.901597" lon="9.16599">
        <ele>1432.6</ele>
        <time>2022-09-15T12:30:01Z</time>
      </trkpt>
      <trkpt lat="41.901575" lon="9.165912">
        <ele>1432.0</ele>
        <time>2022-09-15T12:30:07Z</time>
      </trkpt>
      <trkpt lat="41.901533" lon="9.165872">
        <ele>1430.2</ele>
        <time>2022-09-15T12:30:12Z</time>
      </trkpt>
      <trkpt lat="41.901477" lon="9.165882">
        <ele>1428.4</ele>
        <time>2022-09-15T12:30:18Z</time>
      </trkpt>
      <trkpt lat="41.90142" lon="9.165952">
        <ele>1427.2</ele>
        <time>2022-09-15T12:30:25Z</time>
      </trkpt>
      <trkpt lat="41.901365" lon="9.16597">
        <ele>1427.2</ele>
        <time>2022-09-15T12:30:30Z</time>
      </trkpt>
      <trkpt lat="41.901325" lon="9.165937">
        <ele>1426.2</ele>
        <time>2022-09-15T12:30:34Z</time>
      </trkpt>
      <trkpt lat="41.901232" lon="9.16585">
        <ele>1421.8</ele>
        <time>2022-09-15T12:30:48Z</time>
      </trkpt>
      <trkpt lat="41.901175" lon="9.16584">
        <ele>1419.6</ele>
        <time>2022-09-15T12:30:56Z</time>
      </trkpt>
      <trkpt lat="41.901123" lon="9.165847">
        <ele>1418.0</ele>
        <time>2022-09-15T12:31:02Z</time>
      </trkpt>
      <trkpt lat="41.901057" lon="9.165852">
        <ele>1417.6</ele>
        <time>2022-09-15T12:31:10Z</time>
      </trkpt>
      <trkpt lat="41.90102" lon="9.165888">
        <ele>1416.6</ele>
        <time>2022-09-15T12:31:15Z</time>
      </trkpt>
      <trkpt lat="41.90097" lon="9.165928">
        <ele>1416.0</ele>
        <time>2022-09-15T12:31:21Z</time>
      </trkpt>
      <trkpt lat="41.900928" lon="9.16597">
        <ele>1414.8</ele>
        <time>2022-09-15T12:31:27Z</time>
      </trkpt>
      <trkpt lat="41.900832" lon="9.165933">
        <ele>1414.0</ele>
        <time>2022-09-15T12:31:36Z</time>
      </trkpt>
      <trkpt lat="41.900742" lon="9.165998">
        <ele>1412.2</ele>
        <time>2022-09-15T12:31:46Z</time>
      </trkpt>
      <trkpt lat="41.900737" lon="9.165992">
        <ele>1412.2</ele>
        <time>2022-09-15T12:31:47Z</time>
      </trkpt>
      <trkpt lat="41.900717" lon="9.165975">
        <ele>1411.8</ele>
        <time>2022-09-15T12:31:51Z</time>
      </trkpt>
      <trkpt lat="41.900657" lon="9.166">
        <ele>1410.0</ele>
        <time>2022-09-15T12:32:06Z</time>
      </trkpt>
      <trkpt lat="41.900628" lon="9.16598">
        <ele>1409.2</ele>
        <time>2022-09-15T12:32:13Z</time>
      </trkpt>
      <trkpt lat="41.900603" lon="9.165975">
        <ele>1409.2</ele>
        <time>2022-09-15T12:32:19Z</time>
      </trkpt>
      <trkpt lat="41.900592" lon="9.165958">
        <ele>1409.2</ele>
        <time>2022-09-15T12:32:22Z</time>
      </trkpt>
      <trkpt lat="41.900578" lon="9.165867">
        <ele>1409.2</ele>
        <time>2022-09-15T12:32:28Z</time>
      </trkpt>
      <trkpt lat="41.90057" lon="9.16576">
        <ele>1408.6</ele>
        <time>2022-09-15T12:32:35Z</time>
      </trkpt>
      <trkpt lat="41.900553" lon="9.165678">
        <ele>1408.4</ele>
        <time>2022-09-15T12:32:39Z</time>
      </trkpt>
      <trkpt lat="41.900485" lon="9.165418">
        <ele>1406.0</ele>
        <time>2022-09-15T12:32:50Z</time>
      </trkpt>
      <trkpt lat="41.900475" lon="9.165397">
        <ele>1406.0</ele>
        <time>2022-09-15T12:32:51Z</time>
      </trkpt>
      <trkpt lat="41.900398" lon="9.165342">
        <ele>1405.2</ele>
        <time>2022-09-15T12:32:58Z</time>
      </trkpt>
      <trkpt lat="41.900385" lon="9.165318">
        <ele>1405.0</ele>
        <time>2022-09-15T12:33:01Z</time>
      </trkpt>
      <trkpt lat="41.900405" lon="9.165288">
        <ele>1405.0</ele>
        <time>2022-09-15T12:33:04Z</time>
      </trkpt>
      <trkpt lat="41.900447" lon="9.165245">
        <ele>1404.0</ele>
        <time>2022-09-15T12:33:08Z</time>
      </trkpt>
      <trkpt lat="41.900447" lon="9.165177">
        <ele>1403.6</ele>
        <time>2022-09-15T12:33:13Z</time>
      </trkpt>
      <trkpt lat="41.900425" lon="9.165108">
        <ele>1403.0</ele>
        <time>2022-09-15T12:33:19Z</time>
      </trkpt>
      <trkpt lat="41.90041" lon="9.165078">
        <ele>1403.8</ele>
        <time>2022-09-15T12:33:22Z</time>
      </trkpt>
      <trkpt lat="41.900402" lon="9.165042">
        <ele>1403.8</ele>
        <time>2022-09-15T12:33:25Z</time>
      </trkpt>
      <trkpt lat="41.900392" lon="9.164935">
        <ele>1403.4</ele>
        <time>2022-09-15T12:33:34Z</time>
      </trkpt>
      <trkpt lat="41.900375" lon="9.164897">
        <ele>1402.6</ele>
        <time>2022-09-15T12:33:38Z</time>
      </trkpt>
      <trkpt lat="41.900332" lon="9.16486">
        <ele>1400.2</ele>
        <time>2022-09-15T12:33:44Z</time>
      </trkpt>
      <trkpt lat="41.900263" lon="9.16481">
        <ele>1399.2</ele>
        <time>2022-09-15T12:33:55Z</time>
      </trkpt>
      <trkpt lat="41.900258" lon="9.164802">
        <ele>1399.4</ele>
        <time>2022-09-15T12:33:56Z</time>
      </trkpt>
      <trkpt lat="41.900227" lon="9.164745">
        <ele>1396.6</ele>
        <time>2022-09-15T12:34:05Z</time>
      </trkpt>
      <trkpt lat="41.900187" lon="9.164737">
        <ele>1396.6</ele>
        <time>2022-09-15T12:34:10Z</time>
      </trkpt>
      <trkpt lat="41.900138" lon="9.16475">
        <ele>1396.8</ele>
        <time>2022-09-15T12:34:16Z</time>
      </trkpt>
      <trkpt lat="41.900108" lon="9.16477">
        <ele>1396.2</ele>
        <time>2022-09-15T12:34:20Z</time>
      </trkpt>
      <trkpt lat="41.900072" lon="9.16476">
        <ele>1395.8</ele>
        <time>2022-09-15T12:34:26Z</time>
      </trkpt>
      <trkpt lat="41.900042" lon="9.164713">
        <ele>1394.8</ele>
        <time>2022-09-15T12:34:33Z</time>
      </trkpt>
      <trkpt lat="41.899998" lon="9.164692">
        <ele>1394.4</ele>
        <time>2022-09-15T12:34:40Z</time>
      </trkpt>
      <trkpt lat="41.899973" lon="9.16467">
        <ele>1391.6</ele>
        <time>2022-09-15T12:34:45Z</time>
      </trkpt>
      <trkpt lat="41.899943" lon="9.164665">
        <ele>1390.4</ele>
        <time>2022-09-15T12:34:51Z</time>
      </trkpt>
      <trkpt lat="41.899925" lon="9.164635">
        <ele>1389.4</ele>
        <time>2022-09-15T12:34:56Z</time>
      </trkpt>
      <trkpt lat="41.899923" lon="9.164618">
        <ele>1389.4</ele>
        <time>2022-09-15T12:34:58Z</time>
      </trkpt>
      <trkpt lat="41.899892" lon="9.164568">
        <ele>1388.8</ele>
        <time>2022-09-15T12:35:05Z</time>
      </trkpt>
      <trkpt lat="41.899807" lon="9.164533">
        <ele>1388.4</ele>
        <time>2022-09-15T12:35:17Z</time>
      </trkpt>
      <trkpt lat="41.899653" lon="9.164497">
        <ele>1386.8</ele>
        <time>2022-09-15T12:35:30Z</time>
      </trkpt>
      <trkpt lat="41.899638" lon="9.16449">
        <ele>1386.8</ele>
        <time>2022-09-15T12:35:31Z</time>
      </trkpt>
      <trkpt lat="41.899642" lon="9.164457">
        <ele>1386.8</ele>
        <time>2022-09-15T12:35:33Z</time>
      </trkpt>
      <trkpt lat="41.899615" lon="9.164187">
        <ele>1382.8</ele>
        <time>2022-09-15T12:35:50Z</time>
      </trkpt>
      <trkpt lat="41.899585" lon="9.164023">
        <ele>1382.0</ele>
        <time>2022-09-15T12:36:00Z</time>
      </trkpt>
      <trkpt lat="41.899563" lon="9.163972">
        <ele>1381.2</ele>
        <time>2022-09-15T12:36:05Z</time>
      </trkpt>
      <trkpt lat="41.899557" lon="9.163962">
        <ele>1380.8</ele>
        <time>2022-09-15T12:36:06Z</time>
      </trkpt>
      <trkpt lat="41.899537" lon="9.163995">
        <ele>1380.2</ele>
        <time>2022-09-15T12:36:09Z</time>
      </trkpt>
      <trkpt lat="41.899507" lon="9.164057">
        <ele>1379.0</ele>
        <time>2022-09-15T12:36:14Z</time>
      </trkpt>
      <trkpt lat="41.899422" lon="9.164125">
        <ele>1377.8</ele>
        <time>2022-09-15T12:36:23Z</time>
      </trkpt>
      <trkpt lat="41.899402" lon="9.164127">
        <ele>1377.2</ele>
        <time>2022-09-15T12:36:26Z</time>
      </trkpt>
      <trkpt lat="41.899392" lon="9.164123">
        <ele>1377.2</ele>
        <time>2022-09-15T12:36:27Z</time>
      </trkpt>
      <trkpt lat="41.899307" lon="9.164055">
        <ele>1375.4</ele>
        <time>2022-09-15T12:36:44Z</time>
      </trkpt>
      <trkpt lat="41.899298" lon="9.164045">
        <ele>1375.8</ele>
        <time>2022-09-15T12:36:47Z</time>
      </trkpt>
      <trkpt lat="41.899238" lon="9.163977">
        <ele>1374.2</ele>
        <time>2022-09-15T12:36:58Z</time>
      </trkpt>
      <trkpt lat="41.899132" lon="9.163917">
        <ele>1373.2</ele>
        <time>2022-09-15T12:37:12Z</time>
      </trkpt>
      <trkpt lat="41.899075" lon="9.163923">
        <ele>1373.6</ele>
        <time>2022-09-15T12:37:18Z</time>
      </trkpt>
      <trkpt lat="41.899048" lon="9.16392">
        <ele>1373.6</ele>
        <time>2022-09-15T12:37:21Z</time>
      </trkpt>
      <trkpt lat="41.89898" lon="9.163863">
        <ele>1374.8</ele>
        <time>2022-09-15T12:37:30Z</time>
      </trkpt>
      <trkpt lat="41.898987" lon="9.16382">
        <ele>1375.4</ele>
        <time>2022-09-15T12:37:37Z</time>
      </trkpt>
      <trkpt lat="41.89878" lon="9.163703">
        <ele>1376.0</ele>
        <time>2022-09-15T12:37:48Z</time>
      </trkpt>
      <trkpt lat="41.898847" lon="9.163463">
        <ele>1375.6</ele>
        <time>2022-09-15T12:37:58Z</time>
      </trkpt>
      <trkpt lat="41.898715" lon="9.163383">
        <ele>1376.8</ele>
        <time>2022-09-15T12:38:08Z</time>
      </trkpt>
      <trkpt lat="41.898687" lon="9.163342">
        <ele>1376.8</ele>
        <time>2022-09-15T12:38:08Z</time>
      </trkpt>
      <trkpt lat="41.898615" lon="9.163258">
        <ele>1377.0</ele>
        <time>2022-09-15T12:38:19Z</time>
      </trkpt>
      <trkpt lat="41.898585" lon="9.163222">
        <ele>1376.8</ele>
        <time>2022-09-15T12:38:25Z</time>
      </trkpt>
      <trkpt lat="41.8985" lon="9.16316">
        <ele>1377.4</ele>
        <time>2022-09-15T12:38:37Z</time>
      </trkpt>
      <trkpt lat="41.898488" lon="9.163127">
        <ele>1378.2</ele>
        <time>2022-09-15T12:38:41Z</time>
      </trkpt>
      <trkpt lat="41.898458" lon="9.162993">
        <ele>1379.8</ele>
        <time>2022-09-15T12:38:52Z</time>
      </trkpt>
      <trkpt lat="41.898412" lon="9.162873">
        <ele>1381.0</ele>
        <time>2022-09-15T12:39:03Z</time>
      </trkpt>
      <trkpt lat="41.8984" lon="9.162815">
        <ele>1381.4</ele>
        <time>2022-09-15T12:39:09Z</time>
      </trkpt>
      <trkpt lat="41.89834" lon="9.162717">
        <ele>1383.4</ele>
        <time>2022-09-15T12:39:21Z</time>
      </trkpt>
      <trkpt lat="41.898302" lon="9.162658">
        <ele>1382.4</ele>
        <time>2022-09-15T12:39:29Z</time>
      </trkpt>
      <trkpt lat="41.898283" lon="9.162635">
        <ele>1382.8</ele>
        <time>2022-09-15T12:39:33Z</time>
      </trkpt>
      <trkpt lat="41.898278" lon="9.162522">
        <ele>1382.4</ele>
        <time>2022-09-15T12:39:43Z</time>
      </trkpt>
      <trkpt lat="41.898282" lon="9.162325">
        <ele>1382.2</ele>
        <time>2022-09-15T12:39:59Z</time>
      </trkpt>
      <trkpt lat="41.898238" lon="9.16224">
        <ele>1380.8</ele>
        <time>2022-09-15T12:40:07Z</time>
      </trkpt>
      <trkpt lat="41.898198" lon="9.162147">
        <ele>1381.4</ele>
        <time>2022-09-15T12:40:15Z</time>
      </trkpt>
      <trkpt lat="41.89812" lon="9.162028">
        <ele>1381.0</ele>
        <time>2022-09-15T12:40:27Z</time>
      </trkpt>
      <trkpt lat="41.898077" lon="9.161968">
        <ele>1380.2</ele>
        <time>2022-09-15T12:40:34Z</time>
      </trkpt>
      <trkpt lat="41.89806" lon="9.161955">
        <ele>1380.2</ele>
        <time>2022-09-15T12:40:36Z</time>
      </trkpt>
      <trkpt lat="41.897923" lon="9.161933">
        <ele>1378.8</ele>
        <time>2022-09-15T12:40:47Z</time>
      </trkpt>
      <trkpt lat="41.897692" lon="9.161787">
        <ele>1378.8</ele>
        <time>2022-09-15T12:41:05Z</time>
      </trkpt>
      <trkpt lat="41.89764" lon="9.161777">
        <ele>1378.6</ele>
        <time>2022-09-15T12:41:09Z</time>
      </trkpt>
      <trkpt lat="41.897595" lon="9.161782">
        <ele>1378.4</ele>
        <time>2022-09-15T12:41:13Z</time>
      </trkpt>
      <trkpt lat="41.89751" lon="9.161785">
        <ele>1379.4</ele>
        <time>2022-09-15T12:41:22Z</time>
      </trkpt>
      <trkpt lat="41.897425" lon="9.16183">
        <ele>1380.2</ele>
        <time>2022-09-15T12:41:29Z</time>
      </trkpt>
      <trkpt lat="41.897375" lon="9.161907">
        <ele>1379.6</ele>
        <time>2022-09-15T12:41:35Z</time>
      </trkpt>
      <trkpt lat="41.897297" lon="9.162115">
        <ele>1379.4</ele>
        <time>2022-09-15T12:41:50Z</time>
      </trkpt>
      <trkpt lat="41.897247" lon="9.162093">
        <ele>1379.6</ele>
        <time>2022-09-15T12:41:55Z</time>
      </trkpt>
      <trkpt lat="41.897167" lon="9.162015">
        <ele>1381.0</ele>
        <time>2022-09-15T12:42:07Z</time>
      </trkpt>
      <trkpt lat="41.897115" lon="9.161908">
        <ele>1380.6</ele>
        <time>2022-09-15T12:42:17Z</time>
      </trkpt>
      <trkpt lat="41.89709" lon="9.161825">
        <ele>1380.6</ele>
        <time>2022-09-15T12:42:23Z</time>
      </trkpt>
      <trkpt lat="41.897073" lon="9.16174">
        <ele>1380.4</ele>
        <time>2022-09-15T12:42:29Z</time>
      </trkpt>
      <trkpt lat="41.897045" lon="9.161645">
        <ele>1379.2</ele>
        <time>2022-09-15T12:42:37Z</time>
      </trkpt>
      <trkpt lat="41.896992" lon="9.161615">
        <ele>1379.2</ele>
        <time>2022-09-15T12:42:44Z</time>
      </trkpt>
      <trkpt lat="41.896965" lon="9.161595">
        <ele>1379.2</ele>
        <time>2022-09-15T12:42:47Z</time>
      </trkpt>
      <trkpt lat="41.896915" lon="9.161512">
        <ele>1377.6</ele>
        <time>2022-09-15T12:42:54Z</time>
      </trkpt>
      <trkpt lat="41.896897" lon="9.161393">
        <ele>1374.4</ele>
        <time>2022-09-15T12:43:02Z</time>
      </trkpt>
      <trkpt lat="41.896867" lon="9.161342">
        <ele>1374.4</ele>
        <time>2022-09-15T12:43:06Z</time>
      </trkpt>
      <trkpt lat="41.896858" lon="9.16133">
        <ele>1375.2</ele>
        <time>2022-09-15T12:43:08Z</time>
      </trkpt>
      <trkpt lat="41.896842" lon="9.161277">
        <ele>1375.2</ele>
        <time>2022-09-15T12:43:13Z</time>
      </trkpt>
      <trkpt lat="41.89683" lon="9.161187">
        <ele>1374.6</ele>
        <time>2022-09-15T12:43:32Z</time>
      </trkpt>
      <trkpt lat="41.896807" lon="9.161115">
        <ele>1373.4</ele>
        <time>2022-09-15T12:43:47Z</time>
      </trkpt>
      <trkpt lat="41.896798" lon="9.161108">
        <ele>1372.6</ele>
        <time>2022-09-15T12:43:48Z</time>
      </trkpt>
      <trkpt lat="41.89674" lon="9.161093">
        <ele>1372.4</ele>
        <time>2022-09-15T12:43:54Z</time>
      </trkpt>
      <trkpt lat="41.896675" lon="9.16107">
        <ele>1372.6</ele>
        <time>2022-09-15T12:44:00Z</time>
      </trkpt>
      <trkpt lat="41.896608" lon="9.160997">
        <ele>1368.8</ele>
        <time>2022-09-15T12:44:10Z</time>
      </trkpt>
      <trkpt lat="41.89657" lon="9.161025">
        <ele>1370.0</ele>
        <time>2022-09-15T12:44:17Z</time>
      </trkpt>
      <trkpt lat="41.896565" lon="9.161032">
        <ele>1369.6</ele>
        <time>2022-09-15T12:44:18Z</time>
      </trkpt>
      <trkpt lat="41.896522" lon="9.161062">
        <ele>1368.4</ele>
        <time>2022-09-15T12:44:24Z</time>
      </trkpt>
      <trkpt lat="41.896447" lon="9.161047">
        <ele>1368.4</ele>
        <time>2022-09-15T12:44:35Z</time>
      </trkpt>
      <trkpt lat="41.896363" lon="9.16107">
        <ele>1364.0</ele>
        <time>2022-09-15T12:44:47Z</time>
      </trkpt>
      <trkpt lat="41.896298" lon="9.161057">
        <ele>1362.4</ele>
        <time>2022-09-15T12:44:57Z</time>
      </trkpt>
      <trkpt lat="41.89628" lon="9.16102">
        <ele>1362.8</ele>
        <time>2022-09-15T12:45:01Z</time>
      </trkpt>
      <trkpt lat="41.896337" lon="9.16096">
        <ele>1358.6</ele>
        <time>2022-09-15T12:45:10Z</time>
      </trkpt>
      <trkpt lat="41.896385" lon="9.160907">
        <ele>1358.0</ele>
        <time>2022-09-15T12:45:16Z</time>
      </trkpt>
      <trkpt lat="41.89641" lon="9.160848">
        <ele>1359.0</ele>
        <time>2022-09-15T12:45:20Z</time>
      </trkpt>
      <trkpt lat="41.896417" lon="9.160758">
        <ele>1359.6</ele>
        <time>2022-09-15T12:45:26Z</time>
      </trkpt>
      <trkpt lat="41.896412" lon="9.160605">
        <ele>1358.0</ele>
        <time>2022-09-15T12:45:37Z</time>
      </trkpt>
      <trkpt lat="41.896407" lon="9.160593">
        <ele>1358.0</ele>
        <time>2022-09-15T12:45:39Z</time>
      </trkpt>
      <trkpt lat="41.896315" lon="9.16057">
        <ele>1357.2</ele>
        <time>2022-09-15T12:45:48Z</time>
      </trkpt>
      <trkpt lat="41.89608" lon="9.160517">
        <ele>1353.6</ele>
        <time>2022-09-15T12:46:09Z</time>
      </trkpt>
      <trkpt lat="41.895995" lon="9.160497">
        <ele>1352.2</ele>
        <time>2022-09-15T12:46:16Z</time>
      </trkpt>
      <trkpt lat="41.895962" lon="9.160447">
        <ele>1350.6</ele>
        <time>2022-09-15T12:46:22Z</time>
      </trkpt>
      <trkpt lat="41.895915" lon="9.160337">
        <ele>1350.2</ele>
        <time>2022-09-15T12:46:36Z</time>
      </trkpt>
      <trkpt lat="41.895903" lon="9.160283">
        <ele>1347.0</ele>
        <time>2022-09-15T12:46:42Z</time>
      </trkpt>
      <trkpt lat="41.89582" lon="9.160172">
        <ele>1346.2</ele>
        <time>2022-09-15T12:47:03Z</time>
      </trkpt>
      <trkpt lat="41.895815" lon="9.160162">
        <ele>1346.2</ele>
        <time>2022-09-15T12:47:04Z</time>
      </trkpt>
      <trkpt lat="41.895772" lon="9.160095">
        <ele>1344.8</ele>
        <time>2022-09-15T12:47:11Z</time>
      </trkpt>
      <trkpt lat="41.895732" lon="9.160058">
        <ele>1343.4</ele>
        <time>2022-09-15T12:47:17Z</time>
      </trkpt>
      <trkpt lat="41.895513" lon="9.160012">
        <ele>1342.4</ele>
        <time>2022-09-15T12:47:38Z</time>
      </trkpt>
      <trkpt lat="41.895502" lon="9.160008">
        <ele>1342.4</ele>
        <time>2022-09-15T12:47:39Z</time>
      </trkpt>
      <trkpt lat="41.895372" lon="9.159925">
        <ele>1345.2</ele>
        <time>2022-09-15T12:47:53Z</time>
      </trkpt>
      <trkpt lat="41.895155" lon="9.159863">
        <ele>1342.6</ele>
        <time>2022-09-15T12:48:16Z</time>
      </trkpt>
      <trkpt lat="41.895145" lon="9.159865">
        <ele>1342.2</ele>
        <time>2022-09-15T12:48:18Z</time>
      </trkpt>
      <trkpt lat="41.89507" lon="9.159887">
        <ele>1341.8</ele>
        <time>2022-09-15T12:48:26Z</time>
      </trkpt>
      <trkpt lat="41.894875" lon="9.15983">
        <ele>1340.2</ele>
        <time>2022-09-15T12:48:48Z</time>
      </trkpt>
      <trkpt lat="41.894802" lon="9.159847">
        <ele>1338.8</ele>
        <time>2022-09-15T12:48:57Z</time>
      </trkpt>
      <trkpt lat="41.8947" lon="9.159913">
        <ele>1339.2</ele>
        <time>2022-09-15T12:49:08Z</time>
      </trkpt>
      <trkpt lat="41.894622" lon="9.159972">
        <ele>1339.2</ele>
        <time>2022-09-15T12:49:18Z</time>
      </trkpt>
      <trkpt lat="41.894557" lon="9.159997">
        <ele>1339.0</ele>
        <time>2022-09-15T12:49:24Z</time>
      </trkpt>
      <trkpt lat="41.894497" lon="9.159985">
        <ele>1339.0</ele>
        <time>2022-09-15T12:49:29Z</time>
      </trkpt>
      <trkpt lat="41.894445" lon="9.159955">
        <ele>1339.0</ele>
        <time>2022-09-15T12:49:34Z</time>
      </trkpt>
      <trkpt lat="41.894398" lon="9.159913">
        <ele>1338.4</ele>
        <time>2022-09-15T12:49:39Z</time>
      </trkpt>
      <trkpt lat="41.89435" lon="9.159895">
        <ele>1337.8</ele>
        <time>2022-09-15T12:49:47Z</time>
      </trkpt>
      <trkpt lat="41.89426" lon="9.159857">
        <ele>1336.6</ele>
        <time>2022-09-15T12:50:03Z</time>
      </trkpt>
      <trkpt lat="41.89421" lon="9.159795">
        <ele>1335.4</ele>
        <time>2022-09-15T12:50:15Z</time>
      </trkpt>
      <trkpt lat="41.894195" lon="9.159747">
        <ele>1333.6</ele>
        <time>2022-09-15T12:50:21Z</time>
      </trkpt>
      <trkpt lat="41.894168" lon="9.15969">
        <ele>1333.6</ele>
        <time>2022-09-15T12:50:27Z</time>
      </trkpt>
      <trkpt lat="41.894107" lon="9.159623">
        <ele>1333.6</ele>
        <time>2022-09-15T12:50:37Z</time>
      </trkpt>
      <trkpt lat="41.893982" lon="9.159597">
        <ele>1332.2</ele>
        <time>2022-09-15T12:50:48Z</time>
      </trkpt>
      <trkpt lat="41.89392" lon="9.159527">
        <ele>1331.4</ele>
        <time>2022-09-15T12:50:54Z</time>
      </trkpt>
      <trkpt lat="41.893877" lon="9.159495">
        <ele>1331.2</ele>
        <time>2022-09-15T12:50:58Z</time>
      </trkpt>
      <trkpt lat="41.893853" lon="9.159483">
        <ele>1331.2</ele>
        <time>2022-09-15T12:51:00Z</time>
      </trkpt>
      <trkpt lat="41.893822" lon="9.159472">
        <ele>1331.0</ele>
        <time>2022-09-15T12:51:04Z</time>
      </trkpt>
      <trkpt lat="41.893733" lon="9.159482">
        <ele>1330.2</ele>
        <time>2022-09-15T12:51:12Z</time>
      </trkpt>
      <trkpt lat="41.89369" lon="9.15949">
        <ele>1329.4</ele>
        <time>2022-09-15T12:51:16Z</time>
      </trkpt>
      <trkpt lat="41.893575" lon="9.159577">
        <ele>1327.6</ele>
        <time>2022-09-15T12:51:27Z</time>
      </trkpt>
      <trkpt lat="41.893532" lon="9.159583">
        <ele>1327.4</ele>
        <time>2022-09-15T12:51:31Z</time>
      </trkpt>
      <trkpt lat="41.89342" lon="9.159583">
        <ele>1326.2</ele>
        <time>2022-09-15T12:51:43Z</time>
      </trkpt>
      <trkpt lat="41.893347" lon="9.159597">
        <ele>1327.2</ele>
        <time>2022-09-15T12:51:52Z</time>
      </trkpt>
      <trkpt lat="41.893233" lon="9.159433">
        <ele>1322.8</ele>
        <time>2022-09-15T12:52:12Z</time>
      </trkpt>
      <trkpt lat="41.893192" lon="9.159333">
        <ele>1323.0</ele>
        <time>2022-09-15T12:52:20Z</time>
      </trkpt>
      <trkpt lat="41.893173" lon="9.15927">
        <ele>1320.8</ele>
        <time>2022-09-15T12:52:25Z</time>
      </trkpt>
      <trkpt lat="41.89303" lon="9.159255">
        <ele>1320.0</ele>
        <time>2022-09-15T12:52:41Z</time>
      </trkpt>
      <trkpt lat="41.892973" lon="9.159253">
        <ele>1319.2</ele>
        <time>2022-09-15T12:52:47Z</time>
      </trkpt>
      <trkpt lat="41.8929" lon="9.159272">
        <ele>1318.4</ele>
        <time>2022-09-15T12:52:55Z</time>
      </trkpt>
      <trkpt lat="41.892863" lon="9.159278">
        <ele>1317.6</ele>
        <time>2022-09-15T12:52:59Z</time>
      </trkpt>
      <trkpt lat="41.892798" lon="9.159325">
        <ele>1317.0</ele>
        <time>2022-09-15T12:53:06Z</time>
      </trkpt>
      <trkpt lat="41.892785" lon="9.159203">
        <ele>1316.8</ele>
        <time>2022-09-15T12:53:15Z</time>
      </trkpt>
      <trkpt lat="41.892763" lon="9.159102">
        <ele>1316.0</ele>
        <time>2022-09-15T12:53:24Z</time>
      </trkpt>
      <trkpt lat="41.892723" lon="9.159057">
        <ele>1315.4</ele>
        <time>2022-09-15T12:53:30Z</time>
      </trkpt>
      <trkpt lat="41.892652" lon="9.159033">
        <ele>1314.2</ele>
        <time>2022-09-15T12:53:36Z</time>
      </trkpt>
      <trkpt lat="41.89261" lon="9.159035">
        <ele>1313.6</ele>
        <time>2022-09-15T12:53:39Z</time>
      </trkpt>
      <trkpt lat="41.892623" lon="9.159062">
        <ele>1313.2</ele>
        <time>2022-09-15T12:53:43Z</time>
      </trkpt>
      <trkpt lat="41.892662" lon="9.159117">
        <ele>1312.0</ele>
        <time>2022-09-15T12:53:50Z</time>
      </trkpt>
      <trkpt lat="41.892653" lon="9.159142">
        <ele>1311.4</ele>
        <time>2022-09-15T12:53:53Z</time>
      </trkpt>
      <trkpt lat="41.892622" lon="9.159145">
        <ele>1311.0</ele>
        <time>2022-09-15T12:53:57Z</time>
      </trkpt>
      <trkpt lat="41.892567" lon="9.159133">
        <ele>1310.2</ele>
        <time>2022-09-15T12:54:04Z</time>
      </trkpt>
      <trkpt lat="41.892523" lon="9.159142">
        <ele>1309.8</ele>
        <time>2022-09-15T12:54:10Z</time>
      </trkpt>
      <trkpt lat="41.892465" lon="9.159147">
        <ele>1308.2</ele>
        <time>2022-09-15T12:54:21Z</time>
      </trkpt>
      <trkpt lat="41.892433" lon="9.159148">
        <ele>1307.2</ele>
        <time>2022-09-15T12:54:29Z</time>
      </trkpt>
      <trkpt lat="41.892415" lon="9.159162">
        <ele>1306.0</ele>
        <time>2022-09-15T12:54:38Z</time>
      </trkpt>
      <trkpt lat="41.892387" lon="9.159155">
        <ele>1303.6</ele>
        <time>2022-09-15T12:54:49Z</time>
      </trkpt>
      <trkpt lat="41.89235" lon="9.159175">
        <ele>1302.2</ele>
        <time>2022-09-15T12:55:02Z</time>
      </trkpt>
      <trkpt lat="41.892348" lon="9.159182">
        <ele>1302.0</ele>
        <time>2022-09-15T12:55:03Z</time>
      </trkpt>
      <trkpt lat="41.892163" lon="9.159198">
        <ele>1299.6</ele>
        <time>2022-09-15T12:55:30Z</time>
      </trkpt>
      <trkpt lat="41.892145" lon="9.159147">
        <ele>1298.0</ele>
        <time>2022-09-15T12:56:26Z</time>
      </trkpt>
      <trkpt lat="41.892147" lon="9.1591">
        <ele>1298.0</ele>
        <time>2022-09-15T12:56:40Z</time>
      </trkpt>
      <trkpt lat="41.892148" lon="9.159093">
        <ele>1297.6</ele>
        <time>2022-09-15T12:56:44Z</time>
      </trkpt>
      <trkpt lat="41.892108" lon="9.159103">
        <ele>1297.6</ele>
        <time>2022-09-15T12:56:52Z</time>
      </trkpt>
      <trkpt lat="41.891985" lon="9.159117">
        <ele>1299.0</ele>
        <time>2022-09-15T12:57:09Z</time>
      </trkpt>
      <trkpt lat="41.891968" lon="9.159087">
        <ele>1300.2</ele>
        <time>2022-09-15T12:57:17Z</time>
      </trkpt>
      <trkpt lat="41.89196" lon="9.15905">
        <ele>1300.8</ele>
        <time>2022-09-15T12:57:22Z</time>
      </trkpt>
      <trkpt lat="41.891915" lon="9.159015">
        <ele>1300.8</ele>
        <time>2022-09-15T12:57:28Z</time>
      </trkpt>
      <trkpt lat="41.891842" lon="9.158957">
        <ele>1301.6</ele>
        <time>2022-09-15T12:57:38Z</time>
      </trkpt>
      <trkpt lat="41.891735" lon="9.158817">
        <ele>1303.6</ele>
        <time>2022-09-15T12:57:55Z</time>
      </trkpt>
      <trkpt lat="41.891722" lon="9.158765">
        <ele>1304.8</ele>
        <time>2022-09-15T12:58:03Z</time>
      </trkpt>
      <trkpt lat="41.89173" lon="9.15871">
        <ele>1305.8</ele>
        <time>2022-09-15T12:58:12Z</time>
      </trkpt>
      <trkpt lat="41.891727" lon="9.158682">
        <ele>1306.8</ele>
        <time>2022-09-15T12:58:19Z</time>
      </trkpt>
      <trkpt lat="41.891708" lon="9.158672">
        <ele>1307.4</ele>
        <time>2022-09-15T12:58:25Z</time>
      </trkpt>
      <trkpt lat="41.891682" lon="9.158682">
        <ele>1307.8</ele>
        <time>2022-09-15T12:58:32Z</time>
      </trkpt>
      <trkpt lat="41.891715" lon="9.158637">
        <ele>1307.4</ele>
        <time>2022-09-15T12:58:44Z</time>
      </trkpt>
      <trkpt lat="41.891718" lon="9.158633">
        <ele>1307.4</ele>
        <time>2022-09-15T12:58:45Z</time>
      </trkpt>
      <trkpt lat="41.891703" lon="9.158507">
        <ele>1307.6</ele>
        <time>2022-09-15T12:59:11Z</time>
      </trkpt>
      <trkpt lat="41.891655" lon="9.158477">
        <ele>1307.2</ele>
        <time>2022-09-15T12:59:37Z</time>
      </trkpt>
      <trkpt lat="41.891447" lon="9.158368">
        <ele>1306.2</ele>
        <time>2022-09-15T13:01:28Z</time>
      </trkpt>
      <trkpt lat="41.891445" lon="9.158402">
        <ele>1305.4</ele>
        <time>2022-09-15T13:01:38Z</time>
      </trkpt>
      <trkpt lat="41.8914" lon="9.15842">
        <ele>1305.0</ele>
        <time>2022-09-15T13:01:51Z</time>
      </trkpt>
      <trkpt lat="41.891363" lon="9.158397">
        <ele>1305.2</ele>
        <time>2022-09-15T13:02:05Z</time>
      </trkpt>
      <trkpt lat="41.891338" lon="9.1584">
        <ele>1305.4</ele>
        <time>2022-09-15T13:02:11Z</time>
      </trkpt>
      <trkpt lat="41.891287" lon="9.158395">
        <ele>1305.6</ele>
        <time>2022-09-15T13:02:18Z</time>
      </trkpt>
      <trkpt lat="41.891123" lon="9.158397">
        <ele>1306.2</ele>
        <time>2022-09-15T13:02:37Z</time>
      </trkpt>
      <trkpt lat="41.891047" lon="9.15839">
        <ele>1306.0</ele>
        <time>2022-09-15T13:02:46Z</time>
      </trkpt>
      <trkpt lat="41.890993" lon="9.158375">
        <ele>1306.0</ele>
        <time>2022-09-15T13:02:54Z</time>
      </trkpt>
      <trkpt lat="41.89096" lon="9.15834">
        <ele>1306.0</ele>
        <time>2022-09-15T13:02:59Z</time>
      </trkpt>
      <trkpt lat="41.890917" lon="9.15829">
        <ele>1306.0</ele>
        <time>2022-09-15T13:03:05Z</time>
      </trkpt>
      <trkpt lat="41.890803" lon="9.158265">
        <ele>1307.0</ele>
        <time>2022-09-15T13:03:17Z</time>
      </trkpt>
      <trkpt lat="41.890748" lon="9.158252">
        <ele>1307.2</ele>
        <time>2022-09-15T13:03:23Z</time>
      </trkpt>
      <trkpt lat="41.890663" lon="9.158248">
        <ele>1307.4</ele>
        <time>2022-09-15T13:03:33Z</time>
      </trkpt>
      <trkpt lat="41.89062" lon="9.158223">
        <ele>1307.8</ele>
        <time>2022-09-15T13:03:38Z</time>
      </trkpt>
      <trkpt lat="41.890587" lon="9.158217">
        <ele>1308.4</ele>
        <time>2022-09-15T13:03:42Z</time>
      </trkpt>
      <trkpt lat="41.890515" lon="9.158237">
        <ele>1309.0</ele>
        <time>2022-09-15T13:03:51Z</time>
      </trkpt>
      <trkpt lat="41.890467" lon="9.15823">
        <ele>1309.2</ele>
        <time>2022-09-15T13:03:58Z</time>
      </trkpt>
      <trkpt lat="41.890402" lon="9.158198">
        <ele>1309.2</ele>
        <time>2022-09-15T13:04:07Z</time>
      </trkpt>
      <trkpt lat="41.890292" lon="9.158133">
        <ele>1309.4</ele>
        <time>2022-09-15T13:04:18Z</time>
      </trkpt>
      <trkpt lat="41.890177" lon="9.158082">
        <ele>1309.8</ele>
        <time>2022-09-15T13:04:30Z</time>
      </trkpt>
      <trkpt lat="41.89017" lon="9.158077">
        <ele>1309.8</ele>
        <time>2022-09-15T13:04:30Z</time>
      </trkpt>
      <trkpt lat="41.890093" lon="9.15805">
        <ele>1310.2</ele>
        <time>2022-09-15T13:04:41Z</time>
      </trkpt>
      <trkpt lat="41.890052" lon="9.158013">
        <ele>1310.4</ele>
        <time>2022-09-15T13:04:49Z</time>
      </trkpt>
      <trkpt lat="41.889987" lon="9.157937">
        <ele>1310.8</ele>
        <time>2022-09-15T13:04:58Z</time>
      </trkpt>
      <trkpt lat="41.889952" lon="9.1579">
        <ele>1311.0</ele>
        <time>2022-09-15T13:05:02Z</time>
      </trkpt>
      <trkpt lat="41.889915" lon="9.15787">
        <ele>1311.2</ele>
        <time>2022-09-15T13:05:06Z</time>
      </trkpt>
      <trkpt lat="41.889907" lon="9.157857">
        <ele>1311.2</ele>
        <time>2022-09-15T13:05:06Z</time>
      </trkpt>
      <trkpt lat="41.889855" lon="9.157815">
        <ele>1311.8</ele>
        <time>2022-09-15T13:05:12Z</time>
      </trkpt>
      <trkpt lat="41.889782" lon="9.157752">
        <ele>1312.2</ele>
        <time>2022-09-15T13:05:19Z</time>
      </trkpt>
      <trkpt lat="41.889698" lon="9.157632">
        <ele>1311.8</ele>
        <time>2022-09-15T13:05:28Z</time>
      </trkpt>
      <trkpt lat="41.889688" lon="9.15762">
        <ele>1311.8</ele>
        <time>2022-09-15T13:05:29Z</time>
      </trkpt>
      <trkpt lat="41.88964" lon="9.157557">
        <ele>1311.8</ele>
        <time>2022-09-15T13:05:34Z</time>
      </trkpt>
      <trkpt lat="41.889635" lon="9.157542">
        <ele>1311.8</ele>
        <time>2022-09-15T13:05:36Z</time>
      </trkpt>
      <trkpt lat="41.889593" lon="9.157395">
        <ele>1311.6</ele>
        <time>2022-09-15T13:05:47Z</time>
      </trkpt>
      <trkpt lat="41.889552" lon="9.157243">
        <ele>1312.0</ele>
        <time>2022-09-15T13:06:04Z</time>
      </trkpt>
      <trkpt lat="41.889533" lon="9.157152">
        <ele>1312.2</ele>
        <time>2022-09-15T13:06:13Z</time>
      </trkpt>
      <trkpt lat="41.889532" lon="9.157028">
        <ele>1311.8</ele>
        <time>2022-09-15T13:06:22Z</time>
      </trkpt>
      <trkpt lat="41.889535" lon="9.157002">
        <ele>1311.8</ele>
        <time>2022-09-15T13:06:24Z</time>
      </trkpt>
      <trkpt lat="41.889492" lon="9.156877">
        <ele>1312.8</ele>
        <time>2022-09-15T13:06:34Z</time>
      </trkpt>
      <trkpt lat="41.889453" lon="9.156838">
        <ele>1313.8</ele>
        <time>2022-09-15T13:06:39Z</time>
      </trkpt>
      <trkpt lat="41.889318" lon="9.156692">
        <ele>1313.4</ele>
        <time>2022-09-15T13:06:57Z</time>
      </trkpt>
      <trkpt lat="41.889267" lon="9.156628">
        <ele>1313.4</ele>
        <time>2022-09-15T13:07:05Z</time>
      </trkpt>
      <trkpt lat="41.889088" lon="9.156585">
        <ele>1311.4</ele>
        <time>2022-09-15T13:07:28Z</time>
      </trkpt>
      <trkpt lat="41.889028" lon="9.156535">
        <ele>1311.4</ele>
        <time>2022-09-15T13:07:37Z</time>
      </trkpt>
      <trkpt lat="41.888978" lon="9.15643">
        <ele>1312.2</ele>
        <time>2022-09-15T13:07:47Z</time>
      </trkpt>
      <trkpt lat="41.888957" lon="9.15637">
        <ele>1312.8</ele>
        <time>2022-09-15T13:07:53Z</time>
      </trkpt>
      <trkpt lat="41.888792" lon="9.15612">
        <ele>1312.4</ele>
        <time>2022-09-15T13:08:22Z</time>
      </trkpt>
      <trkpt lat="41.888773" lon="9.15609">
        <ele>1312.6</ele>
        <time>2022-09-15T13:08:27Z</time>
      </trkpt>
      <trkpt lat="41.88875" lon="9.156085">
        <ele>1312.6</ele>
        <time>2022-09-15T13:08:30Z</time>
      </trkpt>
      <trkpt lat="41.888708" lon="9.156115">
        <ele>1312.8</ele>
        <time>2022-09-15T13:08:37Z</time>
      </trkpt>
      <trkpt lat="41.888653" lon="9.156112">
        <ele>1312.8</ele>
        <time>2022-09-15T13:08:44Z</time>
      </trkpt>
      <trkpt lat="41.888603" lon="9.156063">
        <ele>1312.8</ele>
        <time>2022-09-15T13:08:52Z</time>
      </trkpt>
      <trkpt lat="41.888425" lon="9.156098">
        <ele>1315.8</ele>
        <time>2022-09-15T13:09:11Z</time>
      </trkpt>
      <trkpt lat="41.88827" lon="9.156115">
        <ele>1316.4</ele>
        <time>2022-09-15T13:09:26Z</time>
      </trkpt>
      <trkpt lat="41.888117" lon="9.156107">
        <ele>1316.6</ele>
        <time>2022-09-15T13:09:44Z</time>
      </trkpt>
      <trkpt lat="41.888075" lon="9.156065">
        <ele>1317.0</ele>
        <time>2022-09-15T13:09:50Z</time>
      </trkpt>
      <trkpt lat="41.888027" lon="9.155822">
        <ele>1319.4</ele>
        <time>2022-09-15T13:10:10Z</time>
      </trkpt>
      <trkpt lat="41.888015" lon="9.155757">
        <ele>1320.0</ele>
        <time>2022-09-15T13:10:17Z</time>
      </trkpt>
      <trkpt lat="41.888017" lon="9.155657">
        <ele>1321.0</ele>
        <time>2022-09-15T13:10:25Z</time>
      </trkpt>
      <trkpt lat="41.888028" lon="9.155583">
        <ele>1321.4</ele>
        <time>2022-09-15T13:10:31Z</time>
      </trkpt>
      <trkpt lat="41.88804" lon="9.155552">
        <ele>1322.0</ele>
        <time>2022-09-15T13:10:34Z</time>
      </trkpt>
      <trkpt lat="41.888012" lon="9.1553">
        <ele>1324.6</ele>
        <time>2022-09-15T13:10:50Z</time>
      </trkpt>
      <trkpt lat="41.888003" lon="9.155233">
        <ele>1325.2</ele>
        <time>2022-09-15T13:10:55Z</time>
      </trkpt>
      <trkpt lat="41.887967" lon="9.155143">
        <ele>1325.8</ele>
        <time>2022-09-15T13:11:01Z</time>
      </trkpt>
      <trkpt lat="41.887913" lon="9.15502">
        <ele>1326.4</ele>
        <time>2022-09-15T13:11:09Z</time>
      </trkpt>
      <trkpt lat="41.887892" lon="9.154912">
        <ele>1327.2</ele>
        <time>2022-09-15T13:11:15Z</time>
      </trkpt>
      <trkpt lat="41.887957" lon="9.154807">
        <ele>1329.0</ele>
        <time>2022-09-15T13:11:25Z</time>
      </trkpt>
      <trkpt lat="41.888012" lon="9.154745">
        <ele>1330.2</ele>
        <time>2022-09-15T13:11:33Z</time>
      </trkpt>
      <trkpt lat="41.888053" lon="9.15465">
        <ele>1331.6</ele>
        <time>2022-09-15T13:11:43Z</time>
      </trkpt>
      <trkpt lat="41.888077" lon="9.154592">
        <ele>1332.8</ele>
        <time>2022-09-15T13:11:49Z</time>
      </trkpt>
      <trkpt lat="41.8881" lon="9.154547">
        <ele>1333.4</ele>
        <time>2022-09-15T13:11:54Z</time>
      </trkpt>
      <trkpt lat="41.888108" lon="9.15454">
        <ele>1333.8</ele>
        <time>2022-09-15T13:11:55Z</time>
      </trkpt>
      <trkpt lat="41.88809" lon="9.15446">
        <ele>1335.0</ele>
        <time>2022-09-15T13:12:05Z</time>
      </trkpt>
      <trkpt lat="41.888063" lon="9.15441">
        <ele>1335.6</ele>
        <time>2022-09-15T13:12:11Z</time>
      </trkpt>
      <trkpt lat="41.887977" lon="9.154388">
        <ele>1336.6</ele>
        <time>2022-09-15T13:12:20Z</time>
      </trkpt>
      <trkpt lat="41.887815" lon="9.154393">
        <ele>1339.8</ele>
        <time>2022-09-15T13:12:44Z</time>
      </trkpt>
      <trkpt lat="41.887807" lon="9.154388">
        <ele>1339.8</ele>
        <time>2022-09-15T13:12:45Z</time>
      </trkpt>
      <trkpt lat="41.887712" lon="9.15432">
        <ele>1340.2</ele>
        <time>2022-09-15T13:12:57Z</time>
      </trkpt>
      <trkpt lat="41.88762" lon="9.154185">
        <ele>1340.0</ele>
        <time>2022-09-15T13:13:13Z</time>
      </trkpt>
      <trkpt lat="41.887585" lon="9.15395">
        <ele>1339.6</ele>
        <time>2022-09-15T13:13:34Z</time>
      </trkpt>
      <trkpt lat="41.887587" lon="9.15376">
        <ele>1340.2</ele>
        <time>2022-09-15T13:13:51Z</time>
      </trkpt>
      <trkpt lat="41.887612" lon="9.153647">
        <ele>1340.4</ele>
        <time>2022-09-15T13:14:00Z</time>
      </trkpt>
      <trkpt lat="41.887632" lon="9.153465">
        <ele>1343.2</ele>
        <time>2022-09-15T13:14:14Z</time>
      </trkpt>
      <trkpt lat="41.887628" lon="9.15345">
        <ele>1343.2</ele>
        <time>2022-09-15T13:14:15Z</time>
      </trkpt>
      <trkpt lat="41.88762" lon="9.153412">
        <ele>1343.6</ele>
        <time>2022-09-15T13:14:18Z</time>
      </trkpt>
      <trkpt lat="41.887575" lon="9.15333">
        <ele>1345.0</ele>
        <time>2022-09-15T13:14:26Z</time>
      </trkpt>
      <trkpt lat="41.88757" lon="9.153262">
        <ele>1344.8</ele>
        <time>2022-09-15T13:14:33Z</time>
      </trkpt>
      <trkpt lat="41.887528" lon="9.153058">
        <ele>1345.8</ele>
        <time>2022-09-15T13:14:55Z</time>
      </trkpt>
      <trkpt lat="41.887403" lon="9.152843">
        <ele>1347.2</ele>
        <time>2022-09-15T13:15:17Z</time>
      </trkpt>
      <trkpt lat="41.887368" lon="9.152727">
        <ele>1347.2</ele>
        <time>2022-09-15T13:15:27Z</time>
      </trkpt>
      <trkpt lat="41.88735" lon="9.15266">
        <ele>1347.4</ele>
        <time>2022-09-15T13:15:33Z</time>
      </trkpt>
      <trkpt lat="41.887365" lon="9.152573">
        <ele>1347.2</ele>
        <time>2022-09-15T13:15:40Z</time>
      </trkpt>
      <trkpt lat="41.88738" lon="9.152392">
        <ele>1347.8</ele>
        <time>2022-09-15T13:15:55Z</time>
      </trkpt>
      <trkpt lat="41.887412" lon="9.15228">
        <ele>1347.8</ele>
        <time>2022-09-15T13:16:04Z</time>
      </trkpt>
      <trkpt lat="41.887422" lon="9.152223">
        <ele>1347.6</ele>
        <time>2022-09-15T13:16:15Z</time>
      </trkpt>
      <trkpt lat="41.887425" lon="9.152225">
        <ele>1347.6</ele>
        <time>2022-09-15T13:16:15Z</time>
      </trkpt>
      <trkpt lat="41.887438" lon="9.152222">
        <ele>1347.6</ele>
        <time>2022-09-15T13:16:17Z</time>
      </trkpt>
      <trkpt lat="41.887408" lon="9.152142">
        <ele>1347.2</ele>
        <time>2022-09-15T13:16:36Z</time>
      </trkpt>
      <trkpt lat="41.887407" lon="9.1521">
        <ele>1346.4</ele>
        <time>2022-09-15T13:16:48Z</time>
      </trkpt>
      <trkpt lat="41.887445" lon="9.152013">
        <ele>1344.4</ele>
        <time>2022-09-15T13:17:13Z</time>
      </trkpt>
      <trkpt lat="41.887498" lon="9.151752">
        <ele>1344.0</ele>
        <time>2022-09-15T13:17:19Z</time>
      </trkpt>
      <trkpt lat="41.887438" lon="9.151497">
        <ele>1343.4</ele>
        <time>2022-09-15T13:17:30Z</time>
      </trkpt>
      <trkpt lat="41.887482" lon="9.151223">
        <ele>1339.4</ele>
        <time>2022-09-15T13:17:52Z</time>
      </trkpt>
      <trkpt lat="41.88765" lon="9.15108">
        <ele>1337.8</ele>
        <time>2022-09-15T13:18:02Z</time>
      </trkpt>
      <trkpt lat="41.887675" lon="9.151008">
        <ele>1337.8</ele>
        <time>2022-09-15T13:18:06Z</time>
      </trkpt>
      <trkpt lat="41.887688" lon="9.150973">
        <ele>1337.6</ele>
        <time>2022-09-15T13:18:09Z</time>
      </trkpt>
      <trkpt lat="41.887713" lon="9.150917">
        <ele>1337.0</ele>
        <time>2022-09-15T13:18:15Z</time>
      </trkpt>
      <trkpt lat="41.88776" lon="9.150877">
        <ele>1335.8</ele>
        <time>2022-09-15T13:18:23Z</time>
      </trkpt>
      <trkpt lat="41.887773" lon="9.150848">
        <ele>1335.4</ele>
        <time>2022-09-15T13:18:27Z</time>
      </trkpt>
      <trkpt lat="41.8878" lon="9.150787">
        <ele>1334.8</ele>
        <time>2022-09-15T13:18:33Z</time>
      </trkpt>
      <trkpt lat="41.887798" lon="9.150708">
        <ele>1334.0</ele>
        <time>2022-09-15T13:18:40Z</time>
      </trkpt>
      <trkpt lat="41.88779" lon="9.150583">
        <ele>1333.6</ele>
        <time>2022-09-15T13:18:50Z</time>
      </trkpt>
      <trkpt lat="41.887827" lon="9.150498">
        <ele>1333.4</ele>
        <time>2022-09-15T13:18:59Z</time>
      </trkpt>
      <trkpt lat="41.887848" lon="9.150417">
        <ele>1331.0</ele>
        <time>2022-09-15T13:19:06Z</time>
      </trkpt>
      <trkpt lat="41.887847" lon="9.15039">
        <ele>1331.0</ele>
        <time>2022-09-15T13:19:08Z</time>
      </trkpt>
      <trkpt lat="41.887835" lon="9.150345">
        <ele>1331.2</ele>
        <time>2022-09-15T13:19:12Z</time>
      </trkpt>
      <trkpt lat="41.887822" lon="9.15026">
        <ele>1330.0</ele>
        <time>2022-09-15T13:19:19Z</time>
      </trkpt>
      <trkpt lat="41.887757" lon="9.150113">
        <ele>1329.2</ele>
        <time>2022-09-15T13:19:35Z</time>
      </trkpt>
      <trkpt lat="41.887703" lon="9.150055">
        <ele>1328.2</ele>
        <time>2022-09-15T13:19:44Z</time>
      </trkpt>
      <trkpt lat="41.887688" lon="9.150047">
        <ele>1328.2</ele>
        <time>2022-09-15T13:19:46Z</time>
      </trkpt>
      <trkpt lat="41.887632" lon="9.149957">
        <ele>1326.6</ele>
        <time>2022-09-15T13:19:55Z</time>
      </trkpt>
      <trkpt lat="41.887587" lon="9.149887">
        <ele>1325.8</ele>
        <time>2022-09-15T13:20:02Z</time>
      </trkpt>
      <trkpt lat="41.887527" lon="9.149823">
        <ele>1325.8</ele>
        <time>2022-09-15T13:20:12Z</time>
      </trkpt>
      <trkpt lat="41.887497" lon="9.149793">
        <ele>1325.6</ele>
        <time>2022-09-15T13:20:16Z</time>
      </trkpt>
      <trkpt lat="41.88742" lon="9.149702">
        <ele>1325.4</ele>
        <time>2022-09-15T13:20:27Z</time>
      </trkpt>
      <trkpt lat="41.88729" lon="9.149715">
        <ele>1324.6</ele>
        <time>2022-09-15T13:20:36Z</time>
      </trkpt>
      <trkpt lat="41.887127" lon="9.14972">
        <ele>1323.8</ele>
        <time>2022-09-15T13:20:47Z</time>
      </trkpt>
      <trkpt lat="41.887045" lon="9.14965">
        <ele>1323.2</ele>
        <time>2022-09-15T13:20:54Z</time>
      </trkpt>
      <trkpt lat="41.887098" lon="9.149527">
        <ele>1321.8</ele>
        <time>2022-09-15T13:21:10Z</time>
      </trkpt>
      <trkpt lat="41.887152" lon="9.149442">
        <ele>1321.8</ele>
        <time>2022-09-15T13:21:21Z</time>
      </trkpt>
      <trkpt lat="41.887108" lon="9.149458">
        <ele>1321.4</ele>
        <time>2022-09-15T13:21:26Z</time>
      </trkpt>
      <trkpt lat="41.887067" lon="9.149485">
        <ele>1321.8</ele>
        <time>2022-09-15T13:21:31Z</time>
      </trkpt>
      <trkpt lat="41.88703" lon="9.1496">
        <ele>1322.4</ele>
        <time>2022-09-15T13:21:43Z</time>
      </trkpt>
      <trkpt lat="41.886943" lon="9.149617">
        <ele>1322.0</ele>
        <time>2022-09-15T13:21:52Z</time>
      </trkpt>
      <trkpt lat="41.887072" lon="9.149372">
        <ele>1322.6</ele>
        <time>2022-09-15T13:22:06Z</time>
      </trkpt>
      <trkpt lat="41.887083" lon="9.149348">
        <ele>1322.6</ele>
        <time>2022-09-15T13:22:07Z</time>
      </trkpt>
      <trkpt lat="41.887095" lon="9.149325">
        <ele>1322.8</ele>
        <time>2022-09-15T13:22:08Z</time>
      </trkpt>
      <trkpt lat="41.88711" lon="9.149273">
        <ele>1322.6</ele>
        <time>2022-09-15T13:22:11Z</time>
      </trkpt>
      <trkpt lat="41.887117" lon="9.149243">
        <ele>1322.4</ele>
        <time>2022-09-15T13:22:12Z</time>
      </trkpt>
      <trkpt lat="41.887155" lon="9.14904">
        <ele>1322.4</ele>
        <time>2022-09-15T13:22:20Z</time>
      </trkpt>
      <trkpt lat="41.887192" lon="9.148833">
        <ele>1321.6</ele>
        <time>2022-09-15T13:22:29Z</time>
      </trkpt>
      <trkpt lat="41.887155" lon="9.148643">
        <ele>1321.0</ele>
        <time>2022-09-15T13:22:43Z</time>
      </trkpt>
      <trkpt lat="41.887157" lon="9.148553">
        <ele>1320.6</ele>
        <time>2022-09-15T13:22:51Z</time>
      </trkpt>
      <trkpt lat="41.88722" lon="9.14852">
        <ele>1320.6</ele>
        <time>2022-09-15T13:22:56Z</time>
      </trkpt>
      <trkpt lat="41.88726" lon="9.148502">
        <ele>1319.2</ele>
        <time>2022-09-15T13:22:59Z</time>
      </trkpt>
      <trkpt lat="41.887257" lon="9.148473">
        <ele>1319.2</ele>
        <time>2022-09-15T13:23:01Z</time>
      </trkpt>
      <trkpt lat="41.887325" lon="9.148188">
        <ele>1318.0</ele>
        <time>2022-09-15T13:23:28Z</time>
      </trkpt>
      <trkpt lat="41.887382" lon="9.148083">
        <ele>1316.2</ele>
        <time>2022-09-15T13:23:42Z</time>
      </trkpt>
      <trkpt lat="41.88747" lon="9.147732">
        <ele>1315.0</ele>
        <time>2022-09-15T13:24:08Z</time>
      </trkpt>
      <trkpt lat="41.887428" lon="9.147615">
        <ele>1314.4</ele>
        <time>2022-09-15T13:24:19Z</time>
      </trkpt>
      <trkpt lat="41.887358" lon="9.147505">
        <ele>1313.4</ele>
        <time>2022-09-15T13:24:29Z</time>
      </trkpt>
      <trkpt lat="41.88735" lon="9.147495">
        <ele>1313.4</ele>
        <time>2022-09-15T13:24:30Z</time>
      </trkpt>
      <trkpt lat="41.8872" lon="9.147408">
        <ele>1312.0</ele>
        <time>2022-09-15T13:24:47Z</time>
      </trkpt>
      <trkpt lat="41.88704" lon="9.147358">
        <ele>1311.8</ele>
        <time>2022-09-15T13:25:05Z</time>
      </trkpt>
      <trkpt lat="41.886985" lon="9.147358">
        <ele>1311.0</ele>
        <time>2022-09-15T13:25:11Z</time>
      </trkpt>
      <trkpt lat="41.886905" lon="9.147355">
        <ele>1311.0</ele>
        <time>2022-09-15T13:25:19Z</time>
      </trkpt>
      <trkpt lat="41.886837" lon="9.14735">
        <ele>1310.0</ele>
        <time>2022-09-15T13:25:26Z</time>
      </trkpt>
      <trkpt lat="41.88682" lon="9.14731">
        <ele>1309.2</ele>
        <time>2022-09-15T13:25:32Z</time>
      </trkpt>
      <trkpt lat="41.886727" lon="9.14718">
        <ele>1309.0</ele>
        <time>2022-09-15T13:25:49Z</time>
      </trkpt>
      <trkpt lat="41.886677" lon="9.147188">
        <ele>1308.8</ele>
        <time>2022-09-15T13:25:54Z</time>
      </trkpt>
      <trkpt lat="41.886505" lon="9.147225">
        <ele>1309.0</ele>
        <time>2022-09-15T13:26:07Z</time>
      </trkpt>
      <trkpt lat="41.886435" lon="9.147227">
        <ele>1309.6</ele>
        <time>2022-09-15T13:26:12Z</time>
      </trkpt>
      <trkpt lat="41.88635" lon="9.147183">
        <ele>1309.2</ele>
        <time>2022-09-15T13:26:22Z</time>
      </trkpt>
      <trkpt lat="41.88622" lon="9.147117">
        <ele>1308.2</ele>
        <time>2022-09-15T13:26:35Z</time>
      </trkpt>
      <trkpt lat="41.886122" lon="9.14704">
        <ele>1308.2</ele>
        <time>2022-09-15T13:26:43Z</time>
      </trkpt>
      <trkpt lat="41.886008" lon="9.146982">
        <ele>1309.0</ele>
        <time>2022-09-15T13:26:52Z</time>
      </trkpt>
      <trkpt lat="41.885997" lon="9.146977">
        <ele>1308.6</ele>
        <time>2022-09-15T13:26:53Z</time>
      </trkpt>
      <trkpt lat="41.885908" lon="9.1469">
        <ele>1308.4</ele>
        <time>2022-09-15T13:27:03Z</time>
      </trkpt>
      <trkpt lat="41.885825" lon="9.146883">
        <ele>1308.0</ele>
        <time>2022-09-15T13:27:11Z</time>
      </trkpt>
      <trkpt lat="41.885692" lon="9.146955">
        <ele>1308.4</ele>
        <time>2022-09-15T13:27:23Z</time>
      </trkpt>
      <trkpt lat="41.88562" lon="9.146988">
        <ele>1308.6</ele>
        <time>2022-09-15T13:27:29Z</time>
      </trkpt>
      <trkpt lat="41.885587" lon="9.146992">
        <ele>1308.6</ele>
        <time>2022-09-15T13:27:32Z</time>
      </trkpt>
      <trkpt lat="41.885528" lon="9.147002">
        <ele>1308.6</ele>
        <time>2022-09-15T13:27:39Z</time>
      </trkpt>
      <trkpt lat="41.885453" lon="9.146983">
        <ele>1309.2</ele>
        <time>2022-09-15T13:27:49Z</time>
      </trkpt>
      <trkpt lat="41.885335" lon="9.146922">
        <ele>1309.0</ele>
        <time>2022-09-15T13:28:07Z</time>
      </trkpt>
      <trkpt lat="41.885308" lon="9.146918">
        <ele>1309.0</ele>
        <time>2022-09-15T13:28:11Z</time>
      </trkpt>
      <trkpt lat="41.885202" lon="9.146873">
        <ele>1310.4</ele>
        <time>2022-09-15T13:28:25Z</time>
      </trkpt>
      <trkpt lat="41.885178" lon="9.14684">
        <ele>1310.6</ele>
        <time>2022-09-15T13:28:30Z</time>
      </trkpt>
      <trkpt lat="41.885163" lon="9.146762">
        <ele>1311.8</ele>
        <time>2022-09-15T13:28:37Z</time>
      </trkpt>
      <trkpt lat="41.885143" lon="9.146585">
        <ele>1313.0</ele>
        <time>2022-09-15T13:28:51Z</time>
      </trkpt>
      <trkpt lat="41.885075" lon="9.14637">
        <ele>1312.8</ele>
        <time>2022-09-15T13:29:28Z</time>
      </trkpt>
      <trkpt lat="41.884975" lon="9.146203">
        <ele>1312.4</ele>
        <time>2022-09-15T13:29:43Z</time>
      </trkpt>
      <trkpt lat="41.884915" lon="9.146065">
        <ele>1312.8</ele>
        <time>2022-09-15T13:29:54Z</time>
      </trkpt>
      <trkpt lat="41.88485" lon="9.145927">
        <ele>1312.8</ele>
        <time>2022-09-15T13:30:04Z</time>
      </trkpt>
      <trkpt lat="41.884798" lon="9.145878">
        <ele>1313.2</ele>
        <time>2022-09-15T13:30:09Z</time>
      </trkpt>
      <trkpt lat="41.884707" lon="9.145715">
        <ele>1315.2</ele>
        <time>2022-09-15T13:30:24Z</time>
      </trkpt>
      <trkpt lat="41.884692" lon="9.14566">
        <ele>1315.6</ele>
        <time>2022-09-15T13:30:29Z</time>
      </trkpt>
      <trkpt lat="41.884677" lon="9.14542">
        <ele>1315.4</ele>
        <time>2022-09-15T13:30:49Z</time>
      </trkpt>
      <trkpt lat="41.884673" lon="9.145318">
        <ele>1315.4</ele>
        <time>2022-09-15T13:30:55Z</time>
      </trkpt>
      <trkpt lat="41.884663" lon="9.145183">
        <ele>1315.2</ele>
        <time>2022-09-15T13:31:04Z</time>
      </trkpt>
      <trkpt lat="41.88469" lon="9.145033">
        <ele>1316.4</ele>
        <time>2022-09-15T13:31:15Z</time>
      </trkpt>
      <trkpt lat="41.884672" lon="9.144933">
        <ele>1316.4</ele>
        <time>2022-09-15T13:31:21Z</time>
      </trkpt>
      <trkpt lat="41.884642" lon="9.144847">
        <ele>1316.4</ele>
        <time>2022-09-15T13:31:27Z</time>
      </trkpt>
      <trkpt lat="41.884633" lon="9.144828">
        <ele>1316.4</ele>
        <time>2022-09-15T13:31:28Z</time>
      </trkpt>
      <trkpt lat="41.884625" lon="9.144812">
        <ele>1316.8</ele>
        <time>2022-09-15T13:31:29Z</time>
      </trkpt>
      <trkpt lat="41.884587" lon="9.144807">
        <ele>1316.8</ele>
        <time>2022-09-15T13:31:32Z</time>
      </trkpt>
      <trkpt lat="41.88451" lon="9.144772">
        <ele>1317.6</ele>
        <time>2022-09-15T13:31:40Z</time>
      </trkpt>
      <trkpt lat="41.884485" lon="9.14484">
        <ele>1318.4</ele>
        <time>2022-09-15T13:31:47Z</time>
      </trkpt>
      <trkpt lat="41.884478" lon="9.144887">
        <ele>1318.8</ele>
        <time>2022-09-15T13:31:52Z</time>
      </trkpt>
      <trkpt lat="41.884452" lon="9.144942">
        <ele>1319.4</ele>
        <time>2022-09-15T13:31:58Z</time>
      </trkpt>
      <trkpt lat="41.884425" lon="9.145002">
        <ele>1320.2</ele>
        <time>2022-09-15T13:32:04Z</time>
      </trkpt>
      <trkpt lat="41.884407" lon="9.145053">
        <ele>1321.0</ele>
        <time>2022-09-15T13:32:08Z</time>
      </trkpt>
      <trkpt lat="41.884398" lon="9.145062">
        <ele>1321.2</ele>
        <time>2022-09-15T13:32:10Z</time>
      </trkpt>
      <trkpt lat="41.884385" lon="9.145045">
        <ele>1321.2</ele>
        <time>2022-09-15T13:32:12Z</time>
      </trkpt>
      <trkpt lat="41.884383" lon="9.144945">
        <ele>1322.4</ele>
        <time>2022-09-15T13:32:22Z</time>
      </trkpt>
      <trkpt lat="41.884357" lon="9.1449">
        <ele>1323.0</ele>
        <time>2022-09-15T13:32:28Z</time>
      </trkpt>
      <trkpt lat="41.884297" lon="9.144867">
        <ele>1323.8</ele>
        <time>2022-09-15T13:32:37Z</time>
      </trkpt>
      <trkpt lat="41.884242" lon="9.1449">
        <ele>1326.0</ele>
        <time>2022-09-15T13:32:47Z</time>
      </trkpt>
      <trkpt lat="41.884188" lon="9.14487">
        <ele>1327.2</ele>
        <time>2022-09-15T13:32:56Z</time>
      </trkpt>
      <trkpt lat="41.884175" lon="9.144867">
        <ele>1327.4</ele>
        <time>2022-09-15T13:33:01Z</time>
      </trkpt>
      <trkpt lat="41.884093" lon="9.144867">
        <ele>1329.0</ele>
        <time>2022-09-15T13:33:10Z</time>
      </trkpt>
      <trkpt lat="41.88403" lon="9.14486">
        <ele>1329.8</ele>
        <time>2022-09-15T13:33:16Z</time>
      </trkpt>
      <trkpt lat="41.88388" lon="9.144747">
        <ele>1333.8</ele>
        <time>2022-09-15T13:33:43Z</time>
      </trkpt>
      <trkpt lat="41.883808" lon="9.144663">
        <ele>1335.8</ele>
        <time>2022-09-15T13:33:52Z</time>
      </trkpt>
      <trkpt lat="41.883763" lon="9.144605">
        <ele>1337.0</ele>
        <time>2022-09-15T13:33:58Z</time>
      </trkpt>
      <trkpt lat="41.88365" lon="9.144415">
        <ele>1338.8</ele>
        <time>2022-09-15T13:34:12Z</time>
      </trkpt>
      <trkpt lat="41.88363" lon="9.1444">
        <ele>1339.2</ele>
        <time>2022-09-15T13:34:14Z</time>
      </trkpt>
      <trkpt lat="41.883515" lon="9.144337">
        <ele>1340.2</ele>
        <time>2022-09-15T13:34:28Z</time>
      </trkpt>
      <trkpt lat="41.883372" lon="9.144282">
        <ele>1339.2</ele>
        <time>2022-09-15T13:34:44Z</time>
      </trkpt>
      <trkpt lat="41.883315" lon="9.144333">
        <ele>1341.6</ele>
        <time>2022-09-15T13:34:53Z</time>
      </trkpt>
      <trkpt lat="41.88329" lon="9.144358">
        <ele>1341.2</ele>
        <time>2022-09-15T13:34:57Z</time>
      </trkpt>
      <trkpt lat="41.883247" lon="9.144403">
        <ele>1340.4</ele>
        <time>2022-09-15T13:35:03Z</time>
      </trkpt>
      <trkpt lat="41.883162" lon="9.14442">
        <ele>1341.2</ele>
        <time>2022-09-15T13:35:14Z</time>
      </trkpt>
      <trkpt lat="41.883025" lon="9.144548">
        <ele>1341.0</ele>
        <time>2022-09-15T13:35:35Z</time>
      </trkpt>
      <trkpt lat="41.883018" lon="9.144557">
        <ele>1341.0</ele>
        <time>2022-09-15T13:35:36Z</time>
      </trkpt>
      <trkpt lat="41.882925" lon="9.144615">
        <ele>1341.8</ele>
        <time>2022-09-15T13:35:46Z</time>
      </trkpt>
      <trkpt lat="41.8829" lon="9.144638">
        <ele>1341.8</ele>
        <time>2022-09-15T13:35:49Z</time>
      </trkpt>
      <trkpt lat="41.882885" lon="9.144655">
        <ele>1341.8</ele>
        <time>2022-09-15T13:35:52Z</time>
      </trkpt>
      <trkpt lat="41.882837" lon="9.144683">
        <ele>1342.0</ele>
        <time>2022-09-15T13:35:58Z</time>
      </trkpt>
      <trkpt lat="41.882735" lon="9.144728">
        <ele>1342.6</ele>
        <time>2022-09-15T13:36:12Z</time>
      </trkpt>
      <trkpt lat="41.882668" lon="9.144775">
        <ele>1342.6</ele>
        <time>2022-09-15T13:36:26Z</time>
      </trkpt>
      <trkpt lat="41.882665" lon="9.14478">
        <ele>1342.6</ele>
        <time>2022-09-15T13:36:27Z</time>
      </trkpt>
      <trkpt lat="41.88257" lon="9.144875">
        <ele>1343.2</ele>
        <time>2022-09-15T13:36:44Z</time>
      </trkpt>
      <trkpt lat="41.882457" lon="9.144993">
        <ele>1343.2</ele>
        <time>2022-09-15T13:37:02Z</time>
      </trkpt>
      <trkpt lat="41.88235" lon="9.144875">
        <ele>1340.2</ele>
        <time>2022-09-15T13:37:20Z</time>
      </trkpt>
      <trkpt lat="41.882377" lon="9.144858">
        <ele>1339.6</ele>
        <time>2022-09-15T13:37:24Z</time>
      </trkpt>
      <trkpt lat="41.882477" lon="9.144865">
        <ele>1338.6</ele>
        <time>2022-09-15T13:37:47Z</time>
      </trkpt>
      <trkpt lat="41.882475" lon="9.144833">
        <ele>1339.4</ele>
        <time>2022-09-15T13:37:56Z</time>
      </trkpt>
      <trkpt lat="41.882437" lon="9.144838">
        <ele>1340.0</ele>
        <time>2022-09-15T13:38:00Z</time>
      </trkpt>
      <trkpt lat="41.882407" lon="9.144877">
        <ele>1339.4</ele>
        <time>2022-09-15T13:38:04Z</time>
      </trkpt>
      <trkpt lat="41.882337" lon="9.145047">
        <ele>1338.4</ele>
        <time>2022-09-15T13:38:18Z</time>
      </trkpt>
      <trkpt lat="41.882323" lon="9.145123">
        <ele>1338.6</ele>
        <time>2022-09-15T13:38:24Z</time>
      </trkpt>
      <trkpt lat="41.882257" lon="9.1452">
        <ele>1337.8</ele>
        <time>2022-09-15T13:42:37Z</time>
      </trkpt>
      <trkpt lat="41.882105" lon="9.14526">
        <ele>1338.0</ele>
        <time>2022-09-15T13:42:47Z</time>
      </trkpt>
      <trkpt lat="41.882023" lon="9.145282">
        <ele>1338.0</ele>
        <time>2022-09-15T13:42:51Z</time>
      </trkpt>
      <trkpt lat="41.881887" lon="9.145308">
        <ele>1338.0</ele>
        <time>2022-09-15T13:42:57Z</time>
      </trkpt>
      <trkpt lat="41.881678" lon="9.145305">
        <ele>1338.0</ele>
        <time>2022-09-15T13:43:06Z</time>
      </trkpt>
      <trkpt lat="41.881593" lon="9.145343">
        <ele>1337.6</ele>
        <time>2022-09-15T13:43:10Z</time>
      </trkpt>
      <trkpt lat="41.881478" lon="9.145412">
        <ele>1336.2</ele>
        <time>2022-09-15T13:43:16Z</time>
      </trkpt>
      <trkpt lat="41.881462" lon="9.145428">
        <ele>1336.2</ele>
        <time>2022-09-15T13:43:18Z</time>
      </trkpt>
      <trkpt lat="41.881453" lon="9.145437">
        <ele>1336.0</ele>
        <time>2022-09-15T13:43:19Z</time>
      </trkpt>
      <trkpt lat="41.881402" lon="9.14551">
        <ele>1335.4</ele>
        <time>2022-09-15T13:43:27Z</time>
      </trkpt>
      <trkpt lat="41.881363" lon="9.145532">
        <ele>1334.0</ele>
        <time>2022-09-15T13:43:33Z</time>
      </trkpt>
      <trkpt lat="41.881307" lon="9.145548">
        <ele>1332.6</ele>
        <time>2022-09-15T13:43:40Z</time>
      </trkpt>
      <trkpt lat="41.881263" lon="9.145552">
        <ele>1332.2</ele>
        <time>2022-09-15T13:43:46Z</time>
      </trkpt>
      <trkpt lat="41.881252" lon="9.145542">
        <ele>1332.2</ele>
        <time>2022-09-15T13:43:48Z</time>
      </trkpt>
      <trkpt lat="41.881177" lon="9.145477">
        <ele>1332.2</ele>
        <time>2022-09-15T13:43:59Z</time>
      </trkpt>
      <trkpt lat="41.881073" lon="9.145422">
        <ele>1332.2</ele>
        <time>2022-09-15T13:44:14Z</time>
      </trkpt>
      <trkpt lat="41.881033" lon="9.145375">
        <ele>1331.0</ele>
        <time>2022-09-15T13:44:20Z</time>
      </trkpt>
      <trkpt lat="41.880957" lon="9.145345">
        <ele>1329.4</ele>
        <time>2022-09-15T13:44:31Z</time>
      </trkpt>
      <trkpt lat="41.880833" lon="9.14529">
        <ele>1327.8</ele>
        <time>2022-09-15T13:44:46Z</time>
      </trkpt>
      <trkpt lat="41.880695" lon="9.145197">
        <ele>1326.0</ele>
        <time>2022-09-15T13:45:08Z</time>
      </trkpt>
      <trkpt lat="41.880623" lon="9.14512">
        <ele>1327.4</ele>
        <time>2022-09-15T13:45:24Z</time>
      </trkpt>
      <trkpt lat="41.880605" lon="9.14511">
        <ele>1327.4</ele>
        <time>2022-09-15T13:45:25Z</time>
      </trkpt>
      <trkpt lat="41.88052" lon="9.145073">
        <ele>1327.8</ele>
        <time>2022-09-15T13:45:31Z</time>
      </trkpt>
      <trkpt lat="41.880405" lon="9.144993">
        <ele>1327.4</ele>
        <time>2022-09-15T13:45:41Z</time>
      </trkpt>
      <trkpt lat="41.88033" lon="9.144947">
        <ele>1327.0</ele>
        <time>2022-09-15T13:45:47Z</time>
      </trkpt>
      <trkpt lat="41.880288" lon="9.144923">
        <ele>1326.4</ele>
        <time>2022-09-15T13:45:52Z</time>
      </trkpt>
      <trkpt lat="41.880225" lon="9.1449">
        <ele>1326.2</ele>
        <time>2022-09-15T13:45:56Z</time>
      </trkpt>
      <trkpt lat="41.880147" lon="9.144915">
        <ele>1326.2</ele>
        <time>2022-09-15T13:46:01Z</time>
      </trkpt>
      <trkpt lat="41.880132" lon="9.144918">
        <ele>1326.2</ele>
        <time>2022-09-15T13:46:02Z</time>
      </trkpt>
      <trkpt lat="41.880053" lon="9.144945">
        <ele>1326.2</ele>
        <time>2022-09-15T13:46:09Z</time>
      </trkpt>
      <trkpt lat="41.880003" lon="9.144948">
        <ele>1327.6</ele>
        <time>2022-09-15T13:46:18Z</time>
      </trkpt>
      <trkpt lat="41.879998" lon="9.144993">
        <ele>1328.2</ele>
        <time>2022-09-15T13:46:40Z</time>
      </trkpt>
      <trkpt lat="41.880023" lon="9.145083">
        <ele>1328.4</ele>
        <time>2022-09-15T13:46:47Z</time>
      </trkpt>
      <trkpt lat="41.880037" lon="9.145133">
        <ele>1328.4</ele>
        <time>2022-09-15T13:46:50Z</time>
      </trkpt>
      <trkpt lat="41.88" lon="9.145202">
        <ele>1328.6</ele>
        <time>2022-09-15T13:46:55Z</time>
      </trkpt>
      <trkpt lat="41.879972" lon="9.145277">
        <ele>1328.6</ele>
        <time>2022-09-15T13:47:00Z</time>
      </trkpt>
      <trkpt lat="41.87992" lon="9.14534">
        <ele>1328.4</ele>
        <time>2022-09-15T13:47:06Z</time>
      </trkpt>
      <trkpt lat="41.879867" lon="9.14536">
        <ele>1328.2</ele>
        <time>2022-09-15T13:47:13Z</time>
      </trkpt>
      <trkpt lat="41.87985" lon="9.145373">
        <ele>1328.2</ele>
        <time>2022-09-15T13:47:16Z</time>
      </trkpt>
      <trkpt lat="41.8799" lon="9.145405">
        <ele>1328.4</ele>
        <time>2022-09-15T13:47:28Z</time>
      </trkpt>
      <trkpt lat="41.879902" lon="9.14542">
        <ele>1328.4</ele>
        <time>2022-09-15T13:47:30Z</time>
      </trkpt>
      <trkpt lat="41.879908" lon="9.145407">
        <ele>1328.8</ele>
        <time>2022-09-15T13:47:31Z</time>
      </trkpt>
      <trkpt lat="41.88001" lon="9.145222">
        <ele>1329.2</ele>
        <time>2022-09-15T13:47:42Z</time>
      </trkpt>
      <trkpt lat="41.880042" lon="9.14509">
        <ele>1329.2</ele>
        <time>2022-09-15T13:47:51Z</time>
      </trkpt>
      <trkpt lat="41.880093" lon="9.145062">
        <ele>1328.8</ele>
        <time>2022-09-15T13:47:56Z</time>
      </trkpt>
      <trkpt lat="41.88008" lon="9.14498">
        <ele>1328.6</ele>
        <time>2022-09-15T13:48:03Z</time>
      </trkpt>
      <trkpt lat="41.880097" lon="9.144957">
        <ele>1328.4</ele>
        <time>2022-09-15T13:48:06Z</time>
      </trkpt>
      <trkpt lat="41.880132" lon="9.144923">
        <ele>1328.2</ele>
        <time>2022-09-15T13:48:12Z</time>
      </trkpt>
      <trkpt lat="41.880133" lon="9.144915">
        <ele>1328.2</ele>
        <time>2022-09-15T13:48:13Z</time>
      </trkpt>
      <trkpt lat="41.880153" lon="9.144763">
        <ele>1331.0</ele>
        <time>2022-09-15T13:48:37Z</time>
      </trkpt>
      <trkpt lat="41.88015" lon="9.144695">
        <ele>1331.8</ele>
        <time>2022-09-15T13:48:50Z</time>
      </trkpt>
      <trkpt lat="41.880142" lon="9.144713">
        <ele>1331.8</ele>
        <time>2022-09-15T13:48:51Z</time>
      </trkpt>
      <trkpt lat="41.879945" lon="9.145053">
        <ele>1333.0</ele>
        <time>2022-09-15T13:49:11Z</time>
      </trkpt>
      <trkpt lat="41.879757" lon="9.145293">
        <ele>1332.4</ele>
        <time>2022-09-15T13:49:24Z</time>
      </trkpt>
      <trkpt lat="41.879537" lon="9.145297">
        <ele>1335.2</ele>
        <time>2022-09-15T13:49:59Z</time>
      </trkpt>
      <trkpt lat="41.879477" lon="9.14531">
        <ele>1335.4</ele>
        <time>2022-09-15T13:50:10Z</time>
      </trkpt>
      <trkpt lat="41.879432" lon="9.145328">
        <ele>1336.8</ele>
        <time>2022-09-15T13:50:15Z</time>
      </trkpt>
      <trkpt lat="41.879298" lon="9.145297">
        <ele>1337.6</ele>
        <time>2022-09-15T13:50:27Z</time>
      </trkpt>
      <trkpt lat="41.879228" lon="9.1453">
        <ele>1337.8</ele>
        <time>2022-09-15T13:50:33Z</time>
      </trkpt>
      <trkpt lat="41.879093" lon="9.145495">
        <ele>1338.2</ele>
        <time>2022-09-15T13:50:52Z</time>
      </trkpt>
      <trkpt lat="41.879038" lon="9.145508">
        <ele>1337.8</ele>
        <time>2022-09-15T13:50:59Z</time>
      </trkpt>
      <trkpt lat="41.87897" lon="9.14559">
        <ele>1337.6</ele>
        <time>2022-09-15T13:51:11Z</time>
      </trkpt>
      <trkpt lat="41.878917" lon="9.145667">
        <ele>1340.8</ele>
        <time>2022-09-15T13:51:22Z</time>
      </trkpt>
      <trkpt lat="41.878795" lon="9.145727">
        <ele>1341.6</ele>
        <time>2022-09-15T13:51:42Z</time>
      </trkpt>
      <trkpt lat="41.878705" lon="9.14573">
        <ele>1342.0</ele>
        <time>2022-09-15T13:51:49Z</time>
      </trkpt>
      <trkpt lat="41.878648" lon="9.145765">
        <ele>1342.2</ele>
        <time>2022-09-15T13:51:54Z</time>
      </trkpt>
      <trkpt lat="41.878623" lon="9.145793">
        <ele>1342.0</ele>
        <time>2022-09-15T13:51:56Z</time>
      </trkpt>
      <trkpt lat="41.878595" lon="9.145843">
        <ele>1341.8</ele>
        <time>2022-09-15T13:51:59Z</time>
      </trkpt>
      <trkpt lat="41.878552" lon="9.145953">
        <ele>1341.6</ele>
        <time>2022-09-15T13:52:05Z</time>
      </trkpt>
      <trkpt lat="41.878532" lon="9.146052">
        <ele>1341.4</ele>
        <time>2022-09-15T13:52:11Z</time>
      </trkpt>
      <trkpt lat="41.878528" lon="9.146098">
        <ele>1341.4</ele>
        <time>2022-09-15T13:52:14Z</time>
      </trkpt>
      <trkpt lat="41.87856" lon="9.146253">
        <ele>1339.4</ele>
        <time>2022-09-15T13:52:24Z</time>
      </trkpt>
      <trkpt lat="41.878567" lon="9.146322">
        <ele>1339.4</ele>
        <time>2022-09-15T13:52:29Z</time>
      </trkpt>
      <trkpt lat="41.878563" lon="9.146438">
        <ele>1340.6</ele>
        <time>2022-09-15T13:52:38Z</time>
      </trkpt>
      <trkpt lat="41.878567" lon="9.146537">
        <ele>1341.2</ele>
        <time>2022-09-15T13:52:45Z</time>
      </trkpt>
      <trkpt lat="41.878547" lon="9.146552">
        <ele>1341.4</ele>
        <time>2022-09-15T13:52:48Z</time>
      </trkpt>
      <trkpt lat="41.87853" lon="9.146592">
        <ele>1341.6</ele>
        <time>2022-09-15T13:52:52Z</time>
      </trkpt>
      <trkpt lat="41.878535" lon="9.146628">
        <ele>1341.4</ele>
        <time>2022-09-15T13:52:55Z</time>
      </trkpt>
      <trkpt lat="41.87861" lon="9.146852">
        <ele>1342.8</ele>
        <time>2022-09-15T13:53:14Z</time>
      </trkpt>
      <trkpt lat="41.87864" lon="9.14696">
        <ele>1343.0</ele>
        <time>2022-09-15T13:53:25Z</time>
      </trkpt>
      <trkpt lat="41.878643" lon="9.146968">
        <ele>1343.4</ele>
        <time>2022-09-15T13:53:27Z</time>
      </trkpt>
      <trkpt lat="41.878647" lon="9.14705">
        <ele>1344.0</ele>
        <time>2022-09-15T13:53:35Z</time>
      </trkpt>
      <trkpt lat="41.878663" lon="9.147172">
        <ele>1345.4</ele>
        <time>2022-09-15T13:53:46Z</time>
      </trkpt>
      <trkpt lat="41.878653" lon="9.147257">
        <ele>1346.0</ele>
        <time>2022-09-15T13:53:54Z</time>
      </trkpt>
      <trkpt lat="41.878627" lon="9.147388">
        <ele>1346.4</ele>
        <time>2022-09-15T13:54:08Z</time>
      </trkpt>
      <trkpt lat="41.878612" lon="9.147473">
        <ele>1346.6</ele>
        <time>2022-09-15T13:54:17Z</time>
      </trkpt>
      <trkpt lat="41.878597" lon="9.147558">
        <ele>1346.8</ele>
        <time>2022-09-15T13:54:24Z</time>
      </trkpt>
      <trkpt lat="41.878548" lon="9.147758">
        <ele>1347.6</ele>
        <time>2022-09-15T13:54:43Z</time>
      </trkpt>
      <trkpt lat="41.878535" lon="9.147847">
        <ele>1347.6</ele>
        <time>2022-09-15T13:54:50Z</time>
      </trkpt>
      <trkpt lat="41.878517" lon="9.1479">
        <ele>1347.6</ele>
        <time>2022-09-15T13:54:55Z</time>
      </trkpt>
      <trkpt lat="41.878432" lon="9.148055">
        <ele>1348.6</ele>
        <time>2022-09-15T13:55:14Z</time>
      </trkpt>
      <trkpt lat="41.8784" lon="9.148138">
        <ele>1348.4</ele>
        <time>2022-09-15T13:55:23Z</time>
      </trkpt>
      <trkpt lat="41.87838" lon="9.148248">
        <ele>1348.0</ele>
        <time>2022-09-15T13:55:34Z</time>
      </trkpt>
      <trkpt lat="41.878377" lon="9.148375">
        <ele>1349.2</ele>
        <time>2022-09-15T13:55:51Z</time>
      </trkpt>
      <trkpt lat="41.878343" lon="9.14848">
        <ele>1351.0</ele>
        <time>2022-09-15T13:56:06Z</time>
      </trkpt>
      <trkpt lat="41.878243" lon="9.148702">
        <ele>1353.0</ele>
        <time>2022-09-15T13:56:26Z</time>
      </trkpt>
      <trkpt lat="41.878048" lon="9.148875">
        <ele>1354.2</ele>
        <time>2022-09-15T13:56:43Z</time>
      </trkpt>
      <trkpt lat="41.878018" lon="9.148913">
        <ele>1354.4</ele>
        <time>2022-09-15T13:56:46Z</time>
      </trkpt>
      <trkpt lat="41.877982" lon="9.14904">
        <ele>1356.2</ele>
        <time>2022-09-15T13:57:06Z</time>
      </trkpt>
      <trkpt lat="41.878002" lon="9.149148">
        <ele>1356.6</ele>
        <time>2022-09-15T13:57:15Z</time>
      </trkpt>
      <trkpt lat="41.878012" lon="9.149242">
        <ele>1357.2</ele>
        <time>2022-09-15T13:57:25Z</time>
      </trkpt>
      <trkpt lat="41.87801" lon="9.149255">
        <ele>1357.4</ele>
        <time>2022-09-15T13:57:26Z</time>
      </trkpt>
      <trkpt lat="41.877972" lon="9.149363">
        <ele>1358.4</ele>
        <time>2022-09-15T13:57:37Z</time>
      </trkpt>
      <trkpt lat="41.877953" lon="9.1494">
        <ele>1358.8</ele>
        <time>2022-09-15T13:57:41Z</time>
      </trkpt>
      <trkpt lat="41.877937" lon="9.14947">
        <ele>1359.6</ele>
        <time>2022-09-15T13:57:47Z</time>
      </trkpt>
      <trkpt lat="41.877795" lon="9.149525">
        <ele>1363.0</ele>
        <time>2022-09-15T13:58:33Z</time>
      </trkpt>
      <trkpt lat="41.87767" lon="9.149468">
        <ele>1363.2</ele>
        <time>2022-09-15T13:58:50Z</time>
      </trkpt>
      <trkpt lat="41.87766" lon="9.149462">
        <ele>1363.2</ele>
        <time>2022-09-15T13:58:51Z</time>
      </trkpt>
      <trkpt lat="41.877615" lon="9.149453">
        <ele>1363.6</ele>
        <time>2022-09-15T13:58:58Z</time>
      </trkpt>
      <trkpt lat="41.877587" lon="9.149388">
        <ele>1363.8</ele>
        <time>2022-09-15T13:59:11Z</time>
      </trkpt>
      <trkpt lat="41.877513" lon="9.14937">
        <ele>1362.8</ele>
        <time>2022-09-15T13:59:27Z</time>
      </trkpt>
      <trkpt lat="41.87751" lon="9.14941">
        <ele>1362.6</ele>
        <time>2022-09-15T13:59:35Z</time>
      </trkpt>
      <trkpt lat="41.877525" lon="9.149427">
        <ele>1363.4</ele>
        <time>2022-09-15T13:59:40Z</time>
      </trkpt>
      <trkpt lat="41.877535" lon="9.14946">
        <ele>1363.4</ele>
        <time>2022-09-15T13:59:45Z</time>
      </trkpt>
      <trkpt lat="41.877532" lon="9.149468">
        <ele>1363.6</ele>
        <time>2022-09-15T13:59:46Z</time>
      </trkpt>
      <trkpt lat="41.877488" lon="9.14953">
        <ele>1363.8</ele>
        <time>2022-09-15T13:59:56Z</time>
      </trkpt>
      <trkpt lat="41.877457" lon="9.14956">
        <ele>1363.6</ele>
        <time>2022-09-15T14:00:08Z</time>
      </trkpt>
      <trkpt lat="41.877438" lon="9.149595">
        <ele>1368.2</ele>
        <time>2022-09-15T14:00:24Z</time>
      </trkpt>
      <trkpt lat="41.877418" lon="9.149593">
        <ele>1368.4</ele>
        <time>2022-09-15T14:00:32Z</time>
      </trkpt>
      <trkpt lat="41.87739" lon="9.149565">
        <ele>1370.2</ele>
        <time>2022-09-15T14:00:46Z</time>
      </trkpt>
      <trkpt lat="41.877393" lon="9.149635">
        <ele>1370.4</ele>
        <time>2022-09-15T14:00:59Z</time>
      </trkpt>
      <trkpt lat="41.877392" lon="9.149645">
        <ele>1370.6</ele>
        <time>2022-09-15T14:01:00Z</time>
      </trkpt>
      <trkpt lat="41.877343" lon="9.149708">
        <ele>1371.2</ele>
        <time>2022-09-15T14:01:06Z</time>
      </trkpt>
      <trkpt lat="41.87729" lon="9.149727">
        <ele>1372.0</ele>
        <time>2022-09-15T14:01:10Z</time>
      </trkpt>
      <trkpt lat="41.877073" lon="9.149745">
        <ele>1373.8</ele>
        <time>2022-09-15T14:01:28Z</time>
      </trkpt>
      <trkpt lat="41.877068" lon="9.149757">
        <ele>1374.2</ele>
        <time>2022-09-15T14:01:30Z</time>
      </trkpt>
      <trkpt lat="41.877057" lon="9.1498">
        <ele>1374.8</ele>
        <time>2022-09-15T14:01:34Z</time>
      </trkpt>
      <trkpt lat="41.876993" lon="9.149852">
        <ele>1376.0</ele>
        <time>2022-09-15T14:01:45Z</time>
      </trkpt>
      <trkpt lat="41.876958" lon="9.149862">
        <ele>1377.6</ele>
        <time>2022-09-15T14:01:56Z</time>
      </trkpt>
      <trkpt lat="41.876925" lon="9.149848">
        <ele>1379.6</ele>
        <time>2022-09-15T14:02:12Z</time>
      </trkpt>
      <trkpt lat="41.876887" lon="9.149845">
        <ele>1379.8</ele>
        <time>2022-09-15T14:02:20Z</time>
      </trkpt>
      <trkpt lat="41.876833" lon="9.14983">
        <ele>1379.4</ele>
        <time>2022-09-15T14:02:28Z</time>
      </trkpt>
      <trkpt lat="41.876792" lon="9.149732">
        <ele>1379.2</ele>
        <time>2022-09-15T14:02:36Z</time>
      </trkpt>
      <trkpt lat="41.876788" lon="9.149643">
        <ele>1379.6</ele>
        <time>2022-09-15T14:02:43Z</time>
      </trkpt>
      <trkpt lat="41.876753" lon="9.149597">
        <ele>1379.8</ele>
        <time>2022-09-15T14:02:47Z</time>
      </trkpt>
      <trkpt lat="41.876693" lon="9.149558">
        <ele>1380.8</ele>
        <time>2022-09-15T14:02:53Z</time>
      </trkpt>
      <trkpt lat="41.876633" lon="9.149603">
        <ele>1381.8</ele>
        <time>2022-09-15T14:03:02Z</time>
      </trkpt>
      <trkpt lat="41.876582" lon="9.149727">
        <ele>1382.8</ele>
        <time>2022-09-15T14:03:18Z</time>
      </trkpt>
      <trkpt lat="41.87651" lon="9.14973">
        <ele>1383.0</ele>
        <time>2022-09-15T14:03:26Z</time>
      </trkpt>
      <trkpt lat="41.876465" lon="9.149747">
        <ele>1383.2</ele>
        <time>2022-09-15T14:03:32Z</time>
      </trkpt>
      <trkpt lat="41.876427" lon="9.149782">
        <ele>1386.2</ele>
        <time>2022-09-15T14:03:50Z</time>
      </trkpt>
      <trkpt lat="41.876418" lon="9.149782">
        <ele>1386.4</ele>
        <time>2022-09-15T14:03:52Z</time>
      </trkpt>
      <trkpt lat="41.876282" lon="9.149677">
        <ele>1387.8</ele>
        <time>2022-09-15T14:04:14Z</time>
      </trkpt>
      <trkpt lat="41.876255" lon="9.14976">
        <ele>1389.6</ele>
        <time>2022-09-15T14:04:30Z</time>
      </trkpt>
      <trkpt lat="41.876222" lon="9.149768">
        <ele>1391.2</ele>
        <time>2022-09-15T14:04:49Z</time>
      </trkpt>
      <trkpt lat="41.876218" lon="9.149775">
        <ele>1391.8</ele>
        <time>2022-09-15T14:04:52Z</time>
      </trkpt>
      <trkpt lat="41.876232" lon="9.1498">
        <ele>1392.2</ele>
        <time>2022-09-15T14:04:58Z</time>
      </trkpt>
      <trkpt lat="41.87619" lon="9.149898">
        <ele>1392.6</ele>
        <time>2022-09-15T14:05:02Z</time>
      </trkpt>
      <trkpt lat="41.876177" lon="9.14992">
        <ele>1392.8</ele>
        <time>2022-09-15T14:05:03Z</time>
      </trkpt>
      <trkpt lat="41.876118" lon="9.149955">
        <ele>1393.0</ele>
        <time>2022-09-15T14:05:06Z</time>
      </trkpt>
      <trkpt lat="41.876075" lon="9.14997">
        <ele>1393.0</ele>
        <time>2022-09-15T14:05:09Z</time>
      </trkpt>
      <trkpt lat="41.876012" lon="9.149983">
        <ele>1393.8</ele>
        <time>2022-09-15T14:05:12Z</time>
      </trkpt>
      <trkpt lat="41.875957" lon="9.150002">
        <ele>1394.2</ele>
        <time>2022-09-15T14:05:15Z</time>
      </trkpt>
      <trkpt lat="41.875918" lon="9.150043">
        <ele>1395.0</ele>
        <time>2022-09-15T14:05:18Z</time>
      </trkpt>
      <trkpt lat="41.875808" lon="9.150212">
        <ele>1397.2</ele>
        <time>2022-09-15T14:05:35Z</time>
      </trkpt>
      <trkpt lat="41.875802" lon="9.150215">
        <ele>1397.6</ele>
        <time>2022-09-15T14:05:36Z</time>
      </trkpt>
      <trkpt lat="41.875773" lon="9.150213">
        <ele>1398.2</ele>
        <time>2022-09-15T14:05:44Z</time>
      </trkpt>
      <trkpt lat="41.875793" lon="9.150248">
        <ele>1397.6</ele>
        <time>2022-09-15T14:05:51Z</time>
      </trkpt>
      <trkpt lat="41.875802" lon="9.150238">
        <ele>1400.4</ele>
        <time>2022-09-15T14:06:18Z</time>
      </trkpt>
      <trkpt lat="41.875795" lon="9.150242">
        <ele>1400.8</ele>
        <time>2022-09-15T14:06:19Z</time>
      </trkpt>
      <trkpt lat="41.875743" lon="9.150262">
        <ele>1402.2</ele>
        <time>2022-09-15T14:06:32Z</time>
      </trkpt>
      <trkpt lat="41.875665" lon="9.150338">
        <ele>1404.8</ele>
        <time>2022-09-15T14:06:52Z</time>
      </trkpt>
      <trkpt lat="41.875662" lon="9.150338">
        <ele>1404.8</ele>
        <time>2022-09-15T14:06:53Z</time>
      </trkpt>
      <trkpt lat="41.875585" lon="9.150283">
        <ele>1405.4</ele>
        <time>2022-09-15T14:07:02Z</time>
      </trkpt>
      <trkpt lat="41.875532" lon="9.15023">
        <ele>1405.4</ele>
        <time>2022-09-15T14:07:06Z</time>
      </trkpt>
      <trkpt lat="41.875452" lon="9.150185">
        <ele>1405.4</ele>
        <time>2022-09-15T14:07:11Z</time>
      </trkpt>
      <trkpt lat="41.875217" lon="9.150165">
        <ele>1405.0</ele>
        <time>2022-09-15T14:07:21Z</time>
      </trkpt>
      <trkpt lat="41.875198" lon="9.150183">
        <ele>1404.6</ele>
        <time>2022-09-15T14:07:22Z</time>
      </trkpt>
      <trkpt lat="41.875192" lon="9.150193">
        <ele>1404.6</ele>
        <time>2022-09-15T14:07:23Z</time>
      </trkpt>
      <trkpt lat="41.875183" lon="9.150205">
        <ele>1404.6</ele>
        <time>2022-09-15T14:07:24Z</time>
      </trkpt>
      <trkpt lat="41.875177" lon="9.150217">
        <ele>1404.4</ele>
        <time>2022-09-15T14:07:25Z</time>
      </trkpt>
      <trkpt lat="41.875152" lon="9.150262">
        <ele>1403.8</ele>
        <time>2022-09-15T14:07:29Z</time>
      </trkpt>
      <trkpt lat="41.875083" lon="9.150352">
        <ele>1402.0</ele>
        <time>2022-09-15T14:07:39Z</time>
      </trkpt>
      <trkpt lat="41.875053" lon="9.150422">
        <ele>1402.6</ele>
        <time>2022-09-15T14:07:46Z</time>
      </trkpt>
      <trkpt lat="41.874993" lon="9.150522">
        <ele>1401.6</ele>
        <time>2022-09-15T14:07:57Z</time>
      </trkpt>
      <trkpt lat="41.874913" lon="9.15061">
        <ele>1399.6</ele>
        <time>2022-09-15T14:08:09Z</time>
      </trkpt>
      <trkpt lat="41.874888" lon="9.150703">
        <ele>1399.6</ele>
        <time>2022-09-15T14:08:17Z</time>
      </trkpt>
      <trkpt lat="41.8749" lon="9.150783">
        <ele>1399.4</ele>
        <time>2022-09-15T14:08:24Z</time>
      </trkpt>
      <trkpt lat="41.874932" lon="9.150995">
        <ele>1399.4</ele>
        <time>2022-09-15T14:08:41Z</time>
      </trkpt>
      <trkpt lat="41.874917" lon="9.151075">
        <ele>1400.0</ele>
        <time>2022-09-15T14:08:48Z</time>
      </trkpt>
      <trkpt lat="41.874878" lon="9.151153">
        <ele>1399.8</ele>
        <time>2022-09-15T14:08:57Z</time>
      </trkpt>
      <trkpt lat="41.874795" lon="9.151315">
        <ele>1398.8</ele>
        <time>2022-09-15T14:09:10Z</time>
      </trkpt>
      <trkpt lat="41.874725" lon="9.151535">
        <ele>1399.6</ele>
        <time>2022-09-15T14:09:28Z</time>
      </trkpt>
      <trkpt lat="41.874642" lon="9.151617">
        <ele>1400.0</ele>
        <time>2022-09-15T14:09:38Z</time>
      </trkpt>
      <trkpt lat="41.874537" lon="9.15173">
        <ele>1401.0</ele>
        <time>2022-09-15T14:09:52Z</time>
      </trkpt>
      <trkpt lat="41.874448" lon="9.151807">
        <ele>1402.2</ele>
        <time>2022-09-15T14:10:05Z</time>
      </trkpt>
      <trkpt lat="41.87442" lon="9.151823">
        <ele>1402.8</ele>
        <time>2022-09-15T14:10:08Z</time>
      </trkpt>
      <trkpt lat="41.87433" lon="9.151897">
        <ele>1403.2</ele>
        <time>2022-09-15T14:10:18Z</time>
      </trkpt>
      <trkpt lat="41.87416" lon="9.152093">
        <ele>1405.0</ele>
        <time>2022-09-15T14:10:39Z</time>
      </trkpt>
      <trkpt lat="41.87411" lon="9.152155">
        <ele>1404.6</ele>
        <time>2022-09-15T14:10:45Z</time>
      </trkpt>
      <trkpt lat="41.874035" lon="9.152268">
        <ele>1404.2</ele>
        <time>2022-09-15T14:10:56Z</time>
      </trkpt>
      <trkpt lat="41.873938" lon="9.152445">
        <ele>1403.6</ele>
        <time>2022-09-15T14:11:11Z</time>
      </trkpt>
      <trkpt lat="41.87385" lon="9.152572">
        <ele>1403.4</ele>
        <time>2022-09-15T14:11:23Z</time>
      </trkpt>
      <trkpt lat="41.87379" lon="9.15265">
        <ele>1403.0</ele>
        <time>2022-09-15T14:11:32Z</time>
      </trkpt>
      <trkpt lat="41.873682" lon="9.152855">
        <ele>1402.6</ele>
        <time>2022-09-15T14:11:52Z</time>
      </trkpt>
      <trkpt lat="41.873642" lon="9.152932">
        <ele>1401.0</ele>
        <time>2022-09-15T14:12:03Z</time>
      </trkpt>
      <trkpt lat="41.873552" lon="9.15314">
        <ele>1400.2</ele>
        <time>2022-09-15T14:12:21Z</time>
      </trkpt>
      <trkpt lat="41.873552" lon="9.153195">
        <ele>1399.8</ele>
        <time>2022-09-15T14:12:25Z</time>
      </trkpt>
      <trkpt lat="41.873555" lon="9.153257">
        <ele>1399.8</ele>
        <time>2022-09-15T14:12:30Z</time>
      </trkpt>
      <trkpt lat="41.873488" lon="9.15336">
        <ele>1400.2</ele>
        <time>2022-09-15T14:12:40Z</time>
      </trkpt>
      <trkpt lat="41.873425" lon="9.153517">
        <ele>1400.8</ele>
        <time>2022-09-15T14:12:52Z</time>
      </trkpt>
      <trkpt lat="41.873358" lon="9.153663">
        <ele>1401.2</ele>
        <time>2022-09-15T14:13:03Z</time>
      </trkpt>
      <trkpt lat="41.873267" lon="9.153865">
        <ele>1402.0</ele>
        <time>2022-09-15T14:13:21Z</time>
      </trkpt>
      <trkpt lat="41.873235" lon="9.153993">
        <ele>1403.0</ele>
        <time>2022-09-15T14:13:28Z</time>
      </trkpt>
      <trkpt lat="41.873232" lon="9.154005">
        <ele>1403.2</ele>
        <time>2022-09-15T14:13:29Z</time>
      </trkpt>
      <trkpt lat="41.873228" lon="9.154017">
        <ele>1403.2</ele>
        <time>2022-09-15T14:13:32Z</time>
      </trkpt>
      <trkpt lat="41.873178" lon="9.154192">
        <ele>1404.4</ele>
        <time>2022-09-15T14:13:44Z</time>
      </trkpt>
      <trkpt lat="41.873138" lon="9.154343">
        <ele>1406.2</ele>
        <time>2022-09-15T14:13:56Z</time>
      </trkpt>
      <trkpt lat="41.873092" lon="9.154465">
        <ele>1406.6</ele>
        <time>2022-09-15T14:14:07Z</time>
      </trkpt>
      <trkpt lat="41.873057" lon="9.154562">
        <ele>1407.4</ele>
        <time>2022-09-15T14:14:16Z</time>
      </trkpt>
      <trkpt lat="41.873008" lon="9.154942">
        <ele>1411.4</ele>
        <time>2022-09-15T14:14:54Z</time>
      </trkpt>
      <trkpt lat="41.873002" lon="9.155198">
        <ele>1413.4</ele>
        <time>2022-09-15T14:15:14Z</time>
      </trkpt>
      <trkpt lat="41.873005" lon="9.155353">
        <ele>1413.2</ele>
        <time>2022-09-15T14:15:26Z</time>
      </trkpt>
      <trkpt lat="41.872993" lon="9.155433">
        <ele>1413.8</ele>
        <time>2022-09-15T14:15:32Z</time>
      </trkpt>
      <trkpt lat="41.872835" lon="9.155932">
        <ele>1415.6</ele>
        <time>2022-09-15T14:16:03Z</time>
      </trkpt>
      <trkpt lat="41.872758" lon="9.15608">
        <ele>1415.6</ele>
        <time>2022-09-15T14:16:14Z</time>
      </trkpt>
      <trkpt lat="41.872742" lon="9.156117">
        <ele>1415.6</ele>
        <time>2022-09-15T14:16:17Z</time>
      </trkpt>
      <trkpt lat="41.872715" lon="9.156155">
        <ele>1415.8</ele>
        <time>2022-09-15T14:16:20Z</time>
      </trkpt>
      <trkpt lat="41.872653" lon="9.156218">
        <ele>1416.6</ele>
        <time>2022-09-15T14:16:25Z</time>
      </trkpt>
      <trkpt lat="41.872565" lon="9.15627">
        <ele>1417.6</ele>
        <time>2022-09-15T14:16:31Z</time>
      </trkpt>
      <trkpt lat="41.872508" lon="9.156282">
        <ele>1419.2</ele>
        <time>2022-09-15T14:16:36Z</time>
      </trkpt>
      <trkpt lat="41.872398" lon="9.156287">
        <ele>1419.6</ele>
        <time>2022-09-15T14:16:44Z</time>
      </trkpt>
      <trkpt lat="41.872318" lon="9.156277">
        <ele>1420.8</ele>
        <time>2022-09-15T14:16:50Z</time>
      </trkpt>
      <trkpt lat="41.872278" lon="9.156267">
        <ele>1421.0</ele>
        <time>2022-09-15T14:16:53Z</time>
      </trkpt>
      <trkpt lat="41.872223" lon="9.15622">
        <ele>1420.4</ele>
        <time>2022-09-15T14:16:58Z</time>
      </trkpt>
      <trkpt lat="41.872203" lon="9.156175">
        <ele>1420.6</ele>
        <time>2022-09-15T14:17:02Z</time>
      </trkpt>
      <trkpt lat="41.872197" lon="9.156158">
        <ele>1420.6</ele>
        <time>2022-09-15T14:17:03Z</time>
      </trkpt>
      <trkpt lat="41.872185" lon="9.156127">
        <ele>1420.0</ele>
        <time>2022-09-15T14:17:05Z</time>
      </trkpt>
      <trkpt lat="41.872045" lon="9.156018">
        <ele>1418.0</ele>
        <time>2022-09-15T14:17:19Z</time>
      </trkpt>
      <trkpt lat="41.872032" lon="9.156012">
        <ele>1417.6</ele>
        <time>2022-09-15T14:17:20Z</time>
      </trkpt>
      <trkpt lat="41.871877" lon="9.15595">
        <ele>1416.2</ele>
        <time>2022-09-15T14:17:31Z</time>
      </trkpt>
      <trkpt lat="41.871848" lon="9.155943">
        <ele>1415.8</ele>
        <time>2022-09-15T14:17:33Z</time>
      </trkpt>
      <trkpt lat="41.871773" lon="9.155988">
        <ele>1415.2</ele>
        <time>2022-09-15T14:17:39Z</time>
      </trkpt>
      <trkpt lat="41.871655" lon="9.156045">
        <ele>1414.6</ele>
        <time>2022-09-15T14:17:47Z</time>
      </trkpt>
      <trkpt lat="41.87156" lon="9.156075">
        <ele>1414.2</ele>
        <time>2022-09-15T14:17:53Z</time>
      </trkpt>
      <trkpt lat="41.871257" lon="9.156133">
        <ele>1413.0</ele>
        <time>2022-09-15T14:18:16Z</time>
      </trkpt>
      <trkpt lat="41.87111" lon="9.156095">
        <ele>1413.8</ele>
        <time>2022-09-15T14:18:28Z</time>
      </trkpt>
      <trkpt lat="41.870765" lon="9.156082">
        <ele>1411.4</ele>
        <time>2022-09-15T14:18:55Z</time>
      </trkpt>
      <trkpt lat="41.870513" lon="9.15607">
        <ele>1411.6</ele>
        <time>2022-09-15T14:19:07Z</time>
      </trkpt>
      <trkpt lat="41.87048" lon="9.156107">
        <ele>1412.0</ele>
        <time>2022-09-15T14:19:11Z</time>
      </trkpt>
      <trkpt lat="41.870435" lon="9.15609">
        <ele>1411.6</ele>
        <time>2022-09-15T14:19:19Z</time>
      </trkpt>
      <trkpt lat="41.870377" lon="9.156067">
        <ele>1411.0</ele>
        <time>2022-09-15T14:19:26Z</time>
      </trkpt>
      <trkpt lat="41.870153" lon="9.156212">
        <ele>1410.0</ele>
        <time>2022-09-15T14:19:49Z</time>
      </trkpt>
      <trkpt lat="41.870145" lon="9.156208">
        <ele>1410.0</ele>
        <time>2022-09-15T14:19:49Z</time>
      </trkpt>
      <trkpt lat="41.86999" lon="9.156153">
        <ele>1410.0</ele>
        <time>2022-09-15T14:20:00Z</time>
      </trkpt>
      <trkpt lat="41.869888" lon="9.15612">
        <ele>1410.2</ele>
        <time>2022-09-15T14:20:09Z</time>
      </trkpt>
      <trkpt lat="41.869738" lon="9.156055">
        <ele>1410.8</ele>
        <time>2022-09-15T14:20:20Z</time>
      </trkpt>
      <trkpt lat="41.869553" lon="9.155985">
        <ele>1413.2</ele>
        <time>2022-09-15T14:20:34Z</time>
      </trkpt>
      <trkpt lat="41.869472" lon="9.155938">
        <ele>1413.0</ele>
        <time>2022-09-15T14:20:41Z</time>
      </trkpt>
      <trkpt lat="41.86933" lon="9.155847">
        <ele>1412.4</ele>
        <time>2022-09-15T14:20:56Z</time>
      </trkpt>
      <trkpt lat="41.86932" lon="9.15584">
        <ele>1412.6</ele>
        <time>2022-09-15T14:20:59Z</time>
      </trkpt>
      <trkpt lat="41.869212" lon="9.155843">
        <ele>1412.8</ele>
        <time>2022-09-15T14:21:08Z</time>
      </trkpt>
      <trkpt lat="41.869015" lon="9.155873">
        <ele>1412.8</ele>
        <time>2022-09-15T14:21:25Z</time>
      </trkpt>
      <trkpt lat="41.868953" lon="9.155903">
        <ele>1412.8</ele>
        <time>2022-09-15T14:21:33Z</time>
      </trkpt>
      <trkpt lat="41.868917" lon="9.155942">
        <ele>1412.8</ele>
        <time>2022-09-15T14:21:38Z</time>
      </trkpt>
      <trkpt lat="41.86891" lon="9.155952">
        <ele>1412.8</ele>
        <time>2022-09-15T14:21:41Z</time>
      </trkpt>
      <trkpt lat="41.868745" lon="9.156133">
        <ele>1414.4</ele>
        <time>2022-09-15T14:21:59Z</time>
      </trkpt>
      <trkpt lat="41.86856" lon="9.15622">
        <ele>1413.6</ele>
        <time>2022-09-15T14:22:19Z</time>
      </trkpt>
      <trkpt lat="41.868413" lon="9.156282">
        <ele>1413.2</ele>
        <time>2022-09-15T14:22:31Z</time>
      </trkpt>
      <trkpt lat="41.868343" lon="9.156287">
        <ele>1413.2</ele>
        <time>2022-09-15T14:22:36Z</time>
      </trkpt>
      <trkpt lat="41.868135" lon="9.156272">
        <ele>1413.8</ele>
        <time>2022-09-15T14:22:52Z</time>
      </trkpt>
      <trkpt lat="41.868087" lon="9.156248">
        <ele>1414.2</ele>
        <time>2022-09-15T14:22:55Z</time>
      </trkpt>
      <trkpt lat="41.868025" lon="9.156202">
        <ele>1415.6</ele>
        <time>2022-09-15T14:22:59Z</time>
      </trkpt>
      <trkpt lat="41.867917" lon="9.156205">
        <ele>1414.6</ele>
        <time>2022-09-15T14:23:08Z</time>
      </trkpt>
      <trkpt lat="41.8678" lon="9.156217">
        <ele>1414.4</ele>
        <time>2022-09-15T14:23:17Z</time>
      </trkpt>
      <trkpt lat="41.867687" lon="9.156278">
        <ele>1415.2</ele>
        <time>2022-09-15T14:23:27Z</time>
      </trkpt>
      <trkpt lat="41.86763" lon="9.156315">
        <ele>1415.2</ele>
        <time>2022-09-15T14:23:33Z</time>
      </trkpt>
      <trkpt lat="41.867583" lon="9.156357">
        <ele>1415.6</ele>
        <time>2022-09-15T14:23:39Z</time>
      </trkpt>
      <trkpt lat="41.867452" lon="9.156428">
        <ele>1416.8</ele>
        <time>2022-09-15T14:23:52Z</time>
      </trkpt>
      <trkpt lat="41.867387" lon="9.156443">
        <ele>1416.8</ele>
        <time>2022-09-15T14:23:58Z</time>
      </trkpt>
      <trkpt lat="41.867252" lon="9.156498">
        <ele>1416.4</ele>
        <time>2022-09-15T14:24:08Z</time>
      </trkpt>
      <trkpt lat="41.867202" lon="9.156535">
        <ele>1416.4</ele>
        <time>2022-09-15T14:24:11Z</time>
      </trkpt>
      <trkpt lat="41.867192" lon="9.156555">
        <ele>1416.4</ele>
        <time>2022-09-15T14:24:12Z</time>
      </trkpt>
      <trkpt lat="41.867182" lon="9.156627">
        <ele>1416.4</ele>
        <time>2022-09-15T14:24:15Z</time>
      </trkpt>
      <trkpt lat="41.867175" lon="9.156695">
        <ele>1416.4</ele>
        <time>2022-09-15T14:24:18Z</time>
      </trkpt>
      <trkpt lat="41.86718" lon="9.156722">
        <ele>1416.4</ele>
        <time>2022-09-15T14:24:20Z</time>
      </trkpt>
      <trkpt lat="41.867178" lon="9.156737">
        <ele>1416.4</ele>
        <time>2022-09-15T14:24:21Z</time>
      </trkpt>
      <trkpt lat="41.867165" lon="9.156765">
        <ele>1416.4</ele>
        <time>2022-09-15T14:24:23Z</time>
      </trkpt>
      <trkpt lat="41.867157" lon="9.156778">
        <ele>1416.4</ele>
        <time>2022-09-15T14:24:23Z</time>
      </trkpt>
      <trkpt lat="41.867138" lon="9.156802">
        <ele>1416.4</ele>
        <time>2022-09-15T14:24:25Z</time>
      </trkpt>
      <trkpt lat="41.867115" lon="9.156825">
        <ele>1416.2</ele>
        <time>2022-09-15T14:24:28Z</time>
      </trkpt>
      <trkpt lat="41.86705" lon="9.156843">
        <ele>1416.2</ele>
        <time>2022-09-15T14:25:00Z</time>
      </trkpt>
      <trkpt lat="41.86705" lon="9.156917">
        <ele>1416.8</ele>
        <time>2022-09-15T14:25:13Z</time>
      </trkpt>
      <trkpt lat="41.867032" lon="9.157087">
        <ele>1417.8</ele>
        <time>2022-09-15T14:25:43Z</time>
      </trkpt>
      <trkpt lat="41.86702" lon="9.157095">
        <ele>1417.8</ele>
        <time>2022-09-15T14:25:44Z</time>
      </trkpt>
      <trkpt lat="41.866857" lon="9.157232">
        <ele>1417.4</ele>
        <time>2022-09-15T14:25:58Z</time>
      </trkpt>
      <trkpt lat="41.866702" lon="9.157382">
        <ele>1417.8</ele>
        <time>2022-09-15T14:26:10Z</time>
      </trkpt>
      <trkpt lat="41.866643" lon="9.157448">
        <ele>1417.6</ele>
        <time>2022-09-15T14:26:15Z</time>
      </trkpt>
      <trkpt lat="41.866603" lon="9.157512">
        <ele>1417.6</ele>
        <time>2022-09-15T14:26:19Z</time>
      </trkpt>
      <trkpt lat="41.866555" lon="9.157615">
        <ele>1417.8</ele>
        <time>2022-09-15T14:26:25Z</time>
      </trkpt>
      <trkpt lat="41.866548" lon="9.157648">
        <ele>1418.0</ele>
        <time>2022-09-15T14:26:29Z</time>
      </trkpt>
      <trkpt lat="41.866545" lon="9.157662">
        <ele>1418.0</ele>
        <time>2022-09-15T14:26:30Z</time>
      </trkpt>
      <trkpt lat="41.86653" lon="9.157697">
        <ele>1418.2</ele>
        <time>2022-09-15T14:26:33Z</time>
      </trkpt>
      <trkpt lat="41.866482" lon="9.157763">
        <ele>1418.2</ele>
        <time>2022-09-15T14:26:38Z</time>
      </trkpt>
      <trkpt lat="41.866445" lon="9.15781">
        <ele>1418.6</ele>
        <time>2022-09-15T14:26:42Z</time>
      </trkpt>
      <trkpt lat="41.866415" lon="9.157857">
        <ele>1418.4</ele>
        <time>2022-09-15T14:26:46Z</time>
      </trkpt>
      <trkpt lat="41.866395" lon="9.157873">
        <ele>1418.2</ele>
        <time>2022-09-15T14:26:48Z</time>
      </trkpt>
      <trkpt lat="41.866258" lon="9.157958">
        <ele>1419.4</ele>
        <time>2022-09-15T14:27:01Z</time>
      </trkpt>
      <trkpt lat="41.86622" lon="9.15799">
        <ele>1420.2</ele>
        <time>2022-09-15T14:27:05Z</time>
      </trkpt>
      <trkpt lat="41.866147" lon="9.157975">
        <ele>1420.0</ele>
        <time>2022-09-15T14:27:13Z</time>
      </trkpt>
      <trkpt lat="41.866078" lon="9.157952">
        <ele>1420.8</ele>
        <time>2022-09-15T14:27:21Z</time>
      </trkpt>
      <trkpt lat="41.865955" lon="9.15788">
        <ele>1419.8</ele>
        <time>2022-09-15T14:27:31Z</time>
      </trkpt>
      <trkpt lat="41.865857" lon="9.157833">
        <ele>1419.2</ele>
        <time>2022-09-15T14:27:38Z</time>
      </trkpt>
      <trkpt lat="41.865777" lon="9.157802">
        <ele>1419.2</ele>
        <time>2022-09-15T14:27:44Z</time>
      </trkpt>
      <trkpt lat="41.865738" lon="9.1578">
        <ele>1418.2</ele>
        <time>2022-09-15T14:27:47Z</time>
      </trkpt>
      <trkpt lat="41.865585" lon="9.15777">
        <ele>1418.4</ele>
        <time>2022-09-15T14:28:01Z</time>
      </trkpt>
      <trkpt lat="41.865493" lon="9.157753">
        <ele>1419.8</ele>
        <time>2022-09-15T14:28:09Z</time>
      </trkpt>
      <trkpt lat="41.865353" lon="9.157732">
        <ele>1420.4</ele>
        <time>2022-09-15T14:28:21Z</time>
      </trkpt>
      <trkpt lat="41.865292" lon="9.157743">
        <ele>1422.0</ele>
        <time>2022-09-15T14:28:26Z</time>
      </trkpt>
      <trkpt lat="41.865195" lon="9.15773">
        <ele>1421.6</ele>
        <time>2022-09-15T14:28:34Z</time>
      </trkpt>
      <trkpt lat="41.865183" lon="9.157728">
        <ele>1421.6</ele>
        <time>2022-09-15T14:28:36Z</time>
      </trkpt>
      <trkpt lat="41.864978" lon="9.157717">
        <ele>1421.2</ele>
        <time>2022-09-15T14:28:52Z</time>
      </trkpt>
      <trkpt lat="41.864967" lon="9.157717">
        <ele>1421.2</ele>
        <time>2022-09-15T14:28:53Z</time>
      </trkpt>
      <trkpt lat="41.864927" lon="9.157725">
        <ele>1421.4</ele>
        <time>2022-09-15T14:28:56Z</time>
      </trkpt>
      <trkpt lat="41.864915" lon="9.157728">
        <ele>1421.8</ele>
        <time>2022-09-15T14:28:57Z</time>
      </trkpt>
      <trkpt lat="41.864815" lon="9.157762">
        <ele>1422.8</ele>
        <time>2022-09-15T14:29:07Z</time>
      </trkpt>
      <trkpt lat="41.864773" lon="9.157883">
        <ele>1424.2</ele>
        <time>2022-09-15T14:29:22Z</time>
      </trkpt>
      <trkpt lat="41.864758" lon="9.15792">
        <ele>1424.2</ele>
        <time>2022-09-15T14:29:28Z</time>
      </trkpt>
      <trkpt lat="41.864673" lon="9.157893">
        <ele>1424.2</ele>
        <time>2022-09-15T14:29:36Z</time>
      </trkpt>
      <trkpt lat="41.864517" lon="9.157863">
        <ele>1424.6</ele>
        <time>2022-09-15T14:29:50Z</time>
      </trkpt>
      <trkpt lat="41.864423" lon="9.157858">
        <ele>1424.8</ele>
        <time>2022-09-15T14:29:58Z</time>
      </trkpt>
      <trkpt lat="41.864408" lon="9.157862">
        <ele>1424.8</ele>
        <time>2022-09-15T14:29:59Z</time>
      </trkpt>
      <trkpt lat="41.864392" lon="9.157863">
        <ele>1424.8</ele>
        <time>2022-09-15T14:30:00Z</time>
      </trkpt>
      <trkpt lat="41.864278" lon="9.157962">
        <ele>1425.2</ele>
        <time>2022-09-15T14:30:08Z</time>
      </trkpt>
      <trkpt lat="41.864107" lon="9.158182">
        <ele>1425.6</ele>
        <time>2022-09-15T14:30:28Z</time>
      </trkpt>
      <trkpt lat="41.864015" lon="9.158303">
        <ele>1426.2</ele>
        <time>2022-09-15T14:30:39Z</time>
      </trkpt>
      <trkpt lat="41.864005" lon="9.158317">
        <ele>1426.2</ele>
        <time>2022-09-15T14:30:40Z</time>
      </trkpt>
      <trkpt lat="41.863747" lon="9.158425">
        <ele>1427.0</ele>
        <time>2022-09-15T14:31:01Z</time>
      </trkpt>
      <trkpt lat="41.863643" lon="9.15841">
        <ele>1427.6</ele>
        <time>2022-09-15T14:31:12Z</time>
      </trkpt>
      <trkpt lat="41.863407" lon="9.158357">
        <ele>1427.8</ele>
        <time>2022-09-15T14:31:30Z</time>
      </trkpt>
      <trkpt lat="41.863123" lon="9.158303">
        <ele>1425.8</ele>
        <time>2022-09-15T14:31:51Z</time>
      </trkpt>
      <trkpt lat="41.863073" lon="9.158307">
        <ele>1425.8</ele>
        <time>2022-09-15T14:31:55Z</time>
      </trkpt>
      <trkpt lat="41.863062" lon="9.158307">
        <ele>1425.8</ele>
        <time>2022-09-15T14:31:56Z</time>
      </trkpt>
      <trkpt lat="41.86296" lon="9.158302">
        <ele>1426.6</ele>
        <time>2022-09-15T14:32:06Z</time>
      </trkpt>
      <trkpt lat="41.862902" lon="9.1583">
        <ele>1427.2</ele>
        <time>2022-09-15T14:32:13Z</time>
      </trkpt>
      <trkpt lat="41.862412" lon="9.158382">
        <ele>1427.8</ele>
        <time>2022-09-15T14:32:56Z</time>
      </trkpt>
      <trkpt lat="41.86229" lon="9.158458">
        <ele>1428.8</ele>
        <time>2022-09-15T14:33:10Z</time>
      </trkpt>
      <trkpt lat="41.862282" lon="9.158463">
        <ele>1428.8</ele>
        <time>2022-09-15T14:33:11Z</time>
      </trkpt>
      <trkpt lat="41.862273" lon="9.15847">
        <ele>1428.8</ele>
        <time>2022-09-15T14:33:12Z</time>
      </trkpt>
      <trkpt lat="41.862197" lon="9.158537">
        <ele>1429.8</ele>
        <time>2022-09-15T14:33:22Z</time>
      </trkpt>
      <trkpt lat="41.86215" lon="9.158608">
        <ele>1430.2</ele>
        <time>2022-09-15T14:33:30Z</time>
      </trkpt>
      <trkpt lat="41.862145" lon="9.158618">
        <ele>1430.2</ele>
        <time>2022-09-15T14:33:31Z</time>
      </trkpt>
      <trkpt lat="41.862087" lon="9.15874">
        <ele>1430.4</ele>
        <time>2022-09-15T14:33:42Z</time>
      </trkpt>
      <trkpt lat="41.862067" lon="9.158813">
        <ele>1431.6</ele>
        <time>2022-09-15T14:33:48Z</time>
      </trkpt>
      <trkpt lat="41.862042" lon="9.158908">
        <ele>1432.2</ele>
        <time>2022-09-15T14:33:56Z</time>
      </trkpt>
      <trkpt lat="41.862032" lon="9.159003">
        <ele>1432.2</ele>
        <time>2022-09-15T14:34:06Z</time>
      </trkpt>
      <trkpt lat="41.862037" lon="9.159073">
        <ele>1432.4</ele>
        <time>2022-09-15T14:34:12Z</time>
      </trkpt>
      <trkpt lat="41.86207" lon="9.159138">
        <ele>1433.0</ele>
        <time>2022-09-15T14:34:19Z</time>
      </trkpt>
      <trkpt lat="41.862097" lon="9.159225">
        <ele>1433.6</ele>
        <time>2022-09-15T14:34:28Z</time>
      </trkpt>
      <trkpt lat="41.862093" lon="9.159487">
        <ele>1434.0</ele>
        <time>2022-09-15T14:34:46Z</time>
      </trkpt>
      <trkpt lat="41.862095" lon="9.159682">
        <ele>1434.4</ele>
        <time>2022-09-15T14:34:59Z</time>
      </trkpt>
      <trkpt lat="41.862105" lon="9.159783">
        <ele>1434.4</ele>
        <time>2022-09-15T14:35:05Z</time>
      </trkpt>
      <trkpt lat="41.86211" lon="9.1598">
        <ele>1434.4</ele>
        <time>2022-09-15T14:35:06Z</time>
      </trkpt>
      <trkpt lat="41.862115" lon="9.159815">
        <ele>1434.4</ele>
        <time>2022-09-15T14:35:07Z</time>
      </trkpt>
      <trkpt lat="41.862142" lon="9.159877">
        <ele>1434.8</ele>
        <time>2022-09-15T14:35:11Z</time>
      </trkpt>
      <trkpt lat="41.8622" lon="9.159968">
        <ele>1435.6</ele>
        <time>2022-09-15T14:35:18Z</time>
      </trkpt>
      <trkpt lat="41.862243" lon="9.160075">
        <ele>1439.6</ele>
        <time>2022-09-15T14:35:42Z</time>
      </trkpt>
      <trkpt lat="41.862397" lon="9.160357">
        <ele>1441.4</ele>
        <time>2022-09-15T14:35:52Z</time>
      </trkpt>
      <trkpt lat="41.862497" lon="9.160457">
        <ele>1442.6</ele>
        <time>2022-09-15T14:36:02Z</time>
      </trkpt>
      <trkpt lat="41.86239" lon="9.160968">
        <ele>1443.4</ele>
        <time>2022-09-15T14:36:12Z</time>
      </trkpt>
      <trkpt lat="41.862422" lon="9.161023">
        <ele>1443.4</ele>
        <time>2022-09-15T14:36:13Z</time>
      </trkpt>
      <trkpt lat="41.86245" lon="9.161062">
        <ele>1442.6</ele>
        <time>2022-09-15T14:36:16Z</time>
      </trkpt>
      <trkpt lat="41.862558" lon="9.16117">
        <ele>1442.0</ele>
        <time>2022-09-15T14:36:25Z</time>
      </trkpt>
      <trkpt lat="41.862633" lon="9.16126">
        <ele>1441.4</ele>
        <time>2022-09-15T14:36:32Z</time>
      </trkpt>
      <trkpt lat="41.862643" lon="9.161273">
        <ele>1441.4</ele>
        <time>2022-09-15T14:36:32Z</time>
      </trkpt>
      <trkpt lat="41.862728" lon="9.161373">
        <ele>1441.4</ele>
        <time>2022-09-15T14:36:43Z</time>
      </trkpt>
      <trkpt lat="41.86275" lon="9.161425">
        <ele>1442.0</ele>
        <time>2022-09-15T14:36:47Z</time>
      </trkpt>
      <trkpt lat="41.862755" lon="9.161438">
        <ele>1442.0</ele>
        <time>2022-09-15T14:36:48Z</time>
      </trkpt>
      <trkpt lat="41.862735" lon="9.161458">
        <ele>1442.2</ele>
        <time>2022-09-15T14:36:51Z</time>
      </trkpt>
      <trkpt lat="41.862712" lon="9.161495">
        <ele>1442.8</ele>
        <time>2022-09-15T14:36:57Z</time>
      </trkpt>
      <trkpt lat="41.86268" lon="9.16155">
        <ele>1442.4</ele>
        <time>2022-09-15T14:37:09Z</time>
      </trkpt>
      <trkpt lat="41.862652" lon="9.161563">
        <ele>1442.2</ele>
        <time>2022-09-15T14:37:12Z</time>
      </trkpt>
      <trkpt lat="41.862637" lon="9.161562">
        <ele>1441.8</ele>
        <time>2022-09-15T14:37:13Z</time>
      </trkpt>
      <trkpt lat="41.862563" lon="9.161558">
        <ele>1442.2</ele>
        <time>2022-09-15T14:37:18Z</time>
      </trkpt>
      <trkpt lat="41.86255" lon="9.161563">
        <ele>1442.2</ele>
        <time>2022-09-15T14:37:19Z</time>
      </trkpt>
      <trkpt lat="41.862537" lon="9.161568">
        <ele>1442.2</ele>
        <time>2022-09-15T14:37:20Z</time>
      </trkpt>
      <trkpt lat="41.86251" lon="9.161578">
        <ele>1442.4</ele>
        <time>2022-09-15T14:37:22Z</time>
      </trkpt>
      <trkpt lat="41.862528" lon="9.161705">
        <ele>1444.0</ele>
        <time>2022-09-15T14:37:29Z</time>
      </trkpt>
      <trkpt lat="41.86253" lon="9.161778">
        <ele>1444.8</ele>
        <time>2022-09-15T14:37:33Z</time>
      </trkpt>
      <trkpt lat="41.862523" lon="9.161825">
        <ele>1445.6</ele>
        <time>2022-09-15T14:37:36Z</time>
      </trkpt>
      <trkpt lat="41.862517" lon="9.161855">
        <ele>1445.8</ele>
        <time>2022-09-15T14:37:39Z</time>
      </trkpt>
      <trkpt lat="41.862502" lon="9.16187">
        <ele>1446.0</ele>
        <time>2022-09-15T14:37:41Z</time>
      </trkpt>
      <trkpt lat="41.86247" lon="9.161903">
        <ele>1446.4</ele>
        <time>2022-09-15T14:37:46Z</time>
      </trkpt>
      <trkpt lat="41.862458" lon="9.161938">
        <ele>1446.2</ele>
        <time>2022-09-15T14:37:49Z</time>
      </trkpt>
      <trkpt lat="41.86245" lon="9.161947">
        <ele>1446.2</ele>
        <time>2022-09-15T14:37:50Z</time>
      </trkpt>
      <trkpt lat="41.86244" lon="9.161953">
        <ele>1446.0</ele>
        <time>2022-09-15T14:37:51Z</time>
      </trkpt>
      <trkpt lat="41.862363" lon="9.162035">
        <ele>1445.6</ele>
        <time>2022-09-15T14:37:59Z</time>
      </trkpt>
      <trkpt lat="41.862333" lon="9.162062">
        <ele>1445.6</ele>
        <time>2022-09-15T14:38:02Z</time>
      </trkpt>
      <trkpt lat="41.862243" lon="9.162092">
        <ele>1447.4</ele>
        <time>2022-09-15T14:38:11Z</time>
      </trkpt>
      <trkpt lat="41.862173" lon="9.162138">
        <ele>1448.2</ele>
        <time>2022-09-15T14:38:19Z</time>
      </trkpt>
      <trkpt lat="41.862108" lon="9.162195">
        <ele>1448.2</ele>
        <time>2022-09-15T14:38:28Z</time>
      </trkpt>
      <trkpt lat="41.862098" lon="9.162197">
        <ele>1448.4</ele>
        <time>2022-09-15T14:38:29Z</time>
      </trkpt>
      <trkpt lat="41.86202" lon="9.162192">
        <ele>1449.0</ele>
        <time>2022-09-15T14:38:34Z</time>
      </trkpt>
      <trkpt lat="41.861892" lon="9.162232">
        <ele>1448.6</ele>
        <time>2022-09-15T14:38:42Z</time>
      </trkpt>
      <trkpt lat="41.861525" lon="9.162397">
        <ele>1448.2</ele>
        <time>2022-09-15T14:39:02Z</time>
      </trkpt>
      <trkpt lat="41.861497" lon="9.162422">
        <ele>1448.0</ele>
        <time>2022-09-15T14:39:06Z</time>
      </trkpt>
      <trkpt lat="41.861475" lon="9.162475">
        <ele>1448.0</ele>
        <time>2022-09-15T14:39:09Z</time>
      </trkpt>
      <trkpt lat="41.861465" lon="9.162528">
        <ele>1448.2</ele>
        <time>2022-09-15T14:39:12Z</time>
      </trkpt>
      <trkpt lat="41.861595" lon="9.16266">
        <ele>1447.4</ele>
        <time>2022-09-15T14:39:23Z</time>
      </trkpt>
      <trkpt lat="41.861605" lon="9.162675">
        <ele>1447.2</ele>
        <time>2022-09-15T14:39:24Z</time>
      </trkpt>
      <trkpt lat="41.861615" lon="9.16269">
        <ele>1447.2</ele>
        <time>2022-09-15T14:39:25Z</time>
      </trkpt>
      <trkpt lat="41.861625" lon="9.162705">
        <ele>1447.2</ele>
        <time>2022-09-15T14:39:26Z</time>
      </trkpt>
      <trkpt lat="41.861655" lon="9.162753">
        <ele>1446.8</ele>
        <time>2022-09-15T14:39:29Z</time>
      </trkpt>
      <trkpt lat="41.861698" lon="9.162835">
        <ele>1446.2</ele>
        <time>2022-09-15T14:39:34Z</time>
      </trkpt>
      <trkpt lat="41.861695" lon="9.16287">
        <ele>1445.8</ele>
        <time>2022-09-15T14:39:36Z</time>
      </trkpt>
      <trkpt lat="41.861692" lon="9.162888">
        <ele>1445.6</ele>
        <time>2022-09-15T14:39:38Z</time>
      </trkpt>
      <trkpt lat="41.861687" lon="9.162902">
        <ele>1445.6</ele>
        <time>2022-09-15T14:39:38Z</time>
      </trkpt>
      <trkpt lat="41.861648" lon="9.163045">
        <ele>1443.6</ele>
        <time>2022-09-15T14:39:48Z</time>
      </trkpt>
      <trkpt lat="41.861647" lon="9.163212">
        <ele>1442.4</ele>
        <time>2022-09-15T14:40:00Z</time>
      </trkpt>
      <trkpt lat="41.861637" lon="9.16324">
        <ele>1442.4</ele>
        <time>2022-09-15T14:40:03Z</time>
      </trkpt>
      <trkpt lat="41.861567" lon="9.163222">
        <ele>1443.2</ele>
        <time>2022-09-15T14:40:13Z</time>
      </trkpt>
      <trkpt lat="41.861532" lon="9.163217">
        <ele>1443.4</ele>
        <time>2022-09-15T14:40:17Z</time>
      </trkpt>
      <trkpt lat="41.861497" lon="9.163288">
        <ele>1445.0</ele>
        <time>2022-09-15T14:40:26Z</time>
      </trkpt>
      <trkpt lat="41.861453" lon="9.16334">
        <ele>1447.0</ele>
        <time>2022-09-15T14:40:39Z</time>
      </trkpt>
      <trkpt lat="41.861287" lon="9.163478">
        <ele>1449.6</ele>
        <time>2022-09-15T14:40:56Z</time>
      </trkpt>
      <trkpt lat="41.861228" lon="9.163462">
        <ele>1450.6</ele>
        <time>2022-09-15T14:41:04Z</time>
      </trkpt>
      <trkpt lat="41.861175" lon="9.163442">
        <ele>1452.0</ele>
        <time>2022-09-15T14:41:11Z</time>
      </trkpt>
      <trkpt lat="41.861135" lon="9.163458">
        <ele>1452.6</ele>
        <time>2022-09-15T14:41:16Z</time>
      </trkpt>
      <trkpt lat="41.861093" lon="9.16355">
        <ele>1453.8</ele>
        <time>2022-09-15T14:41:25Z</time>
      </trkpt>
      <trkpt lat="41.861083" lon="9.163582">
        <ele>1454.2</ele>
        <time>2022-09-15T14:41:28Z</time>
      </trkpt>
      <trkpt lat="41.86113" lon="9.163603">
        <ele>1455.8</ele>
        <time>2022-09-15T14:41:37Z</time>
      </trkpt>
      <trkpt lat="41.861128" lon="9.163698">
        <ele>1457.0</ele>
        <time>2022-09-15T14:41:45Z</time>
      </trkpt>
      <trkpt lat="41.861125" lon="9.16377">
        <ele>1458.4</ele>
        <time>2022-09-15T14:41:51Z</time>
      </trkpt>
      <trkpt lat="41.861158" lon="9.163825">
        <ele>1460.0</ele>
        <time>2022-09-15T14:41:58Z</time>
      </trkpt>
      <trkpt lat="41.861163" lon="9.163832">
        <ele>1460.4</ele>
        <time>2022-09-15T14:41:59Z</time>
      </trkpt>
      <trkpt lat="41.86125" lon="9.164118">
        <ele>1463.8</ele>
        <time>2022-09-15T14:42:19Z</time>
      </trkpt>
      <trkpt lat="41.861263" lon="9.164227">
        <ele>1464.2</ele>
        <time>2022-09-15T14:42:25Z</time>
      </trkpt>
      <trkpt lat="41.861262" lon="9.164287">
        <ele>1464.2</ele>
        <time>2022-09-15T14:42:28Z</time>
      </trkpt>
      <trkpt lat="41.861255" lon="9.164323">
        <ele>1463.8</ele>
        <time>2022-09-15T14:42:30Z</time>
      </trkpt>
      <trkpt lat="41.8612" lon="9.164352">
        <ele>1463.8</ele>
        <time>2022-09-15T14:42:35Z</time>
      </trkpt>
      <trkpt lat="41.861128" lon="9.164378">
        <ele>1464.4</ele>
        <time>2022-09-15T14:42:43Z</time>
      </trkpt>
      <trkpt lat="41.860982" lon="9.16438">
        <ele>1462.0</ele>
        <time>2022-09-15T14:42:59Z</time>
      </trkpt>
      <trkpt lat="41.860938" lon="9.164368">
        <ele>1461.6</ele>
        <time>2022-09-15T14:43:03Z</time>
      </trkpt>
      <trkpt lat="41.860842" lon="9.164352">
        <ele>1463.0</ele>
        <time>2022-09-15T14:43:13Z</time>
      </trkpt>
      <trkpt lat="41.860832" lon="9.164353">
        <ele>1463.0</ele>
        <time>2022-09-15T14:43:14Z</time>
      </trkpt>
      <trkpt lat="41.860425" lon="9.164335">
        <ele>1465.6</ele>
        <time>2022-09-15T14:43:41Z</time>
      </trkpt>
      <trkpt lat="41.860232" lon="9.164305">
        <ele>1465.4</ele>
        <time>2022-09-15T14:43:52Z</time>
      </trkpt>
      <trkpt lat="41.860218" lon="9.164302">
        <ele>1465.4</ele>
        <time>2022-09-15T14:43:53Z</time>
      </trkpt>
      <trkpt lat="41.860092" lon="9.164308">
        <ele>1465.8</ele>
        <time>2022-09-15T14:44:03Z</time>
      </trkpt>
      <trkpt lat="41.86001" lon="9.164303">
        <ele>1465.6</ele>
        <time>2022-09-15T14:44:09Z</time>
      </trkpt>
      <trkpt lat="41.859922" lon="9.164298">
        <ele>1465.6</ele>
        <time>2022-09-15T14:44:15Z</time>
      </trkpt>
      <trkpt lat="41.859802" lon="9.164292">
        <ele>1465.6</ele>
        <time>2022-09-15T14:44:24Z</time>
      </trkpt>
      <trkpt lat="41.859693" lon="9.164327">
        <ele>1465.4</ele>
        <time>2022-09-15T14:44:32Z</time>
      </trkpt>
      <trkpt lat="41.859642" lon="9.164315">
        <ele>1465.2</ele>
        <time>2022-09-15T14:44:37Z</time>
      </trkpt>
      <trkpt lat="41.85963" lon="9.164312">
        <ele>1465.2</ele>
        <time>2022-09-15T14:44:38Z</time>
      </trkpt>
      <trkpt lat="41.85951" lon="9.164285">
        <ele>1465.6</ele>
        <time>2022-09-15T14:44:52Z</time>
      </trkpt>
      <trkpt lat="41.859482" lon="9.164293">
        <ele>1465.6</ele>
        <time>2022-09-15T14:44:55Z</time>
      </trkpt>
      <trkpt lat="41.859458" lon="9.16431">
        <ele>1465.6</ele>
        <time>2022-09-15T14:44:58Z</time>
      </trkpt>
      <trkpt lat="41.859423" lon="9.164333">
        <ele>1465.6</ele>
        <time>2022-09-15T14:45:03Z</time>
      </trkpt>
      <trkpt lat="41.859403" lon="9.164328">
        <ele>1465.6</ele>
        <time>2022-09-15T14:45:06Z</time>
      </trkpt>
      <trkpt lat="41.859337" lon="9.164355">
        <ele>1465.8</ele>
        <time>2022-09-15T14:45:13Z</time>
      </trkpt>
      <trkpt lat="41.859237" lon="9.164347">
        <ele>1466.4</ele>
        <time>2022-09-15T14:45:23Z</time>
      </trkpt>
      <trkpt lat="41.859103" lon="9.164422">
        <ele>1466.8</ele>
        <time>2022-09-15T14:45:36Z</time>
      </trkpt>
      <trkpt lat="41.859022" lon="9.164478">
        <ele>1467.2</ele>
        <time>2022-09-15T14:45:45Z</time>
      </trkpt>
      <trkpt lat="41.859012" lon="9.164483">
        <ele>1467.2</ele>
        <time>2022-09-15T14:45:46Z</time>
      </trkpt>
      <trkpt lat="41.858953" lon="9.164527">
        <ele>1467.2</ele>
        <time>2022-09-15T14:45:54Z</time>
      </trkpt>
      <trkpt lat="41.858892" lon="9.164622">
        <ele>1468.8</ele>
        <time>2022-09-15T14:46:04Z</time>
      </trkpt>
      <trkpt lat="41.858848" lon="9.16469">
        <ele>1470.0</ele>
        <time>2022-09-15T14:46:12Z</time>
      </trkpt>
      <trkpt lat="41.858847" lon="9.164737">
        <ele>1470.6</ele>
        <time>2022-09-15T14:46:17Z</time>
      </trkpt>
      <trkpt lat="41.858845" lon="9.164755">
        <ele>1470.8</ele>
        <time>2022-09-15T14:46:19Z</time>
      </trkpt>
      <trkpt lat="41.858817" lon="9.16479">
        <ele>1471.8</ele>
        <time>2022-09-15T14:46:25Z</time>
      </trkpt>
      <trkpt lat="41.858793" lon="9.164783">
        <ele>1472.4</ele>
        <time>2022-09-15T14:46:28Z</time>
      </trkpt>
      <trkpt lat="41.858738" lon="9.164777">
        <ele>1473.8</ele>
        <time>2022-09-15T14:46:35Z</time>
      </trkpt>
      <trkpt lat="41.858695" lon="9.164767">
        <ele>1474.2</ele>
        <time>2022-09-15T14:46:41Z</time>
      </trkpt>
      <trkpt lat="41.858672" lon="9.164807">
        <ele>1474.4</ele>
        <time>2022-09-15T14:46:49Z</time>
      </trkpt>
      <trkpt lat="41.858655" lon="9.164812">
        <ele>1475.8</ele>
        <time>2022-09-15T14:47:13Z</time>
      </trkpt>
      <trkpt lat="41.85861" lon="9.164842">
        <ele>1476.6</ele>
        <time>2022-09-15T14:47:30Z</time>
      </trkpt>
      <trkpt lat="41.858585" lon="9.164842">
        <ele>1479.6</ele>
        <time>2022-09-15T14:47:46Z</time>
      </trkpt>
      <trkpt lat="41.858583" lon="9.164842">
        <ele>1479.6</ele>
        <time>2022-09-15T14:47:47Z</time>
      </trkpt>
      <trkpt lat="41.858582" lon="9.164862">
        <ele>1482.6</ele>
        <time>2022-09-15T14:48:11Z</time>
      </trkpt>
      <trkpt lat="41.85842" lon="9.164858">
        <ele>1484.6</ele>
        <time>2022-09-15T14:48:23Z</time>
      </trkpt>
      <trkpt lat="41.858218" lon="9.164988">
        <ele>1484.2</ele>
        <time>2022-09-15T14:48:34Z</time>
      </trkpt>
      <trkpt lat="41.858195" lon="9.164992">
        <ele>1484.2</ele>
        <time>2022-09-15T14:48:34Z</time>
      </trkpt>
      <trkpt lat="41.85807" lon="9.165028">
        <ele>1481.4</ele>
        <time>2022-09-15T14:48:50Z</time>
      </trkpt>
      <trkpt lat="41.858025" lon="9.165017">
        <ele>1481.0</ele>
        <time>2022-09-15T14:48:56Z</time>
      </trkpt>
      <trkpt lat="41.857997" lon="9.165015">
        <ele>1480.6</ele>
        <time>2022-09-15T14:48:59Z</time>
      </trkpt>
      <trkpt lat="41.85796" lon="9.165">
        <ele>1481.0</ele>
        <time>2022-09-15T14:49:05Z</time>
      </trkpt>
      <trkpt lat="41.85795" lon="9.165005">
        <ele>1481.2</ele>
        <time>2022-09-15T14:49:06Z</time>
      </trkpt>
      <trkpt lat="41.857833" lon="9.165063">
        <ele>1483.8</ele>
        <time>2022-09-15T14:49:20Z</time>
      </trkpt>
      <trkpt lat="41.857668" lon="9.16509">
        <ele>1485.6</ele>
        <time>2022-09-15T14:49:35Z</time>
      </trkpt>
      <trkpt lat="41.857645" lon="9.165092">
        <ele>1486.2</ele>
        <time>2022-09-15T14:49:38Z</time>
      </trkpt>
      <trkpt lat="41.857597" lon="9.164897">
        <ele>1488.6</ele>
        <time>2022-09-15T14:49:55Z</time>
      </trkpt>
      <trkpt lat="41.857543" lon="9.164837">
        <ele>1490.4</ele>
        <time>2022-09-15T14:50:03Z</time>
      </trkpt>
      <trkpt lat="41.85747" lon="9.16478">
        <ele>1492.0</ele>
        <time>2022-09-15T14:50:10Z</time>
      </trkpt>
      <trkpt lat="41.857472" lon="9.164737">
        <ele>1492.6</ele>
        <time>2022-09-15T14:50:13Z</time>
      </trkpt>
      <trkpt lat="41.857493" lon="9.164677">
        <ele>1493.4</ele>
        <time>2022-09-15T14:50:19Z</time>
      </trkpt>
      <trkpt lat="41.857468" lon="9.164637">
        <ele>1494.6</ele>
        <time>2022-09-15T14:50:23Z</time>
      </trkpt>
      <trkpt lat="41.857342" lon="9.164693">
        <ele>1497.8</ele>
        <time>2022-09-15T14:50:42Z</time>
      </trkpt>
      <trkpt lat="41.857262" lon="9.164682">
        <ele>1500.2</ele>
        <time>2022-09-15T14:50:57Z</time>
      </trkpt>
      <trkpt lat="41.857218" lon="9.164712">
        <ele>1501.2</ele>
        <time>2022-09-15T14:51:06Z</time>
      </trkpt>
      <trkpt lat="41.857147" lon="9.1648">
        <ele>1505.0</ele>
        <time>2022-09-15T14:51:24Z</time>
      </trkpt>
      <trkpt lat="41.85714" lon="9.164845">
        <ele>1505.8</ele>
        <time>2022-09-15T14:51:28Z</time>
      </trkpt>
      <trkpt lat="41.857085" lon="9.16489">
        <ele>1506.4</ele>
        <time>2022-09-15T14:51:34Z</time>
      </trkpt>
      <trkpt lat="41.857018" lon="9.164918">
        <ele>1507.0</ele>
        <time>2022-09-15T14:51:39Z</time>
      </trkpt>
      <trkpt lat="41.856802" lon="9.164928">
        <ele>1509.4</ele>
        <time>2022-09-15T14:51:51Z</time>
      </trkpt>
      <trkpt lat="41.856728" lon="9.164943">
        <ele>1510.0</ele>
        <time>2022-09-15T14:51:56Z</time>
      </trkpt>
      <trkpt lat="41.856637" lon="9.165012">
        <ele>1510.8</ele>
        <time>2022-09-15T14:52:02Z</time>
      </trkpt>
      <trkpt lat="41.856452" lon="9.165155">
        <ele>1512.4</ele>
        <time>2022-09-15T14:52:15Z</time>
      </trkpt>
      <trkpt lat="41.856452" lon="9.165168">
        <ele>1512.6</ele>
        <time>2022-09-15T14:52:16Z</time>
      </trkpt>
      <trkpt lat="41.856452" lon="9.165183">
        <ele>1512.6</ele>
        <time>2022-09-15T14:52:17Z</time>
      </trkpt>
      <trkpt lat="41.85646" lon="9.16526">
        <ele>1513.4</ele>
        <time>2022-09-15T14:52:23Z</time>
      </trkpt>
      <trkpt lat="41.856462" lon="9.16533">
        <ele>1513.6</ele>
        <time>2022-09-15T14:52:28Z</time>
      </trkpt>
      <trkpt lat="41.856447" lon="9.165367">
        <ele>1513.6</ele>
        <time>2022-09-15T14:52:31Z</time>
      </trkpt>
      <trkpt lat="41.856417" lon="9.165412">
        <ele>1514.6</ele>
        <time>2022-09-15T14:52:35Z</time>
      </trkpt>
      <trkpt lat="41.85641" lon="9.165423">
        <ele>1514.6</ele>
        <time>2022-09-15T14:52:36Z</time>
      </trkpt>
      <trkpt lat="41.856402" lon="9.165435">
        <ele>1514.6</ele>
        <time>2022-09-15T14:52:37Z</time>
      </trkpt>
      <trkpt lat="41.856377" lon="9.165478">
        <ele>1515.4</ele>
        <time>2022-09-15T14:52:41Z</time>
      </trkpt>
      <trkpt lat="41.856375" lon="9.165502">
        <ele>1515.4</ele>
        <time>2022-09-15T14:52:43Z</time>
      </trkpt>
      <trkpt lat="41.856373" lon="9.165527">
        <ele>1515.4</ele>
        <time>2022-09-15T14:52:45Z</time>
      </trkpt>
      <trkpt lat="41.856378" lon="9.165628">
        <ele>1516.6</ele>
        <time>2022-09-15T14:52:54Z</time>
      </trkpt>
      <trkpt lat="41.856325" lon="9.165807">
        <ele>1519.8</ele>
        <time>2022-09-15T14:53:16Z</time>
      </trkpt>
      <trkpt lat="41.856295" lon="9.16587">
        <ele>1521.4</ele>
        <time>2022-09-15T14:53:25Z</time>
      </trkpt>
      <trkpt lat="41.856293" lon="9.165895">
        <ele>1521.4</ele>
        <time>2022-09-15T14:53:28Z</time>
      </trkpt>
      <trkpt lat="41.856255" lon="9.16599">
        <ele>1521.8</ele>
        <time>2022-09-15T14:53:35Z</time>
      </trkpt>
      <trkpt lat="41.856137" lon="9.165973">
        <ele>1522.8</ele>
        <time>2022-09-15T14:53:46Z</time>
      </trkpt>
      <trkpt lat="41.8561" lon="9.165935">
        <ele>1523.2</ele>
        <time>2022-09-15T14:53:51Z</time>
      </trkpt>
      <trkpt lat="41.856005" lon="9.165762">
        <ele>1526.8</ele>
        <time>2022-09-15T14:54:02Z</time>
      </trkpt>
      <trkpt lat="41.855997" lon="9.16574">
        <ele>1526.6</ele>
        <time>2022-09-15T14:54:03Z</time>
      </trkpt>
      <trkpt lat="41.855893" lon="9.16573">
        <ele>1527.6</ele>
        <time>2022-09-15T14:54:12Z</time>
      </trkpt>
      <trkpt lat="41.855765" lon="9.165742">
        <ele>1529.6</ele>
        <time>2022-09-15T14:54:25Z</time>
      </trkpt>
      <trkpt lat="41.85573" lon="9.16577">
        <ele>1530.8</ele>
        <time>2022-09-15T14:54:31Z</time>
      </trkpt>
      <trkpt lat="41.855613" lon="9.165953">
        <ele>1536.2</ele>
        <time>2022-09-15T14:54:56Z</time>
      </trkpt>
      <trkpt lat="41.855607" lon="9.165963">
        <ele>1536.2</ele>
        <time>2022-09-15T14:54:57Z</time>
      </trkpt>
      <trkpt lat="41.855577" lon="9.165985">
        <ele>1536.0</ele>
        <time>2022-09-15T14:55:00Z</time>
      </trkpt>
      <trkpt lat="41.855492" lon="9.166002">
        <ele>1536.6</ele>
        <time>2022-09-15T14:55:08Z</time>
      </trkpt>
      <trkpt lat="41.855365" lon="9.166072">
        <ele>1536.6</ele>
        <time>2022-09-15T14:55:24Z</time>
      </trkpt>
      <trkpt lat="41.85532" lon="9.166182">
        <ele>1537.8</ele>
        <time>2022-09-15T14:55:34Z</time>
      </trkpt>
      <trkpt lat="41.855338" lon="9.166198">
        <ele>1536.2</ele>
        <time>2022-09-15T14:55:38Z</time>
      </trkpt>
      <trkpt lat="41.855365" lon="9.166213">
        <ele>1535.2</ele>
        <time>2022-09-15T14:55:41Z</time>
      </trkpt>
      <trkpt lat="41.855377" lon="9.166267">
        <ele>1534.8</ele>
        <time>2022-09-15T14:55:45Z</time>
      </trkpt>
      <trkpt lat="41.855475" lon="9.16616">
        <ele>1510.6</ele>
        <time>2022-09-16T04:13:35Z</time>
      </trkpt>
      <trkpt lat="41.855475" lon="9.16616">
        <ele>1510.6</ele>
        <time>2022-09-16T04:13:40Z</time>
      </trkpt>
      <trkpt lat="41.85547" lon="9.166085">
        <ele>1511.0</ele>
        <time>2022-09-16T04:13:48Z</time>
      </trkpt>
      <trkpt lat="41.855425" lon="9.166035">
        <ele>1511.6</ele>
        <time>2022-09-16T04:13:55Z</time>
      </trkpt>
      <trkpt lat="41.85538" lon="9.166008">
        <ele>1512.0</ele>
        <time>2022-09-16T04:14:00Z</time>
      </trkpt>
      <trkpt lat="41.855187" lon="9.166025">
        <ele>1514.0</ele>
        <time>2022-09-16T04:14:18Z</time>
      </trkpt>
      <trkpt lat="41.85513" lon="9.166047">
        <ele>1514.8</ele>
        <time>2022-09-16T04:14:24Z</time>
      </trkpt>
      <trkpt lat="41.854995" lon="9.166103">
        <ele>1516.4</ele>
        <time>2022-09-16T04:14:41Z</time>
      </trkpt>
      <trkpt lat="41.854987" lon="9.166105">
        <ele>1516.6</ele>
        <time>2022-09-16T04:14:42Z</time>
      </trkpt>
      <trkpt lat="41.854953" lon="9.166133">
        <ele>1517.2</ele>
        <time>2022-09-16T04:14:48Z</time>
      </trkpt>
      <trkpt lat="41.854923" lon="9.166205">
        <ele>1518.6</ele>
        <time>2022-09-16T04:14:57Z</time>
      </trkpt>
      <trkpt lat="41.854873" lon="9.166207">
        <ele>1519.4</ele>
        <time>2022-09-16T04:15:05Z</time>
      </trkpt>
      <trkpt lat="41.854752" lon="9.166312">
        <ele>1521.4</ele>
        <time>2022-09-16T04:15:29Z</time>
      </trkpt>
      <trkpt lat="41.854698" lon="9.166337">
        <ele>1522.2</ele>
        <time>2022-09-16T04:15:38Z</time>
      </trkpt>
      <trkpt lat="41.854653" lon="9.166377">
        <ele>1523.4</ele>
        <time>2022-09-16T04:15:47Z</time>
      </trkpt>
      <trkpt lat="41.854618" lon="9.166428">
        <ele>1524.8</ele>
        <time>2022-09-16T04:15:56Z</time>
      </trkpt>
      <trkpt lat="41.854572" lon="9.166428">
        <ele>1525.4</ele>
        <time>2022-09-16T04:16:05Z</time>
      </trkpt>
      <trkpt lat="41.854487" lon="9.166377">
        <ele>1526.8</ele>
        <time>2022-09-16T04:16:18Z</time>
      </trkpt>
      <trkpt lat="41.854375" lon="9.166355">
        <ele>1528.4</ele>
        <time>2022-09-16T04:16:33Z</time>
      </trkpt>
      <trkpt lat="41.854245" lon="9.16631">
        <ele>1530.2</ele>
        <time>2022-09-16T04:16:48Z</time>
      </trkpt>
      <trkpt lat="41.854092" lon="9.1663">
        <ele>1531.6</ele>
        <time>2022-09-16T04:17:04Z</time>
      </trkpt>
      <trkpt lat="41.854082" lon="9.166302">
        <ele>1531.8</ele>
        <time>2022-09-16T04:17:06Z</time>
      </trkpt>
      <trkpt lat="41.853872" lon="9.166335">
        <ele>1533.2</ele>
        <time>2022-09-16T04:17:30Z</time>
      </trkpt>
      <trkpt lat="41.853733" lon="9.166335">
        <ele>1535.8</ele>
        <time>2022-09-16T04:17:45Z</time>
      </trkpt>
      <trkpt lat="41.85362" lon="9.166322">
        <ele>1536.0</ele>
        <time>2022-09-16T04:18:00Z</time>
      </trkpt>
      <trkpt lat="41.853612" lon="9.166323">
        <ele>1536.0</ele>
        <time>2022-09-16T04:18:01Z</time>
      </trkpt>
      <trkpt lat="41.853527" lon="9.166358">
        <ele>1536.4</ele>
        <time>2022-09-16T04:18:11Z</time>
      </trkpt>
      <trkpt lat="41.853477" lon="9.16635">
        <ele>1536.6</ele>
        <time>2022-09-16T04:18:16Z</time>
      </trkpt>
      <trkpt lat="41.853363" lon="9.166317">
        <ele>1537.6</ele>
        <time>2022-09-16T04:18:29Z</time>
      </trkpt>
      <trkpt lat="41.85326" lon="9.166372">
        <ele>1539.4</ele>
        <time>2022-09-16T04:18:40Z</time>
      </trkpt>
      <trkpt lat="41.853208" lon="9.1664">
        <ele>1540.4</ele>
        <time>2022-09-16T04:18:45Z</time>
      </trkpt>
      <trkpt lat="41.853" lon="9.16638">
        <ele>1542.2</ele>
        <time>2022-09-16T04:19:06Z</time>
      </trkpt>
      <trkpt lat="41.852882" lon="9.166385">
        <ele>1543.2</ele>
        <time>2022-09-16T04:19:17Z</time>
      </trkpt>
      <trkpt lat="41.852848" lon="9.166392">
        <ele>1543.2</ele>
        <time>2022-09-16T04:19:20Z</time>
      </trkpt>
      <trkpt lat="41.852708" lon="9.166393">
        <ele>1544.6</ele>
        <time>2022-09-16T04:19:35Z</time>
      </trkpt>
      <trkpt lat="41.852617" lon="9.1664">
        <ele>1545.2</ele>
        <time>2022-09-16T04:19:45Z</time>
      </trkpt>
      <trkpt lat="41.852453" lon="9.166448">
        <ele>1547.2</ele>
        <time>2022-09-16T04:20:04Z</time>
      </trkpt>
      <trkpt lat="41.852365" lon="9.166497">
        <ele>1548.6</ele>
        <time>2022-09-16T04:20:13Z</time>
      </trkpt>
      <trkpt lat="41.852308" lon="9.166538">
        <ele>1549.4</ele>
        <time>2022-09-16T04:20:19Z</time>
      </trkpt>
      <trkpt lat="41.852187" lon="9.166572">
        <ele>1551.2</ele>
        <time>2022-09-16T04:20:31Z</time>
      </trkpt>
      <trkpt lat="41.852138" lon="9.166588">
        <ele>1552.2</ele>
        <time>2022-09-16T04:20:36Z</time>
      </trkpt>
      <trkpt lat="41.852128" lon="9.166595">
        <ele>1552.4</ele>
        <time>2022-09-16T04:20:38Z</time>
      </trkpt>
      <trkpt lat="41.852053" lon="9.166623">
        <ele>1552.4</ele>
        <time>2022-09-16T04:20:46Z</time>
      </trkpt>
      <trkpt lat="41.851988" lon="9.166652">
        <ele>1552.6</ele>
        <time>2022-09-16T04:20:53Z</time>
      </trkpt>
      <trkpt lat="41.85191" lon="9.166685">
        <ele>1553.2</ele>
        <time>2022-09-16T04:21:01Z</time>
      </trkpt>
      <trkpt lat="41.851823" lon="9.166722">
        <ele>1554.2</ele>
        <time>2022-09-16T04:21:10Z</time>
      </trkpt>
      <trkpt lat="41.851722" lon="9.166738">
        <ele>1554.8</ele>
        <time>2022-09-16T04:21:22Z</time>
      </trkpt>
      <trkpt lat="41.851638" lon="9.166745">
        <ele>1556.0</ele>
        <time>2022-09-16T04:21:31Z</time>
      </trkpt>
      <trkpt lat="41.851547" lon="9.166772">
        <ele>1557.0</ele>
        <time>2022-09-16T04:21:41Z</time>
      </trkpt>
      <trkpt lat="41.851378" lon="9.166785">
        <ele>1558.8</ele>
        <time>2022-09-16T04:21:59Z</time>
      </trkpt>
      <trkpt lat="41.851325" lon="9.16681">
        <ele>1560.0</ele>
        <time>2022-09-16T04:22:05Z</time>
      </trkpt>
      <trkpt lat="41.851232" lon="9.166883">
        <ele>1561.4</ele>
        <time>2022-09-16T04:22:17Z</time>
      </trkpt>
      <trkpt lat="41.851182" lon="9.166948">
        <ele>1562.2</ele>
        <time>2022-09-16T04:22:24Z</time>
      </trkpt>
      <trkpt lat="41.851002" lon="9.167225">
        <ele>1564.6</ele>
        <time>2022-09-16T04:22:53Z</time>
      </trkpt>
      <trkpt lat="41.85099" lon="9.167245">
        <ele>1564.8</ele>
        <time>2022-09-16T04:22:55Z</time>
      </trkpt>
      <trkpt lat="41.850895" lon="9.167353">
        <ele>1566.6</ele>
        <time>2022-09-16T04:23:07Z</time>
      </trkpt>
      <trkpt lat="41.850887" lon="9.167435">
        <ele>1567.4</ele>
        <time>2022-09-16T04:23:14Z</time>
      </trkpt>
      <trkpt lat="41.850905" lon="9.16752">
        <ele>1567.8</ele>
        <time>2022-09-16T04:23:20Z</time>
      </trkpt>
      <trkpt lat="41.850912" lon="9.167535">
        <ele>1568.2</ele>
        <time>2022-09-16T04:23:21Z</time>
      </trkpt>
      <trkpt lat="41.85096" lon="9.167635">
        <ele>1568.6</ele>
        <time>2022-09-16T04:23:30Z</time>
      </trkpt>
      <trkpt lat="41.851023" lon="9.167807">
        <ele>1569.0</ele>
        <time>2022-09-16T04:23:44Z</time>
      </trkpt>
      <trkpt lat="41.851093" lon="9.168033">
        <ele>1570.8</ele>
        <time>2022-09-16T04:24:03Z</time>
      </trkpt>
      <trkpt lat="41.851095" lon="9.168045">
        <ele>1570.8</ele>
        <time>2022-09-16T04:24:03Z</time>
      </trkpt>
      <trkpt lat="41.851137" lon="9.168307">
        <ele>1573.0</ele>
        <time>2022-09-16T04:24:23Z</time>
      </trkpt>
      <trkpt lat="41.85116" lon="9.168432">
        <ele>1574.4</ele>
        <time>2022-09-16T04:24:33Z</time>
      </trkpt>
      <trkpt lat="41.851197" lon="9.168587">
        <ele>1575.8</ele>
        <time>2022-09-16T04:24:46Z</time>
      </trkpt>
      <trkpt lat="41.851225" lon="9.168677">
        <ele>1576.8</ele>
        <time>2022-09-16T04:24:56Z</time>
      </trkpt>
      <trkpt lat="41.851275" lon="9.168783">
        <ele>1578.0</ele>
        <time>2022-09-16T04:25:06Z</time>
      </trkpt>
      <trkpt lat="41.851397" lon="9.168948">
        <ele>1580.0</ele>
        <time>2022-09-16T04:25:24Z</time>
      </trkpt>
      <trkpt lat="41.851405" lon="9.168957">
        <ele>1580.4</ele>
        <time>2022-09-16T04:25:25Z</time>
      </trkpt>
      <trkpt lat="41.851642" lon="9.169237">
        <ele>1584.0</ele>
        <time>2022-09-16T04:25:58Z</time>
      </trkpt>
      <trkpt lat="41.851743" lon="9.169387">
        <ele>1585.2</ele>
        <time>2022-09-16T04:26:14Z</time>
      </trkpt>
      <trkpt lat="41.851813" lon="9.169552">
        <ele>1586.0</ele>
        <time>2022-09-16T04:26:27Z</time>
      </trkpt>
      <trkpt lat="41.85183" lon="9.16959">
        <ele>1586.2</ele>
        <time>2022-09-16T04:26:30Z</time>
      </trkpt>
      <trkpt lat="41.851828" lon="9.169642">
        <ele>1586.2</ele>
        <time>2022-09-16T04:26:34Z</time>
      </trkpt>
      <trkpt lat="41.851803" lon="9.169698">
        <ele>1585.6</ele>
        <time>2022-09-16T04:26:40Z</time>
      </trkpt>
      <trkpt lat="41.851738" lon="9.169802">
        <ele>1585.6</ele>
        <time>2022-09-16T04:26:53Z</time>
      </trkpt>
      <trkpt lat="41.851665" lon="9.169843">
        <ele>1585.6</ele>
        <time>2022-09-16T04:27:01Z</time>
      </trkpt>
      <trkpt lat="41.851583" lon="9.16991">
        <ele>1587.0</ele>
        <time>2022-09-16T04:27:10Z</time>
      </trkpt>
      <trkpt lat="41.851548" lon="9.16997">
        <ele>1587.4</ele>
        <time>2022-09-16T04:27:15Z</time>
      </trkpt>
      <trkpt lat="41.851542" lon="9.169983">
        <ele>1587.4</ele>
        <time>2022-09-16T04:27:16Z</time>
      </trkpt>
      <trkpt lat="41.851495" lon="9.170132">
        <ele>1588.0</ele>
        <time>2022-09-16T04:27:27Z</time>
      </trkpt>
      <trkpt lat="41.85147" lon="9.170303">
        <ele>1588.8</ele>
        <time>2022-09-16T04:27:38Z</time>
      </trkpt>
      <trkpt lat="41.851463" lon="9.170382">
        <ele>1589.0</ele>
        <time>2022-09-16T04:27:43Z</time>
      </trkpt>
      <trkpt lat="41.85146" lon="9.17054">
        <ele>1589.4</ele>
        <time>2022-09-16T04:27:53Z</time>
      </trkpt>
      <trkpt lat="41.851487" lon="9.170693">
        <ele>1589.4</ele>
        <time>2022-09-16T04:28:03Z</time>
      </trkpt>
      <trkpt lat="41.851583" lon="9.170965">
        <ele>1590.4</ele>
        <time>2022-09-16T04:28:24Z</time>
      </trkpt>
      <trkpt lat="41.851592" lon="9.17097">
        <ele>1590.8</ele>
        <time>2022-09-16T04:28:25Z</time>
      </trkpt>
      <trkpt lat="41.851697" lon="9.171042">
        <ele>1591.2</ele>
        <time>2022-09-16T04:28:38Z</time>
      </trkpt>
      <trkpt lat="41.851873" lon="9.171157">
        <ele>1592.4</ele>
        <time>2022-09-16T04:28:53Z</time>
      </trkpt>
      <trkpt lat="41.851883" lon="9.171162">
        <ele>1592.6</ele>
        <time>2022-09-16T04:28:54Z</time>
      </trkpt>
      <trkpt lat="41.851925" lon="9.171178">
        <ele>1593.4</ele>
        <time>2022-09-16T04:29:00Z</time>
      </trkpt>
      <trkpt lat="41.851998" lon="9.171238">
        <ele>1593.6</ele>
        <time>2022-09-16T04:29:10Z</time>
      </trkpt>
      <trkpt lat="41.852068" lon="9.171205">
        <ele>1594.2</ele>
        <time>2022-09-16T04:29:27Z</time>
      </trkpt>
      <trkpt lat="41.852175" lon="9.171175">
        <ele>1596.2</ele>
        <time>2022-09-16T04:29:43Z</time>
      </trkpt>
      <trkpt lat="41.852183" lon="9.171175">
        <ele>1596.2</ele>
        <time>2022-09-16T04:29:44Z</time>
      </trkpt>
      <trkpt lat="41.85215" lon="9.17115">
        <ele>1597.2</ele>
        <time>2022-09-16T04:29:49Z</time>
      </trkpt>
      <trkpt lat="41.852063" lon="9.171062">
        <ele>1598.6</ele>
        <time>2022-09-16T04:29:58Z</time>
      </trkpt>
      <trkpt lat="41.85222" lon="9.171188">
        <ele>1611.4</ele>
        <time>2022-09-16T04:31:44Z</time>
      </trkpt>
      <trkpt lat="41.852417" lon="9.17122">
        <ele>1611.6</ele>
        <time>2022-09-16T04:31:53Z</time>
      </trkpt>
      <trkpt lat="41.852498" lon="9.171257">
        <ele>1612.4</ele>
        <time>2022-09-16T04:31:57Z</time>
      </trkpt>
      <trkpt lat="41.852545" lon="9.171298">
        <ele>1613.0</ele>
        <time>2022-09-16T04:32:02Z</time>
      </trkpt>
      <trkpt lat="41.852558" lon="9.171313">
        <ele>1613.0</ele>
        <time>2022-09-16T04:32:03Z</time>
      </trkpt>
      <trkpt lat="41.852567" lon="9.171357">
        <ele>1613.2</ele>
        <time>2022-09-16T04:32:05Z</time>
      </trkpt>
      <trkpt lat="41.852582" lon="9.171475">
        <ele>1614.2</ele>
        <time>2022-09-16T04:32:11Z</time>
      </trkpt>
      <trkpt lat="41.85259" lon="9.171512">
        <ele>1614.2</ele>
        <time>2022-09-16T04:32:13Z</time>
      </trkpt>
      <trkpt lat="41.852592" lon="9.171637">
        <ele>1614.4</ele>
        <time>2022-09-16T04:32:23Z</time>
      </trkpt>
      <trkpt lat="41.852547" lon="9.17173">
        <ele>1616.8</ele>
        <time>2022-09-16T04:32:54Z</time>
      </trkpt>
      <trkpt lat="41.852527" lon="9.171758">
        <ele>1618.0</ele>
        <time>2022-09-16T04:33:05Z</time>
      </trkpt>
      <trkpt lat="41.852533" lon="9.171833">
        <ele>1619.4</ele>
        <time>2022-09-16T04:33:15Z</time>
      </trkpt>
      <trkpt lat="41.85254" lon="9.171847">
        <ele>1619.8</ele>
        <time>2022-09-16T04:33:16Z</time>
      </trkpt>
      <trkpt lat="41.852617" lon="9.172025">
        <ele>1621.8</ele>
        <time>2022-09-16T04:33:28Z</time>
      </trkpt>
      <trkpt lat="41.852675" lon="9.172153">
        <ele>1623.0</ele>
        <time>2022-09-16T04:33:36Z</time>
      </trkpt>
      <trkpt lat="41.852612" lon="9.17223">
        <ele>1624.6</ele>
        <time>2022-09-16T04:33:43Z</time>
      </trkpt>
      <trkpt lat="41.85256" lon="9.172308">
        <ele>1624.8</ele>
        <time>2022-09-16T04:33:50Z</time>
      </trkpt>
      <trkpt lat="41.85255" lon="9.172317">
        <ele>1624.8</ele>
        <time>2022-09-16T04:33:50Z</time>
      </trkpt>
      <trkpt lat="41.852445" lon="9.172382">
        <ele>1626.6</ele>
        <time>2022-09-16T04:34:06Z</time>
      </trkpt>
      <trkpt lat="41.852412" lon="9.17241">
        <ele>1627.4</ele>
        <time>2022-09-16T04:34:11Z</time>
      </trkpt>
      <trkpt lat="41.852382" lon="9.172475">
        <ele>1627.0</ele>
        <time>2022-09-16T04:34:19Z</time>
      </trkpt>
      <trkpt lat="41.852327" lon="9.172517">
        <ele>1628.4</ele>
        <time>2022-09-16T04:34:28Z</time>
      </trkpt>
      <trkpt lat="41.852257" lon="9.172562">
        <ele>1630.0</ele>
        <time>2022-09-16T04:34:41Z</time>
      </trkpt>
      <trkpt lat="41.852197" lon="9.172582">
        <ele>1631.0</ele>
        <time>2022-09-16T04:34:49Z</time>
      </trkpt>
      <trkpt lat="41.852123" lon="9.172565">
        <ele>1633.2</ele>
        <time>2022-09-16T04:35:17Z</time>
      </trkpt>
      <trkpt lat="41.852102" lon="9.172567">
        <ele>1633.8</ele>
        <time>2022-09-16T04:35:35Z</time>
      </trkpt>
      <trkpt lat="41.852002" lon="9.17264">
        <ele>1633.0</ele>
        <time>2022-09-16T04:35:47Z</time>
      </trkpt>
      <trkpt lat="41.851807" lon="9.172787">
        <ele>1635.2</ele>
        <time>2022-09-16T04:35:58Z</time>
      </trkpt>
      <trkpt lat="41.851793" lon="9.172827">
        <ele>1636.0</ele>
        <time>2022-09-16T04:36:02Z</time>
      </trkpt>
      <trkpt lat="41.851787" lon="9.172988">
        <ele>1637.0</ele>
        <time>2022-09-16T04:36:13Z</time>
      </trkpt>
      <trkpt lat="41.851793" lon="9.173105">
        <ele>1636.8</ele>
        <time>2022-09-16T04:36:21Z</time>
      </trkpt>
      <trkpt lat="41.851787" lon="9.17318">
        <ele>1636.6</ele>
        <time>2022-09-16T04:36:26Z</time>
      </trkpt>
      <trkpt lat="41.851772" lon="9.173245">
        <ele>1636.6</ele>
        <time>2022-09-16T04:36:31Z</time>
      </trkpt>
      <trkpt lat="41.851768" lon="9.173257">
        <ele>1636.6</ele>
        <time>2022-09-16T04:36:33Z</time>
      </trkpt>
      <trkpt lat="41.851715" lon="9.173277">
        <ele>1636.4</ele>
        <time>2022-09-16T04:36:38Z</time>
      </trkpt>
      <trkpt lat="41.851585" lon="9.173328">
        <ele>1633.8</ele>
        <time>2022-09-16T04:36:58Z</time>
      </trkpt>
      <trkpt lat="41.851545" lon="9.173363">
        <ele>1633.6</ele>
        <time>2022-09-16T04:37:04Z</time>
      </trkpt>
      <trkpt lat="41.851528" lon="9.173418">
        <ele>1635.0</ele>
        <time>2022-09-16T04:37:10Z</time>
      </trkpt>
      <trkpt lat="41.851523" lon="9.173437">
        <ele>1635.2</ele>
        <time>2022-09-16T04:37:13Z</time>
      </trkpt>
      <trkpt lat="41.851537" lon="9.173473">
        <ele>1635.2</ele>
        <time>2022-09-16T04:37:19Z</time>
      </trkpt>
      <trkpt lat="41.851545" lon="9.173507">
        <ele>1636.4</ele>
        <time>2022-09-16T04:37:24Z</time>
      </trkpt>
      <trkpt lat="41.85153" lon="9.173602">
        <ele>1637.2</ele>
        <time>2022-09-16T04:37:36Z</time>
      </trkpt>
      <trkpt lat="41.851548" lon="9.173667">
        <ele>1637.2</ele>
        <time>2022-09-16T04:37:44Z</time>
      </trkpt>
      <trkpt lat="41.851552" lon="9.173678">
        <ele>1637.2</ele>
        <time>2022-09-16T04:37:45Z</time>
      </trkpt>
      <trkpt lat="41.851498" lon="9.17383">
        <ele>1638.8</ele>
        <time>2022-09-16T04:38:01Z</time>
      </trkpt>
      <trkpt lat="41.851458" lon="9.173878">
        <ele>1639.8</ele>
        <time>2022-09-16T04:38:08Z</time>
      </trkpt>
      <trkpt lat="41.851437" lon="9.173947">
        <ele>1639.4</ele>
        <time>2022-09-16T04:38:15Z</time>
      </trkpt>
      <trkpt lat="41.851427" lon="9.174015">
        <ele>1639.8</ele>
        <time>2022-09-16T04:38:23Z</time>
      </trkpt>
      <trkpt lat="41.851423" lon="9.174025">
        <ele>1639.8</ele>
        <time>2022-09-16T04:38:25Z</time>
      </trkpt>
      <trkpt lat="41.851337" lon="9.174152">
        <ele>1640.6</ele>
        <time>2022-09-16T04:38:35Z</time>
      </trkpt>
      <trkpt lat="41.851302" lon="9.174187">
        <ele>1640.6</ele>
        <time>2022-09-16T04:38:38Z</time>
      </trkpt>
      <trkpt lat="41.85121" lon="9.174248">
        <ele>1641.4</ele>
        <time>2022-09-16T04:38:45Z</time>
      </trkpt>
      <trkpt lat="41.851095" lon="9.174362">
        <ele>1641.6</ele>
        <time>2022-09-16T04:38:55Z</time>
      </trkpt>
      <trkpt lat="41.851065" lon="9.174437">
        <ele>1641.8</ele>
        <time>2022-09-16T04:39:01Z</time>
      </trkpt>
      <trkpt lat="41.85101" lon="9.174572">
        <ele>1641.6</ele>
        <time>2022-09-16T04:39:11Z</time>
      </trkpt>
      <trkpt lat="41.851027" lon="9.174595">
        <ele>1641.6</ele>
        <time>2022-09-16T04:39:17Z</time>
      </trkpt>
      <trkpt lat="41.851123" lon="9.17455">
        <ele>1641.8</ele>
        <time>2022-09-16T04:39:33Z</time>
      </trkpt>
      <trkpt lat="41.851253" lon="9.174555">
        <ele>1641.8</ele>
        <time>2022-09-16T04:39:42Z</time>
      </trkpt>
      <trkpt lat="41.851288" lon="9.174575">
        <ele>1642.0</ele>
        <time>2022-09-16T04:39:46Z</time>
      </trkpt>
      <trkpt lat="41.851335" lon="9.17462">
        <ele>1642.2</ele>
        <time>2022-09-16T04:39:51Z</time>
      </trkpt>
      <trkpt lat="41.851343" lon="9.174628">
        <ele>1642.2</ele>
        <time>2022-09-16T04:39:52Z</time>
      </trkpt>
      <trkpt lat="41.851313" lon="9.174723">
        <ele>1642.8</ele>
        <time>2022-09-16T04:39:58Z</time>
      </trkpt>
      <trkpt lat="41.851283" lon="9.174775">
        <ele>1643.4</ele>
        <time>2022-09-16T04:40:02Z</time>
      </trkpt>
      <trkpt lat="41.85122" lon="9.174875">
        <ele>1644.6</ele>
        <time>2022-09-16T04:40:12Z</time>
      </trkpt>
      <trkpt lat="41.85119" lon="9.17495">
        <ele>1644.8</ele>
        <time>2022-09-16T04:40:18Z</time>
      </trkpt>
      <trkpt lat="41.851138" lon="9.17504">
        <ele>1645.0</ele>
        <time>2022-09-16T04:40:26Z</time>
      </trkpt>
      <trkpt lat="41.85107" lon="9.17519">
        <ele>1645.8</ele>
        <time>2022-09-16T04:40:41Z</time>
      </trkpt>
      <trkpt lat="41.850967" lon="9.175502">
        <ele>1647.2</ele>
        <time>2022-09-16T04:41:05Z</time>
      </trkpt>
      <trkpt lat="41.850942" lon="9.175678">
        <ele>1648.0</ele>
        <time>2022-09-16T04:41:18Z</time>
      </trkpt>
      <trkpt lat="41.850922" lon="9.175708">
        <ele>1648.4</ele>
        <time>2022-09-16T04:41:21Z</time>
      </trkpt>
      <trkpt lat="41.850872" lon="9.175723">
        <ele>1649.4</ele>
        <time>2022-09-16T04:41:31Z</time>
      </trkpt>
      <trkpt lat="41.850823" lon="9.17576">
        <ele>1650.8</ele>
        <time>2022-09-16T04:41:41Z</time>
      </trkpt>
      <trkpt lat="41.850812" lon="9.17579">
        <ele>1651.4</ele>
        <time>2022-09-16T04:41:45Z</time>
      </trkpt>
      <trkpt lat="41.850778" lon="9.175908">
        <ele>1653.8</ele>
        <time>2022-09-16T04:41:59Z</time>
      </trkpt>
      <trkpt lat="41.850768" lon="9.175918">
        <ele>1654.4</ele>
        <time>2022-09-16T04:42:01Z</time>
      </trkpt>
      <trkpt lat="41.850757" lon="9.176013">
        <ele>1655.0</ele>
        <time>2022-09-16T04:42:09Z</time>
      </trkpt>
      <trkpt lat="41.850752" lon="9.176108">
        <ele>1656.0</ele>
        <time>2022-09-16T04:42:16Z</time>
      </trkpt>
      <trkpt lat="41.850745" lon="9.176178">
        <ele>1657.0</ele>
        <time>2022-09-16T04:42:22Z</time>
      </trkpt>
      <trkpt lat="41.850747" lon="9.176295">
        <ele>1657.6</ele>
        <time>2022-09-16T04:42:33Z</time>
      </trkpt>
      <trkpt lat="41.850742" lon="9.176375">
        <ele>1658.4</ele>
        <time>2022-09-16T04:42:41Z</time>
      </trkpt>
      <trkpt lat="41.850742" lon="9.176467">
        <ele>1659.4</ele>
        <time>2022-09-16T04:42:49Z</time>
      </trkpt>
      <trkpt lat="41.850723" lon="9.17657">
        <ele>1661.0</ele>
        <time>2022-09-16T04:42:59Z</time>
      </trkpt>
      <trkpt lat="41.85066" lon="9.17668">
        <ele>1662.6</ele>
        <time>2022-09-16T04:43:12Z</time>
      </trkpt>
      <trkpt lat="41.850617" lon="9.176755">
        <ele>1663.8</ele>
        <time>2022-09-16T04:43:22Z</time>
      </trkpt>
      <trkpt lat="41.85061" lon="9.176762">
        <ele>1664.0</ele>
        <time>2022-09-16T04:43:23Z</time>
      </trkpt>
      <trkpt lat="41.850275" lon="9.177018">
        <ele>1667.6</ele>
        <time>2022-09-16T04:43:55Z</time>
      </trkpt>
      <trkpt lat="41.85025" lon="9.177077">
        <ele>1668.4</ele>
        <time>2022-09-16T04:44:04Z</time>
      </trkpt>
      <trkpt lat="41.850375" lon="9.177175">
        <ele>1669.2</ele>
        <time>2022-09-16T04:44:13Z</time>
      </trkpt>
      <trkpt lat="41.849835" lon="9.177378">
        <ele>1670.8</ele>
        <time>2022-09-16T04:44:26Z</time>
      </trkpt>
      <trkpt lat="41.849883" lon="9.177415">
        <ele>1670.8</ele>
        <time>2022-09-16T04:44:26Z</time>
      </trkpt>
      <trkpt lat="41.849977" lon="9.177468">
        <ele>1672.6</ele>
        <time>2022-09-16T04:44:41Z</time>
      </trkpt>
      <trkpt lat="41.850007" lon="9.177547">
        <ele>1674.2</ele>
        <time>2022-09-16T04:44:53Z</time>
      </trkpt>
      <trkpt lat="41.850045" lon="9.177593">
        <ele>1676.0</ele>
        <time>2022-09-16T04:45:00Z</time>
      </trkpt>
      <trkpt lat="41.84993" lon="9.177832">
        <ele>1679.8</ele>
        <time>2022-09-16T04:45:29Z</time>
      </trkpt>
      <trkpt lat="41.849892" lon="9.177918">
        <ele>1679.8</ele>
        <time>2022-09-16T04:45:38Z</time>
      </trkpt>
      <trkpt lat="41.849877" lon="9.177932">
        <ele>1679.8</ele>
        <time>2022-09-16T04:45:40Z</time>
      </trkpt>
      <trkpt lat="41.849812" lon="9.177977">
        <ele>1680.4</ele>
        <time>2022-09-16T04:45:48Z</time>
      </trkpt>
      <trkpt lat="41.849732" lon="9.178037">
        <ele>1680.8</ele>
        <time>2022-09-16T04:45:57Z</time>
      </trkpt>
      <trkpt lat="41.849562" lon="9.178157">
        <ele>1679.6</ele>
        <time>2022-09-16T04:46:15Z</time>
      </trkpt>
      <trkpt lat="41.849417" lon="9.178193">
        <ele>1680.4</ele>
        <time>2022-09-16T04:46:24Z</time>
      </trkpt>
      <trkpt lat="41.849337" lon="9.178147">
        <ele>1681.0</ele>
        <time>2022-09-16T04:46:32Z</time>
      </trkpt>
      <trkpt lat="41.849273" lon="9.178115">
        <ele>1680.8</ele>
        <time>2022-09-16T04:46:39Z</time>
      </trkpt>
      <trkpt lat="41.849237" lon="9.178093">
        <ele>1681.4</ele>
        <time>2022-09-16T04:46:43Z</time>
      </trkpt>
      <trkpt lat="41.849132" lon="9.1781">
        <ele>1681.8</ele>
        <time>2022-09-16T04:46:57Z</time>
      </trkpt>
      <trkpt lat="41.849097" lon="9.1781">
        <ele>1682.0</ele>
        <time>2022-09-16T04:47:02Z</time>
      </trkpt>
      <trkpt lat="41.849042" lon="9.178063">
        <ele>1683.0</ele>
        <time>2022-09-16T04:47:10Z</time>
      </trkpt>
      <trkpt lat="41.848988" lon="9.178038">
        <ele>1682.8</ele>
        <time>2022-09-16T04:47:17Z</time>
      </trkpt>
      <trkpt lat="41.848995" lon="9.178048">
        <ele>1682.8</ele>
        <time>2022-09-16T04:47:18Z</time>
      </trkpt>
      <trkpt lat="41.84903" lon="9.178075">
        <ele>1682.2</ele>
        <time>2022-09-16T04:47:30Z</time>
      </trkpt>
      <trkpt lat="41.849017" lon="9.17811">
        <ele>1682.6</ele>
        <time>2022-09-16T04:47:33Z</time>
      </trkpt>
      <trkpt lat="41.848978" lon="9.178155">
        <ele>1683.8</ele>
        <time>2022-09-16T04:47:37Z</time>
      </trkpt>
      <trkpt lat="41.84893" lon="9.178193">
        <ele>1684.8</ele>
        <time>2022-09-16T04:47:41Z</time>
      </trkpt>
      <trkpt lat="41.8488" lon="9.17829">
        <ele>1684.4</ele>
        <time>2022-09-16T04:47:50Z</time>
      </trkpt>
      <trkpt lat="41.848788" lon="9.178303">
        <ele>1684.4</ele>
        <time>2022-09-16T04:47:52Z</time>
      </trkpt>
      <trkpt lat="41.848642" lon="9.17813">
        <ele>1686.0</ele>
        <time>2022-09-16T04:48:08Z</time>
      </trkpt>
      <trkpt lat="41.848535" lon="9.17808">
        <ele>1687.6</ele>
        <time>2022-09-16T04:48:20Z</time>
      </trkpt>
      <trkpt lat="41.848437" lon="9.17805">
        <ele>1687.6</ele>
        <time>2022-09-16T04:48:31Z</time>
      </trkpt>
      <trkpt lat="41.848368" lon="9.17803">
        <ele>1688.2</ele>
        <time>2022-09-16T04:48:38Z</time>
      </trkpt>
      <trkpt lat="41.84826" lon="9.177953">
        <ele>1687.8</ele>
        <time>2022-09-16T04:48:52Z</time>
      </trkpt>
      <trkpt lat="41.848213" lon="9.177923">
        <ele>1688.4</ele>
        <time>2022-09-16T04:48:57Z</time>
      </trkpt>
      <trkpt lat="41.848118" lon="9.177892">
        <ele>1689.4</ele>
        <time>2022-09-16T04:49:06Z</time>
      </trkpt>
      <trkpt lat="41.848023" lon="9.177835">
        <ele>1689.8</ele>
        <time>2022-09-16T04:49:16Z</time>
      </trkpt>
      <trkpt lat="41.847983" lon="9.177805">
        <ele>1690.0</ele>
        <time>2022-09-16T04:49:21Z</time>
      </trkpt>
      <trkpt lat="41.847918" lon="9.17777">
        <ele>1691.0</ele>
        <time>2022-09-16T04:49:29Z</time>
      </trkpt>
      <trkpt lat="41.847812" lon="9.177767">
        <ele>1691.8</ele>
        <time>2022-09-16T04:49:40Z</time>
      </trkpt>
      <trkpt lat="41.847673" lon="9.177747">
        <ele>1690.6</ele>
        <time>2022-09-16T04:49:53Z</time>
      </trkpt>
      <trkpt lat="41.847595" lon="9.177747">
        <ele>1690.4</ele>
        <time>2022-09-16T04:49:59Z</time>
      </trkpt>
      <trkpt lat="41.847582" lon="9.177745">
        <ele>1690.4</ele>
        <time>2022-09-16T04:50:00Z</time>
      </trkpt>
      <trkpt lat="41.847435" lon="9.177652">
        <ele>1692.4</ele>
        <time>2022-09-16T04:50:18Z</time>
      </trkpt>
      <trkpt lat="41.847365" lon="9.177592">
        <ele>1692.2</ele>
        <time>2022-09-16T04:50:28Z</time>
      </trkpt>
      <trkpt lat="41.847332" lon="9.177535">
        <ele>1692.6</ele>
        <time>2022-09-16T04:50:35Z</time>
      </trkpt>
      <trkpt lat="41.847302" lon="9.17748">
        <ele>1693.0</ele>
        <time>2022-09-16T04:50:41Z</time>
      </trkpt>
      <trkpt lat="41.847192" lon="9.177408">
        <ele>1693.0</ele>
        <time>2022-09-16T04:50:53Z</time>
      </trkpt>
      <trkpt lat="41.847128" lon="9.177368">
        <ele>1692.4</ele>
        <time>2022-09-16T04:51:01Z</time>
      </trkpt>
      <trkpt lat="41.847055" lon="9.177347">
        <ele>1692.2</ele>
        <time>2022-09-16T04:51:09Z</time>
      </trkpt>
      <trkpt lat="41.846913" lon="9.177337">
        <ele>1692.6</ele>
        <time>2022-09-16T04:51:23Z</time>
      </trkpt>
      <trkpt lat="41.846838" lon="9.17734">
        <ele>1693.6</ele>
        <time>2022-09-16T04:51:31Z</time>
      </trkpt>
      <trkpt lat="41.846775" lon="9.17732">
        <ele>1693.8</ele>
        <time>2022-09-16T04:51:37Z</time>
      </trkpt>
      <trkpt lat="41.84657" lon="9.17722">
        <ele>1694.2</ele>
        <time>2022-09-16T04:51:58Z</time>
      </trkpt>
      <trkpt lat="41.846473" lon="9.177173">
        <ele>1693.8</ele>
        <time>2022-09-16T04:52:07Z</time>
      </trkpt>
      <trkpt lat="41.84642" lon="9.177137">
        <ele>1693.6</ele>
        <time>2022-09-16T04:52:12Z</time>
      </trkpt>
      <trkpt lat="41.84633" lon="9.177097">
        <ele>1694.0</ele>
        <time>2022-09-16T04:52:21Z</time>
      </trkpt>
      <trkpt lat="41.846302" lon="9.177112">
        <ele>1693.6</ele>
        <time>2022-09-16T04:52:24Z</time>
      </trkpt>
      <trkpt lat="41.846238" lon="9.177165">
        <ele>1693.4</ele>
        <time>2022-09-16T04:52:32Z</time>
      </trkpt>
      <trkpt lat="41.846185" lon="9.17716">
        <ele>1693.8</ele>
        <time>2022-09-16T04:52:38Z</time>
      </trkpt>
      <trkpt lat="41.846103" lon="9.177097">
        <ele>1694.2</ele>
        <time>2022-09-16T04:52:47Z</time>
      </trkpt>
      <trkpt lat="41.846" lon="9.176993">
        <ele>1693.2</ele>
        <time>2022-09-16T04:53:01Z</time>
      </trkpt>
      <trkpt lat="41.845988" lon="9.176995">
        <ele>1693.2</ele>
        <time>2022-09-16T04:53:02Z</time>
      </trkpt>
      <trkpt lat="41.845785" lon="9.17701">
        <ele>1693.0</ele>
        <time>2022-09-16T04:53:20Z</time>
      </trkpt>
      <trkpt lat="41.8457" lon="9.177027">
        <ele>1693.2</ele>
        <time>2022-09-16T04:53:27Z</time>
      </trkpt>
      <trkpt lat="41.84564" lon="9.177047">
        <ele>1693.4</ele>
        <time>2022-09-16T04:53:32Z</time>
      </trkpt>
      <trkpt lat="41.845488" lon="9.176903">
        <ele>1692.2</ele>
        <time>2022-09-16T04:53:49Z</time>
      </trkpt>
      <trkpt lat="41.845207" lon="9.176672">
        <ele>1691.6</ele>
        <time>2022-09-16T04:54:12Z</time>
      </trkpt>
      <trkpt lat="41.845028" lon="9.17675">
        <ele>1693.0</ele>
        <time>2022-09-16T04:54:29Z</time>
      </trkpt>
      <trkpt lat="41.844897" lon="9.176808">
        <ele>1693.6</ele>
        <time>2022-09-16T04:54:40Z</time>
      </trkpt>
      <trkpt lat="41.844812" lon="9.176855">
        <ele>1694.4</ele>
        <time>2022-09-16T04:54:47Z</time>
      </trkpt>
      <trkpt lat="41.844727" lon="9.176885">
        <ele>1694.8</ele>
        <time>2022-09-16T04:54:54Z</time>
      </trkpt>
      <trkpt lat="41.844703" lon="9.176892">
        <ele>1695.2</ele>
        <time>2022-09-16T04:54:56Z</time>
      </trkpt>
      <trkpt lat="41.844558" lon="9.176847">
        <ele>1694.6</ele>
        <time>2022-09-16T04:55:10Z</time>
      </trkpt>
      <trkpt lat="41.844483" lon="9.176868">
        <ele>1694.6</ele>
        <time>2022-09-16T04:55:18Z</time>
      </trkpt>
      <trkpt lat="41.84441" lon="9.176905">
        <ele>1696.0</ele>
        <time>2022-09-16T04:55:26Z</time>
      </trkpt>
      <trkpt lat="41.844342" lon="9.176897">
        <ele>1696.4</ele>
        <time>2022-09-16T04:55:33Z</time>
      </trkpt>
      <trkpt lat="41.844312" lon="9.17689">
        <ele>1697.0</ele>
        <time>2022-09-16T04:55:36Z</time>
      </trkpt>
      <trkpt lat="41.84421" lon="9.176957">
        <ele>1698.8</ele>
        <time>2022-09-16T04:55:48Z</time>
      </trkpt>
      <trkpt lat="41.844135" lon="9.176998">
        <ele>1700.0</ele>
        <time>2022-09-16T04:55:54Z</time>
      </trkpt>
      <trkpt lat="41.844098" lon="9.177038">
        <ele>1700.0</ele>
        <time>2022-09-16T04:55:57Z</time>
      </trkpt>
      <trkpt lat="41.844023" lon="9.17718">
        <ele>1700.0</ele>
        <time>2022-09-16T04:56:06Z</time>
      </trkpt>
      <trkpt lat="41.843962" lon="9.177218">
        <ele>1701.4</ele>
        <time>2022-09-16T04:56:11Z</time>
      </trkpt>
      <trkpt lat="41.8438" lon="9.177295">
        <ele>1702.4</ele>
        <time>2022-09-16T04:56:25Z</time>
      </trkpt>
      <trkpt lat="41.843793" lon="9.177278">
        <ele>1702.4</ele>
        <time>2022-09-16T04:56:26Z</time>
      </trkpt>
      <trkpt lat="41.843733" lon="9.177118">
        <ele>1702.6</ele>
        <time>2022-09-16T04:56:35Z</time>
      </trkpt>
      <trkpt lat="41.843705" lon="9.177053">
        <ele>1703.6</ele>
        <time>2022-09-16T04:56:39Z</time>
      </trkpt>
      <trkpt lat="41.843558" lon="9.176757">
        <ele>1705.0</ele>
        <time>2022-09-16T04:56:56Z</time>
      </trkpt>
      <trkpt lat="41.843543" lon="9.176693">
        <ele>1705.8</ele>
        <time>2022-09-16T04:57:00Z</time>
      </trkpt>
      <trkpt lat="41.843452" lon="9.17667">
        <ele>1707.0</ele>
        <time>2022-09-16T04:57:08Z</time>
      </trkpt>
      <trkpt lat="41.843418" lon="9.176693">
        <ele>1707.0</ele>
        <time>2022-09-16T04:57:11Z</time>
      </trkpt>
      <trkpt lat="41.843262" lon="9.176915">
        <ele>1712.4</ele>
        <time>2022-09-16T04:57:31Z</time>
      </trkpt>
      <trkpt lat="41.84321" lon="9.176973">
        <ele>1714.6</ele>
        <time>2022-09-16T04:57:38Z</time>
      </trkpt>
      <trkpt lat="41.843163" lon="9.177023">
        <ele>1714.6</ele>
        <time>2022-09-16T04:57:45Z</time>
      </trkpt>
      <trkpt lat="41.843113" lon="9.177042">
        <ele>1713.4</ele>
        <time>2022-09-16T04:57:51Z</time>
      </trkpt>
      <trkpt lat="41.842942" lon="9.177173">
        <ele>1711.8</ele>
        <time>2022-09-16T04:58:10Z</time>
      </trkpt>
      <trkpt lat="41.842773" lon="9.177377">
        <ele>1710.0</ele>
        <time>2022-09-16T04:58:32Z</time>
      </trkpt>
      <trkpt lat="41.842697" lon="9.177433">
        <ele>1710.0</ele>
        <time>2022-09-16T04:58:41Z</time>
      </trkpt>
      <trkpt lat="41.842667" lon="9.177453">
        <ele>1710.2</ele>
        <time>2022-09-16T04:58:45Z</time>
      </trkpt>
      <trkpt lat="41.842483" lon="9.177472">
        <ele>1711.4</ele>
        <time>2022-09-16T04:59:03Z</time>
      </trkpt>
      <trkpt lat="41.842413" lon="9.177487">
        <ele>1712.0</ele>
        <time>2022-09-16T04:59:11Z</time>
      </trkpt>
      <trkpt lat="41.842407" lon="9.177492">
        <ele>1712.2</ele>
        <time>2022-09-16T04:59:12Z</time>
      </trkpt>
      <trkpt lat="41.842368" lon="9.177558">
        <ele>1712.2</ele>
        <time>2022-09-16T04:59:19Z</time>
      </trkpt>
      <trkpt lat="41.842195" lon="9.177673">
        <ele>1711.2</ele>
        <time>2022-09-16T04:59:38Z</time>
      </trkpt>
      <trkpt lat="41.842068" lon="9.177732">
        <ele>1711.4</ele>
        <time>2022-09-16T04:59:48Z</time>
      </trkpt>
      <trkpt lat="41.842008" lon="9.177763">
        <ele>1711.0</ele>
        <time>2022-09-16T04:59:53Z</time>
      </trkpt>
      <trkpt lat="41.841995" lon="9.177767">
        <ele>1711.0</ele>
        <time>2022-09-16T04:59:54Z</time>
      </trkpt>
      <trkpt lat="41.841957" lon="9.17782">
        <ele>1711.4</ele>
        <time>2022-09-16T05:00:00Z</time>
      </trkpt>
      <trkpt lat="41.841848" lon="9.177893">
        <ele>1713.4</ele>
        <time>2022-09-16T05:00:14Z</time>
      </trkpt>
      <trkpt lat="41.84182" lon="9.177917">
        <ele>1714.0</ele>
        <time>2022-09-16T05:00:18Z</time>
      </trkpt>
      <trkpt lat="41.841738" lon="9.17795">
        <ele>1714.0</ele>
        <time>2022-09-16T05:00:29Z</time>
      </trkpt>
      <trkpt lat="41.841665" lon="9.177877">
        <ele>1712.6</ele>
        <time>2022-09-16T05:00:44Z</time>
      </trkpt>
      <trkpt lat="41.841613" lon="9.177817">
        <ele>1714.0</ele>
        <time>2022-09-16T05:00:52Z</time>
      </trkpt>
      <trkpt lat="41.84155" lon="9.177788">
        <ele>1715.0</ele>
        <time>2022-09-16T05:01:01Z</time>
      </trkpt>
      <trkpt lat="41.84147" lon="9.17779">
        <ele>1715.2</ele>
        <time>2022-09-16T05:01:09Z</time>
      </trkpt>
      <trkpt lat="41.841428" lon="9.177813">
        <ele>1715.8</ele>
        <time>2022-09-16T05:01:14Z</time>
      </trkpt>
      <trkpt lat="41.841395" lon="9.17794">
        <ele>1717.0</ele>
        <time>2022-09-16T05:01:24Z</time>
      </trkpt>
      <trkpt lat="41.841377" lon="9.178058">
        <ele>1716.8</ele>
        <time>2022-09-16T05:01:32Z</time>
      </trkpt>
      <trkpt lat="41.841383" lon="9.178155">
        <ele>1717.0</ele>
        <time>2022-09-16T05:01:39Z</time>
      </trkpt>
      <trkpt lat="41.841398" lon="9.178278">
        <ele>1718.0</ele>
        <time>2022-09-16T05:01:46Z</time>
      </trkpt>
      <trkpt lat="41.841407" lon="9.178373">
        <ele>1718.4</ele>
        <time>2022-09-16T05:01:52Z</time>
      </trkpt>
      <trkpt lat="41.841412" lon="9.178385">
        <ele>1718.4</ele>
        <time>2022-09-16T05:01:53Z</time>
      </trkpt>
      <trkpt lat="41.841453" lon="9.17852">
        <ele>1719.0</ele>
        <time>2022-09-16T05:02:04Z</time>
      </trkpt>
      <trkpt lat="41.841492" lon="9.178705">
        <ele>1720.8</ele>
        <time>2022-09-16T05:02:22Z</time>
      </trkpt>
      <trkpt lat="41.841527" lon="9.178837">
        <ele>1722.8</ele>
        <time>2022-09-16T05:02:33Z</time>
      </trkpt>
      <trkpt lat="41.841525" lon="9.178963">
        <ele>1723.8</ele>
        <time>2022-09-16T05:02:46Z</time>
      </trkpt>
      <trkpt lat="41.841518" lon="9.179312">
        <ele>1725.2</ele>
        <time>2022-09-16T05:03:10Z</time>
      </trkpt>
      <trkpt lat="41.841487" lon="9.179548">
        <ele>1725.4</ele>
        <time>2022-09-16T05:03:27Z</time>
      </trkpt>
      <trkpt lat="41.841482" lon="9.17956">
        <ele>1725.4</ele>
        <time>2022-09-16T05:03:29Z</time>
      </trkpt>
      <trkpt lat="41.841417" lon="9.17964">
        <ele>1725.4</ele>
        <time>2022-09-16T05:03:39Z</time>
      </trkpt>
      <trkpt lat="41.841375" lon="9.179733">
        <ele>1724.4</ele>
        <time>2022-09-16T05:03:49Z</time>
      </trkpt>
      <trkpt lat="41.841287" lon="9.179973">
        <ele>1722.8</ele>
        <time>2022-09-16T05:04:09Z</time>
      </trkpt>
      <trkpt lat="41.841232" lon="9.180122">
        <ele>1722.6</ele>
        <time>2022-09-16T05:04:22Z</time>
      </trkpt>
      <trkpt lat="41.841208" lon="9.180172">
        <ele>1723.2</ele>
        <time>2022-09-16T05:04:29Z</time>
      </trkpt>
      <trkpt lat="41.841205" lon="9.180217">
        <ele>1723.0</ele>
        <time>2022-09-16T05:04:33Z</time>
      </trkpt>
      <trkpt lat="41.841232" lon="9.180315">
        <ele>1723.6</ele>
        <time>2022-09-16T05:04:43Z</time>
      </trkpt>
      <trkpt lat="41.841275" lon="9.180517">
        <ele>1727.2</ele>
        <time>2022-09-16T05:05:08Z</time>
      </trkpt>
      <trkpt lat="41.841298" lon="9.180588">
        <ele>1728.4</ele>
        <time>2022-09-16T05:05:14Z</time>
      </trkpt>
      <trkpt lat="41.841307" lon="9.180678">
        <ele>1730.2</ele>
        <time>2022-09-16T05:05:22Z</time>
      </trkpt>
      <trkpt lat="41.841313" lon="9.180773">
        <ele>1731.0</ele>
        <time>2022-09-16T05:05:29Z</time>
      </trkpt>
      <trkpt lat="41.841347" lon="9.180907">
        <ele>1731.2</ele>
        <time>2022-09-16T05:05:38Z</time>
      </trkpt>
      <trkpt lat="41.841365" lon="9.180973">
        <ele>1730.8</ele>
        <time>2022-09-16T05:05:42Z</time>
      </trkpt>
      <trkpt lat="41.841323" lon="9.18105">
        <ele>1730.0</ele>
        <time>2022-09-16T05:05:48Z</time>
      </trkpt>
      <trkpt lat="41.841297" lon="9.181083">
        <ele>1729.4</ele>
        <time>2022-09-16T05:05:52Z</time>
      </trkpt>
      <trkpt lat="41.841247" lon="9.181135">
        <ele>1728.0</ele>
        <time>2022-09-16T05:05:58Z</time>
      </trkpt>
      <trkpt lat="41.841215" lon="9.181163">
        <ele>1727.4</ele>
        <time>2022-09-16T05:06:01Z</time>
      </trkpt>
      <trkpt lat="41.841072" lon="9.181252">
        <ele>1725.4</ele>
        <time>2022-09-16T05:06:13Z</time>
      </trkpt>
      <trkpt lat="41.841027" lon="9.181277">
        <ele>1725.0</ele>
        <time>2022-09-16T05:06:17Z</time>
      </trkpt>
      <trkpt lat="41.8409" lon="9.181427">
        <ele>1722.0</ele>
        <time>2022-09-16T05:06:33Z</time>
      </trkpt>
      <trkpt lat="41.840868" lon="9.181458">
        <ele>1721.6</ele>
        <time>2022-09-16T05:06:38Z</time>
      </trkpt>
      <trkpt lat="41.84074" lon="9.181542">
        <ele>1718.8</ele>
        <time>2022-09-16T05:07:02Z</time>
      </trkpt>
      <trkpt lat="41.840742" lon="9.181658">
        <ele>1718.2</ele>
        <time>2022-09-16T05:07:11Z</time>
      </trkpt>
      <trkpt lat="41.840738" lon="9.181682">
        <ele>1718.2</ele>
        <time>2022-09-16T05:07:13Z</time>
      </trkpt>
      <trkpt lat="41.840735" lon="9.18173">
        <ele>1717.2</ele>
        <time>2022-09-16T05:07:18Z</time>
      </trkpt>
      <trkpt lat="41.840738" lon="9.181802">
        <ele>1716.2</ele>
        <time>2022-09-16T05:07:24Z</time>
      </trkpt>
      <trkpt lat="41.840723" lon="9.181873">
        <ele>1715.2</ele>
        <time>2022-09-16T05:07:31Z</time>
      </trkpt>
      <trkpt lat="41.840657" lon="9.181928">
        <ele>1714.6</ele>
        <time>2022-09-16T05:07:43Z</time>
      </trkpt>
      <trkpt lat="41.840623" lon="9.182003">
        <ele>1714.4</ele>
        <time>2022-09-16T05:07:54Z</time>
      </trkpt>
      <trkpt lat="41.840593" lon="9.182065">
        <ele>1714.0</ele>
        <time>2022-09-16T05:08:02Z</time>
      </trkpt>
      <trkpt lat="41.840582" lon="9.182098">
        <ele>1713.4</ele>
        <time>2022-09-16T05:08:05Z</time>
      </trkpt>
      <trkpt lat="41.840577" lon="9.182308">
        <ele>1711.4</ele>
        <time>2022-09-16T05:08:22Z</time>
      </trkpt>
      <trkpt lat="41.840587" lon="9.18247">
        <ele>1708.8</ele>
        <time>2022-09-16T05:08:37Z</time>
      </trkpt>
      <trkpt lat="41.840562" lon="9.182513">
        <ele>1707.4</ele>
        <time>2022-09-16T05:08:43Z</time>
      </trkpt>
      <trkpt lat="41.840522" lon="9.182557">
        <ele>1707.0</ele>
        <time>2022-09-16T05:08:52Z</time>
      </trkpt>
      <trkpt lat="41.84042" lon="9.18266">
        <ele>1706.6</ele>
        <time>2022-09-16T05:09:02Z</time>
      </trkpt>
      <trkpt lat="41.84031" lon="9.182845">
        <ele>1707.0</ele>
        <time>2022-09-16T05:09:14Z</time>
      </trkpt>
      <trkpt lat="41.84027" lon="9.182957">
        <ele>1707.0</ele>
        <time>2022-09-16T05:09:21Z</time>
      </trkpt>
      <trkpt lat="41.840218" lon="9.183112">
        <ele>1706.0</ele>
        <time>2022-09-16T05:09:31Z</time>
      </trkpt>
      <trkpt lat="41.840157" lon="9.183272">
        <ele>1706.6</ele>
        <time>2022-09-16T05:09:45Z</time>
      </trkpt>
      <trkpt lat="41.840157" lon="9.183322">
        <ele>1706.6</ele>
        <time>2022-09-16T05:09:49Z</time>
      </trkpt>
      <trkpt lat="41.840183" lon="9.183382">
        <ele>1706.8</ele>
        <time>2022-09-16T05:09:54Z</time>
      </trkpt>
      <trkpt lat="41.840173" lon="9.183468">
        <ele>1708.4</ele>
        <time>2022-09-16T05:10:02Z</time>
      </trkpt>
      <trkpt lat="41.840138" lon="9.183588">
        <ele>1709.6</ele>
        <time>2022-09-16T05:10:13Z</time>
      </trkpt>
      <trkpt lat="41.84016" lon="9.18378">
        <ele>1710.8</ele>
        <time>2022-09-16T05:10:31Z</time>
      </trkpt>
      <trkpt lat="41.840208" lon="9.183883">
        <ele>1712.2</ele>
        <time>2022-09-16T05:10:45Z</time>
      </trkpt>
      <trkpt lat="41.840242" lon="9.183918">
        <ele>1712.4</ele>
        <time>2022-09-16T05:10:51Z</time>
      </trkpt>
      <trkpt lat="41.840253" lon="9.183928">
        <ele>1712.4</ele>
        <time>2022-09-16T05:10:53Z</time>
      </trkpt>
      <trkpt lat="41.840317" lon="9.184035">
        <ele>1712.0</ele>
        <time>2022-09-16T05:11:02Z</time>
      </trkpt>
      <trkpt lat="41.84037" lon="9.184222">
        <ele>1712.4</ele>
        <time>2022-09-16T05:11:17Z</time>
      </trkpt>
      <trkpt lat="41.8404" lon="9.18435">
        <ele>1712.2</ele>
        <time>2022-09-16T05:11:25Z</time>
      </trkpt>
      <trkpt lat="41.840425" lon="9.184442">
        <ele>1711.8</ele>
        <time>2022-09-16T05:11:31Z</time>
      </trkpt>
      <trkpt lat="41.840427" lon="9.184472">
        <ele>1712.0</ele>
        <time>2022-09-16T05:11:33Z</time>
      </trkpt>
      <trkpt lat="41.840448" lon="9.184538">
        <ele>1712.8</ele>
        <time>2022-09-16T05:11:39Z</time>
      </trkpt>
      <trkpt lat="41.840503" lon="9.184805">
        <ele>1716.8</ele>
        <time>2022-09-16T05:11:59Z</time>
      </trkpt>
      <trkpt lat="41.840585" lon="9.184948">
        <ele>1717.4</ele>
        <time>2022-09-16T05:12:12Z</time>
      </trkpt>
      <trkpt lat="41.840592" lon="9.184962">
        <ele>1718.0</ele>
        <time>2022-09-16T05:12:13Z</time>
      </trkpt>
      <trkpt lat="41.840592" lon="9.185032">
        <ele>1717.8</ele>
        <time>2022-09-16T05:12:18Z</time>
      </trkpt>
      <trkpt lat="41.84059" lon="9.185117">
        <ele>1716.8</ele>
        <time>2022-09-16T05:12:24Z</time>
      </trkpt>
      <trkpt lat="41.840608" lon="9.185185">
        <ele>1715.8</ele>
        <time>2022-09-16T05:12:31Z</time>
      </trkpt>
      <trkpt lat="41.840625" lon="9.185242">
        <ele>1715.0</ele>
        <time>2022-09-16T05:12:37Z</time>
      </trkpt>
      <trkpt lat="41.840647" lon="9.185408">
        <ele>1713.8</ele>
        <time>2022-09-16T05:12:51Z</time>
      </trkpt>
      <trkpt lat="41.840653" lon="9.18543">
        <ele>1713.6</ele>
        <time>2022-09-16T05:12:53Z</time>
      </trkpt>
      <trkpt lat="41.840678" lon="9.185557">
        <ele>1712.0</ele>
        <time>2022-09-16T05:13:03Z</time>
      </trkpt>
      <trkpt lat="41.840695" lon="9.18565">
        <ele>1711.2</ele>
        <time>2022-09-16T05:13:13Z</time>
      </trkpt>
      <trkpt lat="41.840687" lon="9.185727">
        <ele>1711.0</ele>
        <time>2022-09-16T05:13:21Z</time>
      </trkpt>
      <trkpt lat="41.840687" lon="9.185795">
        <ele>1710.6</ele>
        <time>2022-09-16T05:13:27Z</time>
      </trkpt>
      <trkpt lat="41.840692" lon="9.185842">
        <ele>1710.4</ele>
        <time>2022-09-16T05:13:31Z</time>
      </trkpt>
      <trkpt lat="41.8407" lon="9.185878">
        <ele>1710.4</ele>
        <time>2022-09-16T05:13:34Z</time>
      </trkpt>
      <trkpt lat="41.840698" lon="9.185988">
        <ele>1711.0</ele>
        <time>2022-09-16T05:13:45Z</time>
      </trkpt>
      <trkpt lat="41.840672" lon="9.18602">
        <ele>1712.4</ele>
        <time>2022-09-16T05:13:52Z</time>
      </trkpt>
      <trkpt lat="41.840685" lon="9.186088">
        <ele>1712.8</ele>
        <time>2022-09-16T05:13:59Z</time>
      </trkpt>
      <trkpt lat="41.840702" lon="9.186125">
        <ele>1712.8</ele>
        <time>2022-09-16T05:14:03Z</time>
      </trkpt>
      <trkpt lat="41.840713" lon="9.18631">
        <ele>1712.0</ele>
        <time>2022-09-16T05:14:18Z</time>
      </trkpt>
      <trkpt lat="41.840747" lon="9.186497">
        <ele>1712.0</ele>
        <time>2022-09-16T05:14:35Z</time>
      </trkpt>
      <trkpt lat="41.840742" lon="9.186595">
        <ele>1712.0</ele>
        <time>2022-09-16T05:14:45Z</time>
      </trkpt>
      <trkpt lat="41.840742" lon="9.186605">
        <ele>1712.0</ele>
        <time>2022-09-16T05:14:46Z</time>
      </trkpt>
      <trkpt lat="41.840773" lon="9.186717">
        <ele>1712.4</ele>
        <time>2022-09-16T05:14:57Z</time>
      </trkpt>
      <trkpt lat="41.840825" lon="9.186893">
        <ele>1713.0</ele>
        <time>2022-09-16T05:15:12Z</time>
      </trkpt>
      <trkpt lat="41.840847" lon="9.186947">
        <ele>1713.0</ele>
        <time>2022-09-16T05:15:18Z</time>
      </trkpt>
      <trkpt lat="41.840875" lon="9.18699">
        <ele>1713.2</ele>
        <time>2022-09-16T05:15:22Z</time>
      </trkpt>
      <trkpt lat="41.840892" lon="9.18706">
        <ele>1713.0</ele>
        <time>2022-09-16T05:15:28Z</time>
      </trkpt>
      <trkpt lat="41.8409" lon="9.187122">
        <ele>1712.6</ele>
        <time>2022-09-16T05:15:34Z</time>
      </trkpt>
      <trkpt lat="41.840943" lon="9.187177">
        <ele>1712.4</ele>
        <time>2022-09-16T05:15:41Z</time>
      </trkpt>
      <trkpt lat="41.840963" lon="9.187218">
        <ele>1712.0</ele>
        <time>2022-09-16T05:15:46Z</time>
      </trkpt>
      <trkpt lat="41.840993" lon="9.18732">
        <ele>1712.4</ele>
        <time>2022-09-16T05:15:55Z</time>
      </trkpt>
      <trkpt lat="41.841023" lon="9.187395">
        <ele>1712.8</ele>
        <time>2022-09-16T05:16:02Z</time>
      </trkpt>
      <trkpt lat="41.84105" lon="9.187408">
        <ele>1713.4</ele>
        <time>2022-09-16T05:16:06Z</time>
      </trkpt>
      <trkpt lat="41.841105" lon="9.187418">
        <ele>1714.0</ele>
        <time>2022-09-16T05:16:15Z</time>
      </trkpt>
      <trkpt lat="41.841253" lon="9.187508">
        <ele>1714.2</ele>
        <time>2022-09-16T05:16:44Z</time>
      </trkpt>
      <trkpt lat="41.841257" lon="9.187592">
        <ele>1716.2</ele>
        <time>2022-09-16T05:16:54Z</time>
      </trkpt>
      <trkpt lat="41.841272" lon="9.187647">
        <ele>1717.2</ele>
        <time>2022-09-16T05:17:01Z</time>
      </trkpt>
      <trkpt lat="41.841322" lon="9.187708">
        <ele>1719.0</ele>
        <time>2022-09-16T05:17:09Z</time>
      </trkpt>
      <trkpt lat="41.841407" lon="9.18783">
        <ele>1720.4</ele>
        <time>2022-09-16T05:17:23Z</time>
      </trkpt>
      <trkpt lat="41.841618" lon="9.188097">
        <ele>1722.0</ele>
        <time>2022-09-16T05:17:55Z</time>
      </trkpt>
      <trkpt lat="41.841652" lon="9.18817">
        <ele>1723.0</ele>
        <time>2022-09-16T05:18:02Z</time>
      </trkpt>
      <trkpt lat="41.841697" lon="9.188262">
        <ele>1723.8</ele>
        <time>2022-09-16T05:18:11Z</time>
      </trkpt>
      <trkpt lat="41.841803" lon="9.188437">
        <ele>1724.6</ele>
        <time>2022-09-16T05:18:27Z</time>
      </trkpt>
      <trkpt lat="41.84186" lon="9.188495">
        <ele>1725.0</ele>
        <time>2022-09-16T05:18:34Z</time>
      </trkpt>
      <trkpt lat="41.841922" lon="9.188535">
        <ele>1725.2</ele>
        <time>2022-09-16T05:18:43Z</time>
      </trkpt>
      <trkpt lat="41.841993" lon="9.188588">
        <ele>1725.2</ele>
        <time>2022-09-16T05:18:50Z</time>
      </trkpt>
      <trkpt lat="41.842043" lon="9.188665">
        <ele>1725.8</ele>
        <time>2022-09-16T05:18:58Z</time>
      </trkpt>
      <trkpt lat="41.84206" lon="9.188727">
        <ele>1725.8</ele>
        <time>2022-09-16T05:19:04Z</time>
      </trkpt>
      <trkpt lat="41.842065" lon="9.188817">
        <ele>1726.0</ele>
        <time>2022-09-16T05:19:11Z</time>
      </trkpt>
      <trkpt lat="41.842082" lon="9.188843">
        <ele>1726.0</ele>
        <time>2022-09-16T05:19:13Z</time>
      </trkpt>
      <trkpt lat="41.84214" lon="9.188843">
        <ele>1725.4</ele>
        <time>2022-09-16T05:19:18Z</time>
      </trkpt>
      <trkpt lat="41.842148" lon="9.18885">
        <ele>1725.4</ele>
        <time>2022-09-16T05:19:19Z</time>
      </trkpt>
      <trkpt lat="41.842147" lon="9.188878">
        <ele>1725.4</ele>
        <time>2022-09-16T05:19:20Z</time>
      </trkpt>
      <trkpt lat="41.842053" lon="9.188922">
        <ele>1726.2</ele>
        <time>2022-09-16T05:19:30Z</time>
      </trkpt>
      <trkpt lat="41.841983" lon="9.188835">
        <ele>1729.4</ele>
        <time>2022-09-16T05:19:43Z</time>
      </trkpt>
      <trkpt lat="41.84196" lon="9.18884">
        <ele>1729.4</ele>
        <time>2022-09-16T05:19:46Z</time>
      </trkpt>
      <trkpt lat="41.84194" lon="9.188883">
        <ele>1729.4</ele>
        <time>2022-09-16T05:19:51Z</time>
      </trkpt>
      <trkpt lat="41.841915" lon="9.18893">
        <ele>1729.8</ele>
        <time>2022-09-16T05:19:57Z</time>
      </trkpt>
      <trkpt lat="41.841878" lon="9.188953">
        <ele>1730.2</ele>
        <time>2022-09-16T05:20:02Z</time>
      </trkpt>
      <trkpt lat="41.841803" lon="9.188963">
        <ele>1731.4</ele>
        <time>2022-09-16T05:20:10Z</time>
      </trkpt>
      <trkpt lat="41.841733" lon="9.18895">
        <ele>1732.4</ele>
        <time>2022-09-16T05:20:16Z</time>
      </trkpt>
      <trkpt lat="41.841602" lon="9.188885">
        <ele>1733.8</ele>
        <time>2022-09-16T05:20:28Z</time>
      </trkpt>
      <trkpt lat="41.841595" lon="9.188878">
        <ele>1733.8</ele>
        <time>2022-09-16T05:20:29Z</time>
      </trkpt>
      <trkpt lat="41.841533" lon="9.188802">
        <ele>1734.0</ele>
        <time>2022-09-16T05:20:38Z</time>
      </trkpt>
      <trkpt lat="41.841507" lon="9.18872">
        <ele>1733.8</ele>
        <time>2022-09-16T05:20:47Z</time>
      </trkpt>
      <trkpt lat="41.841497" lon="9.188683">
        <ele>1734.0</ele>
        <time>2022-09-16T05:21:03Z</time>
      </trkpt>
      <trkpt lat="41.841472" lon="9.188708">
        <ele>1733.4</ele>
        <time>2022-09-16T05:21:14Z</time>
      </trkpt>
      <trkpt lat="41.84092" lon="9.189307">
        <ele>1737.2</ele>
        <time>2022-09-16T05:22:23Z</time>
      </trkpt>
      <trkpt lat="41.84115" lon="9.189267">
        <ele>1738.6</ele>
        <time>2022-09-16T05:22:33Z</time>
      </trkpt>
      <trkpt lat="41.841293" lon="9.189282">
        <ele>1738.8</ele>
        <time>2022-09-16T05:22:41Z</time>
      </trkpt>
      <trkpt lat="41.841398" lon="9.189323">
        <ele>1739.4</ele>
        <time>2022-09-16T05:22:46Z</time>
      </trkpt>
      <trkpt lat="41.841452" lon="9.189335">
        <ele>1739.4</ele>
        <time>2022-09-16T05:22:49Z</time>
      </trkpt>
      <trkpt lat="41.841513" lon="9.18927">
        <ele>1740.4</ele>
        <time>2022-09-16T05:22:53Z</time>
      </trkpt>
      <trkpt lat="41.84153" lon="9.189248">
        <ele>1740.6</ele>
        <time>2022-09-16T05:22:54Z</time>
      </trkpt>
      <trkpt lat="41.841502" lon="9.189215">
        <ele>1741.4</ele>
        <time>2022-09-16T05:23:00Z</time>
      </trkpt>
      <trkpt lat="41.841487" lon="9.189232">
        <ele>1741.6</ele>
        <time>2022-09-16T05:23:04Z</time>
      </trkpt>
      <trkpt lat="41.841475" lon="9.18929">
        <ele>1742.0</ele>
        <time>2022-09-16T05:23:13Z</time>
      </trkpt>
      <trkpt lat="41.841448" lon="9.18937">
        <ele>1743.4</ele>
        <time>2022-09-16T05:23:25Z</time>
      </trkpt>
      <trkpt lat="41.841455" lon="9.18945">
        <ele>1745.0</ele>
        <time>2022-09-16T05:23:35Z</time>
      </trkpt>
      <trkpt lat="41.841453" lon="9.189457">
        <ele>1745.2</ele>
        <time>2022-09-16T05:23:37Z</time>
      </trkpt>
      <trkpt lat="41.84144" lon="9.189505">
        <ele>1745.6</ele>
        <time>2022-09-16T05:23:43Z</time>
      </trkpt>
      <trkpt lat="41.841437" lon="9.189562">
        <ele>1746.2</ele>
        <time>2022-09-16T05:23:49Z</time>
      </trkpt>
      <trkpt lat="41.841413" lon="9.189577">
        <ele>1747.6</ele>
        <time>2022-09-16T05:23:53Z</time>
      </trkpt>
      <trkpt lat="41.841368" lon="9.18957">
        <ele>1749.2</ele>
        <time>2022-09-16T05:24:00Z</time>
      </trkpt>
      <trkpt lat="41.841307" lon="9.189563">
        <ele>1751.2</ele>
        <time>2022-09-16T05:24:10Z</time>
      </trkpt>
      <trkpt lat="41.841282" lon="9.189578">
        <ele>1752.2</ele>
        <time>2022-09-16T05:24:14Z</time>
      </trkpt>
      <trkpt lat="41.841242" lon="9.189598">
        <ele>1753.0</ele>
        <time>2022-09-16T05:24:20Z</time>
      </trkpt>
      <trkpt lat="41.841207" lon="9.189603">
        <ele>1754.0</ele>
        <time>2022-09-16T05:24:25Z</time>
      </trkpt>
      <trkpt lat="41.841163" lon="9.189633">
        <ele>1755.4</ele>
        <time>2022-09-16T05:24:33Z</time>
      </trkpt>
      <trkpt lat="41.841138" lon="9.189602">
        <ele>1756.4</ele>
        <time>2022-09-16T05:24:39Z</time>
      </trkpt>
      <trkpt lat="41.841105" lon="9.189645">
        <ele>1757.8</ele>
        <time>2022-09-16T05:24:51Z</time>
      </trkpt>
      <trkpt lat="41.841108" lon="9.189678">
        <ele>1757.8</ele>
        <time>2022-09-16T05:24:55Z</time>
      </trkpt>
      <trkpt lat="41.841132" lon="9.18972">
        <ele>1758.4</ele>
        <time>2022-09-16T05:25:02Z</time>
      </trkpt>
      <trkpt lat="41.841138" lon="9.18973">
        <ele>1758.4</ele>
        <time>2022-09-16T05:25:04Z</time>
      </trkpt>
      <trkpt lat="41.841138" lon="9.189762">
        <ele>1759.2</ele>
        <time>2022-09-16T05:25:10Z</time>
      </trkpt>
      <trkpt lat="41.841107" lon="9.189817">
        <ele>1761.8</ele>
        <time>2022-09-16T05:25:22Z</time>
      </trkpt>
      <trkpt lat="41.841062" lon="9.189805">
        <ele>1763.0</ele>
        <time>2022-09-16T05:25:30Z</time>
      </trkpt>
      <trkpt lat="41.841057" lon="9.189828">
        <ele>1763.2</ele>
        <time>2022-09-16T05:25:33Z</time>
      </trkpt>
      <trkpt lat="41.841065" lon="9.189865">
        <ele>1763.8</ele>
        <time>2022-09-16T05:25:37Z</time>
      </trkpt>
      <trkpt lat="41.841097" lon="9.189963">
        <ele>1766.0</ele>
        <time>2022-09-16T05:25:50Z</time>
      </trkpt>
      <trkpt lat="41.841097" lon="9.189993">
        <ele>1766.8</ele>
        <time>2022-09-16T05:25:54Z</time>
      </trkpt>
      <trkpt lat="41.841103" lon="9.190098">
        <ele>1768.2</ele>
        <time>2022-09-16T05:26:07Z</time>
      </trkpt>
      <trkpt lat="41.841085" lon="9.190138">
        <ele>1769.4</ele>
        <time>2022-09-16T05:26:12Z</time>
      </trkpt>
      <trkpt lat="41.841087" lon="9.190177">
        <ele>1769.6</ele>
        <time>2022-09-16T05:26:16Z</time>
      </trkpt>
      <trkpt lat="41.841112" lon="9.190207">
        <ele>1770.4</ele>
        <time>2022-09-16T05:26:22Z</time>
      </trkpt>
      <trkpt lat="41.841162" lon="9.190235">
        <ele>1770.4</ele>
        <time>2022-09-16T05:26:30Z</time>
      </trkpt>
      <trkpt lat="41.841207" lon="9.190242">
        <ele>1770.2</ele>
        <time>2022-09-16T05:26:37Z</time>
      </trkpt>
      <trkpt lat="41.841227" lon="9.190245">
        <ele>1770.4</ele>
        <time>2022-09-16T05:26:42Z</time>
      </trkpt>
      <trkpt lat="41.841258" lon="9.190292">
        <ele>1772.2</ele>
        <time>2022-09-16T05:26:51Z</time>
      </trkpt>
      <trkpt lat="41.841255" lon="9.190298">
        <ele>1772.2</ele>
        <time>2022-09-16T05:26:52Z</time>
      </trkpt>
      <trkpt lat="41.841242" lon="9.190303">
        <ele>1772.6</ele>
        <time>2022-09-16T05:26:54Z</time>
      </trkpt>
      <trkpt lat="41.841223" lon="9.190337">
        <ele>1773.2</ele>
        <time>2022-09-16T05:26:58Z</time>
      </trkpt>
      <trkpt lat="41.84122" lon="9.190395">
        <ele>1774.2</ele>
        <time>2022-09-16T05:27:04Z</time>
      </trkpt>
      <trkpt lat="41.841227" lon="9.190477">
        <ele>1776.0</ele>
        <time>2022-09-16T05:27:13Z</time>
      </trkpt>
      <trkpt lat="41.841223" lon="9.190518">
        <ele>1776.8</ele>
        <time>2022-09-16T05:27:19Z</time>
      </trkpt>
      <trkpt lat="41.841192" lon="9.19052">
        <ele>1777.2</ele>
        <time>2022-09-16T05:27:23Z</time>
      </trkpt>
      <trkpt lat="41.841155" lon="9.19051">
        <ele>1778.4</ele>
        <time>2022-09-16T05:27:28Z</time>
      </trkpt>
      <trkpt lat="41.841147" lon="9.190515">
        <ele>1779.0</ele>
        <time>2022-09-16T05:27:30Z</time>
      </trkpt>
      <trkpt lat="41.841173" lon="9.190538">
        <ele>1780.4</ele>
        <time>2022-09-16T05:27:44Z</time>
      </trkpt>
      <trkpt lat="41.841178" lon="9.190568">
        <ele>1781.6</ele>
        <time>2022-09-16T05:27:53Z</time>
      </trkpt>
      <trkpt lat="41.841222" lon="9.190638">
        <ele>1784.2</ele>
        <time>2022-09-16T05:28:09Z</time>
      </trkpt>
      <trkpt lat="41.84123" lon="9.190685">
        <ele>1785.0</ele>
        <time>2022-09-16T05:28:15Z</time>
      </trkpt>
      <trkpt lat="41.841238" lon="9.190728">
        <ele>1786.0</ele>
        <time>2022-09-16T05:28:20Z</time>
      </trkpt>
      <trkpt lat="41.841273" lon="9.19083">
        <ele>1791.0</ele>
        <time>2022-09-16T05:28:42Z</time>
      </trkpt>
      <trkpt lat="41.841303" lon="9.190853">
        <ele>1791.4</ele>
        <time>2022-09-16T05:28:48Z</time>
      </trkpt>
      <trkpt lat="41.84129" lon="9.190915">
        <ele>1794.0</ele>
        <time>2022-09-16T05:28:54Z</time>
      </trkpt>
      <trkpt lat="41.841283" lon="9.190963">
        <ele>1795.0</ele>
        <time>2022-09-16T05:28:59Z</time>
      </trkpt>
      <trkpt lat="41.841285" lon="9.190972">
        <ele>1795.0</ele>
        <time>2022-09-16T05:28:59Z</time>
      </trkpt>
      <trkpt lat="41.841213" lon="9.191027">
        <ele>1795.8</ele>
        <time>2022-09-16T05:29:08Z</time>
      </trkpt>
      <trkpt lat="41.841225" lon="9.191068">
        <ele>1796.0</ele>
        <time>2022-09-16T05:29:14Z</time>
      </trkpt>
      <trkpt lat="41.841265" lon="9.191135">
        <ele>1794.6</ele>
        <time>2022-09-16T05:29:23Z</time>
      </trkpt>
      <trkpt lat="41.841217" lon="9.19118">
        <ele>1794.2</ele>
        <time>2022-09-16T05:29:30Z</time>
      </trkpt>
      <trkpt lat="41.841208" lon="9.191222">
        <ele>1794.2</ele>
        <time>2022-09-16T05:29:35Z</time>
      </trkpt>
      <trkpt lat="41.841218" lon="9.191255">
        <ele>1794.2</ele>
        <time>2022-09-16T05:29:39Z</time>
      </trkpt>
      <trkpt lat="41.841237" lon="9.191318">
        <ele>1792.6</ele>
        <time>2022-09-16T05:29:52Z</time>
      </trkpt>
      <trkpt lat="41.841255" lon="9.191333">
        <ele>1793.6</ele>
        <time>2022-09-16T05:30:03Z</time>
      </trkpt>
      <trkpt lat="41.841272" lon="9.191337">
        <ele>1795.0</ele>
        <time>2022-09-16T05:30:15Z</time>
      </trkpt>
      <trkpt lat="41.841285" lon="9.19135">
        <ele>1796.4</ele>
        <time>2022-09-16T05:30:23Z</time>
      </trkpt>
      <trkpt lat="41.84131" lon="9.191357">
        <ele>1797.6</ele>
        <time>2022-09-16T05:30:33Z</time>
      </trkpt>
      <trkpt lat="41.841312" lon="9.191373">
        <ele>1798.6</ele>
        <time>2022-09-16T05:30:39Z</time>
      </trkpt>
      <trkpt lat="41.841298" lon="9.191465">
        <ele>1800.2</ele>
        <time>2022-09-16T05:30:50Z</time>
      </trkpt>
      <trkpt lat="41.841312" lon="9.191532">
        <ele>1801.4</ele>
        <time>2022-09-16T05:30:57Z</time>
      </trkpt>
      <trkpt lat="41.841355" lon="9.19165">
        <ele>1803.0</ele>
        <time>2022-09-16T05:31:10Z</time>
      </trkpt>
      <trkpt lat="41.841377" lon="9.191682">
        <ele>1804.6</ele>
        <time>2022-09-16T05:31:16Z</time>
      </trkpt>
      <trkpt lat="41.841453" lon="9.19176">
        <ele>1806.6</ele>
        <time>2022-09-16T05:31:26Z</time>
      </trkpt>
      <trkpt lat="41.841472" lon="9.191795">
        <ele>1806.8</ele>
        <time>2022-09-16T05:31:29Z</time>
      </trkpt>
      <trkpt lat="41.8415" lon="9.191882">
        <ele>1807.6</ele>
        <time>2022-09-16T05:31:41Z</time>
      </trkpt>
      <trkpt lat="41.84152" lon="9.191892">
        <ele>1808.8</ele>
        <time>2022-09-16T05:31:51Z</time>
      </trkpt>
      <trkpt lat="41.841533" lon="9.191933">
        <ele>1810.6</ele>
        <time>2022-09-16T05:32:03Z</time>
      </trkpt>
      <trkpt lat="41.841583" lon="9.191993">
        <ele>1812.2</ele>
        <time>2022-09-16T05:32:22Z</time>
      </trkpt>
      <trkpt lat="41.841585" lon="9.191998">
        <ele>1812.2</ele>
        <time>2022-09-16T05:32:23Z</time>
      </trkpt>
      <trkpt lat="41.841615" lon="9.192048">
        <ele>1812.8</ele>
        <time>2022-09-16T05:32:29Z</time>
      </trkpt>
      <trkpt lat="41.841657" lon="9.192122">
        <ele>1813.8</ele>
        <time>2022-09-16T05:32:37Z</time>
      </trkpt>
      <trkpt lat="41.841697" lon="9.192215">
        <ele>1814.0</ele>
        <time>2022-09-16T05:32:46Z</time>
      </trkpt>
      <trkpt lat="41.84175" lon="9.19234">
        <ele>1814.2</ele>
        <time>2022-09-16T05:32:59Z</time>
      </trkpt>
      <trkpt lat="41.841818" lon="9.19251">
        <ele>1816.2</ele>
        <time>2022-09-16T05:33:16Z</time>
      </trkpt>
      <trkpt lat="41.841795" lon="9.192642">
        <ele>1818.6</ele>
        <time>2022-09-16T05:33:30Z</time>
      </trkpt>
      <trkpt lat="41.841808" lon="9.192728">
        <ele>1819.0</ele>
        <time>2022-09-16T05:33:40Z</time>
      </trkpt>
      <trkpt lat="41.841792" lon="9.192807">
        <ele>1821.0</ele>
        <time>2022-09-16T05:33:49Z</time>
      </trkpt>
      <trkpt lat="41.841792" lon="9.192833">
        <ele>1821.2</ele>
        <time>2022-09-16T05:33:54Z</time>
      </trkpt>
      <trkpt lat="41.841898" lon="9.192927">
        <ele>1821.8</ele>
        <time>2022-09-16T05:34:10Z</time>
      </trkpt>
      <trkpt lat="41.84194" lon="9.192953">
        <ele>1822.0</ele>
        <time>2022-09-16T05:34:16Z</time>
      </trkpt>
      <trkpt lat="41.841992" lon="9.193013">
        <ele>1822.6</ele>
        <time>2022-09-16T05:34:25Z</time>
      </trkpt>
      <trkpt lat="41.84202" lon="9.193095">
        <ele>1822.2</ele>
        <time>2022-09-16T05:34:34Z</time>
      </trkpt>
      <trkpt lat="41.842038" lon="9.193153">
        <ele>1822.4</ele>
        <time>2022-09-16T05:34:41Z</time>
      </trkpt>
      <trkpt lat="41.842063" lon="9.193172">
        <ele>1822.6</ele>
        <time>2022-09-16T05:34:45Z</time>
      </trkpt>
      <trkpt lat="41.84217" lon="9.193202">
        <ele>1824.0</ele>
        <time>2022-09-16T05:35:02Z</time>
      </trkpt>
      <trkpt lat="41.842207" lon="9.193282">
        <ele>1824.8</ele>
        <time>2022-09-16T05:35:12Z</time>
      </trkpt>
      <trkpt lat="41.842243" lon="9.193373">
        <ele>1825.0</ele>
        <time>2022-09-16T05:35:22Z</time>
      </trkpt>
      <trkpt lat="41.842297" lon="9.193398">
        <ele>1826.2</ele>
        <time>2022-09-16T05:35:30Z</time>
      </trkpt>
      <trkpt lat="41.842357" lon="9.193425">
        <ele>1827.2</ele>
        <time>2022-09-16T05:35:38Z</time>
      </trkpt>
      <trkpt lat="41.842423" lon="9.193512">
        <ele>1828.2</ele>
        <time>2022-09-16T05:35:51Z</time>
      </trkpt>
      <trkpt lat="41.842472" lon="9.193562">
        <ele>1828.6</ele>
        <time>2022-09-16T05:36:00Z</time>
      </trkpt>
      <trkpt lat="41.842512" lon="9.193562">
        <ele>1829.6</ele>
        <time>2022-09-16T05:36:07Z</time>
      </trkpt>
      <trkpt lat="41.842578" lon="9.193537">
        <ele>1830.4</ele>
        <time>2022-09-16T05:36:20Z</time>
      </trkpt>
      <trkpt lat="41.842707" lon="9.1936">
        <ele>1830.4</ele>
        <time>2022-09-16T05:36:45Z</time>
      </trkpt>
      <trkpt lat="41.842783" lon="9.193668">
        <ele>1831.4</ele>
        <time>2022-09-16T05:37:03Z</time>
      </trkpt>
      <trkpt lat="41.842787" lon="9.19367">
        <ele>1831.4</ele>
        <time>2022-09-16T05:37:04Z</time>
      </trkpt>
      <trkpt lat="41.842717" lon="9.193695">
        <ele>1832.4</ele>
        <time>2022-09-16T05:37:30Z</time>
      </trkpt>
      <trkpt lat="41.842832" lon="9.193777">
        <ele>1833.2</ele>
        <time>2022-09-16T05:38:02Z</time>
      </trkpt>
      <trkpt lat="41.842872" lon="9.193813">
        <ele>1833.6</ele>
        <time>2022-09-16T05:38:05Z</time>
      </trkpt>
      <trkpt lat="41.843005" lon="9.193902">
        <ele>1834.4</ele>
        <time>2022-09-16T05:38:16Z</time>
      </trkpt>
      <trkpt lat="41.843155" lon="9.193943">
        <ele>1834.6</ele>
        <time>2022-09-16T05:38:32Z</time>
      </trkpt>
      <trkpt lat="41.843282" lon="9.194">
        <ele>1836.4</ele>
        <time>2022-09-16T05:39:02Z</time>
      </trkpt>
      <trkpt lat="41.843285" lon="9.194002">
        <ele>1836.4</ele>
        <time>2022-09-16T05:39:04Z</time>
      </trkpt>
      <trkpt lat="41.843368" lon="9.19419">
        <ele>1838.8</ele>
        <time>2022-09-16T05:39:35Z</time>
      </trkpt>
      <trkpt lat="41.843397" lon="9.194272">
        <ele>1839.2</ele>
        <time>2022-09-16T05:39:41Z</time>
      </trkpt>
      <trkpt lat="41.843475" lon="9.194288">
        <ele>1840.6</ele>
        <time>2022-09-16T05:39:51Z</time>
      </trkpt>
      <trkpt lat="41.843542" lon="9.194307">
        <ele>1841.2</ele>
        <time>2022-09-16T05:39:56Z</time>
      </trkpt>
      <trkpt lat="41.843582" lon="9.194397">
        <ele>1841.8</ele>
        <time>2022-09-16T05:40:02Z</time>
      </trkpt>
      <trkpt lat="41.843595" lon="9.194452">
        <ele>1842.0</ele>
        <time>2022-09-16T05:40:05Z</time>
      </trkpt>
      <trkpt lat="41.84358" lon="9.194485">
        <ele>1842.0</ele>
        <time>2022-09-16T05:40:06Z</time>
      </trkpt>
      <trkpt lat="41.843612" lon="9.194558">
        <ele>1844.4</ele>
        <time>2022-09-16T05:40:14Z</time>
      </trkpt>
      <trkpt lat="41.84367" lon="9.194637">
        <ele>1844.8</ele>
        <time>2022-09-16T05:40:24Z</time>
      </trkpt>
      <trkpt lat="41.843695" lon="9.194665">
        <ele>1845.4</ele>
        <time>2022-09-16T05:40:30Z</time>
      </trkpt>
      <trkpt lat="41.843737" lon="9.194732">
        <ele>1846.4</ele>
        <time>2022-09-16T05:40:38Z</time>
      </trkpt>
      <trkpt lat="41.843803" lon="9.194797">
        <ele>1846.8</ele>
        <time>2022-09-16T05:40:48Z</time>
      </trkpt>
      <trkpt lat="41.843783" lon="9.194938">
        <ele>1847.8</ele>
        <time>2022-09-16T05:41:04Z</time>
      </trkpt>
      <trkpt lat="41.843797" lon="9.194977">
        <ele>1849.0</ele>
        <time>2022-09-16T05:41:10Z</time>
      </trkpt>
      <trkpt lat="41.843858" lon="9.19505">
        <ele>1851.2</ele>
        <time>2022-09-16T05:41:28Z</time>
      </trkpt>
      <trkpt lat="41.843933" lon="9.19511">
        <ele>1852.0</ele>
        <time>2022-09-16T05:41:38Z</time>
      </trkpt>
      <trkpt lat="41.844003" lon="9.195292">
        <ele>1853.0</ele>
        <time>2022-09-16T05:41:52Z</time>
      </trkpt>
      <trkpt lat="41.844043" lon="9.195355">
        <ele>1852.8</ele>
        <time>2022-09-16T05:41:57Z</time>
      </trkpt>
      <trkpt lat="41.844113" lon="9.195448">
        <ele>1853.0</ele>
        <time>2022-09-16T05:42:05Z</time>
      </trkpt>
      <trkpt lat="41.844187" lon="9.195583">
        <ele>1855.0</ele>
        <time>2022-09-16T05:42:16Z</time>
      </trkpt>
      <trkpt lat="41.844343" lon="9.196065">
        <ele>1855.8</ele>
        <time>2022-09-16T05:42:56Z</time>
      </trkpt>
      <trkpt lat="41.844372" lon="9.196173">
        <ele>1856.2</ele>
        <time>2022-09-16T05:43:06Z</time>
      </trkpt>
      <trkpt lat="41.844413" lon="9.196272">
        <ele>1856.8</ele>
        <time>2022-09-16T05:43:16Z</time>
      </trkpt>
      <trkpt lat="41.844422" lon="9.196322">
        <ele>1856.8</ele>
        <time>2022-09-16T05:43:21Z</time>
      </trkpt>
      <trkpt lat="41.844395" lon="9.196457">
        <ele>1859.4</ele>
        <time>2022-09-16T05:43:36Z</time>
      </trkpt>
      <trkpt lat="41.844397" lon="9.196468">
        <ele>1859.6</ele>
        <time>2022-09-16T05:43:37Z</time>
      </trkpt>
      <trkpt lat="41.844412" lon="9.196542">
        <ele>1860.4</ele>
        <time>2022-09-16T05:43:44Z</time>
      </trkpt>
      <trkpt lat="41.844412" lon="9.196668">
        <ele>1862.4</ele>
        <time>2022-09-16T05:43:56Z</time>
      </trkpt>
      <trkpt lat="41.844375" lon="9.196788">
        <ele>1863.8</ele>
        <time>2022-09-16T05:44:08Z</time>
      </trkpt>
      <trkpt lat="41.844315" lon="9.196897">
        <ele>1864.2</ele>
        <time>2022-09-16T05:44:21Z</time>
      </trkpt>
      <trkpt lat="41.84431" lon="9.196958">
        <ele>1864.2</ele>
        <time>2022-09-16T05:44:27Z</time>
      </trkpt>
      <trkpt lat="41.844313" lon="9.196968">
        <ele>1864.2</ele>
        <time>2022-09-16T05:44:28Z</time>
      </trkpt>
      <trkpt lat="41.844332" lon="9.197027">
        <ele>1864.8</ele>
        <time>2022-09-16T05:44:35Z</time>
      </trkpt>
      <trkpt lat="41.844328" lon="9.197062">
        <ele>1864.8</ele>
        <time>2022-09-16T05:44:39Z</time>
      </trkpt>
      <trkpt lat="41.844323" lon="9.19707">
        <ele>1865.0</ele>
        <time>2022-09-16T05:44:40Z</time>
      </trkpt>
      <trkpt lat="41.844262" lon="9.197072">
        <ele>1866.2</ele>
        <time>2022-09-16T05:44:57Z</time>
      </trkpt>
      <trkpt lat="41.844275" lon="9.197098">
        <ele>1866.0</ele>
        <time>2022-09-16T05:45:05Z</time>
      </trkpt>
      <trkpt lat="41.844283" lon="9.197107">
        <ele>1866.0</ele>
        <time>2022-09-16T05:45:06Z</time>
      </trkpt>
      <trkpt lat="41.844302" lon="9.197205">
        <ele>1866.4</ele>
        <time>2022-09-16T05:45:14Z</time>
      </trkpt>
      <trkpt lat="41.844282" lon="9.197227">
        <ele>1867.4</ele>
        <time>2022-09-16T05:45:21Z</time>
      </trkpt>
      <trkpt lat="41.84419" lon="9.197142">
        <ele>1869.6</ele>
        <time>2022-09-16T05:45:41Z</time>
      </trkpt>
      <trkpt lat="41.844165" lon="9.197168">
        <ele>1870.6</ele>
        <time>2022-09-16T05:45:48Z</time>
      </trkpt>
      <trkpt lat="41.844173" lon="9.197232">
        <ele>1872.4</ele>
        <time>2022-09-16T05:45:55Z</time>
      </trkpt>
      <trkpt lat="41.844178" lon="9.197265">
        <ele>1873.2</ele>
        <time>2022-09-16T05:45:58Z</time>
      </trkpt>
      <trkpt lat="41.844155" lon="9.1973">
        <ele>1873.6</ele>
        <time>2022-09-16T05:46:04Z</time>
      </trkpt>
      <trkpt lat="41.844135" lon="9.1973">
        <ele>1874.6</ele>
        <time>2022-09-16T05:46:07Z</time>
      </trkpt>
      <trkpt lat="41.844078" lon="9.197277">
        <ele>1876.2</ele>
        <time>2022-09-16T05:46:21Z</time>
      </trkpt>
      <trkpt lat="41.844032" lon="9.197333">
        <ele>1878.0</ele>
        <time>2022-09-16T05:46:32Z</time>
      </trkpt>
      <trkpt lat="41.844027" lon="9.197342">
        <ele>1878.0</ele>
        <time>2022-09-16T05:46:33Z</time>
      </trkpt>
      <trkpt lat="41.844053" lon="9.197435">
        <ele>1879.2</ele>
        <time>2022-09-16T05:46:42Z</time>
      </trkpt>
      <trkpt lat="41.844058" lon="9.197507">
        <ele>1880.2</ele>
        <time>2022-09-16T05:46:49Z</time>
      </trkpt>
      <trkpt lat="41.844077" lon="9.197673">
        <ele>1882.2</ele>
        <time>2022-09-16T05:47:03Z</time>
      </trkpt>
      <trkpt lat="41.844115" lon="9.197733">
        <ele>1882.8</ele>
        <time>2022-09-16T05:47:08Z</time>
      </trkpt>
      <trkpt lat="41.844147" lon="9.197757">
        <ele>1883.0</ele>
        <time>2022-09-16T05:47:14Z</time>
      </trkpt>
      <trkpt lat="41.844143" lon="9.197827">
        <ele>1884.8</ele>
        <time>2022-09-16T05:47:28Z</time>
      </trkpt>
      <trkpt lat="41.844133" lon="9.197852">
        <ele>1885.6</ele>
        <time>2022-09-16T05:47:35Z</time>
      </trkpt>
      <trkpt lat="41.844132" lon="9.197898">
        <ele>1887.4</ele>
        <time>2022-09-16T05:47:48Z</time>
      </trkpt>
      <trkpt lat="41.844125" lon="9.197922">
        <ele>1888.4</ele>
        <time>2022-09-16T05:47:55Z</time>
      </trkpt>
      <trkpt lat="41.844128" lon="9.19793">
        <ele>1888.4</ele>
        <time>2022-09-16T05:47:57Z</time>
      </trkpt>
      <trkpt lat="41.84415" lon="9.19798">
        <ele>1889.6</ele>
        <time>2022-09-16T05:48:05Z</time>
      </trkpt>
      <trkpt lat="41.8442" lon="9.198043">
        <ele>1890.4</ele>
        <time>2022-09-16T05:48:18Z</time>
      </trkpt>
      <trkpt lat="41.844225" lon="9.19808">
        <ele>1891.6</ele>
        <time>2022-09-16T05:48:27Z</time>
      </trkpt>
      <trkpt lat="41.844272" lon="9.198138">
        <ele>1894.2</ele>
        <time>2022-09-16T05:48:42Z</time>
      </trkpt>
      <trkpt lat="41.844295" lon="9.198208">
        <ele>1895.2</ele>
        <time>2022-09-16T05:48:52Z</time>
      </trkpt>
      <trkpt lat="41.844312" lon="9.19827">
        <ele>1896.0</ele>
        <time>2022-09-16T05:49:01Z</time>
      </trkpt>
      <trkpt lat="41.844362" lon="9.19834">
        <ele>1897.0</ele>
        <time>2022-09-16T05:49:10Z</time>
      </trkpt>
      <trkpt lat="41.844398" lon="9.19844">
        <ele>1897.6</ele>
        <time>2022-09-16T05:49:19Z</time>
      </trkpt>
      <trkpt lat="41.8444" lon="9.198477">
        <ele>1898.6</ele>
        <time>2022-09-16T05:49:22Z</time>
      </trkpt>
      <trkpt lat="41.844437" lon="9.198593">
        <ele>1899.2</ele>
        <time>2022-09-16T05:49:31Z</time>
      </trkpt>
      <trkpt lat="41.844442" lon="9.198607">
        <ele>1899.2</ele>
        <time>2022-09-16T05:49:33Z</time>
      </trkpt>
      <trkpt lat="41.844457" lon="9.198635">
        <ele>1899.8</ele>
        <time>2022-09-16T05:49:38Z</time>
      </trkpt>
      <trkpt lat="41.84448" lon="9.19866">
        <ele>1900.2</ele>
        <time>2022-09-16T05:49:44Z</time>
      </trkpt>
      <trkpt lat="41.844495" lon="9.198703">
        <ele>1900.8</ele>
        <time>2022-09-16T05:49:51Z</time>
      </trkpt>
      <trkpt lat="41.84449" lon="9.198792">
        <ele>1900.8</ele>
        <time>2022-09-16T05:50:04Z</time>
      </trkpt>
      <trkpt lat="41.844472" lon="9.198857">
        <ele>1901.8</ele>
        <time>2022-09-16T05:50:14Z</time>
      </trkpt>
      <trkpt lat="41.844483" lon="9.198933">
        <ele>1903.0</ele>
        <time>2022-09-16T05:50:27Z</time>
      </trkpt>
      <trkpt lat="41.844478" lon="9.19894">
        <ele>1903.0</ele>
        <time>2022-09-16T05:50:28Z</time>
      </trkpt>
      <trkpt lat="41.844452" lon="9.198995">
        <ele>1903.6</ele>
        <time>2022-09-16T05:50:36Z</time>
      </trkpt>
      <trkpt lat="41.844437" lon="9.19902">
        <ele>1904.8</ele>
        <time>2022-09-16T05:50:40Z</time>
      </trkpt>
      <trkpt lat="41.844405" lon="9.199055">
        <ele>1906.2</ele>
        <time>2022-09-16T05:50:49Z</time>
      </trkpt>
      <trkpt lat="41.844397" lon="9.199142">
        <ele>1907.6</ele>
        <time>2022-09-16T05:51:00Z</time>
      </trkpt>
      <trkpt lat="41.844362" lon="9.199157">
        <ele>1909.6</ele>
        <time>2022-09-16T05:51:14Z</time>
      </trkpt>
      <trkpt lat="41.84436" lon="9.199162">
        <ele>1909.6</ele>
        <time>2022-09-16T05:51:15Z</time>
      </trkpt>
      <trkpt lat="41.844373" lon="9.19925">
        <ele>1911.6</ele>
        <time>2022-09-16T05:51:26Z</time>
      </trkpt>
      <trkpt lat="41.844408" lon="9.199353">
        <ele>1913.0</ele>
        <time>2022-09-16T05:51:48Z</time>
      </trkpt>
      <trkpt lat="41.84442" lon="9.199437">
        <ele>1915.2</ele>
        <time>2022-09-16T05:52:10Z</time>
      </trkpt>
      <trkpt lat="41.844433" lon="9.199455">
        <ele>1915.4</ele>
        <time>2022-09-16T05:52:14Z</time>
      </trkpt>
      <trkpt lat="41.84444" lon="9.199425">
        <ele>1915.8</ele>
        <time>2022-09-16T05:52:20Z</time>
      </trkpt>
      <trkpt lat="41.84447" lon="9.199393">
        <ele>1915.8</ele>
        <time>2022-09-16T05:52:27Z</time>
      </trkpt>
      <trkpt lat="41.844545" lon="9.19934">
        <ele>1918.4</ele>
        <time>2022-09-16T05:52:46Z</time>
      </trkpt>
      <trkpt lat="41.844582" lon="9.199298">
        <ele>1918.6</ele>
        <time>2022-09-16T05:53:10Z</time>
      </trkpt>
      <trkpt lat="41.84459" lon="9.199333">
        <ele>1919.4</ele>
        <time>2022-09-16T05:53:27Z</time>
      </trkpt>
      <trkpt lat="41.844607" lon="9.199312">
        <ele>1921.4</ele>
        <time>2022-09-16T05:53:39Z</time>
      </trkpt>
      <trkpt lat="41.844607" lon="9.199248">
        <ele>1922.6</ele>
        <time>2022-09-16T05:53:58Z</time>
      </trkpt>
      <trkpt lat="41.844607" lon="9.199247">
        <ele>1922.6</ele>
        <time>2022-09-16T05:54:00Z</time>
      </trkpt>
      <trkpt lat="41.844605" lon="9.19949">
        <ele>1924.2</ele>
        <time>2022-09-16T05:54:17Z</time>
      </trkpt>
      <trkpt lat="41.844645" lon="9.199678">
        <ele>1925.6</ele>
        <time>2022-09-16T05:54:26Z</time>
      </trkpt>
      <trkpt lat="41.844672" lon="9.199823">
        <ele>1926.6</ele>
        <time>2022-09-16T05:54:33Z</time>
      </trkpt>
      <trkpt lat="41.844685" lon="9.200065">
        <ele>1927.2</ele>
        <time>2022-09-16T05:54:44Z</time>
      </trkpt>
      <trkpt lat="41.844658" lon="9.200088">
        <ele>1927.8</ele>
        <time>2022-09-16T05:54:50Z</time>
      </trkpt>
      <trkpt lat="41.844593" lon="9.200095">
        <ele>1929.8</ele>
        <time>2022-09-16T05:55:01Z</time>
      </trkpt>
      <trkpt lat="41.844577" lon="9.20013">
        <ele>1930.4</ele>
        <time>2022-09-16T05:55:07Z</time>
      </trkpt>
      <trkpt lat="41.844565" lon="9.200182">
        <ele>1930.8</ele>
        <time>2022-09-16T05:55:14Z</time>
      </trkpt>
      <trkpt lat="41.844512" lon="9.200197">
        <ele>1934.4</ele>
        <time>2022-09-16T05:55:29Z</time>
      </trkpt>
      <trkpt lat="41.844505" lon="9.200207">
        <ele>1934.4</ele>
        <time>2022-09-16T05:55:32Z</time>
      </trkpt>
      <trkpt lat="41.844525" lon="9.200222">
        <ele>1934.8</ele>
        <time>2022-09-16T05:55:36Z</time>
      </trkpt>
      <trkpt lat="41.84452" lon="9.200285">
        <ele>1935.8</ele>
        <time>2022-09-16T05:55:43Z</time>
      </trkpt>
      <trkpt lat="41.844552" lon="9.200317">
        <ele>1936.4</ele>
        <time>2022-09-16T05:55:49Z</time>
      </trkpt>
      <trkpt lat="41.844543" lon="9.200372">
        <ele>1937.4</ele>
        <time>2022-09-16T05:55:56Z</time>
      </trkpt>
      <trkpt lat="41.844567" lon="9.200398">
        <ele>1939.2</ele>
        <time>2022-09-16T05:56:08Z</time>
      </trkpt>
      <trkpt lat="41.844633" lon="9.200415">
        <ele>1940.8</ele>
        <time>2022-09-16T05:56:17Z</time>
      </trkpt>
      <trkpt lat="41.84464" lon="9.200418">
        <ele>1940.8</ele>
        <time>2022-09-16T05:56:18Z</time>
      </trkpt>
      <trkpt lat="41.844587" lon="9.200455">
        <ele>1941.2</ele>
        <time>2022-09-16T05:56:24Z</time>
      </trkpt>
      <trkpt lat="41.844438" lon="9.200493">
        <ele>1943.4</ele>
        <time>2022-09-16T05:56:39Z</time>
      </trkpt>
      <trkpt lat="41.844385" lon="9.200502">
        <ele>1944.4</ele>
        <time>2022-09-16T05:56:46Z</time>
      </trkpt>
      <trkpt lat="41.844328" lon="9.200487">
        <ele>1945.8</ele>
        <time>2022-09-16T05:56:54Z</time>
      </trkpt>
      <trkpt lat="41.844507" lon="9.200688">
        <ele>1947.0</ele>
        <time>2022-09-16T05:57:07Z</time>
      </trkpt>
      <trkpt lat="41.84457" lon="9.200788">
        <ele>1947.4</ele>
        <time>2022-09-16T05:57:13Z</time>
      </trkpt>
      <trkpt lat="41.844612" lon="9.200885">
        <ele>1948.4</ele>
        <time>2022-09-16T05:57:19Z</time>
      </trkpt>
      <trkpt lat="41.844652" lon="9.200977">
        <ele>1949.8</ele>
        <time>2022-09-16T05:57:25Z</time>
      </trkpt>
      <trkpt lat="41.844652" lon="9.201073">
        <ele>1952.6</ele>
        <time>2022-09-16T05:57:39Z</time>
      </trkpt>
      <trkpt lat="41.844657" lon="9.201115">
        <ele>1953.6</ele>
        <time>2022-09-16T05:57:46Z</time>
      </trkpt>
      <trkpt lat="41.844642" lon="9.201182">
        <ele>1955.2</ele>
        <time>2022-09-16T05:57:58Z</time>
      </trkpt>
      <trkpt lat="41.84464" lon="9.201375">
        <ele>1958.4</ele>
        <time>2022-09-16T05:58:22Z</time>
      </trkpt>
      <trkpt lat="41.84465" lon="9.201382">
        <ele>1958.6</ele>
        <time>2022-09-16T05:58:24Z</time>
      </trkpt>
      <trkpt lat="41.844732" lon="9.201455">
        <ele>1959.2</ele>
        <time>2022-09-16T05:58:34Z</time>
      </trkpt>
      <trkpt lat="41.844743" lon="9.201507">
        <ele>1959.6</ele>
        <time>2022-09-16T05:58:39Z</time>
      </trkpt>
      <trkpt lat="41.84476" lon="9.201547">
        <ele>1960.6</ele>
        <time>2022-09-16T05:58:43Z</time>
      </trkpt>
      <trkpt lat="41.844837" lon="9.201642">
        <ele>1961.0</ele>
        <time>2022-09-16T05:58:54Z</time>
      </trkpt>
      <trkpt lat="41.84487" lon="9.20174">
        <ele>1962.2</ele>
        <time>2022-09-16T05:59:03Z</time>
      </trkpt>
      <trkpt lat="41.844927" lon="9.20183">
        <ele>1962.6</ele>
        <time>2022-09-16T05:59:13Z</time>
      </trkpt>
      <trkpt lat="41.844965" lon="9.201895">
        <ele>1962.6</ele>
        <time>2022-09-16T05:59:21Z</time>
      </trkpt>
      <trkpt lat="41.844968" lon="9.201958">
        <ele>1963.2</ele>
        <time>2022-09-16T05:59:26Z</time>
      </trkpt>
      <trkpt lat="41.84496" lon="9.202063">
        <ele>1964.0</ele>
        <time>2022-09-16T05:59:34Z</time>
      </trkpt>
      <trkpt lat="41.844975" lon="9.202097">
        <ele>1964.6</ele>
        <time>2022-09-16T05:59:39Z</time>
      </trkpt>
      <trkpt lat="41.845058" lon="9.202193">
        <ele>1965.4</ele>
        <time>2022-09-16T05:59:51Z</time>
      </trkpt>
      <trkpt lat="41.845125" lon="9.202227">
        <ele>1965.0</ele>
        <time>2022-09-16T05:59:58Z</time>
      </trkpt>
      <trkpt lat="41.845198" lon="9.202283">
        <ele>1965.2</ele>
        <time>2022-09-16T06:00:07Z</time>
      </trkpt>
      <trkpt lat="41.845262" lon="9.202337">
        <ele>1965.8</ele>
        <time>2022-09-16T06:00:14Z</time>
      </trkpt>
      <trkpt lat="41.845277" lon="9.20239">
        <ele>1965.4</ele>
        <time>2022-09-16T06:00:20Z</time>
      </trkpt>
      <trkpt lat="41.845328" lon="9.202505">
        <ele>1964.8</ele>
        <time>2022-09-16T06:00:32Z</time>
      </trkpt>
      <trkpt lat="41.845353" lon="9.202555">
        <ele>1963.8</ele>
        <time>2022-09-16T06:00:39Z</time>
      </trkpt>
      <trkpt lat="41.84538" lon="9.20263">
        <ele>1963.4</ele>
        <time>2022-09-16T06:00:51Z</time>
      </trkpt>
      <trkpt lat="41.845403" lon="9.202668">
        <ele>1963.4</ele>
        <time>2022-09-16T06:00:58Z</time>
      </trkpt>
      <trkpt lat="41.845423" lon="9.202713">
        <ele>1963.6</ele>
        <time>2022-09-16T06:01:05Z</time>
      </trkpt>
      <trkpt lat="41.845475" lon="9.202782">
        <ele>1963.6</ele>
        <time>2022-09-16T06:01:14Z</time>
      </trkpt>
      <trkpt lat="41.845597" lon="9.202795">
        <ele>1962.2</ele>
        <time>2022-09-16T06:01:30Z</time>
      </trkpt>
      <trkpt lat="41.845627" lon="9.202838">
        <ele>1962.0</ele>
        <time>2022-09-16T06:01:37Z</time>
      </trkpt>
      <trkpt lat="41.845685" lon="9.202945">
        <ele>1963.4</ele>
        <time>2022-09-16T06:01:47Z</time>
      </trkpt>
      <trkpt lat="41.845822" lon="9.203045">
        <ele>1965.2</ele>
        <time>2022-09-16T06:02:04Z</time>
      </trkpt>
      <trkpt lat="41.845885" lon="9.203118">
        <ele>1965.2</ele>
        <time>2022-09-16T06:02:12Z</time>
      </trkpt>
      <trkpt lat="41.845908" lon="9.203158">
        <ele>1964.0</ele>
        <time>2022-09-16T06:02:16Z</time>
      </trkpt>
      <trkpt lat="41.845952" lon="9.20323">
        <ele>1966.2</ele>
        <time>2022-09-16T06:02:24Z</time>
      </trkpt>
      <trkpt lat="41.845992" lon="9.203303">
        <ele>1968.4</ele>
        <time>2022-09-16T06:02:31Z</time>
      </trkpt>
      <trkpt lat="41.84606" lon="9.203398">
        <ele>1970.2</ele>
        <time>2022-09-16T06:02:42Z</time>
      </trkpt>
      <trkpt lat="41.84608" lon="9.20345">
        <ele>1971.4</ele>
        <time>2022-09-16T06:02:46Z</time>
      </trkpt>
      <trkpt lat="41.846085" lon="9.203497">
        <ele>1972.8</ele>
        <time>2022-09-16T06:02:49Z</time>
      </trkpt>
      <trkpt lat="41.846092" lon="9.203585">
        <ele>1974.8</ele>
        <time>2022-09-16T06:02:56Z</time>
      </trkpt>
      <trkpt lat="41.846093" lon="9.203627">
        <ele>1975.0</ele>
        <time>2022-09-16T06:03:00Z</time>
      </trkpt>
      <trkpt lat="41.846038" lon="9.203592">
        <ele>1981.8</ele>
        <time>2022-09-16T06:03:09Z</time>
      </trkpt>
      <trkpt lat="41.846037" lon="9.203672">
        <ele>1981.6</ele>
        <time>2022-09-16T06:03:17Z</time>
      </trkpt>
      <trkpt lat="41.846042" lon="9.203732">
        <ele>1981.6</ele>
        <time>2022-09-16T06:03:22Z</time>
      </trkpt>
      <trkpt lat="41.846058" lon="9.203782">
        <ele>1981.6</ele>
        <time>2022-09-16T06:03:26Z</time>
      </trkpt>
      <trkpt lat="41.846037" lon="9.20379">
        <ele>1981.4</ele>
        <time>2022-09-16T06:03:35Z</time>
      </trkpt>
      <trkpt lat="41.846032" lon="9.203783">
        <ele>1981.6</ele>
        <time>2022-09-16T06:03:38Z</time>
      </trkpt>
      <trkpt lat="41.846005" lon="9.203813">
        <ele>1980.6</ele>
        <time>2022-09-16T06:03:55Z</time>
      </trkpt>
      <trkpt lat="41.84599" lon="9.203912">
        <ele>1981.4</ele>
        <time>2022-09-16T06:04:32Z</time>
      </trkpt>
      <trkpt lat="41.845963" lon="9.203917">
        <ele>1983.6</ele>
        <time>2022-09-16T06:04:42Z</time>
      </trkpt>
      <trkpt lat="41.845957" lon="9.203942">
        <ele>1982.4</ele>
        <time>2022-09-16T06:04:49Z</time>
      </trkpt>
      <trkpt lat="41.84598" lon="9.20397">
        <ele>1981.8</ele>
        <time>2022-09-16T06:04:56Z</time>
      </trkpt>
      <trkpt lat="41.84598" lon="9.204017">
        <ele>1981.0</ele>
        <time>2022-09-16T06:05:03Z</time>
      </trkpt>
      <trkpt lat="41.846033" lon="9.204115">
        <ele>1976.6</ele>
        <time>2022-09-16T06:05:32Z</time>
      </trkpt>
      <trkpt lat="41.846065" lon="9.204148">
        <ele>1976.8</ele>
        <time>2022-09-16T06:05:55Z</time>
      </trkpt>
      <trkpt lat="41.846102" lon="9.204185">
        <ele>1974.0</ele>
        <time>2022-09-16T06:06:21Z</time>
      </trkpt>
      <trkpt lat="41.846102" lon="9.20419">
        <ele>1973.0</ele>
        <time>2022-09-16T06:06:24Z</time>
      </trkpt>
      <trkpt lat="41.846135" lon="9.204197">
        <ele>1971.4</ele>
        <time>2022-09-16T06:06:32Z</time>
      </trkpt>
      <trkpt lat="41.846162" lon="9.204208">
        <ele>1971.2</ele>
        <time>2022-09-16T06:06:36Z</time>
      </trkpt>
      <trkpt lat="41.846195" lon="9.20427">
        <ele>1969.8</ele>
        <time>2022-09-16T06:06:43Z</time>
      </trkpt>
      <trkpt lat="41.846242" lon="9.204295">
        <ele>1969.0</ele>
        <time>2022-09-16T06:06:48Z</time>
      </trkpt>
      <trkpt lat="41.846308" lon="9.204375">
        <ele>1966.8</ele>
        <time>2022-09-16T06:06:58Z</time>
      </trkpt>
      <trkpt lat="41.846353" lon="9.204375">
        <ele>1965.6</ele>
        <time>2022-09-16T06:07:07Z</time>
      </trkpt>
      <trkpt lat="41.8462" lon="9.20453">
        <ele>1960.6</ele>
        <time>2022-09-16T06:07:43Z</time>
      </trkpt>
      <trkpt lat="41.846177" lon="9.204478">
        <ele>1958.6</ele>
        <time>2022-09-16T06:07:53Z</time>
      </trkpt>
      <trkpt lat="41.846238" lon="9.204462">
        <ele>1957.6</ele>
        <time>2022-09-16T06:07:59Z</time>
      </trkpt>
      <trkpt lat="41.846195" lon="9.204473">
        <ele>1957.4</ele>
        <time>2022-09-16T06:08:05Z</time>
      </trkpt>
      <trkpt lat="41.846138" lon="9.20456">
        <ele>1956.4</ele>
        <time>2022-09-16T06:08:15Z</time>
      </trkpt>
      <trkpt lat="41.846067" lon="9.204612">
        <ele>1956.0</ele>
        <time>2022-09-16T06:08:22Z</time>
      </trkpt>
      <trkpt lat="41.846272" lon="9.20434">
        <ele>1954.4</ele>
        <time>2022-09-16T06:09:39Z</time>
      </trkpt>
      <trkpt lat="41.846337" lon="9.20434">
        <ele>1953.8</ele>
        <time>2022-09-16T06:09:53Z</time>
      </trkpt>
      <trkpt lat="41.846342" lon="9.204328">
        <ele>1953.4</ele>
        <time>2022-09-16T06:09:56Z</time>
      </trkpt>
      <trkpt lat="41.846223" lon="9.204743">
        <ele>1944.0</ele>
        <time>2022-09-16T06:11:06Z</time>
      </trkpt>
      <trkpt lat="41.84638" lon="9.204833">
        <ele>1948.0</ele>
        <time>2022-09-16T06:11:27Z</time>
      </trkpt>
      <trkpt lat="41.846435" lon="9.20485">
        <ele>1948.0</ele>
        <time>2022-09-16T06:11:33Z</time>
      </trkpt>
      <trkpt lat="41.846557" lon="9.20495">
        <ele>1947.6</ele>
        <time>2022-09-16T06:12:17Z</time>
      </trkpt>
      <trkpt lat="41.846605" lon="9.204982">
        <ele>1948.0</ele>
        <time>2022-09-16T06:12:25Z</time>
      </trkpt>
      <trkpt lat="41.846652" lon="9.205007">
        <ele>1949.2</ele>
        <time>2022-09-16T06:12:31Z</time>
      </trkpt>
      <trkpt lat="41.846735" lon="9.205108">
        <ele>1950.0</ele>
        <time>2022-09-16T06:12:41Z</time>
      </trkpt>
      <trkpt lat="41.846777" lon="9.205207">
        <ele>1950.0</ele>
        <time>2022-09-16T06:12:49Z</time>
      </trkpt>
      <trkpt lat="41.846778" lon="9.205257">
        <ele>1950.0</ele>
        <time>2022-09-16T06:12:53Z</time>
      </trkpt>
      <trkpt lat="41.846778" lon="9.205305">
        <ele>1949.6</ele>
        <time>2022-09-16T06:12:58Z</time>
      </trkpt>
      <trkpt lat="41.846808" lon="9.205455">
        <ele>1949.6</ele>
        <time>2022-09-16T06:13:09Z</time>
      </trkpt>
      <trkpt lat="41.84681" lon="9.20547">
        <ele>1949.8</ele>
        <time>2022-09-16T06:13:10Z</time>
      </trkpt>
      <trkpt lat="41.846932" lon="9.205427">
        <ele>1949.4</ele>
        <time>2022-09-16T06:13:19Z</time>
      </trkpt>
      <trkpt lat="41.846945" lon="9.20547">
        <ele>1948.4</ele>
        <time>2022-09-16T06:13:30Z</time>
      </trkpt>
      <trkpt lat="41.846595" lon="9.205643">
        <ele>1946.4</ele>
        <time>2022-09-16T06:13:42Z</time>
      </trkpt>
      <trkpt lat="41.84682" lon="9.205772">
        <ele>1946.6</ele>
        <time>2022-09-16T06:13:50Z</time>
      </trkpt>
      <trkpt lat="41.846918" lon="9.20592">
        <ele>1946.8</ele>
        <time>2022-09-16T06:13:55Z</time>
      </trkpt>
      <trkpt lat="41.847008" lon="9.206015">
        <ele>1947.6</ele>
        <time>2022-09-16T06:14:02Z</time>
      </trkpt>
      <trkpt lat="41.847067" lon="9.206073">
        <ele>1948.4</ele>
        <time>2022-09-16T06:14:07Z</time>
      </trkpt>
      <trkpt lat="41.847075" lon="9.206087">
        <ele>1948.6</ele>
        <time>2022-09-16T06:14:09Z</time>
      </trkpt>
      <trkpt lat="41.847087" lon="9.206218">
        <ele>1948.4</ele>
        <time>2022-09-16T06:14:18Z</time>
      </trkpt>
      <trkpt lat="41.8471" lon="9.206247">
        <ele>1947.4</ele>
        <time>2022-09-16T06:14:21Z</time>
      </trkpt>
      <trkpt lat="41.847147" lon="9.206285">
        <ele>1946.6</ele>
        <time>2022-09-16T06:14:28Z</time>
      </trkpt>
      <trkpt lat="41.847167" lon="9.206302">
        <ele>1946.0</ele>
        <time>2022-09-16T06:14:31Z</time>
      </trkpt>
      <trkpt lat="41.847172" lon="9.20631">
        <ele>1946.0</ele>
        <time>2022-09-16T06:14:32Z</time>
      </trkpt>
      <trkpt lat="41.847128" lon="9.206298">
        <ele>1945.4</ele>
        <time>2022-09-16T06:14:35Z</time>
      </trkpt>
      <trkpt lat="41.84703" lon="9.206242">
        <ele>1943.8</ele>
        <time>2022-09-16T06:14:42Z</time>
      </trkpt>
      <trkpt lat="41.846927" lon="9.206193">
        <ele>1942.6</ele>
        <time>2022-09-16T06:14:49Z</time>
      </trkpt>
      <trkpt lat="41.846882" lon="9.206125">
        <ele>1942.2</ele>
        <time>2022-09-16T06:14:53Z</time>
      </trkpt>
      <trkpt lat="41.846848" lon="9.206075">
        <ele>1941.6</ele>
        <time>2022-09-16T06:14:57Z</time>
      </trkpt>
      <trkpt lat="41.846752" lon="9.206027">
        <ele>1941.4</ele>
        <time>2022-09-16T06:15:04Z</time>
      </trkpt>
      <trkpt lat="41.84668" lon="9.206003">
        <ele>1941.4</ele>
        <time>2022-09-16T06:15:10Z</time>
      </trkpt>
      <trkpt lat="41.846668" lon="9.205998">
        <ele>1941.4</ele>
        <time>2022-09-16T06:15:10Z</time>
      </trkpt>
      <trkpt lat="41.846747" lon="9.206057">
        <ele>1941.2</ele>
        <time>2022-09-16T06:15:19Z</time>
      </trkpt>
      <trkpt lat="41.846853" lon="9.20611">
        <ele>1941.0</ele>
        <time>2022-09-16T06:15:30Z</time>
      </trkpt>
      <trkpt lat="41.846915" lon="9.206148">
        <ele>1940.4</ele>
        <time>2022-09-16T06:15:36Z</time>
      </trkpt>
      <trkpt lat="41.847013" lon="9.20621">
        <ele>1938.6</ele>
        <time>2022-09-16T06:15:45Z</time>
      </trkpt>
      <trkpt lat="41.847035" lon="9.206237">
        <ele>1938.0</ele>
        <time>2022-09-16T06:15:49Z</time>
      </trkpt>
      <trkpt lat="41.847077" lon="9.206237">
        <ele>1936.2</ele>
        <time>2022-09-16T06:15:57Z</time>
      </trkpt>
      <trkpt lat="41.847087" lon="9.206205">
        <ele>1934.2</ele>
        <time>2022-09-16T06:16:07Z</time>
      </trkpt>
      <trkpt lat="41.847115" lon="9.206123">
        <ele>1928.0</ele>
        <time>2022-09-16T06:16:38Z</time>
      </trkpt>
      <trkpt lat="41.847132" lon="9.206152">
        <ele>1926.4</ele>
        <time>2022-09-16T06:16:53Z</time>
      </trkpt>
      <trkpt lat="41.84712" lon="9.206495">
        <ele>1913.2</ele>
        <time>2022-09-16T06:18:57Z</time>
      </trkpt>
      <trkpt lat="41.847158" lon="9.206628">
        <ele>1911.4</ele>
        <time>2022-09-16T06:19:11Z</time>
      </trkpt>
      <trkpt lat="41.847183" lon="9.206758">
        <ele>1910.2</ele>
        <time>2022-09-16T06:19:18Z</time>
      </trkpt>
      <trkpt lat="41.847248" lon="9.206968">
        <ele>1909.2</ele>
        <time>2022-09-16T06:19:27Z</time>
      </trkpt>
      <trkpt lat="41.84728" lon="9.207067">
        <ele>1908.4</ele>
        <time>2022-09-16T06:19:31Z</time>
      </trkpt>
      <trkpt lat="41.847342" lon="9.2072">
        <ele>1907.2</ele>
        <time>2022-09-16T06:19:37Z</time>
      </trkpt>
      <trkpt lat="41.847358" lon="9.207253">
        <ele>1907.0</ele>
        <time>2022-09-16T06:19:39Z</time>
      </trkpt>
      <trkpt lat="41.847407" lon="9.207278">
        <ele>1906.2</ele>
        <time>2022-09-16T06:19:46Z</time>
      </trkpt>
      <trkpt lat="41.84745" lon="9.20727">
        <ele>1905.4</ele>
        <time>2022-09-16T06:19:52Z</time>
      </trkpt>
      <trkpt lat="41.847458" lon="9.207315">
        <ele>1905.0</ele>
        <time>2022-09-16T06:19:56Z</time>
      </trkpt>
      <trkpt lat="41.847465" lon="9.207405">
        <ele>1904.0</ele>
        <time>2022-09-16T06:20:05Z</time>
      </trkpt>
      <trkpt lat="41.847512" lon="9.207548">
        <ele>1902.8</ele>
        <time>2022-09-16T06:20:17Z</time>
      </trkpt>
      <trkpt lat="41.847518" lon="9.207585">
        <ele>1902.4</ele>
        <time>2022-09-16T06:20:19Z</time>
      </trkpt>
      <trkpt lat="41.847523" lon="9.207628">
        <ele>1902.0</ele>
        <time>2022-09-16T06:20:21Z</time>
      </trkpt>
      <trkpt lat="41.847468" lon="9.207532">
        <ele>1901.0</ele>
        <time>2022-09-16T06:20:26Z</time>
      </trkpt>
      <trkpt lat="41.847458" lon="9.20749">
        <ele>1900.6</ele>
        <time>2022-09-16T06:20:28Z</time>
      </trkpt>
      <trkpt lat="41.84746" lon="9.207472">
        <ele>1900.6</ele>
        <time>2022-09-16T06:20:28Z</time>
      </trkpt>
      <trkpt lat="41.847478" lon="9.207447">
        <ele>1899.6</ele>
        <time>2022-09-16T06:20:32Z</time>
      </trkpt>
      <trkpt lat="41.84756" lon="9.207437">
        <ele>1898.8</ele>
        <time>2022-09-16T06:20:40Z</time>
      </trkpt>
      <trkpt lat="41.847615" lon="9.207413">
        <ele>1897.8</ele>
        <time>2022-09-16T06:20:47Z</time>
      </trkpt>
      <trkpt lat="41.847618" lon="9.207402">
        <ele>1897.8</ele>
        <time>2022-09-16T06:20:48Z</time>
      </trkpt>
      <trkpt lat="41.847592" lon="9.207363">
        <ele>1897.2</ele>
        <time>2022-09-16T06:20:51Z</time>
      </trkpt>
      <trkpt lat="41.847578" lon="9.207482">
        <ele>1896.8</ele>
        <time>2022-09-16T06:20:58Z</time>
      </trkpt>
      <trkpt lat="41.847563" lon="9.207513">
        <ele>1896.4</ele>
        <time>2022-09-16T06:21:00Z</time>
      </trkpt>
      <trkpt lat="41.847495" lon="9.207537">
        <ele>1895.8</ele>
        <time>2022-09-16T06:21:05Z</time>
      </trkpt>
      <trkpt lat="41.847417" lon="9.207545">
        <ele>1894.6</ele>
        <time>2022-09-16T06:21:11Z</time>
      </trkpt>
      <trkpt lat="41.847358" lon="9.207543">
        <ele>1894.2</ele>
        <time>2022-09-16T06:21:16Z</time>
      </trkpt>
      <trkpt lat="41.847265" lon="9.207675">
        <ele>1893.2</ele>
        <time>2022-09-16T06:21:27Z</time>
      </trkpt>
      <trkpt lat="41.847227" lon="9.207692">
        <ele>1892.6</ele>
        <time>2022-09-16T06:21:30Z</time>
      </trkpt>
      <trkpt lat="41.847165" lon="9.207697">
        <ele>1891.8</ele>
        <time>2022-09-16T06:21:35Z</time>
      </trkpt>
      <trkpt lat="41.847102" lon="9.2077">
        <ele>1891.4</ele>
        <time>2022-09-16T06:21:41Z</time>
      </trkpt>
      <trkpt lat="41.84709" lon="9.207703">
        <ele>1891.0</ele>
        <time>2022-09-16T06:21:42Z</time>
      </trkpt>
      <trkpt lat="41.847092" lon="9.207733">
        <ele>1890.8</ele>
        <time>2022-09-16T06:21:47Z</time>
      </trkpt>
      <trkpt lat="41.847093" lon="9.207772">
        <ele>1890.2</ele>
        <time>2022-09-16T06:21:52Z</time>
      </trkpt>
      <trkpt lat="41.84709" lon="9.207823">
        <ele>1889.2</ele>
        <time>2022-09-16T06:21:58Z</time>
      </trkpt>
      <trkpt lat="41.847092" lon="9.20788">
        <ele>1888.8</ele>
        <time>2022-09-16T06:22:04Z</time>
      </trkpt>
      <trkpt lat="41.847078" lon="9.207913">
        <ele>1888.0</ele>
        <time>2022-09-16T06:22:08Z</time>
      </trkpt>
      <trkpt lat="41.846855" lon="9.207922">
        <ele>1882.6</ele>
        <time>2022-09-16T06:22:38Z</time>
      </trkpt>
      <trkpt lat="41.846847" lon="9.207918">
        <ele>1882.4</ele>
        <time>2022-09-16T06:22:39Z</time>
      </trkpt>
      <trkpt lat="41.846928" lon="9.207693">
        <ele>1880.8</ele>
        <time>2022-09-16T06:22:54Z</time>
      </trkpt>
      <trkpt lat="41.846953" lon="9.207567">
        <ele>1880.2</ele>
        <time>2022-09-16T06:23:02Z</time>
      </trkpt>
      <trkpt lat="41.846972" lon="9.207498">
        <ele>1879.4</ele>
        <time>2022-09-16T06:23:06Z</time>
      </trkpt>
      <trkpt lat="41.84696" lon="9.207468">
        <ele>1878.0</ele>
        <time>2022-09-16T06:23:31Z</time>
      </trkpt>
      <trkpt lat="41.84694" lon="9.207495">
        <ele>1875.6</ele>
        <time>2022-09-16T06:23:46Z</time>
      </trkpt>
      <trkpt lat="41.846923" lon="9.20747">
        <ele>1873.8</ele>
        <time>2022-09-16T06:24:02Z</time>
      </trkpt>
      <trkpt lat="41.846897" lon="9.207422">
        <ele>1875.0</ele>
        <time>2022-09-16T06:24:30Z</time>
      </trkpt>
      <trkpt lat="41.846835" lon="9.207347">
        <ele>1868.8</ele>
        <time>2022-09-16T06:25:26Z</time>
      </trkpt>
      <trkpt lat="41.846522" lon="9.207872">
        <ele>1833.6</ele>
        <time>2022-09-16T06:30:06Z</time>
      </trkpt>
      <trkpt lat="41.846503" lon="9.207913">
        <ele>1832.2</ele>
        <time>2022-09-16T06:30:11Z</time>
      </trkpt>
      <trkpt lat="41.84645" lon="9.20807">
        <ele>1830.6</ele>
        <time>2022-09-16T06:30:19Z</time>
      </trkpt>
      <trkpt lat="41.846432" lon="9.208078">
        <ele>1830.6</ele>
        <time>2022-09-16T06:30:20Z</time>
      </trkpt>
      <trkpt lat="41.846393" lon="9.208068">
        <ele>1830.2</ele>
        <time>2022-09-16T06:30:22Z</time>
      </trkpt>
      <trkpt lat="41.846285" lon="9.20804">
        <ele>1829.6</ele>
        <time>2022-09-16T06:30:47Z</time>
      </trkpt>
      <trkpt lat="41.846243" lon="9.207995">
        <ele>1821.8</ele>
        <time>2022-09-16T06:32:05Z</time>
      </trkpt>
      <trkpt lat="41.846238" lon="9.20795">
        <ele>1821.0</ele>
        <time>2022-09-16T06:32:15Z</time>
      </trkpt>
      <trkpt lat="41.846232" lon="9.207933">
        <ele>1821.0</ele>
        <time>2022-09-16T06:32:18Z</time>
      </trkpt>
      <trkpt lat="41.846158" lon="9.207958">
        <ele>1818.4</ele>
        <time>2022-09-16T06:32:31Z</time>
      </trkpt>
      <trkpt lat="41.846025" lon="9.207948">
        <ele>1814.4</ele>
        <time>2022-09-16T06:32:59Z</time>
      </trkpt>
      <trkpt lat="41.845992" lon="9.207973">
        <ele>1812.6</ele>
        <time>2022-09-16T06:33:10Z</time>
      </trkpt>
      <trkpt lat="41.845935" lon="9.20795">
        <ele>1809.8</ele>
        <time>2022-09-16T06:33:26Z</time>
      </trkpt>
      <trkpt lat="41.845892" lon="9.20798">
        <ele>1809.2</ele>
        <time>2022-09-16T06:33:32Z</time>
      </trkpt>
      <trkpt lat="41.845872" lon="9.20801">
        <ele>1809.0</ele>
        <time>2022-09-16T06:33:36Z</time>
      </trkpt>
      <trkpt lat="41.845888" lon="9.208">
        <ele>1809.0</ele>
        <time>2022-09-16T06:33:41Z</time>
      </trkpt>
      <trkpt lat="41.845918" lon="9.208033">
        <ele>1808.4</ele>
        <time>2022-09-16T06:33:49Z</time>
      </trkpt>
      <trkpt lat="41.845953" lon="9.20805">
        <ele>1808.0</ele>
        <time>2022-09-16T06:33:56Z</time>
      </trkpt>
      <trkpt lat="41.846003" lon="9.208087">
        <ele>1806.8</ele>
        <time>2022-09-16T06:34:05Z</time>
      </trkpt>
      <trkpt lat="41.846055" lon="9.208117">
        <ele>1806.2</ele>
        <time>2022-09-16T06:34:14Z</time>
      </trkpt>
      <trkpt lat="41.846105" lon="9.208162">
        <ele>1803.6</ele>
        <time>2022-09-16T06:34:26Z</time>
      </trkpt>
      <trkpt lat="41.846132" lon="9.208185">
        <ele>1802.0</ele>
        <time>2022-09-16T06:34:32Z</time>
      </trkpt>
      <trkpt lat="41.846153" lon="9.208225">
        <ele>1800.4</ele>
        <time>2022-09-16T06:34:39Z</time>
      </trkpt>
      <trkpt lat="41.846163" lon="9.20829">
        <ele>1799.4</ele>
        <time>2022-09-16T06:34:48Z</time>
      </trkpt>
      <trkpt lat="41.846173" lon="9.20834">
        <ele>1797.8</ele>
        <time>2022-09-16T06:34:56Z</time>
      </trkpt>
      <trkpt lat="41.846173" lon="9.208348">
        <ele>1797.0</ele>
        <time>2022-09-16T06:34:58Z</time>
      </trkpt>
      <trkpt lat="41.846112" lon="9.208385">
        <ele>1796.4</ele>
        <time>2022-09-16T06:35:05Z</time>
      </trkpt>
      <trkpt lat="41.846065" lon="9.208428">
        <ele>1796.0</ele>
        <time>2022-09-16T06:35:11Z</time>
      </trkpt>
      <trkpt lat="41.846018" lon="9.208438">
        <ele>1795.4</ele>
        <time>2022-09-16T06:35:14Z</time>
      </trkpt>
      <trkpt lat="41.845572" lon="9.208168">
        <ele>1794.8</ele>
        <time>2022-09-16T06:35:34Z</time>
      </trkpt>
      <trkpt lat="41.845565" lon="9.208175">
        <ele>1794.4</ele>
        <time>2022-09-16T06:35:36Z</time>
      </trkpt>
      <trkpt lat="41.845518" lon="9.208208">
        <ele>1792.8</ele>
        <time>2022-09-16T06:35:43Z</time>
      </trkpt>
      <trkpt lat="41.845477" lon="9.208193">
        <ele>1791.4</ele>
        <time>2022-09-16T06:35:51Z</time>
      </trkpt>
      <trkpt lat="41.845433" lon="9.208232">
        <ele>1788.8</ele>
        <time>2022-09-16T06:36:07Z</time>
      </trkpt>
      <trkpt lat="41.845423" lon="9.20825">
        <ele>1786.2</ele>
        <time>2022-09-16T06:36:21Z</time>
      </trkpt>
      <trkpt lat="41.845398" lon="9.208233">
        <ele>1783.2</ele>
        <time>2022-09-16T06:36:47Z</time>
      </trkpt>
      <trkpt lat="41.845367" lon="9.208235">
        <ele>1774.6</ele>
        <time>2022-09-16T06:37:34Z</time>
      </trkpt>
      <trkpt lat="41.845328" lon="9.208235">
        <ele>1773.8</ele>
        <time>2022-09-16T06:37:43Z</time>
      </trkpt>
      <trkpt lat="41.845273" lon="9.208315">
        <ele>1773.2</ele>
        <time>2022-09-16T06:37:54Z</time>
      </trkpt>
      <trkpt lat="41.845153" lon="9.208372">
        <ele>1770.4</ele>
        <time>2022-09-16T06:38:13Z</time>
      </trkpt>
      <trkpt lat="41.845143" lon="9.20845">
        <ele>1766.8</ele>
        <time>2022-09-16T06:38:27Z</time>
      </trkpt>
      <trkpt lat="41.845143" lon="9.20848">
        <ele>1766.4</ele>
        <time>2022-09-16T06:38:31Z</time>
      </trkpt>
      <trkpt lat="41.845118" lon="9.208503">
        <ele>1765.8</ele>
        <time>2022-09-16T06:38:37Z</time>
      </trkpt>
      <trkpt lat="41.845067" lon="9.20853">
        <ele>1764.6</ele>
        <time>2022-09-16T06:38:50Z</time>
      </trkpt>
      <trkpt lat="41.845025" lon="9.20853">
        <ele>1763.6</ele>
        <time>2022-09-16T06:39:02Z</time>
      </trkpt>
      <trkpt lat="41.84502" lon="9.208565">
        <ele>1763.4</ele>
        <time>2022-09-16T06:39:10Z</time>
      </trkpt>
      <trkpt lat="41.845015" lon="9.208593">
        <ele>1762.8</ele>
        <time>2022-09-16T06:39:18Z</time>
      </trkpt>
      <trkpt lat="41.845" lon="9.208588">
        <ele>1761.8</ele>
        <time>2022-09-16T06:39:26Z</time>
      </trkpt>
      <trkpt lat="41.844992" lon="9.208558">
        <ele>1760.6</ele>
        <time>2022-09-16T06:39:36Z</time>
      </trkpt>
      <trkpt lat="41.844973" lon="9.2086">
        <ele>1755.6</ele>
        <time>2022-09-16T06:39:59Z</time>
      </trkpt>
      <trkpt lat="41.844972" lon="9.208602">
        <ele>1755.4</ele>
        <time>2022-09-16T06:40:01Z</time>
      </trkpt>
      <trkpt lat="41.844937" lon="9.208688">
        <ele>1740.6</ele>
        <time>2022-09-16T06:41:36Z</time>
      </trkpt>
      <trkpt lat="41.844785" lon="9.208673">
        <ele>1732.0</ele>
        <time>2022-09-16T06:42:19Z</time>
      </trkpt>
      <trkpt lat="41.844818" lon="9.208703">
        <ele>1731.2</ele>
        <time>2022-09-16T06:42:26Z</time>
      </trkpt>
      <trkpt lat="41.84484" lon="9.208753">
        <ele>1730.4</ele>
        <time>2022-09-16T06:42:32Z</time>
      </trkpt>
      <trkpt lat="41.844867" lon="9.208773">
        <ele>1729.8</ele>
        <time>2022-09-16T06:42:37Z</time>
      </trkpt>
      <trkpt lat="41.84484" lon="9.208805">
        <ele>1729.4</ele>
        <time>2022-09-16T06:42:42Z</time>
      </trkpt>
      <trkpt lat="41.844787" lon="9.208852">
        <ele>1729.0</ele>
        <time>2022-09-16T06:42:51Z</time>
      </trkpt>
      <trkpt lat="41.844763" lon="9.208893">
        <ele>1728.6</ele>
        <time>2022-09-16T06:42:57Z</time>
      </trkpt>
      <trkpt lat="41.844763" lon="9.20893">
        <ele>1726.8</ele>
        <time>2022-09-16T06:43:05Z</time>
      </trkpt>
      <trkpt lat="41.844692" lon="9.20901">
        <ele>1724.8</ele>
        <time>2022-09-16T06:43:19Z</time>
      </trkpt>
      <trkpt lat="41.84469" lon="9.209017">
        <ele>1724.2</ele>
        <time>2022-09-16T06:43:20Z</time>
      </trkpt>
      <trkpt lat="41.84466" lon="9.208993">
        <ele>1723.0</ele>
        <time>2022-09-16T06:43:28Z</time>
      </trkpt>
      <trkpt lat="41.844647" lon="9.208967">
        <ele>1722.4</ele>
        <time>2022-09-16T06:43:35Z</time>
      </trkpt>
      <trkpt lat="41.844607" lon="9.208977">
        <ele>1720.8</ele>
        <time>2022-09-16T06:43:47Z</time>
      </trkpt>
      <trkpt lat="41.84458" lon="9.208965">
        <ele>1720.0</ele>
        <time>2022-09-16T06:43:56Z</time>
      </trkpt>
      <trkpt lat="41.84459" lon="9.20892">
        <ele>1718.6</ele>
        <time>2022-09-16T06:44:03Z</time>
      </trkpt>
      <trkpt lat="41.844598" lon="9.208893">
        <ele>1718.2</ele>
        <time>2022-09-16T06:44:07Z</time>
      </trkpt>
      <trkpt lat="41.844593" lon="9.208842">
        <ele>1717.2</ele>
        <time>2022-09-16T06:44:14Z</time>
      </trkpt>
      <trkpt lat="41.8445" lon="9.209053">
        <ele>1714.0</ele>
        <time>2022-09-16T06:44:32Z</time>
      </trkpt>
      <trkpt lat="41.844445" lon="9.2089">
        <ele>1712.4</ele>
        <time>2022-09-16T06:44:43Z</time>
      </trkpt>
      <trkpt lat="41.844625" lon="9.208888">
        <ele>1711.6</ele>
        <time>2022-09-16T06:44:53Z</time>
      </trkpt>
      <trkpt lat="41.844388" lon="9.209082">
        <ele>1710.2</ele>
        <time>2022-09-16T06:45:03Z</time>
      </trkpt>
      <trkpt lat="41.844365" lon="9.209132">
        <ele>1710.2</ele>
        <time>2022-09-16T06:45:03Z</time>
      </trkpt>
      <trkpt lat="41.844338" lon="9.209178">
        <ele>1709.8</ele>
        <time>2022-09-16T06:45:07Z</time>
      </trkpt>
      <trkpt lat="41.84436" lon="9.2093">
        <ele>1708.0</ele>
        <time>2022-09-16T06:45:16Z</time>
      </trkpt>
      <trkpt lat="41.844363" lon="9.209428">
        <ele>1706.6</ele>
        <time>2022-09-16T06:45:26Z</time>
      </trkpt>
      <trkpt lat="41.844358" lon="9.209452">
        <ele>1706.0</ele>
        <time>2022-09-16T06:45:28Z</time>
      </trkpt>
      <trkpt lat="41.844425" lon="9.209473">
        <ele>1704.8</ele>
        <time>2022-09-16T06:45:40Z</time>
      </trkpt>
      <trkpt lat="41.84443" lon="9.209488">
        <ele>1704.2</ele>
        <time>2022-09-16T06:45:45Z</time>
      </trkpt>
      <trkpt lat="41.844418" lon="9.2095">
        <ele>1704.2</ele>
        <time>2022-09-16T06:45:52Z</time>
      </trkpt>
      <trkpt lat="41.844397" lon="9.209495">
        <ele>1704.0</ele>
        <time>2022-09-16T06:45:57Z</time>
      </trkpt>
      <trkpt lat="41.84439" lon="9.209492">
        <ele>1703.8</ele>
        <time>2022-09-16T06:45:58Z</time>
      </trkpt>
      <trkpt lat="41.844368" lon="9.209532">
        <ele>1703.4</ele>
        <time>2022-09-16T06:46:03Z</time>
      </trkpt>
      <trkpt lat="41.844342" lon="9.20955">
        <ele>1703.4</ele>
        <time>2022-09-16T06:46:07Z</time>
      </trkpt>
      <trkpt lat="41.844313" lon="9.209565">
        <ele>1703.2</ele>
        <time>2022-09-16T06:46:11Z</time>
      </trkpt>
      <trkpt lat="41.844323" lon="9.209642">
        <ele>1702.4</ele>
        <time>2022-09-16T06:46:19Z</time>
      </trkpt>
      <trkpt lat="41.844335" lon="9.209732">
        <ele>1702.8</ele>
        <time>2022-09-16T06:46:28Z</time>
      </trkpt>
      <trkpt lat="41.844335" lon="9.209773">
        <ele>1702.8</ele>
        <time>2022-09-16T06:46:32Z</time>
      </trkpt>
      <trkpt lat="41.844258" lon="9.20987">
        <ele>1700.8</ele>
        <time>2022-09-16T06:46:46Z</time>
      </trkpt>
      <trkpt lat="41.84425" lon="9.20987">
        <ele>1700.8</ele>
        <time>2022-09-16T06:46:48Z</time>
      </trkpt>
      <trkpt lat="41.844208" lon="9.209892">
        <ele>1700.8</ele>
        <time>2022-09-16T06:46:53Z</time>
      </trkpt>
      <trkpt lat="41.844197" lon="9.209947">
        <ele>1700.2</ele>
        <time>2022-09-16T06:46:58Z</time>
      </trkpt>
      <trkpt lat="41.844178" lon="9.210073">
        <ele>1699.4</ele>
        <time>2022-09-16T06:47:10Z</time>
      </trkpt>
      <trkpt lat="41.844145" lon="9.210113">
        <ele>1699.0</ele>
        <time>2022-09-16T06:47:16Z</time>
      </trkpt>
      <trkpt lat="41.844103" lon="9.210152">
        <ele>1698.0</ele>
        <time>2022-09-16T06:47:23Z</time>
      </trkpt>
      <trkpt lat="41.84401" lon="9.210247">
        <ele>1694.0</ele>
        <time>2022-09-16T06:47:42Z</time>
      </trkpt>
      <trkpt lat="41.84408" lon="9.210168">
        <ele>1692.2</ele>
        <time>2022-09-16T06:47:51Z</time>
      </trkpt>
      <trkpt lat="41.843878" lon="9.21017">
        <ele>1676.2</ele>
        <time>2022-09-16T06:51:32Z</time>
      </trkpt>
      <trkpt lat="41.84373" lon="9.210422">
        <ele>1676.8</ele>
        <time>2022-09-16T06:51:42Z</time>
      </trkpt>
      <trkpt lat="41.843728" lon="9.210433">
        <ele>1676.4</ele>
        <time>2022-09-16T06:51:45Z</time>
      </trkpt>
      <trkpt lat="41.843705" lon="9.210508">
        <ele>1676.4</ele>
        <time>2022-09-16T06:51:50Z</time>
      </trkpt>
      <trkpt lat="41.84366" lon="9.210628">
        <ele>1675.2</ele>
        <time>2022-09-16T06:51:57Z</time>
      </trkpt>
      <trkpt lat="41.84359" lon="9.210762">
        <ele>1674.0</ele>
        <time>2022-09-16T06:52:06Z</time>
      </trkpt>
      <trkpt lat="41.843488" lon="9.210915">
        <ele>1672.6</ele>
        <time>2022-09-16T06:52:19Z</time>
      </trkpt>
      <trkpt lat="41.843478" lon="9.210917">
        <ele>1672.0</ele>
        <time>2022-09-16T06:52:21Z</time>
      </trkpt>
      <trkpt lat="41.84342" lon="9.210772">
        <ele>1669.4</ele>
        <time>2022-09-16T06:52:39Z</time>
      </trkpt>
      <trkpt lat="41.843423" lon="9.210798">
        <ele>1669.2</ele>
        <time>2022-09-16T06:52:43Z</time>
      </trkpt>
      <trkpt lat="41.84344" lon="9.210842">
        <ele>1668.4</ele>
        <time>2022-09-16T06:52:47Z</time>
      </trkpt>
      <trkpt lat="41.843458" lon="9.210847">
        <ele>1667.8</ele>
        <time>2022-09-16T06:52:50Z</time>
      </trkpt>
      <trkpt lat="41.84353" lon="9.210893">
        <ele>1667.4</ele>
        <time>2022-09-16T06:52:56Z</time>
      </trkpt>
      <trkpt lat="41.843558" lon="9.210898">
        <ele>1667.4</ele>
        <time>2022-09-16T06:52:58Z</time>
      </trkpt>
      <trkpt lat="41.84363" lon="9.210892">
        <ele>1666.6</ele>
        <time>2022-09-16T06:53:03Z</time>
      </trkpt>
      <trkpt lat="41.84367" lon="9.21092">
        <ele>1666.0</ele>
        <time>2022-09-16T06:53:06Z</time>
      </trkpt>
      <trkpt lat="41.843702" lon="9.210967">
        <ele>1665.8</ele>
        <time>2022-09-16T06:53:09Z</time>
      </trkpt>
      <trkpt lat="41.843705" lon="9.211077">
        <ele>1664.2</ele>
        <time>2022-09-16T06:53:15Z</time>
      </trkpt>
      <trkpt lat="41.843708" lon="9.211117">
        <ele>1663.8</ele>
        <time>2022-09-16T06:53:17Z</time>
      </trkpt>
      <trkpt lat="41.843678" lon="9.21114">
        <ele>1663.8</ele>
        <time>2022-09-16T06:53:18Z</time>
      </trkpt>
      <trkpt lat="41.84358" lon="9.211233">
        <ele>1663.8</ele>
        <time>2022-09-16T06:53:25Z</time>
      </trkpt>
      <trkpt lat="41.843545" lon="9.21125">
        <ele>1663.4</ele>
        <time>2022-09-16T06:53:27Z</time>
      </trkpt>
      <trkpt lat="41.843492" lon="9.211257">
        <ele>1662.6</ele>
        <time>2022-09-16T06:53:31Z</time>
      </trkpt>
      <trkpt lat="41.843385" lon="9.211242">
        <ele>1662.6</ele>
        <time>2022-09-16T06:53:37Z</time>
      </trkpt>
      <trkpt lat="41.843312" lon="9.211175">
        <ele>1660.8</ele>
        <time>2022-09-16T06:53:43Z</time>
      </trkpt>
      <trkpt lat="41.843207" lon="9.211037">
        <ele>1659.8</ele>
        <time>2022-09-16T06:53:55Z</time>
      </trkpt>
      <trkpt lat="41.843167" lon="9.210982">
        <ele>1659.4</ele>
        <time>2022-09-16T06:54:00Z</time>
      </trkpt>
      <trkpt lat="41.843113" lon="9.210958">
        <ele>1660.6</ele>
        <time>2022-09-16T06:54:05Z</time>
      </trkpt>
      <trkpt lat="41.84308" lon="9.210938">
        <ele>1660.6</ele>
        <time>2022-09-16T06:54:08Z</time>
      </trkpt>
      <trkpt lat="41.843075" lon="9.210918">
        <ele>1659.2</ele>
        <time>2022-09-16T06:54:10Z</time>
      </trkpt>
      <trkpt lat="41.843035" lon="9.21088">
        <ele>1656.8</ele>
        <time>2022-09-16T06:54:17Z</time>
      </trkpt>
      <trkpt lat="41.843022" lon="9.210878">
        <ele>1657.0</ele>
        <time>2022-09-16T06:54:19Z</time>
      </trkpt>
      <trkpt lat="41.842987" lon="9.210973">
        <ele>1657.0</ele>
        <time>2022-09-16T06:54:30Z</time>
      </trkpt>
      <trkpt lat="41.84299" lon="9.211035">
        <ele>1657.4</ele>
        <time>2022-09-16T06:54:37Z</time>
      </trkpt>
      <trkpt lat="41.842972" lon="9.211027">
        <ele>1655.0</ele>
        <time>2022-09-16T06:54:42Z</time>
      </trkpt>
      <trkpt lat="41.842962" lon="9.210983">
        <ele>1651.8</ele>
        <time>2022-09-16T06:54:50Z</time>
      </trkpt>
      <trkpt lat="41.84295" lon="9.210937">
        <ele>1650.6</ele>
        <time>2022-09-16T06:55:00Z</time>
      </trkpt>
      <trkpt lat="41.842945" lon="9.21096">
        <ele>1652.6</ele>
        <time>2022-09-16T06:55:07Z</time>
      </trkpt>
      <trkpt lat="41.842947" lon="9.210993">
        <ele>1650.6</ele>
        <time>2022-09-16T06:55:14Z</time>
      </trkpt>
      <trkpt lat="41.842925" lon="9.211008">
        <ele>1650.4</ele>
        <time>2022-09-16T06:55:24Z</time>
      </trkpt>
      <trkpt lat="41.842922" lon="9.211008">
        <ele>1650.4</ele>
        <time>2022-09-16T06:55:25Z</time>
      </trkpt>
      <trkpt lat="41.842875" lon="9.211022">
        <ele>1648.4</ele>
        <time>2022-09-16T06:55:33Z</time>
      </trkpt>
      <trkpt lat="41.842825" lon="9.211065">
        <ele>1646.6</ele>
        <time>2022-09-16T06:55:43Z</time>
      </trkpt>
      <trkpt lat="41.842805" lon="9.211058">
        <ele>1646.2</ele>
        <time>2022-09-16T06:55:47Z</time>
      </trkpt>
      <trkpt lat="41.842772" lon="9.210997">
        <ele>1644.0</ele>
        <time>2022-09-16T06:56:00Z</time>
      </trkpt>
      <trkpt lat="41.842752" lon="9.210998">
        <ele>1642.6</ele>
        <time>2022-09-16T06:56:07Z</time>
      </trkpt>
      <trkpt lat="41.842733" lon="9.211022">
        <ele>1641.4</ele>
        <time>2022-09-16T06:56:13Z</time>
      </trkpt>
      <trkpt lat="41.842712" lon="9.211003">
        <ele>1640.0</ele>
        <time>2022-09-16T06:56:20Z</time>
      </trkpt>
      <trkpt lat="41.842692" lon="9.210983">
        <ele>1639.2</ele>
        <time>2022-09-16T06:56:26Z</time>
      </trkpt>
      <trkpt lat="41.842652" lon="9.210988">
        <ele>1638.2</ele>
        <time>2022-09-16T06:56:37Z</time>
      </trkpt>
      <trkpt lat="41.842638" lon="9.210953">
        <ele>1634.8</ele>
        <time>2022-09-16T06:56:50Z</time>
      </trkpt>
      <trkpt lat="41.84259" lon="9.210942">
        <ele>1630.4</ele>
        <time>2022-09-16T06:57:14Z</time>
      </trkpt>
      <trkpt lat="41.842587" lon="9.210908">
        <ele>1628.2</ele>
        <time>2022-09-16T06:57:32Z</time>
      </trkpt>
      <trkpt lat="41.842598" lon="9.210882">
        <ele>1627.4</ele>
        <time>2022-09-16T06:57:43Z</time>
      </trkpt>
      <trkpt lat="41.84265" lon="9.21085">
        <ele>1626.0</ele>
        <time>2022-09-16T06:57:57Z</time>
      </trkpt>
      <trkpt lat="41.842652" lon="9.21085">
        <ele>1626.0</ele>
        <time>2022-09-16T06:57:57Z</time>
      </trkpt>
      <trkpt lat="41.842623" lon="9.21088">
        <ele>1626.4</ele>
        <time>2022-09-16T06:58:11Z</time>
      </trkpt>
      <trkpt lat="41.842415" lon="9.211295">
        <ele>1605.2</ele>
        <time>2022-09-16T07:00:57Z</time>
      </trkpt>
      <trkpt lat="41.842548" lon="9.211215">
        <ele>1599.4</ele>
        <time>2022-09-16T07:01:49Z</time>
      </trkpt>
      <trkpt lat="41.842458" lon="9.211198">
        <ele>1597.8</ele>
        <time>2022-09-16T07:02:04Z</time>
      </trkpt>
      <trkpt lat="41.842365" lon="9.211148">
        <ele>1598.0</ele>
        <time>2022-09-16T07:02:15Z</time>
      </trkpt>
      <trkpt lat="41.84233" lon="9.211107">
        <ele>1597.4</ele>
        <time>2022-09-16T07:02:21Z</time>
      </trkpt>
      <trkpt lat="41.842308" lon="9.211072">
        <ele>1597.6</ele>
        <time>2022-09-16T07:02:27Z</time>
      </trkpt>
      <trkpt lat="41.842283" lon="9.211112">
        <ele>1595.4</ele>
        <time>2022-09-16T07:02:34Z</time>
      </trkpt>
      <trkpt lat="41.842265" lon="9.211148">
        <ele>1593.8</ele>
        <time>2022-09-16T07:02:40Z</time>
      </trkpt>
      <trkpt lat="41.842272" lon="9.211247">
        <ele>1590.8</ele>
        <time>2022-09-16T07:02:48Z</time>
      </trkpt>
      <trkpt lat="41.842275" lon="9.211273">
        <ele>1590.8</ele>
        <time>2022-09-16T07:02:50Z</time>
      </trkpt>
      <trkpt lat="41.842252" lon="9.211265">
        <ele>1589.2</ele>
        <time>2022-09-16T07:02:55Z</time>
      </trkpt>
      <trkpt lat="41.842212" lon="9.211198">
        <ele>1588.0</ele>
        <time>2022-09-16T07:03:07Z</time>
      </trkpt>
      <trkpt lat="41.84219" lon="9.211202">
        <ele>1587.8</ele>
        <time>2022-09-16T07:03:11Z</time>
      </trkpt>
      <trkpt lat="41.84216" lon="9.211223">
        <ele>1587.0</ele>
        <time>2022-09-16T07:03:17Z</time>
      </trkpt>
      <trkpt lat="41.842118" lon="9.211162">
        <ele>1586.6</ele>
        <time>2022-09-16T07:03:28Z</time>
      </trkpt>
      <trkpt lat="41.84209" lon="9.21119">
        <ele>1585.0</ele>
        <time>2022-09-16T07:03:35Z</time>
      </trkpt>
      <trkpt lat="41.842065" lon="9.211295">
        <ele>1583.6</ele>
        <time>2022-09-16T07:03:50Z</time>
      </trkpt>
      <trkpt lat="41.842047" lon="9.211312">
        <ele>1582.2</ele>
        <time>2022-09-16T07:03:56Z</time>
      </trkpt>
      <trkpt lat="41.842002" lon="9.211303">
        <ele>1581.2</ele>
        <time>2022-09-16T07:04:06Z</time>
      </trkpt>
      <trkpt lat="41.84196" lon="9.21133">
        <ele>1580.8</ele>
        <time>2022-09-16T07:04:16Z</time>
      </trkpt>
      <trkpt lat="41.841928" lon="9.211385">
        <ele>1578.4</ele>
        <time>2022-09-16T07:04:32Z</time>
      </trkpt>
      <trkpt lat="41.84193" lon="9.21139">
        <ele>1578.2</ele>
        <time>2022-09-16T07:04:33Z</time>
      </trkpt>
      <trkpt lat="41.841982" lon="9.211425">
        <ele>1577.2</ele>
        <time>2022-09-16T07:04:45Z</time>
      </trkpt>
      <trkpt lat="41.84198" lon="9.211458">
        <ele>1576.4</ele>
        <time>2022-09-16T07:04:53Z</time>
      </trkpt>
      <trkpt lat="41.841975" lon="9.211437">
        <ele>1576.0</ele>
        <time>2022-09-16T07:04:58Z</time>
      </trkpt>
      <trkpt lat="41.842023" lon="9.211195">
        <ele>1575.0</ele>
        <time>2022-09-16T07:05:30Z</time>
      </trkpt>
      <trkpt lat="41.842028" lon="9.211202">
        <ele>1575.0</ele>
        <time>2022-09-16T07:05:31Z</time>
      </trkpt>
      <trkpt lat="41.842048" lon="9.211272">
        <ele>1575.0</ele>
        <time>2022-09-16T07:05:42Z</time>
      </trkpt>
      <trkpt lat="41.84194" lon="9.211335">
        <ele>1575.0</ele>
        <time>2022-09-16T07:05:53Z</time>
      </trkpt>
      <trkpt lat="41.841928" lon="9.21134">
        <ele>1574.6</ele>
        <time>2022-09-16T07:05:54Z</time>
      </trkpt>
      <trkpt lat="41.841953" lon="9.211362">
        <ele>1574.0</ele>
        <time>2022-09-16T07:06:01Z</time>
      </trkpt>
      <trkpt lat="41.841987" lon="9.211377">
        <ele>1573.2</ele>
        <time>2022-09-16T07:06:09Z</time>
      </trkpt>
      <trkpt lat="41.842045" lon="9.211435">
        <ele>1571.4</ele>
        <time>2022-09-16T07:06:23Z</time>
      </trkpt>
      <trkpt lat="41.842118" lon="9.211498">
        <ele>1569.4</ele>
        <time>2022-09-16T07:06:44Z</time>
      </trkpt>
      <trkpt lat="41.84212" lon="9.211503">
        <ele>1569.4</ele>
        <time>2022-09-16T07:06:44Z</time>
      </trkpt>
      <trkpt lat="41.842068" lon="9.211518">
        <ele>1568.4</ele>
        <time>2022-09-16T07:06:53Z</time>
      </trkpt>
      <trkpt lat="41.841968" lon="9.211455">
        <ele>1565.2</ele>
        <time>2022-09-16T07:07:07Z</time>
      </trkpt>
      <trkpt lat="41.841903" lon="9.211473">
        <ele>1563.2</ele>
        <time>2022-09-16T07:07:21Z</time>
      </trkpt>
      <trkpt lat="41.841833" lon="9.211595">
        <ele>1560.2</ele>
        <time>2022-09-16T07:07:55Z</time>
      </trkpt>
      <trkpt lat="41.841765" lon="9.211685">
        <ele>1558.8</ele>
        <time>2022-09-16T07:08:05Z</time>
      </trkpt>
      <trkpt lat="41.84169" lon="9.211822">
        <ele>1557.0</ele>
        <time>2022-09-16T07:08:17Z</time>
      </trkpt>
      <trkpt lat="41.84166" lon="9.211897">
        <ele>1556.4</ele>
        <time>2022-09-16T07:08:23Z</time>
      </trkpt>
      <trkpt lat="41.841638" lon="9.211927">
        <ele>1556.4</ele>
        <time>2022-09-16T07:08:26Z</time>
      </trkpt>
      <trkpt lat="41.841623" lon="9.21196">
        <ele>1554.8</ele>
        <time>2022-09-16T07:08:30Z</time>
      </trkpt>
      <trkpt lat="41.841587" lon="9.21201">
        <ele>1553.8</ele>
        <time>2022-09-16T07:08:37Z</time>
      </trkpt>
      <trkpt lat="41.841573" lon="9.212093">
        <ele>1553.4</ele>
        <time>2022-09-16T07:08:45Z</time>
      </trkpt>
      <trkpt lat="41.841582" lon="9.212295">
        <ele>1552.8</ele>
        <time>2022-09-16T07:09:01Z</time>
      </trkpt>
      <trkpt lat="41.841595" lon="9.212322">
        <ele>1552.2</ele>
        <time>2022-09-16T07:09:04Z</time>
      </trkpt>
      <trkpt lat="41.841657" lon="9.212327">
        <ele>1552.2</ele>
        <time>2022-09-16T07:09:13Z</time>
      </trkpt>
      <trkpt lat="41.841695" lon="9.212368">
        <ele>1552.0</ele>
        <time>2022-09-16T07:09:21Z</time>
      </trkpt>
      <trkpt lat="41.84176" lon="9.2124">
        <ele>1548.8</ele>
        <time>2022-09-16T07:09:33Z</time>
      </trkpt>
      <trkpt lat="41.841788" lon="9.212448">
        <ele>1547.0</ele>
        <time>2022-09-16T07:09:43Z</time>
      </trkpt>
      <trkpt lat="41.841803" lon="9.212465">
        <ele>1546.6</ele>
        <time>2022-09-16T07:09:47Z</time>
      </trkpt>
      <trkpt lat="41.841827" lon="9.21252">
        <ele>1546.4</ele>
        <time>2022-09-16T07:09:53Z</time>
      </trkpt>
      <trkpt lat="41.841835" lon="9.212722">
        <ele>1543.4</ele>
        <time>2022-09-16T07:10:14Z</time>
      </trkpt>
      <trkpt lat="41.841868" lon="9.21279">
        <ele>1542.0</ele>
        <time>2022-09-16T07:10:26Z</time>
      </trkpt>
      <trkpt lat="41.841873" lon="9.212812">
        <ele>1541.6</ele>
        <time>2022-09-16T07:10:29Z</time>
      </trkpt>
      <trkpt lat="41.841867" lon="9.21286">
        <ele>1539.4</ele>
        <time>2022-09-16T07:10:37Z</time>
      </trkpt>
      <trkpt lat="41.84183" lon="9.212933">
        <ele>1538.0</ele>
        <time>2022-09-16T07:10:49Z</time>
      </trkpt>
      <trkpt lat="41.841832" lon="9.212978">
        <ele>1537.0</ele>
        <time>2022-09-16T07:10:58Z</time>
      </trkpt>
      <trkpt lat="41.841843" lon="9.21304">
        <ele>1535.8</ele>
        <time>2022-09-16T07:11:14Z</time>
      </trkpt>
      <trkpt lat="41.841845" lon="9.213053">
        <ele>1535.8</ele>
        <time>2022-09-16T07:11:17Z</time>
      </trkpt>
      <trkpt lat="41.841857" lon="9.213098">
        <ele>1537.2</ele>
        <time>2022-09-16T07:11:23Z</time>
      </trkpt>
      <trkpt lat="41.841862" lon="9.213188">
        <ele>1537.0</ele>
        <time>2022-09-16T07:11:34Z</time>
      </trkpt>
      <trkpt lat="41.841882" lon="9.213268">
        <ele>1536.4</ele>
        <time>2022-09-16T07:11:48Z</time>
      </trkpt>
      <trkpt lat="41.841895" lon="9.213323">
        <ele>1536.6</ele>
        <time>2022-09-16T07:12:01Z</time>
      </trkpt>
      <trkpt lat="41.84189" lon="9.213367">
        <ele>1535.4</ele>
        <time>2022-09-16T07:12:06Z</time>
      </trkpt>
      <trkpt lat="41.841907" lon="9.213427">
        <ele>1534.4</ele>
        <time>2022-09-16T07:12:13Z</time>
      </trkpt>
      <trkpt lat="41.841932" lon="9.213493">
        <ele>1534.4</ele>
        <time>2022-09-16T07:12:22Z</time>
      </trkpt>
      <trkpt lat="41.841927" lon="9.21359">
        <ele>1532.0</ele>
        <time>2022-09-16T07:12:35Z</time>
      </trkpt>
      <trkpt lat="41.841897" lon="9.213802">
        <ele>1528.6</ele>
        <time>2022-09-16T07:13:27Z</time>
      </trkpt>
      <trkpt lat="41.8418" lon="9.213862">
        <ele>1523.6</ele>
        <time>2022-09-16T07:13:56Z</time>
      </trkpt>
      <trkpt lat="41.841763" lon="9.213893">
        <ele>1522.8</ele>
        <time>2022-09-16T07:14:02Z</time>
      </trkpt>
      <trkpt lat="41.841723" lon="9.21391">
        <ele>1522.8</ele>
        <time>2022-09-16T07:14:06Z</time>
      </trkpt>
      <trkpt lat="41.841697" lon="9.213975">
        <ele>1522.6</ele>
        <time>2022-09-16T07:14:11Z</time>
      </trkpt>
      <trkpt lat="41.84169" lon="9.21416">
        <ele>1522.0</ele>
        <time>2022-09-16T07:14:23Z</time>
      </trkpt>
      <trkpt lat="41.84165" lon="9.214218">
        <ele>1520.8</ele>
        <time>2022-09-16T07:14:36Z</time>
      </trkpt>
      <trkpt lat="41.841598" lon="9.214197">
        <ele>1520.6</ele>
        <time>2022-09-16T07:14:49Z</time>
      </trkpt>
      <trkpt lat="41.841545" lon="9.214153">
        <ele>1519.2</ele>
        <time>2022-09-16T07:15:03Z</time>
      </trkpt>
      <trkpt lat="41.841532" lon="9.214145">
        <ele>1518.6</ele>
        <time>2022-09-16T07:15:06Z</time>
      </trkpt>
      <trkpt lat="41.841512" lon="9.214105">
        <ele>1517.2</ele>
        <time>2022-09-16T07:15:14Z</time>
      </trkpt>
      <trkpt lat="41.841478" lon="9.214102">
        <ele>1517.0</ele>
        <time>2022-09-16T07:15:19Z</time>
      </trkpt>
      <trkpt lat="41.841455" lon="9.21411">
        <ele>1516.2</ele>
        <time>2022-09-16T07:15:23Z</time>
      </trkpt>
      <trkpt lat="41.84119" lon="9.214513">
        <ele>1512.6</ele>
        <time>2022-09-16T07:18:14Z</time>
      </trkpt>
      <trkpt lat="41.841215" lon="9.21447">
        <ele>1513.0</ele>
        <time>2022-09-16T07:18:28Z</time>
      </trkpt>
      <trkpt lat="41.841193" lon="9.214438">
        <ele>1513.8</ele>
        <time>2022-09-16T07:18:41Z</time>
      </trkpt>
      <trkpt lat="41.841172" lon="9.214435">
        <ele>1513.8</ele>
        <time>2022-09-16T07:18:49Z</time>
      </trkpt>
      <trkpt lat="41.84113" lon="9.214435">
        <ele>1513.2</ele>
        <time>2022-09-16T07:18:56Z</time>
      </trkpt>
      <trkpt lat="41.84109" lon="9.214405">
        <ele>1513.6</ele>
        <time>2022-09-16T07:19:07Z</time>
      </trkpt>
      <trkpt lat="41.841083" lon="9.214365">
        <ele>1513.6</ele>
        <time>2022-09-16T07:19:18Z</time>
      </trkpt>
      <trkpt lat="41.841075" lon="9.214312">
        <ele>1514.8</ele>
        <time>2022-09-16T07:19:41Z</time>
      </trkpt>
      <trkpt lat="41.8411" lon="9.214313">
        <ele>1515.4</ele>
        <time>2022-09-16T07:19:48Z</time>
      </trkpt>
      <trkpt lat="41.841148" lon="9.214365">
        <ele>1513.4</ele>
        <time>2022-09-16T07:20:00Z</time>
      </trkpt>
      <trkpt lat="41.841163" lon="9.21438">
        <ele>1512.8</ele>
        <time>2022-09-16T07:20:04Z</time>
      </trkpt>
      <trkpt lat="41.841152" lon="9.214347">
        <ele>1515.2</ele>
        <time>2022-09-16T07:20:47Z</time>
      </trkpt>
      <trkpt lat="41.841113" lon="9.214338">
        <ele>1513.6</ele>
        <time>2022-09-16T07:21:09Z</time>
      </trkpt>
      <trkpt lat="41.841127" lon="9.21373">
        <ele>1514.0</ele>
        <time>2022-09-16T07:24:24Z</time>
      </trkpt>
      <trkpt lat="41.84142" lon="9.213508">
        <ele>1509.8</ele>
        <time>2022-09-16T07:28:36Z</time>
      </trkpt>
      <trkpt lat="41.841397" lon="9.213467">
        <ele>1507.2</ele>
        <time>2022-09-16T07:28:43Z</time>
      </trkpt>
      <trkpt lat="41.841382" lon="9.213413">
        <ele>1506.4</ele>
        <time>2022-09-16T07:28:47Z</time>
      </trkpt>
      <trkpt lat="41.841378" lon="9.213402">
        <ele>1505.6</ele>
        <time>2022-09-16T07:28:50Z</time>
      </trkpt>
      <trkpt lat="41.841392" lon="9.213368">
        <ele>1505.2</ele>
        <time>2022-09-16T07:28:53Z</time>
      </trkpt>
      <trkpt lat="41.84141" lon="9.21333">
        <ele>1505.2</ele>
        <time>2022-09-16T07:28:57Z</time>
      </trkpt>
      <trkpt lat="41.841387" lon="9.213303">
        <ele>1505.0</ele>
        <time>2022-09-16T07:29:00Z</time>
      </trkpt>
      <trkpt lat="41.84126" lon="9.213198">
        <ele>1504.8</ele>
        <time>2022-09-16T07:29:16Z</time>
      </trkpt>
      <trkpt lat="41.84124" lon="9.213188">
        <ele>1505.0</ele>
        <time>2022-09-16T07:29:19Z</time>
      </trkpt>
      <trkpt lat="41.841207" lon="9.213198">
        <ele>1505.0</ele>
        <time>2022-09-16T07:29:23Z</time>
      </trkpt>
      <trkpt lat="41.84105" lon="9.213203">
        <ele>1506.0</ele>
        <time>2022-09-16T07:29:44Z</time>
      </trkpt>
      <trkpt lat="41.841035" lon="9.213167">
        <ele>1506.4</ele>
        <time>2022-09-16T07:29:48Z</time>
      </trkpt>
      <trkpt lat="41.841025" lon="9.213092">
        <ele>1506.8</ele>
        <time>2022-09-16T07:29:55Z</time>
      </trkpt>
      <trkpt lat="41.840998" lon="9.213058">
        <ele>1507.4</ele>
        <time>2022-09-16T07:30:00Z</time>
      </trkpt>
      <trkpt lat="41.84098" lon="9.213053">
        <ele>1507.8</ele>
        <time>2022-09-16T07:30:03Z</time>
      </trkpt>
      <trkpt lat="41.840958" lon="9.213068">
        <ele>1507.8</ele>
        <time>2022-09-16T07:30:07Z</time>
      </trkpt>
      <trkpt lat="41.840948" lon="9.21308">
        <ele>1507.6</ele>
        <time>2022-09-16T07:30:09Z</time>
      </trkpt>
      <trkpt lat="41.840953" lon="9.213038">
        <ele>1507.0</ele>
        <time>2022-09-16T07:30:15Z</time>
      </trkpt>
      <trkpt lat="41.840983" lon="9.212982">
        <ele>1506.0</ele>
        <time>2022-09-16T07:30:23Z</time>
      </trkpt>
      <trkpt lat="41.841" lon="9.212935">
        <ele>1506.8</ele>
        <time>2022-09-16T07:30:29Z</time>
      </trkpt>
      <trkpt lat="41.840998" lon="9.212892">
        <ele>1506.4</ele>
        <time>2022-09-16T07:30:37Z</time>
      </trkpt>
      <trkpt lat="41.841005" lon="9.212875">
        <ele>1506.4</ele>
        <time>2022-09-16T07:30:39Z</time>
      </trkpt>
      <trkpt lat="41.840975" lon="9.212845">
        <ele>1506.2</ele>
        <time>2022-09-16T07:30:45Z</time>
      </trkpt>
      <trkpt lat="41.840925" lon="9.21285">
        <ele>1505.6</ele>
        <time>2022-09-16T07:30:53Z</time>
      </trkpt>
      <trkpt lat="41.840862" lon="9.212863">
        <ele>1504.4</ele>
        <time>2022-09-16T07:31:05Z</time>
      </trkpt>
      <trkpt lat="41.840815" lon="9.212907">
        <ele>1504.2</ele>
        <time>2022-09-16T07:31:16Z</time>
      </trkpt>
      <trkpt lat="41.840762" lon="9.212897">
        <ele>1505.0</ele>
        <time>2022-09-16T07:31:30Z</time>
      </trkpt>
      <trkpt lat="41.840725" lon="9.212853">
        <ele>1505.0</ele>
        <time>2022-09-16T07:31:47Z</time>
      </trkpt>
      <trkpt lat="41.840695" lon="9.212855">
        <ele>1506.6</ele>
        <time>2022-09-16T07:32:01Z</time>
      </trkpt>
      <trkpt lat="41.840708" lon="9.212718">
        <ele>1507.6</ele>
        <time>2022-09-16T07:32:35Z</time>
      </trkpt>
      <trkpt lat="41.84048" lon="9.212605">
        <ele>1506.6</ele>
        <time>2022-09-16T07:32:42Z</time>
      </trkpt>
      <trkpt lat="41.840362" lon="9.212607">
        <ele>1507.2</ele>
        <time>2022-09-16T07:32:52Z</time>
      </trkpt>
      <trkpt lat="41.840278" lon="9.21245">
        <ele>1507.0</ele>
        <time>2022-09-16T07:33:02Z</time>
      </trkpt>
      <trkpt lat="41.840267" lon="9.212375">
        <ele>1506.8</ele>
        <time>2022-09-16T07:33:06Z</time>
      </trkpt>
      <trkpt lat="41.840267" lon="9.212323">
        <ele>1505.6</ele>
        <time>2022-09-16T07:33:11Z</time>
      </trkpt>
      <trkpt lat="41.840287" lon="9.212258">
        <ele>1505.4</ele>
        <time>2022-09-16T07:33:18Z</time>
      </trkpt>
      <trkpt lat="41.840245" lon="9.212145">
        <ele>1505.2</ele>
        <time>2022-09-16T07:33:30Z</time>
      </trkpt>
      <trkpt lat="41.84024" lon="9.212138">
        <ele>1505.2</ele>
        <time>2022-09-16T07:33:31Z</time>
      </trkpt>
      <trkpt lat="41.840205" lon="9.212137">
        <ele>1504.2</ele>
        <time>2022-09-16T07:33:38Z</time>
      </trkpt>
      <trkpt lat="41.84021" lon="9.212097">
        <ele>1504.2</ele>
        <time>2022-09-16T07:33:43Z</time>
      </trkpt>
      <trkpt lat="41.84016" lon="9.2121">
        <ele>1504.4</ele>
        <time>2022-09-16T07:33:52Z</time>
      </trkpt>
      <trkpt lat="41.840123" lon="9.212102">
        <ele>1504.4</ele>
        <time>2022-09-16T07:33:59Z</time>
      </trkpt>
      <trkpt lat="41.840072" lon="9.212073">
        <ele>1504.0</ele>
        <time>2022-09-16T07:34:13Z</time>
      </trkpt>
      <trkpt lat="41.84006" lon="9.21206">
        <ele>1503.8</ele>
        <time>2022-09-16T07:34:18Z</time>
      </trkpt>
      <trkpt lat="41.839973" lon="9.211963">
        <ele>1502.6</ele>
        <time>2022-09-16T07:34:31Z</time>
      </trkpt>
      <trkpt lat="41.83993" lon="9.211885">
        <ele>1501.4</ele>
        <time>2022-09-16T07:34:39Z</time>
      </trkpt>
      <trkpt lat="41.839892" lon="9.211788">
        <ele>1500.6</ele>
        <time>2022-09-16T07:34:48Z</time>
      </trkpt>
      <trkpt lat="41.839848" lon="9.211737">
        <ele>1499.0</ele>
        <time>2022-09-16T07:34:55Z</time>
      </trkpt>
      <trkpt lat="41.839835" lon="9.211725">
        <ele>1498.4</ele>
        <time>2022-09-16T07:34:59Z</time>
      </trkpt>
      <trkpt lat="41.8398" lon="9.211697">
        <ele>1498.0</ele>
        <time>2022-09-16T07:35:06Z</time>
      </trkpt>
      <trkpt lat="41.839715" lon="9.211632">
        <ele>1496.4</ele>
        <time>2022-09-16T07:35:19Z</time>
      </trkpt>
      <trkpt lat="41.839655" lon="9.211608">
        <ele>1495.4</ele>
        <time>2022-09-16T07:35:26Z</time>
      </trkpt>
      <trkpt lat="41.839515" lon="9.211642">
        <ele>1495.4</ele>
        <time>2022-09-16T07:35:44Z</time>
      </trkpt>
      <trkpt lat="41.839512" lon="9.211647">
        <ele>1495.4</ele>
        <time>2022-09-16T07:35:46Z</time>
      </trkpt>
      <trkpt lat="41.839487" lon="9.211672">
        <ele>1494.0</ele>
        <time>2022-09-16T07:35:54Z</time>
      </trkpt>
      <trkpt lat="41.83942" lon="9.21169">
        <ele>1495.0</ele>
        <time>2022-09-16T07:36:07Z</time>
      </trkpt>
      <trkpt lat="41.839328" lon="9.211735">
        <ele>1495.0</ele>
        <time>2022-09-16T07:36:21Z</time>
      </trkpt>
      <trkpt lat="41.839237" lon="9.211758">
        <ele>1489.6</ele>
        <time>2022-09-16T07:37:06Z</time>
      </trkpt>
      <trkpt lat="41.839047" lon="9.211762">
        <ele>1480.6</ele>
        <time>2022-09-16T07:38:17Z</time>
      </trkpt>
      <trkpt lat="41.839203" lon="9.21165">
        <ele>1480.4</ele>
        <time>2022-09-16T07:38:31Z</time>
      </trkpt>
      <trkpt lat="41.839022" lon="9.211848">
        <ele>1479.8</ele>
        <time>2022-09-16T07:38:41Z</time>
      </trkpt>
      <trkpt lat="41.839045" lon="9.211802">
        <ele>1476.6</ele>
        <time>2022-09-16T07:38:51Z</time>
      </trkpt>
      <trkpt lat="41.838933" lon="9.211732">
        <ele>1474.6</ele>
        <time>2022-09-16T07:39:01Z</time>
      </trkpt>
      <trkpt lat="41.838897" lon="9.211713">
        <ele>1475.0</ele>
        <time>2022-09-16T07:39:03Z</time>
      </trkpt>
      <trkpt lat="41.83886" lon="9.21173">
        <ele>1474.4</ele>
        <time>2022-09-16T07:39:09Z</time>
      </trkpt>
      <trkpt lat="41.838843" lon="9.211715">
        <ele>1473.8</ele>
        <time>2022-09-16T07:39:12Z</time>
      </trkpt>
      <trkpt lat="41.838798" lon="9.211607">
        <ele>1471.2</ele>
        <time>2022-09-16T07:39:26Z</time>
      </trkpt>
      <trkpt lat="41.838747" lon="9.211533">
        <ele>1468.6</ele>
        <time>2022-09-16T07:39:37Z</time>
      </trkpt>
      <trkpt lat="41.838742" lon="9.211527">
        <ele>1469.2</ele>
        <time>2022-09-16T07:39:38Z</time>
      </trkpt>
      <trkpt lat="41.838727" lon="9.211542">
        <ele>1469.6</ele>
        <time>2022-09-16T07:39:39Z</time>
      </trkpt>
      <trkpt lat="41.838695" lon="9.211507">
        <ele>1469.6</ele>
        <time>2022-09-16T07:39:45Z</time>
      </trkpt>
      <trkpt lat="41.838638" lon="9.211597">
        <ele>1466.8</ele>
        <time>2022-09-16T07:39:55Z</time>
      </trkpt>
      <trkpt lat="41.838647" lon="9.21164">
        <ele>1465.8</ele>
        <time>2022-09-16T07:40:12Z</time>
      </trkpt>
      <trkpt lat="41.838648" lon="9.211713">
        <ele>1462.6</ele>
        <time>2022-09-16T07:40:33Z</time>
      </trkpt>
      <trkpt lat="41.838627" lon="9.21178">
        <ele>1460.4</ele>
        <time>2022-09-16T07:40:47Z</time>
      </trkpt>
      <trkpt lat="41.838618" lon="9.211783">
        <ele>1460.0</ele>
        <time>2022-09-16T07:40:48Z</time>
      </trkpt>
      <trkpt lat="41.838583" lon="9.211807">
        <ele>1459.0</ele>
        <time>2022-09-16T07:40:53Z</time>
      </trkpt>
      <trkpt lat="41.83856" lon="9.211852">
        <ele>1460.4</ele>
        <time>2022-09-16T07:41:00Z</time>
      </trkpt>
      <trkpt lat="41.838443" lon="9.211888">
        <ele>1456.8</ele>
        <time>2022-09-16T07:41:19Z</time>
      </trkpt>
      <trkpt lat="41.838395" lon="9.211895">
        <ele>1456.4</ele>
        <time>2022-09-16T07:41:25Z</time>
      </trkpt>
      <trkpt lat="41.83829" lon="9.211945">
        <ele>1455.0</ele>
        <time>2022-09-16T07:41:41Z</time>
      </trkpt>
      <trkpt lat="41.838287" lon="9.211948">
        <ele>1454.6</ele>
        <time>2022-09-16T07:41:42Z</time>
      </trkpt>
      <trkpt lat="41.838285" lon="9.211843">
        <ele>1450.4</ele>
        <time>2022-09-16T07:41:54Z</time>
      </trkpt>
      <trkpt lat="41.838265" lon="9.211665">
        <ele>1445.6</ele>
        <time>2022-09-16T07:42:10Z</time>
      </trkpt>
      <trkpt lat="41.838265" lon="9.211648">
        <ele>1445.8</ele>
        <time>2022-09-16T07:42:11Z</time>
      </trkpt>
      <trkpt lat="41.838203" lon="9.211685">
        <ele>1446.6</ele>
        <time>2022-09-16T07:42:19Z</time>
      </trkpt>
      <trkpt lat="41.838175" lon="9.21175">
        <ele>1447.2</ele>
        <time>2022-09-16T07:42:28Z</time>
      </trkpt>
      <trkpt lat="41.838113" lon="9.211978">
        <ele>1443.0</ele>
        <time>2022-09-16T07:42:58Z</time>
      </trkpt>
      <trkpt lat="41.838093" lon="9.21201">
        <ele>1443.2</ele>
        <time>2022-09-16T07:43:03Z</time>
      </trkpt>
      <trkpt lat="41.838062" lon="9.211985">
        <ele>1442.6</ele>
        <time>2022-09-16T07:43:07Z</time>
      </trkpt>
      <trkpt lat="41.837973" lon="9.211993">
        <ele>1442.0</ele>
        <time>2022-09-16T07:43:16Z</time>
      </trkpt>
      <trkpt lat="41.837877" lon="9.211957">
        <ele>1440.8</ele>
        <time>2022-09-16T07:43:27Z</time>
      </trkpt>
      <trkpt lat="41.837795" lon="9.211895">
        <ele>1438.0</ele>
        <time>2022-09-16T07:43:40Z</time>
      </trkpt>
      <trkpt lat="41.837783" lon="9.211835">
        <ele>1435.4</ele>
        <time>2022-09-16T07:43:50Z</time>
      </trkpt>
      <trkpt lat="41.837753" lon="9.211708">
        <ele>1433.6</ele>
        <time>2022-09-16T07:44:12Z</time>
      </trkpt>
      <trkpt lat="41.837722" lon="9.211632">
        <ele>1430.0</ele>
        <time>2022-09-16T07:44:24Z</time>
      </trkpt>
      <trkpt lat="41.837695" lon="9.211518">
        <ele>1428.0</ele>
        <time>2022-09-16T07:44:35Z</time>
      </trkpt>
      <trkpt lat="41.837688" lon="9.211512">
        <ele>1427.8</ele>
        <time>2022-09-16T07:44:36Z</time>
      </trkpt>
      <trkpt lat="41.837657" lon="9.211573">
        <ele>1427.6</ele>
        <time>2022-09-16T07:44:45Z</time>
      </trkpt>
      <trkpt lat="41.837678" lon="9.211557">
        <ele>1425.4</ele>
        <time>2022-09-16T07:44:53Z</time>
      </trkpt>
      <trkpt lat="41.837668" lon="9.211547">
        <ele>1425.4</ele>
        <time>2022-09-16T07:44:56Z</time>
      </trkpt>
      <trkpt lat="41.837627" lon="9.21157">
        <ele>1424.0</ele>
        <time>2022-09-16T07:45:03Z</time>
      </trkpt>
      <trkpt lat="41.837595" lon="9.2116">
        <ele>1424.0</ele>
        <time>2022-09-16T07:45:09Z</time>
      </trkpt>
      <trkpt lat="41.837552" lon="9.211678">
        <ele>1423.4</ele>
        <time>2022-09-16T07:45:19Z</time>
      </trkpt>
      <trkpt lat="41.837547" lon="9.211683">
        <ele>1423.0</ele>
        <time>2022-09-16T07:45:20Z</time>
      </trkpt>
      <trkpt lat="41.837512" lon="9.211695">
        <ele>1422.0</ele>
        <time>2022-09-16T07:45:26Z</time>
      </trkpt>
      <trkpt lat="41.837488" lon="9.21175">
        <ele>1423.6</ele>
        <time>2022-09-16T07:45:32Z</time>
      </trkpt>
      <trkpt lat="41.837457" lon="9.211768">
        <ele>1421.4</ele>
        <time>2022-09-16T07:45:38Z</time>
      </trkpt>
      <trkpt lat="41.837392" lon="9.211758">
        <ele>1418.6</ele>
        <time>2022-09-16T07:45:49Z</time>
      </trkpt>
      <trkpt lat="41.837318" lon="9.2118">
        <ele>1416.6</ele>
        <time>2022-09-16T07:46:00Z</time>
      </trkpt>
      <trkpt lat="41.837292" lon="9.21182">
        <ele>1415.2</ele>
        <time>2022-09-16T07:46:05Z</time>
      </trkpt>
      <trkpt lat="41.83729" lon="9.211857">
        <ele>1415.2</ele>
        <time>2022-09-16T07:46:08Z</time>
      </trkpt>
      <trkpt lat="41.837357" lon="9.21195">
        <ele>1416.4</ele>
        <time>2022-09-16T07:46:21Z</time>
      </trkpt>
      <trkpt lat="41.837393" lon="9.212027">
        <ele>1414.0</ele>
        <time>2022-09-16T07:46:34Z</time>
      </trkpt>
      <trkpt lat="41.837388" lon="9.212063">
        <ele>1412.4</ele>
        <time>2022-09-16T07:46:40Z</time>
      </trkpt>
      <trkpt lat="41.837337" lon="9.212085">
        <ele>1410.0</ele>
        <time>2022-09-16T07:46:48Z</time>
      </trkpt>
      <trkpt lat="41.8373" lon="9.212092">
        <ele>1408.2</ele>
        <time>2022-09-16T07:46:53Z</time>
      </trkpt>
      <trkpt lat="41.83728" lon="9.212132">
        <ele>1407.8</ele>
        <time>2022-09-16T07:46:58Z</time>
      </trkpt>
      <trkpt lat="41.837297" lon="9.212222">
        <ele>1407.8</ele>
        <time>2022-09-16T07:47:08Z</time>
      </trkpt>
      <trkpt lat="41.837335" lon="9.212302">
        <ele>1406.4</ele>
        <time>2022-09-16T07:47:19Z</time>
      </trkpt>
      <trkpt lat="41.837338" lon="9.212362">
        <ele>1405.2</ele>
        <time>2022-09-16T07:47:26Z</time>
      </trkpt>
      <trkpt lat="41.83734" lon="9.212497">
        <ele>1404.0</ele>
        <time>2022-09-16T07:47:40Z</time>
      </trkpt>
      <trkpt lat="41.837343" lon="9.212507">
        <ele>1403.8</ele>
        <time>2022-09-16T07:47:41Z</time>
      </trkpt>
      <trkpt lat="41.837382" lon="9.212587">
        <ele>1403.2</ele>
        <time>2022-09-16T07:47:51Z</time>
      </trkpt>
      <trkpt lat="41.837297" lon="9.212815">
        <ele>1404.0</ele>
        <time>2022-09-16T07:48:16Z</time>
      </trkpt>
      <trkpt lat="41.837272" lon="9.212895">
        <ele>1403.0</ele>
        <time>2022-09-16T07:48:27Z</time>
      </trkpt>
      <trkpt lat="41.837262" lon="9.212927">
        <ele>1404.6</ele>
        <time>2022-09-16T07:48:32Z</time>
      </trkpt>
      <trkpt lat="41.837203" lon="9.212972">
        <ele>1401.2</ele>
        <time>2022-09-16T07:48:47Z</time>
      </trkpt>
      <trkpt lat="41.83708" lon="9.213048">
        <ele>1397.0</ele>
        <time>2022-09-16T07:49:19Z</time>
      </trkpt>
      <trkpt lat="41.837045" lon="9.21304">
        <ele>1395.8</ele>
        <time>2022-09-16T07:49:26Z</time>
      </trkpt>
      <trkpt lat="41.837017" lon="9.213063">
        <ele>1395.2</ele>
        <time>2022-09-16T07:49:33Z</time>
      </trkpt>
      <trkpt lat="41.836955" lon="9.213098">
        <ele>1393.8</ele>
        <time>2022-09-16T07:49:44Z</time>
      </trkpt>
      <trkpt lat="41.83693" lon="9.213133">
        <ele>1392.2</ele>
        <time>2022-09-16T07:49:51Z</time>
      </trkpt>
      <trkpt lat="41.836892" lon="9.213145">
        <ele>1391.0</ele>
        <time>2022-09-16T07:49:57Z</time>
      </trkpt>
      <trkpt lat="41.83687" lon="9.213145">
        <ele>1391.0</ele>
        <time>2022-09-16T07:49:59Z</time>
      </trkpt>
      <trkpt lat="41.836837" lon="9.213152">
        <ele>1390.2</ele>
        <time>2022-09-16T07:50:03Z</time>
      </trkpt>
      <trkpt lat="41.836758" lon="9.21326">
        <ele>1388.4</ele>
        <time>2022-09-16T07:50:21Z</time>
      </trkpt>
      <trkpt lat="41.836738" lon="9.213283">
        <ele>1387.4</ele>
        <time>2022-09-16T07:50:26Z</time>
      </trkpt>
      <trkpt lat="41.836667" lon="9.213308">
        <ele>1383.8</ele>
        <time>2022-09-16T07:50:40Z</time>
      </trkpt>
      <trkpt lat="41.836582" lon="9.213292">
        <ele>1380.2</ele>
        <time>2022-09-16T07:51:11Z</time>
      </trkpt>
      <trkpt lat="41.836495" lon="9.213368">
        <ele>1372.4</ele>
        <time>2022-09-16T07:51:59Z</time>
      </trkpt>
      <trkpt lat="41.836462" lon="9.213393">
        <ele>1369.0</ele>
        <time>2022-09-16T07:52:19Z</time>
      </trkpt>
      <trkpt lat="41.836463" lon="9.213393">
        <ele>1368.8</ele>
        <time>2022-09-16T07:52:20Z</time>
      </trkpt>
      <trkpt lat="41.836527" lon="9.213368">
        <ele>1358.2</ele>
        <time>2022-09-16T07:53:30Z</time>
      </trkpt>
      <trkpt lat="41.836423" lon="9.213513">
        <ele>1356.6</ele>
        <time>2022-09-16T07:53:45Z</time>
      </trkpt>
      <trkpt lat="41.836345" lon="9.213513">
        <ele>1356.6</ele>
        <time>2022-09-16T07:53:49Z</time>
      </trkpt>
      <trkpt lat="41.836275" lon="9.213507">
        <ele>1356.8</ele>
        <time>2022-09-16T07:53:52Z</time>
      </trkpt>
      <trkpt lat="41.836183" lon="9.213587">
        <ele>1356.8</ele>
        <time>2022-09-16T07:53:56Z</time>
      </trkpt>
      <trkpt lat="41.835945" lon="9.213932">
        <ele>1351.2</ele>
        <time>2022-09-16T07:54:14Z</time>
      </trkpt>
      <trkpt lat="41.835938" lon="9.213932">
        <ele>1350.6</ele>
        <time>2022-09-16T07:54:15Z</time>
      </trkpt>
      <trkpt lat="41.8358" lon="9.213888">
        <ele>1345.0</ele>
        <time>2022-09-16T07:54:41Z</time>
      </trkpt>
      <trkpt lat="41.83573" lon="9.213803">
        <ele>1342.8</ele>
        <time>2022-09-16T07:54:56Z</time>
      </trkpt>
      <trkpt lat="41.835668" lon="9.213823">
        <ele>1341.4</ele>
        <time>2022-09-16T07:55:05Z</time>
      </trkpt>
      <trkpt lat="41.835642" lon="9.213835">
        <ele>1340.0</ele>
        <time>2022-09-16T07:55:09Z</time>
      </trkpt>
      <trkpt lat="41.835485" lon="9.213858">
        <ele>1338.6</ele>
        <time>2022-09-16T07:55:25Z</time>
      </trkpt>
      <trkpt lat="41.835415" lon="9.21388">
        <ele>1337.6</ele>
        <time>2022-09-16T07:55:34Z</time>
      </trkpt>
      <trkpt lat="41.835295" lon="9.213897">
        <ele>1334.4</ele>
        <time>2022-09-16T07:55:57Z</time>
      </trkpt>
      <trkpt lat="41.835245" lon="9.213893">
        <ele>1332.2</ele>
        <time>2022-09-16T07:56:08Z</time>
      </trkpt>
      <trkpt lat="41.835187" lon="9.213902">
        <ele>1330.6</ele>
        <time>2022-09-16T07:56:20Z</time>
      </trkpt>
      <trkpt lat="41.835167" lon="9.213898">
        <ele>1329.2</ele>
        <time>2022-09-16T07:56:23Z</time>
      </trkpt>
      <trkpt lat="41.835082" lon="9.213843">
        <ele>1327.0</ele>
        <time>2022-09-16T07:56:34Z</time>
      </trkpt>
      <trkpt lat="41.83504" lon="9.21382">
        <ele>1325.2</ele>
        <time>2022-09-16T07:56:39Z</time>
      </trkpt>
      <trkpt lat="41.835008" lon="9.213803">
        <ele>1324.8</ele>
        <time>2022-09-16T07:56:43Z</time>
      </trkpt>
      <trkpt lat="41.834947" lon="9.213742">
        <ele>1326.2</ele>
        <time>2022-09-16T07:56:52Z</time>
      </trkpt>
      <trkpt lat="41.834915" lon="9.21374">
        <ele>1326.4</ele>
        <time>2022-09-16T07:56:56Z</time>
      </trkpt>
      <trkpt lat="41.834877" lon="9.213727">
        <ele>1325.0</ele>
        <time>2022-09-16T07:57:03Z</time>
      </trkpt>
      <trkpt lat="41.83485" lon="9.213725">
        <ele>1323.8</ele>
        <time>2022-09-16T07:57:08Z</time>
      </trkpt>
      <trkpt lat="41.834783" lon="9.213748">
        <ele>1322.4</ele>
        <time>2022-09-16T07:57:18Z</time>
      </trkpt>
      <trkpt lat="41.834753" lon="9.2138">
        <ele>1321.8</ele>
        <time>2022-09-16T07:57:27Z</time>
      </trkpt>
      <trkpt lat="41.83471" lon="9.213838">
        <ele>1319.8</ele>
        <time>2022-09-16T07:57:37Z</time>
      </trkpt>
      <trkpt lat="41.83469" lon="9.213877">
        <ele>1317.6</ele>
        <time>2022-09-16T07:57:45Z</time>
      </trkpt>
      <trkpt lat="41.834638" lon="9.21387">
        <ele>1312.4</ele>
        <time>2022-09-16T07:58:02Z</time>
      </trkpt>
      <trkpt lat="41.834405" lon="9.213815">
        <ele>1306.4</ele>
        <time>2022-09-16T07:59:15Z</time>
      </trkpt>
      <trkpt lat="41.834485" lon="9.213878">
        <ele>1306.2</ele>
        <time>2022-09-16T07:59:28Z</time>
      </trkpt>
      <trkpt lat="41.834743" lon="9.214098">
        <ele>1306.4</ele>
        <time>2022-09-16T07:59:48Z</time>
      </trkpt>
      <trkpt lat="41.834808" lon="9.21419">
        <ele>1306.2</ele>
        <time>2022-09-16T07:59:54Z</time>
      </trkpt>
      <trkpt lat="41.834833" lon="9.214242">
        <ele>1306.2</ele>
        <time>2022-09-16T07:59:57Z</time>
      </trkpt>
      <trkpt lat="41.834765" lon="9.21441">
        <ele>1307.8</ele>
        <time>2022-09-16T08:00:15Z</time>
      </trkpt>
      <trkpt lat="41.834723" lon="9.214432">
        <ele>1308.8</ele>
        <time>2022-09-16T08:00:24Z</time>
      </trkpt>
      <trkpt lat="41.834685" lon="9.21443">
        <ele>1306.2</ele>
        <time>2022-09-16T08:00:58Z</time>
      </trkpt>
      <trkpt lat="41.834623" lon="9.214447">
        <ele>1304.8</ele>
        <time>2022-09-16T08:01:07Z</time>
      </trkpt>
      <trkpt lat="41.834592" lon="9.214452">
        <ele>1304.8</ele>
        <time>2022-09-16T08:01:10Z</time>
      </trkpt>
      <trkpt lat="41.834557" lon="9.21447">
        <ele>1304.4</ele>
        <time>2022-09-16T08:01:16Z</time>
      </trkpt>
      <trkpt lat="41.834532" lon="9.214513">
        <ele>1305.0</ele>
        <time>2022-09-16T08:01:23Z</time>
      </trkpt>
      <trkpt lat="41.83451" lon="9.21455">
        <ele>1305.2</ele>
        <time>2022-09-16T08:01:28Z</time>
      </trkpt>
      <trkpt lat="41.834458" lon="9.214548">
        <ele>1305.8</ele>
        <time>2022-09-16T08:01:35Z</time>
      </trkpt>
      <trkpt lat="41.834413" lon="9.214577">
        <ele>1306.2</ele>
        <time>2022-09-16T08:01:42Z</time>
      </trkpt>
      <trkpt lat="41.834387" lon="9.214587">
        <ele>1306.6</ele>
        <time>2022-09-16T08:01:47Z</time>
      </trkpt>
      <trkpt lat="41.83434" lon="9.214597">
        <ele>1306.4</ele>
        <time>2022-09-16T08:02:00Z</time>
      </trkpt>
      <trkpt lat="41.834288" lon="9.214648">
        <ele>1306.4</ele>
        <time>2022-09-16T08:02:18Z</time>
      </trkpt>
      <trkpt lat="41.834257" lon="9.21464">
        <ele>1306.8</ele>
        <time>2022-09-16T08:02:22Z</time>
      </trkpt>
      <trkpt lat="41.834223" lon="9.21462">
        <ele>1306.8</ele>
        <time>2022-09-16T08:02:25Z</time>
      </trkpt>
      <trkpt lat="41.834207" lon="9.214533">
        <ele>1306.4</ele>
        <time>2022-09-16T08:02:31Z</time>
      </trkpt>
      <trkpt lat="41.834182" lon="9.214502">
        <ele>1306.2</ele>
        <time>2022-09-16T08:02:35Z</time>
      </trkpt>
      <trkpt lat="41.834132" lon="9.21446">
        <ele>1305.6</ele>
        <time>2022-09-16T08:02:41Z</time>
      </trkpt>
      <trkpt lat="41.834017" lon="9.214392">
        <ele>1307.0</ele>
        <time>2022-09-16T08:02:56Z</time>
      </trkpt>
      <trkpt lat="41.833967" lon="9.214385">
        <ele>1307.0</ele>
        <time>2022-09-16T08:03:01Z</time>
      </trkpt>
      <trkpt lat="41.833948" lon="9.214377">
        <ele>1306.8</ele>
        <time>2022-09-16T08:03:03Z</time>
      </trkpt>
      <trkpt lat="41.833925" lon="9.214488">
        <ele>1305.4</ele>
        <time>2022-09-16T08:03:13Z</time>
      </trkpt>
      <trkpt lat="41.833912" lon="9.214513">
        <ele>1305.6</ele>
        <time>2022-09-16T08:03:16Z</time>
      </trkpt>
      <trkpt lat="41.833865" lon="9.214562">
        <ele>1306.2</ele>
        <time>2022-09-16T08:03:23Z</time>
      </trkpt>
      <trkpt lat="41.833837" lon="9.214637">
        <ele>1306.4</ele>
        <time>2022-09-16T08:03:30Z</time>
      </trkpt>
      <trkpt lat="41.833833" lon="9.214647">
        <ele>1306.4</ele>
        <time>2022-09-16T08:03:31Z</time>
      </trkpt>
      <trkpt lat="41.833767" lon="9.214622">
        <ele>1307.6</ele>
        <time>2022-09-16T08:03:42Z</time>
      </trkpt>
      <trkpt lat="41.833712" lon="9.214532">
        <ele>1306.2</ele>
        <time>2022-09-16T08:03:53Z</time>
      </trkpt>
      <trkpt lat="41.833642" lon="9.214475">
        <ele>1307.0</ele>
        <time>2022-09-16T08:04:03Z</time>
      </trkpt>
      <trkpt lat="41.833593" lon="9.21447">
        <ele>1306.6</ele>
        <time>2022-09-16T08:04:10Z</time>
      </trkpt>
      <trkpt lat="41.833572" lon="9.21447">
        <ele>1306.6</ele>
        <time>2022-09-16T08:04:13Z</time>
      </trkpt>
      <trkpt lat="41.833542" lon="9.214473">
        <ele>1306.0</ele>
        <time>2022-09-16T08:04:18Z</time>
      </trkpt>
      <trkpt lat="41.833502" lon="9.214445">
        <ele>1303.6</ele>
        <time>2022-09-16T08:04:25Z</time>
      </trkpt>
      <trkpt lat="41.83345" lon="9.214437">
        <ele>1302.6</ele>
        <time>2022-09-16T08:04:34Z</time>
      </trkpt>
      <trkpt lat="41.833383" lon="9.214345">
        <ele>1302.4</ele>
        <time>2022-09-16T08:04:49Z</time>
      </trkpt>
      <trkpt lat="41.833383" lon="9.214335">
        <ele>1302.4</ele>
        <time>2022-09-16T08:04:50Z</time>
      </trkpt>
      <trkpt lat="41.833338" lon="9.214268">
        <ele>1300.0</ele>
        <time>2022-09-16T08:05:05Z</time>
      </trkpt>
      <trkpt lat="41.833387" lon="9.214035">
        <ele>1300.2</ele>
        <time>2022-09-16T08:05:40Z</time>
      </trkpt>
      <trkpt lat="41.833385" lon="9.214035">
        <ele>1300.2</ele>
        <time>2022-09-16T08:05:41Z</time>
      </trkpt>
      <trkpt lat="41.833257" lon="9.214022">
        <ele>1303.6</ele>
        <time>2022-09-16T08:06:53Z</time>
      </trkpt>
      <trkpt lat="41.833115" lon="9.213957">
        <ele>1294.0</ele>
        <time>2022-09-16T08:08:05Z</time>
      </trkpt>
      <trkpt lat="41.8329" lon="9.213732">
        <ele>1291.4</ele>
        <time>2022-09-16T08:08:31Z</time>
      </trkpt>
      <trkpt lat="41.832808" lon="9.2136">
        <ele>1289.8</ele>
        <time>2022-09-16T08:08:37Z</time>
      </trkpt>
      <trkpt lat="41.832718" lon="9.213507">
        <ele>1289.0</ele>
        <time>2022-09-16T08:08:42Z</time>
      </trkpt>
      <trkpt lat="41.83255" lon="9.213362">
        <ele>1287.6</ele>
        <time>2022-09-16T08:08:52Z</time>
      </trkpt>
      <trkpt lat="41.83246" lon="9.213302">
        <ele>1288.0</ele>
        <time>2022-09-16T08:08:58Z</time>
      </trkpt>
      <trkpt lat="41.832405" lon="9.21331">
        <ele>1288.4</ele>
        <time>2022-09-16T08:09:02Z</time>
      </trkpt>
      <trkpt lat="41.8323" lon="9.213337">
        <ele>1289.6</ele>
        <time>2022-09-16T08:09:10Z</time>
      </trkpt>
      <trkpt lat="41.832273" lon="9.213332">
        <ele>1289.8</ele>
        <time>2022-09-16T08:09:12Z</time>
      </trkpt>
      <trkpt lat="41.832188" lon="9.21331">
        <ele>1292.0</ele>
        <time>2022-09-16T08:09:29Z</time>
      </trkpt>
      <trkpt lat="41.832172" lon="9.213317">
        <ele>1293.2</ele>
        <time>2022-09-16T08:09:48Z</time>
      </trkpt>
      <trkpt lat="41.832165" lon="9.213307">
        <ele>1293.0</ele>
        <time>2022-09-16T08:10:00Z</time>
      </trkpt>
      <trkpt lat="41.832132" lon="9.213298">
        <ele>1292.8</ele>
        <time>2022-09-16T08:10:04Z</time>
      </trkpt>
      <trkpt lat="41.832027" lon="9.213248">
        <ele>1293.4</ele>
        <time>2022-09-16T08:10:14Z</time>
      </trkpt>
      <trkpt lat="41.831977" lon="9.213235">
        <ele>1293.8</ele>
        <time>2022-09-16T08:10:18Z</time>
      </trkpt>
      <trkpt lat="41.831923" lon="9.213225">
        <ele>1294.6</ele>
        <time>2022-09-16T08:10:22Z</time>
      </trkpt>
      <trkpt lat="41.831888" lon="9.213182">
        <ele>1295.0</ele>
        <time>2022-09-16T08:10:27Z</time>
      </trkpt>
      <trkpt lat="41.831712" lon="9.213165">
        <ele>1298.4</ele>
        <time>2022-09-16T08:11:01Z</time>
      </trkpt>
      <trkpt lat="41.831708" lon="9.213163">
        <ele>1298.4</ele>
        <time>2022-09-16T08:11:02Z</time>
      </trkpt>
      <trkpt lat="41.831677" lon="9.213138">
        <ele>1299.2</ele>
        <time>2022-09-16T08:11:16Z</time>
      </trkpt>
      <trkpt lat="41.831618" lon="9.213038">
        <ele>1302.2</ele>
        <time>2022-09-16T08:11:57Z</time>
      </trkpt>
      <trkpt lat="41.831577" lon="9.213043">
        <ele>1303.0</ele>
        <time>2022-09-16T08:12:14Z</time>
      </trkpt>
      <trkpt lat="41.831485" lon="9.213093">
        <ele>1308.2</ele>
        <time>2022-09-16T08:12:56Z</time>
      </trkpt>
      <trkpt lat="41.831353" lon="9.213113">
        <ele>1308.4</ele>
        <time>2022-09-16T08:13:09Z</time>
      </trkpt>
      <trkpt lat="41.83127" lon="9.213097">
        <ele>1308.4</ele>
        <time>2022-09-16T08:13:15Z</time>
      </trkpt>
      <trkpt lat="41.831192" lon="9.21306">
        <ele>1307.0</ele>
        <time>2022-09-16T08:13:21Z</time>
      </trkpt>
      <trkpt lat="41.831147" lon="9.212998">
        <ele>1307.8</ele>
        <time>2022-09-16T08:13:27Z</time>
      </trkpt>
      <trkpt lat="41.831097" lon="9.212935">
        <ele>1308.8</ele>
        <time>2022-09-16T08:13:32Z</time>
      </trkpt>
      <trkpt lat="41.831035" lon="9.212857">
        <ele>1309.6</ele>
        <time>2022-09-16T08:13:38Z</time>
      </trkpt>
      <trkpt lat="41.831025" lon="9.212842">
        <ele>1309.6</ele>
        <time>2022-09-16T08:13:39Z</time>
      </trkpt>
      <trkpt lat="41.831023" lon="9.212813">
        <ele>1310.2</ele>
        <time>2022-09-16T08:13:42Z</time>
      </trkpt>
      <trkpt lat="41.830993" lon="9.212748">
        <ele>1311.2</ele>
        <time>2022-09-16T08:13:51Z</time>
      </trkpt>
      <trkpt lat="41.830965" lon="9.212695">
        <ele>1312.4</ele>
        <time>2022-09-16T08:13:58Z</time>
      </trkpt>
      <trkpt lat="41.830933" lon="9.212585">
        <ele>1314.0</ele>
        <time>2022-09-16T08:14:11Z</time>
      </trkpt>
      <trkpt lat="41.830908" lon="9.212545">
        <ele>1313.4</ele>
        <time>2022-09-16T08:14:18Z</time>
      </trkpt>
      <trkpt lat="41.830898" lon="9.21254">
        <ele>1313.4</ele>
        <time>2022-09-16T08:14:20Z</time>
      </trkpt>
      <trkpt lat="41.83075" lon="9.212498">
        <ele>1314.6</ele>
        <time>2022-09-16T08:14:37Z</time>
      </trkpt>
      <trkpt lat="41.830685" lon="9.21249">
        <ele>1314.6</ele>
        <time>2022-09-16T08:14:44Z</time>
      </trkpt>
      <trkpt lat="41.830555" lon="9.212542">
        <ele>1314.8</ele>
        <time>2022-09-16T08:14:57Z</time>
      </trkpt>
      <trkpt lat="41.830548" lon="9.212535">
        <ele>1314.6</ele>
        <time>2022-09-16T08:14:58Z</time>
      </trkpt>
      <trkpt lat="41.830505" lon="9.21249">
        <ele>1314.0</ele>
        <time>2022-09-16T08:15:04Z</time>
      </trkpt>
      <trkpt lat="41.830477" lon="9.212422">
        <ele>1313.8</ele>
        <time>2022-09-16T08:15:10Z</time>
      </trkpt>
      <trkpt lat="41.830455" lon="9.21237">
        <ele>1314.2</ele>
        <time>2022-09-16T08:15:15Z</time>
      </trkpt>
      <trkpt lat="41.830422" lon="9.212335">
        <ele>1314.6</ele>
        <time>2022-09-16T08:15:20Z</time>
      </trkpt>
      <trkpt lat="41.830278" lon="9.212365">
        <ele>1312.6</ele>
        <time>2022-09-16T08:15:34Z</time>
      </trkpt>
      <trkpt lat="41.830227" lon="9.212363">
        <ele>1312.2</ele>
        <time>2022-09-16T08:15:39Z</time>
      </trkpt>
      <trkpt lat="41.830193" lon="9.21234">
        <ele>1311.2</ele>
        <time>2022-09-16T08:15:44Z</time>
      </trkpt>
      <trkpt lat="41.830183" lon="9.21231">
        <ele>1310.8</ele>
        <time>2022-09-16T08:15:47Z</time>
      </trkpt>
      <trkpt lat="41.830245" lon="9.21217">
        <ele>1308.0</ele>
        <time>2022-09-16T08:16:01Z</time>
      </trkpt>
      <trkpt lat="41.830257" lon="9.21215">
        <ele>1307.6</ele>
        <time>2022-09-16T08:16:04Z</time>
      </trkpt>
      <trkpt lat="41.830243" lon="9.212198">
        <ele>1311.2</ele>
        <time>2022-09-16T08:16:35Z</time>
      </trkpt>
      <trkpt lat="41.830257" lon="9.2122">
        <ele>1311.2</ele>
        <time>2022-09-16T08:16:41Z</time>
      </trkpt>
      <trkpt lat="41.830267" lon="9.212188">
        <ele>1308.2</ele>
        <time>2022-09-16T08:34:06Z</time>
      </trkpt>
      <trkpt lat="41.830078" lon="9.212297">
        <ele>1302.2</ele>
        <time>2022-09-16T08:37:24Z</time>
      </trkpt>
      <trkpt lat="41.829655" lon="9.21212">
        <ele>1302.2</ele>
        <time>2022-09-16T08:37:35Z</time>
      </trkpt>
      <trkpt lat="41.829585" lon="9.212092">
        <ele>1302.8</ele>
        <time>2022-09-16T08:37:37Z</time>
      </trkpt>
      <trkpt lat="41.829498" lon="9.212065">
        <ele>1303.4</ele>
        <time>2022-09-16T08:37:43Z</time>
      </trkpt>
      <trkpt lat="41.829395" lon="9.212045">
        <ele>1304.0</ele>
        <time>2022-09-16T08:37:50Z</time>
      </trkpt>
      <trkpt lat="41.829338" lon="9.212062">
        <ele>1304.0</ele>
        <time>2022-09-16T08:37:54Z</time>
      </trkpt>
      <trkpt lat="41.829315" lon="9.21208">
        <ele>1304.2</ele>
        <time>2022-09-16T08:37:56Z</time>
      </trkpt>
      <trkpt lat="41.82927" lon="9.212177">
        <ele>1305.4</ele>
        <time>2022-09-16T08:38:02Z</time>
      </trkpt>
      <trkpt lat="41.829247" lon="9.212185">
        <ele>1306.0</ele>
        <time>2022-09-16T08:38:04Z</time>
      </trkpt>
      <trkpt lat="41.82921" lon="9.212085">
        <ele>1306.8</ele>
        <time>2022-09-16T08:38:12Z</time>
      </trkpt>
      <trkpt lat="41.829173" lon="9.212025">
        <ele>1307.8</ele>
        <time>2022-09-16T08:38:17Z</time>
      </trkpt>
      <trkpt lat="41.82915" lon="9.212018">
        <ele>1308.4</ele>
        <time>2022-09-16T08:38:19Z</time>
      </trkpt>
      <trkpt lat="41.829095" lon="9.212012">
        <ele>1308.8</ele>
        <time>2022-09-16T08:38:24Z</time>
      </trkpt>
      <trkpt lat="41.829017" lon="9.211933">
        <ele>1310.2</ele>
        <time>2022-09-16T08:38:34Z</time>
      </trkpt>
      <trkpt lat="41.82892" lon="9.211818">
        <ele>1314.2</ele>
        <time>2022-09-16T08:38:50Z</time>
      </trkpt>
      <trkpt lat="41.828867" lon="9.211785">
        <ele>1315.8</ele>
        <time>2022-09-16T08:38:56Z</time>
      </trkpt>
      <trkpt lat="41.82883" lon="9.21175">
        <ele>1316.0</ele>
        <time>2022-09-16T08:39:01Z</time>
      </trkpt>
      <trkpt lat="41.828778" lon="9.211712">
        <ele>1318.0</ele>
        <time>2022-09-16T08:39:11Z</time>
      </trkpt>
      <trkpt lat="41.828748" lon="9.211693">
        <ele>1318.6</ele>
        <time>2022-09-16T08:39:17Z</time>
      </trkpt>
      <trkpt lat="41.828725" lon="9.21167">
        <ele>1318.6</ele>
        <time>2022-09-16T08:39:23Z</time>
      </trkpt>
      <trkpt lat="41.828643" lon="9.211667">
        <ele>1320.0</ele>
        <time>2022-09-16T08:39:36Z</time>
      </trkpt>
      <trkpt lat="41.828592" lon="9.211678">
        <ele>1321.4</ele>
        <time>2022-09-16T08:39:45Z</time>
      </trkpt>
      <trkpt lat="41.82856" lon="9.211653">
        <ele>1321.2</ele>
        <time>2022-09-16T08:39:54Z</time>
      </trkpt>
      <trkpt lat="41.828533" lon="9.211678">
        <ele>1321.4</ele>
        <time>2022-09-16T08:40:01Z</time>
      </trkpt>
      <trkpt lat="41.828488" lon="9.211715">
        <ele>1321.4</ele>
        <time>2022-09-16T08:40:06Z</time>
      </trkpt>
      <trkpt lat="41.82831" lon="9.211765">
        <ele>1322.2</ele>
        <time>2022-09-16T08:40:21Z</time>
      </trkpt>
      <trkpt lat="41.82819" lon="9.211832">
        <ele>1321.6</ele>
        <time>2022-09-16T08:40:30Z</time>
      </trkpt>
      <trkpt lat="41.828102" lon="9.21191">
        <ele>1320.6</ele>
        <time>2022-09-16T08:40:37Z</time>
      </trkpt>
      <trkpt lat="41.827998" lon="9.212015">
        <ele>1323.0</ele>
        <time>2022-09-16T08:40:47Z</time>
      </trkpt>
      <trkpt lat="41.827965" lon="9.212045">
        <ele>1325.4</ele>
        <time>2022-09-16T08:40:55Z</time>
      </trkpt>
      <trkpt lat="41.827928" lon="9.212105">
        <ele>1326.0</ele>
        <time>2022-09-16T08:41:05Z</time>
      </trkpt>
      <trkpt lat="41.827893" lon="9.212127">
        <ele>1325.6</ele>
        <time>2022-09-16T08:41:12Z</time>
      </trkpt>
      <trkpt lat="41.827823" lon="9.21213">
        <ele>1325.6</ele>
        <time>2022-09-16T08:41:25Z</time>
      </trkpt>
      <trkpt lat="41.827798" lon="9.212122">
        <ele>1325.6</ele>
        <time>2022-09-16T08:41:30Z</time>
      </trkpt>
      <trkpt lat="41.827738" lon="9.21211">
        <ele>1325.2</ele>
        <time>2022-09-16T08:41:40Z</time>
      </trkpt>
      <trkpt lat="41.827703" lon="9.212075">
        <ele>1324.0</ele>
        <time>2022-09-16T08:41:47Z</time>
      </trkpt>
      <trkpt lat="41.827628" lon="9.212073">
        <ele>1323.8</ele>
        <time>2022-09-16T08:41:58Z</time>
      </trkpt>
      <trkpt lat="41.827587" lon="9.212093">
        <ele>1324.2</ele>
        <time>2022-09-16T08:42:04Z</time>
      </trkpt>
      <trkpt lat="41.827523" lon="9.212142">
        <ele>1327.0</ele>
        <time>2022-09-16T08:42:15Z</time>
      </trkpt>
      <trkpt lat="41.827512" lon="9.212143">
        <ele>1327.4</ele>
        <time>2022-09-16T08:42:18Z</time>
      </trkpt>
      <trkpt lat="41.827493" lon="9.212225">
        <ele>1328.6</ele>
        <time>2022-09-16T08:42:26Z</time>
      </trkpt>
      <trkpt lat="41.827483" lon="9.212295">
        <ele>1329.2</ele>
        <time>2022-09-16T08:42:33Z</time>
      </trkpt>
      <trkpt lat="41.827378" lon="9.212523">
        <ele>1328.6</ele>
        <time>2022-09-16T08:42:54Z</time>
      </trkpt>
      <trkpt lat="41.82737" lon="9.212532">
        <ele>1328.6</ele>
        <time>2022-09-16T08:42:55Z</time>
      </trkpt>
      <trkpt lat="41.82734" lon="9.212525">
        <ele>1329.6</ele>
        <time>2022-09-16T08:43:01Z</time>
      </trkpt>
      <trkpt lat="41.827335" lon="9.212587">
        <ele>1331.6</ele>
        <time>2022-09-16T08:43:08Z</time>
      </trkpt>
      <trkpt lat="41.827315" lon="9.212597">
        <ele>1332.8</ele>
        <time>2022-09-16T08:43:12Z</time>
      </trkpt>
      <trkpt lat="41.827262" lon="9.212607">
        <ele>1335.8</ele>
        <time>2022-09-16T08:43:23Z</time>
      </trkpt>
      <trkpt lat="41.827257" lon="9.212642">
        <ele>1338.2</ele>
        <time>2022-09-16T08:43:29Z</time>
      </trkpt>
      <trkpt lat="41.827222" lon="9.212617">
        <ele>1341.2</ele>
        <time>2022-09-16T08:43:40Z</time>
      </trkpt>
      <trkpt lat="41.827157" lon="9.21263">
        <ele>1345.4</ele>
        <time>2022-09-16T08:43:56Z</time>
      </trkpt>
      <trkpt lat="41.827132" lon="9.21265">
        <ele>1346.2</ele>
        <time>2022-09-16T08:44:03Z</time>
      </trkpt>
      <trkpt lat="41.827133" lon="9.212657">
        <ele>1346.6</ele>
        <time>2022-09-16T08:44:04Z</time>
      </trkpt>
      <trkpt lat="41.827187" lon="9.212683">
        <ele>1348.2</ele>
        <time>2022-09-16T08:44:15Z</time>
      </trkpt>
      <trkpt lat="41.827193" lon="9.212733">
        <ele>1350.0</ele>
        <time>2022-09-16T08:44:22Z</time>
      </trkpt>
      <trkpt lat="41.827183" lon="9.212835">
        <ele>1352.8</ele>
        <time>2022-09-16T08:44:33Z</time>
      </trkpt>
      <trkpt lat="41.827185" lon="9.212892">
        <ele>1353.6</ele>
        <time>2022-09-16T08:44:39Z</time>
      </trkpt>
      <trkpt lat="41.827205" lon="9.21288">
        <ele>1353.4</ele>
        <time>2022-09-16T08:46:17Z</time>
      </trkpt>
      <trkpt lat="41.827128" lon="9.212847">
        <ele>1351.0</ele>
        <time>2022-09-16T08:46:49Z</time>
      </trkpt>
      <trkpt lat="41.827058" lon="9.212788">
        <ele>1348.2</ele>
        <time>2022-09-16T08:47:30Z</time>
      </trkpt>
      <trkpt lat="41.826558" lon="9.212585">
        <ele>1347.8</ele>
        <time>2022-09-16T08:47:47Z</time>
      </trkpt>
      <trkpt lat="41.826425" lon="9.21195">
        <ele>1347.2</ele>
        <time>2022-09-16T08:48:00Z</time>
      </trkpt>
      <trkpt lat="41.826357" lon="9.212125">
        <ele>1350.4</ele>
        <time>2022-09-16T08:48:39Z</time>
      </trkpt>
      <trkpt lat="41.826115" lon="9.212005">
        <ele>1345.8</ele>
        <time>2022-09-16T08:51:02Z</time>
      </trkpt>
      <trkpt lat="41.826107" lon="9.211975">
        <ele>1346.0</ele>
        <time>2022-09-16T08:51:15Z</time>
      </trkpt>
      <trkpt lat="41.825945" lon="9.212023">
        <ele>1347.2</ele>
        <time>2022-09-16T08:51:27Z</time>
      </trkpt>
      <trkpt lat="41.825482" lon="9.211913">
        <ele>1348.4</ele>
        <time>2022-09-16T08:51:39Z</time>
      </trkpt>
      <trkpt lat="41.825378" lon="9.211798">
        <ele>1348.6</ele>
        <time>2022-09-16T08:51:51Z</time>
      </trkpt>
      <trkpt lat="41.825022" lon="9.211582">
        <ele>1347.2</ele>
        <time>2022-09-16T08:52:03Z</time>
      </trkpt>
      <trkpt lat="41.824785" lon="9.211317">
        <ele>1345.2</ele>
        <time>2022-09-16T08:52:14Z</time>
      </trkpt>
      <trkpt lat="41.824753" lon="9.21118">
        <ele>1344.8</ele>
        <time>2022-09-16T08:52:19Z</time>
      </trkpt>
      <trkpt lat="41.824728" lon="9.211077">
        <ele>1344.6</ele>
        <time>2022-09-16T08:52:26Z</time>
      </trkpt>
      <trkpt lat="41.824713" lon="9.211023">
        <ele>1344.4</ele>
        <time>2022-09-16T08:52:30Z</time>
      </trkpt>
      <trkpt lat="41.824665" lon="9.210875">
        <ele>1345.0</ele>
        <time>2022-09-16T08:52:43Z</time>
      </trkpt>
      <trkpt lat="41.824627" lon="9.210778">
        <ele>1345.0</ele>
        <time>2022-09-16T08:52:53Z</time>
      </trkpt>
      <trkpt lat="41.82461" lon="9.210732">
        <ele>1344.4</ele>
        <time>2022-09-16T08:52:58Z</time>
      </trkpt>
      <trkpt lat="41.824625" lon="9.210972">
        <ele>1341.2</ele>
        <time>2022-09-16T08:53:14Z</time>
      </trkpt>
      <trkpt lat="41.824587" lon="9.210988">
        <ele>1339.6</ele>
        <time>2022-09-16T08:53:26Z</time>
      </trkpt>
      <trkpt lat="41.824445" lon="9.211018">
        <ele>1338.4</ele>
        <time>2022-09-16T08:53:37Z</time>
      </trkpt>
      <trkpt lat="41.823963" lon="9.210985">
        <ele>1336.6</ele>
        <time>2022-09-16T08:53:50Z</time>
      </trkpt>
      <trkpt lat="41.823795" lon="9.21095">
        <ele>1335.6</ele>
        <time>2022-09-16T08:53:59Z</time>
      </trkpt>
      <trkpt lat="41.82375" lon="9.210957">
        <ele>1335.2</ele>
        <time>2022-09-16T08:54:02Z</time>
      </trkpt>
      <trkpt lat="41.82364" lon="9.210972">
        <ele>1335.0</ele>
        <time>2022-09-16T08:54:09Z</time>
      </trkpt>
      <trkpt lat="41.823442" lon="9.210993">
        <ele>1336.4</ele>
        <time>2022-09-16T08:54:22Z</time>
      </trkpt>
      <trkpt lat="41.823383" lon="9.21101">
        <ele>1336.0</ele>
        <time>2022-09-16T08:54:26Z</time>
      </trkpt>
      <trkpt lat="41.823322" lon="9.211035">
        <ele>1335.8</ele>
        <time>2022-09-16T08:54:30Z</time>
      </trkpt>
      <trkpt lat="41.823237" lon="9.211075">
        <ele>1335.8</ele>
        <time>2022-09-16T08:54:38Z</time>
      </trkpt>
      <trkpt lat="41.823055" lon="9.211142">
        <ele>1333.2</ele>
        <time>2022-09-16T08:54:55Z</time>
      </trkpt>
      <trkpt lat="41.823025" lon="9.211135">
        <ele>1332.6</ele>
        <time>2022-09-16T08:54:58Z</time>
      </trkpt>
      <trkpt lat="41.822992" lon="9.211105">
        <ele>1334.0</ele>
        <time>2022-09-16T08:55:04Z</time>
      </trkpt>
      <trkpt lat="41.822953" lon="9.211055">
        <ele>1335.4</ele>
        <time>2022-09-16T08:55:10Z</time>
      </trkpt>
      <trkpt lat="41.822923" lon="9.211005">
        <ele>1337.8</ele>
        <time>2022-09-16T08:55:16Z</time>
      </trkpt>
      <trkpt lat="41.82288" lon="9.210963">
        <ele>1339.6</ele>
        <time>2022-09-16T08:55:24Z</time>
      </trkpt>
      <trkpt lat="41.82276" lon="9.210797">
        <ele>1341.0</ele>
        <time>2022-09-16T08:56:06Z</time>
      </trkpt>
      <trkpt lat="41.822813" lon="9.210767">
        <ele>1339.8</ele>
        <time>2022-09-16T08:56:18Z</time>
      </trkpt>
      <trkpt lat="41.822533" lon="9.210408">
        <ele>1338.8</ele>
        <time>2022-09-16T08:56:29Z</time>
      </trkpt>
      <trkpt lat="41.822243" lon="9.21015">
        <ele>1337.2</ele>
        <time>2022-09-16T08:56:51Z</time>
      </trkpt>
      <trkpt lat="41.822025" lon="9.20999">
        <ele>1335.0</ele>
        <time>2022-09-16T08:57:03Z</time>
      </trkpt>
      <trkpt lat="41.821945" lon="9.209955">
        <ele>1334.4</ele>
        <time>2022-09-16T08:57:06Z</time>
      </trkpt>
      <trkpt lat="41.821883" lon="9.209932">
        <ele>1333.4</ele>
        <time>2022-09-16T08:57:12Z</time>
      </trkpt>
      <trkpt lat="41.821842" lon="9.209915">
        <ele>1332.2</ele>
        <time>2022-09-16T08:57:16Z</time>
      </trkpt>
      <trkpt lat="41.821712" lon="9.209837">
        <ele>1328.4</ele>
        <time>2022-09-16T08:57:30Z</time>
      </trkpt>
      <trkpt lat="41.821658" lon="9.209783">
        <ele>1326.8</ele>
        <time>2022-09-16T08:57:37Z</time>
      </trkpt>
      <trkpt lat="41.821632" lon="9.209777">
        <ele>1326.2</ele>
        <time>2022-09-16T08:57:40Z</time>
      </trkpt>
      <trkpt lat="41.821593" lon="9.209827">
        <ele>1325.0</ele>
        <time>2022-09-16T08:57:49Z</time>
      </trkpt>
      <trkpt lat="41.82154" lon="9.209827">
        <ele>1323.8</ele>
        <time>2022-09-16T08:57:59Z</time>
      </trkpt>
      <trkpt lat="41.82152" lon="9.209828">
        <ele>1323.4</ele>
        <time>2022-09-16T08:58:03Z</time>
      </trkpt>
      <trkpt lat="41.821443" lon="9.2098">
        <ele>1322.6</ele>
        <time>2022-09-16T08:58:15Z</time>
      </trkpt>
      <trkpt lat="41.821342" lon="9.209812">
        <ele>1321.4</ele>
        <time>2022-09-16T08:58:27Z</time>
      </trkpt>
      <trkpt lat="41.82128" lon="9.209805">
        <ele>1320.4</ele>
        <time>2022-09-16T08:58:36Z</time>
      </trkpt>
      <trkpt lat="41.821157" lon="9.209755">
        <ele>1321.8</ele>
        <time>2022-09-16T08:58:50Z</time>
      </trkpt>
      <trkpt lat="41.82113" lon="9.20973">
        <ele>1322.2</ele>
        <time>2022-09-16T08:58:54Z</time>
      </trkpt>
      <trkpt lat="41.820995" lon="9.209652">
        <ele>1320.8</ele>
        <time>2022-09-16T08:59:12Z</time>
      </trkpt>
      <trkpt lat="41.820948" lon="9.209573">
        <ele>1321.2</ele>
        <time>2022-09-16T08:59:25Z</time>
      </trkpt>
      <trkpt lat="41.82093" lon="9.209538">
        <ele>1321.2</ele>
        <time>2022-09-16T08:59:32Z</time>
      </trkpt>
      <trkpt lat="41.8209" lon="9.209495">
        <ele>1320.2</ele>
        <time>2022-09-16T08:59:40Z</time>
      </trkpt>
      <trkpt lat="41.82089" lon="9.209458">
        <ele>1319.4</ele>
        <time>2022-09-16T08:59:47Z</time>
      </trkpt>
      <trkpt lat="41.82073" lon="9.209395">
        <ele>1321.0</ele>
        <time>2022-09-16T09:00:04Z</time>
      </trkpt>
      <trkpt lat="41.820577" lon="9.20933">
        <ele>1321.0</ele>
        <time>2022-09-16T09:00:15Z</time>
      </trkpt>
      <trkpt lat="41.82048" lon="9.209307">
        <ele>1321.4</ele>
        <time>2022-09-16T09:00:22Z</time>
      </trkpt>
      <trkpt lat="41.820427" lon="9.209313">
        <ele>1321.6</ele>
        <time>2022-09-16T09:00:25Z</time>
      </trkpt>
      <trkpt lat="41.820318" lon="9.20935">
        <ele>1322.0</ele>
        <time>2022-09-16T09:00:31Z</time>
      </trkpt>
      <trkpt lat="41.820272" lon="9.209367">
        <ele>1321.8</ele>
        <time>2022-09-16T09:00:35Z</time>
      </trkpt>
      <trkpt lat="41.820112" lon="9.209395">
        <ele>1319.2</ele>
        <time>2022-09-16T09:00:50Z</time>
      </trkpt>
      <trkpt lat="41.820002" lon="9.209363">
        <ele>1317.0</ele>
        <time>2022-09-16T09:01:03Z</time>
      </trkpt>
      <trkpt lat="41.819948" lon="9.20935">
        <ele>1314.0</ele>
        <time>2022-09-16T09:01:09Z</time>
      </trkpt>
      <trkpt lat="41.819903" lon="9.209362">
        <ele>1313.4</ele>
        <time>2022-09-16T09:01:14Z</time>
      </trkpt>
      <trkpt lat="41.819867" lon="9.209392">
        <ele>1313.4</ele>
        <time>2022-09-16T09:01:18Z</time>
      </trkpt>
      <trkpt lat="41.819738" lon="9.209377">
        <ele>1312.6</ele>
        <time>2022-09-16T09:01:31Z</time>
      </trkpt>
      <trkpt lat="41.819678" lon="9.209403">
        <ele>1312.2</ele>
        <time>2022-09-16T09:01:39Z</time>
      </trkpt>
      <trkpt lat="41.819612" lon="9.209422">
        <ele>1312.0</ele>
        <time>2022-09-16T09:01:45Z</time>
      </trkpt>
      <trkpt lat="41.819477" lon="9.209452">
        <ele>1309.4</ele>
        <time>2022-09-16T09:01:55Z</time>
      </trkpt>
      <trkpt lat="41.81933" lon="9.209523">
        <ele>1307.0</ele>
        <time>2022-09-16T09:02:08Z</time>
      </trkpt>
      <trkpt lat="41.819285" lon="9.209482">
        <ele>1306.6</ele>
        <time>2022-09-16T09:02:13Z</time>
      </trkpt>
      <trkpt lat="41.819152" lon="9.209265">
        <ele>1307.8</ele>
        <time>2022-09-16T09:02:33Z</time>
      </trkpt>
      <trkpt lat="41.819122" lon="9.209265">
        <ele>1307.8</ele>
        <time>2022-09-16T09:02:36Z</time>
      </trkpt>
      <trkpt lat="41.818982" lon="9.209367">
        <ele>1305.8</ele>
        <time>2022-09-16T09:02:52Z</time>
      </trkpt>
      <trkpt lat="41.81892" lon="9.209448">
        <ele>1305.2</ele>
        <time>2022-09-16T09:03:02Z</time>
      </trkpt>
      <trkpt lat="41.818815" lon="9.209408">
        <ele>1305.0</ele>
        <time>2022-09-16T09:03:11Z</time>
      </trkpt>
      <trkpt lat="41.818792" lon="9.209418">
        <ele>1305.0</ele>
        <time>2022-09-16T09:03:13Z</time>
      </trkpt>
      <trkpt lat="41.818733" lon="9.209472">
        <ele>1305.0</ele>
        <time>2022-09-16T09:03:18Z</time>
      </trkpt>
      <trkpt lat="41.818688" lon="9.20947">
        <ele>1305.0</ele>
        <time>2022-09-16T09:03:22Z</time>
      </trkpt>
      <trkpt lat="41.818623" lon="9.209422">
        <ele>1304.6</ele>
        <time>2022-09-16T09:03:29Z</time>
      </trkpt>
      <trkpt lat="41.818548" lon="9.209392">
        <ele>1305.0</ele>
        <time>2022-09-16T09:03:38Z</time>
      </trkpt>
      <trkpt lat="41.81847" lon="9.209273">
        <ele>1305.6</ele>
        <time>2022-09-16T09:03:50Z</time>
      </trkpt>
      <trkpt lat="41.818462" lon="9.209265">
        <ele>1305.6</ele>
        <time>2022-09-16T09:03:50Z</time>
      </trkpt>
      <trkpt lat="41.818478" lon="9.209158">
        <ele>1304.2</ele>
        <time>2022-09-16T09:04:01Z</time>
      </trkpt>
      <trkpt lat="41.818478" lon="9.209112">
        <ele>1304.0</ele>
        <time>2022-09-16T09:04:06Z</time>
      </trkpt>
      <trkpt lat="41.818488" lon="9.209015">
        <ele>1303.8</ele>
        <time>2022-09-16T09:04:16Z</time>
      </trkpt>
      <trkpt lat="41.81848" lon="9.208955">
        <ele>1303.6</ele>
        <time>2022-09-16T09:04:26Z</time>
      </trkpt>
      <trkpt lat="41.818487" lon="9.208908">
        <ele>1303.4</ele>
        <time>2022-09-16T09:04:33Z</time>
      </trkpt>
      <trkpt lat="41.818523" lon="9.20888">
        <ele>1302.6</ele>
        <time>2022-09-16T09:04:41Z</time>
      </trkpt>
      <trkpt lat="41.818523" lon="9.208857">
        <ele>1302.0</ele>
        <time>2022-09-16T09:04:45Z</time>
      </trkpt>
      <trkpt lat="41.818507" lon="9.208827">
        <ele>1300.8</ele>
        <time>2022-09-16T09:04:52Z</time>
      </trkpt>
      <trkpt lat="41.818485" lon="9.20879">
        <ele>1300.0</ele>
        <time>2022-09-16T09:04:59Z</time>
      </trkpt>
      <trkpt lat="41.818378" lon="9.208715">
        <ele>1299.4</ele>
        <time>2022-09-16T09:05:19Z</time>
      </trkpt>
      <trkpt lat="41.818358" lon="9.208695">
        <ele>1299.8</ele>
        <time>2022-09-16T09:05:22Z</time>
      </trkpt>
      <trkpt lat="41.818252" lon="9.20864">
        <ele>1299.6</ele>
        <time>2022-09-16T09:05:40Z</time>
      </trkpt>
      <trkpt lat="41.818198" lon="9.20863">
        <ele>1297.0</ele>
        <time>2022-09-16T09:10:38Z</time>
      </trkpt>
      <trkpt lat="41.8181" lon="9.208542">
        <ele>1292.4</ele>
        <time>2022-09-16T09:10:59Z</time>
      </trkpt>
      <trkpt lat="41.818097" lon="9.208525">
        <ele>1292.0</ele>
        <time>2022-09-16T09:11:00Z</time>
      </trkpt>
      <trkpt lat="41.818097" lon="9.208587">
        <ele>1291.2</ele>
        <time>2022-09-16T09:11:07Z</time>
      </trkpt>
      <trkpt lat="41.818132" lon="9.208612">
        <ele>1291.2</ele>
        <time>2022-09-16T09:11:13Z</time>
      </trkpt>
      <trkpt lat="41.818192" lon="9.208622">
        <ele>1290.6</ele>
        <time>2022-09-16T09:11:23Z</time>
      </trkpt>
      <trkpt lat="41.818258" lon="9.208597">
        <ele>1287.2</ele>
        <time>2022-09-16T09:11:44Z</time>
      </trkpt>
      <trkpt lat="41.818247" lon="9.208593">
        <ele>1287.2</ele>
        <time>2022-09-16T09:11:45Z</time>
      </trkpt>
      <trkpt lat="41.818137" lon="9.208545">
        <ele>1286.0</ele>
        <time>2022-09-16T09:11:56Z</time>
      </trkpt>
      <trkpt lat="41.818037" lon="9.208442">
        <ele>1287.6</ele>
        <time>2022-09-16T09:12:13Z</time>
      </trkpt>
      <trkpt lat="41.81798" lon="9.20826">
        <ele>1289.2</ele>
        <time>2022-09-16T09:12:34Z</time>
      </trkpt>
      <trkpt lat="41.817948" lon="9.20814">
        <ele>1289.4</ele>
        <time>2022-09-16T09:12:46Z</time>
      </trkpt>
      <trkpt lat="41.817947" lon="9.208127">
        <ele>1289.4</ele>
        <time>2022-09-16T09:12:47Z</time>
      </trkpt>
      <trkpt lat="41.817942" lon="9.208107">
        <ele>1289.0</ele>
        <time>2022-09-16T09:12:49Z</time>
      </trkpt>
      <trkpt lat="41.817952" lon="9.208058">
        <ele>1288.2</ele>
        <time>2022-09-16T09:12:54Z</time>
      </trkpt>
      <trkpt lat="41.817857" lon="9.207955">
        <ele>1286.8</ele>
        <time>2022-09-16T09:13:03Z</time>
      </trkpt>
      <trkpt lat="41.817778" lon="9.2079">
        <ele>1286.6</ele>
        <time>2022-09-16T09:13:08Z</time>
      </trkpt>
      <trkpt lat="41.817693" lon="9.207852">
        <ele>1286.2</ele>
        <time>2022-09-16T09:13:13Z</time>
      </trkpt>
      <trkpt lat="41.817527" lon="9.207617">
        <ele>1285.0</ele>
        <time>2022-09-16T09:13:26Z</time>
      </trkpt>
      <trkpt lat="41.817595" lon="9.207618">
        <ele>1285.0</ele>
        <time>2022-09-16T09:13:34Z</time>
      </trkpt>
      <trkpt lat="41.817573" lon="9.207537">
        <ele>1285.4</ele>
        <time>2022-09-16T09:13:45Z</time>
      </trkpt>
      <trkpt lat="41.81748" lon="9.207448">
        <ele>1285.8</ele>
        <time>2022-09-16T09:14:05Z</time>
      </trkpt>
      <trkpt lat="41.81743" lon="9.207402">
        <ele>1285.8</ele>
        <time>2022-09-16T09:14:16Z</time>
      </trkpt>
      <trkpt lat="41.817408" lon="9.207353">
        <ele>1284.2</ele>
        <time>2022-09-16T09:14:27Z</time>
      </trkpt>
      <trkpt lat="41.817398" lon="9.20734">
        <ele>1283.0</ele>
        <time>2022-09-16T09:14:31Z</time>
      </trkpt>
      <trkpt lat="41.817345" lon="9.20729">
        <ele>1281.4</ele>
        <time>2022-09-16T09:14:39Z</time>
      </trkpt>
      <trkpt lat="41.817207" lon="9.207225">
        <ele>1278.8</ele>
        <time>2022-09-16T09:14:52Z</time>
      </trkpt>
      <trkpt lat="41.81708" lon="9.207155">
        <ele>1276.2</ele>
        <time>2022-09-16T09:15:02Z</time>
      </trkpt>
      <trkpt lat="41.816918" lon="9.207078">
        <ele>1274.2</ele>
        <time>2022-09-16T09:15:14Z</time>
      </trkpt>
      <trkpt lat="41.816878" lon="9.207053">
        <ele>1274.2</ele>
        <time>2022-09-16T09:15:18Z</time>
      </trkpt>
      <trkpt lat="41.816837" lon="9.207015">
        <ele>1273.0</ele>
        <time>2022-09-16T09:15:23Z</time>
      </trkpt>
      <trkpt lat="41.816755" lon="9.206965">
        <ele>1271.2</ele>
        <time>2022-09-16T09:15:32Z</time>
      </trkpt>
      <trkpt lat="41.816738" lon="9.206897">
        <ele>1270.4</ele>
        <time>2022-09-16T09:15:38Z</time>
      </trkpt>
      <trkpt lat="41.816667" lon="9.206803">
        <ele>1269.0</ele>
        <time>2022-09-16T09:15:48Z</time>
      </trkpt>
      <trkpt lat="41.81666" lon="9.206797">
        <ele>1268.8</ele>
        <time>2022-09-16T09:15:49Z</time>
      </trkpt>
      <trkpt lat="41.816585" lon="9.206847">
        <ele>1266.4</ele>
        <time>2022-09-16T09:16:00Z</time>
      </trkpt>
      <trkpt lat="41.816535" lon="9.20694">
        <ele>1263.4</ele>
        <time>2022-09-16T09:16:16Z</time>
      </trkpt>
      <trkpt lat="41.816513" lon="9.206963">
        <ele>1263.0</ele>
        <time>2022-09-16T09:16:20Z</time>
      </trkpt>
      <trkpt lat="41.816487" lon="9.206958">
        <ele>1262.8</ele>
        <time>2022-09-16T09:16:23Z</time>
      </trkpt>
      <trkpt lat="41.816423" lon="9.206905">
        <ele>1261.4</ele>
        <time>2022-09-16T09:16:41Z</time>
      </trkpt>
      <trkpt lat="41.81642" lon="9.206892">
        <ele>1261.4</ele>
        <time>2022-09-16T09:16:42Z</time>
      </trkpt>
      <trkpt lat="41.8164" lon="9.20688">
        <ele>1261.6</ele>
        <time>2022-09-16T09:16:45Z</time>
      </trkpt>
      <trkpt lat="41.81628" lon="9.206883">
        <ele>1259.8</ele>
        <time>2022-09-16T09:17:07Z</time>
      </trkpt>
      <trkpt lat="41.816258" lon="9.206803">
        <ele>1257.4</ele>
        <time>2022-09-16T09:17:20Z</time>
      </trkpt>
      <trkpt lat="41.816255" lon="9.206803">
        <ele>1257.0</ele>
        <time>2022-09-16T09:17:21Z</time>
      </trkpt>
      <trkpt lat="41.816183" lon="9.206795">
        <ele>1254.8</ele>
        <time>2022-09-16T09:17:32Z</time>
      </trkpt>
      <trkpt lat="41.816127" lon="9.206718">
        <ele>1254.6</ele>
        <time>2022-09-16T09:17:52Z</time>
      </trkpt>
      <trkpt lat="41.816098" lon="9.206675">
        <ele>1255.4</ele>
        <time>2022-09-16T09:18:05Z</time>
      </trkpt>
      <trkpt lat="41.816065" lon="9.206647">
        <ele>1256.0</ele>
        <time>2022-09-16T09:18:16Z</time>
      </trkpt>
      <trkpt lat="41.816062" lon="9.206645">
        <ele>1256.0</ele>
        <time>2022-09-16T09:18:17Z</time>
      </trkpt>
      <trkpt lat="41.815827" lon="9.206603">
        <ele>1259.2</ele>
        <time>2022-09-16T09:18:58Z</time>
      </trkpt>
      <trkpt lat="41.815735" lon="9.206617">
        <ele>1259.0</ele>
        <time>2022-09-16T09:19:12Z</time>
      </trkpt>
      <trkpt lat="41.815667" lon="9.206663">
        <ele>1259.0</ele>
        <time>2022-09-16T09:19:21Z</time>
      </trkpt>
      <trkpt lat="41.815612" lon="9.206667">
        <ele>1258.6</ele>
        <time>2022-09-16T09:19:26Z</time>
      </trkpt>
      <trkpt lat="41.815558" lon="9.206653">
        <ele>1258.8</ele>
        <time>2022-09-16T09:19:30Z</time>
      </trkpt>
      <trkpt lat="41.815488" lon="9.206613">
        <ele>1259.2</ele>
        <time>2022-09-16T09:19:35Z</time>
      </trkpt>
      <trkpt lat="41.815297" lon="9.206488">
        <ele>1259.2</ele>
        <time>2022-09-16T09:19:52Z</time>
      </trkpt>
      <trkpt lat="41.815257" lon="9.20645">
        <ele>1260.4</ele>
        <time>2022-09-16T09:19:57Z</time>
      </trkpt>
      <trkpt lat="41.81516" lon="9.206357">
        <ele>1262.2</ele>
        <time>2022-09-16T09:20:11Z</time>
      </trkpt>
      <trkpt lat="41.815043" lon="9.206265">
        <ele>1264.8</ele>
        <time>2022-09-16T09:20:30Z</time>
      </trkpt>
      <trkpt lat="41.815138" lon="9.20633">
        <ele>1265.6</ele>
        <time>2022-09-16T09:20:35Z</time>
      </trkpt>
      <trkpt lat="41.814982" lon="9.206212">
        <ele>1268.4</ele>
        <time>2022-09-16T09:20:49Z</time>
      </trkpt>
      <trkpt lat="41.814655" lon="9.205888">
        <ele>1267.6</ele>
        <time>2022-09-16T09:21:00Z</time>
      </trkpt>
      <trkpt lat="41.814562" lon="9.205627">
        <ele>1266.6</ele>
        <time>2022-09-16T09:21:12Z</time>
      </trkpt>
      <trkpt lat="41.814458" lon="9.205633">
        <ele>1266.2</ele>
        <time>2022-09-16T09:21:14Z</time>
      </trkpt>
      <trkpt lat="41.81433" lon="9.20561">
        <ele>1265.6</ele>
        <time>2022-09-16T09:21:23Z</time>
      </trkpt>
      <trkpt lat="41.814207" lon="9.20557">
        <ele>1263.8</ele>
        <time>2022-09-16T09:21:32Z</time>
      </trkpt>
      <trkpt lat="41.814153" lon="9.205555">
        <ele>1263.0</ele>
        <time>2022-09-16T09:21:36Z</time>
      </trkpt>
      <trkpt lat="41.814017" lon="9.20547">
        <ele>1260.6</ele>
        <time>2022-09-16T09:21:47Z</time>
      </trkpt>
      <trkpt lat="41.813975" lon="9.205433">
        <ele>1259.2</ele>
        <time>2022-09-16T09:21:51Z</time>
      </trkpt>
      <trkpt lat="41.813912" lon="9.205377">
        <ele>1257.8</ele>
        <time>2022-09-16T09:21:58Z</time>
      </trkpt>
      <trkpt lat="41.813873" lon="9.205363">
        <ele>1255.8</ele>
        <time>2022-09-16T09:22:03Z</time>
      </trkpt>
      <trkpt lat="41.813798" lon="9.205367">
        <ele>1255.0</ele>
        <time>2022-09-16T09:22:19Z</time>
      </trkpt>
      <trkpt lat="41.813785" lon="9.20537">
        <ele>1254.6</ele>
        <time>2022-09-16T09:22:24Z</time>
      </trkpt>
      <trkpt lat="41.813773" lon="9.20537">
        <ele>1253.6</ele>
        <time>2022-09-16T09:22:30Z</time>
      </trkpt>
      <trkpt lat="41.813748" lon="9.205397">
        <ele>1252.6</ele>
        <time>2022-09-16T09:22:39Z</time>
      </trkpt>
      <trkpt lat="41.813712" lon="9.2054">
        <ele>1251.0</ele>
        <time>2022-09-16T09:22:52Z</time>
      </trkpt>
      <trkpt lat="41.813705" lon="9.205402">
        <ele>1251.0</ele>
        <time>2022-09-16T09:22:53Z</time>
      </trkpt>
      <trkpt lat="41.813678" lon="9.205387">
        <ele>1250.2</ele>
        <time>2022-09-16T09:22:59Z</time>
      </trkpt>
      <trkpt lat="41.813643" lon="9.20538">
        <ele>1249.6</ele>
        <time>2022-09-16T09:23:04Z</time>
      </trkpt>
      <trkpt lat="41.813585" lon="9.205422">
        <ele>1248.8</ele>
        <time>2022-09-16T09:23:11Z</time>
      </trkpt>
      <trkpt lat="41.813513" lon="9.20549">
        <ele>1247.6</ele>
        <time>2022-09-16T09:23:19Z</time>
      </trkpt>
      <trkpt lat="41.813472" lon="9.205528">
        <ele>1246.8</ele>
        <time>2022-09-16T09:23:24Z</time>
      </trkpt>
      <trkpt lat="41.813413" lon="9.205623">
        <ele>1245.4</ele>
        <time>2022-09-16T09:23:34Z</time>
      </trkpt>
      <trkpt lat="41.813377" lon="9.20567">
        <ele>1245.2</ele>
        <time>2022-09-16T09:23:39Z</time>
      </trkpt>
      <trkpt lat="41.813287" lon="9.205727">
        <ele>1245.0</ele>
        <time>2022-09-16T09:23:48Z</time>
      </trkpt>
      <trkpt lat="41.813177" lon="9.205682">
        <ele>1243.8</ele>
        <time>2022-09-16T09:23:59Z</time>
      </trkpt>
      <trkpt lat="41.813058" lon="9.205675">
        <ele>1243.8</ele>
        <time>2022-09-16T09:24:10Z</time>
      </trkpt>
      <trkpt lat="41.812875" lon="9.205807">
        <ele>1247.4</ele>
        <time>2022-09-16T09:24:35Z</time>
      </trkpt>
      <trkpt lat="41.812838" lon="9.205855">
        <ele>1249.2</ele>
        <time>2022-09-16T09:24:42Z</time>
      </trkpt>
      <trkpt lat="41.812778" lon="9.205902">
        <ele>1250.4</ele>
        <time>2022-09-16T09:24:50Z</time>
      </trkpt>
      <trkpt lat="41.812712" lon="9.20598">
        <ele>1251.4</ele>
        <time>2022-09-16T09:25:01Z</time>
      </trkpt>
      <trkpt lat="41.812728" lon="9.206">
        <ele>1251.6</ele>
        <time>2022-09-16T09:25:06Z</time>
      </trkpt>
      <trkpt lat="41.81273" lon="9.206037">
        <ele>1252.0</ele>
        <time>2022-09-16T09:25:10Z</time>
      </trkpt>
      <trkpt lat="41.812722" lon="9.206122">
        <ele>1250.0</ele>
        <time>2022-09-16T09:25:19Z</time>
      </trkpt>
      <trkpt lat="41.812732" lon="9.206135">
        <ele>1249.2</ele>
        <time>2022-09-16T09:25:22Z</time>
      </trkpt>
      <trkpt lat="41.81275" lon="9.206132">
        <ele>1247.6</ele>
        <time>2022-09-16T09:25:28Z</time>
      </trkpt>
      <trkpt lat="41.812732" lon="9.206157">
        <ele>1246.2</ele>
        <time>2022-09-16T09:25:32Z</time>
      </trkpt>
      <trkpt lat="41.812705" lon="9.206168">
        <ele>1246.0</ele>
        <time>2022-09-16T09:25:35Z</time>
      </trkpt>
      <trkpt lat="41.812595" lon="9.206153">
        <ele>1245.6</ele>
        <time>2022-09-16T09:25:51Z</time>
      </trkpt>
      <trkpt lat="41.812387" lon="9.206097">
        <ele>1248.0</ele>
        <time>2022-09-16T09:26:03Z</time>
      </trkpt>
      <trkpt lat="41.812138" lon="9.205943">
        <ele>1249.6</ele>
        <time>2022-09-16T09:26:15Z</time>
      </trkpt>
      <trkpt lat="41.812205" lon="9.205792">
        <ele>1251.6</ele>
        <time>2022-09-16T09:26:27Z</time>
      </trkpt>
      <trkpt lat="41.812173" lon="9.205793">
        <ele>1251.6</ele>
        <time>2022-09-16T09:26:27Z</time>
      </trkpt>
      <trkpt lat="41.812145" lon="9.205813">
        <ele>1252.0</ele>
        <time>2022-09-16T09:26:30Z</time>
      </trkpt>
      <trkpt lat="41.81211" lon="9.20584">
        <ele>1252.6</ele>
        <time>2022-09-16T09:26:34Z</time>
      </trkpt>
      <trkpt lat="41.812055" lon="9.205847">
        <ele>1252.8</ele>
        <time>2022-09-16T09:26:38Z</time>
      </trkpt>
      <trkpt lat="41.812013" lon="9.205843">
        <ele>1253.6</ele>
        <time>2022-09-16T09:26:43Z</time>
      </trkpt>
      <trkpt lat="41.811997" lon="9.205825">
        <ele>1254.2</ele>
        <time>2022-09-16T09:26:46Z</time>
      </trkpt>
      <trkpt lat="41.812" lon="9.205782">
        <ele>1254.4</ele>
        <time>2022-09-16T09:26:51Z</time>
      </trkpt>
      <trkpt lat="41.812015" lon="9.205727">
        <ele>1254.4</ele>
        <time>2022-09-16T09:26:58Z</time>
      </trkpt>
      <trkpt lat="41.81202" lon="9.205593">
        <ele>1256.2</ele>
        <time>2022-09-16T09:27:20Z</time>
      </trkpt>
      <trkpt lat="41.812033" lon="9.20559">
        <ele>1256.8</ele>
        <time>2022-09-16T09:27:23Z</time>
      </trkpt>
      <trkpt lat="41.81208" lon="9.20557">
        <ele>1256.8</ele>
        <time>2022-09-16T09:27:34Z</time>
      </trkpt>
      <trkpt lat="41.812175" lon="9.205488">
        <ele>1255.2</ele>
        <time>2022-09-16T09:28:10Z</time>
      </trkpt>
      <trkpt lat="41.812195" lon="9.205448">
        <ele>1252.4</ele>
        <time>2022-09-16T09:28:24Z</time>
      </trkpt>
      <trkpt lat="41.812193" lon="9.205445">
        <ele>1252.4</ele>
        <time>2022-09-16T09:28:26Z</time>
      </trkpt>
      <trkpt lat="41.812215" lon="9.205362">
        <ele>1253.2</ele>
        <time>2022-09-16T09:28:47Z</time>
      </trkpt>
      <trkpt lat="41.812123" lon="9.204808">
        <ele>1249.8</ele>
        <time>2022-09-16T09:29:44Z</time>
      </trkpt>
      <trkpt lat="41.811953" lon="9.204363">
        <ele>1249.4</ele>
        <time>2022-09-16T09:29:56Z</time>
      </trkpt>
      <trkpt lat="41.811927" lon="9.204283">
        <ele>1249.0</ele>
        <time>2022-09-16T09:29:59Z</time>
      </trkpt>
      <trkpt lat="41.811885" lon="9.204197">
        <ele>1249.0</ele>
        <time>2022-09-16T09:30:06Z</time>
      </trkpt>
      <trkpt lat="41.811868" lon="9.20412">
        <ele>1249.0</ele>
        <time>2022-09-16T09:30:10Z</time>
      </trkpt>
      <trkpt lat="41.81184" lon="9.20398">
        <ele>1248.0</ele>
        <time>2022-09-16T09:30:17Z</time>
      </trkpt>
      <trkpt lat="41.811817" lon="9.203908">
        <ele>1246.8</ele>
        <time>2022-09-16T09:30:21Z</time>
      </trkpt>
      <trkpt lat="41.81175" lon="9.203778">
        <ele>1246.8</ele>
        <time>2022-09-16T09:30:31Z</time>
      </trkpt>
      <trkpt lat="41.811743" lon="9.203717">
        <ele>1247.4</ele>
        <time>2022-09-16T09:30:35Z</time>
      </trkpt>
      <trkpt lat="41.811738" lon="9.203657">
        <ele>1247.4</ele>
        <time>2022-09-16T09:30:39Z</time>
      </trkpt>
      <trkpt lat="41.81165" lon="9.203488">
        <ele>1247.2</ele>
        <time>2022-09-16T09:30:51Z</time>
      </trkpt>
      <trkpt lat="41.811595" lon="9.20334">
        <ele>1247.6</ele>
        <time>2022-09-16T09:31:01Z</time>
      </trkpt>
      <trkpt lat="41.811555" lon="9.203262">
        <ele>1247.6</ele>
        <time>2022-09-16T09:31:08Z</time>
      </trkpt>
      <trkpt lat="41.811545" lon="9.203222">
        <ele>1246.6</ele>
        <time>2022-09-16T09:31:13Z</time>
      </trkpt>
      <trkpt lat="41.81154" lon="9.203145">
        <ele>1243.6</ele>
        <time>2022-09-16T09:31:22Z</time>
      </trkpt>
      <trkpt lat="41.811527" lon="9.203123">
        <ele>1242.8</ele>
        <time>2022-09-16T09:31:25Z</time>
      </trkpt>
      <trkpt lat="41.811502" lon="9.203087">
        <ele>1240.8</ele>
        <time>2022-09-16T09:31:48Z</time>
      </trkpt>
      <trkpt lat="41.811468" lon="9.203102">
        <ele>1238.8</ele>
        <time>2022-09-16T09:32:07Z</time>
      </trkpt>
      <trkpt lat="41.811455" lon="9.203103">
        <ele>1236.4</ele>
        <time>2022-09-16T09:32:20Z</time>
      </trkpt>
      <trkpt lat="41.81145" lon="9.203108">
        <ele>1235.0</ele>
        <time>2022-09-16T09:32:27Z</time>
      </trkpt>
      <trkpt lat="41.811443" lon="9.203092">
        <ele>1232.0</ele>
        <time>2022-09-16T09:32:42Z</time>
      </trkpt>
      <trkpt lat="41.811405" lon="9.202945">
        <ele>1231.2</ele>
        <time>2022-09-16T09:32:53Z</time>
      </trkpt>
      <trkpt lat="41.811308" lon="9.202693">
        <ele>1232.0</ele>
        <time>2022-09-16T09:33:03Z</time>
      </trkpt>
      <trkpt lat="41.8109" lon="9.202192">
        <ele>1232.4</ele>
        <time>2022-09-16T09:33:16Z</time>
      </trkpt>
      <trkpt lat="41.810827" lon="9.202058">
        <ele>1231.6</ele>
        <time>2022-09-16T09:33:21Z</time>
      </trkpt>
      <trkpt lat="41.81079" lon="9.202012">
        <ele>1231.0</ele>
        <time>2022-09-16T09:33:24Z</time>
      </trkpt>
      <trkpt lat="41.810702" lon="9.201905">
        <ele>1230.4</ele>
        <time>2022-09-16T09:33:31Z</time>
      </trkpt>
      <trkpt lat="41.810628" lon="9.201817">
        <ele>1230.4</ele>
        <time>2022-09-16T09:33:38Z</time>
      </trkpt>
      <trkpt lat="41.810528" lon="9.201705">
        <ele>1229.8</ele>
        <time>2022-09-16T09:33:50Z</time>
      </trkpt>
      <trkpt lat="41.810502" lon="9.20165">
        <ele>1230.0</ele>
        <time>2022-09-16T09:33:55Z</time>
      </trkpt>
      <trkpt lat="41.810502" lon="9.201627">
        <ele>1230.0</ele>
        <time>2022-09-16T09:33:56Z</time>
      </trkpt>
      <trkpt lat="41.81048" lon="9.201592">
        <ele>1230.2</ele>
        <time>2022-09-16T09:34:01Z</time>
      </trkpt>
      <trkpt lat="41.810425" lon="9.201555">
        <ele>1228.8</ele>
        <time>2022-09-16T09:34:14Z</time>
      </trkpt>
      <trkpt lat="41.81039" lon="9.20156">
        <ele>1227.4</ele>
        <time>2022-09-16T09:34:30Z</time>
      </trkpt>
      <trkpt lat="41.810413" lon="9.201528">
        <ele>1227.6</ele>
        <time>2022-09-16T09:34:43Z</time>
      </trkpt>
      <trkpt lat="41.810435" lon="9.201525">
        <ele>1227.2</ele>
        <time>2022-09-16T09:34:54Z</time>
      </trkpt>
      <trkpt lat="41.810443" lon="9.201513">
        <ele>1227.4</ele>
        <time>2022-09-16T09:35:06Z</time>
      </trkpt>
      <trkpt lat="41.810438" lon="9.201512">
        <ele>1227.4</ele>
        <time>2022-09-16T09:35:07Z</time>
      </trkpt>
      <trkpt lat="41.810207" lon="9.20143">
        <ele>1229.8</ele>
        <time>2022-09-16T09:35:23Z</time>
      </trkpt>
      <trkpt lat="41.81011" lon="9.20136">
        <ele>1229.2</ele>
        <time>2022-09-16T09:35:29Z</time>
      </trkpt>
      <trkpt lat="41.810013" lon="9.201312">
        <ele>1228.4</ele>
        <time>2022-09-16T09:35:35Z</time>
      </trkpt>
      <trkpt lat="41.809882" lon="9.201222">
        <ele>1227.6</ele>
        <time>2022-09-16T09:35:44Z</time>
      </trkpt>
      <trkpt lat="41.809775" lon="9.201157">
        <ele>1226.8</ele>
        <time>2022-09-16T09:35:52Z</time>
      </trkpt>
      <trkpt lat="41.809562" lon="9.200972">
        <ele>1226.2</ele>
        <time>2022-09-16T09:36:13Z</time>
      </trkpt>
      <trkpt lat="41.80956" lon="9.200865">
        <ele>1224.8</ele>
        <time>2022-09-16T09:36:26Z</time>
      </trkpt>
      <trkpt lat="41.809528" lon="9.200772">
        <ele>1223.4</ele>
        <time>2022-09-16T09:36:38Z</time>
      </trkpt>
      <trkpt lat="41.809485" lon="9.200765">
        <ele>1222.2</ele>
        <time>2022-09-16T09:36:47Z</time>
      </trkpt>
      <trkpt lat="41.809407" lon="9.200805">
        <ele>1221.2</ele>
        <time>2022-09-16T09:37:10Z</time>
      </trkpt>
      <trkpt lat="41.809265" lon="9.20076">
        <ele>1220.2</ele>
        <time>2022-09-16T09:37:23Z</time>
      </trkpt>
      <trkpt lat="41.809023" lon="9.20081">
        <ele>1219.0</ele>
        <time>2022-09-16T09:37:35Z</time>
      </trkpt>
      <trkpt lat="41.80879" lon="9.200775">
        <ele>1217.8</ele>
        <time>2022-09-16T09:37:46Z</time>
      </trkpt>
      <trkpt lat="41.808753" lon="9.200762">
        <ele>1217.8</ele>
        <time>2022-09-16T09:37:46Z</time>
      </trkpt>
      <trkpt lat="41.80858" lon="9.200662">
        <ele>1216.2</ele>
        <time>2022-09-16T09:38:03Z</time>
      </trkpt>
      <trkpt lat="41.808502" lon="9.200595">
        <ele>1216.0</ele>
        <time>2022-09-16T09:38:11Z</time>
      </trkpt>
      <trkpt lat="41.808345" lon="9.20052">
        <ele>1215.0</ele>
        <time>2022-09-16T09:38:25Z</time>
      </trkpt>
      <trkpt lat="41.808293" lon="9.200435">
        <ele>1213.4</ele>
        <time>2022-09-16T09:38:33Z</time>
      </trkpt>
      <trkpt lat="41.808265" lon="9.200405">
        <ele>1212.6</ele>
        <time>2022-09-16T09:38:37Z</time>
      </trkpt>
      <trkpt lat="41.8082" lon="9.200338">
        <ele>1210.6</ele>
        <time>2022-09-16T09:38:49Z</time>
      </trkpt>
      <trkpt lat="41.80813" lon="9.200292">
        <ele>1209.2</ele>
        <time>2022-09-16T09:39:05Z</time>
      </trkpt>
      <trkpt lat="41.808088" lon="9.200282">
        <ele>1209.0</ele>
        <time>2022-09-16T09:39:15Z</time>
      </trkpt>
      <trkpt lat="41.808047" lon="9.20029">
        <ele>1207.4</ele>
        <time>2022-09-16T09:39:26Z</time>
      </trkpt>
      <trkpt lat="41.808028" lon="9.20026">
        <ele>1206.8</ele>
        <time>2022-09-16T09:39:35Z</time>
      </trkpt>
      <trkpt lat="41.808027" lon="9.200255">
        <ele>1206.8</ele>
        <time>2022-09-16T09:39:36Z</time>
      </trkpt>
      <trkpt lat="41.80798" lon="9.200223">
        <ele>1208.0</ele>
        <time>2022-09-16T09:39:44Z</time>
      </trkpt>
      <trkpt lat="41.80786" lon="9.200252">
        <ele>1211.4</ele>
        <time>2022-09-16T09:39:59Z</time>
      </trkpt>
      <trkpt lat="41.807757" lon="9.200148">
        <ele>1213.4</ele>
        <time>2022-09-16T09:40:14Z</time>
      </trkpt>
      <trkpt lat="41.807627" lon="9.199972">
        <ele>1215.6</ele>
        <time>2022-09-16T09:40:31Z</time>
      </trkpt>
      <trkpt lat="41.807648" lon="9.199862">
        <ele>1219.2</ele>
        <time>2022-09-16T09:40:41Z</time>
      </trkpt>
      <trkpt lat="41.807638" lon="9.199825">
        <ele>1220.2</ele>
        <time>2022-09-16T09:40:46Z</time>
      </trkpt>
      <trkpt lat="41.807597" lon="9.199767">
        <ele>1222.0</ele>
        <time>2022-09-16T09:40:53Z</time>
      </trkpt>
      <trkpt lat="41.807518" lon="9.199693">
        <ele>1224.4</ele>
        <time>2022-09-16T09:41:04Z</time>
      </trkpt>
      <trkpt lat="41.807477" lon="9.199665">
        <ele>1225.4</ele>
        <time>2022-09-16T09:41:10Z</time>
      </trkpt>
      <trkpt lat="41.807388" lon="9.199632">
        <ele>1226.4</ele>
        <time>2022-09-16T09:41:21Z</time>
      </trkpt>
      <trkpt lat="41.807382" lon="9.199633">
        <ele>1227.4</ele>
        <time>2022-09-16T09:41:23Z</time>
      </trkpt>
      <trkpt lat="41.80734" lon="9.199643">
        <ele>1228.6</ele>
        <time>2022-09-16T09:41:29Z</time>
      </trkpt>
      <trkpt lat="41.807312" lon="9.199675">
        <ele>1229.0</ele>
        <time>2022-09-16T09:41:34Z</time>
      </trkpt>
      <trkpt lat="41.807282" lon="9.199715">
        <ele>1229.6</ele>
        <time>2022-09-16T09:41:40Z</time>
      </trkpt>
      <trkpt lat="41.807257" lon="9.199733">
        <ele>1230.2</ele>
        <time>2022-09-16T09:41:44Z</time>
      </trkpt>
      <trkpt lat="41.807227" lon="9.199772">
        <ele>1231.6</ele>
        <time>2022-09-16T09:41:51Z</time>
      </trkpt>
      <trkpt lat="41.807188" lon="9.199747">
        <ele>1232.0</ele>
        <time>2022-09-16T09:41:58Z</time>
      </trkpt>
      <trkpt lat="41.807152" lon="9.199808">
        <ele>1233.4</ele>
        <time>2022-09-16T09:42:08Z</time>
      </trkpt>
      <trkpt lat="41.807133" lon="9.19984">
        <ele>1234.2</ele>
        <time>2022-09-16T09:42:12Z</time>
      </trkpt>
      <trkpt lat="41.807098" lon="9.199813">
        <ele>1234.4</ele>
        <time>2022-09-16T09:42:17Z</time>
      </trkpt>
      <trkpt lat="41.807048" lon="9.1998">
        <ele>1235.6</ele>
        <time>2022-09-16T09:42:24Z</time>
      </trkpt>
      <trkpt lat="41.807045" lon="9.199742">
        <ele>1236.8</ele>
        <time>2022-09-16T09:42:29Z</time>
      </trkpt>
      <trkpt lat="41.807047" lon="9.199627">
        <ele>1238.8</ele>
        <time>2022-09-16T09:42:39Z</time>
      </trkpt>
      <trkpt lat="41.807012" lon="9.199547">
        <ele>1239.6</ele>
        <time>2022-09-16T09:42:47Z</time>
      </trkpt>
      <trkpt lat="41.807003" lon="9.199452">
        <ele>1240.2</ele>
        <time>2022-09-16T09:42:56Z</time>
      </trkpt>
      <trkpt lat="41.806998" lon="9.199383">
        <ele>1239.0</ele>
        <time>2022-09-16T09:43:05Z</time>
      </trkpt>
      <trkpt lat="41.806995" lon="9.199368">
        <ele>1238.4</ele>
        <time>2022-09-16T09:43:07Z</time>
      </trkpt>
      <trkpt lat="41.806925" lon="9.199398">
        <ele>1236.0</ele>
        <time>2022-09-16T09:43:19Z</time>
      </trkpt>
      <trkpt lat="41.806872" lon="9.19945">
        <ele>1234.8</ele>
        <time>2022-09-16T09:43:30Z</time>
      </trkpt>
      <trkpt lat="41.806803" lon="9.19944">
        <ele>1231.4</ele>
        <time>2022-09-16T09:43:45Z</time>
      </trkpt>
      <trkpt lat="41.80669" lon="9.199405">
        <ele>1226.0</ele>
        <time>2022-09-16T09:44:07Z</time>
      </trkpt>
      <trkpt lat="41.806687" lon="9.1994">
        <ele>1225.8</ele>
        <time>2022-09-16T09:44:08Z</time>
      </trkpt>
      <trkpt lat="41.806677" lon="9.199282">
        <ele>1224.0</ele>
        <time>2022-09-16T09:44:19Z</time>
      </trkpt>
      <trkpt lat="41.806652" lon="9.199222">
        <ele>1222.2</ele>
        <time>2022-09-16T09:44:27Z</time>
      </trkpt>
      <trkpt lat="41.806535" lon="9.199082">
        <ele>1218.4</ele>
        <time>2022-09-16T09:44:48Z</time>
      </trkpt>
      <trkpt lat="41.80652" lon="9.198967">
        <ele>1217.0</ele>
        <time>2022-09-16T09:44:57Z</time>
      </trkpt>
      <trkpt lat="41.80649" lon="9.198895">
        <ele>1216.4</ele>
        <time>2022-09-16T09:45:02Z</time>
      </trkpt>
      <trkpt lat="41.806505" lon="9.198852">
        <ele>1215.6</ele>
        <time>2022-09-16T09:45:07Z</time>
      </trkpt>
      <trkpt lat="41.80653" lon="9.198805">
        <ele>1215.0</ele>
        <time>2022-09-16T09:45:14Z</time>
      </trkpt>
      <trkpt lat="41.806517" lon="9.198735">
        <ele>1213.8</ele>
        <time>2022-09-16T09:45:19Z</time>
      </trkpt>
      <trkpt lat="41.80648" lon="9.198637">
        <ele>1213.0</ele>
        <time>2022-09-16T09:45:26Z</time>
      </trkpt>
      <trkpt lat="41.806412" lon="9.198563">
        <ele>1212.4</ele>
        <time>2022-09-16T09:45:32Z</time>
      </trkpt>
      <trkpt lat="41.8064" lon="9.198552">
        <ele>1212.4</ele>
        <time>2022-09-16T09:45:33Z</time>
      </trkpt>
      <trkpt lat="41.806337" lon="9.198507">
        <ele>1211.6</ele>
        <time>2022-09-16T09:45:41Z</time>
      </trkpt>
      <trkpt lat="41.80629" lon="9.198497">
        <ele>1211.4</ele>
        <time>2022-09-16T09:45:47Z</time>
      </trkpt>
      <trkpt lat="41.806253" lon="9.198483">
        <ele>1210.6</ele>
        <time>2022-09-16T09:45:53Z</time>
      </trkpt>
      <trkpt lat="41.806203" lon="9.198432">
        <ele>1209.6</ele>
        <time>2022-09-16T09:46:01Z</time>
      </trkpt>
      <trkpt lat="41.806168" lon="9.198385">
        <ele>1209.2</ele>
        <time>2022-09-16T09:46:08Z</time>
      </trkpt>
      <trkpt lat="41.80613" lon="9.198338">
        <ele>1207.4</ele>
        <time>2022-09-16T09:46:16Z</time>
      </trkpt>
      <trkpt lat="41.806118" lon="9.198315">
        <ele>1206.6</ele>
        <time>2022-09-16T09:46:19Z</time>
      </trkpt>
      <trkpt lat="41.805902" lon="9.198007">
        <ele>1201.2</ele>
        <time>2022-09-16T09:46:52Z</time>
      </trkpt>
      <trkpt lat="41.805877" lon="9.19797">
        <ele>1200.4</ele>
        <time>2022-09-16T09:46:56Z</time>
      </trkpt>
      <trkpt lat="41.805838" lon="9.197865">
        <ele>1199.2</ele>
        <time>2022-09-16T09:47:05Z</time>
      </trkpt>
      <trkpt lat="41.805835" lon="9.197802">
        <ele>1198.8</ele>
        <time>2022-09-16T09:47:10Z</time>
      </trkpt>
      <trkpt lat="41.805832" lon="9.197752">
        <ele>1197.8</ele>
        <time>2022-09-16T09:47:14Z</time>
      </trkpt>
      <trkpt lat="41.805827" lon="9.197702">
        <ele>1197.8</ele>
        <time>2022-09-16T09:47:19Z</time>
      </trkpt>
      <trkpt lat="41.805812" lon="9.197683">
        <ele>1198.4</ele>
        <time>2022-09-16T09:47:22Z</time>
      </trkpt>
      <trkpt lat="41.805763" lon="9.19766">
        <ele>1199.6</ele>
        <time>2022-09-16T09:47:29Z</time>
      </trkpt>
      <trkpt lat="41.805705" lon="9.1976">
        <ele>1199.6</ele>
        <time>2022-09-16T09:47:39Z</time>
      </trkpt>
      <trkpt lat="41.80563" lon="9.197535">
        <ele>1199.0</ele>
        <time>2022-09-16T09:47:54Z</time>
      </trkpt>
      <trkpt lat="41.805603" lon="9.197505">
        <ele>1198.2</ele>
        <time>2022-09-16T09:48:04Z</time>
      </trkpt>
      <trkpt lat="41.805547" lon="9.197382">
        <ele>1193.6</ele>
        <time>2022-09-16T09:48:42Z</time>
      </trkpt>
      <trkpt lat="41.805527" lon="9.19736">
        <ele>1193.0</ele>
        <time>2022-09-16T09:48:48Z</time>
      </trkpt>
      <trkpt lat="41.8055" lon="9.197328">
        <ele>1192.6</ele>
        <time>2022-09-16T09:48:54Z</time>
      </trkpt>
      <trkpt lat="41.805437" lon="9.197307">
        <ele>1192.0</ele>
        <time>2022-09-16T09:49:03Z</time>
      </trkpt>
      <trkpt lat="41.80536" lon="9.197247">
        <ele>1190.8</ele>
        <time>2022-09-16T09:49:18Z</time>
      </trkpt>
      <trkpt lat="41.805317" lon="9.197193">
        <ele>1188.2</ele>
        <time>2022-09-16T09:49:30Z</time>
      </trkpt>
      <trkpt lat="41.805238" lon="9.197133">
        <ele>1185.8</ele>
        <time>2022-09-16T09:49:52Z</time>
      </trkpt>
      <trkpt lat="41.805027" lon="9.19691">
        <ele>1181.8</ele>
        <time>2022-09-16T09:50:22Z</time>
      </trkpt>
      <trkpt lat="41.804975" lon="9.196855">
        <ele>1182.0</ele>
        <time>2022-09-16T09:50:30Z</time>
      </trkpt>
      <trkpt lat="41.804888" lon="9.196793">
        <ele>1181.4</ele>
        <time>2022-09-16T09:50:40Z</time>
      </trkpt>
      <trkpt lat="41.804822" lon="9.196777">
        <ele>1181.6</ele>
        <time>2022-09-16T09:50:45Z</time>
      </trkpt>
      <trkpt lat="41.804773" lon="9.196788">
        <ele>1181.4</ele>
        <time>2022-09-16T09:50:51Z</time>
      </trkpt>
      <trkpt lat="41.804702" lon="9.19673">
        <ele>1178.8</ele>
        <time>2022-09-16T09:51:01Z</time>
      </trkpt>
      <trkpt lat="41.804665" lon="9.196708">
        <ele>1177.6</ele>
        <time>2022-09-16T09:51:06Z</time>
      </trkpt>
      <trkpt lat="41.804645" lon="9.196675">
        <ele>1177.2</ele>
        <time>2022-09-16T09:51:11Z</time>
      </trkpt>
      <trkpt lat="41.804618" lon="9.196602">
        <ele>1176.8</ele>
        <time>2022-09-16T09:51:19Z</time>
      </trkpt>
      <trkpt lat="41.8046" lon="9.196555">
        <ele>1175.4</ele>
        <time>2022-09-16T09:51:25Z</time>
      </trkpt>
      <trkpt lat="41.80462" lon="9.196487">
        <ele>1174.2</ele>
        <time>2022-09-16T09:51:34Z</time>
      </trkpt>
      <trkpt lat="41.804597" lon="9.196423">
        <ele>1173.2</ele>
        <time>2022-09-16T09:51:44Z</time>
      </trkpt>
      <trkpt lat="41.804555" lon="9.196303">
        <ele>1169.4</ele>
        <time>2022-09-16T09:52:11Z</time>
      </trkpt>
      <trkpt lat="41.804555" lon="9.196298">
        <ele>1169.4</ele>
        <time>2022-09-16T09:52:12Z</time>
      </trkpt>
      <trkpt lat="41.80452" lon="9.196305">
        <ele>1167.4</ele>
        <time>2022-09-16T09:52:27Z</time>
      </trkpt>
      <trkpt lat="41.804487" lon="9.19631">
        <ele>1164.0</ele>
        <time>2022-09-16T09:52:47Z</time>
      </trkpt>
      <trkpt lat="41.80443" lon="9.196353">
        <ele>1157.4</ele>
        <time>2022-09-16T09:53:13Z</time>
      </trkpt>
      <trkpt lat="41.804387" lon="9.196412">
        <ele>1155.0</ele>
        <time>2022-09-16T09:53:32Z</time>
      </trkpt>
      <trkpt lat="41.804368" lon="9.196303">
        <ele>1151.2</ele>
        <time>2022-09-16T09:53:48Z</time>
      </trkpt>
      <trkpt lat="41.804097" lon="9.196133">
        <ele>1149.4</ele>
        <time>2022-09-16T09:54:09Z</time>
      </trkpt>
      <trkpt lat="41.80391" lon="9.196098">
        <ele>1150.2</ele>
        <time>2022-09-16T09:54:19Z</time>
      </trkpt>
      <trkpt lat="41.8039" lon="9.196093">
        <ele>1150.2</ele>
        <time>2022-09-16T09:54:20Z</time>
      </trkpt>
      <trkpt lat="41.803695" lon="9.195993">
        <ele>1152.4</ele>
        <time>2022-09-16T09:54:41Z</time>
      </trkpt>
      <trkpt lat="41.8036" lon="9.195937">
        <ele>1154.0</ele>
        <time>2022-09-16T09:54:50Z</time>
      </trkpt>
      <trkpt lat="41.803542" lon="9.195895">
        <ele>1153.0</ele>
        <time>2022-09-16T09:54:56Z</time>
      </trkpt>
      <trkpt lat="41.80348" lon="9.195827">
        <ele>1151.6</ele>
        <time>2022-09-16T09:55:04Z</time>
      </trkpt>
      <trkpt lat="41.803338" lon="9.195745">
        <ele>1152.2</ele>
        <time>2022-09-16T09:55:19Z</time>
      </trkpt>
      <trkpt lat="41.803232" lon="9.195865">
        <ele>1151.6</ele>
        <time>2022-09-16T09:55:30Z</time>
      </trkpt>
      <trkpt lat="41.8032" lon="9.195877">
        <ele>1151.4</ele>
        <time>2022-09-16T09:55:33Z</time>
      </trkpt>
      <trkpt lat="41.80318" lon="9.195832">
        <ele>1151.0</ele>
        <time>2022-09-16T09:55:37Z</time>
      </trkpt>
      <trkpt lat="41.80316" lon="9.195795">
        <ele>1150.6</ele>
        <time>2022-09-16T09:55:41Z</time>
      </trkpt>
      <trkpt lat="41.803052" lon="9.195687">
        <ele>1148.6</ele>
        <time>2022-09-16T09:55:55Z</time>
      </trkpt>
      <trkpt lat="41.803007" lon="9.195627">
        <ele>1147.4</ele>
        <time>2022-09-16T09:56:03Z</time>
      </trkpt>
      <trkpt lat="41.802945" lon="9.195547">
        <ele>1146.4</ele>
        <time>2022-09-16T09:56:13Z</time>
      </trkpt>
      <trkpt lat="41.802903" lon="9.1955">
        <ele>1145.8</ele>
        <time>2022-09-16T09:56:19Z</time>
      </trkpt>
      <trkpt lat="41.802825" lon="9.195443">
        <ele>1145.6</ele>
        <time>2022-09-16T09:56:29Z</time>
      </trkpt>
      <trkpt lat="41.802772" lon="9.195462">
        <ele>1145.4</ele>
        <time>2022-09-16T09:56:37Z</time>
      </trkpt>
      <trkpt lat="41.802763" lon="9.1954">
        <ele>1144.2</ele>
        <time>2022-09-16T09:56:43Z</time>
      </trkpt>
      <trkpt lat="41.802753" lon="9.195368">
        <ele>1143.6</ele>
        <time>2022-09-16T09:56:46Z</time>
      </trkpt>
      <trkpt lat="41.802733" lon="9.195372">
        <ele>1143.0</ele>
        <time>2022-09-16T09:56:49Z</time>
      </trkpt>
      <trkpt lat="41.802662" lon="9.195447">
        <ele>1141.6</ele>
        <time>2022-09-16T09:57:02Z</time>
      </trkpt>
      <trkpt lat="41.802573" lon="9.195475">
        <ele>1139.8</ele>
        <time>2022-09-16T09:57:20Z</time>
      </trkpt>
      <trkpt lat="41.802568" lon="9.195478">
        <ele>1139.8</ele>
        <time>2022-09-16T09:57:21Z</time>
      </trkpt>
      <trkpt lat="41.802515" lon="9.195477">
        <ele>1140.0</ele>
        <time>2022-09-16T09:57:27Z</time>
      </trkpt>
      <trkpt lat="41.802453" lon="9.195453">
        <ele>1139.8</ele>
        <time>2022-09-16T09:57:33Z</time>
      </trkpt>
      <trkpt lat="41.802367" lon="9.195375">
        <ele>1139.6</ele>
        <time>2022-09-16T09:57:42Z</time>
      </trkpt>
      <trkpt lat="41.802273" lon="9.195372">
        <ele>1139.4</ele>
        <time>2022-09-16T09:57:50Z</time>
      </trkpt>
      <trkpt lat="41.802263" lon="9.195367">
        <ele>1139.4</ele>
        <time>2022-09-16T09:57:52Z</time>
      </trkpt>
      <trkpt lat="41.802178" lon="9.195272">
        <ele>1136.8</ele>
        <time>2022-09-16T09:58:04Z</time>
      </trkpt>
      <trkpt lat="41.802137" lon="9.195227">
        <ele>1136.0</ele>
        <time>2022-09-16T09:58:10Z</time>
      </trkpt>
      <trkpt lat="41.80208" lon="9.19517">
        <ele>1135.2</ele>
        <time>2022-09-16T09:58:18Z</time>
      </trkpt>
      <trkpt lat="41.801992" lon="9.195097">
        <ele>1134.6</ele>
        <time>2022-09-16T09:58:30Z</time>
      </trkpt>
      <trkpt lat="41.801945" lon="9.195068">
        <ele>1134.6</ele>
        <time>2022-09-16T09:58:37Z</time>
      </trkpt>
      <trkpt lat="41.801838" lon="9.195022">
        <ele>1134.0</ele>
        <time>2022-09-16T09:58:50Z</time>
      </trkpt>
      <trkpt lat="41.801755" lon="9.194962">
        <ele>1133.2</ele>
        <time>2022-09-16T09:59:02Z</time>
      </trkpt>
      <trkpt lat="41.801658" lon="9.194853">
        <ele>1131.0</ele>
        <time>2022-09-16T09:59:14Z</time>
      </trkpt>
      <trkpt lat="41.80152" lon="9.194705">
        <ele>1129.6</ele>
        <time>2022-09-16T09:59:28Z</time>
      </trkpt>
      <trkpt lat="41.801465" lon="9.194635">
        <ele>1128.8</ele>
        <time>2022-09-16T09:59:35Z</time>
      </trkpt>
      <trkpt lat="41.80136" lon="9.194563">
        <ele>1127.2</ele>
        <time>2022-09-16T09:59:44Z</time>
      </trkpt>
      <trkpt lat="41.80131" lon="9.194535">
        <ele>1126.8</ele>
        <time>2022-09-16T09:59:50Z</time>
      </trkpt>
      <trkpt lat="41.801157" lon="9.19443">
        <ele>1127.4</ele>
        <time>2022-09-16T10:00:09Z</time>
      </trkpt>
      <trkpt lat="41.801042" lon="9.194402">
        <ele>1125.8</ele>
        <time>2022-09-16T10:00:24Z</time>
      </trkpt>
      <trkpt lat="41.800938" lon="9.194355">
        <ele>1124.2</ele>
        <time>2022-09-16T10:00:37Z</time>
      </trkpt>
      <trkpt lat="41.800905" lon="9.194297">
        <ele>1124.4</ele>
        <time>2022-09-16T10:00:42Z</time>
      </trkpt>
      <trkpt lat="41.800893" lon="9.194238">
        <ele>1123.8</ele>
        <time>2022-09-16T10:00:46Z</time>
      </trkpt>
      <trkpt lat="41.800885" lon="9.19418">
        <ele>1122.8</ele>
        <time>2022-09-16T10:00:50Z</time>
      </trkpt>
      <trkpt lat="41.800763" lon="9.19404">
        <ele>1123.4</ele>
        <time>2022-09-16T10:01:05Z</time>
      </trkpt>
      <trkpt lat="41.800755" lon="9.194028">
        <ele>1123.4</ele>
        <time>2022-09-16T10:01:07Z</time>
      </trkpt>
      <trkpt lat="41.800675" lon="9.194063">
        <ele>1124.0</ele>
        <time>2022-09-16T10:01:16Z</time>
      </trkpt>
      <trkpt lat="41.80061" lon="9.194058">
        <ele>1125.0</ele>
        <time>2022-09-16T10:01:23Z</time>
      </trkpt>
      <trkpt lat="41.800557" lon="9.194073">
        <ele>1125.2</ele>
        <time>2022-09-16T10:01:30Z</time>
      </trkpt>
      <trkpt lat="41.800517" lon="9.194075">
        <ele>1125.4</ele>
        <time>2022-09-16T10:01:35Z</time>
      </trkpt>
      <trkpt lat="41.80045" lon="9.193987">
        <ele>1125.4</ele>
        <time>2022-09-16T10:01:47Z</time>
      </trkpt>
      <trkpt lat="41.800445" lon="9.19398">
        <ele>1125.2</ele>
        <time>2022-09-16T10:01:48Z</time>
      </trkpt>
      <trkpt lat="41.800422" lon="9.193973">
        <ele>1125.2</ele>
        <time>2022-09-16T10:01:52Z</time>
      </trkpt>
      <trkpt lat="41.800378" lon="9.194003">
        <ele>1125.4</ele>
        <time>2022-09-16T10:01:59Z</time>
      </trkpt>
      <trkpt lat="41.800343" lon="9.194027">
        <ele>1125.4</ele>
        <time>2022-09-16T10:02:04Z</time>
      </trkpt>
      <trkpt lat="41.800303" lon="9.194033">
        <ele>1125.2</ele>
        <time>2022-09-16T10:02:10Z</time>
      </trkpt>
      <trkpt lat="41.800235" lon="9.194037">
        <ele>1122.8</ele>
        <time>2022-09-16T10:02:22Z</time>
      </trkpt>
      <trkpt lat="41.800173" lon="9.194135">
        <ele>1117.2</ele>
        <time>2022-09-16T10:02:54Z</time>
      </trkpt>
      <trkpt lat="41.800172" lon="9.194133">
        <ele>1117.2</ele>
        <time>2022-09-16T10:02:55Z</time>
      </trkpt>
      <trkpt lat="41.800087" lon="9.194047">
        <ele>1107.4</ele>
        <time>2022-09-16T10:03:46Z</time>
      </trkpt>
      <trkpt lat="41.799748" lon="9.193952">
        <ele>1104.2</ele>
        <time>2022-09-16T10:04:25Z</time>
      </trkpt>
      <trkpt lat="41.799638" lon="9.193982">
        <ele>1104.2</ele>
        <time>2022-09-16T10:04:36Z</time>
      </trkpt>
      <trkpt lat="41.799567" lon="9.193978">
        <ele>1103.2</ele>
        <time>2022-09-16T10:04:38Z</time>
      </trkpt>
      <trkpt lat="41.799483" lon="9.194005">
        <ele>1100.6</ele>
        <time>2022-09-16T10:04:47Z</time>
      </trkpt>
      <trkpt lat="41.799242" lon="9.193885">
        <ele>1099.4</ele>
        <time>2022-09-16T10:05:15Z</time>
      </trkpt>
      <trkpt lat="41.799183" lon="9.193925">
        <ele>1099.6</ele>
        <time>2022-09-16T10:05:25Z</time>
      </trkpt>
      <trkpt lat="41.799113" lon="9.19398">
        <ele>1097.6</ele>
        <time>2022-09-16T10:05:36Z</time>
      </trkpt>
      <trkpt lat="41.799052" lon="9.194067">
        <ele>1096.4</ele>
        <time>2022-09-16T10:05:49Z</time>
      </trkpt>
      <trkpt lat="41.79901" lon="9.19418">
        <ele>1097.8</ele>
        <time>2022-09-16T10:06:01Z</time>
      </trkpt>
      <trkpt lat="41.798975" lon="9.194203">
        <ele>1098.0</ele>
        <time>2022-09-16T10:06:06Z</time>
      </trkpt>
      <trkpt lat="41.798938" lon="9.19421">
        <ele>1097.8</ele>
        <time>2022-09-16T10:06:11Z</time>
      </trkpt>
      <trkpt lat="41.798908" lon="9.194253">
        <ele>1097.8</ele>
        <time>2022-09-16T10:06:17Z</time>
      </trkpt>
      <trkpt lat="41.798872" lon="9.194328">
        <ele>1099.4</ele>
        <time>2022-09-16T10:06:25Z</time>
      </trkpt>
      <trkpt lat="41.7988" lon="9.194393">
        <ele>1099.4</ele>
        <time>2022-09-16T10:06:35Z</time>
      </trkpt>
      <trkpt lat="41.798728" lon="9.194447">
        <ele>1098.8</ele>
        <time>2022-09-16T10:06:46Z</time>
      </trkpt>
      <trkpt lat="41.798688" lon="9.194457">
        <ele>1099.6</ele>
        <time>2022-09-16T10:06:53Z</time>
      </trkpt>
      <trkpt lat="41.79853" lon="9.194237">
        <ele>1099.0</ele>
        <time>2022-09-16T10:07:12Z</time>
      </trkpt>
      <trkpt lat="41.798458" lon="9.194178">
        <ele>1098.8</ele>
        <time>2022-09-16T10:07:17Z</time>
      </trkpt>
      <trkpt lat="41.798345" lon="9.194148">
        <ele>1099.0</ele>
        <time>2022-09-16T10:07:25Z</time>
      </trkpt>
      <trkpt lat="41.798313" lon="9.194113">
        <ele>1099.0</ele>
        <time>2022-09-16T10:07:28Z</time>
      </trkpt>
      <trkpt lat="41.798287" lon="9.194072">
        <ele>1098.0</ele>
        <time>2022-09-16T10:07:32Z</time>
      </trkpt>
      <trkpt lat="41.798262" lon="9.194058">
        <ele>1097.8</ele>
        <time>2022-09-16T10:07:36Z</time>
      </trkpt>
      <trkpt lat="41.798227" lon="9.194045">
        <ele>1097.4</ele>
        <time>2022-09-16T10:07:41Z</time>
      </trkpt>
      <trkpt lat="41.798188" lon="9.194067">
        <ele>1097.0</ele>
        <time>2022-09-16T10:07:45Z</time>
      </trkpt>
      <trkpt lat="41.79815" lon="9.194108">
        <ele>1097.6</ele>
        <time>2022-09-16T10:07:49Z</time>
      </trkpt>
      <trkpt lat="41.798065" lon="9.194228">
        <ele>1101.4</ele>
        <time>2022-09-16T10:07:59Z</time>
      </trkpt>
      <trkpt lat="41.797997" lon="9.194343">
        <ele>1101.0</ele>
        <time>2022-09-16T10:08:08Z</time>
      </trkpt>
      <trkpt lat="41.797948" lon="9.194435">
        <ele>1100.4</ele>
        <time>2022-09-16T10:08:16Z</time>
      </trkpt>
      <trkpt lat="41.797943" lon="9.194447">
        <ele>1100.4</ele>
        <time>2022-09-16T10:08:17Z</time>
      </trkpt>
      <trkpt lat="41.797928" lon="9.194468">
        <ele>1100.4</ele>
        <time>2022-09-16T10:08:22Z</time>
      </trkpt>
      <trkpt lat="41.797905" lon="9.194493">
        <ele>1100.6</ele>
        <time>2022-09-16T10:08:29Z</time>
      </trkpt>
      <trkpt lat="41.797862" lon="9.194505">
        <ele>1103.4</ele>
        <time>2022-09-16T10:08:36Z</time>
      </trkpt>
      <trkpt lat="41.797828" lon="9.194528">
        <ele>1104.6</ele>
        <time>2022-09-16T10:08:41Z</time>
      </trkpt>
      <trkpt lat="41.797793" lon="9.194553">
        <ele>1105.2</ele>
        <time>2022-09-16T10:08:46Z</time>
      </trkpt>
      <trkpt lat="41.79772" lon="9.194575">
        <ele>1103.4</ele>
        <time>2022-09-16T10:08:57Z</time>
      </trkpt>
      <trkpt lat="41.797717" lon="9.194583">
        <ele>1103.0</ele>
        <time>2022-09-16T10:08:59Z</time>
      </trkpt>
      <trkpt lat="41.797665" lon="9.194593">
        <ele>1102.0</ele>
        <time>2022-09-16T10:09:05Z</time>
      </trkpt>
      <trkpt lat="41.797597" lon="9.194593">
        <ele>1101.2</ele>
        <time>2022-09-16T10:09:13Z</time>
      </trkpt>
      <trkpt lat="41.797525" lon="9.194597">
        <ele>1099.8</ele>
        <time>2022-09-16T10:09:22Z</time>
      </trkpt>
      <trkpt lat="41.797457" lon="9.194573">
        <ele>1098.2</ele>
        <time>2022-09-16T10:09:31Z</time>
      </trkpt>
      <trkpt lat="41.797443" lon="9.194538">
        <ele>1097.6</ele>
        <time>2022-09-16T10:09:36Z</time>
      </trkpt>
      <trkpt lat="41.797442" lon="9.194528">
        <ele>1097.6</ele>
        <time>2022-09-16T10:09:37Z</time>
      </trkpt>
      <trkpt lat="41.797423" lon="9.194493">
        <ele>1096.2</ele>
        <time>2022-09-16T10:09:41Z</time>
      </trkpt>
      <trkpt lat="41.797305" lon="9.194423">
        <ele>1093.0</ele>
        <time>2022-09-16T10:10:00Z</time>
      </trkpt>
      <trkpt lat="41.797273" lon="9.194392">
        <ele>1092.2</ele>
        <time>2022-09-16T10:10:07Z</time>
      </trkpt>
      <trkpt lat="41.797243" lon="9.194318">
        <ele>1090.4</ele>
        <time>2022-09-16T10:10:22Z</time>
      </trkpt>
      <trkpt lat="41.797252" lon="9.194277">
        <ele>1089.4</ele>
        <time>2022-09-16T10:10:30Z</time>
      </trkpt>
      <trkpt lat="41.797227" lon="9.194247">
        <ele>1087.4</ele>
        <time>2022-09-16T10:10:40Z</time>
      </trkpt>
      <trkpt lat="41.797223" lon="9.194248">
        <ele>1087.4</ele>
        <time>2022-09-16T10:10:41Z</time>
      </trkpt>
      <trkpt lat="41.797175" lon="9.194255">
        <ele>1085.4</ele>
        <time>2022-09-16T10:11:00Z</time>
      </trkpt>
      <trkpt lat="41.797153" lon="9.194257">
        <ele>1083.6</ele>
        <time>2022-09-16T10:11:10Z</time>
      </trkpt>
      <trkpt lat="41.797138" lon="9.19423">
        <ele>1082.2</ele>
        <time>2022-09-16T10:11:26Z</time>
      </trkpt>
      <trkpt lat="41.797085" lon="9.19419">
        <ele>1074.2</ele>
        <time>2022-09-16T10:12:06Z</time>
      </trkpt>
      <trkpt lat="41.797073" lon="9.19416">
        <ele>1073.0</ele>
        <time>2022-09-16T10:12:23Z</time>
      </trkpt>
      <trkpt lat="41.79707" lon="9.194163">
        <ele>1073.0</ele>
        <time>2022-09-16T10:12:24Z</time>
      </trkpt>
      <trkpt lat="41.79705" lon="9.19411">
        <ele>1071.2</ele>
        <time>2022-09-16T10:12:35Z</time>
      </trkpt>
      <trkpt lat="41.796993" lon="9.19407">
        <ele>1070.4</ele>
        <time>2022-09-16T10:12:43Z</time>
      </trkpt>
      <trkpt lat="41.796835" lon="9.193925">
        <ele>1065.6</ele>
        <time>2022-09-16T10:13:10Z</time>
      </trkpt>
      <trkpt lat="41.79683" lon="9.19392">
        <ele>1065.0</ele>
        <time>2022-09-16T10:13:11Z</time>
      </trkpt>
      <trkpt lat="41.796787" lon="9.193867">
        <ele>1063.2</ele>
        <time>2022-09-16T10:13:20Z</time>
      </trkpt>
      <trkpt lat="41.79675" lon="9.193717">
        <ele>1060.4</ele>
        <time>2022-09-16T10:13:42Z</time>
      </trkpt>
      <trkpt lat="41.796748" lon="9.193653">
        <ele>1059.8</ele>
        <time>2022-09-16T10:13:47Z</time>
      </trkpt>
      <trkpt lat="41.796733" lon="9.193622">
        <ele>1059.8</ele>
        <time>2022-09-16T10:13:48Z</time>
      </trkpt>
      <trkpt lat="41.796692" lon="9.193605">
        <ele>1059.8</ele>
        <time>2022-09-16T10:13:52Z</time>
      </trkpt>
      <trkpt lat="41.796608" lon="9.193598">
        <ele>1058.2</ele>
        <time>2022-09-16T10:14:01Z</time>
      </trkpt>
      <trkpt lat="41.796542" lon="9.19362">
        <ele>1056.6</ele>
        <time>2022-09-16T10:14:12Z</time>
      </trkpt>
      <trkpt lat="41.796523" lon="9.193637">
        <ele>1055.6</ele>
        <time>2022-09-16T10:14:16Z</time>
      </trkpt>
      <trkpt lat="41.796512" lon="9.193648">
        <ele>1055.6</ele>
        <time>2022-09-16T10:14:19Z</time>
      </trkpt>
      <trkpt lat="41.796485" lon="9.193665">
        <ele>1054.2</ele>
        <time>2022-09-16T10:14:23Z</time>
      </trkpt>
      <trkpt lat="41.796457" lon="9.193658">
        <ele>1054.0</ele>
        <time>2022-09-16T10:14:27Z</time>
      </trkpt>
      <trkpt lat="41.796425" lon="9.19362">
        <ele>1053.0</ele>
        <time>2022-09-16T10:14:32Z</time>
      </trkpt>
      <trkpt lat="41.796383" lon="9.193627">
        <ele>1052.0</ele>
        <time>2022-09-16T10:14:37Z</time>
      </trkpt>
      <trkpt lat="41.796317" lon="9.193703">
        <ele>1050.8</ele>
        <time>2022-09-16T10:14:47Z</time>
      </trkpt>
      <trkpt lat="41.796312" lon="9.193715">
        <ele>1050.4</ele>
        <time>2022-09-16T10:14:48Z</time>
      </trkpt>
      <trkpt lat="41.796272" lon="9.193792">
        <ele>1049.6</ele>
        <time>2022-09-16T10:14:57Z</time>
      </trkpt>
      <trkpt lat="41.796243" lon="9.19384">
        <ele>1048.8</ele>
        <time>2022-09-16T10:15:05Z</time>
      </trkpt>
      <trkpt lat="41.79621" lon="9.193893">
        <ele>1047.2</ele>
        <time>2022-09-16T10:15:14Z</time>
      </trkpt>
      <trkpt lat="41.796182" lon="9.193913">
        <ele>1045.8</ele>
        <time>2022-09-16T10:15:21Z</time>
      </trkpt>
      <trkpt lat="41.796177" lon="9.193977">
        <ele>1045.2</ele>
        <time>2022-09-16T10:15:28Z</time>
      </trkpt>
      <trkpt lat="41.796173" lon="9.193985">
        <ele>1045.2</ele>
        <time>2022-09-16T10:15:29Z</time>
      </trkpt>
      <trkpt lat="41.796115" lon="9.193982">
        <ele>1044.6</ele>
        <time>2022-09-16T10:15:36Z</time>
      </trkpt>
      <trkpt lat="41.796052" lon="9.193987">
        <ele>1044.2</ele>
        <time>2022-09-16T10:15:43Z</time>
      </trkpt>
      <trkpt lat="41.796023" lon="9.193948">
        <ele>1043.4</ele>
        <time>2022-09-16T10:15:49Z</time>
      </trkpt>
      <trkpt lat="41.796003" lon="9.193927">
        <ele>1042.4</ele>
        <time>2022-09-16T10:15:53Z</time>
      </trkpt>
      <trkpt lat="41.795915" lon="9.193898">
        <ele>1040.2</ele>
        <time>2022-09-16T10:16:07Z</time>
      </trkpt>
      <trkpt lat="41.795752" lon="9.193913">
        <ele>1036.4</ele>
        <time>2022-09-16T10:16:33Z</time>
      </trkpt>
      <trkpt lat="41.795738" lon="9.19392">
        <ele>1036.2</ele>
        <time>2022-09-16T10:16:35Z</time>
      </trkpt>
      <trkpt lat="41.795802" lon="9.194048">
        <ele>1034.6</ele>
        <time>2022-09-16T10:16:42Z</time>
      </trkpt>
      <trkpt lat="41.795843" lon="9.194215">
        <ele>1033.4</ele>
        <time>2022-09-16T10:16:52Z</time>
      </trkpt>
      <trkpt lat="41.795868" lon="9.194357">
        <ele>1033.6</ele>
        <time>2022-09-16T10:17:00Z</time>
      </trkpt>
      <trkpt lat="41.795843" lon="9.194468">
        <ele>1034.0</ele>
        <time>2022-09-16T10:17:08Z</time>
      </trkpt>
      <trkpt lat="41.795843" lon="9.19449">
        <ele>1034.0</ele>
        <time>2022-09-16T10:17:09Z</time>
      </trkpt>
      <trkpt lat="41.795832" lon="9.194633">
        <ele>1034.8</ele>
        <time>2022-09-16T10:17:20Z</time>
      </trkpt>
      <trkpt lat="41.795807" lon="9.194742">
        <ele>1034.8</ele>
        <time>2022-09-16T10:17:30Z</time>
      </trkpt>
      <trkpt lat="41.795768" lon="9.194823">
        <ele>1033.0</ele>
        <time>2022-09-16T10:17:39Z</time>
      </trkpt>
      <trkpt lat="41.795747" lon="9.194827">
        <ele>1032.0</ele>
        <time>2022-09-16T10:17:43Z</time>
      </trkpt>
      <trkpt lat="41.795722" lon="9.194802">
        <ele>1031.2</ele>
        <time>2022-09-16T10:17:47Z</time>
      </trkpt>
      <trkpt lat="41.79562" lon="9.194865">
        <ele>1031.8</ele>
        <time>2022-09-16T10:18:06Z</time>
      </trkpt>
      <trkpt lat="41.795643" lon="9.194912">
        <ele>1031.6</ele>
        <time>2022-09-16T10:18:19Z</time>
      </trkpt>
      <trkpt lat="41.79563" lon="9.194923">
        <ele>1032.4</ele>
        <time>2022-09-16T10:18:29Z</time>
      </trkpt>
      <trkpt lat="41.795632" lon="9.194923">
        <ele>1031.6</ele>
        <time>2022-09-16T10:18:39Z</time>
      </trkpt>
      <trkpt lat="41.79567" lon="9.194913">
        <ele>1032.0</ele>
        <time>2022-09-16T10:18:51Z</time>
      </trkpt>
      <trkpt lat="41.795673" lon="9.194912">
        <ele>1032.2</ele>
        <time>2022-09-16T10:18:52Z</time>
      </trkpt>
      <trkpt lat="41.795573" lon="9.194997">
        <ele>1030.2</ele>
        <time>2022-09-16T10:19:04Z</time>
      </trkpt>
      <trkpt lat="41.795518" lon="9.195118">
        <ele>1030.2</ele>
        <time>2022-09-16T10:19:09Z</time>
      </trkpt>
      <trkpt lat="41.795392" lon="9.195608">
        <ele>1029.6</ele>
        <time>2022-09-16T10:19:25Z</time>
      </trkpt>
      <trkpt lat="41.795393" lon="9.195623">
        <ele>1029.6</ele>
        <time>2022-09-16T10:19:26Z</time>
      </trkpt>
      <trkpt lat="41.795405" lon="9.195757">
        <ele>1029.2</ele>
        <time>2022-09-16T10:19:35Z</time>
      </trkpt>
      <trkpt lat="41.795398" lon="9.195798">
        <ele>1028.6</ele>
        <time>2022-09-16T10:19:38Z</time>
      </trkpt>
      <trkpt lat="41.795347" lon="9.19601">
        <ele>1028.6</ele>
        <time>2022-09-16T10:19:54Z</time>
      </trkpt>
      <trkpt lat="41.795333" lon="9.196077">
        <ele>1028.4</ele>
        <time>2022-09-16T10:20:00Z</time>
      </trkpt>
      <trkpt lat="41.795287" lon="9.196153">
        <ele>1027.8</ele>
        <time>2022-09-16T10:20:08Z</time>
      </trkpt>
      <trkpt lat="41.795238" lon="9.196262">
        <ele>1026.8</ele>
        <time>2022-09-16T10:20:20Z</time>
      </trkpt>
      <trkpt lat="41.795165" lon="9.196347">
        <ele>1026.0</ele>
        <time>2022-09-16T10:20:33Z</time>
      </trkpt>
      <trkpt lat="41.795142" lon="9.196367">
        <ele>1025.6</ele>
        <time>2022-09-16T10:20:37Z</time>
      </trkpt>
      <trkpt lat="41.795127" lon="9.196348">
        <ele>1025.6</ele>
        <time>2022-09-16T10:20:40Z</time>
      </trkpt>
      <trkpt lat="41.795103" lon="9.196312">
        <ele>1026.2</ele>
        <time>2022-09-16T10:20:48Z</time>
      </trkpt>
      <trkpt lat="41.795102" lon="9.196378">
        <ele>1026.8</ele>
        <time>2022-09-16T10:20:53Z</time>
      </trkpt>
      <trkpt lat="41.795153" lon="9.196673">
        <ele>1027.8</ele>
        <time>2022-09-16T10:21:06Z</time>
      </trkpt>
      <trkpt lat="41.79517" lon="9.196767">
        <ele>1027.8</ele>
        <time>2022-09-16T10:21:10Z</time>
      </trkpt>
      <trkpt lat="41.795252" lon="9.196963">
        <ele>1028.2</ele>
        <time>2022-09-16T10:21:21Z</time>
      </trkpt>
      <trkpt lat="41.795243" lon="9.197062">
        <ele>1028.4</ele>
        <time>2022-09-16T10:21:28Z</time>
      </trkpt>
      <trkpt lat="41.795307" lon="9.197372">
        <ele>1028.6</ele>
        <time>2022-09-16T10:21:56Z</time>
      </trkpt>
      <trkpt lat="41.795312" lon="9.197478">
        <ele>1027.6</ele>
        <time>2022-09-16T10:22:04Z</time>
      </trkpt>
      <trkpt lat="41.795365" lon="9.19782">
        <ele>1027.2</ele>
        <time>2022-09-16T10:22:29Z</time>
      </trkpt>
      <trkpt lat="41.795373" lon="9.19788">
        <ele>1027.2</ele>
        <time>2022-09-16T10:22:36Z</time>
      </trkpt>
      <trkpt lat="41.795412" lon="9.197993">
        <ele>1025.4</ele>
        <time>2022-09-16T10:22:46Z</time>
      </trkpt>
      <trkpt lat="41.795455" lon="9.198088">
        <ele>1025.0</ele>
        <time>2022-09-16T10:22:54Z</time>
      </trkpt>
      <trkpt lat="41.795492" lon="9.19821">
        <ele>1024.6</ele>
        <time>2022-09-16T10:23:04Z</time>
      </trkpt>
      <trkpt lat="41.795513" lon="9.198302">
        <ele>1023.8</ele>
        <time>2022-09-16T10:23:16Z</time>
      </trkpt>
      <trkpt lat="41.795522" lon="9.198398">
        <ele>1023.8</ele>
        <time>2022-09-16T10:23:29Z</time>
      </trkpt>
      <trkpt lat="41.795537" lon="9.198487">
        <ele>1024.0</ele>
        <time>2022-09-16T10:23:37Z</time>
      </trkpt>
      <trkpt lat="41.795557" lon="9.198565">
        <ele>1024.2</ele>
        <time>2022-09-16T10:23:45Z</time>
      </trkpt>
      <trkpt lat="41.795583" lon="9.198623">
        <ele>1024.4</ele>
        <time>2022-09-16T10:23:51Z</time>
      </trkpt>
      <trkpt lat="41.795602" lon="9.198638">
        <ele>1024.6</ele>
        <time>2022-09-16T10:23:54Z</time>
      </trkpt>
      <trkpt lat="41.795638" lon="9.198662">
        <ele>1025.6</ele>
        <time>2022-09-16T10:24:02Z</time>
      </trkpt>
      <trkpt lat="41.795675" lon="9.198727">
        <ele>1027.6</ele>
        <time>2022-09-16T10:24:17Z</time>
      </trkpt>
      <trkpt lat="41.795675" lon="9.198777">
        <ele>1028.0</ele>
        <time>2022-09-16T10:24:25Z</time>
      </trkpt>
      <trkpt lat="41.795723" lon="9.198863">
        <ele>1028.6</ele>
        <time>2022-09-16T10:24:43Z</time>
      </trkpt>
      <trkpt lat="41.795725" lon="9.19887">
        <ele>1028.6</ele>
        <time>2022-09-16T10:24:44Z</time>
      </trkpt>
      <trkpt lat="41.795785" lon="9.198995">
        <ele>1028.2</ele>
        <time>2022-09-16T10:24:56Z</time>
      </trkpt>
      <trkpt lat="41.795847" lon="9.199085">
        <ele>1026.6</ele>
        <time>2022-09-16T10:25:04Z</time>
      </trkpt>
      <trkpt lat="41.795937" lon="9.19918">
        <ele>1026.0</ele>
        <time>2022-09-16T10:25:14Z</time>
      </trkpt>
      <trkpt lat="41.796047" lon="9.199345">
        <ele>1024.6</ele>
        <time>2022-09-16T10:25:26Z</time>
      </trkpt>
      <trkpt lat="41.796162" lon="9.199572">
        <ele>1022.4</ele>
        <time>2022-09-16T10:25:39Z</time>
      </trkpt>
      <trkpt lat="41.796172" lon="9.199585">
        <ele>1022.2</ele>
        <time>2022-09-16T10:25:41Z</time>
      </trkpt>
      <trkpt lat="41.796223" lon="9.199645">
        <ele>1022.0</ele>
        <time>2022-09-16T10:25:48Z</time>
      </trkpt>
      <trkpt lat="41.796275" lon="9.199862">
        <ele>1023.4</ele>
        <time>2022-09-16T10:26:08Z</time>
      </trkpt>
      <trkpt lat="41.79628" lon="9.200003">
        <ele>1025.8</ele>
        <time>2022-09-16T10:26:31Z</time>
      </trkpt>
      <trkpt lat="41.796308" lon="9.200065">
        <ele>1026.0</ele>
        <time>2022-09-16T10:26:40Z</time>
      </trkpt>
      <trkpt lat="41.79633" lon="9.200103">
        <ele>1023.6</ele>
        <time>2022-09-16T10:26:48Z</time>
      </trkpt>
      <trkpt lat="41.796308" lon="9.200193">
        <ele>1021.0</ele>
        <time>2022-09-16T10:26:57Z</time>
      </trkpt>
      <trkpt lat="41.796247" lon="9.200285">
        <ele>1023.0</ele>
        <time>2022-09-16T10:27:07Z</time>
      </trkpt>
      <trkpt lat="41.796117" lon="9.200405">
        <ele>1024.4</ele>
        <time>2022-09-16T10:27:25Z</time>
      </trkpt>
      <trkpt lat="41.796067" lon="9.200448">
        <ele>1025.2</ele>
        <time>2022-09-16T10:27:30Z</time>
      </trkpt>
      <trkpt lat="41.795978" lon="9.200552">
        <ele>1027.2</ele>
        <time>2022-09-16T10:27:42Z</time>
      </trkpt>
      <trkpt lat="41.795837" lon="9.200705">
        <ele>1029.2</ele>
        <time>2022-09-16T10:27:59Z</time>
      </trkpt>
      <trkpt lat="41.795747" lon="9.200795">
        <ele>1029.4</ele>
        <time>2022-09-16T10:28:12Z</time>
      </trkpt>
      <trkpt lat="41.795622" lon="9.200922">
        <ele>1027.4</ele>
        <time>2022-09-16T10:28:50Z</time>
      </trkpt>
      <trkpt lat="41.795608" lon="9.20094">
        <ele>1027.4</ele>
        <time>2022-09-16T10:28:56Z</time>
      </trkpt>
      <trkpt lat="41.795538" lon="9.20099">
        <ele>1027.4</ele>
        <time>2022-09-16T10:29:05Z</time>
      </trkpt>
      <trkpt lat="41.795327" lon="9.201095">
        <ele>1028.6</ele>
        <time>2022-09-16T10:29:22Z</time>
      </trkpt>
      <trkpt lat="41.79501" lon="9.201265">
        <ele>1031.0</ele>
        <time>2022-09-16T10:29:39Z</time>
      </trkpt>
      <trkpt lat="41.794985" lon="9.20128">
        <ele>1031.0</ele>
        <time>2022-09-16T10:29:40Z</time>
      </trkpt>
      <trkpt lat="41.794863" lon="9.201417">
        <ele>1030.8</ele>
        <time>2022-09-16T10:29:51Z</time>
      </trkpt>
      <trkpt lat="41.794833" lon="9.201418">
        <ele>1031.2</ele>
        <time>2022-09-16T10:29:55Z</time>
      </trkpt>
      <trkpt lat="41.794772" lon="9.201397">
        <ele>1032.0</ele>
        <time>2022-09-16T10:30:02Z</time>
      </trkpt>
      <trkpt lat="41.794718" lon="9.20139">
        <ele>1032.0</ele>
        <time>2022-09-16T10:30:09Z</time>
      </trkpt>
      <trkpt lat="41.794643" lon="9.201355">
        <ele>1034.2</ele>
        <time>2022-09-16T10:30:19Z</time>
      </trkpt>
      <trkpt lat="41.794635" lon="9.201358">
        <ele>1034.6</ele>
        <time>2022-09-16T10:30:20Z</time>
      </trkpt>
      <trkpt lat="41.794628" lon="9.20137">
        <ele>1034.6</ele>
        <time>2022-09-16T10:30:21Z</time>
      </trkpt>
      <trkpt lat="41.794612" lon="9.201422">
        <ele>1034.6</ele>
        <time>2022-09-16T10:30:25Z</time>
      </trkpt>
      <trkpt lat="41.794597" lon="9.20152">
        <ele>1035.8</ele>
        <time>2022-09-16T10:30:32Z</time>
      </trkpt>
      <trkpt lat="41.794598" lon="9.201595">
        <ele>1036.4</ele>
        <time>2022-09-16T10:30:38Z</time>
      </trkpt>
      <trkpt lat="41.794542" lon="9.201703">
        <ele>1035.6</ele>
        <time>2022-09-16T10:30:52Z</time>
      </trkpt>
      <trkpt lat="41.794532" lon="9.20179">
        <ele>1034.8</ele>
        <time>2022-09-16T10:31:00Z</time>
      </trkpt>
      <trkpt lat="41.79451" lon="9.201982">
        <ele>1032.2</ele>
        <time>2022-09-16T10:31:19Z</time>
      </trkpt>
      <trkpt lat="41.794503" lon="9.20203">
        <ele>1031.4</ele>
        <time>2022-09-16T10:31:26Z</time>
      </trkpt>
      <trkpt lat="41.79452" lon="9.202143">
        <ele>1029.6</ele>
        <time>2022-09-16T10:31:42Z</time>
      </trkpt>
      <trkpt lat="41.794518" lon="9.202182">
        <ele>1029.4</ele>
        <time>2022-09-16T10:31:48Z</time>
      </trkpt>
      <trkpt lat="41.794503" lon="9.202223">
        <ele>1029.4</ele>
        <time>2022-09-16T10:31:53Z</time>
      </trkpt>
      <trkpt lat="41.794525" lon="9.202245">
        <ele>1030.8</ele>
        <time>2022-09-16T10:32:09Z</time>
      </trkpt>
      <trkpt lat="41.794583" lon="9.202243">
        <ele>1029.4</ele>
        <time>2022-09-16T10:32:18Z</time>
      </trkpt>
      <trkpt lat="41.79462" lon="9.202188">
        <ele>1029.6</ele>
        <time>2022-09-16T10:32:39Z</time>
      </trkpt>
      <trkpt lat="41.79465" lon="9.202172">
        <ele>1032.4</ele>
        <time>2022-09-16T10:33:09Z</time>
      </trkpt>
      <trkpt lat="41.794652" lon="9.202173">
        <ele>1032.6</ele>
        <time>2022-09-16T10:33:11Z</time>
      </trkpt>
      <trkpt lat="41.794897" lon="9.202398">
        <ele>1033.0</ele>
        <time>2022-09-16T10:35:07Z</time>
      </trkpt>
      <trkpt lat="41.794803" lon="9.202422">
        <ele>1029.0</ele>
        <time>2022-09-16T10:36:25Z</time>
      </trkpt>
      <trkpt lat="41.794858" lon="9.202467">
        <ele>1029.0</ele>
        <time>2022-09-16T10:36:58Z</time>
      </trkpt>
      <trkpt lat="41.79548" lon="9.202867">
        <ele>1029.4</ele>
        <time>2022-09-16T10:37:09Z</time>
      </trkpt>
      <trkpt lat="41.795597" lon="9.203068">
        <ele>1029.2</ele>
        <time>2022-09-16T10:37:21Z</time>
      </trkpt>
      <trkpt lat="41.79567" lon="9.203113">
        <ele>1029.6</ele>
        <time>2022-09-16T10:37:25Z</time>
      </trkpt>
      <trkpt lat="41.795765" lon="9.203145">
        <ele>1030.4</ele>
        <time>2022-09-16T10:37:32Z</time>
      </trkpt>
      <trkpt lat="41.795858" lon="9.203173">
        <ele>1031.0</ele>
        <time>2022-09-16T10:37:41Z</time>
      </trkpt>
      <trkpt lat="41.79585" lon="9.203203">
        <ele>1031.0</ele>
        <time>2022-09-16T10:37:43Z</time>
      </trkpt>
      <trkpt lat="41.795888" lon="9.203262">
        <ele>1032.0</ele>
        <time>2022-09-16T10:37:48Z</time>
      </trkpt>
      <trkpt lat="41.79592" lon="9.20331">
        <ele>1032.2</ele>
        <time>2022-09-16T10:37:51Z</time>
      </trkpt>
      <trkpt lat="41.795972" lon="9.203355">
        <ele>1032.6</ele>
        <time>2022-09-16T10:37:55Z</time>
      </trkpt>
      <trkpt lat="41.796113" lon="9.203452">
        <ele>1033.0</ele>
        <time>2022-09-16T10:38:07Z</time>
      </trkpt>
      <trkpt lat="41.796175" lon="9.203438">
        <ele>1032.2</ele>
        <time>2022-09-16T10:38:14Z</time>
      </trkpt>
      <trkpt lat="41.796238" lon="9.203437">
        <ele>1031.6</ele>
        <time>2022-09-16T10:38:23Z</time>
      </trkpt>
      <trkpt lat="41.796245" lon="9.203438">
        <ele>1031.6</ele>
        <time>2022-09-16T10:38:24Z</time>
      </trkpt>
      <trkpt lat="41.79627" lon="9.203483">
        <ele>1031.6</ele>
        <time>2022-09-16T10:38:31Z</time>
      </trkpt>
      <trkpt lat="41.796313" lon="9.20353">
        <ele>1031.6</ele>
        <time>2022-09-16T10:38:39Z</time>
      </trkpt>
      <trkpt lat="41.796365" lon="9.203627">
        <ele>1031.0</ele>
        <time>2022-09-16T10:38:50Z</time>
      </trkpt>
      <trkpt lat="41.7964" lon="9.203645">
        <ele>1030.4</ele>
        <time>2022-09-16T10:38:56Z</time>
      </trkpt>
      <trkpt lat="41.796443" lon="9.203667">
        <ele>1030.2</ele>
        <time>2022-09-16T10:39:02Z</time>
      </trkpt>
      <trkpt lat="41.796485" lon="9.20371">
        <ele>1030.2</ele>
        <time>2022-09-16T10:39:09Z</time>
      </trkpt>
      <trkpt lat="41.796528" lon="9.203825">
        <ele>1029.8</ele>
        <time>2022-09-16T10:39:22Z</time>
      </trkpt>
      <trkpt lat="41.796545" lon="9.203882">
        <ele>1028.6</ele>
        <time>2022-09-16T10:39:29Z</time>
      </trkpt>
      <trkpt lat="41.796618" lon="9.203885">
        <ele>1027.0</ele>
        <time>2022-09-16T10:39:41Z</time>
      </trkpt>
      <trkpt lat="41.796727" lon="9.203903">
        <ele>1025.4</ele>
        <time>2022-09-16T10:39:54Z</time>
      </trkpt>
      <trkpt lat="41.79694" lon="9.203913">
        <ele>1023.6</ele>
        <time>2022-09-16T10:40:11Z</time>
      </trkpt>
      <trkpt lat="41.79703" lon="9.203897">
        <ele>1024.6</ele>
        <time>2022-09-16T10:40:20Z</time>
      </trkpt>
      <trkpt lat="41.797037" lon="9.203893">
        <ele>1025.0</ele>
        <time>2022-09-16T10:40:21Z</time>
      </trkpt>
      <trkpt lat="41.79708" lon="9.203962">
        <ele>1022.6</ele>
        <time>2022-09-16T10:40:38Z</time>
      </trkpt>
      <trkpt lat="41.797118" lon="9.203987">
        <ele>1021.4</ele>
        <time>2022-09-16T10:40:52Z</time>
      </trkpt>
      <trkpt lat="41.79716" lon="9.203993">
        <ele>1022.4</ele>
        <time>2022-09-16T10:41:08Z</time>
      </trkpt>
      <trkpt lat="41.797163" lon="9.203993">
        <ele>1022.4</ele>
        <time>2022-09-16T10:41:09Z</time>
      </trkpt>
      <trkpt lat="41.797267" lon="9.20407">
        <ele>1021.4</ele>
        <time>2022-09-16T10:41:59Z</time>
      </trkpt>
      <trkpt lat="41.797582" lon="9.204342">
        <ele>1021.8</ele>
        <time>2022-09-16T10:42:12Z</time>
      </trkpt>
      <trkpt lat="41.797667" lon="9.204527">
        <ele>1022.2</ele>
        <time>2022-09-16T10:42:23Z</time>
      </trkpt>
      <trkpt lat="41.797668" lon="9.204833">
        <ele>1023.4</ele>
        <time>2022-09-16T10:42:34Z</time>
      </trkpt>
      <trkpt lat="41.797722" lon="9.204868">
        <ele>1023.4</ele>
        <time>2022-09-16T10:42:35Z</time>
      </trkpt>
      <trkpt lat="41.79783" lon="9.204898">
        <ele>1023.4</ele>
        <time>2022-09-16T10:42:46Z</time>
      </trkpt>
      <trkpt lat="41.797905" lon="9.204893">
        <ele>1022.8</ele>
        <time>2022-09-16T10:42:56Z</time>
      </trkpt>
      <trkpt lat="41.797948" lon="9.20495">
        <ele>1023.0</ele>
        <time>2022-09-16T10:43:02Z</time>
      </trkpt>
      <trkpt lat="41.797962" lon="9.204975">
        <ele>1023.0</ele>
        <time>2022-09-16T10:43:04Z</time>
      </trkpt>
      <trkpt lat="41.797968" lon="9.205048">
        <ele>1022.6</ele>
        <time>2022-09-16T10:43:09Z</time>
      </trkpt>
      <trkpt lat="41.797982" lon="9.205107">
        <ele>1022.4</ele>
        <time>2022-09-16T10:43:14Z</time>
      </trkpt>
      <trkpt lat="41.798013" lon="9.205178">
        <ele>1022.2</ele>
        <time>2022-09-16T10:43:19Z</time>
      </trkpt>
      <trkpt lat="41.798055" lon="9.205243">
        <ele>1022.0</ele>
        <time>2022-09-16T10:43:25Z</time>
      </trkpt>
      <trkpt lat="41.798117" lon="9.20523">
        <ele>1021.6</ele>
        <time>2022-09-16T10:43:32Z</time>
      </trkpt>
      <trkpt lat="41.798158" lon="9.205222">
        <ele>1021.4</ele>
        <time>2022-09-16T10:43:38Z</time>
      </trkpt>
      <trkpt lat="41.798212" lon="9.205243">
        <ele>1021.0</ele>
        <time>2022-09-16T10:43:47Z</time>
      </trkpt>
      <trkpt lat="41.798245" lon="9.205265">
        <ele>1020.4</ele>
        <time>2022-09-16T10:43:53Z</time>
      </trkpt>
      <trkpt lat="41.798278" lon="9.205317">
        <ele>1020.4</ele>
        <time>2022-09-16T10:43:58Z</time>
      </trkpt>
      <trkpt lat="41.798335" lon="9.205495">
        <ele>1018.6</ele>
        <time>2022-09-16T10:44:14Z</time>
      </trkpt>
      <trkpt lat="41.798375" lon="9.205575">
        <ele>1017.6</ele>
        <time>2022-09-16T10:44:23Z</time>
      </trkpt>
      <trkpt lat="41.798395" lon="9.205685">
        <ele>1016.4</ele>
        <time>2022-09-16T10:44:34Z</time>
      </trkpt>
      <trkpt lat="41.79842" lon="9.20572">
        <ele>1015.4</ele>
        <time>2022-09-16T10:44:40Z</time>
      </trkpt>
      <trkpt lat="41.798427" lon="9.205725">
        <ele>1015.4</ele>
        <time>2022-09-16T10:44:41Z</time>
      </trkpt>
      <trkpt lat="41.798423" lon="9.2056">
        <ele>1014.0</ele>
        <time>2022-09-16T10:44:49Z</time>
      </trkpt>
      <trkpt lat="41.798467" lon="9.205433">
        <ele>1012.4</ele>
        <time>2022-09-16T10:45:02Z</time>
      </trkpt>
      <trkpt lat="41.79847" lon="9.205308">
        <ele>1010.6</ele>
        <time>2022-09-16T10:45:11Z</time>
      </trkpt>
      <trkpt lat="41.798488" lon="9.20524">
        <ele>1010.0</ele>
        <time>2022-09-16T10:45:17Z</time>
      </trkpt>
      <trkpt lat="41.798485" lon="9.205272">
        <ele>1009.6</ele>
        <time>2022-09-16T10:45:23Z</time>
      </trkpt>
      <trkpt lat="41.798507" lon="9.205348">
        <ele>1010.2</ele>
        <time>2022-09-16T10:45:35Z</time>
      </trkpt>
      <trkpt lat="41.798547" lon="9.205407">
        <ele>1011.2</ele>
        <time>2022-09-16T10:45:45Z</time>
      </trkpt>
      <trkpt lat="41.798615" lon="9.20542">
        <ele>1013.2</ele>
        <time>2022-09-16T10:45:59Z</time>
      </trkpt>
      <trkpt lat="41.798642" lon="9.205403">
        <ele>1014.6</ele>
        <time>2022-09-16T10:46:07Z</time>
      </trkpt>
      <trkpt lat="41.798747" lon="9.205408">
        <ele>1019.6</ele>
        <time>2022-09-16T10:46:51Z</time>
      </trkpt>
      <trkpt lat="41.798753" lon="9.205415">
        <ele>1019.8</ele>
        <time>2022-09-16T10:46:55Z</time>
      </trkpt>
      <trkpt lat="41.798787" lon="9.20541">
        <ele>1021.8</ele>
        <time>2022-09-16T10:47:11Z</time>
      </trkpt>
      <trkpt lat="41.798823" lon="9.205452">
        <ele>1024.0</ele>
        <time>2022-09-16T10:47:27Z</time>
      </trkpt>
      <trkpt lat="41.79885" lon="9.205515">
        <ele>1022.0</ele>
        <time>2022-09-16T10:47:51Z</time>
      </trkpt>
      <trkpt lat="41.798882" lon="9.205562">
        <ele>1023.6</ele>
        <time>2022-09-16T10:48:14Z</time>
      </trkpt>
      <trkpt lat="41.798882" lon="9.205563">
        <ele>1023.8</ele>
        <time>2022-09-16T10:48:15Z</time>
      </trkpt>
      <trkpt lat="41.79889" lon="9.205593">
        <ele>1025.6</ele>
        <time>2022-09-16T10:48:25Z</time>
      </trkpt>
      <trkpt lat="41.798903" lon="9.205617">
        <ele>1026.8</ele>
        <time>2022-09-16T10:48:34Z</time>
      </trkpt>
      <trkpt lat="41.7989" lon="9.205672">
        <ele>1028.6</ele>
        <time>2022-09-16T10:48:51Z</time>
      </trkpt>
      <trkpt lat="41.798883" lon="9.205733">
        <ele>1028.4</ele>
        <time>2022-09-16T10:49:21Z</time>
      </trkpt>
      <trkpt lat="41.79887" lon="9.20601">
        <ele>1034.4</ele>
        <time>2022-09-16T10:51:02Z</time>
      </trkpt>
      <trkpt lat="41.798873" lon="9.206113">
        <ele>1036.0</ele>
        <time>2022-09-16T10:51:15Z</time>
      </trkpt>
      <trkpt lat="41.798945" lon="9.206187">
        <ele>1036.8</ele>
        <time>2022-09-16T10:51:21Z</time>
      </trkpt>
      <trkpt lat="41.799013" lon="9.206187">
        <ele>1039.0</ele>
        <time>2022-09-16T10:51:28Z</time>
      </trkpt>
      <trkpt lat="41.799028" lon="9.206255">
        <ele>1039.0</ele>
        <time>2022-09-16T10:51:30Z</time>
      </trkpt>
      <trkpt lat="41.799025" lon="9.206458">
        <ele>1040.0</ele>
        <time>2022-09-16T10:51:35Z</time>
      </trkpt>
      <trkpt lat="41.799013" lon="9.206537">
        <ele>1040.2</ele>
        <time>2022-09-16T10:51:36Z</time>
      </trkpt>
      <trkpt lat="41.799032" lon="9.20665">
        <ele>1040.8</ele>
        <time>2022-09-16T10:51:41Z</time>
      </trkpt>
      <trkpt lat="41.799115" lon="9.206742">
        <ele>1042.2</ele>
        <time>2022-09-16T10:51:50Z</time>
      </trkpt>
      <trkpt lat="41.799165" lon="9.20678">
        <ele>1042.4</ele>
        <time>2022-09-16T10:51:54Z</time>
      </trkpt>
      <trkpt lat="41.799207" lon="9.206837">
        <ele>1043.0</ele>
        <time>2022-09-16T10:51:58Z</time>
      </trkpt>
      <trkpt lat="41.79922" lon="9.20689">
        <ele>1043.4</ele>
        <time>2022-09-16T10:52:01Z</time>
      </trkpt>
      <trkpt lat="41.799217" lon="9.206907">
        <ele>1043.8</ele>
        <time>2022-09-16T10:52:02Z</time>
      </trkpt>
      <trkpt lat="41.79916" lon="9.206993">
        <ele>1044.2</ele>
        <time>2022-09-16T10:52:11Z</time>
      </trkpt>
      <trkpt lat="41.799158" lon="9.207008">
        <ele>1044.2</ele>
        <time>2022-09-16T10:52:12Z</time>
      </trkpt>
      <trkpt lat="41.799033" lon="9.207057">
        <ele>1046.4</ele>
        <time>2022-09-16T10:52:29Z</time>
      </trkpt>
      <trkpt lat="41.798975" lon="9.20704">
        <ele>1047.4</ele>
        <time>2022-09-16T10:52:39Z</time>
      </trkpt>
      <trkpt lat="41.798942" lon="9.207045">
        <ele>1047.4</ele>
        <time>2022-09-16T10:52:45Z</time>
      </trkpt>
      <trkpt lat="41.798865" lon="9.207092">
        <ele>1048.2</ele>
        <time>2022-09-16T10:53:03Z</time>
      </trkpt>
      <trkpt lat="41.798852" lon="9.207098">
        <ele>1048.2</ele>
        <time>2022-09-16T10:53:06Z</time>
      </trkpt>
      <trkpt lat="41.7988" lon="9.207">
        <ele>1048.4</ele>
        <time>2022-09-16T10:53:20Z</time>
      </trkpt>
      <trkpt lat="41.798803" lon="9.206885">
        <ele>1049.6</ele>
        <time>2022-09-16T10:53:35Z</time>
      </trkpt>
      <trkpt lat="41.798768" lon="9.206842">
        <ele>1050.6</ele>
        <time>2022-09-16T10:53:47Z</time>
      </trkpt>
      <trkpt lat="41.798763" lon="9.20684">
        <ele>1051.6</ele>
        <time>2022-09-16T10:53:49Z</time>
      </trkpt>
      <trkpt lat="41.798727" lon="9.206803">
        <ele>1053.2</ele>
        <time>2022-09-16T10:54:00Z</time>
      </trkpt>
      <trkpt lat="41.798723" lon="9.206793">
        <ele>1053.8</ele>
        <time>2022-09-16T10:54:02Z</time>
      </trkpt>
      <trkpt lat="41.798665" lon="9.206887">
        <ele>1057.8</ele>
        <time>2022-09-16T10:54:58Z</time>
      </trkpt>
      <trkpt lat="41.798633" lon="9.206982">
        <ele>1059.2</ele>
        <time>2022-09-16T10:55:11Z</time>
      </trkpt>
      <trkpt lat="41.798585" lon="9.20706">
        <ele>1060.0</ele>
        <time>2022-09-16T10:55:20Z</time>
      </trkpt>
      <trkpt lat="41.798447" lon="9.207177">
        <ele>1058.2</ele>
        <time>2022-09-16T10:55:42Z</time>
      </trkpt>
      <trkpt lat="41.79844" lon="9.207178">
        <ele>1058.2</ele>
        <time>2022-09-16T10:55:42Z</time>
      </trkpt>
      <trkpt lat="41.798413" lon="9.207198">
        <ele>1058.0</ele>
        <time>2022-09-16T10:55:51Z</time>
      </trkpt>
      <trkpt lat="41.798395" lon="9.207235">
        <ele>1058.2</ele>
        <time>2022-09-16T10:56:02Z</time>
      </trkpt>
      <trkpt lat="41.798335" lon="9.207277">
        <ele>1058.4</ele>
        <time>2022-09-16T10:56:32Z</time>
      </trkpt>
      <trkpt lat="41.79827" lon="9.207298">
        <ele>1058.2</ele>
        <time>2022-09-16T10:57:09Z</time>
      </trkpt>
      <trkpt lat="41.798093" lon="9.207273">
        <ele>1062.6</ele>
        <time>2022-09-16T10:58:27Z</time>
      </trkpt>
      <trkpt lat="41.798045" lon="9.207352">
        <ele>1064.0</ele>
        <time>2022-09-16T10:58:36Z</time>
      </trkpt>
      <trkpt lat="41.797953" lon="9.20745">
        <ele>1065.8</ele>
        <time>2022-09-16T10:58:44Z</time>
      </trkpt>
      <trkpt lat="41.797877" lon="9.20748">
        <ele>1066.0</ele>
        <time>2022-09-16T10:58:50Z</time>
      </trkpt>
      <trkpt lat="41.797823" lon="9.207522">
        <ele>1067.4</ele>
        <time>2022-09-16T10:58:54Z</time>
      </trkpt>
      <trkpt lat="41.797668" lon="9.207778">
        <ele>1069.2</ele>
        <time>2022-09-16T10:59:11Z</time>
      </trkpt>
      <trkpt lat="41.797633" lon="9.207763">
        <ele>1069.2</ele>
        <time>2022-09-16T10:59:16Z</time>
      </trkpt>
      <trkpt lat="41.797572" lon="9.207712">
        <ele>1069.2</ele>
        <time>2022-09-16T10:59:28Z</time>
      </trkpt>
      <trkpt lat="41.797533" lon="9.207695">
        <ele>1069.2</ele>
        <time>2022-09-16T10:59:38Z</time>
      </trkpt>
      <trkpt lat="41.7975" lon="9.207668">
        <ele>1068.4</ele>
        <time>2022-09-16T10:59:50Z</time>
      </trkpt>
      <trkpt lat="41.797485" lon="9.207648">
        <ele>1067.4</ele>
        <time>2022-09-16T10:59:58Z</time>
      </trkpt>
      <trkpt lat="41.797477" lon="9.207627">
        <ele>1067.0</ele>
        <time>2022-09-16T11:00:11Z</time>
      </trkpt>
      <trkpt lat="41.797418" lon="9.207603">
        <ele>1062.2</ele>
        <time>2022-09-16T11:00:44Z</time>
      </trkpt>
      <trkpt lat="41.7972" lon="9.207687">
        <ele>1047.8</ele>
        <time>2022-09-16T11:03:04Z</time>
      </trkpt>
      <trkpt lat="41.79721" lon="9.207853">
        <ele>1050.6</ele>
        <time>2022-09-16T11:03:19Z</time>
      </trkpt>
      <trkpt lat="41.797188" lon="9.207938">
        <ele>1051.6</ele>
        <time>2022-09-16T11:03:30Z</time>
      </trkpt>
      <trkpt lat="41.797015" lon="9.207843">
        <ele>1050.2</ele>
        <time>2022-09-16T11:03:41Z</time>
      </trkpt>
      <trkpt lat="41.796842" lon="9.208022">
        <ele>1051.2</ele>
        <time>2022-09-16T11:03:53Z</time>
      </trkpt>
      <trkpt lat="41.796788" lon="9.208078">
        <ele>1051.4</ele>
        <time>2022-09-16T11:03:58Z</time>
      </trkpt>
      <trkpt lat="41.796653" lon="9.208282">
        <ele>1050.6</ele>
        <time>2022-09-16T11:04:19Z</time>
      </trkpt>
      <trkpt lat="41.796602" lon="9.208342">
        <ele>1049.6</ele>
        <time>2022-09-16T11:04:29Z</time>
      </trkpt>
      <trkpt lat="41.796578" lon="9.20837">
        <ele>1049.2</ele>
        <time>2022-09-16T11:04:35Z</time>
      </trkpt>
      <trkpt lat="41.79651" lon="9.208397">
        <ele>1049.2</ele>
        <time>2022-09-16T11:04:53Z</time>
      </trkpt>
      <trkpt lat="41.796475" lon="9.208417">
        <ele>1043.6</ele>
        <time>2022-09-16T11:05:28Z</time>
      </trkpt>
      <trkpt lat="41.796453" lon="9.208467">
        <ele>1042.4</ele>
        <time>2022-09-16T11:05:36Z</time>
      </trkpt>
      <trkpt lat="41.79642" lon="9.208478">
        <ele>1042.0</ele>
        <time>2022-09-16T11:05:42Z</time>
      </trkpt>
      <trkpt lat="41.796372" lon="9.208505">
        <ele>1039.8</ele>
        <time>2022-09-16T11:05:58Z</time>
      </trkpt>
      <trkpt lat="41.796173" lon="9.208638">
        <ele>1030.2</ele>
        <time>2022-09-16T11:07:00Z</time>
      </trkpt>
      <trkpt lat="41.796092" lon="9.208927">
        <ele>1026.4</ele>
        <time>2022-09-16T11:07:30Z</time>
      </trkpt>
      <trkpt lat="41.795795" lon="9.209045">
        <ele>1026.2</ele>
        <time>2022-09-16T11:07:43Z</time>
      </trkpt>
      <trkpt lat="41.79581" lon="9.209145">
        <ele>1025.0</ele>
        <time>2022-09-16T11:07:55Z</time>
      </trkpt>
      <trkpt lat="41.795833" lon="9.209218">
        <ele>1024.6</ele>
        <time>2022-09-16T11:07:58Z</time>
      </trkpt>
      <trkpt lat="41.795773" lon="9.209338">
        <ele>1022.8</ele>
        <time>2022-09-16T11:08:34Z</time>
      </trkpt>
      <trkpt lat="41.795772" lon="9.209343">
        <ele>1022.8</ele>
        <time>2022-09-16T11:08:35Z</time>
      </trkpt>
      <trkpt lat="41.795757" lon="9.209382">
        <ele>1022.8</ele>
        <time>2022-09-16T11:08:39Z</time>
      </trkpt>
      <trkpt lat="41.795677" lon="9.209432">
        <ele>1021.8</ele>
        <time>2022-09-16T11:08:51Z</time>
      </trkpt>
      <trkpt lat="41.795623" lon="9.209405">
        <ele>1022.2</ele>
        <time>2022-09-16T11:09:02Z</time>
      </trkpt>
      <trkpt lat="41.795507" lon="9.209423">
        <ele>1021.0</ele>
        <time>2022-09-16T11:09:20Z</time>
      </trkpt>
      <trkpt lat="41.795537" lon="9.209403">
        <ele>1013.4</ele>
        <time>2022-09-16T11:14:19Z</time>
      </trkpt>
      <trkpt lat="41.795535" lon="9.209687">
        <ele>1015.2</ele>
        <time>2022-09-16T11:14:34Z</time>
      </trkpt>
      <trkpt lat="41.79542" lon="9.209717">
        <ele>1019.4</ele>
        <time>2022-09-16T11:16:01Z</time>
      </trkpt>
      <trkpt lat="41.79496" lon="9.209812">
        <ele>1019.6</ele>
        <time>2022-09-16T11:16:12Z</time>
      </trkpt>
      <trkpt lat="41.794917" lon="9.20993">
        <ele>1019.4</ele>
        <time>2022-09-16T11:16:22Z</time>
      </trkpt>
      <trkpt lat="41.794898" lon="9.210022">
        <ele>1018.2</ele>
        <time>2022-09-16T11:16:32Z</time>
      </trkpt>
      <trkpt lat="41.794795" lon="9.210113">
        <ele>1019.2</ele>
        <time>2022-09-16T11:16:51Z</time>
      </trkpt>
      <trkpt lat="41.79479" lon="9.210117">
        <ele>1019.4</ele>
        <time>2022-09-16T11:16:52Z</time>
      </trkpt>
      <trkpt lat="41.794687" lon="9.210077">
        <ele>1019.0</ele>
        <time>2022-09-16T11:17:17Z</time>
      </trkpt>
      <trkpt lat="41.794672" lon="9.210107">
        <ele>1016.6</ele>
        <time>2022-09-16T11:17:32Z</time>
      </trkpt>
      <trkpt lat="41.794665" lon="9.210162">
        <ele>1015.4</ele>
        <time>2022-09-16T11:17:59Z</time>
      </trkpt>
      <trkpt lat="41.794663" lon="9.210162">
        <ele>1015.2</ele>
        <time>2022-09-16T11:18:00Z</time>
      </trkpt>
      <trkpt lat="41.79444" lon="9.210193">
        <ele>1013.2</ele>
        <time>2022-09-16T11:18:15Z</time>
      </trkpt>
      <trkpt lat="41.79432" lon="9.210173">
        <ele>1011.6</ele>
        <time>2022-09-16T11:18:27Z</time>
      </trkpt>
      <trkpt lat="41.79408" lon="9.210498">
        <ele>1009.2</ele>
        <time>2022-09-16T11:18:49Z</time>
      </trkpt>
      <trkpt lat="41.794075" lon="9.210552">
        <ele>1009.2</ele>
        <time>2022-09-16T11:18:52Z</time>
      </trkpt>
      <trkpt lat="41.794073" lon="9.210588">
        <ele>1009.0</ele>
        <time>2022-09-16T11:18:56Z</time>
      </trkpt>
      <trkpt lat="41.794043" lon="9.21059">
        <ele>1009.0</ele>
        <time>2022-09-16T11:19:00Z</time>
      </trkpt>
      <trkpt lat="41.793985" lon="9.210578">
        <ele>1008.6</ele>
        <time>2022-09-16T11:19:08Z</time>
      </trkpt>
      <trkpt lat="41.793928" lon="9.210618">
        <ele>1008.2</ele>
        <time>2022-09-16T11:19:19Z</time>
      </trkpt>
      <trkpt lat="41.793795" lon="9.210753">
        <ele>1012.2</ele>
        <time>2022-09-16T11:19:58Z</time>
      </trkpt>
      <trkpt lat="41.793792" lon="9.210762">
        <ele>1012.2</ele>
        <time>2022-09-16T11:19:59Z</time>
      </trkpt>
      <trkpt lat="41.7937" lon="9.210767">
        <ele>1013.0</ele>
        <time>2022-09-16T11:20:07Z</time>
      </trkpt>
      <trkpt lat="41.793645" lon="9.21072">
        <ele>1013.6</ele>
        <time>2022-09-16T11:20:14Z</time>
      </trkpt>
      <trkpt lat="41.793603" lon="9.210652">
        <ele>1013.8</ele>
        <time>2022-09-16T11:20:23Z</time>
      </trkpt>
      <trkpt lat="41.793565" lon="9.210567">
        <ele>1013.2</ele>
        <time>2022-09-16T11:20:36Z</time>
      </trkpt>
      <trkpt lat="41.793497" lon="9.210467">
        <ele>1011.0</ele>
        <time>2022-09-16T11:20:48Z</time>
      </trkpt>
      <trkpt lat="41.79346" lon="9.21043">
        <ele>1009.6</ele>
        <time>2022-09-16T11:20:53Z</time>
      </trkpt>
      <trkpt lat="41.793422" lon="9.210443">
        <ele>1009.6</ele>
        <time>2022-09-16T11:20:57Z</time>
      </trkpt>
      <trkpt lat="41.793367" lon="9.210492">
        <ele>1010.0</ele>
        <time>2022-09-16T11:21:04Z</time>
      </trkpt>
      <trkpt lat="41.793255" lon="9.210538">
        <ele>1010.0</ele>
        <time>2022-09-16T11:21:18Z</time>
      </trkpt>
      <trkpt lat="41.79319" lon="9.210555">
        <ele>1010.4</ele>
        <time>2022-09-16T11:21:25Z</time>
      </trkpt>
      <trkpt lat="41.793145" lon="9.210603">
        <ele>1010.2</ele>
        <time>2022-09-16T11:21:31Z</time>
      </trkpt>
      <trkpt lat="41.793103" lon="9.210635">
        <ele>1010.2</ele>
        <time>2022-09-16T11:21:36Z</time>
      </trkpt>
      <trkpt lat="41.793067" lon="9.210628">
        <ele>1010.2</ele>
        <time>2022-09-16T11:21:40Z</time>
      </trkpt>
      <trkpt lat="41.792978" lon="9.210558">
        <ele>1007.4</ele>
        <time>2022-09-16T11:21:56Z</time>
      </trkpt>
      <trkpt lat="41.792935" lon="9.210547">
        <ele>1007.6</ele>
        <time>2022-09-16T11:22:03Z</time>
      </trkpt>
      <trkpt lat="41.792902" lon="9.210538">
        <ele>1008.4</ele>
        <time>2022-09-16T11:22:09Z</time>
      </trkpt>
      <trkpt lat="41.792842" lon="9.210532">
        <ele>1008.4</ele>
        <time>2022-09-16T11:22:22Z</time>
      </trkpt>
      <trkpt lat="41.79276" lon="9.210522">
        <ele>1007.4</ele>
        <time>2022-09-16T11:23:00Z</time>
      </trkpt>
      <trkpt lat="41.79282" lon="9.210602">
        <ele>1005.0</ele>
        <time>2022-09-16T11:23:35Z</time>
      </trkpt>
      <trkpt lat="41.792818" lon="9.21061">
        <ele>1005.0</ele>
        <time>2022-09-16T11:23:36Z</time>
      </trkpt>
      <trkpt lat="41.792703" lon="9.210632">
        <ele>1005.2</ele>
        <time>2022-09-16T11:23:45Z</time>
      </trkpt>
      <trkpt lat="41.792647" lon="9.210635">
        <ele>1005.8</ele>
        <time>2022-09-16T11:23:49Z</time>
      </trkpt>
      <trkpt lat="41.792477" lon="9.210715">
        <ele>1006.2</ele>
        <time>2022-09-16T11:23:58Z</time>
      </trkpt>
      <trkpt lat="41.79243" lon="9.210717">
        <ele>1006.6</ele>
        <time>2022-09-16T11:24:01Z</time>
      </trkpt>
      <trkpt lat="41.792283" lon="9.2107">
        <ele>1007.2</ele>
        <time>2022-09-16T11:24:08Z</time>
      </trkpt>
      <trkpt lat="41.792245" lon="9.210712">
        <ele>1006.8</ele>
        <time>2022-09-16T11:24:10Z</time>
      </trkpt>
      <trkpt lat="41.79217" lon="9.210822">
        <ele>1007.4</ele>
        <time>2022-09-16T11:24:21Z</time>
      </trkpt>
      <trkpt lat="41.79213" lon="9.21083">
        <ele>1007.6</ele>
        <time>2022-09-16T11:24:25Z</time>
      </trkpt>
      <trkpt lat="41.792045" lon="9.21083">
        <ele>1009.4</ele>
        <time>2022-09-16T11:24:33Z</time>
      </trkpt>
      <trkpt lat="41.791972" lon="9.210818">
        <ele>1011.2</ele>
        <time>2022-09-16T11:24:40Z</time>
      </trkpt>
      <trkpt lat="41.791937" lon="9.21084">
        <ele>1012.4</ele>
        <time>2022-09-16T11:24:44Z</time>
      </trkpt>
      <trkpt lat="41.791873" lon="9.21092">
        <ele>1013.2</ele>
        <time>2022-09-16T11:24:55Z</time>
      </trkpt>
      <trkpt lat="41.791832" lon="9.210912">
        <ele>1014.2</ele>
        <time>2022-09-16T11:25:01Z</time>
      </trkpt>
      <trkpt lat="41.79179" lon="9.21095">
        <ele>1015.0</ele>
        <time>2022-09-16T11:25:09Z</time>
      </trkpt>
      <trkpt lat="41.791722" lon="9.210955">
        <ele>1016.8</ele>
        <time>2022-09-16T11:25:21Z</time>
      </trkpt>
      <trkpt lat="41.791637" lon="9.211">
        <ele>1019.4</ele>
        <time>2022-09-16T11:25:38Z</time>
      </trkpt>
      <trkpt lat="41.791637" lon="9.211002">
        <ele>1019.4</ele>
        <time>2022-09-16T11:25:39Z</time>
      </trkpt>
      <trkpt lat="41.791633" lon="9.210995">
        <ele>1020.0</ele>
        <time>2022-09-16T11:25:46Z</time>
      </trkpt>
      <trkpt lat="41.791628" lon="9.210987">
        <ele>1020.8</ele>
        <time>2022-09-16T11:25:53Z</time>
      </trkpt>
      <trkpt lat="41.791667" lon="9.21103">
        <ele>1020.8</ele>
        <time>2022-09-16T11:26:05Z</time>
      </trkpt>
      <trkpt lat="41.791675" lon="9.211042">
        <ele>1025.8</ele>
        <time>2022-09-16T11:26:28Z</time>
      </trkpt>
      <trkpt lat="41.79172" lon="9.21107">
        <ele>1025.6</ele>
        <time>2022-09-16T11:26:47Z</time>
      </trkpt>
      <trkpt lat="41.79177" lon="9.211087">
        <ele>1025.4</ele>
        <time>2022-09-16T11:27:14Z</time>
      </trkpt>
      <trkpt lat="41.79177" lon="9.211087">
        <ele>1025.2</ele>
        <time>2022-09-16T11:27:16Z</time>
      </trkpt>
      <trkpt lat="41.7917" lon="9.211125">
        <ele>1024.4</ele>
        <time>2022-09-16T11:27:25Z</time>
      </trkpt>
      <trkpt lat="41.791583" lon="9.211198">
        <ele>1024.0</ele>
        <time>2022-09-16T11:27:39Z</time>
      </trkpt>
      <trkpt lat="41.79153" lon="9.211188">
        <ele>1023.8</ele>
        <time>2022-09-16T11:27:45Z</time>
      </trkpt>
      <trkpt lat="41.791522" lon="9.211193">
        <ele>1023.8</ele>
        <time>2022-09-16T11:27:46Z</time>
      </trkpt>
      <trkpt lat="41.79135" lon="9.211392">
        <ele>1027.6</ele>
        <time>2022-09-16T11:28:21Z</time>
      </trkpt>
      <trkpt lat="41.791317" lon="9.211438">
        <ele>1028.2</ele>
        <time>2022-09-16T11:28:28Z</time>
      </trkpt>
      <trkpt lat="41.791313" lon="9.211445">
        <ele>1028.2</ele>
        <time>2022-09-16T11:28:29Z</time>
      </trkpt>
      <trkpt lat="41.791335" lon="9.211502">
        <ele>1030.0</ele>
        <time>2022-09-16T11:28:37Z</time>
      </trkpt>
      <trkpt lat="41.791333" lon="9.211545">
        <ele>1031.4</ele>
        <time>2022-09-16T11:28:43Z</time>
      </trkpt>
      <trkpt lat="41.791383" lon="9.211587">
        <ele>1031.8</ele>
        <time>2022-09-16T11:28:54Z</time>
      </trkpt>
      <trkpt lat="41.79144" lon="9.21164">
        <ele>1032.8</ele>
        <time>2022-09-16T11:29:05Z</time>
      </trkpt>
      <trkpt lat="41.791462" lon="9.211647">
        <ele>1032.4</ele>
        <time>2022-09-16T11:29:08Z</time>
      </trkpt>
      <trkpt lat="41.791447" lon="9.211783">
        <ele>1033.2</ele>
        <time>2022-09-16T11:29:22Z</time>
      </trkpt>
      <trkpt lat="41.79143" lon="9.212008">
        <ele>1033.2</ele>
        <time>2022-09-16T11:29:44Z</time>
      </trkpt>
      <trkpt lat="41.791508" lon="9.212098">
        <ele>1035.2</ele>
        <time>2022-09-16T11:30:03Z</time>
      </trkpt>
      <trkpt lat="41.791597" lon="9.212267">
        <ele>1037.2</ele>
        <time>2022-09-16T11:30:52Z</time>
      </trkpt>
      <trkpt lat="41.79167" lon="9.21239">
        <ele>1038.2</ele>
        <time>2022-09-16T11:31:22Z</time>
      </trkpt>
      <trkpt lat="41.791738" lon="9.212443">
        <ele>1038.6</ele>
        <time>2022-09-16T11:31:41Z</time>
      </trkpt>
      <trkpt lat="41.791683" lon="9.212498">
        <ele>1037.6</ele>
        <time>2022-09-16T11:31:48Z</time>
      </trkpt>
      <trkpt lat="41.791828" lon="9.212838">
        <ele>1037.6</ele>
        <time>2022-09-16T11:32:01Z</time>
      </trkpt>
      <trkpt lat="41.791927" lon="9.21294">
        <ele>1038.2</ele>
        <time>2022-09-16T11:32:11Z</time>
      </trkpt>
      <trkpt lat="41.792065" lon="9.212967">
        <ele>1035.8</ele>
        <time>2022-09-16T11:32:22Z</time>
      </trkpt>
      <trkpt lat="41.792093" lon="9.213028">
        <ele>1035.6</ele>
        <time>2022-09-16T11:32:24Z</time>
      </trkpt>
      <trkpt lat="41.792152" lon="9.213077">
        <ele>1035.6</ele>
        <time>2022-09-16T11:32:33Z</time>
      </trkpt>
      <trkpt lat="41.792178" lon="9.21313">
        <ele>1036.0</ele>
        <time>2022-09-16T11:32:42Z</time>
      </trkpt>
      <trkpt lat="41.792213" lon="9.213225">
        <ele>1035.6</ele>
        <time>2022-09-16T11:32:58Z</time>
      </trkpt>
      <trkpt lat="41.792222" lon="9.21324">
        <ele>1035.6</ele>
        <time>2022-09-16T11:33:00Z</time>
      </trkpt>
      <trkpt lat="41.79226" lon="9.21329">
        <ele>1036.4</ele>
        <time>2022-09-16T11:33:07Z</time>
      </trkpt>
      <trkpt lat="41.792318" lon="9.213333">
        <ele>1036.2</ele>
        <time>2022-09-16T11:33:15Z</time>
      </trkpt>
      <trkpt lat="41.792453" lon="9.213473">
        <ele>1038.8</ele>
        <time>2022-09-16T11:33:37Z</time>
      </trkpt>
      <trkpt lat="41.792493" lon="9.213475">
        <ele>1038.6</ele>
        <time>2022-09-16T11:33:42Z</time>
      </trkpt>
      <trkpt lat="41.792523" lon="9.213495">
        <ele>1038.6</ele>
        <time>2022-09-16T11:33:46Z</time>
      </trkpt>
      <trkpt lat="41.79252" lon="9.213537">
        <ele>1038.2</ele>
        <time>2022-09-16T11:33:59Z</time>
      </trkpt>
      <trkpt lat="41.792508" lon="9.2136">
        <ele>1038.8</ele>
        <time>2022-09-16T11:34:12Z</time>
      </trkpt>
      <trkpt lat="41.792517" lon="9.213677">
        <ele>1039.0</ele>
        <time>2022-09-16T11:34:23Z</time>
      </trkpt>
      <trkpt lat="41.792555" lon="9.213693">
        <ele>1038.8</ele>
        <time>2022-09-16T11:34:30Z</time>
      </trkpt>
      <trkpt lat="41.792587" lon="9.213712">
        <ele>1038.4</ele>
        <time>2022-09-16T11:34:48Z</time>
      </trkpt>
      <trkpt lat="41.792608" lon="9.213727">
        <ele>1038.6</ele>
        <time>2022-09-16T11:35:11Z</time>
      </trkpt>
      <trkpt lat="41.792645" lon="9.213712">
        <ele>1039.4</ele>
        <time>2022-09-16T11:35:40Z</time>
      </trkpt>
      <trkpt lat="41.79273" lon="9.2137">
        <ele>1037.8</ele>
        <time>2022-09-16T11:36:46Z</time>
      </trkpt>
      <trkpt lat="41.792992" lon="9.213638">
        <ele>1043.0</ele>
        <time>2022-09-16T11:40:30Z</time>
      </trkpt>
      <trkpt lat="41.792408" lon="9.213487">
        <ele>1042.0</ele>
        <time>2022-09-16T11:40:45Z</time>
      </trkpt>
      <trkpt lat="41.792495" lon="9.213587">
        <ele>1040.2</ele>
        <time>2022-09-16T11:40:56Z</time>
      </trkpt>
      <trkpt lat="41.792542" lon="9.213937">
        <ele>1038.2</ele>
        <time>2022-09-16T11:41:07Z</time>
      </trkpt>
      <trkpt lat="41.792582" lon="9.214058">
        <ele>1038.6</ele>
        <time>2022-09-16T11:41:19Z</time>
      </trkpt>
      <trkpt lat="41.79264" lon="9.21409">
        <ele>1038.6</ele>
        <time>2022-09-16T11:41:20Z</time>
      </trkpt>
      <trkpt lat="41.79267" lon="9.214088">
        <ele>1039.2</ele>
        <time>2022-09-16T11:41:23Z</time>
      </trkpt>
      <trkpt lat="41.792738" lon="9.214043">
        <ele>1041.0</ele>
        <time>2022-09-16T11:41:30Z</time>
      </trkpt>
      <trkpt lat="41.792838" lon="9.21411">
        <ele>1041.2</ele>
        <time>2022-09-16T11:41:40Z</time>
      </trkpt>
      <trkpt lat="41.79286" lon="9.21412">
        <ele>1040.6</ele>
        <time>2022-09-16T11:41:42Z</time>
      </trkpt>
      <trkpt lat="41.792892" lon="9.2141">
        <ele>1040.6</ele>
        <time>2022-09-16T11:41:45Z</time>
      </trkpt>
      <trkpt lat="41.792923" lon="9.214115">
        <ele>1041.0</ele>
        <time>2022-09-16T11:41:52Z</time>
      </trkpt>
      <trkpt lat="41.792933" lon="9.21414">
        <ele>1041.8</ele>
        <time>2022-09-16T11:41:56Z</time>
      </trkpt>
      <trkpt lat="41.792943" lon="9.214173">
        <ele>1042.0</ele>
        <time>2022-09-16T11:42:01Z</time>
      </trkpt>
      <trkpt lat="41.792965" lon="9.214202">
        <ele>1041.4</ele>
        <time>2022-09-16T11:42:10Z</time>
      </trkpt>
      <trkpt lat="41.792957" lon="9.21428">
        <ele>1044.6</ele>
        <time>2022-09-16T11:42:21Z</time>
      </trkpt>
      <trkpt lat="41.792955" lon="9.214287">
        <ele>1044.6</ele>
        <time>2022-09-16T11:42:22Z</time>
      </trkpt>
      <trkpt lat="41.792972" lon="9.214337">
        <ele>1045.6</ele>
        <time>2022-09-16T11:42:30Z</time>
      </trkpt>
      <trkpt lat="41.79299" lon="9.214388">
        <ele>1044.0</ele>
        <time>2022-09-16T11:42:39Z</time>
      </trkpt>
      <trkpt lat="41.793038" lon="9.214568">
        <ele>1043.4</ele>
        <time>2022-09-16T11:43:00Z</time>
      </trkpt>
      <trkpt lat="41.793047" lon="9.214625">
        <ele>1043.2</ele>
        <time>2022-09-16T11:43:06Z</time>
      </trkpt>
      <trkpt lat="41.793095" lon="9.214732">
        <ele>1048.0</ele>
        <time>2022-09-16T11:43:18Z</time>
      </trkpt>
      <trkpt lat="41.793105" lon="9.214782">
        <ele>1048.8</ele>
        <time>2022-09-16T11:43:24Z</time>
      </trkpt>
      <trkpt lat="41.793127" lon="9.214878">
        <ele>1047.8</ele>
        <time>2022-09-16T11:43:37Z</time>
      </trkpt>
      <trkpt lat="41.793133" lon="9.2149">
        <ele>1048.2</ele>
        <time>2022-09-16T11:43:41Z</time>
      </trkpt>
      <trkpt lat="41.793197" lon="9.21493">
        <ele>1048.2</ele>
        <time>2022-09-16T11:43:54Z</time>
      </trkpt>
      <trkpt lat="41.79322" lon="9.214952">
        <ele>1048.8</ele>
        <time>2022-09-16T11:44:01Z</time>
      </trkpt>
      <trkpt lat="41.793207" lon="9.215012">
        <ele>1047.6</ele>
        <time>2022-09-16T11:44:17Z</time>
      </trkpt>
      <trkpt lat="41.793198" lon="9.215032">
        <ele>1045.2</ele>
        <time>2022-09-16T11:44:27Z</time>
      </trkpt>
      <trkpt lat="41.793187" lon="9.215057">
        <ele>1045.2</ele>
        <time>2022-09-16T11:44:42Z</time>
      </trkpt>
      <trkpt lat="41.793185" lon="9.215058">
        <ele>1045.2</ele>
        <time>2022-09-16T11:44:42Z</time>
      </trkpt>
      <trkpt lat="41.793158" lon="9.215367">
        <ele>1046.8</ele>
        <time>2022-09-16T11:45:04Z</time>
      </trkpt>
      <trkpt lat="41.793102" lon="9.215437">
        <ele>1048.2</ele>
        <time>2022-09-16T11:45:08Z</time>
      </trkpt>
      <trkpt lat="41.793062" lon="9.215492">
        <ele>1047.2</ele>
        <time>2022-09-16T11:45:11Z</time>
      </trkpt>
      <trkpt lat="41.793027" lon="9.215568">
        <ele>1049.0</ele>
        <time>2022-09-16T11:45:17Z</time>
      </trkpt>
      <trkpt lat="41.793025" lon="9.215608">
        <ele>1049.0</ele>
        <time>2022-09-16T11:45:19Z</time>
      </trkpt>
      <trkpt lat="41.79305" lon="9.215702">
        <ele>1049.8</ele>
        <time>2022-09-16T11:45:24Z</time>
      </trkpt>
      <trkpt lat="41.793025" lon="9.215797">
        <ele>1048.0</ele>
        <time>2022-09-16T11:45:34Z</time>
      </trkpt>
      <trkpt lat="41.792975" lon="9.215817">
        <ele>1047.8</ele>
        <time>2022-09-16T11:45:40Z</time>
      </trkpt>
      <trkpt lat="41.792978" lon="9.215842">
        <ele>1048.0</ele>
        <time>2022-09-16T11:45:45Z</time>
      </trkpt>
      <trkpt lat="41.792983" lon="9.215867">
        <ele>1048.8</ele>
        <time>2022-09-16T11:45:50Z</time>
      </trkpt>
      <trkpt lat="41.79298" lon="9.2159">
        <ele>1049.6</ele>
        <time>2022-09-16T11:45:58Z</time>
      </trkpt>
      <trkpt lat="41.792973" lon="9.215927">
        <ele>1050.2</ele>
        <time>2022-09-16T11:46:07Z</time>
      </trkpt>
      <trkpt lat="41.79295" lon="9.21595">
        <ele>1051.8</ele>
        <time>2022-09-16T11:46:23Z</time>
      </trkpt>
      <trkpt lat="41.792952" lon="9.215955">
        <ele>1051.8</ele>
        <time>2022-09-16T11:46:24Z</time>
      </trkpt>
      <trkpt lat="41.792955" lon="9.215997">
        <ele>1055.4</ele>
        <time>2022-09-16T11:46:37Z</time>
      </trkpt>
      <trkpt lat="41.792985" lon="9.216008">
        <ele>1056.8</ele>
        <time>2022-09-16T11:46:49Z</time>
      </trkpt>
      <trkpt lat="41.79299" lon="9.216055">
        <ele>1059.0</ele>
        <time>2022-09-16T11:46:56Z</time>
      </trkpt>
      <trkpt lat="41.792995" lon="9.216065">
        <ele>1059.0</ele>
        <time>2022-09-16T11:46:57Z</time>
      </trkpt>
      <trkpt lat="41.793093" lon="9.216177">
        <ele>1060.8</ele>
        <time>2022-09-16T11:47:11Z</time>
      </trkpt>
      <trkpt lat="41.793147" lon="9.216255">
        <ele>1061.4</ele>
        <time>2022-09-16T11:47:18Z</time>
      </trkpt>
      <trkpt lat="41.793237" lon="9.216365">
        <ele>1061.8</ele>
        <time>2022-09-16T11:47:30Z</time>
      </trkpt>
      <trkpt lat="41.79327" lon="9.216483">
        <ele>1064.0</ele>
        <time>2022-09-16T11:47:38Z</time>
      </trkpt>
      <trkpt lat="41.793277" lon="9.216558">
        <ele>1065.6</ele>
        <time>2022-09-16T11:47:46Z</time>
      </trkpt>
      <trkpt lat="41.793342" lon="9.216647">
        <ele>1069.6</ele>
        <time>2022-09-16T11:48:06Z</time>
      </trkpt>
      <trkpt lat="41.793387" lon="9.21673">
        <ele>1071.8</ele>
        <time>2022-09-16T11:48:35Z</time>
      </trkpt>
      <trkpt lat="41.793415" lon="9.216752">
        <ele>1072.6</ele>
        <time>2022-09-16T11:48:47Z</time>
      </trkpt>
      <trkpt lat="41.793422" lon="9.216762">
        <ele>1073.4</ele>
        <time>2022-09-16T11:48:51Z</time>
      </trkpt>
      <trkpt lat="41.793428" lon="9.216712">
        <ele>1075.0</ele>
        <time>2022-09-16T11:49:06Z</time>
      </trkpt>
      <trkpt lat="41.793707" lon="9.216767">
        <ele>1076.6</ele>
        <time>2022-09-16T11:49:19Z</time>
      </trkpt>
      <trkpt lat="41.79385" lon="9.21683">
        <ele>1077.2</ele>
        <time>2022-09-16T11:49:29Z</time>
      </trkpt>
      <trkpt lat="41.793925" lon="9.216777">
        <ele>1077.6</ele>
        <time>2022-09-16T11:49:39Z</time>
      </trkpt>
      <trkpt lat="41.793935" lon="9.21686">
        <ele>1078.4</ele>
        <time>2022-09-16T11:49:43Z</time>
      </trkpt>
      <trkpt lat="41.79397" lon="9.216967">
        <ele>1079.8</ele>
        <time>2022-09-16T11:49:57Z</time>
      </trkpt>
      <trkpt lat="41.793987" lon="9.217077">
        <ele>1078.8</ele>
        <time>2022-09-16T11:50:12Z</time>
      </trkpt>
      <trkpt lat="41.79399" lon="9.2171">
        <ele>1077.6</ele>
        <time>2022-09-16T11:50:15Z</time>
      </trkpt>
      <trkpt lat="41.794035" lon="9.217115">
        <ele>1077.4</ele>
        <time>2022-09-16T11:50:21Z</time>
      </trkpt>
      <trkpt lat="41.794093" lon="9.217135">
        <ele>1077.6</ele>
        <time>2022-09-16T11:50:28Z</time>
      </trkpt>
      <trkpt lat="41.794147" lon="9.21717">
        <ele>1079.4</ele>
        <time>2022-09-16T11:50:35Z</time>
      </trkpt>
      <trkpt lat="41.794243" lon="9.217185">
        <ele>1079.6</ele>
        <time>2022-09-16T11:50:47Z</time>
      </trkpt>
      <trkpt lat="41.794312" lon="9.217215">
        <ele>1080.6</ele>
        <time>2022-09-16T11:50:57Z</time>
      </trkpt>
      <trkpt lat="41.79437" lon="9.217277">
        <ele>1082.6</ele>
        <time>2022-09-16T11:51:07Z</time>
      </trkpt>
      <trkpt lat="41.794487" lon="9.21735">
        <ele>1082.4</ele>
        <time>2022-09-16T11:51:23Z</time>
      </trkpt>
      <trkpt lat="41.794573" lon="9.217445">
        <ele>1084.0</ele>
        <time>2022-09-16T11:51:34Z</time>
      </trkpt>
      <trkpt lat="41.794588" lon="9.2175">
        <ele>1084.2</ele>
        <time>2022-09-16T11:51:39Z</time>
      </trkpt>
      <trkpt lat="41.794607" lon="9.217525">
        <ele>1084.4</ele>
        <time>2022-09-16T11:51:51Z</time>
      </trkpt>
      <trkpt lat="41.794658" lon="9.21753">
        <ele>1082.4</ele>
        <time>2022-09-16T11:52:01Z</time>
      </trkpt>
      <trkpt lat="41.794718" lon="9.217528">
        <ele>1081.4</ele>
        <time>2022-09-16T11:52:11Z</time>
      </trkpt>
      <trkpt lat="41.794757" lon="9.21754">
        <ele>1081.0</ele>
        <time>2022-09-16T11:52:18Z</time>
      </trkpt>
      <trkpt lat="41.794777" lon="9.21756">
        <ele>1080.0</ele>
        <time>2022-09-16T11:52:24Z</time>
      </trkpt>
      <trkpt lat="41.794852" lon="9.217608">
        <ele>1079.4</ele>
        <time>2022-09-16T11:52:43Z</time>
      </trkpt>
      <trkpt lat="41.794873" lon="9.217672">
        <ele>1079.4</ele>
        <time>2022-09-16T11:52:58Z</time>
      </trkpt>
      <trkpt lat="41.794885" lon="9.217695">
        <ele>1079.8</ele>
        <time>2022-09-16T11:53:02Z</time>
      </trkpt>
      <trkpt lat="41.79489" lon="9.217743">
        <ele>1079.6</ele>
        <time>2022-09-16T11:53:07Z</time>
      </trkpt>
      <trkpt lat="41.79489" lon="9.217815">
        <ele>1080.8</ele>
        <time>2022-09-16T11:53:19Z</time>
      </trkpt>
      <trkpt lat="41.794838" lon="9.217923">
        <ele>1081.8</ele>
        <time>2022-09-16T11:53:39Z</time>
      </trkpt>
      <trkpt lat="41.794827" lon="9.217973">
        <ele>1083.8</ele>
        <time>2022-09-16T11:53:50Z</time>
      </trkpt>
      <trkpt lat="41.794825" lon="9.217977">
        <ele>1083.2</ele>
        <time>2022-09-16T11:53:51Z</time>
      </trkpt>
      <trkpt lat="41.794853" lon="9.218018">
        <ele>1079.4</ele>
        <time>2022-09-16T11:54:04Z</time>
      </trkpt>
      <trkpt lat="41.794882" lon="9.218057">
        <ele>1081.2</ele>
        <time>2022-09-16T11:54:14Z</time>
      </trkpt>
      <trkpt lat="41.7949" lon="9.218118">
        <ele>1082.4</ele>
        <time>2022-09-16T11:54:25Z</time>
      </trkpt>
      <trkpt lat="41.794915" lon="9.218152">
        <ele>1082.0</ele>
        <time>2022-09-16T11:54:32Z</time>
      </trkpt>
      <trkpt lat="41.794905" lon="9.218342">
        <ele>1081.4</ele>
        <time>2022-09-16T11:55:01Z</time>
      </trkpt>
      <trkpt lat="41.794898" lon="9.218348">
        <ele>1081.4</ele>
        <time>2022-09-16T11:55:01Z</time>
      </trkpt>
      <trkpt lat="41.794725" lon="9.218533">
        <ele>1081.6</ele>
        <time>2022-09-16T11:55:29Z</time>
      </trkpt>
      <trkpt lat="41.794717" lon="9.218535">
        <ele>1082.6</ele>
        <time>2022-09-16T11:55:30Z</time>
      </trkpt>
      <trkpt lat="41.794757" lon="9.218547">
        <ele>1080.0</ele>
        <time>2022-09-16T11:55:40Z</time>
      </trkpt>
      <trkpt lat="41.79491" lon="9.21866">
        <ele>1081.8</ele>
        <time>2022-09-16T11:56:58Z</time>
      </trkpt>
      <trkpt lat="41.794927" lon="9.218595">
        <ele>1085.8</ele>
        <time>2022-09-16T11:57:16Z</time>
      </trkpt>
      <trkpt lat="41.794923" lon="9.218585">
        <ele>1085.8</ele>
        <time>2022-09-16T11:57:20Z</time>
      </trkpt>
      <trkpt lat="41.79495" lon="9.218567">
        <ele>1086.6</ele>
        <time>2022-09-16T11:57:32Z</time>
      </trkpt>
      <trkpt lat="41.794975" lon="9.218502">
        <ele>1088.8</ele>
        <time>2022-09-16T11:57:43Z</time>
      </trkpt>
      <trkpt lat="41.794995" lon="9.218513">
        <ele>1088.2</ele>
        <time>2022-09-16T11:57:49Z</time>
      </trkpt>
      <trkpt lat="41.795012" lon="9.218538">
        <ele>1088.8</ele>
        <time>2022-09-16T11:57:56Z</time>
      </trkpt>
      <trkpt lat="41.795033" lon="9.218523">
        <ele>1088.6</ele>
        <time>2022-09-16T11:58:05Z</time>
      </trkpt>
      <trkpt lat="41.79506" lon="9.218537">
        <ele>1091.8</ele>
        <time>2022-09-16T11:58:28Z</time>
      </trkpt>
      <trkpt lat="41.795097" lon="9.218618">
        <ele>1093.6</ele>
        <time>2022-09-16T11:58:49Z</time>
      </trkpt>
      <trkpt lat="41.795097" lon="9.218622">
        <ele>1093.6</ele>
        <time>2022-09-16T11:58:49Z</time>
      </trkpt>
      <trkpt lat="41.79513" lon="9.218645">
        <ele>1093.2</ele>
        <time>2022-09-16T11:58:58Z</time>
      </trkpt>
      <trkpt lat="41.795157" lon="9.218653">
        <ele>1094.2</ele>
        <time>2022-09-16T11:59:06Z</time>
      </trkpt>
      <trkpt lat="41.795312" lon="9.2189">
        <ele>1100.4</ele>
        <time>2022-09-16T11:59:55Z</time>
      </trkpt>
      <trkpt lat="41.79534" lon="9.218968">
        <ele>1104.8</ele>
        <time>2022-09-16T12:00:21Z</time>
      </trkpt>
      <trkpt lat="41.795347" lon="9.219017">
        <ele>1105.0</ele>
        <time>2022-09-16T12:00:31Z</time>
      </trkpt>
      <trkpt lat="41.795395" lon="9.219048">
        <ele>1105.2</ele>
        <time>2022-09-16T12:00:38Z</time>
      </trkpt>
      <trkpt lat="41.795385" lon="9.219043">
        <ele>1108.2</ele>
        <time>2022-09-16T12:00:57Z</time>
      </trkpt>
      <trkpt lat="41.795387" lon="9.219047">
        <ele>1108.6</ele>
        <time>2022-09-16T12:00:58Z</time>
      </trkpt>
      <trkpt lat="41.795415" lon="9.219102">
        <ele>1109.0</ele>
        <time>2022-09-16T12:01:04Z</time>
      </trkpt>
      <trkpt lat="41.795477" lon="9.21921">
        <ele>1110.2</ele>
        <time>2022-09-16T12:01:14Z</time>
      </trkpt>
      <trkpt lat="41.795552" lon="9.219348">
        <ele>1114.4</ele>
        <time>2022-09-16T12:01:32Z</time>
      </trkpt>
      <trkpt lat="41.795583" lon="9.21938">
        <ele>1114.6</ele>
        <time>2022-09-16T12:01:41Z</time>
      </trkpt>
      <trkpt lat="41.795605" lon="9.219347">
        <ele>1113.8</ele>
        <time>2022-09-16T12:01:55Z</time>
      </trkpt>
      <trkpt lat="41.795627" lon="9.219237">
        <ele>1120.6</ele>
        <time>2022-09-16T12:02:33Z</time>
      </trkpt>
      <trkpt lat="41.795642" lon="9.219255">
        <ele>1122.4</ele>
        <time>2022-09-16T12:02:37Z</time>
      </trkpt>
      <trkpt lat="41.795738" lon="9.219405">
        <ele>1122.4</ele>
        <time>2022-09-16T12:02:56Z</time>
      </trkpt>
      <trkpt lat="41.795772" lon="9.21945">
        <ele>1123.8</ele>
        <time>2022-09-16T12:03:07Z</time>
      </trkpt>
      <trkpt lat="41.795808" lon="9.219505">
        <ele>1125.6</ele>
        <time>2022-09-16T12:03:22Z</time>
      </trkpt>
      <trkpt lat="41.795848" lon="9.219577">
        <ele>1128.2</ele>
        <time>2022-09-16T12:03:31Z</time>
      </trkpt>
      <trkpt lat="41.795855" lon="9.219582">
        <ele>1128.6</ele>
        <time>2022-09-16T12:03:32Z</time>
      </trkpt>
      <trkpt lat="41.795898" lon="9.219595">
        <ele>1129.4</ele>
        <time>2022-09-16T12:03:38Z</time>
      </trkpt>
      <trkpt lat="41.795917" lon="9.219643">
        <ele>1131.8</ele>
        <time>2022-09-16T12:03:46Z</time>
      </trkpt>
      <trkpt lat="41.795933" lon="9.219688">
        <ele>1132.6</ele>
        <time>2022-09-16T12:03:54Z</time>
      </trkpt>
      <trkpt lat="41.796047" lon="9.219825">
        <ele>1139.4</ele>
        <time>2022-09-16T12:04:31Z</time>
      </trkpt>
      <trkpt lat="41.79609" lon="9.219965">
        <ele>1142.2</ele>
        <time>2022-09-16T12:04:46Z</time>
      </trkpt>
      <trkpt lat="41.796115" lon="9.220068">
        <ele>1143.4</ele>
        <time>2022-09-16T12:04:56Z</time>
      </trkpt>
      <trkpt lat="41.796153" lon="9.220173">
        <ele>1143.4</ele>
        <time>2022-09-16T12:05:06Z</time>
      </trkpt>
      <trkpt lat="41.79623" lon="9.220193">
        <ele>1145.2</ele>
        <time>2022-09-16T12:05:14Z</time>
      </trkpt>
      <trkpt lat="41.796307" lon="9.22021">
        <ele>1149.4</ele>
        <time>2022-09-16T12:05:23Z</time>
      </trkpt>
      <trkpt lat="41.796338" lon="9.220227">
        <ele>1146.6</ele>
        <time>2022-09-16T12:05:28Z</time>
      </trkpt>
      <trkpt lat="41.796392" lon="9.220295">
        <ele>1150.0</ele>
        <time>2022-09-16T12:05:38Z</time>
      </trkpt>
      <trkpt lat="41.796413" lon="9.220352">
        <ele>1150.4</ele>
        <time>2022-09-16T12:05:45Z</time>
      </trkpt>
      <trkpt lat="41.7965" lon="9.220417">
        <ele>1150.0</ele>
        <time>2022-09-16T12:06:00Z</time>
      </trkpt>
      <trkpt lat="41.796535" lon="9.22042">
        <ele>1149.2</ele>
        <time>2022-09-16T12:06:06Z</time>
      </trkpt>
      <trkpt lat="41.796512" lon="9.220427">
        <ele>1150.2</ele>
        <time>2022-09-16T12:06:09Z</time>
      </trkpt>
      <trkpt lat="41.79642" lon="9.220405">
        <ele>1151.2</ele>
        <time>2022-09-16T12:06:18Z</time>
      </trkpt>
      <trkpt lat="41.796383" lon="9.220435">
        <ele>1150.4</ele>
        <time>2022-09-16T12:06:24Z</time>
      </trkpt>
      <trkpt lat="41.796355" lon="9.220455">
        <ele>1151.4</ele>
        <time>2022-09-16T12:06:29Z</time>
      </trkpt>
      <trkpt lat="41.79628" lon="9.220533">
        <ele>1154.0</ele>
        <time>2022-09-16T12:06:46Z</time>
      </trkpt>
      <trkpt lat="41.796288" lon="9.220537">
        <ele>1154.4</ele>
        <time>2022-09-16T12:06:47Z</time>
      </trkpt>
      <trkpt lat="41.796363" lon="9.220575">
        <ele>1154.2</ele>
        <time>2022-09-16T12:06:56Z</time>
      </trkpt>
      <trkpt lat="41.796428" lon="9.22062">
        <ele>1154.2</ele>
        <time>2022-09-16T12:07:05Z</time>
      </trkpt>
      <trkpt lat="41.79646" lon="9.220662">
        <ele>1155.6</ele>
        <time>2022-09-16T12:07:10Z</time>
      </trkpt>
      <trkpt lat="41.796525" lon="9.220727">
        <ele>1155.8</ele>
        <time>2022-09-16T12:07:19Z</time>
      </trkpt>
      <trkpt lat="41.796563" lon="9.220732">
        <ele>1155.6</ele>
        <time>2022-09-16T12:07:23Z</time>
      </trkpt>
      <trkpt lat="41.796613" lon="9.220723">
        <ele>1152.8</ele>
        <time>2022-09-16T12:07:28Z</time>
      </trkpt>
      <trkpt lat="41.796648" lon="9.220758">
        <ele>1153.0</ele>
        <time>2022-09-16T12:07:33Z</time>
      </trkpt>
      <trkpt lat="41.796657" lon="9.220853">
        <ele>1154.8</ele>
        <time>2022-09-16T12:07:40Z</time>
      </trkpt>
      <trkpt lat="41.796697" lon="9.220878">
        <ele>1155.2</ele>
        <time>2022-09-16T12:07:45Z</time>
      </trkpt>
      <trkpt lat="41.796743" lon="9.220913">
        <ele>1154.0</ele>
        <time>2022-09-16T12:07:51Z</time>
      </trkpt>
      <trkpt lat="41.796758" lon="9.220928">
        <ele>1152.8</ele>
        <time>2022-09-16T12:07:53Z</time>
      </trkpt>
      <trkpt lat="41.796747" lon="9.220952">
        <ele>1152.6</ele>
        <time>2022-09-16T12:07:56Z</time>
      </trkpt>
      <trkpt lat="41.79669" lon="9.22098">
        <ele>1154.8</ele>
        <time>2022-09-16T12:08:05Z</time>
      </trkpt>
      <trkpt lat="41.796642" lon="9.220957">
        <ele>1155.6</ele>
        <time>2022-09-16T12:08:11Z</time>
      </trkpt>
      <trkpt lat="41.796562" lon="9.220908">
        <ele>1154.6</ele>
        <time>2022-09-16T12:08:23Z</time>
      </trkpt>
      <trkpt lat="41.79651" lon="9.220912">
        <ele>1157.8</ele>
        <time>2022-09-16T12:08:51Z</time>
      </trkpt>
      <trkpt lat="41.796458" lon="9.220913">
        <ele>1157.6</ele>
        <time>2022-09-16T12:08:56Z</time>
      </trkpt>
      <trkpt lat="41.796422" lon="9.220963">
        <ele>1157.2</ele>
        <time>2022-09-16T12:09:07Z</time>
      </trkpt>
      <trkpt lat="41.796412" lon="9.221042">
        <ele>1160.6</ele>
        <time>2022-09-16T12:09:23Z</time>
      </trkpt>
      <trkpt lat="41.796412" lon="9.221047">
        <ele>1160.6</ele>
        <time>2022-09-16T12:09:24Z</time>
      </trkpt>
      <trkpt lat="41.796523" lon="9.22104">
        <ele>1161.8</ele>
        <time>2022-09-16T12:09:34Z</time>
      </trkpt>
      <trkpt lat="41.796722" lon="9.22101">
        <ele>1164.2</ele>
        <time>2022-09-16T12:09:50Z</time>
      </trkpt>
      <trkpt lat="41.796827" lon="9.220987">
        <ele>1165.0</ele>
        <time>2022-09-16T12:09:58Z</time>
      </trkpt>
      <trkpt lat="41.796872" lon="9.221093">
        <ele>1169.4</ele>
        <time>2022-09-16T12:10:15Z</time>
      </trkpt>
      <trkpt lat="41.796893" lon="9.22113">
        <ele>1170.2</ele>
        <time>2022-09-16T12:10:24Z</time>
      </trkpt>
      <trkpt lat="41.796898" lon="9.22123">
        <ele>1175.2</ele>
        <time>2022-09-16T12:10:45Z</time>
      </trkpt>
      <trkpt lat="41.796927" lon="9.221298">
        <ele>1175.8</ele>
        <time>2022-09-16T12:10:57Z</time>
      </trkpt>
      <trkpt lat="41.79695" lon="9.221357">
        <ele>1179.6</ele>
        <time>2022-09-16T12:11:18Z</time>
      </trkpt>
      <trkpt lat="41.796952" lon="9.221358">
        <ele>1179.8</ele>
        <time>2022-09-16T12:11:19Z</time>
      </trkpt>
      <trkpt lat="41.79699" lon="9.221392">
        <ele>1181.4</ele>
        <time>2022-09-16T12:11:25Z</time>
      </trkpt>
      <trkpt lat="41.797007" lon="9.22145">
        <ele>1182.2</ele>
        <time>2022-09-16T12:11:29Z</time>
      </trkpt>
      <trkpt lat="41.797027" lon="9.221573">
        <ele>1183.0</ele>
        <time>2022-09-16T12:11:38Z</time>
      </trkpt>
      <trkpt lat="41.797027" lon="9.221625">
        <ele>1184.0</ele>
        <time>2022-09-16T12:11:42Z</time>
      </trkpt>
      <trkpt lat="41.797025" lon="9.22169">
        <ele>1185.2</ele>
        <time>2022-09-16T12:11:48Z</time>
      </trkpt>
      <trkpt lat="41.797065" lon="9.221767">
        <ele>1185.0</ele>
        <time>2022-09-16T12:11:59Z</time>
      </trkpt>
      <trkpt lat="41.797132" lon="9.221885">
        <ele>1192.6</ele>
        <time>2022-09-16T12:12:36Z</time>
      </trkpt>
      <trkpt lat="41.79716" lon="9.221928">
        <ele>1192.6</ele>
        <time>2022-09-16T12:12:45Z</time>
      </trkpt>
      <trkpt lat="41.797165" lon="9.22193">
        <ele>1192.6</ele>
        <time>2022-09-16T12:12:46Z</time>
      </trkpt>
      <trkpt lat="41.797317" lon="9.221913">
        <ele>1193.4</ele>
        <time>2022-09-16T12:13:01Z</time>
      </trkpt>
      <trkpt lat="41.797327" lon="9.222003">
        <ele>1195.4</ele>
        <time>2022-09-16T12:13:07Z</time>
      </trkpt>
      <trkpt lat="41.797308" lon="9.222117">
        <ele>1197.2</ele>
        <time>2022-09-16T12:13:18Z</time>
      </trkpt>
      <trkpt lat="41.797287" lon="9.222247">
        <ele>1206.4</ele>
        <time>2022-09-16T12:14:13Z</time>
      </trkpt>
      <trkpt lat="41.79727" lon="9.222325">
        <ele>1207.2</ele>
        <time>2022-09-16T12:14:22Z</time>
      </trkpt>
      <trkpt lat="41.797062" lon="9.222688">
        <ele>1205.2</ele>
        <time>2022-09-16T12:14:46Z</time>
      </trkpt>
      <trkpt lat="41.797003" lon="9.222827">
        <ele>1205.6</ele>
        <time>2022-09-16T12:15:00Z</time>
      </trkpt>
      <trkpt lat="41.79695" lon="9.223022">
        <ele>1206.4</ele>
        <time>2022-09-16T12:15:28Z</time>
      </trkpt>
      <trkpt lat="41.796968" lon="9.223043">
        <ele>1206.8</ele>
        <time>2022-09-16T12:15:50Z</time>
      </trkpt>
      <trkpt lat="41.796975" lon="9.223047">
        <ele>1206.6</ele>
        <time>2022-09-16T12:15:52Z</time>
      </trkpt>
      <trkpt lat="41.796983" lon="9.223135">
        <ele>1209.8</ele>
        <time>2022-09-16T12:16:15Z</time>
      </trkpt>
      <trkpt lat="41.796968" lon="9.223192">
        <ele>1211.8</ele>
        <time>2022-09-16T12:16:35Z</time>
      </trkpt>
      <trkpt lat="41.796955" lon="9.223235">
        <ele>1212.4</ele>
        <time>2022-09-16T12:16:48Z</time>
      </trkpt>
      <trkpt lat="41.796922" lon="9.223223">
        <ele>1212.4</ele>
        <time>2022-09-16T12:17:01Z</time>
      </trkpt>
      <trkpt lat="41.796895" lon="9.223222">
        <ele>1214.6</ele>
        <time>2022-09-16T12:17:15Z</time>
      </trkpt>
      <trkpt lat="41.796858" lon="9.223418">
        <ele>1214.0</ele>
        <time>2022-09-16T12:17:26Z</time>
      </trkpt>
      <trkpt lat="41.796557" lon="9.223735">
        <ele>1213.6</ele>
        <time>2022-09-16T12:17:36Z</time>
      </trkpt>
      <trkpt lat="41.796375" lon="9.224027">
        <ele>1213.2</ele>
        <time>2022-09-16T12:17:46Z</time>
      </trkpt>
      <trkpt lat="41.796268" lon="9.224152">
        <ele>1213.0</ele>
        <time>2022-09-16T12:17:58Z</time>
      </trkpt>
      <trkpt lat="41.796235" lon="9.224227">
        <ele>1213.0</ele>
        <time>2022-09-16T12:17:58Z</time>
      </trkpt>
      <trkpt lat="41.796153" lon="9.224315">
        <ele>1213.6</ele>
        <time>2022-09-16T12:18:07Z</time>
      </trkpt>
      <trkpt lat="41.796093" lon="9.22436">
        <ele>1215.2</ele>
        <time>2022-09-16T12:18:14Z</time>
      </trkpt>
      <trkpt lat="41.796057" lon="9.224372">
        <ele>1215.8</ele>
        <time>2022-09-16T12:18:18Z</time>
      </trkpt>
      <trkpt lat="41.795957" lon="9.224375">
        <ele>1217.2</ele>
        <time>2022-09-16T12:18:30Z</time>
      </trkpt>
      <trkpt lat="41.795928" lon="9.22437">
        <ele>1216.4</ele>
        <time>2022-09-16T12:18:33Z</time>
      </trkpt>
      <trkpt lat="41.79588" lon="9.224365">
        <ele>1216.8</ele>
        <time>2022-09-16T12:18:36Z</time>
      </trkpt>
      <trkpt lat="41.795858" lon="9.224392">
        <ele>1216.6</ele>
        <time>2022-09-16T12:18:38Z</time>
      </trkpt>
      <trkpt lat="41.795838" lon="9.224455">
        <ele>1216.0</ele>
        <time>2022-09-16T12:18:42Z</time>
      </trkpt>
      <trkpt lat="41.795903" lon="9.224543">
        <ele>1215.2</ele>
        <time>2022-09-16T12:18:51Z</time>
      </trkpt>
      <trkpt lat="41.795943" lon="9.224598">
        <ele>1217.0</ele>
        <time>2022-09-16T12:19:13Z</time>
      </trkpt>
      <trkpt lat="41.796005" lon="9.224618">
        <ele>1218.4</ele>
        <time>2022-09-16T12:19:33Z</time>
      </trkpt>
      <trkpt lat="41.796017" lon="9.224657">
        <ele>1218.2</ele>
        <time>2022-09-16T12:19:39Z</time>
      </trkpt>
      <trkpt lat="41.796088" lon="9.224795">
        <ele>1217.2</ele>
        <time>2022-09-16T12:19:57Z</time>
      </trkpt>
      <trkpt lat="41.79611" lon="9.224843">
        <ele>1218.4</ele>
        <time>2022-09-16T12:20:05Z</time>
      </trkpt>
      <trkpt lat="41.796117" lon="9.224905">
        <ele>1219.2</ele>
        <time>2022-09-16T12:20:12Z</time>
      </trkpt>
      <trkpt lat="41.796095" lon="9.22496">
        <ele>1219.2</ele>
        <time>2022-09-16T12:20:20Z</time>
      </trkpt>
      <trkpt lat="41.796102" lon="9.224967">
        <ele>1219.2</ele>
        <time>2022-09-16T12:20:21Z</time>
      </trkpt>
      <trkpt lat="41.7962" lon="9.225077">
        <ele>1219.4</ele>
        <time>2022-09-16T12:20:36Z</time>
      </trkpt>
      <trkpt lat="41.79617" lon="9.225125">
        <ele>1220.8</ele>
        <time>2022-09-16T12:20:42Z</time>
      </trkpt>
      <trkpt lat="41.79613" lon="9.225148">
        <ele>1221.2</ele>
        <time>2022-09-16T12:20:47Z</time>
      </trkpt>
      <trkpt lat="41.796037" lon="9.225135">
        <ele>1219.0</ele>
        <time>2022-09-16T12:21:01Z</time>
      </trkpt>
      <trkpt lat="41.795995" lon="9.225252">
        <ele>1216.8</ele>
        <time>2022-09-16T12:21:09Z</time>
      </trkpt>
      <trkpt lat="41.795897" lon="9.225558">
        <ele>1216.0</ele>
        <time>2022-09-16T12:21:28Z</time>
      </trkpt>
      <trkpt lat="41.795873" lon="9.22574">
        <ele>1214.4</ele>
        <time>2022-09-16T12:21:45Z</time>
      </trkpt>
      <trkpt lat="41.795835" lon="9.225933">
        <ele>1215.4</ele>
        <time>2022-09-16T12:21:59Z</time>
      </trkpt>
      <trkpt lat="41.795842" lon="9.226017">
        <ele>1214.8</ele>
        <time>2022-09-16T12:22:05Z</time>
      </trkpt>
      <trkpt lat="41.795853" lon="9.22607">
        <ele>1214.0</ele>
        <time>2022-09-16T12:22:09Z</time>
      </trkpt>
      <trkpt lat="41.795932" lon="9.226188">
        <ele>1213.6</ele>
        <time>2022-09-16T12:22:44Z</time>
      </trkpt>
      <trkpt lat="41.795958" lon="9.22637">
        <ele>1212.6</ele>
        <time>2022-09-16T12:23:10Z</time>
      </trkpt>
      <trkpt lat="41.795962" lon="9.226447">
        <ele>1211.2</ele>
        <time>2022-09-16T12:23:15Z</time>
      </trkpt>
      <trkpt lat="41.795938" lon="9.226838">
        <ele>1209.0</ele>
        <time>2022-09-16T12:23:34Z</time>
      </trkpt>
      <trkpt lat="41.795917" lon="9.226637">
        <ele>1209.4</ele>
        <time>2022-09-16T12:23:47Z</time>
      </trkpt>
      <trkpt lat="41.795907" lon="9.22612">
        <ele>1211.0</ele>
        <time>2022-09-16T12:24:11Z</time>
      </trkpt>
      <trkpt lat="41.795923" lon="9.226162">
        <ele>1211.4</ele>
        <time>2022-09-16T12:24:14Z</time>
      </trkpt>
      <trkpt lat="41.796058" lon="9.226557">
        <ele>1212.6</ele>
        <time>2022-09-16T13:16:06Z</time>
      </trkpt>
      <trkpt lat="41.796075" lon="9.226597">
        <ele>1215.0</ele>
        <time>2022-09-16T13:16:12Z</time>
      </trkpt>
      <trkpt lat="41.796065" lon="9.226685">
        <ele>1214.2</ele>
        <time>2022-09-16T13:16:21Z</time>
      </trkpt>
      <trkpt lat="41.796005" lon="9.22697">
        <ele>1213.2</ele>
        <time>2022-09-16T13:16:43Z</time>
      </trkpt>
      <trkpt lat="41.795985" lon="9.22713">
        <ele>1212.0</ele>
        <time>2022-09-16T13:16:56Z</time>
      </trkpt>
      <trkpt lat="41.796005" lon="9.227178">
        <ele>1212.0</ele>
        <time>2022-09-16T13:17:02Z</time>
      </trkpt>
      <trkpt lat="41.796007" lon="9.2272">
        <ele>1212.0</ele>
        <time>2022-09-16T13:17:04Z</time>
      </trkpt>
      <trkpt lat="41.795942" lon="9.227162">
        <ele>1211.0</ele>
        <time>2022-09-16T13:17:11Z</time>
      </trkpt>
      <trkpt lat="41.795877" lon="9.2272">
        <ele>1211.4</ele>
        <time>2022-09-16T13:17:19Z</time>
      </trkpt>
      <trkpt lat="41.795785" lon="9.227285">
        <ele>1210.8</ele>
        <time>2022-09-16T13:17:32Z</time>
      </trkpt>
      <trkpt lat="41.795715" lon="9.22737">
        <ele>1207.2</ele>
        <time>2022-09-16T13:17:47Z</time>
      </trkpt>
      <trkpt lat="41.79572" lon="9.227413">
        <ele>1206.0</ele>
        <time>2022-09-16T13:17:51Z</time>
      </trkpt>
      <trkpt lat="41.795672" lon="9.227513">
        <ele>1206.0</ele>
        <time>2022-09-16T13:17:58Z</time>
      </trkpt>
      <trkpt lat="41.795587" lon="9.227662">
        <ele>1205.8</ele>
        <time>2022-09-16T13:18:08Z</time>
      </trkpt>
      <trkpt lat="41.795507" lon="9.22777">
        <ele>1205.8</ele>
        <time>2022-09-16T13:18:17Z</time>
      </trkpt>
      <trkpt lat="41.795377" lon="9.227917">
        <ele>1202.2</ele>
        <time>2022-09-16T13:18:33Z</time>
      </trkpt>
      <trkpt lat="41.795325" lon="9.22798">
        <ele>1200.6</ele>
        <time>2022-09-16T13:18:41Z</time>
      </trkpt>
      <trkpt lat="41.795272" lon="9.22807">
        <ele>1199.6</ele>
        <time>2022-09-16T13:18:52Z</time>
      </trkpt>
      <trkpt lat="41.79524" lon="9.228132">
        <ele>1197.8</ele>
        <time>2022-09-16T13:19:02Z</time>
      </trkpt>
      <trkpt lat="41.795193" lon="9.228153">
        <ele>1195.4</ele>
        <time>2022-09-16T13:19:13Z</time>
      </trkpt>
      <trkpt lat="41.795177" lon="9.228145">
        <ele>1195.6</ele>
        <time>2022-09-16T13:19:18Z</time>
      </trkpt>
      <trkpt lat="41.795043" lon="9.228665">
        <ele>1189.8</ele>
        <time>2022-09-16T13:19:51Z</time>
      </trkpt>
      <trkpt lat="41.795042" lon="9.22875">
        <ele>1190.0</ele>
        <time>2022-09-16T13:19:55Z</time>
      </trkpt>
      <trkpt lat="41.795067" lon="9.228803">
        <ele>1190.0</ele>
        <time>2022-09-16T13:19:58Z</time>
      </trkpt>
      <trkpt lat="41.795133" lon="9.228917">
        <ele>1189.8</ele>
        <time>2022-09-16T13:20:06Z</time>
      </trkpt>
      <trkpt lat="41.795125" lon="9.228947">
        <ele>1189.6</ele>
        <time>2022-09-16T13:20:10Z</time>
      </trkpt>
      <trkpt lat="41.79513" lon="9.228958">
        <ele>1190.0</ele>
        <time>2022-09-16T13:20:11Z</time>
      </trkpt>
      <trkpt lat="41.795027" lon="9.228997">
        <ele>1191.6</ele>
        <time>2022-09-16T13:20:26Z</time>
      </trkpt>
      <trkpt lat="41.794907" lon="9.229">
        <ele>1192.2</ele>
        <time>2022-09-16T13:20:35Z</time>
      </trkpt>
      <trkpt lat="41.794877" lon="9.22903">
        <ele>1191.8</ele>
        <time>2022-09-16T13:20:38Z</time>
      </trkpt>
      <trkpt lat="41.79482" lon="9.229128">
        <ele>1191.2</ele>
        <time>2022-09-16T13:20:45Z</time>
      </trkpt>
      <trkpt lat="41.794762" lon="9.2293">
        <ele>1192.6</ele>
        <time>2022-09-16T13:20:57Z</time>
      </trkpt>
      <trkpt lat="41.794737" lon="9.229348">
        <ele>1192.8</ele>
        <time>2022-09-16T13:21:01Z</time>
      </trkpt>
      <trkpt lat="41.794668" lon="9.229423">
        <ele>1191.8</ele>
        <time>2022-09-16T13:21:11Z</time>
      </trkpt>
      <trkpt lat="41.794558" lon="9.22954">
        <ele>1190.4</ele>
        <time>2022-09-16T13:21:28Z</time>
      </trkpt>
      <trkpt lat="41.794508" lon="9.229573">
        <ele>1188.2</ele>
        <time>2022-09-16T13:21:37Z</time>
      </trkpt>
      <trkpt lat="41.794485" lon="9.229558">
        <ele>1187.4</ele>
        <time>2022-09-16T13:21:41Z</time>
      </trkpt>
      <trkpt lat="41.794472" lon="9.229537">
        <ele>1187.4</ele>
        <time>2022-09-16T13:21:44Z</time>
      </trkpt>
      <trkpt lat="41.794455" lon="9.22958">
        <ele>1188.0</ele>
        <time>2022-09-16T13:21:49Z</time>
      </trkpt>
      <trkpt lat="41.79444" lon="9.229623">
        <ele>1188.4</ele>
        <time>2022-09-16T13:21:54Z</time>
      </trkpt>
      <trkpt lat="41.794438" lon="9.229678">
        <ele>1190.8</ele>
        <time>2022-09-16T13:22:00Z</time>
      </trkpt>
      <trkpt lat="41.794438" lon="9.229763">
        <ele>1191.4</ele>
        <time>2022-09-16T13:22:09Z</time>
      </trkpt>
      <trkpt lat="41.794433" lon="9.229835">
        <ele>1191.0</ele>
        <time>2022-09-16T13:22:21Z</time>
      </trkpt>
      <trkpt lat="41.794452" lon="9.229898">
        <ele>1189.0</ele>
        <time>2022-09-16T13:22:38Z</time>
      </trkpt>
      <trkpt lat="41.794455" lon="9.229897">
        <ele>1188.8</ele>
        <time>2022-09-16T13:22:39Z</time>
      </trkpt>
      <trkpt lat="41.794455" lon="9.229962">
        <ele>1190.0</ele>
        <time>2022-09-16T13:23:00Z</time>
      </trkpt>
      <trkpt lat="41.794437" lon="9.230017">
        <ele>1187.6</ele>
        <time>2022-09-16T13:23:12Z</time>
      </trkpt>
      <trkpt lat="41.79444" lon="9.230053">
        <ele>1186.6</ele>
        <time>2022-09-16T13:23:20Z</time>
      </trkpt>
      <trkpt lat="41.794427" lon="9.23008">
        <ele>1186.4</ele>
        <time>2022-09-16T13:23:32Z</time>
      </trkpt>
      <trkpt lat="41.79441" lon="9.230118">
        <ele>1188.4</ele>
        <time>2022-09-16T13:23:56Z</time>
      </trkpt>
      <trkpt lat="41.794382" lon="9.23015">
        <ele>1190.4</ele>
        <time>2022-09-16T13:24:24Z</time>
      </trkpt>
      <trkpt lat="41.794375" lon="9.230108">
        <ele>1190.2</ele>
        <time>2022-09-16T13:24:31Z</time>
      </trkpt>
      <trkpt lat="41.794352" lon="9.230067">
        <ele>1189.6</ele>
        <time>2022-09-16T13:24:36Z</time>
      </trkpt>
      <trkpt lat="41.794337" lon="9.230012">
        <ele>1189.0</ele>
        <time>2022-09-16T13:24:41Z</time>
      </trkpt>
      <trkpt lat="41.794327" lon="9.22999">
        <ele>1188.4</ele>
        <time>2022-09-16T13:24:48Z</time>
      </trkpt>
      <trkpt lat="41.79431" lon="9.229983">
        <ele>1186.8</ele>
        <time>2022-09-16T13:25:01Z</time>
      </trkpt>
      <trkpt lat="41.79431" lon="9.229985">
        <ele>1186.8</ele>
        <time>2022-09-16T13:25:02Z</time>
      </trkpt>
      <trkpt lat="41.794248" lon="9.229947">
        <ele>1183.2</ele>
        <time>2022-09-16T13:25:50Z</time>
      </trkpt>
      <trkpt lat="41.7942" lon="9.23">
        <ele>1183.2</ele>
        <time>2022-09-16T13:26:13Z</time>
      </trkpt>
      <trkpt lat="41.793755" lon="9.230385">
        <ele>1185.2</ele>
        <time>2022-09-16T13:26:24Z</time>
      </trkpt>
      <trkpt lat="41.793685" lon="9.230462">
        <ele>1186.4</ele>
        <time>2022-09-16T13:26:30Z</time>
      </trkpt>
      <trkpt lat="41.793592" lon="9.23054">
        <ele>1186.6</ele>
        <time>2022-09-16T13:26:37Z</time>
      </trkpt>
      <trkpt lat="41.7935" lon="9.230583">
        <ele>1185.2</ele>
        <time>2022-09-16T13:26:44Z</time>
      </trkpt>
      <trkpt lat="41.793338" lon="9.23064">
        <ele>1185.2</ele>
        <time>2022-09-16T13:26:59Z</time>
      </trkpt>
      <trkpt lat="41.793238" lon="9.230643">
        <ele>1185.6</ele>
        <time>2022-09-16T13:27:08Z</time>
      </trkpt>
      <trkpt lat="41.793172" lon="9.230633">
        <ele>1186.4</ele>
        <time>2022-09-16T13:27:14Z</time>
      </trkpt>
      <trkpt lat="41.793132" lon="9.230785">
        <ele>1186.6</ele>
        <time>2022-09-16T13:27:20Z</time>
      </trkpt>
      <trkpt lat="41.793083" lon="9.23091">
        <ele>1185.8</ele>
        <time>2022-09-16T13:27:26Z</time>
      </trkpt>
      <trkpt lat="41.793063" lon="9.230943">
        <ele>1185.2</ele>
        <time>2022-09-16T13:27:28Z</time>
      </trkpt>
      <trkpt lat="41.793035" lon="9.230948">
        <ele>1185.0</ele>
        <time>2022-09-16T13:27:30Z</time>
      </trkpt>
      <trkpt lat="41.792973" lon="9.2309">
        <ele>1184.8</ele>
        <time>2022-09-16T13:27:34Z</time>
      </trkpt>
      <trkpt lat="41.792927" lon="9.230838">
        <ele>1185.0</ele>
        <time>2022-09-16T13:27:37Z</time>
      </trkpt>
      <trkpt lat="41.792783" lon="9.23061">
        <ele>1184.6</ele>
        <time>2022-09-16T13:27:47Z</time>
      </trkpt>
      <trkpt lat="41.792768" lon="9.230593">
        <ele>1184.2</ele>
        <time>2022-09-16T13:27:48Z</time>
      </trkpt>
      <trkpt lat="41.792703" lon="9.23053">
        <ele>1181.6</ele>
        <time>2022-09-16T13:27:55Z</time>
      </trkpt>
      <trkpt lat="41.792668" lon="9.23054">
        <ele>1180.2</ele>
        <time>2022-09-16T13:27:59Z</time>
      </trkpt>
      <trkpt lat="41.792483" lon="9.230613">
        <ele>1184.8</ele>
        <time>2022-09-16T13:28:16Z</time>
      </trkpt>
      <trkpt lat="41.792347" lon="9.230653">
        <ele>1186.8</ele>
        <time>2022-09-16T13:28:26Z</time>
      </trkpt>
      <trkpt lat="41.792248" lon="9.230693">
        <ele>1186.8</ele>
        <time>2022-09-16T13:28:33Z</time>
      </trkpt>
      <trkpt lat="41.792075" lon="9.230878">
        <ele>1185.4</ele>
        <time>2022-09-16T13:28:53Z</time>
      </trkpt>
      <trkpt lat="41.792057" lon="9.230895">
        <ele>1185.4</ele>
        <time>2022-09-16T13:28:56Z</time>
      </trkpt>
      <trkpt lat="41.792045" lon="9.230968">
        <ele>1185.6</ele>
        <time>2022-09-16T13:29:02Z</time>
      </trkpt>
      <trkpt lat="41.792055" lon="9.23104">
        <ele>1185.0</ele>
        <time>2022-09-16T13:29:08Z</time>
      </trkpt>
      <trkpt lat="41.792087" lon="9.231105">
        <ele>1183.4</ele>
        <time>2022-09-16T13:29:14Z</time>
      </trkpt>
      <trkpt lat="41.792122" lon="9.231155">
        <ele>1182.8</ele>
        <time>2022-09-16T13:29:19Z</time>
      </trkpt>
      <trkpt lat="41.792122" lon="9.231237">
        <ele>1182.4</ele>
        <time>2022-09-16T13:29:32Z</time>
      </trkpt>
      <trkpt lat="41.792105" lon="9.231307">
        <ele>1183.2</ele>
        <time>2022-09-16T13:29:50Z</time>
      </trkpt>
      <trkpt lat="41.792097" lon="9.231318">
        <ele>1183.2</ele>
        <time>2022-09-16T13:29:56Z</time>
      </trkpt>
      <trkpt lat="41.79207" lon="9.231305">
        <ele>1182.2</ele>
        <time>2022-09-16T13:30:03Z</time>
      </trkpt>
      <trkpt lat="41.792073" lon="9.231415">
        <ele>1179.8</ele>
        <time>2022-09-16T13:30:19Z</time>
      </trkpt>
      <trkpt lat="41.792103" lon="9.231882">
        <ele>1181.4</ele>
        <time>2022-09-16T13:30:31Z</time>
      </trkpt>
      <trkpt lat="41.791747" lon="9.232067">
        <ele>1184.2</ele>
        <time>2022-09-16T13:30:42Z</time>
      </trkpt>
      <trkpt lat="41.791655" lon="9.232198">
        <ele>1184.0</ele>
        <time>2022-09-16T13:30:53Z</time>
      </trkpt>
      <trkpt lat="41.791538" lon="9.232342">
        <ele>1182.4</ele>
        <time>2022-09-16T13:31:00Z</time>
      </trkpt>
      <trkpt lat="41.791282" lon="9.232625">
        <ele>1181.0</ele>
        <time>2022-09-16T13:31:28Z</time>
      </trkpt>
      <trkpt lat="41.791232" lon="9.232665">
        <ele>1180.6</ele>
        <time>2022-09-16T13:31:35Z</time>
      </trkpt>
      <trkpt lat="41.791198" lon="9.232682">
        <ele>1180.4</ele>
        <time>2022-09-16T13:31:39Z</time>
      </trkpt>
      <trkpt lat="41.79117" lon="9.232693">
        <ele>1179.6</ele>
        <time>2022-09-16T13:31:44Z</time>
      </trkpt>
      <trkpt lat="41.791132" lon="9.232695">
        <ele>1178.4</ele>
        <time>2022-09-16T13:31:50Z</time>
      </trkpt>
      <trkpt lat="41.79109" lon="9.232682">
        <ele>1177.4</ele>
        <time>2022-09-16T13:31:56Z</time>
      </trkpt>
      <trkpt lat="41.791037" lon="9.232643">
        <ele>1177.0</ele>
        <time>2022-09-16T13:32:04Z</time>
      </trkpt>
      <trkpt lat="41.790995" lon="9.232608">
        <ele>1176.6</ele>
        <time>2022-09-16T13:32:10Z</time>
      </trkpt>
      <trkpt lat="41.790982" lon="9.232603">
        <ele>1176.2</ele>
        <time>2022-09-16T13:32:12Z</time>
      </trkpt>
      <trkpt lat="41.790958" lon="9.232628">
        <ele>1176.6</ele>
        <time>2022-09-16T13:32:16Z</time>
      </trkpt>
      <trkpt lat="41.790945" lon="9.232672">
        <ele>1177.8</ele>
        <time>2022-09-16T13:32:21Z</time>
      </trkpt>
      <trkpt lat="41.790947" lon="9.232713">
        <ele>1177.8</ele>
        <time>2022-09-16T13:32:27Z</time>
      </trkpt>
      <trkpt lat="41.790978" lon="9.23282">
        <ele>1171.0</ele>
        <time>2022-09-16T13:32:45Z</time>
      </trkpt>
      <trkpt lat="41.790968" lon="9.23291">
        <ele>1168.4</ele>
        <time>2022-09-16T13:33:00Z</time>
      </trkpt>
      <trkpt lat="41.790802" lon="9.233127">
        <ele>1169.8</ele>
        <time>2022-09-16T13:33:08Z</time>
      </trkpt>
      <trkpt lat="41.790807" lon="9.233253">
        <ele>1171.8</ele>
        <time>2022-09-16T13:33:18Z</time>
      </trkpt>
      <trkpt lat="41.790568" lon="9.233453">
        <ele>1173.6</ele>
        <time>2022-09-16T13:33:31Z</time>
      </trkpt>
      <trkpt lat="41.790562" lon="9.233402">
        <ele>1173.0</ele>
        <time>2022-09-16T13:33:43Z</time>
      </trkpt>
      <trkpt lat="41.790585" lon="9.23345">
        <ele>1173.0</ele>
        <time>2022-09-16T13:33:43Z</time>
      </trkpt>
      <trkpt lat="41.790627" lon="9.233505">
        <ele>1172.8</ele>
        <time>2022-09-16T13:33:50Z</time>
      </trkpt>
      <trkpt lat="41.79072" lon="9.233568">
        <ele>1172.2</ele>
        <time>2022-09-16T13:34:02Z</time>
      </trkpt>
      <trkpt lat="41.790747" lon="9.23359">
        <ele>1172.6</ele>
        <time>2022-09-16T13:34:05Z</time>
      </trkpt>
      <trkpt lat="41.790787" lon="9.233665">
        <ele>1173.4</ele>
        <time>2022-09-16T13:34:13Z</time>
      </trkpt>
      <trkpt lat="41.790807" lon="9.233763">
        <ele>1171.2</ele>
        <time>2022-09-16T13:34:25Z</time>
      </trkpt>
      <trkpt lat="41.790828" lon="9.233832">
        <ele>1169.2</ele>
        <time>2022-09-16T13:34:37Z</time>
      </trkpt>
      <trkpt lat="41.790882" lon="9.233903">
        <ele>1167.0</ele>
        <time>2022-09-16T13:34:59Z</time>
      </trkpt>
      <trkpt lat="41.790882" lon="9.233908">
        <ele>1166.6</ele>
        <time>2022-09-16T13:35:01Z</time>
      </trkpt>
      <trkpt lat="41.790768" lon="9.234057">
        <ele>1161.4</ele>
        <time>2022-09-16T13:35:44Z</time>
      </trkpt>
      <trkpt lat="41.790752" lon="9.234072">
        <ele>1160.8</ele>
        <time>2022-09-16T13:35:46Z</time>
      </trkpt>
      <trkpt lat="41.790725" lon="9.234198">
        <ele>1157.6</ele>
        <time>2022-09-16T13:35:56Z</time>
      </trkpt>
      <trkpt lat="41.790712" lon="9.234255">
        <ele>1156.8</ele>
        <time>2022-09-16T13:36:00Z</time>
      </trkpt>
      <trkpt lat="41.790717" lon="9.234498">
        <ele>1154.0</ele>
        <time>2022-09-16T13:36:17Z</time>
      </trkpt>
      <trkpt lat="41.790702" lon="9.234685">
        <ele>1153.8</ele>
        <time>2022-09-16T13:36:31Z</time>
      </trkpt>
      <trkpt lat="41.790687" lon="9.234768">
        <ele>1152.6</ele>
        <time>2022-09-16T13:36:38Z</time>
      </trkpt>
      <trkpt lat="41.790655" lon="9.234785">
        <ele>1152.6</ele>
        <time>2022-09-16T13:36:42Z</time>
      </trkpt>
      <trkpt lat="41.790583" lon="9.234797">
        <ele>1152.8</ele>
        <time>2022-09-16T13:36:49Z</time>
      </trkpt>
      <trkpt lat="41.79054" lon="9.234822">
        <ele>1152.0</ele>
        <time>2022-09-16T13:36:54Z</time>
      </trkpt>
      <trkpt lat="41.790508" lon="9.234877">
        <ele>1151.0</ele>
        <time>2022-09-16T13:36:59Z</time>
      </trkpt>
      <trkpt lat="41.790505" lon="9.234928">
        <ele>1149.6</ele>
        <time>2022-09-16T13:37:03Z</time>
      </trkpt>
      <trkpt lat="41.790523" lon="9.234975">
        <ele>1148.8</ele>
        <time>2022-09-16T13:37:07Z</time>
      </trkpt>
      <trkpt lat="41.790565" lon="9.235027">
        <ele>1147.4</ele>
        <time>2022-09-16T13:37:12Z</time>
      </trkpt>
      <trkpt lat="41.790582" lon="9.235068">
        <ele>1145.4</ele>
        <time>2022-09-16T13:37:18Z</time>
      </trkpt>
      <trkpt lat="41.790578" lon="9.235112">
        <ele>1143.2</ele>
        <time>2022-09-16T13:37:24Z</time>
      </trkpt>
      <trkpt lat="41.79056" lon="9.235158">
        <ele>1142.2</ele>
        <time>2022-09-16T13:37:32Z</time>
      </trkpt>
      <trkpt lat="41.790568" lon="9.235203">
        <ele>1142.8</ele>
        <time>2022-09-16T13:37:40Z</time>
      </trkpt>
      <trkpt lat="41.790603" lon="9.235223">
        <ele>1144.4</ele>
        <time>2022-09-16T13:37:49Z</time>
      </trkpt>
      <trkpt lat="41.790607" lon="9.23525">
        <ele>1143.8</ele>
        <time>2022-09-16T13:37:55Z</time>
      </trkpt>
      <trkpt lat="41.790622" lon="9.235283">
        <ele>1143.0</ele>
        <time>2022-09-16T13:38:02Z</time>
      </trkpt>
      <trkpt lat="41.790577" lon="9.23531">
        <ele>1140.8</ele>
        <time>2022-09-16T13:38:10Z</time>
      </trkpt>
      <trkpt lat="41.790393" lon="9.235383">
        <ele>1136.6</ele>
        <time>2022-09-16T13:38:37Z</time>
      </trkpt>
      <trkpt lat="41.790387" lon="9.235382">
        <ele>1136.6</ele>
        <time>2022-09-16T13:38:38Z</time>
      </trkpt>
      <trkpt lat="41.79033" lon="9.235393">
        <ele>1132.8</ele>
        <time>2022-09-16T13:38:54Z</time>
      </trkpt>
      <trkpt lat="41.790292" lon="9.235427">
        <ele>1131.4</ele>
        <time>2022-09-16T13:39:10Z</time>
      </trkpt>
      <trkpt lat="41.790232" lon="9.235452">
        <ele>1122.8</ele>
        <time>2022-09-16T13:39:46Z</time>
      </trkpt>
      <trkpt lat="41.790155" lon="9.235487">
        <ele>1118.0</ele>
        <time>2022-09-16T13:40:38Z</time>
      </trkpt>
      <trkpt lat="41.79001" lon="9.23556">
        <ele>1115.2</ele>
        <time>2022-09-16T13:40:52Z</time>
      </trkpt>
      <trkpt lat="41.789905" lon="9.235588">
        <ele>1114.2</ele>
        <time>2022-09-16T13:41:01Z</time>
      </trkpt>
      <trkpt lat="41.789813" lon="9.235643">
        <ele>1113.4</ele>
        <time>2022-09-16T13:41:07Z</time>
      </trkpt>
      <trkpt lat="41.789723" lon="9.235677">
        <ele>1111.8</ele>
        <time>2022-09-16T13:41:13Z</time>
      </trkpt>
      <trkpt lat="41.789763" lon="9.235793">
        <ele>1109.4</ele>
        <time>2022-09-16T13:41:31Z</time>
      </trkpt>
      <trkpt lat="41.789765" lon="9.23582">
        <ele>1109.2</ele>
        <time>2022-09-16T13:41:37Z</time>
      </trkpt>
      <trkpt lat="41.789753" lon="9.235857">
        <ele>1109.2</ele>
        <time>2022-09-16T13:41:46Z</time>
      </trkpt>
      <trkpt lat="41.789773" lon="9.235902">
        <ele>1109.0</ele>
        <time>2022-09-16T13:41:57Z</time>
      </trkpt>
      <trkpt lat="41.789628" lon="9.235867">
        <ele>1108.6</ele>
        <time>2022-09-16T13:42:08Z</time>
      </trkpt>
      <trkpt lat="41.789518" lon="9.235888">
        <ele>1108.0</ele>
        <time>2022-09-16T13:42:16Z</time>
      </trkpt>
      <trkpt lat="41.789425" lon="9.235928">
        <ele>1106.8</ele>
        <time>2022-09-16T13:42:23Z</time>
      </trkpt>
      <trkpt lat="41.789433" lon="9.23596">
        <ele>1105.8</ele>
        <time>2022-09-16T13:42:27Z</time>
      </trkpt>
      <trkpt lat="41.789418" lon="9.236038">
        <ele>1103.6</ele>
        <time>2022-09-16T13:42:34Z</time>
      </trkpt>
      <trkpt lat="41.789428" lon="9.23607">
        <ele>1103.0</ele>
        <time>2022-09-16T13:42:37Z</time>
      </trkpt>
      <trkpt lat="41.789455" lon="9.236075">
        <ele>1101.2</ele>
        <time>2022-09-16T13:42:41Z</time>
      </trkpt>
      <trkpt lat="41.789505" lon="9.23607">
        <ele>1099.6</ele>
        <time>2022-09-16T13:42:49Z</time>
      </trkpt>
      <trkpt lat="41.789517" lon="9.236103">
        <ele>1099.0</ele>
        <time>2022-09-16T13:42:53Z</time>
      </trkpt>
      <trkpt lat="41.789478" lon="9.236118">
        <ele>1097.6</ele>
        <time>2022-09-16T13:43:01Z</time>
      </trkpt>
      <trkpt lat="41.789467" lon="9.23616">
        <ele>1096.8</ele>
        <time>2022-09-16T13:43:08Z</time>
      </trkpt>
      <trkpt lat="41.789455" lon="9.23624">
        <ele>1095.6</ele>
        <time>2022-09-16T13:43:22Z</time>
      </trkpt>
      <trkpt lat="41.789462" lon="9.236272">
        <ele>1094.2</ele>
        <time>2022-09-16T13:43:29Z</time>
      </trkpt>
      <trkpt lat="41.789477" lon="9.236315">
        <ele>1091.4</ele>
        <time>2022-09-16T13:43:40Z</time>
      </trkpt>
      <trkpt lat="41.789472" lon="9.236353">
        <ele>1091.2</ele>
        <time>2022-09-16T13:43:51Z</time>
      </trkpt>
      <trkpt lat="41.789472" lon="9.236357">
        <ele>1091.2</ele>
        <time>2022-09-16T13:43:52Z</time>
      </trkpt>
      <trkpt lat="41.78944" lon="9.236385">
        <ele>1092.8</ele>
        <time>2022-09-16T13:44:02Z</time>
      </trkpt>
      <trkpt lat="41.789497" lon="9.236488">
        <ele>1092.8</ele>
        <time>2022-09-16T13:44:25Z</time>
      </trkpt>
      <trkpt lat="41.789478" lon="9.236533">
        <ele>1091.2</ele>
        <time>2022-09-16T13:44:38Z</time>
      </trkpt>
      <trkpt lat="41.789453" lon="9.236567">
        <ele>1090.8</ele>
        <time>2022-09-16T13:44:44Z</time>
      </trkpt>
      <trkpt lat="41.789447" lon="9.236572">
        <ele>1090.8</ele>
        <time>2022-09-16T13:44:45Z</time>
      </trkpt>
      <trkpt lat="41.789407" lon="9.236593">
        <ele>1090.6</ele>
        <time>2022-09-16T13:44:49Z</time>
      </trkpt>
      <trkpt lat="41.789345" lon="9.236662">
        <ele>1090.0</ele>
        <time>2022-09-16T13:44:55Z</time>
      </trkpt>
      <trkpt lat="41.789198" lon="9.23685">
        <ele>1089.6</ele>
        <time>2022-09-16T13:45:09Z</time>
      </trkpt>
      <trkpt lat="41.789107" lon="9.236957">
        <ele>1089.2</ele>
        <time>2022-09-16T13:45:16Z</time>
      </trkpt>
      <trkpt lat="41.78899" lon="9.237052">
        <ele>1086.0</ele>
        <time>2022-09-16T13:45:24Z</time>
      </trkpt>
      <trkpt lat="41.788913" lon="9.237133">
        <ele>1084.4</ele>
        <time>2022-09-16T13:45:30Z</time>
      </trkpt>
      <trkpt lat="41.789015" lon="9.237175">
        <ele>1083.6</ele>
        <time>2022-09-16T13:45:36Z</time>
      </trkpt>
      <trkpt lat="41.7891" lon="9.237213">
        <ele>1082.6</ele>
        <time>2022-09-16T13:45:41Z</time>
      </trkpt>
      <trkpt lat="41.789187" lon="9.237278">
        <ele>1082.0</ele>
        <time>2022-09-16T13:45:47Z</time>
      </trkpt>
      <trkpt lat="41.78932" lon="9.237395">
        <ele>1080.8</ele>
        <time>2022-09-16T13:45:58Z</time>
      </trkpt>
      <trkpt lat="41.789362" lon="9.23744">
        <ele>1079.8</ele>
        <time>2022-09-16T13:46:03Z</time>
      </trkpt>
      <trkpt lat="41.789527" lon="9.237512">
        <ele>1077.2</ele>
        <time>2022-09-16T13:46:15Z</time>
      </trkpt>
      <trkpt lat="41.789607" lon="9.237502">
        <ele>1077.4</ele>
        <time>2022-09-16T13:46:23Z</time>
      </trkpt>
      <trkpt lat="41.789595" lon="9.237493">
        <ele>1076.8</ele>
        <time>2022-09-16T13:46:36Z</time>
      </trkpt>
      <trkpt lat="41.789555" lon="9.23753">
        <ele>1074.4</ele>
        <time>2022-09-16T13:46:51Z</time>
      </trkpt>
      <trkpt lat="41.789552" lon="9.237557">
        <ele>1071.2</ele>
        <time>2022-09-16T13:47:05Z</time>
      </trkpt>
      <trkpt lat="41.789537" lon="9.237555">
        <ele>1069.2</ele>
        <time>2022-09-16T13:47:18Z</time>
      </trkpt>
      <trkpt lat="41.789513" lon="9.23755">
        <ele>1065.0</ele>
        <time>2022-09-16T13:47:35Z</time>
      </trkpt>
      <trkpt lat="41.789512" lon="9.237555">
        <ele>1064.6</ele>
        <time>2022-09-16T13:47:39Z</time>
      </trkpt>
      <trkpt lat="41.789535" lon="9.237627">
        <ele>1062.4</ele>
        <time>2022-09-16T13:47:48Z</time>
      </trkpt>
      <trkpt lat="41.789583" lon="9.237697">
        <ele>1061.0</ele>
        <time>2022-09-16T13:47:56Z</time>
      </trkpt>
      <trkpt lat="41.789642" lon="9.237807">
        <ele>1060.4</ele>
        <time>2022-09-16T13:48:05Z</time>
      </trkpt>
      <trkpt lat="41.789742" lon="9.23797">
        <ele>1060.2</ele>
        <time>2022-09-16T13:48:17Z</time>
      </trkpt>
      <trkpt lat="41.789768" lon="9.238022">
        <ele>1060.0</ele>
        <time>2022-09-16T13:48:21Z</time>
      </trkpt>
      <trkpt lat="41.789768" lon="9.238033">
        <ele>1059.6</ele>
        <time>2022-09-16T13:48:22Z</time>
      </trkpt>
      <trkpt lat="41.789747" lon="9.238088">
        <ele>1059.4</ele>
        <time>2022-09-16T13:48:33Z</time>
      </trkpt>
      <trkpt lat="41.789763" lon="9.238163">
        <ele>1059.4</ele>
        <time>2022-09-16T13:48:46Z</time>
      </trkpt>
      <trkpt lat="41.78978" lon="9.238213">
        <ele>1058.2</ele>
        <time>2022-09-16T13:48:56Z</time>
      </trkpt>
      <trkpt lat="41.789797" lon="9.238283">
        <ele>1056.4</ele>
        <time>2022-09-16T13:49:07Z</time>
      </trkpt>
      <trkpt lat="41.7898" lon="9.238322">
        <ele>1056.0</ele>
        <time>2022-09-16T13:49:12Z</time>
      </trkpt>
      <trkpt lat="41.789827" lon="9.23837">
        <ele>1055.6</ele>
        <time>2022-09-16T13:49:17Z</time>
      </trkpt>
      <trkpt lat="41.789865" lon="9.238385">
        <ele>1054.8</ele>
        <time>2022-09-16T13:49:22Z</time>
      </trkpt>
      <trkpt lat="41.78997" lon="9.238322">
        <ele>1054.6</ele>
        <time>2022-09-16T13:49:38Z</time>
      </trkpt>
      <trkpt lat="41.789998" lon="9.238343">
        <ele>1054.6</ele>
        <time>2022-09-16T13:49:42Z</time>
      </trkpt>
      <trkpt lat="41.79003" lon="9.238375">
        <ele>1054.6</ele>
        <time>2022-09-16T13:49:59Z</time>
      </trkpt>
      <trkpt lat="41.790028" lon="9.238375">
        <ele>1054.6</ele>
        <time>2022-09-16T13:50:00Z</time>
      </trkpt>
      <trkpt lat="41.789997" lon="9.238393">
        <ele>1054.2</ele>
        <time>2022-09-16T13:50:12Z</time>
      </trkpt>
      <trkpt lat="41.789967" lon="9.238442">
        <ele>1054.0</ele>
        <time>2022-09-16T13:50:26Z</time>
      </trkpt>
      <trkpt lat="41.789942" lon="9.238502">
        <ele>1054.0</ele>
        <time>2022-09-16T13:51:01Z</time>
      </trkpt>
      <trkpt lat="41.789615" lon="9.238965">
        <ele>1054.4</ele>
        <time>2022-09-16T13:54:46Z</time>
      </trkpt>
      <trkpt lat="41.789747" lon="9.238457">
        <ele>1053.4</ele>
        <time>2022-09-16T13:56:43Z</time>
      </trkpt>
      <trkpt lat="41.789798" lon="9.238493">
        <ele>1052.4</ele>
        <time>2022-09-16T13:56:58Z</time>
      </trkpt>
      <trkpt lat="41.789815" lon="9.238542">
        <ele>1052.0</ele>
        <time>2022-09-16T13:57:06Z</time>
      </trkpt>
      <trkpt lat="41.789807" lon="9.238578">
        <ele>1052.4</ele>
        <time>2022-09-16T13:57:16Z</time>
      </trkpt>
      <trkpt lat="41.789805" lon="9.238585">
        <ele>1052.4</ele>
        <time>2022-09-16T13:57:17Z</time>
      </trkpt>
      <trkpt lat="41.789725" lon="9.238595">
        <ele>1052.4</ele>
        <time>2022-09-16T13:57:26Z</time>
      </trkpt>
      <trkpt lat="41.789643" lon="9.23859">
        <ele>1052.0</ele>
        <time>2022-09-16T13:57:35Z</time>
      </trkpt>
      <trkpt lat="41.789575" lon="9.238572">
        <ele>1049.2</ele>
        <time>2022-09-16T13:57:44Z</time>
      </trkpt>
      <trkpt lat="41.789517" lon="9.238558">
        <ele>1047.6</ele>
        <time>2022-09-16T13:57:50Z</time>
      </trkpt>
      <trkpt lat="41.789472" lon="9.23852">
        <ele>1045.6</ele>
        <time>2022-09-16T13:57:55Z</time>
      </trkpt>
      <trkpt lat="41.78944" lon="9.238542">
        <ele>1045.2</ele>
        <time>2022-09-16T13:57:59Z</time>
      </trkpt>
      <trkpt lat="41.789382" lon="9.238607">
        <ele>1044.4</ele>
        <time>2022-09-16T13:58:08Z</time>
      </trkpt>
      <trkpt lat="41.789365" lon="9.238675">
        <ele>1044.0</ele>
        <time>2022-09-16T13:58:16Z</time>
      </trkpt>
      <trkpt lat="41.789315" lon="9.238748">
        <ele>1043.8</ele>
        <time>2022-09-16T13:58:28Z</time>
      </trkpt>
      <trkpt lat="41.789288" lon="9.238807">
        <ele>1041.2</ele>
        <time>2022-09-16T13:58:38Z</time>
      </trkpt>
      <trkpt lat="41.78929" lon="9.23888">
        <ele>1037.2</ele>
        <time>2022-09-16T13:58:52Z</time>
      </trkpt>
      <trkpt lat="41.789292" lon="9.238905">
        <ele>1036.6</ele>
        <time>2022-09-16T13:58:57Z</time>
      </trkpt>
      <trkpt lat="41.78927" lon="9.238908">
        <ele>1035.6</ele>
        <time>2022-09-16T13:59:04Z</time>
      </trkpt>
      <trkpt lat="41.789225" lon="9.23889">
        <ele>1034.6</ele>
        <time>2022-09-16T13:59:13Z</time>
      </trkpt>
      <trkpt lat="41.789185" lon="9.238878">
        <ele>1033.8</ele>
        <time>2022-09-16T13:59:20Z</time>
      </trkpt>
      <trkpt lat="41.789115" lon="9.238807">
        <ele>1031.6</ele>
        <time>2022-09-16T13:59:31Z</time>
      </trkpt>
      <trkpt lat="41.789115" lon="9.238793">
        <ele>1031.6</ele>
        <time>2022-09-16T13:59:32Z</time>
      </trkpt>
      <trkpt lat="41.788762" lon="9.238538">
        <ele>1030.8</ele>
        <time>2022-09-16T14:00:02Z</time>
      </trkpt>
      <trkpt lat="41.788695" lon="9.238508">
        <ele>1030.2</ele>
        <time>2022-09-16T14:00:07Z</time>
      </trkpt>
      <trkpt lat="41.788652" lon="9.23848">
        <ele>1029.2</ele>
        <time>2022-09-16T14:00:12Z</time>
      </trkpt>
      <trkpt lat="41.788563" lon="9.238473">
        <ele>1029.2</ele>
        <time>2022-09-16T14:00:20Z</time>
      </trkpt>
      <trkpt lat="41.788478" lon="9.238613">
        <ele>1030.0</ele>
        <time>2022-09-16T14:00:34Z</time>
      </trkpt>
      <trkpt lat="41.788403" lon="9.238723">
        <ele>1027.8</ele>
        <time>2022-09-16T14:00:45Z</time>
      </trkpt>
      <trkpt lat="41.78828" lon="9.238897">
        <ele>1026.4</ele>
        <time>2022-09-16T14:01:01Z</time>
      </trkpt>
      <trkpt lat="41.788212" lon="9.238902">
        <ele>1025.0</ele>
        <time>2022-09-16T14:01:06Z</time>
      </trkpt>
      <trkpt lat="41.788108" lon="9.238903">
        <ele>1024.0</ele>
        <time>2022-09-16T14:01:14Z</time>
      </trkpt>
      <trkpt lat="41.788038" lon="9.238915">
        <ele>1023.0</ele>
        <time>2022-09-16T14:01:20Z</time>
      </trkpt>
      <trkpt lat="41.78798" lon="9.238915">
        <ele>1022.2</ele>
        <time>2022-09-16T14:01:26Z</time>
      </trkpt>
      <trkpt lat="41.787972" lon="9.238923">
        <ele>1022.2</ele>
        <time>2022-09-16T14:01:27Z</time>
      </trkpt>
      <trkpt lat="41.78796" lon="9.239003">
        <ele>1022.4</ele>
        <time>2022-09-16T14:01:34Z</time>
      </trkpt>
      <trkpt lat="41.787958" lon="9.239045">
        <ele>1022.0</ele>
        <time>2022-09-16T14:01:37Z</time>
      </trkpt>
      <trkpt lat="41.788002" lon="9.239075">
        <ele>1022.2</ele>
        <time>2022-09-16T14:01:42Z</time>
      </trkpt>
      <trkpt lat="41.78811" lon="9.23913">
        <ele>1023.2</ele>
        <time>2022-09-16T14:01:56Z</time>
      </trkpt>
      <trkpt lat="41.788168" lon="9.239132">
        <ele>1022.8</ele>
        <time>2022-09-16T14:02:03Z</time>
      </trkpt>
      <trkpt lat="41.788218" lon="9.239118">
        <ele>1022.6</ele>
        <time>2022-09-16T14:02:09Z</time>
      </trkpt>
      <trkpt lat="41.78835" lon="9.239187">
        <ele>1023.4</ele>
        <time>2022-09-16T14:02:26Z</time>
      </trkpt>
      <trkpt lat="41.788483" lon="9.239275">
        <ele>1024.2</ele>
        <time>2022-09-16T14:02:52Z</time>
      </trkpt>
      <trkpt lat="41.788512" lon="9.239318">
        <ele>1024.4</ele>
        <time>2022-09-16T14:03:03Z</time>
      </trkpt>
      <trkpt lat="41.788537" lon="9.23939">
        <ele>1025.4</ele>
        <time>2022-09-16T14:03:20Z</time>
      </trkpt>
      <trkpt lat="41.788665" lon="9.239517">
        <ele>1025.4</ele>
        <time>2022-09-16T14:03:32Z</time>
      </trkpt>
      <trkpt lat="41.788748" lon="9.239668">
        <ele>1026.0</ele>
        <time>2022-09-16T14:03:40Z</time>
      </trkpt>
      <trkpt lat="41.788845" lon="9.239895">
        <ele>1026.2</ele>
        <time>2022-09-16T14:03:51Z</time>
      </trkpt>
      <trkpt lat="41.788943" lon="9.240093">
        <ele>1026.0</ele>
        <time>2022-09-16T14:04:01Z</time>
      </trkpt>
      <trkpt lat="41.78896" lon="9.240218">
        <ele>1025.4</ele>
        <time>2022-09-16T14:04:09Z</time>
      </trkpt>
      <trkpt lat="41.788912" lon="9.24027">
        <ele>1025.2</ele>
        <time>2022-09-16T14:04:14Z</time>
      </trkpt>
      <trkpt lat="41.788902" lon="9.240425">
        <ele>1024.0</ele>
        <time>2022-09-16T14:04:24Z</time>
      </trkpt>
      <trkpt lat="41.788913" lon="9.240575">
        <ele>1022.0</ele>
        <time>2022-09-16T14:04:34Z</time>
      </trkpt>
      <trkpt lat="41.788935" lon="9.240695">
        <ele>1019.6</ele>
        <time>2022-09-16T14:04:44Z</time>
      </trkpt>
      <trkpt lat="41.788945" lon="9.24075">
        <ele>1019.4</ele>
        <time>2022-09-16T14:04:49Z</time>
      </trkpt>
      <trkpt lat="41.788997" lon="9.240882">
        <ele>1019.8</ele>
        <time>2022-09-16T14:05:02Z</time>
      </trkpt>
      <trkpt lat="41.789065" lon="9.241007">
        <ele>1021.0</ele>
        <time>2022-09-16T14:05:16Z</time>
      </trkpt>
      <trkpt lat="41.789117" lon="9.241073">
        <ele>1021.2</ele>
        <time>2022-09-16T14:05:25Z</time>
      </trkpt>
      <trkpt lat="41.789142" lon="9.240983">
        <ele>1021.0</ele>
        <time>2022-09-16T14:05:33Z</time>
      </trkpt>
      <trkpt lat="41.789147" lon="9.240933">
        <ele>1021.0</ele>
        <time>2022-09-16T14:05:37Z</time>
      </trkpt>
      <trkpt lat="41.789117" lon="9.240917">
        <ele>1021.0</ele>
        <time>2022-09-16T14:05:40Z</time>
      </trkpt>
      <trkpt lat="41.788978" lon="9.240907">
        <ele>1022.2</ele>
        <time>2022-09-16T14:05:54Z</time>
      </trkpt>
      <trkpt lat="41.788953" lon="9.240918">
        <ele>1022.0</ele>
        <time>2022-09-16T14:05:59Z</time>
      </trkpt>
      <trkpt lat="41.788815" lon="9.240882">
        <ele>1020.4</ele>
        <time>2022-09-16T14:06:22Z</time>
      </trkpt>
      <trkpt lat="41.78879" lon="9.240868">
        <ele>1020.6</ele>
        <time>2022-09-16T14:06:26Z</time>
      </trkpt>
      <trkpt lat="41.788758" lon="9.240807">
        <ele>1022.4</ele>
        <time>2022-09-16T14:06:35Z</time>
      </trkpt>
      <trkpt lat="41.788715" lon="9.240703">
        <ele>1023.0</ele>
        <time>2022-09-16T14:06:55Z</time>
      </trkpt>
      <trkpt lat="41.788703" lon="9.240688">
        <ele>1022.8</ele>
        <time>2022-09-16T14:07:00Z</time>
      </trkpt>
      <trkpt lat="41.78868" lon="9.240703">
        <ele>1023.4</ele>
        <time>2022-09-16T14:07:13Z</time>
      </trkpt>
      <trkpt lat="41.78874" lon="9.2407">
        <ele>1027.2</ele>
        <time>2022-09-16T14:07:28Z</time>
      </trkpt>
      <trkpt lat="41.788817" lon="9.240648">
        <ele>1029.2</ele>
        <time>2022-09-16T14:07:46Z</time>
      </trkpt>
      <trkpt lat="41.788855" lon="9.240618">
        <ele>1029.6</ele>
        <time>2022-09-16T14:07:54Z</time>
      </trkpt>
      <trkpt lat="41.78882" lon="9.24064">
        <ele>1029.6</ele>
        <time>2022-09-16T14:07:57Z</time>
      </trkpt>
      <trkpt lat="41.788745" lon="9.2407">
        <ele>1029.8</ele>
        <time>2022-09-16T14:08:05Z</time>
      </trkpt>
      <trkpt lat="41.788672" lon="9.240828">
        <ele>1028.8</ele>
        <time>2022-09-16T14:08:13Z</time>
      </trkpt>
      <trkpt lat="41.788615" lon="9.241007">
        <ele>1028.2</ele>
        <time>2022-09-16T14:08:21Z</time>
      </trkpt>
      <trkpt lat="41.788595" lon="9.241148">
        <ele>1028.2</ele>
        <time>2022-09-16T14:08:27Z</time>
      </trkpt>
      <trkpt lat="41.788702" lon="9.241125">
        <ele>1031.6</ele>
        <time>2022-09-16T14:08:45Z</time>
      </trkpt>
      <trkpt lat="41.788722" lon="9.24115">
        <ele>1033.4</ele>
        <time>2022-09-16T14:08:53Z</time>
      </trkpt>
      <trkpt lat="41.788758" lon="9.241117">
        <ele>1036.0</ele>
        <time>2022-09-16T14:09:03Z</time>
      </trkpt>
      <trkpt lat="41.788762" lon="9.241112">
        <ele>1036.4</ele>
        <time>2022-09-16T14:09:04Z</time>
      </trkpt>
      <trkpt lat="41.788707" lon="9.241152">
        <ele>1038.2</ele>
        <time>2022-09-16T14:09:23Z</time>
      </trkpt>
      <trkpt lat="41.788643" lon="9.24136">
        <ele>1048.4</ele>
        <time>2022-09-16T14:10:18Z</time>
      </trkpt>
      <trkpt lat="41.78867" lon="9.241445">
        <ele>1051.2</ele>
        <time>2022-09-16T14:10:51Z</time>
      </trkpt>
      <trkpt lat="41.788678" lon="9.241453">
        <ele>1050.8</ele>
        <time>2022-09-16T14:10:52Z</time>
      </trkpt>
      <trkpt lat="41.7887" lon="9.241587">
        <ele>1050.8</ele>
        <time>2022-09-16T14:10:56Z</time>
      </trkpt>
      <trkpt lat="41.788878" lon="9.241958">
        <ele>1050.8</ele>
        <time>2022-09-16T14:11:06Z</time>
      </trkpt>
      <trkpt lat="41.788945" lon="9.242115">
        <ele>1051.0</ele>
        <time>2022-09-16T14:11:10Z</time>
      </trkpt>
      <trkpt lat="41.78902" lon="9.242255">
        <ele>1052.2</ele>
        <time>2022-09-16T14:11:15Z</time>
      </trkpt>
      <trkpt lat="41.78909" lon="9.242368">
        <ele>1052.8</ele>
        <time>2022-09-16T14:11:19Z</time>
      </trkpt>
      <trkpt lat="41.789163" lon="9.242495">
        <ele>1054.4</ele>
        <time>2022-09-16T14:11:24Z</time>
      </trkpt>
      <trkpt lat="41.789217" lon="9.242702">
        <ele>1054.6</ele>
        <time>2022-09-16T14:11:31Z</time>
      </trkpt>
      <trkpt lat="41.78925" lon="9.242768">
        <ele>1054.4</ele>
        <time>2022-09-16T14:11:34Z</time>
      </trkpt>
      <trkpt lat="41.789178" lon="9.242795">
        <ele>1053.6</ele>
        <time>2022-09-16T14:11:48Z</time>
      </trkpt>
      <trkpt lat="41.789125" lon="9.242782">
        <ele>1056.0</ele>
        <time>2022-09-16T14:11:56Z</time>
      </trkpt>
      <trkpt lat="41.7891" lon="9.242762">
        <ele>1059.4</ele>
        <time>2022-09-16T14:12:08Z</time>
      </trkpt>
      <trkpt lat="41.7891" lon="9.242747">
        <ele>1063.2</ele>
        <time>2022-09-16T14:12:16Z</time>
      </trkpt>
      <trkpt lat="41.789102" lon="9.24274">
        <ele>1064.2</ele>
        <time>2022-09-16T14:12:18Z</time>
      </trkpt>
      <trkpt lat="41.789045" lon="9.242845">
        <ele>1066.8</ele>
        <time>2022-09-16T14:12:31Z</time>
      </trkpt>
      <trkpt lat="41.789038" lon="9.2429">
        <ele>1066.6</ele>
        <time>2022-09-16T14:12:37Z</time>
      </trkpt>
      <trkpt lat="41.788953" lon="9.24291">
        <ele>1065.0</ele>
        <time>2022-09-16T14:12:49Z</time>
      </trkpt>
      <trkpt lat="41.78893" lon="9.242953">
        <ele>1064.4</ele>
        <time>2022-09-16T14:12:56Z</time>
      </trkpt>
      <trkpt lat="41.788957" lon="9.243097">
        <ele>1067.4</ele>
        <time>2022-09-16T14:13:21Z</time>
      </trkpt>
      <trkpt lat="41.789067" lon="9.243167">
        <ele>1079.2</ele>
        <time>2022-09-16T14:14:30Z</time>
      </trkpt>
      <trkpt lat="41.789135" lon="9.243225">
        <ele>1083.8</ele>
        <time>2022-09-16T14:14:44Z</time>
      </trkpt>
      <trkpt lat="41.789218" lon="9.243238">
        <ele>1084.6</ele>
        <time>2022-09-16T14:14:49Z</time>
      </trkpt>
      <trkpt lat="41.789303" lon="9.243245">
        <ele>1085.2</ele>
        <time>2022-09-16T14:14:53Z</time>
      </trkpt>
      <trkpt lat="41.78947" lon="9.243252">
        <ele>1085.2</ele>
        <time>2022-09-16T14:15:01Z</time>
      </trkpt>
      <trkpt lat="41.789487" lon="9.243265">
        <ele>1085.2</ele>
        <time>2022-09-16T14:15:03Z</time>
      </trkpt>
      <trkpt lat="41.789477" lon="9.243322">
        <ele>1085.2</ele>
        <time>2022-09-16T14:15:06Z</time>
      </trkpt>
      <trkpt lat="41.789452" lon="9.243445">
        <ele>1084.6</ele>
        <time>2022-09-16T14:15:12Z</time>
      </trkpt>
      <trkpt lat="41.789455" lon="9.243468">
        <ele>1084.6</ele>
        <time>2022-09-16T14:15:13Z</time>
      </trkpt>
      <trkpt lat="41.789467" lon="9.243457">
        <ele>1084.6</ele>
        <time>2022-09-16T14:15:14Z</time>
      </trkpt>
      <trkpt lat="41.789465" lon="9.243427">
        <ele>1084.6</ele>
        <time>2022-09-16T14:15:16Z</time>
      </trkpt>
      <trkpt lat="41.789447" lon="9.243415">
        <ele>1085.0</ele>
        <time>2022-09-16T14:15:18Z</time>
      </trkpt>
      <trkpt lat="41.78943" lon="9.243417">
        <ele>1085.0</ele>
        <time>2022-09-16T14:15:20Z</time>
      </trkpt>
      <trkpt lat="41.789393" lon="9.243442">
        <ele>1085.4</ele>
        <time>2022-09-16T14:15:25Z</time>
      </trkpt>
      <trkpt lat="41.789368" lon="9.243507">
        <ele>1088.0</ele>
        <time>2022-09-16T14:15:32Z</time>
      </trkpt>
      <trkpt lat="41.789327" lon="9.243545">
        <ele>1088.4</ele>
        <time>2022-09-16T14:15:48Z</time>
      </trkpt>
      <trkpt lat="41.789303" lon="9.243565">
        <ele>1089.0</ele>
        <time>2022-09-16T14:15:59Z</time>
      </trkpt>
      <trkpt lat="41.789285" lon="9.243615">
        <ele>1091.0</ele>
        <time>2022-09-16T14:16:31Z</time>
      </trkpt>
      <trkpt lat="41.789288" lon="9.243618">
        <ele>1091.8</ele>
        <time>2022-09-16T14:16:32Z</time>
      </trkpt>
      <trkpt lat="41.789475" lon="9.243758">
        <ele>1100.8</ele>
        <time>2022-09-16T14:17:34Z</time>
      </trkpt>
      <trkpt lat="41.789482" lon="9.243735">
        <ele>1102.4</ele>
        <time>2022-09-16T14:17:50Z</time>
      </trkpt>
      <trkpt lat="41.789577" lon="9.244145">
        <ele>1101.2</ele>
        <time>2022-09-16T14:18:00Z</time>
      </trkpt>
      <trkpt lat="41.789587" lon="9.244267">
        <ele>1101.0</ele>
        <time>2022-09-16T14:18:10Z</time>
      </trkpt>
      <trkpt lat="41.789605" lon="9.244322">
        <ele>1101.6</ele>
        <time>2022-09-16T14:18:14Z</time>
      </trkpt>
      <trkpt lat="41.789628" lon="9.244355">
        <ele>1103.0</ele>
        <time>2022-09-16T14:18:19Z</time>
      </trkpt>
      <trkpt lat="41.78967" lon="9.244407">
        <ele>1104.2</ele>
        <time>2022-09-16T14:18:28Z</time>
      </trkpt>
      <trkpt lat="41.78973" lon="9.244527">
        <ele>1107.0</ele>
        <time>2022-09-16T14:18:46Z</time>
      </trkpt>
      <trkpt lat="41.789772" lon="9.244572">
        <ele>1104.0</ele>
        <time>2022-09-16T14:18:57Z</time>
      </trkpt>
      <trkpt lat="41.789797" lon="9.244592">
        <ele>1102.4</ele>
        <time>2022-09-16T14:19:04Z</time>
      </trkpt>
      <trkpt lat="41.789832" lon="9.244605">
        <ele>1100.2</ele>
        <time>2022-09-16T14:19:13Z</time>
      </trkpt>
      <trkpt lat="41.789845" lon="9.244613">
        <ele>1100.0</ele>
        <time>2022-09-16T14:19:18Z</time>
      </trkpt>
      <trkpt lat="41.789845" lon="9.244958">
        <ele>1102.4</ele>
        <time>2022-09-16T14:19:32Z</time>
      </trkpt>
      <trkpt lat="41.789962" lon="9.245113">
        <ele>1103.0</ele>
        <time>2022-09-16T14:19:43Z</time>
      </trkpt>
      <trkpt lat="41.790155" lon="9.245252">
        <ele>1103.6</ele>
        <time>2022-09-16T14:19:54Z</time>
      </trkpt>
      <trkpt lat="41.790185" lon="9.2453">
        <ele>1103.6</ele>
        <time>2022-09-16T14:19:54Z</time>
      </trkpt>
      <trkpt lat="41.790237" lon="9.245385">
        <ele>1103.4</ele>
        <time>2022-09-16T14:20:04Z</time>
      </trkpt>
      <trkpt lat="41.790308" lon="9.245582">
        <ele>1104.0</ele>
        <time>2022-09-16T14:20:21Z</time>
      </trkpt>
      <trkpt lat="41.79037" lon="9.245627">
        <ele>1105.0</ele>
        <time>2022-09-16T14:20:29Z</time>
      </trkpt>
      <trkpt lat="41.790445" lon="9.245673">
        <ele>1107.2</ele>
        <time>2022-09-16T14:20:41Z</time>
      </trkpt>
      <trkpt lat="41.790385" lon="9.24569">
        <ele>1108.6</ele>
        <time>2022-09-16T14:20:48Z</time>
      </trkpt>
      <trkpt lat="41.790302" lon="9.245745">
        <ele>1112.2</ele>
        <time>2022-09-16T14:21:00Z</time>
      </trkpt>
      <trkpt lat="41.790273" lon="9.245818">
        <ele>1113.8</ele>
        <time>2022-09-16T14:21:10Z</time>
      </trkpt>
      <trkpt lat="41.790242" lon="9.245785">
        <ele>1114.4</ele>
        <time>2022-09-16T14:21:15Z</time>
      </trkpt>
      <trkpt lat="41.79022" lon="9.245725">
        <ele>1115.2</ele>
        <time>2022-09-16T14:21:21Z</time>
      </trkpt>
      <trkpt lat="41.790198" lon="9.245725">
        <ele>1115.6</ele>
        <time>2022-09-16T14:21:22Z</time>
      </trkpt>
      <trkpt lat="41.790218" lon="9.24577">
        <ele>1116.2</ele>
        <time>2022-09-16T14:21:29Z</time>
      </trkpt>
      <trkpt lat="41.790252" lon="9.245838">
        <ele>1116.6</ele>
        <time>2022-09-16T14:21:37Z</time>
      </trkpt>
      <trkpt lat="41.790262" lon="9.245922">
        <ele>1116.6</ele>
        <time>2022-09-16T14:21:45Z</time>
      </trkpt>
      <trkpt lat="41.790283" lon="9.245947">
        <ele>1116.4</ele>
        <time>2022-09-16T14:21:49Z</time>
      </trkpt>
      <trkpt lat="41.790348" lon="9.245992">
        <ele>1114.8</ele>
        <time>2022-09-16T14:21:59Z</time>
      </trkpt>
      <trkpt lat="41.790348" lon="9.246002">
        <ele>1115.2</ele>
        <time>2022-09-16T14:22:01Z</time>
      </trkpt>
      <trkpt lat="41.790345" lon="9.24606">
        <ele>1117.4</ele>
        <time>2022-09-16T14:22:08Z</time>
      </trkpt>
      <trkpt lat="41.790327" lon="9.246135">
        <ele>1121.8</ele>
        <time>2022-09-16T14:22:19Z</time>
      </trkpt>
      <trkpt lat="41.79034" lon="9.24617">
        <ele>1123.6</ele>
        <time>2022-09-16T14:22:26Z</time>
      </trkpt>
      <trkpt lat="41.790357" lon="9.246205">
        <ele>1124.6</ele>
        <time>2022-09-16T14:22:34Z</time>
      </trkpt>
      <trkpt lat="41.790362" lon="9.246242">
        <ele>1124.8</ele>
        <time>2022-09-16T14:22:42Z</time>
      </trkpt>
      <trkpt lat="41.790395" lon="9.246273">
        <ele>1123.4</ele>
        <time>2022-09-16T14:23:00Z</time>
      </trkpt>
      <trkpt lat="41.790395" lon="9.246278">
        <ele>1123.4</ele>
        <time>2022-09-16T14:23:01Z</time>
      </trkpt>
      <trkpt lat="41.790468" lon="9.246375">
        <ele>1123.8</ele>
        <time>2022-09-16T14:23:32Z</time>
      </trkpt>
      <trkpt lat="41.79057" lon="9.246423">
        <ele>1125.6</ele>
        <time>2022-09-16T14:24:03Z</time>
      </trkpt>
      <trkpt lat="41.790608" lon="9.246477">
        <ele>1134.2</ele>
        <time>2022-09-16T14:24:31Z</time>
      </trkpt>
      <trkpt lat="41.790808" lon="9.246782">
        <ele>1133.2</ele>
        <time>2022-09-16T14:24:41Z</time>
      </trkpt>
      <trkpt lat="41.791025" lon="9.247093">
        <ele>1135.0</ele>
        <time>2022-09-16T14:24:51Z</time>
      </trkpt>
      <trkpt lat="41.791115" lon="9.247047">
        <ele>1138.8</ele>
        <time>2022-09-16T14:25:01Z</time>
      </trkpt>
      <trkpt lat="41.791265" lon="9.247097">
        <ele>1140.4</ele>
        <time>2022-09-16T14:25:11Z</time>
      </trkpt>
      <trkpt lat="41.791303" lon="9.247173">
        <ele>1140.4</ele>
        <time>2022-09-16T14:25:15Z</time>
      </trkpt>
      <trkpt lat="41.79136" lon="9.247287">
        <ele>1140.0</ele>
        <time>2022-09-16T14:25:28Z</time>
      </trkpt>
      <trkpt lat="41.791393" lon="9.24736">
        <ele>1142.6</ele>
        <time>2022-09-16T14:25:39Z</time>
      </trkpt>
      <trkpt lat="41.79142" lon="9.24744">
        <ele>1147.2</ele>
        <time>2022-09-16T14:25:59Z</time>
      </trkpt>
      <trkpt lat="41.791445" lon="9.247512">
        <ele>1148.2</ele>
        <time>2022-09-16T14:26:07Z</time>
      </trkpt>
      <trkpt lat="41.791525" lon="9.247622">
        <ele>1149.2</ele>
        <time>2022-09-16T14:26:18Z</time>
      </trkpt>
      <trkpt lat="41.791555" lon="9.24765">
        <ele>1149.2</ele>
        <time>2022-09-16T14:26:21Z</time>
      </trkpt>
      <trkpt lat="41.791562" lon="9.247742">
        <ele>1149.4</ele>
        <time>2022-09-16T14:26:26Z</time>
      </trkpt>
      <trkpt lat="41.791572" lon="9.247932">
        <ele>1154.4</ele>
        <time>2022-09-16T14:26:48Z</time>
      </trkpt>
      <trkpt lat="41.791537" lon="9.247927">
        <ele>1157.0</ele>
        <time>2022-09-16T14:27:00Z</time>
      </trkpt>
      <trkpt lat="41.791542" lon="9.247952">
        <ele>1156.2</ele>
        <time>2022-09-16T14:27:05Z</time>
      </trkpt>
      <trkpt lat="41.791522" lon="9.247983">
        <ele>1156.6</ele>
        <time>2022-09-16T14:27:08Z</time>
      </trkpt>
      <trkpt lat="41.791495" lon="9.248002">
        <ele>1157.2</ele>
        <time>2022-09-16T14:27:11Z</time>
      </trkpt>
      <trkpt lat="41.791448" lon="9.248">
        <ele>1158.8</ele>
        <time>2022-09-16T14:27:16Z</time>
      </trkpt>
      <trkpt lat="41.791353" lon="9.247982">
        <ele>1159.6</ele>
        <time>2022-09-16T14:27:27Z</time>
      </trkpt>
      <trkpt lat="41.79128" lon="9.247972">
        <ele>1160.6</ele>
        <time>2022-09-16T14:27:38Z</time>
      </trkpt>
      <trkpt lat="41.791235" lon="9.247963">
        <ele>1161.2</ele>
        <time>2022-09-16T14:27:47Z</time>
      </trkpt>
      <trkpt lat="41.79123" lon="9.247963">
        <ele>1161.2</ele>
        <time>2022-09-16T14:27:48Z</time>
      </trkpt>
      <trkpt lat="41.791255" lon="9.247928">
        <ele>1161.8</ele>
        <time>2022-09-16T14:27:55Z</time>
      </trkpt>
      <trkpt lat="41.791262" lon="9.247882">
        <ele>1162.8</ele>
        <time>2022-09-16T14:28:03Z</time>
      </trkpt>
      <trkpt lat="41.791247" lon="9.247872">
        <ele>1162.4</ele>
        <time>2022-09-16T14:28:13Z</time>
      </trkpt>
      <trkpt lat="41.791227" lon="9.247892">
        <ele>1164.8</ele>
        <time>2022-09-16T14:28:24Z</time>
      </trkpt>
      <trkpt lat="41.791233" lon="9.247847">
        <ele>1165.0</ele>
        <time>2022-09-16T14:28:37Z</time>
      </trkpt>
      <trkpt lat="41.791197" lon="9.247898">
        <ele>1177.2</ele>
        <time>2022-09-16T14:29:04Z</time>
      </trkpt>
      <trkpt lat="41.791052" lon="9.24813">
        <ele>1197.0</ele>
        <time>2022-09-16T14:31:11Z</time>
      </trkpt>
      <trkpt lat="41.791018" lon="9.24814">
        <ele>1202.0</ele>
        <time>2022-09-16T14:31:30Z</time>
      </trkpt>
      <trkpt lat="41.790942" lon="9.24814">
        <ele>1202.2</ele>
        <time>2022-09-16T14:31:44Z</time>
      </trkpt>
      <trkpt lat="41.79088" lon="9.248165">
        <ele>1205.6</ele>
        <time>2022-09-16T14:31:56Z</time>
      </trkpt>
      <trkpt lat="41.790883" lon="9.248178">
        <ele>1203.2</ele>
        <time>2022-09-16T14:31:57Z</time>
      </trkpt>
      <trkpt lat="41.790893" lon="9.248242">
        <ele>1206.2</ele>
        <time>2022-09-16T14:32:04Z</time>
      </trkpt>
      <trkpt lat="41.79091" lon="9.248327">
        <ele>1207.2</ele>
        <time>2022-09-16T14:32:13Z</time>
      </trkpt>
      <trkpt lat="41.790927" lon="9.248422">
        <ele>1211.2</ele>
        <time>2022-09-16T14:32:22Z</time>
      </trkpt>
      <trkpt lat="41.790943" lon="9.248455">
        <ele>1212.0</ele>
        <time>2022-09-16T14:32:27Z</time>
      </trkpt>
      <trkpt lat="41.79097" lon="9.248478">
        <ele>1211.8</ele>
        <time>2022-09-16T14:32:32Z</time>
      </trkpt>
      <trkpt lat="41.790968" lon="9.248537">
        <ele>1212.6</ele>
        <time>2022-09-16T14:33:05Z</time>
      </trkpt>
      <trkpt lat="41.790965" lon="9.248537">
        <ele>1212.6</ele>
        <time>2022-09-16T14:33:07Z</time>
      </trkpt>
      <trkpt lat="41.790897" lon="9.248528">
        <ele>1214.8</ele>
        <time>2022-09-16T14:33:36Z</time>
      </trkpt>
      <trkpt lat="41.790643" lon="9.248067">
        <ele>1199.8</ele>
        <time>2022-09-16T14:36:29Z</time>
      </trkpt>
      <trkpt lat="41.790622" lon="9.248097">
        <ele>1198.0</ele>
        <time>2022-09-16T14:36:37Z</time>
      </trkpt>
      <trkpt lat="41.790585" lon="9.248107">
        <ele>1195.4</ele>
        <time>2022-09-16T14:36:42Z</time>
      </trkpt>
      <trkpt lat="41.790523" lon="9.24814">
        <ele>1194.0</ele>
        <time>2022-09-16T14:36:51Z</time>
      </trkpt>
      <trkpt lat="41.79049" lon="9.24817">
        <ele>1193.0</ele>
        <time>2022-09-16T14:36:56Z</time>
      </trkpt>
      <trkpt lat="41.790465" lon="9.248217">
        <ele>1193.0</ele>
        <time>2022-09-16T14:37:01Z</time>
      </trkpt>
      <trkpt lat="41.790467" lon="9.248285">
        <ele>1192.6</ele>
        <time>2022-09-16T14:37:06Z</time>
      </trkpt>
      <trkpt lat="41.790468" lon="9.248293">
        <ele>1192.4</ele>
        <time>2022-09-16T14:37:07Z</time>
      </trkpt>
      <trkpt lat="41.790493" lon="9.248325">
        <ele>1191.0</ele>
        <time>2022-09-16T14:37:13Z</time>
      </trkpt>
      <trkpt lat="41.790572" lon="9.248377">
        <ele>1190.0</ele>
        <time>2022-09-16T14:37:28Z</time>
      </trkpt>
      <trkpt lat="41.790582" lon="9.248398">
        <ele>1188.4</ele>
        <time>2022-09-16T14:37:32Z</time>
      </trkpt>
      <trkpt lat="41.790552" lon="9.248407">
        <ele>1187.2</ele>
        <time>2022-09-16T14:37:38Z</time>
      </trkpt>
      <trkpt lat="41.790518" lon="9.248407">
        <ele>1187.4</ele>
        <time>2022-09-16T14:37:44Z</time>
      </trkpt>
      <trkpt lat="41.790498" lon="9.248427">
        <ele>1187.4</ele>
        <time>2022-09-16T14:37:51Z</time>
      </trkpt>
      <trkpt lat="41.790502" lon="9.248457">
        <ele>1185.8</ele>
        <time>2022-09-16T14:37:58Z</time>
      </trkpt>
      <trkpt lat="41.790558" lon="9.248465">
        <ele>1184.8</ele>
        <time>2022-09-16T14:38:17Z</time>
      </trkpt>
      <trkpt lat="41.790517" lon="9.248512">
        <ele>1185.0</ele>
        <time>2022-09-16T14:38:27Z</time>
      </trkpt>
      <trkpt lat="41.790482" lon="9.248498">
        <ele>1184.4</ele>
        <time>2022-09-16T14:38:34Z</time>
      </trkpt>
      <trkpt lat="41.790462" lon="9.248458">
        <ele>1182.6</ele>
        <time>2022-09-16T14:38:41Z</time>
      </trkpt>
      <trkpt lat="41.790418" lon="9.248468">
        <ele>1182.0</ele>
        <time>2022-09-16T14:38:48Z</time>
      </trkpt>
      <trkpt lat="41.79042" lon="9.24846">
        <ele>1182.0</ele>
        <time>2022-09-16T14:38:49Z</time>
      </trkpt>
      <trkpt lat="41.79039" lon="9.24842">
        <ele>1182.0</ele>
        <time>2022-09-16T14:38:54Z</time>
      </trkpt>
      <trkpt lat="41.790353" lon="9.24849">
        <ele>1179.6</ele>
        <time>2022-09-16T14:39:01Z</time>
      </trkpt>
      <trkpt lat="41.79031" lon="9.24849">
        <ele>1178.0</ele>
        <time>2022-09-16T14:39:06Z</time>
      </trkpt>
      <trkpt lat="41.790253" lon="9.248467">
        <ele>1176.8</ele>
        <time>2022-09-16T14:39:13Z</time>
      </trkpt>
      <trkpt lat="41.79025" lon="9.24852">
        <ele>1176.2</ele>
        <time>2022-09-16T14:39:18Z</time>
      </trkpt>
      <trkpt lat="41.790258" lon="9.248537">
        <ele>1176.2</ele>
        <time>2022-09-16T14:39:20Z</time>
      </trkpt>
      <trkpt lat="41.790263" lon="9.24859">
        <ele>1176.0</ele>
        <time>2022-09-16T14:39:25Z</time>
      </trkpt>
      <trkpt lat="41.790243" lon="9.24865">
        <ele>1174.4</ele>
        <time>2022-09-16T14:39:32Z</time>
      </trkpt>
      <trkpt lat="41.79022" lon="9.248687">
        <ele>1173.4</ele>
        <time>2022-09-16T14:39:37Z</time>
      </trkpt>
      <trkpt lat="41.790118" lon="9.248767">
        <ele>1170.4</ele>
        <time>2022-09-16T14:39:53Z</time>
      </trkpt>
      <trkpt lat="41.79011" lon="9.248775">
        <ele>1169.6</ele>
        <time>2022-09-16T14:39:54Z</time>
      </trkpt>
      <trkpt lat="41.790143" lon="9.248782">
        <ele>1169.0</ele>
        <time>2022-09-16T14:39:58Z</time>
      </trkpt>
      <trkpt lat="41.790173" lon="9.248773">
        <ele>1169.0</ele>
        <time>2022-09-16T14:40:01Z</time>
      </trkpt>
      <trkpt lat="41.7902" lon="9.248707">
        <ele>1169.0</ele>
        <time>2022-09-16T14:40:05Z</time>
      </trkpt>
      <trkpt lat="41.79027" lon="9.248492">
        <ele>1166.8</ele>
        <time>2022-09-16T14:40:18Z</time>
      </trkpt>
      <trkpt lat="41.79049" lon="9.248047">
        <ele>1162.2</ele>
        <time>2022-09-16T14:40:57Z</time>
      </trkpt>
      <trkpt lat="41.790288" lon="9.248525">
        <ele>1160.6</ele>
        <time>2022-09-16T14:42:06Z</time>
      </trkpt>
      <trkpt lat="41.79036" lon="9.248708">
        <ele>1159.2</ele>
        <time>2022-09-16T14:42:25Z</time>
      </trkpt>
      <trkpt lat="41.790362" lon="9.248725">
        <ele>1159.2</ele>
        <time>2022-09-16T14:42:26Z</time>
      </trkpt>
      <trkpt lat="41.790362" lon="9.248777">
        <ele>1158.6</ele>
        <time>2022-09-16T14:42:31Z</time>
      </trkpt>
      <trkpt lat="41.79031" lon="9.248853">
        <ele>1157.6</ele>
        <time>2022-09-16T14:42:40Z</time>
      </trkpt>
      <trkpt lat="41.790323" lon="9.248895">
        <ele>1156.2</ele>
        <time>2022-09-16T14:42:45Z</time>
      </trkpt>
      <trkpt lat="41.790362" lon="9.248932">
        <ele>1154.2</ele>
        <time>2022-09-16T14:42:54Z</time>
      </trkpt>
      <trkpt lat="41.790418" lon="9.248968">
        <ele>1152.2</ele>
        <time>2022-09-16T14:43:09Z</time>
      </trkpt>
      <trkpt lat="41.790415" lon="9.249047">
        <ele>1151.2</ele>
        <time>2022-09-16T14:43:19Z</time>
      </trkpt>
      <trkpt lat="41.790462" lon="9.24902">
        <ele>1149.6</ele>
        <time>2022-09-16T14:43:29Z</time>
      </trkpt>
      <trkpt lat="41.790467" lon="9.249023">
        <ele>1149.6</ele>
        <time>2022-09-16T14:43:30Z</time>
      </trkpt>
      <trkpt lat="41.790477" lon="9.249072">
        <ele>1148.4</ele>
        <time>2022-09-16T14:43:37Z</time>
      </trkpt>
      <trkpt lat="41.790518" lon="9.249118">
        <ele>1146.6</ele>
        <time>2022-09-16T14:43:44Z</time>
      </trkpt>
      <trkpt lat="41.790483" lon="9.249112">
        <ele>1144.8</ele>
        <time>2022-09-16T14:43:52Z</time>
      </trkpt>
      <trkpt lat="41.790432" lon="9.249082">
        <ele>1143.4</ele>
        <time>2022-09-16T14:44:05Z</time>
      </trkpt>
      <trkpt lat="41.790415" lon="9.249088">
        <ele>1143.4</ele>
        <time>2022-09-16T14:44:09Z</time>
      </trkpt>
      <trkpt lat="41.790362" lon="9.249097">
        <ele>1142.0</ele>
        <time>2022-09-16T14:44:20Z</time>
      </trkpt>
      <trkpt lat="41.790328" lon="9.2491">
        <ele>1141.2</ele>
        <time>2022-09-16T14:44:30Z</time>
      </trkpt>
      <trkpt lat="41.790245" lon="9.249255">
        <ele>1141.6</ele>
        <time>2022-09-16T14:45:44Z</time>
      </trkpt>
      <trkpt lat="41.790028" lon="9.24911">
        <ele>1137.4</ele>
        <time>2022-09-16T14:48:32Z</time>
      </trkpt>
      <trkpt lat="41.789968" lon="9.249207">
        <ele>1133.0</ele>
        <time>2022-09-16T14:48:56Z</time>
      </trkpt>
      <trkpt lat="41.789945" lon="9.249202">
        <ele>1132.0</ele>
        <time>2022-09-16T14:49:01Z</time>
      </trkpt>
      <trkpt lat="41.789927" lon="9.249172">
        <ele>1131.0</ele>
        <time>2022-09-16T14:49:05Z</time>
      </trkpt>
      <trkpt lat="41.789922" lon="9.249155">
        <ele>1130.8</ele>
        <time>2022-09-16T14:49:06Z</time>
      </trkpt>
      <trkpt lat="41.789922" lon="9.249127">
        <ele>1130.4</ele>
        <time>2022-09-16T14:49:09Z</time>
      </trkpt>
      <trkpt lat="41.7899" lon="9.24909">
        <ele>1129.6</ele>
        <time>2022-09-16T14:49:14Z</time>
      </trkpt>
      <trkpt lat="41.789843" lon="9.249062">
        <ele>1127.2</ele>
        <time>2022-09-16T14:49:26Z</time>
      </trkpt>
      <trkpt lat="41.789782" lon="9.248902">
        <ele>1120.2</ele>
        <time>2022-09-16T14:50:07Z</time>
      </trkpt>
      <trkpt lat="41.789757" lon="9.24889">
        <ele>1117.2</ele>
        <time>2022-09-16T14:50:19Z</time>
      </trkpt>
      <trkpt lat="41.789755" lon="9.248887">
        <ele>1117.0</ele>
        <time>2022-09-16T14:50:20Z</time>
      </trkpt>
      <trkpt lat="41.78972" lon="9.248862">
        <ele>1116.4</ele>
        <time>2022-09-16T14:50:27Z</time>
      </trkpt>
      <trkpt lat="41.789692" lon="9.248863">
        <ele>1115.6</ele>
        <time>2022-09-16T14:50:32Z</time>
      </trkpt>
      <trkpt lat="41.789673" lon="9.248885">
        <ele>1114.8</ele>
        <time>2022-09-16T14:50:36Z</time>
      </trkpt>
      <trkpt lat="41.789653" lon="9.248927">
        <ele>1113.6</ele>
        <time>2022-09-16T14:50:42Z</time>
      </trkpt>
      <trkpt lat="41.789608" lon="9.24893">
        <ele>1112.8</ele>
        <time>2022-09-16T14:50:47Z</time>
      </trkpt>
      <trkpt lat="41.789587" lon="9.248927">
        <ele>1112.8</ele>
        <time>2022-09-16T14:50:49Z</time>
      </trkpt>
      <trkpt lat="41.789475" lon="9.248845">
        <ele>1112.8</ele>
        <time>2022-09-16T14:51:00Z</time>
      </trkpt>
      <trkpt lat="41.789443" lon="9.248842">
        <ele>1112.6</ele>
        <time>2022-09-16T14:51:03Z</time>
      </trkpt>
      <trkpt lat="41.789403" lon="9.248853">
        <ele>1112.2</ele>
        <time>2022-09-16T14:51:05Z</time>
      </trkpt>
      <trkpt lat="41.78923" lon="9.248957">
        <ele>1111.4</ele>
        <time>2022-09-16T14:51:13Z</time>
      </trkpt>
      <trkpt lat="41.789155" lon="9.248992">
        <ele>1110.6</ele>
        <time>2022-09-16T14:51:16Z</time>
      </trkpt>
      <trkpt lat="41.789142" lon="9.249073">
        <ele>1109.4</ele>
        <time>2022-09-16T14:51:20Z</time>
      </trkpt>
      <trkpt lat="41.789143" lon="9.24913">
        <ele>1108.8</ele>
        <time>2022-09-16T14:51:22Z</time>
      </trkpt>
      <trkpt lat="41.789175" lon="9.249237">
        <ele>1107.6</ele>
        <time>2022-09-16T14:51:26Z</time>
      </trkpt>
      <trkpt lat="41.789323" lon="9.249392">
        <ele>1106.8</ele>
        <time>2022-09-16T14:51:34Z</time>
      </trkpt>
      <trkpt lat="41.7894" lon="9.249518">
        <ele>1105.8</ele>
        <time>2022-09-16T14:51:39Z</time>
      </trkpt>
      <trkpt lat="41.789423" lon="9.249572">
        <ele>1105.6</ele>
        <time>2022-09-16T14:51:41Z</time>
      </trkpt>
      <trkpt lat="41.789445" lon="9.249593">
        <ele>1105.6</ele>
        <time>2022-09-16T14:51:42Z</time>
      </trkpt>
      <trkpt lat="41.78947" lon="9.249688">
        <ele>1104.6</ele>
        <time>2022-09-16T14:51:48Z</time>
      </trkpt>
      <trkpt lat="41.789525" lon="9.249798">
        <ele>1103.2</ele>
        <time>2022-09-16T14:51:56Z</time>
      </trkpt>
      <trkpt lat="41.789547" lon="9.249878">
        <ele>1102.4</ele>
        <time>2022-09-16T14:52:03Z</time>
      </trkpt>
      <trkpt lat="41.789572" lon="9.249895">
        <ele>1102.4</ele>
        <time>2022-09-16T14:52:08Z</time>
      </trkpt>
      <trkpt lat="41.789625" lon="9.249917">
        <ele>1102.6</ele>
        <time>2022-09-16T14:52:14Z</time>
      </trkpt>
      <trkpt lat="41.789643" lon="9.249947">
        <ele>1102.4</ele>
        <time>2022-09-16T14:52:19Z</time>
      </trkpt>
      <trkpt lat="41.789668" lon="9.249967">
        <ele>1101.0</ele>
        <time>2022-09-16T14:52:26Z</time>
      </trkpt>
      <trkpt lat="41.789675" lon="9.249973">
        <ele>1100.2</ele>
        <time>2022-09-16T14:52:31Z</time>
      </trkpt>
      <trkpt lat="41.78968" lon="9.24997">
        <ele>1101.0</ele>
        <time>2022-09-16T14:52:39Z</time>
      </trkpt>
      <trkpt lat="41.789712" lon="9.249915">
        <ele>1102.2</ele>
        <time>2022-09-16T14:52:49Z</time>
      </trkpt>
      <trkpt lat="41.789737" lon="9.249847">
        <ele>1103.8</ele>
        <time>2022-09-16T14:52:59Z</time>
      </trkpt>
      <trkpt lat="41.789763" lon="9.249703">
        <ele>1108.0</ele>
        <time>2022-09-16T14:53:21Z</time>
      </trkpt>
      <trkpt lat="41.789815" lon="9.24965">
        <ele>1109.4</ele>
        <time>2022-09-16T14:53:30Z</time>
      </trkpt>
      <trkpt lat="41.789822" lon="9.249637">
        <ele>1109.4</ele>
        <time>2022-09-16T14:53:32Z</time>
      </trkpt>
      <trkpt lat="41.789868" lon="9.24957">
        <ele>1108.6</ele>
        <time>2022-09-16T14:53:39Z</time>
      </trkpt>
      <trkpt lat="41.789932" lon="9.249503">
        <ele>1108.0</ele>
        <time>2022-09-16T14:53:47Z</time>
      </trkpt>
      <trkpt lat="41.790068" lon="9.249348">
        <ele>1108.2</ele>
        <time>2022-09-16T14:54:03Z</time>
      </trkpt>
      <trkpt lat="41.790082" lon="9.249348">
        <ele>1108.2</ele>
        <time>2022-09-16T14:54:04Z</time>
      </trkpt>
      <trkpt lat="41.79008" lon="9.249367">
        <ele>1108.0</ele>
        <time>2022-09-16T14:54:08Z</time>
      </trkpt>
      <trkpt lat="41.790072" lon="9.249365">
        <ele>1108.0</ele>
        <time>2022-09-16T14:54:09Z</time>
      </trkpt>
      <trkpt lat="41.790042" lon="9.249348">
        <ele>1106.4</ele>
        <time>2022-09-16T14:54:13Z</time>
      </trkpt>
      <trkpt lat="41.789973" lon="9.249297">
        <ele>1105.0</ele>
        <time>2022-09-16T14:54:22Z</time>
      </trkpt>
      <trkpt lat="41.789887" lon="9.249252">
        <ele>1104.6</ele>
        <time>2022-09-16T14:54:33Z</time>
      </trkpt>
      <trkpt lat="41.789882" lon="9.249272">
        <ele>1104.6</ele>
        <time>2022-09-16T14:54:35Z</time>
      </trkpt>
      <trkpt lat="41.789903" lon="9.2493">
        <ele>1104.0</ele>
        <time>2022-09-16T14:54:39Z</time>
      </trkpt>
      <trkpt lat="41.789955" lon="9.249332">
        <ele>1103.4</ele>
        <time>2022-09-16T14:54:48Z</time>
      </trkpt>
      <trkpt lat="41.790012" lon="9.249437">
        <ele>1101.6</ele>
        <time>2022-09-16T14:55:07Z</time>
      </trkpt>
      <trkpt lat="41.789982" lon="9.249445">
        <ele>1099.6</ele>
        <time>2022-09-16T14:55:14Z</time>
      </trkpt>
      <trkpt lat="41.789948" lon="9.249452">
        <ele>1097.4</ele>
        <time>2022-09-16T14:55:23Z</time>
      </trkpt>
      <trkpt lat="41.78997" lon="9.249497">
        <ele>1096.0</ele>
        <time>2022-09-16T14:55:34Z</time>
      </trkpt>
      <trkpt lat="41.789993" lon="9.249527">
        <ele>1095.6</ele>
        <time>2022-09-16T14:55:44Z</time>
      </trkpt>
      <trkpt lat="41.790012" lon="9.249568">
        <ele>1095.4</ele>
        <time>2022-09-16T14:55:57Z</time>
      </trkpt>
      <trkpt lat="41.790167" lon="9.249782">
        <ele>1081.4</ele>
        <time>2022-09-16T14:57:38Z</time>
      </trkpt>
      <trkpt lat="41.790188" lon="9.249743">
        <ele>1075.4</ele>
        <time>2022-09-16T14:58:08Z</time>
      </trkpt>
      <trkpt lat="41.790357" lon="9.24995">
        <ele>1075.2</ele>
        <time>2022-09-16T14:58:19Z</time>
      </trkpt>
      <trkpt lat="41.790322" lon="9.25013">
        <ele>1075.2</ele>
        <time>2022-09-16T14:58:30Z</time>
      </trkpt>
      <trkpt lat="41.79028" lon="9.250137">
        <ele>1075.4</ele>
        <time>2022-09-16T14:58:35Z</time>
      </trkpt>
      <trkpt lat="41.790272" lon="9.250173">
        <ele>1075.6</ele>
        <time>2022-09-16T14:58:40Z</time>
      </trkpt>
      <trkpt lat="41.790285" lon="9.250198">
        <ele>1075.6</ele>
        <time>2022-09-16T14:58:44Z</time>
      </trkpt>
      <trkpt lat="41.790327" lon="9.250197">
        <ele>1074.0</ele>
        <time>2022-09-16T14:58:52Z</time>
      </trkpt>
      <trkpt lat="41.79031" lon="9.250225">
        <ele>1073.0</ele>
        <time>2022-09-16T14:58:58Z</time>
      </trkpt>
      <trkpt lat="41.79028" lon="9.250233">
        <ele>1071.8</ele>
        <time>2022-09-16T14:59:05Z</time>
      </trkpt>
      <trkpt lat="41.79025" lon="9.250225">
        <ele>1069.6</ele>
        <time>2022-09-16T14:59:12Z</time>
      </trkpt>
      <trkpt lat="41.790247" lon="9.250267">
        <ele>1067.4</ele>
        <time>2022-09-16T14:59:21Z</time>
      </trkpt>
      <trkpt lat="41.790265" lon="9.250293">
        <ele>1066.8</ele>
        <time>2022-09-16T14:59:29Z</time>
      </trkpt>
      <trkpt lat="41.790285" lon="9.25032">
        <ele>1065.8</ele>
        <time>2022-09-16T14:59:38Z</time>
      </trkpt>
      <trkpt lat="41.790308" lon="9.250333">
        <ele>1064.2</ele>
        <time>2022-09-16T14:59:49Z</time>
      </trkpt>
      <trkpt lat="41.79035" lon="9.250347">
        <ele>1061.0</ele>
        <time>2022-09-16T15:00:09Z</time>
      </trkpt>
      <trkpt lat="41.790428" lon="9.25039">
        <ele>1052.8</ele>
        <time>2022-09-16T15:00:55Z</time>
      </trkpt>
      <trkpt lat="41.790505" lon="9.25041">
        <ele>1055.6</ele>
        <time>2022-09-16T15:02:07Z</time>
      </trkpt>
      <trkpt lat="41.790588" lon="9.250655">
        <ele>1055.8</ele>
        <time>2022-09-16T15:02:17Z</time>
      </trkpt>
      <trkpt lat="41.790792" lon="9.250783">
        <ele>1056.4</ele>
        <time>2022-09-16T15:02:27Z</time>
      </trkpt>
      <trkpt lat="41.790832" lon="9.250753">
        <ele>1056.4</ele>
        <time>2022-09-16T15:02:27Z</time>
      </trkpt>
      <trkpt lat="41.790885" lon="9.250722">
        <ele>1058.8</ele>
        <time>2022-09-16T15:02:33Z</time>
      </trkpt>
      <trkpt lat="41.790917" lon="9.250697">
        <ele>1059.4</ele>
        <time>2022-09-16T15:02:36Z</time>
      </trkpt>
      <trkpt lat="41.790973" lon="9.250728">
        <ele>1059.4</ele>
        <time>2022-09-16T15:02:41Z</time>
      </trkpt>
      <trkpt lat="41.79102" lon="9.250752">
        <ele>1059.0</ele>
        <time>2022-09-16T15:02:45Z</time>
      </trkpt>
      <trkpt lat="41.791062" lon="9.250742">
        <ele>1057.8</ele>
        <time>2022-09-16T15:02:48Z</time>
      </trkpt>
      <trkpt lat="41.791128" lon="9.250722">
        <ele>1056.6</ele>
        <time>2022-09-16T15:02:54Z</time>
      </trkpt>
      <trkpt lat="41.791182" lon="9.250727">
        <ele>1056.4</ele>
        <time>2022-09-16T15:02:58Z</time>
      </trkpt>
      <trkpt lat="41.791187" lon="9.250772">
        <ele>1055.6</ele>
        <time>2022-09-16T15:03:01Z</time>
      </trkpt>
      <trkpt lat="41.791177" lon="9.250853">
        <ele>1054.4</ele>
        <time>2022-09-16T15:03:07Z</time>
      </trkpt>
      <trkpt lat="41.791158" lon="9.250897">
        <ele>1053.0</ele>
        <time>2022-09-16T15:03:11Z</time>
      </trkpt>
      <trkpt lat="41.791138" lon="9.250883">
        <ele>1052.6</ele>
        <time>2022-09-16T15:03:14Z</time>
      </trkpt>
      <trkpt lat="41.791112" lon="9.250838">
        <ele>1051.4</ele>
        <time>2022-09-16T15:03:20Z</time>
      </trkpt>
      <trkpt lat="41.791092" lon="9.250835">
        <ele>1050.4</ele>
        <time>2022-09-16T15:03:23Z</time>
      </trkpt>
      <trkpt lat="41.791068" lon="9.250862">
        <ele>1049.8</ele>
        <time>2022-09-16T15:03:27Z</time>
      </trkpt>
      <trkpt lat="41.791063" lon="9.250927">
        <ele>1048.8</ele>
        <time>2022-09-16T15:03:33Z</time>
      </trkpt>
      <trkpt lat="41.791075" lon="9.250965">
        <ele>1048.2</ele>
        <time>2022-09-16T15:03:37Z</time>
      </trkpt>
      <trkpt lat="41.7911" lon="9.25103">
        <ele>1047.2</ele>
        <time>2022-09-16T15:03:44Z</time>
      </trkpt>
      <trkpt lat="41.791105" lon="9.251087">
        <ele>1046.0</ele>
        <time>2022-09-16T15:03:50Z</time>
      </trkpt>
      <trkpt lat="41.791167" lon="9.251152">
        <ele>1044.6</ele>
        <time>2022-09-16T15:04:02Z</time>
      </trkpt>
      <trkpt lat="41.791217" lon="9.251227">
        <ele>1043.8</ele>
        <time>2022-09-16T15:04:15Z</time>
      </trkpt>
      <trkpt lat="41.791248" lon="9.251248">
        <ele>1043.8</ele>
        <time>2022-09-16T15:04:25Z</time>
      </trkpt>
      <trkpt lat="41.791302" lon="9.25137">
        <ele>1042.2</ele>
        <time>2022-09-16T15:04:52Z</time>
      </trkpt>
      <trkpt lat="41.791343" lon="9.251518">
        <ele>1040.8</ele>
        <time>2022-09-16T15:05:05Z</time>
      </trkpt>
      <trkpt lat="41.791437" lon="9.251678">
        <ele>1039.2</ele>
        <time>2022-09-16T15:05:17Z</time>
      </trkpt>
      <trkpt lat="41.791483" lon="9.251753">
        <ele>1038.2</ele>
        <time>2022-09-16T15:05:23Z</time>
      </trkpt>
      <trkpt lat="41.791577" lon="9.251867">
        <ele>1034.8</ele>
        <time>2022-09-16T15:05:37Z</time>
      </trkpt>
      <trkpt lat="41.791583" lon="9.251877">
        <ele>1034.8</ele>
        <time>2022-09-16T15:05:38Z</time>
      </trkpt>
      <trkpt lat="41.791642" lon="9.2519">
        <ele>1034.6</ele>
        <time>2022-09-16T15:05:46Z</time>
      </trkpt>
      <trkpt lat="41.79171" lon="9.251905">
        <ele>1035.8</ele>
        <time>2022-09-16T15:05:56Z</time>
      </trkpt>
      <trkpt lat="41.791785" lon="9.251953">
        <ele>1033.8</ele>
        <time>2022-09-16T15:06:25Z</time>
      </trkpt>
      <trkpt lat="41.791783" lon="9.252">
        <ele>1029.2</ele>
        <time>2022-09-16T15:06:43Z</time>
      </trkpt>
      <trkpt lat="41.79181" lon="9.25202">
        <ele>1028.6</ele>
        <time>2022-09-16T15:06:47Z</time>
      </trkpt>
      <trkpt lat="41.791893" lon="9.252135">
        <ele>1030.0</ele>
        <time>2022-09-16T15:06:56Z</time>
      </trkpt>
      <trkpt lat="41.791928" lon="9.252225">
        <ele>1030.2</ele>
        <time>2022-09-16T15:07:01Z</time>
      </trkpt>
      <trkpt lat="41.791995" lon="9.252392">
        <ele>1031.6</ele>
        <time>2022-09-16T15:07:11Z</time>
      </trkpt>
      <trkpt lat="41.792133" lon="9.252628">
        <ele>1030.2</ele>
        <time>2022-09-16T15:07:29Z</time>
      </trkpt>
      <trkpt lat="41.792143" lon="9.25264">
        <ele>1030.6</ele>
        <time>2022-09-16T15:07:30Z</time>
      </trkpt>
      <trkpt lat="41.792208" lon="9.252655">
        <ele>1033.4</ele>
        <time>2022-09-16T15:07:38Z</time>
      </trkpt>
      <trkpt lat="41.792228" lon="9.252685">
        <ele>1032.8</ele>
        <time>2022-09-16T15:07:42Z</time>
      </trkpt>
      <trkpt lat="41.792235" lon="9.252713">
        <ele>1032.8</ele>
        <time>2022-09-16T15:07:45Z</time>
      </trkpt>
      <trkpt lat="41.792237" lon="9.25277">
        <ele>1032.4</ele>
        <time>2022-09-16T15:07:51Z</time>
      </trkpt>
      <trkpt lat="41.792255" lon="9.252803">
        <ele>1032.2</ele>
        <time>2022-09-16T15:07:55Z</time>
      </trkpt>
      <trkpt lat="41.79229" lon="9.252813">
        <ele>1035.2</ele>
        <time>2022-09-16T15:08:19Z</time>
      </trkpt>
      <trkpt lat="41.792368" lon="9.252882">
        <ele>1034.4</ele>
        <time>2022-09-16T15:08:35Z</time>
      </trkpt>
      <trkpt lat="41.792383" lon="9.25294">
        <ele>1032.6</ele>
        <time>2022-09-16T15:08:52Z</time>
      </trkpt>
      <trkpt lat="41.792383" lon="9.252947">
        <ele>1032.6</ele>
        <time>2022-09-16T15:08:54Z</time>
      </trkpt>
      <trkpt lat="41.79237" lon="9.253083">
        <ele>1032.6</ele>
        <time>2022-09-16T15:09:05Z</time>
      </trkpt>
      <trkpt lat="41.792333" lon="9.253225">
        <ele>1031.6</ele>
        <time>2022-09-16T15:09:14Z</time>
      </trkpt>
      <trkpt lat="41.79234" lon="9.253427">
        <ele>1027.0</ele>
        <time>2022-09-16T15:09:26Z</time>
      </trkpt>
      <trkpt lat="41.792333" lon="9.253508">
        <ele>1025.8</ele>
        <time>2022-09-16T15:09:32Z</time>
      </trkpt>
      <trkpt lat="41.792365" lon="9.253708">
        <ele>1023.4</ele>
        <time>2022-09-16T15:09:52Z</time>
      </trkpt>
      <trkpt lat="41.792377" lon="9.253803">
        <ele>1024.4</ele>
        <time>2022-09-16T15:10:02Z</time>
      </trkpt>
      <trkpt lat="41.792402" lon="9.253913">
        <ele>1025.0</ele>
        <time>2022-09-16T15:10:18Z</time>
      </trkpt>
      <trkpt lat="41.792412" lon="9.254042">
        <ele>1026.2</ele>
        <time>2022-09-16T15:10:39Z</time>
      </trkpt>
      <trkpt lat="41.79241" lon="9.254047">
        <ele>1026.2</ele>
        <time>2022-09-16T15:10:39Z</time>
      </trkpt>
      <trkpt lat="41.792423" lon="9.254063">
        <ele>1028.6</ele>
        <time>2022-09-16T15:10:56Z</time>
      </trkpt>
      <trkpt lat="41.792433" lon="9.254087">
        <ele>1028.0</ele>
        <time>2022-09-16T15:11:03Z</time>
      </trkpt>
      <trkpt lat="41.792445" lon="9.254132">
        <ele>1028.6</ele>
        <time>2022-09-16T15:11:10Z</time>
      </trkpt>
      <trkpt lat="41.792557" lon="9.25415">
        <ele>1029.0</ele>
        <time>2022-09-16T15:11:21Z</time>
      </trkpt>
      <trkpt lat="41.792572" lon="9.254193">
        <ele>1030.6</ele>
        <time>2022-09-16T15:11:25Z</time>
      </trkpt>
      <trkpt lat="41.7926" lon="9.254318">
        <ele>1032.6</ele>
        <time>2022-09-16T15:11:35Z</time>
      </trkpt>
      <trkpt lat="41.792645" lon="9.25444">
        <ele>1032.0</ele>
        <time>2022-09-16T15:11:47Z</time>
      </trkpt>
      <trkpt lat="41.79265" lon="9.254518">
        <ele>1031.6</ele>
        <time>2022-09-16T15:11:54Z</time>
      </trkpt>
      <trkpt lat="41.792652" lon="9.2546">
        <ele>1031.6</ele>
        <time>2022-09-16T15:12:01Z</time>
      </trkpt>
      <trkpt lat="41.792658" lon="9.254693">
        <ele>1031.6</ele>
        <time>2022-09-16T15:12:08Z</time>
      </trkpt>
      <trkpt lat="41.792658" lon="9.25472">
        <ele>1031.0</ele>
        <time>2022-09-16T15:12:10Z</time>
      </trkpt>
      <trkpt lat="41.792478" lon="9.254933">
        <ele>1030.0</ele>
        <time>2022-09-16T15:12:30Z</time>
      </trkpt>
      <trkpt lat="41.792373" lon="9.254943">
        <ele>1029.8</ele>
        <time>2022-09-16T15:12:37Z</time>
      </trkpt>
      <trkpt lat="41.792307" lon="9.255">
        <ele>1029.2</ele>
        <time>2022-09-16T15:12:41Z</time>
      </trkpt>
      <trkpt lat="41.792223" lon="9.255092">
        <ele>1029.8</ele>
        <time>2022-09-16T15:12:46Z</time>
      </trkpt>
      <trkpt lat="41.792215" lon="9.255105">
        <ele>1030.0</ele>
        <time>2022-09-16T15:12:48Z</time>
      </trkpt>
      <trkpt lat="41.792143" lon="9.255205">
        <ele>1031.6</ele>
        <time>2022-09-16T15:12:56Z</time>
      </trkpt>
      <trkpt lat="41.792063" lon="9.255288">
        <ele>1033.2</ele>
        <time>2022-09-16T15:13:05Z</time>
      </trkpt>
      <trkpt lat="41.791962" lon="9.255448">
        <ele>1034.2</ele>
        <time>2022-09-16T15:13:22Z</time>
      </trkpt>
      <trkpt lat="41.791958" lon="9.255538">
        <ele>1031.4</ele>
        <time>2022-09-16T15:13:30Z</time>
      </trkpt>
      <trkpt lat="41.791947" lon="9.255545">
        <ele>1031.4</ele>
        <time>2022-09-16T15:13:40Z</time>
      </trkpt>
      <trkpt lat="41.79194" lon="9.255548">
        <ele>1031.0</ele>
        <time>2022-09-16T15:13:46Z</time>
      </trkpt>
      <trkpt lat="41.791942" lon="9.25558">
        <ele>1033.2</ele>
        <time>2022-09-16T15:13:56Z</time>
      </trkpt>
      <trkpt lat="41.791948" lon="9.255608">
        <ele>1036.8</ele>
        <time>2022-09-16T15:14:05Z</time>
      </trkpt>
      <trkpt lat="41.791933" lon="9.255702">
        <ele>1035.4</ele>
        <time>2022-09-16T15:14:15Z</time>
      </trkpt>
      <trkpt lat="41.791942" lon="9.255733">
        <ele>1034.4</ele>
        <time>2022-09-16T15:14:20Z</time>
      </trkpt>
      <trkpt lat="41.791963" lon="9.255768">
        <ele>1033.2</ele>
        <time>2022-09-16T15:14:26Z</time>
      </trkpt>
      <trkpt lat="41.791973" lon="9.255835">
        <ele>1041.4</ele>
        <time>2022-09-16T15:14:36Z</time>
      </trkpt>
      <trkpt lat="41.791992" lon="9.255947">
        <ele>1043.2</ele>
        <time>2022-09-16T15:14:56Z</time>
      </trkpt>
      <trkpt lat="41.791993" lon="9.255958">
        <ele>1043.6</ele>
        <time>2022-09-16T15:14:57Z</time>
      </trkpt>
      <trkpt lat="41.792042" lon="9.25619">
        <ele>1045.0</ele>
        <time>2022-09-16T15:15:22Z</time>
      </trkpt>
      <trkpt lat="41.792045" lon="9.256262">
        <ele>1044.4</ele>
        <time>2022-09-16T15:15:28Z</time>
      </trkpt>
      <trkpt lat="41.792045" lon="9.256333">
        <ele>1043.0</ele>
        <time>2022-09-16T15:15:34Z</time>
      </trkpt>
      <trkpt lat="41.792053" lon="9.256367">
        <ele>1042.8</ele>
        <time>2022-09-16T15:15:37Z</time>
      </trkpt>
      <trkpt lat="41.792075" lon="9.256438">
        <ele>1042.2</ele>
        <time>2022-09-16T15:15:43Z</time>
      </trkpt>
      <trkpt lat="41.792063" lon="9.256583">
        <ele>1043.6</ele>
        <time>2022-09-16T15:15:55Z</time>
      </trkpt>
      <trkpt lat="41.792065" lon="9.256842">
        <ele>1043.8</ele>
        <time>2022-09-16T15:16:14Z</time>
      </trkpt>
      <trkpt lat="41.792093" lon="9.257007">
        <ele>1047.6</ele>
        <time>2022-09-16T15:16:25Z</time>
      </trkpt>
      <trkpt lat="41.792098" lon="9.257022">
        <ele>1047.6</ele>
        <time>2022-09-16T15:16:26Z</time>
      </trkpt>
      <trkpt lat="41.792158" lon="9.257208">
        <ele>1052.8</ele>
        <time>2022-09-16T15:16:47Z</time>
      </trkpt>
      <trkpt lat="41.792182" lon="9.257255">
        <ele>1052.0</ele>
        <time>2022-09-16T15:16:56Z</time>
      </trkpt>
      <trkpt lat="41.792208" lon="9.257293">
        <ele>1052.2</ele>
        <time>2022-09-16T15:17:03Z</time>
      </trkpt>
      <trkpt lat="41.792208" lon="9.257315">
        <ele>1052.4</ele>
        <time>2022-09-16T15:17:06Z</time>
      </trkpt>
      <trkpt lat="41.792203" lon="9.257382">
        <ele>1051.8</ele>
        <time>2022-09-16T15:17:13Z</time>
      </trkpt>
      <trkpt lat="41.792292" lon="9.257657">
        <ele>1055.0</ele>
        <time>2022-09-16T15:17:35Z</time>
      </trkpt>
      <trkpt lat="41.79235" lon="9.257763">
        <ele>1056.2</ele>
        <time>2022-09-16T15:17:43Z</time>
      </trkpt>
      <trkpt lat="41.792372" lon="9.25785">
        <ele>1056.2</ele>
        <time>2022-09-16T15:17:48Z</time>
      </trkpt>
      <trkpt lat="41.792433" lon="9.257928">
        <ele>1055.8</ele>
        <time>2022-09-16T15:17:55Z</time>
      </trkpt>
      <trkpt lat="41.79247" lon="9.257967">
        <ele>1056.6</ele>
        <time>2022-09-16T15:17:59Z</time>
      </trkpt>
      <trkpt lat="41.792493" lon="9.257968">
        <ele>1057.2</ele>
        <time>2022-09-16T15:18:01Z</time>
      </trkpt>
      <trkpt lat="41.792525" lon="9.257962">
        <ele>1057.6</ele>
        <time>2022-09-16T15:18:04Z</time>
      </trkpt>
      <trkpt lat="41.792618" lon="9.258">
        <ele>1062.6</ele>
        <time>2022-09-16T15:18:18Z</time>
      </trkpt>
      <trkpt lat="41.79265" lon="9.258008">
        <ele>1066.8</ele>
        <time>2022-09-16T15:18:25Z</time>
      </trkpt>
      <trkpt lat="41.792662" lon="9.258018">
        <ele>1067.2</ele>
        <time>2022-09-16T15:18:28Z</time>
      </trkpt>
      <trkpt lat="41.792702" lon="9.258045">
        <ele>1062.6</ele>
        <time>2022-09-16T15:18:38Z</time>
      </trkpt>
      <trkpt lat="41.79273" lon="9.258077">
        <ele>1063.2</ele>
        <time>2022-09-16T15:18:46Z</time>
      </trkpt>
      <trkpt lat="41.792765" lon="9.258118">
        <ele>1063.6</ele>
        <time>2022-09-16T15:18:57Z</time>
      </trkpt>
      <trkpt lat="41.792822" lon="9.258132">
        <ele>1065.0</ele>
        <time>2022-09-16T15:19:08Z</time>
      </trkpt>
      <trkpt lat="41.792902" lon="9.25814">
        <ele>1066.8</ele>
        <time>2022-09-16T15:19:20Z</time>
      </trkpt>
      <trkpt lat="41.793123" lon="9.258103">
        <ele>1073.2</ele>
        <time>2022-09-16T15:20:01Z</time>
      </trkpt>
      <trkpt lat="41.793155" lon="9.25805">
        <ele>1074.0</ele>
        <time>2022-09-16T15:20:09Z</time>
      </trkpt>
      <trkpt lat="41.793215" lon="9.257898">
        <ele>1076.8</ele>
        <time>2022-09-16T15:20:26Z</time>
      </trkpt>
      <trkpt lat="41.793262" lon="9.257845">
        <ele>1075.8</ele>
        <time>2022-09-16T15:20:33Z</time>
      </trkpt>
      <trkpt lat="41.79333" lon="9.257798">
        <ele>1074.6</ele>
        <time>2022-09-16T15:20:40Z</time>
      </trkpt>
      <trkpt lat="41.79335" lon="9.257772">
        <ele>1074.4</ele>
        <time>2022-09-16T15:20:42Z</time>
      </trkpt>
      <trkpt lat="41.793412" lon="9.25775">
        <ele>1076.0</ele>
        <time>2022-09-16T15:20:49Z</time>
      </trkpt>
      <trkpt lat="41.793468" lon="9.257768">
        <ele>1077.2</ele>
        <time>2022-09-16T15:20:55Z</time>
      </trkpt>
      <trkpt lat="41.793548" lon="9.257815">
        <ele>1078.2</ele>
        <time>2022-09-16T15:21:04Z</time>
      </trkpt>
      <trkpt lat="41.793583" lon="9.25785">
        <ele>1078.6</ele>
        <time>2022-09-16T15:21:08Z</time>
      </trkpt>
      <trkpt lat="41.793623" lon="9.257913">
        <ele>1077.6</ele>
        <time>2022-09-16T15:21:13Z</time>
      </trkpt>
      <trkpt lat="41.79371" lon="9.257935">
        <ele>1076.2</ele>
        <time>2022-09-16T15:21:21Z</time>
      </trkpt>
      <trkpt lat="41.79378" lon="9.257958">
        <ele>1075.8</ele>
        <time>2022-09-16T15:21:27Z</time>
      </trkpt>
      <trkpt lat="41.793812" lon="9.258">
        <ele>1075.8</ele>
        <time>2022-09-16T15:21:31Z</time>
      </trkpt>
      <trkpt lat="41.793825" lon="9.258022">
        <ele>1075.8</ele>
        <time>2022-09-16T15:21:32Z</time>
      </trkpt>
      <trkpt lat="41.793808" lon="9.258132">
        <ele>1076.2</ele>
        <time>2022-09-16T15:21:40Z</time>
      </trkpt>
      <trkpt lat="41.793795" lon="9.258237">
        <ele>1076.6</ele>
        <time>2022-09-16T15:21:50Z</time>
      </trkpt>
      <trkpt lat="41.793858" lon="9.258388">
        <ele>1076.0</ele>
        <time>2022-09-16T15:22:03Z</time>
      </trkpt>
      <trkpt lat="41.793908" lon="9.258478">
        <ele>1078.8</ele>
        <time>2022-09-16T15:22:11Z</time>
      </trkpt>
      <trkpt lat="41.793915" lon="9.258492">
        <ele>1077.8</ele>
        <time>2022-09-16T15:22:12Z</time>
      </trkpt>
      <trkpt lat="41.79409" lon="9.258783">
        <ele>1072.0</ele>
        <time>2022-09-16T15:22:41Z</time>
      </trkpt>
      <trkpt lat="41.794085" lon="9.25883">
        <ele>1070.4</ele>
        <time>2022-09-16T15:22:46Z</time>
      </trkpt>
      <trkpt lat="41.79404" lon="9.25894">
        <ele>1071.8</ele>
        <time>2022-09-16T15:22:54Z</time>
      </trkpt>
      <trkpt lat="41.794043" lon="9.258968">
        <ele>1072.6</ele>
        <time>2022-09-16T15:22:55Z</time>
      </trkpt>
      <trkpt lat="41.794322" lon="9.259148">
        <ele>1073.6</ele>
        <time>2022-09-16T15:23:25Z</time>
      </trkpt>
      <trkpt lat="41.794348" lon="9.25919">
        <ele>1074.6</ele>
        <time>2022-09-16T15:23:29Z</time>
      </trkpt>
      <trkpt lat="41.794367" lon="9.259292">
        <ele>1077.0</ele>
        <time>2022-09-16T15:23:37Z</time>
      </trkpt>
      <trkpt lat="41.794258" lon="9.25927">
        <ele>1078.2</ele>
        <time>2022-09-16T15:23:46Z</time>
      </trkpt>
      <trkpt lat="41.7942" lon="9.259262">
        <ele>1079.6</ele>
        <time>2022-09-16T15:23:51Z</time>
      </trkpt>
      <trkpt lat="41.794162" lon="9.25924">
        <ele>1080.4</ele>
        <time>2022-09-16T15:23:55Z</time>
      </trkpt>
      <trkpt lat="41.794103" lon="9.259212">
        <ele>1080.6</ele>
        <time>2022-09-16T15:24:01Z</time>
      </trkpt>
      <trkpt lat="41.794068" lon="9.259237">
        <ele>1082.4</ele>
        <time>2022-09-16T15:24:06Z</time>
      </trkpt>
      <trkpt lat="41.794062" lon="9.259245">
        <ele>1082.4</ele>
        <time>2022-09-16T15:24:07Z</time>
      </trkpt>
      <trkpt lat="41.794072" lon="9.259377">
        <ele>1082.0</ele>
        <time>2022-09-16T15:24:17Z</time>
      </trkpt>
      <trkpt lat="41.794093" lon="9.25954">
        <ele>1082.2</ele>
        <time>2022-09-16T15:24:27Z</time>
      </trkpt>
      <trkpt lat="41.794083" lon="9.259593">
        <ele>1083.4</ele>
        <time>2022-09-16T15:24:30Z</time>
      </trkpt>
      <trkpt lat="41.794055" lon="9.259727">
        <ele>1084.6</ele>
        <time>2022-09-16T15:24:38Z</time>
      </trkpt>
      <trkpt lat="41.794047" lon="9.259867">
        <ele>1085.8</ele>
        <time>2022-09-16T15:24:47Z</time>
      </trkpt>
      <trkpt lat="41.7941" lon="9.25995">
        <ele>1086.6</ele>
        <time>2022-09-16T15:24:55Z</time>
      </trkpt>
      <trkpt lat="41.794128" lon="9.259962">
        <ele>1086.4</ele>
        <time>2022-09-16T15:24:58Z</time>
      </trkpt>
      <trkpt lat="41.794192" lon="9.259968">
        <ele>1085.4</ele>
        <time>2022-09-16T15:25:04Z</time>
      </trkpt>
      <trkpt lat="41.794253" lon="9.260032">
        <ele>1083.0</ele>
        <time>2022-09-16T15:25:12Z</time>
      </trkpt>
      <trkpt lat="41.794312" lon="9.260105">
        <ele>1083.8</ele>
        <time>2022-09-16T15:25:19Z</time>
      </trkpt>
      <trkpt lat="41.794318" lon="9.260118">
        <ele>1084.0</ele>
        <time>2022-09-16T15:25:20Z</time>
      </trkpt>
      <trkpt lat="41.794167" lon="9.260192">
        <ele>1083.2</ele>
        <time>2022-09-16T15:25:32Z</time>
      </trkpt>
      <trkpt lat="41.79437" lon="9.260297">
        <ele>1051.0</ele>
        <time>2022-09-17T05:14:02Z</time>
      </trkpt>
      <trkpt lat="41.79437" lon="9.260297">
        <ele>1052.0</ele>
        <time>2022-09-17T05:14:07Z</time>
      </trkpt>
      <trkpt lat="41.79432" lon="9.260187">
        <ele>1047.8</ele>
        <time>2022-09-17T05:14:16Z</time>
      </trkpt>
      <trkpt lat="41.794263" lon="9.260158">
        <ele>1046.2</ele>
        <time>2022-09-17T05:14:23Z</time>
      </trkpt>
      <trkpt lat="41.794208" lon="9.260142">
        <ele>1045.2</ele>
        <time>2022-09-17T05:14:29Z</time>
      </trkpt>
      <trkpt lat="41.794182" lon="9.26013">
        <ele>1045.8</ele>
        <time>2022-09-17T05:14:32Z</time>
      </trkpt>
      <trkpt lat="41.79409" lon="9.260155">
        <ele>1047.4</ele>
        <time>2022-09-17T05:14:42Z</time>
      </trkpt>
      <trkpt lat="41.794042" lon="9.260243">
        <ele>1046.0</ele>
        <time>2022-09-17T05:14:50Z</time>
      </trkpt>
      <trkpt lat="41.793992" lon="9.260325">
        <ele>1043.6</ele>
        <time>2022-09-17T05:14:58Z</time>
      </trkpt>
      <trkpt lat="41.793948" lon="9.260363">
        <ele>1043.8</ele>
        <time>2022-09-17T05:15:03Z</time>
      </trkpt>
      <trkpt lat="41.793883" lon="9.26046">
        <ele>1042.4</ele>
        <time>2022-09-17T05:15:12Z</time>
      </trkpt>
      <trkpt lat="41.793858" lon="9.260533">
        <ele>1041.2</ele>
        <time>2022-09-17T05:15:18Z</time>
      </trkpt>
      <trkpt lat="41.793783" lon="9.26053">
        <ele>1039.8</ele>
        <time>2022-09-17T05:15:24Z</time>
      </trkpt>
      <trkpt lat="41.79373" lon="9.260507">
        <ele>1040.6</ele>
        <time>2022-09-17T05:15:31Z</time>
      </trkpt>
      <trkpt lat="41.793677" lon="9.260513">
        <ele>1040.2</ele>
        <time>2022-09-17T05:15:38Z</time>
      </trkpt>
      <trkpt lat="41.79363" lon="9.260517">
        <ele>1039.6</ele>
        <time>2022-09-17T05:15:44Z</time>
      </trkpt>
      <trkpt lat="41.793543" lon="9.260492">
        <ele>1037.0</ele>
        <time>2022-09-17T05:15:57Z</time>
      </trkpt>
      <trkpt lat="41.793503" lon="9.26037">
        <ele>1031.6</ele>
        <time>2022-09-17T05:16:10Z</time>
      </trkpt>
      <trkpt lat="41.793478" lon="9.26026">
        <ele>1031.0</ele>
        <time>2022-09-17T05:16:22Z</time>
      </trkpt>
      <trkpt lat="41.79347" lon="9.260242">
        <ele>1031.0</ele>
        <time>2022-09-17T05:16:24Z</time>
      </trkpt>
      <trkpt lat="41.793483" lon="9.26017">
        <ele>1031.0</ele>
        <time>2022-09-17T05:16:33Z</time>
      </trkpt>
      <trkpt lat="41.793473" lon="9.260118">
        <ele>1030.0</ele>
        <time>2022-09-17T05:16:42Z</time>
      </trkpt>
      <trkpt lat="41.793425" lon="9.260057">
        <ele>1026.8</ele>
        <time>2022-09-17T05:16:56Z</time>
      </trkpt>
      <trkpt lat="41.79335" lon="9.260063">
        <ele>1024.2</ele>
        <time>2022-09-17T05:17:14Z</time>
      </trkpt>
      <trkpt lat="41.793348" lon="9.260067">
        <ele>1024.2</ele>
        <time>2022-09-17T05:17:15Z</time>
      </trkpt>
      <trkpt lat="41.793318" lon="9.260082">
        <ele>1024.0</ele>
        <time>2022-09-17T05:17:23Z</time>
      </trkpt>
      <trkpt lat="41.793252" lon="9.26013">
        <ele>1020.8</ele>
        <time>2022-09-17T05:17:44Z</time>
      </trkpt>
      <trkpt lat="41.793252" lon="9.260188">
        <ele>1022.4</ele>
        <time>2022-09-17T05:17:55Z</time>
      </trkpt>
      <trkpt lat="41.793245" lon="9.260222">
        <ele>1020.4</ele>
        <time>2022-09-17T05:18:01Z</time>
      </trkpt>
      <trkpt lat="41.793225" lon="9.260223">
        <ele>1019.2</ele>
        <time>2022-09-17T05:18:05Z</time>
      </trkpt>
      <trkpt lat="41.793207" lon="9.260157">
        <ele>1016.4</ele>
        <time>2022-09-17T05:18:13Z</time>
      </trkpt>
      <trkpt lat="41.793198" lon="9.260132">
        <ele>1015.6</ele>
        <time>2022-09-17T05:18:16Z</time>
      </trkpt>
      <trkpt lat="41.793177" lon="9.260133">
        <ele>1015.4</ele>
        <time>2022-09-17T05:18:18Z</time>
      </trkpt>
      <trkpt lat="41.793078" lon="9.260157">
        <ele>1013.6</ele>
        <time>2022-09-17T05:18:27Z</time>
      </trkpt>
      <trkpt lat="41.79301" lon="9.260163">
        <ele>1011.0</ele>
        <time>2022-09-17T05:18:35Z</time>
      </trkpt>
      <trkpt lat="41.792967" lon="9.260193">
        <ele>1010.0</ele>
        <time>2022-09-17T05:18:42Z</time>
      </trkpt>
      <trkpt lat="41.792892" lon="9.26027">
        <ele>1004.8</ele>
        <time>2022-09-17T05:18:59Z</time>
      </trkpt>
      <trkpt lat="41.792887" lon="9.260273">
        <ele>1004.8</ele>
        <time>2022-09-17T05:19:00Z</time>
      </trkpt>
      <trkpt lat="41.792865" lon="9.26031">
        <ele>1001.2</ele>
        <time>2022-09-17T05:19:10Z</time>
      </trkpt>
      <trkpt lat="41.792858" lon="9.260323">
        <ele>1000.8</ele>
        <time>2022-09-17T05:19:21Z</time>
      </trkpt>
      <trkpt lat="41.792848" lon="9.260342">
        <ele>1001.0</ele>
        <time>2022-09-17T05:19:34Z</time>
      </trkpt>
      <trkpt lat="41.792853" lon="9.260392">
        <ele>998.4</ele>
        <time>2022-09-17T05:19:54Z</time>
      </trkpt>
      <trkpt lat="41.792858" lon="9.2605">
        <ele>996.4</ele>
        <time>2022-09-17T05:20:23Z</time>
      </trkpt>
      <trkpt lat="41.792847" lon="9.260502">
        <ele>996.4</ele>
        <time>2022-09-17T05:20:23Z</time>
      </trkpt>
      <trkpt lat="41.792723" lon="9.260503">
        <ele>994.4</ele>
        <time>2022-09-17T05:20:32Z</time>
      </trkpt>
      <trkpt lat="41.792658" lon="9.26053">
        <ele>993.2</ele>
        <time>2022-09-17T05:20:36Z</time>
      </trkpt>
      <trkpt lat="41.792523" lon="9.260618">
        <ele>991.0</ele>
        <time>2022-09-17T05:20:46Z</time>
      </trkpt>
      <trkpt lat="41.79236" lon="9.260723">
        <ele>990.0</ele>
        <time>2022-09-17T05:20:56Z</time>
      </trkpt>
      <trkpt lat="41.792317" lon="9.260763">
        <ele>990.0</ele>
        <time>2022-09-17T05:20:59Z</time>
      </trkpt>
      <trkpt lat="41.792203" lon="9.260848">
        <ele>987.0</ele>
        <time>2022-09-17T05:21:15Z</time>
      </trkpt>
      <trkpt lat="41.792123" lon="9.260928">
        <ele>983.4</ele>
        <time>2022-09-17T05:21:27Z</time>
      </trkpt>
      <trkpt lat="41.792102" lon="9.260953">
        <ele>982.8</ele>
        <time>2022-09-17T05:21:32Z</time>
      </trkpt>
      <trkpt lat="41.792077" lon="9.261002">
        <ele>982.4</ele>
        <time>2022-09-17T05:21:39Z</time>
      </trkpt>
      <trkpt lat="41.792038" lon="9.261048">
        <ele>981.6</ele>
        <time>2022-09-17T05:21:48Z</time>
      </trkpt>
      <trkpt lat="41.792028" lon="9.26108">
        <ele>981.6</ele>
        <time>2022-09-17T05:21:52Z</time>
      </trkpt>
      <trkpt lat="41.792017" lon="9.261125">
        <ele>980.8</ele>
        <time>2022-09-17T05:21:57Z</time>
      </trkpt>
      <trkpt lat="41.791992" lon="9.261153">
        <ele>980.4</ele>
        <time>2022-09-17T05:22:02Z</time>
      </trkpt>
      <trkpt lat="41.79193" lon="9.261195">
        <ele>978.8</ele>
        <time>2022-09-17T05:22:11Z</time>
      </trkpt>
      <trkpt lat="41.79188" lon="9.261323">
        <ele>976.4</ele>
        <time>2022-09-17T05:22:23Z</time>
      </trkpt>
      <trkpt lat="41.791835" lon="9.261325">
        <ele>974.6</ele>
        <time>2022-09-17T05:22:30Z</time>
      </trkpt>
      <trkpt lat="41.791815" lon="9.261315">
        <ele>973.8</ele>
        <time>2022-09-17T05:22:33Z</time>
      </trkpt>
      <trkpt lat="41.791785" lon="9.261272">
        <ele>971.2</ele>
        <time>2022-09-17T05:22:44Z</time>
      </trkpt>
      <trkpt lat="41.791787" lon="9.26122">
        <ele>970.6</ele>
        <time>2022-09-17T05:22:52Z</time>
      </trkpt>
      <trkpt lat="41.791767" lon="9.261207">
        <ele>970.4</ele>
        <time>2022-09-17T05:22:57Z</time>
      </trkpt>
      <trkpt lat="41.79173" lon="9.261235">
        <ele>968.8</ele>
        <time>2022-09-17T05:23:07Z</time>
      </trkpt>
      <trkpt lat="41.791712" lon="9.261228">
        <ele>967.8</ele>
        <time>2022-09-17T05:23:13Z</time>
      </trkpt>
      <trkpt lat="41.791695" lon="9.261238">
        <ele>967.8</ele>
        <time>2022-09-17T05:23:18Z</time>
      </trkpt>
      <trkpt lat="41.791665" lon="9.261332">
        <ele>967.4</ele>
        <time>2022-09-17T05:23:30Z</time>
      </trkpt>
      <trkpt lat="41.791595" lon="9.261428">
        <ele>964.4</ele>
        <time>2022-09-17T05:23:45Z</time>
      </trkpt>
      <trkpt lat="41.791465" lon="9.261455">
        <ele>963.0</ele>
        <time>2022-09-17T05:23:57Z</time>
      </trkpt>
      <trkpt lat="41.791455" lon="9.261465">
        <ele>963.0</ele>
        <time>2022-09-17T05:23:58Z</time>
      </trkpt>
      <trkpt lat="41.791375" lon="9.2615">
        <ele>963.6</ele>
        <time>2022-09-17T05:24:07Z</time>
      </trkpt>
      <trkpt lat="41.79132" lon="9.261537">
        <ele>962.6</ele>
        <time>2022-09-17T05:24:13Z</time>
      </trkpt>
      <trkpt lat="41.791295" lon="9.261583">
        <ele>960.0</ele>
        <time>2022-09-17T05:24:18Z</time>
      </trkpt>
      <trkpt lat="41.791232" lon="9.26174">
        <ele>955.4</ele>
        <time>2022-09-17T05:24:38Z</time>
      </trkpt>
      <trkpt lat="41.791095" lon="9.2619">
        <ele>954.6</ele>
        <time>2022-09-17T05:25:15Z</time>
      </trkpt>
      <trkpt lat="41.791092" lon="9.261905">
        <ele>954.6</ele>
        <time>2022-09-17T05:25:17Z</time>
      </trkpt>
      <trkpt lat="41.791093" lon="9.261818">
        <ele>955.4</ele>
        <time>2022-09-17T05:25:28Z</time>
      </trkpt>
      <trkpt lat="41.790697" lon="9.261922">
        <ele>955.4</ele>
        <time>2022-09-17T05:25:39Z</time>
      </trkpt>
      <trkpt lat="41.790498" lon="9.261947">
        <ele>955.6</ele>
        <time>2022-09-17T05:25:50Z</time>
      </trkpt>
      <trkpt lat="41.790445" lon="9.261908">
        <ele>954.8</ele>
        <time>2022-09-17T05:25:59Z</time>
      </trkpt>
      <trkpt lat="41.790497" lon="9.261927">
        <ele>954.8</ele>
        <time>2022-09-17T05:26:00Z</time>
      </trkpt>
      <trkpt lat="41.790373" lon="9.261915">
        <ele>954.2</ele>
        <time>2022-09-17T05:26:05Z</time>
      </trkpt>
      <trkpt lat="41.790277" lon="9.261962">
        <ele>953.4</ele>
        <time>2022-09-17T05:26:14Z</time>
      </trkpt>
      <trkpt lat="41.790175" lon="9.26201">
        <ele>952.0</ele>
        <time>2022-09-17T05:26:23Z</time>
      </trkpt>
      <trkpt lat="41.790097" lon="9.261993">
        <ele>951.6</ele>
        <time>2022-09-17T05:26:30Z</time>
      </trkpt>
      <trkpt lat="41.790012" lon="9.262027">
        <ele>952.0</ele>
        <time>2022-09-17T05:26:40Z</time>
      </trkpt>
      <trkpt lat="41.789918" lon="9.262075">
        <ele>953.6</ele>
        <time>2022-09-17T05:26:52Z</time>
      </trkpt>
      <trkpt lat="41.789897" lon="9.262188">
        <ele>953.8</ele>
        <time>2022-09-17T05:27:06Z</time>
      </trkpt>
      <trkpt lat="41.7899" lon="9.262212">
        <ele>953.8</ele>
        <time>2022-09-17T05:27:09Z</time>
      </trkpt>
      <trkpt lat="41.789885" lon="9.262313">
        <ele>953.4</ele>
        <time>2022-09-17T05:27:17Z</time>
      </trkpt>
      <trkpt lat="41.78981" lon="9.262705">
        <ele>953.6</ele>
        <time>2022-09-17T05:27:49Z</time>
      </trkpt>
      <trkpt lat="41.789815" lon="9.2628">
        <ele>952.0</ele>
        <time>2022-09-17T05:27:56Z</time>
      </trkpt>
      <trkpt lat="41.7898" lon="9.262845">
        <ele>951.4</ele>
        <time>2022-09-17T05:28:00Z</time>
      </trkpt>
      <trkpt lat="41.789758" lon="9.262927">
        <ele>950.8</ele>
        <time>2022-09-17T05:28:07Z</time>
      </trkpt>
      <trkpt lat="41.789743" lon="9.26299">
        <ele>951.2</ele>
        <time>2022-09-17T05:28:11Z</time>
      </trkpt>
      <trkpt lat="41.789712" lon="9.263138">
        <ele>950.8</ele>
        <time>2022-09-17T05:28:21Z</time>
      </trkpt>
      <trkpt lat="41.789682" lon="9.263192">
        <ele>950.4</ele>
        <time>2022-09-17T05:28:25Z</time>
      </trkpt>
      <trkpt lat="41.789628" lon="9.263258">
        <ele>950.0</ele>
        <time>2022-09-17T05:28:31Z</time>
      </trkpt>
      <trkpt lat="41.789578" lon="9.263322">
        <ele>949.8</ele>
        <time>2022-09-17T05:28:37Z</time>
      </trkpt>
      <trkpt lat="41.789563" lon="9.26338">
        <ele>949.2</ele>
        <time>2022-09-17T05:28:41Z</time>
      </trkpt>
      <trkpt lat="41.78954" lon="9.263578">
        <ele>949.0</ele>
        <time>2022-09-17T05:28:56Z</time>
      </trkpt>
      <trkpt lat="41.789578" lon="9.263608">
        <ele>949.2</ele>
        <time>2022-09-17T05:29:06Z</time>
      </trkpt>
      <trkpt lat="41.789583" lon="9.263618">
        <ele>948.2</ele>
        <time>2022-09-17T05:29:11Z</time>
      </trkpt>
      <trkpt lat="41.789583" lon="9.263622">
        <ele>945.4</ele>
        <time>2022-09-17T05:29:18Z</time>
      </trkpt>
      <trkpt lat="41.789605" lon="9.263623">
        <ele>944.8</ele>
        <time>2022-09-17T05:29:24Z</time>
      </trkpt>
      <trkpt lat="41.789625" lon="9.263618">
        <ele>947.4</ele>
        <time>2022-09-17T05:29:31Z</time>
      </trkpt>
      <trkpt lat="41.789657" lon="9.263595">
        <ele>948.2</ele>
        <time>2022-09-17T05:29:52Z</time>
      </trkpt>
      <trkpt lat="41.789658" lon="9.263597">
        <ele>948.0</ele>
        <time>2022-09-17T05:29:53Z</time>
      </trkpt>
      <trkpt lat="41.789513" lon="9.263965">
        <ele>945.6</ele>
        <time>2022-09-17T05:30:10Z</time>
      </trkpt>
      <trkpt lat="41.78945" lon="9.264137">
        <ele>945.6</ele>
        <time>2022-09-17T05:30:14Z</time>
      </trkpt>
      <trkpt lat="41.789415" lon="9.264317">
        <ele>945.8</ele>
        <time>2022-09-17T05:30:18Z</time>
      </trkpt>
      <trkpt lat="41.789373" lon="9.264647">
        <ele>947.4</ele>
        <time>2022-09-17T05:30:27Z</time>
      </trkpt>
      <trkpt lat="41.7893" lon="9.264863">
        <ele>947.8</ele>
        <time>2022-09-17T05:30:34Z</time>
      </trkpt>
      <trkpt lat="41.789287" lon="9.264905">
        <ele>948.2</ele>
        <time>2022-09-17T05:30:37Z</time>
      </trkpt>
      <trkpt lat="41.789263" lon="9.264987">
        <ele>948.2</ele>
        <time>2022-09-17T05:30:43Z</time>
      </trkpt>
      <trkpt lat="41.789222" lon="9.265068">
        <ele>948.2</ele>
        <time>2022-09-17T05:30:51Z</time>
      </trkpt>
      <trkpt lat="41.789192" lon="9.265163">
        <ele>948.0</ele>
        <time>2022-09-17T05:30:58Z</time>
      </trkpt>
      <trkpt lat="41.789167" lon="9.265192">
        <ele>948.0</ele>
        <time>2022-09-17T05:31:01Z</time>
      </trkpt>
      <trkpt lat="41.789058" lon="9.265297">
        <ele>947.8</ele>
        <time>2022-09-17T05:31:14Z</time>
      </trkpt>
      <trkpt lat="41.78905" lon="9.265305">
        <ele>947.8</ele>
        <time>2022-09-17T05:31:15Z</time>
      </trkpt>
      <trkpt lat="41.78887" lon="9.26536">
        <ele>948.8</ele>
        <time>2022-09-17T05:31:37Z</time>
      </trkpt>
      <trkpt lat="41.788752" lon="9.265448">
        <ele>948.8</ele>
        <time>2022-09-17T05:31:51Z</time>
      </trkpt>
      <trkpt lat="41.788707" lon="9.265485">
        <ele>949.4</ele>
        <time>2022-09-17T05:31:57Z</time>
      </trkpt>
      <trkpt lat="41.788627" lon="9.265532">
        <ele>949.2</ele>
        <time>2022-09-17T05:32:08Z</time>
      </trkpt>
      <trkpt lat="41.78861" lon="9.265592">
        <ele>949.6</ele>
        <time>2022-09-17T05:32:15Z</time>
      </trkpt>
      <trkpt lat="41.788592" lon="9.265635">
        <ele>950.0</ele>
        <time>2022-09-17T05:32:22Z</time>
      </trkpt>
      <trkpt lat="41.788595" lon="9.265698">
        <ele>950.0</ele>
        <time>2022-09-17T05:32:26Z</time>
      </trkpt>
      <trkpt lat="41.788605" lon="9.265918">
        <ele>950.8</ele>
        <time>2022-09-17T05:32:38Z</time>
      </trkpt>
      <trkpt lat="41.788595" lon="9.266127">
        <ele>952.4</ele>
        <time>2022-09-17T05:32:49Z</time>
      </trkpt>
      <trkpt lat="41.788578" lon="9.266197">
        <ele>953.4</ele>
        <time>2022-09-17T05:32:54Z</time>
      </trkpt>
      <trkpt lat="41.78857" lon="9.26639">
        <ele>956.0</ele>
        <time>2022-09-17T05:33:12Z</time>
      </trkpt>
      <trkpt lat="41.78858" lon="9.266432">
        <ele>955.4</ele>
        <time>2022-09-17T05:33:16Z</time>
      </trkpt>
      <trkpt lat="41.788645" lon="9.266457">
        <ele>956.8</ele>
        <time>2022-09-17T05:33:23Z</time>
      </trkpt>
      <trkpt lat="41.78871" lon="9.266482">
        <ele>956.4</ele>
        <time>2022-09-17T05:33:30Z</time>
      </trkpt>
      <trkpt lat="41.788785" lon="9.266638">
        <ele>956.6</ele>
        <time>2022-09-17T05:33:45Z</time>
      </trkpt>
      <trkpt lat="41.78873" lon="9.266657">
        <ele>957.0</ele>
        <time>2022-09-17T05:33:51Z</time>
      </trkpt>
      <trkpt lat="41.788492" lon="9.266615">
        <ele>957.6</ele>
        <time>2022-09-17T05:34:11Z</time>
      </trkpt>
      <trkpt lat="41.788407" lon="9.266588">
        <ele>961.2</ele>
        <time>2022-09-17T05:34:23Z</time>
      </trkpt>
      <trkpt lat="41.788382" lon="9.266565">
        <ele>962.8</ele>
        <time>2022-09-17T05:34:27Z</time>
      </trkpt>
      <trkpt lat="41.788328" lon="9.266438">
        <ele>963.0</ele>
        <time>2022-09-17T05:34:41Z</time>
      </trkpt>
      <trkpt lat="41.788272" lon="9.266392">
        <ele>963.4</ele>
        <time>2022-09-17T05:34:54Z</time>
      </trkpt>
      <trkpt lat="41.78814" lon="9.266447">
        <ele>966.8</ele>
        <time>2022-09-17T05:35:06Z</time>
      </trkpt>
      <trkpt lat="41.78806" lon="9.266468">
        <ele>968.6</ele>
        <time>2022-09-17T05:35:14Z</time>
      </trkpt>
      <trkpt lat="41.787955" lon="9.266717">
        <ele>969.8</ele>
        <time>2022-09-17T05:35:32Z</time>
      </trkpt>
      <trkpt lat="41.78796" lon="9.266725">
        <ele>970.2</ele>
        <time>2022-09-17T05:35:33Z</time>
      </trkpt>
      <trkpt lat="41.78801" lon="9.266778">
        <ele>971.8</ele>
        <time>2022-09-17T05:35:43Z</time>
      </trkpt>
      <trkpt lat="41.788053" lon="9.266803">
        <ele>972.6</ele>
        <time>2022-09-17T05:35:49Z</time>
      </trkpt>
      <trkpt lat="41.78807" lon="9.266822">
        <ele>973.2</ele>
        <time>2022-09-17T05:35:52Z</time>
      </trkpt>
      <trkpt lat="41.788075" lon="9.266875">
        <ele>974.2</ele>
        <time>2022-09-17T05:35:58Z</time>
      </trkpt>
      <trkpt lat="41.788008" lon="9.266975">
        <ele>975.2</ele>
        <time>2022-09-17T05:36:09Z</time>
      </trkpt>
      <trkpt lat="41.788047" lon="9.267113">
        <ele>974.4</ele>
        <time>2022-09-17T05:36:22Z</time>
      </trkpt>
      <trkpt lat="41.78812" lon="9.267213">
        <ele>973.0</ele>
        <time>2022-09-17T05:36:32Z</time>
      </trkpt>
      <trkpt lat="41.788123" lon="9.267225">
        <ele>972.6</ele>
        <time>2022-09-17T05:36:33Z</time>
      </trkpt>
      <trkpt lat="41.788098" lon="9.267288">
        <ele>972.4</ele>
        <time>2022-09-17T05:36:39Z</time>
      </trkpt>
      <trkpt lat="41.788073" lon="9.267355">
        <ele>971.2</ele>
        <time>2022-09-17T05:36:45Z</time>
      </trkpt>
      <trkpt lat="41.788027" lon="9.267392">
        <ele>970.6</ele>
        <time>2022-09-17T05:36:51Z</time>
      </trkpt>
      <trkpt lat="41.787997" lon="9.26742">
        <ele>970.0</ele>
        <time>2022-09-17T05:36:54Z</time>
      </trkpt>
      <trkpt lat="41.787945" lon="9.267465">
        <ele>969.0</ele>
        <time>2022-09-17T05:36:59Z</time>
      </trkpt>
      <trkpt lat="41.787898" lon="9.267487">
        <ele>968.4</ele>
        <time>2022-09-17T05:37:03Z</time>
      </trkpt>
      <trkpt lat="41.787818" lon="9.267512">
        <ele>967.6</ele>
        <time>2022-09-17T05:37:10Z</time>
      </trkpt>
      <trkpt lat="41.787732" lon="9.267523">
        <ele>967.2</ele>
        <time>2022-09-17T05:37:18Z</time>
      </trkpt>
      <trkpt lat="41.787668" lon="9.267562">
        <ele>967.2</ele>
        <time>2022-09-17T05:37:25Z</time>
      </trkpt>
      <trkpt lat="41.787635" lon="9.267585">
        <ele>967.0</ele>
        <time>2022-09-17T05:37:29Z</time>
      </trkpt>
      <trkpt lat="41.78756" lon="9.267667">
        <ele>966.8</ele>
        <time>2022-09-17T05:37:39Z</time>
      </trkpt>
      <trkpt lat="41.787597" lon="9.267805">
        <ele>965.8</ele>
        <time>2022-09-17T05:37:53Z</time>
      </trkpt>
      <trkpt lat="41.787585" lon="9.267862">
        <ele>968.4</ele>
        <time>2022-09-17T05:38:00Z</time>
      </trkpt>
      <trkpt lat="41.787602" lon="9.267937">
        <ele>968.0</ele>
        <time>2022-09-17T05:38:09Z</time>
      </trkpt>
      <trkpt lat="41.78747" lon="9.268112">
        <ele>967.6</ele>
        <time>2022-09-17T05:38:24Z</time>
      </trkpt>
      <trkpt lat="41.787352" lon="9.268258">
        <ele>966.6</ele>
        <time>2022-09-17T05:38:37Z</time>
      </trkpt>
      <trkpt lat="41.787253" lon="9.26828">
        <ele>966.4</ele>
        <time>2022-09-17T05:38:46Z</time>
      </trkpt>
      <trkpt lat="41.787222" lon="9.26832">
        <ele>965.8</ele>
        <time>2022-09-17T05:38:50Z</time>
      </trkpt>
      <trkpt lat="41.787213" lon="9.268355">
        <ele>965.8</ele>
        <time>2022-09-17T05:38:53Z</time>
      </trkpt>
      <trkpt lat="41.78722" lon="9.268412">
        <ele>966.6</ele>
        <time>2022-09-17T05:38:58Z</time>
      </trkpt>
      <trkpt lat="41.787248" lon="9.26855">
        <ele>967.4</ele>
        <time>2022-09-17T05:39:11Z</time>
      </trkpt>
      <trkpt lat="41.787347" lon="9.26867">
        <ele>965.4</ele>
        <time>2022-09-17T05:39:29Z</time>
      </trkpt>
      <trkpt lat="41.787337" lon="9.268837">
        <ele>966.0</ele>
        <time>2022-09-17T05:39:42Z</time>
      </trkpt>
      <trkpt lat="41.787355" lon="9.268943">
        <ele>965.8</ele>
        <time>2022-09-17T05:39:50Z</time>
      </trkpt>
      <trkpt lat="41.787375" lon="9.26917">
        <ele>969.4</ele>
        <time>2022-09-17T05:40:08Z</time>
      </trkpt>
      <trkpt lat="41.787388" lon="9.269205">
        <ele>970.0</ele>
        <time>2022-09-17T05:40:11Z</time>
      </trkpt>
      <trkpt lat="41.787423" lon="9.269263">
        <ele>971.0</ele>
        <time>2022-09-17T05:40:18Z</time>
      </trkpt>
      <trkpt lat="41.787438" lon="9.269315">
        <ele>970.4</ele>
        <time>2022-09-17T05:40:23Z</time>
      </trkpt>
      <trkpt lat="41.787447" lon="9.269393">
        <ele>969.8</ele>
        <time>2022-09-17T05:40:30Z</time>
      </trkpt>
      <trkpt lat="41.787427" lon="9.269443">
        <ele>969.8</ele>
        <time>2022-09-17T05:40:35Z</time>
      </trkpt>
      <trkpt lat="41.787378" lon="9.269518">
        <ele>969.0</ele>
        <time>2022-09-17T05:40:44Z</time>
      </trkpt>
      <trkpt lat="41.787362" lon="9.269555">
        <ele>969.0</ele>
        <time>2022-09-17T05:40:47Z</time>
      </trkpt>
      <trkpt lat="41.787297" lon="9.269617">
        <ele>965.0</ele>
        <time>2022-09-17T05:40:56Z</time>
      </trkpt>
      <trkpt lat="41.787145" lon="9.269707">
        <ele>964.8</ele>
        <time>2022-09-17T05:41:15Z</time>
      </trkpt>
      <trkpt lat="41.787103" lon="9.269775">
        <ele>964.2</ele>
        <time>2022-09-17T05:41:21Z</time>
      </trkpt>
      <trkpt lat="41.787052" lon="9.269885">
        <ele>962.2</ele>
        <time>2022-09-17T05:41:29Z</time>
      </trkpt>
      <trkpt lat="41.78696" lon="9.269917">
        <ele>961.0</ele>
        <time>2022-09-17T05:41:36Z</time>
      </trkpt>
      <trkpt lat="41.786837" lon="9.270288">
        <ele>959.8</ele>
        <time>2022-09-17T05:41:59Z</time>
      </trkpt>
      <trkpt lat="41.786825" lon="9.270315">
        <ele>960.2</ele>
        <time>2022-09-17T05:42:01Z</time>
      </trkpt>
      <trkpt lat="41.786808" lon="9.270367">
        <ele>961.0</ele>
        <time>2022-09-17T05:42:06Z</time>
      </trkpt>
      <trkpt lat="41.786775" lon="9.270432">
        <ele>962.6</ele>
        <time>2022-09-17T05:42:14Z</time>
      </trkpt>
      <trkpt lat="41.78678" lon="9.270463">
        <ele>962.8</ele>
        <time>2022-09-17T05:42:17Z</time>
      </trkpt>
      <trkpt lat="41.786817" lon="9.270552">
        <ele>962.8</ele>
        <time>2022-09-17T05:42:29Z</time>
      </trkpt>
      <trkpt lat="41.786838" lon="9.270622">
        <ele>962.6</ele>
        <time>2022-09-17T05:42:38Z</time>
      </trkpt>
      <trkpt lat="41.786872" lon="9.270705">
        <ele>962.4</ele>
        <time>2022-09-17T05:42:46Z</time>
      </trkpt>
      <trkpt lat="41.786878" lon="9.270715">
        <ele>962.4</ele>
        <time>2022-09-17T05:42:47Z</time>
      </trkpt>
      <trkpt lat="41.786873" lon="9.270917">
        <ele>960.6</ele>
        <time>2022-09-17T05:43:01Z</time>
      </trkpt>
      <trkpt lat="41.786865" lon="9.271137">
        <ele>958.8</ele>
        <time>2022-09-17T05:43:21Z</time>
      </trkpt>
      <trkpt lat="41.786873" lon="9.271183">
        <ele>958.0</ele>
        <time>2022-09-17T05:43:26Z</time>
      </trkpt>
      <trkpt lat="41.786833" lon="9.271333">
        <ele>955.0</ele>
        <time>2022-09-17T05:43:43Z</time>
      </trkpt>
      <trkpt lat="41.7869" lon="9.271308">
        <ele>954.4</ele>
        <time>2022-09-17T05:44:46Z</time>
      </trkpt>
      <trkpt lat="41.787118" lon="9.271678">
        <ele>954.2</ele>
        <time>2022-09-17T05:45:10Z</time>
      </trkpt>
      <trkpt lat="41.786897" lon="9.271303">
        <ele>953.8</ele>
        <time>2022-09-17T05:45:23Z</time>
      </trkpt>
      <trkpt lat="41.787063" lon="9.271985">
        <ele>949.8</ele>
        <time>2022-09-17T05:45:33Z</time>
      </trkpt>
      <trkpt lat="41.787023" lon="9.272042">
        <ele>944.8</ele>
        <time>2022-09-17T05:45:43Z</time>
      </trkpt>
      <trkpt lat="41.787025" lon="9.272165">
        <ele>944.8</ele>
        <time>2022-09-17T05:45:43Z</time>
      </trkpt>
      <trkpt lat="41.786988" lon="9.272255">
        <ele>943.2</ele>
        <time>2022-09-17T05:45:51Z</time>
      </trkpt>
      <trkpt lat="41.787007" lon="9.27229">
        <ele>943.6</ele>
        <time>2022-09-17T05:45:55Z</time>
      </trkpt>
      <trkpt lat="41.78704" lon="9.272345">
        <ele>946.8</ele>
        <time>2022-09-17T05:46:04Z</time>
      </trkpt>
      <trkpt lat="41.78705" lon="9.272388">
        <ele>945.2</ele>
        <time>2022-09-17T05:46:10Z</time>
      </trkpt>
      <trkpt lat="41.787077" lon="9.272475">
        <ele>944.6</ele>
        <time>2022-09-17T05:46:18Z</time>
      </trkpt>
      <trkpt lat="41.78714" lon="9.272547">
        <ele>943.2</ele>
        <time>2022-09-17T05:46:27Z</time>
      </trkpt>
      <trkpt lat="41.787192" lon="9.272627">
        <ele>942.6</ele>
        <time>2022-09-17T05:46:38Z</time>
      </trkpt>
      <trkpt lat="41.78724" lon="9.272677">
        <ele>942.0</ele>
        <time>2022-09-17T05:46:45Z</time>
      </trkpt>
      <trkpt lat="41.787257" lon="9.2727">
        <ele>941.8</ele>
        <time>2022-09-17T05:46:48Z</time>
      </trkpt>
      <trkpt lat="41.787265" lon="9.272732">
        <ele>941.2</ele>
        <time>2022-09-17T05:46:51Z</time>
      </trkpt>
      <trkpt lat="41.787197" lon="9.272805">
        <ele>940.2</ele>
        <time>2022-09-17T05:47:00Z</time>
      </trkpt>
      <trkpt lat="41.787107" lon="9.272865">
        <ele>938.0</ele>
        <time>2022-09-17T05:47:11Z</time>
      </trkpt>
      <trkpt lat="41.7871" lon="9.272893">
        <ele>937.8</ele>
        <time>2022-09-17T05:47:14Z</time>
      </trkpt>
      <trkpt lat="41.7871" lon="9.273">
        <ele>936.4</ele>
        <time>2022-09-17T05:47:27Z</time>
      </trkpt>
      <trkpt lat="41.787097" lon="9.273008">
        <ele>935.8</ele>
        <time>2022-09-17T05:47:28Z</time>
      </trkpt>
      <trkpt lat="41.787107" lon="9.273173">
        <ele>933.8</ele>
        <time>2022-09-17T05:47:40Z</time>
      </trkpt>
      <trkpt lat="41.78713" lon="9.273278">
        <ele>932.8</ele>
        <time>2022-09-17T05:47:47Z</time>
      </trkpt>
      <trkpt lat="41.787143" lon="9.273365">
        <ele>931.6</ele>
        <time>2022-09-17T05:47:53Z</time>
      </trkpt>
      <trkpt lat="41.787175" lon="9.27346">
        <ele>930.6</ele>
        <time>2022-09-17T05:48:00Z</time>
      </trkpt>
      <trkpt lat="41.787215" lon="9.273517">
        <ele>930.0</ele>
        <time>2022-09-17T05:48:05Z</time>
      </trkpt>
      <trkpt lat="41.78725" lon="9.273567">
        <ele>928.8</ele>
        <time>2022-09-17T05:48:10Z</time>
      </trkpt>
      <trkpt lat="41.787263" lon="9.27359">
        <ele>928.2</ele>
        <time>2022-09-17T05:48:13Z</time>
      </trkpt>
      <trkpt lat="41.787277" lon="9.273642">
        <ele>927.2</ele>
        <time>2022-09-17T05:48:17Z</time>
      </trkpt>
      <trkpt lat="41.78729" lon="9.27382">
        <ele>924.4</ele>
        <time>2022-09-17T05:48:30Z</time>
      </trkpt>
      <trkpt lat="41.787317" lon="9.273905">
        <ele>924.2</ele>
        <time>2022-09-17T05:48:37Z</time>
      </trkpt>
      <trkpt lat="41.787377" lon="9.273977">
        <ele>924.2</ele>
        <time>2022-09-17T05:48:44Z</time>
      </trkpt>
      <trkpt lat="41.787453" lon="9.274057">
        <ele>926.8</ele>
        <time>2022-09-17T05:48:53Z</time>
      </trkpt>
      <trkpt lat="41.78751" lon="9.274177">
        <ele>928.8</ele>
        <time>2022-09-17T05:49:05Z</time>
      </trkpt>
      <trkpt lat="41.787627" lon="9.274287">
        <ele>928.2</ele>
        <time>2022-09-17T05:49:23Z</time>
      </trkpt>
      <trkpt lat="41.787672" lon="9.274327">
        <ele>927.0</ele>
        <time>2022-09-17T05:49:31Z</time>
      </trkpt>
      <trkpt lat="41.78772" lon="9.274373">
        <ele>925.4</ele>
        <time>2022-09-17T05:49:40Z</time>
      </trkpt>
      <trkpt lat="41.787818" lon="9.274488">
        <ele>921.4</ele>
        <time>2022-09-17T05:49:55Z</time>
      </trkpt>
      <trkpt lat="41.787897" lon="9.274583">
        <ele>920.0</ele>
        <time>2022-09-17T05:50:04Z</time>
      </trkpt>
      <trkpt lat="41.78798" lon="9.274632">
        <ele>918.4</ele>
        <time>2022-09-17T05:50:12Z</time>
      </trkpt>
      <trkpt lat="41.788057" lon="9.27468">
        <ele>915.8</ele>
        <time>2022-09-17T05:50:20Z</time>
      </trkpt>
      <trkpt lat="41.788145" lon="9.274762">
        <ele>912.0</ele>
        <time>2022-09-17T05:50:31Z</time>
      </trkpt>
      <trkpt lat="41.788175" lon="9.274818">
        <ele>911.2</ele>
        <time>2022-09-17T05:50:37Z</time>
      </trkpt>
      <trkpt lat="41.788313" lon="9.275223">
        <ele>907.6</ele>
        <time>2022-09-17T05:51:11Z</time>
      </trkpt>
      <trkpt lat="41.788317" lon="9.275233">
        <ele>907.4</ele>
        <time>2022-09-17T05:51:12Z</time>
      </trkpt>
      <trkpt lat="41.788347" lon="9.27534">
        <ele>906.8</ele>
        <time>2022-09-17T05:51:22Z</time>
      </trkpt>
      <trkpt lat="41.788387" lon="9.275407">
        <ele>906.6</ele>
        <time>2022-09-17T05:51:30Z</time>
      </trkpt>
      <trkpt lat="41.788465" lon="9.275483">
        <ele>906.8</ele>
        <time>2022-09-17T05:51:45Z</time>
      </trkpt>
      <trkpt lat="41.788542" lon="9.275493">
        <ele>904.4</ele>
        <time>2022-09-17T05:51:53Z</time>
      </trkpt>
      <trkpt lat="41.788607" lon="9.275493">
        <ele>902.6</ele>
        <time>2022-09-17T05:52:01Z</time>
      </trkpt>
      <trkpt lat="41.788637" lon="9.275538">
        <ele>901.8</ele>
        <time>2022-09-17T05:52:06Z</time>
      </trkpt>
      <trkpt lat="41.788713" lon="9.275765">
        <ele>899.6</ele>
        <time>2022-09-17T05:52:22Z</time>
      </trkpt>
      <trkpt lat="41.788723" lon="9.275813">
        <ele>899.4</ele>
        <time>2022-09-17T05:52:26Z</time>
      </trkpt>
      <trkpt lat="41.78876" lon="9.275893">
        <ele>899.4</ele>
        <time>2022-09-17T05:52:32Z</time>
      </trkpt>
      <trkpt lat="41.788835" lon="9.276022">
        <ele>898.8</ele>
        <time>2022-09-17T05:52:43Z</time>
      </trkpt>
      <trkpt lat="41.788863" lon="9.276118">
        <ele>898.2</ele>
        <time>2022-09-17T05:52:51Z</time>
      </trkpt>
      <trkpt lat="41.78884" lon="9.276347">
        <ele>897.8</ele>
        <time>2022-09-17T05:53:04Z</time>
      </trkpt>
      <trkpt lat="41.788815" lon="9.276438">
        <ele>897.8</ele>
        <time>2022-09-17T05:53:09Z</time>
      </trkpt>
      <trkpt lat="41.788785" lon="9.27649">
        <ele>897.2</ele>
        <time>2022-09-17T05:53:14Z</time>
      </trkpt>
      <trkpt lat="41.78875" lon="9.276543">
        <ele>896.6</ele>
        <time>2022-09-17T05:53:19Z</time>
      </trkpt>
      <trkpt lat="41.788757" lon="9.27658">
        <ele>896.4</ele>
        <time>2022-09-17T05:53:22Z</time>
      </trkpt>
      <trkpt lat="41.788792" lon="9.276638">
        <ele>895.8</ele>
        <time>2022-09-17T05:53:28Z</time>
      </trkpt>
      <trkpt lat="41.788888" lon="9.27671">
        <ele>894.0</ele>
        <time>2022-09-17T05:53:44Z</time>
      </trkpt>
      <trkpt lat="41.788932" lon="9.276747">
        <ele>892.8</ele>
        <time>2022-09-17T05:53:52Z</time>
      </trkpt>
      <trkpt lat="41.788998" lon="9.276812">
        <ele>892.6</ele>
        <time>2022-09-17T05:54:04Z</time>
      </trkpt>
      <trkpt lat="41.78903" lon="9.276988">
        <ele>896.6</ele>
        <time>2022-09-17T05:54:25Z</time>
      </trkpt>
      <trkpt lat="41.78907" lon="9.277122">
        <ele>896.8</ele>
        <time>2022-09-17T05:54:36Z</time>
      </trkpt>
      <trkpt lat="41.789108" lon="9.277172">
        <ele>896.2</ele>
        <time>2022-09-17T05:54:44Z</time>
      </trkpt>
      <trkpt lat="41.789143" lon="9.277222">
        <ele>894.8</ele>
        <time>2022-09-17T05:54:50Z</time>
      </trkpt>
      <trkpt lat="41.789155" lon="9.277265">
        <ele>894.2</ele>
        <time>2022-09-17T05:54:54Z</time>
      </trkpt>
      <trkpt lat="41.789172" lon="9.277338">
        <ele>895.0</ele>
        <time>2022-09-17T05:55:00Z</time>
      </trkpt>
      <trkpt lat="41.789293" lon="9.277472">
        <ele>892.8</ele>
        <time>2022-09-17T05:55:19Z</time>
      </trkpt>
      <trkpt lat="41.789368" lon="9.277488">
        <ele>888.2</ele>
        <time>2022-09-17T05:55:30Z</time>
      </trkpt>
      <trkpt lat="41.789425" lon="9.277503">
        <ele>886.8</ele>
        <time>2022-09-17T05:55:35Z</time>
      </trkpt>
      <trkpt lat="41.789493" lon="9.277555">
        <ele>885.6</ele>
        <time>2022-09-17T05:55:41Z</time>
      </trkpt>
      <trkpt lat="41.789605" lon="9.277622">
        <ele>885.0</ele>
        <time>2022-09-17T05:55:49Z</time>
      </trkpt>
      <trkpt lat="41.78968" lon="9.277648">
        <ele>886.8</ele>
        <time>2022-09-17T05:55:54Z</time>
      </trkpt>
      <trkpt lat="41.789803" lon="9.277743">
        <ele>887.6</ele>
        <time>2022-09-17T05:56:04Z</time>
      </trkpt>
      <trkpt lat="41.78992" lon="9.277868">
        <ele>890.8</ele>
        <time>2022-09-17T05:56:14Z</time>
      </trkpt>
      <trkpt lat="41.789928" lon="9.277878">
        <ele>891.0</ele>
        <time>2022-09-17T05:56:15Z</time>
      </trkpt>
      <trkpt lat="41.789957" lon="9.277947">
        <ele>891.0</ele>
        <time>2022-09-17T05:56:21Z</time>
      </trkpt>
      <trkpt lat="41.79001" lon="9.278122">
        <ele>889.8</ele>
        <time>2022-09-17T05:56:34Z</time>
      </trkpt>
      <trkpt lat="41.79003" lon="9.278188">
        <ele>890.2</ele>
        <time>2022-09-17T05:56:40Z</time>
      </trkpt>
      <trkpt lat="41.79006" lon="9.278237">
        <ele>891.2</ele>
        <time>2022-09-17T05:56:45Z</time>
      </trkpt>
      <trkpt lat="41.790083" lon="9.278257">
        <ele>891.4</ele>
        <time>2022-09-17T05:56:48Z</time>
      </trkpt>
      <trkpt lat="41.790082" lon="9.278325">
        <ele>892.0</ele>
        <time>2022-09-17T05:56:54Z</time>
      </trkpt>
      <trkpt lat="41.790053" lon="9.2784">
        <ele>893.4</ele>
        <time>2022-09-17T05:57:01Z</time>
      </trkpt>
      <trkpt lat="41.790102" lon="9.278532">
        <ele>894.2</ele>
        <time>2022-09-17T05:57:12Z</time>
      </trkpt>
      <trkpt lat="41.790075" lon="9.278568">
        <ele>894.4</ele>
        <time>2022-09-17T05:57:18Z</time>
      </trkpt>
      <trkpt lat="41.79007" lon="9.278573">
        <ele>894.4</ele>
        <time>2022-09-17T05:57:19Z</time>
      </trkpt>
      <trkpt lat="41.790117" lon="9.278623">
        <ele>895.4</ele>
        <time>2022-09-17T05:57:26Z</time>
      </trkpt>
      <trkpt lat="41.790148" lon="9.278663">
        <ele>895.4</ele>
        <time>2022-09-17T05:57:30Z</time>
      </trkpt>
      <trkpt lat="41.790217" lon="9.27882">
        <ele>895.2</ele>
        <time>2022-09-17T05:57:42Z</time>
      </trkpt>
      <trkpt lat="41.790312" lon="9.278932">
        <ele>896.2</ele>
        <time>2022-09-17T05:57:53Z</time>
      </trkpt>
      <trkpt lat="41.790417" lon="9.279023">
        <ele>897.6</ele>
        <time>2022-09-17T05:58:04Z</time>
      </trkpt>
      <trkpt lat="41.790445" lon="9.279073">
        <ele>898.8</ele>
        <time>2022-09-17T05:58:08Z</time>
      </trkpt>
      <trkpt lat="41.790488" lon="9.279205">
        <ele>898.2</ele>
        <time>2022-09-17T05:58:19Z</time>
      </trkpt>
      <trkpt lat="41.790522" lon="9.279268">
        <ele>899.0</ele>
        <time>2022-09-17T05:58:27Z</time>
      </trkpt>
      <trkpt lat="41.790542" lon="9.27934">
        <ele>898.0</ele>
        <time>2022-09-17T05:58:33Z</time>
      </trkpt>
      <trkpt lat="41.79057" lon="9.279383">
        <ele>900.0</ele>
        <time>2022-09-17T05:58:38Z</time>
      </trkpt>
      <trkpt lat="41.79061" lon="9.27944">
        <ele>900.4</ele>
        <time>2022-09-17T05:58:45Z</time>
      </trkpt>
      <trkpt lat="41.790623" lon="9.279482">
        <ele>899.8</ele>
        <time>2022-09-17T05:58:49Z</time>
      </trkpt>
      <trkpt lat="41.790608" lon="9.279575">
        <ele>900.4</ele>
        <time>2022-09-17T05:58:57Z</time>
      </trkpt>
      <trkpt lat="41.790553" lon="9.279765">
        <ele>902.2</ele>
        <time>2022-09-17T05:59:12Z</time>
      </trkpt>
      <trkpt lat="41.790518" lon="9.279895">
        <ele>903.6</ele>
        <time>2022-09-17T05:59:23Z</time>
      </trkpt>
      <trkpt lat="41.790482" lon="9.279943">
        <ele>904.0</ele>
        <time>2022-09-17T05:59:29Z</time>
      </trkpt>
      <trkpt lat="41.790467" lon="9.279953">
        <ele>904.0</ele>
        <time>2022-09-17T05:59:31Z</time>
      </trkpt>
      <trkpt lat="41.79041" lon="9.280047">
        <ele>903.8</ele>
        <time>2022-09-17T05:59:40Z</time>
      </trkpt>
      <trkpt lat="41.790392" lon="9.280125">
        <ele>903.6</ele>
        <time>2022-09-17T05:59:46Z</time>
      </trkpt>
      <trkpt lat="41.790367" lon="9.28031">
        <ele>904.4</ele>
        <time>2022-09-17T06:00:00Z</time>
      </trkpt>
      <trkpt lat="41.79035" lon="9.280387">
        <ele>903.4</ele>
        <time>2022-09-17T06:00:06Z</time>
      </trkpt>
      <trkpt lat="41.790325" lon="9.280458">
        <ele>902.2</ele>
        <time>2022-09-17T06:00:12Z</time>
      </trkpt>
      <trkpt lat="41.790318" lon="9.280505">
        <ele>901.2</ele>
        <time>2022-09-17T06:00:17Z</time>
      </trkpt>
      <trkpt lat="41.790392" lon="9.280638">
        <ele>899.2</ele>
        <time>2022-09-17T06:00:30Z</time>
      </trkpt>
      <trkpt lat="41.790378" lon="9.28068">
        <ele>898.8</ele>
        <time>2022-09-17T06:00:34Z</time>
      </trkpt>
      <trkpt lat="41.79033" lon="9.28076">
        <ele>898.2</ele>
        <time>2022-09-17T06:00:42Z</time>
      </trkpt>
      <trkpt lat="41.79033" lon="9.280772">
        <ele>897.8</ele>
        <time>2022-09-17T06:00:43Z</time>
      </trkpt>
      <trkpt lat="41.790312" lon="9.280818">
        <ele>897.0</ele>
        <time>2022-09-17T06:00:49Z</time>
      </trkpt>
      <trkpt lat="41.790283" lon="9.280872">
        <ele>897.2</ele>
        <time>2022-09-17T06:00:56Z</time>
      </trkpt>
      <trkpt lat="41.790248" lon="9.280947">
        <ele>896.2</ele>
        <time>2022-09-17T06:01:05Z</time>
      </trkpt>
      <trkpt lat="41.790218" lon="9.280973">
        <ele>895.6</ele>
        <time>2022-09-17T06:01:10Z</time>
      </trkpt>
      <trkpt lat="41.790185" lon="9.281">
        <ele>894.8</ele>
        <time>2022-09-17T06:01:16Z</time>
      </trkpt>
      <trkpt lat="41.790127" lon="9.28107">
        <ele>894.8</ele>
        <time>2022-09-17T06:01:24Z</time>
      </trkpt>
      <trkpt lat="41.790053" lon="9.281122">
        <ele>894.2</ele>
        <time>2022-09-17T06:01:32Z</time>
      </trkpt>
      <trkpt lat="41.789923" lon="9.281115">
        <ele>895.6</ele>
        <time>2022-09-17T06:01:43Z</time>
      </trkpt>
      <trkpt lat="41.789805" lon="9.281135">
        <ele>894.4</ele>
        <time>2022-09-17T06:01:52Z</time>
      </trkpt>
      <trkpt lat="41.789693" lon="9.281128">
        <ele>893.0</ele>
        <time>2022-09-17T06:02:06Z</time>
      </trkpt>
      <trkpt lat="41.789673" lon="9.281072">
        <ele>891.8</ele>
        <time>2022-09-17T06:02:14Z</time>
      </trkpt>
      <trkpt lat="41.789662" lon="9.281065">
        <ele>891.8</ele>
        <time>2022-09-17T06:02:15Z</time>
      </trkpt>
      <trkpt lat="41.789622" lon="9.281122">
        <ele>891.2</ele>
        <time>2022-09-17T06:02:22Z</time>
      </trkpt>
      <trkpt lat="41.789498" lon="9.281223">
        <ele>889.2</ele>
        <time>2022-09-17T06:02:38Z</time>
      </trkpt>
      <trkpt lat="41.789448" lon="9.281283">
        <ele>888.0</ele>
        <time>2022-09-17T06:02:45Z</time>
      </trkpt>
      <trkpt lat="41.789398" lon="9.28138">
        <ele>886.4</ele>
        <time>2022-09-17T06:02:56Z</time>
      </trkpt>
      <trkpt lat="41.789393" lon="9.281388">
        <ele>886.4</ele>
        <time>2022-09-17T06:02:57Z</time>
      </trkpt>
      <trkpt lat="41.78923" lon="9.281418">
        <ele>884.8</ele>
        <time>2022-09-17T06:03:20Z</time>
      </trkpt>
      <trkpt lat="41.789163" lon="9.281347">
        <ele>883.2</ele>
        <time>2022-09-17T06:03:44Z</time>
      </trkpt>
      <trkpt lat="41.789113" lon="9.28133">
        <ele>882.6</ele>
        <time>2022-09-17T06:03:49Z</time>
      </trkpt>
      <trkpt lat="41.789077" lon="9.281368">
        <ele>882.0</ele>
        <time>2022-09-17T06:03:56Z</time>
      </trkpt>
      <trkpt lat="41.78905" lon="9.28138">
        <ele>881.8</ele>
        <time>2022-09-17T06:04:00Z</time>
      </trkpt>
      <trkpt lat="41.789003" lon="9.281363">
        <ele>881.8</ele>
        <time>2022-09-17T06:04:07Z</time>
      </trkpt>
      <trkpt lat="41.788918" lon="9.281392">
        <ele>882.4</ele>
        <time>2022-09-17T06:04:19Z</time>
      </trkpt>
      <trkpt lat="41.788912" lon="9.281398">
        <ele>882.4</ele>
        <time>2022-09-17T06:04:20Z</time>
      </trkpt>
      <trkpt lat="41.78888" lon="9.281423">
        <ele>883.0</ele>
        <time>2022-09-17T06:04:26Z</time>
      </trkpt>
      <trkpt lat="41.788837" lon="9.28143">
        <ele>883.2</ele>
        <time>2022-09-17T06:04:32Z</time>
      </trkpt>
      <trkpt lat="41.788787" lon="9.28141">
        <ele>881.4</ele>
        <time>2022-09-17T06:04:39Z</time>
      </trkpt>
      <trkpt lat="41.788723" lon="9.281382">
        <ele>878.8</ele>
        <time>2022-09-17T06:04:48Z</time>
      </trkpt>
      <trkpt lat="41.78868" lon="9.28139">
        <ele>877.8</ele>
        <time>2022-09-17T06:04:54Z</time>
      </trkpt>
      <trkpt lat="41.788667" lon="9.281397">
        <ele>877.4</ele>
        <time>2022-09-17T06:04:56Z</time>
      </trkpt>
      <trkpt lat="41.788628" lon="9.281398">
        <ele>877.6</ele>
        <time>2022-09-17T06:05:03Z</time>
      </trkpt>
      <trkpt lat="41.788578" lon="9.281427">
        <ele>877.4</ele>
        <time>2022-09-17T06:05:11Z</time>
      </trkpt>
      <trkpt lat="41.788517" lon="9.281413">
        <ele>875.6</ele>
        <time>2022-09-17T06:05:22Z</time>
      </trkpt>
      <trkpt lat="41.788345" lon="9.281407">
        <ele>870.4</ele>
        <time>2022-09-17T06:05:57Z</time>
      </trkpt>
      <trkpt lat="41.788342" lon="9.281383">
        <ele>869.6</ele>
        <time>2022-09-17T06:06:06Z</time>
      </trkpt>
      <trkpt lat="41.78831" lon="9.281383">
        <ele>870.8</ele>
        <time>2022-09-17T06:06:16Z</time>
      </trkpt>
      <trkpt lat="41.788222" lon="9.28141">
        <ele>870.0</ele>
        <time>2022-09-17T06:06:27Z</time>
      </trkpt>
      <trkpt lat="41.78796" lon="9.281522">
        <ele>870.0</ele>
        <time>2022-09-17T06:06:37Z</time>
      </trkpt>
      <trkpt lat="41.787853" lon="9.281525">
        <ele>869.4</ele>
        <time>2022-09-17T06:06:43Z</time>
      </trkpt>
      <trkpt lat="41.78768" lon="9.281558">
        <ele>867.6</ele>
        <time>2022-09-17T06:06:56Z</time>
      </trkpt>
      <trkpt lat="41.787618" lon="9.281548">
        <ele>866.8</ele>
        <time>2022-09-17T06:07:00Z</time>
      </trkpt>
      <trkpt lat="41.787513" lon="9.281485">
        <ele>865.4</ele>
        <time>2022-09-17T06:07:08Z</time>
      </trkpt>
      <trkpt lat="41.787455" lon="9.281445">
        <ele>866.4</ele>
        <time>2022-09-17T06:07:13Z</time>
      </trkpt>
      <trkpt lat="41.787427" lon="9.28142">
        <ele>866.6</ele>
        <time>2022-09-17T06:07:15Z</time>
      </trkpt>
      <trkpt lat="41.78747" lon="9.281382">
        <ele>866.6</ele>
        <time>2022-09-17T06:07:19Z</time>
      </trkpt>
      <trkpt lat="41.787398" lon="9.281407">
        <ele>864.8</ele>
        <time>2022-09-17T06:07:27Z</time>
      </trkpt>
      <trkpt lat="41.787265" lon="9.28148">
        <ele>863.2</ele>
        <time>2022-09-17T06:07:36Z</time>
      </trkpt>
      <trkpt lat="41.787238" lon="9.281537">
        <ele>862.6</ele>
        <time>2022-09-17T06:07:39Z</time>
      </trkpt>
      <trkpt lat="41.787225" lon="9.281605">
        <ele>862.4</ele>
        <time>2022-09-17T06:07:42Z</time>
      </trkpt>
      <trkpt lat="41.787268" lon="9.281637">
        <ele>861.4</ele>
        <time>2022-09-17T06:07:49Z</time>
      </trkpt>
      <trkpt lat="41.787297" lon="9.28168">
        <ele>860.4</ele>
        <time>2022-09-17T06:07:54Z</time>
      </trkpt>
      <trkpt lat="41.787325" lon="9.281725">
        <ele>859.8</ele>
        <time>2022-09-17T06:07:59Z</time>
      </trkpt>
      <trkpt lat="41.787417" lon="9.281775">
        <ele>862.0</ele>
        <time>2022-09-17T06:08:26Z</time>
      </trkpt>
      <trkpt lat="41.787763" lon="9.28229">
        <ele>862.8</ele>
        <time>2022-09-17T06:12:18Z</time>
      </trkpt>
      <trkpt lat="41.787735" lon="9.282242">
        <ele>862.6</ele>
        <time>2022-09-17T06:12:45Z</time>
      </trkpt>
      <trkpt lat="41.78736" lon="9.281823">
        <ele>861.4</ele>
        <time>2022-09-17T06:14:41Z</time>
      </trkpt>
      <trkpt lat="41.787335" lon="9.28172">
        <ele>862.6</ele>
        <time>2022-09-17T06:14:47Z</time>
      </trkpt>
      <trkpt lat="41.787255" lon="9.281678">
        <ele>865.0</ele>
        <time>2022-09-17T06:14:55Z</time>
      </trkpt>
      <trkpt lat="41.787098" lon="9.281632">
        <ele>865.2</ele>
        <time>2022-09-17T06:15:12Z</time>
      </trkpt>
      <trkpt lat="41.787087" lon="9.281632">
        <ele>865.0</ele>
        <time>2022-09-17T06:15:14Z</time>
      </trkpt>
      <trkpt lat="41.786977" lon="9.281605">
        <ele>863.8</ele>
        <time>2022-09-17T06:15:22Z</time>
      </trkpt>
      <trkpt lat="41.786917" lon="9.281577">
        <ele>863.6</ele>
        <time>2022-09-17T06:15:26Z</time>
      </trkpt>
      <trkpt lat="41.786915" lon="9.281433">
        <ele>862.8</ele>
        <time>2022-09-17T06:15:33Z</time>
      </trkpt>
      <trkpt lat="41.786842" lon="9.281447">
        <ele>861.4</ele>
        <time>2022-09-17T06:15:39Z</time>
      </trkpt>
      <trkpt lat="41.786792" lon="9.281455">
        <ele>860.6</ele>
        <time>2022-09-17T06:15:43Z</time>
      </trkpt>
      <trkpt lat="41.786755" lon="9.281368">
        <ele>860.0</ele>
        <time>2022-09-17T06:15:48Z</time>
      </trkpt>
      <trkpt lat="41.786687" lon="9.281305">
        <ele>859.2</ele>
        <time>2022-09-17T06:15:54Z</time>
      </trkpt>
      <trkpt lat="41.786615" lon="9.281248">
        <ele>859.4</ele>
        <time>2022-09-17T06:16:00Z</time>
      </trkpt>
      <trkpt lat="41.78659" lon="9.281202">
        <ele>859.4</ele>
        <time>2022-09-17T06:16:03Z</time>
      </trkpt>
      <trkpt lat="41.78658" lon="9.281148">
        <ele>859.4</ele>
        <time>2022-09-17T06:16:06Z</time>
      </trkpt>
      <trkpt lat="41.786545" lon="9.281133">
        <ele>859.6</ele>
        <time>2022-09-17T06:16:11Z</time>
      </trkpt>
      <trkpt lat="41.786505" lon="9.281138">
        <ele>859.6</ele>
        <time>2022-09-17T06:16:17Z</time>
      </trkpt>
      <trkpt lat="41.78642" lon="9.28111">
        <ele>858.6</ele>
        <time>2022-09-17T06:16:32Z</time>
      </trkpt>
      <trkpt lat="41.786375" lon="9.28109">
        <ele>858.8</ele>
        <time>2022-09-17T06:16:40Z</time>
      </trkpt>
      <trkpt lat="41.786307" lon="9.281092">
        <ele>859.8</ele>
        <time>2022-09-17T06:16:50Z</time>
      </trkpt>
      <trkpt lat="41.786118" lon="9.281078">
        <ele>863.0</ele>
        <time>2022-09-17T06:17:08Z</time>
      </trkpt>
      <trkpt lat="41.786063" lon="9.281107">
        <ele>864.2</ele>
        <time>2022-09-17T06:17:14Z</time>
      </trkpt>
      <trkpt lat="41.785968" lon="9.281193">
        <ele>865.8</ele>
        <time>2022-09-17T06:17:27Z</time>
      </trkpt>
      <trkpt lat="41.78593" lon="9.281202">
        <ele>865.4</ele>
        <time>2022-09-17T06:17:32Z</time>
      </trkpt>
      <trkpt lat="41.785862" lon="9.28122">
        <ele>864.8</ele>
        <time>2022-09-17T06:17:41Z</time>
      </trkpt>
      <trkpt lat="41.785842" lon="9.28122">
        <ele>864.8</ele>
        <time>2022-09-17T06:17:43Z</time>
      </trkpt>
      <trkpt lat="41.78579" lon="9.281242">
        <ele>865.4</ele>
        <time>2022-09-17T06:17:48Z</time>
      </trkpt>
      <trkpt lat="41.785762" lon="9.281278">
        <ele>866.0</ele>
        <time>2022-09-17T06:17:52Z</time>
      </trkpt>
      <trkpt lat="41.785723" lon="9.28132">
        <ele>866.4</ele>
        <time>2022-09-17T06:17:57Z</time>
      </trkpt>
      <trkpt lat="41.785665" lon="9.281355">
        <ele>866.2</ele>
        <time>2022-09-17T06:18:04Z</time>
      </trkpt>
      <trkpt lat="41.785563" lon="9.281407">
        <ele>866.6</ele>
        <time>2022-09-17T06:18:15Z</time>
      </trkpt>
      <trkpt lat="41.785527" lon="9.281375">
        <ele>866.2</ele>
        <time>2022-09-17T06:18:20Z</time>
      </trkpt>
      <trkpt lat="41.785487" lon="9.281342">
        <ele>866.0</ele>
        <time>2022-09-17T06:18:25Z</time>
      </trkpt>
      <trkpt lat="41.785412" lon="9.281318">
        <ele>867.2</ele>
        <time>2022-09-17T06:18:33Z</time>
      </trkpt>
      <trkpt lat="41.785362" lon="9.281325">
        <ele>866.4</ele>
        <time>2022-09-17T06:18:40Z</time>
      </trkpt>
      <trkpt lat="41.785332" lon="9.281325">
        <ele>866.2</ele>
        <time>2022-09-17T06:18:44Z</time>
      </trkpt>
      <trkpt lat="41.785262" lon="9.281317">
        <ele>865.4</ele>
        <time>2022-09-17T06:18:53Z</time>
      </trkpt>
      <trkpt lat="41.785172" lon="9.281337">
        <ele>865.2</ele>
        <time>2022-09-17T06:19:06Z</time>
      </trkpt>
      <trkpt lat="41.785057" lon="9.281408">
        <ele>864.8</ele>
        <time>2022-09-17T06:19:23Z</time>
      </trkpt>
      <trkpt lat="41.78502" lon="9.281433">
        <ele>864.4</ele>
        <time>2022-09-17T06:19:30Z</time>
      </trkpt>
      <trkpt lat="41.784958" lon="9.281462">
        <ele>864.6</ele>
        <time>2022-09-17T06:19:39Z</time>
      </trkpt>
      <trkpt lat="41.7849" lon="9.281508">
        <ele>866.2</ele>
        <time>2022-09-17T06:19:50Z</time>
      </trkpt>
      <trkpt lat="41.784858" lon="9.281517">
        <ele>867.2</ele>
        <time>2022-09-17T06:19:58Z</time>
      </trkpt>
      <trkpt lat="41.784853" lon="9.281515">
        <ele>867.2</ele>
        <time>2022-09-17T06:19:59Z</time>
      </trkpt>
      <trkpt lat="41.784708" lon="9.281472">
        <ele>869.6</ele>
        <time>2022-09-17T06:20:19Z</time>
      </trkpt>
      <trkpt lat="41.784673" lon="9.281427">
        <ele>870.8</ele>
        <time>2022-09-17T06:20:25Z</time>
      </trkpt>
      <trkpt lat="41.784635" lon="9.281368">
        <ele>872.0</ele>
        <time>2022-09-17T06:20:31Z</time>
      </trkpt>
      <trkpt lat="41.784398" lon="9.28136">
        <ele>876.0</ele>
        <time>2022-09-17T06:20:58Z</time>
      </trkpt>
      <trkpt lat="41.784352" lon="9.281337">
        <ele>875.8</ele>
        <time>2022-09-17T06:21:04Z</time>
      </trkpt>
      <trkpt lat="41.784277" lon="9.28136">
        <ele>875.4</ele>
        <time>2022-09-17T06:21:15Z</time>
      </trkpt>
      <trkpt lat="41.784262" lon="9.281357">
        <ele>875.0</ele>
        <time>2022-09-17T06:21:17Z</time>
      </trkpt>
      <trkpt lat="41.784225" lon="9.28132">
        <ele>875.0</ele>
        <time>2022-09-17T06:21:23Z</time>
      </trkpt>
      <trkpt lat="41.7842" lon="9.281318">
        <ele>875.4</ele>
        <time>2022-09-17T06:21:26Z</time>
      </trkpt>
      <trkpt lat="41.784085" lon="9.281382">
        <ele>877.8</ele>
        <time>2022-09-17T06:21:43Z</time>
      </trkpt>
      <trkpt lat="41.783968" lon="9.281372">
        <ele>880.4</ele>
        <time>2022-09-17T06:22:00Z</time>
      </trkpt>
      <trkpt lat="41.783885" lon="9.281395">
        <ele>881.2</ele>
        <time>2022-09-17T06:22:13Z</time>
      </trkpt>
      <trkpt lat="41.783872" lon="9.281393">
        <ele>881.6</ele>
        <time>2022-09-17T06:22:15Z</time>
      </trkpt>
      <trkpt lat="41.78388" lon="9.281453">
        <ele>883.2</ele>
        <time>2022-09-17T06:22:23Z</time>
      </trkpt>
      <trkpt lat="41.783858" lon="9.281567">
        <ele>887.2</ele>
        <time>2022-09-17T06:22:37Z</time>
      </trkpt>
      <trkpt lat="41.783835" lon="9.281555">
        <ele>888.2</ele>
        <time>2022-09-17T06:22:42Z</time>
      </trkpt>
      <trkpt lat="41.7838" lon="9.281513">
        <ele>888.4</ele>
        <time>2022-09-17T06:22:49Z</time>
      </trkpt>
      <trkpt lat="41.783752" lon="9.281453">
        <ele>889.0</ele>
        <time>2022-09-17T06:22:58Z</time>
      </trkpt>
      <trkpt lat="41.783753" lon="9.281445">
        <ele>889.4</ele>
        <time>2022-09-17T06:22:59Z</time>
      </trkpt>
      <trkpt lat="41.783822" lon="9.28141">
        <ele>891.6</ele>
        <time>2022-09-17T06:23:12Z</time>
      </trkpt>
      <trkpt lat="41.78384" lon="9.281353">
        <ele>893.0</ele>
        <time>2022-09-17T06:23:20Z</time>
      </trkpt>
      <trkpt lat="41.783887" lon="9.281307">
        <ele>894.2</ele>
        <time>2022-09-17T06:23:27Z</time>
      </trkpt>
      <trkpt lat="41.783847" lon="9.281292">
        <ele>894.4</ele>
        <time>2022-09-17T06:23:31Z</time>
      </trkpt>
      <trkpt lat="41.783733" lon="9.281292">
        <ele>895.4</ele>
        <time>2022-09-17T06:23:41Z</time>
      </trkpt>
      <trkpt lat="41.783713" lon="9.28125">
        <ele>895.6</ele>
        <time>2022-09-17T06:23:47Z</time>
      </trkpt>
      <trkpt lat="41.78369" lon="9.281215">
        <ele>897.0</ele>
        <time>2022-09-17T06:24:02Z</time>
      </trkpt>
      <trkpt lat="41.783712" lon="9.281148">
        <ele>901.8</ele>
        <time>2022-09-17T06:24:36Z</time>
      </trkpt>
      <trkpt lat="41.783708" lon="9.281142">
        <ele>901.8</ele>
        <time>2022-09-17T06:24:37Z</time>
      </trkpt>
      <trkpt lat="41.783688" lon="9.281168">
        <ele>902.2</ele>
        <time>2022-09-17T06:24:46Z</time>
      </trkpt>
      <trkpt lat="41.78366" lon="9.281198">
        <ele>905.0</ele>
        <time>2022-09-17T06:25:00Z</time>
      </trkpt>
      <trkpt lat="41.783568" lon="9.281257">
        <ele>910.0</ele>
        <time>2022-09-17T06:25:41Z</time>
      </trkpt>
      <trkpt lat="41.783497" lon="9.281267">
        <ele>912.2</ele>
        <time>2022-09-17T06:25:51Z</time>
      </trkpt>
      <trkpt lat="41.783453" lon="9.281282">
        <ele>913.2</ele>
        <time>2022-09-17T06:25:57Z</time>
      </trkpt>
      <trkpt lat="41.78342" lon="9.281302">
        <ele>914.2</ele>
        <time>2022-09-17T06:26:03Z</time>
      </trkpt>
      <trkpt lat="41.783337" lon="9.281293">
        <ele>915.4</ele>
        <time>2022-09-17T06:26:14Z</time>
      </trkpt>
      <trkpt lat="41.783255" lon="9.281307">
        <ele>916.2</ele>
        <time>2022-09-17T06:26:24Z</time>
      </trkpt>
      <trkpt lat="41.783195" lon="9.28128">
        <ele>916.0</ele>
        <time>2022-09-17T06:26:30Z</time>
      </trkpt>
      <trkpt lat="41.783147" lon="9.281262">
        <ele>916.2</ele>
        <time>2022-09-17T06:26:36Z</time>
      </trkpt>
      <trkpt lat="41.783095" lon="9.281287">
        <ele>917.8</ele>
        <time>2022-09-17T06:26:42Z</time>
      </trkpt>
      <trkpt lat="41.78302" lon="9.281333">
        <ele>919.8</ele>
        <time>2022-09-17T06:26:51Z</time>
      </trkpt>
      <trkpt lat="41.782977" lon="9.281335">
        <ele>920.8</ele>
        <time>2022-09-17T06:26:55Z</time>
      </trkpt>
      <trkpt lat="41.782922" lon="9.281355">
        <ele>921.2</ele>
        <time>2022-09-17T06:27:01Z</time>
      </trkpt>
      <trkpt lat="41.782912" lon="9.281353">
        <ele>921.4</ele>
        <time>2022-09-17T06:27:02Z</time>
      </trkpt>
      <trkpt lat="41.782823" lon="9.281377">
        <ele>922.4</ele>
        <time>2022-09-17T06:27:12Z</time>
      </trkpt>
      <trkpt lat="41.78278" lon="9.281382">
        <ele>922.4</ele>
        <time>2022-09-17T06:27:17Z</time>
      </trkpt>
      <trkpt lat="41.78272" lon="9.28139">
        <ele>922.8</ele>
        <time>2022-09-17T06:27:25Z</time>
      </trkpt>
      <trkpt lat="41.782678" lon="9.28142">
        <ele>923.4</ele>
        <time>2022-09-17T06:27:30Z</time>
      </trkpt>
      <trkpt lat="41.782667" lon="9.2814">
        <ele>923.8</ele>
        <time>2022-09-17T06:27:33Z</time>
      </trkpt>
      <trkpt lat="41.78265" lon="9.281337">
        <ele>925.2</ele>
        <time>2022-09-17T06:27:41Z</time>
      </trkpt>
      <trkpt lat="41.782625" lon="9.281282">
        <ele>926.2</ele>
        <time>2022-09-17T06:27:52Z</time>
      </trkpt>
      <trkpt lat="41.782618" lon="9.281247">
        <ele>927.0</ele>
        <time>2022-09-17T06:27:59Z</time>
      </trkpt>
      <trkpt lat="41.782605" lon="9.28122">
        <ele>928.4</ele>
        <time>2022-09-17T06:28:07Z</time>
      </trkpt>
      <trkpt lat="41.782578" lon="9.281227">
        <ele>930.2</ele>
        <time>2022-09-17T06:28:24Z</time>
      </trkpt>
      <trkpt lat="41.7826" lon="9.281103">
        <ele>935.8</ele>
        <time>2022-09-17T06:28:57Z</time>
      </trkpt>
      <trkpt lat="41.7826" lon="9.28111">
        <ele>935.8</ele>
        <time>2022-09-17T06:28:57Z</time>
      </trkpt>
      <trkpt lat="41.782613" lon="9.281297">
        <ele>938.0</ele>
        <time>2022-09-17T06:29:29Z</time>
      </trkpt>
      <trkpt lat="41.782488" lon="9.28137">
        <ele>942.6</ele>
        <time>2022-09-17T06:29:50Z</time>
      </trkpt>
      <trkpt lat="41.78244" lon="9.281463">
        <ele>944.4</ele>
        <time>2022-09-17T06:29:58Z</time>
      </trkpt>
      <trkpt lat="41.782428" lon="9.28147">
        <ele>944.4</ele>
        <time>2022-09-17T06:29:59Z</time>
      </trkpt>
      <trkpt lat="41.782423" lon="9.2814">
        <ele>945.6</ele>
        <time>2022-09-17T06:30:08Z</time>
      </trkpt>
      <trkpt lat="41.782407" lon="9.281362">
        <ele>946.2</ele>
        <time>2022-09-17T06:30:15Z</time>
      </trkpt>
      <trkpt lat="41.782397" lon="9.281327">
        <ele>947.0</ele>
        <time>2022-09-17T06:30:20Z</time>
      </trkpt>
      <trkpt lat="41.782352" lon="9.281285">
        <ele>948.0</ele>
        <time>2022-09-17T06:30:29Z</time>
      </trkpt>
      <trkpt lat="41.782302" lon="9.281228">
        <ele>949.2</ele>
        <time>2022-09-17T06:30:50Z</time>
      </trkpt>
      <trkpt lat="41.782272" lon="9.281225">
        <ele>951.0</ele>
        <time>2022-09-17T06:31:06Z</time>
      </trkpt>
      <trkpt lat="41.78227" lon="9.281223">
        <ele>951.2</ele>
        <time>2022-09-17T06:31:09Z</time>
      </trkpt>
      <trkpt lat="41.782223" lon="9.281328">
        <ele>953.6</ele>
        <time>2022-09-17T06:31:23Z</time>
      </trkpt>
      <trkpt lat="41.782163" lon="9.281468">
        <ele>956.4</ele>
        <time>2022-09-17T06:31:39Z</time>
      </trkpt>
      <trkpt lat="41.782085" lon="9.281432">
        <ele>956.4</ele>
        <time>2022-09-17T06:31:45Z</time>
      </trkpt>
      <trkpt lat="41.78207" lon="9.281435">
        <ele>956.4</ele>
        <time>2022-09-17T06:31:46Z</time>
      </trkpt>
      <trkpt lat="41.782047" lon="9.281453">
        <ele>956.4</ele>
        <time>2022-09-17T06:31:50Z</time>
      </trkpt>
      <trkpt lat="41.781973" lon="9.281625">
        <ele>960.6</ele>
        <time>2022-09-17T06:32:23Z</time>
      </trkpt>
      <trkpt lat="41.7819" lon="9.281593">
        <ele>964.4</ele>
        <time>2022-09-17T06:32:39Z</time>
      </trkpt>
      <trkpt lat="41.781897" lon="9.281585">
        <ele>964.8</ele>
        <time>2022-09-17T06:32:41Z</time>
      </trkpt>
      <trkpt lat="41.781898" lon="9.281535">
        <ele>965.0</ele>
        <time>2022-09-17T06:32:49Z</time>
      </trkpt>
      <trkpt lat="41.781873" lon="9.281525">
        <ele>966.0</ele>
        <time>2022-09-17T06:32:57Z</time>
      </trkpt>
      <trkpt lat="41.781837" lon="9.281552">
        <ele>967.6</ele>
        <time>2022-09-17T06:33:05Z</time>
      </trkpt>
      <trkpt lat="41.781812" lon="9.281532">
        <ele>970.2</ele>
        <time>2022-09-17T06:33:12Z</time>
      </trkpt>
      <trkpt lat="41.781758" lon="9.281555">
        <ele>970.4</ele>
        <time>2022-09-17T06:33:28Z</time>
      </trkpt>
      <trkpt lat="41.781742" lon="9.281513">
        <ele>970.8</ele>
        <time>2022-09-17T06:33:39Z</time>
      </trkpt>
      <trkpt lat="41.781757" lon="9.281433">
        <ele>974.2</ele>
        <time>2022-09-17T06:34:07Z</time>
      </trkpt>
      <trkpt lat="41.781752" lon="9.281395">
        <ele>975.8</ele>
        <time>2022-09-17T06:34:23Z</time>
      </trkpt>
      <trkpt lat="41.781747" lon="9.281398">
        <ele>975.8</ele>
        <time>2022-09-17T06:34:24Z</time>
      </trkpt>
      <trkpt lat="41.781693" lon="9.281432">
        <ele>978.2</ele>
        <time>2022-09-17T06:34:37Z</time>
      </trkpt>
      <trkpt lat="41.781648" lon="9.281518">
        <ele>981.0</ele>
        <time>2022-09-17T06:34:52Z</time>
      </trkpt>
      <trkpt lat="41.781622" lon="9.281568">
        <ele>982.4</ele>
        <time>2022-09-17T06:35:02Z</time>
      </trkpt>
      <trkpt lat="41.78159" lon="9.281618">
        <ele>984.6</ele>
        <time>2022-09-17T06:35:14Z</time>
      </trkpt>
      <trkpt lat="41.781567" lon="9.28157">
        <ele>986.4</ele>
        <time>2022-09-17T06:35:23Z</time>
      </trkpt>
      <trkpt lat="41.781592" lon="9.2815">
        <ele>988.0</ele>
        <time>2022-09-17T06:35:31Z</time>
      </trkpt>
      <trkpt lat="41.78159" lon="9.281492">
        <ele>988.0</ele>
        <time>2022-09-17T06:35:32Z</time>
      </trkpt>
      <trkpt lat="41.78155" lon="9.28146">
        <ele>989.6</ele>
        <time>2022-09-17T06:35:45Z</time>
      </trkpt>
      <trkpt lat="41.781498" lon="9.28146">
        <ele>992.2</ele>
        <time>2022-09-17T06:35:54Z</time>
      </trkpt>
      <trkpt lat="41.781443" lon="9.281402">
        <ele>996.2</ele>
        <time>2022-09-17T06:36:07Z</time>
      </trkpt>
      <trkpt lat="41.781383" lon="9.281423">
        <ele>998.8</ele>
        <time>2022-09-17T06:36:32Z</time>
      </trkpt>
      <trkpt lat="41.781407" lon="9.281525">
        <ele>1002.8</ele>
        <time>2022-09-17T06:36:59Z</time>
      </trkpt>
      <trkpt lat="41.781427" lon="9.281597">
        <ele>1004.2</ele>
        <time>2022-09-17T06:37:15Z</time>
      </trkpt>
      <trkpt lat="41.78143" lon="9.281605">
        <ele>1004.2</ele>
        <time>2022-09-17T06:37:16Z</time>
      </trkpt>
      <trkpt lat="41.781417" lon="9.281678">
        <ele>1005.2</ele>
        <time>2022-09-17T06:37:28Z</time>
      </trkpt>
      <trkpt lat="41.781433" lon="9.281733">
        <ele>1006.2</ele>
        <time>2022-09-17T06:37:36Z</time>
      </trkpt>
      <trkpt lat="41.781388" lon="9.281747">
        <ele>1006.8</ele>
        <time>2022-09-17T06:37:42Z</time>
      </trkpt>
      <trkpt lat="41.78133" lon="9.281705">
        <ele>1009.6</ele>
        <time>2022-09-17T06:37:53Z</time>
      </trkpt>
      <trkpt lat="41.781263" lon="9.281668">
        <ele>1011.4</ele>
        <time>2022-09-17T06:38:02Z</time>
      </trkpt>
      <trkpt lat="41.781212" lon="9.28165">
        <ele>1012.2</ele>
        <time>2022-09-17T06:38:09Z</time>
      </trkpt>
      <trkpt lat="41.781205" lon="9.281647">
        <ele>1012.2</ele>
        <time>2022-09-17T06:38:10Z</time>
      </trkpt>
      <trkpt lat="41.781143" lon="9.281543">
        <ele>1013.8</ele>
        <time>2022-09-17T06:38:30Z</time>
      </trkpt>
      <trkpt lat="41.781107" lon="9.281528">
        <ele>1015.4</ele>
        <time>2022-09-17T06:38:39Z</time>
      </trkpt>
      <trkpt lat="41.781062" lon="9.281505">
        <ele>1016.0</ele>
        <time>2022-09-17T06:38:50Z</time>
      </trkpt>
      <trkpt lat="41.781025" lon="9.281493">
        <ele>1016.6</ele>
        <time>2022-09-17T06:38:58Z</time>
      </trkpt>
      <trkpt lat="41.780988" lon="9.281457">
        <ele>1018.0</ele>
        <time>2022-09-17T06:39:07Z</time>
      </trkpt>
      <trkpt lat="41.780985" lon="9.28145">
        <ele>1018.8</ele>
        <time>2022-09-17T06:39:08Z</time>
      </trkpt>
      <trkpt lat="41.780903" lon="9.281405">
        <ele>1021.4</ele>
        <time>2022-09-17T06:39:30Z</time>
      </trkpt>
      <trkpt lat="41.78087" lon="9.281347">
        <ele>1024.2</ele>
        <time>2022-09-17T06:39:39Z</time>
      </trkpt>
      <trkpt lat="41.78082" lon="9.281332">
        <ele>1025.4</ele>
        <time>2022-09-17T06:39:52Z</time>
      </trkpt>
      <trkpt lat="41.780817" lon="9.281332">
        <ele>1026.2</ele>
        <time>2022-09-17T06:39:53Z</time>
      </trkpt>
      <trkpt lat="41.780782" lon="9.281258">
        <ele>1026.2</ele>
        <time>2022-09-17T06:40:02Z</time>
      </trkpt>
      <trkpt lat="41.780748" lon="9.28116">
        <ele>1028.6</ele>
        <time>2022-09-17T06:40:14Z</time>
      </trkpt>
      <trkpt lat="41.780715" lon="9.28112">
        <ele>1030.2</ele>
        <time>2022-09-17T06:40:19Z</time>
      </trkpt>
      <trkpt lat="41.78066" lon="9.281052">
        <ele>1036.2</ele>
        <time>2022-09-17T06:40:33Z</time>
      </trkpt>
      <trkpt lat="41.780573" lon="9.281">
        <ele>1030.0</ele>
        <time>2022-09-17T06:40:44Z</time>
      </trkpt>
      <trkpt lat="41.780507" lon="9.280983">
        <ele>1029.2</ele>
        <time>2022-09-17T06:40:52Z</time>
      </trkpt>
      <trkpt lat="41.780443" lon="9.280982">
        <ele>1029.8</ele>
        <time>2022-09-17T06:41:01Z</time>
      </trkpt>
      <trkpt lat="41.780373" lon="9.280962">
        <ele>1026.6</ele>
        <time>2022-09-17T06:41:09Z</time>
      </trkpt>
      <trkpt lat="41.78031" lon="9.28093">
        <ele>1022.4</ele>
        <time>2022-09-17T06:41:17Z</time>
      </trkpt>
      <trkpt lat="41.780223" lon="9.280933">
        <ele>1019.4</ele>
        <time>2022-09-17T06:41:28Z</time>
      </trkpt>
      <trkpt lat="41.7802" lon="9.280947">
        <ele>1018.6</ele>
        <time>2022-09-17T06:41:31Z</time>
      </trkpt>
      <trkpt lat="41.780167" lon="9.281007">
        <ele>1017.4</ele>
        <time>2022-09-17T06:41:40Z</time>
      </trkpt>
      <trkpt lat="41.780102" lon="9.281088">
        <ele>1017.6</ele>
        <time>2022-09-17T06:41:57Z</time>
      </trkpt>
      <trkpt lat="41.78006" lon="9.281158">
        <ele>1018.0</ele>
        <time>2022-09-17T06:42:04Z</time>
      </trkpt>
      <trkpt lat="41.780043" lon="9.281172">
        <ele>1018.6</ele>
        <time>2022-09-17T06:42:06Z</time>
      </trkpt>
      <trkpt lat="41.779963" lon="9.281185">
        <ele>1020.6</ele>
        <time>2022-09-17T06:42:15Z</time>
      </trkpt>
      <trkpt lat="41.779912" lon="9.281207">
        <ele>1018.0</ele>
        <time>2022-09-17T06:42:23Z</time>
      </trkpt>
      <trkpt lat="41.779852" lon="9.281205">
        <ele>1021.2</ele>
        <time>2022-09-17T06:42:38Z</time>
      </trkpt>
      <trkpt lat="41.77983" lon="9.281208">
        <ele>1021.8</ele>
        <time>2022-09-17T06:42:41Z</time>
      </trkpt>
      <trkpt lat="41.779792" lon="9.281252">
        <ele>1022.0</ele>
        <time>2022-09-17T06:42:46Z</time>
      </trkpt>
      <trkpt lat="41.779775" lon="9.281282">
        <ele>1020.2</ele>
        <time>2022-09-17T06:42:53Z</time>
      </trkpt>
      <trkpt lat="41.77986" lon="9.281412">
        <ele>1018.8</ele>
        <time>2022-09-17T06:43:19Z</time>
      </trkpt>
      <trkpt lat="41.779858" lon="9.281455">
        <ele>1018.6</ele>
        <time>2022-09-17T06:43:27Z</time>
      </trkpt>
      <trkpt lat="41.779882" lon="9.281505">
        <ele>1021.0</ele>
        <time>2022-09-17T06:43:35Z</time>
      </trkpt>
      <trkpt lat="41.779883" lon="9.28151">
        <ele>1021.0</ele>
        <time>2022-09-17T06:43:36Z</time>
      </trkpt>
      <trkpt lat="41.77984" lon="9.281595">
        <ele>1022.6</ele>
        <time>2022-09-17T06:43:47Z</time>
      </trkpt>
      <trkpt lat="41.779785" lon="9.281663">
        <ele>1021.0</ele>
        <time>2022-09-17T06:43:57Z</time>
      </trkpt>
      <trkpt lat="41.779723" lon="9.281707">
        <ele>1021.0</ele>
        <time>2022-09-17T06:44:05Z</time>
      </trkpt>
      <trkpt lat="41.779673" lon="9.281837">
        <ele>1021.0</ele>
        <time>2022-09-17T06:44:16Z</time>
      </trkpt>
      <trkpt lat="41.779662" lon="9.281905">
        <ele>1022.8</ele>
        <time>2022-09-17T06:44:24Z</time>
      </trkpt>
      <trkpt lat="41.77959" lon="9.282032">
        <ele>1023.0</ele>
        <time>2022-09-17T06:44:42Z</time>
      </trkpt>
      <trkpt lat="41.779588" lon="9.282042">
        <ele>1023.4</ele>
        <time>2022-09-17T06:44:44Z</time>
      </trkpt>
      <trkpt lat="41.779477" lon="9.282357">
        <ele>1027.2</ele>
        <time>2022-09-17T06:45:12Z</time>
      </trkpt>
      <trkpt lat="41.779423" lon="9.28246">
        <ele>1027.0</ele>
        <time>2022-09-17T06:45:21Z</time>
      </trkpt>
      <trkpt lat="41.779365" lon="9.282507">
        <ele>1025.4</ele>
        <time>2022-09-17T06:45:27Z</time>
      </trkpt>
      <trkpt lat="41.779348" lon="9.282532">
        <ele>1025.2</ele>
        <time>2022-09-17T06:45:29Z</time>
      </trkpt>
      <trkpt lat="41.779262" lon="9.282582">
        <ele>1024.2</ele>
        <time>2022-09-17T06:45:39Z</time>
      </trkpt>
      <trkpt lat="41.779193" lon="9.282652">
        <ele>1023.6</ele>
        <time>2022-09-17T06:45:47Z</time>
      </trkpt>
      <trkpt lat="41.779137" lon="9.282707">
        <ele>1023.6</ele>
        <time>2022-09-17T06:45:53Z</time>
      </trkpt>
      <trkpt lat="41.779082" lon="9.282725">
        <ele>1023.6</ele>
        <time>2022-09-17T06:45:58Z</time>
      </trkpt>
      <trkpt lat="41.779007" lon="9.282697">
        <ele>1021.8</ele>
        <time>2022-09-17T06:46:06Z</time>
      </trkpt>
      <trkpt lat="41.778967" lon="9.282693">
        <ele>1021.0</ele>
        <time>2022-09-17T06:46:12Z</time>
      </trkpt>
      <trkpt lat="41.778903" lon="9.28272">
        <ele>1019.6</ele>
        <time>2022-09-17T06:46:20Z</time>
      </trkpt>
      <trkpt lat="41.778867" lon="9.282727">
        <ele>1018.4</ele>
        <time>2022-09-17T06:46:24Z</time>
      </trkpt>
      <trkpt lat="41.77876" lon="9.282807">
        <ele>1015.4</ele>
        <time>2022-09-17T06:46:38Z</time>
      </trkpt>
      <trkpt lat="41.778663" lon="9.282862">
        <ele>1013.4</ele>
        <time>2022-09-17T06:46:51Z</time>
      </trkpt>
      <trkpt lat="41.77866" lon="9.282893">
        <ele>1013.0</ele>
        <time>2022-09-17T06:46:56Z</time>
      </trkpt>
      <trkpt lat="41.778698" lon="9.282983">
        <ele>1010.0</ele>
        <time>2022-09-17T06:47:11Z</time>
      </trkpt>
      <trkpt lat="41.778693" lon="9.283042">
        <ele>1009.2</ele>
        <time>2022-09-17T06:47:19Z</time>
      </trkpt>
      <trkpt lat="41.778667" lon="9.283057">
        <ele>1007.8</ele>
        <time>2022-09-17T06:47:24Z</time>
      </trkpt>
      <trkpt lat="41.778653" lon="9.283055">
        <ele>1007.8</ele>
        <time>2022-09-17T06:47:26Z</time>
      </trkpt>
      <trkpt lat="41.778632" lon="9.283022">
        <ele>1005.8</ele>
        <time>2022-09-17T06:47:31Z</time>
      </trkpt>
      <trkpt lat="41.778613" lon="9.28303">
        <ele>1004.2</ele>
        <time>2022-09-17T06:47:36Z</time>
      </trkpt>
      <trkpt lat="41.778708" lon="9.283165">
        <ele>997.8</ele>
        <time>2022-09-17T06:48:15Z</time>
      </trkpt>
      <trkpt lat="41.778708" lon="9.283168">
        <ele>997.4</ele>
        <time>2022-09-17T06:48:17Z</time>
      </trkpt>
      <trkpt lat="41.778667" lon="9.283285">
        <ele>999.0</ele>
        <time>2022-09-17T06:48:27Z</time>
      </trkpt>
      <trkpt lat="41.778557" lon="9.283373">
        <ele>999.2</ele>
        <time>2022-09-17T06:48:40Z</time>
      </trkpt>
      <trkpt lat="41.778478" lon="9.283428">
        <ele>998.8</ele>
        <time>2022-09-17T06:48:47Z</time>
      </trkpt>
      <trkpt lat="41.77844" lon="9.283485">
        <ele>998.2</ele>
        <time>2022-09-17T06:48:51Z</time>
      </trkpt>
      <trkpt lat="41.778433" lon="9.28352">
        <ele>998.2</ele>
        <time>2022-09-17T06:48:53Z</time>
      </trkpt>
      <trkpt lat="41.778427" lon="9.283583">
        <ele>1000.6</ele>
        <time>2022-09-17T06:49:15Z</time>
      </trkpt>
      <trkpt lat="41.778402" lon="9.283673">
        <ele>1000.2</ele>
        <time>2022-09-17T06:49:37Z</time>
      </trkpt>
      <trkpt lat="41.778325" lon="9.283753">
        <ele>1002.4</ele>
        <time>2022-09-17T06:50:01Z</time>
      </trkpt>
      <trkpt lat="41.77828" lon="9.283782">
        <ele>1003.0</ele>
        <time>2022-09-17T06:50:17Z</time>
      </trkpt>
      <trkpt lat="41.778273" lon="9.283792">
        <ele>1003.0</ele>
        <time>2022-09-17T06:50:18Z</time>
      </trkpt>
      <trkpt lat="41.778142" lon="9.28396">
        <ele>1003.4</ele>
        <time>2022-09-17T06:50:31Z</time>
      </trkpt>
      <trkpt lat="41.778075" lon="9.28405">
        <ele>1002.2</ele>
        <time>2022-09-17T06:50:38Z</time>
      </trkpt>
      <trkpt lat="41.777977" lon="9.284108">
        <ele>1000.6</ele>
        <time>2022-09-17T06:50:44Z</time>
      </trkpt>
      <trkpt lat="41.777905" lon="9.284148">
        <ele>1000.6</ele>
        <time>2022-09-17T06:50:48Z</time>
      </trkpt>
      <trkpt lat="41.777773" lon="9.284308">
        <ele>1000.2</ele>
        <time>2022-09-17T06:50:57Z</time>
      </trkpt>
      <trkpt lat="41.777757" lon="9.284323">
        <ele>1000.2</ele>
        <time>2022-09-17T06:50:58Z</time>
      </trkpt>
      <trkpt lat="41.777662" lon="9.284342">
        <ele>1001.6</ele>
        <time>2022-09-17T06:51:08Z</time>
      </trkpt>
      <trkpt lat="41.777512" lon="9.28435">
        <ele>1003.8</ele>
        <time>2022-09-17T06:51:22Z</time>
      </trkpt>
      <trkpt lat="41.777407" lon="9.284315">
        <ele>1005.6</ele>
        <time>2022-09-17T06:51:35Z</time>
      </trkpt>
      <trkpt lat="41.77739" lon="9.284307">
        <ele>1006.0</ele>
        <time>2022-09-17T06:51:37Z</time>
      </trkpt>
      <trkpt lat="41.777352" lon="9.284305">
        <ele>1006.2</ele>
        <time>2022-09-17T06:51:41Z</time>
      </trkpt>
      <trkpt lat="41.777282" lon="9.28431">
        <ele>1007.8</ele>
        <time>2022-09-17T06:51:49Z</time>
      </trkpt>
      <trkpt lat="41.7772" lon="9.284253">
        <ele>1008.2</ele>
        <time>2022-09-17T06:51:59Z</time>
      </trkpt>
      <trkpt lat="41.777078" lon="9.284247">
        <ele>1006.0</ele>
        <time>2022-09-17T06:52:14Z</time>
      </trkpt>
      <trkpt lat="41.77702" lon="9.284263">
        <ele>1007.2</ele>
        <time>2022-09-17T06:52:19Z</time>
      </trkpt>
      <trkpt lat="41.77693" lon="9.284302">
        <ele>1007.8</ele>
        <time>2022-09-17T06:52:28Z</time>
      </trkpt>
      <trkpt lat="41.77678" lon="9.284325">
        <ele>1004.0</ele>
        <time>2022-09-17T06:52:46Z</time>
      </trkpt>
      <trkpt lat="41.776725" lon="9.284352">
        <ele>1007.6</ele>
        <time>2022-09-17T06:52:55Z</time>
      </trkpt>
      <trkpt lat="41.776678" lon="9.28437">
        <ele>1010.6</ele>
        <time>2022-09-17T06:53:02Z</time>
      </trkpt>
      <trkpt lat="41.776625" lon="9.284423">
        <ele>1010.8</ele>
        <time>2022-09-17T06:53:11Z</time>
      </trkpt>
      <trkpt lat="41.77658" lon="9.284477">
        <ele>1011.0</ele>
        <time>2022-09-17T06:53:18Z</time>
      </trkpt>
      <trkpt lat="41.77655" lon="9.28452">
        <ele>1010.8</ele>
        <time>2022-09-17T06:53:23Z</time>
      </trkpt>
      <trkpt lat="41.776502" lon="9.28454">
        <ele>1011.0</ele>
        <time>2022-09-17T06:53:27Z</time>
      </trkpt>
      <trkpt lat="41.776393" lon="9.28458">
        <ele>1014.2</ele>
        <time>2022-09-17T06:53:38Z</time>
      </trkpt>
      <trkpt lat="41.776345" lon="9.284617">
        <ele>1014.2</ele>
        <time>2022-09-17T06:53:45Z</time>
      </trkpt>
      <trkpt lat="41.776255" lon="9.284698">
        <ele>1014.2</ele>
        <time>2022-09-17T06:54:00Z</time>
      </trkpt>
      <trkpt lat="41.776227" lon="9.284728">
        <ele>1015.8</ele>
        <time>2022-09-17T06:54:06Z</time>
      </trkpt>
      <trkpt lat="41.776132" lon="9.284922">
        <ele>1014.4</ele>
        <time>2022-09-17T06:54:26Z</time>
      </trkpt>
      <trkpt lat="41.77611" lon="9.285027">
        <ele>1015.6</ele>
        <time>2022-09-17T06:54:36Z</time>
      </trkpt>
      <trkpt lat="41.776072" lon="9.285123">
        <ele>1014.8</ele>
        <time>2022-09-17T06:54:47Z</time>
      </trkpt>
      <trkpt lat="41.776063" lon="9.28513">
        <ele>1014.8</ele>
        <time>2022-09-17T06:54:48Z</time>
      </trkpt>
      <trkpt lat="41.776035" lon="9.285143">
        <ele>1014.8</ele>
        <time>2022-09-17T06:54:51Z</time>
      </trkpt>
      <trkpt lat="41.77599" lon="9.285207">
        <ele>1016.2</ele>
        <time>2022-09-17T06:54:57Z</time>
      </trkpt>
      <trkpt lat="41.775923" lon="9.285308">
        <ele>1015.2</ele>
        <time>2022-09-17T06:55:06Z</time>
      </trkpt>
      <trkpt lat="41.775777" lon="9.285408">
        <ele>1014.6</ele>
        <time>2022-09-17T06:55:19Z</time>
      </trkpt>
      <trkpt lat="41.775662" lon="9.285443">
        <ele>1016.4</ele>
        <time>2022-09-17T06:55:27Z</time>
      </trkpt>
      <trkpt lat="41.775627" lon="9.285472">
        <ele>1017.0</ele>
        <time>2022-09-17T06:55:31Z</time>
      </trkpt>
      <trkpt lat="41.775568" lon="9.285538">
        <ele>1018.2</ele>
        <time>2022-09-17T06:55:37Z</time>
      </trkpt>
      <trkpt lat="41.775508" lon="9.285632">
        <ele>1018.4</ele>
        <time>2022-09-17T06:55:45Z</time>
      </trkpt>
      <trkpt lat="41.77542" lon="9.28567">
        <ele>1017.2</ele>
        <time>2022-09-17T06:55:53Z</time>
      </trkpt>
      <trkpt lat="41.77523" lon="9.285692">
        <ele>1018.8</ele>
        <time>2022-09-17T06:56:07Z</time>
      </trkpt>
      <trkpt lat="41.77515" lon="9.28577">
        <ele>1020.6</ele>
        <time>2022-09-17T06:56:18Z</time>
      </trkpt>
      <trkpt lat="41.775028" lon="9.285937">
        <ele>1020.6</ele>
        <time>2022-09-17T06:56:39Z</time>
      </trkpt>
      <trkpt lat="41.774995" lon="9.286057">
        <ele>1020.4</ele>
        <time>2022-09-17T06:56:49Z</time>
      </trkpt>
      <trkpt lat="41.774905" lon="9.28625">
        <ele>1020.4</ele>
        <time>2022-09-17T06:57:05Z</time>
      </trkpt>
      <trkpt lat="41.77488" lon="9.286312">
        <ele>1020.6</ele>
        <time>2022-09-17T06:57:10Z</time>
      </trkpt>
      <trkpt lat="41.77487" lon="9.28638">
        <ele>1021.0</ele>
        <time>2022-09-17T06:57:17Z</time>
      </trkpt>
      <trkpt lat="41.774878" lon="9.286497">
        <ele>1020.6</ele>
        <time>2022-09-17T06:57:26Z</time>
      </trkpt>
      <trkpt lat="41.774878" lon="9.28662">
        <ele>1020.2</ele>
        <time>2022-09-17T06:57:35Z</time>
      </trkpt>
      <trkpt lat="41.774875" lon="9.28665">
        <ele>1020.0</ele>
        <time>2022-09-17T06:57:37Z</time>
      </trkpt>
      <trkpt lat="41.774897" lon="9.286702">
        <ele>1020.0</ele>
        <time>2022-09-17T06:57:43Z</time>
      </trkpt>
      <trkpt lat="41.774918" lon="9.286795">
        <ele>1020.2</ele>
        <time>2022-09-17T06:57:55Z</time>
      </trkpt>
      <trkpt lat="41.774898" lon="9.286832">
        <ele>1020.2</ele>
        <time>2022-09-17T06:58:01Z</time>
      </trkpt>
      <trkpt lat="41.774875" lon="9.286863">
        <ele>1019.0</ele>
        <time>2022-09-17T06:58:07Z</time>
      </trkpt>
      <trkpt lat="41.774868" lon="9.286882">
        <ele>1019.2</ele>
        <time>2022-09-17T06:58:10Z</time>
      </trkpt>
      <trkpt lat="41.774818" lon="9.286902">
        <ele>1018.4</ele>
        <time>2022-09-17T06:58:16Z</time>
      </trkpt>
      <trkpt lat="41.774622" lon="9.287055">
        <ele>1017.6</ele>
        <time>2022-09-17T06:58:41Z</time>
      </trkpt>
      <trkpt lat="41.774613" lon="9.287093">
        <ele>1018.6</ele>
        <time>2022-09-17T06:58:46Z</time>
      </trkpt>
      <trkpt lat="41.774602" lon="9.287153">
        <ele>1017.8</ele>
        <time>2022-09-17T06:58:53Z</time>
      </trkpt>
      <trkpt lat="41.774563" lon="9.287365">
        <ele>1015.8</ele>
        <time>2022-09-17T06:59:07Z</time>
      </trkpt>
      <trkpt lat="41.774508" lon="9.287505">
        <ele>1016.6</ele>
        <time>2022-09-17T06:59:16Z</time>
      </trkpt>
      <trkpt lat="41.774472" lon="9.287553">
        <ele>1016.8</ele>
        <time>2022-09-17T06:59:21Z</time>
      </trkpt>
      <trkpt lat="41.77442" lon="9.287595">
        <ele>1016.0</ele>
        <time>2022-09-17T06:59:26Z</time>
      </trkpt>
      <trkpt lat="41.77441" lon="9.287598">
        <ele>1015.8</ele>
        <time>2022-09-17T06:59:27Z</time>
      </trkpt>
      <trkpt lat="41.774347" lon="9.287652">
        <ele>1015.6</ele>
        <time>2022-09-17T06:59:35Z</time>
      </trkpt>
      <trkpt lat="41.774307" lon="9.28771">
        <ele>1014.8</ele>
        <time>2022-09-17T06:59:41Z</time>
      </trkpt>
      <trkpt lat="41.774277" lon="9.287748">
        <ele>1014.4</ele>
        <time>2022-09-17T06:59:46Z</time>
      </trkpt>
      <trkpt lat="41.77423" lon="9.287753">
        <ele>1012.8</ele>
        <time>2022-09-17T06:59:53Z</time>
      </trkpt>
      <trkpt lat="41.77421" lon="9.28775">
        <ele>1012.4</ele>
        <time>2022-09-17T06:59:56Z</time>
      </trkpt>
      <trkpt lat="41.774183" lon="9.287747">
        <ele>1011.8</ele>
        <time>2022-09-17T07:00:00Z</time>
      </trkpt>
      <trkpt lat="41.774113" lon="9.287812">
        <ele>1010.4</ele>
        <time>2022-09-17T07:00:09Z</time>
      </trkpt>
      <trkpt lat="41.774048" lon="9.287785">
        <ele>1010.0</ele>
        <time>2022-09-17T07:00:20Z</time>
      </trkpt>
      <trkpt lat="41.773992" lon="9.287837">
        <ele>1008.2</ele>
        <time>2022-09-17T07:00:43Z</time>
      </trkpt>
      <trkpt lat="41.773993" lon="9.287957">
        <ele>1007.4</ele>
        <time>2022-09-17T07:00:51Z</time>
      </trkpt>
      <trkpt lat="41.773993" lon="9.287973">
        <ele>1007.4</ele>
        <time>2022-09-17T07:00:52Z</time>
      </trkpt>
      <trkpt lat="41.773997" lon="9.287997">
        <ele>1007.2</ele>
        <time>2022-09-17T07:00:55Z</time>
      </trkpt>
      <trkpt lat="41.773995" lon="9.28806">
        <ele>1006.0</ele>
        <time>2022-09-17T07:01:02Z</time>
      </trkpt>
      <trkpt lat="41.774005" lon="9.288127">
        <ele>1004.4</ele>
        <time>2022-09-17T07:01:11Z</time>
      </trkpt>
      <trkpt lat="41.774" lon="9.288168">
        <ele>1004.2</ele>
        <time>2022-09-17T07:01:16Z</time>
      </trkpt>
      <trkpt lat="41.77401" lon="9.288188">
        <ele>1004.0</ele>
        <time>2022-09-17T07:01:20Z</time>
      </trkpt>
      <trkpt lat="41.773993" lon="9.288228">
        <ele>1003.4</ele>
        <time>2022-09-17T07:01:24Z</time>
      </trkpt>
      <trkpt lat="41.773933" lon="9.28826">
        <ele>1002.6</ele>
        <time>2022-09-17T07:01:31Z</time>
      </trkpt>
      <trkpt lat="41.773917" lon="9.288333">
        <ele>1001.8</ele>
        <time>2022-09-17T07:01:40Z</time>
      </trkpt>
      <trkpt lat="41.773868" lon="9.288398">
        <ele>1000.4</ele>
        <time>2022-09-17T07:01:48Z</time>
      </trkpt>
      <trkpt lat="41.773862" lon="9.288407">
        <ele>1000.4</ele>
        <time>2022-09-17T07:01:49Z</time>
      </trkpt>
      <trkpt lat="41.773812" lon="9.288428">
        <ele>998.8</ele>
        <time>2022-09-17T07:01:57Z</time>
      </trkpt>
      <trkpt lat="41.773788" lon="9.288502">
        <ele>996.8</ele>
        <time>2022-09-17T07:02:06Z</time>
      </trkpt>
      <trkpt lat="41.77369" lon="9.288463">
        <ele>993.2</ele>
        <time>2022-09-17T07:02:21Z</time>
      </trkpt>
      <trkpt lat="41.77368" lon="9.288462">
        <ele>993.0</ele>
        <time>2022-09-17T07:02:22Z</time>
      </trkpt>
      <trkpt lat="41.773643" lon="9.288525">
        <ele>991.0</ele>
        <time>2022-09-17T07:02:31Z</time>
      </trkpt>
      <trkpt lat="41.773625" lon="9.28867">
        <ele>988.6</ele>
        <time>2022-09-17T07:02:52Z</time>
      </trkpt>
      <trkpt lat="41.773603" lon="9.288718">
        <ele>987.0</ele>
        <time>2022-09-17T07:03:02Z</time>
      </trkpt>
      <trkpt lat="41.773557" lon="9.288782">
        <ele>985.0</ele>
        <time>2022-09-17T07:03:10Z</time>
      </trkpt>
      <trkpt lat="41.773502" lon="9.288847">
        <ele>983.6</ele>
        <time>2022-09-17T07:03:18Z</time>
      </trkpt>
      <trkpt lat="41.773463" lon="9.2889">
        <ele>982.8</ele>
        <time>2022-09-17T07:03:23Z</time>
      </trkpt>
      <trkpt lat="41.773423" lon="9.288917">
        <ele>982.8</ele>
        <time>2022-09-17T07:03:27Z</time>
      </trkpt>
      <trkpt lat="41.773335" lon="9.288937">
        <ele>984.0</ele>
        <time>2022-09-17T07:03:37Z</time>
      </trkpt>
      <trkpt lat="41.773303" lon="9.288962">
        <ele>984.4</ele>
        <time>2022-09-17T07:03:41Z</time>
      </trkpt>
      <trkpt lat="41.773278" lon="9.288993">
        <ele>984.4</ele>
        <time>2022-09-17T07:03:45Z</time>
      </trkpt>
      <trkpt lat="41.77314" lon="9.288968">
        <ele>981.4</ele>
        <time>2022-09-17T07:04:03Z</time>
      </trkpt>
      <trkpt lat="41.773053" lon="9.28896">
        <ele>979.4</ele>
        <time>2022-09-17T07:04:12Z</time>
      </trkpt>
      <trkpt lat="41.772973" lon="9.28896">
        <ele>978.2</ele>
        <time>2022-09-17T07:04:20Z</time>
      </trkpt>
      <trkpt lat="41.772922" lon="9.288982">
        <ele>976.8</ele>
        <time>2022-09-17T07:04:26Z</time>
      </trkpt>
      <trkpt lat="41.772887" lon="9.289078">
        <ele>973.2</ele>
        <time>2022-09-17T07:04:56Z</time>
      </trkpt>
      <trkpt lat="41.772855" lon="9.289113">
        <ele>972.8</ele>
        <time>2022-09-17T07:05:16Z</time>
      </trkpt>
      <trkpt lat="41.772847" lon="9.28918">
        <ele>974.2</ele>
        <time>2022-09-17T07:05:41Z</time>
      </trkpt>
      <trkpt lat="41.772768" lon="9.28921">
        <ele>965.8</ele>
        <time>2022-09-17T07:06:21Z</time>
      </trkpt>
      <trkpt lat="41.772763" lon="9.28927">
        <ele>965.6</ele>
        <time>2022-09-17T07:06:28Z</time>
      </trkpt>
      <trkpt lat="41.772717" lon="9.289387">
        <ele>964.8</ele>
        <time>2022-09-17T07:06:38Z</time>
      </trkpt>
      <trkpt lat="41.77266" lon="9.289535">
        <ele>963.2</ele>
        <time>2022-09-17T07:06:51Z</time>
      </trkpt>
      <trkpt lat="41.772578" lon="9.289678">
        <ele>961.2</ele>
        <time>2022-09-17T07:07:04Z</time>
      </trkpt>
      <trkpt lat="41.772558" lon="9.28978">
        <ele>959.6</ele>
        <time>2022-09-17T07:07:15Z</time>
      </trkpt>
      <trkpt lat="41.772558" lon="9.289825">
        <ele>958.6</ele>
        <time>2022-09-17T07:07:21Z</time>
      </trkpt>
      <trkpt lat="41.772428" lon="9.289923">
        <ele>955.6</ele>
        <time>2022-09-17T07:08:48Z</time>
      </trkpt>
      <trkpt lat="41.772887" lon="9.290213">
        <ele>952.0</ele>
        <time>2022-09-17T07:08:59Z</time>
      </trkpt>
      <trkpt lat="41.772813" lon="9.290237">
        <ele>951.0</ele>
        <time>2022-09-17T07:09:02Z</time>
      </trkpt>
      <trkpt lat="41.772745" lon="9.29028">
        <ele>950.4</ele>
        <time>2022-09-17T07:09:07Z</time>
      </trkpt>
      <trkpt lat="41.772658" lon="9.290302">
        <ele>950.0</ele>
        <time>2022-09-17T07:09:11Z</time>
      </trkpt>
      <trkpt lat="41.772372" lon="9.290307">
        <ele>950.4</ele>
        <time>2022-09-17T07:09:20Z</time>
      </trkpt>
      <trkpt lat="41.772293" lon="9.290325">
        <ele>950.4</ele>
        <time>2022-09-17T07:09:23Z</time>
      </trkpt>
      <trkpt lat="41.77225" lon="9.290357">
        <ele>950.4</ele>
        <time>2022-09-17T07:09:25Z</time>
      </trkpt>
      <trkpt lat="41.772285" lon="9.29046">
        <ele>950.4</ele>
        <time>2022-09-17T07:09:31Z</time>
      </trkpt>
      <trkpt lat="41.77228" lon="9.290488">
        <ele>950.8</ele>
        <time>2022-09-17T07:09:32Z</time>
      </trkpt>
      <trkpt lat="41.772267" lon="9.290507">
        <ele>950.8</ele>
        <time>2022-09-17T07:09:34Z</time>
      </trkpt>
      <trkpt lat="41.772232" lon="9.290543">
        <ele>951.6</ele>
        <time>2022-09-17T07:09:39Z</time>
      </trkpt>
      <trkpt lat="41.772208" lon="9.290633">
        <ele>952.2</ele>
        <time>2022-09-17T07:09:48Z</time>
      </trkpt>
      <trkpt lat="41.772222" lon="9.290685">
        <ele>952.4</ele>
        <time>2022-09-17T07:09:56Z</time>
      </trkpt>
      <trkpt lat="41.772252" lon="9.290737">
        <ele>952.0</ele>
        <time>2022-09-17T07:10:02Z</time>
      </trkpt>
      <trkpt lat="41.772275" lon="9.290828">
        <ele>950.8</ele>
        <time>2022-09-17T07:10:10Z</time>
      </trkpt>
      <trkpt lat="41.772293" lon="9.290888">
        <ele>950.2</ele>
        <time>2022-09-17T07:10:16Z</time>
      </trkpt>
      <trkpt lat="41.77231" lon="9.29094">
        <ele>949.2</ele>
        <time>2022-09-17T07:10:22Z</time>
      </trkpt>
      <trkpt lat="41.772347" lon="9.291015">
        <ele>948.2</ele>
        <time>2022-09-17T07:10:32Z</time>
      </trkpt>
      <trkpt lat="41.772332" lon="9.29123">
        <ele>949.6</ele>
        <time>2022-09-17T07:10:47Z</time>
      </trkpt>
      <trkpt lat="41.772332" lon="9.291347">
        <ele>948.2</ele>
        <time>2022-09-17T07:10:55Z</time>
      </trkpt>
      <trkpt lat="41.772365" lon="9.291543">
        <ele>946.4</ele>
        <time>2022-09-17T07:11:10Z</time>
      </trkpt>
      <trkpt lat="41.77233" lon="9.291657">
        <ele>945.6</ele>
        <time>2022-09-17T07:11:20Z</time>
      </trkpt>
      <trkpt lat="41.772327" lon="9.291703">
        <ele>945.6</ele>
        <time>2022-09-17T07:11:25Z</time>
      </trkpt>
      <trkpt lat="41.772348" lon="9.29176">
        <ele>945.4</ele>
        <time>2022-09-17T07:11:29Z</time>
      </trkpt>
      <trkpt lat="41.772415" lon="9.291817">
        <ele>944.0</ele>
        <time>2022-09-17T07:11:36Z</time>
      </trkpt>
      <trkpt lat="41.77249" lon="9.291863">
        <ele>942.4</ele>
        <time>2022-09-17T07:11:44Z</time>
      </trkpt>
      <trkpt lat="41.772498" lon="9.29189">
        <ele>942.4</ele>
        <time>2022-09-17T07:11:46Z</time>
      </trkpt>
      <trkpt lat="41.772467" lon="9.291933">
        <ele>942.8</ele>
        <time>2022-09-17T07:11:52Z</time>
      </trkpt>
      <trkpt lat="41.77241" lon="9.291985">
        <ele>942.8</ele>
        <time>2022-09-17T07:11:59Z</time>
      </trkpt>
      <trkpt lat="41.77234" lon="9.291968">
        <ele>941.2</ele>
        <time>2022-09-17T07:12:08Z</time>
      </trkpt>
      <trkpt lat="41.772312" lon="9.291995">
        <ele>940.8</ele>
        <time>2022-09-17T07:12:11Z</time>
      </trkpt>
      <trkpt lat="41.772298" lon="9.292037">
        <ele>939.6</ele>
        <time>2022-09-17T07:12:14Z</time>
      </trkpt>
      <trkpt lat="41.772297" lon="9.292068">
        <ele>937.8</ele>
        <time>2022-09-17T07:12:17Z</time>
      </trkpt>
      <trkpt lat="41.77236" lon="9.29216">
        <ele>936.8</ele>
        <time>2022-09-17T07:12:25Z</time>
      </trkpt>
      <trkpt lat="41.772378" lon="9.292233">
        <ele>938.4</ele>
        <time>2022-09-17T07:12:31Z</time>
      </trkpt>
      <trkpt lat="41.772677" lon="9.292395">
        <ele>936.8</ele>
        <time>2022-09-17T07:12:55Z</time>
      </trkpt>
      <trkpt lat="41.77269" lon="9.292407">
        <ele>936.8</ele>
        <time>2022-09-17T07:12:56Z</time>
      </trkpt>
      <trkpt lat="41.772703" lon="9.292547">
        <ele>938.8</ele>
        <time>2022-09-17T07:13:06Z</time>
      </trkpt>
      <trkpt lat="41.772643" lon="9.292743">
        <ele>940.6</ele>
        <time>2022-09-17T07:13:23Z</time>
      </trkpt>
      <trkpt lat="41.772578" lon="9.292798">
        <ele>941.2</ele>
        <time>2022-09-17T07:13:30Z</time>
      </trkpt>
      <trkpt lat="41.772552" lon="9.292833">
        <ele>942.0</ele>
        <time>2022-09-17T07:13:33Z</time>
      </trkpt>
      <trkpt lat="41.772637" lon="9.2929">
        <ele>942.0</ele>
        <time>2022-09-17T07:13:42Z</time>
      </trkpt>
      <trkpt lat="41.772635" lon="9.292925">
        <ele>942.0</ele>
        <time>2022-09-17T07:13:46Z</time>
      </trkpt>
      <trkpt lat="41.772502" lon="9.293038">
        <ele>941.2</ele>
        <time>2022-09-17T07:14:04Z</time>
      </trkpt>
      <trkpt lat="41.772462" lon="9.293112">
        <ele>941.4</ele>
        <time>2022-09-17T07:14:14Z</time>
      </trkpt>
      <trkpt lat="41.772473" lon="9.293128">
        <ele>941.4</ele>
        <time>2022-09-17T07:14:16Z</time>
      </trkpt>
      <trkpt lat="41.77245" lon="9.293212">
        <ele>941.6</ele>
        <time>2022-09-17T07:14:23Z</time>
      </trkpt>
      <trkpt lat="41.772422" lon="9.293397">
        <ele>940.4</ele>
        <time>2022-09-17T07:14:41Z</time>
      </trkpt>
      <trkpt lat="41.77243" lon="9.293485">
        <ele>941.0</ele>
        <time>2022-09-17T07:14:49Z</time>
      </trkpt>
      <trkpt lat="41.772417" lon="9.293522">
        <ele>940.4</ele>
        <time>2022-09-17T07:14:53Z</time>
      </trkpt>
      <trkpt lat="41.772398" lon="9.293553">
        <ele>940.0</ele>
        <time>2022-09-17T07:14:57Z</time>
      </trkpt>
      <trkpt lat="41.772372" lon="9.293602">
        <ele>938.2</ele>
        <time>2022-09-17T07:15:04Z</time>
      </trkpt>
      <trkpt lat="41.77237" lon="9.293658">
        <ele>936.0</ele>
        <time>2022-09-17T07:15:11Z</time>
      </trkpt>
      <trkpt lat="41.772343" lon="9.29374">
        <ele>940.6</ele>
        <time>2022-09-17T07:15:24Z</time>
      </trkpt>
      <trkpt lat="41.772353" lon="9.293818">
        <ele>940.2</ele>
        <time>2022-09-17T07:15:34Z</time>
      </trkpt>
      <trkpt lat="41.772352" lon="9.293827">
        <ele>939.4</ele>
        <time>2022-09-17T07:15:35Z</time>
      </trkpt>
      <trkpt lat="41.772325" lon="9.293927">
        <ele>938.2</ele>
        <time>2022-09-17T07:15:46Z</time>
      </trkpt>
      <trkpt lat="41.772333" lon="9.293968">
        <ele>938.0</ele>
        <time>2022-09-17T07:15:52Z</time>
      </trkpt>
      <trkpt lat="41.772348" lon="9.294017">
        <ele>936.8</ele>
        <time>2022-09-17T07:15:59Z</time>
      </trkpt>
      <trkpt lat="41.772343" lon="9.294068">
        <ele>933.8</ele>
        <time>2022-09-17T07:16:06Z</time>
      </trkpt>
      <trkpt lat="41.772322" lon="9.29412">
        <ele>931.2</ele>
        <time>2022-09-17T07:16:14Z</time>
      </trkpt>
      <trkpt lat="41.772322" lon="9.294208">
        <ele>927.6</ele>
        <time>2022-09-17T07:16:29Z</time>
      </trkpt>
      <trkpt lat="41.77232" lon="9.294215">
        <ele>926.8</ele>
        <time>2022-09-17T07:16:31Z</time>
      </trkpt>
      <trkpt lat="41.772333" lon="9.294265">
        <ele>926.6</ele>
        <time>2022-09-17T07:16:39Z</time>
      </trkpt>
      <trkpt lat="41.772392" lon="9.294318">
        <ele>924.8</ele>
        <time>2022-09-17T07:16:49Z</time>
      </trkpt>
      <trkpt lat="41.77243" lon="9.294432">
        <ele>923.2</ele>
        <time>2022-09-17T07:17:01Z</time>
      </trkpt>
      <trkpt lat="41.772473" lon="9.2945">
        <ele>920.8</ele>
        <time>2022-09-17T07:17:08Z</time>
      </trkpt>
      <trkpt lat="41.772488" lon="9.294637">
        <ele>920.4</ele>
        <time>2022-09-17T07:17:18Z</time>
      </trkpt>
      <trkpt lat="41.772473" lon="9.294687">
        <ele>919.2</ele>
        <time>2022-09-17T07:17:24Z</time>
      </trkpt>
      <trkpt lat="41.7725" lon="9.294745">
        <ele>917.8</ele>
        <time>2022-09-17T07:17:32Z</time>
      </trkpt>
      <trkpt lat="41.772522" lon="9.29477">
        <ele>917.6</ele>
        <time>2022-09-17T07:17:37Z</time>
      </trkpt>
      <trkpt lat="41.772568" lon="9.2948">
        <ele>914.6</ele>
        <time>2022-09-17T07:17:47Z</time>
      </trkpt>
      <trkpt lat="41.772575" lon="9.294827">
        <ele>914.0</ele>
        <time>2022-09-17T07:17:52Z</time>
      </trkpt>
      <trkpt lat="41.772545" lon="9.294887">
        <ele>912.0</ele>
        <time>2022-09-17T07:18:05Z</time>
      </trkpt>
      <trkpt lat="41.77257" lon="9.29494">
        <ele>910.8</ele>
        <time>2022-09-17T07:18:15Z</time>
      </trkpt>
      <trkpt lat="41.772568" lon="9.294972">
        <ele>910.0</ele>
        <time>2022-09-17T07:18:21Z</time>
      </trkpt>
      <trkpt lat="41.772535" lon="9.29498">
        <ele>908.4</ele>
        <time>2022-09-17T07:18:29Z</time>
      </trkpt>
      <trkpt lat="41.772518" lon="9.295035">
        <ele>907.4</ele>
        <time>2022-09-17T07:18:42Z</time>
      </trkpt>
      <trkpt lat="41.772468" lon="9.295082">
        <ele>903.6</ele>
        <time>2022-09-17T07:18:59Z</time>
      </trkpt>
      <trkpt lat="41.772445" lon="9.295095">
        <ele>902.6</ele>
        <time>2022-09-17T07:19:08Z</time>
      </trkpt>
      <trkpt lat="41.77239" lon="9.29511">
        <ele>897.8</ele>
        <time>2022-09-17T07:19:39Z</time>
      </trkpt>
      <trkpt lat="41.772362" lon="9.295133">
        <ele>895.0</ele>
        <time>2022-09-17T07:19:54Z</time>
      </trkpt>
      <trkpt lat="41.772368" lon="9.29514">
        <ele>894.4</ele>
        <time>2022-09-17T07:19:57Z</time>
      </trkpt>
      <trkpt lat="41.772437" lon="9.295228">
        <ele>892.6</ele>
        <time>2022-09-17T07:20:06Z</time>
      </trkpt>
      <trkpt lat="41.772477" lon="9.295305">
        <ele>892.6</ele>
        <time>2022-09-17T07:20:12Z</time>
      </trkpt>
      <trkpt lat="41.772572" lon="9.2955">
        <ele>890.0</ele>
        <time>2022-09-17T07:20:25Z</time>
      </trkpt>
      <trkpt lat="41.772602" lon="9.29561">
        <ele>888.4</ele>
        <time>2022-09-17T07:20:33Z</time>
      </trkpt>
      <trkpt lat="41.772565" lon="9.295622">
        <ele>887.4</ele>
        <time>2022-09-17T07:20:40Z</time>
      </trkpt>
      <trkpt lat="41.77253" lon="9.295628">
        <ele>886.6</ele>
        <time>2022-09-17T07:20:46Z</time>
      </trkpt>
      <trkpt lat="41.772492" lon="9.295665">
        <ele>885.8</ele>
        <time>2022-09-17T07:20:54Z</time>
      </trkpt>
      <trkpt lat="41.772327" lon="9.295718">
        <ele>876.0</ele>
        <time>2022-09-17T07:21:45Z</time>
      </trkpt>
      <trkpt lat="41.77226" lon="9.295732">
        <ele>871.6</ele>
        <time>2022-09-17T07:22:15Z</time>
      </trkpt>
      <trkpt lat="41.772258" lon="9.295735">
        <ele>871.2</ele>
        <time>2022-09-17T07:22:17Z</time>
      </trkpt>
      <trkpt lat="41.772262" lon="9.295832">
        <ele>869.0</ele>
        <time>2022-09-17T07:22:28Z</time>
      </trkpt>
      <trkpt lat="41.77225" lon="9.295895">
        <ele>867.6</ele>
        <time>2022-09-17T07:22:34Z</time>
      </trkpt>
      <trkpt lat="41.772267" lon="9.295995">
        <ele>865.8</ele>
        <time>2022-09-17T07:22:42Z</time>
      </trkpt>
      <trkpt lat="41.77225" lon="9.296028">
        <ele>865.6</ele>
        <time>2022-09-17T07:22:45Z</time>
      </trkpt>
      <trkpt lat="41.77228" lon="9.296212">
        <ele>863.8</ele>
        <time>2022-09-17T07:22:58Z</time>
      </trkpt>
      <trkpt lat="41.772287" lon="9.296262">
        <ele>863.8</ele>
        <time>2022-09-17T07:23:01Z</time>
      </trkpt>
      <trkpt lat="41.772173" lon="9.296292">
        <ele>863.0</ele>
        <time>2022-09-17T07:23:12Z</time>
      </trkpt>
      <trkpt lat="41.77217" lon="9.296342">
        <ele>862.4</ele>
        <time>2022-09-17T07:23:15Z</time>
      </trkpt>
      <trkpt lat="41.772175" lon="9.296358">
        <ele>862.4</ele>
        <time>2022-09-17T07:23:16Z</time>
      </trkpt>
      <trkpt lat="41.77223" lon="9.296475">
        <ele>860.2</ele>
        <time>2022-09-17T07:23:30Z</time>
      </trkpt>
      <trkpt lat="41.772267" lon="9.296608">
        <ele>858.4</ele>
        <time>2022-09-17T07:23:46Z</time>
      </trkpt>
      <trkpt lat="41.772287" lon="9.29666">
        <ele>856.0</ele>
        <time>2022-09-17T07:23:58Z</time>
      </trkpt>
      <trkpt lat="41.772238" lon="9.296775">
        <ele>853.8</ele>
        <time>2022-09-17T07:24:11Z</time>
      </trkpt>
      <trkpt lat="41.772238" lon="9.29679">
        <ele>853.8</ele>
        <time>2022-09-17T07:24:12Z</time>
      </trkpt>
      <trkpt lat="41.772192" lon="9.296892">
        <ele>854.8</ele>
        <time>2022-09-17T07:24:21Z</time>
      </trkpt>
      <trkpt lat="41.772148" lon="9.296927">
        <ele>854.2</ele>
        <time>2022-09-17T07:24:26Z</time>
      </trkpt>
      <trkpt lat="41.772018" lon="9.29699">
        <ele>851.0</ele>
        <time>2022-09-17T07:24:43Z</time>
      </trkpt>
      <trkpt lat="41.771978" lon="9.297037">
        <ele>850.2</ele>
        <time>2022-09-17T07:24:50Z</time>
      </trkpt>
      <trkpt lat="41.771957" lon="9.29705">
        <ele>849.4</ele>
        <time>2022-09-17T07:24:54Z</time>
      </trkpt>
      <trkpt lat="41.77191" lon="9.29706">
        <ele>848.8</ele>
        <time>2022-09-17T07:25:01Z</time>
      </trkpt>
      <trkpt lat="41.771865" lon="9.297088">
        <ele>848.0</ele>
        <time>2022-09-17T07:25:08Z</time>
      </trkpt>
      <trkpt lat="41.77183" lon="9.297085">
        <ele>846.8</ele>
        <time>2022-09-17T07:25:14Z</time>
      </trkpt>
      <trkpt lat="41.771807" lon="9.297093">
        <ele>845.4</ele>
        <time>2022-09-17T07:25:19Z</time>
      </trkpt>
      <trkpt lat="41.771795" lon="9.29711">
        <ele>844.8</ele>
        <time>2022-09-17T07:25:22Z</time>
      </trkpt>
      <trkpt lat="41.771702" lon="9.297138">
        <ele>841.6</ele>
        <time>2022-09-17T07:25:43Z</time>
      </trkpt>
      <trkpt lat="41.77169" lon="9.297182">
        <ele>840.4</ele>
        <time>2022-09-17T07:25:50Z</time>
      </trkpt>
      <trkpt lat="41.771693" lon="9.297265">
        <ele>839.6</ele>
        <time>2022-09-17T07:26:02Z</time>
      </trkpt>
      <trkpt lat="41.77169" lon="9.297277">
        <ele>839.2</ele>
        <time>2022-09-17T07:26:04Z</time>
      </trkpt>
      <trkpt lat="41.77177" lon="9.29733">
        <ele>835.8</ele>
        <time>2022-09-17T07:26:20Z</time>
      </trkpt>
      <trkpt lat="41.771777" lon="9.297368">
        <ele>835.2</ele>
        <time>2022-09-17T07:26:26Z</time>
      </trkpt>
      <trkpt lat="41.771747" lon="9.297512">
        <ele>834.2</ele>
        <time>2022-09-17T07:26:45Z</time>
      </trkpt>
      <trkpt lat="41.77172" lon="9.297717">
        <ele>830.6</ele>
        <time>2022-09-17T07:27:30Z</time>
      </trkpt>
      <trkpt lat="41.77167" lon="9.297712">
        <ele>828.8</ele>
        <time>2022-09-17T07:27:40Z</time>
      </trkpt>
      <trkpt lat="41.771658" lon="9.297707">
        <ele>828.8</ele>
        <time>2022-09-17T07:27:41Z</time>
      </trkpt>
      <trkpt lat="41.771605" lon="9.297697">
        <ele>828.0</ele>
        <time>2022-09-17T07:27:47Z</time>
      </trkpt>
      <trkpt lat="41.771447" lon="9.297685">
        <ele>825.4</ele>
        <time>2022-09-17T07:28:03Z</time>
      </trkpt>
      <trkpt lat="41.771408" lon="9.297688">
        <ele>824.8</ele>
        <time>2022-09-17T07:28:08Z</time>
      </trkpt>
      <trkpt lat="41.771333" lon="9.29777">
        <ele>822.4</ele>
        <time>2022-09-17T07:28:19Z</time>
      </trkpt>
      <trkpt lat="41.771247" lon="9.297815">
        <ele>821.4</ele>
        <time>2022-09-17T07:28:30Z</time>
      </trkpt>
      <trkpt lat="41.771148" lon="9.297822">
        <ele>820.4</ele>
        <time>2022-09-17T07:28:42Z</time>
      </trkpt>
      <trkpt lat="41.771102" lon="9.297798">
        <ele>818.2</ele>
        <time>2022-09-17T07:28:51Z</time>
      </trkpt>
      <trkpt lat="41.771058" lon="9.297825">
        <ele>817.2</ele>
        <time>2022-09-17T07:29:01Z</time>
      </trkpt>
      <trkpt lat="41.771033" lon="9.297772">
        <ele>819.0</ele>
        <time>2022-09-17T07:29:11Z</time>
      </trkpt>
      <trkpt lat="41.771" lon="9.297745">
        <ele>817.6</ele>
        <time>2022-09-17T07:29:28Z</time>
      </trkpt>
      <trkpt lat="41.770985" lon="9.297745">
        <ele>816.8</ele>
        <time>2022-09-17T07:29:34Z</time>
      </trkpt>
      <trkpt lat="41.770967" lon="9.297697">
        <ele>817.0</ele>
        <time>2022-09-17T07:29:38Z</time>
      </trkpt>
      <trkpt lat="41.770957" lon="9.297623">
        <ele>817.0</ele>
        <time>2022-09-17T07:29:45Z</time>
      </trkpt>
      <trkpt lat="41.770918" lon="9.297597">
        <ele>816.0</ele>
        <time>2022-09-17T07:29:50Z</time>
      </trkpt>
      <trkpt lat="41.770888" lon="9.297585">
        <ele>814.8</ele>
        <time>2022-09-17T07:29:53Z</time>
      </trkpt>
      <trkpt lat="41.770835" lon="9.297657">
        <ele>812.8</ele>
        <time>2022-09-17T07:30:01Z</time>
      </trkpt>
      <trkpt lat="41.770795" lon="9.297657">
        <ele>812.6</ele>
        <time>2022-09-17T07:30:05Z</time>
      </trkpt>
      <trkpt lat="41.770785" lon="9.297648">
        <ele>812.6</ele>
        <time>2022-09-17T07:30:05Z</time>
      </trkpt>
      <trkpt lat="41.770717" lon="9.29764">
        <ele>810.0</ele>
        <time>2022-09-17T07:30:16Z</time>
      </trkpt>
      <trkpt lat="41.770693" lon="9.29763">
        <ele>809.2</ele>
        <time>2022-09-17T07:30:20Z</time>
      </trkpt>
      <trkpt lat="41.770663" lon="9.297572">
        <ele>807.8</ele>
        <time>2022-09-17T07:30:30Z</time>
      </trkpt>
      <trkpt lat="41.770647" lon="9.29759">
        <ele>807.2</ele>
        <time>2022-09-17T07:30:34Z</time>
      </trkpt>
      <trkpt lat="41.770638" lon="9.297608">
        <ele>806.6</ele>
        <time>2022-09-17T07:30:37Z</time>
      </trkpt>
      <trkpt lat="41.770615" lon="9.297635">
        <ele>806.2</ele>
        <time>2022-09-17T07:30:42Z</time>
      </trkpt>
      <trkpt lat="41.77058" lon="9.29767">
        <ele>805.6</ele>
        <time>2022-09-17T07:30:48Z</time>
      </trkpt>
      <trkpt lat="41.770537" lon="9.297717">
        <ele>805.0</ele>
        <time>2022-09-17T07:30:57Z</time>
      </trkpt>
      <trkpt lat="41.770483" lon="9.297747">
        <ele>804.6</ele>
        <time>2022-09-17T07:31:05Z</time>
      </trkpt>
      <trkpt lat="41.770332" lon="9.297788">
        <ele>800.6</ele>
        <time>2022-09-17T07:31:31Z</time>
      </trkpt>
      <trkpt lat="41.770268" lon="9.297717">
        <ele>798.4</ele>
        <time>2022-09-17T07:31:47Z</time>
      </trkpt>
      <trkpt lat="41.77022" lon="9.297723">
        <ele>797.8</ele>
        <time>2022-09-17T07:31:56Z</time>
      </trkpt>
      <trkpt lat="41.770183" lon="9.297735">
        <ele>796.2</ele>
        <time>2022-09-17T07:32:04Z</time>
      </trkpt>
      <trkpt lat="41.770152" lon="9.297703">
        <ele>795.2</ele>
        <time>2022-09-17T07:32:13Z</time>
      </trkpt>
      <trkpt lat="41.770097" lon="9.297702">
        <ele>792.8</ele>
        <time>2022-09-17T07:32:26Z</time>
      </trkpt>
      <trkpt lat="41.770093" lon="9.297698">
        <ele>792.8</ele>
        <time>2022-09-17T07:32:26Z</time>
      </trkpt>
      <trkpt lat="41.77004" lon="9.297743">
        <ele>791.8</ele>
        <time>2022-09-17T07:33:01Z</time>
      </trkpt>
      <trkpt lat="41.769988" lon="9.297733">
        <ele>791.4</ele>
        <time>2022-09-17T07:33:13Z</time>
      </trkpt>
      <trkpt lat="41.76995" lon="9.297688">
        <ele>790.4</ele>
        <time>2022-09-17T07:33:19Z</time>
      </trkpt>
      <trkpt lat="41.76994" lon="9.297687">
        <ele>790.4</ele>
        <time>2022-09-17T07:33:20Z</time>
      </trkpt>
      <trkpt lat="41.769817" lon="9.297645">
        <ele>789.6</ele>
        <time>2022-09-17T07:33:37Z</time>
      </trkpt>
      <trkpt lat="41.769785" lon="9.297638">
        <ele>789.4</ele>
        <time>2022-09-17T07:33:41Z</time>
      </trkpt>
      <trkpt lat="41.76966" lon="9.297665">
        <ele>784.2</ele>
        <time>2022-09-17T07:34:02Z</time>
      </trkpt>
      <trkpt lat="41.769595" lon="9.297647">
        <ele>781.0</ele>
        <time>2022-09-17T07:34:15Z</time>
      </trkpt>
      <trkpt lat="41.769587" lon="9.297652">
        <ele>780.8</ele>
        <time>2022-09-17T07:34:16Z</time>
      </trkpt>
      <trkpt lat="41.769608" lon="9.297707">
        <ele>779.8</ele>
        <time>2022-09-17T07:34:23Z</time>
      </trkpt>
      <trkpt lat="41.769625" lon="9.297755">
        <ele>778.8</ele>
        <time>2022-09-17T07:34:32Z</time>
      </trkpt>
      <trkpt lat="41.769635" lon="9.297853">
        <ele>775.4</ele>
        <time>2022-09-17T07:35:01Z</time>
      </trkpt>
      <trkpt lat="41.769632" lon="9.297932">
        <ele>773.6</ele>
        <time>2022-09-17T07:35:16Z</time>
      </trkpt>
      <trkpt lat="41.769615" lon="9.297977">
        <ele>772.4</ele>
        <time>2022-09-17T07:35:22Z</time>
      </trkpt>
      <trkpt lat="41.769575" lon="9.298053">
        <ele>771.6</ele>
        <time>2022-09-17T07:35:30Z</time>
      </trkpt>
      <trkpt lat="41.769562" lon="9.29812">
        <ele>770.8</ele>
        <time>2022-09-17T07:35:35Z</time>
      </trkpt>
      <trkpt lat="41.769552" lon="9.298182">
        <ele>770.4</ele>
        <time>2022-09-17T07:35:41Z</time>
      </trkpt>
      <trkpt lat="41.769467" lon="9.298468">
        <ele>767.4</ele>
        <time>2022-09-17T07:36:10Z</time>
      </trkpt>
      <trkpt lat="41.769457" lon="9.298482">
        <ele>766.6</ele>
        <time>2022-09-17T07:36:12Z</time>
      </trkpt>
      <trkpt lat="41.769418" lon="9.298597">
        <ele>765.4</ele>
        <time>2022-09-17T07:36:24Z</time>
      </trkpt>
      <trkpt lat="41.7694" lon="9.298687">
        <ele>764.0</ele>
        <time>2022-09-17T07:36:32Z</time>
      </trkpt>
      <trkpt lat="41.769395" lon="9.298795">
        <ele>762.4</ele>
        <time>2022-09-17T07:36:42Z</time>
      </trkpt>
      <trkpt lat="41.769397" lon="9.298838">
        <ele>761.6</ele>
        <time>2022-09-17T07:36:46Z</time>
      </trkpt>
      <trkpt lat="41.769387" lon="9.298855">
        <ele>761.4</ele>
        <time>2022-09-17T07:36:48Z</time>
      </trkpt>
      <trkpt lat="41.769347" lon="9.298922">
        <ele>760.8</ele>
        <time>2022-09-17T07:36:59Z</time>
      </trkpt>
      <trkpt lat="41.769323" lon="9.298967">
        <ele>760.4</ele>
        <time>2022-09-17T07:37:05Z</time>
      </trkpt>
      <trkpt lat="41.7693" lon="9.299058">
        <ele>760.2</ele>
        <time>2022-09-17T07:37:14Z</time>
      </trkpt>
      <trkpt lat="41.769273" lon="9.299122">
        <ele>760.2</ele>
        <time>2022-09-17T07:37:21Z</time>
      </trkpt>
      <trkpt lat="41.76924" lon="9.299172">
        <ele>760.4</ele>
        <time>2022-09-17T07:37:27Z</time>
      </trkpt>
      <trkpt lat="41.769233" lon="9.299178">
        <ele>760.4</ele>
        <time>2022-09-17T07:37:28Z</time>
      </trkpt>
      <trkpt lat="41.769183" lon="9.299192">
        <ele>760.2</ele>
        <time>2022-09-17T07:37:34Z</time>
      </trkpt>
      <trkpt lat="41.769143" lon="9.29927">
        <ele>759.2</ele>
        <time>2022-09-17T07:37:43Z</time>
      </trkpt>
      <trkpt lat="41.769092" lon="9.299307">
        <ele>757.8</ele>
        <time>2022-09-17T07:37:50Z</time>
      </trkpt>
      <trkpt lat="41.769055" lon="9.299325">
        <ele>757.0</ele>
        <time>2022-09-17T07:37:55Z</time>
      </trkpt>
      <trkpt lat="41.769012" lon="9.29935">
        <ele>756.0</ele>
        <time>2022-09-17T07:38:01Z</time>
      </trkpt>
      <trkpt lat="41.768952" lon="9.299353">
        <ele>756.0</ele>
        <time>2022-09-17T07:38:09Z</time>
      </trkpt>
      <trkpt lat="41.76893" lon="9.299353">
        <ele>756.0</ele>
        <time>2022-09-17T07:38:12Z</time>
      </trkpt>
      <trkpt lat="41.7689" lon="9.299412">
        <ele>756.2</ele>
        <time>2022-09-17T07:38:20Z</time>
      </trkpt>
      <trkpt lat="41.768855" lon="9.299563">
        <ele>756.2</ele>
        <time>2022-09-17T07:38:36Z</time>
      </trkpt>
      <trkpt lat="41.768857" lon="9.299607">
        <ele>757.0</ele>
        <time>2022-09-17T07:38:40Z</time>
      </trkpt>
      <trkpt lat="41.768907" lon="9.299727">
        <ele>758.0</ele>
        <time>2022-09-17T07:38:53Z</time>
      </trkpt>
      <trkpt lat="41.768882" lon="9.299802">
        <ele>757.4</ele>
        <time>2022-09-17T07:39:04Z</time>
      </trkpt>
      <trkpt lat="41.768812" lon="9.29993">
        <ele>752.4</ele>
        <time>2022-09-17T07:39:28Z</time>
      </trkpt>
      <trkpt lat="41.768783" lon="9.29996">
        <ele>752.2</ele>
        <time>2022-09-17T07:39:33Z</time>
      </trkpt>
      <trkpt lat="41.76876" lon="9.3">
        <ele>751.6</ele>
        <time>2022-09-17T07:39:38Z</time>
      </trkpt>
      <trkpt lat="41.768705" lon="9.300032">
        <ele>750.8</ele>
        <time>2022-09-17T07:39:45Z</time>
      </trkpt>
      <trkpt lat="41.768502" lon="9.300072">
        <ele>746.6</ele>
        <time>2022-09-17T07:40:11Z</time>
      </trkpt>
      <trkpt lat="41.768423" lon="9.300107">
        <ele>745.8</ele>
        <time>2022-09-17T07:40:21Z</time>
      </trkpt>
      <trkpt lat="41.768335" lon="9.300138">
        <ele>744.8</ele>
        <time>2022-09-17T07:40:34Z</time>
      </trkpt>
      <trkpt lat="41.768262" lon="9.300143">
        <ele>743.8</ele>
        <time>2022-09-17T07:40:44Z</time>
      </trkpt>
      <trkpt lat="41.768213" lon="9.300185">
        <ele>743.0</ele>
        <time>2022-09-17T07:40:51Z</time>
      </trkpt>
      <trkpt lat="41.76814" lon="9.30025">
        <ele>741.8</ele>
        <time>2022-09-17T07:41:02Z</time>
      </trkpt>
      <trkpt lat="41.768075" lon="9.300237">
        <ele>741.4</ele>
        <time>2022-09-17T07:41:08Z</time>
      </trkpt>
      <trkpt lat="41.768022" lon="9.300163">
        <ele>740.2</ele>
        <time>2022-09-17T07:41:14Z</time>
      </trkpt>
      <trkpt lat="41.767997" lon="9.300103">
        <ele>740.2</ele>
        <time>2022-09-17T07:41:18Z</time>
      </trkpt>
      <trkpt lat="41.767948" lon="9.299865">
        <ele>738.4</ele>
        <time>2022-09-17T07:41:32Z</time>
      </trkpt>
      <trkpt lat="41.767947" lon="9.299853">
        <ele>738.4</ele>
        <time>2022-09-17T07:41:33Z</time>
      </trkpt>
      <trkpt lat="41.767925" lon="9.299782">
        <ele>738.2</ele>
        <time>2022-09-17T07:41:40Z</time>
      </trkpt>
      <trkpt lat="41.767858" lon="9.299672">
        <ele>738.8</ele>
        <time>2022-09-17T07:41:54Z</time>
      </trkpt>
      <trkpt lat="41.76783" lon="9.299613">
        <ele>739.0</ele>
        <time>2022-09-17T07:42:00Z</time>
      </trkpt>
      <trkpt lat="41.767753" lon="9.29945">
        <ele>739.4</ele>
        <time>2022-09-17T07:42:15Z</time>
      </trkpt>
      <trkpt lat="41.767747" lon="9.299442">
        <ele>739.0</ele>
        <time>2022-09-17T07:42:17Z</time>
      </trkpt>
      <trkpt lat="41.767655" lon="9.299427">
        <ele>738.6</ele>
        <time>2022-09-17T07:42:26Z</time>
      </trkpt>
      <trkpt lat="41.767578" lon="9.299412">
        <ele>739.0</ele>
        <time>2022-09-17T07:42:33Z</time>
      </trkpt>
      <trkpt lat="41.767485" lon="9.29943">
        <ele>739.4</ele>
        <time>2022-09-17T07:42:41Z</time>
      </trkpt>
      <trkpt lat="41.767302" lon="9.299507">
        <ele>740.4</ele>
        <time>2022-09-17T07:42:58Z</time>
      </trkpt>
      <trkpt lat="41.767213" lon="9.299583">
        <ele>737.2</ele>
        <time>2022-09-17T07:43:12Z</time>
      </trkpt>
      <trkpt lat="41.767138" lon="9.29962">
        <ele>739.4</ele>
        <time>2022-09-17T07:43:34Z</time>
      </trkpt>
      <trkpt lat="41.76712" lon="9.299663">
        <ele>741.0</ele>
        <time>2022-09-17T07:43:46Z</time>
      </trkpt>
      <trkpt lat="41.767118" lon="9.299677">
        <ele>740.2</ele>
        <time>2022-09-17T07:43:48Z</time>
      </trkpt>
      <trkpt lat="41.76703" lon="9.299692">
        <ele>739.0</ele>
        <time>2022-09-17T07:44:05Z</time>
      </trkpt>
      <trkpt lat="41.766877" lon="9.299763">
        <ele>734.2</ele>
        <time>2022-09-17T07:44:36Z</time>
      </trkpt>
      <trkpt lat="41.76687" lon="9.299772">
        <ele>734.2</ele>
        <time>2022-09-17T07:44:37Z</time>
      </trkpt>
      <trkpt lat="41.76681" lon="9.299835">
        <ele>732.8</ele>
        <time>2022-09-17T07:44:44Z</time>
      </trkpt>
      <trkpt lat="41.766648" lon="9.29993">
        <ele>730.6</ele>
        <time>2022-09-17T07:44:57Z</time>
      </trkpt>
      <trkpt lat="41.766497" lon="9.299943">
        <ele>729.2</ele>
        <time>2022-09-17T07:45:07Z</time>
      </trkpt>
      <trkpt lat="41.766453" lon="9.299955">
        <ele>728.6</ele>
        <time>2022-09-17T07:45:11Z</time>
      </trkpt>
      <trkpt lat="41.766395" lon="9.299895">
        <ele>728.6</ele>
        <time>2022-09-17T07:45:22Z</time>
      </trkpt>
      <trkpt lat="41.766338" lon="9.299868">
        <ele>727.8</ele>
        <time>2022-09-17T07:45:31Z</time>
      </trkpt>
      <trkpt lat="41.766312" lon="9.29983">
        <ele>726.6</ele>
        <time>2022-09-17T07:45:36Z</time>
      </trkpt>
      <trkpt lat="41.766228" lon="9.299807">
        <ele>724.0</ele>
        <time>2022-09-17T07:45:45Z</time>
      </trkpt>
      <trkpt lat="41.76622" lon="9.299803">
        <ele>723.4</ele>
        <time>2022-09-17T07:45:47Z</time>
      </trkpt>
      <trkpt lat="41.766135" lon="9.299883">
        <ele>721.0</ele>
        <time>2022-09-17T07:45:57Z</time>
      </trkpt>
      <trkpt lat="41.766073" lon="9.299992">
        <ele>719.2</ele>
        <time>2022-09-17T07:46:08Z</time>
      </trkpt>
      <trkpt lat="41.766002" lon="9.300058">
        <ele>719.2</ele>
        <time>2022-09-17T07:46:17Z</time>
      </trkpt>
      <trkpt lat="41.765963" lon="9.300057">
        <ele>719.4</ele>
        <time>2022-09-17T07:46:22Z</time>
      </trkpt>
      <trkpt lat="41.76591" lon="9.300058">
        <ele>719.4</ele>
        <time>2022-09-17T07:46:30Z</time>
      </trkpt>
      <trkpt lat="41.765872" lon="9.300055">
        <ele>719.2</ele>
        <time>2022-09-17T07:46:35Z</time>
      </trkpt>
      <trkpt lat="41.765843" lon="9.30003">
        <ele>718.2</ele>
        <time>2022-09-17T07:46:40Z</time>
      </trkpt>
      <trkpt lat="41.76574" lon="9.300013">
        <ele>716.0</ele>
        <time>2022-09-17T07:46:56Z</time>
      </trkpt>
      <trkpt lat="41.765697" lon="9.300057">
        <ele>714.4</ele>
        <time>2022-09-17T07:47:06Z</time>
      </trkpt>
      <trkpt lat="41.765692" lon="9.300057">
        <ele>714.0</ele>
        <time>2022-09-17T07:47:08Z</time>
      </trkpt>
      <trkpt lat="41.765595" lon="9.300057">
        <ele>711.0</ele>
        <time>2022-09-17T07:47:23Z</time>
      </trkpt>
      <trkpt lat="41.76551" lon="9.300112">
        <ele>708.0</ele>
        <time>2022-09-17T07:47:37Z</time>
      </trkpt>
      <trkpt lat="41.76546" lon="9.300183">
        <ele>706.4</ele>
        <time>2022-09-17T07:47:48Z</time>
      </trkpt>
      <trkpt lat="41.765457" lon="9.300192">
        <ele>706.4</ele>
        <time>2022-09-17T07:47:49Z</time>
      </trkpt>
      <trkpt lat="41.765417" lon="9.30024">
        <ele>706.2</ele>
        <time>2022-09-17T07:47:56Z</time>
      </trkpt>
      <trkpt lat="41.765395" lon="9.300278">
        <ele>705.6</ele>
        <time>2022-09-17T07:48:00Z</time>
      </trkpt>
      <trkpt lat="41.765328" lon="9.300342">
        <ele>703.4</ele>
        <time>2022-09-17T07:48:09Z</time>
      </trkpt>
      <trkpt lat="41.765278" lon="9.300395">
        <ele>702.6</ele>
        <time>2022-09-17T07:48:16Z</time>
      </trkpt>
      <trkpt lat="41.76523" lon="9.300428">
        <ele>702.2</ele>
        <time>2022-09-17T07:48:22Z</time>
      </trkpt>
      <trkpt lat="41.765187" lon="9.300503">
        <ele>699.4</ele>
        <time>2022-09-17T07:48:31Z</time>
      </trkpt>
      <trkpt lat="41.765122" lon="9.300523">
        <ele>696.2</ele>
        <time>2022-09-17T07:48:43Z</time>
      </trkpt>
      <trkpt lat="41.765102" lon="9.300545">
        <ele>694.2</ele>
        <time>2022-09-17T07:48:48Z</time>
      </trkpt>
      <trkpt lat="41.765092" lon="9.300575">
        <ele>693.0</ele>
        <time>2022-09-17T07:48:53Z</time>
      </trkpt>
      <trkpt lat="41.765097" lon="9.300613">
        <ele>692.4</ele>
        <time>2022-09-17T07:48:59Z</time>
      </trkpt>
      <trkpt lat="41.765125" lon="9.300667">
        <ele>691.0</ele>
        <time>2022-09-17T07:49:11Z</time>
      </trkpt>
      <trkpt lat="41.765138" lon="9.30068">
        <ele>690.2</ele>
        <time>2022-09-17T07:49:14Z</time>
      </trkpt>
      <trkpt lat="41.765223" lon="9.300733">
        <ele>689.8</ele>
        <time>2022-09-17T07:49:26Z</time>
      </trkpt>
      <trkpt lat="41.765258" lon="9.300757">
        <ele>689.8</ele>
        <time>2022-09-17T07:49:31Z</time>
      </trkpt>
      <trkpt lat="41.765295" lon="9.300893">
        <ele>688.8</ele>
        <time>2022-09-17T07:49:44Z</time>
      </trkpt>
      <trkpt lat="41.765292" lon="9.300905">
        <ele>688.8</ele>
        <time>2022-09-17T07:49:46Z</time>
      </trkpt>
      <trkpt lat="41.765272" lon="9.300987">
        <ele>686.4</ele>
        <time>2022-09-17T07:49:56Z</time>
      </trkpt>
      <trkpt lat="41.765275" lon="9.301022">
        <ele>685.6</ele>
        <time>2022-09-17T07:50:03Z</time>
      </trkpt>
      <trkpt lat="41.765257" lon="9.301073">
        <ele>681.2</ele>
        <time>2022-09-17T07:50:26Z</time>
      </trkpt>
      <trkpt lat="41.765247" lon="9.301137">
        <ele>678.4</ele>
        <time>2022-09-17T07:50:51Z</time>
      </trkpt>
      <trkpt lat="41.765215" lon="9.301162">
        <ele>675.2</ele>
        <time>2022-09-17T07:51:08Z</time>
      </trkpt>
      <trkpt lat="41.765213" lon="9.301173">
        <ele>673.4</ele>
        <time>2022-09-17T07:51:13Z</time>
      </trkpt>
      <trkpt lat="41.765238" lon="9.301363">
        <ele>671.6</ele>
        <time>2022-09-17T07:51:34Z</time>
      </trkpt>
      <trkpt lat="41.765258" lon="9.301465">
        <ele>672.6</ele>
        <time>2022-09-17T07:51:43Z</time>
      </trkpt>
      <trkpt lat="41.765262" lon="9.30153">
        <ele>673.2</ele>
        <time>2022-09-17T07:51:49Z</time>
      </trkpt>
      <trkpt lat="41.765268" lon="9.30156">
        <ele>671.8</ele>
        <time>2022-09-17T07:51:53Z</time>
      </trkpt>
      <trkpt lat="41.765332" lon="9.301612">
        <ele>669.4</ele>
        <time>2022-09-17T07:52:06Z</time>
      </trkpt>
      <trkpt lat="41.765342" lon="9.301732">
        <ele>668.6</ele>
        <time>2022-09-17T07:52:14Z</time>
      </trkpt>
      <trkpt lat="41.765432" lon="9.301915">
        <ele>666.6</ele>
        <time>2022-09-17T07:52:24Z</time>
      </trkpt>
      <trkpt lat="41.765515" lon="9.302043">
        <ele>663.8</ele>
        <time>2022-09-17T07:52:31Z</time>
      </trkpt>
      <trkpt lat="41.765532" lon="9.302053">
        <ele>663.4</ele>
        <time>2022-09-17T07:52:33Z</time>
      </trkpt>
      <trkpt lat="41.765592" lon="9.30208">
        <ele>663.8</ele>
        <time>2022-09-17T07:52:40Z</time>
      </trkpt>
      <trkpt lat="41.765617" lon="9.302133">
        <ele>663.8</ele>
        <time>2022-09-17T07:52:46Z</time>
      </trkpt>
      <trkpt lat="41.765648" lon="9.302188">
        <ele>662.2</ele>
        <time>2022-09-17T07:52:53Z</time>
      </trkpt>
      <trkpt lat="41.76568" lon="9.302215">
        <ele>661.4</ele>
        <time>2022-09-17T07:52:58Z</time>
      </trkpt>
      <trkpt lat="41.765745" lon="9.302238">
        <ele>659.8</ele>
        <time>2022-09-17T07:53:09Z</time>
      </trkpt>
      <trkpt lat="41.765772" lon="9.302263">
        <ele>658.2</ele>
        <time>2022-09-17T07:53:15Z</time>
      </trkpt>
      <trkpt lat="41.765845" lon="9.302263">
        <ele>654.8</ele>
        <time>2022-09-17T07:53:29Z</time>
      </trkpt>
      <trkpt lat="41.765868" lon="9.302282">
        <ele>654.6</ele>
        <time>2022-09-17T07:53:33Z</time>
      </trkpt>
      <trkpt lat="41.765893" lon="9.302327">
        <ele>654.6</ele>
        <time>2022-09-17T07:53:39Z</time>
      </trkpt>
      <trkpt lat="41.765918" lon="9.302433">
        <ele>653.2</ele>
        <time>2022-09-17T07:53:52Z</time>
      </trkpt>
      <trkpt lat="41.765973" lon="9.302528">
        <ele>651.2</ele>
        <time>2022-09-17T07:54:03Z</time>
      </trkpt>
      <trkpt lat="41.765965" lon="9.30262">
        <ele>650.2</ele>
        <time>2022-09-17T07:54:11Z</time>
      </trkpt>
      <trkpt lat="41.765962" lon="9.302645">
        <ele>649.8</ele>
        <time>2022-09-17T07:54:13Z</time>
      </trkpt>
      <trkpt lat="41.765953" lon="9.302703">
        <ele>648.6</ele>
        <time>2022-09-17T07:54:19Z</time>
      </trkpt>
      <trkpt lat="41.76593" lon="9.302763">
        <ele>647.6</ele>
        <time>2022-09-17T07:54:27Z</time>
      </trkpt>
      <trkpt lat="41.765907" lon="9.302802">
        <ele>647.4</ele>
        <time>2022-09-17T07:54:32Z</time>
      </trkpt>
      <trkpt lat="41.76591" lon="9.302878">
        <ele>646.0</ele>
        <time>2022-09-17T07:54:39Z</time>
      </trkpt>
      <trkpt lat="41.765937" lon="9.302927">
        <ele>645.4</ele>
        <time>2022-09-17T07:54:45Z</time>
      </trkpt>
      <trkpt lat="41.765987" lon="9.30302">
        <ele>643.2</ele>
        <time>2022-09-17T07:54:56Z</time>
      </trkpt>
      <trkpt lat="41.765953" lon="9.303088">
        <ele>642.0</ele>
        <time>2022-09-17T07:55:05Z</time>
      </trkpt>
      <trkpt lat="41.765945" lon="9.303147">
        <ele>641.2</ele>
        <time>2022-09-17T07:55:11Z</time>
      </trkpt>
      <trkpt lat="41.765957" lon="9.303192">
        <ele>640.8</ele>
        <time>2022-09-17T07:55:16Z</time>
      </trkpt>
      <trkpt lat="41.765968" lon="9.303227">
        <ele>640.6</ele>
        <time>2022-09-17T07:55:20Z</time>
      </trkpt>
      <trkpt lat="41.765962" lon="9.303315">
        <ele>639.0</ele>
        <time>2022-09-17T07:55:32Z</time>
      </trkpt>
      <trkpt lat="41.765973" lon="9.303363">
        <ele>638.2</ele>
        <time>2022-09-17T07:55:40Z</time>
      </trkpt>
      <trkpt lat="41.765938" lon="9.303402">
        <ele>637.6</ele>
        <time>2022-09-17T07:55:53Z</time>
      </trkpt>
      <trkpt lat="41.765935" lon="9.30341">
        <ele>637.0</ele>
        <time>2022-09-17T07:55:55Z</time>
      </trkpt>
      <trkpt lat="41.765918" lon="9.303395">
        <ele>635.8</ele>
        <time>2022-09-17T07:56:04Z</time>
      </trkpt>
      <trkpt lat="41.765945" lon="9.30341">
        <ele>634.0</ele>
        <time>2022-09-17T07:56:15Z</time>
      </trkpt>
      <trkpt lat="41.765963" lon="9.303465">
        <ele>631.6</ele>
        <time>2022-09-17T07:56:28Z</time>
      </trkpt>
      <trkpt lat="41.766022" lon="9.303478">
        <ele>631.6</ele>
        <time>2022-09-17T07:56:37Z</time>
      </trkpt>
      <trkpt lat="41.766017" lon="9.303517">
        <ele>631.0</ele>
        <time>2022-09-17T07:56:42Z</time>
      </trkpt>
      <trkpt lat="41.765985" lon="9.303552">
        <ele>629.4</ele>
        <time>2022-09-17T07:56:49Z</time>
      </trkpt>
      <trkpt lat="41.765992" lon="9.303605">
        <ele>627.8</ele>
        <time>2022-09-17T07:56:54Z</time>
      </trkpt>
      <trkpt lat="41.766005" lon="9.303673">
        <ele>626.2</ele>
        <time>2022-09-17T07:57:02Z</time>
      </trkpt>
      <trkpt lat="41.766003" lon="9.303717">
        <ele>625.6</ele>
        <time>2022-09-17T07:57:07Z</time>
      </trkpt>
      <trkpt lat="41.766" lon="9.30381">
        <ele>623.8</ele>
        <time>2022-09-17T07:57:18Z</time>
      </trkpt>
      <trkpt lat="41.766003" lon="9.30382">
        <ele>623.6</ele>
        <time>2022-09-17T07:57:19Z</time>
      </trkpt>
      <trkpt lat="41.76606" lon="9.303863">
        <ele>623.4</ele>
        <time>2022-09-17T07:57:29Z</time>
      </trkpt>
      <trkpt lat="41.766057" lon="9.303912">
        <ele>623.0</ele>
        <time>2022-09-17T07:57:36Z</time>
      </trkpt>
      <trkpt lat="41.766035" lon="9.30398">
        <ele>622.6</ele>
        <time>2022-09-17T07:57:45Z</time>
      </trkpt>
      <trkpt lat="41.766048" lon="9.304023">
        <ele>621.0</ele>
        <time>2022-09-17T07:57:51Z</time>
      </trkpt>
      <trkpt lat="41.766118" lon="9.304032">
        <ele>618.0</ele>
        <time>2022-09-17T07:58:07Z</time>
      </trkpt>
      <trkpt lat="41.766122" lon="9.304028">
        <ele>618.0</ele>
        <time>2022-09-17T07:58:07Z</time>
      </trkpt>
      <trkpt lat="41.766233" lon="9.303982">
        <ele>614.6</ele>
        <time>2022-09-17T07:58:30Z</time>
      </trkpt>
      <trkpt lat="41.766275" lon="9.304017">
        <ele>614.4</ele>
        <time>2022-09-17T07:58:38Z</time>
      </trkpt>
      <trkpt lat="41.766257" lon="9.304077">
        <ele>613.4</ele>
        <time>2022-09-17T07:58:49Z</time>
      </trkpt>
      <trkpt lat="41.76626" lon="9.304082">
        <ele>613.4</ele>
        <time>2022-09-17T07:58:50Z</time>
      </trkpt>
      <trkpt lat="41.766337" lon="9.304155">
        <ele>612.4</ele>
        <time>2022-09-17T07:59:10Z</time>
      </trkpt>
      <trkpt lat="41.766315" lon="9.30441">
        <ele>614.6</ele>
        <time>2022-09-17T07:59:39Z</time>
      </trkpt>
      <trkpt lat="41.765948" lon="9.304772">
        <ele>614.8</ele>
        <time>2022-09-17T08:00:21Z</time>
      </trkpt>
      <trkpt lat="41.765875" lon="9.30484">
        <ele>615.2</ele>
        <time>2022-09-17T08:00:30Z</time>
      </trkpt>
      <trkpt lat="41.765787" lon="9.304918">
        <ele>615.2</ele>
        <time>2022-09-17T08:00:41Z</time>
      </trkpt>
      <trkpt lat="41.765685" lon="9.305008">
        <ele>615.0</ele>
        <time>2022-09-17T08:00:55Z</time>
      </trkpt>
      <trkpt lat="41.765632" lon="9.30507">
        <ele>616.4</ele>
        <time>2022-09-17T08:01:05Z</time>
      </trkpt>
      <trkpt lat="41.765538" lon="9.305093">
        <ele>617.0</ele>
        <time>2022-09-17T08:01:13Z</time>
      </trkpt>
      <trkpt lat="41.765455" lon="9.30512">
        <ele>616.8</ele>
        <time>2022-09-17T08:01:20Z</time>
      </trkpt>
      <trkpt lat="41.765292" lon="9.305203">
        <ele>616.4</ele>
        <time>2022-09-17T08:01:34Z</time>
      </trkpt>
      <trkpt lat="41.76515" lon="9.305273">
        <ele>615.6</ele>
        <time>2022-09-17T08:01:43Z</time>
      </trkpt>
      <trkpt lat="41.7651" lon="9.305288">
        <ele>615.0</ele>
        <time>2022-09-17T08:01:48Z</time>
      </trkpt>
      <trkpt lat="41.765045" lon="9.305382">
        <ele>614.2</ele>
        <time>2022-09-17T08:01:58Z</time>
      </trkpt>
      <trkpt lat="41.764877" lon="9.305658">
        <ele>610.8</ele>
        <time>2022-09-17T08:02:38Z</time>
      </trkpt>
      <trkpt lat="41.764872" lon="9.305668">
        <ele>610.8</ele>
        <time>2022-09-17T08:02:39Z</time>
      </trkpt>
      <trkpt lat="41.76482" lon="9.30573">
        <ele>610.6</ele>
        <time>2022-09-17T08:02:46Z</time>
      </trkpt>
      <trkpt lat="41.7647" lon="9.305845">
        <ele>610.8</ele>
        <time>2022-09-17T08:03:02Z</time>
      </trkpt>
      <trkpt lat="41.764578" lon="9.305928">
        <ele>611.0</ele>
        <time>2022-09-17T08:03:17Z</time>
      </trkpt>
      <trkpt lat="41.7645" lon="9.305982">
        <ele>612.4</ele>
        <time>2022-09-17T08:03:25Z</time>
      </trkpt>
      <trkpt lat="41.764417" lon="9.305995">
        <ele>613.4</ele>
        <time>2022-09-17T08:03:32Z</time>
      </trkpt>
      <trkpt lat="41.764127" lon="9.306057">
        <ele>614.6</ele>
        <time>2022-09-17T08:03:58Z</time>
      </trkpt>
      <trkpt lat="41.76405" lon="9.30606">
        <ele>613.4</ele>
        <time>2022-09-17T08:04:07Z</time>
      </trkpt>
      <trkpt lat="41.764027" lon="9.306058">
        <ele>612.6</ele>
        <time>2022-09-17T08:04:08Z</time>
      </trkpt>
      <trkpt lat="41.763983" lon="9.306008">
        <ele>612.0</ele>
        <time>2022-09-17T08:04:13Z</time>
      </trkpt>
      <trkpt lat="41.763967" lon="9.305982">
        <ele>612.0</ele>
        <time>2022-09-17T08:04:15Z</time>
      </trkpt>
      <trkpt lat="41.763702" lon="9.306138">
        <ele>615.2</ele>
        <time>2022-09-17T08:04:51Z</time>
      </trkpt>
      <trkpt lat="41.763643" lon="9.3062">
        <ele>615.0</ele>
        <time>2022-09-17T08:05:02Z</time>
      </trkpt>
      <trkpt lat="41.763453" lon="9.306452">
        <ele>615.8</ele>
        <time>2022-09-17T08:05:27Z</time>
      </trkpt>
      <trkpt lat="41.763412" lon="9.306502">
        <ele>615.4</ele>
        <time>2022-09-17T08:05:32Z</time>
      </trkpt>
      <trkpt lat="41.763403" lon="9.306512">
        <ele>615.4</ele>
        <time>2022-09-17T08:05:33Z</time>
      </trkpt>
      <trkpt lat="41.763205" lon="9.30663">
        <ele>617.6</ele>
        <time>2022-09-17T08:05:53Z</time>
      </trkpt>
      <trkpt lat="41.763108" lon="9.306718">
        <ele>617.6</ele>
        <time>2022-09-17T08:06:05Z</time>
      </trkpt>
      <trkpt lat="41.763035" lon="9.306812">
        <ele>615.8</ele>
        <time>2022-09-17T08:06:13Z</time>
      </trkpt>
      <trkpt lat="41.763027" lon="9.306823">
        <ele>615.4</ele>
        <time>2022-09-17T08:06:14Z</time>
      </trkpt>
      <trkpt lat="41.762983" lon="9.306857">
        <ele>616.0</ele>
        <time>2022-09-17T08:06:19Z</time>
      </trkpt>
      <trkpt lat="41.76291" lon="9.306882">
        <ele>618.2</ele>
        <time>2022-09-17T08:06:28Z</time>
      </trkpt>
      <trkpt lat="41.762872" lon="9.306915">
        <ele>617.8</ele>
        <time>2022-09-17T08:06:34Z</time>
      </trkpt>
      <trkpt lat="41.762822" lon="9.30699">
        <ele>617.0</ele>
        <time>2022-09-17T08:06:42Z</time>
      </trkpt>
      <trkpt lat="41.762797" lon="9.307003">
        <ele>617.0</ele>
        <time>2022-09-17T08:06:45Z</time>
      </trkpt>
      <trkpt lat="41.762687" lon="9.307052">
        <ele>614.8</ele>
        <time>2022-09-17T08:06:58Z</time>
      </trkpt>
      <trkpt lat="41.762608" lon="9.307053">
        <ele>612.6</ele>
        <time>2022-09-17T08:07:07Z</time>
      </trkpt>
      <trkpt lat="41.762558" lon="9.3071">
        <ele>610.8</ele>
        <time>2022-09-17T08:07:15Z</time>
      </trkpt>
      <trkpt lat="41.762502" lon="9.30713">
        <ele>612.2</ele>
        <time>2022-09-17T08:07:22Z</time>
      </trkpt>
      <trkpt lat="41.762395" lon="9.307163">
        <ele>610.0</ele>
        <time>2022-09-17T08:07:34Z</time>
      </trkpt>
      <trkpt lat="41.76239" lon="9.307162">
        <ele>610.4</ele>
        <time>2022-09-17T08:07:35Z</time>
      </trkpt>
      <trkpt lat="41.762337" lon="9.30713">
        <ele>607.8</ele>
        <time>2022-09-17T08:07:46Z</time>
      </trkpt>
      <trkpt lat="41.76229" lon="9.307117">
        <ele>606.2</ele>
        <time>2022-09-17T08:07:57Z</time>
      </trkpt>
      <trkpt lat="41.762235" lon="9.307107">
        <ele>604.4</ele>
        <time>2022-09-17T08:08:19Z</time>
      </trkpt>
      <trkpt lat="41.762233" lon="9.307105">
        <ele>604.0</ele>
        <time>2022-09-17T08:08:20Z</time>
      </trkpt>
      <trkpt lat="41.762118" lon="9.30705">
        <ele>600.4</ele>
        <time>2022-09-17T08:08:54Z</time>
      </trkpt>
      <trkpt lat="41.762078" lon="9.307068">
        <ele>599.0</ele>
        <time>2022-09-17T08:09:03Z</time>
      </trkpt>
      <trkpt lat="41.762053" lon="9.307067">
        <ele>597.8</ele>
        <time>2022-09-17T08:09:07Z</time>
      </trkpt>
      <trkpt lat="41.761965" lon="9.30707">
        <ele>596.2</ele>
        <time>2022-09-17T08:09:13Z</time>
      </trkpt>
      <trkpt lat="41.761875" lon="9.307095">
        <ele>593.6</ele>
        <time>2022-09-17T08:09:19Z</time>
      </trkpt>
      <trkpt lat="41.761708" lon="9.307087">
        <ele>591.0</ele>
        <time>2022-09-17T08:09:31Z</time>
      </trkpt>
      <trkpt lat="41.761697" lon="9.307083">
        <ele>591.0</ele>
        <time>2022-09-17T08:09:32Z</time>
      </trkpt>
      <trkpt lat="41.761675" lon="9.307075">
        <ele>590.8</ele>
        <time>2022-09-17T08:09:38Z</time>
      </trkpt>
      <trkpt lat="41.761662" lon="9.307108">
        <ele>590.4</ele>
        <time>2022-09-17T08:09:43Z</time>
      </trkpt>
      <trkpt lat="41.761642" lon="9.307257">
        <ele>589.6</ele>
        <time>2022-09-17T08:10:02Z</time>
      </trkpt>
      <trkpt lat="41.761612" lon="9.307338">
        <ele>588.0</ele>
        <time>2022-09-17T08:10:11Z</time>
      </trkpt>
      <trkpt lat="41.76161" lon="9.307382">
        <ele>587.2</ele>
        <time>2022-09-17T08:10:16Z</time>
      </trkpt>
      <trkpt lat="41.761607" lon="9.307447">
        <ele>585.6</ele>
        <time>2022-09-17T08:10:25Z</time>
      </trkpt>
      <trkpt lat="41.761553" lon="9.307668">
        <ele>586.4</ele>
        <time>2022-09-17T08:10:55Z</time>
      </trkpt>
      <trkpt lat="41.761545" lon="9.307687">
        <ele>586.4</ele>
        <time>2022-09-17T08:10:58Z</time>
      </trkpt>
      <trkpt lat="41.761507" lon="9.307745">
        <ele>586.2</ele>
        <time>2022-09-17T08:11:05Z</time>
      </trkpt>
      <trkpt lat="41.76142" lon="9.307917">
        <ele>583.4</ele>
        <time>2022-09-17T08:11:22Z</time>
      </trkpt>
      <trkpt lat="41.761322" lon="9.308038">
        <ele>580.6</ele>
        <time>2022-09-17T08:11:36Z</time>
      </trkpt>
      <trkpt lat="41.761293" lon="9.308075">
        <ele>580.2</ele>
        <time>2022-09-17T08:11:39Z</time>
      </trkpt>
      <trkpt lat="41.761375" lon="9.308018">
        <ele>579.6</ele>
        <time>2022-09-17T08:11:53Z</time>
      </trkpt>
      <trkpt lat="41.761403" lon="9.307985">
        <ele>579.6</ele>
        <time>2022-09-17T08:11:59Z</time>
      </trkpt>
      <trkpt lat="41.761443" lon="9.307923">
        <ele>576.4</ele>
        <time>2022-09-17T08:12:13Z</time>
      </trkpt>
      <trkpt lat="41.761467" lon="9.307947">
        <ele>575.8</ele>
        <time>2022-09-17T08:12:19Z</time>
      </trkpt>
      <trkpt lat="41.76147" lon="9.307977">
        <ele>575.6</ele>
        <time>2022-09-17T08:12:22Z</time>
      </trkpt>
      <trkpt lat="41.761443" lon="9.307952">
        <ele>574.0</ele>
        <time>2022-09-17T08:12:28Z</time>
      </trkpt>
      <trkpt lat="41.761408" lon="9.307937">
        <ele>572.0</ele>
        <time>2022-09-17T08:12:35Z</time>
      </trkpt>
      <trkpt lat="41.761387" lon="9.307915">
        <ele>568.6</ele>
        <time>2022-09-17T08:12:47Z</time>
      </trkpt>
      <trkpt lat="41.76138" lon="9.307908">
        <ele>566.4</ele>
        <time>2022-09-17T08:12:57Z</time>
      </trkpt>
      <trkpt lat="41.761392" lon="9.30788">
        <ele>565.6</ele>
        <time>2022-09-17T08:13:03Z</time>
      </trkpt>
      <trkpt lat="41.761358" lon="9.30781">
        <ele>564.0</ele>
        <time>2022-09-17T08:13:10Z</time>
      </trkpt>
      <trkpt lat="41.7613" lon="9.307695">
        <ele>560.6</ele>
        <time>2022-09-17T08:13:23Z</time>
      </trkpt>
      <trkpt lat="41.761262" lon="9.307637">
        <ele>560.4</ele>
        <time>2022-09-17T08:13:32Z</time>
      </trkpt>
      <trkpt lat="41.761222" lon="9.3076">
        <ele>559.4</ele>
        <time>2022-09-17T08:13:41Z</time>
      </trkpt>
      <trkpt lat="41.761195" lon="9.307545">
        <ele>558.8</ele>
        <time>2022-09-17T08:13:50Z</time>
      </trkpt>
      <trkpt lat="41.761165" lon="9.307552">
        <ele>558.2</ele>
        <time>2022-09-17T08:13:54Z</time>
      </trkpt>
      <trkpt lat="41.761125" lon="9.307548">
        <ele>557.2</ele>
        <time>2022-09-17T08:14:00Z</time>
      </trkpt>
      <trkpt lat="41.761088" lon="9.307573">
        <ele>557.6</ele>
        <time>2022-09-17T08:14:07Z</time>
      </trkpt>
      <trkpt lat="41.76105" lon="9.307642">
        <ele>558.2</ele>
        <time>2022-09-17T08:14:18Z</time>
      </trkpt>
      <trkpt lat="41.761005" lon="9.307735">
        <ele>559.0</ele>
        <time>2022-09-17T08:14:30Z</time>
      </trkpt>
      <trkpt lat="41.761003" lon="9.307743">
        <ele>559.0</ele>
        <time>2022-09-17T08:14:31Z</time>
      </trkpt>
      <trkpt lat="41.760988" lon="9.307722">
        <ele>559.4</ele>
        <time>2022-09-17T08:14:35Z</time>
      </trkpt>
      <trkpt lat="41.760952" lon="9.307708">
        <ele>560.4</ele>
        <time>2022-09-17T08:14:41Z</time>
      </trkpt>
      <trkpt lat="41.760892" lon="9.307698">
        <ele>562.0</ele>
        <time>2022-09-17T08:14:51Z</time>
      </trkpt>
      <trkpt lat="41.760863" lon="9.307682">
        <ele>562.6</ele>
        <time>2022-09-17T08:14:56Z</time>
      </trkpt>
      <trkpt lat="41.760837" lon="9.30764">
        <ele>563.6</ele>
        <time>2022-09-17T08:15:03Z</time>
      </trkpt>
      <trkpt lat="41.760832" lon="9.307637">
        <ele>564.0</ele>
        <time>2022-09-17T08:15:04Z</time>
      </trkpt>
      <trkpt lat="41.760595" lon="9.307878">
        <ele>565.8</ele>
        <time>2022-09-17T08:15:35Z</time>
      </trkpt>
      <trkpt lat="41.760552" lon="9.307897">
        <ele>566.4</ele>
        <time>2022-09-17T08:15:41Z</time>
      </trkpt>
      <trkpt lat="41.760462" lon="9.307903">
        <ele>567.0</ele>
        <time>2022-09-17T08:15:52Z</time>
      </trkpt>
      <trkpt lat="41.7604" lon="9.307883">
        <ele>568.0</ele>
        <time>2022-09-17T08:16:01Z</time>
      </trkpt>
      <trkpt lat="41.760362" lon="9.307888">
        <ele>569.2</ele>
        <time>2022-09-17T08:16:07Z</time>
      </trkpt>
      <trkpt lat="41.760332" lon="9.307913">
        <ele>570.4</ele>
        <time>2022-09-17T08:16:14Z</time>
      </trkpt>
      <trkpt lat="41.760328" lon="9.307957">
        <ele>570.8</ele>
        <time>2022-09-17T08:16:21Z</time>
      </trkpt>
      <trkpt lat="41.76033" lon="9.308023">
        <ele>570.6</ele>
        <time>2022-09-17T08:16:30Z</time>
      </trkpt>
      <trkpt lat="41.760323" lon="9.308155">
        <ele>571.6</ele>
        <time>2022-09-17T08:16:46Z</time>
      </trkpt>
      <trkpt lat="41.760343" lon="9.308282">
        <ele>573.0</ele>
        <time>2022-09-17T08:17:04Z</time>
      </trkpt>
      <trkpt lat="41.760318" lon="9.308353">
        <ele>573.0</ele>
        <time>2022-09-17T08:17:12Z</time>
      </trkpt>
      <trkpt lat="41.760272" lon="9.308405">
        <ele>573.6</ele>
        <time>2022-09-17T08:17:22Z</time>
      </trkpt>
      <trkpt lat="41.760215" lon="9.308463">
        <ele>574.4</ele>
        <time>2022-09-17T08:17:30Z</time>
      </trkpt>
      <trkpt lat="41.760188" lon="9.308537">
        <ele>574.8</ele>
        <time>2022-09-17T08:17:37Z</time>
      </trkpt>
      <trkpt lat="41.760208" lon="9.308595">
        <ele>575.2</ele>
        <time>2022-09-17T08:17:42Z</time>
      </trkpt>
      <trkpt lat="41.760317" lon="9.308698">
        <ele>576.6</ele>
        <time>2022-09-17T08:17:56Z</time>
      </trkpt>
      <trkpt lat="41.760292" lon="9.308702">
        <ele>576.6</ele>
        <time>2022-09-17T08:17:59Z</time>
      </trkpt>
      <trkpt lat="41.760248" lon="9.308717">
        <ele>576.8</ele>
        <time>2022-09-17T08:18:04Z</time>
      </trkpt>
      <trkpt lat="41.760105" lon="9.308922">
        <ele>577.4</ele>
        <time>2022-09-17T08:18:23Z</time>
      </trkpt>
      <trkpt lat="41.760073" lon="9.308958">
        <ele>577.8</ele>
        <time>2022-09-17T08:18:27Z</time>
      </trkpt>
      <trkpt lat="41.760028" lon="9.308982">
        <ele>577.8</ele>
        <time>2022-09-17T08:18:31Z</time>
      </trkpt>
      <trkpt lat="41.76" lon="9.309013">
        <ele>577.6</ele>
        <time>2022-09-17T08:18:38Z</time>
      </trkpt>
      <trkpt lat="41.759983" lon="9.309055">
        <ele>578.0</ele>
        <time>2022-09-17T08:18:44Z</time>
      </trkpt>
      <trkpt lat="41.759972" lon="9.3091">
        <ele>578.8</ele>
        <time>2022-09-17T08:18:50Z</time>
      </trkpt>
      <trkpt lat="41.759947" lon="9.309163">
        <ele>579.8</ele>
        <time>2022-09-17T08:18:59Z</time>
      </trkpt>
      <trkpt lat="41.759952" lon="9.309237">
        <ele>580.6</ele>
        <time>2022-09-17T08:19:07Z</time>
      </trkpt>
      <trkpt lat="41.759958" lon="9.309273">
        <ele>582.0</ele>
        <time>2022-09-17T08:19:13Z</time>
      </trkpt>
      <trkpt lat="41.759908" lon="9.309392">
        <ele>583.8</ele>
        <time>2022-09-17T08:19:32Z</time>
      </trkpt>
      <trkpt lat="41.759902" lon="9.309495">
        <ele>587.8</ele>
        <time>2022-09-17T08:19:42Z</time>
      </trkpt>
      <trkpt lat="41.7599" lon="9.309532">
        <ele>588.2</ele>
        <time>2022-09-17T08:19:46Z</time>
      </trkpt>
      <trkpt lat="41.759893" lon="9.309593">
        <ele>587.8</ele>
        <time>2022-09-17T08:19:53Z</time>
      </trkpt>
      <trkpt lat="41.759862" lon="9.30972">
        <ele>587.2</ele>
        <time>2022-09-17T08:20:14Z</time>
      </trkpt>
      <trkpt lat="41.759752" lon="9.309642">
        <ele>591.6</ele>
        <time>2022-09-17T08:20:57Z</time>
      </trkpt>
      <trkpt lat="41.75971" lon="9.309582">
        <ele>598.6</ele>
        <time>2022-09-17T08:21:20Z</time>
      </trkpt>
      <trkpt lat="41.7597" lon="9.30965">
        <ele>601.0</ele>
        <time>2022-09-17T08:21:43Z</time>
      </trkpt>
      <trkpt lat="41.759737" lon="9.30983">
        <ele>602.0</ele>
        <time>2022-09-17T08:22:18Z</time>
      </trkpt>
      <trkpt lat="41.759735" lon="9.309828">
        <ele>605.6</ele>
        <time>2022-09-17T08:22:23Z</time>
      </trkpt>
      <trkpt lat="41.759658" lon="9.30977">
        <ele>606.0</ele>
        <time>2022-09-17T08:22:34Z</time>
      </trkpt>
      <trkpt lat="41.759588" lon="9.309628">
        <ele>609.8</ele>
        <time>2022-09-17T08:22:49Z</time>
      </trkpt>
      <trkpt lat="41.759577" lon="9.309603">
        <ele>610.0</ele>
        <time>2022-09-17T08:22:52Z</time>
      </trkpt>
      <trkpt lat="41.759575" lon="9.30958">
        <ele>609.6</ele>
        <time>2022-09-17T08:22:53Z</time>
      </trkpt>
      <trkpt lat="41.759532" lon="9.309673">
        <ele>611.8</ele>
        <time>2022-09-17T08:23:01Z</time>
      </trkpt>
      <trkpt lat="41.759515" lon="9.309787">
        <ele>614.8</ele>
        <time>2022-09-17T08:23:10Z</time>
      </trkpt>
      <trkpt lat="41.759552" lon="9.309785">
        <ele>615.0</ele>
        <time>2022-09-17T08:23:17Z</time>
      </trkpt>
      <trkpt lat="41.759627" lon="9.309725">
        <ele>618.0</ele>
        <time>2022-09-17T08:23:34Z</time>
      </trkpt>
      <trkpt lat="41.759632" lon="9.30972">
        <ele>618.2</ele>
        <time>2022-09-17T08:23:35Z</time>
      </trkpt>
      <trkpt lat="41.75963" lon="9.309772">
        <ele>618.6</ele>
        <time>2022-09-17T08:23:45Z</time>
      </trkpt>
      <trkpt lat="41.759623" lon="9.309822">
        <ele>619.6</ele>
        <time>2022-09-17T08:23:53Z</time>
      </trkpt>
      <trkpt lat="41.7596" lon="9.309932">
        <ele>619.8</ele>
        <time>2022-09-17T08:24:04Z</time>
      </trkpt>
      <trkpt lat="41.759617" lon="9.309993">
        <ele>620.0</ele>
        <time>2022-09-17T08:24:10Z</time>
      </trkpt>
      <trkpt lat="41.759645" lon="9.31003">
        <ele>620.6</ele>
        <time>2022-09-17T08:24:15Z</time>
      </trkpt>
      <trkpt lat="41.759653" lon="9.310033">
        <ele>621.4</ele>
        <time>2022-09-17T08:24:17Z</time>
      </trkpt>
      <trkpt lat="41.759732" lon="9.310072">
        <ele>625.0</ele>
        <time>2022-09-17T08:24:28Z</time>
      </trkpt>
      <trkpt lat="41.759778" lon="9.31008">
        <ele>628.4</ele>
        <time>2022-09-17T08:24:38Z</time>
      </trkpt>
      <trkpt lat="41.759765" lon="9.310137">
        <ele>626.6</ele>
        <time>2022-09-17T08:24:46Z</time>
      </trkpt>
      <trkpt lat="41.75969" lon="9.3102">
        <ele>626.8</ele>
        <time>2022-09-17T08:24:56Z</time>
      </trkpt>
      <trkpt lat="41.759662" lon="9.31021">
        <ele>626.6</ele>
        <time>2022-09-17T08:24:59Z</time>
      </trkpt>
      <trkpt lat="41.75963" lon="9.310262">
        <ele>629.8</ele>
        <time>2022-09-17T08:25:05Z</time>
      </trkpt>
      <trkpt lat="41.759508" lon="9.310517">
        <ele>633.2</ele>
        <time>2022-09-17T08:25:28Z</time>
      </trkpt>
      <trkpt lat="41.759448" lon="9.310577">
        <ele>634.2</ele>
        <time>2022-09-17T08:25:35Z</time>
      </trkpt>
      <trkpt lat="41.759397" lon="9.310633">
        <ele>633.8</ele>
        <time>2022-09-17T08:25:41Z</time>
      </trkpt>
      <trkpt lat="41.75931" lon="9.310733">
        <ele>634.2</ele>
        <time>2022-09-17T08:25:55Z</time>
      </trkpt>
      <trkpt lat="41.759152" lon="9.310825">
        <ele>634.0</ele>
        <time>2022-09-17T08:26:24Z</time>
      </trkpt>
      <trkpt lat="41.759143" lon="9.310827">
        <ele>634.0</ele>
        <time>2022-09-17T08:26:25Z</time>
      </trkpt>
      <trkpt lat="41.75909" lon="9.310835">
        <ele>634.0</ele>
        <time>2022-09-17T08:26:32Z</time>
      </trkpt>
      <trkpt lat="41.759032" lon="9.31087">
        <ele>634.4</ele>
        <time>2022-09-17T08:26:39Z</time>
      </trkpt>
      <trkpt lat="41.758995" lon="9.310917">
        <ele>633.6</ele>
        <time>2022-09-17T08:26:46Z</time>
      </trkpt>
      <trkpt lat="41.758932" lon="9.311005">
        <ele>632.4</ele>
        <time>2022-09-17T08:26:58Z</time>
      </trkpt>
      <trkpt lat="41.758885" lon="9.311058">
        <ele>632.6</ele>
        <time>2022-09-17T08:27:06Z</time>
      </trkpt>
      <trkpt lat="41.75887" lon="9.311082">
        <ele>632.4</ele>
        <time>2022-09-17T08:27:09Z</time>
      </trkpt>
      <trkpt lat="41.758793" lon="9.311155">
        <ele>631.6</ele>
        <time>2022-09-17T08:27:20Z</time>
      </trkpt>
      <trkpt lat="41.758718" lon="9.311173">
        <ele>629.8</ele>
        <time>2022-09-17T08:27:29Z</time>
      </trkpt>
      <trkpt lat="41.758632" lon="9.311177">
        <ele>629.0</ele>
        <time>2022-09-17T08:27:37Z</time>
      </trkpt>
      <trkpt lat="41.758568" lon="9.311207">
        <ele>628.8</ele>
        <time>2022-09-17T08:27:43Z</time>
      </trkpt>
      <trkpt lat="41.758425" lon="9.311285">
        <ele>630.6</ele>
        <time>2022-09-17T08:27:57Z</time>
      </trkpt>
      <trkpt lat="41.758417" lon="9.311297">
        <ele>630.6</ele>
        <time>2022-09-17T08:27:58Z</time>
      </trkpt>
      <trkpt lat="41.758425" lon="9.311353">
        <ele>631.2</ele>
        <time>2022-09-17T08:28:05Z</time>
      </trkpt>
      <trkpt lat="41.758442" lon="9.311435">
        <ele>630.8</ele>
        <time>2022-09-17T08:28:14Z</time>
      </trkpt>
      <trkpt lat="41.758455" lon="9.311618">
        <ele>631.2</ele>
        <time>2022-09-17T08:28:35Z</time>
      </trkpt>
      <trkpt lat="41.758453" lon="9.311635">
        <ele>631.2</ele>
        <time>2022-09-17T08:28:37Z</time>
      </trkpt>
      <trkpt lat="41.758425" lon="9.311743">
        <ele>631.0</ele>
        <time>2022-09-17T08:28:46Z</time>
      </trkpt>
      <trkpt lat="41.758388" lon="9.31189">
        <ele>630.4</ele>
        <time>2022-09-17T08:29:00Z</time>
      </trkpt>
      <trkpt lat="41.758343" lon="9.311952">
        <ele>631.8</ele>
        <time>2022-09-17T08:29:06Z</time>
      </trkpt>
      <trkpt lat="41.758333" lon="9.312013">
        <ele>633.2</ele>
        <time>2022-09-17T08:29:10Z</time>
      </trkpt>
      <trkpt lat="41.758332" lon="9.312032">
        <ele>633.6</ele>
        <time>2022-09-17T08:29:11Z</time>
      </trkpt>
      <trkpt lat="41.758258" lon="9.31218">
        <ele>638.6</ele>
        <time>2022-09-17T08:29:37Z</time>
      </trkpt>
      <trkpt lat="41.758218" lon="9.312225">
        <ele>638.8</ele>
        <time>2022-09-17T08:29:45Z</time>
      </trkpt>
      <trkpt lat="41.758125" lon="9.312275">
        <ele>641.2</ele>
        <time>2022-09-17T08:29:55Z</time>
      </trkpt>
      <trkpt lat="41.758045" lon="9.312268">
        <ele>643.0</ele>
        <time>2022-09-17T08:30:03Z</time>
      </trkpt>
      <trkpt lat="41.757807" lon="9.312363">
        <ele>646.8</ele>
        <time>2022-09-17T08:30:41Z</time>
      </trkpt>
      <trkpt lat="41.757678" lon="9.312385">
        <ele>646.8</ele>
        <time>2022-09-17T08:30:57Z</time>
      </trkpt>
      <trkpt lat="41.757557" lon="9.312402">
        <ele>646.6</ele>
        <time>2022-09-17T08:31:10Z</time>
      </trkpt>
      <trkpt lat="41.75722" lon="9.31219">
        <ele>645.8</ele>
        <time>2022-09-17T08:31:41Z</time>
      </trkpt>
      <trkpt lat="41.757172" lon="9.312223">
        <ele>645.6</ele>
        <time>2022-09-17T08:31:46Z</time>
      </trkpt>
      <trkpt lat="41.757113" lon="9.312337">
        <ele>645.4</ele>
        <time>2022-09-17T08:31:55Z</time>
      </trkpt>
      <trkpt lat="41.756827" lon="9.312632">
        <ele>642.0</ele>
        <time>2022-09-17T08:32:25Z</time>
      </trkpt>
      <trkpt lat="41.75675" lon="9.312647">
        <ele>640.6</ele>
        <time>2022-09-17T08:32:34Z</time>
      </trkpt>
      <trkpt lat="41.75672" lon="9.312662">
        <ele>640.4</ele>
        <time>2022-09-17T08:32:37Z</time>
      </trkpt>
      <trkpt lat="41.756637" lon="9.312728">
        <ele>641.2</ele>
        <time>2022-09-17T08:32:46Z</time>
      </trkpt>
      <trkpt lat="41.756442" lon="9.312818">
        <ele>643.0</ele>
        <time>2022-09-17T08:33:05Z</time>
      </trkpt>
      <trkpt lat="41.756397" lon="9.312828">
        <ele>643.4</ele>
        <time>2022-09-17T08:33:10Z</time>
      </trkpt>
      <trkpt lat="41.756342" lon="9.312827">
        <ele>643.4</ele>
        <time>2022-09-17T08:33:17Z</time>
      </trkpt>
      <trkpt lat="41.756225" lon="9.312857">
        <ele>643.4</ele>
        <time>2022-09-17T08:33:31Z</time>
      </trkpt>
      <trkpt lat="41.756138" lon="9.312833">
        <ele>641.4</ele>
        <time>2022-09-17T08:33:41Z</time>
      </trkpt>
      <trkpt lat="41.756037" lon="9.312783">
        <ele>640.2</ele>
        <time>2022-09-17T08:33:54Z</time>
      </trkpt>
      <trkpt lat="41.755973" lon="9.31281">
        <ele>640.0</ele>
        <time>2022-09-17T08:34:02Z</time>
      </trkpt>
      <trkpt lat="41.75592" lon="9.312875">
        <ele>639.0</ele>
        <time>2022-09-17T08:34:11Z</time>
      </trkpt>
      <trkpt lat="41.755853" lon="9.312978">
        <ele>639.4</ele>
        <time>2022-09-17T08:34:24Z</time>
      </trkpt>
      <trkpt lat="41.755827" lon="9.313065">
        <ele>641.2</ele>
        <time>2022-09-17T08:34:35Z</time>
      </trkpt>
      <trkpt lat="41.75582" lon="9.313087">
        <ele>641.2</ele>
        <time>2022-09-17T08:34:38Z</time>
      </trkpt>
      <trkpt lat="41.755743" lon="9.313333">
        <ele>639.6</ele>
        <time>2022-09-17T08:35:00Z</time>
      </trkpt>
      <trkpt lat="41.75568" lon="9.313432">
        <ele>637.4</ele>
        <time>2022-09-17T08:35:12Z</time>
      </trkpt>
      <trkpt lat="41.755603" lon="9.313492">
        <ele>636.6</ele>
        <time>2022-09-17T08:35:22Z</time>
      </trkpt>
      <trkpt lat="41.755457" lon="9.313452">
        <ele>636.6</ele>
        <time>2022-09-17T08:35:36Z</time>
      </trkpt>
      <trkpt lat="41.75526" lon="9.313372">
        <ele>639.0</ele>
        <time>2022-09-17T08:35:52Z</time>
      </trkpt>
      <trkpt lat="41.755185" lon="9.313362">
        <ele>638.6</ele>
        <time>2022-09-17T08:35:57Z</time>
      </trkpt>
      <trkpt lat="41.755052" lon="9.31336">
        <ele>638.4</ele>
        <time>2022-09-17T08:36:07Z</time>
      </trkpt>
      <trkpt lat="41.755042" lon="9.313365">
        <ele>638.4</ele>
        <time>2022-09-17T08:36:08Z</time>
      </trkpt>
      <trkpt lat="41.754987" lon="9.313383">
        <ele>638.6</ele>
        <time>2022-09-17T08:36:14Z</time>
      </trkpt>
      <trkpt lat="41.754893" lon="9.313408">
        <ele>639.6</ele>
        <time>2022-09-17T08:36:27Z</time>
      </trkpt>
      <trkpt lat="41.75478" lon="9.31348">
        <ele>640.4</ele>
        <time>2022-09-17T08:36:43Z</time>
      </trkpt>
      <trkpt lat="41.754737" lon="9.313525">
        <ele>640.6</ele>
        <time>2022-09-17T08:36:50Z</time>
      </trkpt>
      <trkpt lat="41.75471" lon="9.313562">
        <ele>641.4</ele>
        <time>2022-09-17T08:36:54Z</time>
      </trkpt>
      <trkpt lat="41.754715" lon="9.313588">
        <ele>641.4</ele>
        <time>2022-09-17T08:36:57Z</time>
      </trkpt>
      <trkpt lat="41.754753" lon="9.313658">
        <ele>641.0</ele>
        <time>2022-09-17T08:37:06Z</time>
      </trkpt>
      <trkpt lat="41.754768" lon="9.313743">
        <ele>639.8</ele>
        <time>2022-09-17T08:37:13Z</time>
      </trkpt>
      <trkpt lat="41.75477" lon="9.313827">
        <ele>639.6</ele>
        <time>2022-09-17T08:37:19Z</time>
      </trkpt>
      <trkpt lat="41.754747" lon="9.313933">
        <ele>640.4</ele>
        <time>2022-09-17T08:37:27Z</time>
      </trkpt>
      <trkpt lat="41.754747" lon="9.313947">
        <ele>640.8</ele>
        <time>2022-09-17T08:37:28Z</time>
      </trkpt>
      <trkpt lat="41.754738" lon="9.313957">
        <ele>640.8</ele>
        <time>2022-09-17T08:37:29Z</time>
      </trkpt>
      <trkpt lat="41.75471" lon="9.313977">
        <ele>641.4</ele>
        <time>2022-09-17T08:37:32Z</time>
      </trkpt>
      <trkpt lat="41.754633" lon="9.314023">
        <ele>643.6</ele>
        <time>2022-09-17T08:37:42Z</time>
      </trkpt>
      <trkpt lat="41.754473" lon="9.314157">
        <ele>647.4</ele>
        <time>2022-09-17T08:38:07Z</time>
      </trkpt>
      <trkpt lat="41.75444" lon="9.314205">
        <ele>647.6</ele>
        <time>2022-09-17T08:38:12Z</time>
      </trkpt>
      <trkpt lat="41.754392" lon="9.31427">
        <ele>649.4</ele>
        <time>2022-09-17T08:38:19Z</time>
      </trkpt>
      <trkpt lat="41.754357" lon="9.314372">
        <ele>651.0</ele>
        <time>2022-09-17T08:38:29Z</time>
      </trkpt>
      <trkpt lat="41.754332" lon="9.31451">
        <ele>654.0</ele>
        <time>2022-09-17T08:38:45Z</time>
      </trkpt>
      <trkpt lat="41.75432" lon="9.314528">
        <ele>654.6</ele>
        <time>2022-09-17T08:38:47Z</time>
      </trkpt>
      <trkpt lat="41.754263" lon="9.314575">
        <ele>654.6</ele>
        <time>2022-09-17T08:38:55Z</time>
      </trkpt>
      <trkpt lat="41.754117" lon="9.314598">
        <ele>655.8</ele>
        <time>2022-09-17T08:39:15Z</time>
      </trkpt>
      <trkpt lat="41.754058" lon="9.31459">
        <ele>656.2</ele>
        <time>2022-09-17T08:39:22Z</time>
      </trkpt>
      <trkpt lat="41.753993" lon="9.3146">
        <ele>659.8</ele>
        <time>2022-09-17T08:39:29Z</time>
      </trkpt>
      <trkpt lat="41.753943" lon="9.314625">
        <ele>660.2</ele>
        <time>2022-09-17T08:39:35Z</time>
      </trkpt>
      <trkpt lat="41.753875" lon="9.314672">
        <ele>660.6</ele>
        <time>2022-09-17T08:39:44Z</time>
      </trkpt>
      <trkpt lat="41.753808" lon="9.314687">
        <ele>660.4</ele>
        <time>2022-09-17T08:39:53Z</time>
      </trkpt>
      <trkpt lat="41.753758" lon="9.31465">
        <ele>661.0</ele>
        <time>2022-09-17T08:39:58Z</time>
      </trkpt>
      <trkpt lat="41.753748" lon="9.314663">
        <ele>661.2</ele>
        <time>2022-09-17T08:40:00Z</time>
      </trkpt>
      <trkpt lat="41.75374" lon="9.314675">
        <ele>661.0</ele>
        <time>2022-09-17T08:40:01Z</time>
      </trkpt>
      <trkpt lat="41.75372" lon="9.314695">
        <ele>660.6</ele>
        <time>2022-09-17T08:40:03Z</time>
      </trkpt>
      <trkpt lat="41.753708" lon="9.314705">
        <ele>660.6</ele>
        <time>2022-09-17T08:40:04Z</time>
      </trkpt>
      <trkpt lat="41.7537" lon="9.314715">
        <ele>660.6</ele>
        <time>2022-09-17T08:40:04Z</time>
      </trkpt>
      <trkpt lat="41.753668" lon="9.314745">
        <ele>661.0</ele>
        <time>2022-09-17T08:40:08Z</time>
      </trkpt>
      <trkpt lat="41.753638" lon="9.314767">
        <ele>660.4</ele>
        <time>2022-09-17T08:40:11Z</time>
      </trkpt>
      <trkpt lat="41.753562" lon="9.314818">
        <ele>659.8</ele>
        <time>2022-09-17T08:40:21Z</time>
      </trkpt>
      <trkpt lat="41.753502" lon="9.314902">
        <ele>660.0</ele>
        <time>2022-09-17T08:40:32Z</time>
      </trkpt>
      <trkpt lat="41.753478" lon="9.314947">
        <ele>659.8</ele>
        <time>2022-09-17T08:40:38Z</time>
      </trkpt>
      <trkpt lat="41.753433" lon="9.314973">
        <ele>659.4</ele>
        <time>2022-09-17T08:40:45Z</time>
      </trkpt>
      <trkpt lat="41.75339" lon="9.314995">
        <ele>657.4</ele>
        <time>2022-09-17T08:40:52Z</time>
      </trkpt>
      <trkpt lat="41.753355" lon="9.315088">
        <ele>658.0</ele>
        <time>2022-09-17T08:41:01Z</time>
      </trkpt>
      <trkpt lat="41.753328" lon="9.315133">
        <ele>658.6</ele>
        <time>2022-09-17T08:41:06Z</time>
      </trkpt>
      <trkpt lat="41.753228" lon="9.315227">
        <ele>658.8</ele>
        <time>2022-09-17T08:41:19Z</time>
      </trkpt>
      <trkpt lat="41.753192" lon="9.315242">
        <ele>659.0</ele>
        <time>2022-09-17T08:41:25Z</time>
      </trkpt>
      <trkpt lat="41.753147" lon="9.315235">
        <ele>660.0</ele>
        <time>2022-09-17T08:41:31Z</time>
      </trkpt>
      <trkpt lat="41.75307" lon="9.315197">
        <ele>660.4</ele>
        <time>2022-09-17T08:41:42Z</time>
      </trkpt>
      <trkpt lat="41.753007" lon="9.315108">
        <ele>660.0</ele>
        <time>2022-09-17T08:42:07Z</time>
      </trkpt>
      <trkpt lat="41.752953" lon="9.315087">
        <ele>658.4</ele>
        <time>2022-09-17T08:42:20Z</time>
      </trkpt>
      <trkpt lat="41.752947" lon="9.315083">
        <ele>658.2</ele>
        <time>2022-09-17T08:42:22Z</time>
      </trkpt>
      <trkpt lat="41.752782" lon="9.31499">
        <ele>658.2</ele>
        <time>2022-09-17T08:42:39Z</time>
      </trkpt>
      <trkpt lat="41.752498" lon="9.31481">
        <ele>658.4</ele>
        <time>2022-09-17T08:43:05Z</time>
      </trkpt>
      <trkpt lat="41.75246" lon="9.314783">
        <ele>658.4</ele>
        <time>2022-09-17T08:43:09Z</time>
      </trkpt>
      <trkpt lat="41.752407" lon="9.314775">
        <ele>658.8</ele>
        <time>2022-09-17T08:43:16Z</time>
      </trkpt>
      <trkpt lat="41.75233" lon="9.314708">
        <ele>660.2</ele>
        <time>2022-09-17T08:43:28Z</time>
      </trkpt>
      <trkpt lat="41.752268" lon="9.31462">
        <ele>660.8</ele>
        <time>2022-09-17T08:43:37Z</time>
      </trkpt>
      <trkpt lat="41.75217" lon="9.31445">
        <ele>659.2</ele>
        <time>2022-09-17T08:43:53Z</time>
      </trkpt>
      <trkpt lat="41.752088" lon="9.31438">
        <ele>659.8</ele>
        <time>2022-09-17T08:44:03Z</time>
      </trkpt>
      <trkpt lat="41.751848" lon="9.314312">
        <ele>657.0</ele>
        <time>2022-09-17T08:44:31Z</time>
      </trkpt>
      <trkpt lat="41.751642" lon="9.314327">
        <ele>657.8</ele>
        <time>2022-09-17T08:44:50Z</time>
      </trkpt>
      <trkpt lat="41.751583" lon="9.314337">
        <ele>658.0</ele>
        <time>2022-09-17T08:44:55Z</time>
      </trkpt>
      <trkpt lat="41.751473" lon="9.31428">
        <ele>658.6</ele>
        <time>2022-09-17T08:45:07Z</time>
      </trkpt>
      <trkpt lat="41.751355" lon="9.314205">
        <ele>657.2</ele>
        <time>2022-09-17T08:45:20Z</time>
      </trkpt>
      <trkpt lat="41.751233" lon="9.314137">
        <ele>654.4</ele>
        <time>2022-09-17T08:45:33Z</time>
      </trkpt>
      <trkpt lat="41.751178" lon="9.314088">
        <ele>653.0</ele>
        <time>2022-09-17T08:45:41Z</time>
      </trkpt>
      <trkpt lat="41.75113" lon="9.31409">
        <ele>651.4</ele>
        <time>2022-09-17T08:45:48Z</time>
      </trkpt>
      <trkpt lat="41.751093" lon="9.314107">
        <ele>649.8</ele>
        <time>2022-09-17T08:45:55Z</time>
      </trkpt>
      <trkpt lat="41.750897" lon="9.314355">
        <ele>646.4</ele>
        <time>2022-09-17T08:46:37Z</time>
      </trkpt>
      <trkpt lat="41.750893" lon="9.314363">
        <ele>646.2</ele>
        <time>2022-09-17T08:46:38Z</time>
      </trkpt>
      <trkpt lat="41.750848" lon="9.314458">
        <ele>644.0</ele>
        <time>2022-09-17T08:46:53Z</time>
      </trkpt>
      <trkpt lat="41.750737" lon="9.314693">
        <ele>638.6</ele>
        <time>2022-09-17T08:47:21Z</time>
      </trkpt>
      <trkpt lat="41.750622" lon="9.314813">
        <ele>636.0</ele>
        <time>2022-09-17T08:47:36Z</time>
      </trkpt>
      <trkpt lat="41.750562" lon="9.314893">
        <ele>635.4</ele>
        <time>2022-09-17T08:47:47Z</time>
      </trkpt>
      <trkpt lat="41.750517" lon="9.31505">
        <ele>634.2</ele>
        <time>2022-09-17T08:48:00Z</time>
      </trkpt>
      <trkpt lat="41.750512" lon="9.3151">
        <ele>633.6</ele>
        <time>2022-09-17T08:48:04Z</time>
      </trkpt>
      <trkpt lat="41.750538" lon="9.315165">
        <ele>632.6</ele>
        <time>2022-09-17T08:48:10Z</time>
      </trkpt>
      <trkpt lat="41.750545" lon="9.315262">
        <ele>632.4</ele>
        <time>2022-09-17T08:48:16Z</time>
      </trkpt>
      <trkpt lat="41.750537" lon="9.315348">
        <ele>632.4</ele>
        <time>2022-09-17T08:48:21Z</time>
      </trkpt>
      <trkpt lat="41.75054" lon="9.31545">
        <ele>633.6</ele>
        <time>2022-09-17T08:48:27Z</time>
      </trkpt>
      <trkpt lat="41.750522" lon="9.315495">
        <ele>634.0</ele>
        <time>2022-09-17T08:48:30Z</time>
      </trkpt>
      <trkpt lat="41.750477" lon="9.315517">
        <ele>634.4</ele>
        <time>2022-09-17T08:48:34Z</time>
      </trkpt>
      <trkpt lat="41.750465" lon="9.31552">
        <ele>634.4</ele>
        <time>2022-09-17T08:48:34Z</time>
      </trkpt>
      <trkpt lat="41.750415" lon="9.315478">
        <ele>634.2</ele>
        <time>2022-09-17T08:48:40Z</time>
      </trkpt>
      <trkpt lat="41.750337" lon="9.315538">
        <ele>634.2</ele>
        <time>2022-09-17T08:48:48Z</time>
      </trkpt>
      <trkpt lat="41.750053" lon="9.315785">
        <ele>632.0</ele>
        <time>2022-09-17T08:49:17Z</time>
      </trkpt>
      <trkpt lat="41.750028" lon="9.31582">
        <ele>631.4</ele>
        <time>2022-09-17T08:49:20Z</time>
      </trkpt>
      <trkpt lat="41.75001" lon="9.315857">
        <ele>631.0</ele>
        <time>2022-09-17T08:49:24Z</time>
      </trkpt>
      <trkpt lat="41.750005" lon="9.315907">
        <ele>630.6</ele>
        <time>2022-09-17T08:49:29Z</time>
      </trkpt>
      <trkpt lat="41.750033" lon="9.315947">
        <ele>631.2</ele>
        <time>2022-09-17T08:49:35Z</time>
      </trkpt>
      <trkpt lat="41.750097" lon="9.316045">
        <ele>631.8</ele>
        <time>2022-09-17T08:49:52Z</time>
      </trkpt>
      <trkpt lat="41.750112" lon="9.316088">
        <ele>631.0</ele>
        <time>2022-09-17T08:49:58Z</time>
      </trkpt>
      <trkpt lat="41.750135" lon="9.316107">
        <ele>629.6</ele>
        <time>2022-09-17T08:50:02Z</time>
      </trkpt>
      <trkpt lat="41.75018" lon="9.316178">
        <ele>628.2</ele>
        <time>2022-09-17T08:50:10Z</time>
      </trkpt>
      <trkpt lat="41.75021" lon="9.316245">
        <ele>624.8</ele>
        <time>2022-09-17T08:50:25Z</time>
      </trkpt>
      <trkpt lat="41.750218" lon="9.31636">
        <ele>624.4</ele>
        <time>2022-09-17T08:50:42Z</time>
      </trkpt>
      <trkpt lat="41.75022" lon="9.316542">
        <ele>625.2</ele>
        <time>2022-09-17T08:50:55Z</time>
      </trkpt>
      <trkpt lat="41.750217" lon="9.316572">
        <ele>625.2</ele>
        <time>2022-09-17T08:50:56Z</time>
      </trkpt>
      <trkpt lat="41.750243" lon="9.316678">
        <ele>627.4</ele>
        <time>2022-09-17T08:51:02Z</time>
      </trkpt>
      <trkpt lat="41.750263" lon="9.316755">
        <ele>629.4</ele>
        <time>2022-09-17T08:51:06Z</time>
      </trkpt>
      <trkpt lat="41.7503" lon="9.316852">
        <ele>630.2</ele>
        <time>2022-09-17T08:51:13Z</time>
      </trkpt>
      <trkpt lat="41.750308" lon="9.31687">
        <ele>630.8</ele>
        <time>2022-09-17T08:51:14Z</time>
      </trkpt>
      <trkpt lat="41.750317" lon="9.31689">
        <ele>630.8</ele>
        <time>2022-09-17T08:51:15Z</time>
      </trkpt>
      <trkpt lat="41.750358" lon="9.31696">
        <ele>629.4</ele>
        <time>2022-09-17T08:51:19Z</time>
      </trkpt>
      <trkpt lat="41.750398" lon="9.317033">
        <ele>628.4</ele>
        <time>2022-09-17T08:51:23Z</time>
      </trkpt>
      <trkpt lat="41.750412" lon="9.317095">
        <ele>627.4</ele>
        <time>2022-09-17T08:51:26Z</time>
      </trkpt>
      <trkpt lat="41.750417" lon="9.317178">
        <ele>627.2</ele>
        <time>2022-09-17T08:51:30Z</time>
      </trkpt>
      <trkpt lat="41.750375" lon="9.317192">
        <ele>627.4</ele>
        <time>2022-09-17T08:51:34Z</time>
      </trkpt>
      <trkpt lat="41.750283" lon="9.317202">
        <ele>626.6</ele>
        <time>2022-09-17T08:51:44Z</time>
      </trkpt>
      <trkpt lat="41.750215" lon="9.317258">
        <ele>625.2</ele>
        <time>2022-09-17T08:51:54Z</time>
      </trkpt>
      <trkpt lat="41.750187" lon="9.317332">
        <ele>623.4</ele>
        <time>2022-09-17T08:52:03Z</time>
      </trkpt>
      <trkpt lat="41.75016" lon="9.317477">
        <ele>625.4</ele>
        <time>2022-09-17T08:52:18Z</time>
      </trkpt>
      <trkpt lat="41.750143" lon="9.317593">
        <ele>624.2</ele>
        <time>2022-09-17T08:52:25Z</time>
      </trkpt>
      <trkpt lat="41.750135" lon="9.317605">
        <ele>624.2</ele>
        <time>2022-09-17T08:52:26Z</time>
      </trkpt>
      <trkpt lat="41.750108" lon="9.317638">
        <ele>623.8</ele>
        <time>2022-09-17T08:52:29Z</time>
      </trkpt>
      <trkpt lat="41.750082" lon="9.317687">
        <ele>623.2</ele>
        <time>2022-09-17T08:52:34Z</time>
      </trkpt>
      <trkpt lat="41.750018" lon="9.31781">
        <ele>622.2</ele>
        <time>2022-09-17T08:52:45Z</time>
      </trkpt>
      <trkpt lat="41.74996" lon="9.317895">
        <ele>626.2</ele>
        <time>2022-09-17T08:52:53Z</time>
      </trkpt>
      <trkpt lat="41.749932" lon="9.317938">
        <ele>626.2</ele>
        <time>2022-09-17T08:52:57Z</time>
      </trkpt>
      <trkpt lat="41.749927" lon="9.317952">
        <ele>626.2</ele>
        <time>2022-09-17T08:52:58Z</time>
      </trkpt>
      <trkpt lat="41.749858" lon="9.318108">
        <ele>624.2</ele>
        <time>2022-09-17T08:53:12Z</time>
      </trkpt>
      <trkpt lat="41.749852" lon="9.318118">
        <ele>624.2</ele>
        <time>2022-09-17T08:53:12Z</time>
      </trkpt>
      <trkpt lat="41.749943" lon="9.318338">
        <ele>625.6</ele>
        <time>2022-09-17T08:53:29Z</time>
      </trkpt>
      <trkpt lat="41.749948" lon="9.318368">
        <ele>625.2</ele>
        <time>2022-09-17T08:53:31Z</time>
      </trkpt>
      <trkpt lat="41.749947" lon="9.318428">
        <ele>624.2</ele>
        <time>2022-09-17T08:53:35Z</time>
      </trkpt>
      <trkpt lat="41.749915" lon="9.318597">
        <ele>623.2</ele>
        <time>2022-09-17T08:53:49Z</time>
      </trkpt>
      <trkpt lat="41.749912" lon="9.318605">
        <ele>623.2</ele>
        <time>2022-09-17T08:53:49Z</time>
      </trkpt>
      <trkpt lat="41.749837" lon="9.31876">
        <ele>621.2</ele>
        <time>2022-09-17T08:54:08Z</time>
      </trkpt>
      <trkpt lat="41.749787" lon="9.318778">
        <ele>620.8</ele>
        <time>2022-09-17T08:54:16Z</time>
      </trkpt>
      <trkpt lat="41.749727" lon="9.318785">
        <ele>621.2</ele>
        <time>2022-09-17T08:54:27Z</time>
      </trkpt>
      <trkpt lat="41.749672" lon="9.318785">
        <ele>620.2</ele>
        <time>2022-09-17T08:54:39Z</time>
      </trkpt>
      <trkpt lat="41.7496" lon="9.318733">
        <ele>621.4</ele>
        <time>2022-09-17T08:54:49Z</time>
      </trkpt>
      <trkpt lat="41.749477" lon="9.318675">
        <ele>620.8</ele>
        <time>2022-09-17T08:55:03Z</time>
      </trkpt>
      <trkpt lat="41.74943" lon="9.318682">
        <ele>621.2</ele>
        <time>2022-09-17T08:55:08Z</time>
      </trkpt>
      <trkpt lat="41.74937" lon="9.318722">
        <ele>621.6</ele>
        <time>2022-09-17T08:55:15Z</time>
      </trkpt>
      <trkpt lat="41.749317" lon="9.318797">
        <ele>621.4</ele>
        <time>2022-09-17T08:55:23Z</time>
      </trkpt>
      <trkpt lat="41.74931" lon="9.31881">
        <ele>621.4</ele>
        <time>2022-09-17T08:55:24Z</time>
      </trkpt>
      <trkpt lat="41.749293" lon="9.318833">
        <ele>621.4</ele>
        <time>2022-09-17T08:55:26Z</time>
      </trkpt>
      <trkpt lat="41.749282" lon="9.318832">
        <ele>621.4</ele>
        <time>2022-09-17T08:55:27Z</time>
      </trkpt>
      <trkpt lat="41.749237" lon="9.318838">
        <ele>621.2</ele>
        <time>2022-09-17T08:55:31Z</time>
      </trkpt>
      <trkpt lat="41.749178" lon="9.318843">
        <ele>619.8</ele>
        <time>2022-09-17T08:55:38Z</time>
      </trkpt>
      <trkpt lat="41.749112" lon="9.318862">
        <ele>619.0</ele>
        <time>2022-09-17T08:55:46Z</time>
      </trkpt>
      <trkpt lat="41.749057" lon="9.318882">
        <ele>618.2</ele>
        <time>2022-09-17T08:55:52Z</time>
      </trkpt>
      <trkpt lat="41.749065" lon="9.318918">
        <ele>617.2</ele>
        <time>2022-09-17T08:55:56Z</time>
      </trkpt>
      <trkpt lat="41.74908" lon="9.318945">
        <ele>617.0</ele>
        <time>2022-09-17T08:55:59Z</time>
      </trkpt>
      <trkpt lat="41.74896" lon="9.318982">
        <ele>614.4</ele>
        <time>2022-09-17T08:56:32Z</time>
      </trkpt>
      <trkpt lat="41.748955" lon="9.318983">
        <ele>614.4</ele>
        <time>2022-09-17T08:56:33Z</time>
      </trkpt>
      <trkpt lat="41.748933" lon="9.319023">
        <ele>614.0</ele>
        <time>2022-09-17T08:56:42Z</time>
      </trkpt>
      <trkpt lat="41.748902" lon="9.319172">
        <ele>612.6</ele>
        <time>2022-09-17T08:57:03Z</time>
      </trkpt>
      <trkpt lat="41.748872" lon="9.319217">
        <ele>610.8</ele>
        <time>2022-09-17T08:57:10Z</time>
      </trkpt>
      <trkpt lat="41.74887" lon="9.319225">
        <ele>608.8</ele>
        <time>2022-09-17T08:57:12Z</time>
      </trkpt>
      <trkpt lat="41.748833" lon="9.319248">
        <ele>605.2</ele>
        <time>2022-09-17T08:57:22Z</time>
      </trkpt>
      <trkpt lat="41.748797" lon="9.319433">
        <ele>600.6</ele>
        <time>2022-09-17T08:57:40Z</time>
      </trkpt>
      <trkpt lat="41.748805" lon="9.319488">
        <ele>600.4</ele>
        <time>2022-09-17T08:57:44Z</time>
      </trkpt>
      <trkpt lat="41.748818" lon="9.319523">
        <ele>600.4</ele>
        <time>2022-09-17T08:57:48Z</time>
      </trkpt>
      <trkpt lat="41.748822" lon="9.31963">
        <ele>599.6</ele>
        <time>2022-09-17T08:58:01Z</time>
      </trkpt>
      <trkpt lat="41.748832" lon="9.31971">
        <ele>597.2</ele>
        <time>2022-09-17T08:58:11Z</time>
      </trkpt>
      <trkpt lat="41.748848" lon="9.31976">
        <ele>597.2</ele>
        <time>2022-09-17T08:58:18Z</time>
      </trkpt>
      <trkpt lat="41.74887" lon="9.319767">
        <ele>596.8</ele>
        <time>2022-09-17T08:58:22Z</time>
      </trkpt>
      <trkpt lat="41.748887" lon="9.319752">
        <ele>595.6</ele>
        <time>2022-09-17T08:58:28Z</time>
      </trkpt>
      <trkpt lat="41.748922" lon="9.319677">
        <ele>594.2</ele>
        <time>2022-09-17T08:58:43Z</time>
      </trkpt>
      <trkpt lat="41.749" lon="9.319717">
        <ele>590.0</ele>
        <time>2022-09-17T08:59:01Z</time>
      </trkpt>
      <trkpt lat="41.749027" lon="9.319658">
        <ele>589.2</ele>
        <time>2022-09-17T08:59:09Z</time>
      </trkpt>
      <trkpt lat="41.74904" lon="9.31967">
        <ele>588.6</ele>
        <time>2022-09-17T08:59:11Z</time>
      </trkpt>
      <trkpt lat="41.74907" lon="9.319793">
        <ele>588.0</ele>
        <time>2022-09-17T08:59:23Z</time>
      </trkpt>
      <trkpt lat="41.749088" lon="9.31985">
        <ele>588.6</ele>
        <time>2022-09-17T08:59:29Z</time>
      </trkpt>
      <trkpt lat="41.749098" lon="9.319892">
        <ele>587.8</ele>
        <time>2022-09-17T08:59:33Z</time>
      </trkpt>
      <trkpt lat="41.74912" lon="9.31995">
        <ele>587.8</ele>
        <time>2022-09-17T08:59:38Z</time>
      </trkpt>
      <trkpt lat="41.749107" lon="9.320005">
        <ele>586.4</ele>
        <time>2022-09-17T08:59:44Z</time>
      </trkpt>
      <trkpt lat="41.749102" lon="9.320012">
        <ele>586.4</ele>
        <time>2022-09-17T08:59:45Z</time>
      </trkpt>
      <trkpt lat="41.749103" lon="9.320083">
        <ele>585.8</ele>
        <time>2022-09-17T08:59:52Z</time>
      </trkpt>
      <trkpt lat="41.749092" lon="9.320138">
        <ele>585.0</ele>
        <time>2022-09-17T08:59:56Z</time>
      </trkpt>
      <trkpt lat="41.749088" lon="9.320153">
        <ele>585.0</ele>
        <time>2022-09-17T08:59:57Z</time>
      </trkpt>
      <trkpt lat="41.749075" lon="9.320207">
        <ele>585.0</ele>
        <time>2022-09-17T09:00:01Z</time>
      </trkpt>
      <trkpt lat="41.749078" lon="9.320338">
        <ele>586.8</ele>
        <time>2022-09-17T09:00:12Z</time>
      </trkpt>
      <trkpt lat="41.749083" lon="9.3204">
        <ele>587.0</ele>
        <time>2022-09-17T09:00:17Z</time>
      </trkpt>
      <trkpt lat="41.749077" lon="9.320502">
        <ele>586.4</ele>
        <time>2022-09-17T09:00:25Z</time>
      </trkpt>
      <trkpt lat="41.749053" lon="9.320573">
        <ele>586.0</ele>
        <time>2022-09-17T09:00:31Z</time>
      </trkpt>
      <trkpt lat="41.749027" lon="9.320612">
        <ele>586.2</ele>
        <time>2022-09-17T09:00:35Z</time>
      </trkpt>
      <trkpt lat="41.74879" lon="9.32089">
        <ele>593.6</ele>
        <time>2022-09-17T09:01:11Z</time>
      </trkpt>
      <trkpt lat="41.748687" lon="9.320832">
        <ele>594.0</ele>
        <time>2022-09-17T09:01:23Z</time>
      </trkpt>
      <trkpt lat="41.748622" lon="9.320868">
        <ele>593.8</ele>
        <time>2022-09-17T09:01:30Z</time>
      </trkpt>
      <trkpt lat="41.748585" lon="9.320942">
        <ele>592.8</ele>
        <time>2022-09-17T09:01:36Z</time>
      </trkpt>
      <trkpt lat="41.748508" lon="9.32116">
        <ele>590.6</ele>
        <time>2022-09-17T09:01:50Z</time>
      </trkpt>
      <trkpt lat="41.74851" lon="9.321173">
        <ele>590.6</ele>
        <time>2022-09-17T09:01:51Z</time>
      </trkpt>
      <trkpt lat="41.748593" lon="9.321497">
        <ele>594.8</ele>
        <time>2022-09-17T09:02:25Z</time>
      </trkpt>
      <trkpt lat="41.748617" lon="9.321555">
        <ele>596.0</ele>
        <time>2022-09-17T09:02:30Z</time>
      </trkpt>
      <trkpt lat="41.748582" lon="9.321663">
        <ele>596.8</ele>
        <time>2022-09-17T09:02:40Z</time>
      </trkpt>
      <trkpt lat="41.748567" lon="9.321925">
        <ele>598.6</ele>
        <time>2022-09-17T09:03:04Z</time>
      </trkpt>
      <trkpt lat="41.748562" lon="9.322052">
        <ele>597.6</ele>
        <time>2022-09-17T09:03:19Z</time>
      </trkpt>
      <trkpt lat="41.748557" lon="9.322067">
        <ele>597.2</ele>
        <time>2022-09-17T09:03:22Z</time>
      </trkpt>
      <trkpt lat="41.748632" lon="9.322125">
        <ele>596.2</ele>
        <time>2022-09-17T09:03:32Z</time>
      </trkpt>
      <trkpt lat="41.748697" lon="9.322105">
        <ele>596.0</ele>
        <time>2022-09-17T09:03:38Z</time>
      </trkpt>
      <trkpt lat="41.74877" lon="9.322142">
        <ele>594.8</ele>
        <time>2022-09-17T09:03:45Z</time>
      </trkpt>
      <trkpt lat="41.748802" lon="9.322195">
        <ele>594.0</ele>
        <time>2022-09-17T09:03:50Z</time>
      </trkpt>
      <trkpt lat="41.748813" lon="9.322228">
        <ele>593.2</ele>
        <time>2022-09-17T09:03:53Z</time>
      </trkpt>
      <trkpt lat="41.748822" lon="9.322333">
        <ele>591.0</ele>
        <time>2022-09-17T09:04:01Z</time>
      </trkpt>
      <trkpt lat="41.748823" lon="9.32245">
        <ele>588.4</ele>
        <time>2022-09-17T09:04:10Z</time>
      </trkpt>
      <trkpt lat="41.748822" lon="9.32262">
        <ele>582.2</ele>
        <time>2022-09-17T09:04:24Z</time>
      </trkpt>
      <trkpt lat="41.748822" lon="9.322633">
        <ele>582.0</ele>
        <time>2022-09-17T09:04:25Z</time>
      </trkpt>
      <trkpt lat="41.748812" lon="9.322683">
        <ele>581.8</ele>
        <time>2022-09-17T09:04:29Z</time>
      </trkpt>
      <trkpt lat="41.74866" lon="9.32276">
        <ele>582.0</ele>
        <time>2022-09-17T09:04:42Z</time>
      </trkpt>
      <trkpt lat="41.748525" lon="9.322893">
        <ele>582.2</ele>
        <time>2022-09-17T09:04:54Z</time>
      </trkpt>
      <trkpt lat="41.748553" lon="9.322957">
        <ele>582.0</ele>
        <time>2022-09-17T09:04:58Z</time>
      </trkpt>
      <trkpt lat="41.748533" lon="9.323127">
        <ele>578.4</ele>
        <time>2022-09-17T09:05:11Z</time>
      </trkpt>
      <trkpt lat="41.748528" lon="9.32321">
        <ele>578.0</ele>
        <time>2022-09-17T09:05:18Z</time>
      </trkpt>
      <trkpt lat="41.748527" lon="9.323253">
        <ele>578.0</ele>
        <time>2022-09-17T09:05:21Z</time>
      </trkpt>
      <trkpt lat="41.748502" lon="9.323358">
        <ele>577.2</ele>
        <time>2022-09-17T09:05:29Z</time>
      </trkpt>
      <trkpt lat="41.748497" lon="9.323397">
        <ele>576.4</ele>
        <time>2022-09-17T09:05:32Z</time>
      </trkpt>
      <trkpt lat="41.748503" lon="9.323463">
        <ele>577.4</ele>
        <time>2022-09-17T09:05:37Z</time>
      </trkpt>
      <trkpt lat="41.748507" lon="9.323477">
        <ele>578.0</ele>
        <time>2022-09-17T09:05:39Z</time>
      </trkpt>
      <trkpt lat="41.748498" lon="9.32352">
        <ele>578.0</ele>
        <time>2022-09-17T09:05:43Z</time>
      </trkpt>
      <trkpt lat="41.748487" lon="9.323568">
        <ele>577.4</ele>
        <time>2022-09-17T09:05:47Z</time>
      </trkpt>
      <trkpt lat="41.748423" lon="9.323768">
        <ele>580.4</ele>
        <time>2022-09-17T09:06:03Z</time>
      </trkpt>
      <trkpt lat="41.74842" lon="9.323835">
        <ele>580.4</ele>
        <time>2022-09-17T09:06:09Z</time>
      </trkpt>
      <trkpt lat="41.748412" lon="9.323923">
        <ele>579.2</ele>
        <time>2022-09-17T09:06:19Z</time>
      </trkpt>
      <trkpt lat="41.748385" lon="9.324008">
        <ele>576.2</ele>
        <time>2022-09-17T09:06:29Z</time>
      </trkpt>
      <trkpt lat="41.748385" lon="9.324018">
        <ele>576.2</ele>
        <time>2022-09-17T09:06:30Z</time>
      </trkpt>
      <trkpt lat="41.748498" lon="9.324155">
        <ele>575.6</ele>
        <time>2022-09-17T09:06:45Z</time>
      </trkpt>
      <trkpt lat="41.748553" lon="9.324322">
        <ele>574.8</ele>
        <time>2022-09-17T09:07:00Z</time>
      </trkpt>
      <trkpt lat="41.748575" lon="9.324422">
        <ele>574.2</ele>
        <time>2022-09-17T09:07:11Z</time>
      </trkpt>
      <trkpt lat="41.748605" lon="9.32452">
        <ele>573.6</ele>
        <time>2022-09-17T09:07:20Z</time>
      </trkpt>
      <trkpt lat="41.748595" lon="9.324563">
        <ele>573.6</ele>
        <time>2022-09-17T09:07:24Z</time>
      </trkpt>
      <trkpt lat="41.748612" lon="9.324735">
        <ele>573.0</ele>
        <time>2022-09-17T09:07:38Z</time>
      </trkpt>
      <trkpt lat="41.748587" lon="9.324945">
        <ele>570.6</ele>
        <time>2022-09-17T09:07:55Z</time>
      </trkpt>
      <trkpt lat="41.748537" lon="9.325068">
        <ele>569.0</ele>
        <time>2022-09-17T09:08:06Z</time>
      </trkpt>
      <trkpt lat="41.748518" lon="9.325102">
        <ele>569.4</ele>
        <time>2022-09-17T09:08:09Z</time>
      </trkpt>
      <trkpt lat="41.748442" lon="9.32517">
        <ele>569.2</ele>
        <time>2022-09-17T09:08:19Z</time>
      </trkpt>
      <trkpt lat="41.748387" lon="9.32524">
        <ele>569.2</ele>
        <time>2022-09-17T09:08:28Z</time>
      </trkpt>
      <trkpt lat="41.748338" lon="9.325275">
        <ele>570.4</ele>
        <time>2022-09-17T09:08:35Z</time>
      </trkpt>
      <trkpt lat="41.748325" lon="9.325282">
        <ele>570.6</ele>
        <time>2022-09-17T09:08:38Z</time>
      </trkpt>
      <trkpt lat="41.748265" lon="9.325312">
        <ele>570.4</ele>
        <time>2022-09-17T09:08:46Z</time>
      </trkpt>
      <trkpt lat="41.748213" lon="9.325357">
        <ele>572.8</ele>
        <time>2022-09-17T09:08:54Z</time>
      </trkpt>
      <trkpt lat="41.74814" lon="9.325368">
        <ele>576.0</ele>
        <time>2022-09-17T09:09:04Z</time>
      </trkpt>
      <trkpt lat="41.748108" lon="9.325432">
        <ele>577.4</ele>
        <time>2022-09-17T09:09:11Z</time>
      </trkpt>
      <trkpt lat="41.748093" lon="9.325532">
        <ele>578.2</ele>
        <time>2022-09-17T09:09:21Z</time>
      </trkpt>
      <trkpt lat="41.748083" lon="9.325605">
        <ele>579.0</ele>
        <time>2022-09-17T09:09:27Z</time>
      </trkpt>
      <trkpt lat="41.748103" lon="9.325693">
        <ele>577.8</ele>
        <time>2022-09-17T09:09:37Z</time>
      </trkpt>
      <trkpt lat="41.748103" lon="9.325765">
        <ele>578.8</ele>
        <time>2022-09-17T09:09:43Z</time>
      </trkpt>
      <trkpt lat="41.748098" lon="9.32589">
        <ele>580.4</ele>
        <time>2022-09-17T09:09:54Z</time>
      </trkpt>
      <trkpt lat="41.74809" lon="9.325993">
        <ele>582.0</ele>
        <time>2022-09-17T09:10:05Z</time>
      </trkpt>
      <trkpt lat="41.748027" lon="9.326048">
        <ele>583.8</ele>
        <time>2022-09-17T09:10:14Z</time>
      </trkpt>
      <trkpt lat="41.747857" lon="9.326128">
        <ele>588.4</ele>
        <time>2022-09-17T09:10:33Z</time>
      </trkpt>
      <trkpt lat="41.747645" lon="9.326067">
        <ele>594.2</ele>
        <time>2022-09-17T09:11:14Z</time>
      </trkpt>
      <trkpt lat="41.747637" lon="9.326063">
        <ele>594.0</ele>
        <time>2022-09-17T09:11:15Z</time>
      </trkpt>
      <trkpt lat="41.747563" lon="9.326032">
        <ele>594.0</ele>
        <time>2022-09-17T09:11:24Z</time>
      </trkpt>
      <trkpt lat="41.747483" lon="9.325977">
        <ele>592.8</ele>
        <time>2022-09-17T09:11:33Z</time>
      </trkpt>
      <trkpt lat="41.74743" lon="9.325938">
        <ele>591.8</ele>
        <time>2022-09-17T09:11:40Z</time>
      </trkpt>
      <trkpt lat="41.747368" lon="9.325913">
        <ele>591.0</ele>
        <time>2022-09-17T09:11:48Z</time>
      </trkpt>
      <trkpt lat="41.747285" lon="9.325845">
        <ele>589.2</ele>
        <time>2022-09-17T09:12:03Z</time>
      </trkpt>
      <trkpt lat="41.747255" lon="9.32582">
        <ele>587.2</ele>
        <time>2022-09-17T09:12:10Z</time>
      </trkpt>
      <trkpt lat="41.747235" lon="9.325815">
        <ele>586.8</ele>
        <time>2022-09-17T09:12:13Z</time>
      </trkpt>
      <trkpt lat="41.747192" lon="9.32579">
        <ele>586.2</ele>
        <time>2022-09-17T09:12:22Z</time>
      </trkpt>
      <trkpt lat="41.747155" lon="9.325757">
        <ele>584.8</ele>
        <time>2022-09-17T09:12:29Z</time>
      </trkpt>
      <trkpt lat="41.747047" lon="9.325697">
        <ele>582.2</ele>
        <time>2022-09-17T09:12:50Z</time>
      </trkpt>
      <trkpt lat="41.747047" lon="9.325707">
        <ele>582.0</ele>
        <time>2022-09-17T09:12:51Z</time>
      </trkpt>
      <trkpt lat="41.747065" lon="9.325765">
        <ele>580.2</ele>
        <time>2022-09-17T09:12:58Z</time>
      </trkpt>
      <trkpt lat="41.747088" lon="9.325842">
        <ele>577.8</ele>
        <time>2022-09-17T09:13:07Z</time>
      </trkpt>
      <trkpt lat="41.747085" lon="9.325892">
        <ele>576.0</ele>
        <time>2022-09-17T09:13:13Z</time>
      </trkpt>
      <trkpt lat="41.747073" lon="9.3259">
        <ele>575.4</ele>
        <time>2022-09-17T09:13:16Z</time>
      </trkpt>
      <trkpt lat="41.747043" lon="9.325873">
        <ele>576.8</ele>
        <time>2022-09-17T09:13:25Z</time>
      </trkpt>
      <trkpt lat="41.747025" lon="9.325833">
        <ele>575.8</ele>
        <time>2022-09-17T09:13:33Z</time>
      </trkpt>
      <trkpt lat="41.746992" lon="9.325867">
        <ele>574.2</ele>
        <time>2022-09-17T09:13:41Z</time>
      </trkpt>
      <trkpt lat="41.746978" lon="9.32589">
        <ele>572.8</ele>
        <time>2022-09-17T09:13:46Z</time>
      </trkpt>
      <trkpt lat="41.746885" lon="9.325868">
        <ele>568.2</ele>
        <time>2022-09-17T09:14:12Z</time>
      </trkpt>
      <trkpt lat="41.746862" lon="9.325855">
        <ele>566.8</ele>
        <time>2022-09-17T09:14:21Z</time>
      </trkpt>
      <trkpt lat="41.746773" lon="9.325805">
        <ele>564.6</ele>
        <time>2022-09-17T09:14:56Z</time>
      </trkpt>
      <trkpt lat="41.746773" lon="9.32581">
        <ele>564.6</ele>
        <time>2022-09-17T09:14:57Z</time>
      </trkpt>
      <trkpt lat="41.746758" lon="9.325863">
        <ele>564.6</ele>
        <time>2022-09-17T09:15:06Z</time>
      </trkpt>
      <trkpt lat="41.746727" lon="9.325912">
        <ele>562.2</ele>
        <time>2022-09-17T09:15:17Z</time>
      </trkpt>
      <trkpt lat="41.746725" lon="9.326087">
        <ele>558.8</ele>
        <time>2022-09-17T09:15:37Z</time>
      </trkpt>
      <trkpt lat="41.746725" lon="9.326097">
        <ele>558.4</ele>
        <time>2022-09-17T09:15:38Z</time>
      </trkpt>
      <trkpt lat="41.74665" lon="9.326255">
        <ele>555.4</ele>
        <time>2022-09-17T09:15:59Z</time>
      </trkpt>
      <trkpt lat="41.746625" lon="9.326223">
        <ele>554.4</ele>
        <time>2022-09-17T09:16:05Z</time>
      </trkpt>
      <trkpt lat="41.746623" lon="9.326197">
        <ele>554.0</ele>
        <time>2022-09-17T09:16:07Z</time>
      </trkpt>
      <trkpt lat="41.746487" lon="9.326042">
        <ele>549.2</ele>
        <time>2022-09-17T09:16:31Z</time>
      </trkpt>
      <trkpt lat="41.74645" lon="9.326073">
        <ele>548.2</ele>
        <time>2022-09-17T09:16:37Z</time>
      </trkpt>
      <trkpt lat="41.746427" lon="9.32613">
        <ele>545.4</ele>
        <time>2022-09-17T09:16:45Z</time>
      </trkpt>
      <trkpt lat="41.746255" lon="9.326325">
        <ele>532.8</ele>
        <time>2022-09-17T09:17:47Z</time>
      </trkpt>
      <trkpt lat="41.746225" lon="9.326377">
        <ele>532.0</ele>
        <time>2022-09-17T09:18:06Z</time>
      </trkpt>
      <trkpt lat="41.746205" lon="9.326467">
        <ele>529.0</ele>
        <time>2022-09-17T09:18:22Z</time>
      </trkpt>
      <trkpt lat="41.746172" lon="9.326545">
        <ele>527.8</ele>
        <time>2022-09-17T09:18:27Z</time>
      </trkpt>
      <trkpt lat="41.746163" lon="9.326562">
        <ele>527.6</ele>
        <time>2022-09-17T09:18:28Z</time>
      </trkpt>
      <trkpt lat="41.746123" lon="9.326588">
        <ele>526.8</ele>
        <time>2022-09-17T09:18:31Z</time>
      </trkpt>
      <trkpt lat="41.746088" lon="9.32665">
        <ele>525.6</ele>
        <time>2022-09-17T09:18:35Z</time>
      </trkpt>
      <trkpt lat="41.74605" lon="9.326723">
        <ele>524.2</ele>
        <time>2022-09-17T09:18:41Z</time>
      </trkpt>
      <trkpt lat="41.745988" lon="9.326832">
        <ele>523.0</ele>
        <time>2022-09-17T09:18:49Z</time>
      </trkpt>
      <trkpt lat="41.745917" lon="9.32692">
        <ele>521.8</ele>
        <time>2022-09-17T09:18:57Z</time>
      </trkpt>
      <trkpt lat="41.74591" lon="9.326937">
        <ele>521.8</ele>
        <time>2022-09-17T09:18:58Z</time>
      </trkpt>
      <trkpt lat="41.74589" lon="9.327008">
        <ele>521.8</ele>
        <time>2022-09-17T09:19:03Z</time>
      </trkpt>
      <trkpt lat="41.745878" lon="9.327018">
        <ele>521.8</ele>
        <time>2022-09-17T09:19:05Z</time>
      </trkpt>
      <trkpt lat="41.745897" lon="9.326935">
        <ele>522.4</ele>
        <time>2022-09-17T09:19:13Z</time>
      </trkpt>
      <trkpt lat="41.745902" lon="9.326853">
        <ele>518.4</ele>
        <time>2022-09-17T09:19:41Z</time>
      </trkpt>
      <trkpt lat="41.745907" lon="9.326832">
        <ele>517.4</ele>
        <time>2022-09-17T09:19:45Z</time>
      </trkpt>
      <trkpt lat="41.745805" lon="9.327022">
        <ele>512.4</ele>
        <time>2022-09-17T09:20:05Z</time>
      </trkpt>
      <trkpt lat="41.745563" lon="9.327347">
        <ele>510.2</ele>
        <time>2022-09-17T09:20:32Z</time>
      </trkpt>
      <trkpt lat="41.745555" lon="9.327362">
        <ele>510.0</ele>
        <time>2022-09-17T09:20:33Z</time>
      </trkpt>
      <trkpt lat="41.745543" lon="9.327432">
        <ele>507.6</ele>
        <time>2022-09-17T09:20:40Z</time>
      </trkpt>
      <trkpt lat="41.745515" lon="9.327517">
        <ele>506.0</ele>
        <time>2022-09-17T09:20:52Z</time>
      </trkpt>
      <trkpt lat="41.745485" lon="9.32761">
        <ele>503.8</ele>
        <time>2022-09-17T09:21:06Z</time>
      </trkpt>
      <trkpt lat="41.745467" lon="9.327667">
        <ele>503.0</ele>
        <time>2022-09-17T09:21:14Z</time>
      </trkpt>
      <trkpt lat="41.745347" lon="9.327743">
        <ele>501.2</ele>
        <time>2022-09-17T09:21:33Z</time>
      </trkpt>
      <trkpt lat="41.74503" lon="9.327867">
        <ele>494.6</ele>
        <time>2022-09-17T09:22:18Z</time>
      </trkpt>
      <trkpt lat="41.744933" lon="9.327905">
        <ele>491.0</ele>
        <time>2022-09-17T09:22:39Z</time>
      </trkpt>
      <trkpt lat="41.744903" lon="9.327902">
        <ele>490.2</ele>
        <time>2022-09-17T09:22:46Z</time>
      </trkpt>
      <trkpt lat="41.744883" lon="9.327918">
        <ele>489.6</ele>
        <time>2022-09-17T09:22:51Z</time>
      </trkpt>
      <trkpt lat="41.744832" lon="9.327947">
        <ele>487.6</ele>
        <time>2022-09-17T09:23:01Z</time>
      </trkpt>
      <trkpt lat="41.744795" lon="9.327942">
        <ele>485.8</ele>
        <time>2022-09-17T09:23:09Z</time>
      </trkpt>
      <trkpt lat="41.744758" lon="9.327943">
        <ele>485.4</ele>
        <time>2022-09-17T09:23:17Z</time>
      </trkpt>
      <trkpt lat="41.744707" lon="9.327955">
        <ele>484.0</ele>
        <time>2022-09-17T09:23:29Z</time>
      </trkpt>
      <trkpt lat="41.744703" lon="9.327903">
        <ele>481.6</ele>
        <time>2022-09-17T09:23:38Z</time>
      </trkpt>
      <trkpt lat="41.744722" lon="9.327798">
        <ele>479.0</ele>
        <time>2022-09-17T09:23:50Z</time>
      </trkpt>
      <trkpt lat="41.744723" lon="9.327793">
        <ele>479.0</ele>
        <time>2022-09-17T09:23:51Z</time>
      </trkpt>
      <trkpt lat="41.744748" lon="9.327738">
        <ele>478.0</ele>
        <time>2022-09-17T09:24:04Z</time>
      </trkpt>
      <trkpt lat="41.744727" lon="9.327722">
        <ele>476.8</ele>
        <time>2022-09-17T09:24:12Z</time>
      </trkpt>
      <trkpt lat="41.744663" lon="9.327745">
        <ele>475.8</ele>
        <time>2022-09-17T09:24:24Z</time>
      </trkpt>
      <trkpt lat="41.744518" lon="9.327832">
        <ele>474.0</ele>
        <time>2022-09-17T09:24:47Z</time>
      </trkpt>
      <trkpt lat="41.744515" lon="9.327835">
        <ele>474.0</ele>
        <time>2022-09-17T09:24:48Z</time>
      </trkpt>
      <trkpt lat="41.744493" lon="9.327873">
        <ele>473.6</ele>
        <time>2022-09-17T09:24:56Z</time>
      </trkpt>
      <trkpt lat="41.744465" lon="9.327912">
        <ele>471.6</ele>
        <time>2022-09-17T09:25:04Z</time>
      </trkpt>
      <trkpt lat="41.74441" lon="9.327932">
        <ele>470.2</ele>
        <time>2022-09-17T09:25:17Z</time>
      </trkpt>
      <trkpt lat="41.74438" lon="9.327955">
        <ele>468.6</ele>
        <time>2022-09-17T09:25:25Z</time>
      </trkpt>
      <trkpt lat="41.744378" lon="9.32796">
        <ele>468.4</ele>
        <time>2022-09-17T09:25:26Z</time>
      </trkpt>
      <trkpt lat="41.744378" lon="9.328008">
        <ele>467.2</ele>
        <time>2022-09-17T09:25:33Z</time>
      </trkpt>
      <trkpt lat="41.744358" lon="9.328042">
        <ele>466.6</ele>
        <time>2022-09-17T09:25:41Z</time>
      </trkpt>
      <trkpt lat="41.744298" lon="9.328105">
        <ele>463.8</ele>
        <time>2022-09-17T09:26:12Z</time>
      </trkpt>
      <trkpt lat="41.744285" lon="9.32817">
        <ele>459.0</ele>
        <time>2022-09-17T09:26:26Z</time>
      </trkpt>
      <trkpt lat="41.74428" lon="9.328177">
        <ele>458.8</ele>
        <time>2022-09-17T09:26:29Z</time>
      </trkpt>
      <trkpt lat="41.744128" lon="9.328288">
        <ele>456.6</ele>
        <time>2022-09-17T09:27:00Z</time>
      </trkpt>
      <trkpt lat="41.743993" lon="9.328423">
        <ele>454.2</ele>
        <time>2022-09-17T09:27:16Z</time>
      </trkpt>
      <trkpt lat="41.743978" lon="9.328435">
        <ele>454.2</ele>
        <time>2022-09-17T09:27:18Z</time>
      </trkpt>
      <trkpt lat="41.743975" lon="9.328455">
        <ele>453.8</ele>
        <time>2022-09-17T09:27:19Z</time>
      </trkpt>
      <trkpt lat="41.743937" lon="9.328655">
        <ele>452.8</ele>
        <time>2022-09-17T09:27:28Z</time>
      </trkpt>
      <trkpt lat="41.743872" lon="9.328907">
        <ele>451.0</ele>
        <time>2022-09-17T09:27:38Z</time>
      </trkpt>
      <trkpt lat="41.7438" lon="9.329085">
        <ele>449.6</ele>
        <time>2022-09-17T09:27:46Z</time>
      </trkpt>
      <trkpt lat="41.743795" lon="9.329107">
        <ele>449.2</ele>
        <time>2022-09-17T09:27:48Z</time>
      </trkpt>
      <trkpt lat="41.743792" lon="9.32913">
        <ele>449.0</ele>
        <time>2022-09-17T09:27:49Z</time>
      </trkpt>
      <trkpt lat="41.743752" lon="9.329308">
        <ele>447.4</ele>
        <time>2022-09-17T09:27:58Z</time>
      </trkpt>
      <trkpt lat="41.743747" lon="9.329327">
        <ele>447.4</ele>
        <time>2022-09-17T09:27:59Z</time>
      </trkpt>
      <trkpt lat="41.743682" lon="9.329285">
        <ele>446.0</ele>
        <time>2022-09-17T09:28:10Z</time>
      </trkpt>
      <trkpt lat="41.743677" lon="9.32929">
        <ele>445.0</ele>
        <time>2022-09-17T09:28:16Z</time>
      </trkpt>
      <trkpt lat="41.743655" lon="9.32927">
        <ele>444.0</ele>
        <time>2022-09-17T09:28:24Z</time>
      </trkpt>
      <trkpt lat="41.74363" lon="9.32924">
        <ele>442.6</ele>
        <time>2022-09-17T09:28:29Z</time>
      </trkpt>
      <trkpt lat="41.743542" lon="9.329313">
        <ele>439.6</ele>
        <time>2022-09-17T09:28:44Z</time>
      </trkpt>
      <trkpt lat="41.743438" lon="9.329377">
        <ele>435.6</ele>
        <time>2022-09-17T09:29:13Z</time>
      </trkpt>
      <trkpt lat="41.743377" lon="9.329448">
        <ele>430.6</ele>
        <time>2022-09-17T09:29:51Z</time>
      </trkpt>
      <trkpt lat="41.743373" lon="9.32945">
        <ele>430.6</ele>
        <time>2022-09-17T09:29:52Z</time>
      </trkpt>
      <trkpt lat="41.743175" lon="9.32952">
        <ele>429.4</ele>
        <time>2022-09-17T09:30:02Z</time>
      </trkpt>
      <trkpt lat="41.743097" lon="9.329788">
        <ele>424.8</ele>
        <time>2022-09-17T09:30:35Z</time>
      </trkpt>
      <trkpt lat="41.742832" lon="9.32978">
        <ele>423.2</ele>
        <time>2022-09-17T09:30:47Z</time>
      </trkpt>
      <trkpt lat="41.742795" lon="9.329817">
        <ele>422.8</ele>
        <time>2022-09-17T09:30:51Z</time>
      </trkpt>
      <trkpt lat="41.742668" lon="9.32983">
        <ele>419.6</ele>
        <time>2022-09-17T09:31:09Z</time>
      </trkpt>
      <trkpt lat="41.742662" lon="9.329773">
        <ele>418.8</ele>
        <time>2022-09-17T09:31:14Z</time>
      </trkpt>
      <trkpt lat="41.742663" lon="9.329762">
        <ele>418.8</ele>
        <time>2022-09-17T09:31:15Z</time>
      </trkpt>
      <trkpt lat="41.742705" lon="9.329668">
        <ele>417.6</ele>
        <time>2022-09-17T09:31:25Z</time>
      </trkpt>
      <trkpt lat="41.742712" lon="9.329657">
        <ele>417.6</ele>
        <time>2022-09-17T09:31:27Z</time>
      </trkpt>
      <trkpt lat="41.742717" lon="9.329645">
        <ele>417.4</ele>
        <time>2022-09-17T09:31:28Z</time>
      </trkpt>
      <trkpt lat="41.74273" lon="9.329608">
        <ele>416.6</ele>
        <time>2022-09-17T09:31:31Z</time>
      </trkpt>
      <trkpt lat="41.74273" lon="9.32958">
        <ele>416.2</ele>
        <time>2022-09-17T09:31:33Z</time>
      </trkpt>
      <trkpt lat="41.742725" lon="9.32957">
        <ele>416.2</ele>
        <time>2022-09-17T09:31:33Z</time>
      </trkpt>
      <trkpt lat="41.742717" lon="9.32956">
        <ele>416.0</ele>
        <time>2022-09-17T09:31:35Z</time>
      </trkpt>
      <trkpt lat="41.742658" lon="9.329488">
        <ele>415.0</ele>
        <time>2022-09-17T09:31:43Z</time>
      </trkpt>
      <trkpt lat="41.742622" lon="9.329492">
        <ele>414.4</ele>
        <time>2022-09-17T09:31:48Z</time>
      </trkpt>
      <trkpt lat="41.742562" lon="9.329532">
        <ele>413.0</ele>
        <time>2022-09-17T09:31:58Z</time>
      </trkpt>
      <trkpt lat="41.742555" lon="9.329532">
        <ele>413.0</ele>
        <time>2022-09-17T09:31:59Z</time>
      </trkpt>
      <trkpt lat="41.742523" lon="9.329572">
        <ele>412.2</ele>
        <time>2022-09-17T09:32:07Z</time>
      </trkpt>
      <trkpt lat="41.74249" lon="9.329593">
        <ele>411.6</ele>
        <time>2022-09-17T09:32:14Z</time>
      </trkpt>
      <trkpt lat="41.742463" lon="9.329593">
        <ele>410.6</ele>
        <time>2022-09-17T09:32:21Z</time>
      </trkpt>
      <trkpt lat="41.742447" lon="9.32955">
        <ele>409.2</ele>
        <time>2022-09-17T09:32:32Z</time>
      </trkpt>
      <trkpt lat="41.74242" lon="9.329548">
        <ele>408.2</ele>
        <time>2022-09-17T09:32:40Z</time>
      </trkpt>
      <trkpt lat="41.742422" lon="9.329543">
        <ele>408.2</ele>
        <time>2022-09-17T09:32:41Z</time>
      </trkpt>
      <trkpt lat="41.742363" lon="9.329523">
        <ele>406.6</ele>
        <time>2022-09-17T09:32:53Z</time>
      </trkpt>
      <trkpt lat="41.742323" lon="9.32951">
        <ele>405.0</ele>
        <time>2022-09-17T09:33:04Z</time>
      </trkpt>
      <trkpt lat="41.742267" lon="9.3296">
        <ele>401.6</ele>
        <time>2022-09-17T09:33:27Z</time>
      </trkpt>
      <trkpt lat="41.74219" lon="9.329733">
        <ele>398.8</ele>
        <time>2022-09-17T09:33:43Z</time>
      </trkpt>
      <trkpt lat="41.742167" lon="9.329753">
        <ele>398.2</ele>
        <time>2022-09-17T09:33:47Z</time>
      </trkpt>
      <trkpt lat="41.742145" lon="9.329755">
        <ele>397.8</ele>
        <time>2022-09-17T09:33:49Z</time>
      </trkpt>
      <trkpt lat="41.742097" lon="9.32977">
        <ele>396.4</ele>
        <time>2022-09-17T09:33:54Z</time>
      </trkpt>
      <trkpt lat="41.742062" lon="9.329793">
        <ele>395.2</ele>
        <time>2022-09-17T09:33:58Z</time>
      </trkpt>
      <trkpt lat="41.742038" lon="9.329832">
        <ele>394.6</ele>
        <time>2022-09-17T09:34:02Z</time>
      </trkpt>
      <trkpt lat="41.742015" lon="9.329888">
        <ele>393.6</ele>
        <time>2022-09-17T09:34:08Z</time>
      </trkpt>
      <trkpt lat="41.741962" lon="9.329937">
        <ele>392.0</ele>
        <time>2022-09-17T09:34:18Z</time>
      </trkpt>
      <trkpt lat="41.741905" lon="9.329977">
        <ele>390.4</ele>
        <time>2022-09-17T09:34:29Z</time>
      </trkpt>
      <trkpt lat="41.741895" lon="9.329988">
        <ele>390.4</ele>
        <time>2022-09-17T09:34:30Z</time>
      </trkpt>
      <trkpt lat="41.741865" lon="9.329995">
        <ele>389.0</ele>
        <time>2022-09-17T09:34:36Z</time>
      </trkpt>
      <trkpt lat="41.74184" lon="9.329993">
        <ele>386.8</ele>
        <time>2022-09-17T09:34:48Z</time>
      </trkpt>
      <trkpt lat="41.741812" lon="9.329998">
        <ele>385.8</ele>
        <time>2022-09-17T09:34:53Z</time>
      </trkpt>
      <trkpt lat="41.741778" lon="9.329992">
        <ele>385.0</ele>
        <time>2022-09-17T09:34:58Z</time>
      </trkpt>
      <trkpt lat="41.741748" lon="9.33003">
        <ele>384.4</ele>
        <time>2022-09-17T09:35:06Z</time>
      </trkpt>
      <trkpt lat="41.741743" lon="9.33003">
        <ele>384.4</ele>
        <time>2022-09-17T09:35:07Z</time>
      </trkpt>
      <trkpt lat="41.741677" lon="9.329938">
        <ele>383.4</ele>
        <time>2022-09-17T09:35:18Z</time>
      </trkpt>
      <trkpt lat="41.741582" lon="9.32977">
        <ele>382.2</ele>
        <time>2022-09-17T09:35:28Z</time>
      </trkpt>
      <trkpt lat="41.741507" lon="9.329722">
        <ele>381.8</ele>
        <time>2022-09-17T09:35:32Z</time>
      </trkpt>
      <trkpt lat="41.741323" lon="9.329635">
        <ele>381.8</ele>
        <time>2022-09-17T09:35:43Z</time>
      </trkpt>
      <trkpt lat="41.74131" lon="9.329617">
        <ele>381.8</ele>
        <time>2022-09-17T09:35:43Z</time>
      </trkpt>
      <trkpt lat="41.741298" lon="9.329627">
        <ele>382.2</ele>
        <time>2022-09-17T09:35:45Z</time>
      </trkpt>
      <trkpt lat="41.741285" lon="9.329635">
        <ele>382.2</ele>
        <time>2022-09-17T09:35:46Z</time>
      </trkpt>
      <trkpt lat="41.741243" lon="9.329658">
        <ele>382.2</ele>
        <time>2022-09-17T09:35:49Z</time>
      </trkpt>
      <trkpt lat="41.741128" lon="9.329697">
        <ele>383.2</ele>
        <time>2022-09-17T09:35:57Z</time>
      </trkpt>
      <trkpt lat="41.741117" lon="9.329777">
        <ele>383.6</ele>
        <time>2022-09-17T09:36:01Z</time>
      </trkpt>
      <trkpt lat="41.741122" lon="9.329858">
        <ele>384.4</ele>
        <time>2022-09-17T09:36:07Z</time>
      </trkpt>
      <trkpt lat="41.741122" lon="9.32989">
        <ele>384.8</ele>
        <time>2022-09-17T09:36:09Z</time>
      </trkpt>
      <trkpt lat="41.74111" lon="9.329945">
        <ele>385.0</ele>
        <time>2022-09-17T09:36:13Z</time>
      </trkpt>
      <trkpt lat="41.741053" lon="9.330077">
        <ele>384.2</ele>
        <time>2022-09-17T09:36:23Z</time>
      </trkpt>
      <trkpt lat="41.741052" lon="9.330092">
        <ele>384.2</ele>
        <time>2022-09-17T09:36:24Z</time>
      </trkpt>
      <trkpt lat="41.740997" lon="9.330083">
        <ele>384.8</ele>
        <time>2022-09-17T09:36:31Z</time>
      </trkpt>
      <trkpt lat="41.740953" lon="9.330082">
        <ele>385.6</ele>
        <time>2022-09-17T09:36:38Z</time>
      </trkpt>
      <trkpt lat="41.740925" lon="9.330098">
        <ele>384.2</ele>
        <time>2022-09-17T09:36:45Z</time>
      </trkpt>
      <trkpt lat="41.74085" lon="9.330078">
        <ele>381.6</ele>
        <time>2022-09-17T09:37:09Z</time>
      </trkpt>
      <trkpt lat="41.740838" lon="9.330072">
        <ele>380.6</ele>
        <time>2022-09-17T09:37:12Z</time>
      </trkpt>
      <trkpt lat="41.740828" lon="9.330068">
        <ele>380.2</ele>
        <time>2022-09-17T09:37:16Z</time>
      </trkpt>
      <trkpt lat="41.740677" lon="9.330038">
        <ele>374.4</ele>
        <time>2022-09-17T09:37:58Z</time>
      </trkpt>
      <trkpt lat="41.740435" lon="9.329982">
        <ele>371.0</ele>
        <time>2022-09-17T09:38:17Z</time>
      </trkpt>
      <trkpt lat="41.74041" lon="9.329983">
        <ele>371.0</ele>
        <time>2022-09-17T09:38:19Z</time>
      </trkpt>
      <trkpt lat="41.740333" lon="9.329998">
        <ele>370.8</ele>
        <time>2022-09-17T09:38:25Z</time>
      </trkpt>
      <trkpt lat="41.74023" lon="9.330025">
        <ele>370.4</ele>
        <time>2022-09-17T09:38:35Z</time>
      </trkpt>
      <trkpt lat="41.740103" lon="9.330005">
        <ele>369.6</ele>
        <time>2022-09-17T09:38:43Z</time>
      </trkpt>
      <trkpt lat="41.740097" lon="9.33001">
        <ele>369.6</ele>
        <time>2022-09-17T09:38:43Z</time>
      </trkpt>
      <trkpt lat="41.740045" lon="9.330027">
        <ele>369.0</ele>
        <time>2022-09-17T09:38:49Z</time>
      </trkpt>
      <trkpt lat="41.739963" lon="9.330023">
        <ele>367.8</ele>
        <time>2022-09-17T09:38:59Z</time>
      </trkpt>
      <trkpt lat="41.739885" lon="9.33002">
        <ele>366.4</ele>
        <time>2022-09-17T09:39:12Z</time>
      </trkpt>
      <trkpt lat="41.739872" lon="9.33002">
        <ele>366.2</ele>
        <time>2022-09-17T09:39:14Z</time>
      </trkpt>
      <trkpt lat="41.73986" lon="9.330022">
        <ele>366.0</ele>
        <time>2022-09-17T09:39:16Z</time>
      </trkpt>
      <trkpt lat="41.739797" lon="9.330033">
        <ele>364.4</ele>
        <time>2022-09-17T09:39:27Z</time>
      </trkpt>
      <trkpt lat="41.73977" lon="9.33006">
        <ele>363.6</ele>
        <time>2022-09-17T09:39:33Z</time>
      </trkpt>
      <trkpt lat="41.739763" lon="9.330075">
        <ele>363.4</ele>
        <time>2022-09-17T09:39:36Z</time>
      </trkpt>
      <trkpt lat="41.739762" lon="9.33009">
        <ele>363.2</ele>
        <time>2022-09-17T09:39:38Z</time>
      </trkpt>
      <trkpt lat="41.739717" lon="9.330168">
        <ele>360.6</ele>
        <time>2022-09-17T09:39:48Z</time>
      </trkpt>
      <trkpt lat="41.73965" lon="9.330365">
        <ele>356.8</ele>
        <time>2022-09-17T09:40:09Z</time>
      </trkpt>
      <trkpt lat="41.739643" lon="9.330385">
        <ele>356.8</ele>
        <time>2022-09-17T09:40:10Z</time>
      </trkpt>
      <trkpt lat="41.739622" lon="9.330503">
        <ele>354.6</ele>
        <time>2022-09-17T09:40:24Z</time>
      </trkpt>
      <trkpt lat="41.739592" lon="9.330673">
        <ele>351.6</ele>
        <time>2022-09-17T09:40:47Z</time>
      </trkpt>
      <trkpt lat="41.739533" lon="9.330735">
        <ele>349.0</ele>
        <time>2022-09-17T09:41:15Z</time>
      </trkpt>
      <trkpt lat="41.73956" lon="9.330822">
        <ele>348.4</ele>
        <time>2022-09-17T09:41:26Z</time>
      </trkpt>
      <trkpt lat="41.739698" lon="9.330985">
        <ele>346.8</ele>
        <time>2022-09-17T09:41:38Z</time>
      </trkpt>
      <trkpt lat="41.73972" lon="9.331455">
        <ele>344.2</ele>
        <time>2022-09-17T09:41:51Z</time>
      </trkpt>
      <trkpt lat="41.739712" lon="9.331467">
        <ele>344.2</ele>
        <time>2022-09-17T09:41:51Z</time>
      </trkpt>
      <trkpt lat="41.7397" lon="9.331482">
        <ele>343.6</ele>
        <time>2022-09-17T09:41:53Z</time>
      </trkpt>
      <trkpt lat="41.739687" lon="9.331493">
        <ele>343.6</ele>
        <time>2022-09-17T09:41:55Z</time>
      </trkpt>
      <trkpt lat="41.739618" lon="9.331513">
        <ele>342.4</ele>
        <time>2022-09-17T09:42:02Z</time>
      </trkpt>
      <trkpt lat="41.739553" lon="9.331508">
        <ele>341.0</ele>
        <time>2022-09-17T09:42:06Z</time>
      </trkpt>
      <trkpt lat="41.73951" lon="9.331508">
        <ele>340.2</ele>
        <time>2022-09-17T09:42:10Z</time>
      </trkpt>
      <trkpt lat="41.739287" lon="9.331565">
        <ele>334.0</ele>
        <time>2022-09-17T09:42:33Z</time>
      </trkpt>
      <trkpt lat="41.739232" lon="9.331627">
        <ele>333.0</ele>
        <time>2022-09-17T09:42:42Z</time>
      </trkpt>
      <trkpt lat="41.739218" lon="9.331638">
        <ele>332.6</ele>
        <time>2022-09-17T09:42:44Z</time>
      </trkpt>
      <trkpt lat="41.739205" lon="9.33165">
        <ele>332.4</ele>
        <time>2022-09-17T09:42:46Z</time>
      </trkpt>
      <trkpt lat="41.739193" lon="9.331665">
        <ele>332.0</ele>
        <time>2022-09-17T09:42:47Z</time>
      </trkpt>
      <trkpt lat="41.739182" lon="9.331678">
        <ele>332.0</ele>
        <time>2022-09-17T09:42:49Z</time>
      </trkpt>
      <trkpt lat="41.739095" lon="9.331772">
        <ele>330.2</ele>
        <time>2022-09-17T09:43:04Z</time>
      </trkpt>
      <trkpt lat="41.73897" lon="9.331907">
        <ele>328.2</ele>
        <time>2022-09-17T09:43:27Z</time>
      </trkpt>
      <trkpt lat="41.738967" lon="9.331913">
        <ele>328.2</ele>
        <time>2022-09-17T09:43:30Z</time>
      </trkpt>
      <trkpt lat="41.73895" lon="9.331928">
        <ele>327.8</ele>
        <time>2022-09-17T09:43:32Z</time>
      </trkpt>
      <trkpt lat="41.738665" lon="9.33218">
        <ele>324.8</ele>
        <time>2022-09-17T09:44:00Z</time>
      </trkpt>
      <trkpt lat="41.738492" lon="9.332327">
        <ele>324.0</ele>
        <time>2022-09-17T09:44:15Z</time>
      </trkpt>
      <trkpt lat="41.738478" lon="9.332335">
        <ele>324.0</ele>
        <time>2022-09-17T09:44:16Z</time>
      </trkpt>
      <trkpt lat="41.738357" lon="9.332428">
        <ele>324.8</ele>
        <time>2022-09-17T09:44:34Z</time>
      </trkpt>
      <trkpt lat="41.73828" lon="9.332483">
        <ele>323.4</ele>
        <time>2022-09-17T09:44:45Z</time>
      </trkpt>
      <trkpt lat="41.738167" lon="9.332577">
        <ele>320.8</ele>
        <time>2022-09-17T09:45:03Z</time>
      </trkpt>
      <trkpt lat="41.738035" lon="9.332605">
        <ele>316.4</ele>
        <time>2022-09-17T09:45:20Z</time>
      </trkpt>
      <trkpt lat="41.737815" lon="9.332608">
        <ele>312.2</ele>
        <time>2022-09-17T09:45:42Z</time>
      </trkpt>
      <trkpt lat="41.737795" lon="9.332607">
        <ele>311.2</ele>
        <time>2022-09-17T09:45:46Z</time>
      </trkpt>
      <trkpt lat="41.737623" lon="9.332592">
        <ele>307.2</ele>
        <time>2022-09-17T09:46:05Z</time>
      </trkpt>
      <trkpt lat="41.737615" lon="9.332597">
        <ele>307.0</ele>
        <time>2022-09-17T09:46:06Z</time>
      </trkpt>
      <trkpt lat="41.737483" lon="9.332695">
        <ele>303.4</ele>
        <time>2022-09-17T09:46:26Z</time>
      </trkpt>
      <trkpt lat="41.73747" lon="9.3327">
        <ele>302.8</ele>
        <time>2022-09-17T09:46:28Z</time>
      </trkpt>
      <trkpt lat="41.737397" lon="9.332717">
        <ele>300.0</ele>
        <time>2022-09-17T09:46:40Z</time>
      </trkpt>
      <trkpt lat="41.737385" lon="9.332718">
        <ele>299.8</ele>
        <time>2022-09-17T09:46:42Z</time>
      </trkpt>
      <trkpt lat="41.737378" lon="9.33272">
        <ele>299.8</ele>
        <time>2022-09-17T09:46:43Z</time>
      </trkpt>
      <trkpt lat="41.737357" lon="9.33271">
        <ele>300.0</ele>
        <time>2022-09-17T09:46:46Z</time>
      </trkpt>
      <trkpt lat="41.737278" lon="9.332642">
        <ele>300.4</ele>
        <time>2022-09-17T09:46:59Z</time>
      </trkpt>
      <trkpt lat="41.73719" lon="9.332575">
        <ele>301.0</ele>
        <time>2022-09-17T09:47:15Z</time>
      </trkpt>
      <trkpt lat="41.737103" lon="9.332497">
        <ele>301.0</ele>
        <time>2022-09-17T09:47:31Z</time>
      </trkpt>
      <trkpt lat="41.73684" lon="9.332473">
        <ele>296.6</ele>
        <time>2022-09-17T09:48:00Z</time>
      </trkpt>
      <trkpt lat="41.73663" lon="9.332472">
        <ele>294.2</ele>
        <time>2022-09-17T09:48:19Z</time>
      </trkpt>
      <trkpt lat="41.736622" lon="9.332458">
        <ele>294.2</ele>
        <time>2022-09-17T09:48:20Z</time>
      </trkpt>
      <trkpt lat="41.736583" lon="9.332373">
        <ele>292.6</ele>
        <time>2022-09-17T09:48:28Z</time>
      </trkpt>
      <trkpt lat="41.736532" lon="9.332338">
        <ele>292.2</ele>
        <time>2022-09-17T09:48:33Z</time>
      </trkpt>
      <trkpt lat="41.736498" lon="9.332295">
        <ele>292.8</ele>
        <time>2022-09-17T09:48:37Z</time>
      </trkpt>
      <trkpt lat="41.736487" lon="9.332267">
        <ele>292.4</ele>
        <time>2022-09-17T09:48:39Z</time>
      </trkpt>
      <trkpt lat="41.736457" lon="9.332133">
        <ele>291.6</ele>
        <time>2022-09-17T09:48:47Z</time>
      </trkpt>
      <trkpt lat="41.736453" lon="9.332095">
        <ele>291.6</ele>
        <time>2022-09-17T09:48:49Z</time>
      </trkpt>
      <trkpt lat="41.736453" lon="9.331957">
        <ele>290.4</ele>
        <time>2022-09-17T09:48:56Z</time>
      </trkpt>
      <trkpt lat="41.736453" lon="9.331937">
        <ele>290.4</ele>
        <time>2022-09-17T09:48:57Z</time>
      </trkpt>
      <trkpt lat="41.736468" lon="9.331883">
        <ele>288.8</ele>
        <time>2022-09-17T09:49:02Z</time>
      </trkpt>
      <trkpt lat="41.736478" lon="9.331812">
        <ele>287.6</ele>
        <time>2022-09-17T09:49:08Z</time>
      </trkpt>
      <trkpt lat="41.73646" lon="9.331742">
        <ele>287.6</ele>
        <time>2022-09-17T09:49:15Z</time>
      </trkpt>
      <trkpt lat="41.73645" lon="9.331723">
        <ele>287.6</ele>
        <time>2022-09-17T09:49:17Z</time>
      </trkpt>
      <trkpt lat="41.736402" lon="9.331678">
        <ele>287.6</ele>
        <time>2022-09-17T09:49:24Z</time>
      </trkpt>
      <trkpt lat="41.736372" lon="9.331667">
        <ele>287.6</ele>
        <time>2022-09-17T09:49:28Z</time>
      </trkpt>
      <trkpt lat="41.736312" lon="9.331663">
        <ele>286.4</ele>
        <time>2022-09-17T09:49:37Z</time>
      </trkpt>
      <trkpt lat="41.736293" lon="9.331663">
        <ele>285.6</ele>
        <time>2022-09-17T09:49:41Z</time>
      </trkpt>
      <trkpt lat="41.736277" lon="9.331662">
        <ele>285.0</ele>
        <time>2022-09-17T09:49:44Z</time>
      </trkpt>
      <trkpt lat="41.736262" lon="9.33166">
        <ele>284.2</ele>
        <time>2022-09-17T09:49:47Z</time>
      </trkpt>
      <trkpt lat="41.736245" lon="9.331653">
        <ele>283.8</ele>
        <time>2022-09-17T09:49:50Z</time>
      </trkpt>
      <trkpt lat="41.73616" lon="9.331592">
        <ele>283.6</ele>
        <time>2022-09-17T09:50:07Z</time>
      </trkpt>
      <trkpt lat="41.736167" lon="9.331592">
        <ele>283.6</ele>
        <time>2022-09-17T09:50:08Z</time>
      </trkpt>
      <trkpt lat="41.736205" lon="9.331587">
        <ele>283.8</ele>
        <time>2022-09-17T09:50:14Z</time>
      </trkpt>
      <trkpt lat="41.736192" lon="9.331568">
        <ele>282.2</ele>
        <time>2022-09-17T09:50:20Z</time>
      </trkpt>
      <trkpt lat="41.736158" lon="9.331587">
        <ele>281.8</ele>
        <time>2022-09-17T09:50:25Z</time>
      </trkpt>
      <trkpt lat="41.736135" lon="9.33163">
        <ele>280.6</ele>
        <time>2022-09-17T09:50:29Z</time>
      </trkpt>
      <trkpt lat="41.736127" lon="9.331698">
        <ele>280.0</ele>
        <time>2022-09-17T09:50:34Z</time>
      </trkpt>
      <trkpt lat="41.736178" lon="9.33179">
        <ele>277.0</ele>
        <time>2022-09-17T09:50:50Z</time>
      </trkpt>
      <trkpt lat="41.736177" lon="9.331827">
        <ele>276.6</ele>
        <time>2022-09-17T09:50:52Z</time>
      </trkpt>
      <trkpt lat="41.736118" lon="9.332105">
        <ele>275.8</ele>
        <time>2022-09-17T09:51:05Z</time>
      </trkpt>
      <trkpt lat="41.73611" lon="9.332125">
        <ele>275.8</ele>
        <time>2022-09-17T09:51:06Z</time>
      </trkpt>
      <trkpt lat="41.73609" lon="9.332168">
        <ele>275.6</ele>
        <time>2022-09-17T09:51:11Z</time>
      </trkpt>
      <trkpt lat="41.73607" lon="9.332272">
        <ele>275.2</ele>
        <time>2022-09-17T09:51:20Z</time>
      </trkpt>
      <trkpt lat="41.73603" lon="9.332383">
        <ele>274.6</ele>
        <time>2022-09-17T09:51:32Z</time>
      </trkpt>
      <trkpt lat="41.735955" lon="9.332385">
        <ele>274.4</ele>
        <time>2022-09-17T09:51:40Z</time>
      </trkpt>
      <trkpt lat="41.735868" lon="9.332398">
        <ele>274.6</ele>
        <time>2022-09-17T09:51:48Z</time>
      </trkpt>
      <trkpt lat="41.735855" lon="9.332452">
        <ele>274.6</ele>
        <time>2022-09-17T09:51:54Z</time>
      </trkpt>
      <trkpt lat="41.735853" lon="9.332477">
        <ele>274.6</ele>
        <time>2022-09-17T09:51:56Z</time>
      </trkpt>
      <trkpt lat="41.735853" lon="9.332545">
        <ele>274.4</ele>
        <time>2022-09-17T09:52:02Z</time>
      </trkpt>
      <trkpt lat="41.735843" lon="9.332572">
        <ele>274.4</ele>
        <time>2022-09-17T09:52:04Z</time>
      </trkpt>
      <trkpt lat="41.735833" lon="9.332595">
        <ele>274.2</ele>
        <time>2022-09-17T09:52:06Z</time>
      </trkpt>
      <trkpt lat="41.7358" lon="9.33267">
        <ele>273.6</ele>
        <time>2022-09-17T09:52:14Z</time>
      </trkpt>
      <trkpt lat="41.735627" lon="9.332878">
        <ele>268.6</ele>
        <time>2022-09-17T09:52:46Z</time>
      </trkpt>
      <trkpt lat="41.735578" lon="9.332952">
        <ele>268.6</ele>
        <time>2022-09-17T09:52:52Z</time>
      </trkpt>
      <trkpt lat="41.735335" lon="9.333285">
        <ele>265.4</ele>
        <time>2022-09-17T09:53:22Z</time>
      </trkpt>
      <trkpt lat="41.735283" lon="9.333348">
        <ele>264.4</ele>
        <time>2022-09-17T09:53:28Z</time>
      </trkpt>
      <trkpt lat="41.735268" lon="9.333358">
        <ele>263.8</ele>
        <time>2022-09-17T09:53:32Z</time>
      </trkpt>
      <trkpt lat="41.735112" lon="9.333463">
        <ele>261.2</ele>
        <time>2022-09-17T09:53:52Z</time>
      </trkpt>
      <trkpt lat="41.735075" lon="9.333495">
        <ele>260.6</ele>
        <time>2022-09-17T09:53:57Z</time>
      </trkpt>
      <trkpt lat="41.73502" lon="9.33353">
        <ele>259.6</ele>
        <time>2022-09-17T09:54:04Z</time>
      </trkpt>
      <trkpt lat="41.734857" lon="9.33361">
        <ele>258.0</ele>
        <time>2022-09-17T09:54:27Z</time>
      </trkpt>
      <trkpt lat="41.734865" lon="9.333657">
        <ele>256.8</ele>
        <time>2022-09-17T09:54:42Z</time>
      </trkpt>
      <trkpt lat="41.734895" lon="9.33365">
        <ele>257.0</ele>
        <time>2022-09-17T09:54:47Z</time>
      </trkpt>
      <trkpt lat="41.73491" lon="9.333677">
        <ele>257.0</ele>
        <time>2022-09-17T09:54:51Z</time>
      </trkpt>
      <trkpt lat="41.734902" lon="9.333748">
        <ele>256.6</ele>
        <time>2022-09-17T09:54:58Z</time>
      </trkpt>
      <trkpt lat="41.734825" lon="9.333817">
        <ele>257.4</ele>
        <time>2022-09-17T09:55:10Z</time>
      </trkpt>
      <trkpt lat="41.734843" lon="9.333845">
        <ele>257.8</ele>
        <time>2022-09-17T09:55:17Z</time>
      </trkpt>
      <trkpt lat="41.734862" lon="9.333855">
        <ele>257.8</ele>
        <time>2022-09-17T09:55:20Z</time>
      </trkpt>
      <trkpt lat="41.734883" lon="9.33387">
        <ele>258.0</ele>
        <time>2022-09-17T09:55:24Z</time>
      </trkpt>
      <trkpt lat="41.734892" lon="9.333872">
        <ele>258.0</ele>
        <time>2022-09-17T09:55:25Z</time>
      </trkpt>
    </trkseg>
  </trk>
</gpx>
